<?xml version="1.0" encoding="UTF-8" ?>
<gpx
 version="1.0"
 creator="GPSMapEdit 2.1.78.8 - http://www.geopainting.com"
 xmlns:xsi="http://www.w3.org/2001/XMLSchema-instance"
 xmlns="http://www.topografix.com/GPX/1/0"
 xsi:schemaLocation="http://www.topografix.com/GPX/1/0 http://www.topografix.com/GPX/1/0/gpx.xsd">
<time>2014-04-30T14:33:28Z</time>
<bounds minlat="32.034374" minlon="-6.712137" maxlat="44.001722" maxlon="4.373317"/>
<trk>
 <name>GPS_20140323</name>
 <trkseg>
  <trkpt lat="43.996765" lon="4.371872">
   <ele>119.00</ele>
   <time>2014-03-23T09:49:06Z</time>
  </trkpt>
  <trkpt lat="43.998193" lon="4.371419">
   <ele>122.00</ele>
   <time>2014-03-23T09:49:19Z</time>
  </trkpt>
  <trkpt lat="43.998425" lon="4.371490">
   <ele>123.00</ele>
   <time>2014-03-23T09:49:22Z</time>
  </trkpt>
  <trkpt lat="43.998643" lon="4.371703">
   <ele>124.00</ele>
   <time>2014-03-23T09:49:25Z</time>
  </trkpt>
  <trkpt lat="43.999184" lon="4.372265">
   <ele>124.00</ele>
   <time>2014-03-23T09:49:32Z</time>
  </trkpt>
  <trkpt lat="43.999397" lon="4.372316">
   <ele>124.00</ele>
   <time>2014-03-23T09:49:35Z</time>
  </trkpt>
  <trkpt lat="43.999606" lon="4.372225">
   <ele>123.00</ele>
   <time>2014-03-23T09:49:38Z</time>
  </trkpt>
  <trkpt lat="43.999816" lon="4.372116">
   <ele>123.00</ele>
   <time>2014-03-23T09:49:41Z</time>
  </trkpt>
  <trkpt lat="44.000021" lon="4.372033">
   <ele>124.00</ele>
   <time>2014-03-23T09:49:44Z</time>
  </trkpt>
  <trkpt lat="44.000201" lon="4.372037">
   <ele>125.00</ele>
   <time>2014-03-23T09:49:47Z</time>
  </trkpt>
  <trkpt lat="44.000375" lon="4.372076">
   <ele>126.00</ele>
   <time>2014-03-23T09:49:53Z</time>
  </trkpt>
  <trkpt lat="44.000455" lon="4.372336">
   <ele>124.00</ele>
   <time>2014-03-23T09:49:57Z</time>
  </trkpt>
  <trkpt lat="44.000586" lon="4.372734">
   <ele>122.00</ele>
   <time>2014-03-23T09:50:01Z</time>
  </trkpt>
  <trkpt lat="44.000653" lon="4.373062">
   <ele>121.00</ele>
   <time>2014-03-23T09:50:04Z</time>
  </trkpt>
  <trkpt lat="44.000697" lon="4.373317">
   <ele>119.00</ele>
   <time>2014-03-23T09:50:09Z</time>
  </trkpt>
  <trkpt lat="44.000893" lon="4.373302">
   <ele>118.00</ele>
   <time>2014-03-23T09:50:15Z</time>
  </trkpt>
  <trkpt lat="44.001078" lon="4.373210">
   <ele>117.00</ele>
   <time>2014-03-23T09:50:18Z</time>
  </trkpt>
  <trkpt lat="44.001288" lon="4.373035">
   <ele>118.00</ele>
   <time>2014-03-23T09:50:22Z</time>
  </trkpt>
  <trkpt lat="44.001364" lon="4.372818">
   <ele>117.00</ele>
   <time>2014-03-23T09:50:26Z</time>
  </trkpt>
  <trkpt lat="44.001346" lon="4.372409">
   <ele>117.00</ele>
   <time>2014-03-23T09:50:30Z</time>
  </trkpt>
  <trkpt lat="44.001402" lon="4.372157">
   <ele>118.00</ele>
   <time>2014-03-23T09:50:33Z</time>
  </trkpt>
  <trkpt lat="44.001561" lon="4.372099">
   <ele>119.00</ele>
   <time>2014-03-23T09:50:37Z</time>
  </trkpt>
  <trkpt lat="44.001625" lon="4.372368">
   <ele>118.00</ele>
   <time>2014-03-23T09:50:41Z</time>
  </trkpt>
  <trkpt lat="44.001673" lon="4.372644">
   <ele>118.00</ele>
   <time>2014-03-23T09:50:44Z</time>
  </trkpt>
  <trkpt lat="44.001722" lon="4.372969">
   <ele>118.00</ele>
   <time>2014-03-23T09:50:48Z</time>
  </trkpt>
  <trkpt lat="44.001646" lon="4.373079">
   <ele>121.00</ele>
   <time>2014-03-23T09:51:03Z</time>
  </trkpt>
  <trkpt lat="44.001647" lon="4.373076">
   <ele>122.00</ele>
   <time>2014-03-23T09:51:07Z</time>
  </trkpt>
 </trkseg>
</trk>
<trk>
 <name>GPS_20140329</name>
 <trkseg>
  <trkpt lat="35.870888" lon="-5.519768">
   <ele>30.00</ele>
   <time>2014-03-29T10:12:14Z</time>
  </trkpt>
  <trkpt lat="35.870888" lon="-5.519775">
   <ele>32.00</ele>
   <time>2014-03-29T10:12:29Z</time>
  </trkpt>
  <trkpt lat="35.870798" lon="-5.520001">
   <ele>30.00</ele>
   <time>2014-03-29T10:12:40Z</time>
  </trkpt>
  <trkpt lat="35.870591" lon="-5.520383">
   <ele>29.00</ele>
   <time>2014-03-29T10:12:48Z</time>
  </trkpt>
  <trkpt lat="35.870448" lon="-5.520583">
   <ele>29.00</ele>
   <time>2014-03-29T10:12:56Z</time>
  </trkpt>
  <trkpt lat="35.870251" lon="-5.520776">
   <ele>30.00</ele>
   <time>2014-03-29T10:13:09Z</time>
  </trkpt>
  <trkpt lat="35.870178" lon="-5.520984">
   <ele>29.00</ele>
   <time>2014-03-29T10:13:14Z</time>
  </trkpt>
  <trkpt lat="35.870155" lon="-5.521060">
   <ele>30.00</ele>
   <time>2014-03-29T10:13:29Z</time>
  </trkpt>
  <trkpt lat="35.870155" lon="-5.521058">
   <ele>30.00</ele>
   <time>2014-03-29T10:13:44Z</time>
  </trkpt>
  <trkpt lat="35.870155" lon="-5.521063">
   <ele>30.00</ele>
   <time>2014-03-29T10:14:00Z</time>
  </trkpt>
  <trkpt lat="35.870105" lon="-5.521280">
   <ele>30.00</ele>
   <time>2014-03-29T10:14:11Z</time>
  </trkpt>
  <trkpt lat="35.870105" lon="-5.521507">
   <ele>30.00</ele>
   <time>2014-03-29T10:14:15Z</time>
  </trkpt>
  <trkpt lat="35.870094" lon="-5.521802">
   <ele>30.00</ele>
   <time>2014-03-29T10:14:19Z</time>
  </trkpt>
  <trkpt lat="35.869965" lon="-5.522009">
   <ele>30.00</ele>
   <time>2014-03-29T10:14:22Z</time>
  </trkpt>
  <trkpt lat="35.869795" lon="-5.522201">
   <ele>31.00</ele>
   <time>2014-03-29T10:14:25Z</time>
  </trkpt>
  <trkpt lat="35.869626" lon="-5.522404">
   <ele>32.00</ele>
   <time>2014-03-29T10:14:28Z</time>
  </trkpt>
  <trkpt lat="35.869480" lon="-5.522625">
   <ele>32.00</ele>
   <time>2014-03-29T10:14:31Z</time>
  </trkpt>
  <trkpt lat="35.869355" lon="-5.522851">
   <ele>32.00</ele>
   <time>2014-03-29T10:14:34Z</time>
  </trkpt>
  <trkpt lat="35.868849" lon="-5.523821">
   <ele>35.00</ele>
   <time>2014-03-29T10:14:48Z</time>
  </trkpt>
  <trkpt lat="35.868706" lon="-5.524002">
   <ele>35.00</ele>
   <time>2014-03-29T10:14:52Z</time>
  </trkpt>
  <trkpt lat="35.868531" lon="-5.524072">
   <ele>35.00</ele>
   <time>2014-03-29T10:14:58Z</time>
  </trkpt>
  <trkpt lat="35.868347" lon="-5.524221">
   <ele>34.00</ele>
   <time>2014-03-29T10:15:02Z</time>
  </trkpt>
  <trkpt lat="35.868211" lon="-5.524468">
   <ele>33.00</ele>
   <time>2014-03-29T10:15:05Z</time>
  </trkpt>
  <trkpt lat="35.868110" lon="-5.524661">
   <ele>32.00</ele>
   <time>2014-03-29T10:15:07Z</time>
  </trkpt>
  <trkpt lat="35.867842" lon="-5.525127">
   <ele>29.00</ele>
   <time>2014-03-29T10:15:11Z</time>
  </trkpt>
  <trkpt lat="35.867609" lon="-5.525503">
   <ele>26.00</ele>
   <time>2014-03-29T10:15:14Z</time>
  </trkpt>
  <trkpt lat="35.867434" lon="-5.525762">
   <ele>24.00</ele>
   <time>2014-03-29T10:15:16Z</time>
  </trkpt>
  <trkpt lat="35.867240" lon="-5.526021">
   <ele>22.00</ele>
   <time>2014-03-29T10:15:18Z</time>
  </trkpt>
  <trkpt lat="35.867030" lon="-5.526278">
   <ele>21.00</ele>
   <time>2014-03-29T10:15:20Z</time>
  </trkpt>
  <trkpt lat="35.866805" lon="-5.526530">
   <ele>20.00</ele>
   <time>2014-03-29T10:15:22Z</time>
  </trkpt>
  <trkpt lat="35.866567" lon="-5.526774">
   <ele>20.00</ele>
   <time>2014-03-29T10:15:24Z</time>
  </trkpt>
  <trkpt lat="35.866331" lon="-5.526995">
   <ele>19.00</ele>
   <time>2014-03-29T10:15:26Z</time>
  </trkpt>
  <trkpt lat="35.865775" lon="-5.527473">
   <ele>21.00</ele>
   <time>2014-03-29T10:15:31Z</time>
  </trkpt>
  <trkpt lat="35.865335" lon="-5.527824">
   <ele>23.00</ele>
   <time>2014-03-29T10:15:35Z</time>
  </trkpt>
  <trkpt lat="35.865102" lon="-5.527986">
   <ele>24.00</ele>
   <time>2014-03-29T10:15:37Z</time>
  </trkpt>
  <trkpt lat="35.864860" lon="-5.528166">
   <ele>25.00</ele>
   <time>2014-03-29T10:15:39Z</time>
  </trkpt>
  <trkpt lat="35.864620" lon="-5.528366">
   <ele>26.00</ele>
   <time>2014-03-29T10:15:41Z</time>
  </trkpt>
  <trkpt lat="35.862777" lon="-5.529952">
   <ele>30.00</ele>
   <time>2014-03-29T10:15:56Z</time>
  </trkpt>
  <trkpt lat="35.860627" lon="-5.531781">
   <ele>30.00</ele>
   <time>2014-03-29T10:16:11Z</time>
  </trkpt>
  <trkpt lat="35.859173" lon="-5.532999">
   <ele>28.00</ele>
   <time>2014-03-29T10:16:22Z</time>
  </trkpt>
  <trkpt lat="35.857882" lon="-5.534082">
   <ele>25.00</ele>
   <time>2014-03-29T10:16:32Z</time>
  </trkpt>
  <trkpt lat="35.857654" lon="-5.534243">
   <ele>25.00</ele>
   <time>2014-03-29T10:16:34Z</time>
  </trkpt>
  <trkpt lat="35.857434" lon="-5.534366">
   <ele>24.00</ele>
   <time>2014-03-29T10:16:36Z</time>
  </trkpt>
  <trkpt lat="35.857232" lon="-5.534450">
   <ele>24.00</ele>
   <time>2014-03-29T10:16:38Z</time>
  </trkpt>
  <trkpt lat="35.857055" lon="-5.534504">
   <ele>24.00</ele>
   <time>2014-03-29T10:16:40Z</time>
  </trkpt>
  <trkpt lat="35.856821" lon="-5.534587">
   <ele>23.00</ele>
   <time>2014-03-29T10:16:43Z</time>
  </trkpt>
  <trkpt lat="35.856631" lon="-5.534701">
   <ele>23.00</ele>
   <time>2014-03-29T10:16:46Z</time>
  </trkpt>
  <trkpt lat="35.856451" lon="-5.534794">
   <ele>22.00</ele>
   <time>2014-03-29T10:16:49Z</time>
  </trkpt>
  <trkpt lat="35.856145" lon="-5.534874">
   <ele>23.00</ele>
   <time>2014-03-29T10:16:53Z</time>
  </trkpt>
  <trkpt lat="35.855961" lon="-5.535006">
   <ele>23.00</ele>
   <time>2014-03-29T10:16:55Z</time>
  </trkpt>
  <trkpt lat="35.854139" lon="-5.536541">
   <ele>24.00</ele>
   <time>2014-03-29T10:17:09Z</time>
  </trkpt>
  <trkpt lat="35.853007" lon="-5.537592">
   <ele>25.00</ele>
   <time>2014-03-29T10:17:16Z</time>
  </trkpt>
  <trkpt lat="35.850406" lon="-5.540081">
   <ele>35.00</ele>
   <time>2014-03-29T10:17:31Z</time>
  </trkpt>
  <trkpt lat="35.847996" lon="-5.542375">
   <ele>46.00</ele>
   <time>2014-03-29T10:17:44Z</time>
  </trkpt>
  <trkpt lat="35.846164" lon="-5.544214">
   <ele>55.00</ele>
   <time>2014-03-29T10:17:54Z</time>
  </trkpt>
  <trkpt lat="35.845819" lon="-5.544614">
   <ele>56.00</ele>
   <time>2014-03-29T10:17:56Z</time>
  </trkpt>
  <trkpt lat="35.845323" lon="-5.545233">
   <ele>58.00</ele>
   <time>2014-03-29T10:17:59Z</time>
  </trkpt>
  <trkpt lat="35.844848" lon="-5.545886">
   <ele>60.00</ele>
   <time>2014-03-29T10:18:02Z</time>
  </trkpt>
  <trkpt lat="35.844545" lon="-5.546340">
   <ele>60.00</ele>
   <time>2014-03-29T10:18:04Z</time>
  </trkpt>
  <trkpt lat="35.842223" lon="-5.550103">
   <ele>59.00</ele>
   <time>2014-03-29T10:18:20Z</time>
  </trkpt>
  <trkpt lat="35.840029" lon="-5.553645">
   <ele>45.00</ele>
   <time>2014-03-29T10:18:35Z</time>
  </trkpt>
  <trkpt lat="35.839588" lon="-5.554330">
   <ele>41.00</ele>
   <time>2014-03-29T10:18:38Z</time>
  </trkpt>
  <trkpt lat="35.839273" lon="-5.554766">
   <ele>39.00</ele>
   <time>2014-03-29T10:18:40Z</time>
  </trkpt>
  <trkpt lat="35.838941" lon="-5.555185">
   <ele>36.00</ele>
   <time>2014-03-29T10:18:42Z</time>
  </trkpt>
  <trkpt lat="35.838592" lon="-5.555587">
   <ele>34.00</ele>
   <time>2014-03-29T10:18:44Z</time>
  </trkpt>
  <trkpt lat="35.838223" lon="-5.555968">
   <ele>31.00</ele>
   <time>2014-03-29T10:18:46Z</time>
  </trkpt>
  <trkpt lat="35.837838" lon="-5.556335">
   <ele>29.00</ele>
   <time>2014-03-29T10:18:48Z</time>
  </trkpt>
  <trkpt lat="35.837439" lon="-5.556683">
   <ele>26.00</ele>
   <time>2014-03-29T10:18:50Z</time>
  </trkpt>
  <trkpt lat="35.837029" lon="-5.557009">
   <ele>23.00</ele>
   <time>2014-03-29T10:18:52Z</time>
  </trkpt>
  <trkpt lat="35.836613" lon="-5.557306">
   <ele>21.00</ele>
   <time>2014-03-29T10:18:54Z</time>
  </trkpt>
  <trkpt lat="35.836190" lon="-5.557582">
   <ele>18.00</ele>
   <time>2014-03-29T10:18:56Z</time>
  </trkpt>
  <trkpt lat="35.835754" lon="-5.557838">
   <ele>15.00</ele>
   <time>2014-03-29T10:18:58Z</time>
  </trkpt>
  <trkpt lat="35.835307" lon="-5.558077">
   <ele>12.00</ele>
   <time>2014-03-29T10:19:00Z</time>
  </trkpt>
  <trkpt lat="35.834847" lon="-5.558294">
   <ele>10.00</ele>
   <time>2014-03-29T10:19:02Z</time>
  </trkpt>
  <trkpt lat="35.834377" lon="-5.558487">
   <ele>8.00</ele>
   <time>2014-03-29T10:19:04Z</time>
  </trkpt>
  <trkpt lat="35.833903" lon="-5.558654">
   <ele>6.00</ele>
   <time>2014-03-29T10:19:06Z</time>
  </trkpt>
  <trkpt lat="35.833425" lon="-5.558790">
   <ele>5.00</ele>
   <time>2014-03-29T10:19:08Z</time>
  </trkpt>
  <trkpt lat="35.832219" lon="-5.559061">
   <ele>3.00</ele>
   <time>2014-03-29T10:19:13Z</time>
  </trkpt>
  <trkpt lat="35.828267" lon="-5.559926">
   <ele>3.00</ele>
   <time>2014-03-29T10:19:29Z</time>
  </trkpt>
  <trkpt lat="35.826776" lon="-5.560313">
   <ele>4.00</ele>
   <time>2014-03-29T10:19:35Z</time>
  </trkpt>
  <trkpt lat="35.823153" lon="-5.561492">
   <ele>9.00</ele>
   <time>2014-03-29T10:19:50Z</time>
  </trkpt>
  <trkpt lat="35.822435" lon="-5.561764">
   <ele>11.00</ele>
   <time>2014-03-29T10:19:53Z</time>
  </trkpt>
  <trkpt lat="35.820061" lon="-5.562779">
   <ele>15.00</ele>
   <time>2014-03-29T10:20:03Z</time>
  </trkpt>
  <trkpt lat="35.817962" lon="-5.563804">
   <ele>22.00</ele>
   <time>2014-03-29T10:20:12Z</time>
  </trkpt>
  <trkpt lat="35.815612" lon="-5.565050">
   <ele>34.00</ele>
   <time>2014-03-29T10:20:22Z</time>
  </trkpt>
  <trkpt lat="35.814671" lon="-5.565617">
   <ele>40.00</ele>
   <time>2014-03-29T10:20:26Z</time>
  </trkpt>
  <trkpt lat="35.810919" lon="-5.567974">
   <ele>64.00</ele>
   <time>2014-03-29T10:20:42Z</time>
  </trkpt>
  <trkpt lat="35.807334" lon="-5.570162">
   <ele>87.00</ele>
   <time>2014-03-29T10:20:57Z</time>
  </trkpt>
  <trkpt lat="35.804255" lon="-5.572039">
   <ele>107.00</ele>
   <time>2014-03-29T10:21:10Z</time>
  </trkpt>
  <trkpt lat="35.803789" lon="-5.572358">
   <ele>110.00</ele>
   <time>2014-03-29T10:21:12Z</time>
  </trkpt>
  <trkpt lat="35.803335" lon="-5.572700">
   <ele>113.00</ele>
   <time>2014-03-29T10:21:14Z</time>
  </trkpt>
  <trkpt lat="35.802680" lon="-5.573244">
   <ele>118.00</ele>
   <time>2014-03-29T10:21:17Z</time>
  </trkpt>
  <trkpt lat="35.802471" lon="-5.573440">
   <ele>120.00</ele>
   <time>2014-03-29T10:21:18Z</time>
  </trkpt>
  <trkpt lat="35.802268" lon="-5.573646">
   <ele>121.00</ele>
   <time>2014-03-29T10:21:19Z</time>
  </trkpt>
  <trkpt lat="35.801877" lon="-5.574082">
   <ele>124.00</ele>
   <time>2014-03-29T10:21:21Z</time>
  </trkpt>
  <trkpt lat="35.801507" lon="-5.574550">
   <ele>127.00</ele>
   <time>2014-03-29T10:21:23Z</time>
  </trkpt>
  <trkpt lat="35.801332" lon="-5.574797">
   <ele>129.00</ele>
   <time>2014-03-29T10:21:24Z</time>
  </trkpt>
  <trkpt lat="35.801165" lon="-5.575051">
   <ele>130.00</ele>
   <time>2014-03-29T10:21:25Z</time>
  </trkpt>
  <trkpt lat="35.800852" lon="-5.575579">
   <ele>133.00</ele>
   <time>2014-03-29T10:21:27Z</time>
  </trkpt>
  <trkpt lat="35.800563" lon="-5.576132">
   <ele>136.00</ele>
   <time>2014-03-29T10:21:29Z</time>
  </trkpt>
  <trkpt lat="35.800297" lon="-5.576705">
   <ele>138.00</ele>
   <time>2014-03-29T10:21:31Z</time>
  </trkpt>
  <trkpt lat="35.799929" lon="-5.577588">
   <ele>143.00</ele>
   <time>2014-03-29T10:21:34Z</time>
  </trkpt>
  <trkpt lat="35.799715" lon="-5.578193">
   <ele>146.00</ele>
   <time>2014-03-29T10:21:36Z</time>
  </trkpt>
  <trkpt lat="35.798135" lon="-5.583055">
   <ele>172.00</ele>
   <time>2014-03-29T10:21:52Z</time>
  </trkpt>
  <trkpt lat="35.796619" lon="-5.587543">
   <ele>195.00</ele>
   <time>2014-03-29T10:22:07Z</time>
  </trkpt>
  <trkpt lat="35.795400" lon="-5.591085">
   <ele>211.00</ele>
   <time>2014-03-29T10:22:19Z</time>
  </trkpt>
  <trkpt lat="35.795168" lon="-5.591647">
   <ele>214.00</ele>
   <time>2014-03-29T10:22:21Z</time>
  </trkpt>
  <trkpt lat="35.794795" lon="-5.592486">
   <ele>217.00</ele>
   <time>2014-03-29T10:22:24Z</time>
  </trkpt>
  <trkpt lat="35.794660" lon="-5.592760">
   <ele>218.00</ele>
   <time>2014-03-29T10:22:25Z</time>
  </trkpt>
  <trkpt lat="35.794516" lon="-5.593028">
   <ele>219.00</ele>
   <time>2014-03-29T10:22:26Z</time>
  </trkpt>
  <trkpt lat="35.794363" lon="-5.593286">
   <ele>219.00</ele>
   <time>2014-03-29T10:22:27Z</time>
  </trkpt>
  <trkpt lat="35.793417" lon="-5.594799">
   <ele>222.00</ele>
   <time>2014-03-29T10:22:33Z</time>
  </trkpt>
  <trkpt lat="35.793071" lon="-5.595286">
   <ele>222.00</ele>
   <time>2014-03-29T10:22:35Z</time>
  </trkpt>
  <trkpt lat="35.792701" lon="-5.595763">
   <ele>222.00</ele>
   <time>2014-03-29T10:22:37Z</time>
  </trkpt>
  <trkpt lat="35.789866" lon="-5.599237">
   <ele>214.00</ele>
   <time>2014-03-29T10:22:52Z</time>
  </trkpt>
  <trkpt lat="35.787004" lon="-5.602758">
   <ele>192.00</ele>
   <time>2014-03-29T10:23:07Z</time>
  </trkpt>
  <trkpt lat="35.783812" lon="-5.606684">
   <ele>170.00</ele>
   <time>2014-03-29T10:23:23Z</time>
  </trkpt>
  <trkpt lat="35.780868" lon="-5.610301">
   <ele>158.00</ele>
   <time>2014-03-29T10:23:38Z</time>
  </trkpt>
  <trkpt lat="35.780080" lon="-5.611235">
   <ele>155.00</ele>
   <time>2014-03-29T10:23:42Z</time>
  </trkpt>
  <trkpt lat="35.779465" lon="-5.611892">
   <ele>154.00</ele>
   <time>2014-03-29T10:23:45Z</time>
  </trkpt>
  <trkpt lat="35.779037" lon="-5.612302">
   <ele>153.00</ele>
   <time>2014-03-29T10:23:47Z</time>
  </trkpt>
  <trkpt lat="35.778599" lon="-5.612689">
   <ele>152.00</ele>
   <time>2014-03-29T10:23:49Z</time>
  </trkpt>
  <trkpt lat="35.778147" lon="-5.613053">
   <ele>150.00</ele>
   <time>2014-03-29T10:23:51Z</time>
  </trkpt>
  <trkpt lat="35.777681" lon="-5.613396">
   <ele>149.00</ele>
   <time>2014-03-29T10:23:53Z</time>
  </trkpt>
  <trkpt lat="35.777203" lon="-5.613719">
   <ele>148.00</ele>
   <time>2014-03-29T10:23:55Z</time>
  </trkpt>
  <trkpt lat="35.776713" lon="-5.614017">
   <ele>147.00</ele>
   <time>2014-03-29T10:23:57Z</time>
  </trkpt>
  <trkpt lat="35.776216" lon="-5.614292">
   <ele>146.00</ele>
   <time>2014-03-29T10:23:59Z</time>
  </trkpt>
  <trkpt lat="35.775712" lon="-5.614538">
   <ele>145.00</ele>
   <time>2014-03-29T10:24:01Z</time>
  </trkpt>
  <trkpt lat="35.774945" lon="-5.614864">
   <ele>144.00</ele>
   <time>2014-03-29T10:24:04Z</time>
  </trkpt>
  <trkpt lat="35.774428" lon="-5.615046">
   <ele>144.00</ele>
   <time>2014-03-29T10:24:06Z</time>
  </trkpt>
  <trkpt lat="35.773907" lon="-5.615199">
   <ele>144.00</ele>
   <time>2014-03-29T10:24:08Z</time>
  </trkpt>
  <trkpt lat="35.773113" lon="-5.615384">
   <ele>144.00</ele>
   <time>2014-03-29T10:24:11Z</time>
  </trkpt>
  <trkpt lat="35.772306" lon="-5.615522">
   <ele>144.00</ele>
   <time>2014-03-29T10:24:14Z</time>
  </trkpt>
  <trkpt lat="35.768022" lon="-5.616157">
   <ele>153.00</ele>
   <time>2014-03-29T10:24:30Z</time>
  </trkpt>
  <trkpt lat="35.764039" lon="-5.616729">
   <ele>154.00</ele>
   <time>2014-03-29T10:24:45Z</time>
  </trkpt>
  <trkpt lat="35.763231" lon="-5.616808">
   <ele>153.00</ele>
   <time>2014-03-29T10:24:48Z</time>
  </trkpt>
  <trkpt lat="35.762407" lon="-5.616849">
   <ele>150.00</ele>
   <time>2014-03-29T10:24:51Z</time>
  </trkpt>
  <trkpt lat="35.761568" lon="-5.616847">
   <ele>147.00</ele>
   <time>2014-03-29T10:24:54Z</time>
  </trkpt>
  <trkpt lat="35.760722" lon="-5.616801">
   <ele>143.00</ele>
   <time>2014-03-29T10:24:57Z</time>
  </trkpt>
  <trkpt lat="35.756741" lon="-5.616428">
   <ele>134.00</ele>
   <time>2014-03-29T10:25:11Z</time>
  </trkpt>
  <trkpt lat="35.756173" lon="-5.616444">
   <ele>134.00</ele>
   <time>2014-03-29T10:25:13Z</time>
  </trkpt>
  <trkpt lat="35.755611" lon="-5.616490">
   <ele>134.00</ele>
   <time>2014-03-29T10:25:15Z</time>
  </trkpt>
  <trkpt lat="35.754775" lon="-5.616603">
   <ele>134.00</ele>
   <time>2014-03-29T10:25:18Z</time>
  </trkpt>
  <trkpt lat="35.754224" lon="-5.616713">
   <ele>134.00</ele>
   <time>2014-03-29T10:25:20Z</time>
  </trkpt>
  <trkpt lat="35.753684" lon="-5.616851">
   <ele>134.00</ele>
   <time>2014-03-29T10:25:22Z</time>
  </trkpt>
  <trkpt lat="35.753150" lon="-5.617013">
   <ele>134.00</ele>
   <time>2014-03-29T10:25:24Z</time>
  </trkpt>
  <trkpt lat="35.752622" lon="-5.617201">
   <ele>133.00</ele>
   <time>2014-03-29T10:25:26Z</time>
  </trkpt>
  <trkpt lat="35.752105" lon="-5.617415">
   <ele>133.00</ele>
   <time>2014-03-29T10:25:28Z</time>
  </trkpt>
  <trkpt lat="35.751596" lon="-5.617653">
   <ele>132.00</ele>
   <time>2014-03-29T10:25:30Z</time>
  </trkpt>
  <trkpt lat="35.751096" lon="-5.617914">
   <ele>132.00</ele>
   <time>2014-03-29T10:25:32Z</time>
  </trkpt>
  <trkpt lat="35.750603" lon="-5.618203">
   <ele>131.00</ele>
   <time>2014-03-29T10:25:34Z</time>
  </trkpt>
  <trkpt lat="35.750127" lon="-5.618517">
   <ele>129.00</ele>
   <time>2014-03-29T10:25:36Z</time>
  </trkpt>
  <trkpt lat="35.749442" lon="-5.619022">
   <ele>127.00</ele>
   <time>2014-03-29T10:25:39Z</time>
  </trkpt>
  <trkpt lat="35.749003" lon="-5.619381">
   <ele>126.00</ele>
   <time>2014-03-29T10:25:41Z</time>
  </trkpt>
  <trkpt lat="35.747106" lon="-5.621060">
   <ele>116.00</ele>
   <time>2014-03-29T10:25:50Z</time>
  </trkpt>
  <trkpt lat="35.745381" lon="-5.622611">
   <ele>105.00</ele>
   <time>2014-03-29T10:25:58Z</time>
  </trkpt>
  <trkpt lat="35.744926" lon="-5.622967">
   <ele>103.00</ele>
   <time>2014-03-29T10:26:00Z</time>
  </trkpt>
  <trkpt lat="35.744460" lon="-5.623297">
   <ele>101.00</ele>
   <time>2014-03-29T10:26:02Z</time>
  </trkpt>
  <trkpt lat="35.743993" lon="-5.623598">
   <ele>99.00</ele>
   <time>2014-03-29T10:26:04Z</time>
  </trkpt>
  <trkpt lat="35.743518" lon="-5.623872">
   <ele>97.00</ele>
   <time>2014-03-29T10:26:06Z</time>
  </trkpt>
  <trkpt lat="35.743035" lon="-5.624121">
   <ele>96.00</ele>
   <time>2014-03-29T10:26:08Z</time>
  </trkpt>
  <trkpt lat="35.742543" lon="-5.624349">
   <ele>95.00</ele>
   <time>2014-03-29T10:26:10Z</time>
  </trkpt>
  <trkpt lat="35.742044" lon="-5.624553">
   <ele>94.00</ele>
   <time>2014-03-29T10:26:12Z</time>
  </trkpt>
  <trkpt lat="35.741298" lon="-5.624820">
   <ele>93.00</ele>
   <time>2014-03-29T10:26:15Z</time>
  </trkpt>
  <trkpt lat="35.740812" lon="-5.624964">
   <ele>92.00</ele>
   <time>2014-03-29T10:26:17Z</time>
  </trkpt>
  <trkpt lat="35.740114" lon="-5.625131">
   <ele>92.00</ele>
   <time>2014-03-29T10:26:20Z</time>
  </trkpt>
  <trkpt lat="35.739255" lon="-5.625287">
   <ele>93.00</ele>
   <time>2014-03-29T10:26:24Z</time>
  </trkpt>
  <trkpt lat="35.738865" lon="-5.625338">
   <ele>93.00</ele>
   <time>2014-03-29T10:26:26Z</time>
  </trkpt>
  <trkpt lat="35.738337" lon="-5.625378">
   <ele>94.00</ele>
   <time>2014-03-29T10:26:29Z</time>
  </trkpt>
  <trkpt lat="35.737505" lon="-5.625396">
   <ele>95.00</ele>
   <time>2014-03-29T10:26:35Z</time>
  </trkpt>
  <trkpt lat="35.737301" lon="-5.625388">
   <ele>95.00</ele>
   <time>2014-03-29T10:26:37Z</time>
  </trkpt>
  <trkpt lat="35.737115" lon="-5.625367">
   <ele>96.00</ele>
   <time>2014-03-29T10:26:39Z</time>
  </trkpt>
  <trkpt lat="35.736881" lon="-5.625330">
   <ele>97.00</ele>
   <time>2014-03-29T10:26:42Z</time>
  </trkpt>
  <trkpt lat="35.736613" lon="-5.625306">
   <ele>98.00</ele>
   <time>2014-03-29T10:26:48Z</time>
  </trkpt>
  <trkpt lat="35.736516" lon="-5.625280">
   <ele>98.00</ele>
   <time>2014-03-29T10:27:04Z</time>
  </trkpt>
  <trkpt lat="35.736412" lon="-5.625276">
   <ele>99.00</ele>
   <time>2014-03-29T10:27:15Z</time>
  </trkpt>
  <trkpt lat="35.736209" lon="-5.625260">
   <ele>98.00</ele>
   <time>2014-03-29T10:27:18Z</time>
  </trkpt>
  <trkpt lat="35.735919" lon="-5.625257">
   <ele>98.00</ele>
   <time>2014-03-29T10:27:21Z</time>
  </trkpt>
  <trkpt lat="35.735454" lon="-5.625253">
   <ele>98.00</ele>
   <time>2014-03-29T10:27:25Z</time>
  </trkpt>
  <trkpt lat="35.735019" lon="-5.625224">
   <ele>97.00</ele>
   <time>2014-03-29T10:27:28Z</time>
  </trkpt>
  <trkpt lat="35.733677" lon="-5.625130">
   <ele>96.00</ele>
   <time>2014-03-29T10:27:36Z</time>
  </trkpt>
  <trkpt lat="35.733088" lon="-5.625131">
   <ele>96.00</ele>
   <time>2014-03-29T10:27:39Z</time>
  </trkpt>
  <trkpt lat="35.732671" lon="-5.625158">
   <ele>96.00</ele>
   <time>2014-03-29T10:27:41Z</time>
  </trkpt>
  <trkpt lat="35.732022" lon="-5.625240">
   <ele>95.00</ele>
   <time>2014-03-29T10:27:44Z</time>
  </trkpt>
  <trkpt lat="35.730702" lon="-5.625480">
   <ele>94.00</ele>
   <time>2014-03-29T10:27:50Z</time>
  </trkpt>
  <trkpt lat="35.730255" lon="-5.625595">
   <ele>94.00</ele>
   <time>2014-03-29T10:27:52Z</time>
  </trkpt>
  <trkpt lat="35.729575" lon="-5.625817">
   <ele>94.00</ele>
   <time>2014-03-29T10:27:55Z</time>
  </trkpt>
  <trkpt lat="35.729115" lon="-5.625993">
   <ele>94.00</ele>
   <time>2014-03-29T10:27:57Z</time>
  </trkpt>
  <trkpt lat="35.728425" lon="-5.626297">
   <ele>94.00</ele>
   <time>2014-03-29T10:28:00Z</time>
  </trkpt>
  <trkpt lat="35.727742" lon="-5.626640">
   <ele>95.00</ele>
   <time>2014-03-29T10:28:03Z</time>
  </trkpt>
  <trkpt lat="35.727062" lon="-5.627020">
   <ele>96.00</ele>
   <time>2014-03-29T10:28:06Z</time>
  </trkpt>
  <trkpt lat="35.726620" lon="-5.627302">
   <ele>97.00</ele>
   <time>2014-03-29T10:28:08Z</time>
  </trkpt>
  <trkpt lat="35.726184" lon="-5.627606">
   <ele>98.00</ele>
   <time>2014-03-29T10:28:10Z</time>
  </trkpt>
  <trkpt lat="35.725759" lon="-5.627934">
   <ele>99.00</ele>
   <time>2014-03-29T10:28:12Z</time>
  </trkpt>
  <trkpt lat="35.725347" lon="-5.628290">
   <ele>100.00</ele>
   <time>2014-03-29T10:28:14Z</time>
  </trkpt>
  <trkpt lat="35.724748" lon="-5.628858">
   <ele>103.00</ele>
   <time>2014-03-29T10:28:17Z</time>
  </trkpt>
  <trkpt lat="35.724176" lon="-5.629452">
   <ele>105.00</ele>
   <time>2014-03-29T10:28:20Z</time>
  </trkpt>
  <trkpt lat="35.723631" lon="-5.630073">
   <ele>107.00</ele>
   <time>2014-03-29T10:28:23Z</time>
  </trkpt>
  <trkpt lat="35.723114" lon="-5.630720">
   <ele>109.00</ele>
   <time>2014-03-29T10:28:26Z</time>
  </trkpt>
  <trkpt lat="35.722626" lon="-5.631395">
   <ele>111.00</ele>
   <time>2014-03-29T10:28:29Z</time>
  </trkpt>
  <trkpt lat="35.722165" lon="-5.632101">
   <ele>113.00</ele>
   <time>2014-03-29T10:28:32Z</time>
  </trkpt>
  <trkpt lat="35.721729" lon="-5.632837">
   <ele>116.00</ele>
   <time>2014-03-29T10:28:35Z</time>
  </trkpt>
  <trkpt lat="35.721457" lon="-5.633350">
   <ele>118.00</ele>
   <time>2014-03-29T10:28:37Z</time>
  </trkpt>
  <trkpt lat="35.720942" lon="-5.634413">
   <ele>121.00</ele>
   <time>2014-03-29T10:28:41Z</time>
  </trkpt>
  <trkpt lat="35.719028" lon="-5.638458">
   <ele>138.00</ele>
   <time>2014-03-29T10:28:56Z</time>
  </trkpt>
  <trkpt lat="35.716948" lon="-5.642812">
   <ele>156.00</ele>
   <time>2014-03-29T10:29:12Z</time>
  </trkpt>
  <trkpt lat="35.715813" lon="-5.645192">
   <ele>166.00</ele>
   <time>2014-03-29T10:29:21Z</time>
  </trkpt>
  <trkpt lat="35.715399" lon="-5.645981">
   <ele>169.00</ele>
   <time>2014-03-29T10:29:24Z</time>
  </trkpt>
  <trkpt lat="35.714953" lon="-5.646758">
   <ele>172.00</ele>
   <time>2014-03-29T10:29:27Z</time>
  </trkpt>
  <trkpt lat="35.714480" lon="-5.647512">
   <ele>175.00</ele>
   <time>2014-03-29T10:29:30Z</time>
  </trkpt>
  <trkpt lat="35.713985" lon="-5.648235">
   <ele>178.00</ele>
   <time>2014-03-29T10:29:33Z</time>
  </trkpt>
  <trkpt lat="35.713478" lon="-5.648903">
   <ele>182.00</ele>
   <time>2014-03-29T10:29:36Z</time>
  </trkpt>
  <trkpt lat="35.713142" lon="-5.649307">
   <ele>184.00</ele>
   <time>2014-03-29T10:29:38Z</time>
  </trkpt>
  <trkpt lat="35.712810" lon="-5.649676">
   <ele>186.00</ele>
   <time>2014-03-29T10:29:40Z</time>
  </trkpt>
  <trkpt lat="35.712341" lon="-5.650152">
   <ele>188.00</ele>
   <time>2014-03-29T10:29:43Z</time>
  </trkpt>
  <trkpt lat="35.712059" lon="-5.650412">
   <ele>190.00</ele>
   <time>2014-03-29T10:29:45Z</time>
  </trkpt>
  <trkpt lat="35.711800" lon="-5.650632">
   <ele>190.00</ele>
   <time>2014-03-29T10:29:47Z</time>
  </trkpt>
  <trkpt lat="35.711145" lon="-5.651143">
   <ele>194.00</ele>
   <time>2014-03-29T10:29:58Z</time>
  </trkpt>
  <trkpt lat="35.710890" lon="-5.651333">
   <ele>196.00</ele>
   <time>2014-03-29T10:30:04Z</time>
  </trkpt>
  <trkpt lat="35.710623" lon="-5.651526">
   <ele>197.00</ele>
   <time>2014-03-29T10:30:09Z</time>
  </trkpt>
  <trkpt lat="35.710138" lon="-5.651899">
   <ele>197.00</ele>
   <time>2014-03-29T10:30:14Z</time>
  </trkpt>
  <trkpt lat="35.709188" lon="-5.652504">
   <ele>198.00</ele>
   <time>2014-03-29T10:30:21Z</time>
  </trkpt>
  <trkpt lat="35.708501" lon="-5.652954">
   <ele>198.00</ele>
   <time>2014-03-29T10:30:25Z</time>
  </trkpt>
  <trkpt lat="35.707977" lon="-5.653339">
   <ele>198.00</ele>
   <time>2014-03-29T10:30:28Z</time>
  </trkpt>
  <trkpt lat="35.707230" lon="-5.653939">
   <ele>198.00</ele>
   <time>2014-03-29T10:30:32Z</time>
  </trkpt>
  <trkpt lat="35.706842" lon="-5.654283">
   <ele>198.00</ele>
   <time>2014-03-29T10:30:34Z</time>
  </trkpt>
  <trkpt lat="35.706445" lon="-5.654670">
   <ele>197.00</ele>
   <time>2014-03-29T10:30:36Z</time>
  </trkpt>
  <trkpt lat="35.706042" lon="-5.655098">
   <ele>197.00</ele>
   <time>2014-03-29T10:30:38Z</time>
  </trkpt>
  <trkpt lat="35.705639" lon="-5.655561">
   <ele>196.00</ele>
   <time>2014-03-29T10:30:40Z</time>
  </trkpt>
  <trkpt lat="35.705059" lon="-5.656320">
   <ele>195.00</ele>
   <time>2014-03-29T10:30:43Z</time>
  </trkpt>
  <trkpt lat="35.704515" lon="-5.657123">
   <ele>193.00</ele>
   <time>2014-03-29T10:30:46Z</time>
  </trkpt>
  <trkpt lat="35.704176" lon="-5.657673">
   <ele>191.00</ele>
   <time>2014-03-29T10:30:48Z</time>
  </trkpt>
  <trkpt lat="35.703698" lon="-5.658511">
   <ele>188.00</ele>
   <time>2014-03-29T10:30:51Z</time>
  </trkpt>
  <trkpt lat="35.703402" lon="-5.659084">
   <ele>185.00</ele>
   <time>2014-03-29T10:30:53Z</time>
  </trkpt>
  <trkpt lat="35.702991" lon="-5.659971">
   <ele>182.00</ele>
   <time>2014-03-29T10:30:56Z</time>
  </trkpt>
  <trkpt lat="35.702746" lon="-5.660574">
   <ele>180.00</ele>
   <time>2014-03-29T10:30:58Z</time>
  </trkpt>
  <trkpt lat="35.701696" lon="-5.663321">
   <ele>167.00</ele>
   <time>2014-03-29T10:31:07Z</time>
  </trkpt>
  <trkpt lat="35.701422" lon="-5.663907">
   <ele>164.00</ele>
   <time>2014-03-29T10:31:09Z</time>
  </trkpt>
  <trkpt lat="35.701126" lon="-5.664475">
   <ele>161.00</ele>
   <time>2014-03-29T10:31:11Z</time>
  </trkpt>
  <trkpt lat="35.700808" lon="-5.665023">
   <ele>158.00</ele>
   <time>2014-03-29T10:31:13Z</time>
  </trkpt>
  <trkpt lat="35.700473" lon="-5.665553">
   <ele>155.00</ele>
   <time>2014-03-29T10:31:15Z</time>
  </trkpt>
  <trkpt lat="35.700119" lon="-5.666065">
   <ele>151.00</ele>
   <time>2014-03-29T10:31:17Z</time>
  </trkpt>
  <trkpt lat="35.699746" lon="-5.666556">
   <ele>148.00</ele>
   <time>2014-03-29T10:31:19Z</time>
  </trkpt>
  <trkpt lat="35.699351" lon="-5.667025">
   <ele>145.00</ele>
   <time>2014-03-29T10:31:21Z</time>
  </trkpt>
  <trkpt lat="35.697070" lon="-5.669498">
   <ele>130.00</ele>
   <time>2014-03-29T10:31:32Z</time>
  </trkpt>
  <trkpt lat="35.693943" lon="-5.672862">
   <ele>113.00</ele>
   <time>2014-03-29T10:31:47Z</time>
  </trkpt>
  <trkpt lat="35.692019" lon="-5.674961">
   <ele>103.00</ele>
   <time>2014-03-29T10:31:57Z</time>
  </trkpt>
  <trkpt lat="35.691169" lon="-5.675993">
   <ele>100.00</ele>
   <time>2014-03-29T10:32:03Z</time>
  </trkpt>
  <trkpt lat="35.690949" lon="-5.676319">
   <ele>100.00</ele>
   <time>2014-03-29T10:32:05Z</time>
  </trkpt>
  <trkpt lat="35.690786" lon="-5.676641">
   <ele>99.00</ele>
   <time>2014-03-29T10:32:07Z</time>
  </trkpt>
  <trkpt lat="35.690393" lon="-5.677660">
   <ele>102.00</ele>
   <time>2014-03-29T10:32:16Z</time>
  </trkpt>
  <trkpt lat="35.690233" lon="-5.677809">
   <ele>100.00</ele>
   <time>2014-03-29T10:32:21Z</time>
  </trkpt>
  <trkpt lat="35.690221" lon="-5.677832">
   <ele>86.00</ele>
   <time>2014-03-29T10:32:37Z</time>
  </trkpt>
  <trkpt lat="35.690215" lon="-5.677839">
   <ele>89.00</ele>
   <time>2014-03-29T10:32:52Z</time>
  </trkpt>
  <trkpt lat="35.690209" lon="-5.677803">
   <ele>76.00</ele>
   <time>2014-03-29T10:33:08Z</time>
  </trkpt>
  <trkpt lat="35.690243" lon="-5.677738">
   <ele>54.00</ele>
   <time>2014-03-29T10:33:24Z</time>
  </trkpt>
  <trkpt lat="35.690250" lon="-5.677734">
   <ele>55.00</ele>
   <time>2014-03-29T10:33:39Z</time>
  </trkpt>
  <trkpt lat="35.690228" lon="-5.677764">
   <ele>65.00</ele>
   <time>2014-03-29T10:33:54Z</time>
  </trkpt>
  <trkpt lat="35.690191" lon="-5.677819">
   <ele>88.00</ele>
   <time>2014-03-29T10:34:10Z</time>
  </trkpt>
  <trkpt lat="35.690198" lon="-5.677859">
   <ele>100.00</ele>
   <time>2014-03-29T10:34:25Z</time>
  </trkpt>
  <trkpt lat="35.690203" lon="-5.677867">
   <ele>96.00</ele>
   <time>2014-03-29T10:34:40Z</time>
  </trkpt>
  <trkpt lat="35.690207" lon="-5.677892">
   <ele>104.00</ele>
   <time>2014-03-29T10:34:56Z</time>
  </trkpt>
  <trkpt lat="35.690195" lon="-5.677885">
   <ele>102.00</ele>
   <time>2014-03-29T10:35:11Z</time>
  </trkpt>
  <trkpt lat="35.690201" lon="-5.677856">
   <ele>93.00</ele>
   <time>2014-03-29T10:35:26Z</time>
  </trkpt>
  <trkpt lat="35.690203" lon="-5.677826">
   <ele>84.00</ele>
   <time>2014-03-29T10:35:42Z</time>
  </trkpt>
  <trkpt lat="35.690128" lon="-5.677870">
   <ele>84.00</ele>
   <time>2014-03-29T10:35:57Z</time>
  </trkpt>
  <trkpt lat="35.690133" lon="-5.677846">
   <ele>84.00</ele>
   <time>2014-03-29T10:36:13Z</time>
  </trkpt>
  <trkpt lat="35.690132" lon="-5.677839">
   <ele>85.00</ele>
   <time>2014-03-29T10:36:28Z</time>
  </trkpt>
  <trkpt lat="35.690133" lon="-5.677843">
   <ele>88.00</ele>
   <time>2014-03-29T10:36:43Z</time>
  </trkpt>
  <trkpt lat="35.690133" lon="-5.677851">
   <ele>90.00</ele>
   <time>2014-03-29T10:36:59Z</time>
  </trkpt>
  <trkpt lat="35.690140" lon="-5.677854">
   <ele>91.00</ele>
   <time>2014-03-29T10:37:14Z</time>
  </trkpt>
  <trkpt lat="35.690140" lon="-5.677865">
   <ele>94.00</ele>
   <time>2014-03-29T10:37:29Z</time>
  </trkpt>
  <trkpt lat="35.690141" lon="-5.677870">
   <ele>96.00</ele>
   <time>2014-03-29T10:37:44Z</time>
  </trkpt>
  <trkpt lat="35.690143" lon="-5.677877">
   <ele>97.00</ele>
   <time>2014-03-29T10:38:00Z</time>
  </trkpt>
  <trkpt lat="35.690144" lon="-5.677824">
   <ele>106.00</ele>
   <time>2014-03-29T10:38:16Z</time>
  </trkpt>
  <trkpt lat="35.689985" lon="-5.677805">
   <ele>105.00</ele>
   <time>2014-03-29T10:38:23Z</time>
  </trkpt>
  <trkpt lat="35.689838" lon="-5.678025">
   <ele>104.00</ele>
   <time>2014-03-29T10:38:28Z</time>
  </trkpt>
  <trkpt lat="35.688929" lon="-5.679404">
   <ele>106.00</ele>
   <time>2014-03-29T10:38:43Z</time>
  </trkpt>
  <trkpt lat="35.688774" lon="-5.679600">
   <ele>104.00</ele>
   <time>2014-03-29T10:38:45Z</time>
  </trkpt>
  <trkpt lat="35.688417" lon="-5.680046">
   <ele>102.00</ele>
   <time>2014-03-29T10:38:49Z</time>
  </trkpt>
  <trkpt lat="35.688231" lon="-5.680315">
   <ele>102.00</ele>
   <time>2014-03-29T10:38:51Z</time>
  </trkpt>
  <trkpt lat="35.688062" lon="-5.680632">
   <ele>101.00</ele>
   <time>2014-03-29T10:38:53Z</time>
  </trkpt>
  <trkpt lat="35.687907" lon="-5.681009">
   <ele>99.00</ele>
   <time>2014-03-29T10:38:55Z</time>
  </trkpt>
  <trkpt lat="35.687766" lon="-5.681438">
   <ele>97.00</ele>
   <time>2014-03-29T10:38:57Z</time>
  </trkpt>
  <trkpt lat="35.687628" lon="-5.681913">
   <ele>95.00</ele>
   <time>2014-03-29T10:38:59Z</time>
  </trkpt>
  <trkpt lat="35.687502" lon="-5.682430">
   <ele>93.00</ele>
   <time>2014-03-29T10:39:01Z</time>
  </trkpt>
  <trkpt lat="35.687344" lon="-5.683232">
   <ele>91.00</ele>
   <time>2014-03-29T10:39:04Z</time>
  </trkpt>
  <trkpt lat="35.687254" lon="-5.683808">
   <ele>90.00</ele>
   <time>2014-03-29T10:39:06Z</time>
  </trkpt>
  <trkpt lat="35.687106" lon="-5.685042">
   <ele>89.00</ele>
   <time>2014-03-29T10:39:10Z</time>
  </trkpt>
  <trkpt lat="35.686713" lon="-5.688356">
   <ele>88.00</ele>
   <time>2014-03-29T10:39:20Z</time>
  </trkpt>
  <trkpt lat="35.686590" lon="-5.689007">
   <ele>88.00</ele>
   <time>2014-03-29T10:39:22Z</time>
  </trkpt>
  <trkpt lat="35.686433" lon="-5.689643">
   <ele>88.00</ele>
   <time>2014-03-29T10:39:24Z</time>
  </trkpt>
  <trkpt lat="35.686246" lon="-5.690272">
   <ele>88.00</ele>
   <time>2014-03-29T10:39:26Z</time>
  </trkpt>
  <trkpt lat="35.686139" lon="-5.690588">
   <ele>89.00</ele>
   <time>2014-03-29T10:39:27Z</time>
  </trkpt>
  <trkpt lat="35.686022" lon="-5.690904">
   <ele>90.00</ele>
   <time>2014-03-29T10:39:28Z</time>
  </trkpt>
  <trkpt lat="35.685764" lon="-5.691517">
   <ele>91.00</ele>
   <time>2014-03-29T10:39:30Z</time>
  </trkpt>
  <trkpt lat="35.685482" lon="-5.692108">
   <ele>93.00</ele>
   <time>2014-03-29T10:39:32Z</time>
  </trkpt>
  <trkpt lat="35.685178" lon="-5.692680">
   <ele>94.00</ele>
   <time>2014-03-29T10:39:34Z</time>
  </trkpt>
  <trkpt lat="35.683348" lon="-5.696050">
   <ele>94.00</ele>
   <time>2014-03-29T10:39:46Z</time>
  </trkpt>
  <trkpt lat="35.683079" lon="-5.696643">
   <ele>93.00</ele>
   <time>2014-03-29T10:39:48Z</time>
  </trkpt>
  <trkpt lat="35.682836" lon="-5.697254">
   <ele>92.00</ele>
   <time>2014-03-29T10:39:50Z</time>
  </trkpt>
  <trkpt lat="35.682616" lon="-5.697880">
   <ele>92.00</ele>
   <time>2014-03-29T10:39:52Z</time>
  </trkpt>
  <trkpt lat="35.682427" lon="-5.698522">
   <ele>91.00</ele>
   <time>2014-03-29T10:39:54Z</time>
  </trkpt>
  <trkpt lat="35.682269" lon="-5.699187">
   <ele>89.00</ele>
   <time>2014-03-29T10:39:56Z</time>
  </trkpt>
  <trkpt lat="35.682142" lon="-5.699876">
   <ele>88.00</ele>
   <time>2014-03-29T10:39:58Z</time>
  </trkpt>
  <trkpt lat="35.682053" lon="-5.700586">
   <ele>87.00</ele>
   <time>2014-03-29T10:40:00Z</time>
  </trkpt>
  <trkpt lat="35.682002" lon="-5.701305">
   <ele>85.00</ele>
   <time>2014-03-29T10:40:02Z</time>
  </trkpt>
  <trkpt lat="35.681986" lon="-5.702023">
   <ele>84.00</ele>
   <time>2014-03-29T10:40:04Z</time>
  </trkpt>
  <trkpt lat="35.681993" lon="-5.702375">
   <ele>83.00</ele>
   <time>2014-03-29T10:40:05Z</time>
  </trkpt>
  <trkpt lat="35.682037" lon="-5.703066">
   <ele>82.00</ele>
   <time>2014-03-29T10:40:07Z</time>
  </trkpt>
  <trkpt lat="35.682073" lon="-5.703406">
   <ele>81.00</ele>
   <time>2014-03-29T10:40:08Z</time>
  </trkpt>
  <trkpt lat="35.682119" lon="-5.703742">
   <ele>80.00</ele>
   <time>2014-03-29T10:40:09Z</time>
  </trkpt>
  <trkpt lat="35.682232" lon="-5.704408">
   <ele>79.00</ele>
   <time>2014-03-29T10:40:11Z</time>
  </trkpt>
  <trkpt lat="35.682368" lon="-5.705068">
   <ele>78.00</ele>
   <time>2014-03-29T10:40:13Z</time>
  </trkpt>
  <trkpt lat="35.683612" lon="-5.710248">
   <ele>74.00</ele>
   <time>2014-03-29T10:40:29Z</time>
  </trkpt>
  <trkpt lat="35.683984" lon="-5.711878">
   <ele>73.00</ele>
   <time>2014-03-29T10:40:34Z</time>
  </trkpt>
  <trkpt lat="35.684107" lon="-5.712540">
   <ele>73.00</ele>
   <time>2014-03-29T10:40:36Z</time>
  </trkpt>
  <trkpt lat="35.684199" lon="-5.713197">
   <ele>73.00</ele>
   <time>2014-03-29T10:40:38Z</time>
  </trkpt>
  <trkpt lat="35.684256" lon="-5.713856">
   <ele>72.00</ele>
   <time>2014-03-29T10:40:40Z</time>
  </trkpt>
  <trkpt lat="35.684287" lon="-5.714516">
   <ele>71.00</ele>
   <time>2014-03-29T10:40:42Z</time>
  </trkpt>
  <trkpt lat="35.684295" lon="-5.715172">
   <ele>71.00</ele>
   <time>2014-03-29T10:40:44Z</time>
  </trkpt>
  <trkpt lat="35.684277" lon="-5.715815">
   <ele>70.00</ele>
   <time>2014-03-29T10:40:46Z</time>
  </trkpt>
  <trkpt lat="35.684237" lon="-5.716440">
   <ele>69.00</ele>
   <time>2014-03-29T10:40:48Z</time>
  </trkpt>
  <trkpt lat="35.684177" lon="-5.717054">
   <ele>68.00</ele>
   <time>2014-03-29T10:40:50Z</time>
  </trkpt>
  <trkpt lat="35.684093" lon="-5.717656">
   <ele>67.00</ele>
   <time>2014-03-29T10:40:52Z</time>
  </trkpt>
  <trkpt lat="35.683987" lon="-5.718249">
   <ele>66.00</ele>
   <time>2014-03-29T10:40:54Z</time>
  </trkpt>
  <trkpt lat="35.683858" lon="-5.718841">
   <ele>65.00</ele>
   <time>2014-03-29T10:40:56Z</time>
  </trkpt>
  <trkpt lat="35.683705" lon="-5.719427">
   <ele>64.00</ele>
   <time>2014-03-29T10:40:58Z</time>
  </trkpt>
  <trkpt lat="35.683526" lon="-5.720015">
   <ele>63.00</ele>
   <time>2014-03-29T10:41:00Z</time>
  </trkpt>
  <trkpt lat="35.683318" lon="-5.720612">
   <ele>61.00</ele>
   <time>2014-03-29T10:41:02Z</time>
  </trkpt>
  <trkpt lat="35.683076" lon="-5.721218">
   <ele>60.00</ele>
   <time>2014-03-29T10:41:04Z</time>
  </trkpt>
  <trkpt lat="35.682801" lon="-5.721829">
   <ele>59.00</ele>
   <time>2014-03-29T10:41:06Z</time>
  </trkpt>
  <trkpt lat="35.681329" lon="-5.724930">
   <ele>58.00</ele>
   <time>2014-03-29T10:41:16Z</time>
  </trkpt>
  <trkpt lat="35.681084" lon="-5.725574">
   <ele>59.00</ele>
   <time>2014-03-29T10:41:18Z</time>
  </trkpt>
  <trkpt lat="35.680875" lon="-5.726227">
   <ele>61.00</ele>
   <time>2014-03-29T10:41:20Z</time>
  </trkpt>
  <trkpt lat="35.680711" lon="-5.726876">
   <ele>63.00</ele>
   <time>2014-03-29T10:41:22Z</time>
  </trkpt>
  <trkpt lat="35.680584" lon="-5.727505">
   <ele>65.00</ele>
   <time>2014-03-29T10:41:24Z</time>
  </trkpt>
  <trkpt lat="35.680488" lon="-5.728114">
   <ele>68.00</ele>
   <time>2014-03-29T10:41:26Z</time>
  </trkpt>
  <trkpt lat="35.680425" lon="-5.728700">
   <ele>69.00</ele>
   <time>2014-03-29T10:41:28Z</time>
  </trkpt>
  <trkpt lat="35.680386" lon="-5.729257">
   <ele>70.00</ele>
   <time>2014-03-29T10:41:30Z</time>
  </trkpt>
  <trkpt lat="35.680364" lon="-5.729788">
   <ele>70.00</ele>
   <time>2014-03-29T10:41:32Z</time>
  </trkpt>
  <trkpt lat="35.680366" lon="-5.730304">
   <ele>71.00</ele>
   <time>2014-03-29T10:41:34Z</time>
  </trkpt>
  <trkpt lat="35.680396" lon="-5.730815">
   <ele>71.00</ele>
   <time>2014-03-29T10:41:36Z</time>
  </trkpt>
  <trkpt lat="35.680449" lon="-5.731328">
   <ele>70.00</ele>
   <time>2014-03-29T10:41:38Z</time>
  </trkpt>
  <trkpt lat="35.680799" lon="-5.734104">
   <ele>66.00</ele>
   <time>2014-03-29T10:41:48Z</time>
  </trkpt>
  <trkpt lat="35.680836" lon="-5.734706">
   <ele>65.00</ele>
   <time>2014-03-29T10:41:50Z</time>
  </trkpt>
  <trkpt lat="35.680845" lon="-5.735320">
   <ele>63.00</ele>
   <time>2014-03-29T10:41:52Z</time>
  </trkpt>
  <trkpt lat="35.680823" lon="-5.735952">
   <ele>62.00</ele>
   <time>2014-03-29T10:41:54Z</time>
  </trkpt>
  <trkpt lat="35.680768" lon="-5.736597">
   <ele>60.00</ele>
   <time>2014-03-29T10:41:56Z</time>
  </trkpt>
  <trkpt lat="35.680726" lon="-5.736922">
   <ele>59.00</ele>
   <time>2014-03-29T10:41:57Z</time>
  </trkpt>
  <trkpt lat="35.680672" lon="-5.737249">
   <ele>57.00</ele>
   <time>2014-03-29T10:41:58Z</time>
  </trkpt>
  <trkpt lat="35.680541" lon="-5.737904">
   <ele>55.00</ele>
   <time>2014-03-29T10:42:00Z</time>
  </trkpt>
  <trkpt lat="35.680384" lon="-5.738554">
   <ele>52.00</ele>
   <time>2014-03-29T10:42:02Z</time>
  </trkpt>
  <trkpt lat="35.680193" lon="-5.739193">
   <ele>49.00</ele>
   <time>2014-03-29T10:42:04Z</time>
  </trkpt>
  <trkpt lat="35.679970" lon="-5.739817">
   <ele>46.00</ele>
   <time>2014-03-29T10:42:06Z</time>
  </trkpt>
  <trkpt lat="35.679716" lon="-5.740423">
   <ele>44.00</ele>
   <time>2014-03-29T10:42:08Z</time>
  </trkpt>
  <trkpt lat="35.679431" lon="-5.741013">
   <ele>42.00</ele>
   <time>2014-03-29T10:42:10Z</time>
  </trkpt>
  <trkpt lat="35.679117" lon="-5.741587">
   <ele>41.00</ele>
   <time>2014-03-29T10:42:12Z</time>
  </trkpt>
  <trkpt lat="35.678771" lon="-5.742144">
   <ele>40.00</ele>
   <time>2014-03-29T10:42:14Z</time>
  </trkpt>
  <trkpt lat="35.678395" lon="-5.742676">
   <ele>40.00</ele>
   <time>2014-03-29T10:42:16Z</time>
  </trkpt>
  <trkpt lat="35.677992" lon="-5.743179">
   <ele>40.00</ele>
   <time>2014-03-29T10:42:18Z</time>
  </trkpt>
  <trkpt lat="35.677568" lon="-5.743646">
   <ele>39.00</ele>
   <time>2014-03-29T10:42:20Z</time>
  </trkpt>
  <trkpt lat="35.677121" lon="-5.744070">
   <ele>40.00</ele>
   <time>2014-03-29T10:42:22Z</time>
  </trkpt>
  <trkpt lat="35.676656" lon="-5.744444">
   <ele>40.00</ele>
   <time>2014-03-29T10:42:24Z</time>
  </trkpt>
  <trkpt lat="35.676182" lon="-5.744790">
   <ele>41.00</ele>
   <time>2014-03-29T10:42:26Z</time>
  </trkpt>
  <trkpt lat="35.673207" lon="-5.746929">
   <ele>41.00</ele>
   <time>2014-03-29T10:42:38Z</time>
  </trkpt>
  <trkpt lat="35.672733" lon="-5.747333">
   <ele>41.00</ele>
   <time>2014-03-29T10:42:40Z</time>
  </trkpt>
  <trkpt lat="35.672274" lon="-5.747760">
   <ele>40.00</ele>
   <time>2014-03-29T10:42:42Z</time>
  </trkpt>
  <trkpt lat="35.671834" lon="-5.748211">
   <ele>39.00</ele>
   <time>2014-03-29T10:42:44Z</time>
  </trkpt>
  <trkpt lat="35.671415" lon="-5.748685">
   <ele>38.00</ele>
   <time>2014-03-29T10:42:46Z</time>
  </trkpt>
  <trkpt lat="35.671016" lon="-5.749181">
   <ele>36.00</ele>
   <time>2014-03-29T10:42:48Z</time>
  </trkpt>
  <trkpt lat="35.670637" lon="-5.749704">
   <ele>35.00</ele>
   <time>2014-03-29T10:42:50Z</time>
  </trkpt>
  <trkpt lat="35.670283" lon="-5.750257">
   <ele>34.00</ele>
   <time>2014-03-29T10:42:52Z</time>
  </trkpt>
  <trkpt lat="35.669958" lon="-5.750837">
   <ele>33.00</ele>
   <time>2014-03-29T10:42:54Z</time>
  </trkpt>
  <trkpt lat="35.669664" lon="-5.751439">
   <ele>34.00</ele>
   <time>2014-03-29T10:42:56Z</time>
  </trkpt>
  <trkpt lat="35.669396" lon="-5.752057">
   <ele>34.00</ele>
   <time>2014-03-29T10:42:58Z</time>
  </trkpt>
  <trkpt lat="35.669154" lon="-5.752688">
   <ele>35.00</ele>
   <time>2014-03-29T10:43:00Z</time>
  </trkpt>
  <trkpt lat="35.668938" lon="-5.753327">
   <ele>36.00</ele>
   <time>2014-03-29T10:43:02Z</time>
  </trkpt>
  <trkpt lat="35.668755" lon="-5.753978">
   <ele>37.00</ele>
   <time>2014-03-29T10:43:04Z</time>
  </trkpt>
  <trkpt lat="35.668608" lon="-5.754640">
   <ele>39.00</ele>
   <time>2014-03-29T10:43:06Z</time>
  </trkpt>
  <trkpt lat="35.668489" lon="-5.755310">
   <ele>41.00</ele>
   <time>2014-03-29T10:43:08Z</time>
  </trkpt>
  <trkpt lat="35.668396" lon="-5.755984">
   <ele>43.00</ele>
   <time>2014-03-29T10:43:10Z</time>
  </trkpt>
  <trkpt lat="35.668330" lon="-5.756662">
   <ele>45.00</ele>
   <time>2014-03-29T10:43:12Z</time>
  </trkpt>
  <trkpt lat="35.668287" lon="-5.757345">
   <ele>47.00</ele>
   <time>2014-03-29T10:43:14Z</time>
  </trkpt>
  <trkpt lat="35.668271" lon="-5.758031">
   <ele>48.00</ele>
   <time>2014-03-29T10:43:16Z</time>
  </trkpt>
  <trkpt lat="35.668285" lon="-5.758717">
   <ele>48.00</ele>
   <time>2014-03-29T10:43:18Z</time>
  </trkpt>
  <trkpt lat="35.668325" lon="-5.759399">
   <ele>49.00</ele>
   <time>2014-03-29T10:43:20Z</time>
  </trkpt>
  <trkpt lat="35.668762" lon="-5.764548">
   <ele>43.00</ele>
   <time>2014-03-29T10:43:35Z</time>
  </trkpt>
  <trkpt lat="35.669014" lon="-5.767324">
   <ele>37.00</ele>
   <time>2014-03-29T10:43:43Z</time>
  </trkpt>
  <trkpt lat="35.669109" lon="-5.768016">
   <ele>35.00</ele>
   <time>2014-03-29T10:43:45Z</time>
  </trkpt>
  <trkpt lat="35.669285" lon="-5.769055">
   <ele>33.00</ele>
   <time>2014-03-29T10:43:48Z</time>
  </trkpt>
  <trkpt lat="35.669429" lon="-5.769743">
   <ele>31.00</ele>
   <time>2014-03-29T10:43:50Z</time>
  </trkpt>
  <trkpt lat="35.669602" lon="-5.770420">
   <ele>30.00</ele>
   <time>2014-03-29T10:43:52Z</time>
  </trkpt>
  <trkpt lat="35.669806" lon="-5.771090">
   <ele>30.00</ele>
   <time>2014-03-29T10:43:54Z</time>
  </trkpt>
  <trkpt lat="35.670033" lon="-5.771749">
   <ele>31.00</ele>
   <time>2014-03-29T10:43:56Z</time>
  </trkpt>
  <trkpt lat="35.670277" lon="-5.772394">
   <ele>32.00</ele>
   <time>2014-03-29T10:43:58Z</time>
  </trkpt>
  <trkpt lat="35.670539" lon="-5.773021">
   <ele>32.00</ele>
   <time>2014-03-29T10:44:00Z</time>
  </trkpt>
  <trkpt lat="35.672415" lon="-5.777508">
   <ele>38.00</ele>
   <time>2014-03-29T10:44:15Z</time>
  </trkpt>
  <trkpt lat="35.674347" lon="-5.782260">
   <ele>40.00</ele>
   <time>2014-03-29T10:44:31Z</time>
  </trkpt>
  <trkpt lat="35.676181" lon="-5.786774">
   <ele>36.00</ele>
   <time>2014-03-29T10:44:46Z</time>
  </trkpt>
  <trkpt lat="35.677255" lon="-5.789458">
   <ele>34.00</ele>
   <time>2014-03-29T10:44:55Z</time>
  </trkpt>
  <trkpt lat="35.677679" lon="-5.790675">
   <ele>32.00</ele>
   <time>2014-03-29T10:44:59Z</time>
  </trkpt>
  <trkpt lat="35.677963" lon="-5.791592">
   <ele>32.00</ele>
   <time>2014-03-29T10:45:02Z</time>
  </trkpt>
  <trkpt lat="35.678215" lon="-5.792514">
   <ele>31.00</ele>
   <time>2014-03-29T10:45:05Z</time>
  </trkpt>
  <trkpt lat="35.678436" lon="-5.793455">
   <ele>32.00</ele>
   <time>2014-03-29T10:45:08Z</time>
  </trkpt>
  <trkpt lat="35.678621" lon="-5.794413">
   <ele>32.00</ele>
   <time>2014-03-29T10:45:11Z</time>
  </trkpt>
  <trkpt lat="35.678775" lon="-5.795379">
   <ele>32.00</ele>
   <time>2014-03-29T10:45:14Z</time>
  </trkpt>
  <trkpt lat="35.678893" lon="-5.796353">
   <ele>33.00</ele>
   <time>2014-03-29T10:45:17Z</time>
  </trkpt>
  <trkpt lat="35.678968" lon="-5.797332">
   <ele>33.00</ele>
   <time>2014-03-29T10:45:20Z</time>
  </trkpt>
  <trkpt lat="35.679008" lon="-5.798316">
   <ele>34.00</ele>
   <time>2014-03-29T10:45:23Z</time>
  </trkpt>
  <trkpt lat="35.679012" lon="-5.799297">
   <ele>34.00</ele>
   <time>2014-03-29T10:45:26Z</time>
  </trkpt>
  <trkpt lat="35.678984" lon="-5.800278">
   <ele>35.00</ele>
   <time>2014-03-29T10:45:29Z</time>
  </trkpt>
  <trkpt lat="35.678921" lon="-5.801257">
   <ele>37.00</ele>
   <time>2014-03-29T10:45:32Z</time>
  </trkpt>
  <trkpt lat="35.678823" lon="-5.802235">
   <ele>38.00</ele>
   <time>2014-03-29T10:45:35Z</time>
  </trkpt>
  <trkpt lat="35.678701" lon="-5.803199">
   <ele>38.00</ele>
   <time>2014-03-29T10:45:38Z</time>
  </trkpt>
  <trkpt lat="35.678596" lon="-5.803834">
   <ele>38.00</ele>
   <time>2014-03-29T10:45:40Z</time>
  </trkpt>
  <trkpt lat="35.678406" lon="-5.804784">
   <ele>38.00</ele>
   <time>2014-03-29T10:45:43Z</time>
  </trkpt>
  <trkpt lat="35.678179" lon="-5.805739">
   <ele>38.00</ele>
   <time>2014-03-29T10:45:46Z</time>
  </trkpt>
  <trkpt lat="35.677916" lon="-5.806681">
   <ele>37.00</ele>
   <time>2014-03-29T10:45:49Z</time>
  </trkpt>
  <trkpt lat="35.677620" lon="-5.807602">
   <ele>36.00</ele>
   <time>2014-03-29T10:45:52Z</time>
  </trkpt>
  <trkpt lat="35.677289" lon="-5.808508">
   <ele>35.00</ele>
   <time>2014-03-29T10:45:55Z</time>
  </trkpt>
  <trkpt lat="35.676920" lon="-5.809401">
   <ele>34.00</ele>
   <time>2014-03-29T10:45:58Z</time>
  </trkpt>
  <trkpt lat="35.676517" lon="-5.810283">
   <ele>31.00</ele>
   <time>2014-03-29T10:46:01Z</time>
  </trkpt>
  <trkpt lat="35.676073" lon="-5.811149">
   <ele>28.00</ele>
   <time>2014-03-29T10:46:04Z</time>
  </trkpt>
  <trkpt lat="35.675594" lon="-5.812003">
   <ele>26.00</ele>
   <time>2014-03-29T10:46:07Z</time>
  </trkpt>
  <trkpt lat="35.675078" lon="-5.812835">
   <ele>24.00</ele>
   <time>2014-03-29T10:46:10Z</time>
  </trkpt>
  <trkpt lat="35.674529" lon="-5.813641">
   <ele>22.00</ele>
   <time>2014-03-29T10:46:13Z</time>
  </trkpt>
  <trkpt lat="35.674144" lon="-5.814162">
   <ele>21.00</ele>
   <time>2014-03-29T10:46:15Z</time>
  </trkpt>
  <trkpt lat="35.673744" lon="-5.814666">
   <ele>20.00</ele>
   <time>2014-03-29T10:46:17Z</time>
  </trkpt>
  <trkpt lat="35.672911" lon="-5.815630">
   <ele>18.00</ele>
   <time>2014-03-29T10:46:21Z</time>
  </trkpt>
  <trkpt lat="35.672470" lon="-5.816086">
   <ele>17.00</ele>
   <time>2014-03-29T10:46:23Z</time>
  </trkpt>
  <trkpt lat="35.672017" lon="-5.816525">
   <ele>17.00</ele>
   <time>2014-03-29T10:46:25Z</time>
  </trkpt>
  <trkpt lat="35.671316" lon="-5.817153">
   <ele>17.00</ele>
   <time>2014-03-29T10:46:28Z</time>
  </trkpt>
  <trkpt lat="35.669019" lon="-5.819219">
   <ele>19.00</ele>
   <time>2014-03-29T10:46:38Z</time>
  </trkpt>
  <trkpt lat="35.667940" lon="-5.820268">
   <ele>19.00</ele>
   <time>2014-03-29T10:46:43Z</time>
  </trkpt>
  <trkpt lat="35.667519" lon="-5.820715">
   <ele>19.00</ele>
   <time>2014-03-29T10:46:45Z</time>
  </trkpt>
  <trkpt lat="35.667115" lon="-5.821188">
   <ele>18.00</ele>
   <time>2014-03-29T10:46:47Z</time>
  </trkpt>
  <trkpt lat="35.666728" lon="-5.821676">
   <ele>18.00</ele>
   <time>2014-03-29T10:46:49Z</time>
  </trkpt>
  <trkpt lat="35.666358" lon="-5.822178">
   <ele>17.00</ele>
   <time>2014-03-29T10:46:51Z</time>
  </trkpt>
  <trkpt lat="35.666006" lon="-5.822695">
   <ele>17.00</ele>
   <time>2014-03-29T10:46:53Z</time>
  </trkpt>
  <trkpt lat="35.665673" lon="-5.823228">
   <ele>16.00</ele>
   <time>2014-03-29T10:46:55Z</time>
  </trkpt>
  <trkpt lat="35.665196" lon="-5.824053">
   <ele>15.00</ele>
   <time>2014-03-29T10:46:58Z</time>
  </trkpt>
  <trkpt lat="35.663912" lon="-5.826272">
   <ele>13.00</ele>
   <time>2014-03-29T10:47:06Z</time>
  </trkpt>
  <trkpt lat="35.663564" lon="-5.826805">
   <ele>13.00</ele>
   <time>2014-03-29T10:47:08Z</time>
  </trkpt>
  <trkpt lat="35.662832" lon="-5.827833">
   <ele>12.00</ele>
   <time>2014-03-29T10:47:12Z</time>
  </trkpt>
  <trkpt lat="35.662254" lon="-5.828565">
   <ele>12.00</ele>
   <time>2014-03-29T10:47:15Z</time>
  </trkpt>
  <trkpt lat="35.661651" lon="-5.829256">
   <ele>13.00</ele>
   <time>2014-03-29T10:47:18Z</time>
  </trkpt>
  <trkpt lat="35.658643" lon="-5.832587">
   <ele>18.00</ele>
   <time>2014-03-29T10:47:33Z</time>
  </trkpt>
  <trkpt lat="35.658066" lon="-5.833284">
   <ele>18.00</ele>
   <time>2014-03-29T10:47:36Z</time>
  </trkpt>
  <trkpt lat="35.657515" lon="-5.834014">
   <ele>18.00</ele>
   <time>2014-03-29T10:47:39Z</time>
  </trkpt>
  <trkpt lat="35.656988" lon="-5.834779">
   <ele>17.00</ele>
   <time>2014-03-29T10:47:42Z</time>
  </trkpt>
  <trkpt lat="35.656491" lon="-5.835580">
   <ele>17.00</ele>
   <time>2014-03-29T10:47:45Z</time>
  </trkpt>
  <trkpt lat="35.656021" lon="-5.836408">
   <ele>16.00</ele>
   <time>2014-03-29T10:47:48Z</time>
  </trkpt>
  <trkpt lat="35.655583" lon="-5.837268">
   <ele>16.00</ele>
   <time>2014-03-29T10:47:51Z</time>
  </trkpt>
  <trkpt lat="35.655183" lon="-5.838159">
   <ele>17.00</ele>
   <time>2014-03-29T10:47:54Z</time>
  </trkpt>
  <trkpt lat="35.654817" lon="-5.839065">
   <ele>17.00</ele>
   <time>2014-03-29T10:47:57Z</time>
  </trkpt>
  <trkpt lat="35.654483" lon="-5.839982">
   <ele>16.00</ele>
   <time>2014-03-29T10:48:00Z</time>
  </trkpt>
  <trkpt lat="35.654184" lon="-5.840916">
   <ele>16.00</ele>
   <time>2014-03-29T10:48:03Z</time>
  </trkpt>
  <trkpt lat="35.653924" lon="-5.841862">
   <ele>16.00</ele>
   <time>2014-03-29T10:48:06Z</time>
  </trkpt>
  <trkpt lat="35.653702" lon="-5.842815">
   <ele>15.00</ele>
   <time>2014-03-29T10:48:09Z</time>
  </trkpt>
  <trkpt lat="35.653455" lon="-5.844095">
   <ele>15.00</ele>
   <time>2014-03-29T10:48:13Z</time>
  </trkpt>
  <trkpt lat="35.653350" lon="-5.844741">
   <ele>14.00</ele>
   <time>2014-03-29T10:48:15Z</time>
  </trkpt>
  <trkpt lat="35.653266" lon="-5.845394">
   <ele>14.00</ele>
   <time>2014-03-29T10:48:17Z</time>
  </trkpt>
  <trkpt lat="35.653172" lon="-5.846385">
   <ele>13.00</ele>
   <time>2014-03-29T10:48:20Z</time>
  </trkpt>
  <trkpt lat="35.652854" lon="-5.851348">
   <ele>9.00</ele>
   <time>2014-03-29T10:48:35Z</time>
  </trkpt>
  <trkpt lat="35.652538" lon="-5.856294">
   <ele>9.00</ele>
   <time>2014-03-29T10:48:50Z</time>
  </trkpt>
  <trkpt lat="35.652201" lon="-5.861469">
   <ele>8.00</ele>
   <time>2014-03-29T10:49:06Z</time>
  </trkpt>
  <trkpt lat="35.652150" lon="-5.862448">
   <ele>8.00</ele>
   <time>2014-03-29T10:49:09Z</time>
  </trkpt>
  <trkpt lat="35.652141" lon="-5.863105">
   <ele>8.00</ele>
   <time>2014-03-29T10:49:11Z</time>
  </trkpt>
  <trkpt lat="35.652153" lon="-5.863768">
   <ele>8.00</ele>
   <time>2014-03-29T10:49:13Z</time>
  </trkpt>
  <trkpt lat="35.652186" lon="-5.864435">
   <ele>8.00</ele>
   <time>2014-03-29T10:49:15Z</time>
  </trkpt>
  <trkpt lat="35.652269" lon="-5.865440">
   <ele>7.00</ele>
   <time>2014-03-29T10:49:18Z</time>
  </trkpt>
  <trkpt lat="35.652390" lon="-5.866449">
   <ele>7.00</ele>
   <time>2014-03-29T10:49:21Z</time>
  </trkpt>
  <trkpt lat="35.652500" lon="-5.867118">
   <ele>6.00</ele>
   <time>2014-03-29T10:49:23Z</time>
  </trkpt>
  <trkpt lat="35.652637" lon="-5.867782">
   <ele>6.00</ele>
   <time>2014-03-29T10:49:25Z</time>
  </trkpt>
  <trkpt lat="35.652797" lon="-5.868441">
   <ele>6.00</ele>
   <time>2014-03-29T10:49:27Z</time>
  </trkpt>
  <trkpt lat="35.652986" lon="-5.869095">
   <ele>6.00</ele>
   <time>2014-03-29T10:49:29Z</time>
  </trkpt>
  <trkpt lat="35.653282" lon="-5.869983">
   <ele>8.00</ele>
   <time>2014-03-29T10:49:32Z</time>
  </trkpt>
  <trkpt lat="35.653570" lon="-5.870737">
   <ele>9.00</ele>
   <time>2014-03-29T10:49:35Z</time>
  </trkpt>
  <trkpt lat="35.653867" lon="-5.871435">
   <ele>9.00</ele>
   <time>2014-03-29T10:49:38Z</time>
  </trkpt>
  <trkpt lat="35.654190" lon="-5.872127">
   <ele>9.00</ele>
   <time>2014-03-29T10:49:41Z</time>
  </trkpt>
  <trkpt lat="35.654549" lon="-5.872817">
   <ele>9.00</ele>
   <time>2014-03-29T10:49:44Z</time>
  </trkpt>
  <trkpt lat="35.654935" lon="-5.873481">
   <ele>9.00</ele>
   <time>2014-03-29T10:49:47Z</time>
  </trkpt>
  <trkpt lat="35.655212" lon="-5.873922">
   <ele>10.00</ele>
   <time>2014-03-29T10:49:49Z</time>
  </trkpt>
  <trkpt lat="35.655661" lon="-5.874581">
   <ele>9.00</ele>
   <time>2014-03-29T10:49:52Z</time>
  </trkpt>
  <trkpt lat="35.656155" lon="-5.875241">
   <ele>8.00</ele>
   <time>2014-03-29T10:49:55Z</time>
  </trkpt>
  <trkpt lat="35.657678" lon="-5.877119">
   <ele>6.00</ele>
   <time>2014-03-29T10:50:03Z</time>
  </trkpt>
  <trkpt lat="35.659876" lon="-5.879835">
   <ele>8.00</ele>
   <time>2014-03-29T10:50:14Z</time>
  </trkpt>
  <trkpt lat="35.660446" lon="-5.880593">
   <ele>10.00</ele>
   <time>2014-03-29T10:50:17Z</time>
  </trkpt>
  <trkpt lat="35.660806" lon="-5.881113">
   <ele>11.00</ele>
   <time>2014-03-29T10:50:19Z</time>
  </trkpt>
  <trkpt lat="35.661140" lon="-5.881651">
   <ele>12.00</ele>
   <time>2014-03-29T10:50:21Z</time>
  </trkpt>
  <trkpt lat="35.661457" lon="-5.882205">
   <ele>13.00</ele>
   <time>2014-03-29T10:50:23Z</time>
  </trkpt>
  <trkpt lat="35.661754" lon="-5.882773">
   <ele>15.00</ele>
   <time>2014-03-29T10:50:25Z</time>
  </trkpt>
  <trkpt lat="35.662033" lon="-5.883357">
   <ele>16.00</ele>
   <time>2014-03-29T10:50:27Z</time>
  </trkpt>
  <trkpt lat="35.662290" lon="-5.883954">
   <ele>17.00</ele>
   <time>2014-03-29T10:50:29Z</time>
  </trkpt>
  <trkpt lat="35.662530" lon="-5.884560">
   <ele>17.00</ele>
   <time>2014-03-29T10:50:31Z</time>
  </trkpt>
  <trkpt lat="35.662752" lon="-5.885179">
   <ele>18.00</ele>
   <time>2014-03-29T10:50:33Z</time>
  </trkpt>
  <trkpt lat="35.663258" lon="-5.886770">
   <ele>20.00</ele>
   <time>2014-03-29T10:50:38Z</time>
  </trkpt>
  <trkpt lat="35.664871" lon="-5.891983">
   <ele>20.00</ele>
   <time>2014-03-29T10:50:54Z</time>
  </trkpt>
  <trkpt lat="35.666424" lon="-5.896924">
   <ele>19.00</ele>
   <time>2014-03-29T10:51:09Z</time>
  </trkpt>
  <trkpt lat="35.666664" lon="-5.897555">
   <ele>20.00</ele>
   <time>2014-03-29T10:51:11Z</time>
  </trkpt>
  <trkpt lat="35.666935" lon="-5.898163">
   <ele>21.00</ele>
   <time>2014-03-29T10:51:13Z</time>
  </trkpt>
  <trkpt lat="35.667238" lon="-5.898744">
   <ele>22.00</ele>
   <time>2014-03-29T10:51:15Z</time>
  </trkpt>
  <trkpt lat="35.667570" lon="-5.899297">
   <ele>22.00</ele>
   <time>2014-03-29T10:51:17Z</time>
  </trkpt>
  <trkpt lat="35.667929" lon="-5.899824">
   <ele>23.00</ele>
   <time>2014-03-29T10:51:19Z</time>
  </trkpt>
  <trkpt lat="35.668311" lon="-5.900325">
   <ele>24.00</ele>
   <time>2014-03-29T10:51:21Z</time>
  </trkpt>
  <trkpt lat="35.668718" lon="-5.900795">
   <ele>24.00</ele>
   <time>2014-03-29T10:51:23Z</time>
  </trkpt>
  <trkpt lat="35.669147" lon="-5.901237">
   <ele>25.00</ele>
   <time>2014-03-29T10:51:25Z</time>
  </trkpt>
  <trkpt lat="35.672691" lon="-5.904679">
   <ele>32.00</ele>
   <time>2014-03-29T10:51:41Z</time>
  </trkpt>
  <trkpt lat="35.674181" lon="-5.906163">
   <ele>34.00</ele>
   <time>2014-03-29T10:51:48Z</time>
  </trkpt>
  <trkpt lat="35.674377" lon="-5.906391">
   <ele>34.00</ele>
   <time>2014-03-29T10:51:49Z</time>
  </trkpt>
  <trkpt lat="35.674566" lon="-5.906629">
   <ele>34.00</ele>
   <time>2014-03-29T10:51:50Z</time>
  </trkpt>
  <trkpt lat="35.674746" lon="-5.906878">
   <ele>34.00</ele>
   <time>2014-03-29T10:51:51Z</time>
  </trkpt>
  <trkpt lat="35.674917" lon="-5.907135">
   <ele>34.00</ele>
   <time>2014-03-29T10:51:52Z</time>
  </trkpt>
  <trkpt lat="35.675080" lon="-5.907403">
   <ele>35.00</ele>
   <time>2014-03-29T10:51:53Z</time>
  </trkpt>
  <trkpt lat="35.675234" lon="-5.907681">
   <ele>35.00</ele>
   <time>2014-03-29T10:51:54Z</time>
  </trkpt>
  <trkpt lat="35.675377" lon="-5.907969">
   <ele>34.00</ele>
   <time>2014-03-29T10:51:55Z</time>
  </trkpt>
  <trkpt lat="35.675509" lon="-5.908266">
   <ele>34.00</ele>
   <time>2014-03-29T10:51:56Z</time>
  </trkpt>
  <trkpt lat="35.675629" lon="-5.908572">
   <ele>34.00</ele>
   <time>2014-03-29T10:51:57Z</time>
  </trkpt>
  <trkpt lat="35.675737" lon="-5.908881">
   <ele>33.00</ele>
   <time>2014-03-29T10:51:58Z</time>
  </trkpt>
  <trkpt lat="35.675835" lon="-5.909195">
   <ele>33.00</ele>
   <time>2014-03-29T10:51:59Z</time>
  </trkpt>
  <trkpt lat="35.675920" lon="-5.909514">
   <ele>32.00</ele>
   <time>2014-03-29T10:52:00Z</time>
  </trkpt>
  <trkpt lat="35.675996" lon="-5.909837">
   <ele>32.00</ele>
   <time>2014-03-29T10:52:01Z</time>
  </trkpt>
  <trkpt lat="35.676061" lon="-5.910165">
   <ele>32.00</ele>
   <time>2014-03-29T10:52:02Z</time>
  </trkpt>
  <trkpt lat="35.676114" lon="-5.910495">
   <ele>31.00</ele>
   <time>2014-03-29T10:52:03Z</time>
  </trkpt>
  <trkpt lat="35.676154" lon="-5.910828">
   <ele>31.00</ele>
   <time>2014-03-29T10:52:04Z</time>
  </trkpt>
  <trkpt lat="35.676182" lon="-5.911161">
   <ele>31.00</ele>
   <time>2014-03-29T10:52:05Z</time>
  </trkpt>
  <trkpt lat="35.676197" lon="-5.911495">
   <ele>31.00</ele>
   <time>2014-03-29T10:52:06Z</time>
  </trkpt>
  <trkpt lat="35.676200" lon="-5.911829">
   <ele>30.00</ele>
   <time>2014-03-29T10:52:07Z</time>
  </trkpt>
  <trkpt lat="35.676192" lon="-5.912164">
   <ele>30.00</ele>
   <time>2014-03-29T10:52:08Z</time>
  </trkpt>
  <trkpt lat="35.676171" lon="-5.912499">
   <ele>30.00</ele>
   <time>2014-03-29T10:52:09Z</time>
  </trkpt>
  <trkpt lat="35.676138" lon="-5.912834">
   <ele>29.00</ele>
   <time>2014-03-29T10:52:10Z</time>
  </trkpt>
  <trkpt lat="35.676092" lon="-5.913167">
   <ele>29.00</ele>
   <time>2014-03-29T10:52:11Z</time>
  </trkpt>
  <trkpt lat="35.676036" lon="-5.913498">
   <ele>29.00</ele>
   <time>2014-03-29T10:52:12Z</time>
  </trkpt>
  <trkpt lat="35.675891" lon="-5.914152">
   <ele>26.00</ele>
   <time>2014-03-29T10:52:14Z</time>
  </trkpt>
  <trkpt lat="35.674776" lon="-5.919030">
   <ele>19.00</ele>
   <time>2014-03-29T10:52:29Z</time>
  </trkpt>
  <trkpt lat="35.673695" lon="-5.923850">
   <ele>18.00</ele>
   <time>2014-03-29T10:52:44Z</time>
  </trkpt>
  <trkpt lat="35.673085" lon="-5.926682">
   <ele>20.00</ele>
   <time>2014-03-29T10:52:53Z</time>
  </trkpt>
  <trkpt lat="35.673039" lon="-5.926996">
   <ele>20.00</ele>
   <time>2014-03-29T10:52:54Z</time>
  </trkpt>
  <trkpt lat="35.673007" lon="-5.927310">
   <ele>21.00</ele>
   <time>2014-03-29T10:52:55Z</time>
  </trkpt>
  <trkpt lat="35.672992" lon="-5.927625">
   <ele>21.00</ele>
   <time>2014-03-29T10:52:56Z</time>
  </trkpt>
  <trkpt lat="35.672992" lon="-5.927939">
   <ele>21.00</ele>
   <time>2014-03-29T10:52:57Z</time>
  </trkpt>
  <trkpt lat="35.673009" lon="-5.928251">
   <ele>21.00</ele>
   <time>2014-03-29T10:52:58Z</time>
  </trkpt>
  <trkpt lat="35.673042" lon="-5.928557">
   <ele>21.00</ele>
   <time>2014-03-29T10:52:59Z</time>
  </trkpt>
  <trkpt lat="35.673093" lon="-5.928856">
   <ele>22.00</ele>
   <time>2014-03-29T10:53:00Z</time>
  </trkpt>
  <trkpt lat="35.673160" lon="-5.929150">
   <ele>22.00</ele>
   <time>2014-03-29T10:53:01Z</time>
  </trkpt>
  <trkpt lat="35.673242" lon="-5.929438">
   <ele>22.00</ele>
   <time>2014-03-29T10:53:02Z</time>
  </trkpt>
  <trkpt lat="35.673341" lon="-5.929717">
   <ele>22.00</ele>
   <time>2014-03-29T10:53:03Z</time>
  </trkpt>
  <trkpt lat="35.673454" lon="-5.929989">
   <ele>22.00</ele>
   <time>2014-03-29T10:53:04Z</time>
  </trkpt>
  <trkpt lat="35.673580" lon="-5.930252">
   <ele>22.00</ele>
   <time>2014-03-29T10:53:05Z</time>
  </trkpt>
  <trkpt lat="35.673849" lon="-5.930753">
   <ele>22.00</ele>
   <time>2014-03-29T10:53:07Z</time>
  </trkpt>
  <trkpt lat="35.674618" lon="-5.932078">
   <ele>23.00</ele>
   <time>2014-03-29T10:53:13Z</time>
  </trkpt>
  <trkpt lat="35.674722" lon="-5.932288">
   <ele>23.00</ele>
   <time>2014-03-29T10:53:14Z</time>
  </trkpt>
  <trkpt lat="35.674815" lon="-5.932499">
   <ele>23.00</ele>
   <time>2014-03-29T10:53:15Z</time>
  </trkpt>
  <trkpt lat="35.674899" lon="-5.932715">
   <ele>24.00</ele>
   <time>2014-03-29T10:53:16Z</time>
  </trkpt>
  <trkpt lat="35.674970" lon="-5.932937">
   <ele>25.00</ele>
   <time>2014-03-29T10:53:17Z</time>
  </trkpt>
  <trkpt lat="35.675028" lon="-5.933168">
   <ele>25.00</ele>
   <time>2014-03-29T10:53:18Z</time>
  </trkpt>
  <trkpt lat="35.675072" lon="-5.933407">
   <ele>26.00</ele>
   <time>2014-03-29T10:53:19Z</time>
  </trkpt>
  <trkpt lat="35.675104" lon="-5.933653">
   <ele>26.00</ele>
   <time>2014-03-29T10:53:20Z</time>
  </trkpt>
  <trkpt lat="35.675125" lon="-5.933905">
   <ele>26.00</ele>
   <time>2014-03-29T10:53:21Z</time>
  </trkpt>
  <trkpt lat="35.675132" lon="-5.934160">
   <ele>26.00</ele>
   <time>2014-03-29T10:53:22Z</time>
  </trkpt>
  <trkpt lat="35.675123" lon="-5.934415">
   <ele>26.00</ele>
   <time>2014-03-29T10:53:23Z</time>
  </trkpt>
  <trkpt lat="35.675097" lon="-5.934668">
   <ele>26.00</ele>
   <time>2014-03-29T10:53:24Z</time>
  </trkpt>
  <trkpt lat="35.675056" lon="-5.934919">
   <ele>26.00</ele>
   <time>2014-03-29T10:53:25Z</time>
  </trkpt>
  <trkpt lat="35.674998" lon="-5.935168">
   <ele>26.00</ele>
   <time>2014-03-29T10:53:26Z</time>
  </trkpt>
  <trkpt lat="35.674926" lon="-5.935412">
   <ele>26.00</ele>
   <time>2014-03-29T10:53:27Z</time>
  </trkpt>
  <trkpt lat="35.674841" lon="-5.935653">
   <ele>26.00</ele>
   <time>2014-03-29T10:53:28Z</time>
  </trkpt>
  <trkpt lat="35.674740" lon="-5.935888">
   <ele>25.00</ele>
   <time>2014-03-29T10:53:29Z</time>
  </trkpt>
  <trkpt lat="35.674626" lon="-5.936117">
   <ele>25.00</ele>
   <time>2014-03-29T10:53:30Z</time>
  </trkpt>
  <trkpt lat="35.674498" lon="-5.936336">
   <ele>25.00</ele>
   <time>2014-03-29T10:53:31Z</time>
  </trkpt>
  <trkpt lat="35.674356" lon="-5.936541">
   <ele>25.00</ele>
   <time>2014-03-29T10:53:32Z</time>
  </trkpt>
  <trkpt lat="35.674202" lon="-5.936731">
   <ele>25.00</ele>
   <time>2014-03-29T10:53:33Z</time>
  </trkpt>
  <trkpt lat="35.674037" lon="-5.936905">
   <ele>25.00</ele>
   <time>2014-03-29T10:53:34Z</time>
  </trkpt>
  <trkpt lat="35.673862" lon="-5.937063">
   <ele>25.00</ele>
   <time>2014-03-29T10:53:35Z</time>
  </trkpt>
  <trkpt lat="35.673677" lon="-5.937207">
   <ele>25.00</ele>
   <time>2014-03-29T10:53:36Z</time>
  </trkpt>
  <trkpt lat="35.673485" lon="-5.937334">
   <ele>25.00</ele>
   <time>2014-03-29T10:53:37Z</time>
  </trkpt>
  <trkpt lat="35.673287" lon="-5.937443">
   <ele>25.00</ele>
   <time>2014-03-29T10:53:38Z</time>
  </trkpt>
  <trkpt lat="35.673087" lon="-5.937534">
   <ele>25.00</ele>
   <time>2014-03-29T10:53:39Z</time>
  </trkpt>
  <trkpt lat="35.672885" lon="-5.937606">
   <ele>25.00</ele>
   <time>2014-03-29T10:53:40Z</time>
  </trkpt>
  <trkpt lat="35.672682" lon="-5.937659">
   <ele>26.00</ele>
   <time>2014-03-29T10:53:41Z</time>
  </trkpt>
  <trkpt lat="35.672479" lon="-5.937699">
   <ele>26.00</ele>
   <time>2014-03-29T10:53:42Z</time>
  </trkpt>
  <trkpt lat="35.671460" lon="-5.937861">
   <ele>26.00</ele>
   <time>2014-03-29T10:53:47Z</time>
  </trkpt>
  <trkpt lat="35.671256" lon="-5.937913">
   <ele>26.00</ele>
   <time>2014-03-29T10:53:48Z</time>
  </trkpt>
  <trkpt lat="35.671053" lon="-5.937978">
   <ele>26.00</ele>
   <time>2014-03-29T10:53:49Z</time>
  </trkpt>
  <trkpt lat="35.670853" lon="-5.938055">
   <ele>26.00</ele>
   <time>2014-03-29T10:53:50Z</time>
  </trkpt>
  <trkpt lat="35.670657" lon="-5.938143">
   <ele>27.00</ele>
   <time>2014-03-29T10:53:51Z</time>
  </trkpt>
  <trkpt lat="35.670465" lon="-5.938241">
   <ele>27.00</ele>
   <time>2014-03-29T10:53:52Z</time>
  </trkpt>
  <trkpt lat="35.670277" lon="-5.938349">
   <ele>27.00</ele>
   <time>2014-03-29T10:53:53Z</time>
  </trkpt>
  <trkpt lat="35.670095" lon="-5.938466">
   <ele>27.00</ele>
   <time>2014-03-29T10:53:54Z</time>
  </trkpt>
  <trkpt lat="35.669748" lon="-5.938720">
   <ele>26.00</ele>
   <time>2014-03-29T10:53:56Z</time>
  </trkpt>
  <trkpt lat="35.669417" lon="-5.938996">
   <ele>26.00</ele>
   <time>2014-03-29T10:53:58Z</time>
  </trkpt>
  <trkpt lat="35.669097" lon="-5.939294">
   <ele>26.00</ele>
   <time>2014-03-29T10:54:00Z</time>
  </trkpt>
  <trkpt lat="35.666437" lon="-5.941872">
   <ele>29.00</ele>
   <time>2014-03-29T10:54:16Z</time>
  </trkpt>
  <trkpt lat="35.663872" lon="-5.944513">
   <ele>31.00</ele>
   <time>2014-03-29T10:54:31Z</time>
  </trkpt>
  <trkpt lat="35.661021" lon="-5.947397">
   <ele>32.00</ele>
   <time>2014-03-29T10:54:47Z</time>
  </trkpt>
  <trkpt lat="35.658313" lon="-5.950138">
   <ele>28.00</ele>
   <time>2014-03-29T10:55:02Z</time>
  </trkpt>
  <trkpt lat="35.655643" lon="-5.952841">
   <ele>22.00</ele>
   <time>2014-03-29T10:55:17Z</time>
  </trkpt>
  <trkpt lat="35.653292" lon="-5.955164">
   <ele>16.00</ele>
   <time>2014-03-29T10:55:30Z</time>
  </trkpt>
  <trkpt lat="35.652713" lon="-5.955668">
   <ele>14.00</ele>
   <time>2014-03-29T10:55:33Z</time>
  </trkpt>
  <trkpt lat="35.652121" lon="-5.956143">
   <ele>13.00</ele>
   <time>2014-03-29T10:55:36Z</time>
  </trkpt>
  <trkpt lat="35.651512" lon="-5.956587">
   <ele>12.00</ele>
   <time>2014-03-29T10:55:39Z</time>
  </trkpt>
  <trkpt lat="35.650887" lon="-5.957004">
   <ele>11.00</ele>
   <time>2014-03-29T10:55:42Z</time>
  </trkpt>
  <trkpt lat="35.650249" lon="-5.957393">
   <ele>11.00</ele>
   <time>2014-03-29T10:55:45Z</time>
  </trkpt>
  <trkpt lat="35.649599" lon="-5.957752">
   <ele>10.00</ele>
   <time>2014-03-29T10:55:48Z</time>
  </trkpt>
  <trkpt lat="35.649160" lon="-5.957971">
   <ele>9.00</ele>
   <time>2014-03-29T10:55:50Z</time>
  </trkpt>
  <trkpt lat="35.648277" lon="-5.958357">
   <ele>8.00</ele>
   <time>2014-03-29T10:55:54Z</time>
  </trkpt>
  <trkpt lat="35.647605" lon="-5.958615">
   <ele>8.00</ele>
   <time>2014-03-29T10:55:57Z</time>
  </trkpt>
  <trkpt lat="35.646697" lon="-5.958907">
   <ele>8.00</ele>
   <time>2014-03-29T10:56:01Z</time>
  </trkpt>
  <trkpt lat="35.645790" lon="-5.959131">
   <ele>8.00</ele>
   <time>2014-03-29T10:56:05Z</time>
  </trkpt>
  <trkpt lat="35.644619" lon="-5.959362">
   <ele>8.00</ele>
   <time>2014-03-29T10:56:10Z</time>
  </trkpt>
  <trkpt lat="35.640923" lon="-5.960027">
   <ele>7.00</ele>
   <time>2014-03-29T10:56:26Z</time>
  </trkpt>
  <trkpt lat="35.637514" lon="-5.960653">
   <ele>7.00</ele>
   <time>2014-03-29T10:56:41Z</time>
  </trkpt>
  <trkpt lat="35.636097" lon="-5.960876">
   <ele>7.00</ele>
   <time>2014-03-29T10:56:47Z</time>
  </trkpt>
  <trkpt lat="35.635373" lon="-5.960939">
   <ele>7.00</ele>
   <time>2014-03-29T10:56:50Z</time>
  </trkpt>
  <trkpt lat="35.634412" lon="-5.960970">
   <ele>8.00</ele>
   <time>2014-03-29T10:56:54Z</time>
  </trkpt>
  <trkpt lat="35.633690" lon="-5.960958">
   <ele>10.00</ele>
   <time>2014-03-29T10:56:57Z</time>
  </trkpt>
  <trkpt lat="35.632970" lon="-5.960909">
   <ele>11.00</ele>
   <time>2014-03-29T10:57:00Z</time>
  </trkpt>
  <trkpt lat="35.632029" lon="-5.960791">
   <ele>14.00</ele>
   <time>2014-03-29T10:57:04Z</time>
  </trkpt>
  <trkpt lat="35.631111" lon="-5.960624">
   <ele>17.00</ele>
   <time>2014-03-29T10:57:08Z</time>
  </trkpt>
  <trkpt lat="35.627360" lon="-5.959899">
   <ele>33.00</ele>
   <time>2014-03-29T10:57:24Z</time>
  </trkpt>
  <trkpt lat="35.624673" lon="-5.959428">
   <ele>42.00</ele>
   <time>2014-03-29T10:57:35Z</time>
  </trkpt>
  <trkpt lat="35.623929" lon="-5.959360">
   <ele>44.00</ele>
   <time>2014-03-29T10:57:38Z</time>
  </trkpt>
  <trkpt lat="35.623177" lon="-5.959331">
   <ele>45.00</ele>
   <time>2014-03-29T10:57:41Z</time>
  </trkpt>
  <trkpt lat="35.622668" lon="-5.959337">
   <ele>46.00</ele>
   <time>2014-03-29T10:57:43Z</time>
  </trkpt>
  <trkpt lat="35.621894" lon="-5.959380">
   <ele>47.00</ele>
   <time>2014-03-29T10:57:46Z</time>
  </trkpt>
  <trkpt lat="35.621375" lon="-5.959436">
   <ele>47.00</ele>
   <time>2014-03-29T10:57:48Z</time>
  </trkpt>
  <trkpt lat="35.620599" lon="-5.959560">
   <ele>47.00</ele>
   <time>2014-03-29T10:57:51Z</time>
  </trkpt>
  <trkpt lat="35.620081" lon="-5.959665">
   <ele>47.00</ele>
   <time>2014-03-29T10:57:53Z</time>
  </trkpt>
  <trkpt lat="35.618808" lon="-5.959986">
   <ele>46.00</ele>
   <time>2014-03-29T10:57:58Z</time>
  </trkpt>
  <trkpt lat="35.615044" lon="-5.961010">
   <ele>37.00</ele>
   <time>2014-03-29T10:58:13Z</time>
  </trkpt>
  <trkpt lat="35.613771" lon="-5.961262">
   <ele>33.00</ele>
   <time>2014-03-29T10:58:18Z</time>
  </trkpt>
  <trkpt lat="35.612472" lon="-5.961461">
   <ele>29.00</ele>
   <time>2014-03-29T10:58:23Z</time>
  </trkpt>
  <trkpt lat="35.611143" lon="-5.961598">
   <ele>26.00</ele>
   <time>2014-03-29T10:58:28Z</time>
  </trkpt>
  <trkpt lat="35.609551" lon="-5.961687">
   <ele>23.00</ele>
   <time>2014-03-29T10:58:34Z</time>
  </trkpt>
  <trkpt lat="35.608031" lon="-5.961692">
   <ele>22.00</ele>
   <time>2014-03-29T10:58:40Z</time>
  </trkpt>
  <trkpt lat="35.604040" lon="-5.961628">
   <ele>20.00</ele>
   <time>2014-03-29T10:58:56Z</time>
  </trkpt>
  <trkpt lat="35.600352" lon="-5.961567">
   <ele>18.00</ele>
   <time>2014-03-29T10:59:11Z</time>
  </trkpt>
  <trkpt lat="35.597633" lon="-5.961505">
   <ele>16.00</ele>
   <time>2014-03-29T10:59:22Z</time>
  </trkpt>
  <trkpt lat="35.595019" lon="-5.961490">
   <ele>15.00</ele>
   <time>2014-03-29T10:59:32Z</time>
  </trkpt>
  <trkpt lat="35.594511" lon="-5.961451">
   <ele>16.00</ele>
   <time>2014-03-29T10:59:34Z</time>
  </trkpt>
  <trkpt lat="35.594007" lon="-5.961375">
   <ele>16.00</ele>
   <time>2014-03-29T10:59:36Z</time>
  </trkpt>
  <trkpt lat="35.593516" lon="-5.961259">
   <ele>15.00</ele>
   <time>2014-03-29T10:59:38Z</time>
  </trkpt>
  <trkpt lat="35.593031" lon="-5.961121">
   <ele>15.00</ele>
   <time>2014-03-29T10:59:40Z</time>
  </trkpt>
  <trkpt lat="35.592791" lon="-5.961040">
   <ele>15.00</ele>
   <time>2014-03-29T10:59:41Z</time>
  </trkpt>
  <trkpt lat="35.592326" lon="-5.960850">
   <ele>15.00</ele>
   <time>2014-03-29T10:59:43Z</time>
  </trkpt>
  <trkpt lat="35.591880" lon="-5.960632">
   <ele>15.00</ele>
   <time>2014-03-29T10:59:45Z</time>
  </trkpt>
  <trkpt lat="35.591450" lon="-5.960392">
   <ele>15.00</ele>
   <time>2014-03-29T10:59:47Z</time>
  </trkpt>
  <trkpt lat="35.591033" lon="-5.960128">
   <ele>15.00</ele>
   <time>2014-03-29T10:59:49Z</time>
  </trkpt>
  <trkpt lat="35.590636" lon="-5.959841">
   <ele>15.00</ele>
   <time>2014-03-29T10:59:51Z</time>
  </trkpt>
  <trkpt lat="35.590255" lon="-5.959537">
   <ele>15.00</ele>
   <time>2014-03-29T10:59:53Z</time>
  </trkpt>
  <trkpt lat="35.589890" lon="-5.959216">
   <ele>16.00</ele>
   <time>2014-03-29T10:59:55Z</time>
  </trkpt>
  <trkpt lat="35.588806" lon="-5.958253">
   <ele>19.00</ele>
   <time>2014-03-29T11:00:01Z</time>
  </trkpt>
  <trkpt lat="35.588424" lon="-5.957959">
   <ele>21.00</ele>
   <time>2014-03-29T11:00:03Z</time>
  </trkpt>
  <trkpt lat="35.588030" lon="-5.957693">
   <ele>22.00</ele>
   <time>2014-03-29T11:00:05Z</time>
  </trkpt>
  <trkpt lat="35.587428" lon="-5.957334">
   <ele>25.00</ele>
   <time>2014-03-29T11:00:08Z</time>
  </trkpt>
  <trkpt lat="35.587019" lon="-5.957128">
   <ele>27.00</ele>
   <time>2014-03-29T11:00:10Z</time>
  </trkpt>
  <trkpt lat="35.586600" lon="-5.956949">
   <ele>29.00</ele>
   <time>2014-03-29T11:00:12Z</time>
  </trkpt>
  <trkpt lat="35.586166" lon="-5.956796">
   <ele>31.00</ele>
   <time>2014-03-29T11:00:14Z</time>
  </trkpt>
  <trkpt lat="35.585723" lon="-5.956666">
   <ele>33.00</ele>
   <time>2014-03-29T11:00:16Z</time>
  </trkpt>
  <trkpt lat="35.585271" lon="-5.956562">
   <ele>35.00</ele>
   <time>2014-03-29T11:00:18Z</time>
  </trkpt>
  <trkpt lat="35.585041" lon="-5.956522">
   <ele>36.00</ele>
   <time>2014-03-29T11:00:19Z</time>
  </trkpt>
  <trkpt lat="35.584575" lon="-5.956471">
   <ele>38.00</ele>
   <time>2014-03-29T11:00:21Z</time>
  </trkpt>
  <trkpt lat="35.584108" lon="-5.956445">
   <ele>40.00</ele>
   <time>2014-03-29T11:00:23Z</time>
  </trkpt>
  <trkpt lat="35.583639" lon="-5.956446">
   <ele>42.00</ele>
   <time>2014-03-29T11:00:25Z</time>
  </trkpt>
  <trkpt lat="35.583173" lon="-5.956478">
   <ele>43.00</ele>
   <time>2014-03-29T11:00:27Z</time>
  </trkpt>
  <trkpt lat="35.582941" lon="-5.956507">
   <ele>44.00</ele>
   <time>2014-03-29T11:00:28Z</time>
  </trkpt>
  <trkpt lat="35.582478" lon="-5.956590">
   <ele>45.00</ele>
   <time>2014-03-29T11:00:30Z</time>
  </trkpt>
  <trkpt lat="35.582016" lon="-5.956697">
   <ele>47.00</ele>
   <time>2014-03-29T11:00:32Z</time>
  </trkpt>
  <trkpt lat="35.581552" lon="-5.956836">
   <ele>47.00</ele>
   <time>2014-03-29T11:00:34Z</time>
  </trkpt>
  <trkpt lat="35.581088" lon="-5.957007">
   <ele>48.00</ele>
   <time>2014-03-29T11:00:36Z</time>
  </trkpt>
  <trkpt lat="35.580629" lon="-5.957209">
   <ele>49.00</ele>
   <time>2014-03-29T11:00:38Z</time>
  </trkpt>
  <trkpt lat="35.580180" lon="-5.957444">
   <ele>49.00</ele>
   <time>2014-03-29T11:00:40Z</time>
  </trkpt>
  <trkpt lat="35.579743" lon="-5.957705">
   <ele>49.00</ele>
   <time>2014-03-29T11:00:42Z</time>
  </trkpt>
  <trkpt lat="35.579324" lon="-5.957991">
   <ele>49.00</ele>
   <time>2014-03-29T11:00:44Z</time>
  </trkpt>
  <trkpt lat="35.578923" lon="-5.958299">
   <ele>49.00</ele>
   <time>2014-03-29T11:00:46Z</time>
  </trkpt>
  <trkpt lat="35.578537" lon="-5.958628">
   <ele>49.00</ele>
   <time>2014-03-29T11:00:48Z</time>
  </trkpt>
  <trkpt lat="35.575809" lon="-5.961165">
   <ele>44.00</ele>
   <time>2014-03-29T11:01:03Z</time>
  </trkpt>
  <trkpt lat="35.573119" lon="-5.963661">
   <ele>34.00</ele>
   <time>2014-03-29T11:01:18Z</time>
  </trkpt>
  <trkpt lat="35.570164" lon="-5.966390">
   <ele>19.00</ele>
   <time>2014-03-29T11:01:34Z</time>
  </trkpt>
  <trkpt lat="35.567392" lon="-5.968942">
   <ele>5.00</ele>
   <time>2014-03-29T11:01:49Z</time>
  </trkpt>
  <trkpt lat="35.564661" lon="-5.971458">
   <ele>0.00</ele>
   <time>2014-03-29T11:02:04Z</time>
  </trkpt>
  <trkpt lat="35.561683" lon="-5.974154">
   <ele>-1.00</ele>
   <time>2014-03-29T11:02:20Z</time>
  </trkpt>
  <trkpt lat="35.559980" lon="-5.975732">
   <ele>-1.00</ele>
   <time>2014-03-29T11:02:29Z</time>
  </trkpt>
  <trkpt lat="35.559174" lon="-5.976379">
   <ele>-1.00</ele>
   <time>2014-03-29T11:02:33Z</time>
  </trkpt>
  <trkpt lat="35.558547" lon="-5.976828">
   <ele>-1.00</ele>
   <time>2014-03-29T11:02:36Z</time>
  </trkpt>
  <trkpt lat="35.557903" lon="-5.977240">
   <ele>0.00</ele>
   <time>2014-03-29T11:02:39Z</time>
  </trkpt>
  <trkpt lat="35.557248" lon="-5.977620">
   <ele>0.00</ele>
   <time>2014-03-29T11:02:42Z</time>
  </trkpt>
  <trkpt lat="35.556364" lon="-5.978075">
   <ele>1.00</ele>
   <time>2014-03-29T11:02:46Z</time>
  </trkpt>
  <trkpt lat="35.553050" lon="-5.979687">
   <ele>3.00</ele>
   <time>2014-03-29T11:03:01Z</time>
  </trkpt>
  <trkpt lat="35.549719" lon="-5.981321">
   <ele>3.00</ele>
   <time>2014-03-29T11:03:16Z</time>
  </trkpt>
  <trkpt lat="35.546019" lon="-5.983130">
   <ele>3.00</ele>
   <time>2014-03-29T11:03:32Z</time>
  </trkpt>
  <trkpt lat="35.542513" lon="-5.984844">
   <ele>4.00</ele>
   <time>2014-03-29T11:03:47Z</time>
  </trkpt>
  <trkpt lat="35.539072" lon="-5.986531">
   <ele>4.00</ele>
   <time>2014-03-29T11:04:02Z</time>
  </trkpt>
  <trkpt lat="35.535274" lon="-5.988396">
   <ele>3.00</ele>
   <time>2014-03-29T11:04:18Z</time>
  </trkpt>
  <trkpt lat="35.531996" lon="-5.989969">
   <ele>4.00</ele>
   <time>2014-03-29T11:04:33Z</time>
  </trkpt>
  <trkpt lat="35.531126" lon="-5.990326">
   <ele>5.00</ele>
   <time>2014-03-29T11:04:37Z</time>
  </trkpt>
  <trkpt lat="35.530469" lon="-5.990562">
   <ele>6.00</ele>
   <time>2014-03-29T11:04:40Z</time>
  </trkpt>
  <trkpt lat="35.529361" lon="-5.990892">
   <ele>9.00</ele>
   <time>2014-03-29T11:04:45Z</time>
  </trkpt>
  <trkpt lat="35.528229" lon="-5.991165">
   <ele>12.00</ele>
   <time>2014-03-29T11:04:50Z</time>
  </trkpt>
  <trkpt lat="35.527294" lon="-5.991338">
   <ele>15.00</ele>
   <time>2014-03-29T11:04:54Z</time>
  </trkpt>
  <trkpt lat="35.526350" lon="-5.991460">
   <ele>17.00</ele>
   <time>2014-03-29T11:04:58Z</time>
  </trkpt>
  <trkpt lat="35.525396" lon="-5.991530">
   <ele>20.00</ele>
   <time>2014-03-29T11:05:02Z</time>
  </trkpt>
  <trkpt lat="35.524419" lon="-5.991551">
   <ele>22.00</ele>
   <time>2014-03-29T11:05:06Z</time>
  </trkpt>
  <trkpt lat="35.523422" lon="-5.991522">
   <ele>25.00</ele>
   <time>2014-03-29T11:05:10Z</time>
  </trkpt>
  <trkpt lat="35.522422" lon="-5.991437">
   <ele>28.00</ele>
   <time>2014-03-29T11:05:14Z</time>
  </trkpt>
  <trkpt lat="35.521422" lon="-5.991300">
   <ele>31.00</ele>
   <time>2014-03-29T11:05:18Z</time>
  </trkpt>
  <trkpt lat="35.520419" lon="-5.991106">
   <ele>33.00</ele>
   <time>2014-03-29T11:05:22Z</time>
  </trkpt>
  <trkpt lat="35.516423" lon="-5.990165">
   <ele>42.00</ele>
   <time>2014-03-29T11:05:38Z</time>
  </trkpt>
  <trkpt lat="35.512648" lon="-5.989272">
   <ele>40.00</ele>
   <time>2014-03-29T11:05:53Z</time>
  </trkpt>
  <trkpt lat="35.508856" lon="-5.988373">
   <ele>29.00</ele>
   <time>2014-03-29T11:06:08Z</time>
  </trkpt>
  <trkpt lat="35.505081" lon="-5.987482">
   <ele>16.00</ele>
   <time>2014-03-29T11:06:23Z</time>
  </trkpt>
  <trkpt lat="35.504050" lon="-5.987285">
   <ele>13.00</ele>
   <time>2014-03-29T11:06:27Z</time>
  </trkpt>
  <trkpt lat="35.503000" lon="-5.987135">
   <ele>10.00</ele>
   <time>2014-03-29T11:06:31Z</time>
  </trkpt>
  <trkpt lat="35.502206" lon="-5.987062">
   <ele>8.00</ele>
   <time>2014-03-29T11:06:34Z</time>
  </trkpt>
  <trkpt lat="35.501156" lon="-5.987025">
   <ele>7.00</ele>
   <time>2014-03-29T11:06:38Z</time>
  </trkpt>
  <trkpt lat="35.500130" lon="-5.987044">
   <ele>6.00</ele>
   <time>2014-03-29T11:06:42Z</time>
  </trkpt>
  <trkpt lat="35.499366" lon="-5.987095">
   <ele>6.00</ele>
   <time>2014-03-29T11:06:45Z</time>
  </trkpt>
  <trkpt lat="35.498607" lon="-5.987181">
   <ele>6.00</ele>
   <time>2014-03-29T11:06:48Z</time>
  </trkpt>
  <trkpt lat="35.497608" lon="-5.987338">
   <ele>6.00</ele>
   <time>2014-03-29T11:06:52Z</time>
  </trkpt>
  <trkpt lat="35.496615" lon="-5.987551">
   <ele>6.00</ele>
   <time>2014-03-29T11:06:56Z</time>
  </trkpt>
  <trkpt lat="35.495620" lon="-5.987819">
   <ele>6.00</ele>
   <time>2014-03-29T11:07:00Z</time>
  </trkpt>
  <trkpt lat="35.494385" lon="-5.988227">
   <ele>5.00</ele>
   <time>2014-03-29T11:07:05Z</time>
  </trkpt>
  <trkpt lat="35.490714" lon="-5.989595">
   <ele>4.00</ele>
   <time>2014-03-29T11:07:20Z</time>
  </trkpt>
  <trkpt lat="35.486846" lon="-5.991047">
   <ele>5.00</ele>
   <time>2014-03-29T11:07:36Z</time>
  </trkpt>
  <trkpt lat="35.483229" lon="-5.992399">
   <ele>5.00</ele>
   <time>2014-03-29T11:07:51Z</time>
  </trkpt>
  <trkpt lat="35.479668" lon="-5.993748">
   <ele>6.00</ele>
   <time>2014-03-29T11:08:06Z</time>
  </trkpt>
  <trkpt lat="35.478961" lon="-5.994054">
   <ele>8.00</ele>
   <time>2014-03-29T11:08:09Z</time>
  </trkpt>
  <trkpt lat="35.478265" lon="-5.994393">
   <ele>9.00</ele>
   <time>2014-03-29T11:08:12Z</time>
  </trkpt>
  <trkpt lat="35.477588" lon="-5.994773">
   <ele>11.00</ele>
   <time>2014-03-29T11:08:15Z</time>
  </trkpt>
  <trkpt lat="35.476920" lon="-5.995190">
   <ele>13.00</ele>
   <time>2014-03-29T11:08:18Z</time>
  </trkpt>
  <trkpt lat="35.476267" lon="-5.995644">
   <ele>15.00</ele>
   <time>2014-03-29T11:08:21Z</time>
  </trkpt>
  <trkpt lat="35.475632" lon="-5.996140">
   <ele>18.00</ele>
   <time>2014-03-29T11:08:24Z</time>
  </trkpt>
  <trkpt lat="35.475015" lon="-5.996671">
   <ele>20.00</ele>
   <time>2014-03-29T11:08:27Z</time>
  </trkpt>
  <trkpt lat="35.474418" lon="-5.997232">
   <ele>22.00</ele>
   <time>2014-03-29T11:08:30Z</time>
  </trkpt>
  <trkpt lat="35.473838" lon="-5.997826">
   <ele>25.00</ele>
   <time>2014-03-29T11:08:33Z</time>
  </trkpt>
  <trkpt lat="35.473288" lon="-5.998449">
   <ele>27.00</ele>
   <time>2014-03-29T11:08:36Z</time>
  </trkpt>
  <trkpt lat="35.472770" lon="-5.999094">
   <ele>29.00</ele>
   <time>2014-03-29T11:08:39Z</time>
  </trkpt>
  <trkpt lat="35.470180" lon="-6.002551">
   <ele>40.00</ele>
   <time>2014-03-29T11:08:55Z</time>
  </trkpt>
  <trkpt lat="35.467739" lon="-6.005796">
   <ele>41.00</ele>
   <time>2014-03-29T11:09:10Z</time>
  </trkpt>
  <trkpt lat="35.466864" lon="-6.006933">
   <ele>39.00</ele>
   <time>2014-03-29T11:09:15Z</time>
  </trkpt>
  <trkpt lat="35.464371" lon="-6.010279">
   <ele>27.00</ele>
   <time>2014-03-29T11:09:30Z</time>
  </trkpt>
  <trkpt lat="35.462836" lon="-6.012350">
   <ele>20.00</ele>
   <time>2014-03-29T11:09:39Z</time>
  </trkpt>
  <trkpt lat="35.461937" lon="-6.013457">
   <ele>16.00</ele>
   <time>2014-03-29T11:09:44Z</time>
  </trkpt>
  <trkpt lat="35.460974" lon="-6.014542">
   <ele>15.00</ele>
   <time>2014-03-29T11:09:49Z</time>
  </trkpt>
  <trkpt lat="35.459989" lon="-6.015569">
   <ele>15.00</ele>
   <time>2014-03-29T11:09:54Z</time>
  </trkpt>
  <trkpt lat="35.458988" lon="-6.016534">
   <ele>17.00</ele>
   <time>2014-03-29T11:09:59Z</time>
  </trkpt>
  <trkpt lat="35.457779" lon="-6.017607">
   <ele>23.00</ele>
   <time>2014-03-29T11:10:05Z</time>
  </trkpt>
  <trkpt lat="35.456745" lon="-6.018448">
   <ele>28.00</ele>
   <time>2014-03-29T11:10:10Z</time>
  </trkpt>
  <trkpt lat="35.455890" lon="-6.019071">
   <ele>33.00</ele>
   <time>2014-03-29T11:10:14Z</time>
  </trkpt>
  <trkpt lat="35.454795" lon="-6.019806">
   <ele>38.00</ele>
   <time>2014-03-29T11:10:19Z</time>
  </trkpt>
  <trkpt lat="35.453669" lon="-6.020495">
   <ele>44.00</ele>
   <time>2014-03-29T11:10:24Z</time>
  </trkpt>
  <trkpt lat="35.452313" lon="-6.021233">
   <ele>50.00</ele>
   <time>2014-03-29T11:10:30Z</time>
  </trkpt>
  <trkpt lat="35.451413" lon="-6.021679">
   <ele>53.00</ele>
   <time>2014-03-29T11:10:34Z</time>
  </trkpt>
  <trkpt lat="35.450279" lon="-6.022181">
   <ele>57.00</ele>
   <time>2014-03-29T11:10:39Z</time>
  </trkpt>
  <trkpt lat="35.449127" lon="-6.022627">
   <ele>60.00</ele>
   <time>2014-03-29T11:10:44Z</time>
  </trkpt>
  <trkpt lat="35.445697" lon="-6.023835">
   <ele>64.00</ele>
   <time>2014-03-29T11:10:59Z</time>
  </trkpt>
  <trkpt lat="35.442179" lon="-6.025083">
   <ele>68.00</ele>
   <time>2014-03-29T11:11:14Z</time>
  </trkpt>
  <trkpt lat="35.438421" lon="-6.026409">
   <ele>72.00</ele>
   <time>2014-03-29T11:11:30Z</time>
  </trkpt>
  <trkpt lat="35.437713" lon="-6.026637">
   <ele>72.00</ele>
   <time>2014-03-29T11:11:33Z</time>
  </trkpt>
  <trkpt lat="35.436776" lon="-6.026885">
   <ele>73.00</ele>
   <time>2014-03-29T11:11:37Z</time>
  </trkpt>
  <trkpt lat="35.435830" lon="-6.027092">
   <ele>74.00</ele>
   <time>2014-03-29T11:11:41Z</time>
  </trkpt>
  <trkpt lat="35.434866" lon="-6.027255">
   <ele>74.00</ele>
   <time>2014-03-29T11:11:45Z</time>
  </trkpt>
  <trkpt lat="35.433885" lon="-6.027377">
   <ele>74.00</ele>
   <time>2014-03-29T11:11:49Z</time>
  </trkpt>
  <trkpt lat="35.432887" lon="-6.027453">
   <ele>73.00</ele>
   <time>2014-03-29T11:11:53Z</time>
  </trkpt>
  <trkpt lat="35.431876" lon="-6.027480">
   <ele>72.00</ele>
   <time>2014-03-29T11:11:57Z</time>
  </trkpt>
  <trkpt lat="35.430871" lon="-6.027454">
   <ele>71.00</ele>
   <time>2014-03-29T11:12:01Z</time>
  </trkpt>
  <trkpt lat="35.429622" lon="-6.027362">
   <ele>69.00</ele>
   <time>2014-03-29T11:12:06Z</time>
  </trkpt>
  <trkpt lat="35.428620" lon="-6.027229">
   <ele>66.00</ele>
   <time>2014-03-29T11:12:10Z</time>
  </trkpt>
  <trkpt lat="35.427618" lon="-6.027041">
   <ele>62.00</ele>
   <time>2014-03-29T11:12:14Z</time>
  </trkpt>
  <trkpt lat="35.426603" lon="-6.026804">
   <ele>58.00</ele>
   <time>2014-03-29T11:12:18Z</time>
  </trkpt>
  <trkpt lat="35.422709" lon="-6.025720">
   <ele>47.00</ele>
   <time>2014-03-29T11:12:33Z</time>
  </trkpt>
  <trkpt lat="35.418749" lon="-6.024624">
   <ele>46.00</ele>
   <time>2014-03-29T11:12:48Z</time>
  </trkpt>
  <trkpt lat="35.413803" lon="-6.023250">
   <ele>45.00</ele>
   <time>2014-03-29T11:13:06Z</time>
  </trkpt>
  <trkpt lat="35.409474" lon="-6.022024">
   <ele>47.00</ele>
   <time>2014-03-29T11:13:21Z</time>
  </trkpt>
  <trkpt lat="35.404977" lon="-6.020841">
   <ele>49.00</ele>
   <time>2014-03-29T11:13:37Z</time>
  </trkpt>
  <trkpt lat="35.404162" lon="-6.020671">
   <ele>50.00</ele>
   <time>2014-03-29T11:13:40Z</time>
  </trkpt>
  <trkpt lat="35.403347" lon="-6.020549">
   <ele>50.00</ele>
   <time>2014-03-29T11:13:43Z</time>
  </trkpt>
  <trkpt lat="35.402531" lon="-6.020467">
   <ele>51.00</ele>
   <time>2014-03-29T11:13:46Z</time>
  </trkpt>
  <trkpt lat="35.401985" lon="-6.020446">
   <ele>51.00</ele>
   <time>2014-03-29T11:13:48Z</time>
  </trkpt>
  <trkpt lat="35.401163" lon="-6.020450">
   <ele>51.00</ele>
   <time>2014-03-29T11:13:51Z</time>
  </trkpt>
  <trkpt lat="35.400336" lon="-6.020505">
   <ele>51.00</ele>
   <time>2014-03-29T11:13:54Z</time>
  </trkpt>
  <trkpt lat="35.399511" lon="-6.020604">
   <ele>52.00</ele>
   <time>2014-03-29T11:13:57Z</time>
  </trkpt>
  <trkpt lat="35.398697" lon="-6.020744">
   <ele>52.00</ele>
   <time>2014-03-29T11:14:00Z</time>
  </trkpt>
  <trkpt lat="35.397898" lon="-6.020928">
   <ele>52.00</ele>
   <time>2014-03-29T11:14:03Z</time>
  </trkpt>
  <trkpt lat="35.397113" lon="-6.021158">
   <ele>53.00</ele>
   <time>2014-03-29T11:14:06Z</time>
  </trkpt>
  <trkpt lat="35.396337" lon="-6.021427">
   <ele>53.00</ele>
   <time>2014-03-29T11:14:09Z</time>
  </trkpt>
  <trkpt lat="35.395318" lon="-6.021841">
   <ele>53.00</ele>
   <time>2014-03-29T11:14:13Z</time>
  </trkpt>
  <trkpt lat="35.393024" lon="-6.022776">
   <ele>55.00</ele>
   <time>2014-03-29T11:14:22Z</time>
  </trkpt>
  <trkpt lat="35.392241" lon="-6.023037">
   <ele>55.00</ele>
   <time>2014-03-29T11:14:25Z</time>
  </trkpt>
  <trkpt lat="35.391442" lon="-6.023253">
   <ele>56.00</ele>
   <time>2014-03-29T11:14:28Z</time>
  </trkpt>
  <trkpt lat="35.390627" lon="-6.023426">
   <ele>56.00</ele>
   <time>2014-03-29T11:14:31Z</time>
  </trkpt>
  <trkpt lat="35.390077" lon="-6.023516">
   <ele>57.00</ele>
   <time>2014-03-29T11:14:33Z</time>
  </trkpt>
  <trkpt lat="35.389522" lon="-6.023578">
   <ele>57.00</ele>
   <time>2014-03-29T11:14:35Z</time>
  </trkpt>
  <trkpt lat="35.388682" lon="-6.023623">
   <ele>58.00</ele>
   <time>2014-03-29T11:14:38Z</time>
  </trkpt>
  <trkpt lat="35.387577" lon="-6.023628">
   <ele>60.00</ele>
   <time>2014-03-29T11:14:42Z</time>
  </trkpt>
  <trkpt lat="35.386756" lon="-6.023582">
   <ele>62.00</ele>
   <time>2014-03-29T11:14:45Z</time>
  </trkpt>
  <trkpt lat="35.385936" lon="-6.023488">
   <ele>64.00</ele>
   <time>2014-03-29T11:14:48Z</time>
  </trkpt>
  <trkpt lat="35.385116" lon="-6.023353">
   <ele>67.00</ele>
   <time>2014-03-29T11:14:51Z</time>
  </trkpt>
  <trkpt lat="35.384307" lon="-6.023174">
   <ele>69.00</ele>
   <time>2014-03-29T11:14:54Z</time>
  </trkpt>
  <trkpt lat="35.383502" lon="-6.022943">
   <ele>71.00</ele>
   <time>2014-03-29T11:14:57Z</time>
  </trkpt>
  <trkpt lat="35.382700" lon="-6.022666">
   <ele>73.00</ele>
   <time>2014-03-29T11:15:00Z</time>
  </trkpt>
  <trkpt lat="35.378460" lon="-6.021094">
   <ele>85.00</ele>
   <time>2014-03-29T11:15:16Z</time>
  </trkpt>
  <trkpt lat="35.374488" lon="-6.019613">
   <ele>95.00</ele>
   <time>2014-03-29T11:15:31Z</time>
  </trkpt>
  <trkpt lat="35.373162" lon="-6.019146">
   <ele>98.00</ele>
   <time>2014-03-29T11:15:36Z</time>
  </trkpt>
  <trkpt lat="35.371289" lon="-6.018582">
   <ele>102.00</ele>
   <time>2014-03-29T11:15:43Z</time>
  </trkpt>
  <trkpt lat="35.370473" lon="-6.018402">
   <ele>103.00</ele>
   <time>2014-03-29T11:15:46Z</time>
  </trkpt>
  <trkpt lat="35.368279" lon="-6.017969">
   <ele>104.00</ele>
   <time>2014-03-29T11:15:54Z</time>
  </trkpt>
  <trkpt lat="35.367171" lon="-6.017823">
   <ele>104.00</ele>
   <time>2014-03-29T11:15:58Z</time>
  </trkpt>
  <trkpt lat="35.365491" lon="-6.017692">
   <ele>103.00</ele>
   <time>2014-03-29T11:16:04Z</time>
  </trkpt>
  <trkpt lat="35.361262" lon="-6.017421">
   <ele>99.00</ele>
   <time>2014-03-29T11:16:19Z</time>
  </trkpt>
  <trkpt lat="35.359861" lon="-6.017329">
   <ele>98.00</ele>
   <time>2014-03-29T11:16:24Z</time>
  </trkpt>
  <trkpt lat="35.358750" lon="-6.017182">
   <ele>97.00</ele>
   <time>2014-03-29T11:16:28Z</time>
  </trkpt>
  <trkpt lat="35.357373" lon="-6.016924">
   <ele>96.00</ele>
   <time>2014-03-29T11:16:33Z</time>
  </trkpt>
  <trkpt lat="35.356282" lon="-6.016671">
   <ele>94.00</ele>
   <time>2014-03-29T11:16:37Z</time>
  </trkpt>
  <trkpt lat="35.352218" lon="-6.015619">
   <ele>91.00</ele>
   <time>2014-03-29T11:16:52Z</time>
  </trkpt>
  <trkpt lat="35.348173" lon="-6.014608">
   <ele>88.00</ele>
   <time>2014-03-29T11:17:07Z</time>
  </trkpt>
  <trkpt lat="35.345955" lon="-6.014217">
   <ele>89.00</ele>
   <time>2014-03-29T11:17:15Z</time>
  </trkpt>
  <trkpt lat="35.344310" lon="-6.014008">
   <ele>91.00</ele>
   <time>2014-03-29T11:17:21Z</time>
  </trkpt>
  <trkpt lat="35.339944" lon="-6.013649">
   <ele>103.00</ele>
   <time>2014-03-29T11:17:37Z</time>
  </trkpt>
  <trkpt lat="35.335854" lon="-6.013312">
   <ele>109.00</ele>
   <time>2014-03-29T11:17:52Z</time>
  </trkpt>
  <trkpt lat="35.331496" lon="-6.012924">
   <ele>111.00</ele>
   <time>2014-03-29T11:18:07Z</time>
  </trkpt>
  <trkpt lat="35.327158" lon="-6.012604">
   <ele>112.00</ele>
   <time>2014-03-29T11:18:22Z</time>
  </trkpt>
  <trkpt lat="35.322635" lon="-6.012264">
   <ele>116.00</ele>
   <time>2014-03-29T11:18:38Z</time>
  </trkpt>
  <trkpt lat="35.321786" lon="-6.012259">
   <ele>117.00</ele>
   <time>2014-03-29T11:18:41Z</time>
  </trkpt>
  <trkpt lat="35.320941" lon="-6.012296">
   <ele>118.00</ele>
   <time>2014-03-29T11:18:44Z</time>
  </trkpt>
  <trkpt lat="35.320101" lon="-6.012378">
   <ele>120.00</ele>
   <time>2014-03-29T11:18:47Z</time>
  </trkpt>
  <trkpt lat="35.319268" lon="-6.012510">
   <ele>121.00</ele>
   <time>2014-03-29T11:18:50Z</time>
  </trkpt>
  <trkpt lat="35.318444" lon="-6.012680">
   <ele>121.00</ele>
   <time>2014-03-29T11:18:53Z</time>
  </trkpt>
  <trkpt lat="35.317631" lon="-6.012889">
   <ele>122.00</ele>
   <time>2014-03-29T11:18:56Z</time>
  </trkpt>
  <trkpt lat="35.316829" lon="-6.013140">
   <ele>123.00</ele>
   <time>2014-03-29T11:18:59Z</time>
  </trkpt>
  <trkpt lat="35.316033" lon="-6.013430">
   <ele>123.00</ele>
   <time>2014-03-29T11:19:02Z</time>
  </trkpt>
  <trkpt lat="35.315244" lon="-6.013766">
   <ele>123.00</ele>
   <time>2014-03-29T11:19:05Z</time>
  </trkpt>
  <trkpt lat="35.314461" lon="-6.014154">
   <ele>124.00</ele>
   <time>2014-03-29T11:19:08Z</time>
  </trkpt>
  <trkpt lat="35.313687" lon="-6.014584">
   <ele>125.00</ele>
   <time>2014-03-29T11:19:11Z</time>
  </trkpt>
  <trkpt lat="35.312925" lon="-6.015051">
   <ele>125.00</ele>
   <time>2014-03-29T11:19:14Z</time>
  </trkpt>
  <trkpt lat="35.312181" lon="-6.015551">
   <ele>125.00</ele>
   <time>2014-03-29T11:19:17Z</time>
  </trkpt>
  <trkpt lat="35.311461" lon="-6.016084">
   <ele>123.00</ele>
   <time>2014-03-29T11:19:20Z</time>
  </trkpt>
  <trkpt lat="35.310995" lon="-6.016462">
   <ele>122.00</ele>
   <time>2014-03-29T11:19:22Z</time>
  </trkpt>
  <trkpt lat="35.310097" lon="-6.017269">
   <ele>120.00</ele>
   <time>2014-03-29T11:19:26Z</time>
  </trkpt>
  <trkpt lat="35.309446" lon="-6.017906">
   <ele>118.00</ele>
   <time>2014-03-29T11:19:29Z</time>
  </trkpt>
  <trkpt lat="35.308821" lon="-6.018576">
   <ele>117.00</ele>
   <time>2014-03-29T11:19:32Z</time>
  </trkpt>
  <trkpt lat="35.308222" lon="-6.019279">
   <ele>117.00</ele>
   <time>2014-03-29T11:19:35Z</time>
  </trkpt>
  <trkpt lat="35.307269" lon="-6.020498">
   <ele>120.00</ele>
   <time>2014-03-29T11:19:40Z</time>
  </trkpt>
  <trkpt lat="35.304270" lon="-6.024446">
   <ele>136.00</ele>
   <time>2014-03-29T11:19:56Z</time>
  </trkpt>
  <trkpt lat="35.303868" lon="-6.024907">
   <ele>139.00</ele>
   <time>2014-03-29T11:19:58Z</time>
  </trkpt>
  <trkpt lat="35.303447" lon="-6.025345">
   <ele>141.00</ele>
   <time>2014-03-29T11:20:00Z</time>
  </trkpt>
  <trkpt lat="35.303010" lon="-6.025758">
   <ele>143.00</ele>
   <time>2014-03-29T11:20:02Z</time>
  </trkpt>
  <trkpt lat="35.302553" lon="-6.026143">
   <ele>145.00</ele>
   <time>2014-03-29T11:20:04Z</time>
  </trkpt>
  <trkpt lat="35.302078" lon="-6.026500">
   <ele>147.00</ele>
   <time>2014-03-29T11:20:06Z</time>
  </trkpt>
  <trkpt lat="35.301832" lon="-6.026662">
   <ele>148.00</ele>
   <time>2014-03-29T11:20:07Z</time>
  </trkpt>
  <trkpt lat="35.301326" lon="-6.026959">
   <ele>151.00</ele>
   <time>2014-03-29T11:20:09Z</time>
  </trkpt>
  <trkpt lat="35.300545" lon="-6.027366">
   <ele>155.00</ele>
   <time>2014-03-29T11:20:12Z</time>
  </trkpt>
  <trkpt lat="35.299745" lon="-6.027731">
   <ele>159.00</ele>
   <time>2014-03-29T11:20:15Z</time>
  </trkpt>
  <trkpt lat="35.297097" lon="-6.028888">
   <ele>172.00</ele>
   <time>2014-03-29T11:20:25Z</time>
  </trkpt>
  <trkpt lat="35.296329" lon="-6.029294">
   <ele>175.00</ele>
   <time>2014-03-29T11:20:28Z</time>
  </trkpt>
  <trkpt lat="35.295827" lon="-6.029595">
   <ele>178.00</ele>
   <time>2014-03-29T11:20:30Z</time>
  </trkpt>
  <trkpt lat="35.295333" lon="-6.029920">
   <ele>179.00</ele>
   <time>2014-03-29T11:20:32Z</time>
  </trkpt>
  <trkpt lat="35.294845" lon="-6.030269">
   <ele>181.00</ele>
   <time>2014-03-29T11:20:34Z</time>
  </trkpt>
  <trkpt lat="35.294128" lon="-6.030834">
   <ele>183.00</ele>
   <time>2014-03-29T11:20:37Z</time>
  </trkpt>
  <trkpt lat="35.293663" lon="-6.031235">
   <ele>184.00</ele>
   <time>2014-03-29T11:20:39Z</time>
  </trkpt>
  <trkpt lat="35.293209" lon="-6.031659">
   <ele>186.00</ele>
   <time>2014-03-29T11:20:41Z</time>
  </trkpt>
  <trkpt lat="35.292766" lon="-6.032104">
   <ele>187.00</ele>
   <time>2014-03-29T11:20:43Z</time>
  </trkpt>
  <trkpt lat="35.292125" lon="-6.032812">
   <ele>189.00</ele>
   <time>2014-03-29T11:20:46Z</time>
  </trkpt>
  <trkpt lat="35.291713" lon="-6.033311">
   <ele>189.00</ele>
   <time>2014-03-29T11:20:48Z</time>
  </trkpt>
  <trkpt lat="35.291118" lon="-6.034094">
   <ele>190.00</ele>
   <time>2014-03-29T11:20:51Z</time>
  </trkpt>
  <trkpt lat="35.290743" lon="-6.034641">
   <ele>191.00</ele>
   <time>2014-03-29T11:20:53Z</time>
  </trkpt>
  <trkpt lat="35.290209" lon="-6.035482">
   <ele>192.00</ele>
   <time>2014-03-29T11:20:56Z</time>
  </trkpt>
  <trkpt lat="35.287528" lon="-6.040043">
   <ele>193.00</ele>
   <time>2014-03-29T11:21:12Z</time>
  </trkpt>
  <trkpt lat="35.286042" lon="-6.042595">
   <ele>194.00</ele>
   <time>2014-03-29T11:21:21Z</time>
  </trkpt>
  <trkpt lat="35.285746" lon="-6.043181">
   <ele>194.00</ele>
   <time>2014-03-29T11:21:23Z</time>
  </trkpt>
  <trkpt lat="35.285479" lon="-6.043789">
   <ele>194.00</ele>
   <time>2014-03-29T11:21:25Z</time>
  </trkpt>
  <trkpt lat="35.285245" lon="-6.044413">
   <ele>194.00</ele>
   <time>2014-03-29T11:21:27Z</time>
  </trkpt>
  <trkpt lat="35.285045" lon="-6.045056">
   <ele>194.00</ele>
   <time>2014-03-29T11:21:29Z</time>
  </trkpt>
  <trkpt lat="35.284879" lon="-6.045710">
   <ele>194.00</ele>
   <time>2014-03-29T11:21:31Z</time>
  </trkpt>
  <trkpt lat="35.284749" lon="-6.046375">
   <ele>193.00</ele>
   <time>2014-03-29T11:21:33Z</time>
  </trkpt>
  <trkpt lat="35.284654" lon="-6.047049">
   <ele>193.00</ele>
   <time>2014-03-29T11:21:35Z</time>
  </trkpt>
  <trkpt lat="35.284592" lon="-6.047732">
   <ele>193.00</ele>
   <time>2014-03-29T11:21:37Z</time>
  </trkpt>
  <trkpt lat="35.284567" lon="-6.048421">
   <ele>193.00</ele>
   <time>2014-03-29T11:21:39Z</time>
  </trkpt>
  <trkpt lat="35.284579" lon="-6.049112">
   <ele>193.00</ele>
   <time>2014-03-29T11:21:41Z</time>
  </trkpt>
  <trkpt lat="35.284628" lon="-6.049804">
   <ele>193.00</ele>
   <time>2014-03-29T11:21:43Z</time>
  </trkpt>
  <trkpt lat="35.284714" lon="-6.050492">
   <ele>193.00</ele>
   <time>2014-03-29T11:21:45Z</time>
  </trkpt>
  <trkpt lat="35.284824" lon="-6.051174">
   <ele>193.00</ele>
   <time>2014-03-29T11:21:47Z</time>
  </trkpt>
  <trkpt lat="35.285052" lon="-6.052527">
   <ele>193.00</ele>
   <time>2014-03-29T11:21:51Z</time>
  </trkpt>
  <trkpt lat="35.285130" lon="-6.053209">
   <ele>193.00</ele>
   <time>2014-03-29T11:21:53Z</time>
  </trkpt>
  <trkpt lat="35.285177" lon="-6.053889">
   <ele>193.00</ele>
   <time>2014-03-29T11:21:55Z</time>
  </trkpt>
  <trkpt lat="35.285193" lon="-6.054560">
   <ele>193.00</ele>
   <time>2014-03-29T11:21:57Z</time>
  </trkpt>
  <trkpt lat="35.285174" lon="-6.055222">
   <ele>193.00</ele>
   <time>2014-03-29T11:21:59Z</time>
  </trkpt>
  <trkpt lat="35.285121" lon="-6.055879">
   <ele>194.00</ele>
   <time>2014-03-29T11:22:01Z</time>
  </trkpt>
  <trkpt lat="35.285035" lon="-6.056533">
   <ele>194.00</ele>
   <time>2014-03-29T11:22:03Z</time>
  </trkpt>
  <trkpt lat="35.284918" lon="-6.057184">
   <ele>195.00</ele>
   <time>2014-03-29T11:22:05Z</time>
  </trkpt>
  <trkpt lat="35.284764" lon="-6.057832">
   <ele>194.00</ele>
   <time>2014-03-29T11:22:07Z</time>
  </trkpt>
  <trkpt lat="35.284573" lon="-6.058481">
   <ele>195.00</ele>
   <time>2014-03-29T11:22:09Z</time>
  </trkpt>
  <trkpt lat="35.284347" lon="-6.059122">
   <ele>195.00</ele>
   <time>2014-03-29T11:22:11Z</time>
  </trkpt>
  <trkpt lat="35.284085" lon="-6.059753">
   <ele>195.00</ele>
   <time>2014-03-29T11:22:13Z</time>
  </trkpt>
  <trkpt lat="35.283939" lon="-6.060061">
   <ele>195.00</ele>
   <time>2014-03-29T11:22:14Z</time>
  </trkpt>
  <trkpt lat="35.283620" lon="-6.060663">
   <ele>195.00</ele>
   <time>2014-03-29T11:22:16Z</time>
  </trkpt>
  <trkpt lat="35.283274" lon="-6.061244">
   <ele>194.00</ele>
   <time>2014-03-29T11:22:18Z</time>
  </trkpt>
  <trkpt lat="35.282905" lon="-6.061803">
   <ele>194.00</ele>
   <time>2014-03-29T11:22:20Z</time>
  </trkpt>
  <trkpt lat="35.282510" lon="-6.062332">
   <ele>194.00</ele>
   <time>2014-03-29T11:22:22Z</time>
  </trkpt>
  <trkpt lat="35.282303" lon="-6.062582">
   <ele>194.00</ele>
   <time>2014-03-29T11:22:23Z</time>
  </trkpt>
  <trkpt lat="35.281658" lon="-6.063300">
   <ele>194.00</ele>
   <time>2014-03-29T11:22:26Z</time>
  </trkpt>
  <trkpt lat="35.279494" lon="-6.065602">
   <ele>194.00</ele>
   <time>2014-03-29T11:22:36Z</time>
  </trkpt>
  <trkpt lat="35.279041" lon="-6.066014">
   <ele>193.00</ele>
   <time>2014-03-29T11:22:38Z</time>
  </trkpt>
  <trkpt lat="35.278569" lon="-6.066391">
   <ele>192.00</ele>
   <time>2014-03-29T11:22:40Z</time>
  </trkpt>
  <trkpt lat="35.278079" lon="-6.066737">
   <ele>192.00</ele>
   <time>2014-03-29T11:22:42Z</time>
  </trkpt>
  <trkpt lat="35.277574" lon="-6.067051">
   <ele>192.00</ele>
   <time>2014-03-29T11:22:44Z</time>
  </trkpt>
  <trkpt lat="35.277057" lon="-6.067329">
   <ele>192.00</ele>
   <time>2014-03-29T11:22:46Z</time>
  </trkpt>
  <trkpt lat="35.276528" lon="-6.067568">
   <ele>191.00</ele>
   <time>2014-03-29T11:22:48Z</time>
  </trkpt>
  <trkpt lat="35.275989" lon="-6.067769">
   <ele>190.00</ele>
   <time>2014-03-29T11:22:50Z</time>
  </trkpt>
  <trkpt lat="35.275439" lon="-6.067931">
   <ele>189.00</ele>
   <time>2014-03-29T11:22:52Z</time>
  </trkpt>
  <trkpt lat="35.274881" lon="-6.068060">
   <ele>189.00</ele>
   <time>2014-03-29T11:22:54Z</time>
  </trkpt>
  <trkpt lat="35.274316" lon="-6.068151">
   <ele>189.00</ele>
   <time>2014-03-29T11:22:56Z</time>
  </trkpt>
  <trkpt lat="35.273462" lon="-6.068228">
   <ele>189.00</ele>
   <time>2014-03-29T11:22:59Z</time>
  </trkpt>
  <trkpt lat="35.271177" lon="-6.068392">
   <ele>190.00</ele>
   <time>2014-03-29T11:23:07Z</time>
  </trkpt>
  <trkpt lat="35.270328" lon="-6.068519">
   <ele>190.00</ele>
   <time>2014-03-29T11:23:10Z</time>
  </trkpt>
  <trkpt lat="35.269768" lon="-6.068633">
   <ele>190.00</ele>
   <time>2014-03-29T11:23:12Z</time>
  </trkpt>
  <trkpt lat="35.268936" lon="-6.068844">
   <ele>189.00</ele>
   <time>2014-03-29T11:23:15Z</time>
  </trkpt>
  <trkpt lat="35.268388" lon="-6.069012">
   <ele>188.00</ele>
   <time>2014-03-29T11:23:17Z</time>
  </trkpt>
  <trkpt lat="35.267581" lon="-6.069301">
   <ele>187.00</ele>
   <time>2014-03-29T11:23:20Z</time>
  </trkpt>
  <trkpt lat="35.267050" lon="-6.069519">
   <ele>186.00</ele>
   <time>2014-03-29T11:23:22Z</time>
  </trkpt>
  <trkpt lat="35.266263" lon="-6.069890">
   <ele>186.00</ele>
   <time>2014-03-29T11:23:25Z</time>
  </trkpt>
  <trkpt lat="35.265487" lon="-6.070300">
   <ele>185.00</ele>
   <time>2014-03-29T11:23:28Z</time>
  </trkpt>
  <trkpt lat="35.261895" lon="-6.072289">
   <ele>181.00</ele>
   <time>2014-03-29T11:23:42Z</time>
  </trkpt>
  <trkpt lat="35.261358" lon="-6.072522">
   <ele>181.00</ele>
   <time>2014-03-29T11:23:44Z</time>
  </trkpt>
  <trkpt lat="35.260811" lon="-6.072724">
   <ele>180.00</ele>
   <time>2014-03-29T11:23:46Z</time>
  </trkpt>
  <trkpt lat="35.259707" lon="-6.073069">
   <ele>179.00</ele>
   <time>2014-03-29T11:23:50Z</time>
  </trkpt>
  <trkpt lat="35.258874" lon="-6.073279">
   <ele>179.00</ele>
   <time>2014-03-29T11:23:53Z</time>
  </trkpt>
  <trkpt lat="35.258036" lon="-6.073448">
   <ele>178.00</ele>
   <time>2014-03-29T11:23:56Z</time>
  </trkpt>
  <trkpt lat="35.257473" lon="-6.073531">
   <ele>178.00</ele>
   <time>2014-03-29T11:23:58Z</time>
  </trkpt>
  <trkpt lat="35.256907" lon="-6.073584">
   <ele>178.00</ele>
   <time>2014-03-29T11:24:00Z</time>
  </trkpt>
  <trkpt lat="35.256337" lon="-6.073608">
   <ele>178.00</ele>
   <time>2014-03-29T11:24:02Z</time>
  </trkpt>
  <trkpt lat="35.255766" lon="-6.073596">
   <ele>178.00</ele>
   <time>2014-03-29T11:24:04Z</time>
  </trkpt>
  <trkpt lat="35.254911" lon="-6.073535">
   <ele>177.00</ele>
   <time>2014-03-29T11:24:07Z</time>
  </trkpt>
  <trkpt lat="35.254062" lon="-6.073432">
   <ele>178.00</ele>
   <time>2014-03-29T11:24:10Z</time>
  </trkpt>
  <trkpt lat="35.253219" lon="-6.073289">
   <ele>177.00</ele>
   <time>2014-03-29T11:24:13Z</time>
  </trkpt>
  <trkpt lat="35.252383" lon="-6.073101">
   <ele>177.00</ele>
   <time>2014-03-29T11:24:16Z</time>
  </trkpt>
  <trkpt lat="35.251832" lon="-6.072942">
   <ele>177.00</ele>
   <time>2014-03-29T11:24:18Z</time>
  </trkpt>
  <trkpt lat="35.247751" lon="-6.071536">
   <ele>169.00</ele>
   <time>2014-03-29T11:24:33Z</time>
  </trkpt>
  <trkpt lat="35.245807" lon="-6.070910">
   <ele>165.00</ele>
   <time>2014-03-29T11:24:40Z</time>
  </trkpt>
  <trkpt lat="35.245238" lon="-6.070774">
   <ele>164.00</ele>
   <time>2014-03-29T11:24:42Z</time>
  </trkpt>
  <trkpt lat="35.244372" lon="-6.070616">
   <ele>162.00</ele>
   <time>2014-03-29T11:24:45Z</time>
  </trkpt>
  <trkpt lat="35.243500" lon="-6.070517">
   <ele>161.00</ele>
   <time>2014-03-29T11:24:48Z</time>
  </trkpt>
  <trkpt lat="35.242924" lon="-6.070492">
   <ele>159.00</ele>
   <time>2014-03-29T11:24:50Z</time>
  </trkpt>
  <trkpt lat="35.239792" lon="-6.070448">
   <ele>149.00</ele>
   <time>2014-03-29T11:25:01Z</time>
  </trkpt>
  <trkpt lat="35.238925" lon="-6.070359">
   <ele>146.00</ele>
   <time>2014-03-29T11:25:04Z</time>
  </trkpt>
  <trkpt lat="35.238347" lon="-6.070264">
   <ele>145.00</ele>
   <time>2014-03-29T11:25:06Z</time>
  </trkpt>
  <trkpt lat="35.237773" lon="-6.070140">
   <ele>144.00</ele>
   <time>2014-03-29T11:25:08Z</time>
  </trkpt>
  <trkpt lat="35.237204" lon="-6.069984">
   <ele>143.00</ele>
   <time>2014-03-29T11:25:10Z</time>
  </trkpt>
  <trkpt lat="35.236646" lon="-6.069796">
   <ele>141.00</ele>
   <time>2014-03-29T11:25:12Z</time>
  </trkpt>
  <trkpt lat="35.236098" lon="-6.069577">
   <ele>139.00</ele>
   <time>2014-03-29T11:25:14Z</time>
  </trkpt>
  <trkpt lat="35.235559" lon="-6.069329">
   <ele>137.00</ele>
   <time>2014-03-29T11:25:16Z</time>
  </trkpt>
  <trkpt lat="35.235028" lon="-6.069058">
   <ele>136.00</ele>
   <time>2014-03-29T11:25:18Z</time>
  </trkpt>
  <trkpt lat="35.234508" lon="-6.068760">
   <ele>134.00</ele>
   <time>2014-03-29T11:25:20Z</time>
  </trkpt>
  <trkpt lat="35.234000" lon="-6.068435">
   <ele>132.00</ele>
   <time>2014-03-29T11:25:22Z</time>
  </trkpt>
  <trkpt lat="35.233505" lon="-6.068086">
   <ele>131.00</ele>
   <time>2014-03-29T11:25:24Z</time>
  </trkpt>
  <trkpt lat="35.233022" lon="-6.067714">
   <ele>129.00</ele>
   <time>2014-03-29T11:25:26Z</time>
  </trkpt>
  <trkpt lat="35.231837" lon="-6.066724">
   <ele>126.00</ele>
   <time>2014-03-29T11:25:31Z</time>
  </trkpt>
  <trkpt lat="35.230878" lon="-6.065931">
   <ele>123.00</ele>
   <time>2014-03-29T11:25:35Z</time>
  </trkpt>
  <trkpt lat="35.230131" lon="-6.065371">
   <ele>122.00</ele>
   <time>2014-03-29T11:25:38Z</time>
  </trkpt>
  <trkpt lat="35.229617" lon="-6.065027">
   <ele>121.00</ele>
   <time>2014-03-29T11:25:40Z</time>
  </trkpt>
  <trkpt lat="35.228830" lon="-6.064554">
   <ele>119.00</ele>
   <time>2014-03-29T11:25:43Z</time>
  </trkpt>
  <trkpt lat="35.228035" lon="-6.064131">
   <ele>117.00</ele>
   <time>2014-03-29T11:25:46Z</time>
  </trkpt>
  <trkpt lat="35.227240" lon="-6.063759">
   <ele>116.00</ele>
   <time>2014-03-29T11:25:49Z</time>
  </trkpt>
  <trkpt lat="35.226436" lon="-6.063430">
   <ele>114.00</ele>
   <time>2014-03-29T11:25:52Z</time>
  </trkpt>
  <trkpt lat="35.222118" lon="-6.061805">
   <ele>110.00</ele>
   <time>2014-03-29T11:26:08Z</time>
  </trkpt>
  <trkpt lat="35.221042" lon="-6.061427">
   <ele>109.00</ele>
   <time>2014-03-29T11:26:12Z</time>
  </trkpt>
  <trkpt lat="35.220496" lon="-6.061275">
   <ele>108.00</ele>
   <time>2014-03-29T11:26:14Z</time>
  </trkpt>
  <trkpt lat="35.219944" lon="-6.061166">
   <ele>108.00</ele>
   <time>2014-03-29T11:26:16Z</time>
  </trkpt>
  <trkpt lat="35.219109" lon="-6.061059">
   <ele>108.00</ele>
   <time>2014-03-29T11:26:19Z</time>
  </trkpt>
  <trkpt lat="35.218557" lon="-6.061026">
   <ele>107.00</ele>
   <time>2014-03-29T11:26:21Z</time>
  </trkpt>
  <trkpt lat="35.218008" lon="-6.061026">
   <ele>107.00</ele>
   <time>2014-03-29T11:26:23Z</time>
  </trkpt>
  <trkpt lat="35.217462" lon="-6.061055">
   <ele>107.00</ele>
   <time>2014-03-29T11:26:25Z</time>
  </trkpt>
  <trkpt lat="35.216923" lon="-6.061115">
   <ele>106.00</ele>
   <time>2014-03-29T11:26:27Z</time>
  </trkpt>
  <trkpt lat="35.216389" lon="-6.061204">
   <ele>106.00</ele>
   <time>2014-03-29T11:26:29Z</time>
  </trkpt>
  <trkpt lat="35.215862" lon="-6.061324">
   <ele>105.00</ele>
   <time>2014-03-29T11:26:31Z</time>
  </trkpt>
  <trkpt lat="35.215340" lon="-6.061469">
   <ele>104.00</ele>
   <time>2014-03-29T11:26:33Z</time>
  </trkpt>
  <trkpt lat="35.214822" lon="-6.061643">
   <ele>103.00</ele>
   <time>2014-03-29T11:26:35Z</time>
  </trkpt>
  <trkpt lat="35.214311" lon="-6.061845">
   <ele>102.00</ele>
   <time>2014-03-29T11:26:37Z</time>
  </trkpt>
  <trkpt lat="35.213810" lon="-6.062075">
   <ele>101.00</ele>
   <time>2014-03-29T11:26:39Z</time>
  </trkpt>
  <trkpt lat="35.213320" lon="-6.062338">
   <ele>100.00</ele>
   <time>2014-03-29T11:26:41Z</time>
  </trkpt>
  <trkpt lat="35.212606" lon="-6.062774">
   <ele>98.00</ele>
   <time>2014-03-29T11:26:44Z</time>
  </trkpt>
  <trkpt lat="35.212143" lon="-6.063089">
   <ele>96.00</ele>
   <time>2014-03-29T11:26:46Z</time>
  </trkpt>
  <trkpt lat="35.211696" lon="-6.063433">
   <ele>95.00</ele>
   <time>2014-03-29T11:26:48Z</time>
  </trkpt>
  <trkpt lat="35.211263" lon="-6.063810">
   <ele>93.00</ele>
   <time>2014-03-29T11:26:50Z</time>
  </trkpt>
  <trkpt lat="35.210841" lon="-6.064212">
   <ele>92.00</ele>
   <time>2014-03-29T11:26:52Z</time>
  </trkpt>
  <trkpt lat="35.210434" lon="-6.064629">
   <ele>91.00</ele>
   <time>2014-03-29T11:26:54Z</time>
  </trkpt>
  <trkpt lat="35.209851" lon="-6.065284">
   <ele>89.00</ele>
   <time>2014-03-29T11:26:57Z</time>
  </trkpt>
  <trkpt lat="35.208715" lon="-6.066548">
   <ele>85.00</ele>
   <time>2014-03-29T11:27:03Z</time>
  </trkpt>
  <trkpt lat="35.208314" lon="-6.066943">
   <ele>83.00</ele>
   <time>2014-03-29T11:27:05Z</time>
  </trkpt>
  <trkpt lat="35.207894" lon="-6.067321">
   <ele>81.00</ele>
   <time>2014-03-29T11:27:07Z</time>
  </trkpt>
  <trkpt lat="35.207456" lon="-6.067676">
   <ele>80.00</ele>
   <time>2014-03-29T11:27:09Z</time>
  </trkpt>
  <trkpt lat="35.207000" lon="-6.068006">
   <ele>78.00</ele>
   <time>2014-03-29T11:27:11Z</time>
  </trkpt>
  <trkpt lat="35.206530" lon="-6.068316">
   <ele>76.00</ele>
   <time>2014-03-29T11:27:13Z</time>
  </trkpt>
  <trkpt lat="35.206049" lon="-6.068600">
   <ele>74.00</ele>
   <time>2014-03-29T11:27:15Z</time>
  </trkpt>
  <trkpt lat="35.205560" lon="-6.068855">
   <ele>72.00</ele>
   <time>2014-03-29T11:27:17Z</time>
  </trkpt>
  <trkpt lat="35.205060" lon="-6.069079">
   <ele>70.00</ele>
   <time>2014-03-29T11:27:19Z</time>
  </trkpt>
  <trkpt lat="35.204552" lon="-6.069281">
   <ele>67.00</ele>
   <time>2014-03-29T11:27:21Z</time>
  </trkpt>
  <trkpt lat="35.204036" lon="-6.069451">
   <ele>65.00</ele>
   <time>2014-03-29T11:27:23Z</time>
  </trkpt>
  <trkpt lat="35.203250" lon="-6.069660">
   <ele>61.00</ele>
   <time>2014-03-29T11:27:26Z</time>
  </trkpt>
  <trkpt lat="35.200865" lon="-6.070208">
   <ele>47.00</ele>
   <time>2014-03-29T11:27:35Z</time>
  </trkpt>
  <trkpt lat="35.200350" lon="-6.070390">
   <ele>43.00</ele>
   <time>2014-03-29T11:27:37Z</time>
  </trkpt>
  <trkpt lat="35.199842" lon="-6.070606">
   <ele>40.00</ele>
   <time>2014-03-29T11:27:39Z</time>
  </trkpt>
  <trkpt lat="35.199345" lon="-6.070855">
   <ele>36.00</ele>
   <time>2014-03-29T11:27:41Z</time>
  </trkpt>
  <trkpt lat="35.198853" lon="-6.071133">
   <ele>33.00</ele>
   <time>2014-03-29T11:27:43Z</time>
  </trkpt>
  <trkpt lat="35.198375" lon="-6.071445">
   <ele>30.00</ele>
   <time>2014-03-29T11:27:45Z</time>
  </trkpt>
  <trkpt lat="35.197912" lon="-6.071788">
   <ele>27.00</ele>
   <time>2014-03-29T11:27:47Z</time>
  </trkpt>
  <trkpt lat="35.197465" lon="-6.072155">
   <ele>24.00</ele>
   <time>2014-03-29T11:27:49Z</time>
  </trkpt>
  <trkpt lat="35.197035" lon="-6.072547">
   <ele>22.00</ele>
   <time>2014-03-29T11:27:51Z</time>
  </trkpt>
  <trkpt lat="35.196422" lon="-6.073171">
   <ele>19.00</ele>
   <time>2014-03-29T11:27:54Z</time>
  </trkpt>
  <trkpt lat="35.196029" lon="-6.073612">
   <ele>17.00</ele>
   <time>2014-03-29T11:27:56Z</time>
  </trkpt>
  <trkpt lat="35.195839" lon="-6.073845">
   <ele>16.00</ele>
   <time>2014-03-29T11:27:57Z</time>
  </trkpt>
  <trkpt lat="35.195473" lon="-6.074334">
   <ele>14.00</ele>
   <time>2014-03-29T11:27:59Z</time>
  </trkpt>
  <trkpt lat="35.195127" lon="-6.074849">
   <ele>12.00</ele>
   <time>2014-03-29T11:28:01Z</time>
  </trkpt>
  <trkpt lat="35.192644" lon="-6.078791">
   <ele>10.00</ele>
   <time>2014-03-29T11:28:16Z</time>
  </trkpt>
  <trkpt lat="35.190105" lon="-6.082725">
   <ele>8.00</ele>
   <time>2014-03-29T11:28:31Z</time>
  </trkpt>
  <trkpt lat="35.187371" lon="-6.086950">
   <ele>4.00</ele>
   <time>2014-03-29T11:28:47Z</time>
  </trkpt>
  <trkpt lat="35.184768" lon="-6.090967">
   <ele>4.00</ele>
   <time>2014-03-29T11:29:02Z</time>
  </trkpt>
  <trkpt lat="35.182178" lon="-6.094964">
   <ele>7.00</ele>
   <time>2014-03-29T11:29:17Z</time>
  </trkpt>
  <trkpt lat="35.180497" lon="-6.097629">
   <ele>7.00</ele>
   <time>2014-03-29T11:29:27Z</time>
  </trkpt>
  <trkpt lat="35.180037" lon="-6.098474">
   <ele>7.00</ele>
   <time>2014-03-29T11:29:30Z</time>
  </trkpt>
  <trkpt lat="35.179748" lon="-6.099055">
   <ele>7.00</ele>
   <time>2014-03-29T11:29:32Z</time>
  </trkpt>
  <trkpt lat="35.179208" lon="-6.100250">
   <ele>7.00</ele>
   <time>2014-03-29T11:29:36Z</time>
  </trkpt>
  <trkpt lat="35.178964" lon="-6.100860">
   <ele>7.00</ele>
   <time>2014-03-29T11:29:38Z</time>
  </trkpt>
  <trkpt lat="35.178630" lon="-6.101791">
   <ele>7.00</ele>
   <time>2014-03-29T11:29:41Z</time>
  </trkpt>
  <trkpt lat="35.178332" lon="-6.102736">
   <ele>7.00</ele>
   <time>2014-03-29T11:29:44Z</time>
  </trkpt>
  <trkpt lat="35.177976" lon="-6.104015">
   <ele>7.00</ele>
   <time>2014-03-29T11:29:48Z</time>
  </trkpt>
  <trkpt lat="35.177744" lon="-6.104999">
   <ele>6.00</ele>
   <time>2014-03-29T11:29:51Z</time>
  </trkpt>
  <trkpt lat="35.177548" lon="-6.105995">
   <ele>5.00</ele>
   <time>2014-03-29T11:29:54Z</time>
  </trkpt>
  <trkpt lat="35.176806" lon="-6.109948">
   <ele>5.00</ele>
   <time>2014-03-29T11:30:06Z</time>
  </trkpt>
  <trkpt lat="35.176573" lon="-6.110919">
   <ele>6.00</ele>
   <time>2014-03-29T11:30:09Z</time>
  </trkpt>
  <trkpt lat="35.176396" lon="-6.111557">
   <ele>7.00</ele>
   <time>2014-03-29T11:30:11Z</time>
  </trkpt>
  <trkpt lat="35.176103" lon="-6.112496">
   <ele>9.00</ele>
   <time>2014-03-29T11:30:14Z</time>
  </trkpt>
  <trkpt lat="35.175781" lon="-6.113414">
   <ele>11.00</ele>
   <time>2014-03-29T11:30:17Z</time>
  </trkpt>
  <trkpt lat="35.175308" lon="-6.114606">
   <ele>15.00</ele>
   <time>2014-03-29T11:30:21Z</time>
  </trkpt>
  <trkpt lat="35.174916" lon="-6.115469">
   <ele>18.00</ele>
   <time>2014-03-29T11:30:24Z</time>
  </trkpt>
  <trkpt lat="35.174498" lon="-6.116307">
   <ele>22.00</ele>
   <time>2014-03-29T11:30:27Z</time>
  </trkpt>
  <trkpt lat="35.174199" lon="-6.116849">
   <ele>24.00</ele>
   <time>2014-03-29T11:30:29Z</time>
  </trkpt>
  <trkpt lat="35.173714" lon="-6.117639">
   <ele>28.00</ele>
   <time>2014-03-29T11:30:32Z</time>
  </trkpt>
  <trkpt lat="35.173199" lon="-6.118400">
   <ele>31.00</ele>
   <time>2014-03-29T11:30:35Z</time>
  </trkpt>
  <trkpt lat="35.172665" lon="-6.119127">
   <ele>34.00</ele>
   <time>2014-03-29T11:30:38Z</time>
  </trkpt>
  <trkpt lat="35.172120" lon="-6.119812">
   <ele>37.00</ele>
   <time>2014-03-29T11:30:41Z</time>
  </trkpt>
  <trkpt lat="35.171563" lon="-6.120452">
   <ele>40.00</ele>
   <time>2014-03-29T11:30:44Z</time>
  </trkpt>
  <trkpt lat="35.170985" lon="-6.121071">
   <ele>42.00</ele>
   <time>2014-03-29T11:30:47Z</time>
  </trkpt>
  <trkpt lat="35.170372" lon="-6.121661">
   <ele>45.00</ele>
   <time>2014-03-29T11:30:50Z</time>
  </trkpt>
  <trkpt lat="35.169740" lon="-6.122215">
   <ele>47.00</ele>
   <time>2014-03-29T11:30:53Z</time>
  </trkpt>
  <trkpt lat="35.168878" lon="-6.122901">
   <ele>50.00</ele>
   <time>2014-03-29T11:30:57Z</time>
  </trkpt>
  <trkpt lat="35.168220" lon="-6.123372">
   <ele>53.00</ele>
   <time>2014-03-29T11:31:00Z</time>
  </trkpt>
  <trkpt lat="35.167771" lon="-6.123667">
   <ele>54.00</ele>
   <time>2014-03-29T11:31:02Z</time>
  </trkpt>
  <trkpt lat="35.166847" lon="-6.124213">
   <ele>57.00</ele>
   <time>2014-03-29T11:31:06Z</time>
  </trkpt>
  <trkpt lat="35.162959" lon="-6.126318">
   <ele>58.00</ele>
   <time>2014-03-29T11:31:22Z</time>
  </trkpt>
  <trkpt lat="35.159232" lon="-6.128360">
   <ele>49.00</ele>
   <time>2014-03-29T11:31:37Z</time>
  </trkpt>
  <trkpt lat="35.157247" lon="-6.129496">
   <ele>43.00</ele>
   <time>2014-03-29T11:31:45Z</time>
  </trkpt>
  <trkpt lat="35.156521" lon="-6.129970">
   <ele>40.00</ele>
   <time>2014-03-29T11:31:48Z</time>
  </trkpt>
  <trkpt lat="35.156050" lon="-6.130318">
   <ele>39.00</ele>
   <time>2014-03-29T11:31:50Z</time>
  </trkpt>
  <trkpt lat="35.155129" lon="-6.131056">
   <ele>35.00</ele>
   <time>2014-03-29T11:31:54Z</time>
  </trkpt>
  <trkpt lat="35.154681" lon="-6.131450">
   <ele>34.00</ele>
   <time>2014-03-29T11:31:56Z</time>
  </trkpt>
  <trkpt lat="35.154029" lon="-6.132076">
   <ele>31.00</ele>
   <time>2014-03-29T11:31:59Z</time>
  </trkpt>
  <trkpt lat="35.153406" lon="-6.132742">
   <ele>29.00</ele>
   <time>2014-03-29T11:32:02Z</time>
  </trkpt>
  <trkpt lat="35.152808" lon="-6.133442">
   <ele>27.00</ele>
   <time>2014-03-29T11:32:05Z</time>
  </trkpt>
  <trkpt lat="35.151860" lon="-6.134657">
   <ele>24.00</ele>
   <time>2014-03-29T11:32:10Z</time>
  </trkpt>
  <trkpt lat="35.149122" lon="-6.138278">
   <ele>25.00</ele>
   <time>2014-03-29T11:32:25Z</time>
  </trkpt>
  <trkpt lat="35.146899" lon="-6.141061">
   <ele>26.00</ele>
   <time>2014-03-29T11:32:37Z</time>
  </trkpt>
  <trkpt lat="35.146135" lon="-6.141958">
   <ele>26.00</ele>
   <time>2014-03-29T11:32:41Z</time>
  </trkpt>
  <trkpt lat="35.145737" lon="-6.142380">
   <ele>26.00</ele>
   <time>2014-03-29T11:32:43Z</time>
  </trkpt>
  <trkpt lat="35.145116" lon="-6.142979">
   <ele>26.00</ele>
   <time>2014-03-29T11:32:46Z</time>
  </trkpt>
  <trkpt lat="35.144471" lon="-6.143539">
   <ele>25.00</ele>
   <time>2014-03-29T11:32:49Z</time>
  </trkpt>
  <trkpt lat="35.143804" lon="-6.144069">
   <ele>25.00</ele>
   <time>2014-03-29T11:32:52Z</time>
  </trkpt>
  <trkpt lat="35.143108" lon="-6.144563">
   <ele>25.00</ele>
   <time>2014-03-29T11:32:55Z</time>
  </trkpt>
  <trkpt lat="35.142633" lon="-6.144873">
   <ele>25.00</ele>
   <time>2014-03-29T11:32:57Z</time>
  </trkpt>
  <trkpt lat="35.141911" lon="-6.145304">
   <ele>24.00</ele>
   <time>2014-03-29T11:33:00Z</time>
  </trkpt>
  <trkpt lat="35.141422" lon="-6.145559">
   <ele>24.00</ele>
   <time>2014-03-29T11:33:02Z</time>
  </trkpt>
  <trkpt lat="35.140443" lon="-6.146020">
   <ele>24.00</ele>
   <time>2014-03-29T11:33:06Z</time>
  </trkpt>
  <trkpt lat="35.139945" lon="-6.146231">
   <ele>24.00</ele>
   <time>2014-03-29T11:33:08Z</time>
  </trkpt>
  <trkpt lat="35.139185" lon="-6.146512">
   <ele>24.00</ele>
   <time>2014-03-29T11:33:11Z</time>
  </trkpt>
  <trkpt lat="35.138674" lon="-6.146672">
   <ele>24.00</ele>
   <time>2014-03-29T11:33:13Z</time>
  </trkpt>
  <trkpt lat="35.137649" lon="-6.146938">
   <ele>25.00</ele>
   <time>2014-03-29T11:33:17Z</time>
  </trkpt>
  <trkpt lat="35.136878" lon="-6.147096">
   <ele>26.00</ele>
   <time>2014-03-29T11:33:20Z</time>
  </trkpt>
  <trkpt lat="35.136102" lon="-6.147209">
   <ele>26.00</ele>
   <time>2014-03-29T11:33:23Z</time>
  </trkpt>
  <trkpt lat="35.135316" lon="-6.147279">
   <ele>27.00</ele>
   <time>2014-03-29T11:33:26Z</time>
  </trkpt>
  <trkpt lat="35.134524" lon="-6.147311">
   <ele>27.00</ele>
   <time>2014-03-29T11:33:29Z</time>
  </trkpt>
  <trkpt lat="35.133729" lon="-6.147300">
   <ele>27.00</ele>
   <time>2014-03-29T11:33:32Z</time>
  </trkpt>
  <trkpt lat="35.133201" lon="-6.147267">
   <ele>27.00</ele>
   <time>2014-03-29T11:33:34Z</time>
  </trkpt>
  <trkpt lat="35.132414" lon="-6.147179">
   <ele>27.00</ele>
   <time>2014-03-29T11:33:37Z</time>
  </trkpt>
  <trkpt lat="35.131637" lon="-6.147063">
   <ele>27.00</ele>
   <time>2014-03-29T11:33:40Z</time>
  </trkpt>
  <trkpt lat="35.131119" lon="-6.146954">
   <ele>27.00</ele>
   <time>2014-03-29T11:33:42Z</time>
  </trkpt>
  <trkpt lat="35.130082" lon="-6.146683">
   <ele>27.00</ele>
   <time>2014-03-29T11:33:46Z</time>
  </trkpt>
  <trkpt lat="35.129311" lon="-6.146436">
   <ele>27.00</ele>
   <time>2014-03-29T11:33:49Z</time>
  </trkpt>
  <trkpt lat="35.125209" lon="-6.144956">
   <ele>28.00</ele>
   <time>2014-03-29T11:34:05Z</time>
  </trkpt>
  <trkpt lat="35.122891" lon="-6.144144">
   <ele>28.00</ele>
   <time>2014-03-29T11:34:14Z</time>
  </trkpt>
  <trkpt lat="35.119696" lon="-6.143103">
   <ele>30.00</ele>
   <time>2014-03-29T11:34:26Z</time>
  </trkpt>
  <trkpt lat="35.118612" lon="-6.142838">
   <ele>31.00</ele>
   <time>2014-03-29T11:34:30Z</time>
  </trkpt>
  <trkpt lat="35.117529" lon="-6.142622">
   <ele>32.00</ele>
   <time>2014-03-29T11:34:34Z</time>
  </trkpt>
  <trkpt lat="35.115873" lon="-6.142378">
   <ele>34.00</ele>
   <time>2014-03-29T11:34:40Z</time>
  </trkpt>
  <trkpt lat="35.115029" lon="-6.142315">
   <ele>34.00</ele>
   <time>2014-03-29T11:34:43Z</time>
  </trkpt>
  <trkpt lat="35.114180" lon="-6.142285">
   <ele>35.00</ele>
   <time>2014-03-29T11:34:46Z</time>
  </trkpt>
  <trkpt lat="35.113046" lon="-6.142304">
   <ele>35.00</ele>
   <time>2014-03-29T11:34:50Z</time>
  </trkpt>
  <trkpt lat="35.112199" lon="-6.142359">
   <ele>36.00</ele>
   <time>2014-03-29T11:34:53Z</time>
  </trkpt>
  <trkpt lat="35.111358" lon="-6.142452">
   <ele>36.00</ele>
   <time>2014-03-29T11:34:56Z</time>
  </trkpt>
  <trkpt lat="35.109704" lon="-6.142719">
   <ele>37.00</ele>
   <time>2014-03-29T11:35:02Z</time>
  </trkpt>
  <trkpt lat="35.107803" lon="-6.143146">
   <ele>38.00</ele>
   <time>2014-03-29T11:35:09Z</time>
  </trkpt>
  <trkpt lat="35.103770" lon="-6.144091">
   <ele>40.00</ele>
   <time>2014-03-29T11:35:24Z</time>
  </trkpt>
  <trkpt lat="35.100244" lon="-6.144922">
   <ele>42.00</ele>
   <time>2014-03-29T11:35:37Z</time>
  </trkpt>
  <trkpt lat="35.099709" lon="-6.145092">
   <ele>43.00</ele>
   <time>2014-03-29T11:35:39Z</time>
  </trkpt>
  <trkpt lat="35.097880" lon="-6.145787">
   <ele>45.00</ele>
   <time>2014-03-29T11:35:46Z</time>
  </trkpt>
  <trkpt lat="35.096849" lon="-6.146228">
   <ele>47.00</ele>
   <time>2014-03-29T11:35:50Z</time>
  </trkpt>
  <trkpt lat="35.095823" lon="-6.146717">
   <ele>48.00</ele>
   <time>2014-03-29T11:35:54Z</time>
  </trkpt>
  <trkpt lat="35.094554" lon="-6.147388">
   <ele>49.00</ele>
   <time>2014-03-29T11:35:59Z</time>
  </trkpt>
  <trkpt lat="35.093561" lon="-6.147971">
   <ele>49.00</ele>
   <time>2014-03-29T11:36:03Z</time>
  </trkpt>
  <trkpt lat="35.089727" lon="-6.150395">
   <ele>49.00</ele>
   <time>2014-03-29T11:36:19Z</time>
  </trkpt>
  <trkpt lat="35.086183" lon="-6.152627">
   <ele>50.00</ele>
   <time>2014-03-29T11:36:34Z</time>
  </trkpt>
  <trkpt lat="35.082589" lon="-6.154898">
   <ele>52.00</ele>
   <time>2014-03-29T11:36:49Z</time>
  </trkpt>
  <trkpt lat="35.078816" lon="-6.157266">
   <ele>57.00</ele>
   <time>2014-03-29T11:37:05Z</time>
  </trkpt>
  <trkpt lat="35.077614" lon="-6.158017">
   <ele>58.00</ele>
   <time>2014-03-29T11:37:10Z</time>
  </trkpt>
  <trkpt lat="35.076917" lon="-6.158523">
   <ele>59.00</ele>
   <time>2014-03-29T11:37:13Z</time>
  </trkpt>
  <trkpt lat="35.073322" lon="-6.161344">
   <ele>62.00</ele>
   <time>2014-03-29T11:37:29Z</time>
  </trkpt>
  <trkpt lat="35.069972" lon="-6.163969">
   <ele>66.00</ele>
   <time>2014-03-29T11:37:44Z</time>
  </trkpt>
  <trkpt lat="35.066818" lon="-6.166401">
   <ele>66.00</ele>
   <time>2014-03-29T11:37:58Z</time>
  </trkpt>
  <trkpt lat="35.065645" lon="-6.167200">
   <ele>66.00</ele>
   <time>2014-03-29T11:38:03Z</time>
  </trkpt>
  <trkpt lat="35.064434" lon="-6.167960">
   <ele>66.00</ele>
   <time>2014-03-29T11:38:08Z</time>
  </trkpt>
  <trkpt lat="35.063199" lon="-6.168660">
   <ele>67.00</ele>
   <time>2014-03-29T11:38:13Z</time>
  </trkpt>
  <trkpt lat="35.061946" lon="-6.169302">
   <ele>68.00</ele>
   <time>2014-03-29T11:38:18Z</time>
  </trkpt>
  <trkpt lat="35.058151" lon="-6.171150">
   <ele>72.00</ele>
   <time>2014-03-29T11:38:33Z</time>
  </trkpt>
  <trkpt lat="35.057395" lon="-6.171507">
   <ele>73.00</ele>
   <time>2014-03-29T11:38:36Z</time>
  </trkpt>
  <trkpt lat="35.056622" lon="-6.171855">
   <ele>75.00</ele>
   <time>2014-03-29T11:38:39Z</time>
  </trkpt>
  <trkpt lat="35.052816" lon="-6.173767">
   <ele>78.00</ele>
   <time>2014-03-29T11:38:54Z</time>
  </trkpt>
  <trkpt lat="35.051544" lon="-6.174450">
   <ele>79.00</ele>
   <time>2014-03-29T11:38:59Z</time>
  </trkpt>
  <trkpt lat="35.050304" lon="-6.175190">
   <ele>80.00</ele>
   <time>2014-03-29T11:39:04Z</time>
  </trkpt>
  <trkpt lat="35.046433" lon="-6.177637">
   <ele>82.00</ele>
   <time>2014-03-29T11:39:20Z</time>
  </trkpt>
  <trkpt lat="35.042810" lon="-6.179914">
   <ele>84.00</ele>
   <time>2014-03-29T11:39:35Z</time>
  </trkpt>
  <trkpt lat="35.039245" lon="-6.182157">
   <ele>85.00</ele>
   <time>2014-03-29T11:39:50Z</time>
  </trkpt>
  <trkpt lat="35.038288" lon="-6.182733">
   <ele>84.00</ele>
   <time>2014-03-29T11:39:54Z</time>
  </trkpt>
  <trkpt lat="35.037314" lon="-6.183256">
   <ele>82.00</ele>
   <time>2014-03-29T11:39:58Z</time>
  </trkpt>
  <trkpt lat="35.036814" lon="-6.183496">
   <ele>81.00</ele>
   <time>2014-03-29T11:40:00Z</time>
  </trkpt>
  <trkpt lat="35.035259" lon="-6.184150">
   <ele>78.00</ele>
   <time>2014-03-29T11:40:06Z</time>
  </trkpt>
  <trkpt lat="35.034190" lon="-6.184549">
   <ele>76.00</ele>
   <time>2014-03-29T11:40:10Z</time>
  </trkpt>
  <trkpt lat="35.033374" lon="-6.184811">
   <ele>74.00</ele>
   <time>2014-03-29T11:40:13Z</time>
  </trkpt>
  <trkpt lat="35.032273" lon="-6.185111">
   <ele>72.00</ele>
   <time>2014-03-29T11:40:17Z</time>
  </trkpt>
  <trkpt lat="35.030347" lon="-6.185542">
   <ele>68.00</ele>
   <time>2014-03-29T11:40:24Z</time>
  </trkpt>
  <trkpt lat="35.026015" lon="-6.186400">
   <ele>58.00</ele>
   <time>2014-03-29T11:40:40Z</time>
  </trkpt>
  <trkpt lat="35.021990" lon="-6.187190">
   <ele>51.00</ele>
   <time>2014-03-29T11:40:55Z</time>
  </trkpt>
  <trkpt lat="35.017779" lon="-6.188022">
   <ele>52.00</ele>
   <time>2014-03-29T11:41:11Z</time>
  </trkpt>
  <trkpt lat="35.013826" lon="-6.188798">
   <ele>54.00</ele>
   <time>2014-03-29T11:41:26Z</time>
  </trkpt>
  <trkpt lat="35.012502" lon="-6.189087">
   <ele>54.00</ele>
   <time>2014-03-29T11:41:31Z</time>
  </trkpt>
  <trkpt lat="35.010917" lon="-6.189512">
   <ele>54.00</ele>
   <time>2014-03-29T11:41:37Z</time>
  </trkpt>
  <trkpt lat="35.009347" lon="-6.190011">
   <ele>55.00</ele>
   <time>2014-03-29T11:41:43Z</time>
  </trkpt>
  <trkpt lat="35.007806" lon="-6.190580">
   <ele>57.00</ele>
   <time>2014-03-29T11:41:49Z</time>
  </trkpt>
  <trkpt lat="35.006286" lon="-6.191221">
   <ele>58.00</ele>
   <time>2014-03-29T11:41:55Z</time>
  </trkpt>
  <trkpt lat="35.004769" lon="-6.191943">
   <ele>58.00</ele>
   <time>2014-03-29T11:42:01Z</time>
  </trkpt>
  <trkpt lat="35.000762" lon="-6.194035">
   <ele>52.00</ele>
   <time>2014-03-29T11:42:17Z</time>
  </trkpt>
  <trkpt lat="34.998009" lon="-6.195487">
   <ele>46.00</ele>
   <time>2014-03-29T11:42:28Z</time>
  </trkpt>
  <trkpt lat="34.996997" lon="-6.195947">
   <ele>44.00</ele>
   <time>2014-03-29T11:42:32Z</time>
  </trkpt>
  <trkpt lat="34.994694" lon="-6.196860">
   <ele>41.00</ele>
   <time>2014-03-29T11:42:41Z</time>
  </trkpt>
  <trkpt lat="34.990540" lon="-6.198430">
   <ele>38.00</ele>
   <time>2014-03-29T11:42:57Z</time>
  </trkpt>
  <trkpt lat="34.989246" lon="-6.198941">
   <ele>38.00</ele>
   <time>2014-03-29T11:43:02Z</time>
  </trkpt>
  <trkpt lat="34.988717" lon="-6.199105">
   <ele>39.00</ele>
   <time>2014-03-29T11:43:04Z</time>
  </trkpt>
  <trkpt lat="34.988180" lon="-6.199238">
   <ele>40.00</ele>
   <time>2014-03-29T11:43:06Z</time>
  </trkpt>
  <trkpt lat="34.986822" lon="-6.199500">
   <ele>42.00</ele>
   <time>2014-03-29T11:43:11Z</time>
  </trkpt>
  <trkpt lat="34.985735" lon="-6.199653">
   <ele>43.00</ele>
   <time>2014-03-29T11:43:15Z</time>
  </trkpt>
  <trkpt lat="34.985192" lon="-6.199696">
   <ele>43.00</ele>
   <time>2014-03-29T11:43:17Z</time>
  </trkpt>
  <trkpt lat="34.984378" lon="-6.199713">
   <ele>43.00</ele>
   <time>2014-03-29T11:43:20Z</time>
  </trkpt>
  <trkpt lat="34.983294" lon="-6.199675">
   <ele>43.00</ele>
   <time>2014-03-29T11:43:24Z</time>
  </trkpt>
  <trkpt lat="34.978916" lon="-6.199470">
   <ele>46.00</ele>
   <time>2014-03-29T11:43:40Z</time>
  </trkpt>
  <trkpt lat="34.976145" lon="-6.199383">
   <ele>50.00</ele>
   <time>2014-03-29T11:43:50Z</time>
  </trkpt>
  <trkpt lat="34.974780" lon="-6.199424">
   <ele>52.00</ele>
   <time>2014-03-29T11:43:55Z</time>
  </trkpt>
  <trkpt lat="34.971537" lon="-6.199720">
   <ele>56.00</ele>
   <time>2014-03-29T11:44:07Z</time>
  </trkpt>
  <trkpt lat="34.967278" lon="-6.200158">
   <ele>62.00</ele>
   <time>2014-03-29T11:44:23Z</time>
  </trkpt>
  <trkpt lat="34.963219" lon="-6.200571">
   <ele>67.00</ele>
   <time>2014-03-29T11:44:38Z</time>
  </trkpt>
  <trkpt lat="34.959146" lon="-6.200986">
   <ele>72.00</ele>
   <time>2014-03-29T11:44:53Z</time>
  </trkpt>
  <trkpt lat="34.954837" lon="-6.201425">
   <ele>77.00</ele>
   <time>2014-03-29T11:45:09Z</time>
  </trkpt>
  <trkpt lat="34.950823" lon="-6.201830">
   <ele>82.00</ele>
   <time>2014-03-29T11:45:24Z</time>
  </trkpt>
  <trkpt lat="34.946863" lon="-6.202236">
   <ele>85.00</ele>
   <time>2014-03-29T11:45:39Z</time>
  </trkpt>
  <trkpt lat="34.942582" lon="-6.202657">
   <ele>85.00</ele>
   <time>2014-03-29T11:45:55Z</time>
  </trkpt>
  <trkpt lat="34.941779" lon="-6.202703">
   <ele>86.00</ele>
   <time>2014-03-29T11:45:58Z</time>
  </trkpt>
  <trkpt lat="34.940973" lon="-6.202711">
   <ele>86.00</ele>
   <time>2014-03-29T11:46:01Z</time>
  </trkpt>
  <trkpt lat="34.939631" lon="-6.202660">
   <ele>88.00</ele>
   <time>2014-03-29T11:46:06Z</time>
  </trkpt>
  <trkpt lat="34.935581" lon="-6.202397">
   <ele>90.00</ele>
   <time>2014-03-29T11:46:21Z</time>
  </trkpt>
  <trkpt lat="34.933379" lon="-6.202282">
   <ele>89.00</ele>
   <time>2014-03-29T11:46:29Z</time>
  </trkpt>
  <trkpt lat="34.932267" lon="-6.202298">
   <ele>88.00</ele>
   <time>2014-03-29T11:46:33Z</time>
  </trkpt>
  <trkpt lat="34.931153" lon="-6.202363">
   <ele>86.00</ele>
   <time>2014-03-29T11:46:37Z</time>
  </trkpt>
  <trkpt lat="34.926712" lon="-6.202902">
   <ele>75.00</ele>
   <time>2014-03-29T11:46:53Z</time>
  </trkpt>
  <trkpt lat="34.922543" lon="-6.203411">
   <ele>65.00</ele>
   <time>2014-03-29T11:47:08Z</time>
  </trkpt>
  <trkpt lat="34.920622" lon="-6.203686">
   <ele>62.00</ele>
   <time>2014-03-29T11:47:15Z</time>
  </trkpt>
  <trkpt lat="34.918453" lon="-6.204126">
   <ele>59.00</ele>
   <time>2014-03-29T11:47:23Z</time>
  </trkpt>
  <trkpt lat="34.916292" lon="-6.204661">
   <ele>55.00</ele>
   <time>2014-03-29T11:47:31Z</time>
  </trkpt>
  <trkpt lat="34.915227" lon="-6.204990">
   <ele>53.00</ele>
   <time>2014-03-29T11:47:35Z</time>
  </trkpt>
  <trkpt lat="34.911003" lon="-6.206352">
   <ele>45.00</ele>
   <time>2014-03-29T11:47:51Z</time>
  </trkpt>
  <trkpt lat="34.907021" lon="-6.207592">
   <ele>41.00</ele>
   <time>2014-03-29T11:48:06Z</time>
  </trkpt>
  <trkpt lat="34.905169" lon="-6.208137">
   <ele>41.00</ele>
   <time>2014-03-29T11:48:13Z</time>
  </trkpt>
  <trkpt lat="34.903847" lon="-6.208448">
   <ele>42.00</ele>
   <time>2014-03-29T11:48:18Z</time>
  </trkpt>
  <trkpt lat="34.901448" lon="-6.208914">
   <ele>41.00</ele>
   <time>2014-03-29T11:48:27Z</time>
  </trkpt>
  <trkpt lat="34.899812" lon="-6.209134">
   <ele>40.00</ele>
   <time>2014-03-29T11:48:33Z</time>
  </trkpt>
  <trkpt lat="34.895437" lon="-6.209595">
   <ele>39.00</ele>
   <time>2014-03-29T11:48:49Z</time>
  </trkpt>
  <trkpt lat="34.891352" lon="-6.210021">
   <ele>37.00</ele>
   <time>2014-03-29T11:49:04Z</time>
  </trkpt>
  <trkpt lat="34.887270" lon="-6.210447">
   <ele>33.00</ele>
   <time>2014-03-29T11:49:19Z</time>
  </trkpt>
  <trkpt lat="34.885911" lon="-6.210631">
   <ele>32.00</ele>
   <time>2014-03-29T11:49:24Z</time>
  </trkpt>
  <trkpt lat="34.884823" lon="-6.210832">
   <ele>30.00</ele>
   <time>2014-03-29T11:49:28Z</time>
  </trkpt>
  <trkpt lat="34.883477" lon="-6.211141">
   <ele>29.00</ele>
   <time>2014-03-29T11:49:33Z</time>
  </trkpt>
  <trkpt lat="34.882411" lon="-6.211445">
   <ele>28.00</ele>
   <time>2014-03-29T11:49:37Z</time>
  </trkpt>
  <trkpt lat="34.881088" lon="-6.211883">
   <ele>27.00</ele>
   <time>2014-03-29T11:49:42Z</time>
  </trkpt>
  <trkpt lat="34.880042" lon="-6.212282">
   <ele>27.00</ele>
   <time>2014-03-29T11:49:46Z</time>
  </trkpt>
  <trkpt lat="34.878757" lon="-6.212846">
   <ele>27.00</ele>
   <time>2014-03-29T11:49:51Z</time>
  </trkpt>
  <trkpt lat="34.877746" lon="-6.213349">
   <ele>27.00</ele>
   <time>2014-03-29T11:49:55Z</time>
  </trkpt>
  <trkpt lat="34.873962" lon="-6.215326">
   <ele>24.00</ele>
   <time>2014-03-29T11:50:10Z</time>
  </trkpt>
  <trkpt lat="34.870139" lon="-6.217306">
   <ele>19.00</ele>
   <time>2014-03-29T11:50:25Z</time>
  </trkpt>
  <trkpt lat="34.866368" lon="-6.219222">
   <ele>14.00</ele>
   <time>2014-03-29T11:50:40Z</time>
  </trkpt>
  <trkpt lat="34.863330" lon="-6.220767">
   <ele>10.00</ele>
   <time>2014-03-29T11:50:52Z</time>
  </trkpt>
  <trkpt lat="34.861500" lon="-6.221532">
   <ele>7.00</ele>
   <time>2014-03-29T11:50:59Z</time>
  </trkpt>
  <trkpt lat="34.859659" lon="-6.222184">
   <ele>6.00</ele>
   <time>2014-03-29T11:51:06Z</time>
  </trkpt>
  <trkpt lat="34.858871" lon="-6.222430">
   <ele>6.00</ele>
   <time>2014-03-29T11:51:09Z</time>
  </trkpt>
  <trkpt lat="34.854637" lon="-6.223564">
   <ele>9.00</ele>
   <time>2014-03-29T11:51:25Z</time>
  </trkpt>
  <trkpt lat="34.850567" lon="-6.224585">
   <ele>6.00</ele>
   <time>2014-03-29T11:51:40Z</time>
  </trkpt>
  <trkpt lat="34.849467" lon="-6.224888">
   <ele>5.00</ele>
   <time>2014-03-29T11:51:44Z</time>
  </trkpt>
  <trkpt lat="34.845169" lon="-6.225982">
   <ele>8.00</ele>
   <time>2014-03-29T11:52:00Z</time>
  </trkpt>
  <trkpt lat="34.841183" lon="-6.227020">
   <ele>14.00</ele>
   <time>2014-03-29T11:52:15Z</time>
  </trkpt>
  <trkpt lat="34.840659" lon="-6.227189">
   <ele>15.00</ele>
   <time>2014-03-29T11:52:17Z</time>
  </trkpt>
  <trkpt lat="34.839880" lon="-6.227481">
   <ele>17.00</ele>
   <time>2014-03-29T11:52:20Z</time>
  </trkpt>
  <trkpt lat="34.839111" lon="-6.227814">
   <ele>18.00</ele>
   <time>2014-03-29T11:52:23Z</time>
  </trkpt>
  <trkpt lat="34.838604" lon="-6.228058">
   <ele>19.00</ele>
   <time>2014-03-29T11:52:25Z</time>
  </trkpt>
  <trkpt lat="34.837855" lon="-6.228467">
   <ele>21.00</ele>
   <time>2014-03-29T11:52:28Z</time>
  </trkpt>
  <trkpt lat="34.837121" lon="-6.228924">
   <ele>22.00</ele>
   <time>2014-03-29T11:52:31Z</time>
  </trkpt>
  <trkpt lat="34.836405" lon="-6.229420">
   <ele>24.00</ele>
   <time>2014-03-29T11:52:34Z</time>
  </trkpt>
  <trkpt lat="34.835707" lon="-6.229952">
   <ele>25.00</ele>
   <time>2014-03-29T11:52:37Z</time>
  </trkpt>
  <trkpt lat="34.835029" lon="-6.230523">
   <ele>25.00</ele>
   <time>2014-03-29T11:52:40Z</time>
  </trkpt>
  <trkpt lat="34.833049" lon="-6.232276">
   <ele>25.00</ele>
   <time>2014-03-29T11:52:49Z</time>
  </trkpt>
  <trkpt lat="34.832361" lon="-6.232791">
   <ele>25.00</ele>
   <time>2014-03-29T11:52:52Z</time>
  </trkpt>
  <trkpt lat="34.831652" lon="-6.233268">
   <ele>24.00</ele>
   <time>2014-03-29T11:52:55Z</time>
  </trkpt>
  <trkpt lat="34.830924" lon="-6.233708">
   <ele>24.00</ele>
   <time>2014-03-29T11:52:58Z</time>
  </trkpt>
  <trkpt lat="34.830179" lon="-6.234107">
   <ele>23.00</ele>
   <time>2014-03-29T11:53:01Z</time>
  </trkpt>
  <trkpt lat="34.829418" lon="-6.234465">
   <ele>21.00</ele>
   <time>2014-03-29T11:53:04Z</time>
  </trkpt>
  <trkpt lat="34.825297" lon="-6.236284">
   <ele>13.00</ele>
   <time>2014-03-29T11:53:20Z</time>
  </trkpt>
  <trkpt lat="34.824261" lon="-6.236761">
   <ele>12.00</ele>
   <time>2014-03-29T11:53:24Z</time>
  </trkpt>
  <trkpt lat="34.823238" lon="-6.237301">
   <ele>11.00</ele>
   <time>2014-03-29T11:53:28Z</time>
  </trkpt>
  <trkpt lat="34.822501" lon="-6.237747">
   <ele>10.00</ele>
   <time>2014-03-29T11:53:31Z</time>
  </trkpt>
  <trkpt lat="34.821551" lon="-6.238378">
   <ele>11.00</ele>
   <time>2014-03-29T11:53:35Z</time>
  </trkpt>
  <trkpt lat="34.818084" lon="-6.240906">
   <ele>12.00</ele>
   <time>2014-03-29T11:53:50Z</time>
  </trkpt>
  <trkpt lat="34.816488" lon="-6.242092">
   <ele>12.00</ele>
   <time>2014-03-29T11:53:57Z</time>
  </trkpt>
  <trkpt lat="34.815830" lon="-6.242648">
   <ele>13.00</ele>
   <time>2014-03-29T11:54:00Z</time>
  </trkpt>
  <trkpt lat="34.815191" lon="-6.243238">
   <ele>13.00</ele>
   <time>2014-03-29T11:54:03Z</time>
  </trkpt>
  <trkpt lat="34.814573" lon="-6.243864">
   <ele>13.00</ele>
   <time>2014-03-29T11:54:06Z</time>
  </trkpt>
  <trkpt lat="34.813974" lon="-6.244525">
   <ele>13.00</ele>
   <time>2014-03-29T11:54:09Z</time>
  </trkpt>
  <trkpt lat="34.813403" lon="-6.245227">
   <ele>14.00</ele>
   <time>2014-03-29T11:54:12Z</time>
  </trkpt>
  <trkpt lat="34.812858" lon="-6.245957">
   <ele>15.00</ele>
   <time>2014-03-29T11:54:15Z</time>
  </trkpt>
  <trkpt lat="34.812340" lon="-6.246713">
   <ele>15.00</ele>
   <time>2014-03-29T11:54:18Z</time>
  </trkpt>
  <trkpt lat="34.811851" lon="-6.247501">
   <ele>16.00</ele>
   <time>2014-03-29T11:54:21Z</time>
  </trkpt>
  <trkpt lat="34.809262" lon="-6.251821">
   <ele>22.00</ele>
   <time>2014-03-29T11:54:37Z</time>
  </trkpt>
  <trkpt lat="34.806799" lon="-6.255912">
   <ele>23.00</ele>
   <time>2014-03-29T11:54:52Z</time>
  </trkpt>
  <trkpt lat="34.804513" lon="-6.259723">
   <ele>19.00</ele>
   <time>2014-03-29T11:55:06Z</time>
  </trkpt>
  <trkpt lat="34.804214" lon="-6.260284">
   <ele>18.00</ele>
   <time>2014-03-29T11:55:08Z</time>
  </trkpt>
  <trkpt lat="34.803797" lon="-6.261145">
   <ele>17.00</ele>
   <time>2014-03-29T11:55:11Z</time>
  </trkpt>
  <trkpt lat="34.803415" lon="-6.262022">
   <ele>17.00</ele>
   <time>2014-03-29T11:55:14Z</time>
  </trkpt>
  <trkpt lat="34.803069" lon="-6.262910">
   <ele>16.00</ele>
   <time>2014-03-29T11:55:17Z</time>
  </trkpt>
  <trkpt lat="34.802761" lon="-6.263814">
   <ele>15.00</ele>
   <time>2014-03-29T11:55:20Z</time>
  </trkpt>
  <trkpt lat="34.802486" lon="-6.264731">
   <ele>15.00</ele>
   <time>2014-03-29T11:55:23Z</time>
  </trkpt>
  <trkpt lat="34.802243" lon="-6.265662">
   <ele>15.00</ele>
   <time>2014-03-29T11:55:26Z</time>
  </trkpt>
  <trkpt lat="34.802034" lon="-6.266605">
   <ele>15.00</ele>
   <time>2014-03-29T11:55:29Z</time>
  </trkpt>
  <trkpt lat="34.801057" lon="-6.271283">
   <ele>18.00</ele>
   <time>2014-03-29T11:55:44Z</time>
  </trkpt>
  <trkpt lat="34.800813" lon="-6.272195">
   <ele>18.00</ele>
   <time>2014-03-29T11:55:47Z</time>
  </trkpt>
  <trkpt lat="34.800628" lon="-6.272794">
   <ele>18.00</ele>
   <time>2014-03-29T11:55:49Z</time>
  </trkpt>
  <trkpt lat="34.800323" lon="-6.273677">
   <ele>17.00</ele>
   <time>2014-03-29T11:55:52Z</time>
  </trkpt>
  <trkpt lat="34.799987" lon="-6.274542">
   <ele>17.00</ele>
   <time>2014-03-29T11:55:55Z</time>
  </trkpt>
  <trkpt lat="34.798225" lon="-6.278824">
   <ele>15.00</ele>
   <time>2014-03-29T11:56:10Z</time>
  </trkpt>
  <trkpt lat="34.797896" lon="-6.279701">
   <ele>15.00</ele>
   <time>2014-03-29T11:56:13Z</time>
  </trkpt>
  <trkpt lat="34.797601" lon="-6.280598">
   <ele>15.00</ele>
   <time>2014-03-29T11:56:16Z</time>
  </trkpt>
  <trkpt lat="34.797342" lon="-6.281512">
   <ele>16.00</ele>
   <time>2014-03-29T11:56:19Z</time>
  </trkpt>
  <trkpt lat="34.797115" lon="-6.282436">
   <ele>16.00</ele>
   <time>2014-03-29T11:56:22Z</time>
  </trkpt>
  <trkpt lat="34.796921" lon="-6.283370">
   <ele>17.00</ele>
   <time>2014-03-29T11:56:25Z</time>
  </trkpt>
  <trkpt lat="34.796090" lon="-6.288140">
   <ele>20.00</ele>
   <time>2014-03-29T11:56:40Z</time>
  </trkpt>
  <trkpt lat="34.795231" lon="-6.292965">
   <ele>22.00</ele>
   <time>2014-03-29T11:56:55Z</time>
  </trkpt>
  <trkpt lat="34.795091" lon="-6.293600">
   <ele>22.00</ele>
   <time>2014-03-29T11:56:57Z</time>
  </trkpt>
  <trkpt lat="34.794847" lon="-6.294542">
   <ele>23.00</ele>
   <time>2014-03-29T11:57:00Z</time>
  </trkpt>
  <trkpt lat="34.794567" lon="-6.295469">
   <ele>24.00</ele>
   <time>2014-03-29T11:57:03Z</time>
  </trkpt>
  <trkpt lat="34.794257" lon="-6.296377">
   <ele>24.00</ele>
   <time>2014-03-29T11:57:06Z</time>
  </trkpt>
  <trkpt lat="34.793912" lon="-6.297267">
   <ele>24.00</ele>
   <time>2014-03-29T11:57:09Z</time>
  </trkpt>
  <trkpt lat="34.793539" lon="-6.298136">
   <ele>25.00</ele>
   <time>2014-03-29T11:57:12Z</time>
  </trkpt>
  <trkpt lat="34.793270" lon="-6.298699">
   <ele>25.00</ele>
   <time>2014-03-29T11:57:14Z</time>
  </trkpt>
  <trkpt lat="34.792838" lon="-6.299523">
   <ele>25.00</ele>
   <time>2014-03-29T11:57:17Z</time>
  </trkpt>
  <trkpt lat="34.792228" lon="-6.300591">
   <ele>25.00</ele>
   <time>2014-03-29T11:57:21Z</time>
  </trkpt>
  <trkpt lat="34.791729" lon="-6.301365">
   <ele>25.00</ele>
   <time>2014-03-29T11:57:24Z</time>
  </trkpt>
  <trkpt lat="34.791202" lon="-6.302115">
   <ele>24.00</ele>
   <time>2014-03-29T11:57:27Z</time>
  </trkpt>
  <trkpt lat="34.790643" lon="-6.302833">
   <ele>24.00</ele>
   <time>2014-03-29T11:57:30Z</time>
  </trkpt>
  <trkpt lat="34.790055" lon="-6.303526">
   <ele>23.00</ele>
   <time>2014-03-29T11:57:33Z</time>
  </trkpt>
  <trkpt lat="34.789440" lon="-6.304194">
   <ele>22.00</ele>
   <time>2014-03-29T11:57:36Z</time>
  </trkpt>
  <trkpt lat="34.787776" lon="-6.305969">
   <ele>20.00</ele>
   <time>2014-03-29T11:57:44Z</time>
  </trkpt>
  <trkpt lat="34.787189" lon="-6.306681">
   <ele>20.00</ele>
   <time>2014-03-29T11:57:47Z</time>
  </trkpt>
  <trkpt lat="34.784581" lon="-6.310089">
   <ele>21.00</ele>
   <time>2014-03-29T11:58:01Z</time>
  </trkpt>
  <trkpt lat="34.783978" lon="-6.310767">
   <ele>21.00</ele>
   <time>2014-03-29T11:58:04Z</time>
  </trkpt>
  <trkpt lat="34.783347" lon="-6.311413">
   <ele>21.00</ele>
   <time>2014-03-29T11:58:07Z</time>
  </trkpt>
  <trkpt lat="34.782908" lon="-6.311823">
   <ele>22.00</ele>
   <time>2014-03-29T11:58:09Z</time>
  </trkpt>
  <trkpt lat="34.782227" lon="-6.312410">
   <ele>22.00</ele>
   <time>2014-03-29T11:58:12Z</time>
  </trkpt>
  <trkpt lat="34.781757" lon="-6.312782">
   <ele>22.00</ele>
   <time>2014-03-29T11:58:14Z</time>
  </trkpt>
  <trkpt lat="34.781039" lon="-6.313313">
   <ele>21.00</ele>
   <time>2014-03-29T11:58:17Z</time>
  </trkpt>
  <trkpt lat="34.780298" lon="-6.313803">
   <ele>20.00</ele>
   <time>2014-03-29T11:58:20Z</time>
  </trkpt>
  <trkpt lat="34.779540" lon="-6.314251">
   <ele>19.00</ele>
   <time>2014-03-29T11:58:23Z</time>
  </trkpt>
  <trkpt lat="34.778764" lon="-6.314656">
   <ele>17.00</ele>
   <time>2014-03-29T11:58:26Z</time>
  </trkpt>
  <trkpt lat="34.776416" lon="-6.315827">
   <ele>11.00</ele>
   <time>2014-03-29T11:58:35Z</time>
  </trkpt>
  <trkpt lat="34.775658" lon="-6.316275">
   <ele>9.00</ele>
   <time>2014-03-29T11:58:38Z</time>
  </trkpt>
  <trkpt lat="34.774908" lon="-6.316759">
   <ele>7.00</ele>
   <time>2014-03-29T11:58:41Z</time>
  </trkpt>
  <trkpt lat="34.774167" lon="-6.317279">
   <ele>5.00</ele>
   <time>2014-03-29T11:58:44Z</time>
  </trkpt>
  <trkpt lat="34.773684" lon="-6.317648">
   <ele>5.00</ele>
   <time>2014-03-29T11:58:46Z</time>
  </trkpt>
  <trkpt lat="34.772745" lon="-6.318427">
   <ele>5.00</ele>
   <time>2014-03-29T11:58:50Z</time>
  </trkpt>
  <trkpt lat="34.771849" lon="-6.319243">
   <ele>7.00</ele>
   <time>2014-03-29T11:58:54Z</time>
  </trkpt>
  <trkpt lat="34.771210" lon="-6.319887">
   <ele>9.00</ele>
   <time>2014-03-29T11:58:57Z</time>
  </trkpt>
  <trkpt lat="34.770592" lon="-6.320562">
   <ele>11.00</ele>
   <time>2014-03-29T11:59:00Z</time>
  </trkpt>
  <trkpt lat="34.769996" lon="-6.321269">
   <ele>13.00</ele>
   <time>2014-03-29T11:59:03Z</time>
  </trkpt>
  <trkpt lat="34.769236" lon="-6.322236">
   <ele>16.00</ele>
   <time>2014-03-29T11:59:07Z</time>
  </trkpt>
  <trkpt lat="34.768516" lon="-6.323241">
   <ele>19.00</ele>
   <time>2014-03-29T11:59:11Z</time>
  </trkpt>
  <trkpt lat="34.767652" lon="-6.324565">
   <ele>21.00</ele>
   <time>2014-03-29T11:59:16Z</time>
  </trkpt>
  <trkpt lat="34.767321" lon="-6.325116">
   <ele>22.00</ele>
   <time>2014-03-29T11:59:18Z</time>
  </trkpt>
  <trkpt lat="34.766855" lon="-6.325968">
   <ele>22.00</ele>
   <time>2014-03-29T11:59:21Z</time>
  </trkpt>
  <trkpt lat="34.764574" lon="-6.330287">
   <ele>23.00</ele>
   <time>2014-03-29T11:59:36Z</time>
  </trkpt>
  <trkpt lat="34.762256" lon="-6.334607">
   <ele>23.00</ele>
   <time>2014-03-29T11:59:51Z</time>
  </trkpt>
  <trkpt lat="34.760853" lon="-6.337169">
   <ele>22.00</ele>
   <time>2014-03-29T12:00:00Z</time>
  </trkpt>
  <trkpt lat="34.760350" lon="-6.337991">
   <ele>22.00</ele>
   <time>2014-03-29T12:00:03Z</time>
  </trkpt>
  <trkpt lat="34.759821" lon="-6.338788">
   <ele>22.00</ele>
   <time>2014-03-29T12:00:06Z</time>
  </trkpt>
  <trkpt lat="34.759273" lon="-6.339551">
   <ele>21.00</ele>
   <time>2014-03-29T12:00:09Z</time>
  </trkpt>
  <trkpt lat="34.758703" lon="-6.340283">
   <ele>20.00</ele>
   <time>2014-03-29T12:00:12Z</time>
  </trkpt>
  <trkpt lat="34.758107" lon="-6.340991">
   <ele>20.00</ele>
   <time>2014-03-29T12:00:15Z</time>
  </trkpt>
  <trkpt lat="34.757481" lon="-6.341667">
   <ele>20.00</ele>
   <time>2014-03-29T12:00:18Z</time>
  </trkpt>
  <trkpt lat="34.756619" lon="-6.342536">
   <ele>20.00</ele>
   <time>2014-03-29T12:00:22Z</time>
  </trkpt>
  <trkpt lat="34.755728" lon="-6.343358">
   <ele>20.00</ele>
   <time>2014-03-29T12:00:26Z</time>
  </trkpt>
  <trkpt lat="34.755037" lon="-6.343937">
   <ele>21.00</ele>
   <time>2014-03-29T12:00:29Z</time>
  </trkpt>
  <trkpt lat="34.751454" lon="-6.346678">
   <ele>25.00</ele>
   <time>2014-03-29T12:00:44Z</time>
  </trkpt>
  <trkpt lat="34.747627" lon="-6.349610">
   <ele>29.00</ele>
   <time>2014-03-29T12:01:00Z</time>
  </trkpt>
  <trkpt lat="34.746688" lon="-6.350380">
   <ele>30.00</ele>
   <time>2014-03-29T12:01:04Z</time>
  </trkpt>
  <trkpt lat="34.746235" lon="-6.350792">
   <ele>31.00</ele>
   <time>2014-03-29T12:01:06Z</time>
  </trkpt>
  <trkpt lat="34.745361" lon="-6.351663">
   <ele>32.00</ele>
   <time>2014-03-29T12:01:10Z</time>
  </trkpt>
  <trkpt lat="34.742200" lon="-6.355003">
   <ele>36.00</ele>
   <time>2014-03-29T12:01:25Z</time>
  </trkpt>
  <trkpt lat="34.738848" lon="-6.358551">
   <ele>37.00</ele>
   <time>2014-03-29T12:01:41Z</time>
  </trkpt>
  <trkpt lat="34.738414" lon="-6.358971">
   <ele>37.00</ele>
   <time>2014-03-29T12:01:43Z</time>
  </trkpt>
  <trkpt lat="34.737292" lon="-6.359972">
   <ele>36.00</ele>
   <time>2014-03-29T12:01:48Z</time>
  </trkpt>
  <trkpt lat="34.736356" lon="-6.360739">
   <ele>36.00</ele>
   <time>2014-03-29T12:01:52Z</time>
  </trkpt>
  <trkpt lat="34.735136" lon="-6.361635">
   <ele>35.00</ele>
   <time>2014-03-29T12:01:57Z</time>
  </trkpt>
  <trkpt lat="34.734388" lon="-6.362133">
   <ele>35.00</ele>
   <time>2014-03-29T12:02:00Z</time>
  </trkpt>
  <trkpt lat="34.733379" lon="-6.362748">
   <ele>35.00</ele>
   <time>2014-03-29T12:02:04Z</time>
  </trkpt>
  <trkpt lat="34.729582" lon="-6.364910">
   <ele>34.00</ele>
   <time>2014-03-29T12:02:19Z</time>
  </trkpt>
  <trkpt lat="34.725783" lon="-6.367070">
   <ele>33.00</ele>
   <time>2014-03-29T12:02:34Z</time>
  </trkpt>
  <trkpt lat="34.721714" lon="-6.369370">
   <ele>32.00</ele>
   <time>2014-03-29T12:02:50Z</time>
  </trkpt>
  <trkpt lat="34.717913" lon="-6.371526">
   <ele>31.00</ele>
   <time>2014-03-29T12:03:05Z</time>
  </trkpt>
  <trkpt lat="34.716626" lon="-6.372185">
   <ele>31.00</ele>
   <time>2014-03-29T12:03:10Z</time>
  </trkpt>
  <trkpt lat="34.712522" lon="-6.374030">
   <ele>32.00</ele>
   <time>2014-03-29T12:03:26Z</time>
  </trkpt>
  <trkpt lat="34.708675" lon="-6.375732">
   <ele>32.00</ele>
   <time>2014-03-29T12:03:41Z</time>
  </trkpt>
  <trkpt lat="34.704833" lon="-6.377441">
   <ele>33.00</ele>
   <time>2014-03-29T12:03:56Z</time>
  </trkpt>
  <trkpt lat="34.700977" lon="-6.379153">
   <ele>34.00</ele>
   <time>2014-03-29T12:04:11Z</time>
  </trkpt>
  <trkpt lat="34.696892" lon="-6.380970">
   <ele>35.00</ele>
   <time>2014-03-29T12:04:27Z</time>
  </trkpt>
  <trkpt lat="34.695348" lon="-6.381621">
   <ele>33.00</ele>
   <time>2014-03-29T12:04:33Z</time>
  </trkpt>
  <trkpt lat="34.694306" lon="-6.381990">
   <ele>33.00</ele>
   <time>2014-03-29T12:04:37Z</time>
  </trkpt>
  <trkpt lat="34.693262" lon="-6.382318">
   <ele>32.00</ele>
   <time>2014-03-29T12:04:41Z</time>
  </trkpt>
  <trkpt lat="34.692477" lon="-6.382526">
   <ele>31.00</ele>
   <time>2014-03-29T12:04:44Z</time>
  </trkpt>
  <trkpt lat="34.688297" lon="-6.383545">
   <ele>28.00</ele>
   <time>2014-03-29T12:05:00Z</time>
  </trkpt>
  <trkpt lat="34.684622" lon="-6.384495">
   <ele>26.00</ele>
   <time>2014-03-29T12:05:14Z</time>
  </trkpt>
  <trkpt lat="34.683831" lon="-6.384752">
   <ele>25.00</ele>
   <time>2014-03-29T12:05:17Z</time>
  </trkpt>
  <trkpt lat="34.682779" lon="-6.385153">
   <ele>25.00</ele>
   <time>2014-03-29T12:05:21Z</time>
  </trkpt>
  <trkpt lat="34.681745" lon="-6.385602">
   <ele>24.00</ele>
   <time>2014-03-29T12:05:25Z</time>
  </trkpt>
  <trkpt lat="34.679466" lon="-6.386639">
   <ele>22.00</ele>
   <time>2014-03-29T12:05:34Z</time>
  </trkpt>
  <trkpt lat="34.678694" lon="-6.386924">
   <ele>22.00</ele>
   <time>2014-03-29T12:05:37Z</time>
  </trkpt>
  <trkpt lat="34.677654" lon="-6.387251">
   <ele>22.00</ele>
   <time>2014-03-29T12:05:41Z</time>
  </trkpt>
  <trkpt lat="34.676877" lon="-6.387455">
   <ele>22.00</ele>
   <time>2014-03-29T12:05:44Z</time>
  </trkpt>
  <trkpt lat="34.675837" lon="-6.387677">
   <ele>22.00</ele>
   <time>2014-03-29T12:05:48Z</time>
  </trkpt>
  <trkpt lat="34.674513" lon="-6.387872">
   <ele>22.00</ele>
   <time>2014-03-29T12:05:53Z</time>
  </trkpt>
  <trkpt lat="34.670477" lon="-6.388415">
   <ele>23.00</ele>
   <time>2014-03-29T12:06:08Z</time>
  </trkpt>
  <trkpt lat="34.669666" lon="-6.388586">
   <ele>23.00</ele>
   <time>2014-03-29T12:06:11Z</time>
  </trkpt>
  <trkpt lat="34.669130" lon="-6.388731">
   <ele>24.00</ele>
   <time>2014-03-29T12:06:13Z</time>
  </trkpt>
  <trkpt lat="34.668331" lon="-6.388984">
   <ele>25.00</ele>
   <time>2014-03-29T12:06:16Z</time>
  </trkpt>
  <trkpt lat="34.667803" lon="-6.389176">
   <ele>25.00</ele>
   <time>2014-03-29T12:06:18Z</time>
  </trkpt>
  <trkpt lat="34.667019" lon="-6.389504">
   <ele>26.00</ele>
   <time>2014-03-29T12:06:21Z</time>
  </trkpt>
  <trkpt lat="34.666250" lon="-6.389871">
   <ele>27.00</ele>
   <time>2014-03-29T12:06:24Z</time>
  </trkpt>
  <trkpt lat="34.665747" lon="-6.390143">
   <ele>27.00</ele>
   <time>2014-03-29T12:06:26Z</time>
  </trkpt>
  <trkpt lat="34.665004" lon="-6.390588">
   <ele>28.00</ele>
   <time>2014-03-29T12:06:29Z</time>
  </trkpt>
  <trkpt lat="34.664278" lon="-6.391081">
   <ele>27.00</ele>
   <time>2014-03-29T12:06:32Z</time>
  </trkpt>
  <trkpt lat="34.663567" lon="-6.391614">
   <ele>26.00</ele>
   <time>2014-03-29T12:06:35Z</time>
  </trkpt>
  <trkpt lat="34.662878" lon="-6.392179">
   <ele>25.00</ele>
   <time>2014-03-29T12:06:38Z</time>
  </trkpt>
  <trkpt lat="34.662215" lon="-6.392788">
   <ele>25.00</ele>
   <time>2014-03-29T12:06:41Z</time>
  </trkpt>
  <trkpt lat="34.661571" lon="-6.393430">
   <ele>25.00</ele>
   <time>2014-03-29T12:06:44Z</time>
  </trkpt>
  <trkpt lat="34.658626" lon="-6.396574">
   <ele>24.00</ele>
   <time>2014-03-29T12:06:58Z</time>
  </trkpt>
  <trkpt lat="34.657958" lon="-6.397189">
   <ele>24.00</ele>
   <time>2014-03-29T12:07:01Z</time>
  </trkpt>
  <trkpt lat="34.657046" lon="-6.397959">
   <ele>24.00</ele>
   <time>2014-03-29T12:07:05Z</time>
  </trkpt>
  <trkpt lat="34.656348" lon="-6.398493">
   <ele>24.00</ele>
   <time>2014-03-29T12:07:08Z</time>
  </trkpt>
  <trkpt lat="34.655393" lon="-6.399154">
   <ele>23.00</ele>
   <time>2014-03-29T12:07:12Z</time>
  </trkpt>
  <trkpt lat="34.654417" lon="-6.399765">
   <ele>23.00</ele>
   <time>2014-03-29T12:07:16Z</time>
  </trkpt>
  <trkpt lat="34.650687" lon="-6.401891">
   <ele>24.00</ele>
   <time>2014-03-29T12:07:31Z</time>
  </trkpt>
  <trkpt lat="34.649962" lon="-6.402384">
   <ele>24.00</ele>
   <time>2014-03-29T12:07:34Z</time>
  </trkpt>
  <trkpt lat="34.649250" lon="-6.402913">
   <ele>24.00</ele>
   <time>2014-03-29T12:07:37Z</time>
  </trkpt>
  <trkpt lat="34.648333" lon="-6.403655">
   <ele>24.00</ele>
   <time>2014-03-29T12:07:41Z</time>
  </trkpt>
  <trkpt lat="34.647235" lon="-6.404629">
   <ele>24.00</ele>
   <time>2014-03-29T12:07:46Z</time>
  </trkpt>
  <trkpt lat="34.644376" lon="-6.407185">
   <ele>23.00</ele>
   <time>2014-03-29T12:07:59Z</time>
  </trkpt>
  <trkpt lat="34.643908" lon="-6.407548">
   <ele>23.00</ele>
   <time>2014-03-29T12:08:01Z</time>
  </trkpt>
  <trkpt lat="34.643182" lon="-6.408063">
   <ele>23.00</ele>
   <time>2014-03-29T12:08:04Z</time>
  </trkpt>
  <trkpt lat="34.642442" lon="-6.408536">
   <ele>23.00</ele>
   <time>2014-03-29T12:08:07Z</time>
  </trkpt>
  <trkpt lat="34.641688" lon="-6.408968">
   <ele>23.00</ele>
   <time>2014-03-29T12:08:10Z</time>
  </trkpt>
  <trkpt lat="34.640921" lon="-6.409360">
   <ele>23.00</ele>
   <time>2014-03-29T12:08:13Z</time>
  </trkpt>
  <trkpt lat="34.640140" lon="-6.409702">
   <ele>24.00</ele>
   <time>2014-03-29T12:08:16Z</time>
  </trkpt>
  <trkpt lat="34.637060" lon="-6.410984">
   <ele>25.00</ele>
   <time>2014-03-29T12:08:28Z</time>
  </trkpt>
  <trkpt lat="34.636307" lon="-6.411365">
   <ele>26.00</ele>
   <time>2014-03-29T12:08:31Z</time>
  </trkpt>
  <trkpt lat="34.635566" lon="-6.411786">
   <ele>27.00</ele>
   <time>2014-03-29T12:08:34Z</time>
  </trkpt>
  <trkpt lat="34.634841" lon="-6.412252">
   <ele>27.00</ele>
   <time>2014-03-29T12:08:37Z</time>
  </trkpt>
  <trkpt lat="34.634135" lon="-6.412756">
   <ele>27.00</ele>
   <time>2014-03-29T12:08:40Z</time>
  </trkpt>
  <trkpt lat="34.633449" lon="-6.413299">
   <ele>27.00</ele>
   <time>2014-03-29T12:08:43Z</time>
  </trkpt>
  <trkpt lat="34.632344" lon="-6.414270">
   <ele>27.00</ele>
   <time>2014-03-29T12:08:48Z</time>
  </trkpt>
  <trkpt lat="34.632132" lon="-6.414479">
   <ele>27.00</ele>
   <time>2014-03-29T12:08:49Z</time>
  </trkpt>
  <trkpt lat="34.631723" lon="-6.414917">
   <ele>27.00</ele>
   <time>2014-03-29T12:08:51Z</time>
  </trkpt>
  <trkpt lat="34.630932" lon="-6.415823">
   <ele>26.00</ele>
   <time>2014-03-29T12:08:55Z</time>
  </trkpt>
  <trkpt lat="34.628353" lon="-6.418773">
   <ele>24.00</ele>
   <time>2014-03-29T12:09:08Z</time>
  </trkpt>
  <trkpt lat="34.627737" lon="-6.419411">
   <ele>23.00</ele>
   <time>2014-03-29T12:09:11Z</time>
  </trkpt>
  <trkpt lat="34.627096" lon="-6.420014">
   <ele>23.00</ele>
   <time>2014-03-29T12:09:14Z</time>
  </trkpt>
  <trkpt lat="34.626437" lon="-6.420582">
   <ele>23.00</ele>
   <time>2014-03-29T12:09:17Z</time>
  </trkpt>
  <trkpt lat="34.625752" lon="-6.421111">
   <ele>22.00</ele>
   <time>2014-03-29T12:09:20Z</time>
  </trkpt>
  <trkpt lat="34.625051" lon="-6.421598">
   <ele>22.00</ele>
   <time>2014-03-29T12:09:23Z</time>
  </trkpt>
  <trkpt lat="34.621436" lon="-6.423865">
   <ele>21.00</ele>
   <time>2014-03-29T12:09:38Z</time>
  </trkpt>
  <trkpt lat="34.620741" lon="-6.424363">
   <ele>22.00</ele>
   <time>2014-03-29T12:09:41Z</time>
  </trkpt>
  <trkpt lat="34.619842" lon="-6.425072">
   <ele>22.00</ele>
   <time>2014-03-29T12:09:45Z</time>
  </trkpt>
  <trkpt lat="34.619184" lon="-6.425638">
   <ele>22.00</ele>
   <time>2014-03-29T12:09:48Z</time>
  </trkpt>
  <trkpt lat="34.618336" lon="-6.426435">
   <ele>22.00</ele>
   <time>2014-03-29T12:09:52Z</time>
  </trkpt>
  <trkpt lat="34.616201" lon="-6.428466">
   <ele>22.00</ele>
   <time>2014-03-29T12:10:02Z</time>
  </trkpt>
  <trkpt lat="34.615528" lon="-6.429033">
   <ele>22.00</ele>
   <time>2014-03-29T12:10:05Z</time>
  </trkpt>
  <trkpt lat="34.614831" lon="-6.429559">
   <ele>22.00</ele>
   <time>2014-03-29T12:10:08Z</time>
  </trkpt>
  <trkpt lat="34.613880" lon="-6.430203">
   <ele>22.00</ele>
   <time>2014-03-29T12:10:12Z</time>
  </trkpt>
  <trkpt lat="34.613143" lon="-6.430636">
   <ele>22.00</ele>
   <time>2014-03-29T12:10:15Z</time>
  </trkpt>
  <trkpt lat="34.612397" lon="-6.431025">
   <ele>23.00</ele>
   <time>2014-03-29T12:10:18Z</time>
  </trkpt>
  <trkpt lat="34.611645" lon="-6.431369">
   <ele>23.00</ele>
   <time>2014-03-29T12:10:21Z</time>
  </trkpt>
  <trkpt lat="34.610879" lon="-6.431676">
   <ele>24.00</ele>
   <time>2014-03-29T12:10:24Z</time>
  </trkpt>
  <trkpt lat="34.610096" lon="-6.431941">
   <ele>24.00</ele>
   <time>2014-03-29T12:10:27Z</time>
  </trkpt>
  <trkpt lat="34.606108" lon="-6.433228">
   <ele>23.00</ele>
   <time>2014-03-29T12:10:42Z</time>
  </trkpt>
  <trkpt lat="34.605580" lon="-6.433438">
   <ele>23.00</ele>
   <time>2014-03-29T12:10:44Z</time>
  </trkpt>
  <trkpt lat="34.604536" lon="-6.433908">
   <ele>23.00</ele>
   <time>2014-03-29T12:10:48Z</time>
  </trkpt>
  <trkpt lat="34.603770" lon="-6.434296">
   <ele>23.00</ele>
   <time>2014-03-29T12:10:51Z</time>
  </trkpt>
  <trkpt lat="34.602763" lon="-6.434865">
   <ele>23.00</ele>
   <time>2014-03-29T12:10:55Z</time>
  </trkpt>
  <trkpt lat="34.599106" lon="-6.437219">
   <ele>22.00</ele>
   <time>2014-03-29T12:11:11Z</time>
  </trkpt>
  <trkpt lat="34.595482" lon="-6.439637">
   <ele>22.00</ele>
   <time>2014-03-29T12:11:26Z</time>
  </trkpt>
  <trkpt lat="34.591914" lon="-6.442008">
   <ele>23.00</ele>
   <time>2014-03-29T12:11:41Z</time>
  </trkpt>
  <trkpt lat="34.590718" lon="-6.442772">
   <ele>24.00</ele>
   <time>2014-03-29T12:11:46Z</time>
  </trkpt>
  <trkpt lat="34.589981" lon="-6.443184">
   <ele>24.00</ele>
   <time>2014-03-29T12:11:49Z</time>
  </trkpt>
  <trkpt lat="34.589225" lon="-6.443553">
   <ele>24.00</ele>
   <time>2014-03-29T12:11:52Z</time>
  </trkpt>
  <trkpt lat="34.587925" lon="-6.444112">
   <ele>25.00</ele>
   <time>2014-03-29T12:11:57Z</time>
  </trkpt>
  <trkpt lat="34.586596" lon="-6.444618">
   <ele>25.00</ele>
   <time>2014-03-29T12:12:02Z</time>
  </trkpt>
  <trkpt lat="34.582579" lon="-6.445923">
   <ele>26.00</ele>
   <time>2014-03-29T12:12:17Z</time>
  </trkpt>
  <trkpt lat="34.581510" lon="-6.446293">
   <ele>26.00</ele>
   <time>2014-03-29T12:12:21Z</time>
  </trkpt>
  <trkpt lat="34.580451" lon="-6.446718">
   <ele>26.00</ele>
   <time>2014-03-29T12:12:25Z</time>
  </trkpt>
  <trkpt lat="34.579406" lon="-6.447191">
   <ele>27.00</ele>
   <time>2014-03-29T12:12:29Z</time>
  </trkpt>
  <trkpt lat="34.578625" lon="-6.447584">
   <ele>27.00</ele>
   <time>2014-03-29T12:12:32Z</time>
  </trkpt>
  <trkpt lat="34.577595" lon="-6.448162">
   <ele>26.00</ele>
   <time>2014-03-29T12:12:36Z</time>
  </trkpt>
  <trkpt lat="34.576841" lon="-6.448634">
   <ele>25.00</ele>
   <time>2014-03-29T12:12:39Z</time>
  </trkpt>
  <trkpt lat="34.573134" lon="-6.451015">
   <ele>22.00</ele>
   <time>2014-03-29T12:12:54Z</time>
  </trkpt>
  <trkpt lat="34.571440" lon="-6.452132">
   <ele>21.00</ele>
   <time>2014-03-29T12:13:01Z</time>
  </trkpt>
  <trkpt lat="34.570689" lon="-6.452547">
   <ele>20.00</ele>
   <time>2014-03-29T12:13:04Z</time>
  </trkpt>
  <trkpt lat="34.569923" lon="-6.452921">
   <ele>20.00</ele>
   <time>2014-03-29T12:13:07Z</time>
  </trkpt>
  <trkpt lat="34.568920" lon="-6.453359">
   <ele>19.00</ele>
   <time>2014-03-29T12:13:11Z</time>
  </trkpt>
  <trkpt lat="34.568410" lon="-6.453545">
   <ele>19.00</ele>
   <time>2014-03-29T12:13:13Z</time>
  </trkpt>
  <trkpt lat="34.566833" lon="-6.454036">
   <ele>20.00</ele>
   <time>2014-03-29T12:13:19Z</time>
  </trkpt>
  <trkpt lat="34.565746" lon="-6.454334">
   <ele>20.00</ele>
   <time>2014-03-29T12:13:23Z</time>
  </trkpt>
  <trkpt lat="34.563487" lon="-6.454842">
   <ele>21.00</ele>
   <time>2014-03-29T12:13:31Z</time>
  </trkpt>
  <trkpt lat="34.562584" lon="-6.455040">
   <ele>20.00</ele>
   <time>2014-03-29T12:13:34Z</time>
  </trkpt>
  <trkpt lat="34.561978" lon="-6.455216">
   <ele>20.00</ele>
   <time>2014-03-29T12:13:36Z</time>
  </trkpt>
  <trkpt lat="34.561372" lon="-6.455425">
   <ele>19.00</ele>
   <time>2014-03-29T12:13:38Z</time>
  </trkpt>
  <trkpt lat="34.560774" lon="-6.455668">
   <ele>18.00</ele>
   <time>2014-03-29T12:13:40Z</time>
  </trkpt>
  <trkpt lat="34.559618" lon="-6.456217">
   <ele>17.00</ele>
   <time>2014-03-29T12:13:44Z</time>
  </trkpt>
  <trkpt lat="34.555588" lon="-6.458195">
   <ele>15.00</ele>
   <time>2014-03-29T12:13:59Z</time>
  </trkpt>
  <trkpt lat="34.554782" lon="-6.458511">
   <ele>15.00</ele>
   <time>2014-03-29T12:14:02Z</time>
  </trkpt>
  <trkpt lat="34.553964" lon="-6.458796">
   <ele>15.00</ele>
   <time>2014-03-29T12:14:05Z</time>
  </trkpt>
  <trkpt lat="34.553133" lon="-6.459043">
   <ele>14.00</ele>
   <time>2014-03-29T12:14:08Z</time>
  </trkpt>
  <trkpt lat="34.552295" lon="-6.459246">
   <ele>14.00</ele>
   <time>2014-03-29T12:14:11Z</time>
  </trkpt>
  <trkpt lat="34.551172" lon="-6.459460">
   <ele>13.00</ele>
   <time>2014-03-29T12:14:15Z</time>
  </trkpt>
  <trkpt lat="34.546948" lon="-6.460048">
   <ele>14.00</ele>
   <time>2014-03-29T12:14:30Z</time>
  </trkpt>
  <trkpt lat="34.542608" lon="-6.460641">
   <ele>17.00</ele>
   <time>2014-03-29T12:14:45Z</time>
  </trkpt>
  <trkpt lat="34.542033" lon="-6.460761">
   <ele>17.00</ele>
   <time>2014-03-29T12:14:47Z</time>
  </trkpt>
  <trkpt lat="34.541465" lon="-6.460907">
   <ele>18.00</ele>
   <time>2014-03-29T12:14:49Z</time>
  </trkpt>
  <trkpt lat="34.540908" lon="-6.461089">
   <ele>18.00</ele>
   <time>2014-03-29T12:14:51Z</time>
  </trkpt>
  <trkpt lat="34.539812" lon="-6.461520">
   <ele>19.00</ele>
   <time>2014-03-29T12:14:55Z</time>
  </trkpt>
  <trkpt lat="34.538999" lon="-6.461880">
   <ele>18.00</ele>
   <time>2014-03-29T12:14:58Z</time>
  </trkpt>
  <trkpt lat="34.538200" lon="-6.462285">
   <ele>18.00</ele>
   <time>2014-03-29T12:15:01Z</time>
  </trkpt>
  <trkpt lat="34.537675" lon="-6.462585">
   <ele>18.00</ele>
   <time>2014-03-29T12:15:03Z</time>
  </trkpt>
  <trkpt lat="34.536901" lon="-6.463075">
   <ele>18.00</ele>
   <time>2014-03-29T12:15:06Z</time>
  </trkpt>
  <trkpt lat="34.536147" lon="-6.463611">
   <ele>17.00</ele>
   <time>2014-03-29T12:15:09Z</time>
  </trkpt>
  <trkpt lat="34.533449" lon="-6.465679">
   <ele>17.00</ele>
   <time>2014-03-29T12:15:20Z</time>
  </trkpt>
  <trkpt lat="34.532423" lon="-6.466343">
   <ele>17.00</ele>
   <time>2014-03-29T12:15:24Z</time>
  </trkpt>
  <trkpt lat="34.531369" lon="-6.466940">
   <ele>16.00</ele>
   <time>2014-03-29T12:15:28Z</time>
  </trkpt>
  <trkpt lat="34.530564" lon="-6.467347">
   <ele>15.00</ele>
   <time>2014-03-29T12:15:31Z</time>
  </trkpt>
  <trkpt lat="34.529743" lon="-6.467709">
   <ele>15.00</ele>
   <time>2014-03-29T12:15:34Z</time>
  </trkpt>
  <trkpt lat="34.525322" lon="-6.469435">
   <ele>14.00</ele>
   <time>2014-03-29T12:15:50Z</time>
  </trkpt>
  <trkpt lat="34.521225" lon="-6.471037">
   <ele>18.00</ele>
   <time>2014-03-29T12:16:05Z</time>
  </trkpt>
  <trkpt lat="34.517109" lon="-6.472629">
   <ele>21.00</ele>
   <time>2014-03-29T12:16:20Z</time>
  </trkpt>
  <trkpt lat="34.515183" lon="-6.473358">
   <ele>22.00</ele>
   <time>2014-03-29T12:16:27Z</time>
  </trkpt>
  <trkpt lat="34.514376" lon="-6.473726">
   <ele>22.00</ele>
   <time>2014-03-29T12:16:30Z</time>
  </trkpt>
  <trkpt lat="34.513845" lon="-6.474000">
   <ele>23.00</ele>
   <time>2014-03-29T12:16:32Z</time>
  </trkpt>
  <trkpt lat="34.513320" lon="-6.474301">
   <ele>23.00</ele>
   <time>2014-03-29T12:16:34Z</time>
  </trkpt>
  <trkpt lat="34.512026" lon="-6.475119">
   <ele>24.00</ele>
   <time>2014-03-29T12:16:39Z</time>
  </trkpt>
  <trkpt lat="34.508155" lon="-6.477696">
   <ele>26.00</ele>
   <time>2014-03-29T12:16:54Z</time>
  </trkpt>
  <trkpt lat="34.504458" lon="-6.480138">
   <ele>23.00</ele>
   <time>2014-03-29T12:17:09Z</time>
  </trkpt>
  <trkpt lat="34.503451" lon="-6.480696">
   <ele>23.00</ele>
   <time>2014-03-29T12:17:13Z</time>
  </trkpt>
  <trkpt lat="34.502431" lon="-6.481209">
   <ele>23.00</ele>
   <time>2014-03-29T12:17:17Z</time>
  </trkpt>
  <trkpt lat="34.501136" lon="-6.481790">
   <ele>24.00</ele>
   <time>2014-03-29T12:17:22Z</time>
  </trkpt>
  <trkpt lat="34.500358" lon="-6.482088">
   <ele>24.00</ele>
   <time>2014-03-29T12:17:25Z</time>
  </trkpt>
  <trkpt lat="34.499577" lon="-6.482340">
   <ele>24.00</ele>
   <time>2014-03-29T12:17:28Z</time>
  </trkpt>
  <trkpt lat="34.495316" lon="-6.483507">
   <ele>24.00</ele>
   <time>2014-03-29T12:17:44Z</time>
  </trkpt>
  <trkpt lat="34.491248" lon="-6.484633">
   <ele>21.00</ele>
   <time>2014-03-29T12:17:59Z</time>
  </trkpt>
  <trkpt lat="34.487208" lon="-6.485748">
   <ele>21.00</ele>
   <time>2014-03-29T12:18:14Z</time>
  </trkpt>
  <trkpt lat="34.485617" lon="-6.486207">
   <ele>22.00</ele>
   <time>2014-03-29T12:18:20Z</time>
  </trkpt>
  <trkpt lat="34.484828" lon="-6.486497">
   <ele>22.00</ele>
   <time>2014-03-29T12:18:23Z</time>
  </trkpt>
  <trkpt lat="34.484046" lon="-6.486839">
   <ele>23.00</ele>
   <time>2014-03-29T12:18:26Z</time>
  </trkpt>
  <trkpt lat="34.483274" lon="-6.487213">
   <ele>23.00</ele>
   <time>2014-03-29T12:18:29Z</time>
  </trkpt>
  <trkpt lat="34.482769" lon="-6.487490">
   <ele>23.00</ele>
   <time>2014-03-29T12:18:31Z</time>
  </trkpt>
  <trkpt lat="34.482024" lon="-6.487940">
   <ele>24.00</ele>
   <time>2014-03-29T12:18:34Z</time>
  </trkpt>
  <trkpt lat="34.481301" lon="-6.488435">
   <ele>24.00</ele>
   <time>2014-03-29T12:18:37Z</time>
  </trkpt>
  <trkpt lat="34.480599" lon="-6.488967">
   <ele>24.00</ele>
   <time>2014-03-29T12:18:40Z</time>
  </trkpt>
  <trkpt lat="34.479916" lon="-6.489535">
   <ele>25.00</ele>
   <time>2014-03-29T12:18:43Z</time>
  </trkpt>
  <trkpt lat="34.479469" lon="-6.489933">
   <ele>25.00</ele>
   <time>2014-03-29T12:18:45Z</time>
  </trkpt>
  <trkpt lat="34.479034" lon="-6.490357">
   <ele>25.00</ele>
   <time>2014-03-29T12:18:47Z</time>
  </trkpt>
  <trkpt lat="34.477992" lon="-6.491464">
   <ele>24.00</ele>
   <time>2014-03-29T12:18:52Z</time>
  </trkpt>
  <trkpt lat="34.475569" lon="-6.494059">
   <ele>23.00</ele>
   <time>2014-03-29T12:19:04Z</time>
  </trkpt>
  <trkpt lat="34.474935" lon="-6.494653">
   <ele>23.00</ele>
   <time>2014-03-29T12:19:07Z</time>
  </trkpt>
  <trkpt lat="34.474269" lon="-6.495221">
   <ele>22.00</ele>
   <time>2014-03-29T12:19:10Z</time>
  </trkpt>
  <trkpt lat="34.473581" lon="-6.495753">
   <ele>22.00</ele>
   <time>2014-03-29T12:19:13Z</time>
  </trkpt>
  <trkpt lat="34.472888" lon="-6.496233">
   <ele>22.00</ele>
   <time>2014-03-29T12:19:16Z</time>
  </trkpt>
  <trkpt lat="34.472418" lon="-6.496521">
   <ele>21.00</ele>
   <time>2014-03-29T12:19:18Z</time>
  </trkpt>
  <trkpt lat="34.471459" lon="-6.497036">
   <ele>21.00</ele>
   <time>2014-03-29T12:19:22Z</time>
  </trkpt>
  <trkpt lat="34.470480" lon="-6.497512">
   <ele>21.00</ele>
   <time>2014-03-29T12:19:26Z</time>
  </trkpt>
  <trkpt lat="34.469720" lon="-6.497829">
   <ele>20.00</ele>
   <time>2014-03-29T12:19:29Z</time>
  </trkpt>
  <trkpt lat="34.468942" lon="-6.498107">
   <ele>20.00</ele>
   <time>2014-03-29T12:19:32Z</time>
  </trkpt>
  <trkpt lat="34.468147" lon="-6.498344">
   <ele>20.00</ele>
   <time>2014-03-29T12:19:35Z</time>
  </trkpt>
  <trkpt lat="34.467352" lon="-6.498537">
   <ele>21.00</ele>
   <time>2014-03-29T12:19:38Z</time>
  </trkpt>
  <trkpt lat="34.463317" lon="-6.499420">
   <ele>23.00</ele>
   <time>2014-03-29T12:19:53Z</time>
  </trkpt>
  <trkpt lat="34.458947" lon="-6.500347">
   <ele>21.00</ele>
   <time>2014-03-29T12:20:09Z</time>
  </trkpt>
  <trkpt lat="34.454892" lon="-6.501220">
   <ele>24.00</ele>
   <time>2014-03-29T12:20:24Z</time>
  </trkpt>
  <trkpt lat="34.454368" lon="-6.501362">
   <ele>25.00</ele>
   <time>2014-03-29T12:20:26Z</time>
  </trkpt>
  <trkpt lat="34.453586" lon="-6.501617">
   <ele>25.00</ele>
   <time>2014-03-29T12:20:29Z</time>
  </trkpt>
  <trkpt lat="34.452551" lon="-6.502019">
   <ele>26.00</ele>
   <time>2014-03-29T12:20:33Z</time>
  </trkpt>
  <trkpt lat="34.451791" lon="-6.502372">
   <ele>26.00</ele>
   <time>2014-03-29T12:20:36Z</time>
  </trkpt>
  <trkpt lat="34.451046" lon="-6.502765">
   <ele>25.00</ele>
   <time>2014-03-29T12:20:39Z</time>
  </trkpt>
  <trkpt lat="34.450317" lon="-6.503202">
   <ele>25.00</ele>
   <time>2014-03-29T12:20:42Z</time>
  </trkpt>
  <trkpt lat="34.449604" lon="-6.503677">
   <ele>25.00</ele>
   <time>2014-03-29T12:20:45Z</time>
  </trkpt>
  <trkpt lat="34.446160" lon="-6.506119">
   <ele>21.00</ele>
   <time>2014-03-29T12:21:00Z</time>
  </trkpt>
  <trkpt lat="34.445220" lon="-6.506678">
   <ele>21.00</ele>
   <time>2014-03-29T12:21:04Z</time>
  </trkpt>
  <trkpt lat="34.444021" lon="-6.507317">
   <ele>21.00</ele>
   <time>2014-03-29T12:21:09Z</time>
  </trkpt>
  <trkpt lat="34.443533" lon="-6.507546">
   <ele>21.00</ele>
   <time>2014-03-29T12:21:11Z</time>
  </trkpt>
  <trkpt lat="34.443038" lon="-6.507750">
   <ele>21.00</ele>
   <time>2014-03-29T12:21:13Z</time>
  </trkpt>
  <trkpt lat="34.439026" lon="-6.509227">
   <ele>25.00</ele>
   <time>2014-03-29T12:21:29Z</time>
  </trkpt>
  <trkpt lat="34.438038" lon="-6.509691">
   <ele>26.00</ele>
   <time>2014-03-29T12:21:33Z</time>
  </trkpt>
  <trkpt lat="34.437550" lon="-6.509958">
   <ele>26.00</ele>
   <time>2014-03-29T12:21:35Z</time>
  </trkpt>
  <trkpt lat="34.436589" lon="-6.510539">
   <ele>26.00</ele>
   <time>2014-03-29T12:21:39Z</time>
  </trkpt>
  <trkpt lat="34.436117" lon="-6.510856">
   <ele>26.00</ele>
   <time>2014-03-29T12:21:41Z</time>
  </trkpt>
  <trkpt lat="34.435429" lon="-6.511370">
   <ele>25.00</ele>
   <time>2014-03-29T12:21:44Z</time>
  </trkpt>
  <trkpt lat="34.434762" lon="-6.511914">
   <ele>24.00</ele>
   <time>2014-03-29T12:21:47Z</time>
  </trkpt>
  <trkpt lat="34.434110" lon="-6.512499">
   <ele>23.00</ele>
   <time>2014-03-29T12:21:50Z</time>
  </trkpt>
  <trkpt lat="34.433476" lon="-6.513125">
   <ele>22.00</ele>
   <time>2014-03-29T12:21:53Z</time>
  </trkpt>
  <trkpt lat="34.430996" lon="-6.515632">
   <ele>20.00</ele>
   <time>2014-03-29T12:22:05Z</time>
  </trkpt>
  <trkpt lat="34.430574" lon="-6.516016">
   <ele>20.00</ele>
   <time>2014-03-29T12:22:07Z</time>
  </trkpt>
  <trkpt lat="34.429925" lon="-6.516558">
   <ele>20.00</ele>
   <time>2014-03-29T12:22:10Z</time>
  </trkpt>
  <trkpt lat="34.429038" lon="-6.517230">
   <ele>21.00</ele>
   <time>2014-03-29T12:22:14Z</time>
  </trkpt>
  <trkpt lat="34.428347" lon="-6.517695">
   <ele>21.00</ele>
   <time>2014-03-29T12:22:17Z</time>
  </trkpt>
  <trkpt lat="34.427877" lon="-6.517986">
   <ele>22.00</ele>
   <time>2014-03-29T12:22:19Z</time>
  </trkpt>
  <trkpt lat="34.427156" lon="-6.518385">
   <ele>23.00</ele>
   <time>2014-03-29T12:22:22Z</time>
  </trkpt>
  <trkpt lat="34.426425" lon="-6.518741">
   <ele>24.00</ele>
   <time>2014-03-29T12:22:25Z</time>
  </trkpt>
  <trkpt lat="34.422711" lon="-6.520337">
   <ele>26.00</ele>
   <time>2014-03-29T12:22:40Z</time>
  </trkpt>
  <trkpt lat="34.418611" lon="-6.522044">
   <ele>21.00</ele>
   <time>2014-03-29T12:22:56Z</time>
  </trkpt>
  <trkpt lat="34.415087" lon="-6.523564">
   <ele>15.00</ele>
   <time>2014-03-29T12:23:10Z</time>
  </trkpt>
  <trkpt lat="34.414579" lon="-6.523737">
   <ele>14.00</ele>
   <time>2014-03-29T12:23:12Z</time>
  </trkpt>
  <trkpt lat="34.413809" lon="-6.523955">
   <ele>13.00</ele>
   <time>2014-03-29T12:23:15Z</time>
  </trkpt>
  <trkpt lat="34.413290" lon="-6.524067">
   <ele>12.00</ele>
   <time>2014-03-29T12:23:17Z</time>
  </trkpt>
  <trkpt lat="34.412494" lon="-6.524192">
   <ele>11.00</ele>
   <time>2014-03-29T12:23:20Z</time>
  </trkpt>
  <trkpt lat="34.411958" lon="-6.524246">
   <ele>11.00</ele>
   <time>2014-03-29T12:23:22Z</time>
  </trkpt>
  <trkpt lat="34.411419" lon="-6.524270">
   <ele>10.00</ele>
   <time>2014-03-29T12:23:24Z</time>
  </trkpt>
  <trkpt lat="34.410610" lon="-6.524259">
   <ele>10.00</ele>
   <time>2014-03-29T12:23:27Z</time>
  </trkpt>
  <trkpt lat="34.410067" lon="-6.524219">
   <ele>10.00</ele>
   <time>2014-03-29T12:23:29Z</time>
  </trkpt>
  <trkpt lat="34.409526" lon="-6.524149">
   <ele>10.00</ele>
   <time>2014-03-29T12:23:31Z</time>
  </trkpt>
  <trkpt lat="34.408715" lon="-6.524001">
   <ele>9.00</ele>
   <time>2014-03-29T12:23:34Z</time>
  </trkpt>
  <trkpt lat="34.408180" lon="-6.523872">
   <ele>9.00</ele>
   <time>2014-03-29T12:23:36Z</time>
  </trkpt>
  <trkpt lat="34.407652" lon="-6.523720">
   <ele>9.00</ele>
   <time>2014-03-29T12:23:38Z</time>
  </trkpt>
  <trkpt lat="34.407133" lon="-6.523539">
   <ele>9.00</ele>
   <time>2014-03-29T12:23:40Z</time>
  </trkpt>
  <trkpt lat="34.406372" lon="-6.523218">
   <ele>9.00</ele>
   <time>2014-03-29T12:23:43Z</time>
  </trkpt>
  <trkpt lat="34.405874" lon="-6.522977">
   <ele>10.00</ele>
   <time>2014-03-29T12:23:45Z</time>
  </trkpt>
  <trkpt lat="34.405383" lon="-6.522714">
   <ele>10.00</ele>
   <time>2014-03-29T12:23:47Z</time>
  </trkpt>
  <trkpt lat="34.404659" lon="-6.522286">
   <ele>9.00</ele>
   <time>2014-03-29T12:23:50Z</time>
  </trkpt>
  <trkpt lat="34.403949" lon="-6.521818">
   <ele>9.00</ele>
   <time>2014-03-29T12:23:53Z</time>
  </trkpt>
  <trkpt lat="34.400424" lon="-6.519376">
   <ele>13.00</ele>
   <time>2014-03-29T12:24:08Z</time>
  </trkpt>
  <trkpt lat="34.396600" lon="-6.516768">
   <ele>15.00</ele>
   <time>2014-03-29T12:24:24Z</time>
  </trkpt>
  <trkpt lat="34.395608" lon="-6.516151">
   <ele>14.00</ele>
   <time>2014-03-29T12:24:28Z</time>
  </trkpt>
  <trkpt lat="34.395099" lon="-6.515874">
   <ele>14.00</ele>
   <time>2014-03-29T12:24:30Z</time>
  </trkpt>
  <trkpt lat="34.394584" lon="-6.515624">
   <ele>14.00</ele>
   <time>2014-03-29T12:24:32Z</time>
  </trkpt>
  <trkpt lat="34.394061" lon="-6.515403">
   <ele>13.00</ele>
   <time>2014-03-29T12:24:34Z</time>
  </trkpt>
  <trkpt lat="34.393533" lon="-6.515207">
   <ele>13.00</ele>
   <time>2014-03-29T12:24:36Z</time>
  </trkpt>
  <trkpt lat="34.393000" lon="-6.515036">
   <ele>13.00</ele>
   <time>2014-03-29T12:24:38Z</time>
  </trkpt>
  <trkpt lat="34.392462" lon="-6.514890">
   <ele>12.00</ele>
   <time>2014-03-29T12:24:40Z</time>
  </trkpt>
  <trkpt lat="34.391924" lon="-6.514782">
   <ele>11.00</ele>
   <time>2014-03-29T12:24:42Z</time>
  </trkpt>
  <trkpt lat="34.391383" lon="-6.514701">
   <ele>9.00</ele>
   <time>2014-03-29T12:24:44Z</time>
  </trkpt>
  <trkpt lat="34.390571" lon="-6.514624">
   <ele>8.00</ele>
   <time>2014-03-29T12:24:47Z</time>
  </trkpt>
  <trkpt lat="34.390028" lon="-6.514605">
   <ele>8.00</ele>
   <time>2014-03-29T12:24:49Z</time>
  </trkpt>
  <trkpt lat="34.389484" lon="-6.514612">
   <ele>8.00</ele>
   <time>2014-03-29T12:24:51Z</time>
  </trkpt>
  <trkpt lat="34.388937" lon="-6.514648">
   <ele>8.00</ele>
   <time>2014-03-29T12:24:53Z</time>
  </trkpt>
  <trkpt lat="34.388390" lon="-6.514714">
   <ele>8.00</ele>
   <time>2014-03-29T12:24:55Z</time>
  </trkpt>
  <trkpt lat="34.387847" lon="-6.514804">
   <ele>8.00</ele>
   <time>2014-03-29T12:24:57Z</time>
  </trkpt>
  <trkpt lat="34.387308" lon="-6.514922">
   <ele>8.00</ele>
   <time>2014-03-29T12:24:59Z</time>
  </trkpt>
  <trkpt lat="34.386511" lon="-6.515142">
   <ele>8.00</ele>
   <time>2014-03-29T12:25:02Z</time>
  </trkpt>
  <trkpt lat="34.382596" lon="-6.516454">
   <ele>9.00</ele>
   <time>2014-03-29T12:25:17Z</time>
  </trkpt>
  <trkpt lat="34.378365" lon="-6.517873">
   <ele>10.00</ele>
   <time>2014-03-29T12:25:33Z</time>
  </trkpt>
  <trkpt lat="34.374409" lon="-6.519152">
   <ele>10.00</ele>
   <time>2014-03-29T12:25:48Z</time>
  </trkpt>
  <trkpt lat="34.372587" lon="-6.519750">
   <ele>10.00</ele>
   <time>2014-03-29T12:25:55Z</time>
  </trkpt>
  <trkpt lat="34.372059" lon="-6.519872">
   <ele>10.00</ele>
   <time>2014-03-29T12:25:57Z</time>
  </trkpt>
  <trkpt lat="34.371266" lon="-6.520014">
   <ele>10.00</ele>
   <time>2014-03-29T12:26:00Z</time>
  </trkpt>
  <trkpt lat="34.370733" lon="-6.520074">
   <ele>10.00</ele>
   <time>2014-03-29T12:26:02Z</time>
  </trkpt>
  <trkpt lat="34.370198" lon="-6.520108">
   <ele>10.00</ele>
   <time>2014-03-29T12:26:04Z</time>
  </trkpt>
  <trkpt lat="34.369662" lon="-6.520112">
   <ele>10.00</ele>
   <time>2014-03-29T12:26:06Z</time>
  </trkpt>
  <trkpt lat="34.368861" lon="-6.520071">
   <ele>10.00</ele>
   <time>2014-03-29T12:26:09Z</time>
  </trkpt>
  <trkpt lat="34.368328" lon="-6.520014">
   <ele>10.00</ele>
   <time>2014-03-29T12:26:11Z</time>
  </trkpt>
  <trkpt lat="34.367796" lon="-6.519932">
   <ele>10.00</ele>
   <time>2014-03-29T12:26:13Z</time>
  </trkpt>
  <trkpt lat="34.367268" lon="-6.519824">
   <ele>10.00</ele>
   <time>2014-03-29T12:26:15Z</time>
  </trkpt>
  <trkpt lat="34.366484" lon="-6.519620">
   <ele>10.00</ele>
   <time>2014-03-29T12:26:18Z</time>
  </trkpt>
  <trkpt lat="34.365970" lon="-6.519451">
   <ele>10.00</ele>
   <time>2014-03-29T12:26:20Z</time>
  </trkpt>
  <trkpt lat="34.365457" lon="-6.519256">
   <ele>10.00</ele>
   <time>2014-03-29T12:26:22Z</time>
  </trkpt>
  <trkpt lat="34.364951" lon="-6.519037">
   <ele>10.00</ele>
   <time>2014-03-29T12:26:24Z</time>
  </trkpt>
  <trkpt lat="34.363711" lon="-6.518431">
   <ele>10.00</ele>
   <time>2014-03-29T12:26:29Z</time>
  </trkpt>
  <trkpt lat="34.360000" lon="-6.516499">
   <ele>11.00</ele>
   <time>2014-03-29T12:26:44Z</time>
  </trkpt>
  <trkpt lat="34.356018" lon="-6.514517">
   <ele>13.00</ele>
   <time>2014-03-29T12:27:00Z</time>
  </trkpt>
  <trkpt lat="34.352258" lon="-6.512616">
   <ele>14.00</ele>
   <time>2014-03-29T12:27:15Z</time>
  </trkpt>
  <trkpt lat="34.348448" lon="-6.510708">
   <ele>12.00</ele>
   <time>2014-03-29T12:27:30Z</time>
  </trkpt>
  <trkpt lat="34.346157" lon="-6.509588">
   <ele>11.00</ele>
   <time>2014-03-29T12:27:39Z</time>
  </trkpt>
  <trkpt lat="34.345380" lon="-6.509267">
   <ele>11.00</ele>
   <time>2014-03-29T12:27:42Z</time>
  </trkpt>
  <trkpt lat="34.344858" lon="-6.509080">
   <ele>11.00</ele>
   <time>2014-03-29T12:27:44Z</time>
  </trkpt>
  <trkpt lat="34.344330" lon="-6.508923">
   <ele>11.00</ele>
   <time>2014-03-29T12:27:46Z</time>
  </trkpt>
  <trkpt lat="34.343797" lon="-6.508796">
   <ele>11.00</ele>
   <time>2014-03-29T12:27:48Z</time>
  </trkpt>
  <trkpt lat="34.343261" lon="-6.508692">
   <ele>11.00</ele>
   <time>2014-03-29T12:27:50Z</time>
  </trkpt>
  <trkpt lat="34.342723" lon="-6.508611">
   <ele>11.00</ele>
   <time>2014-03-29T12:27:52Z</time>
  </trkpt>
  <trkpt lat="34.342183" lon="-6.508562">
   <ele>12.00</ele>
   <time>2014-03-29T12:27:54Z</time>
  </trkpt>
  <trkpt lat="34.341371" lon="-6.508538">
   <ele>12.00</ele>
   <time>2014-03-29T12:27:57Z</time>
  </trkpt>
  <trkpt lat="34.340830" lon="-6.508554">
   <ele>12.00</ele>
   <time>2014-03-29T12:27:59Z</time>
  </trkpt>
  <trkpt lat="34.340292" lon="-6.508598">
   <ele>11.00</ele>
   <time>2014-03-29T12:28:01Z</time>
  </trkpt>
  <trkpt lat="34.339480" lon="-6.508696">
   <ele>12.00</ele>
   <time>2014-03-29T12:28:04Z</time>
  </trkpt>
  <trkpt lat="34.335514" lon="-6.509320">
   <ele>13.00</ele>
   <time>2014-03-29T12:28:19Z</time>
  </trkpt>
  <trkpt lat="34.331651" lon="-6.509980">
   <ele>11.00</ele>
   <time>2014-03-29T12:28:34Z</time>
  </trkpt>
  <trkpt lat="34.327371" lon="-6.510675">
   <ele>11.00</ele>
   <time>2014-03-29T12:28:50Z</time>
  </trkpt>
  <trkpt lat="34.323272" lon="-6.511297">
   <ele>12.00</ele>
   <time>2014-03-29T12:29:05Z</time>
  </trkpt>
  <trkpt lat="34.319129" lon="-6.511964">
   <ele>12.00</ele>
   <time>2014-03-29T12:29:20Z</time>
  </trkpt>
  <trkpt lat="34.317746" lon="-6.512180">
   <ele>12.00</ele>
   <time>2014-03-29T12:29:25Z</time>
  </trkpt>
  <trkpt lat="34.317189" lon="-6.512234">
   <ele>12.00</ele>
   <time>2014-03-29T12:29:27Z</time>
  </trkpt>
  <trkpt lat="34.316635" lon="-6.512261">
   <ele>13.00</ele>
   <time>2014-03-29T12:29:29Z</time>
  </trkpt>
  <trkpt lat="34.316082" lon="-6.512258">
   <ele>13.00</ele>
   <time>2014-03-29T12:29:31Z</time>
  </trkpt>
  <trkpt lat="34.315533" lon="-6.512224">
   <ele>13.00</ele>
   <time>2014-03-29T12:29:33Z</time>
  </trkpt>
  <trkpt lat="34.314735" lon="-6.512127">
   <ele>14.00</ele>
   <time>2014-03-29T12:29:36Z</time>
  </trkpt>
  <trkpt lat="34.314225" lon="-6.512039">
   <ele>15.00</ele>
   <time>2014-03-29T12:29:38Z</time>
  </trkpt>
  <trkpt lat="34.313722" lon="-6.511926">
   <ele>15.00</ele>
   <time>2014-03-29T12:29:40Z</time>
  </trkpt>
  <trkpt lat="34.313219" lon="-6.511782">
   <ele>16.00</ele>
   <time>2014-03-29T12:29:42Z</time>
  </trkpt>
  <trkpt lat="34.312459" lon="-6.511519">
   <ele>17.00</ele>
   <time>2014-03-29T12:29:45Z</time>
  </trkpt>
  <trkpt lat="34.311733" lon="-6.511226">
   <ele>17.00</ele>
   <time>2014-03-29T12:29:48Z</time>
  </trkpt>
  <trkpt lat="34.311289" lon="-6.511010">
   <ele>17.00</ele>
   <time>2014-03-29T12:29:50Z</time>
  </trkpt>
  <trkpt lat="34.310880" lon="-6.510784">
   <ele>18.00</ele>
   <time>2014-03-29T12:29:52Z</time>
  </trkpt>
  <trkpt lat="34.310499" lon="-6.510553">
   <ele>18.00</ele>
   <time>2014-03-29T12:29:54Z</time>
  </trkpt>
  <trkpt lat="34.308488" lon="-6.509287">
   <ele>22.00</ele>
   <time>2014-03-29T12:30:07Z</time>
  </trkpt>
  <trkpt lat="34.308277" lon="-6.509151">
   <ele>23.00</ele>
   <time>2014-03-29T12:30:09Z</time>
  </trkpt>
  <trkpt lat="34.307903" lon="-6.508933">
   <ele>23.00</ele>
   <time>2014-03-29T12:30:17Z</time>
  </trkpt>
  <trkpt lat="34.307854" lon="-6.508918">
   <ele>19.00</ele>
   <time>2014-03-29T12:30:32Z</time>
  </trkpt>
  <trkpt lat="34.307870" lon="-6.508927">
   <ele>20.00</ele>
   <time>2014-03-29T12:30:47Z</time>
  </trkpt>
  <trkpt lat="34.307825" lon="-6.508927">
   <ele>22.00</ele>
   <time>2014-03-29T12:31:03Z</time>
  </trkpt>
  <trkpt lat="34.307741" lon="-6.508908">
   <ele>26.00</ele>
   <time>2014-03-29T12:31:18Z</time>
  </trkpt>
  <trkpt lat="34.306747" lon="-6.508355">
   <ele>23.00</ele>
   <time>2014-03-29T12:31:32Z</time>
  </trkpt>
  <trkpt lat="34.304834" lon="-6.507287">
   <ele>20.00</ele>
   <time>2014-03-29T12:31:47Z</time>
  </trkpt>
  <trkpt lat="34.302127" lon="-6.505722">
   <ele>19.00</ele>
   <time>2014-03-29T12:32:02Z</time>
  </trkpt>
  <trkpt lat="34.298968" lon="-6.503949">
   <ele>21.00</ele>
   <time>2014-03-29T12:32:17Z</time>
  </trkpt>
  <trkpt lat="34.298064" lon="-6.503516">
   <ele>22.00</ele>
   <time>2014-03-29T12:32:21Z</time>
  </trkpt>
  <trkpt lat="34.297368" lon="-6.503225">
   <ele>21.00</ele>
   <time>2014-03-29T12:32:24Z</time>
  </trkpt>
  <trkpt lat="34.296657" lon="-6.502968">
   <ele>19.00</ele>
   <time>2014-03-29T12:32:27Z</time>
  </trkpt>
  <trkpt lat="34.295932" lon="-6.502743">
   <ele>19.00</ele>
   <time>2014-03-29T12:32:30Z</time>
  </trkpt>
  <trkpt lat="34.295196" lon="-6.502554">
   <ele>18.00</ele>
   <time>2014-03-29T12:32:33Z</time>
  </trkpt>
  <trkpt lat="34.294446" lon="-6.502401">
   <ele>17.00</ele>
   <time>2014-03-29T12:32:36Z</time>
  </trkpt>
  <trkpt lat="34.293683" lon="-6.502287">
   <ele>17.00</ele>
   <time>2014-03-29T12:32:39Z</time>
  </trkpt>
  <trkpt lat="34.292644" lon="-6.502187">
   <ele>16.00</ele>
   <time>2014-03-29T12:32:43Z</time>
  </trkpt>
  <trkpt lat="34.292116" lon="-6.502168">
   <ele>15.00</ele>
   <time>2014-03-29T12:32:45Z</time>
  </trkpt>
  <trkpt lat="34.291332" lon="-6.502186">
   <ele>14.00</ele>
   <time>2014-03-29T12:32:48Z</time>
  </trkpt>
  <trkpt lat="34.290555" lon="-6.502249">
   <ele>13.00</ele>
   <time>2014-03-29T12:32:51Z</time>
  </trkpt>
  <trkpt lat="34.289775" lon="-6.502348">
   <ele>12.00</ele>
   <time>2014-03-29T12:32:54Z</time>
  </trkpt>
  <trkpt lat="34.289254" lon="-6.502438">
   <ele>12.00</ele>
   <time>2014-03-29T12:32:56Z</time>
  </trkpt>
  <trkpt lat="34.288477" lon="-6.502611">
   <ele>13.00</ele>
   <time>2014-03-29T12:32:59Z</time>
  </trkpt>
  <trkpt lat="34.284292" lon="-6.503569">
   <ele>18.00</ele>
   <time>2014-03-29T12:33:15Z</time>
  </trkpt>
  <trkpt lat="34.281098" lon="-6.504373">
   <ele>22.00</ele>
   <time>2014-03-29T12:33:27Z</time>
  </trkpt>
  <trkpt lat="34.278968" lon="-6.505012">
   <ele>24.00</ele>
   <time>2014-03-29T12:33:35Z</time>
  </trkpt>
  <trkpt lat="34.277108" lon="-6.505683">
   <ele>26.00</ele>
   <time>2014-03-29T12:33:42Z</time>
  </trkpt>
  <trkpt lat="34.274765" lon="-6.506650">
   <ele>26.00</ele>
   <time>2014-03-29T12:33:51Z</time>
  </trkpt>
  <trkpt lat="34.270872" lon="-6.508289">
   <ele>23.00</ele>
   <time>2014-03-29T12:34:06Z</time>
  </trkpt>
  <trkpt lat="34.267025" lon="-6.509924">
   <ele>23.00</ele>
   <time>2014-03-29T12:34:21Z</time>
  </trkpt>
  <trkpt lat="34.262921" lon="-6.511671">
   <ele>24.00</ele>
   <time>2014-03-29T12:34:37Z</time>
  </trkpt>
  <trkpt lat="34.259079" lon="-6.513305">
   <ele>22.00</ele>
   <time>2014-03-29T12:34:52Z</time>
  </trkpt>
  <trkpt lat="34.255271" lon="-6.514917">
   <ele>23.00</ele>
   <time>2014-03-29T12:35:07Z</time>
  </trkpt>
  <trkpt lat="34.253488" lon="-6.515597">
   <ele>24.00</ele>
   <time>2014-03-29T12:35:14Z</time>
  </trkpt>
  <trkpt lat="34.251948" lon="-6.516111">
   <ele>25.00</ele>
   <time>2014-03-29T12:35:20Z</time>
  </trkpt>
  <trkpt lat="34.250381" lon="-6.516554">
   <ele>23.00</ele>
   <time>2014-03-29T12:35:26Z</time>
  </trkpt>
  <trkpt lat="34.248529" lon="-6.516987">
   <ele>22.00</ele>
   <time>2014-03-29T12:35:33Z</time>
  </trkpt>
  <trkpt lat="34.246662" lon="-6.517333">
   <ele>22.00</ele>
   <time>2014-03-29T12:35:40Z</time>
  </trkpt>
  <trkpt lat="34.242601" lon="-6.517960">
   <ele>19.00</ele>
   <time>2014-03-29T12:35:55Z</time>
  </trkpt>
  <trkpt lat="34.238373" lon="-6.518617">
   <ele>23.00</ele>
   <time>2014-03-29T12:36:11Z</time>
  </trkpt>
  <trkpt lat="34.237083" lon="-6.518848">
   <ele>25.00</ele>
   <time>2014-03-29T12:36:16Z</time>
  </trkpt>
  <trkpt lat="34.236572" lon="-6.518972">
   <ele>26.00</ele>
   <time>2014-03-29T12:36:18Z</time>
  </trkpt>
  <trkpt lat="34.236063" lon="-6.519122">
   <ele>26.00</ele>
   <time>2014-03-29T12:36:20Z</time>
  </trkpt>
  <trkpt lat="34.235308" lon="-6.519389">
   <ele>28.00</ele>
   <time>2014-03-29T12:36:23Z</time>
  </trkpt>
  <trkpt lat="34.234813" lon="-6.519596">
   <ele>28.00</ele>
   <time>2014-03-29T12:36:25Z</time>
  </trkpt>
  <trkpt lat="34.234325" lon="-6.519826">
   <ele>29.00</ele>
   <time>2014-03-29T12:36:27Z</time>
  </trkpt>
  <trkpt lat="34.233605" lon="-6.520211">
   <ele>29.00</ele>
   <time>2014-03-29T12:36:30Z</time>
  </trkpt>
  <trkpt lat="34.233134" lon="-6.520498">
   <ele>30.00</ele>
   <time>2014-03-29T12:36:32Z</time>
  </trkpt>
  <trkpt lat="34.232672" lon="-6.520807">
   <ele>30.00</ele>
   <time>2014-03-29T12:36:34Z</time>
  </trkpt>
  <trkpt lat="34.232220" lon="-6.521141">
   <ele>31.00</ele>
   <time>2014-03-29T12:36:36Z</time>
  </trkpt>
  <trkpt lat="34.231778" lon="-6.521494">
   <ele>31.00</ele>
   <time>2014-03-29T12:36:38Z</time>
  </trkpt>
  <trkpt lat="34.231352" lon="-6.521868">
   <ele>32.00</ele>
   <time>2014-03-29T12:36:40Z</time>
  </trkpt>
  <trkpt lat="34.230941" lon="-6.522260">
   <ele>32.00</ele>
   <time>2014-03-29T12:36:42Z</time>
  </trkpt>
  <trkpt lat="34.230547" lon="-6.522671">
   <ele>32.00</ele>
   <time>2014-03-29T12:36:44Z</time>
  </trkpt>
  <trkpt lat="34.230168" lon="-6.523099">
   <ele>31.00</ele>
   <time>2014-03-29T12:36:46Z</time>
  </trkpt>
  <trkpt lat="34.229621" lon="-6.523768">
   <ele>31.00</ele>
   <time>2014-03-29T12:36:49Z</time>
  </trkpt>
  <trkpt lat="34.229271" lon="-6.524240">
   <ele>31.00</ele>
   <time>2014-03-29T12:36:51Z</time>
  </trkpt>
  <trkpt lat="34.228939" lon="-6.524731">
   <ele>30.00</ele>
   <time>2014-03-29T12:36:53Z</time>
  </trkpt>
  <trkpt lat="34.226242" lon="-6.529049">
   <ele>35.00</ele>
   <time>2014-03-29T12:37:10Z</time>
  </trkpt>
  <trkpt lat="34.225635" lon="-6.530076">
   <ele>38.00</ele>
   <time>2014-03-29T12:37:14Z</time>
  </trkpt>
  <trkpt lat="34.224927" lon="-6.531399">
   <ele>42.00</ele>
   <time>2014-03-29T12:37:19Z</time>
  </trkpt>
  <trkpt lat="34.224663" lon="-6.531942">
   <ele>43.00</ele>
   <time>2014-03-29T12:37:21Z</time>
  </trkpt>
  <trkpt lat="34.224417" lon="-6.532505">
   <ele>45.00</ele>
   <time>2014-03-29T12:37:23Z</time>
  </trkpt>
  <trkpt lat="34.224193" lon="-6.533083">
   <ele>47.00</ele>
   <time>2014-03-29T12:37:25Z</time>
  </trkpt>
  <trkpt lat="34.223889" lon="-6.533966">
   <ele>49.00</ele>
   <time>2014-03-29T12:37:28Z</time>
  </trkpt>
  <trkpt lat="34.223626" lon="-6.534864">
   <ele>50.00</ele>
   <time>2014-03-29T12:37:31Z</time>
  </trkpt>
  <trkpt lat="34.223477" lon="-6.535466">
   <ele>51.00</ele>
   <time>2014-03-29T12:37:33Z</time>
  </trkpt>
  <trkpt lat="34.223352" lon="-6.536073">
   <ele>51.00</ele>
   <time>2014-03-29T12:37:35Z</time>
  </trkpt>
  <trkpt lat="34.223248" lon="-6.536687">
   <ele>52.00</ele>
   <time>2014-03-29T12:37:37Z</time>
  </trkpt>
  <trkpt lat="34.223124" lon="-6.537621">
   <ele>53.00</ele>
   <time>2014-03-29T12:37:40Z</time>
  </trkpt>
  <trkpt lat="34.223069" lon="-6.538248">
   <ele>53.00</ele>
   <time>2014-03-29T12:37:42Z</time>
  </trkpt>
  <trkpt lat="34.223020" lon="-6.539197">
   <ele>53.00</ele>
   <time>2014-03-29T12:37:45Z</time>
  </trkpt>
  <trkpt lat="34.223015" lon="-6.539831">
   <ele>53.00</ele>
   <time>2014-03-29T12:37:47Z</time>
  </trkpt>
  <trkpt lat="34.223031" lon="-6.540466">
   <ele>53.00</ele>
   <time>2014-03-29T12:37:49Z</time>
  </trkpt>
  <trkpt lat="34.223068" lon="-6.541102">
   <ele>54.00</ele>
   <time>2014-03-29T12:37:51Z</time>
  </trkpt>
  <trkpt lat="34.223126" lon="-6.541734">
   <ele>54.00</ele>
   <time>2014-03-29T12:37:53Z</time>
  </trkpt>
  <trkpt lat="34.223205" lon="-6.542363">
   <ele>55.00</ele>
   <time>2014-03-29T12:37:55Z</time>
  </trkpt>
  <trkpt lat="34.223302" lon="-6.542988">
   <ele>55.00</ele>
   <time>2014-03-29T12:37:57Z</time>
  </trkpt>
  <trkpt lat="34.223486" lon="-6.543923">
   <ele>55.00</ele>
   <time>2014-03-29T12:38:00Z</time>
  </trkpt>
  <trkpt lat="34.223634" lon="-6.544547">
   <ele>55.00</ele>
   <time>2014-03-29T12:38:02Z</time>
  </trkpt>
  <trkpt lat="34.223808" lon="-6.545164">
   <ele>55.00</ele>
   <time>2014-03-29T12:38:04Z</time>
  </trkpt>
  <trkpt lat="34.224106" lon="-6.546075">
   <ele>55.00</ele>
   <time>2014-03-29T12:38:07Z</time>
  </trkpt>
  <trkpt lat="34.224445" lon="-6.546970">
   <ele>56.00</ele>
   <time>2014-03-29T12:38:10Z</time>
  </trkpt>
  <trkpt lat="34.226168" lon="-6.551471">
   <ele>52.00</ele>
   <time>2014-03-29T12:38:25Z</time>
  </trkpt>
  <trkpt lat="34.227981" lon="-6.556199">
   <ele>48.00</ele>
   <time>2014-03-29T12:38:41Z</time>
  </trkpt>
  <trkpt lat="34.229087" lon="-6.559153">
   <ele>46.00</ele>
   <time>2014-03-29T12:38:51Z</time>
  </trkpt>
  <trkpt lat="34.229360" lon="-6.560006">
   <ele>45.00</ele>
   <time>2014-03-29T12:38:54Z</time>
  </trkpt>
  <trkpt lat="34.229589" lon="-6.560838">
   <ele>45.00</ele>
   <time>2014-03-29T12:38:57Z</time>
  </trkpt>
  <trkpt lat="34.229788" lon="-6.561673">
   <ele>44.00</ele>
   <time>2014-03-29T12:39:00Z</time>
  </trkpt>
  <trkpt lat="34.229959" lon="-6.562514">
   <ele>44.00</ele>
   <time>2014-03-29T12:39:03Z</time>
  </trkpt>
  <trkpt lat="34.230092" lon="-6.563320">
   <ele>44.00</ele>
   <time>2014-03-29T12:39:06Z</time>
  </trkpt>
  <trkpt lat="34.230277" lon="-6.564722">
   <ele>44.00</ele>
   <time>2014-03-29T12:39:12Z</time>
  </trkpt>
  <trkpt lat="34.230364" lon="-6.565486">
   <ele>44.00</ele>
   <time>2014-03-29T12:39:16Z</time>
  </trkpt>
  <trkpt lat="34.230434" lon="-6.565821">
   <ele>44.00</ele>
   <time>2014-03-29T12:39:18Z</time>
  </trkpt>
  <trkpt lat="34.230539" lon="-6.566152">
   <ele>43.00</ele>
   <time>2014-03-29T12:39:20Z</time>
  </trkpt>
  <trkpt lat="34.230684" lon="-6.566472">
   <ele>42.00</ele>
   <time>2014-03-29T12:39:22Z</time>
  </trkpt>
  <trkpt lat="34.231084" lon="-6.567241">
   <ele>40.00</ele>
   <time>2014-03-29T12:39:27Z</time>
  </trkpt>
  <trkpt lat="34.231232" lon="-6.567583">
   <ele>40.00</ele>
   <time>2014-03-29T12:39:29Z</time>
  </trkpt>
  <trkpt lat="34.231356" lon="-6.567942">
   <ele>40.00</ele>
   <time>2014-03-29T12:39:31Z</time>
  </trkpt>
  <trkpt lat="34.232094" lon="-6.570438">
   <ele>41.00</ele>
   <time>2014-03-29T12:39:46Z</time>
  </trkpt>
  <trkpt lat="34.232185" lon="-6.570658">
   <ele>42.00</ele>
   <time>2014-03-29T12:39:50Z</time>
  </trkpt>
  <trkpt lat="34.232213" lon="-6.570871">
   <ele>44.00</ele>
   <time>2014-03-29T12:40:05Z</time>
  </trkpt>
  <trkpt lat="34.232000" lon="-6.570908">
   <ele>45.00</ele>
   <time>2014-03-29T12:40:09Z</time>
  </trkpt>
  <trkpt lat="34.231726" lon="-6.570882">
   <ele>45.00</ele>
   <time>2014-03-29T12:40:12Z</time>
  </trkpt>
  <trkpt lat="34.229928" lon="-6.570695">
   <ele>53.00</ele>
   <time>2014-03-29T12:40:27Z</time>
  </trkpt>
  <trkpt lat="34.229361" lon="-6.570684">
   <ele>54.00</ele>
   <time>2014-03-29T12:40:31Z</time>
  </trkpt>
  <trkpt lat="34.229092" lon="-6.570741">
   <ele>55.00</ele>
   <time>2014-03-29T12:40:33Z</time>
  </trkpt>
  <trkpt lat="34.228863" lon="-6.570861">
   <ele>55.00</ele>
   <time>2014-03-29T12:40:35Z</time>
  </trkpt>
  <trkpt lat="34.228690" lon="-6.571007">
   <ele>56.00</ele>
   <time>2014-03-29T12:40:37Z</time>
  </trkpt>
  <trkpt lat="34.228504" lon="-6.571157">
   <ele>56.00</ele>
   <time>2014-03-29T12:40:40Z</time>
  </trkpt>
  <trkpt lat="34.228342" lon="-6.571070">
   <ele>55.00</ele>
   <time>2014-03-29T12:40:44Z</time>
  </trkpt>
  <trkpt lat="34.228150" lon="-6.570847">
   <ele>54.00</ele>
   <time>2014-03-29T12:40:48Z</time>
  </trkpt>
  <trkpt lat="34.227932" lon="-6.570689">
   <ele>54.00</ele>
   <time>2014-03-29T12:40:51Z</time>
  </trkpt>
  <trkpt lat="34.227743" lon="-6.570610">
   <ele>54.00</ele>
   <time>2014-03-29T12:40:53Z</time>
  </trkpt>
  <trkpt lat="34.227518" lon="-6.570568">
   <ele>56.00</ele>
   <time>2014-03-29T12:40:55Z</time>
  </trkpt>
  <trkpt lat="34.227265" lon="-6.570567">
   <ele>57.00</ele>
   <time>2014-03-29T12:40:57Z</time>
  </trkpt>
  <trkpt lat="34.226041" lon="-6.570643">
   <ele>65.00</ele>
   <time>2014-03-29T12:41:07Z</time>
  </trkpt>
  <trkpt lat="34.225768" lon="-6.570685">
   <ele>67.00</ele>
   <time>2014-03-29T12:41:11Z</time>
  </trkpt>
  <trkpt lat="34.225667" lon="-6.570717">
   <ele>65.00</ele>
   <time>2014-03-29T12:41:27Z</time>
  </trkpt>
  <trkpt lat="34.225672" lon="-6.570719">
   <ele>65.00</ele>
   <time>2014-03-29T12:41:42Z</time>
  </trkpt>
  <trkpt lat="34.225673" lon="-6.570721">
   <ele>64.00</ele>
   <time>2014-03-29T12:41:57Z</time>
  </trkpt>
  <trkpt lat="34.225682" lon="-6.570716">
   <ele>65.00</ele>
   <time>2014-03-29T12:42:12Z</time>
  </trkpt>
  <trkpt lat="34.225678" lon="-6.570719">
   <ele>65.00</ele>
   <time>2014-03-29T12:42:28Z</time>
  </trkpt>
  <trkpt lat="34.225674" lon="-6.570718">
   <ele>65.00</ele>
   <time>2014-03-29T12:42:43Z</time>
  </trkpt>
  <trkpt lat="34.225671" lon="-6.570719">
   <ele>64.00</ele>
   <time>2014-03-29T12:42:58Z</time>
  </trkpt>
  <trkpt lat="34.225670" lon="-6.570717">
   <ele>64.00</ele>
   <time>2014-03-29T12:43:14Z</time>
  </trkpt>
  <trkpt lat="34.225668" lon="-6.570712">
   <ele>64.00</ele>
   <time>2014-03-29T12:43:29Z</time>
  </trkpt>
  <trkpt lat="34.225660" lon="-6.570712">
   <ele>63.00</ele>
   <time>2014-03-29T12:43:44Z</time>
  </trkpt>
  <trkpt lat="34.225659" lon="-6.570709">
   <ele>64.00</ele>
   <time>2014-03-29T12:44:00Z</time>
  </trkpt>
  <trkpt lat="34.225654" lon="-6.570711">
   <ele>63.00</ele>
   <time>2014-03-29T12:44:15Z</time>
  </trkpt>
  <trkpt lat="34.225651" lon="-6.570709">
   <ele>63.00</ele>
   <time>2014-03-29T12:44:30Z</time>
  </trkpt>
  <trkpt lat="34.225663" lon="-6.570695">
   <ele>61.00</ele>
   <time>2014-03-29T12:44:46Z</time>
  </trkpt>
  <trkpt lat="34.225664" lon="-6.570695">
   <ele>61.00</ele>
   <time>2014-03-29T12:45:01Z</time>
  </trkpt>
  <trkpt lat="34.225662" lon="-6.570694">
   <ele>62.00</ele>
   <time>2014-03-29T12:45:16Z</time>
  </trkpt>
  <trkpt lat="34.225655" lon="-6.570697">
   <ele>64.00</ele>
   <time>2014-03-29T12:45:32Z</time>
  </trkpt>
  <trkpt lat="34.225652" lon="-6.570699">
   <ele>64.00</ele>
   <time>2014-03-29T12:45:47Z</time>
  </trkpt>
  <trkpt lat="34.225650" lon="-6.570698">
   <ele>65.00</ele>
   <time>2014-03-29T12:46:02Z</time>
  </trkpt>
  <trkpt lat="34.225648" lon="-6.570696">
   <ele>66.00</ele>
   <time>2014-03-29T12:46:18Z</time>
  </trkpt>
  <trkpt lat="34.225644" lon="-6.570697">
   <ele>67.00</ele>
   <time>2014-03-29T12:46:33Z</time>
  </trkpt>
  <trkpt lat="34.225644" lon="-6.570696">
   <ele>67.00</ele>
   <time>2014-03-29T12:46:48Z</time>
  </trkpt>
  <trkpt lat="34.225645" lon="-6.570694">
   <ele>67.00</ele>
   <time>2014-03-29T12:47:04Z</time>
  </trkpt>
  <trkpt lat="34.225649" lon="-6.570691">
   <ele>67.00</ele>
   <time>2014-03-29T12:47:19Z</time>
  </trkpt>
  <trkpt lat="34.225651" lon="-6.570688">
   <ele>68.00</ele>
   <time>2014-03-29T12:47:34Z</time>
  </trkpt>
  <trkpt lat="34.225653" lon="-6.570689">
   <ele>67.00</ele>
   <time>2014-03-29T12:47:49Z</time>
  </trkpt>
  <trkpt lat="34.225661" lon="-6.570694">
   <ele>68.00</ele>
   <time>2014-03-29T12:48:05Z</time>
  </trkpt>
  <trkpt lat="34.225666" lon="-6.570695">
   <ele>70.00</ele>
   <time>2014-03-29T12:48:20Z</time>
  </trkpt>
  <trkpt lat="34.225665" lon="-6.570695">
   <ele>71.00</ele>
   <time>2014-03-29T12:48:35Z</time>
  </trkpt>
  <trkpt lat="34.225663" lon="-6.570697">
   <ele>70.00</ele>
   <time>2014-03-29T12:48:51Z</time>
  </trkpt>
  <trkpt lat="34.225664" lon="-6.570700">
   <ele>69.00</ele>
   <time>2014-03-29T12:49:06Z</time>
  </trkpt>
  <trkpt lat="34.225663" lon="-6.570704">
   <ele>69.00</ele>
   <time>2014-03-29T12:49:22Z</time>
  </trkpt>
  <trkpt lat="34.225618" lon="-6.570701">
   <ele>66.00</ele>
   <time>2014-03-29T12:49:37Z</time>
  </trkpt>
  <trkpt lat="34.225396" lon="-6.570670">
   <ele>63.00</ele>
   <time>2014-03-29T12:49:53Z</time>
  </trkpt>
  <trkpt lat="34.225204" lon="-6.570686">
   <ele>66.00</ele>
   <time>2014-03-29T12:49:56Z</time>
  </trkpt>
  <trkpt lat="34.223620" lon="-6.570800">
   <ele>75.00</ele>
   <time>2014-03-29T12:50:11Z</time>
  </trkpt>
  <trkpt lat="34.222111" lon="-6.570978">
   <ele>76.00</ele>
   <time>2014-03-29T12:50:21Z</time>
  </trkpt>
  <trkpt lat="34.220585" lon="-6.571227">
   <ele>75.00</ele>
   <time>2014-03-29T12:50:30Z</time>
  </trkpt>
  <trkpt lat="34.218277" lon="-6.571731">
   <ele>74.00</ele>
   <time>2014-03-29T12:50:43Z</time>
  </trkpt>
  <trkpt lat="34.216649" lon="-6.572184">
   <ele>74.00</ele>
   <time>2014-03-29T12:50:52Z</time>
  </trkpt>
  <trkpt lat="34.213880" lon="-6.573091">
   <ele>82.00</ele>
   <time>2014-03-29T12:51:07Z</time>
  </trkpt>
  <trkpt lat="34.210747" lon="-6.574148">
   <ele>90.00</ele>
   <time>2014-03-29T12:51:23Z</time>
  </trkpt>
  <trkpt lat="34.207705" lon="-6.575154">
   <ele>95.00</ele>
   <time>2014-03-29T12:51:38Z</time>
  </trkpt>
  <trkpt lat="34.204612" lon="-6.576180">
   <ele>98.00</ele>
   <time>2014-03-29T12:51:53Z</time>
  </trkpt>
  <trkpt lat="34.201259" lon="-6.577296">
   <ele>101.00</ele>
   <time>2014-03-29T12:52:09Z</time>
  </trkpt>
  <trkpt lat="34.198003" lon="-6.578385">
   <ele>106.00</ele>
   <time>2014-03-29T12:52:24Z</time>
  </trkpt>
  <trkpt lat="34.194512" lon="-6.579543">
   <ele>115.00</ele>
   <time>2014-03-29T12:52:40Z</time>
  </trkpt>
  <trkpt lat="34.192200" lon="-6.580276">
   <ele>120.00</ele>
   <time>2014-03-29T12:52:51Z</time>
  </trkpt>
  <trkpt lat="34.189633" lon="-6.580920">
   <ele>114.00</ele>
   <time>2014-03-29T12:53:04Z</time>
  </trkpt>
  <trkpt lat="34.187598" lon="-6.581283">
   <ele>111.00</ele>
   <time>2014-03-29T12:53:15Z</time>
  </trkpt>
  <trkpt lat="34.186115" lon="-6.581487">
   <ele>110.00</ele>
   <time>2014-03-29T12:53:23Z</time>
  </trkpt>
  <trkpt lat="34.184546" lon="-6.581628">
   <ele>112.00</ele>
   <time>2014-03-29T12:53:32Z</time>
  </trkpt>
  <trkpt lat="34.182432" lon="-6.581725">
   <ele>119.00</ele>
   <time>2014-03-29T12:53:44Z</time>
  </trkpt>
  <trkpt lat="34.180965" lon="-6.581713">
   <ele>121.00</ele>
   <time>2014-03-29T12:53:52Z</time>
  </trkpt>
  <trkpt lat="34.179123" lon="-6.581623">
   <ele>121.00</ele>
   <time>2014-03-29T12:54:02Z</time>
  </trkpt>
  <trkpt lat="34.177446" lon="-6.581459">
   <ele>122.00</ele>
   <time>2014-03-29T12:54:11Z</time>
  </trkpt>
  <trkpt lat="34.175945" lon="-6.581248">
   <ele>122.00</ele>
   <time>2014-03-29T12:54:19Z</time>
  </trkpt>
  <trkpt lat="34.174135" lon="-6.580907">
   <ele>123.00</ele>
   <time>2014-03-29T12:54:29Z</time>
  </trkpt>
  <trkpt lat="34.173050" lon="-6.580655">
   <ele>123.00</ele>
   <time>2014-03-29T12:54:35Z</time>
  </trkpt>
  <trkpt lat="34.170514" lon="-6.579938">
   <ele>125.00</ele>
   <time>2014-03-29T12:54:49Z</time>
  </trkpt>
  <trkpt lat="34.169085" lon="-6.579456">
   <ele>126.00</ele>
   <time>2014-03-29T12:54:57Z</time>
  </trkpt>
  <trkpt lat="34.167462" lon="-6.578833">
   <ele>124.00</ele>
   <time>2014-03-29T12:55:06Z</time>
  </trkpt>
  <trkpt lat="34.166535" lon="-6.578428">
   <ele>122.00</ele>
   <time>2014-03-29T12:55:11Z</time>
  </trkpt>
  <trkpt lat="34.164442" lon="-6.577469">
   <ele>120.00</ele>
   <time>2014-03-29T12:55:20Z</time>
  </trkpt>
  <trkpt lat="34.160939" lon="-6.575908">
   <ele>124.00</ele>
   <time>2014-03-29T12:55:35Z</time>
  </trkpt>
  <trkpt lat="34.157342" lon="-6.574279">
   <ele>121.00</ele>
   <time>2014-03-29T12:55:51Z</time>
  </trkpt>
  <trkpt lat="34.153929" lon="-6.572734">
   <ele>106.00</ele>
   <time>2014-03-29T12:56:06Z</time>
  </trkpt>
  <trkpt lat="34.150538" lon="-6.571204">
   <ele>98.00</ele>
   <time>2014-03-29T12:56:21Z</time>
  </trkpt>
  <trkpt lat="34.147058" lon="-6.569631">
   <ele>100.00</ele>
   <time>2014-03-29T12:56:37Z</time>
  </trkpt>
  <trkpt lat="34.143709" lon="-6.568122">
   <ele>108.00</ele>
   <time>2014-03-29T12:56:52Z</time>
  </trkpt>
  <trkpt lat="34.140453" lon="-6.566650">
   <ele>120.00</ele>
   <time>2014-03-29T12:57:07Z</time>
  </trkpt>
  <trkpt lat="34.136959" lon="-6.565071">
   <ele>125.00</ele>
   <time>2014-03-29T12:57:23Z</time>
  </trkpt>
  <trkpt lat="34.133704" lon="-6.563646">
   <ele>120.00</ele>
   <time>2014-03-29T12:57:38Z</time>
  </trkpt>
  <trkpt lat="34.132156" lon="-6.563081">
   <ele>119.00</ele>
   <time>2014-03-29T12:57:45Z</time>
  </trkpt>
  <trkpt lat="34.130229" lon="-6.562464">
   <ele>121.00</ele>
   <time>2014-03-29T12:57:54Z</time>
  </trkpt>
  <trkpt lat="34.129297" lon="-6.562215">
   <ele>124.00</ele>
   <time>2014-03-29T12:57:59Z</time>
  </trkpt>
  <trkpt lat="34.126976" lon="-6.561701">
   <ele>125.00</ele>
   <time>2014-03-29T12:58:12Z</time>
  </trkpt>
  <trkpt lat="34.123806" lon="-6.561152">
   <ele>116.00</ele>
   <time>2014-03-29T12:58:27Z</time>
  </trkpt>
  <trkpt lat="34.120557" lon="-6.560624">
   <ele>99.00</ele>
   <time>2014-03-29T12:58:42Z</time>
  </trkpt>
  <trkpt lat="34.117140" lon="-6.560064">
   <ele>89.00</ele>
   <time>2014-03-29T12:58:58Z</time>
  </trkpt>
  <trkpt lat="34.113986" lon="-6.559544">
   <ele>102.00</ele>
   <time>2014-03-29T12:59:13Z</time>
  </trkpt>
  <trkpt lat="34.111083" lon="-6.559069">
   <ele>118.00</ele>
   <time>2014-03-29T12:59:28Z</time>
  </trkpt>
  <trkpt lat="34.108187" lon="-6.558592">
   <ele>129.00</ele>
   <time>2014-03-29T12:59:44Z</time>
  </trkpt>
  <trkpt lat="34.105624" lon="-6.558182">
   <ele>138.00</ele>
   <time>2014-03-29T12:59:59Z</time>
  </trkpt>
  <trkpt lat="34.102884" lon="-6.557742">
   <ele>147.00</ele>
   <time>2014-03-29T13:00:14Z</time>
  </trkpt>
  <trkpt lat="34.099581" lon="-6.557181">
   <ele>141.00</ele>
   <time>2014-03-29T13:00:30Z</time>
  </trkpt>
  <trkpt lat="34.096269" lon="-6.556635">
   <ele>130.00</ele>
   <time>2014-03-29T13:00:45Z</time>
  </trkpt>
  <trkpt lat="34.093117" lon="-6.556109">
   <ele>133.00</ele>
   <time>2014-03-29T13:01:00Z</time>
  </trkpt>
  <trkpt lat="34.090691" lon="-6.555687">
   <ele>136.00</ele>
   <time>2014-03-29T13:01:10Z</time>
  </trkpt>
  <trkpt lat="34.086856" lon="-6.555097">
   <ele>144.00</ele>
   <time>2014-03-29T13:01:25Z</time>
  </trkpt>
  <trkpt lat="34.083212" lon="-6.554499">
   <ele>152.00</ele>
   <time>2014-03-29T13:01:40Z</time>
  </trkpt>
  <trkpt lat="34.079546" lon="-6.553897">
   <ele>147.00</ele>
   <time>2014-03-29T13:01:55Z</time>
  </trkpt>
  <trkpt lat="34.075581" lon="-6.553247">
   <ele>148.00</ele>
   <time>2014-03-29T13:02:11Z</time>
  </trkpt>
  <trkpt lat="34.071887" lon="-6.552631">
   <ele>151.00</ele>
   <time>2014-03-29T13:02:26Z</time>
  </trkpt>
  <trkpt lat="34.068232" lon="-6.552034">
   <ele>157.00</ele>
   <time>2014-03-29T13:02:41Z</time>
  </trkpt>
  <trkpt lat="34.064912" lon="-6.551527">
   <ele>164.00</ele>
   <time>2014-03-29T13:02:55Z</time>
  </trkpt>
  <trkpt lat="34.063247" lon="-6.551385">
   <ele>165.00</ele>
   <time>2014-03-29T13:03:02Z</time>
  </trkpt>
  <trkpt lat="34.059704" lon="-6.551153">
   <ele>162.00</ele>
   <time>2014-03-29T13:03:17Z</time>
  </trkpt>
  <trkpt lat="34.056169" lon="-6.550903">
   <ele>159.00</ele>
   <time>2014-03-29T13:03:33Z</time>
  </trkpt>
  <trkpt lat="34.054898" lon="-6.550818">
   <ele>158.00</ele>
   <time>2014-03-29T13:03:41Z</time>
  </trkpt>
  <trkpt lat="34.054831" lon="-6.551003">
   <ele>157.00</ele>
   <time>2014-03-29T13:03:47Z</time>
  </trkpt>
  <trkpt lat="34.054845" lon="-6.551096">
   <ele>151.00</ele>
   <time>2014-03-29T13:04:03Z</time>
  </trkpt>
  <trkpt lat="34.054772" lon="-6.551303">
   <ele>152.00</ele>
   <time>2014-03-29T13:04:09Z</time>
  </trkpt>
  <trkpt lat="34.054669" lon="-6.551502">
   <ele>153.00</ele>
   <time>2014-03-29T13:04:14Z</time>
  </trkpt>
  <trkpt lat="34.054525" lon="-6.551620">
   <ele>153.00</ele>
   <time>2014-03-29T13:04:20Z</time>
  </trkpt>
  <trkpt lat="34.054504" lon="-6.551613">
   <ele>154.00</ele>
   <time>2014-03-29T13:04:23Z</time>
  </trkpt>
 </trkseg>
 <trkseg>
  <trkpt lat="34.054510" lon="-6.551622">
   <ele>150.00</ele>
   <time>2014-03-29T13:41:36Z</time>
  </trkpt>
  <trkpt lat="34.054563" lon="-6.551478">
   <ele>151.00</ele>
   <time>2014-03-29T13:41:51Z</time>
  </trkpt>
  <trkpt lat="34.054745" lon="-6.551373">
   <ele>152.00</ele>
   <time>2014-03-29T13:42:00Z</time>
  </trkpt>
  <trkpt lat="34.054851" lon="-6.551173">
   <ele>151.00</ele>
   <time>2014-03-29T13:42:07Z</time>
  </trkpt>
  <trkpt lat="34.054891" lon="-6.550934">
   <ele>151.00</ele>
   <time>2014-03-29T13:42:14Z</time>
  </trkpt>
  <trkpt lat="34.054895" lon="-6.550889">
   <ele>151.00</ele>
   <time>2014-03-29T13:42:29Z</time>
  </trkpt>
  <trkpt lat="34.054894" lon="-6.550885">
   <ele>152.00</ele>
   <time>2014-03-29T13:42:45Z</time>
  </trkpt>
  <trkpt lat="34.054896" lon="-6.550881">
   <ele>153.00</ele>
   <time>2014-03-29T13:43:00Z</time>
  </trkpt>
  <trkpt lat="34.054754" lon="-6.550787">
   <ele>154.00</ele>
   <time>2014-03-29T13:43:14Z</time>
  </trkpt>
  <trkpt lat="34.054517" lon="-6.550765">
   <ele>153.00</ele>
   <time>2014-03-29T13:43:18Z</time>
  </trkpt>
  <trkpt lat="34.052771" lon="-6.550640">
   <ele>151.00</ele>
   <time>2014-03-29T13:43:34Z</time>
  </trkpt>
  <trkpt lat="34.049972" lon="-6.550446">
   <ele>151.00</ele>
   <time>2014-03-29T13:43:50Z</time>
  </trkpt>
  <trkpt lat="34.047069" lon="-6.550239">
   <ele>158.00</ele>
   <time>2014-03-29T13:44:05Z</time>
  </trkpt>
  <trkpt lat="34.043792" lon="-6.550001">
   <ele>164.00</ele>
   <time>2014-03-29T13:44:21Z</time>
  </trkpt>
  <trkpt lat="34.040518" lon="-6.549766">
   <ele>164.00</ele>
   <time>2014-03-29T13:44:36Z</time>
  </trkpt>
  <trkpt lat="34.036903" lon="-6.549506">
   <ele>160.00</ele>
   <time>2014-03-29T13:44:52Z</time>
  </trkpt>
  <trkpt lat="34.033503" lon="-6.549258">
   <ele>157.00</ele>
   <time>2014-03-29T13:45:07Z</time>
  </trkpt>
  <trkpt lat="34.029874" lon="-6.548990">
   <ele>156.00</ele>
   <time>2014-03-29T13:45:23Z</time>
  </trkpt>
  <trkpt lat="34.026733" lon="-6.548747">
   <ele>159.00</ele>
   <time>2014-03-29T13:45:37Z</time>
  </trkpt>
  <trkpt lat="34.026066" lon="-6.548648">
   <ele>161.00</ele>
   <time>2014-03-29T13:45:40Z</time>
  </trkpt>
  <trkpt lat="34.025177" lon="-6.548472">
   <ele>162.00</ele>
   <time>2014-03-29T13:45:44Z</time>
  </trkpt>
  <trkpt lat="34.024505" lon="-6.548304">
   <ele>163.00</ele>
   <time>2014-03-29T13:45:47Z</time>
  </trkpt>
  <trkpt lat="34.023830" lon="-6.548094">
   <ele>164.00</ele>
   <time>2014-03-29T13:45:50Z</time>
  </trkpt>
  <trkpt lat="34.022946" lon="-6.547771">
   <ele>166.00</ele>
   <time>2014-03-29T13:45:54Z</time>
  </trkpt>
  <trkpt lat="34.022295" lon="-6.547490">
   <ele>167.00</ele>
   <time>2014-03-29T13:45:57Z</time>
  </trkpt>
  <trkpt lat="34.021648" lon="-6.547175">
   <ele>169.00</ele>
   <time>2014-03-29T13:46:00Z</time>
  </trkpt>
  <trkpt lat="34.020787" lon="-6.546708">
   <ele>172.00</ele>
   <time>2014-03-29T13:46:04Z</time>
  </trkpt>
  <trkpt lat="34.020152" lon="-6.546318">
   <ele>174.00</ele>
   <time>2014-03-29T13:46:07Z</time>
  </trkpt>
  <trkpt lat="34.019317" lon="-6.545748">
   <ele>177.00</ele>
   <time>2014-03-29T13:46:11Z</time>
  </trkpt>
  <trkpt lat="34.018710" lon="-6.545280">
   <ele>178.00</ele>
   <time>2014-03-29T13:46:14Z</time>
  </trkpt>
  <trkpt lat="34.017928" lon="-6.544622">
   <ele>179.00</ele>
   <time>2014-03-29T13:46:18Z</time>
  </trkpt>
  <trkpt lat="34.017367" lon="-6.544102">
   <ele>180.00</ele>
   <time>2014-03-29T13:46:21Z</time>
  </trkpt>
  <trkpt lat="34.016835" lon="-6.543573">
   <ele>181.00</ele>
   <time>2014-03-29T13:46:24Z</time>
  </trkpt>
  <trkpt lat="34.016341" lon="-6.543035">
   <ele>181.00</ele>
   <time>2014-03-29T13:46:27Z</time>
  </trkpt>
  <trkpt lat="34.015745" lon="-6.542336">
   <ele>181.00</ele>
   <time>2014-03-29T13:46:31Z</time>
  </trkpt>
  <trkpt lat="34.015350" lon="-6.541827">
   <ele>181.00</ele>
   <time>2014-03-29T13:46:34Z</time>
  </trkpt>
  <trkpt lat="34.014680" lon="-6.540887">
   <ele>180.00</ele>
   <time>2014-03-29T13:46:40Z</time>
  </trkpt>
  <trkpt lat="34.014262" lon="-6.540250">
   <ele>179.00</ele>
   <time>2014-03-29T13:46:45Z</time>
  </trkpt>
  <trkpt lat="34.014102" lon="-6.540106">
   <ele>179.00</ele>
   <time>2014-03-29T13:46:47Z</time>
  </trkpt>
  <trkpt lat="34.013851" lon="-6.540048">
   <ele>177.00</ele>
   <time>2014-03-29T13:46:50Z</time>
  </trkpt>
  <trkpt lat="34.013633" lon="-6.540071">
   <ele>175.00</ele>
   <time>2014-03-29T13:46:53Z</time>
  </trkpt>
  <trkpt lat="34.013450" lon="-6.540138">
   <ele>174.00</ele>
   <time>2014-03-29T13:46:56Z</time>
  </trkpt>
  <trkpt lat="34.013276" lon="-6.540248">
   <ele>171.00</ele>
   <time>2014-03-29T13:47:02Z</time>
  </trkpt>
  <trkpt lat="34.013086" lon="-6.540339">
   <ele>170.00</ele>
   <time>2014-03-29T13:47:06Z</time>
  </trkpt>
  <trkpt lat="34.012843" lon="-6.540329">
   <ele>169.00</ele>
   <time>2014-03-29T13:47:09Z</time>
  </trkpt>
  <trkpt lat="34.012649" lon="-6.540350">
   <ele>169.00</ele>
   <time>2014-03-29T13:47:11Z</time>
  </trkpt>
  <trkpt lat="34.012420" lon="-6.540376">
   <ele>169.00</ele>
   <time>2014-03-29T13:47:13Z</time>
  </trkpt>
  <trkpt lat="34.012163" lon="-6.540384">
   <ele>168.00</ele>
   <time>2014-03-29T13:47:15Z</time>
  </trkpt>
  <trkpt lat="34.011582" lon="-6.540369">
   <ele>166.00</ele>
   <time>2014-03-29T13:47:19Z</time>
  </trkpt>
  <trkpt lat="34.011257" lon="-6.540414">
   <ele>166.00</ele>
   <time>2014-03-29T13:47:21Z</time>
  </trkpt>
  <trkpt lat="34.010912" lon="-6.540470">
   <ele>166.00</ele>
   <time>2014-03-29T13:47:23Z</time>
  </trkpt>
  <trkpt lat="34.010552" lon="-6.540483">
   <ele>166.00</ele>
   <time>2014-03-29T13:47:25Z</time>
  </trkpt>
  <trkpt lat="34.010368" lon="-6.540467">
   <ele>167.00</ele>
   <time>2014-03-29T13:47:26Z</time>
  </trkpt>
  <trkpt lat="34.010183" lon="-6.540437">
   <ele>167.00</ele>
   <time>2014-03-29T13:47:27Z</time>
  </trkpt>
  <trkpt lat="34.009997" lon="-6.540394">
   <ele>167.00</ele>
   <time>2014-03-29T13:47:28Z</time>
  </trkpt>
  <trkpt lat="34.009809" lon="-6.540339">
   <ele>168.00</ele>
   <time>2014-03-29T13:47:29Z</time>
  </trkpt>
  <trkpt lat="34.008050" lon="-6.539765">
   <ele>170.00</ele>
   <time>2014-03-29T13:47:39Z</time>
  </trkpt>
  <trkpt lat="34.007740" lon="-6.539714">
   <ele>170.00</ele>
   <time>2014-03-29T13:47:41Z</time>
  </trkpt>
  <trkpt lat="34.007441" lon="-6.539730">
   <ele>170.00</ele>
   <time>2014-03-29T13:47:43Z</time>
  </trkpt>
  <trkpt lat="34.007156" lon="-6.539807">
   <ele>170.00</ele>
   <time>2014-03-29T13:47:45Z</time>
  </trkpt>
  <trkpt lat="34.006883" lon="-6.539937">
   <ele>170.00</ele>
   <time>2014-03-29T13:47:47Z</time>
  </trkpt>
  <trkpt lat="34.006628" lon="-6.540125">
   <ele>170.00</ele>
   <time>2014-03-29T13:47:49Z</time>
  </trkpt>
  <trkpt lat="34.006409" lon="-6.540357">
   <ele>171.00</ele>
   <time>2014-03-29T13:47:51Z</time>
  </trkpt>
  <trkpt lat="34.006236" lon="-6.540615">
   <ele>171.00</ele>
   <time>2014-03-29T13:47:53Z</time>
  </trkpt>
  <trkpt lat="34.006106" lon="-6.540878">
   <ele>171.00</ele>
   <time>2014-03-29T13:47:55Z</time>
  </trkpt>
  <trkpt lat="34.006012" lon="-6.541152">
   <ele>170.00</ele>
   <time>2014-03-29T13:47:57Z</time>
  </trkpt>
  <trkpt lat="34.005944" lon="-6.541443">
   <ele>171.00</ele>
   <time>2014-03-29T13:47:59Z</time>
  </trkpt>
  <trkpt lat="34.005892" lon="-6.541752">
   <ele>171.00</ele>
   <time>2014-03-29T13:48:01Z</time>
  </trkpt>
  <trkpt lat="34.005604" lon="-6.543810">
   <ele>173.00</ele>
   <time>2014-03-29T13:48:17Z</time>
  </trkpt>
  <trkpt lat="34.005523" lon="-6.544376">
   <ele>173.00</ele>
   <time>2014-03-29T13:48:22Z</time>
  </trkpt>
  <trkpt lat="34.005526" lon="-6.544609">
   <ele>172.00</ele>
   <time>2014-03-29T13:48:24Z</time>
  </trkpt>
  <trkpt lat="34.005590" lon="-6.544834">
   <ele>171.00</ele>
   <time>2014-03-29T13:48:26Z</time>
  </trkpt>
  <trkpt lat="34.005714" lon="-6.545035">
   <ele>170.00</ele>
   <time>2014-03-29T13:48:28Z</time>
  </trkpt>
  <trkpt lat="34.005890" lon="-6.545188">
   <ele>170.00</ele>
   <time>2014-03-29T13:48:30Z</time>
  </trkpt>
  <trkpt lat="34.006093" lon="-6.545266">
   <ele>169.00</ele>
   <time>2014-03-29T13:48:32Z</time>
  </trkpt>
  <trkpt lat="34.006296" lon="-6.545258">
   <ele>168.00</ele>
   <time>2014-03-29T13:48:34Z</time>
  </trkpt>
  <trkpt lat="34.006484" lon="-6.545183">
   <ele>168.00</ele>
   <time>2014-03-29T13:48:36Z</time>
  </trkpt>
  <trkpt lat="34.006643" lon="-6.545051">
   <ele>167.00</ele>
   <time>2014-03-29T13:48:38Z</time>
  </trkpt>
  <trkpt lat="34.006763" lon="-6.544873">
   <ele>167.00</ele>
   <time>2014-03-29T13:48:40Z</time>
  </trkpt>
  <trkpt lat="34.006836" lon="-6.544657">
   <ele>166.00</ele>
   <time>2014-03-29T13:48:42Z</time>
  </trkpt>
  <trkpt lat="34.006853" lon="-6.544420">
   <ele>166.00</ele>
   <time>2014-03-29T13:48:44Z</time>
  </trkpt>
  <trkpt lat="34.006805" lon="-6.544179">
   <ele>165.00</ele>
   <time>2014-03-29T13:48:46Z</time>
  </trkpt>
  <trkpt lat="34.006687" lon="-6.543957">
   <ele>165.00</ele>
   <time>2014-03-29T13:48:48Z</time>
  </trkpt>
  <trkpt lat="34.006500" lon="-6.543783">
   <ele>165.00</ele>
   <time>2014-03-29T13:48:50Z</time>
  </trkpt>
  <trkpt lat="34.006268" lon="-6.543671">
   <ele>165.00</ele>
   <time>2014-03-29T13:48:52Z</time>
  </trkpt>
  <trkpt lat="34.006020" lon="-6.543587">
   <ele>165.00</ele>
   <time>2014-03-29T13:48:54Z</time>
  </trkpt>
  <trkpt lat="34.005473" lon="-6.543434">
   <ele>165.00</ele>
   <time>2014-03-29T13:48:58Z</time>
  </trkpt>
  <trkpt lat="34.003211" lon="-6.542927">
   <ele>167.00</ele>
   <time>2014-03-29T13:49:14Z</time>
  </trkpt>
  <trkpt lat="34.002930" lon="-6.542886">
   <ele>168.00</ele>
   <time>2014-03-29T13:49:16Z</time>
  </trkpt>
  <trkpt lat="34.000946" lon="-6.542684">
   <ele>172.00</ele>
   <time>2014-03-29T13:49:31Z</time>
  </trkpt>
  <trkpt lat="34.000628" lon="-6.542631">
   <ele>174.00</ele>
   <time>2014-03-29T13:49:36Z</time>
  </trkpt>
  <trkpt lat="34.000495" lon="-6.542596">
   <ele>174.00</ele>
   <time>2014-03-29T13:49:51Z</time>
  </trkpt>
  <trkpt lat="34.000457" lon="-6.542566">
   <ele>166.00</ele>
   <time>2014-03-29T13:50:05Z</time>
  </trkpt>
  <trkpt lat="34.000280" lon="-6.542523">
   <ele>166.00</ele>
   <time>2014-03-29T13:50:08Z</time>
  </trkpt>
  <trkpt lat="33.999648" lon="-6.542365">
   <ele>168.00</ele>
   <time>2014-03-29T13:50:15Z</time>
  </trkpt>
  <trkpt lat="33.998850" lon="-6.542109">
   <ele>171.00</ele>
   <time>2014-03-29T13:50:21Z</time>
  </trkpt>
  <trkpt lat="33.995871" lon="-6.541075">
   <ele>180.00</ele>
   <time>2014-03-29T13:50:37Z</time>
  </trkpt>
  <trkpt lat="33.994532" lon="-6.540558">
   <ele>184.00</ele>
   <time>2014-03-29T13:50:43Z</time>
  </trkpt>
  <trkpt lat="33.993606" lon="-6.540135">
   <ele>186.00</ele>
   <time>2014-03-29T13:50:47Z</time>
  </trkpt>
  <trkpt lat="33.992678" lon="-6.539650">
   <ele>187.00</ele>
   <time>2014-03-29T13:50:51Z</time>
  </trkpt>
  <trkpt lat="33.991750" lon="-6.539109">
   <ele>188.00</ele>
   <time>2014-03-29T13:50:55Z</time>
  </trkpt>
  <trkpt lat="33.990861" lon="-6.538529">
   <ele>188.00</ele>
   <time>2014-03-29T13:50:59Z</time>
  </trkpt>
  <trkpt lat="33.990205" lon="-6.538062">
   <ele>188.00</ele>
   <time>2014-03-29T13:51:02Z</time>
  </trkpt>
  <trkpt lat="33.989341" lon="-6.537375">
   <ele>189.00</ele>
   <time>2014-03-29T13:51:06Z</time>
  </trkpt>
  <trkpt lat="33.988054" lon="-6.536271">
   <ele>188.00</ele>
   <time>2014-03-29T13:51:12Z</time>
  </trkpt>
  <trkpt lat="33.987218" lon="-6.535477">
   <ele>187.00</ele>
   <time>2014-03-29T13:51:16Z</time>
  </trkpt>
  <trkpt lat="33.986004" lon="-6.534219">
   <ele>187.00</ele>
   <time>2014-03-29T13:51:22Z</time>
  </trkpt>
  <trkpt lat="33.985418" lon="-6.533558">
   <ele>189.00</ele>
   <time>2014-03-29T13:51:25Z</time>
  </trkpt>
  <trkpt lat="33.984855" lon="-6.532864">
   <ele>190.00</ele>
   <time>2014-03-29T13:51:28Z</time>
  </trkpt>
  <trkpt lat="33.984142" lon="-6.531908">
   <ele>193.00</ele>
   <time>2014-03-29T13:51:32Z</time>
  </trkpt>
  <trkpt lat="33.983459" lon="-6.530920">
   <ele>195.00</ele>
   <time>2014-03-29T13:51:36Z</time>
  </trkpt>
  <trkpt lat="33.982972" lon="-6.530153">
   <ele>197.00</ele>
   <time>2014-03-29T13:51:39Z</time>
  </trkpt>
  <trkpt lat="33.982350" lon="-6.529104">
   <ele>198.00</ele>
   <time>2014-03-29T13:51:43Z</time>
  </trkpt>
  <trkpt lat="33.981767" lon="-6.528024">
   <ele>200.00</ele>
   <time>2014-03-29T13:51:47Z</time>
  </trkpt>
  <trkpt lat="33.981227" lon="-6.526922">
   <ele>203.00</ele>
   <time>2014-03-29T13:51:51Z</time>
  </trkpt>
  <trkpt lat="33.980725" lon="-6.525800">
   <ele>205.00</ele>
   <time>2014-03-29T13:51:55Z</time>
  </trkpt>
  <trkpt lat="33.980498" lon="-6.525232">
   <ele>205.00</ele>
   <time>2014-03-29T13:51:57Z</time>
  </trkpt>
  <trkpt lat="33.979902" lon="-6.523527">
   <ele>208.00</ele>
   <time>2014-03-29T13:52:03Z</time>
  </trkpt>
  <trkpt lat="33.978403" lon="-6.518926">
   <ele>214.00</ele>
   <time>2014-03-29T13:52:19Z</time>
  </trkpt>
  <trkpt lat="33.976832" lon="-6.514167">
   <ele>217.00</ele>
   <time>2014-03-29T13:52:35Z</time>
  </trkpt>
  <trkpt lat="33.975354" lon="-6.509741">
   <ele>213.00</ele>
   <time>2014-03-29T13:52:50Z</time>
  </trkpt>
  <trkpt lat="33.974915" lon="-6.508582">
   <ele>211.00</ele>
   <time>2014-03-29T13:52:54Z</time>
  </trkpt>
  <trkpt lat="33.974324" lon="-6.507152">
   <ele>210.00</ele>
   <time>2014-03-29T13:52:59Z</time>
  </trkpt>
  <trkpt lat="33.973813" lon="-6.506029">
   <ele>209.00</ele>
   <time>2014-03-29T13:53:03Z</time>
  </trkpt>
  <trkpt lat="33.973130" lon="-6.504666">
   <ele>207.00</ele>
   <time>2014-03-29T13:53:08Z</time>
  </trkpt>
  <trkpt lat="33.972552" lon="-6.503601">
   <ele>206.00</ele>
   <time>2014-03-29T13:53:12Z</time>
  </trkpt>
  <trkpt lat="33.971767" lon="-6.502271">
   <ele>204.00</ele>
   <time>2014-03-29T13:53:17Z</time>
  </trkpt>
  <trkpt lat="33.970570" lon="-6.500410">
   <ele>203.00</ele>
   <time>2014-03-29T13:53:24Z</time>
  </trkpt>
  <trkpt lat="33.970004" lon="-6.499617">
   <ele>205.00</ele>
   <time>2014-03-29T13:53:27Z</time>
  </trkpt>
  <trkpt lat="33.969409" lon="-6.498848">
   <ele>207.00</ele>
   <time>2014-03-29T13:53:30Z</time>
  </trkpt>
  <trkpt lat="33.966454" lon="-6.495148">
   <ele>217.00</ele>
   <time>2014-03-29T13:53:45Z</time>
  </trkpt>
  <trkpt lat="33.963377" lon="-6.491195">
   <ele>227.00</ele>
   <time>2014-03-29T13:54:01Z</time>
  </trkpt>
  <trkpt lat="33.961236" lon="-6.488452">
   <ele>234.00</ele>
   <time>2014-03-29T13:54:12Z</time>
  </trkpt>
  <trkpt lat="33.960612" lon="-6.487735">
   <ele>236.00</ele>
   <time>2014-03-29T13:54:15Z</time>
  </trkpt>
  <trkpt lat="33.959950" lon="-6.487047">
   <ele>237.00</ele>
   <time>2014-03-29T13:54:18Z</time>
  </trkpt>
  <trkpt lat="33.959267" lon="-6.486400">
   <ele>239.00</ele>
   <time>2014-03-29T13:54:21Z</time>
  </trkpt>
  <trkpt lat="33.958796" lon="-6.485997">
   <ele>240.00</ele>
   <time>2014-03-29T13:54:23Z</time>
  </trkpt>
  <trkpt lat="33.958314" lon="-6.485617">
   <ele>242.00</ele>
   <time>2014-03-29T13:54:25Z</time>
  </trkpt>
  <trkpt lat="33.957820" lon="-6.485260">
   <ele>244.00</ele>
   <time>2014-03-29T13:54:27Z</time>
  </trkpt>
  <trkpt lat="33.957061" lon="-6.484756">
   <ele>247.00</ele>
   <time>2014-03-29T13:54:30Z</time>
  </trkpt>
  <trkpt lat="33.956292" lon="-6.484292">
   <ele>250.00</ele>
   <time>2014-03-29T13:54:33Z</time>
  </trkpt>
  <trkpt lat="33.955512" lon="-6.483869">
   <ele>252.00</ele>
   <time>2014-03-29T13:54:36Z</time>
  </trkpt>
  <trkpt lat="33.954713" lon="-6.483492">
   <ele>254.00</ele>
   <time>2014-03-29T13:54:39Z</time>
  </trkpt>
  <trkpt lat="33.953898" lon="-6.483158">
   <ele>255.00</ele>
   <time>2014-03-29T13:54:42Z</time>
  </trkpt>
  <trkpt lat="33.950596" lon="-6.481924">
   <ele>254.00</ele>
   <time>2014-03-29T13:54:54Z</time>
  </trkpt>
  <trkpt lat="33.949795" lon="-6.481526">
   <ele>253.00</ele>
   <time>2014-03-29T13:54:57Z</time>
  </trkpt>
  <trkpt lat="33.948748" lon="-6.480942">
   <ele>251.00</ele>
   <time>2014-03-29T13:55:01Z</time>
  </trkpt>
  <trkpt lat="33.947981" lon="-6.480468">
   <ele>250.00</ele>
   <time>2014-03-29T13:55:04Z</time>
  </trkpt>
  <trkpt lat="33.947480" lon="-6.480127">
   <ele>249.00</ele>
   <time>2014-03-29T13:55:06Z</time>
  </trkpt>
  <trkpt lat="33.946994" lon="-6.479763">
   <ele>248.00</ele>
   <time>2014-03-29T13:55:08Z</time>
  </trkpt>
  <trkpt lat="33.946523" lon="-6.479380">
   <ele>248.00</ele>
   <time>2014-03-29T13:55:10Z</time>
  </trkpt>
  <trkpt lat="33.945839" lon="-6.478773">
   <ele>246.00</ele>
   <time>2014-03-29T13:55:13Z</time>
  </trkpt>
  <trkpt lat="33.945175" lon="-6.478126">
   <ele>245.00</ele>
   <time>2014-03-29T13:55:16Z</time>
  </trkpt>
  <trkpt lat="33.944539" lon="-6.477437">
   <ele>244.00</ele>
   <time>2014-03-29T13:55:19Z</time>
  </trkpt>
  <trkpt lat="33.943925" lon="-6.476717">
   <ele>244.00</ele>
   <time>2014-03-29T13:55:22Z</time>
  </trkpt>
  <trkpt lat="33.940948" lon="-6.472998">
   <ele>246.00</ele>
   <time>2014-03-29T13:55:37Z</time>
  </trkpt>
  <trkpt lat="33.940088" lon="-6.472076">
   <ele>247.00</ele>
   <time>2014-03-29T13:55:41Z</time>
  </trkpt>
  <trkpt lat="33.939197" lon="-6.471200">
   <ele>248.00</ele>
   <time>2014-03-29T13:55:45Z</time>
  </trkpt>
  <trkpt lat="33.938279" lon="-6.470365">
   <ele>250.00</ele>
   <time>2014-03-29T13:55:49Z</time>
  </trkpt>
  <trkpt lat="33.937333" lon="-6.469584">
   <ele>251.00</ele>
   <time>2014-03-29T13:55:53Z</time>
  </trkpt>
  <trkpt lat="33.933971" lon="-6.466997">
   <ele>257.00</ele>
   <time>2014-03-29T13:56:07Z</time>
  </trkpt>
  <trkpt lat="33.933514" lon="-6.466591">
   <ele>258.00</ele>
   <time>2014-03-29T13:56:09Z</time>
  </trkpt>
  <trkpt lat="33.933074" lon="-6.466161">
   <ele>259.00</ele>
   <time>2014-03-29T13:56:11Z</time>
  </trkpt>
  <trkpt lat="33.932434" lon="-6.465489">
   <ele>259.00</ele>
   <time>2014-03-29T13:56:14Z</time>
  </trkpt>
  <trkpt lat="33.931817" lon="-6.464782">
   <ele>260.00</ele>
   <time>2014-03-29T13:56:17Z</time>
  </trkpt>
  <trkpt lat="33.931227" lon="-6.464036">
   <ele>260.00</ele>
   <time>2014-03-29T13:56:20Z</time>
  </trkpt>
  <trkpt lat="33.930665" lon="-6.463258">
   <ele>261.00</ele>
   <time>2014-03-29T13:56:23Z</time>
  </trkpt>
  <trkpt lat="33.930136" lon="-6.462454">
   <ele>264.00</ele>
   <time>2014-03-29T13:56:26Z</time>
  </trkpt>
  <trkpt lat="33.929644" lon="-6.461625">
   <ele>266.00</ele>
   <time>2014-03-29T13:56:29Z</time>
  </trkpt>
  <trkpt lat="33.927568" lon="-6.457995">
   <ele>275.00</ele>
   <time>2014-03-29T13:56:42Z</time>
  </trkpt>
  <trkpt lat="33.926867" lon="-6.456925">
   <ele>277.00</ele>
   <time>2014-03-29T13:56:46Z</time>
  </trkpt>
  <trkpt lat="33.925942" lon="-6.455622">
   <ele>279.00</ele>
   <time>2014-03-29T13:56:51Z</time>
  </trkpt>
  <trkpt lat="33.925549" lon="-6.455122">
   <ele>278.00</ele>
   <time>2014-03-29T13:56:53Z</time>
  </trkpt>
  <trkpt lat="33.925136" lon="-6.454635">
   <ele>278.00</ele>
   <time>2014-03-29T13:56:55Z</time>
  </trkpt>
  <trkpt lat="33.924703" lon="-6.454164">
   <ele>278.00</ele>
   <time>2014-03-29T13:56:57Z</time>
  </trkpt>
  <trkpt lat="33.923354" lon="-6.452818">
   <ele>277.00</ele>
   <time>2014-03-29T13:57:03Z</time>
  </trkpt>
  <trkpt lat="33.920630" lon="-6.450227">
   <ele>277.00</ele>
   <time>2014-03-29T13:57:15Z</time>
  </trkpt>
  <trkpt lat="33.920205" lon="-6.449766">
   <ele>277.00</ele>
   <time>2014-03-29T13:57:17Z</time>
  </trkpt>
  <trkpt lat="33.919596" lon="-6.449043">
   <ele>278.00</ele>
   <time>2014-03-29T13:57:20Z</time>
  </trkpt>
  <trkpt lat="33.919017" lon="-6.448288">
   <ele>278.00</ele>
   <time>2014-03-29T13:57:23Z</time>
  </trkpt>
  <trkpt lat="33.918467" lon="-6.447505">
   <ele>277.00</ele>
   <time>2014-03-29T13:57:26Z</time>
  </trkpt>
  <trkpt lat="33.917948" lon="-6.446696">
   <ele>277.00</ele>
   <time>2014-03-29T13:57:29Z</time>
  </trkpt>
  <trkpt lat="33.917459" lon="-6.445857">
   <ele>278.00</ele>
   <time>2014-03-29T13:57:32Z</time>
  </trkpt>
  <trkpt lat="33.917153" lon="-6.445280">
   <ele>278.00</ele>
   <time>2014-03-29T13:57:34Z</time>
  </trkpt>
  <trkpt lat="33.916731" lon="-6.444395">
   <ele>279.00</ele>
   <time>2014-03-29T13:57:37Z</time>
  </trkpt>
  <trkpt lat="33.916475" lon="-6.443792">
   <ele>280.00</ele>
   <time>2014-03-29T13:57:39Z</time>
  </trkpt>
  <trkpt lat="33.916118" lon="-6.442874">
   <ele>280.00</ele>
   <time>2014-03-29T13:57:42Z</time>
  </trkpt>
  <trkpt lat="33.915794" lon="-6.441937">
   <ele>281.00</ele>
   <time>2014-03-29T13:57:45Z</time>
  </trkpt>
  <trkpt lat="33.915504" lon="-6.440980">
   <ele>283.00</ele>
   <time>2014-03-29T13:57:48Z</time>
  </trkpt>
  <trkpt lat="33.915251" lon="-6.440008">
   <ele>285.00</ele>
   <time>2014-03-29T13:57:51Z</time>
  </trkpt>
  <trkpt lat="33.915034" lon="-6.439023">
   <ele>287.00</ele>
   <time>2014-03-29T13:57:54Z</time>
  </trkpt>
  <trkpt lat="33.913954" lon="-6.433757">
   <ele>297.00</ele>
   <time>2014-03-29T13:58:10Z</time>
  </trkpt>
  <trkpt lat="33.912855" lon="-6.428432">
   <ele>299.00</ele>
   <time>2014-03-29T13:58:26Z</time>
  </trkpt>
  <trkpt lat="33.911837" lon="-6.423379">
   <ele>295.00</ele>
   <time>2014-03-29T13:58:41Z</time>
  </trkpt>
  <trkpt lat="33.910694" lon="-6.417935">
   <ele>288.00</ele>
   <time>2014-03-29T13:58:57Z</time>
  </trkpt>
  <trkpt lat="33.910059" lon="-6.415249">
   <ele>291.00</ele>
   <time>2014-03-29T13:59:05Z</time>
  </trkpt>
  <trkpt lat="33.909773" lon="-6.414253">
   <ele>293.00</ele>
   <time>2014-03-29T13:59:08Z</time>
  </trkpt>
  <trkpt lat="33.909452" lon="-6.413269">
   <ele>294.00</ele>
   <time>2014-03-29T13:59:11Z</time>
  </trkpt>
  <trkpt lat="33.908986" lon="-6.411995">
   <ele>296.00</ele>
   <time>2014-03-29T13:59:15Z</time>
  </trkpt>
  <trkpt lat="33.908605" lon="-6.411077">
   <ele>297.00</ele>
   <time>2014-03-29T13:59:18Z</time>
  </trkpt>
  <trkpt lat="33.908196" lon="-6.410181">
   <ele>299.00</ele>
   <time>2014-03-29T13:59:21Z</time>
  </trkpt>
  <trkpt lat="33.907599" lon="-6.409016">
   <ele>300.00</ele>
   <time>2014-03-29T13:59:25Z</time>
  </trkpt>
  <trkpt lat="33.906964" lon="-6.407882">
   <ele>302.00</ele>
   <time>2014-03-29T13:59:29Z</time>
  </trkpt>
  <trkpt lat="33.906452" lon="-6.407062">
   <ele>302.00</ele>
   <time>2014-03-29T13:59:32Z</time>
  </trkpt>
  <trkpt lat="33.905728" lon="-6.405996">
   <ele>304.00</ele>
   <time>2014-03-29T13:59:36Z</time>
  </trkpt>
  <trkpt lat="33.903700" lon="-6.403074">
   <ele>308.00</ele>
   <time>2014-03-29T13:59:47Z</time>
  </trkpt>
  <trkpt lat="33.903364" lon="-6.402517">
   <ele>309.00</ele>
   <time>2014-03-29T13:59:49Z</time>
  </trkpt>
  <trkpt lat="33.902896" lon="-6.401657">
   <ele>310.00</ele>
   <time>2014-03-29T13:59:52Z</time>
  </trkpt>
  <trkpt lat="33.902606" lon="-6.401073">
   <ele>311.00</ele>
   <time>2014-03-29T13:59:54Z</time>
  </trkpt>
  <trkpt lat="33.902336" lon="-6.400477">
   <ele>312.00</ele>
   <time>2014-03-29T13:59:56Z</time>
  </trkpt>
  <trkpt lat="33.901965" lon="-6.399563">
   <ele>313.00</ele>
   <time>2014-03-29T13:59:59Z</time>
  </trkpt>
  <trkpt lat="33.901633" lon="-6.398628">
   <ele>313.00</ele>
   <time>2014-03-29T14:00:02Z</time>
  </trkpt>
  <trkpt lat="33.901342" lon="-6.397668">
   <ele>313.00</ele>
   <time>2014-03-29T14:00:05Z</time>
  </trkpt>
  <trkpt lat="33.901088" lon="-6.396688">
   <ele>312.00</ele>
   <time>2014-03-29T14:00:08Z</time>
  </trkpt>
  <trkpt lat="33.900943" lon="-6.396022">
   <ele>312.00</ele>
   <time>2014-03-29T14:00:10Z</time>
  </trkpt>
  <trkpt lat="33.900817" lon="-6.395349">
   <ele>311.00</ele>
   <time>2014-03-29T14:00:12Z</time>
  </trkpt>
  <trkpt lat="33.900663" lon="-6.394332">
   <ele>311.00</ele>
   <time>2014-03-29T14:00:15Z</time>
  </trkpt>
  <trkpt lat="33.900035" lon="-6.389901">
   <ele>312.00</ele>
   <time>2014-03-29T14:00:28Z</time>
  </trkpt>
  <trkpt lat="33.899775" lon="-6.388582">
   <ele>316.00</ele>
   <time>2014-03-29T14:00:32Z</time>
  </trkpt>
  <trkpt lat="33.899475" lon="-6.387277">
   <ele>320.00</ele>
   <time>2014-03-29T14:00:36Z</time>
  </trkpt>
  <trkpt lat="33.899127" lon="-6.385988">
   <ele>323.00</ele>
   <time>2014-03-29T14:00:40Z</time>
  </trkpt>
  <trkpt lat="33.898644" lon="-6.384401">
   <ele>325.00</ele>
   <time>2014-03-29T14:00:45Z</time>
  </trkpt>
  <trkpt lat="33.898215" lon="-6.383139">
   <ele>326.00</ele>
   <time>2014-03-29T14:00:49Z</time>
  </trkpt>
  <trkpt lat="33.897738" lon="-6.381890">
   <ele>326.00</ele>
   <time>2014-03-29T14:00:53Z</time>
  </trkpt>
  <trkpt lat="33.897100" lon="-6.380374">
   <ele>325.00</ele>
   <time>2014-03-29T14:00:58Z</time>
  </trkpt>
  <trkpt lat="33.896412" lon="-6.378892">
   <ele>325.00</ele>
   <time>2014-03-29T14:01:03Z</time>
  </trkpt>
  <trkpt lat="33.895816" lon="-6.377735">
   <ele>326.00</ele>
   <time>2014-03-29T14:01:07Z</time>
  </trkpt>
  <trkpt lat="33.894483" lon="-6.375159">
   <ele>330.00</ele>
   <time>2014-03-29T14:01:16Z</time>
  </trkpt>
  <trkpt lat="33.894075" lon="-6.374267">
   <ele>332.00</ele>
   <time>2014-03-29T14:01:19Z</time>
  </trkpt>
  <trkpt lat="33.893701" lon="-6.373354">
   <ele>334.00</ele>
   <time>2014-03-29T14:01:22Z</time>
  </trkpt>
  <trkpt lat="33.893369" lon="-6.372424">
   <ele>336.00</ele>
   <time>2014-03-29T14:01:25Z</time>
  </trkpt>
  <trkpt lat="33.893073" lon="-6.371482">
   <ele>337.00</ele>
   <time>2014-03-29T14:01:28Z</time>
  </trkpt>
  <trkpt lat="33.892816" lon="-6.370524">
   <ele>339.00</ele>
   <time>2014-03-29T14:01:31Z</time>
  </trkpt>
  <trkpt lat="33.892596" lon="-6.369549">
   <ele>339.00</ele>
   <time>2014-03-29T14:01:34Z</time>
  </trkpt>
  <trkpt lat="33.892415" lon="-6.368560">
   <ele>340.00</ele>
   <time>2014-03-29T14:01:37Z</time>
  </trkpt>
  <trkpt lat="33.892313" lon="-6.367892">
   <ele>340.00</ele>
   <time>2014-03-29T14:01:39Z</time>
  </trkpt>
  <trkpt lat="33.892192" lon="-6.366877">
   <ele>340.00</ele>
   <time>2014-03-29T14:01:42Z</time>
  </trkpt>
  <trkpt lat="33.892136" lon="-6.366193">
   <ele>340.00</ele>
   <time>2014-03-29T14:01:44Z</time>
  </trkpt>
  <trkpt lat="33.892086" lon="-6.365160">
   <ele>340.00</ele>
   <time>2014-03-29T14:01:47Z</time>
  </trkpt>
  <trkpt lat="33.892086" lon="-6.364465">
   <ele>341.00</ele>
   <time>2014-03-29T14:01:49Z</time>
  </trkpt>
  <trkpt lat="33.892156" lon="-6.362364">
   <ele>343.00</ele>
   <time>2014-03-29T14:01:55Z</time>
  </trkpt>
  <trkpt lat="33.892271" lon="-6.359224">
   <ele>343.00</ele>
   <time>2014-03-29T14:02:04Z</time>
  </trkpt>
  <trkpt lat="33.892257" lon="-6.357837">
   <ele>345.00</ele>
   <time>2014-03-29T14:02:08Z</time>
  </trkpt>
  <trkpt lat="33.892208" lon="-6.356805">
   <ele>346.00</ele>
   <time>2014-03-29T14:02:11Z</time>
  </trkpt>
  <trkpt lat="33.892152" lon="-6.356119">
   <ele>346.00</ele>
   <time>2014-03-29T14:02:13Z</time>
  </trkpt>
  <trkpt lat="33.891908" lon="-6.354073">
   <ele>347.00</ele>
   <time>2014-03-29T14:02:19Z</time>
  </trkpt>
  <trkpt lat="33.891699" lon="-6.352706">
   <ele>346.00</ele>
   <time>2014-03-29T14:02:23Z</time>
  </trkpt>
  <trkpt lat="33.891506" lon="-6.351686">
   <ele>345.00</ele>
   <time>2014-03-29T14:02:26Z</time>
  </trkpt>
  <trkpt lat="33.891213" lon="-6.350339">
   <ele>343.00</ele>
   <time>2014-03-29T14:02:30Z</time>
  </trkpt>
  <trkpt lat="33.890957" lon="-6.349339">
   <ele>342.00</ele>
   <time>2014-03-29T14:02:33Z</time>
  </trkpt>
  <trkpt lat="33.890401" lon="-6.347375">
   <ele>342.00</ele>
   <time>2014-03-29T14:02:39Z</time>
  </trkpt>
  <trkpt lat="33.890185" lon="-6.346727">
   <ele>342.00</ele>
   <time>2014-03-29T14:02:41Z</time>
  </trkpt>
  <trkpt lat="33.889824" lon="-6.345785">
   <ele>343.00</ele>
   <time>2014-03-29T14:02:44Z</time>
  </trkpt>
  <trkpt lat="33.889175" lon="-6.344249">
   <ele>345.00</ele>
   <time>2014-03-29T14:02:49Z</time>
  </trkpt>
  <trkpt lat="33.888616" lon="-6.343044">
   <ele>347.00</ele>
   <time>2014-03-29T14:02:53Z</time>
  </trkpt>
  <trkpt lat="33.887875" lon="-6.341588">
   <ele>349.00</ele>
   <time>2014-03-29T14:02:58Z</time>
  </trkpt>
  <trkpt lat="33.885498" lon="-6.337079">
   <ele>350.00</ele>
   <time>2014-03-29T14:03:14Z</time>
  </trkpt>
  <trkpt lat="33.884018" lon="-6.334275">
   <ele>348.00</ele>
   <time>2014-03-29T14:03:24Z</time>
  </trkpt>
  <trkpt lat="33.883542" lon="-6.333455">
   <ele>347.00</ele>
   <time>2014-03-29T14:03:27Z</time>
  </trkpt>
  <trkpt lat="33.882856" lon="-6.332393">
   <ele>347.00</ele>
   <time>2014-03-29T14:03:31Z</time>
  </trkpt>
  <trkpt lat="33.881961" lon="-6.331101">
   <ele>347.00</ele>
   <time>2014-03-29T14:03:36Z</time>
  </trkpt>
  <trkpt lat="33.881212" lon="-6.330114">
   <ele>348.00</ele>
   <time>2014-03-29T14:03:40Z</time>
  </trkpt>
  <trkpt lat="33.880431" lon="-6.329161">
   <ele>349.00</ele>
   <time>2014-03-29T14:03:44Z</time>
  </trkpt>
  <trkpt lat="33.879620" lon="-6.328245">
   <ele>351.00</ele>
   <time>2014-03-29T14:03:48Z</time>
  </trkpt>
  <trkpt lat="33.876461" lon="-6.324981">
   <ele>361.00</ele>
   <time>2014-03-29T14:04:03Z</time>
  </trkpt>
  <trkpt lat="33.873073" lon="-6.321480">
   <ele>371.00</ele>
   <time>2014-03-29T14:04:19Z</time>
  </trkpt>
  <trkpt lat="33.871403" lon="-6.319742">
   <ele>377.00</ele>
   <time>2014-03-29T14:04:27Z</time>
  </trkpt>
  <trkpt lat="33.870161" lon="-6.318428">
   <ele>381.00</ele>
   <time>2014-03-29T14:04:33Z</time>
  </trkpt>
  <trkpt lat="33.868655" lon="-6.316953">
   <ele>386.00</ele>
   <time>2014-03-29T14:04:40Z</time>
  </trkpt>
  <trkpt lat="33.867321" lon="-6.315746">
   <ele>390.00</ele>
   <time>2014-03-29T14:04:46Z</time>
  </trkpt>
  <trkpt lat="33.866395" lon="-6.314982">
   <ele>392.00</ele>
   <time>2014-03-29T14:04:50Z</time>
  </trkpt>
  <trkpt lat="33.865678" lon="-6.314448">
   <ele>393.00</ele>
   <time>2014-03-29T14:04:53Z</time>
  </trkpt>
  <trkpt lat="33.863716" lon="-6.313098">
   <ele>393.00</ele>
   <time>2014-03-29T14:05:01Z</time>
  </trkpt>
  <trkpt lat="33.861269" lon="-6.311443">
   <ele>390.00</ele>
   <time>2014-03-29T14:05:11Z</time>
  </trkpt>
  <trkpt lat="33.860547" lon="-6.310895">
   <ele>389.00</ele>
   <time>2014-03-29T14:05:14Z</time>
  </trkpt>
  <trkpt lat="33.860080" lon="-6.310501">
   <ele>389.00</ele>
   <time>2014-03-29T14:05:16Z</time>
  </trkpt>
  <trkpt lat="33.859401" lon="-6.309878">
   <ele>387.00</ele>
   <time>2014-03-29T14:05:19Z</time>
  </trkpt>
  <trkpt lat="33.858748" lon="-6.309220">
   <ele>386.00</ele>
   <time>2014-03-29T14:05:22Z</time>
  </trkpt>
  <trkpt lat="33.858120" lon="-6.308526">
   <ele>385.00</ele>
   <time>2014-03-29T14:05:25Z</time>
  </trkpt>
  <trkpt lat="33.857523" lon="-6.307793">
   <ele>382.00</ele>
   <time>2014-03-29T14:05:28Z</time>
  </trkpt>
  <trkpt lat="33.856958" lon="-6.307029">
   <ele>380.00</ele>
   <time>2014-03-29T14:05:31Z</time>
  </trkpt>
  <trkpt lat="33.856424" lon="-6.306233">
   <ele>378.00</ele>
   <time>2014-03-29T14:05:34Z</time>
  </trkpt>
  <trkpt lat="33.855914" lon="-6.305410">
   <ele>377.00</ele>
   <time>2014-03-29T14:05:37Z</time>
  </trkpt>
  <trkpt lat="33.855432" lon="-6.304552">
   <ele>376.00</ele>
   <time>2014-03-29T14:05:40Z</time>
  </trkpt>
  <trkpt lat="33.854990" lon="-6.303663">
   <ele>375.00</ele>
   <time>2014-03-29T14:05:43Z</time>
  </trkpt>
  <trkpt lat="33.854588" lon="-6.302756">
   <ele>373.00</ele>
   <time>2014-03-29T14:05:46Z</time>
  </trkpt>
  <trkpt lat="33.854227" lon="-6.301836">
   <ele>374.00</ele>
   <time>2014-03-29T14:05:49Z</time>
  </trkpt>
  <trkpt lat="33.854012" lon="-6.301214">
   <ele>375.00</ele>
   <time>2014-03-29T14:05:51Z</time>
  </trkpt>
  <trkpt lat="33.853817" lon="-6.300585">
   <ele>376.00</ele>
   <time>2014-03-29T14:05:53Z</time>
  </trkpt>
  <trkpt lat="33.853469" lon="-6.299300">
   <ele>379.00</ele>
   <time>2014-03-29T14:05:57Z</time>
  </trkpt>
  <trkpt lat="33.853173" lon="-6.297986">
   <ele>382.00</ele>
   <time>2014-03-29T14:06:01Z</time>
  </trkpt>
  <trkpt lat="33.852932" lon="-6.296647">
   <ele>384.00</ele>
   <time>2014-03-29T14:06:05Z</time>
  </trkpt>
  <trkpt lat="33.852835" lon="-6.295973">
   <ele>386.00</ele>
   <time>2014-03-29T14:06:07Z</time>
  </trkpt>
  <trkpt lat="33.852760" lon="-6.295295">
   <ele>387.00</ele>
   <time>2014-03-29T14:06:09Z</time>
  </trkpt>
  <trkpt lat="33.852684" lon="-6.294271">
   <ele>388.00</ele>
   <time>2014-03-29T14:06:12Z</time>
  </trkpt>
  <trkpt lat="33.852615" lon="-6.292547">
   <ele>391.00</ele>
   <time>2014-03-29T14:06:17Z</time>
  </trkpt>
  <trkpt lat="33.852486" lon="-6.289438">
   <ele>396.00</ele>
   <time>2014-03-29T14:06:26Z</time>
  </trkpt>
  <trkpt lat="33.852329" lon="-6.287371">
   <ele>400.00</ele>
   <time>2014-03-29T14:06:32Z</time>
  </trkpt>
  <trkpt lat="33.852069" lon="-6.284979">
   <ele>400.00</ele>
   <time>2014-03-29T14:06:39Z</time>
  </trkpt>
  <trkpt lat="33.851823" lon="-6.283263">
   <ele>400.00</ele>
   <time>2014-03-29T14:06:44Z</time>
  </trkpt>
  <trkpt lat="33.851457" lon="-6.281223">
   <ele>401.00</ele>
   <time>2014-03-29T14:06:50Z</time>
  </trkpt>
  <trkpt lat="33.851036" lon="-6.279216">
   <ele>401.00</ele>
   <time>2014-03-29T14:06:56Z</time>
  </trkpt>
  <trkpt lat="33.850550" lon="-6.277233">
   <ele>402.00</ele>
   <time>2014-03-29T14:07:02Z</time>
  </trkpt>
  <trkpt lat="33.850094" lon="-6.275608">
   <ele>402.00</ele>
   <time>2014-03-29T14:07:07Z</time>
  </trkpt>
  <trkpt lat="33.849493" lon="-6.273682">
   <ele>403.00</ele>
   <time>2014-03-29T14:07:13Z</time>
  </trkpt>
  <trkpt lat="33.848717" lon="-6.271467">
   <ele>405.00</ele>
   <time>2014-03-29T14:07:20Z</time>
  </trkpt>
  <trkpt lat="33.847582" lon="-6.268271">
   <ele>406.00</ele>
   <time>2014-03-29T14:07:30Z</time>
  </trkpt>
  <trkpt lat="33.847386" lon="-6.267614">
   <ele>406.00</ele>
   <time>2014-03-29T14:07:32Z</time>
  </trkpt>
  <trkpt lat="33.847129" lon="-6.266617">
   <ele>407.00</ele>
   <time>2014-03-29T14:07:35Z</time>
  </trkpt>
  <trkpt lat="33.846908" lon="-6.265607">
   <ele>407.00</ele>
   <time>2014-03-29T14:07:38Z</time>
  </trkpt>
  <trkpt lat="33.846730" lon="-6.264581">
   <ele>407.00</ele>
   <time>2014-03-29T14:07:41Z</time>
  </trkpt>
  <trkpt lat="33.846590" lon="-6.263547">
   <ele>407.00</ele>
   <time>2014-03-29T14:07:44Z</time>
  </trkpt>
  <trkpt lat="33.846525" lon="-6.262856">
   <ele>406.00</ele>
   <time>2014-03-29T14:07:46Z</time>
  </trkpt>
  <trkpt lat="33.846463" lon="-6.261814">
   <ele>407.00</ele>
   <time>2014-03-29T14:07:49Z</time>
  </trkpt>
  <trkpt lat="33.846439" lon="-6.260780">
   <ele>406.00</ele>
   <time>2014-03-29T14:07:52Z</time>
  </trkpt>
  <trkpt lat="33.846455" lon="-6.259754">
   <ele>406.00</ele>
   <time>2014-03-29T14:07:55Z</time>
  </trkpt>
  <trkpt lat="33.846592" lon="-6.255620">
   <ele>406.00</ele>
   <time>2014-03-29T14:08:07Z</time>
  </trkpt>
  <trkpt lat="33.846568" lon="-6.254932">
   <ele>407.00</ele>
   <time>2014-03-29T14:08:09Z</time>
  </trkpt>
  <trkpt lat="33.846492" lon="-6.253905">
   <ele>406.00</ele>
   <time>2014-03-29T14:08:12Z</time>
  </trkpt>
  <trkpt lat="33.846412" lon="-6.253219">
   <ele>406.00</ele>
   <time>2014-03-29T14:08:14Z</time>
  </trkpt>
  <trkpt lat="33.846255" lon="-6.252192">
   <ele>406.00</ele>
   <time>2014-03-29T14:08:17Z</time>
  </trkpt>
  <trkpt lat="33.846123" lon="-6.251516">
   <ele>406.00</ele>
   <time>2014-03-29T14:08:19Z</time>
  </trkpt>
  <trkpt lat="33.845971" lon="-6.250850">
   <ele>406.00</ele>
   <time>2014-03-29T14:08:21Z</time>
  </trkpt>
  <trkpt lat="33.845715" lon="-6.249866">
   <ele>407.00</ele>
   <time>2014-03-29T14:08:24Z</time>
  </trkpt>
  <trkpt lat="33.845517" lon="-6.249223">
   <ele>408.00</ele>
   <time>2014-03-29T14:08:26Z</time>
  </trkpt>
  <trkpt lat="33.845299" lon="-6.248590">
   <ele>408.00</ele>
   <time>2014-03-29T14:08:28Z</time>
  </trkpt>
  <trkpt lat="33.844941" lon="-6.247660">
   <ele>409.00</ele>
   <time>2014-03-29T14:08:31Z</time>
  </trkpt>
  <trkpt lat="33.844678" lon="-6.247052">
   <ele>410.00</ele>
   <time>2014-03-29T14:08:33Z</time>
  </trkpt>
  <trkpt lat="33.844395" lon="-6.246455">
   <ele>410.00</ele>
   <time>2014-03-29T14:08:35Z</time>
  </trkpt>
  <trkpt lat="33.843939" lon="-6.245581">
   <ele>411.00</ele>
   <time>2014-03-29T14:08:38Z</time>
  </trkpt>
  <trkpt lat="33.843448" lon="-6.244741">
   <ele>412.00</ele>
   <time>2014-03-29T14:08:41Z</time>
  </trkpt>
  <trkpt lat="33.842920" lon="-6.243935">
   <ele>413.00</ele>
   <time>2014-03-29T14:08:44Z</time>
  </trkpt>
  <trkpt lat="33.842367" lon="-6.243170">
   <ele>414.00</ele>
   <time>2014-03-29T14:08:47Z</time>
  </trkpt>
  <trkpt lat="33.841781" lon="-6.242439">
   <ele>416.00</ele>
   <time>2014-03-29T14:08:50Z</time>
  </trkpt>
  <trkpt lat="33.841374" lon="-6.241975">
   <ele>417.00</ele>
   <time>2014-03-29T14:08:52Z</time>
  </trkpt>
  <trkpt lat="33.838180" lon="-6.238673">
   <ele>421.00</ele>
   <time>2014-03-29T14:09:07Z</time>
  </trkpt>
  <trkpt lat="33.834797" lon="-6.235180">
   <ele>424.00</ele>
   <time>2014-03-29T14:09:23Z</time>
  </trkpt>
  <trkpt lat="33.831393" lon="-6.231650">
   <ele>427.00</ele>
   <time>2014-03-29T14:09:39Z</time>
  </trkpt>
  <trkpt lat="33.830146" lon="-6.230302">
   <ele>428.00</ele>
   <time>2014-03-29T14:09:45Z</time>
  </trkpt>
  <trkpt lat="33.829356" lon="-6.229354">
   <ele>428.00</ele>
   <time>2014-03-29T14:09:49Z</time>
  </trkpt>
  <trkpt lat="33.828794" lon="-6.228609">
   <ele>429.00</ele>
   <time>2014-03-29T14:09:52Z</time>
  </trkpt>
  <trkpt lat="33.828254" lon="-6.227837">
   <ele>429.00</ele>
   <time>2014-03-29T14:09:55Z</time>
  </trkpt>
  <trkpt lat="33.827734" lon="-6.227043">
   <ele>428.00</ele>
   <time>2014-03-29T14:09:58Z</time>
  </trkpt>
  <trkpt lat="33.827078" lon="-6.225953">
   <ele>428.00</ele>
   <time>2014-03-29T14:10:02Z</time>
  </trkpt>
  <trkpt lat="33.826459" lon="-6.224817">
   <ele>430.00</ele>
   <time>2014-03-29T14:10:06Z</time>
  </trkpt>
  <trkpt lat="33.826036" lon="-6.223933">
   <ele>431.00</ele>
   <time>2014-03-29T14:10:09Z</time>
  </trkpt>
  <trkpt lat="33.825641" lon="-6.223028">
   <ele>431.00</ele>
   <time>2014-03-29T14:10:12Z</time>
  </trkpt>
  <trkpt lat="33.825270" lon="-6.222108">
   <ele>430.00</ele>
   <time>2014-03-29T14:10:15Z</time>
  </trkpt>
  <trkpt lat="33.824816" lon="-6.220858">
   <ele>429.00</ele>
   <time>2014-03-29T14:10:19Z</time>
  </trkpt>
  <trkpt lat="33.824512" lon="-6.219909">
   <ele>429.00</ele>
   <time>2014-03-29T14:10:22Z</time>
  </trkpt>
  <trkpt lat="33.824147" lon="-6.218627">
   <ele>429.00</ele>
   <time>2014-03-29T14:10:26Z</time>
  </trkpt>
  <trkpt lat="33.823988" lon="-6.217978">
   <ele>429.00</ele>
   <time>2014-03-29T14:10:28Z</time>
  </trkpt>
  <trkpt lat="33.823718" lon="-6.216670">
   <ele>429.00</ele>
   <time>2014-03-29T14:10:32Z</time>
  </trkpt>
  <trkpt lat="33.823495" lon="-6.215348">
   <ele>429.00</ele>
   <time>2014-03-29T14:10:36Z</time>
  </trkpt>
  <trkpt lat="33.823325" lon="-6.214009">
   <ele>430.00</ele>
   <time>2014-03-29T14:10:40Z</time>
  </trkpt>
  <trkpt lat="33.822841" lon="-6.208621">
   <ele>432.00</ele>
   <time>2014-03-29T14:10:56Z</time>
  </trkpt>
  <trkpt lat="33.822387" lon="-6.203549">
   <ele>435.00</ele>
   <time>2014-03-29T14:11:11Z</time>
  </trkpt>
  <trkpt lat="33.821893" lon="-6.198146">
   <ele>437.00</ele>
   <time>2014-03-29T14:11:27Z</time>
  </trkpt>
  <trkpt lat="33.821430" lon="-6.193054">
   <ele>440.00</ele>
   <time>2014-03-29T14:11:42Z</time>
  </trkpt>
  <trkpt lat="33.820934" lon="-6.187603">
   <ele>443.00</ele>
   <time>2014-03-29T14:11:58Z</time>
  </trkpt>
  <trkpt lat="33.820464" lon="-6.182475">
   <ele>446.00</ele>
   <time>2014-03-29T14:12:13Z</time>
  </trkpt>
  <trkpt lat="33.820211" lon="-6.179403">
   <ele>447.00</ele>
   <time>2014-03-29T14:12:22Z</time>
  </trkpt>
  <trkpt lat="33.820158" lon="-6.178047">
   <ele>448.00</ele>
   <time>2014-03-29T14:12:26Z</time>
  </trkpt>
  <trkpt lat="33.820149" lon="-6.176686">
   <ele>450.00</ele>
   <time>2014-03-29T14:12:30Z</time>
  </trkpt>
  <trkpt lat="33.820175" lon="-6.175665">
   <ele>451.00</ele>
   <time>2014-03-29T14:12:33Z</time>
  </trkpt>
  <trkpt lat="33.820235" lon="-6.174644">
   <ele>452.00</ele>
   <time>2014-03-29T14:12:36Z</time>
  </trkpt>
  <trkpt lat="33.820551" lon="-6.170235">
   <ele>451.00</ele>
   <time>2014-03-29T14:12:49Z</time>
  </trkpt>
  <trkpt lat="33.820572" lon="-6.169206">
   <ele>451.00</ele>
   <time>2014-03-29T14:12:52Z</time>
  </trkpt>
  <trkpt lat="33.820547" lon="-6.167476">
   <ele>450.00</ele>
   <time>2014-03-29T14:12:57Z</time>
  </trkpt>
  <trkpt lat="33.820476" lon="-6.166093">
   <ele>449.00</ele>
   <time>2014-03-29T14:13:01Z</time>
  </trkpt>
  <trkpt lat="33.820421" lon="-6.165404">
   <ele>447.00</ele>
   <time>2014-03-29T14:13:03Z</time>
  </trkpt>
  <trkpt lat="33.820225" lon="-6.163687">
   <ele>443.00</ele>
   <time>2014-03-29T14:13:08Z</time>
  </trkpt>
  <trkpt lat="33.820070" lon="-6.162664">
   <ele>441.00</ele>
   <time>2014-03-29T14:13:11Z</time>
  </trkpt>
  <trkpt lat="33.819190" lon="-6.157708">
   <ele>430.00</ele>
   <time>2014-03-29T14:13:26Z</time>
  </trkpt>
  <trkpt lat="33.818982" lon="-6.156051">
   <ele>426.00</ele>
   <time>2014-03-29T14:13:31Z</time>
  </trkpt>
  <trkpt lat="33.818829" lon="-6.154330">
   <ele>423.00</ele>
   <time>2014-03-29T14:13:36Z</time>
  </trkpt>
  <trkpt lat="33.818760" lon="-6.152934">
   <ele>422.00</ele>
   <time>2014-03-29T14:13:40Z</time>
  </trkpt>
  <trkpt lat="33.818733" lon="-6.151211">
   <ele>423.00</ele>
   <time>2014-03-29T14:13:45Z</time>
  </trkpt>
  <trkpt lat="33.818763" lon="-6.149508">
   <ele>425.00</ele>
   <time>2014-03-29T14:13:50Z</time>
  </trkpt>
  <trkpt lat="33.818824" lon="-6.145813">
   <ele>432.00</ele>
   <time>2014-03-29T14:14:01Z</time>
  </trkpt>
  <trkpt lat="33.818817" lon="-6.143462">
   <ele>433.00</ele>
   <time>2014-03-29T14:14:08Z</time>
  </trkpt>
  <trkpt lat="33.818746" lon="-6.142102">
   <ele>434.00</ele>
   <time>2014-03-29T14:14:12Z</time>
  </trkpt>
  <trkpt lat="33.818386" lon="-6.138004">
   <ele>434.00</ele>
   <time>2014-03-29T14:14:24Z</time>
  </trkpt>
  <trkpt lat="33.817893" lon="-6.133565">
   <ele>432.00</ele>
   <time>2014-03-29T14:14:37Z</time>
  </trkpt>
  <trkpt lat="33.817804" lon="-6.131842">
   <ele>431.00</ele>
   <time>2014-03-29T14:14:42Z</time>
  </trkpt>
  <trkpt lat="33.817785" lon="-6.130455">
   <ele>431.00</ele>
   <time>2014-03-29T14:14:46Z</time>
  </trkpt>
  <trkpt lat="33.817815" lon="-6.128714">
   <ele>431.00</ele>
   <time>2014-03-29T14:14:51Z</time>
  </trkpt>
  <trkpt lat="33.817921" lon="-6.126989">
   <ele>431.00</ele>
   <time>2014-03-29T14:14:56Z</time>
  </trkpt>
  <trkpt lat="33.818120" lon="-6.124948">
   <ele>432.00</ele>
   <time>2014-03-29T14:15:02Z</time>
  </trkpt>
  <trkpt lat="33.818660" lon="-6.119963">
   <ele>438.00</ele>
   <time>2014-03-29T14:15:17Z</time>
  </trkpt>
  <trkpt lat="33.819135" lon="-6.115288">
   <ele>444.00</ele>
   <time>2014-03-29T14:15:31Z</time>
  </trkpt>
  <trkpt lat="33.819196" lon="-6.113948">
   <ele>447.00</ele>
   <time>2014-03-29T14:15:35Z</time>
  </trkpt>
  <trkpt lat="33.819196" lon="-6.113279">
   <ele>448.00</ele>
   <time>2014-03-29T14:15:37Z</time>
  </trkpt>
  <trkpt lat="33.819165" lon="-6.112281">
   <ele>450.00</ele>
   <time>2014-03-29T14:15:40Z</time>
  </trkpt>
  <trkpt lat="33.819097" lon="-6.111288">
   <ele>451.00</ele>
   <time>2014-03-29T14:15:43Z</time>
  </trkpt>
  <trkpt lat="33.818989" lon="-6.110302">
   <ele>452.00</ele>
   <time>2014-03-29T14:15:46Z</time>
  </trkpt>
  <trkpt lat="33.818842" lon="-6.109324">
   <ele>453.00</ele>
   <time>2014-03-29T14:15:49Z</time>
  </trkpt>
  <trkpt lat="33.818662" lon="-6.108356">
   <ele>454.00</ele>
   <time>2014-03-29T14:15:52Z</time>
  </trkpt>
  <trkpt lat="33.818518" lon="-6.107716">
   <ele>455.00</ele>
   <time>2014-03-29T14:15:54Z</time>
  </trkpt>
  <trkpt lat="33.818277" lon="-6.106765">
   <ele>456.00</ele>
   <time>2014-03-29T14:15:57Z</time>
  </trkpt>
  <trkpt lat="33.817995" lon="-6.105829">
   <ele>456.00</ele>
   <time>2014-03-29T14:16:00Z</time>
  </trkpt>
  <trkpt lat="33.817786" lon="-6.105215">
   <ele>456.00</ele>
   <time>2014-03-29T14:16:02Z</time>
  </trkpt>
  <trkpt lat="33.817443" lon="-6.104309">
   <ele>457.00</ele>
   <time>2014-03-29T14:16:05Z</time>
  </trkpt>
  <trkpt lat="33.817065" lon="-6.103424">
   <ele>457.00</ele>
   <time>2014-03-29T14:16:08Z</time>
  </trkpt>
  <trkpt lat="33.816657" lon="-6.102563">
   <ele>458.00</ele>
   <time>2014-03-29T14:16:11Z</time>
  </trkpt>
  <trkpt lat="33.816219" lon="-6.101724">
   <ele>459.00</ele>
   <time>2014-03-29T14:16:14Z</time>
  </trkpt>
  <trkpt lat="33.815910" lon="-6.101178">
   <ele>460.00</ele>
   <time>2014-03-29T14:16:16Z</time>
  </trkpt>
  <trkpt lat="33.815417" lon="-6.100385">
   <ele>461.00</ele>
   <time>2014-03-29T14:16:19Z</time>
  </trkpt>
  <trkpt lat="33.815069" lon="-6.099873">
   <ele>462.00</ele>
   <time>2014-03-29T14:16:21Z</time>
  </trkpt>
  <trkpt lat="33.814341" lon="-6.098888">
   <ele>463.00</ele>
   <time>2014-03-29T14:16:25Z</time>
  </trkpt>
  <trkpt lat="33.813766" lon="-6.098187">
   <ele>465.00</ele>
   <time>2014-03-29T14:16:28Z</time>
  </trkpt>
  <trkpt lat="33.813366" lon="-6.097736">
   <ele>465.00</ele>
   <time>2014-03-29T14:16:30Z</time>
  </trkpt>
  <trkpt lat="33.812739" lon="-6.097092">
   <ele>466.00</ele>
   <time>2014-03-29T14:16:33Z</time>
  </trkpt>
  <trkpt lat="33.812091" lon="-6.096482">
   <ele>466.00</ele>
   <time>2014-03-29T14:16:36Z</time>
  </trkpt>
  <trkpt lat="33.811422" lon="-6.095905">
   <ele>467.00</ele>
   <time>2014-03-29T14:16:39Z</time>
  </trkpt>
  <trkpt lat="33.810727" lon="-6.095363">
   <ele>467.00</ele>
   <time>2014-03-29T14:16:42Z</time>
  </trkpt>
  <trkpt lat="33.810014" lon="-6.094856">
   <ele>468.00</ele>
   <time>2014-03-29T14:16:45Z</time>
  </trkpt>
  <trkpt lat="33.809281" lon="-6.094388">
   <ele>468.00</ele>
   <time>2014-03-29T14:16:48Z</time>
  </trkpt>
  <trkpt lat="33.806515" lon="-6.092841">
   <ele>469.00</ele>
   <time>2014-03-29T14:16:59Z</time>
  </trkpt>
  <trkpt lat="33.805488" lon="-6.092277">
   <ele>469.00</ele>
   <time>2014-03-29T14:17:03Z</time>
  </trkpt>
  <trkpt lat="33.804984" lon="-6.091958">
   <ele>470.00</ele>
   <time>2014-03-29T14:17:05Z</time>
  </trkpt>
  <trkpt lat="33.804495" lon="-6.091607">
   <ele>470.00</ele>
   <time>2014-03-29T14:17:07Z</time>
  </trkpt>
  <trkpt lat="33.804021" lon="-6.091225">
   <ele>470.00</ele>
   <time>2014-03-29T14:17:09Z</time>
  </trkpt>
  <trkpt lat="33.803567" lon="-6.090813">
   <ele>471.00</ele>
   <time>2014-03-29T14:17:11Z</time>
  </trkpt>
  <trkpt lat="33.803133" lon="-6.090379">
   <ele>472.00</ele>
   <time>2014-03-29T14:17:13Z</time>
  </trkpt>
  <trkpt lat="33.802720" lon="-6.089921">
   <ele>471.00</ele>
   <time>2014-03-29T14:17:15Z</time>
  </trkpt>
  <trkpt lat="33.802323" lon="-6.089439">
   <ele>472.00</ele>
   <time>2014-03-29T14:17:17Z</time>
  </trkpt>
  <trkpt lat="33.801948" lon="-6.088930">
   <ele>472.00</ele>
   <time>2014-03-29T14:17:19Z</time>
  </trkpt>
  <trkpt lat="33.801601" lon="-6.088398">
   <ele>472.00</ele>
   <time>2014-03-29T14:17:21Z</time>
  </trkpt>
  <trkpt lat="33.801279" lon="-6.087845">
   <ele>473.00</ele>
   <time>2014-03-29T14:17:23Z</time>
  </trkpt>
  <trkpt lat="33.800973" lon="-6.087278">
   <ele>473.00</ele>
   <time>2014-03-29T14:17:25Z</time>
  </trkpt>
  <trkpt lat="33.800692" lon="-6.086691">
   <ele>473.00</ele>
   <time>2014-03-29T14:17:27Z</time>
  </trkpt>
  <trkpt lat="33.800442" lon="-6.086085">
   <ele>472.00</ele>
   <time>2014-03-29T14:17:29Z</time>
  </trkpt>
  <trkpt lat="33.800220" lon="-6.085463">
   <ele>472.00</ele>
   <time>2014-03-29T14:17:31Z</time>
  </trkpt>
  <trkpt lat="33.800024" lon="-6.084829">
   <ele>472.00</ele>
   <time>2014-03-29T14:17:33Z</time>
  </trkpt>
  <trkpt lat="33.799853" lon="-6.084189">
   <ele>471.00</ele>
   <time>2014-03-29T14:17:35Z</time>
  </trkpt>
  <trkpt lat="33.798646" lon="-6.079386">
   <ele>471.00</ele>
   <time>2014-03-29T14:17:50Z</time>
  </trkpt>
  <trkpt lat="33.798093" lon="-6.077128">
   <ele>470.00</ele>
   <time>2014-03-29T14:17:57Z</time>
  </trkpt>
  <trkpt lat="33.797965" lon="-6.076470">
   <ele>470.00</ele>
   <time>2014-03-29T14:17:59Z</time>
  </trkpt>
  <trkpt lat="33.797866" lon="-6.075802">
   <ele>469.00</ele>
   <time>2014-03-29T14:18:01Z</time>
  </trkpt>
  <trkpt lat="33.797796" lon="-6.075128">
   <ele>469.00</ele>
   <time>2014-03-29T14:18:03Z</time>
  </trkpt>
  <trkpt lat="33.797756" lon="-6.074448">
   <ele>469.00</ele>
   <time>2014-03-29T14:18:05Z</time>
  </trkpt>
  <trkpt lat="33.797745" lon="-6.073766">
   <ele>469.00</ele>
   <time>2014-03-29T14:18:07Z</time>
  </trkpt>
  <trkpt lat="33.797766" lon="-6.073083">
   <ele>469.00</ele>
   <time>2014-03-29T14:18:09Z</time>
  </trkpt>
  <trkpt lat="33.797814" lon="-6.072399">
   <ele>469.00</ele>
   <time>2014-03-29T14:18:11Z</time>
  </trkpt>
  <trkpt lat="33.797891" lon="-6.071716">
   <ele>469.00</ele>
   <time>2014-03-29T14:18:13Z</time>
  </trkpt>
  <trkpt lat="33.798002" lon="-6.071037">
   <ele>468.00</ele>
   <time>2014-03-29T14:18:15Z</time>
  </trkpt>
  <trkpt lat="33.798201" lon="-6.070027">
   <ele>467.00</ele>
   <time>2014-03-29T14:18:18Z</time>
  </trkpt>
  <trkpt lat="33.799321" lon="-6.064682">
   <ele>463.00</ele>
   <time>2014-03-29T14:18:34Z</time>
  </trkpt>
  <trkpt lat="33.799725" lon="-6.062663">
   <ele>462.00</ele>
   <time>2014-03-29T14:18:40Z</time>
  </trkpt>
  <trkpt lat="33.799941" lon="-6.061313">
   <ele>461.00</ele>
   <time>2014-03-29T14:18:44Z</time>
  </trkpt>
  <trkpt lat="33.800063" lon="-6.060302">
   <ele>461.00</ele>
   <time>2014-03-29T14:18:47Z</time>
  </trkpt>
  <trkpt lat="33.800158" lon="-6.059242">
   <ele>462.00</ele>
   <time>2014-03-29T14:18:50Z</time>
  </trkpt>
  <trkpt lat="33.800213" lon="-6.058161">
   <ele>463.00</ele>
   <time>2014-03-29T14:18:53Z</time>
  </trkpt>
  <trkpt lat="33.800222" lon="-6.057099">
   <ele>464.00</ele>
   <time>2014-03-29T14:18:56Z</time>
  </trkpt>
  <trkpt lat="33.800182" lon="-6.052210">
   <ele>468.00</ele>
   <time>2014-03-29T14:19:10Z</time>
  </trkpt>
  <trkpt lat="33.800229" lon="-6.051168">
   <ele>469.00</ele>
   <time>2014-03-29T14:19:13Z</time>
  </trkpt>
  <trkpt lat="33.800337" lon="-6.049794">
   <ele>471.00</ele>
   <time>2014-03-29T14:19:17Z</time>
  </trkpt>
  <trkpt lat="33.800455" lon="-6.048778">
   <ele>472.00</ele>
   <time>2014-03-29T14:19:20Z</time>
  </trkpt>
  <trkpt lat="33.800605" lon="-6.047774">
   <ele>473.00</ele>
   <time>2014-03-29T14:19:23Z</time>
  </trkpt>
  <trkpt lat="33.800785" lon="-6.046782">
   <ele>473.00</ele>
   <time>2014-03-29T14:19:26Z</time>
  </trkpt>
  <trkpt lat="33.801000" lon="-6.045810">
   <ele>474.00</ele>
   <time>2014-03-29T14:19:29Z</time>
  </trkpt>
  <trkpt lat="33.801324" lon="-6.044517">
   <ele>475.00</ele>
   <time>2014-03-29T14:19:33Z</time>
  </trkpt>
  <trkpt lat="33.801778" lon="-6.042931">
   <ele>476.00</ele>
   <time>2014-03-29T14:19:38Z</time>
  </trkpt>
  <trkpt lat="33.802335" lon="-6.041038">
   <ele>477.00</ele>
   <time>2014-03-29T14:19:44Z</time>
  </trkpt>
  <trkpt lat="33.802490" lon="-6.040399">
   <ele>478.00</ele>
   <time>2014-03-29T14:19:46Z</time>
  </trkpt>
  <trkpt lat="33.802692" lon="-6.039432">
   <ele>478.00</ele>
   <time>2014-03-29T14:19:49Z</time>
  </trkpt>
  <trkpt lat="33.802982" lon="-6.037800">
   <ele>479.00</ele>
   <time>2014-03-29T14:19:54Z</time>
  </trkpt>
  <trkpt lat="33.803126" lon="-6.036811">
   <ele>480.00</ele>
   <time>2014-03-29T14:19:57Z</time>
  </trkpt>
  <trkpt lat="33.803233" lon="-6.035814">
   <ele>481.00</ele>
   <time>2014-03-29T14:20:00Z</time>
  </trkpt>
  <trkpt lat="33.803325" lon="-6.034485">
   <ele>482.00</ele>
   <time>2014-03-29T14:20:04Z</time>
  </trkpt>
  <trkpt lat="33.803360" lon="-6.033491">
   <ele>483.00</ele>
   <time>2014-03-29T14:20:07Z</time>
  </trkpt>
  <trkpt lat="33.803361" lon="-6.032159">
   <ele>484.00</ele>
   <time>2014-03-29T14:20:11Z</time>
  </trkpt>
  <trkpt lat="33.803320" lon="-6.031156">
   <ele>485.00</ele>
   <time>2014-03-29T14:20:14Z</time>
  </trkpt>
  <trkpt lat="33.803242" lon="-6.030152">
   <ele>486.00</ele>
   <time>2014-03-29T14:20:17Z</time>
  </trkpt>
  <trkpt lat="33.803099" lon="-6.028815">
   <ele>487.00</ele>
   <time>2014-03-29T14:20:21Z</time>
  </trkpt>
  <trkpt lat="33.802907" lon="-6.027475">
   <ele>488.00</ele>
   <time>2014-03-29T14:20:25Z</time>
  </trkpt>
  <trkpt lat="33.802682" lon="-6.026131">
   <ele>488.00</ele>
   <time>2014-03-29T14:20:29Z</time>
  </trkpt>
  <trkpt lat="33.802540" lon="-6.025463">
   <ele>488.00</ele>
   <time>2014-03-29T14:20:31Z</time>
  </trkpt>
  <trkpt lat="33.802290" lon="-6.024468">
   <ele>488.00</ele>
   <time>2014-03-29T14:20:34Z</time>
  </trkpt>
  <trkpt lat="33.801991" lon="-6.023483">
   <ele>487.00</ele>
   <time>2014-03-29T14:20:37Z</time>
  </trkpt>
  <trkpt lat="33.800220" lon="-6.018274">
   <ele>477.00</ele>
   <time>2014-03-29T14:20:53Z</time>
  </trkpt>
  <trkpt lat="33.798565" lon="-6.013401">
   <ele>460.00</ele>
   <time>2014-03-29T14:21:08Z</time>
  </trkpt>
  <trkpt lat="33.797811" lon="-6.011133">
   <ele>451.00</ele>
   <time>2014-03-29T14:21:15Z</time>
  </trkpt>
  <trkpt lat="33.797632" lon="-6.010473">
   <ele>449.00</ele>
   <time>2014-03-29T14:21:17Z</time>
  </trkpt>
  <trkpt lat="33.797559" lon="-6.010139">
   <ele>448.00</ele>
   <time>2014-03-29T14:21:18Z</time>
  </trkpt>
  <trkpt lat="33.797499" lon="-6.009802">
   <ele>447.00</ele>
   <time>2014-03-29T14:21:19Z</time>
  </trkpt>
  <trkpt lat="33.797449" lon="-6.009464">
   <ele>446.00</ele>
   <time>2014-03-29T14:21:20Z</time>
  </trkpt>
  <trkpt lat="33.797382" lon="-6.008781">
   <ele>443.00</ele>
   <time>2014-03-29T14:21:22Z</time>
  </trkpt>
  <trkpt lat="33.797364" lon="-6.008437">
   <ele>442.00</ele>
   <time>2014-03-29T14:21:23Z</time>
  </trkpt>
  <trkpt lat="33.797357" lon="-6.008092">
   <ele>440.00</ele>
   <time>2014-03-29T14:21:24Z</time>
  </trkpt>
  <trkpt lat="33.797361" lon="-6.007749">
   <ele>440.00</ele>
   <time>2014-03-29T14:21:25Z</time>
  </trkpt>
  <trkpt lat="33.797376" lon="-6.007408">
   <ele>439.00</ele>
   <time>2014-03-29T14:21:26Z</time>
  </trkpt>
  <trkpt lat="33.797401" lon="-6.007072">
   <ele>438.00</ele>
   <time>2014-03-29T14:21:27Z</time>
  </trkpt>
  <trkpt lat="33.797480" lon="-6.006411">
   <ele>436.00</ele>
   <time>2014-03-29T14:21:29Z</time>
  </trkpt>
  <trkpt lat="33.797589" lon="-6.005767">
   <ele>432.00</ele>
   <time>2014-03-29T14:21:31Z</time>
  </trkpt>
  <trkpt lat="33.797755" lon="-6.004816">
   <ele>428.00</ele>
   <time>2014-03-29T14:21:34Z</time>
  </trkpt>
  <trkpt lat="33.797793" lon="-6.004500">
   <ele>427.00</ele>
   <time>2014-03-29T14:21:35Z</time>
  </trkpt>
  <trkpt lat="33.797817" lon="-6.004186">
   <ele>426.00</ele>
   <time>2014-03-29T14:21:36Z</time>
  </trkpt>
  <trkpt lat="33.797824" lon="-6.003873">
   <ele>425.00</ele>
   <time>2014-03-29T14:21:37Z</time>
  </trkpt>
  <trkpt lat="33.797819" lon="-6.003562">
   <ele>424.00</ele>
   <time>2014-03-29T14:21:38Z</time>
  </trkpt>
  <trkpt lat="33.797800" lon="-6.003253">
   <ele>422.00</ele>
   <time>2014-03-29T14:21:39Z</time>
  </trkpt>
  <trkpt lat="33.797771" lon="-6.002948">
   <ele>421.00</ele>
   <time>2014-03-29T14:21:40Z</time>
  </trkpt>
  <trkpt lat="33.797730" lon="-6.002646">
   <ele>420.00</ele>
   <time>2014-03-29T14:21:41Z</time>
  </trkpt>
  <trkpt lat="33.797678" lon="-6.002347">
   <ele>419.00</ele>
   <time>2014-03-29T14:21:42Z</time>
  </trkpt>
  <trkpt lat="33.797612" lon="-6.002054">
   <ele>418.00</ele>
   <time>2014-03-29T14:21:43Z</time>
  </trkpt>
  <trkpt lat="33.797534" lon="-6.001767">
   <ele>417.00</ele>
   <time>2014-03-29T14:21:44Z</time>
  </trkpt>
  <trkpt lat="33.797445" lon="-6.001486">
   <ele>416.00</ele>
   <time>2014-03-29T14:21:45Z</time>
  </trkpt>
  <trkpt lat="33.797346" lon="-6.001209">
   <ele>415.00</ele>
   <time>2014-03-29T14:21:46Z</time>
  </trkpt>
  <trkpt lat="33.797235" lon="-6.000940">
   <ele>414.00</ele>
   <time>2014-03-29T14:21:47Z</time>
  </trkpt>
  <trkpt lat="33.797116" lon="-6.000678">
   <ele>413.00</ele>
   <time>2014-03-29T14:21:48Z</time>
  </trkpt>
  <trkpt lat="33.796987" lon="-6.000423">
   <ele>411.00</ele>
   <time>2014-03-29T14:21:49Z</time>
  </trkpt>
  <trkpt lat="33.796847" lon="-6.000176">
   <ele>410.00</ele>
   <time>2014-03-29T14:21:50Z</time>
  </trkpt>
  <trkpt lat="33.796697" lon="-5.999937">
   <ele>409.00</ele>
   <time>2014-03-29T14:21:51Z</time>
  </trkpt>
  <trkpt lat="33.796537" lon="-5.999705">
   <ele>408.00</ele>
   <time>2014-03-29T14:21:52Z</time>
  </trkpt>
  <trkpt lat="33.796369" lon="-5.999480">
   <ele>407.00</ele>
   <time>2014-03-29T14:21:53Z</time>
  </trkpt>
  <trkpt lat="33.796194" lon="-5.999263">
   <ele>406.00</ele>
   <time>2014-03-29T14:21:54Z</time>
  </trkpt>
  <trkpt lat="33.796010" lon="-5.999059">
   <ele>405.00</ele>
   <time>2014-03-29T14:21:55Z</time>
  </trkpt>
  <trkpt lat="33.795812" lon="-5.998866">
   <ele>404.00</ele>
   <time>2014-03-29T14:21:56Z</time>
  </trkpt>
  <trkpt lat="33.795601" lon="-5.998683">
   <ele>404.00</ele>
   <time>2014-03-29T14:21:57Z</time>
  </trkpt>
  <trkpt lat="33.795385" lon="-5.998510">
   <ele>403.00</ele>
   <time>2014-03-29T14:21:58Z</time>
  </trkpt>
  <trkpt lat="33.795162" lon="-5.998348">
   <ele>402.00</ele>
   <time>2014-03-29T14:21:59Z</time>
  </trkpt>
  <trkpt lat="33.794931" lon="-5.998200">
   <ele>401.00</ele>
   <time>2014-03-29T14:22:00Z</time>
  </trkpt>
  <trkpt lat="33.794698" lon="-5.998063">
   <ele>401.00</ele>
   <time>2014-03-29T14:22:01Z</time>
  </trkpt>
  <trkpt lat="33.794226" lon="-5.997813">
   <ele>399.00</ele>
   <time>2014-03-29T14:22:03Z</time>
  </trkpt>
  <trkpt lat="33.793298" lon="-5.997311">
   <ele>395.00</ele>
   <time>2014-03-29T14:22:07Z</time>
  </trkpt>
  <trkpt lat="33.792866" lon="-5.997015">
   <ele>393.00</ele>
   <time>2014-03-29T14:22:09Z</time>
  </trkpt>
  <trkpt lat="33.792661" lon="-5.996851">
   <ele>392.00</ele>
   <time>2014-03-29T14:22:10Z</time>
  </trkpt>
  <trkpt lat="33.792463" lon="-5.996674">
   <ele>391.00</ele>
   <time>2014-03-29T14:22:11Z</time>
  </trkpt>
  <trkpt lat="33.792270" lon="-5.996487">
   <ele>390.00</ele>
   <time>2014-03-29T14:22:12Z</time>
  </trkpt>
  <trkpt lat="33.792085" lon="-5.996288">
   <ele>389.00</ele>
   <time>2014-03-29T14:22:13Z</time>
  </trkpt>
  <trkpt lat="33.791906" lon="-5.996077">
   <ele>387.00</ele>
   <time>2014-03-29T14:22:14Z</time>
  </trkpt>
  <trkpt lat="33.791735" lon="-5.995855">
   <ele>387.00</ele>
   <time>2014-03-29T14:22:15Z</time>
  </trkpt>
  <trkpt lat="33.791571" lon="-5.995621">
   <ele>386.00</ele>
   <time>2014-03-29T14:22:16Z</time>
  </trkpt>
  <trkpt lat="33.791417" lon="-5.995377">
   <ele>385.00</ele>
   <time>2014-03-29T14:22:17Z</time>
  </trkpt>
  <trkpt lat="33.791273" lon="-5.995123">
   <ele>384.00</ele>
   <time>2014-03-29T14:22:18Z</time>
  </trkpt>
  <trkpt lat="33.791137" lon="-5.994862">
   <ele>383.00</ele>
   <time>2014-03-29T14:22:19Z</time>
  </trkpt>
  <trkpt lat="33.791010" lon="-5.994593">
   <ele>381.00</ele>
   <time>2014-03-29T14:22:20Z</time>
  </trkpt>
  <trkpt lat="33.790895" lon="-5.994314">
   <ele>380.00</ele>
   <time>2014-03-29T14:22:21Z</time>
  </trkpt>
  <trkpt lat="33.790793" lon="-5.994027">
   <ele>379.00</ele>
   <time>2014-03-29T14:22:22Z</time>
  </trkpt>
  <trkpt lat="33.790702" lon="-5.993733">
   <ele>377.00</ele>
   <time>2014-03-29T14:22:23Z</time>
  </trkpt>
  <trkpt lat="33.790621" lon="-5.993434">
   <ele>375.00</ele>
   <time>2014-03-29T14:22:24Z</time>
  </trkpt>
  <trkpt lat="33.790552" lon="-5.993129">
   <ele>374.00</ele>
   <time>2014-03-29T14:22:25Z</time>
  </trkpt>
  <trkpt lat="33.790497" lon="-5.992819">
   <ele>373.00</ele>
   <time>2014-03-29T14:22:26Z</time>
  </trkpt>
  <trkpt lat="33.790454" lon="-5.992506">
   <ele>371.00</ele>
   <time>2014-03-29T14:22:27Z</time>
  </trkpt>
  <trkpt lat="33.790423" lon="-5.992190">
   <ele>370.00</ele>
   <time>2014-03-29T14:22:28Z</time>
  </trkpt>
  <trkpt lat="33.790404" lon="-5.991872">
   <ele>369.00</ele>
   <time>2014-03-29T14:22:29Z</time>
  </trkpt>
  <trkpt lat="33.790400" lon="-5.991554">
   <ele>368.00</ele>
   <time>2014-03-29T14:22:30Z</time>
  </trkpt>
  <trkpt lat="33.790407" lon="-5.991236">
   <ele>367.00</ele>
   <time>2014-03-29T14:22:31Z</time>
  </trkpt>
  <trkpt lat="33.790428" lon="-5.990919">
   <ele>366.00</ele>
   <time>2014-03-29T14:22:32Z</time>
  </trkpt>
  <trkpt lat="33.790461" lon="-5.990604">
   <ele>365.00</ele>
   <time>2014-03-29T14:22:33Z</time>
  </trkpt>
  <trkpt lat="33.790506" lon="-5.990293">
   <ele>364.00</ele>
   <time>2014-03-29T14:22:34Z</time>
  </trkpt>
  <trkpt lat="33.790624" lon="-5.989683">
   <ele>361.00</ele>
   <time>2014-03-29T14:22:36Z</time>
  </trkpt>
  <trkpt lat="33.791522" lon="-5.985591">
   <ele>343.00</ele>
   <time>2014-03-29T14:22:49Z</time>
  </trkpt>
  <trkpt lat="33.791566" lon="-5.985268">
   <ele>341.00</ele>
   <time>2014-03-29T14:22:50Z</time>
  </trkpt>
  <trkpt lat="33.791596" lon="-5.984943">
   <ele>340.00</ele>
   <time>2014-03-29T14:22:51Z</time>
  </trkpt>
  <trkpt lat="33.791612" lon="-5.984618">
   <ele>338.00</ele>
   <time>2014-03-29T14:22:52Z</time>
  </trkpt>
  <trkpt lat="33.791612" lon="-5.983973">
   <ele>335.00</ele>
   <time>2014-03-29T14:22:54Z</time>
  </trkpt>
  <trkpt lat="33.791593" lon="-5.983652">
   <ele>333.00</ele>
   <time>2014-03-29T14:22:55Z</time>
  </trkpt>
  <trkpt lat="33.791563" lon="-5.983334">
   <ele>332.00</ele>
   <time>2014-03-29T14:22:56Z</time>
  </trkpt>
  <trkpt lat="33.791520" lon="-5.983018">
   <ele>331.00</ele>
   <time>2014-03-29T14:22:57Z</time>
  </trkpt>
  <trkpt lat="33.791468" lon="-5.982705">
   <ele>329.00</ele>
   <time>2014-03-29T14:22:58Z</time>
  </trkpt>
  <trkpt lat="33.791329" lon="-5.982090">
   <ele>326.00</ele>
   <time>2014-03-29T14:23:00Z</time>
  </trkpt>
  <trkpt lat="33.791245" lon="-5.981788">
   <ele>325.00</ele>
   <time>2014-03-29T14:23:01Z</time>
  </trkpt>
  <trkpt lat="33.791148" lon="-5.981492">
   <ele>324.00</ele>
   <time>2014-03-29T14:23:02Z</time>
  </trkpt>
  <trkpt lat="33.791041" lon="-5.981203">
   <ele>322.00</ele>
   <time>2014-03-29T14:23:03Z</time>
  </trkpt>
  <trkpt lat="33.790923" lon="-5.980920">
   <ele>320.00</ele>
   <time>2014-03-29T14:23:04Z</time>
  </trkpt>
  <trkpt lat="33.790793" lon="-5.980641">
   <ele>319.00</ele>
   <time>2014-03-29T14:23:05Z</time>
  </trkpt>
  <trkpt lat="33.790656" lon="-5.980369">
   <ele>318.00</ele>
   <time>2014-03-29T14:23:06Z</time>
  </trkpt>
  <trkpt lat="33.790514" lon="-5.980112">
   <ele>317.00</ele>
   <time>2014-03-29T14:23:07Z</time>
  </trkpt>
  <trkpt lat="33.790362" lon="-5.979867">
   <ele>316.00</ele>
   <time>2014-03-29T14:23:08Z</time>
  </trkpt>
  <trkpt lat="33.790207" lon="-5.979632">
   <ele>314.00</ele>
   <time>2014-03-29T14:23:09Z</time>
  </trkpt>
  <trkpt lat="33.790047" lon="-5.979406">
   <ele>313.00</ele>
   <time>2014-03-29T14:23:10Z</time>
  </trkpt>
  <trkpt lat="33.789883" lon="-5.979190">
   <ele>311.00</ele>
   <time>2014-03-29T14:23:11Z</time>
  </trkpt>
  <trkpt lat="33.789713" lon="-5.978985">
   <ele>308.00</ele>
   <time>2014-03-29T14:23:12Z</time>
  </trkpt>
  <trkpt lat="33.789358" lon="-5.978595">
   <ele>304.00</ele>
   <time>2014-03-29T14:23:14Z</time>
  </trkpt>
  <trkpt lat="33.788975" lon="-5.978221">
   <ele>301.00</ele>
   <time>2014-03-29T14:23:16Z</time>
  </trkpt>
  <trkpt lat="33.787829" lon="-5.977097">
   <ele>292.00</ele>
   <time>2014-03-29T14:23:22Z</time>
  </trkpt>
  <trkpt lat="33.787282" lon="-5.976493">
   <ele>288.00</ele>
   <time>2014-03-29T14:23:25Z</time>
  </trkpt>
  <trkpt lat="33.786755" lon="-5.975856">
   <ele>283.00</ele>
   <time>2014-03-29T14:23:28Z</time>
  </trkpt>
  <trkpt lat="33.786252" lon="-5.975184">
   <ele>278.00</ele>
   <time>2014-03-29T14:23:31Z</time>
  </trkpt>
  <trkpt lat="33.785775" lon="-5.974482">
   <ele>273.00</ele>
   <time>2014-03-29T14:23:34Z</time>
  </trkpt>
  <trkpt lat="33.785475" lon="-5.973998">
   <ele>270.00</ele>
   <time>2014-03-29T14:23:36Z</time>
  </trkpt>
  <trkpt lat="33.784902" lon="-5.973004">
   <ele>266.00</ele>
   <time>2014-03-29T14:23:40Z</time>
  </trkpt>
  <trkpt lat="33.784387" lon="-5.971970">
   <ele>261.00</ele>
   <time>2014-03-29T14:23:44Z</time>
  </trkpt>
  <trkpt lat="33.783903" lon="-5.970886">
   <ele>256.00</ele>
   <time>2014-03-29T14:23:48Z</time>
  </trkpt>
  <trkpt lat="33.782118" lon="-5.966722">
   <ele>237.00</ele>
   <time>2014-03-29T14:24:03Z</time>
  </trkpt>
  <trkpt lat="33.780399" lon="-5.962724">
   <ele>222.00</ele>
   <time>2014-03-29T14:24:18Z</time>
  </trkpt>
  <trkpt lat="33.780202" lon="-5.962195">
   <ele>220.00</ele>
   <time>2014-03-29T14:24:20Z</time>
  </trkpt>
  <trkpt lat="33.779940" lon="-5.961379">
   <ele>217.00</ele>
   <time>2014-03-29T14:24:23Z</time>
  </trkpt>
  <trkpt lat="33.779788" lon="-5.960820">
   <ele>215.00</ele>
   <time>2014-03-29T14:24:25Z</time>
  </trkpt>
  <trkpt lat="33.779656" lon="-5.960248">
   <ele>213.00</ele>
   <time>2014-03-29T14:24:27Z</time>
  </trkpt>
  <trkpt lat="33.779545" lon="-5.959667">
   <ele>210.00</ele>
   <time>2014-03-29T14:24:29Z</time>
  </trkpt>
  <trkpt lat="33.779455" lon="-5.959079">
   <ele>208.00</ele>
   <time>2014-03-29T14:24:31Z</time>
  </trkpt>
  <trkpt lat="33.779385" lon="-5.958479">
   <ele>206.00</ele>
   <time>2014-03-29T14:24:33Z</time>
  </trkpt>
  <trkpt lat="33.779340" lon="-5.957865">
   <ele>204.00</ele>
   <time>2014-03-29T14:24:35Z</time>
  </trkpt>
  <trkpt lat="33.779323" lon="-5.957242">
   <ele>202.00</ele>
   <time>2014-03-29T14:24:37Z</time>
  </trkpt>
  <trkpt lat="33.779328" lon="-5.956317">
   <ele>198.00</ele>
   <time>2014-03-29T14:24:40Z</time>
  </trkpt>
  <trkpt lat="33.779427" lon="-5.951422">
   <ele>183.00</ele>
   <time>2014-03-29T14:24:56Z</time>
  </trkpt>
  <trkpt lat="33.779532" lon="-5.946814">
   <ele>179.00</ele>
   <time>2014-03-29T14:25:11Z</time>
  </trkpt>
  <trkpt lat="33.779626" lon="-5.941945">
   <ele>183.00</ele>
   <time>2014-03-29T14:25:27Z</time>
  </trkpt>
  <trkpt lat="33.779718" lon="-5.938055">
   <ele>184.00</ele>
   <time>2014-03-29T14:25:39Z</time>
  </trkpt>
  <trkpt lat="33.779821" lon="-5.936729">
   <ele>185.00</ele>
   <time>2014-03-29T14:25:43Z</time>
  </trkpt>
  <trkpt lat="33.779970" lon="-5.935401">
   <ele>185.00</ele>
   <time>2014-03-29T14:25:47Z</time>
  </trkpt>
  <trkpt lat="33.780172" lon="-5.934073">
   <ele>185.00</ele>
   <time>2014-03-29T14:25:51Z</time>
  </trkpt>
  <trkpt lat="33.780356" lon="-5.933081">
   <ele>185.00</ele>
   <time>2014-03-29T14:25:54Z</time>
  </trkpt>
  <trkpt lat="33.780792" lon="-5.931143">
   <ele>185.00</ele>
   <time>2014-03-29T14:26:00Z</time>
  </trkpt>
  <trkpt lat="33.781045" lon="-5.930188">
   <ele>185.00</ele>
   <time>2014-03-29T14:26:03Z</time>
  </trkpt>
  <trkpt lat="33.781333" lon="-5.929240">
   <ele>185.00</ele>
   <time>2014-03-29T14:26:06Z</time>
  </trkpt>
  <trkpt lat="33.782325" lon="-5.926114">
   <ele>186.00</ele>
   <time>2014-03-29T14:26:16Z</time>
  </trkpt>
  <trkpt lat="33.782569" lon="-5.925152">
   <ele>186.00</ele>
   <time>2014-03-29T14:26:19Z</time>
  </trkpt>
  <trkpt lat="33.782942" lon="-5.923526">
   <ele>186.00</ele>
   <time>2014-03-29T14:26:24Z</time>
  </trkpt>
  <trkpt lat="33.783126" lon="-5.922537">
   <ele>187.00</ele>
   <time>2014-03-29T14:26:27Z</time>
  </trkpt>
  <trkpt lat="33.783277" lon="-5.921545">
   <ele>187.00</ele>
   <time>2014-03-29T14:26:30Z</time>
  </trkpt>
  <trkpt lat="33.783482" lon="-5.919879">
   <ele>187.00</ele>
   <time>2014-03-29T14:26:35Z</time>
  </trkpt>
  <trkpt lat="33.783589" lon="-5.918534">
   <ele>187.00</ele>
   <time>2014-03-29T14:26:39Z</time>
  </trkpt>
  <trkpt lat="33.783639" lon="-5.917526">
   <ele>188.00</ele>
   <time>2014-03-29T14:26:42Z</time>
  </trkpt>
  <trkpt lat="33.783668" lon="-5.916193">
   <ele>188.00</ele>
   <time>2014-03-29T14:26:46Z</time>
  </trkpt>
  <trkpt lat="33.783748" lon="-5.911174">
   <ele>191.00</ele>
   <time>2014-03-29T14:27:01Z</time>
  </trkpt>
  <trkpt lat="33.783816" lon="-5.910178">
   <ele>192.00</ele>
   <time>2014-03-29T14:27:04Z</time>
  </trkpt>
  <trkpt lat="33.783942" lon="-5.908854">
   <ele>192.00</ele>
   <time>2014-03-29T14:27:08Z</time>
  </trkpt>
  <trkpt lat="33.784075" lon="-5.907862">
   <ele>193.00</ele>
   <time>2014-03-29T14:27:11Z</time>
  </trkpt>
  <trkpt lat="33.784293" lon="-5.906544">
   <ele>193.00</ele>
   <time>2014-03-29T14:27:15Z</time>
  </trkpt>
  <trkpt lat="33.784560" lon="-5.905238">
   <ele>193.00</ele>
   <time>2014-03-29T14:27:19Z</time>
  </trkpt>
  <trkpt lat="33.784875" lon="-5.903949">
   <ele>193.00</ele>
   <time>2014-03-29T14:27:23Z</time>
  </trkpt>
  <trkpt lat="33.785143" lon="-5.902996">
   <ele>194.00</ele>
   <time>2014-03-29T14:27:26Z</time>
  </trkpt>
  <trkpt lat="33.785543" lon="-5.901736">
   <ele>194.00</ele>
   <time>2014-03-29T14:27:30Z</time>
  </trkpt>
  <trkpt lat="33.785994" lon="-5.900502">
   <ele>195.00</ele>
   <time>2014-03-29T14:27:34Z</time>
  </trkpt>
  <trkpt lat="33.786488" lon="-5.899300">
   <ele>196.00</ele>
   <time>2014-03-29T14:27:38Z</time>
  </trkpt>
  <trkpt lat="33.787015" lon="-5.898132">
   <ele>197.00</ele>
   <time>2014-03-29T14:27:42Z</time>
  </trkpt>
  <trkpt lat="33.787586" lon="-5.896999">
   <ele>197.00</ele>
   <time>2014-03-29T14:27:46Z</time>
  </trkpt>
  <trkpt lat="33.788196" lon="-5.895894">
   <ele>198.00</ele>
   <time>2014-03-29T14:27:50Z</time>
  </trkpt>
  <trkpt lat="33.790822" lon="-5.891483">
   <ele>198.00</ele>
   <time>2014-03-29T14:28:06Z</time>
  </trkpt>
  <trkpt lat="33.793459" lon="-5.887142">
   <ele>208.00</ele>
   <time>2014-03-29T14:28:22Z</time>
  </trkpt>
  <trkpt lat="33.793977" lon="-5.886341">
   <ele>210.00</ele>
   <time>2014-03-29T14:28:25Z</time>
  </trkpt>
  <trkpt lat="33.794349" lon="-5.885831">
   <ele>212.00</ele>
   <time>2014-03-29T14:28:27Z</time>
  </trkpt>
  <trkpt lat="33.794928" lon="-5.885106">
   <ele>215.00</ele>
   <time>2014-03-29T14:28:30Z</time>
  </trkpt>
  <trkpt lat="33.795331" lon="-5.884637">
   <ele>217.00</ele>
   <time>2014-03-29T14:28:32Z</time>
  </trkpt>
  <trkpt lat="33.795957" lon="-5.883968">
   <ele>220.00</ele>
   <time>2014-03-29T14:28:35Z</time>
  </trkpt>
  <trkpt lat="33.796802" lon="-5.883132">
   <ele>223.00</ele>
   <time>2014-03-29T14:28:39Z</time>
  </trkpt>
  <trkpt lat="33.798705" lon="-5.881286">
   <ele>230.00</ele>
   <time>2014-03-29T14:28:48Z</time>
  </trkpt>
  <trkpt lat="33.799306" lon="-5.880618">
   <ele>232.00</ele>
   <time>2014-03-29T14:28:51Z</time>
  </trkpt>
  <trkpt lat="33.799876" lon="-5.879921">
   <ele>234.00</ele>
   <time>2014-03-29T14:28:54Z</time>
  </trkpt>
  <trkpt lat="33.800420" lon="-5.879196">
   <ele>236.00</ele>
   <time>2014-03-29T14:28:57Z</time>
  </trkpt>
  <trkpt lat="33.800940" lon="-5.878436">
   <ele>238.00</ele>
   <time>2014-03-29T14:29:00Z</time>
  </trkpt>
  <trkpt lat="33.801428" lon="-5.877637">
   <ele>240.00</ele>
   <time>2014-03-29T14:29:03Z</time>
  </trkpt>
  <trkpt lat="33.801885" lon="-5.876810">
   <ele>242.00</ele>
   <time>2014-03-29T14:29:06Z</time>
  </trkpt>
  <trkpt lat="33.802313" lon="-5.875966">
   <ele>243.00</ele>
   <time>2014-03-29T14:29:09Z</time>
  </trkpt>
  <trkpt lat="33.802706" lon="-5.875103">
   <ele>245.00</ele>
   <time>2014-03-29T14:29:12Z</time>
  </trkpt>
  <trkpt lat="33.803065" lon="-5.874218">
   <ele>247.00</ele>
   <time>2014-03-29T14:29:15Z</time>
  </trkpt>
  <trkpt lat="33.804426" lon="-5.870649">
   <ele>257.00</ele>
   <time>2014-03-29T14:29:27Z</time>
  </trkpt>
  <trkpt lat="33.804815" lon="-5.869781">
   <ele>260.00</ele>
   <time>2014-03-29T14:29:30Z</time>
  </trkpt>
  <trkpt lat="33.805240" lon="-5.868930">
   <ele>262.00</ele>
   <time>2014-03-29T14:29:33Z</time>
  </trkpt>
  <trkpt lat="33.805544" lon="-5.868379">
   <ele>264.00</ele>
   <time>2014-03-29T14:29:35Z</time>
  </trkpt>
  <trkpt lat="33.806028" lon="-5.867573">
   <ele>266.00</ele>
   <time>2014-03-29T14:29:38Z</time>
  </trkpt>
  <trkpt lat="33.806544" lon="-5.866789">
   <ele>269.00</ele>
   <time>2014-03-29T14:29:41Z</time>
  </trkpt>
  <trkpt lat="33.807092" lon="-5.866031">
   <ele>272.00</ele>
   <time>2014-03-29T14:29:44Z</time>
  </trkpt>
  <trkpt lat="33.807665" lon="-5.865304">
   <ele>274.00</ele>
   <time>2014-03-29T14:29:47Z</time>
  </trkpt>
  <trkpt lat="33.808059" lon="-5.864845">
   <ele>277.00</ele>
   <time>2014-03-29T14:29:49Z</time>
  </trkpt>
  <trkpt lat="33.808473" lon="-5.864404">
   <ele>280.00</ele>
   <time>2014-03-29T14:29:51Z</time>
  </trkpt>
  <trkpt lat="33.809113" lon="-5.863775">
   <ele>283.00</ele>
   <time>2014-03-29T14:29:54Z</time>
  </trkpt>
  <trkpt lat="33.809742" lon="-5.863201">
   <ele>285.00</ele>
   <time>2014-03-29T14:29:57Z</time>
  </trkpt>
  <trkpt lat="33.811077" lon="-5.862074">
   <ele>287.00</ele>
   <time>2014-03-29T14:30:07Z</time>
  </trkpt>
  <trkpt lat="33.813123" lon="-5.860374">
   <ele>288.00</ele>
   <time>2014-03-29T14:30:23Z</time>
  </trkpt>
  <trkpt lat="33.815336" lon="-5.858540">
   <ele>283.00</ele>
   <time>2014-03-29T14:30:35Z</time>
  </trkpt>
  <trkpt lat="33.815748" lon="-5.858249">
   <ele>281.00</ele>
   <time>2014-03-29T14:30:37Z</time>
  </trkpt>
  <trkpt lat="33.816185" lon="-5.857976">
   <ele>279.00</ele>
   <time>2014-03-29T14:30:39Z</time>
  </trkpt>
  <trkpt lat="33.816643" lon="-5.857727">
   <ele>277.00</ele>
   <time>2014-03-29T14:30:41Z</time>
  </trkpt>
  <trkpt lat="33.817131" lon="-5.857500">
   <ele>275.00</ele>
   <time>2014-03-29T14:30:43Z</time>
  </trkpt>
  <trkpt lat="33.817640" lon="-5.857301">
   <ele>272.00</ele>
   <time>2014-03-29T14:30:45Z</time>
  </trkpt>
  <trkpt lat="33.818184" lon="-5.857133">
   <ele>270.00</ele>
   <time>2014-03-29T14:30:47Z</time>
  </trkpt>
  <trkpt lat="33.818764" lon="-5.856999">
   <ele>267.00</ele>
   <time>2014-03-29T14:30:49Z</time>
  </trkpt>
  <trkpt lat="33.823454" lon="-5.856212">
   <ele>248.00</ele>
   <time>2014-03-29T14:31:05Z</time>
  </trkpt>
  <trkpt lat="33.825676" lon="-5.855820">
   <ele>248.00</ele>
   <time>2014-03-29T14:31:13Z</time>
  </trkpt>
  <trkpt lat="33.825943" lon="-5.855746">
   <ele>249.00</ele>
   <time>2014-03-29T14:31:14Z</time>
  </trkpt>
  <trkpt lat="33.826476" lon="-5.855564">
   <ele>250.00</ele>
   <time>2014-03-29T14:31:16Z</time>
  </trkpt>
  <trkpt lat="33.826740" lon="-5.855456">
   <ele>251.00</ele>
   <time>2014-03-29T14:31:17Z</time>
  </trkpt>
  <trkpt lat="33.827259" lon="-5.855206">
   <ele>251.00</ele>
   <time>2014-03-29T14:31:19Z</time>
  </trkpt>
  <trkpt lat="33.827765" lon="-5.854912">
   <ele>253.00</ele>
   <time>2014-03-29T14:31:21Z</time>
  </trkpt>
  <trkpt lat="33.828262" lon="-5.854580">
   <ele>254.00</ele>
   <time>2014-03-29T14:31:23Z</time>
  </trkpt>
  <trkpt lat="33.828746" lon="-5.854208">
   <ele>255.00</ele>
   <time>2014-03-29T14:31:25Z</time>
  </trkpt>
  <trkpt lat="33.828984" lon="-5.854005">
   <ele>256.00</ele>
   <time>2014-03-29T14:31:26Z</time>
  </trkpt>
  <trkpt lat="33.829215" lon="-5.853792">
   <ele>256.00</ele>
   <time>2014-03-29T14:31:27Z</time>
  </trkpt>
  <trkpt lat="33.829443" lon="-5.853567">
   <ele>256.00</ele>
   <time>2014-03-29T14:31:28Z</time>
  </trkpt>
  <trkpt lat="33.829662" lon="-5.853332">
   <ele>257.00</ele>
   <time>2014-03-29T14:31:29Z</time>
  </trkpt>
  <trkpt lat="33.829872" lon="-5.853089">
   <ele>257.00</ele>
   <time>2014-03-29T14:31:30Z</time>
  </trkpt>
  <trkpt lat="33.830267" lon="-5.852581">
   <ele>257.00</ele>
   <time>2014-03-29T14:31:32Z</time>
  </trkpt>
  <trkpt lat="33.830449" lon="-5.852317">
   <ele>258.00</ele>
   <time>2014-03-29T14:31:33Z</time>
  </trkpt>
  <trkpt lat="33.830625" lon="-5.852047">
   <ele>258.00</ele>
   <time>2014-03-29T14:31:34Z</time>
  </trkpt>
  <trkpt lat="33.830793" lon="-5.851768">
   <ele>258.00</ele>
   <time>2014-03-29T14:31:35Z</time>
  </trkpt>
  <trkpt lat="33.831100" lon="-5.851186">
   <ele>258.00</ele>
   <time>2014-03-29T14:31:37Z</time>
  </trkpt>
  <trkpt lat="33.831242" lon="-5.850886">
   <ele>257.00</ele>
   <time>2014-03-29T14:31:38Z</time>
  </trkpt>
  <trkpt lat="33.831373" lon="-5.850578">
   <ele>257.00</ele>
   <time>2014-03-29T14:31:39Z</time>
  </trkpt>
  <trkpt lat="33.831613" lon="-5.849936">
   <ele>255.00</ele>
   <time>2014-03-29T14:31:41Z</time>
  </trkpt>
  <trkpt lat="33.831814" lon="-5.849276">
   <ele>256.00</ele>
   <time>2014-03-29T14:31:43Z</time>
  </trkpt>
  <trkpt lat="33.831989" lon="-5.848611">
   <ele>257.00</ele>
   <time>2014-03-29T14:31:45Z</time>
  </trkpt>
  <trkpt lat="33.832058" lon="-5.848278">
   <ele>259.00</ele>
   <time>2014-03-29T14:31:46Z</time>
  </trkpt>
  <trkpt lat="33.832120" lon="-5.847942">
   <ele>260.00</ele>
   <time>2014-03-29T14:31:47Z</time>
  </trkpt>
  <trkpt lat="33.832214" lon="-5.847272">
   <ele>263.00</ele>
   <time>2014-03-29T14:31:49Z</time>
  </trkpt>
  <trkpt lat="33.832276" lon="-5.846598">
   <ele>265.00</ele>
   <time>2014-03-29T14:31:51Z</time>
  </trkpt>
  <trkpt lat="33.832415" lon="-5.844621">
   <ele>272.00</ele>
   <time>2014-03-29T14:31:57Z</time>
  </trkpt>
  <trkpt lat="33.832511" lon="-5.843996">
   <ele>274.00</ele>
   <time>2014-03-29T14:31:59Z</time>
  </trkpt>
  <trkpt lat="33.832638" lon="-5.843386">
   <ele>275.00</ele>
   <time>2014-03-29T14:32:01Z</time>
  </trkpt>
  <trkpt lat="33.832795" lon="-5.842793">
   <ele>277.00</ele>
   <time>2014-03-29T14:32:03Z</time>
  </trkpt>
  <trkpt lat="33.832978" lon="-5.842213">
   <ele>278.00</ele>
   <time>2014-03-29T14:32:05Z</time>
  </trkpt>
  <trkpt lat="33.833192" lon="-5.841644">
   <ele>279.00</ele>
   <time>2014-03-29T14:32:07Z</time>
  </trkpt>
  <trkpt lat="33.833312" lon="-5.841365">
   <ele>279.00</ele>
   <time>2014-03-29T14:32:08Z</time>
  </trkpt>
  <trkpt lat="33.833442" lon="-5.841090">
   <ele>279.00</ele>
   <time>2014-03-29T14:32:09Z</time>
  </trkpt>
  <trkpt lat="33.833727" lon="-5.840555">
   <ele>280.00</ele>
   <time>2014-03-29T14:32:11Z</time>
  </trkpt>
  <trkpt lat="33.834038" lon="-5.840041">
   <ele>279.00</ele>
   <time>2014-03-29T14:32:13Z</time>
  </trkpt>
  <trkpt lat="33.834378" lon="-5.839547">
   <ele>279.00</ele>
   <time>2014-03-29T14:32:15Z</time>
  </trkpt>
  <trkpt lat="33.834743" lon="-5.839073">
   <ele>279.00</ele>
   <time>2014-03-29T14:32:17Z</time>
  </trkpt>
  <trkpt lat="33.836077" lon="-5.837413">
   <ele>277.00</ele>
   <time>2014-03-29T14:32:24Z</time>
  </trkpt>
  <trkpt lat="33.836259" lon="-5.837158">
   <ele>277.00</ele>
   <time>2014-03-29T14:32:25Z</time>
  </trkpt>
  <trkpt lat="33.836433" lon="-5.836893">
   <ele>276.00</ele>
   <time>2014-03-29T14:32:26Z</time>
  </trkpt>
  <trkpt lat="33.836762" lon="-5.836340">
   <ele>276.00</ele>
   <time>2014-03-29T14:32:28Z</time>
  </trkpt>
  <trkpt lat="33.837068" lon="-5.835767">
   <ele>275.00</ele>
   <time>2014-03-29T14:32:30Z</time>
  </trkpt>
  <trkpt lat="33.837349" lon="-5.835179">
   <ele>275.00</ele>
   <time>2014-03-29T14:32:32Z</time>
  </trkpt>
  <trkpt lat="33.837603" lon="-5.834578">
   <ele>274.00</ele>
   <time>2014-03-29T14:32:34Z</time>
  </trkpt>
  <trkpt lat="33.837827" lon="-5.833967">
   <ele>274.00</ele>
   <time>2014-03-29T14:32:36Z</time>
  </trkpt>
  <trkpt lat="33.838025" lon="-5.833347">
   <ele>275.00</ele>
   <time>2014-03-29T14:32:38Z</time>
  </trkpt>
  <trkpt lat="33.838868" lon="-5.830547">
   <ele>279.00</ele>
   <time>2014-03-29T14:32:47Z</time>
  </trkpt>
  <trkpt lat="33.839434" lon="-5.829035">
   <ele>281.00</ele>
   <time>2014-03-29T14:32:52Z</time>
  </trkpt>
  <trkpt lat="33.839693" lon="-5.828444">
   <ele>282.00</ele>
   <time>2014-03-29T14:32:54Z</time>
  </trkpt>
  <trkpt lat="33.839982" lon="-5.827872">
   <ele>283.00</ele>
   <time>2014-03-29T14:32:56Z</time>
  </trkpt>
  <trkpt lat="33.840444" lon="-5.827043">
   <ele>283.00</ele>
   <time>2014-03-29T14:32:59Z</time>
  </trkpt>
  <trkpt lat="33.841524" lon="-5.825167">
   <ele>283.00</ele>
   <time>2014-03-29T14:33:06Z</time>
  </trkpt>
  <trkpt lat="33.841940" lon="-5.824325">
   <ele>282.00</ele>
   <time>2014-03-29T14:33:09Z</time>
  </trkpt>
  <trkpt lat="33.842196" lon="-5.823745">
   <ele>282.00</ele>
   <time>2014-03-29T14:33:11Z</time>
  </trkpt>
  <trkpt lat="33.842432" lon="-5.823152">
   <ele>281.00</ele>
   <time>2014-03-29T14:33:13Z</time>
  </trkpt>
  <trkpt lat="33.842646" lon="-5.822549">
   <ele>282.00</ele>
   <time>2014-03-29T14:33:15Z</time>
  </trkpt>
  <trkpt lat="33.842933" lon="-5.821630">
   <ele>283.00</ele>
   <time>2014-03-29T14:33:18Z</time>
  </trkpt>
  <trkpt lat="33.843914" lon="-5.817881">
   <ele>289.00</ele>
   <time>2014-03-29T14:33:30Z</time>
  </trkpt>
  <trkpt lat="33.845153" lon="-5.813190">
   <ele>293.00</ele>
   <time>2014-03-29T14:33:45Z</time>
  </trkpt>
  <trkpt lat="33.845440" lon="-5.812262">
   <ele>294.00</ele>
   <time>2014-03-29T14:33:48Z</time>
  </trkpt>
  <trkpt lat="33.845652" lon="-5.811654">
   <ele>294.00</ele>
   <time>2014-03-29T14:33:50Z</time>
  </trkpt>
  <trkpt lat="33.845888" lon="-5.811055">
   <ele>294.00</ele>
   <time>2014-03-29T14:33:52Z</time>
  </trkpt>
  <trkpt lat="33.846150" lon="-5.810466">
   <ele>294.00</ele>
   <time>2014-03-29T14:33:54Z</time>
  </trkpt>
  <trkpt lat="33.846432" lon="-5.809889">
   <ele>294.00</ele>
   <time>2014-03-29T14:33:56Z</time>
  </trkpt>
  <trkpt lat="33.846735" lon="-5.809323">
   <ele>293.00</ele>
   <time>2014-03-29T14:33:58Z</time>
  </trkpt>
  <trkpt lat="33.847058" lon="-5.808770">
   <ele>293.00</ele>
   <time>2014-03-29T14:34:00Z</time>
  </trkpt>
  <trkpt lat="33.847401" lon="-5.808231">
   <ele>292.00</ele>
   <time>2014-03-29T14:34:02Z</time>
  </trkpt>
  <trkpt lat="33.847762" lon="-5.807707">
   <ele>291.00</ele>
   <time>2014-03-29T14:34:04Z</time>
  </trkpt>
  <trkpt lat="33.848320" lon="-5.806955">
   <ele>290.00</ele>
   <time>2014-03-29T14:34:07Z</time>
  </trkpt>
  <trkpt lat="33.851119" lon="-5.803372">
   <ele>289.00</ele>
   <time>2014-03-29T14:34:22Z</time>
  </trkpt>
  <trkpt lat="33.852031" lon="-5.802166">
   <ele>290.00</ele>
   <time>2014-03-29T14:34:27Z</time>
  </trkpt>
  <trkpt lat="33.852382" lon="-5.801659">
   <ele>291.00</ele>
   <time>2014-03-29T14:34:29Z</time>
  </trkpt>
  <trkpt lat="33.852879" lon="-5.800876">
   <ele>292.00</ele>
   <time>2014-03-29T14:34:32Z</time>
  </trkpt>
  <trkpt lat="33.853184" lon="-5.800335">
   <ele>293.00</ele>
   <time>2014-03-29T14:34:34Z</time>
  </trkpt>
  <trkpt lat="33.853469" lon="-5.799777">
   <ele>294.00</ele>
   <time>2014-03-29T14:34:36Z</time>
  </trkpt>
  <trkpt lat="33.853735" lon="-5.799205">
   <ele>295.00</ele>
   <time>2014-03-29T14:34:38Z</time>
  </trkpt>
  <trkpt lat="33.853978" lon="-5.798620">
   <ele>297.00</ele>
   <time>2014-03-29T14:34:40Z</time>
  </trkpt>
  <trkpt lat="33.854315" lon="-5.797728">
   <ele>298.00</ele>
   <time>2014-03-29T14:34:43Z</time>
  </trkpt>
  <trkpt lat="33.855083" lon="-5.795645">
   <ele>303.00</ele>
   <time>2014-03-29T14:34:50Z</time>
  </trkpt>
  <trkpt lat="33.855334" lon="-5.795067">
   <ele>304.00</ele>
   <time>2014-03-29T14:34:52Z</time>
  </trkpt>
  <trkpt lat="33.855609" lon="-5.794505">
   <ele>305.00</ele>
   <time>2014-03-29T14:34:54Z</time>
  </trkpt>
  <trkpt lat="33.855911" lon="-5.793963">
   <ele>305.00</ele>
   <time>2014-03-29T14:34:56Z</time>
  </trkpt>
  <trkpt lat="33.856236" lon="-5.793439">
   <ele>306.00</ele>
   <time>2014-03-29T14:34:58Z</time>
  </trkpt>
  <trkpt lat="33.856582" lon="-5.792930">
   <ele>307.00</ele>
   <time>2014-03-29T14:35:00Z</time>
  </trkpt>
  <trkpt lat="33.856948" lon="-5.792434">
   <ele>307.00</ele>
   <time>2014-03-29T14:35:02Z</time>
  </trkpt>
  <trkpt lat="33.859611" lon="-5.789068">
   <ele>311.00</ele>
   <time>2014-03-29T14:35:16Z</time>
  </trkpt>
  <trkpt lat="33.860016" lon="-5.788609">
   <ele>312.00</ele>
   <time>2014-03-29T14:35:18Z</time>
  </trkpt>
  <trkpt lat="33.860437" lon="-5.788173">
   <ele>313.00</ele>
   <time>2014-03-29T14:35:20Z</time>
  </trkpt>
  <trkpt lat="33.860873" lon="-5.787762">
   <ele>313.00</ele>
   <time>2014-03-29T14:35:22Z</time>
  </trkpt>
  <trkpt lat="33.861328" lon="-5.787379">
   <ele>314.00</ele>
   <time>2014-03-29T14:35:24Z</time>
  </trkpt>
  <trkpt lat="33.861802" lon="-5.787029">
   <ele>315.00</ele>
   <time>2014-03-29T14:35:26Z</time>
  </trkpt>
  <trkpt lat="33.862293" lon="-5.786714">
   <ele>315.00</ele>
   <time>2014-03-29T14:35:28Z</time>
  </trkpt>
  <trkpt lat="33.863048" lon="-5.786284">
   <ele>316.00</ele>
   <time>2014-03-29T14:35:31Z</time>
  </trkpt>
  <trkpt lat="33.863569" lon="-5.786035">
   <ele>318.00</ele>
   <time>2014-03-29T14:35:33Z</time>
  </trkpt>
  <trkpt lat="33.864101" lon="-5.785827">
   <ele>318.00</ele>
   <time>2014-03-29T14:35:35Z</time>
  </trkpt>
  <trkpt lat="33.864635" lon="-5.785648">
   <ele>319.00</ele>
   <time>2014-03-29T14:35:37Z</time>
  </trkpt>
  <trkpt lat="33.865174" lon="-5.785500">
   <ele>320.00</ele>
   <time>2014-03-29T14:35:39Z</time>
  </trkpt>
  <trkpt lat="33.866003" lon="-5.785324">
   <ele>321.00</ele>
   <time>2014-03-29T14:35:42Z</time>
  </trkpt>
  <trkpt lat="33.867671" lon="-5.784981">
   <ele>324.00</ele>
   <time>2014-03-29T14:35:48Z</time>
  </trkpt>
  <trkpt lat="33.868219" lon="-5.784811">
   <ele>325.00</ele>
   <time>2014-03-29T14:35:50Z</time>
  </trkpt>
  <trkpt lat="33.868761" lon="-5.784606">
   <ele>327.00</ele>
   <time>2014-03-29T14:35:52Z</time>
  </trkpt>
  <trkpt lat="33.869291" lon="-5.784370">
   <ele>328.00</ele>
   <time>2014-03-29T14:35:54Z</time>
  </trkpt>
  <trkpt lat="33.869806" lon="-5.784100">
   <ele>331.00</ele>
   <time>2014-03-29T14:35:56Z</time>
  </trkpt>
  <trkpt lat="33.870303" lon="-5.783797">
   <ele>333.00</ele>
   <time>2014-03-29T14:35:58Z</time>
  </trkpt>
  <trkpt lat="33.870784" lon="-5.783467">
   <ele>336.00</ele>
   <time>2014-03-29T14:36:00Z</time>
  </trkpt>
  <trkpt lat="33.871250" lon="-5.783112">
   <ele>339.00</ele>
   <time>2014-03-29T14:36:02Z</time>
  </trkpt>
  <trkpt lat="33.871696" lon="-5.782728">
   <ele>342.00</ele>
   <time>2014-03-29T14:36:04Z</time>
  </trkpt>
  <trkpt lat="33.872123" lon="-5.782319">
   <ele>346.00</ele>
   <time>2014-03-29T14:36:06Z</time>
  </trkpt>
  <trkpt lat="33.872530" lon="-5.781886">
   <ele>349.00</ele>
   <time>2014-03-29T14:36:08Z</time>
  </trkpt>
  <trkpt lat="33.872916" lon="-5.781431">
   <ele>352.00</ele>
   <time>2014-03-29T14:36:10Z</time>
  </trkpt>
  <trkpt lat="33.873280" lon="-5.780951">
   <ele>355.00</ele>
   <time>2014-03-29T14:36:12Z</time>
  </trkpt>
  <trkpt lat="33.873787" lon="-5.780193">
   <ele>360.00</ele>
   <time>2014-03-29T14:36:15Z</time>
  </trkpt>
  <trkpt lat="33.874096" lon="-5.779672">
   <ele>363.00</ele>
   <time>2014-03-29T14:36:17Z</time>
  </trkpt>
  <trkpt lat="33.874384" lon="-5.779139">
   <ele>366.00</ele>
   <time>2014-03-29T14:36:19Z</time>
  </trkpt>
  <trkpt lat="33.874646" lon="-5.778587">
   <ele>369.00</ele>
   <time>2014-03-29T14:36:21Z</time>
  </trkpt>
  <trkpt lat="33.874885" lon="-5.778021">
   <ele>372.00</ele>
   <time>2014-03-29T14:36:23Z</time>
  </trkpt>
  <trkpt lat="33.876534" lon="-5.773707">
   <ele>392.00</ele>
   <time>2014-03-29T14:36:38Z</time>
  </trkpt>
  <trkpt lat="33.878370" lon="-5.768983">
   <ele>411.00</ele>
   <time>2014-03-29T14:36:54Z</time>
  </trkpt>
  <trkpt lat="33.880213" lon="-5.764144">
   <ele>429.00</ele>
   <time>2014-03-29T14:37:10Z</time>
  </trkpt>
  <trkpt lat="33.880643" lon="-5.762924">
   <ele>433.00</ele>
   <time>2014-03-29T14:37:14Z</time>
  </trkpt>
  <trkpt lat="33.881108" lon="-5.761356">
   <ele>439.00</ele>
   <time>2014-03-29T14:37:19Z</time>
  </trkpt>
  <trkpt lat="33.881354" lon="-5.760399">
   <ele>443.00</ele>
   <time>2014-03-29T14:37:22Z</time>
  </trkpt>
  <trkpt lat="33.881639" lon="-5.759122">
   <ele>448.00</ele>
   <time>2014-03-29T14:37:26Z</time>
  </trkpt>
  <trkpt lat="33.882652" lon="-5.754315">
   <ele>465.00</ele>
   <time>2014-03-29T14:37:41Z</time>
  </trkpt>
  <trkpt lat="33.883687" lon="-5.749414">
   <ele>483.00</ele>
   <time>2014-03-29T14:37:56Z</time>
  </trkpt>
  <trkpt lat="33.884815" lon="-5.744085">
   <ele>496.00</ele>
   <time>2014-03-29T14:38:12Z</time>
  </trkpt>
  <trkpt lat="33.885258" lon="-5.742070">
   <ele>498.00</ele>
   <time>2014-03-29T14:38:18Z</time>
  </trkpt>
  <trkpt lat="33.885608" lon="-5.740747">
   <ele>498.00</ele>
   <time>2014-03-29T14:38:22Z</time>
  </trkpt>
  <trkpt lat="33.886000" lon="-5.739448">
   <ele>498.00</ele>
   <time>2014-03-29T14:38:26Z</time>
  </trkpt>
  <trkpt lat="33.887575" lon="-5.734667">
   <ele>499.00</ele>
   <time>2014-03-29T14:38:41Z</time>
  </trkpt>
  <trkpt lat="33.888079" lon="-5.733068">
   <ele>502.00</ele>
   <time>2014-03-29T14:38:46Z</time>
  </trkpt>
  <trkpt lat="33.888422" lon="-5.731760">
   <ele>505.00</ele>
   <time>2014-03-29T14:38:50Z</time>
  </trkpt>
  <trkpt lat="33.888649" lon="-5.730771">
   <ele>507.00</ele>
   <time>2014-03-29T14:38:53Z</time>
  </trkpt>
  <trkpt lat="33.888907" lon="-5.729430">
   <ele>509.00</ele>
   <time>2014-03-29T14:38:57Z</time>
  </trkpt>
  <trkpt lat="33.889116" lon="-5.728066">
   <ele>510.00</ele>
   <time>2014-03-29T14:39:01Z</time>
  </trkpt>
  <trkpt lat="33.889274" lon="-5.726689">
   <ele>512.00</ele>
   <time>2014-03-29T14:39:05Z</time>
  </trkpt>
  <trkpt lat="33.889409" lon="-5.724965">
   <ele>512.00</ele>
   <time>2014-03-29T14:39:10Z</time>
  </trkpt>
  <trkpt lat="33.889453" lon="-5.723566">
   <ele>513.00</ele>
   <time>2014-03-29T14:39:14Z</time>
  </trkpt>
  <trkpt lat="33.889586" lon="-5.718266">
   <ele>516.00</ele>
   <time>2014-03-29T14:39:29Z</time>
  </trkpt>
  <trkpt lat="33.889716" lon="-5.714464">
   <ele>517.00</ele>
   <time>2014-03-29T14:39:40Z</time>
  </trkpt>
  <trkpt lat="33.889796" lon="-5.713452">
   <ele>517.00</ele>
   <time>2014-03-29T14:39:43Z</time>
  </trkpt>
  <trkpt lat="33.889944" lon="-5.712116">
   <ele>517.00</ele>
   <time>2014-03-29T14:39:47Z</time>
  </trkpt>
  <trkpt lat="33.890142" lon="-5.710792">
   <ele>517.00</ele>
   <time>2014-03-29T14:39:51Z</time>
  </trkpt>
  <trkpt lat="33.890389" lon="-5.709477">
   <ele>518.00</ele>
   <time>2014-03-29T14:39:55Z</time>
  </trkpt>
  <trkpt lat="33.891290" lon="-5.705541">
   <ele>519.00</ele>
   <time>2014-03-29T14:40:07Z</time>
  </trkpt>
  <trkpt lat="33.892503" lon="-5.700210">
   <ele>519.00</ele>
   <time>2014-03-29T14:40:23Z</time>
  </trkpt>
  <trkpt lat="33.893640" lon="-5.695194">
   <ele>518.00</ele>
   <time>2014-03-29T14:40:38Z</time>
  </trkpt>
  <trkpt lat="33.894137" lon="-5.692824">
   <ele>518.00</ele>
   <time>2014-03-29T14:40:45Z</time>
  </trkpt>
  <trkpt lat="33.894360" lon="-5.691458">
   <ele>518.00</ele>
   <time>2014-03-29T14:40:49Z</time>
  </trkpt>
  <trkpt lat="33.894588" lon="-5.689754">
   <ele>519.00</ele>
   <time>2014-03-29T14:40:54Z</time>
  </trkpt>
  <trkpt lat="33.894714" lon="-5.688382">
   <ele>520.00</ele>
   <time>2014-03-29T14:40:58Z</time>
  </trkpt>
  <trkpt lat="33.894807" lon="-5.686665">
   <ele>520.00</ele>
   <time>2014-03-29T14:41:03Z</time>
  </trkpt>
  <trkpt lat="33.894834" lon="-5.684946">
   <ele>520.00</ele>
   <time>2014-03-29T14:41:08Z</time>
  </trkpt>
  <trkpt lat="33.894806" lon="-5.683573">
   <ele>520.00</ele>
   <time>2014-03-29T14:41:12Z</time>
  </trkpt>
  <trkpt lat="33.894713" lon="-5.681865">
   <ele>520.00</ele>
   <time>2014-03-29T14:41:17Z</time>
  </trkpt>
  <trkpt lat="33.894571" lon="-5.680157">
   <ele>521.00</ele>
   <time>2014-03-29T14:41:22Z</time>
  </trkpt>
  <trkpt lat="33.894398" lon="-5.678793">
   <ele>521.00</ele>
   <time>2014-03-29T14:41:26Z</time>
  </trkpt>
  <trkpt lat="33.894188" lon="-5.677434">
   <ele>520.00</ele>
   <time>2014-03-29T14:41:30Z</time>
  </trkpt>
  <trkpt lat="33.893938" lon="-5.676087">
   <ele>520.00</ele>
   <time>2014-03-29T14:41:34Z</time>
  </trkpt>
  <trkpt lat="33.893643" lon="-5.674757">
   <ele>519.00</ele>
   <time>2014-03-29T14:41:38Z</time>
  </trkpt>
  <trkpt lat="33.893220" lon="-5.673111">
   <ele>517.00</ele>
   <time>2014-03-29T14:41:43Z</time>
  </trkpt>
  <trkpt lat="33.892843" lon="-5.671804">
   <ele>516.00</ele>
   <time>2014-03-29T14:41:47Z</time>
  </trkpt>
  <trkpt lat="33.892417" lon="-5.670509">
   <ele>514.00</ele>
   <time>2014-03-29T14:41:51Z</time>
  </trkpt>
  <trkpt lat="33.891943" lon="-5.669217">
   <ele>513.00</ele>
   <time>2014-03-29T14:41:55Z</time>
  </trkpt>
  <trkpt lat="33.891428" lon="-5.667947">
   <ele>511.00</ele>
   <time>2014-03-29T14:41:59Z</time>
  </trkpt>
  <trkpt lat="33.890738" lon="-5.666398">
   <ele>510.00</ele>
   <time>2014-03-29T14:42:04Z</time>
  </trkpt>
  <trkpt lat="33.889998" lon="-5.664892">
   <ele>508.00</ele>
   <time>2014-03-29T14:42:09Z</time>
  </trkpt>
  <trkpt lat="33.889523" lon="-5.664010">
   <ele>507.00</ele>
   <time>2014-03-29T14:42:12Z</time>
  </trkpt>
  <trkpt lat="33.888525" lon="-5.662270">
   <ele>505.00</ele>
   <time>2014-03-29T14:42:18Z</time>
  </trkpt>
  <trkpt lat="33.887981" lon="-5.661423">
   <ele>504.00</ele>
   <time>2014-03-29T14:42:21Z</time>
  </trkpt>
  <trkpt lat="33.887216" lon="-5.660312">
   <ele>503.00</ele>
   <time>2014-03-29T14:42:25Z</time>
  </trkpt>
  <trkpt lat="33.886614" lon="-5.659504">
   <ele>502.00</ele>
   <time>2014-03-29T14:42:28Z</time>
  </trkpt>
  <trkpt lat="33.885780" lon="-5.658479">
   <ele>503.00</ele>
   <time>2014-03-29T14:42:32Z</time>
  </trkpt>
  <trkpt lat="33.884711" lon="-5.657264">
   <ele>506.00</ele>
   <time>2014-03-29T14:42:37Z</time>
  </trkpt>
  <trkpt lat="33.883613" lon="-5.656102">
   <ele>510.00</ele>
   <time>2014-03-29T14:42:42Z</time>
  </trkpt>
  <trkpt lat="33.882465" lon="-5.654984">
   <ele>513.00</ele>
   <time>2014-03-29T14:42:47Z</time>
  </trkpt>
  <trkpt lat="33.881753" lon="-5.654353">
   <ele>515.00</ele>
   <time>2014-03-29T14:42:50Z</time>
  </trkpt>
  <trkpt lat="33.880785" lon="-5.653553">
   <ele>517.00</ele>
   <time>2014-03-29T14:42:54Z</time>
  </trkpt>
  <trkpt lat="33.879060" lon="-5.652234">
   <ele>519.00</ele>
   <time>2014-03-29T14:43:01Z</time>
  </trkpt>
  <trkpt lat="33.878290" lon="-5.651719">
   <ele>520.00</ele>
   <time>2014-03-29T14:43:04Z</time>
  </trkpt>
  <trkpt lat="33.874495" lon="-5.649209">
   <ele>521.00</ele>
   <time>2014-03-29T14:43:19Z</time>
  </trkpt>
  <trkpt lat="33.873778" lon="-5.648671">
   <ele>522.00</ele>
   <time>2014-03-29T14:43:22Z</time>
  </trkpt>
  <trkpt lat="33.872847" lon="-5.647907">
   <ele>522.00</ele>
   <time>2014-03-29T14:43:26Z</time>
  </trkpt>
  <trkpt lat="33.871956" lon="-5.647106">
   <ele>522.00</ele>
   <time>2014-03-29T14:43:30Z</time>
  </trkpt>
  <trkpt lat="33.871102" lon="-5.646264">
   <ele>522.00</ele>
   <time>2014-03-29T14:43:34Z</time>
  </trkpt>
  <trkpt lat="33.870286" lon="-5.645375">
   <ele>523.00</ele>
   <time>2014-03-29T14:43:38Z</time>
  </trkpt>
  <trkpt lat="33.869511" lon="-5.644447">
   <ele>523.00</ele>
   <time>2014-03-29T14:43:42Z</time>
  </trkpt>
  <trkpt lat="33.868957" lon="-5.643728">
   <ele>524.00</ele>
   <time>2014-03-29T14:43:45Z</time>
  </trkpt>
  <trkpt lat="33.868248" lon="-5.642735">
   <ele>525.00</ele>
   <time>2014-03-29T14:43:49Z</time>
  </trkpt>
  <trkpt lat="33.867569" lon="-5.641697">
   <ele>526.00</ele>
   <time>2014-03-29T14:43:53Z</time>
  </trkpt>
  <trkpt lat="33.867092" lon="-5.640894">
   <ele>527.00</ele>
   <time>2014-03-29T14:43:56Z</time>
  </trkpt>
  <trkpt lat="33.866491" lon="-5.639797">
   <ele>529.00</ele>
   <time>2014-03-29T14:44:00Z</time>
  </trkpt>
  <trkpt lat="33.864618" lon="-5.636184">
   <ele>532.00</ele>
   <time>2014-03-29T14:44:13Z</time>
  </trkpt>
  <trkpt lat="33.864115" lon="-5.635367">
   <ele>533.00</ele>
   <time>2014-03-29T14:44:16Z</time>
  </trkpt>
  <trkpt lat="33.863578" lon="-5.634576">
   <ele>533.00</ele>
   <time>2014-03-29T14:44:19Z</time>
  </trkpt>
  <trkpt lat="33.863204" lon="-5.634067">
   <ele>534.00</ele>
   <time>2014-03-29T14:44:21Z</time>
  </trkpt>
  <trkpt lat="33.862616" lon="-5.633331">
   <ele>535.00</ele>
   <time>2014-03-29T14:44:24Z</time>
  </trkpt>
  <trkpt lat="33.861993" lon="-5.632626">
   <ele>536.00</ele>
   <time>2014-03-29T14:44:27Z</time>
  </trkpt>
  <trkpt lat="33.861345" lon="-5.631963">
   <ele>537.00</ele>
   <time>2014-03-29T14:44:30Z</time>
  </trkpt>
  <trkpt lat="33.860683" lon="-5.631342">
   <ele>538.00</ele>
   <time>2014-03-29T14:44:33Z</time>
  </trkpt>
  <trkpt lat="33.859996" lon="-5.630762">
   <ele>539.00</ele>
   <time>2014-03-29T14:44:36Z</time>
  </trkpt>
  <trkpt lat="33.859060" lon="-5.630038">
   <ele>541.00</ele>
   <time>2014-03-29T14:44:40Z</time>
  </trkpt>
  <trkpt lat="33.855302" lon="-5.627238">
   <ele>549.00</ele>
   <time>2014-03-29T14:44:56Z</time>
  </trkpt>
  <trkpt lat="33.853661" lon="-5.625999">
   <ele>554.00</ele>
   <time>2014-03-29T14:45:03Z</time>
  </trkpt>
  <trkpt lat="33.852983" lon="-5.625422">
   <ele>555.00</ele>
   <time>2014-03-29T14:45:06Z</time>
  </trkpt>
  <trkpt lat="33.852321" lon="-5.624803">
   <ele>557.00</ele>
   <time>2014-03-29T14:45:09Z</time>
  </trkpt>
  <trkpt lat="33.851678" lon="-5.624145">
   <ele>557.00</ele>
   <time>2014-03-29T14:45:12Z</time>
  </trkpt>
  <trkpt lat="33.851064" lon="-5.623455">
   <ele>557.00</ele>
   <time>2014-03-29T14:45:15Z</time>
  </trkpt>
  <trkpt lat="33.850477" lon="-5.622736">
   <ele>557.00</ele>
   <time>2014-03-29T14:45:18Z</time>
  </trkpt>
  <trkpt lat="33.850106" lon="-5.622239">
   <ele>557.00</ele>
   <time>2014-03-29T14:45:20Z</time>
  </trkpt>
  <trkpt lat="33.849576" lon="-5.621466">
   <ele>556.00</ele>
   <time>2014-03-29T14:45:23Z</time>
  </trkpt>
  <trkpt lat="33.849078" lon="-5.620674">
   <ele>555.00</ele>
   <time>2014-03-29T14:45:26Z</time>
  </trkpt>
  <trkpt lat="33.848613" lon="-5.619850">
   <ele>555.00</ele>
   <time>2014-03-29T14:45:29Z</time>
  </trkpt>
  <trkpt lat="33.848174" lon="-5.618995">
   <ele>554.00</ele>
   <time>2014-03-29T14:45:32Z</time>
  </trkpt>
  <trkpt lat="33.847767" lon="-5.618115">
   <ele>554.00</ele>
   <time>2014-03-29T14:45:35Z</time>
  </trkpt>
  <trkpt lat="33.847515" lon="-5.617513">
   <ele>554.00</ele>
   <time>2014-03-29T14:45:37Z</time>
  </trkpt>
  <trkpt lat="33.847164" lon="-5.616588">
   <ele>554.00</ele>
   <time>2014-03-29T14:45:40Z</time>
  </trkpt>
  <trkpt lat="33.846952" lon="-5.615961">
   <ele>555.00</ele>
   <time>2014-03-29T14:45:42Z</time>
  </trkpt>
  <trkpt lat="33.846667" lon="-5.615016">
   <ele>556.00</ele>
   <time>2014-03-29T14:45:45Z</time>
  </trkpt>
  <trkpt lat="33.846413" lon="-5.614069">
   <ele>557.00</ele>
   <time>2014-03-29T14:45:48Z</time>
  </trkpt>
  <trkpt lat="33.846265" lon="-5.613433">
   <ele>558.00</ele>
   <time>2014-03-29T14:45:50Z</time>
  </trkpt>
  <trkpt lat="33.845955" lon="-5.611827">
   <ele>561.00</ele>
   <time>2014-03-29T14:45:55Z</time>
  </trkpt>
  <trkpt lat="33.844942" lon="-5.606689">
   <ele>569.00</ele>
   <time>2014-03-29T14:46:11Z</time>
  </trkpt>
  <trkpt lat="33.844707" lon="-5.605725">
   <ele>570.00</ele>
   <time>2014-03-29T14:46:14Z</time>
  </trkpt>
  <trkpt lat="33.844437" lon="-5.604791">
   <ele>572.00</ele>
   <time>2014-03-29T14:46:17Z</time>
  </trkpt>
  <trkpt lat="33.844128" lon="-5.603883">
   <ele>574.00</ele>
   <time>2014-03-29T14:46:20Z</time>
  </trkpt>
  <trkpt lat="33.843784" lon="-5.602978">
   <ele>575.00</ele>
   <time>2014-03-29T14:46:23Z</time>
  </trkpt>
  <trkpt lat="33.843404" lon="-5.602082">
   <ele>576.00</ele>
   <time>2014-03-29T14:46:26Z</time>
  </trkpt>
  <trkpt lat="33.842992" lon="-5.601212">
   <ele>577.00</ele>
   <time>2014-03-29T14:46:29Z</time>
  </trkpt>
  <trkpt lat="33.842553" lon="-5.600375">
   <ele>577.00</ele>
   <time>2014-03-29T14:46:32Z</time>
  </trkpt>
  <trkpt lat="33.842095" lon="-5.599584">
   <ele>577.00</ele>
   <time>2014-03-29T14:46:35Z</time>
  </trkpt>
  <trkpt lat="33.839604" lon="-5.595536">
   <ele>581.00</ele>
   <time>2014-03-29T14:46:50Z</time>
  </trkpt>
  <trkpt lat="33.838579" lon="-5.593837">
   <ele>583.00</ele>
   <time>2014-03-29T14:46:56Z</time>
  </trkpt>
  <trkpt lat="33.837637" lon="-5.592108">
   <ele>586.00</ele>
   <time>2014-03-29T14:47:02Z</time>
  </trkpt>
  <trkpt lat="33.837201" lon="-5.591206">
   <ele>588.00</ele>
   <time>2014-03-29T14:47:05Z</time>
  </trkpt>
  <trkpt lat="33.836365" lon="-5.589318">
   <ele>591.00</ele>
   <time>2014-03-29T14:47:11Z</time>
  </trkpt>
  <trkpt lat="33.835732" lon="-5.587696">
   <ele>594.00</ele>
   <time>2014-03-29T14:47:16Z</time>
  </trkpt>
  <trkpt lat="33.835044" lon="-5.585749">
   <ele>598.00</ele>
   <time>2014-03-29T14:47:22Z</time>
  </trkpt>
  <trkpt lat="33.834753" lon="-5.584771">
   <ele>599.00</ele>
   <time>2014-03-29T14:47:25Z</time>
  </trkpt>
  <trkpt lat="33.834404" lon="-5.583464">
   <ele>601.00</ele>
   <time>2014-03-29T14:47:29Z</time>
  </trkpt>
  <trkpt lat="33.834022" lon="-5.581812">
   <ele>603.00</ele>
   <time>2014-03-29T14:47:34Z</time>
  </trkpt>
  <trkpt lat="33.833765" lon="-5.580502">
   <ele>605.00</ele>
   <time>2014-03-29T14:47:38Z</time>
  </trkpt>
  <trkpt lat="33.833562" lon="-5.579229">
   <ele>607.00</ele>
   <time>2014-03-29T14:47:42Z</time>
  </trkpt>
  <trkpt lat="33.832942" lon="-5.574433">
   <ele>612.00</ele>
   <time>2014-03-29T14:47:57Z</time>
  </trkpt>
  <trkpt lat="33.832269" lon="-5.569196">
   <ele>615.00</ele>
   <time>2014-03-29T14:48:13Z</time>
  </trkpt>
  <trkpt lat="33.831642" lon="-5.564283">
   <ele>618.00</ele>
   <time>2014-03-29T14:48:28Z</time>
  </trkpt>
  <trkpt lat="33.831022" lon="-5.559309">
   <ele>620.00</ele>
   <time>2014-03-29T14:48:43Z</time>
  </trkpt>
  <trkpt lat="33.830824" lon="-5.556958">
   <ele>622.00</ele>
   <time>2014-03-29T14:48:50Z</time>
  </trkpt>
  <trkpt lat="33.830719" lon="-5.554941">
   <ele>623.00</ele>
   <time>2014-03-29T14:48:56Z</time>
  </trkpt>
  <trkpt lat="33.830683" lon="-5.552880">
   <ele>624.00</ele>
   <time>2014-03-29T14:49:02Z</time>
  </trkpt>
  <trkpt lat="33.830683" lon="-5.547727">
   <ele>624.00</ele>
   <time>2014-03-29T14:49:17Z</time>
  </trkpt>
  <trkpt lat="33.830662" lon="-5.546373">
   <ele>625.00</ele>
   <time>2014-03-29T14:49:21Z</time>
  </trkpt>
  <trkpt lat="33.830598" lon="-5.545005">
   <ele>627.00</ele>
   <time>2014-03-29T14:49:25Z</time>
  </trkpt>
  <trkpt lat="33.830487" lon="-5.543634">
   <ele>630.00</ele>
   <time>2014-03-29T14:49:29Z</time>
  </trkpt>
  <trkpt lat="33.830367" lon="-5.542608">
   <ele>632.00</ele>
   <time>2014-03-29T14:49:32Z</time>
  </trkpt>
  <trkpt lat="33.830164" lon="-5.541249">
   <ele>635.00</ele>
   <time>2014-03-29T14:49:36Z</time>
  </trkpt>
  <trkpt lat="33.829201" lon="-5.535988">
   <ele>647.00</ele>
   <time>2014-03-29T14:49:52Z</time>
  </trkpt>
  <trkpt lat="33.828873" lon="-5.534049">
   <ele>651.00</ele>
   <time>2014-03-29T14:49:58Z</time>
  </trkpt>
  <trkpt lat="33.828753" lon="-5.533067">
   <ele>654.00</ele>
   <time>2014-03-29T14:50:01Z</time>
  </trkpt>
  <trkpt lat="33.828671" lon="-5.532080">
   <ele>656.00</ele>
   <time>2014-03-29T14:50:04Z</time>
  </trkpt>
  <trkpt lat="33.828628" lon="-5.531091">
   <ele>657.00</ele>
   <time>2014-03-29T14:50:07Z</time>
  </trkpt>
  <trkpt lat="33.828620" lon="-5.530101">
   <ele>658.00</ele>
   <time>2014-03-29T14:50:10Z</time>
  </trkpt>
  <trkpt lat="33.828648" lon="-5.529113">
   <ele>659.00</ele>
   <time>2014-03-29T14:50:13Z</time>
  </trkpt>
  <trkpt lat="33.828715" lon="-5.528131">
   <ele>659.00</ele>
   <time>2014-03-29T14:50:16Z</time>
  </trkpt>
  <trkpt lat="33.828821" lon="-5.527158">
   <ele>659.00</ele>
   <time>2014-03-29T14:50:19Z</time>
  </trkpt>
  <trkpt lat="33.828970" lon="-5.526185">
   <ele>659.00</ele>
   <time>2014-03-29T14:50:22Z</time>
  </trkpt>
  <trkpt lat="33.829152" lon="-5.525213">
   <ele>659.00</ele>
   <time>2014-03-29T14:50:25Z</time>
  </trkpt>
  <trkpt lat="33.829369" lon="-5.524244">
   <ele>659.00</ele>
   <time>2014-03-29T14:50:28Z</time>
  </trkpt>
  <trkpt lat="33.830228" lon="-5.520655">
   <ele>659.00</ele>
   <time>2014-03-29T14:50:39Z</time>
  </trkpt>
  <trkpt lat="33.830350" lon="-5.519986">
   <ele>659.00</ele>
   <time>2014-03-29T14:50:41Z</time>
  </trkpt>
  <trkpt lat="33.830494" lon="-5.518974">
   <ele>659.00</ele>
   <time>2014-03-29T14:50:44Z</time>
  </trkpt>
  <trkpt lat="33.830587" lon="-5.517958">
   <ele>658.00</ele>
   <time>2014-03-29T14:50:47Z</time>
  </trkpt>
  <trkpt lat="33.830645" lon="-5.516935">
   <ele>657.00</ele>
   <time>2014-03-29T14:50:50Z</time>
  </trkpt>
  <trkpt lat="33.830656" lon="-5.516252">
   <ele>656.00</ele>
   <time>2014-03-29T14:50:52Z</time>
  </trkpt>
  <trkpt lat="33.830631" lon="-5.514882">
   <ele>654.00</ele>
   <time>2014-03-29T14:50:56Z</time>
  </trkpt>
  <trkpt lat="33.830584" lon="-5.514193">
   <ele>653.00</ele>
   <time>2014-03-29T14:50:58Z</time>
  </trkpt>
  <trkpt lat="33.830451" lon="-5.512812">
   <ele>652.00</ele>
   <time>2014-03-29T14:51:02Z</time>
  </trkpt>
  <trkpt lat="33.830357" lon="-5.512118">
   <ele>651.00</ele>
   <time>2014-03-29T14:51:04Z</time>
  </trkpt>
  <trkpt lat="33.830240" lon="-5.511428">
   <ele>651.00</ele>
   <time>2014-03-29T14:51:06Z</time>
  </trkpt>
  <trkpt lat="33.830029" lon="-5.510413">
   <ele>650.00</ele>
   <time>2014-03-29T14:51:09Z</time>
  </trkpt>
  <trkpt lat="33.829701" lon="-5.509086">
   <ele>648.00</ele>
   <time>2014-03-29T14:51:13Z</time>
  </trkpt>
  <trkpt lat="33.828642" lon="-5.505139">
   <ele>647.00</ele>
   <time>2014-03-29T14:51:25Z</time>
  </trkpt>
  <trkpt lat="33.828436" lon="-5.504134">
   <ele>648.00</ele>
   <time>2014-03-29T14:51:28Z</time>
  </trkpt>
  <trkpt lat="33.828325" lon="-5.503460">
   <ele>649.00</ele>
   <time>2014-03-29T14:51:30Z</time>
  </trkpt>
  <trkpt lat="33.828236" lon="-5.502787">
   <ele>650.00</ele>
   <time>2014-03-29T14:51:32Z</time>
  </trkpt>
  <trkpt lat="33.828137" lon="-5.501784">
   <ele>651.00</ele>
   <time>2014-03-29T14:51:35Z</time>
  </trkpt>
  <trkpt lat="33.828076" lon="-5.500784">
   <ele>653.00</ele>
   <time>2014-03-29T14:51:38Z</time>
  </trkpt>
  <trkpt lat="33.828053" lon="-5.499797">
   <ele>654.00</ele>
   <time>2014-03-29T14:51:41Z</time>
  </trkpt>
  <trkpt lat="33.828065" lon="-5.498824">
   <ele>655.00</ele>
   <time>2014-03-29T14:51:44Z</time>
  </trkpt>
  <trkpt lat="33.828099" lon="-5.498183">
   <ele>656.00</ele>
   <time>2014-03-29T14:51:46Z</time>
  </trkpt>
  <trkpt lat="33.828256" lon="-5.496599">
   <ele>657.00</ele>
   <time>2014-03-29T14:51:51Z</time>
  </trkpt>
  <trkpt lat="33.828394" lon="-5.495648">
   <ele>657.00</ele>
   <time>2014-03-29T14:51:54Z</time>
  </trkpt>
  <trkpt lat="33.828511" lon="-5.495009">
   <ele>657.00</ele>
   <time>2014-03-29T14:51:56Z</time>
  </trkpt>
  <trkpt lat="33.828717" lon="-5.494048">
   <ele>657.00</ele>
   <time>2014-03-29T14:51:59Z</time>
  </trkpt>
  <trkpt lat="33.828949" lon="-5.493096">
   <ele>657.00</ele>
   <time>2014-03-29T14:52:02Z</time>
  </trkpt>
  <trkpt lat="33.829218" lon="-5.492157">
   <ele>656.00</ele>
   <time>2014-03-29T14:52:05Z</time>
  </trkpt>
  <trkpt lat="33.829520" lon="-5.491225">
   <ele>656.00</ele>
   <time>2014-03-29T14:52:08Z</time>
  </trkpt>
  <trkpt lat="33.829732" lon="-5.490616">
   <ele>656.00</ele>
   <time>2014-03-29T14:52:10Z</time>
  </trkpt>
  <trkpt lat="33.831485" lon="-5.486009">
   <ele>650.00</ele>
   <time>2014-03-29T14:52:25Z</time>
  </trkpt>
  <trkpt lat="33.831791" lon="-5.485050">
   <ele>649.00</ele>
   <time>2014-03-29T14:52:28Z</time>
  </trkpt>
  <trkpt lat="33.832052" lon="-5.484085">
   <ele>648.00</ele>
   <time>2014-03-29T14:52:31Z</time>
  </trkpt>
  <trkpt lat="33.832350" lon="-5.482785">
   <ele>646.00</ele>
   <time>2014-03-29T14:52:35Z</time>
  </trkpt>
  <trkpt lat="33.832542" lon="-5.481797">
   <ele>645.00</ele>
   <time>2014-03-29T14:52:38Z</time>
  </trkpt>
  <trkpt lat="33.832753" lon="-5.480458">
   <ele>644.00</ele>
   <time>2014-03-29T14:52:42Z</time>
  </trkpt>
  <trkpt lat="33.832910" lon="-5.479097">
   <ele>643.00</ele>
   <time>2014-03-29T14:52:46Z</time>
  </trkpt>
  <trkpt lat="33.832990" lon="-5.478070">
   <ele>642.00</ele>
   <time>2014-03-29T14:52:49Z</time>
  </trkpt>
  <trkpt lat="33.833089" lon="-5.475691">
   <ele>641.00</ele>
   <time>2014-03-29T14:52:56Z</time>
  </trkpt>
  <trkpt lat="33.833171" lon="-5.473660">
   <ele>639.00</ele>
   <time>2014-03-29T14:53:02Z</time>
  </trkpt>
  <trkpt lat="33.833250" lon="-5.472652">
   <ele>639.00</ele>
   <time>2014-03-29T14:53:05Z</time>
  </trkpt>
  <trkpt lat="33.833368" lon="-5.471655">
   <ele>638.00</ele>
   <time>2014-03-29T14:53:08Z</time>
  </trkpt>
  <trkpt lat="33.833532" lon="-5.470673">
   <ele>638.00</ele>
   <time>2014-03-29T14:53:11Z</time>
  </trkpt>
  <trkpt lat="33.833804" lon="-5.469382">
   <ele>638.00</ele>
   <time>2014-03-29T14:53:15Z</time>
  </trkpt>
  <trkpt lat="33.834053" lon="-5.468428">
   <ele>638.00</ele>
   <time>2014-03-29T14:53:18Z</time>
  </trkpt>
  <trkpt lat="33.834339" lon="-5.467486">
   <ele>638.00</ele>
   <time>2014-03-29T14:53:21Z</time>
  </trkpt>
  <trkpt lat="33.834659" lon="-5.466556">
   <ele>638.00</ele>
   <time>2014-03-29T14:53:24Z</time>
  </trkpt>
  <trkpt lat="33.835018" lon="-5.465648">
   <ele>638.00</ele>
   <time>2014-03-29T14:53:27Z</time>
  </trkpt>
  <trkpt lat="33.835281" lon="-5.465058">
   <ele>638.00</ele>
   <time>2014-03-29T14:53:29Z</time>
  </trkpt>
  <trkpt lat="33.835562" lon="-5.464477">
   <ele>638.00</ele>
   <time>2014-03-29T14:53:31Z</time>
  </trkpt>
  <trkpt lat="33.836153" lon="-5.463346">
   <ele>638.00</ele>
   <time>2014-03-29T14:53:35Z</time>
  </trkpt>
  <trkpt lat="33.836621" lon="-5.462534">
   <ele>639.00</ele>
   <time>2014-03-29T14:53:38Z</time>
  </trkpt>
  <trkpt lat="33.837115" lon="-5.461753">
   <ele>640.00</ele>
   <time>2014-03-29T14:53:41Z</time>
  </trkpt>
  <trkpt lat="33.837463" lon="-5.461250">
   <ele>640.00</ele>
   <time>2014-03-29T14:53:43Z</time>
  </trkpt>
  <trkpt lat="33.838007" lon="-5.460532">
   <ele>641.00</ele>
   <time>2014-03-29T14:53:46Z</time>
  </trkpt>
  <trkpt lat="33.838566" lon="-5.459842">
   <ele>641.00</ele>
   <time>2014-03-29T14:53:49Z</time>
  </trkpt>
  <trkpt lat="33.839156" lon="-5.459176">
   <ele>640.00</ele>
   <time>2014-03-29T14:53:52Z</time>
  </trkpt>
  <trkpt lat="33.839777" lon="-5.458534">
   <ele>640.00</ele>
   <time>2014-03-29T14:53:55Z</time>
  </trkpt>
  <trkpt lat="33.842283" lon="-5.455929">
   <ele>636.00</ele>
   <time>2014-03-29T14:54:07Z</time>
  </trkpt>
  <trkpt lat="33.842877" lon="-5.455245">
   <ele>634.00</ele>
   <time>2014-03-29T14:54:10Z</time>
  </trkpt>
  <trkpt lat="33.843650" lon="-5.454287">
   <ele>632.00</ele>
   <time>2014-03-29T14:54:14Z</time>
  </trkpt>
  <trkpt lat="33.844400" lon="-5.453274">
   <ele>630.00</ele>
   <time>2014-03-29T14:54:18Z</time>
  </trkpt>
  <trkpt lat="33.845126" lon="-5.452219">
   <ele>627.00</ele>
   <time>2014-03-29T14:54:22Z</time>
  </trkpt>
  <trkpt lat="33.845640" lon="-5.451406">
   <ele>626.00</ele>
   <time>2014-03-29T14:54:25Z</time>
  </trkpt>
  <trkpt lat="33.846282" lon="-5.450307">
   <ele>624.00</ele>
   <time>2014-03-29T14:54:29Z</time>
  </trkpt>
  <trkpt lat="33.846738" lon="-5.449464">
   <ele>622.00</ele>
   <time>2014-03-29T14:54:32Z</time>
  </trkpt>
  <trkpt lat="33.847445" lon="-5.448022">
   <ele>620.00</ele>
   <time>2014-03-29T14:54:37Z</time>
  </trkpt>
  <trkpt lat="33.847970" lon="-5.446847">
   <ele>620.00</ele>
   <time>2014-03-29T14:54:41Z</time>
  </trkpt>
  <trkpt lat="33.848332" lon="-5.445951">
   <ele>621.00</ele>
   <time>2014-03-29T14:54:44Z</time>
  </trkpt>
  <trkpt lat="33.848778" lon="-5.444733">
   <ele>622.00</ele>
   <time>2014-03-29T14:54:48Z</time>
  </trkpt>
  <trkpt lat="33.849179" lon="-5.443499">
   <ele>623.00</ele>
   <time>2014-03-29T14:54:52Z</time>
  </trkpt>
  <trkpt lat="33.849532" lon="-5.442249">
   <ele>624.00</ele>
   <time>2014-03-29T14:54:56Z</time>
  </trkpt>
  <trkpt lat="33.849858" lon="-5.440973">
   <ele>627.00</ele>
   <time>2014-03-29T14:55:00Z</time>
  </trkpt>
  <trkpt lat="33.850143" lon="-5.439688">
   <ele>630.00</ele>
   <time>2014-03-29T14:55:04Z</time>
  </trkpt>
  <trkpt lat="33.850324" lon="-5.438716">
   <ele>632.00</ele>
   <time>2014-03-29T14:55:07Z</time>
  </trkpt>
  <trkpt lat="33.850515" lon="-5.437419">
   <ele>632.00</ele>
   <time>2014-03-29T14:55:11Z</time>
  </trkpt>
  <trkpt lat="33.850693" lon="-5.435785">
   <ele>631.00</ele>
   <time>2014-03-29T14:55:16Z</time>
  </trkpt>
  <trkpt lat="33.850763" lon="-5.434795">
   <ele>630.00</ele>
   <time>2014-03-29T14:55:19Z</time>
  </trkpt>
  <trkpt lat="33.850816" lon="-5.433474">
   <ele>629.00</ele>
   <time>2014-03-29T14:55:23Z</time>
  </trkpt>
  <trkpt lat="33.850825" lon="-5.432157">
   <ele>628.00</ele>
   <time>2014-03-29T14:55:27Z</time>
  </trkpt>
  <trkpt lat="33.850791" lon="-5.430842">
   <ele>628.00</ele>
   <time>2014-03-29T14:55:31Z</time>
  </trkpt>
  <trkpt lat="33.850697" lon="-5.429190">
   <ele>628.00</ele>
   <time>2014-03-29T14:55:36Z</time>
  </trkpt>
  <trkpt lat="33.850602" lon="-5.428197">
   <ele>627.00</ele>
   <time>2014-03-29T14:55:39Z</time>
  </trkpt>
  <trkpt lat="33.850047" lon="-5.423266">
   <ele>629.00</ele>
   <time>2014-03-29T14:55:54Z</time>
  </trkpt>
  <trkpt lat="33.849929" lon="-5.421620">
   <ele>630.00</ele>
   <time>2014-03-29T14:55:59Z</time>
  </trkpt>
  <trkpt lat="33.849866" lon="-5.419983">
   <ele>632.00</ele>
   <time>2014-03-29T14:56:04Z</time>
  </trkpt>
  <trkpt lat="33.849856" lon="-5.418362">
   <ele>634.00</ele>
   <time>2014-03-29T14:56:09Z</time>
  </trkpt>
  <trkpt lat="33.849896" lon="-5.416750">
   <ele>635.00</ele>
   <time>2014-03-29T14:56:14Z</time>
  </trkpt>
  <trkpt lat="33.849981" lon="-5.415149">
   <ele>637.00</ele>
   <time>2014-03-29T14:56:19Z</time>
  </trkpt>
  <trkpt lat="33.850068" lon="-5.414188">
   <ele>639.00</ele>
   <time>2014-03-29T14:56:22Z</time>
  </trkpt>
  <trkpt lat="33.850387" lon="-5.411596">
   <ele>643.00</ele>
   <time>2014-03-29T14:56:30Z</time>
  </trkpt>
  <trkpt lat="33.850638" lon="-5.409990">
   <ele>645.00</ele>
   <time>2014-03-29T14:56:35Z</time>
  </trkpt>
  <trkpt lat="33.850944" lon="-5.408399">
   <ele>648.00</ele>
   <time>2014-03-29T14:56:40Z</time>
  </trkpt>
  <trkpt lat="33.851594" lon="-5.405205">
   <ele>651.00</ele>
   <time>2014-03-29T14:56:50Z</time>
  </trkpt>
  <trkpt lat="33.851683" lon="-5.404548">
   <ele>651.00</ele>
   <time>2014-03-29T14:56:52Z</time>
  </trkpt>
  <trkpt lat="33.851776" lon="-5.403548">
   <ele>651.00</ele>
   <time>2014-03-29T14:56:55Z</time>
  </trkpt>
  <trkpt lat="33.851859" lon="-5.402207">
   <ele>649.00</ele>
   <time>2014-03-29T14:56:59Z</time>
  </trkpt>
  <trkpt lat="33.851866" lon="-5.401199">
   <ele>648.00</ele>
   <time>2014-03-29T14:57:02Z</time>
  </trkpt>
  <trkpt lat="33.851849" lon="-5.400526">
   <ele>648.00</ele>
   <time>2014-03-29T14:57:04Z</time>
  </trkpt>
  <trkpt lat="33.851784" lon="-5.399512">
   <ele>647.00</ele>
   <time>2014-03-29T14:57:07Z</time>
  </trkpt>
  <trkpt lat="33.851682" lon="-5.398510">
   <ele>647.00</ele>
   <time>2014-03-29T14:57:10Z</time>
  </trkpt>
  <trkpt lat="33.851591" lon="-5.397853">
   <ele>648.00</ele>
   <time>2014-03-29T14:57:12Z</time>
  </trkpt>
  <trkpt lat="33.851478" lon="-5.397204">
   <ele>649.00</ele>
   <time>2014-03-29T14:57:14Z</time>
  </trkpt>
  <trkpt lat="33.851274" lon="-5.396244">
   <ele>651.00</ele>
   <time>2014-03-29T14:57:17Z</time>
  </trkpt>
  <trkpt lat="33.851031" lon="-5.395300">
   <ele>653.00</ele>
   <time>2014-03-29T14:57:20Z</time>
  </trkpt>
  <trkpt lat="33.850751" lon="-5.394370">
   <ele>655.00</ele>
   <time>2014-03-29T14:57:23Z</time>
  </trkpt>
  <trkpt lat="33.849233" lon="-5.389745">
   <ele>664.00</ele>
   <time>2014-03-29T14:57:38Z</time>
  </trkpt>
  <trkpt lat="33.848986" lon="-5.388798">
   <ele>666.00</ele>
   <time>2014-03-29T14:57:41Z</time>
  </trkpt>
  <trkpt lat="33.848772" lon="-5.387840">
   <ele>668.00</ele>
   <time>2014-03-29T14:57:44Z</time>
  </trkpt>
  <trkpt lat="33.848526" lon="-5.386548">
   <ele>670.00</ele>
   <time>2014-03-29T14:57:48Z</time>
  </trkpt>
  <trkpt lat="33.848374" lon="-5.385568">
   <ele>671.00</ele>
   <time>2014-03-29T14:57:51Z</time>
  </trkpt>
  <trkpt lat="33.848257" lon="-5.384577">
   <ele>672.00</ele>
   <time>2014-03-29T14:57:54Z</time>
  </trkpt>
  <trkpt lat="33.848167" lon="-5.383577">
   <ele>673.00</ele>
   <time>2014-03-29T14:57:57Z</time>
  </trkpt>
  <trkpt lat="33.848110" lon="-5.382575">
   <ele>674.00</ele>
   <time>2014-03-29T14:58:00Z</time>
  </trkpt>
  <trkpt lat="33.848084" lon="-5.381583">
   <ele>675.00</ele>
   <time>2014-03-29T14:58:03Z</time>
  </trkpt>
  <trkpt lat="33.848093" lon="-5.380595">
   <ele>675.00</ele>
   <time>2014-03-29T14:58:06Z</time>
  </trkpt>
  <trkpt lat="33.848149" lon="-5.379282">
   <ele>676.00</ele>
   <time>2014-03-29T14:58:10Z</time>
  </trkpt>
  <trkpt lat="33.848228" lon="-5.378294">
   <ele>675.00</ele>
   <time>2014-03-29T14:58:13Z</time>
  </trkpt>
  <trkpt lat="33.848336" lon="-5.377306">
   <ele>674.00</ele>
   <time>2014-03-29T14:58:16Z</time>
  </trkpt>
  <trkpt lat="33.848474" lon="-5.376319">
   <ele>673.00</ele>
   <time>2014-03-29T14:58:19Z</time>
  </trkpt>
  <trkpt lat="33.848706" lon="-5.375013">
   <ele>672.00</ele>
   <time>2014-03-29T14:58:23Z</time>
  </trkpt>
  <trkpt lat="33.849829" lon="-5.369748">
   <ele>670.00</ele>
   <time>2014-03-29T14:58:39Z</time>
  </trkpt>
  <trkpt lat="33.850205" lon="-5.367751">
   <ele>670.00</ele>
   <time>2014-03-29T14:58:45Z</time>
  </trkpt>
  <trkpt lat="33.850404" lon="-5.366406">
   <ele>670.00</ele>
   <time>2014-03-29T14:58:49Z</time>
  </trkpt>
  <trkpt lat="33.850561" lon="-5.365047">
   <ele>670.00</ele>
   <time>2014-03-29T14:58:53Z</time>
  </trkpt>
  <trkpt lat="33.851077" lon="-5.359678">
   <ele>665.00</ele>
   <time>2014-03-29T14:59:09Z</time>
  </trkpt>
  <trkpt lat="33.851277" lon="-5.358364">
   <ele>663.00</ele>
   <time>2014-03-29T14:59:13Z</time>
  </trkpt>
  <trkpt lat="33.851459" lon="-5.357380">
   <ele>662.00</ele>
   <time>2014-03-29T14:59:16Z</time>
  </trkpt>
  <trkpt lat="33.851673" lon="-5.356401">
   <ele>661.00</ele>
   <time>2014-03-29T14:59:19Z</time>
  </trkpt>
  <trkpt lat="33.851925" lon="-5.355432">
   <ele>660.00</ele>
   <time>2014-03-29T14:59:22Z</time>
  </trkpt>
  <trkpt lat="33.852307" lon="-5.354157">
   <ele>659.00</ele>
   <time>2014-03-29T14:59:26Z</time>
  </trkpt>
  <trkpt lat="33.852624" lon="-5.353211">
   <ele>658.00</ele>
   <time>2014-03-29T14:59:29Z</time>
  </trkpt>
  <trkpt lat="33.852973" lon="-5.352277">
   <ele>657.00</ele>
   <time>2014-03-29T14:59:32Z</time>
  </trkpt>
  <trkpt lat="33.853348" lon="-5.351357">
   <ele>656.00</ele>
   <time>2014-03-29T14:59:35Z</time>
  </trkpt>
  <trkpt lat="33.853623" lon="-5.350759">
   <ele>656.00</ele>
   <time>2014-03-29T14:59:37Z</time>
  </trkpt>
  <trkpt lat="33.854353" lon="-5.349279">
   <ele>654.00</ele>
   <time>2014-03-29T14:59:42Z</time>
  </trkpt>
  <trkpt lat="33.854988" lon="-5.348124">
   <ele>653.00</ele>
   <time>2014-03-29T14:59:46Z</time>
  </trkpt>
  <trkpt lat="33.857487" lon="-5.343923">
   <ele>655.00</ele>
   <time>2014-03-29T15:00:01Z</time>
  </trkpt>
  <trkpt lat="33.858471" lon="-5.342275">
   <ele>655.00</ele>
   <time>2014-03-29T15:00:07Z</time>
  </trkpt>
  <trkpt lat="33.861059" lon="-5.337782">
   <ele>657.00</ele>
   <time>2014-03-29T15:00:23Z</time>
  </trkpt>
  <trkpt lat="33.863480" lon="-5.333647">
   <ele>657.00</ele>
   <time>2014-03-29T15:00:38Z</time>
  </trkpt>
  <trkpt lat="33.866049" lon="-5.329245">
   <ele>651.00</ele>
   <time>2014-03-29T15:00:54Z</time>
  </trkpt>
  <trkpt lat="33.868465" lon="-5.325096">
   <ele>644.00</ele>
   <time>2014-03-29T15:01:09Z</time>
  </trkpt>
  <trkpt lat="33.869720" lon="-5.322888">
   <ele>645.00</ele>
   <time>2014-03-29T15:01:17Z</time>
  </trkpt>
  <trkpt lat="33.870012" lon="-5.322315">
   <ele>645.00</ele>
   <time>2014-03-29T15:01:19Z</time>
  </trkpt>
  <trkpt lat="33.870425" lon="-5.321435">
   <ele>646.00</ele>
   <time>2014-03-29T15:01:22Z</time>
  </trkpt>
  <trkpt lat="33.870802" lon="-5.320534">
   <ele>646.00</ele>
   <time>2014-03-29T15:01:25Z</time>
  </trkpt>
  <trkpt lat="33.871139" lon="-5.319617">
   <ele>646.00</ele>
   <time>2014-03-29T15:01:28Z</time>
  </trkpt>
  <trkpt lat="33.871441" lon="-5.318685">
   <ele>647.00</ele>
   <time>2014-03-29T15:01:31Z</time>
  </trkpt>
  <trkpt lat="33.871707" lon="-5.317742">
   <ele>647.00</ele>
   <time>2014-03-29T15:01:34Z</time>
  </trkpt>
  <trkpt lat="33.871931" lon="-5.316783">
   <ele>647.00</ele>
   <time>2014-03-29T15:01:37Z</time>
  </trkpt>
  <trkpt lat="33.872114" lon="-5.315811">
   <ele>648.00</ele>
   <time>2014-03-29T15:01:40Z</time>
  </trkpt>
  <trkpt lat="33.872265" lon="-5.314830">
   <ele>648.00</ele>
   <time>2014-03-29T15:01:43Z</time>
  </trkpt>
  <trkpt lat="33.872381" lon="-5.313837">
   <ele>649.00</ele>
   <time>2014-03-29T15:01:46Z</time>
  </trkpt>
  <trkpt lat="33.872433" lon="-5.313172">
   <ele>649.00</ele>
   <time>2014-03-29T15:01:48Z</time>
  </trkpt>
  <trkpt lat="33.872479" lon="-5.312168">
   <ele>650.00</ele>
   <time>2014-03-29T15:01:51Z</time>
  </trkpt>
  <trkpt lat="33.872489" lon="-5.311166">
   <ele>650.00</ele>
   <time>2014-03-29T15:01:54Z</time>
  </trkpt>
  <trkpt lat="33.872453" lon="-5.310167">
   <ele>651.00</ele>
   <time>2014-03-29T15:01:57Z</time>
  </trkpt>
  <trkpt lat="33.872382" lon="-5.309172">
   <ele>651.00</ele>
   <time>2014-03-29T15:02:00Z</time>
  </trkpt>
  <trkpt lat="33.872279" lon="-5.308183">
   <ele>652.00</ele>
   <time>2014-03-29T15:02:03Z</time>
  </trkpt>
  <trkpt lat="33.872191" lon="-5.307527">
   <ele>652.00</ele>
   <time>2014-03-29T15:02:05Z</time>
  </trkpt>
  <trkpt lat="33.872026" lon="-5.306552">
   <ele>653.00</ele>
   <time>2014-03-29T15:02:08Z</time>
  </trkpt>
  <trkpt lat="33.871288" lon="-5.302343">
   <ele>656.00</ele>
   <time>2014-03-29T15:02:21Z</time>
  </trkpt>
  <trkpt lat="33.870980" lon="-5.300040">
   <ele>658.00</ele>
   <time>2014-03-29T15:02:28Z</time>
  </trkpt>
  <trkpt lat="33.870813" lon="-5.298369">
   <ele>660.00</ele>
   <time>2014-03-29T15:02:33Z</time>
  </trkpt>
  <trkpt lat="33.870669" lon="-5.296345">
   <ele>661.00</ele>
   <time>2014-03-29T15:02:39Z</time>
  </trkpt>
  <trkpt lat="33.870569" lon="-5.293661">
   <ele>664.00</ele>
   <time>2014-03-29T15:02:47Z</time>
  </trkpt>
  <trkpt lat="33.870568" lon="-5.291990">
   <ele>666.00</ele>
   <time>2014-03-29T15:02:52Z</time>
  </trkpt>
  <trkpt lat="33.870633" lon="-5.289987">
   <ele>668.00</ele>
   <time>2014-03-29T15:02:58Z</time>
  </trkpt>
  <trkpt lat="33.870752" lon="-5.288005">
   <ele>670.00</ele>
   <time>2014-03-29T15:03:04Z</time>
  </trkpt>
  <trkpt lat="33.870960" lon="-5.285703">
   <ele>672.00</ele>
   <time>2014-03-29T15:03:11Z</time>
  </trkpt>
  <trkpt lat="33.871213" lon="-5.283714">
   <ele>674.00</ele>
   <time>2014-03-29T15:03:17Z</time>
  </trkpt>
  <trkpt lat="33.871526" lon="-5.281721">
   <ele>675.00</ele>
   <time>2014-03-29T15:03:23Z</time>
  </trkpt>
  <trkpt lat="33.871904" lon="-5.279752">
   <ele>676.00</ele>
   <time>2014-03-29T15:03:29Z</time>
  </trkpt>
  <trkpt lat="33.872346" lon="-5.277784">
   <ele>676.00</ele>
   <time>2014-03-29T15:03:35Z</time>
  </trkpt>
  <trkpt lat="33.872853" lon="-5.275830">
   <ele>675.00</ele>
   <time>2014-03-29T15:03:41Z</time>
  </trkpt>
  <trkpt lat="33.873422" lon="-5.273890">
   <ele>675.00</ele>
   <time>2014-03-29T15:03:47Z</time>
  </trkpt>
  <trkpt lat="33.874059" lon="-5.271970">
   <ele>676.00</ele>
   <time>2014-03-29T15:03:53Z</time>
  </trkpt>
  <trkpt lat="33.874755" lon="-5.270087">
   <ele>677.00</ele>
   <time>2014-03-29T15:03:59Z</time>
  </trkpt>
  <trkpt lat="33.875781" lon="-5.267590">
   <ele>678.00</ele>
   <time>2014-03-29T15:04:07Z</time>
  </trkpt>
  <trkpt lat="33.876488" lon="-5.266053">
   <ele>677.00</ele>
   <time>2014-03-29T15:04:12Z</time>
  </trkpt>
  <trkpt lat="33.877377" lon="-5.264260">
   <ele>676.00</ele>
   <time>2014-03-29T15:04:18Z</time>
  </trkpt>
  <trkpt lat="33.878472" lon="-5.262262">
   <ele>674.00</ele>
   <time>2014-03-29T15:04:25Z</time>
  </trkpt>
  <trkpt lat="33.880927" lon="-5.258010">
   <ele>671.00</ele>
   <time>2014-03-29T15:04:40Z</time>
  </trkpt>
  <trkpt lat="33.881519" lon="-5.256810">
   <ele>671.00</ele>
   <time>2014-03-29T15:04:44Z</time>
  </trkpt>
  <trkpt lat="33.881923" lon="-5.255894">
   <ele>670.00</ele>
   <time>2014-03-29T15:04:47Z</time>
  </trkpt>
  <trkpt lat="33.882294" lon="-5.254956">
   <ele>669.00</ele>
   <time>2014-03-29T15:04:50Z</time>
  </trkpt>
  <trkpt lat="33.882960" lon="-5.253069">
   <ele>668.00</ele>
   <time>2014-03-29T15:04:56Z</time>
  </trkpt>
  <trkpt lat="33.883351" lon="-5.251792">
   <ele>667.00</ele>
   <time>2014-03-29T15:05:00Z</time>
  </trkpt>
  <trkpt lat="33.883700" lon="-5.250502">
   <ele>667.00</ele>
   <time>2014-03-29T15:05:04Z</time>
  </trkpt>
  <trkpt lat="33.883928" lon="-5.249531">
   <ele>668.00</ele>
   <time>2014-03-29T15:05:07Z</time>
  </trkpt>
  <trkpt lat="33.884190" lon="-5.248220">
   <ele>669.00</ele>
   <time>2014-03-29T15:05:11Z</time>
  </trkpt>
  <trkpt lat="33.884461" lon="-5.246540">
   <ele>671.00</ele>
   <time>2014-03-29T15:05:16Z</time>
  </trkpt>
  <trkpt lat="33.884667" lon="-5.244832">
   <ele>673.00</ele>
   <time>2014-03-29T15:05:21Z</time>
  </trkpt>
  <trkpt lat="33.884780" lon="-5.243456">
   <ele>674.00</ele>
   <time>2014-03-29T15:05:25Z</time>
  </trkpt>
  <trkpt lat="33.884834" lon="-5.242431">
   <ele>674.00</ele>
   <time>2014-03-29T15:05:28Z</time>
  </trkpt>
  <trkpt lat="33.884942" lon="-5.236946">
   <ele>671.00</ele>
   <time>2014-03-29T15:05:44Z</time>
  </trkpt>
  <trkpt lat="33.885006" lon="-5.235612">
   <ele>670.00</ele>
   <time>2014-03-29T15:05:48Z</time>
  </trkpt>
  <trkpt lat="33.885064" lon="-5.234978">
   <ele>670.00</ele>
   <time>2014-03-29T15:05:50Z</time>
  </trkpt>
  <trkpt lat="33.885142" lon="-5.234366">
   <ele>669.00</ele>
   <time>2014-03-29T15:05:52Z</time>
  </trkpt>
  <trkpt lat="33.885285" lon="-5.233474">
   <ele>668.00</ele>
   <time>2014-03-29T15:05:55Z</time>
  </trkpt>
  <trkpt lat="33.885466" lon="-5.232581">
   <ele>667.00</ele>
   <time>2014-03-29T15:05:58Z</time>
  </trkpt>
  <trkpt lat="33.885612" lon="-5.231983">
   <ele>666.00</ele>
   <time>2014-03-29T15:06:00Z</time>
  </trkpt>
  <trkpt lat="33.885862" lon="-5.231099">
   <ele>665.00</ele>
   <time>2014-03-29T15:06:03Z</time>
  </trkpt>
  <trkpt lat="33.886146" lon="-5.230227">
   <ele>663.00</ele>
   <time>2014-03-29T15:06:06Z</time>
  </trkpt>
  <trkpt lat="33.886468" lon="-5.229364">
   <ele>661.00</ele>
   <time>2014-03-29T15:06:09Z</time>
  </trkpt>
  <trkpt lat="33.886837" lon="-5.228499">
   <ele>658.00</ele>
   <time>2014-03-29T15:06:12Z</time>
  </trkpt>
  <trkpt lat="33.887259" lon="-5.227623">
   <ele>655.00</ele>
   <time>2014-03-29T15:06:15Z</time>
  </trkpt>
  <trkpt lat="33.887569" lon="-5.227038">
   <ele>652.00</ele>
   <time>2014-03-29T15:06:17Z</time>
  </trkpt>
  <trkpt lat="33.888072" lon="-5.226169">
   <ele>648.00</ele>
   <time>2014-03-29T15:06:20Z</time>
  </trkpt>
  <trkpt lat="33.888435" lon="-5.225601">
   <ele>645.00</ele>
   <time>2014-03-29T15:06:22Z</time>
  </trkpt>
  <trkpt lat="33.888821" lon="-5.225048">
   <ele>642.00</ele>
   <time>2014-03-29T15:06:24Z</time>
  </trkpt>
  <trkpt lat="33.889421" lon="-5.224260">
   <ele>637.00</ele>
   <time>2014-03-29T15:06:27Z</time>
  </trkpt>
  <trkpt lat="33.889837" lon="-5.223757">
   <ele>633.00</ele>
   <time>2014-03-29T15:06:29Z</time>
  </trkpt>
  <trkpt lat="33.890476" lon="-5.223042">
   <ele>629.00</ele>
   <time>2014-03-29T15:06:32Z</time>
  </trkpt>
  <trkpt lat="33.892199" lon="-5.221139">
   <ele>616.00</ele>
   <time>2014-03-29T15:06:40Z</time>
  </trkpt>
  <trkpt lat="33.893035" lon="-5.220121">
   <ele>610.00</ele>
   <time>2014-03-29T15:06:44Z</time>
  </trkpt>
  <trkpt lat="33.893445" lon="-5.219551">
   <ele>607.00</ele>
   <time>2014-03-29T15:06:46Z</time>
  </trkpt>
  <trkpt lat="33.893828" lon="-5.218948">
   <ele>604.00</ele>
   <time>2014-03-29T15:06:48Z</time>
  </trkpt>
  <trkpt lat="33.894183" lon="-5.218333">
   <ele>601.00</ele>
   <time>2014-03-29T15:06:50Z</time>
  </trkpt>
  <trkpt lat="33.894507" lon="-5.217710">
   <ele>598.00</ele>
   <time>2014-03-29T15:06:52Z</time>
  </trkpt>
  <trkpt lat="33.895100" lon="-5.216455">
   <ele>592.00</ele>
   <time>2014-03-29T15:06:56Z</time>
  </trkpt>
  <trkpt lat="33.895371" lon="-5.215816">
   <ele>589.00</ele>
   <time>2014-03-29T15:06:58Z</time>
  </trkpt>
  <trkpt lat="33.895620" lon="-5.215163">
   <ele>586.00</ele>
   <time>2014-03-29T15:07:00Z</time>
  </trkpt>
  <trkpt lat="33.895842" lon="-5.214500">
   <ele>583.00</ele>
   <time>2014-03-29T15:07:02Z</time>
  </trkpt>
  <trkpt lat="33.896436" lon="-5.212479">
   <ele>575.00</ele>
   <time>2014-03-29T15:07:08Z</time>
  </trkpt>
  <trkpt lat="33.897848" lon="-5.207403">
   <ele>564.00</ele>
   <time>2014-03-29T15:07:23Z</time>
  </trkpt>
  <trkpt lat="33.899310" lon="-5.202195">
   <ele>561.00</ele>
   <time>2014-03-29T15:07:39Z</time>
  </trkpt>
  <trkpt lat="33.900293" lon="-5.198817">
   <ele>560.00</ele>
   <time>2014-03-29T15:07:50Z</time>
  </trkpt>
  <trkpt lat="33.900701" lon="-5.197622">
   <ele>560.00</ele>
   <time>2014-03-29T15:07:54Z</time>
  </trkpt>
  <trkpt lat="33.900932" lon="-5.197035">
   <ele>560.00</ele>
   <time>2014-03-29T15:07:56Z</time>
  </trkpt>
  <trkpt lat="33.901563" lon="-5.195576">
   <ele>559.00</ele>
   <time>2014-03-29T15:08:01Z</time>
  </trkpt>
  <trkpt lat="33.902116" lon="-5.194420">
   <ele>558.00</ele>
   <time>2014-03-29T15:08:05Z</time>
  </trkpt>
  <trkpt lat="33.902701" lon="-5.193289">
   <ele>556.00</ele>
   <time>2014-03-29T15:08:09Z</time>
  </trkpt>
  <trkpt lat="33.903176" lon="-5.192463">
   <ele>554.00</ele>
   <time>2014-03-29T15:08:12Z</time>
  </trkpt>
  <trkpt lat="33.903684" lon="-5.191663">
   <ele>552.00</ele>
   <time>2014-03-29T15:08:15Z</time>
  </trkpt>
  <trkpt lat="33.904398" lon="-5.190636">
   <ele>549.00</ele>
   <time>2014-03-29T15:08:19Z</time>
  </trkpt>
  <trkpt lat="33.904956" lon="-5.189900">
   <ele>547.00</ele>
   <time>2014-03-29T15:08:22Z</time>
  </trkpt>
  <trkpt lat="33.905545" lon="-5.189193">
   <ele>545.00</ele>
   <time>2014-03-29T15:08:25Z</time>
  </trkpt>
  <trkpt lat="33.906171" lon="-5.188516">
   <ele>543.00</ele>
   <time>2014-03-29T15:08:28Z</time>
  </trkpt>
  <trkpt lat="33.907686" lon="-5.186981">
   <ele>538.00</ele>
   <time>2014-03-29T15:08:35Z</time>
  </trkpt>
  <trkpt lat="33.908136" lon="-5.186566">
   <ele>536.00</ele>
   <time>2014-03-29T15:08:37Z</time>
  </trkpt>
  <trkpt lat="33.908596" lon="-5.186172">
   <ele>535.00</ele>
   <time>2014-03-29T15:08:39Z</time>
  </trkpt>
  <trkpt lat="33.909305" lon="-5.185608">
   <ele>533.00</ele>
   <time>2014-03-29T15:08:42Z</time>
  </trkpt>
  <trkpt lat="33.910526" lon="-5.184731">
   <ele>529.00</ele>
   <time>2014-03-29T15:08:47Z</time>
  </trkpt>
  <trkpt lat="33.914201" lon="-5.182205">
   <ele>520.00</ele>
   <time>2014-03-29T15:09:02Z</time>
  </trkpt>
  <trkpt lat="33.917785" lon="-5.179748">
   <ele>510.00</ele>
   <time>2014-03-29T15:09:17Z</time>
  </trkpt>
  <trkpt lat="33.920675" lon="-5.177766">
   <ele>506.00</ele>
   <time>2014-03-29T15:09:29Z</time>
  </trkpt>
  <trkpt lat="33.921134" lon="-5.177401">
   <ele>505.00</ele>
   <time>2014-03-29T15:09:31Z</time>
  </trkpt>
  <trkpt lat="33.921813" lon="-5.176813">
   <ele>504.00</ele>
   <time>2014-03-29T15:09:34Z</time>
  </trkpt>
  <trkpt lat="33.922471" lon="-5.176184">
   <ele>503.00</ele>
   <time>2014-03-29T15:09:37Z</time>
  </trkpt>
  <trkpt lat="33.923111" lon="-5.175522">
   <ele>502.00</ele>
   <time>2014-03-29T15:09:40Z</time>
  </trkpt>
  <trkpt lat="33.923730" lon="-5.174826">
   <ele>501.00</ele>
   <time>2014-03-29T15:09:43Z</time>
  </trkpt>
  <trkpt lat="33.924322" lon="-5.174099">
   <ele>500.00</ele>
   <time>2014-03-29T15:09:46Z</time>
  </trkpt>
  <trkpt lat="33.924884" lon="-5.173336">
   <ele>499.00</ele>
   <time>2014-03-29T15:09:49Z</time>
  </trkpt>
  <trkpt lat="33.925239" lon="-5.172807">
   <ele>499.00</ele>
   <time>2014-03-29T15:09:51Z</time>
  </trkpt>
  <trkpt lat="33.925744" lon="-5.171986">
   <ele>498.00</ele>
   <time>2014-03-29T15:09:54Z</time>
  </trkpt>
  <trkpt lat="33.926218" lon="-5.171144">
   <ele>497.00</ele>
   <time>2014-03-29T15:09:57Z</time>
  </trkpt>
  <trkpt lat="33.926666" lon="-5.170276">
   <ele>496.00</ele>
   <time>2014-03-29T15:10:00Z</time>
  </trkpt>
  <trkpt lat="33.926946" lon="-5.169682">
   <ele>495.00</ele>
   <time>2014-03-29T15:10:02Z</time>
  </trkpt>
  <trkpt lat="33.927331" lon="-5.168767">
   <ele>494.00</ele>
   <time>2014-03-29T15:10:05Z</time>
  </trkpt>
  <trkpt lat="33.927679" lon="-5.167831">
   <ele>493.00</ele>
   <time>2014-03-29T15:10:08Z</time>
  </trkpt>
  <trkpt lat="33.927991" lon="-5.166875">
   <ele>492.00</ele>
   <time>2014-03-29T15:10:11Z</time>
  </trkpt>
  <trkpt lat="33.928262" lon="-5.165903">
   <ele>491.00</ele>
   <time>2014-03-29T15:10:14Z</time>
  </trkpt>
  <trkpt lat="33.928495" lon="-5.164920">
   <ele>490.00</ele>
   <time>2014-03-29T15:10:17Z</time>
  </trkpt>
  <trkpt lat="33.928694" lon="-5.163930">
   <ele>488.00</ele>
   <time>2014-03-29T15:10:20Z</time>
  </trkpt>
  <trkpt lat="33.929563" lon="-5.159330">
   <ele>484.00</ele>
   <time>2014-03-29T15:10:34Z</time>
  </trkpt>
  <trkpt lat="33.929949" lon="-5.157730">
   <ele>482.00</ele>
   <time>2014-03-29T15:10:39Z</time>
  </trkpt>
  <trkpt lat="33.930380" lon="-5.156173">
   <ele>481.00</ele>
   <time>2014-03-29T15:10:44Z</time>
  </trkpt>
  <trkpt lat="33.930865" lon="-5.154633">
   <ele>480.00</ele>
   <time>2014-03-29T15:10:49Z</time>
  </trkpt>
  <trkpt lat="33.931511" lon="-5.152812">
   <ele>478.00</ele>
   <time>2014-03-29T15:10:55Z</time>
  </trkpt>
  <trkpt lat="33.931974" lon="-5.151629">
   <ele>477.00</ele>
   <time>2014-03-29T15:10:59Z</time>
  </trkpt>
  <trkpt lat="33.932590" lon="-5.150198">
   <ele>478.00</ele>
   <time>2014-03-29T15:11:04Z</time>
  </trkpt>
  <trkpt lat="33.933752" lon="-5.147742">
   <ele>482.00</ele>
   <time>2014-03-29T15:11:13Z</time>
  </trkpt>
  <trkpt lat="33.934423" lon="-5.146379">
   <ele>485.00</ele>
   <time>2014-03-29T15:11:18Z</time>
  </trkpt>
  <trkpt lat="33.935039" lon="-5.144965">
   <ele>487.00</ele>
   <time>2014-03-29T15:11:23Z</time>
  </trkpt>
  <trkpt lat="33.935376" lon="-5.144093">
   <ele>489.00</ele>
   <time>2014-03-29T15:11:26Z</time>
  </trkpt>
  <trkpt lat="33.935783" lon="-5.142916">
   <ele>490.00</ele>
   <time>2014-03-29T15:11:30Z</time>
  </trkpt>
  <trkpt lat="33.936058" lon="-5.142017">
   <ele>491.00</ele>
   <time>2014-03-29T15:11:33Z</time>
  </trkpt>
  <trkpt lat="33.936379" lon="-5.140803">
   <ele>491.00</ele>
   <time>2014-03-29T15:11:37Z</time>
  </trkpt>
  <trkpt lat="33.936655" lon="-5.139568">
   <ele>492.00</ele>
   <time>2014-03-29T15:11:41Z</time>
  </trkpt>
  <trkpt lat="33.936771" lon="-5.138940">
   <ele>492.00</ele>
   <time>2014-03-29T15:11:43Z</time>
  </trkpt>
  <trkpt lat="33.936910" lon="-5.137985">
   <ele>492.00</ele>
   <time>2014-03-29T15:11:46Z</time>
  </trkpt>
  <trkpt lat="33.937091" lon="-5.136381">
   <ele>491.00</ele>
   <time>2014-03-29T15:11:51Z</time>
  </trkpt>
  <trkpt lat="33.937188" lon="-5.135091">
   <ele>491.00</ele>
   <time>2014-03-29T15:11:55Z</time>
  </trkpt>
  <trkpt lat="33.937230" lon="-5.134117">
   <ele>490.00</ele>
   <time>2014-03-29T15:11:58Z</time>
  </trkpt>
  <trkpt lat="33.937240" lon="-5.133136">
   <ele>490.00</ele>
   <time>2014-03-29T15:12:01Z</time>
  </trkpt>
  <trkpt lat="33.937221" lon="-5.132162">
   <ele>489.00</ele>
   <time>2014-03-29T15:12:04Z</time>
  </trkpt>
  <trkpt lat="33.937166" lon="-5.131194">
   <ele>489.00</ele>
   <time>2014-03-29T15:12:07Z</time>
  </trkpt>
  <trkpt lat="33.937057" lon="-5.129901">
   <ele>488.00</ele>
   <time>2014-03-29T15:12:11Z</time>
  </trkpt>
  <trkpt lat="33.936934" lon="-5.128934">
   <ele>488.00</ele>
   <time>2014-03-29T15:12:14Z</time>
  </trkpt>
  <trkpt lat="33.936731" lon="-5.127663">
   <ele>487.00</ele>
   <time>2014-03-29T15:12:18Z</time>
  </trkpt>
  <trkpt lat="33.936551" lon="-5.126713">
   <ele>487.00</ele>
   <time>2014-03-29T15:12:21Z</time>
  </trkpt>
  <trkpt lat="33.936336" lon="-5.125771">
   <ele>488.00</ele>
   <time>2014-03-29T15:12:24Z</time>
  </trkpt>
  <trkpt lat="33.936018" lon="-5.124525">
   <ele>489.00</ele>
   <time>2014-03-29T15:12:28Z</time>
  </trkpt>
  <trkpt lat="33.934925" lon="-5.120582">
   <ele>499.00</ele>
   <time>2014-03-29T15:12:41Z</time>
  </trkpt>
  <trkpt lat="33.934737" lon="-5.119656">
   <ele>502.00</ele>
   <time>2014-03-29T15:12:44Z</time>
  </trkpt>
  <trkpt lat="33.934586" lon="-5.118716">
   <ele>505.00</ele>
   <time>2014-03-29T15:12:47Z</time>
  </trkpt>
  <trkpt lat="33.934508" lon="-5.118087">
   <ele>507.00</ele>
   <time>2014-03-29T15:12:49Z</time>
  </trkpt>
  <trkpt lat="33.934423" lon="-5.117143">
   <ele>510.00</ele>
   <time>2014-03-29T15:12:52Z</time>
  </trkpt>
  <trkpt lat="33.934377" lon="-5.116196">
   <ele>513.00</ele>
   <time>2014-03-29T15:12:55Z</time>
  </trkpt>
  <trkpt lat="33.934370" lon="-5.115244">
   <ele>516.00</ele>
   <time>2014-03-29T15:12:58Z</time>
  </trkpt>
  <trkpt lat="33.934400" lon="-5.114289">
   <ele>518.00</ele>
   <time>2014-03-29T15:13:01Z</time>
  </trkpt>
  <trkpt lat="33.934438" lon="-5.113653">
   <ele>519.00</ele>
   <time>2014-03-29T15:13:03Z</time>
  </trkpt>
  <trkpt lat="33.934496" lon="-5.113026">
   <ele>520.00</ele>
   <time>2014-03-29T15:13:05Z</time>
  </trkpt>
  <trkpt lat="33.934616" lon="-5.112097">
   <ele>521.00</ele>
   <time>2014-03-29T15:13:08Z</time>
  </trkpt>
  <trkpt lat="33.934774" lon="-5.111170">
   <ele>522.00</ele>
   <time>2014-03-29T15:13:11Z</time>
  </trkpt>
  <trkpt lat="33.934972" lon="-5.110248">
   <ele>523.00</ele>
   <time>2014-03-29T15:13:14Z</time>
  </trkpt>
  <trkpt lat="33.935126" lon="-5.109634">
   <ele>524.00</ele>
   <time>2014-03-29T15:13:16Z</time>
  </trkpt>
  <trkpt lat="33.935300" lon="-5.109025">
   <ele>524.00</ele>
   <time>2014-03-29T15:13:18Z</time>
  </trkpt>
  <trkpt lat="33.935590" lon="-5.108127">
   <ele>523.00</ele>
   <time>2014-03-29T15:13:21Z</time>
  </trkpt>
  <trkpt lat="33.935801" lon="-5.107538">
   <ele>523.00</ele>
   <time>2014-03-29T15:13:23Z</time>
  </trkpt>
  <trkpt lat="33.936146" lon="-5.106675">
   <ele>522.00</ele>
   <time>2014-03-29T15:13:26Z</time>
  </trkpt>
  <trkpt lat="33.936399" lon="-5.106108">
   <ele>521.00</ele>
   <time>2014-03-29T15:13:28Z</time>
  </trkpt>
  <trkpt lat="33.936669" lon="-5.105552">
   <ele>520.00</ele>
   <time>2014-03-29T15:13:30Z</time>
  </trkpt>
  <trkpt lat="33.937103" lon="-5.104731">
   <ele>519.00</ele>
   <time>2014-03-29T15:13:33Z</time>
  </trkpt>
  <trkpt lat="33.937410" lon="-5.104195">
   <ele>519.00</ele>
   <time>2014-03-29T15:13:35Z</time>
  </trkpt>
  <trkpt lat="33.937898" lon="-5.103424">
   <ele>519.00</ele>
   <time>2014-03-29T15:13:38Z</time>
  </trkpt>
  <trkpt lat="33.938410" lon="-5.102688">
   <ele>519.00</ele>
   <time>2014-03-29T15:13:41Z</time>
  </trkpt>
  <trkpt lat="33.939121" lon="-5.101747">
   <ele>521.00</ele>
   <time>2014-03-29T15:13:45Z</time>
  </trkpt>
  <trkpt lat="33.940375" lon="-5.100106">
   <ele>523.00</ele>
   <time>2014-03-29T15:13:52Z</time>
  </trkpt>
  <trkpt lat="33.940878" lon="-5.099369">
   <ele>524.00</ele>
   <time>2014-03-29T15:13:55Z</time>
  </trkpt>
  <trkpt lat="33.941191" lon="-5.098864">
   <ele>525.00</ele>
   <time>2014-03-29T15:13:57Z</time>
  </trkpt>
  <trkpt lat="33.941625" lon="-5.098095">
   <ele>525.00</ele>
   <time>2014-03-29T15:14:00Z</time>
  </trkpt>
  <trkpt lat="33.942157" lon="-5.097045">
   <ele>525.00</ele>
   <time>2014-03-29T15:14:04Z</time>
  </trkpt>
  <trkpt lat="33.942517" lon="-5.096227">
   <ele>524.00</ele>
   <time>2014-03-29T15:14:07Z</time>
  </trkpt>
  <trkpt lat="33.942848" lon="-5.095395">
   <ele>524.00</ele>
   <time>2014-03-29T15:14:10Z</time>
  </trkpt>
  <trkpt lat="33.943346" lon="-5.093986">
   <ele>523.00</ele>
   <time>2014-03-29T15:14:15Z</time>
  </trkpt>
  <trkpt lat="33.943517" lon="-5.093396">
   <ele>523.00</ele>
   <time>2014-03-29T15:14:17Z</time>
  </trkpt>
  <trkpt lat="33.943669" lon="-5.092792">
   <ele>523.00</ele>
   <time>2014-03-29T15:14:19Z</time>
  </trkpt>
  <trkpt lat="33.943799" lon="-5.092170">
   <ele>523.00</ele>
   <time>2014-03-29T15:14:21Z</time>
  </trkpt>
  <trkpt lat="33.943906" lon="-5.091543">
   <ele>523.00</ele>
   <time>2014-03-29T15:14:23Z</time>
  </trkpt>
  <trkpt lat="33.944035" lon="-5.090592">
   <ele>522.00</ele>
   <time>2014-03-29T15:14:26Z</time>
  </trkpt>
  <trkpt lat="33.944127" lon="-5.089649">
   <ele>521.00</ele>
   <time>2014-03-29T15:14:29Z</time>
  </trkpt>
  <trkpt lat="33.944190" lon="-5.088721">
   <ele>521.00</ele>
   <time>2014-03-29T15:14:32Z</time>
  </trkpt>
  <trkpt lat="33.944213" lon="-5.087798">
   <ele>520.00</ele>
   <time>2014-03-29T15:14:35Z</time>
  </trkpt>
  <trkpt lat="33.944202" lon="-5.086867">
   <ele>519.00</ele>
   <time>2014-03-29T15:14:38Z</time>
  </trkpt>
  <trkpt lat="33.944160" lon="-5.085926">
   <ele>519.00</ele>
   <time>2014-03-29T15:14:41Z</time>
  </trkpt>
  <trkpt lat="33.943910" lon="-5.082482">
   <ele>518.00</ele>
   <time>2014-03-29T15:14:52Z</time>
  </trkpt>
  <trkpt lat="33.943892" lon="-5.081245">
   <ele>518.00</ele>
   <time>2014-03-29T15:14:56Z</time>
  </trkpt>
  <trkpt lat="33.943908" lon="-5.080628">
   <ele>519.00</ele>
   <time>2014-03-29T15:14:58Z</time>
  </trkpt>
  <trkpt lat="33.943943" lon="-5.080013">
   <ele>519.00</ele>
   <time>2014-03-29T15:15:00Z</time>
  </trkpt>
  <trkpt lat="33.944025" lon="-5.079099">
   <ele>519.00</ele>
   <time>2014-03-29T15:15:03Z</time>
  </trkpt>
  <trkpt lat="33.944139" lon="-5.078194">
   <ele>519.00</ele>
   <time>2014-03-29T15:15:06Z</time>
  </trkpt>
  <trkpt lat="33.944297" lon="-5.077296">
   <ele>520.00</ele>
   <time>2014-03-29T15:15:09Z</time>
  </trkpt>
  <trkpt lat="33.944419" lon="-5.076705">
   <ele>520.00</ele>
   <time>2014-03-29T15:15:11Z</time>
  </trkpt>
  <trkpt lat="33.944636" lon="-5.075822">
   <ele>520.00</ele>
   <time>2014-03-29T15:15:14Z</time>
  </trkpt>
  <trkpt lat="33.944885" lon="-5.074947">
   <ele>519.00</ele>
   <time>2014-03-29T15:15:17Z</time>
  </trkpt>
  <trkpt lat="33.945171" lon="-5.074073">
   <ele>518.00</ele>
   <time>2014-03-29T15:15:20Z</time>
  </trkpt>
  <trkpt lat="33.945608" lon="-5.072936">
   <ele>517.00</ele>
   <time>2014-03-29T15:15:24Z</time>
  </trkpt>
  <trkpt lat="33.945851" lon="-5.072381">
   <ele>517.00</ele>
   <time>2014-03-29T15:15:26Z</time>
  </trkpt>
  <trkpt lat="33.946251" lon="-5.071567">
   <ele>515.00</ele>
   <time>2014-03-29T15:15:29Z</time>
  </trkpt>
  <trkpt lat="33.947807" lon="-5.068580">
   <ele>516.00</ele>
   <time>2014-03-29T15:15:40Z</time>
  </trkpt>
  <trkpt lat="33.948071" lon="-5.067984">
   <ele>516.00</ele>
   <time>2014-03-29T15:15:42Z</time>
  </trkpt>
  <trkpt lat="33.948317" lon="-5.067373">
   <ele>516.00</ele>
   <time>2014-03-29T15:15:44Z</time>
  </trkpt>
  <trkpt lat="33.948543" lon="-5.066748">
   <ele>517.00</ele>
   <time>2014-03-29T15:15:46Z</time>
  </trkpt>
  <trkpt lat="33.948747" lon="-5.066116">
   <ele>517.00</ele>
   <time>2014-03-29T15:15:48Z</time>
  </trkpt>
  <trkpt lat="33.948929" lon="-5.065484">
   <ele>517.00</ele>
   <time>2014-03-29T15:15:50Z</time>
  </trkpt>
  <trkpt lat="33.949245" lon="-5.064208">
   <ele>516.00</ele>
   <time>2014-03-29T15:15:54Z</time>
  </trkpt>
  <trkpt lat="33.949444" lon="-5.063234">
   <ele>516.00</ele>
   <time>2014-03-29T15:15:57Z</time>
  </trkpt>
  <trkpt lat="33.949549" lon="-5.062576">
   <ele>515.00</ele>
   <time>2014-03-29T15:15:59Z</time>
  </trkpt>
  <trkpt lat="33.949632" lon="-5.061918">
   <ele>515.00</ele>
   <time>2014-03-29T15:16:01Z</time>
  </trkpt>
  <trkpt lat="33.949726" lon="-5.060930">
   <ele>515.00</ele>
   <time>2014-03-29T15:16:04Z</time>
  </trkpt>
  <trkpt lat="33.949780" lon="-5.059944">
   <ele>514.00</ele>
   <time>2014-03-29T15:16:07Z</time>
  </trkpt>
  <trkpt lat="33.949787" lon="-5.058970">
   <ele>514.00</ele>
   <time>2014-03-29T15:16:10Z</time>
  </trkpt>
  <trkpt lat="33.949767" lon="-5.058327">
   <ele>513.00</ele>
   <time>2014-03-29T15:16:12Z</time>
  </trkpt>
  <trkpt lat="33.949703" lon="-5.057364">
   <ele>513.00</ele>
   <time>2014-03-29T15:16:15Z</time>
  </trkpt>
  <trkpt lat="33.949598" lon="-5.056408">
   <ele>512.00</ele>
   <time>2014-03-29T15:16:18Z</time>
  </trkpt>
  <trkpt lat="33.949271" lon="-5.053562">
   <ele>512.00</ele>
   <time>2014-03-29T15:16:27Z</time>
  </trkpt>
  <trkpt lat="33.949230" lon="-5.052928">
   <ele>511.00</ele>
   <time>2014-03-29T15:16:29Z</time>
  </trkpt>
  <trkpt lat="33.949204" lon="-5.051977">
   <ele>512.00</ele>
   <time>2014-03-29T15:16:32Z</time>
  </trkpt>
  <trkpt lat="33.949214" lon="-5.051341">
   <ele>512.00</ele>
   <time>2014-03-29T15:16:34Z</time>
  </trkpt>
  <trkpt lat="33.949246" lon="-5.050711">
   <ele>512.00</ele>
   <time>2014-03-29T15:16:36Z</time>
  </trkpt>
  <trkpt lat="33.949326" lon="-5.049771">
   <ele>513.00</ele>
   <time>2014-03-29T15:16:39Z</time>
  </trkpt>
  <trkpt lat="33.949408" lon="-5.049148">
   <ele>513.00</ele>
   <time>2014-03-29T15:16:41Z</time>
  </trkpt>
  <trkpt lat="33.949565" lon="-5.048221">
   <ele>514.00</ele>
   <time>2014-03-29T15:16:44Z</time>
  </trkpt>
  <trkpt lat="33.949888" lon="-5.046378">
   <ele>516.00</ele>
   <time>2014-03-29T15:16:50Z</time>
  </trkpt>
  <trkpt lat="33.949928" lon="-5.046068">
   <ele>516.00</ele>
   <time>2014-03-29T15:16:51Z</time>
  </trkpt>
  <trkpt lat="33.949955" lon="-5.045759">
   <ele>516.00</ele>
   <time>2014-03-29T15:16:52Z</time>
  </trkpt>
  <trkpt lat="33.949967" lon="-5.045454">
   <ele>516.00</ele>
   <time>2014-03-29T15:16:53Z</time>
  </trkpt>
  <trkpt lat="33.949968" lon="-5.045154">
   <ele>516.00</ele>
   <time>2014-03-29T15:16:54Z</time>
  </trkpt>
  <trkpt lat="33.949961" lon="-5.044860">
   <ele>516.00</ele>
   <time>2014-03-29T15:16:55Z</time>
  </trkpt>
  <trkpt lat="33.949925" lon="-5.044289">
   <ele>517.00</ele>
   <time>2014-03-29T15:16:57Z</time>
  </trkpt>
  <trkpt lat="33.949799" lon="-5.042615">
   <ele>517.00</ele>
   <time>2014-03-29T15:17:03Z</time>
  </trkpt>
  <trkpt lat="33.949793" lon="-5.042342">
   <ele>518.00</ele>
   <time>2014-03-29T15:17:04Z</time>
  </trkpt>
  <trkpt lat="33.949798" lon="-5.042071">
   <ele>518.00</ele>
   <time>2014-03-29T15:17:05Z</time>
  </trkpt>
  <trkpt lat="33.949814" lon="-5.041807">
   <ele>518.00</ele>
   <time>2014-03-29T15:17:06Z</time>
  </trkpt>
  <trkpt lat="33.949846" lon="-5.041548">
   <ele>518.00</ele>
   <time>2014-03-29T15:17:07Z</time>
  </trkpt>
  <trkpt lat="33.949891" lon="-5.041297">
   <ele>518.00</ele>
   <time>2014-03-29T15:17:08Z</time>
  </trkpt>
  <trkpt lat="33.949950" lon="-5.041051">
   <ele>518.00</ele>
   <time>2014-03-29T15:17:09Z</time>
  </trkpt>
  <trkpt lat="33.950018" lon="-5.040813">
   <ele>518.00</ele>
   <time>2014-03-29T15:17:10Z</time>
  </trkpt>
  <trkpt lat="33.950094" lon="-5.040582">
   <ele>518.00</ele>
   <time>2014-03-29T15:17:11Z</time>
  </trkpt>
  <trkpt lat="33.950181" lon="-5.040362">
   <ele>519.00</ele>
   <time>2014-03-29T15:17:12Z</time>
  </trkpt>
  <trkpt lat="33.950278" lon="-5.040152">
   <ele>519.00</ele>
   <time>2014-03-29T15:17:13Z</time>
  </trkpt>
  <trkpt lat="33.950384" lon="-5.039950">
   <ele>519.00</ele>
   <time>2014-03-29T15:17:14Z</time>
  </trkpt>
  <trkpt lat="33.950497" lon="-5.039759">
   <ele>520.00</ele>
   <time>2014-03-29T15:17:15Z</time>
  </trkpt>
  <trkpt lat="33.950618" lon="-5.039577">
   <ele>520.00</ele>
   <time>2014-03-29T15:17:16Z</time>
  </trkpt>
  <trkpt lat="33.950750" lon="-5.039407">
   <ele>520.00</ele>
   <time>2014-03-29T15:17:17Z</time>
  </trkpt>
  <trkpt lat="33.950891" lon="-5.039245">
   <ele>520.00</ele>
   <time>2014-03-29T15:17:18Z</time>
  </trkpt>
  <trkpt lat="33.951037" lon="-5.039093">
   <ele>519.00</ele>
   <time>2014-03-29T15:17:19Z</time>
  </trkpt>
  <trkpt lat="33.951333" lon="-5.038814">
   <ele>520.00</ele>
   <time>2014-03-29T15:17:21Z</time>
  </trkpt>
  <trkpt lat="33.951634" lon="-5.038563">
   <ele>520.00</ele>
   <time>2014-03-29T15:17:23Z</time>
  </trkpt>
  <trkpt lat="33.953211" lon="-5.037284">
   <ele>523.00</ele>
   <time>2014-03-29T15:17:37Z</time>
  </trkpt>
  <trkpt lat="33.953371" lon="-5.037176">
   <ele>524.00</ele>
   <time>2014-03-29T15:17:41Z</time>
  </trkpt>
  <trkpt lat="33.953273" lon="-5.037192">
   <ele>541.00</ele>
   <time>2014-03-29T15:17:56Z</time>
  </trkpt>
  <trkpt lat="33.953311" lon="-5.037007">
   <ele>549.00</ele>
   <time>2014-03-29T15:18:03Z</time>
  </trkpt>
  <trkpt lat="33.953517" lon="-5.037002">
   <ele>534.00</ele>
   <time>2014-03-29T15:18:07Z</time>
  </trkpt>
  <trkpt lat="33.953911" lon="-5.036749">
   <ele>529.00</ele>
   <time>2014-03-29T15:18:15Z</time>
  </trkpt>
  <trkpt lat="33.954224" lon="-5.036535">
   <ele>528.00</ele>
   <time>2014-03-29T15:18:21Z</time>
  </trkpt>
  <trkpt lat="33.954385" lon="-5.036422">
   <ele>527.00</ele>
   <time>2014-03-29T15:18:26Z</time>
  </trkpt>
  <trkpt lat="33.954441" lon="-5.036411">
   <ele>526.00</ele>
   <time>2014-03-29T15:18:41Z</time>
  </trkpt>
  <trkpt lat="33.954614" lon="-5.036320">
   <ele>526.00</ele>
   <time>2014-03-29T15:18:45Z</time>
  </trkpt>
  <trkpt lat="33.954777" lon="-5.036188">
   <ele>526.00</ele>
   <time>2014-03-29T15:18:48Z</time>
  </trkpt>
  <trkpt lat="33.954911" lon="-5.036023">
   <ele>527.00</ele>
   <time>2014-03-29T15:18:51Z</time>
  </trkpt>
  <trkpt lat="33.955011" lon="-5.035808">
   <ele>527.00</ele>
   <time>2014-03-29T15:18:54Z</time>
  </trkpt>
  <trkpt lat="33.955204" lon="-5.035663">
   <ele>526.00</ele>
   <time>2014-03-29T15:18:57Z</time>
  </trkpt>
  <trkpt lat="33.955351" lon="-5.035530">
   <ele>525.00</ele>
   <time>2014-03-29T15:18:59Z</time>
  </trkpt>
  <trkpt lat="33.955508" lon="-5.035337">
   <ele>524.00</ele>
   <time>2014-03-29T15:19:01Z</time>
  </trkpt>
  <trkpt lat="33.955965" lon="-5.034752">
   <ele>521.00</ele>
   <time>2014-03-29T15:19:06Z</time>
  </trkpt>
  <trkpt lat="33.956186" lon="-5.034501">
   <ele>520.00</ele>
   <time>2014-03-29T15:19:08Z</time>
  </trkpt>
  <trkpt lat="33.956425" lon="-5.034253">
   <ele>519.00</ele>
   <time>2014-03-29T15:19:10Z</time>
  </trkpt>
  <trkpt lat="33.956680" lon="-5.034010">
   <ele>518.00</ele>
   <time>2014-03-29T15:19:12Z</time>
  </trkpt>
  <trkpt lat="33.956948" lon="-5.033773">
   <ele>516.00</ele>
   <time>2014-03-29T15:19:14Z</time>
  </trkpt>
  <trkpt lat="33.957229" lon="-5.033555">
   <ele>515.00</ele>
   <time>2014-03-29T15:19:16Z</time>
  </trkpt>
  <trkpt lat="33.957518" lon="-5.033353">
   <ele>514.00</ele>
   <time>2014-03-29T15:19:18Z</time>
  </trkpt>
  <trkpt lat="33.957812" lon="-5.033166">
   <ele>513.00</ele>
   <time>2014-03-29T15:19:20Z</time>
  </trkpt>
  <trkpt lat="33.958114" lon="-5.032992">
   <ele>512.00</ele>
   <time>2014-03-29T15:19:22Z</time>
  </trkpt>
  <trkpt lat="33.958426" lon="-5.032836">
   <ele>510.00</ele>
   <time>2014-03-29T15:19:24Z</time>
  </trkpt>
  <trkpt lat="33.958746" lon="-5.032697">
   <ele>509.00</ele>
   <time>2014-03-29T15:19:26Z</time>
  </trkpt>
  <trkpt lat="33.959076" lon="-5.032577">
   <ele>508.00</ele>
   <time>2014-03-29T15:19:28Z</time>
  </trkpt>
  <trkpt lat="33.959415" lon="-5.032473">
   <ele>507.00</ele>
   <time>2014-03-29T15:19:30Z</time>
  </trkpt>
  <trkpt lat="33.959760" lon="-5.032387">
   <ele>507.00</ele>
   <time>2014-03-29T15:19:32Z</time>
  </trkpt>
  <trkpt lat="33.960104" lon="-5.032316">
   <ele>506.00</ele>
   <time>2014-03-29T15:19:34Z</time>
  </trkpt>
  <trkpt lat="33.962746" lon="-5.031902">
   <ele>501.00</ele>
   <time>2014-03-29T15:19:49Z</time>
  </trkpt>
  <trkpt lat="33.965359" lon="-5.031495">
   <ele>498.00</ele>
   <time>2014-03-29T15:20:04Z</time>
  </trkpt>
  <trkpt lat="33.966719" lon="-5.031349">
   <ele>497.00</ele>
   <time>2014-03-29T15:20:12Z</time>
  </trkpt>
  <trkpt lat="33.969256" lon="-5.031208">
   <ele>494.00</ele>
   <time>2014-03-29T15:20:27Z</time>
  </trkpt>
  <trkpt lat="33.972304" lon="-5.031070">
   <ele>491.00</ele>
   <time>2014-03-29T15:20:43Z</time>
  </trkpt>
  <trkpt lat="33.974639" lon="-5.030872">
   <ele>487.00</ele>
   <time>2014-03-29T15:20:55Z</time>
  </trkpt>
  <trkpt lat="33.975407" lon="-5.030752">
   <ele>486.00</ele>
   <time>2014-03-29T15:20:59Z</time>
  </trkpt>
  <trkpt lat="33.976365" lon="-5.030555">
   <ele>484.00</ele>
   <time>2014-03-29T15:21:04Z</time>
  </trkpt>
  <trkpt lat="33.977125" lon="-5.030350">
   <ele>483.00</ele>
   <time>2014-03-29T15:21:08Z</time>
  </trkpt>
  <trkpt lat="33.978073" lon="-5.030041">
   <ele>482.00</ele>
   <time>2014-03-29T15:21:13Z</time>
  </trkpt>
  <trkpt lat="33.978450" lon="-5.029903">
   <ele>481.00</ele>
   <time>2014-03-29T15:21:15Z</time>
  </trkpt>
  <trkpt lat="33.978820" lon="-5.029742">
   <ele>480.00</ele>
   <time>2014-03-29T15:21:17Z</time>
  </trkpt>
  <trkpt lat="33.981706" lon="-5.028340">
   <ele>473.00</ele>
   <time>2014-03-29T15:21:33Z</time>
  </trkpt>
  <trkpt lat="33.983860" lon="-5.027317">
   <ele>468.00</ele>
   <time>2014-03-29T15:21:46Z</time>
  </trkpt>
  <trkpt lat="33.984195" lon="-5.027162">
   <ele>467.00</ele>
   <time>2014-03-29T15:21:48Z</time>
  </trkpt>
  <trkpt lat="33.986722" lon="-5.025886">
   <ele>461.00</ele>
   <time>2014-03-29T15:22:03Z</time>
  </trkpt>
  <trkpt lat="33.989083" lon="-5.024732">
   <ele>455.00</ele>
   <time>2014-03-29T15:22:18Z</time>
  </trkpt>
  <trkpt lat="33.989979" lon="-5.024308">
   <ele>454.00</ele>
   <time>2014-03-29T15:22:24Z</time>
  </trkpt>
  <trkpt lat="33.990300" lon="-5.024176">
   <ele>453.00</ele>
   <time>2014-03-29T15:22:26Z</time>
  </trkpt>
  <trkpt lat="33.990625" lon="-5.024061">
   <ele>453.00</ele>
   <time>2014-03-29T15:22:28Z</time>
  </trkpt>
  <trkpt lat="33.990952" lon="-5.023967">
   <ele>453.00</ele>
   <time>2014-03-29T15:22:30Z</time>
  </trkpt>
  <trkpt lat="33.991284" lon="-5.023895">
   <ele>453.00</ele>
   <time>2014-03-29T15:22:32Z</time>
  </trkpt>
  <trkpt lat="33.991617" lon="-5.023845">
   <ele>452.00</ele>
   <time>2014-03-29T15:22:34Z</time>
  </trkpt>
  <trkpt lat="33.991949" lon="-5.023816">
   <ele>452.00</ele>
   <time>2014-03-29T15:22:36Z</time>
  </trkpt>
  <trkpt lat="33.992284" lon="-5.023811">
   <ele>452.00</ele>
   <time>2014-03-29T15:22:38Z</time>
  </trkpt>
  <trkpt lat="33.992619" lon="-5.023831">
   <ele>452.00</ele>
   <time>2014-03-29T15:22:40Z</time>
  </trkpt>
  <trkpt lat="33.992957" lon="-5.023876">
   <ele>452.00</ele>
   <time>2014-03-29T15:22:42Z</time>
  </trkpt>
  <trkpt lat="33.994148" lon="-5.024092">
   <ele>452.00</ele>
   <time>2014-03-29T15:22:49Z</time>
  </trkpt>
  <trkpt lat="33.996420" lon="-5.024548">
   <ele>451.00</ele>
   <time>2014-03-29T15:23:04Z</time>
  </trkpt>
  <trkpt lat="33.997151" lon="-5.024679">
   <ele>449.00</ele>
   <time>2014-03-29T15:23:09Z</time>
  </trkpt>
  <trkpt lat="33.997445" lon="-5.024709">
   <ele>449.00</ele>
   <time>2014-03-29T15:23:11Z</time>
  </trkpt>
  <trkpt lat="33.997738" lon="-5.024694">
   <ele>448.00</ele>
   <time>2014-03-29T15:23:13Z</time>
  </trkpt>
  <trkpt lat="33.998012" lon="-5.024654">
   <ele>448.00</ele>
   <time>2014-03-29T15:23:15Z</time>
  </trkpt>
  <trkpt lat="33.998269" lon="-5.024597">
   <ele>447.00</ele>
   <time>2014-03-29T15:23:17Z</time>
  </trkpt>
  <trkpt lat="33.998523" lon="-5.024522">
   <ele>447.00</ele>
   <time>2014-03-29T15:23:19Z</time>
  </trkpt>
  <trkpt lat="34.000340" lon="-5.023936">
   <ele>443.00</ele>
   <time>2014-03-29T15:23:34Z</time>
  </trkpt>
  <trkpt lat="34.002233" lon="-5.023332">
   <ele>438.00</ele>
   <time>2014-03-29T15:23:49Z</time>
  </trkpt>
  <trkpt lat="34.004344" lon="-5.022659">
   <ele>435.00</ele>
   <time>2014-03-29T15:24:05Z</time>
  </trkpt>
  <trkpt lat="34.006197" lon="-5.022084">
   <ele>433.00</ele>
   <time>2014-03-29T15:24:20Z</time>
  </trkpt>
  <trkpt lat="34.007452" lon="-5.021681">
   <ele>432.00</ele>
   <time>2014-03-29T15:24:35Z</time>
  </trkpt>
  <trkpt lat="34.007915" lon="-5.021540">
   <ele>431.00</ele>
   <time>2014-03-29T15:24:48Z</time>
  </trkpt>
  <trkpt lat="34.008113" lon="-5.021488">
   <ele>431.00</ele>
   <time>2014-03-29T15:24:52Z</time>
  </trkpt>
  <trkpt lat="34.008288" lon="-5.021425">
   <ele>431.00</ele>
   <time>2014-03-29T15:24:55Z</time>
  </trkpt>
  <trkpt lat="34.008503" lon="-5.021360">
   <ele>431.00</ele>
   <time>2014-03-29T15:24:58Z</time>
  </trkpt>
  <trkpt lat="34.010112" lon="-5.020836">
   <ele>429.00</ele>
   <time>2014-03-29T15:25:13Z</time>
  </trkpt>
  <trkpt lat="34.010700" lon="-5.020644">
   <ele>428.00</ele>
   <time>2014-03-29T15:25:21Z</time>
  </trkpt>
  <trkpt lat="34.010700" lon="-5.020644">
   <ele>428.00</ele>
   <time>2014-03-29T15:25:36Z</time>
  </trkpt>
  <trkpt lat="34.010923" lon="-5.020552">
   <ele>427.00</ele>
   <time>2014-03-29T15:25:45Z</time>
  </trkpt>
  <trkpt lat="34.010921" lon="-5.020342">
   <ele>427.00</ele>
   <time>2014-03-29T15:25:50Z</time>
  </trkpt>
  <trkpt lat="34.010862" lon="-5.020081">
   <ele>427.00</ele>
   <time>2014-03-29T15:25:53Z</time>
  </trkpt>
  <trkpt lat="34.010499" lon="-5.018358">
   <ele>427.00</ele>
   <time>2014-03-29T15:26:08Z</time>
  </trkpt>
  <trkpt lat="34.010431" lon="-5.018029">
   <ele>427.00</ele>
   <time>2014-03-29T15:26:11Z</time>
  </trkpt>
  <trkpt lat="34.010353" lon="-5.017650">
   <ele>428.00</ele>
   <time>2014-03-29T15:26:15Z</time>
  </trkpt>
  <trkpt lat="34.010295" lon="-5.017379">
   <ele>428.00</ele>
   <time>2014-03-29T15:26:18Z</time>
  </trkpt>
  <trkpt lat="34.010185" lon="-5.016862">
   <ele>429.00</ele>
   <time>2014-03-29T15:26:24Z</time>
  </trkpt>
  <trkpt lat="34.010142" lon="-5.016615">
   <ele>430.00</ele>
   <time>2014-03-29T15:26:29Z</time>
  </trkpt>
  <trkpt lat="34.010113" lon="-5.016379">
   <ele>433.00</ele>
   <time>2014-03-29T15:26:45Z</time>
  </trkpt>
  <trkpt lat="34.010061" lon="-5.016142">
   <ele>434.00</ele>
   <time>2014-03-29T15:26:50Z</time>
  </trkpt>
  <trkpt lat="34.009991" lon="-5.015937">
   <ele>435.00</ele>
   <time>2014-03-29T15:26:55Z</time>
  </trkpt>
  <trkpt lat="34.009784" lon="-5.015952">
   <ele>434.00</ele>
   <time>2014-03-29T15:27:00Z</time>
  </trkpt>
  <trkpt lat="34.009373" lon="-5.016092">
   <ele>435.00</ele>
   <time>2014-03-29T15:27:09Z</time>
  </trkpt>
  <trkpt lat="34.009186" lon="-5.016161">
   <ele>435.00</ele>
   <time>2014-03-29T15:27:13Z</time>
  </trkpt>
  <trkpt lat="34.008849" lon="-5.016252">
   <ele>441.00</ele>
   <time>2014-03-29T15:27:19Z</time>
  </trkpt>
  <trkpt lat="34.008676" lon="-5.016317">
   <ele>443.00</ele>
   <time>2014-03-29T15:27:22Z</time>
  </trkpt>
  <trkpt lat="34.008413" lon="-5.016404">
   <ele>441.00</ele>
   <time>2014-03-29T15:27:26Z</time>
  </trkpt>
  <trkpt lat="34.007905" lon="-5.016550">
   <ele>440.00</ele>
   <time>2014-03-29T15:27:33Z</time>
  </trkpt>
  <trkpt lat="34.007615" lon="-5.016653">
   <ele>440.00</ele>
   <time>2014-03-29T15:27:37Z</time>
  </trkpt>
  <trkpt lat="34.007423" lon="-5.016707">
   <ele>440.00</ele>
   <time>2014-03-29T15:27:40Z</time>
  </trkpt>
  <trkpt lat="34.007161" lon="-5.016793">
   <ele>439.00</ele>
   <time>2014-03-29T15:27:45Z</time>
  </trkpt>
  <trkpt lat="34.006963" lon="-5.016903">
   <ele>440.00</ele>
   <time>2014-03-29T15:27:49Z</time>
  </trkpt>
  <trkpt lat="34.006736" lon="-5.016950">
   <ele>440.00</ele>
   <time>2014-03-29T15:27:53Z</time>
  </trkpt>
  <trkpt lat="34.006526" lon="-5.016998">
   <ele>440.00</ele>
   <time>2014-03-29T15:27:56Z</time>
  </trkpt>
  <trkpt lat="34.006135" lon="-5.017135">
   <ele>440.00</ele>
   <time>2014-03-29T15:28:01Z</time>
  </trkpt>
  <trkpt lat="34.005902" lon="-5.017216">
   <ele>440.00</ele>
   <time>2014-03-29T15:28:04Z</time>
  </trkpt>
  <trkpt lat="34.005641" lon="-5.017268">
   <ele>438.00</ele>
   <time>2014-03-29T15:28:07Z</time>
  </trkpt>
  <trkpt lat="34.005436" lon="-5.017317">
   <ele>439.00</ele>
   <time>2014-03-29T15:28:10Z</time>
  </trkpt>
  <trkpt lat="34.005266" lon="-5.017139">
   <ele>438.00</ele>
   <time>2014-03-29T15:28:14Z</time>
  </trkpt>
  <trkpt lat="34.005215" lon="-5.016876">
   <ele>439.00</ele>
   <time>2014-03-29T15:28:17Z</time>
  </trkpt>
  <trkpt lat="34.005180" lon="-5.016657">
   <ele>439.00</ele>
   <time>2014-03-29T15:28:20Z</time>
  </trkpt>
  <trkpt lat="34.005149" lon="-5.016436">
   <ele>443.00</ele>
   <time>2014-03-29T15:28:25Z</time>
  </trkpt>
  <trkpt lat="34.005120" lon="-5.016215">
   <ele>442.00</ele>
   <time>2014-03-29T15:28:29Z</time>
  </trkpt>
  <trkpt lat="34.005035" lon="-5.015870">
   <ele>444.00</ele>
   <time>2014-03-29T15:28:34Z</time>
  </trkpt>
  <trkpt lat="34.004888" lon="-5.015081">
   <ele>446.00</ele>
   <time>2014-03-29T15:28:43Z</time>
  </trkpt>
  <trkpt lat="34.004784" lon="-5.014736">
   <ele>446.00</ele>
   <time>2014-03-29T15:28:47Z</time>
  </trkpt>
  <trkpt lat="34.004716" lon="-5.014441">
   <ele>446.00</ele>
   <time>2014-03-29T15:28:51Z</time>
  </trkpt>
  <trkpt lat="34.004629" lon="-5.014054">
   <ele>447.00</ele>
   <time>2014-03-29T15:28:58Z</time>
  </trkpt>
  <trkpt lat="34.004546" lon="-5.013821">
   <ele>448.00</ele>
   <time>2014-03-29T15:29:03Z</time>
  </trkpt>
  <trkpt lat="34.004438" lon="-5.013616">
   <ele>446.00</ele>
   <time>2014-03-29T15:29:08Z</time>
  </trkpt>
  <trkpt lat="34.004402" lon="-5.013383">
   <ele>446.00</ele>
   <time>2014-03-29T15:29:12Z</time>
  </trkpt>
  <trkpt lat="34.004450" lon="-5.013136">
   <ele>445.00</ele>
   <time>2014-03-29T15:29:15Z</time>
  </trkpt>
  <trkpt lat="34.004569" lon="-5.012550">
   <ele>444.00</ele>
   <time>2014-03-29T15:29:22Z</time>
  </trkpt>
  <trkpt lat="34.004414" lon="-5.012384">
   <ele>444.00</ele>
   <time>2014-03-29T15:29:26Z</time>
  </trkpt>
  <trkpt lat="34.004142" lon="-5.012319">
   <ele>443.00</ele>
   <time>2014-03-29T15:29:31Z</time>
  </trkpt>
  <trkpt lat="34.003977" lon="-5.012211">
   <ele>443.00</ele>
   <time>2014-03-29T15:29:39Z</time>
  </trkpt>
  <trkpt lat="34.003678" lon="-5.012244">
   <ele>446.00</ele>
   <time>2014-03-29T15:29:45Z</time>
  </trkpt>
  <trkpt lat="34.003478" lon="-5.012277">
   <ele>449.00</ele>
   <time>2014-03-29T15:29:50Z</time>
  </trkpt>
  <trkpt lat="34.003270" lon="-5.012356">
   <ele>453.00</ele>
   <time>2014-03-29T15:29:54Z</time>
  </trkpt>
  <trkpt lat="34.003074" lon="-5.012415">
   <ele>453.00</ele>
   <time>2014-03-29T15:29:57Z</time>
  </trkpt>
  <trkpt lat="34.002871" lon="-5.012483">
   <ele>455.00</ele>
   <time>2014-03-29T15:30:01Z</time>
  </trkpt>
  <trkpt lat="34.002680" lon="-5.012545">
   <ele>458.00</ele>
   <time>2014-03-29T15:30:06Z</time>
  </trkpt>
  <trkpt lat="34.002506" lon="-5.012568">
   <ele>453.00</ele>
   <time>2014-03-29T15:30:21Z</time>
  </trkpt>
  <trkpt lat="34.002379" lon="-5.012336">
   <ele>450.00</ele>
   <time>2014-03-29T15:30:30Z</time>
  </trkpt>
  <trkpt lat="34.002324" lon="-5.012059">
   <ele>449.00</ele>
   <time>2014-03-29T15:30:33Z</time>
  </trkpt>
  <trkpt lat="34.002256" lon="-5.011785">
   <ele>449.00</ele>
   <time>2014-03-29T15:30:36Z</time>
  </trkpt>
  <trkpt lat="34.002151" lon="-5.011387">
   <ele>448.00</ele>
   <time>2014-03-29T15:30:41Z</time>
  </trkpt>
  <trkpt lat="34.002086" lon="-5.011135">
   <ele>447.00</ele>
   <time>2014-03-29T15:30:45Z</time>
  </trkpt>
  <trkpt lat="34.001930" lon="-5.011042">
   <ele>446.00</ele>
   <time>2014-03-29T15:30:52Z</time>
  </trkpt>
  <trkpt lat="34.001711" lon="-5.011144">
   <ele>445.00</ele>
   <time>2014-03-29T15:30:56Z</time>
  </trkpt>
  <trkpt lat="34.001496" lon="-5.011266">
   <ele>446.00</ele>
   <time>2014-03-29T15:30:59Z</time>
  </trkpt>
  <trkpt lat="34.001274" lon="-5.011435">
   <ele>444.00</ele>
   <time>2014-03-29T15:31:02Z</time>
  </trkpt>
  <trkpt lat="34.000966" lon="-5.011698">
   <ele>445.00</ele>
   <time>2014-03-29T15:31:06Z</time>
  </trkpt>
  <trkpt lat="33.999598" lon="-5.012905">
   <ele>454.00</ele>
   <time>2014-03-29T15:31:21Z</time>
  </trkpt>
  <trkpt lat="33.999402" lon="-5.013065">
   <ele>455.00</ele>
   <time>2014-03-29T15:31:23Z</time>
  </trkpt>
  <trkpt lat="33.999204" lon="-5.013206">
   <ele>456.00</ele>
   <time>2014-03-29T15:31:25Z</time>
  </trkpt>
  <trkpt lat="33.998997" lon="-5.013324">
   <ele>456.00</ele>
   <time>2014-03-29T15:31:27Z</time>
  </trkpt>
  <trkpt lat="33.998776" lon="-5.013410">
   <ele>457.00</ele>
   <time>2014-03-29T15:31:29Z</time>
  </trkpt>
  <trkpt lat="33.998550" lon="-5.013476">
   <ele>458.00</ele>
   <time>2014-03-29T15:31:31Z</time>
  </trkpt>
  <trkpt lat="33.997736" lon="-5.013690">
   <ele>458.00</ele>
   <time>2014-03-29T15:31:38Z</time>
  </trkpt>
  <trkpt lat="33.995838" lon="-5.014147">
   <ele>458.00</ele>
   <time>2014-03-29T15:31:53Z</time>
  </trkpt>
  <trkpt lat="33.993944" lon="-5.014621">
   <ele>462.00</ele>
   <time>2014-03-29T15:32:08Z</time>
  </trkpt>
  <trkpt lat="33.992316" lon="-5.015051">
   <ele>467.00</ele>
   <time>2014-03-29T15:32:24Z</time>
  </trkpt>
  <trkpt lat="33.992002" lon="-5.015125">
   <ele>468.00</ele>
   <time>2014-03-29T15:32:28Z</time>
  </trkpt>
  <trkpt lat="33.991514" lon="-5.015279">
   <ele>468.00</ele>
   <time>2014-03-29T15:32:35Z</time>
  </trkpt>
  <trkpt lat="33.991345" lon="-5.015370">
   <ele>467.00</ele>
   <time>2014-03-29T15:32:39Z</time>
  </trkpt>
  <trkpt lat="33.991212" lon="-5.015526">
   <ele>466.00</ele>
   <time>2014-03-29T15:32:47Z</time>
  </trkpt>
  <trkpt lat="33.991175" lon="-5.015774">
   <ele>464.00</ele>
   <time>2014-03-29T15:32:54Z</time>
  </trkpt>
  <trkpt lat="33.991210" lon="-5.016030">
   <ele>463.00</ele>
   <time>2014-03-29T15:32:57Z</time>
  </trkpt>
  <trkpt lat="33.991299" lon="-5.016429">
   <ele>463.00</ele>
   <time>2014-03-29T15:33:01Z</time>
  </trkpt>
  <trkpt lat="33.991345" lon="-5.016751">
   <ele>463.00</ele>
   <time>2014-03-29T15:33:04Z</time>
  </trkpt>
  <trkpt lat="33.991364" lon="-5.016973">
   <ele>462.00</ele>
   <time>2014-03-29T15:33:06Z</time>
  </trkpt>
  <trkpt lat="33.991379" lon="-5.017301">
   <ele>461.00</ele>
   <time>2014-03-29T15:33:09Z</time>
  </trkpt>
  <trkpt lat="33.991376" lon="-5.017697">
   <ele>459.00</ele>
   <time>2014-03-29T15:33:13Z</time>
  </trkpt>
  <trkpt lat="33.991362" lon="-5.017943">
   <ele>458.00</ele>
   <time>2014-03-29T15:33:16Z</time>
  </trkpt>
  <trkpt lat="33.991345" lon="-5.018210">
   <ele>458.00</ele>
   <time>2014-03-29T15:33:19Z</time>
  </trkpt>
  <trkpt lat="33.991324" lon="-5.018660">
   <ele>457.00</ele>
   <time>2014-03-29T15:33:24Z</time>
  </trkpt>
  <trkpt lat="33.991305" lon="-5.018877">
   <ele>456.00</ele>
   <time>2014-03-29T15:33:27Z</time>
  </trkpt>
  <trkpt lat="33.991254" lon="-5.019428">
   <ele>456.00</ele>
   <time>2014-03-29T15:33:38Z</time>
  </trkpt>
  <trkpt lat="33.991220" lon="-5.019678">
   <ele>456.00</ele>
   <time>2014-03-29T15:33:42Z</time>
  </trkpt>
  <trkpt lat="33.991202" lon="-5.019910">
   <ele>456.00</ele>
   <time>2014-03-29T15:33:45Z</time>
  </trkpt>
  <trkpt lat="33.991179" lon="-5.020141">
   <ele>457.00</ele>
   <time>2014-03-29T15:33:48Z</time>
  </trkpt>
  <trkpt lat="33.991148" lon="-5.020384">
   <ele>457.00</ele>
   <time>2014-03-29T15:33:52Z</time>
  </trkpt>
  <trkpt lat="33.991112" lon="-5.020683">
   <ele>458.00</ele>
   <time>2014-03-29T15:33:56Z</time>
  </trkpt>
  <trkpt lat="33.991083" lon="-5.021030">
   <ele>460.00</ele>
   <time>2014-03-29T15:34:00Z</time>
  </trkpt>
  <trkpt lat="33.991048" lon="-5.021257">
   <ele>460.00</ele>
   <time>2014-03-29T15:34:03Z</time>
  </trkpt>
  <trkpt lat="33.990917" lon="-5.021455">
   <ele>460.00</ele>
   <time>2014-03-29T15:34:06Z</time>
  </trkpt>
  <trkpt lat="33.990746" lon="-5.021568">
   <ele>461.00</ele>
   <time>2014-03-29T15:34:09Z</time>
  </trkpt>
  <trkpt lat="33.990559" lon="-5.021421">
   <ele>462.00</ele>
   <time>2014-03-29T15:34:13Z</time>
  </trkpt>
  <trkpt lat="33.990432" lon="-5.021204">
   <ele>462.00</ele>
   <time>2014-03-29T15:34:17Z</time>
  </trkpt>
  <trkpt lat="33.990233" lon="-5.021177">
   <ele>462.00</ele>
   <time>2014-03-29T15:34:20Z</time>
  </trkpt>
  <trkpt lat="33.988880" lon="-5.021140">
   <ele>468.00</ele>
   <time>2014-03-29T15:34:35Z</time>
  </trkpt>
  <trkpt lat="33.988311" lon="-5.021153">
   <ele>471.00</ele>
   <time>2014-03-29T15:34:41Z</time>
  </trkpt>
  <trkpt lat="33.987790" lon="-5.021167">
   <ele>474.00</ele>
   <time>2014-03-29T15:34:47Z</time>
  </trkpt>
  <trkpt lat="33.987561" lon="-5.021182">
   <ele>475.00</ele>
   <time>2014-03-29T15:34:50Z</time>
  </trkpt>
  <trkpt lat="33.987376" lon="-5.021201">
   <ele>476.00</ele>
   <time>2014-03-29T15:34:53Z</time>
  </trkpt>
  <trkpt lat="33.987275" lon="-5.021034">
   <ele>476.00</ele>
   <time>2014-03-29T15:34:58Z</time>
  </trkpt>
  <trkpt lat="33.987256" lon="-5.020812">
   <ele>475.00</ele>
   <time>2014-03-29T15:35:04Z</time>
  </trkpt>
  <trkpt lat="33.987349" lon="-5.020761">
   <ele>471.00</ele>
   <time>2014-03-29T15:35:20Z</time>
  </trkpt>
  <trkpt lat="33.987351" lon="-5.020761">
   <ele>471.00</ele>
   <time>2014-03-29T15:35:22Z</time>
  </trkpt>
 </trkseg>
</trk>
<trk>
 <name>GPS_20140330</name>
 <trkseg>
  <trkpt lat="33.987288" lon="-5.020753">
   <ele>475.00</ele>
   <time>2014-03-30T08:19:54Z</time>
  </trkpt>
  <trkpt lat="33.987287" lon="-5.020758">
   <ele>475.00</ele>
   <time>2014-03-30T08:20:10Z</time>
  </trkpt>
  <trkpt lat="33.987273" lon="-5.020980">
   <ele>474.00</ele>
   <time>2014-03-30T08:20:21Z</time>
  </trkpt>
  <trkpt lat="33.987345" lon="-5.021163">
   <ele>473.00</ele>
   <time>2014-03-30T08:20:32Z</time>
  </trkpt>
  <trkpt lat="33.987560" lon="-5.021160">
   <ele>472.00</ele>
   <time>2014-03-30T08:20:39Z</time>
  </trkpt>
  <trkpt lat="33.988504" lon="-5.021122">
   <ele>471.00</ele>
   <time>2014-03-30T08:20:55Z</time>
  </trkpt>
  <trkpt lat="33.988956" lon="-5.021101">
   <ele>470.00</ele>
   <time>2014-03-30T08:21:01Z</time>
  </trkpt>
  <trkpt lat="33.989175" lon="-5.021102">
   <ele>469.00</ele>
   <time>2014-03-30T08:21:04Z</time>
  </trkpt>
  <trkpt lat="33.990559" lon="-5.021137">
   <ele>462.00</ele>
   <time>2014-03-30T08:21:20Z</time>
  </trkpt>
  <trkpt lat="33.990778" lon="-5.021134">
   <ele>460.00</ele>
   <time>2014-03-30T08:21:23Z</time>
  </trkpt>
  <trkpt lat="33.990965" lon="-5.021077">
   <ele>458.00</ele>
   <time>2014-03-30T08:21:27Z</time>
  </trkpt>
  <trkpt lat="33.991042" lon="-5.020881">
   <ele>457.00</ele>
   <time>2014-03-30T08:21:31Z</time>
  </trkpt>
  <trkpt lat="33.991071" lon="-5.020639">
   <ele>457.00</ele>
   <time>2014-03-30T08:21:34Z</time>
  </trkpt>
  <trkpt lat="33.991129" lon="-5.020080">
   <ele>455.00</ele>
   <time>2014-03-30T08:21:40Z</time>
  </trkpt>
  <trkpt lat="33.991170" lon="-5.019649">
   <ele>455.00</ele>
   <time>2014-03-30T08:21:44Z</time>
  </trkpt>
  <trkpt lat="33.991239" lon="-5.019081">
   <ele>455.00</ele>
   <time>2014-03-30T08:21:49Z</time>
  </trkpt>
  <trkpt lat="33.991279" lon="-5.018588">
   <ele>456.00</ele>
   <time>2014-03-30T08:21:53Z</time>
  </trkpt>
  <trkpt lat="33.991326" lon="-5.017691">
   <ele>458.00</ele>
   <time>2014-03-30T08:22:00Z</time>
  </trkpt>
  <trkpt lat="33.991326" lon="-5.017432">
   <ele>458.00</ele>
   <time>2014-03-30T08:22:02Z</time>
  </trkpt>
  <trkpt lat="33.991314" lon="-5.017176">
   <ele>459.00</ele>
   <time>2014-03-30T08:22:04Z</time>
  </trkpt>
  <trkpt lat="33.991281" lon="-5.016798">
   <ele>460.00</ele>
   <time>2014-03-30T08:22:07Z</time>
  </trkpt>
  <trkpt lat="33.991232" lon="-5.016433">
   <ele>462.00</ele>
   <time>2014-03-30T08:22:10Z</time>
  </trkpt>
  <trkpt lat="33.991185" lon="-5.016208">
   <ele>463.00</ele>
   <time>2014-03-30T08:22:12Z</time>
  </trkpt>
  <trkpt lat="33.991076" lon="-5.015918">
   <ele>464.00</ele>
   <time>2014-03-30T08:22:15Z</time>
  </trkpt>
  <trkpt lat="33.990922" lon="-5.015689">
   <ele>465.00</ele>
   <time>2014-03-30T08:22:18Z</time>
  </trkpt>
  <trkpt lat="33.990801" lon="-5.015451">
   <ele>466.00</ele>
   <time>2014-03-30T08:22:21Z</time>
  </trkpt>
  <trkpt lat="33.990699" lon="-5.015044">
   <ele>468.00</ele>
   <time>2014-03-30T08:22:25Z</time>
  </trkpt>
  <trkpt lat="33.990620" lon="-5.014830">
   <ele>468.00</ele>
   <time>2014-03-30T08:22:27Z</time>
  </trkpt>
  <trkpt lat="33.990512" lon="-5.014624">
   <ele>469.00</ele>
   <time>2014-03-30T08:22:29Z</time>
  </trkpt>
  <trkpt lat="33.990370" lon="-5.014440">
   <ele>470.00</ele>
   <time>2014-03-30T08:22:31Z</time>
  </trkpt>
  <trkpt lat="33.990212" lon="-5.014274">
   <ele>471.00</ele>
   <time>2014-03-30T08:22:33Z</time>
  </trkpt>
  <trkpt lat="33.989981" lon="-5.014035">
   <ele>472.00</ele>
   <time>2014-03-30T08:22:36Z</time>
  </trkpt>
  <trkpt lat="33.989843" lon="-5.013865">
   <ele>473.00</ele>
   <time>2014-03-30T08:22:38Z</time>
  </trkpt>
  <trkpt lat="33.989641" lon="-5.013591">
   <ele>473.00</ele>
   <time>2014-03-30T08:22:41Z</time>
  </trkpt>
  <trkpt lat="33.989513" lon="-5.013386">
   <ele>473.00</ele>
   <time>2014-03-30T08:22:43Z</time>
  </trkpt>
  <trkpt lat="33.989094" lon="-5.012670">
   <ele>473.00</ele>
   <time>2014-03-30T08:22:50Z</time>
  </trkpt>
  <trkpt lat="33.988989" lon="-5.012456">
   <ele>474.00</ele>
   <time>2014-03-30T08:22:52Z</time>
  </trkpt>
  <trkpt lat="33.988895" lon="-5.012222">
   <ele>474.00</ele>
   <time>2014-03-30T08:22:54Z</time>
  </trkpt>
  <trkpt lat="33.988821" lon="-5.011971">
   <ele>474.00</ele>
   <time>2014-03-30T08:22:56Z</time>
  </trkpt>
  <trkpt lat="33.988761" lon="-5.011702">
   <ele>474.00</ele>
   <time>2014-03-30T08:22:58Z</time>
  </trkpt>
  <trkpt lat="33.988716" lon="-5.011421">
   <ele>475.00</ele>
   <time>2014-03-30T08:23:00Z</time>
  </trkpt>
  <trkpt lat="33.988686" lon="-5.011138">
   <ele>474.00</ele>
   <time>2014-03-30T08:23:02Z</time>
  </trkpt>
  <trkpt lat="33.988668" lon="-5.010859">
   <ele>474.00</ele>
   <time>2014-03-30T08:23:04Z</time>
  </trkpt>
  <trkpt lat="33.988637" lon="-5.009391">
   <ele>472.00</ele>
   <time>2014-03-30T08:23:15Z</time>
  </trkpt>
  <trkpt lat="33.988593" lon="-5.007217">
   <ele>467.00</ele>
   <time>2014-03-30T08:23:30Z</time>
  </trkpt>
  <trkpt lat="33.988573" lon="-5.006631">
   <ele>466.00</ele>
   <time>2014-03-30T08:23:34Z</time>
  </trkpt>
  <trkpt lat="33.988557" lon="-5.006190">
   <ele>466.00</ele>
   <time>2014-03-30T08:23:37Z</time>
  </trkpt>
  <trkpt lat="33.988525" lon="-5.004632">
   <ele>466.00</ele>
   <time>2014-03-30T08:23:48Z</time>
  </trkpt>
  <trkpt lat="33.988487" lon="-5.004397">
   <ele>466.00</ele>
   <time>2014-03-30T08:23:50Z</time>
  </trkpt>
  <trkpt lat="33.988403" lon="-5.003966">
   <ele>466.00</ele>
   <time>2014-03-30T08:23:54Z</time>
  </trkpt>
  <trkpt lat="33.988284" lon="-5.003713">
   <ele>467.00</ele>
   <time>2014-03-30T08:23:57Z</time>
  </trkpt>
  <trkpt lat="33.988220" lon="-5.003483">
   <ele>468.00</ele>
   <time>2014-03-30T08:24:00Z</time>
  </trkpt>
  <trkpt lat="33.988321" lon="-5.003279">
   <ele>468.00</ele>
   <time>2014-03-30T08:24:03Z</time>
  </trkpt>
  <trkpt lat="33.988400" lon="-5.003024">
   <ele>468.00</ele>
   <time>2014-03-30T08:24:06Z</time>
  </trkpt>
  <trkpt lat="33.988440" lon="-5.002606">
   <ele>468.00</ele>
   <time>2014-03-30T08:24:10Z</time>
  </trkpt>
  <trkpt lat="33.988453" lon="-5.002384">
   <ele>469.00</ele>
   <time>2014-03-30T08:24:12Z</time>
  </trkpt>
  <trkpt lat="33.988443" lon="-5.002165">
   <ele>469.00</ele>
   <time>2014-03-30T08:24:14Z</time>
  </trkpt>
  <trkpt lat="33.988350" lon="-5.001864">
   <ele>470.00</ele>
   <time>2014-03-30T08:24:17Z</time>
  </trkpt>
  <trkpt lat="33.988152" lon="-5.001424">
   <ele>471.00</ele>
   <time>2014-03-30T08:24:23Z</time>
  </trkpt>
  <trkpt lat="33.987999" lon="-5.001328">
   <ele>472.00</ele>
   <time>2014-03-30T08:24:28Z</time>
  </trkpt>
  <trkpt lat="33.987960" lon="-5.001333">
   <ele>472.00</ele>
   <time>2014-03-30T08:24:44Z</time>
  </trkpt>
  <trkpt lat="33.987952" lon="-5.001287">
   <ele>474.00</ele>
   <time>2014-03-30T08:25:00Z</time>
  </trkpt>
  <trkpt lat="33.987941" lon="-5.001323">
   <ele>478.00</ele>
   <time>2014-03-30T08:25:15Z</time>
  </trkpt>
  <trkpt lat="33.987942" lon="-5.001356">
   <ele>479.00</ele>
   <time>2014-03-30T08:25:32Z</time>
  </trkpt>
  <trkpt lat="33.987950" lon="-5.001376">
   <ele>478.00</ele>
   <time>2014-03-30T08:25:47Z</time>
  </trkpt>
  <trkpt lat="33.987964" lon="-5.001394">
   <ele>477.00</ele>
   <time>2014-03-30T08:26:03Z</time>
  </trkpt>
  <trkpt lat="33.987967" lon="-5.001395">
   <ele>477.00</ele>
   <time>2014-03-30T08:26:18Z</time>
  </trkpt>
  <trkpt lat="33.987972" lon="-5.001387">
   <ele>478.00</ele>
   <time>2014-03-30T08:26:33Z</time>
  </trkpt>
  <trkpt lat="33.987961" lon="-5.001392">
   <ele>479.00</ele>
   <time>2014-03-30T08:26:49Z</time>
  </trkpt>
  <trkpt lat="33.987967" lon="-5.001253">
   <ele>476.00</ele>
   <time>2014-03-30T08:27:05Z</time>
  </trkpt>
  <trkpt lat="33.987954" lon="-5.001204">
   <ele>479.00</ele>
   <time>2014-03-30T08:27:20Z</time>
  </trkpt>
  <trkpt lat="33.987955" lon="-5.001186">
   <ele>478.00</ele>
   <time>2014-03-30T08:27:35Z</time>
  </trkpt>
  <trkpt lat="33.987961" lon="-5.001188">
   <ele>475.00</ele>
   <time>2014-03-30T08:27:51Z</time>
  </trkpt>
  <trkpt lat="33.987961" lon="-5.001179">
   <ele>476.00</ele>
   <time>2014-03-30T08:28:06Z</time>
  </trkpt>
  <trkpt lat="33.987960" lon="-5.001166">
   <ele>477.00</ele>
   <time>2014-03-30T08:28:21Z</time>
  </trkpt>
  <trkpt lat="33.987960" lon="-5.001165">
   <ele>477.00</ele>
   <time>2014-03-30T08:28:37Z</time>
  </trkpt>
  <trkpt lat="33.987962" lon="-5.001167">
   <ele>476.00</ele>
   <time>2014-03-30T08:28:52Z</time>
  </trkpt>
  <trkpt lat="33.987962" lon="-5.001175">
   <ele>475.00</ele>
   <time>2014-03-30T08:29:07Z</time>
  </trkpt>
  <trkpt lat="33.987963" lon="-5.001183">
   <ele>475.00</ele>
   <time>2014-03-30T08:29:23Z</time>
  </trkpt>
  <trkpt lat="33.987964" lon="-5.001181">
   <ele>475.00</ele>
   <time>2014-03-30T08:29:38Z</time>
  </trkpt>
  <trkpt lat="33.987964" lon="-5.001180">
   <ele>476.00</ele>
   <time>2014-03-30T08:29:53Z</time>
  </trkpt>
  <trkpt lat="33.987965" lon="-5.001182">
   <ele>476.00</ele>
   <time>2014-03-30T08:30:09Z</time>
  </trkpt>
  <trkpt lat="33.987966" lon="-5.001177">
   <ele>477.00</ele>
   <time>2014-03-30T08:30:24Z</time>
  </trkpt>
  <trkpt lat="33.987962" lon="-5.001156">
   <ele>479.00</ele>
   <time>2014-03-30T08:30:40Z</time>
  </trkpt>
  <trkpt lat="33.987950" lon="-5.001087">
   <ele>481.00</ele>
   <time>2014-03-30T08:30:55Z</time>
  </trkpt>
  <trkpt lat="33.987951" lon="-5.001077">
   <ele>480.00</ele>
   <time>2014-03-30T08:31:10Z</time>
  </trkpt>
  <trkpt lat="33.987959" lon="-5.001117">
   <ele>479.00</ele>
   <time>2014-03-30T08:31:26Z</time>
  </trkpt>
  <trkpt lat="33.988091" lon="-5.000971">
   <ele>478.00</ele>
   <time>2014-03-30T08:31:34Z</time>
  </trkpt>
  <trkpt lat="33.988205" lon="-5.000792">
   <ele>477.00</ele>
   <time>2014-03-30T08:31:39Z</time>
  </trkpt>
  <trkpt lat="33.988355" lon="-5.000626">
   <ele>475.00</ele>
   <time>2014-03-30T08:31:45Z</time>
  </trkpt>
  <trkpt lat="33.988398" lon="-5.000546">
   <ele>476.00</ele>
   <time>2014-03-30T08:32:01Z</time>
  </trkpt>
  <trkpt lat="33.988414" lon="-5.000279">
   <ele>476.00</ele>
   <time>2014-03-30T08:32:06Z</time>
  </trkpt>
  <trkpt lat="33.988407" lon="-5.000009">
   <ele>476.00</ele>
   <time>2014-03-30T08:32:09Z</time>
  </trkpt>
  <trkpt lat="33.988349" lon="-4.998262">
   <ele>477.00</ele>
   <time>2014-03-30T08:32:24Z</time>
  </trkpt>
  <trkpt lat="33.988340" lon="-4.997945">
   <ele>477.00</ele>
   <time>2014-03-30T08:32:28Z</time>
  </trkpt>
  <trkpt lat="33.988345" lon="-4.997695">
   <ele>476.00</ele>
   <time>2014-03-30T08:32:33Z</time>
  </trkpt>
  <trkpt lat="33.988354" lon="-4.997422">
   <ele>475.00</ele>
   <time>2014-03-30T08:32:40Z</time>
  </trkpt>
  <trkpt lat="33.988279" lon="-4.997173">
   <ele>475.00</ele>
   <time>2014-03-30T08:32:44Z</time>
  </trkpt>
  <trkpt lat="33.988240" lon="-4.996930">
   <ele>475.00</ele>
   <time>2014-03-30T08:32:47Z</time>
  </trkpt>
  <trkpt lat="33.988423" lon="-4.996348">
   <ele>473.00</ele>
   <time>2014-03-30T08:32:53Z</time>
  </trkpt>
  <trkpt lat="33.988539" lon="-4.995846">
   <ele>472.00</ele>
   <time>2014-03-30T08:32:57Z</time>
  </trkpt>
  <trkpt lat="33.988626" lon="-4.995400">
   <ele>472.00</ele>
   <time>2014-03-30T08:33:00Z</time>
  </trkpt>
  <trkpt lat="33.988867" lon="-4.994129">
   <ele>472.00</ele>
   <time>2014-03-30T08:33:09Z</time>
  </trkpt>
  <trkpt lat="33.988933" lon="-4.993854">
   <ele>472.00</ele>
   <time>2014-03-30T08:33:11Z</time>
  </trkpt>
  <trkpt lat="33.989014" lon="-4.993580">
   <ele>472.00</ele>
   <time>2014-03-30T08:33:13Z</time>
  </trkpt>
  <trkpt lat="33.989110" lon="-4.993307">
   <ele>472.00</ele>
   <time>2014-03-30T08:33:15Z</time>
  </trkpt>
  <trkpt lat="33.989220" lon="-4.993041">
   <ele>472.00</ele>
   <time>2014-03-30T08:33:17Z</time>
  </trkpt>
  <trkpt lat="33.989341" lon="-4.992780">
   <ele>472.00</ele>
   <time>2014-03-30T08:33:19Z</time>
  </trkpt>
  <trkpt lat="33.989475" lon="-4.992520">
   <ele>472.00</ele>
   <time>2014-03-30T08:33:21Z</time>
  </trkpt>
  <trkpt lat="33.989626" lon="-4.992262">
   <ele>471.00</ele>
   <time>2014-03-30T08:33:23Z</time>
  </trkpt>
  <trkpt lat="33.989788" lon="-4.992016">
   <ele>471.00</ele>
   <time>2014-03-30T08:33:25Z</time>
  </trkpt>
  <trkpt lat="33.989966" lon="-4.991769">
   <ele>471.00</ele>
   <time>2014-03-30T08:33:27Z</time>
  </trkpt>
  <trkpt lat="33.990158" lon="-4.991529">
   <ele>470.00</ele>
   <time>2014-03-30T08:33:29Z</time>
  </trkpt>
  <trkpt lat="33.990755" lon="-4.990855">
   <ele>469.00</ele>
   <time>2014-03-30T08:33:35Z</time>
  </trkpt>
  <trkpt lat="33.991058" lon="-4.990532">
   <ele>468.00</ele>
   <time>2014-03-30T08:33:38Z</time>
  </trkpt>
  <trkpt lat="33.991361" lon="-4.990216">
   <ele>467.00</ele>
   <time>2014-03-30T08:33:41Z</time>
  </trkpt>
  <trkpt lat="33.992781" lon="-4.988596">
   <ele>467.00</ele>
   <time>2014-03-30T08:33:56Z</time>
  </trkpt>
  <trkpt lat="33.993936" lon="-4.987280">
   <ele>464.00</ele>
   <time>2014-03-30T08:34:10Z</time>
  </trkpt>
  <trkpt lat="33.994070" lon="-4.987125">
   <ele>464.00</ele>
   <time>2014-03-30T08:34:12Z</time>
  </trkpt>
  <trkpt lat="33.994602" lon="-4.986533">
   <ele>464.00</ele>
   <time>2014-03-30T08:34:19Z</time>
  </trkpt>
  <trkpt lat="33.994854" lon="-4.986220">
   <ele>464.00</ele>
   <time>2014-03-30T08:34:22Z</time>
  </trkpt>
  <trkpt lat="33.995014" lon="-4.985994">
   <ele>464.00</ele>
   <time>2014-03-30T08:34:24Z</time>
  </trkpt>
  <trkpt lat="33.995334" lon="-4.985543">
   <ele>465.00</ele>
   <time>2014-03-30T08:34:28Z</time>
  </trkpt>
  <trkpt lat="33.995911" lon="-4.984749">
   <ele>466.00</ele>
   <time>2014-03-30T08:34:35Z</time>
  </trkpt>
  <trkpt lat="33.997136" lon="-4.983030">
   <ele>462.00</ele>
   <time>2014-03-30T08:34:50Z</time>
  </trkpt>
  <trkpt lat="33.998398" lon="-4.981270">
   <ele>456.00</ele>
   <time>2014-03-30T08:35:05Z</time>
  </trkpt>
  <trkpt lat="33.999497" lon="-4.979723">
   <ele>458.00</ele>
   <time>2014-03-30T08:35:20Z</time>
  </trkpt>
  <trkpt lat="33.999649" lon="-4.979475">
   <ele>459.00</ele>
   <time>2014-03-30T08:35:23Z</time>
  </trkpt>
  <trkpt lat="33.999805" lon="-4.979156">
   <ele>460.00</ele>
   <time>2014-03-30T08:35:27Z</time>
  </trkpt>
  <trkpt lat="33.999971" lon="-4.978911">
   <ele>462.00</ele>
   <time>2014-03-30T08:35:30Z</time>
  </trkpt>
  <trkpt lat="34.000088" lon="-4.978715">
   <ele>463.00</ele>
   <time>2014-03-30T08:35:32Z</time>
  </trkpt>
  <trkpt lat="34.001233" lon="-4.976619">
   <ele>470.00</ele>
   <time>2014-03-30T08:35:48Z</time>
  </trkpt>
  <trkpt lat="34.002193" lon="-4.974867">
   <ele>474.00</ele>
   <time>2014-03-30T08:36:03Z</time>
  </trkpt>
  <trkpt lat="34.002457" lon="-4.974367">
   <ele>475.00</ele>
   <time>2014-03-30T08:36:09Z</time>
  </trkpt>
  <trkpt lat="34.002513" lon="-4.974114">
   <ele>476.00</ele>
   <time>2014-03-30T08:36:12Z</time>
  </trkpt>
  <trkpt lat="34.002443" lon="-4.973840">
   <ele>476.00</ele>
   <time>2014-03-30T08:36:15Z</time>
  </trkpt>
  <trkpt lat="34.002283" lon="-4.973587">
   <ele>477.00</ele>
   <time>2014-03-30T08:36:18Z</time>
  </trkpt>
  <trkpt lat="34.002056" lon="-4.973410">
   <ele>477.00</ele>
   <time>2014-03-30T08:36:21Z</time>
  </trkpt>
  <trkpt lat="34.000422" lon="-4.972208">
   <ele>478.00</ele>
   <time>2014-03-30T08:36:37Z</time>
  </trkpt>
  <trkpt lat="33.998616" lon="-4.970835">
   <ele>480.00</ele>
   <time>2014-03-30T08:36:52Z</time>
  </trkpt>
  <trkpt lat="33.996974" lon="-4.969537">
   <ele>483.00</ele>
   <time>2014-03-30T08:37:06Z</time>
  </trkpt>
  <trkpt lat="33.996511" lon="-4.969140">
   <ele>484.00</ele>
   <time>2014-03-30T08:37:10Z</time>
  </trkpt>
  <trkpt lat="33.995830" lon="-4.968507">
   <ele>485.00</ele>
   <time>2014-03-30T08:37:16Z</time>
  </trkpt>
  <trkpt lat="33.995032" lon="-4.967752">
   <ele>485.00</ele>
   <time>2014-03-30T08:37:23Z</time>
  </trkpt>
  <trkpt lat="33.993301" lon="-4.966187">
   <ele>486.00</ele>
   <time>2014-03-30T08:37:38Z</time>
  </trkpt>
  <trkpt lat="33.991680" lon="-4.964687">
   <ele>486.00</ele>
   <time>2014-03-30T08:37:53Z</time>
  </trkpt>
  <trkpt lat="33.991414" lon="-4.964457">
   <ele>486.00</ele>
   <time>2014-03-30T08:37:56Z</time>
  </trkpt>
  <trkpt lat="33.991248" lon="-4.964363">
   <ele>486.00</ele>
   <time>2014-03-30T08:37:58Z</time>
  </trkpt>
  <trkpt lat="33.991013" lon="-4.964282">
   <ele>487.00</ele>
   <time>2014-03-30T08:38:01Z</time>
  </trkpt>
  <trkpt lat="33.990866" lon="-4.964043">
   <ele>487.00</ele>
   <time>2014-03-30T08:38:04Z</time>
  </trkpt>
  <trkpt lat="33.990763" lon="-4.963850">
   <ele>488.00</ele>
   <time>2014-03-30T08:38:06Z</time>
  </trkpt>
  <trkpt lat="33.990607" lon="-4.963686">
   <ele>488.00</ele>
   <time>2014-03-30T08:38:08Z</time>
  </trkpt>
  <trkpt lat="33.988867" lon="-4.962067">
   <ele>493.00</ele>
   <time>2014-03-30T08:38:24Z</time>
  </trkpt>
  <trkpt lat="33.986881" lon="-4.960227">
   <ele>498.00</ele>
   <time>2014-03-30T08:38:39Z</time>
  </trkpt>
  <trkpt lat="33.984894" lon="-4.958385">
   <ele>503.00</ele>
   <time>2014-03-30T08:38:54Z</time>
  </trkpt>
  <trkpt lat="33.982746" lon="-4.956385">
   <ele>507.00</ele>
   <time>2014-03-30T08:39:10Z</time>
  </trkpt>
  <trkpt lat="33.980710" lon="-4.954502">
   <ele>511.00</ele>
   <time>2014-03-30T08:39:25Z</time>
  </trkpt>
  <trkpt lat="33.979275" lon="-4.953167">
   <ele>514.00</ele>
   <time>2014-03-30T08:39:36Z</time>
  </trkpt>
  <trkpt lat="33.978624" lon="-4.952548">
   <ele>515.00</ele>
   <time>2014-03-30T08:39:41Z</time>
  </trkpt>
  <trkpt lat="33.976555" lon="-4.950668">
   <ele>519.00</ele>
   <time>2014-03-30T08:39:56Z</time>
  </trkpt>
  <trkpt lat="33.974879" lon="-4.949136">
   <ele>524.00</ele>
   <time>2014-03-30T08:40:09Z</time>
  </trkpt>
  <trkpt lat="33.974026" lon="-4.948423">
   <ele>527.00</ele>
   <time>2014-03-30T08:40:16Z</time>
  </trkpt>
  <trkpt lat="33.973782" lon="-4.948166">
   <ele>528.00</ele>
   <time>2014-03-30T08:40:18Z</time>
  </trkpt>
  <trkpt lat="33.973526" lon="-4.947895">
   <ele>529.00</ele>
   <time>2014-03-30T08:40:20Z</time>
  </trkpt>
  <trkpt lat="33.973096" lon="-4.947488">
   <ele>531.00</ele>
   <time>2014-03-30T08:40:23Z</time>
  </trkpt>
  <trkpt lat="33.970711" lon="-4.945295">
   <ele>536.00</ele>
   <time>2014-03-30T08:40:38Z</time>
  </trkpt>
  <trkpt lat="33.968034" lon="-4.942811">
   <ele>540.00</ele>
   <time>2014-03-30T08:40:54Z</time>
  </trkpt>
  <trkpt lat="33.965452" lon="-4.940447">
   <ele>547.00</ele>
   <time>2014-03-30T08:41:09Z</time>
  </trkpt>
  <trkpt lat="33.962980" lon="-4.938160">
   <ele>554.00</ele>
   <time>2014-03-30T08:41:24Z</time>
  </trkpt>
  <trkpt lat="33.960959" lon="-4.936284">
   <ele>557.00</ele>
   <time>2014-03-30T08:41:39Z</time>
  </trkpt>
  <trkpt lat="33.960242" lon="-4.935656">
   <ele>558.00</ele>
   <time>2014-03-30T08:41:46Z</time>
  </trkpt>
  <trkpt lat="33.960052" lon="-4.935544">
   <ele>558.00</ele>
   <time>2014-03-30T08:41:48Z</time>
  </trkpt>
  <trkpt lat="33.959870" lon="-4.935452">
   <ele>558.00</ele>
   <time>2014-03-30T08:41:50Z</time>
  </trkpt>
  <trkpt lat="33.959712" lon="-4.935291">
   <ele>558.00</ele>
   <time>2014-03-30T08:41:52Z</time>
  </trkpt>
  <trkpt lat="33.959552" lon="-4.935067">
   <ele>559.00</ele>
   <time>2014-03-30T08:41:54Z</time>
  </trkpt>
  <trkpt lat="33.959347" lon="-4.934838">
   <ele>559.00</ele>
   <time>2014-03-30T08:41:56Z</time>
  </trkpt>
  <trkpt lat="33.959003" lon="-4.934508">
   <ele>560.00</ele>
   <time>2014-03-30T08:41:59Z</time>
  </trkpt>
  <trkpt lat="33.956848" lon="-4.932521">
   <ele>566.00</ele>
   <time>2014-03-30T08:42:14Z</time>
  </trkpt>
  <trkpt lat="33.954289" lon="-4.930114">
   <ele>573.00</ele>
   <time>2014-03-30T08:42:29Z</time>
  </trkpt>
  <trkpt lat="33.953410" lon="-4.929327">
   <ele>577.00</ele>
   <time>2014-03-30T08:42:34Z</time>
  </trkpt>
  <trkpt lat="33.952203" lon="-4.928233">
   <ele>580.00</ele>
   <time>2014-03-30T08:42:41Z</time>
  </trkpt>
  <trkpt lat="33.950507" lon="-4.926683">
   <ele>582.00</ele>
   <time>2014-03-30T08:42:51Z</time>
  </trkpt>
  <trkpt lat="33.949967" lon="-4.926243">
   <ele>582.00</ele>
   <time>2014-03-30T08:42:54Z</time>
  </trkpt>
  <trkpt lat="33.947093" lon="-4.924173">
   <ele>587.00</ele>
   <time>2014-03-30T08:43:09Z</time>
  </trkpt>
  <trkpt lat="33.944918" lon="-4.922605">
   <ele>591.00</ele>
   <time>2014-03-30T08:43:21Z</time>
  </trkpt>
  <trkpt lat="33.944296" lon="-4.922134">
   <ele>591.00</ele>
   <time>2014-03-30T08:43:25Z</time>
  </trkpt>
  <trkpt lat="33.941883" lon="-4.920449">
   <ele>600.00</ele>
   <time>2014-03-30T08:43:41Z</time>
  </trkpt>
  <trkpt lat="33.941641" lon="-4.920256">
   <ele>601.00</ele>
   <time>2014-03-30T08:43:43Z</time>
  </trkpt>
  <trkpt lat="33.941352" lon="-4.920022">
   <ele>603.00</ele>
   <time>2014-03-30T08:43:46Z</time>
  </trkpt>
  <trkpt lat="33.941176" lon="-4.919955">
   <ele>603.00</ele>
   <time>2014-03-30T08:43:48Z</time>
  </trkpt>
  <trkpt lat="33.940934" lon="-4.919829">
   <ele>604.00</ele>
   <time>2014-03-30T08:43:51Z</time>
  </trkpt>
  <trkpt lat="33.940821" lon="-4.919631">
   <ele>605.00</ele>
   <time>2014-03-30T08:43:53Z</time>
  </trkpt>
  <trkpt lat="33.940693" lon="-4.919407">
   <ele>605.00</ele>
   <time>2014-03-30T08:43:55Z</time>
  </trkpt>
  <trkpt lat="33.940528" lon="-4.919183">
   <ele>605.00</ele>
   <time>2014-03-30T08:43:57Z</time>
  </trkpt>
  <trkpt lat="33.939627" lon="-4.917991">
   <ele>605.00</ele>
   <time>2014-03-30T08:44:06Z</time>
  </trkpt>
  <trkpt lat="33.939049" lon="-4.917175">
   <ele>604.00</ele>
   <time>2014-03-30T08:44:11Z</time>
  </trkpt>
  <trkpt lat="33.938540" lon="-4.916449">
   <ele>604.00</ele>
   <time>2014-03-30T08:44:15Z</time>
  </trkpt>
  <trkpt lat="33.936772" lon="-4.914090">
   <ele>609.00</ele>
   <time>2014-03-30T08:44:30Z</time>
  </trkpt>
  <trkpt lat="33.936518" lon="-4.913762">
   <ele>611.00</ele>
   <time>2014-03-30T08:44:33Z</time>
  </trkpt>
  <trkpt lat="33.936303" lon="-4.913608">
   <ele>612.00</ele>
   <time>2014-03-30T08:44:36Z</time>
  </trkpt>
  <trkpt lat="33.936093" lon="-4.913716">
   <ele>612.00</ele>
   <time>2014-03-30T08:44:39Z</time>
  </trkpt>
  <trkpt lat="33.935983" lon="-4.913904">
   <ele>611.00</ele>
   <time>2014-03-30T08:44:41Z</time>
  </trkpt>
  <trkpt lat="33.935045" lon="-4.915566">
   <ele>612.00</ele>
   <time>2014-03-30T08:44:56Z</time>
  </trkpt>
  <trkpt lat="33.934805" lon="-4.915990">
   <ele>614.00</ele>
   <time>2014-03-30T08:45:01Z</time>
  </trkpt>
  <trkpt lat="33.934800" lon="-4.916089">
   <ele>614.00</ele>
   <time>2014-03-30T08:45:16Z</time>
  </trkpt>
  <trkpt lat="33.934889" lon="-4.916123">
   <ele>620.00</ele>
   <time>2014-03-30T08:45:32Z</time>
  </trkpt>
  <trkpt lat="33.934723" lon="-4.916283">
   <ele>616.00</ele>
   <time>2014-03-30T08:45:40Z</time>
  </trkpt>
  <trkpt lat="33.933923" lon="-4.917497">
   <ele>618.00</ele>
   <time>2014-03-30T08:45:56Z</time>
  </trkpt>
  <trkpt lat="33.933588" lon="-4.918020">
   <ele>619.00</ele>
   <time>2014-03-30T08:46:01Z</time>
  </trkpt>
  <trkpt lat="33.933421" lon="-4.918229">
   <ele>620.00</ele>
   <time>2014-03-30T08:46:03Z</time>
  </trkpt>
  <trkpt lat="33.933215" lon="-4.918399">
   <ele>620.00</ele>
   <time>2014-03-30T08:46:05Z</time>
  </trkpt>
  <trkpt lat="33.932986" lon="-4.918525">
   <ele>621.00</ele>
   <time>2014-03-30T08:46:07Z</time>
  </trkpt>
  <trkpt lat="33.932744" lon="-4.918611">
   <ele>621.00</ele>
   <time>2014-03-30T08:46:09Z</time>
  </trkpt>
  <trkpt lat="33.932496" lon="-4.918647">
   <ele>622.00</ele>
   <time>2014-03-30T08:46:11Z</time>
  </trkpt>
  <trkpt lat="33.932248" lon="-4.918637">
   <ele>622.00</ele>
   <time>2014-03-30T08:46:13Z</time>
  </trkpt>
  <trkpt lat="33.931994" lon="-4.918585">
   <ele>623.00</ele>
   <time>2014-03-30T08:46:15Z</time>
  </trkpt>
  <trkpt lat="33.930183" lon="-4.918131">
   <ele>625.00</ele>
   <time>2014-03-30T08:46:29Z</time>
  </trkpt>
  <trkpt lat="33.929945" lon="-4.918127">
   <ele>624.00</ele>
   <time>2014-03-30T08:46:31Z</time>
  </trkpt>
  <trkpt lat="33.929723" lon="-4.918217">
   <ele>623.00</ele>
   <time>2014-03-30T08:46:33Z</time>
  </trkpt>
  <trkpt lat="33.929557" lon="-4.918407">
   <ele>621.00</ele>
   <time>2014-03-30T08:46:35Z</time>
  </trkpt>
  <trkpt lat="33.929483" lon="-4.918676">
   <ele>619.00</ele>
   <time>2014-03-30T08:46:37Z</time>
  </trkpt>
  <trkpt lat="33.929542" lon="-4.918998">
   <ele>618.00</ele>
   <time>2014-03-30T08:46:39Z</time>
  </trkpt>
  <trkpt lat="33.929681" lon="-4.919234">
   <ele>616.00</ele>
   <time>2014-03-30T08:46:41Z</time>
  </trkpt>
  <trkpt lat="33.929885" lon="-4.919379">
   <ele>615.00</ele>
   <time>2014-03-30T08:46:43Z</time>
  </trkpt>
  <trkpt lat="33.930121" lon="-4.919387">
   <ele>613.00</ele>
   <time>2014-03-30T08:46:45Z</time>
  </trkpt>
  <trkpt lat="33.930341" lon="-4.919257">
   <ele>612.00</ele>
   <time>2014-03-30T08:46:47Z</time>
  </trkpt>
  <trkpt lat="33.930501" lon="-4.919023">
   <ele>612.00</ele>
   <time>2014-03-30T08:46:49Z</time>
  </trkpt>
  <trkpt lat="33.930592" lon="-4.918717">
   <ele>613.00</ele>
   <time>2014-03-30T08:46:51Z</time>
  </trkpt>
  <trkpt lat="33.930731" lon="-4.918025">
   <ele>614.00</ele>
   <time>2014-03-30T08:46:55Z</time>
  </trkpt>
  <trkpt lat="33.931055" lon="-4.916311">
   <ele>615.00</ele>
   <time>2014-03-30T08:47:03Z</time>
  </trkpt>
  <trkpt lat="33.931747" lon="-4.912361">
   <ele>621.00</ele>
   <time>2014-03-30T08:47:19Z</time>
  </trkpt>
  <trkpt lat="33.932442" lon="-4.908560">
   <ele>625.00</ele>
   <time>2014-03-30T08:47:33Z</time>
  </trkpt>
  <trkpt lat="33.932628" lon="-4.907751">
   <ele>626.00</ele>
   <time>2014-03-30T08:47:36Z</time>
  </trkpt>
  <trkpt lat="33.932843" lon="-4.906948">
   <ele>626.00</ele>
   <time>2014-03-30T08:47:39Z</time>
  </trkpt>
  <trkpt lat="33.933087" lon="-4.906160">
   <ele>627.00</ele>
   <time>2014-03-30T08:47:42Z</time>
  </trkpt>
  <trkpt lat="33.933362" lon="-4.905381">
   <ele>627.00</ele>
   <time>2014-03-30T08:47:45Z</time>
  </trkpt>
  <trkpt lat="33.933670" lon="-4.904599">
   <ele>628.00</ele>
   <time>2014-03-30T08:47:48Z</time>
  </trkpt>
  <trkpt lat="33.933894" lon="-4.904081">
   <ele>628.00</ele>
   <time>2014-03-30T08:47:50Z</time>
  </trkpt>
  <trkpt lat="33.934136" lon="-4.903568">
   <ele>628.00</ele>
   <time>2014-03-30T08:47:52Z</time>
  </trkpt>
  <trkpt lat="33.934655" lon="-4.902554">
   <ele>629.00</ele>
   <time>2014-03-30T08:47:56Z</time>
  </trkpt>
  <trkpt lat="33.936818" lon="-4.898568">
   <ele>630.00</ele>
   <time>2014-03-30T08:48:12Z</time>
  </trkpt>
  <trkpt lat="33.938877" lon="-4.894781">
   <ele>624.00</ele>
   <time>2014-03-30T08:48:27Z</time>
  </trkpt>
  <trkpt lat="33.940980" lon="-4.890919">
   <ele>613.00</ele>
   <time>2014-03-30T08:48:42Z</time>
  </trkpt>
  <trkpt lat="33.942401" lon="-4.888337">
   <ele>605.00</ele>
   <time>2014-03-30T08:48:52Z</time>
  </trkpt>
  <trkpt lat="33.942860" lon="-4.887599">
   <ele>603.00</ele>
   <time>2014-03-30T08:48:55Z</time>
  </trkpt>
  <trkpt lat="33.943186" lon="-4.887127">
   <ele>602.00</ele>
   <time>2014-03-30T08:48:57Z</time>
  </trkpt>
  <trkpt lat="33.943529" lon="-4.886673">
   <ele>601.00</ele>
   <time>2014-03-30T08:48:59Z</time>
  </trkpt>
  <trkpt lat="33.943890" lon="-4.886241">
   <ele>599.00</ele>
   <time>2014-03-30T08:49:01Z</time>
  </trkpt>
  <trkpt lat="33.944264" lon="-4.885827">
   <ele>598.00</ele>
   <time>2014-03-30T08:49:03Z</time>
  </trkpt>
  <trkpt lat="33.944655" lon="-4.885437">
   <ele>597.00</ele>
   <time>2014-03-30T08:49:05Z</time>
  </trkpt>
  <trkpt lat="33.945061" lon="-4.885069">
   <ele>595.00</ele>
   <time>2014-03-30T08:49:07Z</time>
  </trkpt>
  <trkpt lat="33.945480" lon="-4.884721">
   <ele>594.00</ele>
   <time>2014-03-30T08:49:09Z</time>
  </trkpt>
  <trkpt lat="33.945914" lon="-4.884401">
   <ele>594.00</ele>
   <time>2014-03-30T08:49:11Z</time>
  </trkpt>
  <trkpt lat="33.946585" lon="-4.883969">
   <ele>591.00</ele>
   <time>2014-03-30T08:49:14Z</time>
  </trkpt>
  <trkpt lat="33.947926" lon="-4.883094">
   <ele>589.00</ele>
   <time>2014-03-30T08:49:20Z</time>
  </trkpt>
  <trkpt lat="33.948357" lon="-4.882769">
   <ele>589.00</ele>
   <time>2014-03-30T08:49:22Z</time>
  </trkpt>
  <trkpt lat="33.948772" lon="-4.882415">
   <ele>589.00</ele>
   <time>2014-03-30T08:49:24Z</time>
  </trkpt>
  <trkpt lat="33.949167" lon="-4.882034">
   <ele>589.00</ele>
   <time>2014-03-30T08:49:26Z</time>
  </trkpt>
  <trkpt lat="33.949543" lon="-4.881622">
   <ele>589.00</ele>
   <time>2014-03-30T08:49:28Z</time>
  </trkpt>
  <trkpt lat="33.949898" lon="-4.881184">
   <ele>589.00</ele>
   <time>2014-03-30T08:49:30Z</time>
  </trkpt>
  <trkpt lat="33.950230" lon="-4.880723">
   <ele>589.00</ele>
   <time>2014-03-30T08:49:32Z</time>
  </trkpt>
  <trkpt lat="33.950537" lon="-4.880242">
   <ele>589.00</ele>
   <time>2014-03-30T08:49:34Z</time>
  </trkpt>
  <trkpt lat="33.950823" lon="-4.879742">
   <ele>589.00</ele>
   <time>2014-03-30T08:49:36Z</time>
  </trkpt>
  <trkpt lat="33.951082" lon="-4.879223">
   <ele>589.00</ele>
   <time>2014-03-30T08:49:38Z</time>
  </trkpt>
  <trkpt lat="33.951316" lon="-4.878684">
   <ele>588.00</ele>
   <time>2014-03-30T08:49:40Z</time>
  </trkpt>
  <trkpt lat="33.951530" lon="-4.878131">
   <ele>587.00</ele>
   <time>2014-03-30T08:49:42Z</time>
  </trkpt>
  <trkpt lat="33.951722" lon="-4.877561">
   <ele>586.00</ele>
   <time>2014-03-30T08:49:44Z</time>
  </trkpt>
  <trkpt lat="33.951891" lon="-4.876980">
   <ele>584.00</ele>
   <time>2014-03-30T08:49:46Z</time>
  </trkpt>
  <trkpt lat="33.952378" lon="-4.875226">
   <ele>576.00</ele>
   <time>2014-03-30T08:49:52Z</time>
  </trkpt>
  <trkpt lat="33.952574" lon="-4.874657">
   <ele>574.00</ele>
   <time>2014-03-30T08:49:54Z</time>
  </trkpt>
  <trkpt lat="33.952799" lon="-4.874102">
   <ele>571.00</ele>
   <time>2014-03-30T08:49:56Z</time>
  </trkpt>
  <trkpt lat="33.953054" lon="-4.873564">
   <ele>569.00</ele>
   <time>2014-03-30T08:49:58Z</time>
  </trkpt>
  <trkpt lat="33.953339" lon="-4.873047">
   <ele>566.00</ele>
   <time>2014-03-30T08:50:00Z</time>
  </trkpt>
  <trkpt lat="33.953648" lon="-4.872549">
   <ele>563.00</ele>
   <time>2014-03-30T08:50:02Z</time>
  </trkpt>
  <trkpt lat="33.953978" lon="-4.872071">
   <ele>560.00</ele>
   <time>2014-03-30T08:50:04Z</time>
  </trkpt>
  <trkpt lat="33.954328" lon="-4.871613">
   <ele>558.00</ele>
   <time>2014-03-30T08:50:06Z</time>
  </trkpt>
  <trkpt lat="33.954699" lon="-4.871174">
   <ele>555.00</ele>
   <time>2014-03-30T08:50:08Z</time>
  </trkpt>
  <trkpt lat="33.956205" lon="-4.869461">
   <ele>545.00</ele>
   <time>2014-03-30T08:50:16Z</time>
  </trkpt>
  <trkpt lat="33.956379" lon="-4.869233">
   <ele>544.00</ele>
   <time>2014-03-30T08:50:17Z</time>
  </trkpt>
  <trkpt lat="33.956707" lon="-4.868758">
   <ele>542.00</ele>
   <time>2014-03-30T08:50:19Z</time>
  </trkpt>
  <trkpt lat="33.957010" lon="-4.868263">
   <ele>541.00</ele>
   <time>2014-03-30T08:50:21Z</time>
  </trkpt>
  <trkpt lat="33.957291" lon="-4.867751">
   <ele>540.00</ele>
   <time>2014-03-30T08:50:23Z</time>
  </trkpt>
  <trkpt lat="33.957421" lon="-4.867486">
   <ele>539.00</ele>
   <time>2014-03-30T08:50:24Z</time>
  </trkpt>
  <trkpt lat="33.957660" lon="-4.866944">
   <ele>539.00</ele>
   <time>2014-03-30T08:50:26Z</time>
  </trkpt>
  <trkpt lat="33.957871" lon="-4.866390">
   <ele>538.00</ele>
   <time>2014-03-30T08:50:28Z</time>
  </trkpt>
  <trkpt lat="33.958058" lon="-4.865827">
   <ele>537.00</ele>
   <time>2014-03-30T08:50:30Z</time>
  </trkpt>
  <trkpt lat="33.958216" lon="-4.865250">
   <ele>537.00</ele>
   <time>2014-03-30T08:50:32Z</time>
  </trkpt>
  <trkpt lat="33.958347" lon="-4.864665">
   <ele>536.00</ele>
   <time>2014-03-30T08:50:34Z</time>
  </trkpt>
  <trkpt lat="33.958449" lon="-4.864073">
   <ele>535.00</ele>
   <time>2014-03-30T08:50:36Z</time>
  </trkpt>
  <trkpt lat="33.958530" lon="-4.863473">
   <ele>534.00</ele>
   <time>2014-03-30T08:50:38Z</time>
  </trkpt>
  <trkpt lat="33.959086" lon="-4.858668">
   <ele>529.00</ele>
   <time>2014-03-30T08:50:54Z</time>
  </trkpt>
  <trkpt lat="33.959286" lon="-4.857175">
   <ele>527.00</ele>
   <time>2014-03-30T08:50:59Z</time>
  </trkpt>
  <trkpt lat="33.959400" lon="-4.856584">
   <ele>525.00</ele>
   <time>2014-03-30T08:51:01Z</time>
  </trkpt>
  <trkpt lat="33.959547" lon="-4.855999">
   <ele>524.00</ele>
   <time>2014-03-30T08:51:03Z</time>
  </trkpt>
  <trkpt lat="33.959723" lon="-4.855420">
   <ele>522.00</ele>
   <time>2014-03-30T08:51:05Z</time>
  </trkpt>
  <trkpt lat="33.959928" lon="-4.854849">
   <ele>519.00</ele>
   <time>2014-03-30T08:51:07Z</time>
  </trkpt>
  <trkpt lat="33.960163" lon="-4.854293">
   <ele>517.00</ele>
   <time>2014-03-30T08:51:09Z</time>
  </trkpt>
  <trkpt lat="33.960423" lon="-4.853753">
   <ele>514.00</ele>
   <time>2014-03-30T08:51:11Z</time>
  </trkpt>
  <trkpt lat="33.960710" lon="-4.853229">
   <ele>511.00</ele>
   <time>2014-03-30T08:51:13Z</time>
  </trkpt>
  <trkpt lat="33.961023" lon="-4.852731">
   <ele>508.00</ele>
   <time>2014-03-30T08:51:15Z</time>
  </trkpt>
  <trkpt lat="33.961358" lon="-4.852252">
   <ele>504.00</ele>
   <time>2014-03-30T08:51:17Z</time>
  </trkpt>
  <trkpt lat="33.961716" lon="-4.851794">
   <ele>500.00</ele>
   <time>2014-03-30T08:51:19Z</time>
  </trkpt>
  <trkpt lat="33.962095" lon="-4.851361">
   <ele>497.00</ele>
   <time>2014-03-30T08:51:21Z</time>
  </trkpt>
  <trkpt lat="33.963836" lon="-4.849501">
   <ele>483.00</ele>
   <time>2014-03-30T08:51:30Z</time>
  </trkpt>
  <trkpt lat="33.964190" lon="-4.849055">
   <ele>481.00</ele>
   <time>2014-03-30T08:51:32Z</time>
  </trkpt>
  <trkpt lat="33.964525" lon="-4.848590">
   <ele>480.00</ele>
   <time>2014-03-30T08:51:34Z</time>
  </trkpt>
  <trkpt lat="33.964838" lon="-4.848107">
   <ele>478.00</ele>
   <time>2014-03-30T08:51:36Z</time>
  </trkpt>
  <trkpt lat="33.965131" lon="-4.847608">
   <ele>477.00</ele>
   <time>2014-03-30T08:51:38Z</time>
  </trkpt>
  <trkpt lat="33.965405" lon="-4.847092">
   <ele>477.00</ele>
   <time>2014-03-30T08:51:40Z</time>
  </trkpt>
  <trkpt lat="33.965787" lon="-4.846292">
   <ele>476.00</ele>
   <time>2014-03-30T08:51:43Z</time>
  </trkpt>
  <trkpt lat="33.967594" lon="-4.842341">
   <ele>472.00</ele>
   <time>2014-03-30T08:51:58Z</time>
  </trkpt>
  <trkpt lat="33.969535" lon="-4.838114">
   <ele>468.00</ele>
   <time>2014-03-30T08:52:14Z</time>
  </trkpt>
  <trkpt lat="33.970149" lon="-4.836812">
   <ele>467.00</ele>
   <time>2014-03-30T08:52:19Z</time>
  </trkpt>
  <trkpt lat="33.970413" lon="-4.836315">
   <ele>466.00</ele>
   <time>2014-03-30T08:52:21Z</time>
  </trkpt>
  <trkpt lat="33.970699" lon="-4.835837">
   <ele>465.00</ele>
   <time>2014-03-30T08:52:23Z</time>
  </trkpt>
  <trkpt lat="33.970854" lon="-4.835609">
   <ele>465.00</ele>
   <time>2014-03-30T08:52:24Z</time>
  </trkpt>
  <trkpt lat="33.971018" lon="-4.835390">
   <ele>464.00</ele>
   <time>2014-03-30T08:52:25Z</time>
  </trkpt>
  <trkpt lat="33.971367" lon="-4.834972">
   <ele>463.00</ele>
   <time>2014-03-30T08:52:27Z</time>
  </trkpt>
  <trkpt lat="33.971551" lon="-4.834774">
   <ele>463.00</ele>
   <time>2014-03-30T08:52:28Z</time>
  </trkpt>
  <trkpt lat="33.971742" lon="-4.834583">
   <ele>462.00</ele>
   <time>2014-03-30T08:52:29Z</time>
  </trkpt>
  <trkpt lat="33.971940" lon="-4.834402">
   <ele>462.00</ele>
   <time>2014-03-30T08:52:30Z</time>
  </trkpt>
  <trkpt lat="33.972146" lon="-4.834232">
   <ele>462.00</ele>
   <time>2014-03-30T08:52:31Z</time>
  </trkpt>
  <trkpt lat="33.972356" lon="-4.834070">
   <ele>462.00</ele>
   <time>2014-03-30T08:52:32Z</time>
  </trkpt>
  <trkpt lat="33.972792" lon="-4.833773">
   <ele>461.00</ele>
   <time>2014-03-30T08:52:34Z</time>
  </trkpt>
  <trkpt lat="33.973017" lon="-4.833640">
   <ele>461.00</ele>
   <time>2014-03-30T08:52:35Z</time>
  </trkpt>
  <trkpt lat="33.973248" lon="-4.833520">
   <ele>460.00</ele>
   <time>2014-03-30T08:52:36Z</time>
  </trkpt>
  <trkpt lat="33.973482" lon="-4.833411">
   <ele>460.00</ele>
   <time>2014-03-30T08:52:37Z</time>
  </trkpt>
  <trkpt lat="33.973719" lon="-4.833314">
   <ele>460.00</ele>
   <time>2014-03-30T08:52:38Z</time>
  </trkpt>
  <trkpt lat="33.973959" lon="-4.833228">
   <ele>460.00</ele>
   <time>2014-03-30T08:52:39Z</time>
  </trkpt>
  <trkpt lat="33.974447" lon="-4.833090">
   <ele>459.00</ele>
   <time>2014-03-30T08:52:41Z</time>
  </trkpt>
  <trkpt lat="33.974693" lon="-4.833036">
   <ele>459.00</ele>
   <time>2014-03-30T08:52:42Z</time>
  </trkpt>
  <trkpt lat="33.974940" lon="-4.832995">
   <ele>459.00</ele>
   <time>2014-03-30T08:52:43Z</time>
  </trkpt>
  <trkpt lat="33.975188" lon="-4.832967">
   <ele>459.00</ele>
   <time>2014-03-30T08:52:44Z</time>
  </trkpt>
  <trkpt lat="33.975436" lon="-4.832951">
   <ele>458.00</ele>
   <time>2014-03-30T08:52:45Z</time>
  </trkpt>
  <trkpt lat="33.975685" lon="-4.832946">
   <ele>458.00</ele>
   <time>2014-03-30T08:52:46Z</time>
  </trkpt>
  <trkpt lat="33.975936" lon="-4.832950">
   <ele>458.00</ele>
   <time>2014-03-30T08:52:47Z</time>
  </trkpt>
  <trkpt lat="33.976441" lon="-4.832979">
   <ele>457.00</ele>
   <time>2014-03-30T08:52:49Z</time>
  </trkpt>
  <trkpt lat="33.977694" lon="-4.833092">
   <ele>452.00</ele>
   <time>2014-03-30T08:52:54Z</time>
  </trkpt>
  <trkpt lat="33.977941" lon="-4.833091">
   <ele>451.00</ele>
   <time>2014-03-30T08:52:55Z</time>
  </trkpt>
  <trkpt lat="33.978431" lon="-4.833057">
   <ele>451.00</ele>
   <time>2014-03-30T08:52:57Z</time>
  </trkpt>
  <trkpt lat="33.978674" lon="-4.833023">
   <ele>450.00</ele>
   <time>2014-03-30T08:52:58Z</time>
  </trkpt>
  <trkpt lat="33.978916" lon="-4.832977">
   <ele>450.00</ele>
   <time>2014-03-30T08:52:59Z</time>
  </trkpt>
  <trkpt lat="33.979156" lon="-4.832919">
   <ele>450.00</ele>
   <time>2014-03-30T08:53:00Z</time>
  </trkpt>
  <trkpt lat="33.979394" lon="-4.832850">
   <ele>449.00</ele>
   <time>2014-03-30T08:53:01Z</time>
  </trkpt>
  <trkpt lat="33.979630" lon="-4.832767">
   <ele>449.00</ele>
   <time>2014-03-30T08:53:02Z</time>
  </trkpt>
  <trkpt lat="33.979865" lon="-4.832673">
   <ele>448.00</ele>
   <time>2014-03-30T08:53:03Z</time>
  </trkpt>
  <trkpt lat="33.980098" lon="-4.832564">
   <ele>448.00</ele>
   <time>2014-03-30T08:53:04Z</time>
  </trkpt>
  <trkpt lat="33.980328" lon="-4.832441">
   <ele>447.00</ele>
   <time>2014-03-30T08:53:05Z</time>
  </trkpt>
  <trkpt lat="33.980555" lon="-4.832305">
   <ele>447.00</ele>
   <time>2014-03-30T08:53:06Z</time>
  </trkpt>
  <trkpt lat="33.980779" lon="-4.832156">
   <ele>447.00</ele>
   <time>2014-03-30T08:53:07Z</time>
  </trkpt>
  <trkpt lat="33.980998" lon="-4.831995">
   <ele>446.00</ele>
   <time>2014-03-30T08:53:08Z</time>
  </trkpt>
  <trkpt lat="33.981213" lon="-4.831822">
   <ele>446.00</ele>
   <time>2014-03-30T08:53:09Z</time>
  </trkpt>
  <trkpt lat="33.981634" lon="-4.831450">
   <ele>445.00</ele>
   <time>2014-03-30T08:53:11Z</time>
  </trkpt>
  <trkpt lat="33.982878" lon="-4.830311">
   <ele>444.00</ele>
   <time>2014-03-30T08:53:17Z</time>
  </trkpt>
  <trkpt lat="33.983312" lon="-4.829985">
   <ele>443.00</ele>
   <time>2014-03-30T08:53:19Z</time>
  </trkpt>
  <trkpt lat="33.983534" lon="-4.829837">
   <ele>442.00</ele>
   <time>2014-03-30T08:53:20Z</time>
  </trkpt>
  <trkpt lat="33.983760" lon="-4.829700">
   <ele>442.00</ele>
   <time>2014-03-30T08:53:21Z</time>
  </trkpt>
  <trkpt lat="33.983990" lon="-4.829577">
   <ele>442.00</ele>
   <time>2014-03-30T08:53:22Z</time>
  </trkpt>
  <trkpt lat="33.984223" lon="-4.829466">
   <ele>441.00</ele>
   <time>2014-03-30T08:53:23Z</time>
  </trkpt>
  <trkpt lat="33.984459" lon="-4.829366">
   <ele>440.00</ele>
   <time>2014-03-30T08:53:24Z</time>
  </trkpt>
  <trkpt lat="33.984698" lon="-4.829281">
   <ele>440.00</ele>
   <time>2014-03-30T08:53:25Z</time>
  </trkpt>
  <trkpt lat="33.984940" lon="-4.829209">
   <ele>439.00</ele>
   <time>2014-03-30T08:53:26Z</time>
  </trkpt>
  <trkpt lat="33.985184" lon="-4.829150">
   <ele>438.00</ele>
   <time>2014-03-30T08:53:27Z</time>
  </trkpt>
  <trkpt lat="33.985429" lon="-4.829102">
   <ele>438.00</ele>
   <time>2014-03-30T08:53:28Z</time>
  </trkpt>
  <trkpt lat="33.985675" lon="-4.829068">
   <ele>437.00</ele>
   <time>2014-03-30T08:53:29Z</time>
  </trkpt>
  <trkpt lat="33.985924" lon="-4.829046">
   <ele>436.00</ele>
   <time>2014-03-30T08:53:30Z</time>
  </trkpt>
  <trkpt lat="33.986173" lon="-4.829036">
   <ele>436.00</ele>
   <time>2014-03-30T08:53:31Z</time>
  </trkpt>
  <trkpt lat="33.986422" lon="-4.829037">
   <ele>435.00</ele>
   <time>2014-03-30T08:53:32Z</time>
  </trkpt>
  <trkpt lat="33.986923" lon="-4.829072">
   <ele>433.00</ele>
   <time>2014-03-30T08:53:34Z</time>
  </trkpt>
  <trkpt lat="33.987675" lon="-4.829178">
   <ele>432.00</ele>
   <time>2014-03-30T08:53:37Z</time>
  </trkpt>
  <trkpt lat="33.988906" lon="-4.829350">
   <ele>431.00</ele>
   <time>2014-03-30T08:53:42Z</time>
  </trkpt>
  <trkpt lat="33.989392" lon="-4.829376">
   <ele>430.00</ele>
   <time>2014-03-30T08:53:44Z</time>
  </trkpt>
  <trkpt lat="33.989634" lon="-4.829375">
   <ele>430.00</ele>
   <time>2014-03-30T08:53:45Z</time>
  </trkpt>
  <trkpt lat="33.990117" lon="-4.829344">
   <ele>430.00</ele>
   <time>2014-03-30T08:53:47Z</time>
  </trkpt>
  <trkpt lat="33.990359" lon="-4.829313">
   <ele>429.00</ele>
   <time>2014-03-30T08:53:48Z</time>
  </trkpt>
  <trkpt lat="33.990601" lon="-4.829268">
   <ele>429.00</ele>
   <time>2014-03-30T08:53:49Z</time>
  </trkpt>
  <trkpt lat="33.990842" lon="-4.829211">
   <ele>429.00</ele>
   <time>2014-03-30T08:53:50Z</time>
  </trkpt>
  <trkpt lat="33.991082" lon="-4.829140">
   <ele>429.00</ele>
   <time>2014-03-30T08:53:51Z</time>
  </trkpt>
  <trkpt lat="33.991320" lon="-4.829056">
   <ele>428.00</ele>
   <time>2014-03-30T08:53:52Z</time>
  </trkpt>
  <trkpt lat="33.991554" lon="-4.828961">
   <ele>428.00</ele>
   <time>2014-03-30T08:53:53Z</time>
  </trkpt>
  <trkpt lat="33.992008" lon="-4.828740">
   <ele>428.00</ele>
   <time>2014-03-30T08:53:55Z</time>
  </trkpt>
  <trkpt lat="33.992444" lon="-4.828486">
   <ele>427.00</ele>
   <time>2014-03-30T08:53:57Z</time>
  </trkpt>
  <trkpt lat="33.992862" lon="-4.828206">
   <ele>427.00</ele>
   <time>2014-03-30T08:53:59Z</time>
  </trkpt>
  <trkpt lat="33.993065" lon="-4.828054">
   <ele>427.00</ele>
   <time>2014-03-30T08:54:00Z</time>
  </trkpt>
  <trkpt lat="33.993262" lon="-4.827894">
   <ele>427.00</ele>
   <time>2014-03-30T08:54:01Z</time>
  </trkpt>
  <trkpt lat="33.993452" lon="-4.827724">
   <ele>427.00</ele>
   <time>2014-03-30T08:54:02Z</time>
  </trkpt>
  <trkpt lat="33.993635" lon="-4.827545">
   <ele>427.00</ele>
   <time>2014-03-30T08:54:03Z</time>
  </trkpt>
  <trkpt lat="33.993810" lon="-4.827353">
   <ele>427.00</ele>
   <time>2014-03-30T08:54:04Z</time>
  </trkpt>
  <trkpt lat="33.994146" lon="-4.826946">
   <ele>427.00</ele>
   <time>2014-03-30T08:54:06Z</time>
  </trkpt>
  <trkpt lat="33.996931" lon="-4.823618">
   <ele>418.00</ele>
   <time>2014-03-30T08:54:22Z</time>
  </trkpt>
  <trkpt lat="33.999667" lon="-4.820420">
   <ele>401.00</ele>
   <time>2014-03-30T08:54:37Z</time>
  </trkpt>
  <trkpt lat="34.002424" lon="-4.817200">
   <ele>381.00</ele>
   <time>2014-03-30T08:54:52Z</time>
  </trkpt>
  <trkpt lat="34.004393" lon="-4.814874">
   <ele>366.00</ele>
   <time>2014-03-30T08:55:03Z</time>
  </trkpt>
  <trkpt lat="34.004697" lon="-4.814454">
   <ele>364.00</ele>
   <time>2014-03-30T08:55:05Z</time>
  </trkpt>
  <trkpt lat="34.004977" lon="-4.814020">
   <ele>362.00</ele>
   <time>2014-03-30T08:55:07Z</time>
  </trkpt>
  <trkpt lat="34.005235" lon="-4.813575">
   <ele>360.00</ele>
   <time>2014-03-30T08:55:09Z</time>
  </trkpt>
  <trkpt lat="34.005471" lon="-4.813118">
   <ele>358.00</ele>
   <time>2014-03-30T08:55:11Z</time>
  </trkpt>
  <trkpt lat="34.005680" lon="-4.812651">
   <ele>356.00</ele>
   <time>2014-03-30T08:55:13Z</time>
  </trkpt>
  <trkpt lat="34.005867" lon="-4.812175">
   <ele>354.00</ele>
   <time>2014-03-30T08:55:15Z</time>
  </trkpt>
  <trkpt lat="34.006027" lon="-4.811692">
   <ele>352.00</ele>
   <time>2014-03-30T08:55:17Z</time>
  </trkpt>
  <trkpt lat="34.006158" lon="-4.811203">
   <ele>349.00</ele>
   <time>2014-03-30T08:55:19Z</time>
  </trkpt>
  <trkpt lat="34.006269" lon="-4.810710">
   <ele>347.00</ele>
   <time>2014-03-30T08:55:21Z</time>
  </trkpt>
  <trkpt lat="34.006362" lon="-4.810209">
   <ele>345.00</ele>
   <time>2014-03-30T08:55:23Z</time>
  </trkpt>
  <trkpt lat="34.006432" lon="-4.809691">
   <ele>342.00</ele>
   <time>2014-03-30T08:55:25Z</time>
  </trkpt>
  <trkpt lat="34.006480" lon="-4.809157">
   <ele>339.00</ele>
   <time>2014-03-30T08:55:27Z</time>
  </trkpt>
  <trkpt lat="34.006494" lon="-4.808885">
   <ele>338.00</ele>
   <time>2014-03-30T08:55:28Z</time>
  </trkpt>
  <trkpt lat="34.006502" lon="-4.808338">
   <ele>336.00</ele>
   <time>2014-03-30T08:55:30Z</time>
  </trkpt>
  <trkpt lat="34.006489" lon="-4.807784">
   <ele>334.00</ele>
   <time>2014-03-30T08:55:32Z</time>
  </trkpt>
  <trkpt lat="34.006452" lon="-4.807228">
   <ele>332.00</ele>
   <time>2014-03-30T08:55:34Z</time>
  </trkpt>
  <trkpt lat="34.006386" lon="-4.806668">
   <ele>329.00</ele>
   <time>2014-03-30T08:55:36Z</time>
  </trkpt>
  <trkpt lat="34.006289" lon="-4.806113">
   <ele>326.00</ele>
   <time>2014-03-30T08:55:38Z</time>
  </trkpt>
  <trkpt lat="34.006163" lon="-4.805565">
   <ele>324.00</ele>
   <time>2014-03-30T08:55:40Z</time>
  </trkpt>
  <trkpt lat="34.006010" lon="-4.805020">
   <ele>321.00</ele>
   <time>2014-03-30T08:55:42Z</time>
  </trkpt>
  <trkpt lat="34.005831" lon="-4.804484">
   <ele>319.00</ele>
   <time>2014-03-30T08:55:44Z</time>
  </trkpt>
  <trkpt lat="34.005626" lon="-4.803961">
   <ele>318.00</ele>
   <time>2014-03-30T08:55:46Z</time>
  </trkpt>
  <trkpt lat="34.005397" lon="-4.803453">
   <ele>317.00</ele>
   <time>2014-03-30T08:55:48Z</time>
  </trkpt>
  <trkpt lat="34.005145" lon="-4.802962">
   <ele>316.00</ele>
   <time>2014-03-30T08:55:50Z</time>
  </trkpt>
  <trkpt lat="34.004870" lon="-4.802493">
   <ele>315.00</ele>
   <time>2014-03-30T08:55:52Z</time>
  </trkpt>
  <trkpt lat="34.004724" lon="-4.802267">
   <ele>314.00</ele>
   <time>2014-03-30T08:55:53Z</time>
  </trkpt>
  <trkpt lat="34.004413" lon="-4.801836">
   <ele>314.00</ele>
   <time>2014-03-30T08:55:55Z</time>
  </trkpt>
  <trkpt lat="34.004086" lon="-4.801427">
   <ele>313.00</ele>
   <time>2014-03-30T08:55:57Z</time>
  </trkpt>
  <trkpt lat="34.003742" lon="-4.801047">
   <ele>312.00</ele>
   <time>2014-03-30T08:55:59Z</time>
  </trkpt>
  <trkpt lat="34.003383" lon="-4.800691">
   <ele>311.00</ele>
   <time>2014-03-30T08:56:01Z</time>
  </trkpt>
  <trkpt lat="34.003006" lon="-4.800356">
   <ele>309.00</ele>
   <time>2014-03-30T08:56:03Z</time>
  </trkpt>
  <trkpt lat="34.002610" lon="-4.800041">
   <ele>308.00</ele>
   <time>2014-03-30T08:56:05Z</time>
  </trkpt>
  <trkpt lat="34.002194" lon="-4.799744">
   <ele>306.00</ele>
   <time>2014-03-30T08:56:07Z</time>
  </trkpt>
  <trkpt lat="33.998812" lon="-4.797464">
   <ele>299.00</ele>
   <time>2014-03-30T08:56:23Z</time>
  </trkpt>
  <trkpt lat="33.998201" lon="-4.797005">
   <ele>298.00</ele>
   <time>2014-03-30T08:56:26Z</time>
  </trkpt>
  <trkpt lat="33.997809" lon="-4.796675">
   <ele>297.00</ele>
   <time>2014-03-30T08:56:28Z</time>
  </trkpt>
  <trkpt lat="33.997434" lon="-4.796318">
   <ele>296.00</ele>
   <time>2014-03-30T08:56:30Z</time>
  </trkpt>
  <trkpt lat="33.997077" lon="-4.795940">
   <ele>294.00</ele>
   <time>2014-03-30T08:56:32Z</time>
  </trkpt>
  <trkpt lat="33.996739" lon="-4.795542">
   <ele>293.00</ele>
   <time>2014-03-30T08:56:34Z</time>
  </trkpt>
  <trkpt lat="33.996416" lon="-4.795120">
   <ele>292.00</ele>
   <time>2014-03-30T08:56:36Z</time>
  </trkpt>
  <trkpt lat="33.996111" lon="-4.794676">
   <ele>291.00</ele>
   <time>2014-03-30T08:56:38Z</time>
  </trkpt>
  <trkpt lat="33.995825" lon="-4.794210">
   <ele>290.00</ele>
   <time>2014-03-30T08:56:40Z</time>
  </trkpt>
  <trkpt lat="33.995562" lon="-4.793729">
   <ele>289.00</ele>
   <time>2014-03-30T08:56:42Z</time>
  </trkpt>
  <trkpt lat="33.995325" lon="-4.793235">
   <ele>289.00</ele>
   <time>2014-03-30T08:56:44Z</time>
  </trkpt>
  <trkpt lat="33.995108" lon="-4.792731">
   <ele>288.00</ele>
   <time>2014-03-30T08:56:46Z</time>
  </trkpt>
  <trkpt lat="33.994915" lon="-4.792218">
   <ele>288.00</ele>
   <time>2014-03-30T08:56:48Z</time>
  </trkpt>
  <trkpt lat="33.994748" lon="-4.791696">
   <ele>289.00</ele>
   <time>2014-03-30T08:56:50Z</time>
  </trkpt>
  <trkpt lat="33.994599" lon="-4.791166">
   <ele>289.00</ele>
   <time>2014-03-30T08:56:52Z</time>
  </trkpt>
  <trkpt lat="33.994478" lon="-4.790625">
   <ele>291.00</ele>
   <time>2014-03-30T08:56:54Z</time>
  </trkpt>
  <trkpt lat="33.994380" lon="-4.790078">
   <ele>292.00</ele>
   <time>2014-03-30T08:56:56Z</time>
  </trkpt>
  <trkpt lat="33.994307" lon="-4.789523">
   <ele>294.00</ele>
   <time>2014-03-30T08:56:58Z</time>
  </trkpt>
  <trkpt lat="33.994264" lon="-4.788960">
   <ele>296.00</ele>
   <time>2014-03-30T08:57:00Z</time>
  </trkpt>
  <trkpt lat="33.994247" lon="-4.788396">
   <ele>299.00</ele>
   <time>2014-03-30T08:57:02Z</time>
  </trkpt>
  <trkpt lat="33.994251" lon="-4.787830">
   <ele>302.00</ele>
   <time>2014-03-30T08:57:04Z</time>
  </trkpt>
  <trkpt lat="33.994273" lon="-4.787261">
   <ele>304.00</ele>
   <time>2014-03-30T08:57:06Z</time>
  </trkpt>
  <trkpt lat="33.994318" lon="-4.786695">
   <ele>307.00</ele>
   <time>2014-03-30T08:57:08Z</time>
  </trkpt>
  <trkpt lat="33.994386" lon="-4.786138">
   <ele>310.00</ele>
   <time>2014-03-30T08:57:10Z</time>
  </trkpt>
  <trkpt lat="33.994477" lon="-4.785587">
   <ele>313.00</ele>
   <time>2014-03-30T08:57:12Z</time>
  </trkpt>
  <trkpt lat="33.994591" lon="-4.785043">
   <ele>316.00</ele>
   <time>2014-03-30T08:57:14Z</time>
  </trkpt>
  <trkpt lat="33.994728" lon="-4.784511">
   <ele>318.00</ele>
   <time>2014-03-30T08:57:16Z</time>
  </trkpt>
  <trkpt lat="33.994890" lon="-4.783990">
   <ele>320.00</ele>
   <time>2014-03-30T08:57:18Z</time>
  </trkpt>
  <trkpt lat="33.995072" lon="-4.783477">
   <ele>322.00</ele>
   <time>2014-03-30T08:57:20Z</time>
  </trkpt>
  <trkpt lat="33.995272" lon="-4.782970">
   <ele>324.00</ele>
   <time>2014-03-30T08:57:22Z</time>
  </trkpt>
  <trkpt lat="33.995598" lon="-4.782221">
   <ele>327.00</ele>
   <time>2014-03-30T08:57:25Z</time>
  </trkpt>
  <trkpt lat="33.995919" lon="-4.781477">
   <ele>331.00</ele>
   <time>2014-03-30T08:57:28Z</time>
  </trkpt>
  <trkpt lat="33.996109" lon="-4.780975">
   <ele>333.00</ele>
   <time>2014-03-30T08:57:30Z</time>
  </trkpt>
  <trkpt lat="33.996192" lon="-4.780719">
   <ele>335.00</ele>
   <time>2014-03-30T08:57:31Z</time>
  </trkpt>
  <trkpt lat="33.996266" lon="-4.780458">
   <ele>336.00</ele>
   <time>2014-03-30T08:57:32Z</time>
  </trkpt>
  <trkpt lat="33.996392" lon="-4.779928">
   <ele>339.00</ele>
   <time>2014-03-30T08:57:34Z</time>
  </trkpt>
  <trkpt lat="33.996445" lon="-4.779659">
   <ele>340.00</ele>
   <time>2014-03-30T08:57:35Z</time>
  </trkpt>
  <trkpt lat="33.996489" lon="-4.779386">
   <ele>342.00</ele>
   <time>2014-03-30T08:57:36Z</time>
  </trkpt>
  <trkpt lat="33.996525" lon="-4.779110">
   <ele>343.00</ele>
   <time>2014-03-30T08:57:37Z</time>
  </trkpt>
  <trkpt lat="33.996550" lon="-4.778831">
   <ele>344.00</ele>
   <time>2014-03-30T08:57:38Z</time>
  </trkpt>
  <trkpt lat="33.996565" lon="-4.778549">
   <ele>346.00</ele>
   <time>2014-03-30T08:57:39Z</time>
  </trkpt>
  <trkpt lat="33.996572" lon="-4.778265">
   <ele>347.00</ele>
   <time>2014-03-30T08:57:40Z</time>
  </trkpt>
  <trkpt lat="33.996569" lon="-4.777981">
   <ele>348.00</ele>
   <time>2014-03-30T08:57:41Z</time>
  </trkpt>
  <trkpt lat="33.996555" lon="-4.777698">
   <ele>349.00</ele>
   <time>2014-03-30T08:57:42Z</time>
  </trkpt>
  <trkpt lat="33.996532" lon="-4.777416">
   <ele>351.00</ele>
   <time>2014-03-30T08:57:43Z</time>
  </trkpt>
  <trkpt lat="33.996501" lon="-4.777137">
   <ele>352.00</ele>
   <time>2014-03-30T08:57:44Z</time>
  </trkpt>
  <trkpt lat="33.996414" lon="-4.776585">
   <ele>355.00</ele>
   <time>2014-03-30T08:57:46Z</time>
  </trkpt>
  <trkpt lat="33.996359" lon="-4.776313">
   <ele>356.00</ele>
   <time>2014-03-30T08:57:47Z</time>
  </trkpt>
  <trkpt lat="33.996294" lon="-4.776043">
   <ele>358.00</ele>
   <time>2014-03-30T08:57:48Z</time>
  </trkpt>
  <trkpt lat="33.996219" lon="-4.775775">
   <ele>359.00</ele>
   <time>2014-03-30T08:57:49Z</time>
  </trkpt>
  <trkpt lat="33.996134" lon="-4.775511">
   <ele>361.00</ele>
   <time>2014-03-30T08:57:50Z</time>
  </trkpt>
  <trkpt lat="33.995940" lon="-4.774997">
   <ele>364.00</ele>
   <time>2014-03-30T08:57:52Z</time>
  </trkpt>
  <trkpt lat="33.995722" lon="-4.774500">
   <ele>367.00</ele>
   <time>2014-03-30T08:57:54Z</time>
  </trkpt>
  <trkpt lat="33.995478" lon="-4.774020">
   <ele>370.00</ele>
   <time>2014-03-30T08:57:56Z</time>
  </trkpt>
  <trkpt lat="33.995345" lon="-4.773788">
   <ele>371.00</ele>
   <time>2014-03-30T08:57:57Z</time>
  </trkpt>
  <trkpt lat="33.995062" lon="-4.773344">
   <ele>374.00</ele>
   <time>2014-03-30T08:57:59Z</time>
  </trkpt>
  <trkpt lat="33.994366" lon="-4.772242">
   <ele>381.00</ele>
   <time>2014-03-30T08:58:04Z</time>
  </trkpt>
  <trkpt lat="33.994107" lon="-4.771781">
   <ele>384.00</ele>
   <time>2014-03-30T08:58:06Z</time>
  </trkpt>
  <trkpt lat="33.993871" lon="-4.771300">
   <ele>387.00</ele>
   <time>2014-03-30T08:58:08Z</time>
  </trkpt>
  <trkpt lat="33.993767" lon="-4.771052">
   <ele>388.00</ele>
   <time>2014-03-30T08:58:09Z</time>
  </trkpt>
  <trkpt lat="33.993577" lon="-4.770546">
   <ele>391.00</ele>
   <time>2014-03-30T08:58:11Z</time>
  </trkpt>
  <trkpt lat="33.993414" lon="-4.770029">
   <ele>393.00</ele>
   <time>2014-03-30T08:58:13Z</time>
  </trkpt>
  <trkpt lat="33.993344" lon="-4.769766">
   <ele>394.00</ele>
   <time>2014-03-30T08:58:14Z</time>
  </trkpt>
  <trkpt lat="33.993281" lon="-4.769500">
   <ele>396.00</ele>
   <time>2014-03-30T08:58:15Z</time>
  </trkpt>
  <trkpt lat="33.993179" lon="-4.768959">
   <ele>398.00</ele>
   <time>2014-03-30T08:58:17Z</time>
  </trkpt>
  <trkpt lat="33.993107" lon="-4.768413">
   <ele>401.00</ele>
   <time>2014-03-30T08:58:19Z</time>
  </trkpt>
  <trkpt lat="33.993063" lon="-4.767865">
   <ele>403.00</ele>
   <time>2014-03-30T08:58:21Z</time>
  </trkpt>
  <trkpt lat="33.993048" lon="-4.767314">
   <ele>405.00</ele>
   <time>2014-03-30T08:58:23Z</time>
  </trkpt>
  <trkpt lat="33.993053" lon="-4.767036">
   <ele>406.00</ele>
   <time>2014-03-30T08:58:24Z</time>
  </trkpt>
  <trkpt lat="33.993084" lon="-4.766480">
   <ele>407.00</ele>
   <time>2014-03-30T08:58:26Z</time>
  </trkpt>
  <trkpt lat="33.993142" lon="-4.765925">
   <ele>408.00</ele>
   <time>2014-03-30T08:58:28Z</time>
  </trkpt>
  <trkpt lat="33.993183" lon="-4.765650">
   <ele>409.00</ele>
   <time>2014-03-30T08:58:29Z</time>
  </trkpt>
  <trkpt lat="33.993290" lon="-4.765104">
   <ele>411.00</ele>
   <time>2014-03-30T08:58:31Z</time>
  </trkpt>
  <trkpt lat="33.993429" lon="-4.764559">
   <ele>415.00</ele>
   <time>2014-03-30T08:58:33Z</time>
  </trkpt>
  <trkpt lat="33.993506" lon="-4.764293">
   <ele>416.00</ele>
   <time>2014-03-30T08:58:34Z</time>
  </trkpt>
  <trkpt lat="33.993591" lon="-4.764030">
   <ele>417.00</ele>
   <time>2014-03-30T08:58:35Z</time>
  </trkpt>
  <trkpt lat="33.993688" lon="-4.763770">
   <ele>419.00</ele>
   <time>2014-03-30T08:58:36Z</time>
  </trkpt>
  <trkpt lat="33.993902" lon="-4.763260">
   <ele>422.00</ele>
   <time>2014-03-30T08:58:38Z</time>
  </trkpt>
  <trkpt lat="33.994017" lon="-4.763012">
   <ele>424.00</ele>
   <time>2014-03-30T08:58:39Z</time>
  </trkpt>
  <trkpt lat="33.994270" lon="-4.762531">
   <ele>427.00</ele>
   <time>2014-03-30T08:58:41Z</time>
  </trkpt>
  <trkpt lat="33.994546" lon="-4.762071">
   <ele>429.00</ele>
   <time>2014-03-30T08:58:43Z</time>
  </trkpt>
  <trkpt lat="33.994843" lon="-4.761629">
   <ele>432.00</ele>
   <time>2014-03-30T08:58:45Z</time>
  </trkpt>
  <trkpt lat="33.995315" lon="-4.760995">
   <ele>436.00</ele>
   <time>2014-03-30T08:58:48Z</time>
  </trkpt>
  <trkpt lat="33.995929" lon="-4.760171">
   <ele>441.00</ele>
   <time>2014-03-30T08:58:52Z</time>
  </trkpt>
  <trkpt lat="33.996360" lon="-4.759520">
   <ele>444.00</ele>
   <time>2014-03-30T08:58:55Z</time>
  </trkpt>
  <trkpt lat="33.996494" lon="-4.759291">
   <ele>446.00</ele>
   <time>2014-03-30T08:58:56Z</time>
  </trkpt>
  <trkpt lat="33.996750" lon="-4.758817">
   <ele>448.00</ele>
   <time>2014-03-30T08:58:58Z</time>
  </trkpt>
  <trkpt lat="33.996986" lon="-4.758328">
   <ele>450.00</ele>
   <time>2014-03-30T08:59:00Z</time>
  </trkpt>
  <trkpt lat="33.997198" lon="-4.757824">
   <ele>452.00</ele>
   <time>2014-03-30T08:59:02Z</time>
  </trkpt>
  <trkpt lat="33.997387" lon="-4.757308">
   <ele>454.00</ele>
   <time>2014-03-30T08:59:04Z</time>
  </trkpt>
  <trkpt lat="33.997553" lon="-4.756786">
   <ele>456.00</ele>
   <time>2014-03-30T08:59:06Z</time>
  </trkpt>
  <trkpt lat="33.997696" lon="-4.756252">
   <ele>458.00</ele>
   <time>2014-03-30T08:59:08Z</time>
  </trkpt>
  <trkpt lat="33.997815" lon="-4.755713">
   <ele>460.00</ele>
   <time>2014-03-30T08:59:10Z</time>
  </trkpt>
  <trkpt lat="33.997907" lon="-4.755170">
   <ele>462.00</ele>
   <time>2014-03-30T08:59:12Z</time>
  </trkpt>
  <trkpt lat="33.997973" lon="-4.754628">
   <ele>463.00</ele>
   <time>2014-03-30T08:59:14Z</time>
  </trkpt>
  <trkpt lat="33.998017" lon="-4.754079">
   <ele>465.00</ele>
   <time>2014-03-30T08:59:16Z</time>
  </trkpt>
  <trkpt lat="33.998039" lon="-4.753521">
   <ele>466.00</ele>
   <time>2014-03-30T08:59:18Z</time>
  </trkpt>
  <trkpt lat="33.998036" lon="-4.752958">
   <ele>468.00</ele>
   <time>2014-03-30T08:59:20Z</time>
  </trkpt>
  <trkpt lat="33.998008" lon="-4.752397">
   <ele>470.00</ele>
   <time>2014-03-30T08:59:22Z</time>
  </trkpt>
  <trkpt lat="33.997958" lon="-4.751836">
   <ele>472.00</ele>
   <time>2014-03-30T08:59:24Z</time>
  </trkpt>
  <trkpt lat="33.997886" lon="-4.751279">
   <ele>474.00</ele>
   <time>2014-03-30T08:59:26Z</time>
  </trkpt>
  <trkpt lat="33.997791" lon="-4.750725">
   <ele>475.00</ele>
   <time>2014-03-30T08:59:28Z</time>
  </trkpt>
  <trkpt lat="33.997731" lon="-4.750450">
   <ele>476.00</ele>
   <time>2014-03-30T08:59:29Z</time>
  </trkpt>
  <trkpt lat="33.997590" lon="-4.749908">
   <ele>478.00</ele>
   <time>2014-03-30T08:59:31Z</time>
  </trkpt>
  <trkpt lat="33.997429" lon="-4.749372">
   <ele>479.00</ele>
   <time>2014-03-30T08:59:33Z</time>
  </trkpt>
  <trkpt lat="33.997247" lon="-4.748844">
   <ele>481.00</ele>
   <time>2014-03-30T08:59:35Z</time>
  </trkpt>
  <trkpt lat="33.996945" lon="-4.748066">
   <ele>484.00</ele>
   <time>2014-03-30T08:59:38Z</time>
  </trkpt>
  <trkpt lat="33.995385" lon="-4.744254">
   <ele>501.00</ele>
   <time>2014-03-30T08:59:53Z</time>
  </trkpt>
  <trkpt lat="33.993834" lon="-4.740426">
   <ele>516.00</ele>
   <time>2014-03-30T09:00:08Z</time>
  </trkpt>
  <trkpt lat="33.992598" lon="-4.737331">
   <ele>527.00</ele>
   <time>2014-03-30T09:00:20Z</time>
  </trkpt>
  <trkpt lat="33.992422" lon="-4.736807">
   <ele>529.00</ele>
   <time>2014-03-30T09:00:22Z</time>
  </trkpt>
  <trkpt lat="33.992272" lon="-4.736271">
   <ele>531.00</ele>
   <time>2014-03-30T09:00:24Z</time>
  </trkpt>
  <trkpt lat="33.992148" lon="-4.735728">
   <ele>533.00</ele>
   <time>2014-03-30T09:00:26Z</time>
  </trkpt>
  <trkpt lat="33.992048" lon="-4.735178">
   <ele>535.00</ele>
   <time>2014-03-30T09:00:28Z</time>
  </trkpt>
  <trkpt lat="33.991968" lon="-4.734621">
   <ele>537.00</ele>
   <time>2014-03-30T09:00:30Z</time>
  </trkpt>
  <trkpt lat="33.991913" lon="-4.734057">
   <ele>539.00</ele>
   <time>2014-03-30T09:00:32Z</time>
  </trkpt>
  <trkpt lat="33.991884" lon="-4.733491">
   <ele>541.00</ele>
   <time>2014-03-30T09:00:34Z</time>
  </trkpt>
  <trkpt lat="33.991879" lon="-4.732921">
   <ele>542.00</ele>
   <time>2014-03-30T09:00:36Z</time>
  </trkpt>
  <trkpt lat="33.991899" lon="-4.732349">
   <ele>544.00</ele>
   <time>2014-03-30T09:00:38Z</time>
  </trkpt>
  <trkpt lat="33.991944" lon="-4.731777">
   <ele>545.00</ele>
   <time>2014-03-30T09:00:40Z</time>
  </trkpt>
  <trkpt lat="33.992015" lon="-4.731208">
   <ele>547.00</ele>
   <time>2014-03-30T09:00:42Z</time>
  </trkpt>
  <trkpt lat="33.992110" lon="-4.730646">
   <ele>548.00</ele>
   <time>2014-03-30T09:00:44Z</time>
  </trkpt>
  <trkpt lat="33.992227" lon="-4.730091">
   <ele>550.00</ele>
   <time>2014-03-30T09:00:46Z</time>
  </trkpt>
  <trkpt lat="33.992372" lon="-4.729553">
   <ele>550.00</ele>
   <time>2014-03-30T09:00:48Z</time>
  </trkpt>
  <trkpt lat="33.992541" lon="-4.729025">
   <ele>550.00</ele>
   <time>2014-03-30T09:00:50Z</time>
  </trkpt>
  <trkpt lat="33.992731" lon="-4.728507">
   <ele>551.00</ele>
   <time>2014-03-30T09:00:52Z</time>
  </trkpt>
  <trkpt lat="33.992943" lon="-4.728001">
   <ele>551.00</ele>
   <time>2014-03-30T09:00:54Z</time>
  </trkpt>
  <trkpt lat="33.993179" lon="-4.727510">
   <ele>551.00</ele>
   <time>2014-03-30T09:00:56Z</time>
  </trkpt>
  <trkpt lat="33.993433" lon="-4.727034">
   <ele>551.00</ele>
   <time>2014-03-30T09:00:58Z</time>
  </trkpt>
  <trkpt lat="33.993709" lon="-4.726572">
   <ele>551.00</ele>
   <time>2014-03-30T09:01:00Z</time>
  </trkpt>
  <trkpt lat="33.994003" lon="-4.726122">
   <ele>551.00</ele>
   <time>2014-03-30T09:01:02Z</time>
  </trkpt>
  <trkpt lat="33.994626" lon="-4.725241">
   <ele>553.00</ele>
   <time>2014-03-30T09:01:06Z</time>
  </trkpt>
  <trkpt lat="33.995424" lon="-4.724120">
   <ele>553.00</ele>
   <time>2014-03-30T09:01:11Z</time>
  </trkpt>
  <trkpt lat="33.995879" lon="-4.723409">
   <ele>553.00</ele>
   <time>2014-03-30T09:01:14Z</time>
  </trkpt>
  <trkpt lat="33.996165" lon="-4.722918">
   <ele>553.00</ele>
   <time>2014-03-30T09:01:16Z</time>
  </trkpt>
  <trkpt lat="33.996431" lon="-4.722409">
   <ele>553.00</ele>
   <time>2014-03-30T09:01:18Z</time>
  </trkpt>
  <trkpt lat="33.996800" lon="-4.721629">
   <ele>554.00</ele>
   <time>2014-03-30T09:01:21Z</time>
  </trkpt>
  <trkpt lat="33.997025" lon="-4.721100">
   <ele>554.00</ele>
   <time>2014-03-30T09:01:23Z</time>
  </trkpt>
  <trkpt lat="33.997232" lon="-4.720564">
   <ele>554.00</ele>
   <time>2014-03-30T09:01:25Z</time>
  </trkpt>
  <trkpt lat="33.997422" lon="-4.720021">
   <ele>555.00</ele>
   <time>2014-03-30T09:01:27Z</time>
  </trkpt>
  <trkpt lat="33.997676" lon="-4.719195">
   <ele>555.00</ele>
   <time>2014-03-30T09:01:30Z</time>
  </trkpt>
  <trkpt lat="33.997971" lon="-4.718089">
   <ele>555.00</ele>
   <time>2014-03-30T09:01:34Z</time>
  </trkpt>
  <trkpt lat="33.999062" lon="-4.713722">
   <ele>558.00</ele>
   <time>2014-03-30T09:01:50Z</time>
  </trkpt>
  <trkpt lat="34.000085" lon="-4.709674">
   <ele>564.00</ele>
   <time>2014-03-30T09:02:05Z</time>
  </trkpt>
  <trkpt lat="34.001107" lon="-4.705649">
   <ele>570.00</ele>
   <time>2014-03-30T09:02:20Z</time>
  </trkpt>
  <trkpt lat="34.002177" lon="-4.701418">
   <ele>579.00</ele>
   <time>2014-03-30T09:02:36Z</time>
  </trkpt>
  <trkpt lat="34.002547" lon="-4.699869">
   <ele>583.00</ele>
   <time>2014-03-30T09:02:42Z</time>
  </trkpt>
  <trkpt lat="34.002697" lon="-4.699099">
   <ele>586.00</ele>
   <time>2014-03-30T09:02:45Z</time>
  </trkpt>
  <trkpt lat="34.002775" lon="-4.698601">
   <ele>587.00</ele>
   <time>2014-03-30T09:02:47Z</time>
  </trkpt>
  <trkpt lat="34.002863" lon="-4.697887">
   <ele>589.00</ele>
   <time>2014-03-30T09:02:50Z</time>
  </trkpt>
  <trkpt lat="34.002914" lon="-4.697225">
   <ele>591.00</ele>
   <time>2014-03-30T09:02:53Z</time>
  </trkpt>
  <trkpt lat="34.002939" lon="-4.696609">
   <ele>593.00</ele>
   <time>2014-03-30T09:02:56Z</time>
  </trkpt>
  <trkpt lat="34.002943" lon="-4.696216">
   <ele>594.00</ele>
   <time>2014-03-30T09:02:58Z</time>
  </trkpt>
  <trkpt lat="34.002928" lon="-4.695437">
   <ele>595.00</ele>
   <time>2014-03-30T09:03:02Z</time>
  </trkpt>
  <trkpt lat="34.002895" lon="-4.694840">
   <ele>596.00</ele>
   <time>2014-03-30T09:03:05Z</time>
  </trkpt>
  <trkpt lat="34.002844" lon="-4.694237">
   <ele>597.00</ele>
   <time>2014-03-30T09:03:08Z</time>
  </trkpt>
  <trkpt lat="34.002771" lon="-4.693633">
   <ele>599.00</ele>
   <time>2014-03-30T09:03:11Z</time>
  </trkpt>
  <trkpt lat="34.002642" lon="-4.692836">
   <ele>600.00</ele>
   <time>2014-03-30T09:03:15Z</time>
  </trkpt>
  <trkpt lat="34.002519" lon="-4.692227">
   <ele>600.00</ele>
   <time>2014-03-30T09:03:18Z</time>
  </trkpt>
  <trkpt lat="34.002370" lon="-4.691610">
   <ele>600.00</ele>
   <time>2014-03-30T09:03:21Z</time>
  </trkpt>
  <trkpt lat="34.002195" lon="-4.690995">
   <ele>600.00</ele>
   <time>2014-03-30T09:03:24Z</time>
  </trkpt>
  <trkpt lat="34.002002" lon="-4.690395">
   <ele>600.00</ele>
   <time>2014-03-30T09:03:27Z</time>
  </trkpt>
  <trkpt lat="34.001857" lon="-4.689997">
   <ele>600.00</ele>
   <time>2014-03-30T09:03:29Z</time>
  </trkpt>
  <trkpt lat="34.001537" lon="-4.689208">
   <ele>599.00</ele>
   <time>2014-03-30T09:03:33Z</time>
  </trkpt>
  <trkpt lat="34.001368" lon="-4.688830">
   <ele>599.00</ele>
   <time>2014-03-30T09:03:35Z</time>
  </trkpt>
  <trkpt lat="34.001017" lon="-4.688121">
   <ele>597.00</ele>
   <time>2014-03-30T09:03:39Z</time>
  </trkpt>
  <trkpt lat="34.000712" lon="-4.687557">
   <ele>596.00</ele>
   <time>2014-03-30T09:03:43Z</time>
  </trkpt>
  <trkpt lat="34.000558" lon="-4.687299">
   <ele>595.00</ele>
   <time>2014-03-30T09:03:45Z</time>
  </trkpt>
  <trkpt lat="34.000220" lon="-4.686759">
   <ele>594.00</ele>
   <time>2014-03-30T09:03:49Z</time>
  </trkpt>
  <trkpt lat="33.999758" lon="-4.686096">
   <ele>590.00</ele>
   <time>2014-03-30T09:03:54Z</time>
  </trkpt>
  <trkpt lat="33.998520" lon="-4.684366">
   <ele>580.00</ele>
   <time>2014-03-30T09:04:06Z</time>
  </trkpt>
  <trkpt lat="33.998315" lon="-4.684037">
   <ele>578.00</ele>
   <time>2014-03-30T09:04:08Z</time>
  </trkpt>
  <trkpt lat="33.998023" lon="-4.683516">
   <ele>575.00</ele>
   <time>2014-03-30T09:04:11Z</time>
  </trkpt>
  <trkpt lat="33.997840" lon="-4.683153">
   <ele>574.00</ele>
   <time>2014-03-30T09:04:13Z</time>
  </trkpt>
  <trkpt lat="33.997666" lon="-4.682776">
   <ele>572.00</ele>
   <time>2014-03-30T09:04:15Z</time>
  </trkpt>
  <trkpt lat="33.997502" lon="-4.682384">
   <ele>570.00</ele>
   <time>2014-03-30T09:04:17Z</time>
  </trkpt>
  <trkpt lat="33.997352" lon="-4.681979">
   <ele>568.00</ele>
   <time>2014-03-30T09:04:19Z</time>
  </trkpt>
  <trkpt lat="33.997149" lon="-4.681350">
   <ele>565.00</ele>
   <time>2014-03-30T09:04:22Z</time>
  </trkpt>
  <trkpt lat="33.997030" lon="-4.680914">
   <ele>563.00</ele>
   <time>2014-03-30T09:04:24Z</time>
  </trkpt>
  <trkpt lat="33.996872" lon="-4.680247">
   <ele>560.00</ele>
   <time>2014-03-30T09:04:27Z</time>
  </trkpt>
  <trkpt lat="33.996787" lon="-4.679795">
   <ele>558.00</ele>
   <time>2014-03-30T09:04:29Z</time>
  </trkpt>
  <trkpt lat="33.996724" lon="-4.679336">
   <ele>556.00</ele>
   <time>2014-03-30T09:04:31Z</time>
  </trkpt>
  <trkpt lat="33.996655" lon="-4.678638">
   <ele>554.00</ele>
   <time>2014-03-30T09:04:34Z</time>
  </trkpt>
  <trkpt lat="33.996632" lon="-4.678165">
   <ele>552.00</ele>
   <time>2014-03-30T09:04:36Z</time>
  </trkpt>
  <trkpt lat="33.996624" lon="-4.677686">
   <ele>550.00</ele>
   <time>2014-03-30T09:04:38Z</time>
  </trkpt>
  <trkpt lat="33.996635" lon="-4.677200">
   <ele>548.00</ele>
   <time>2014-03-30T09:04:40Z</time>
  </trkpt>
  <trkpt lat="33.996664" lon="-4.676712">
   <ele>546.00</ele>
   <time>2014-03-30T09:04:42Z</time>
  </trkpt>
  <trkpt lat="33.996713" lon="-4.676219">
   <ele>544.00</ele>
   <time>2014-03-30T09:04:44Z</time>
  </trkpt>
  <trkpt lat="33.996786" lon="-4.675720">
   <ele>543.00</ele>
   <time>2014-03-30T09:04:46Z</time>
  </trkpt>
  <trkpt lat="33.996876" lon="-4.675215">
   <ele>541.00</ele>
   <time>2014-03-30T09:04:48Z</time>
  </trkpt>
  <trkpt lat="33.996983" lon="-4.674709">
   <ele>540.00</ele>
   <time>2014-03-30T09:04:50Z</time>
  </trkpt>
  <trkpt lat="33.997114" lon="-4.674203">
   <ele>538.00</ele>
   <time>2014-03-30T09:04:52Z</time>
  </trkpt>
  <trkpt lat="33.997269" lon="-4.673699">
   <ele>537.00</ele>
   <time>2014-03-30T09:04:54Z</time>
  </trkpt>
  <trkpt lat="33.997444" lon="-4.673201">
   <ele>535.00</ele>
   <time>2014-03-30T09:04:56Z</time>
  </trkpt>
  <trkpt lat="33.997644" lon="-4.672714">
   <ele>533.00</ele>
   <time>2014-03-30T09:04:58Z</time>
  </trkpt>
  <trkpt lat="33.997865" lon="-4.672236">
   <ele>532.00</ele>
   <time>2014-03-30T09:05:00Z</time>
  </trkpt>
  <trkpt lat="33.998107" lon="-4.671769">
   <ele>531.00</ele>
   <time>2014-03-30T09:05:02Z</time>
  </trkpt>
  <trkpt lat="33.998368" lon="-4.671316">
   <ele>530.00</ele>
   <time>2014-03-30T09:05:04Z</time>
  </trkpt>
  <trkpt lat="33.998647" lon="-4.670878">
   <ele>529.00</ele>
   <time>2014-03-30T09:05:06Z</time>
  </trkpt>
  <trkpt lat="33.998945" lon="-4.670457">
   <ele>528.00</ele>
   <time>2014-03-30T09:05:08Z</time>
  </trkpt>
  <trkpt lat="33.999263" lon="-4.670055">
   <ele>527.00</ele>
   <time>2014-03-30T09:05:10Z</time>
  </trkpt>
  <trkpt lat="33.999596" lon="-4.669670">
   <ele>526.00</ele>
   <time>2014-03-30T09:05:12Z</time>
  </trkpt>
  <trkpt lat="34.000287" lon="-4.668932">
   <ele>524.00</ele>
   <time>2014-03-30T09:05:16Z</time>
  </trkpt>
  <trkpt lat="34.000974" lon="-4.668200">
   <ele>522.00</ele>
   <time>2014-03-30T09:05:20Z</time>
  </trkpt>
  <trkpt lat="34.001304" lon="-4.667812">
   <ele>522.00</ele>
   <time>2014-03-30T09:05:22Z</time>
  </trkpt>
  <trkpt lat="34.001619" lon="-4.667408">
   <ele>521.00</ele>
   <time>2014-03-30T09:05:24Z</time>
  </trkpt>
  <trkpt lat="34.001916" lon="-4.666991">
   <ele>520.00</ele>
   <time>2014-03-30T09:05:26Z</time>
  </trkpt>
  <trkpt lat="34.002197" lon="-4.666561">
   <ele>520.00</ele>
   <time>2014-03-30T09:05:28Z</time>
  </trkpt>
  <trkpt lat="34.002460" lon="-4.666118">
   <ele>519.00</ele>
   <time>2014-03-30T09:05:30Z</time>
  </trkpt>
  <trkpt lat="34.002708" lon="-4.665662">
   <ele>518.00</ele>
   <time>2014-03-30T09:05:32Z</time>
  </trkpt>
  <trkpt lat="34.002940" lon="-4.665191">
   <ele>518.00</ele>
   <time>2014-03-30T09:05:34Z</time>
  </trkpt>
  <trkpt lat="34.003156" lon="-4.664708">
   <ele>517.00</ele>
   <time>2014-03-30T09:05:36Z</time>
  </trkpt>
  <trkpt lat="34.003358" lon="-4.664210">
   <ele>517.00</ele>
   <time>2014-03-30T09:05:38Z</time>
  </trkpt>
  <trkpt lat="34.003543" lon="-4.663699">
   <ele>516.00</ele>
   <time>2014-03-30T09:05:40Z</time>
  </trkpt>
  <trkpt lat="34.003709" lon="-4.663177">
   <ele>515.00</ele>
   <time>2014-03-30T09:05:42Z</time>
  </trkpt>
  <trkpt lat="34.003853" lon="-4.662649">
   <ele>514.00</ele>
   <time>2014-03-30T09:05:44Z</time>
  </trkpt>
  <trkpt lat="34.004519" lon="-4.660020">
   <ele>509.00</ele>
   <time>2014-03-30T09:05:54Z</time>
  </trkpt>
  <trkpt lat="34.004682" lon="-4.659515">
   <ele>508.00</ele>
   <time>2014-03-30T09:05:56Z</time>
  </trkpt>
  <trkpt lat="34.004865" lon="-4.659024">
   <ele>507.00</ele>
   <time>2014-03-30T09:05:58Z</time>
  </trkpt>
  <trkpt lat="34.005070" lon="-4.658544">
   <ele>506.00</ele>
   <time>2014-03-30T09:06:00Z</time>
  </trkpt>
  <trkpt lat="34.005298" lon="-4.658077">
   <ele>505.00</ele>
   <time>2014-03-30T09:06:02Z</time>
  </trkpt>
  <trkpt lat="34.005546" lon="-4.657616">
   <ele>505.00</ele>
   <time>2014-03-30T09:06:04Z</time>
  </trkpt>
  <trkpt lat="34.005817" lon="-4.657162">
   <ele>504.00</ele>
   <time>2014-03-30T09:06:06Z</time>
  </trkpt>
  <trkpt lat="34.006114" lon="-4.656722">
   <ele>504.00</ele>
   <time>2014-03-30T09:06:08Z</time>
  </trkpt>
  <trkpt lat="34.006433" lon="-4.656300">
   <ele>504.00</ele>
   <time>2014-03-30T09:06:10Z</time>
  </trkpt>
  <trkpt lat="34.006935" lon="-4.655694">
   <ele>504.00</ele>
   <time>2014-03-30T09:06:13Z</time>
  </trkpt>
  <trkpt lat="34.009663" lon="-4.652533">
   <ele>503.00</ele>
   <time>2014-03-30T09:06:29Z</time>
  </trkpt>
  <trkpt lat="34.012279" lon="-4.649477">
   <ele>501.00</ele>
   <time>2014-03-30T09:06:44Z</time>
  </trkpt>
  <trkpt lat="34.012600" lon="-4.649054">
   <ele>500.00</ele>
   <time>2014-03-30T09:06:46Z</time>
  </trkpt>
  <trkpt lat="34.012750" lon="-4.648834">
   <ele>500.00</ele>
   <time>2014-03-30T09:06:47Z</time>
  </trkpt>
  <trkpt lat="34.013030" lon="-4.648379">
   <ele>499.00</ele>
   <time>2014-03-30T09:06:49Z</time>
  </trkpt>
  <trkpt lat="34.013284" lon="-4.647903">
   <ele>498.00</ele>
   <time>2014-03-30T09:06:51Z</time>
  </trkpt>
  <trkpt lat="34.013516" lon="-4.647405">
   <ele>497.00</ele>
   <time>2014-03-30T09:06:53Z</time>
  </trkpt>
  <trkpt lat="34.013719" lon="-4.646884">
   <ele>495.00</ele>
   <time>2014-03-30T09:06:55Z</time>
  </trkpt>
  <trkpt lat="34.013893" lon="-4.646343">
   <ele>493.00</ele>
   <time>2014-03-30T09:06:57Z</time>
  </trkpt>
  <trkpt lat="34.013967" lon="-4.646065">
   <ele>491.00</ele>
   <time>2014-03-30T09:06:58Z</time>
  </trkpt>
  <trkpt lat="34.014094" lon="-4.645499">
   <ele>488.00</ele>
   <time>2014-03-30T09:07:00Z</time>
  </trkpt>
  <trkpt lat="34.014187" lon="-4.644925">
   <ele>485.00</ele>
   <time>2014-03-30T09:07:02Z</time>
  </trkpt>
  <trkpt lat="34.014245" lon="-4.644348">
   <ele>481.00</ele>
   <time>2014-03-30T09:07:04Z</time>
  </trkpt>
  <trkpt lat="34.014271" lon="-4.643771">
   <ele>478.00</ele>
   <time>2014-03-30T09:07:06Z</time>
  </trkpt>
  <trkpt lat="34.014266" lon="-4.643188">
   <ele>474.00</ele>
   <time>2014-03-30T09:07:08Z</time>
  </trkpt>
  <trkpt lat="34.014250" lon="-4.642894">
   <ele>472.00</ele>
   <time>2014-03-30T09:07:09Z</time>
  </trkpt>
  <trkpt lat="34.014193" lon="-4.642307">
   <ele>469.00</ele>
   <time>2014-03-30T09:07:11Z</time>
  </trkpt>
  <trkpt lat="34.014103" lon="-4.641728">
   <ele>466.00</ele>
   <time>2014-03-30T09:07:13Z</time>
  </trkpt>
  <trkpt lat="34.013673" lon="-4.639465">
   <ele>455.00</ele>
   <time>2014-03-30T09:07:21Z</time>
  </trkpt>
  <trkpt lat="34.013612" lon="-4.638889">
   <ele>453.00</ele>
   <time>2014-03-30T09:07:23Z</time>
  </trkpt>
  <trkpt lat="34.013582" lon="-4.638308">
   <ele>450.00</ele>
   <time>2014-03-30T09:07:25Z</time>
  </trkpt>
  <trkpt lat="34.013585" lon="-4.637722">
   <ele>448.00</ele>
   <time>2014-03-30T09:07:27Z</time>
  </trkpt>
  <trkpt lat="34.013600" lon="-4.637428">
   <ele>447.00</ele>
   <time>2014-03-30T09:07:28Z</time>
  </trkpt>
  <trkpt lat="34.013623" lon="-4.637134">
   <ele>446.00</ele>
   <time>2014-03-30T09:07:29Z</time>
  </trkpt>
  <trkpt lat="34.013655" lon="-4.636842">
   <ele>445.00</ele>
   <time>2014-03-30T09:07:30Z</time>
  </trkpt>
  <trkpt lat="34.013697" lon="-4.636552">
   <ele>444.00</ele>
   <time>2014-03-30T09:07:31Z</time>
  </trkpt>
  <trkpt lat="34.013748" lon="-4.636263">
   <ele>443.00</ele>
   <time>2014-03-30T09:07:32Z</time>
  </trkpt>
  <trkpt lat="34.013870" lon="-4.635689">
   <ele>442.00</ele>
   <time>2014-03-30T09:07:34Z</time>
  </trkpt>
  <trkpt lat="34.014023" lon="-4.635120">
   <ele>440.00</ele>
   <time>2014-03-30T09:07:36Z</time>
  </trkpt>
  <trkpt lat="34.014113" lon="-4.634840">
   <ele>440.00</ele>
   <time>2014-03-30T09:07:37Z</time>
  </trkpt>
  <trkpt lat="34.014317" lon="-4.634289">
   <ele>439.00</ele>
   <time>2014-03-30T09:07:39Z</time>
  </trkpt>
  <trkpt lat="34.014431" lon="-4.634020">
   <ele>438.00</ele>
   <time>2014-03-30T09:07:40Z</time>
  </trkpt>
  <trkpt lat="34.014555" lon="-4.633759">
   <ele>438.00</ele>
   <time>2014-03-30T09:07:41Z</time>
  </trkpt>
  <trkpt lat="34.014825" lon="-4.633252">
   <ele>436.00</ele>
   <time>2014-03-30T09:07:43Z</time>
  </trkpt>
  <trkpt lat="34.014970" lon="-4.633007">
   <ele>435.00</ele>
   <time>2014-03-30T09:07:44Z</time>
  </trkpt>
  <trkpt lat="34.015280" lon="-4.632535">
   <ele>434.00</ele>
   <time>2014-03-30T09:07:46Z</time>
  </trkpt>
  <trkpt lat="34.015444" lon="-4.632309">
   <ele>433.00</ele>
   <time>2014-03-30T09:07:47Z</time>
  </trkpt>
  <trkpt lat="34.015614" lon="-4.632092">
   <ele>433.00</ele>
   <time>2014-03-30T09:07:48Z</time>
  </trkpt>
  <trkpt lat="34.015971" lon="-4.631676">
   <ele>432.00</ele>
   <time>2014-03-30T09:07:50Z</time>
  </trkpt>
  <trkpt lat="34.016342" lon="-4.631282">
   <ele>431.00</ele>
   <time>2014-03-30T09:07:52Z</time>
  </trkpt>
  <trkpt lat="34.017459" lon="-4.630118">
   <ele>431.00</ele>
   <time>2014-03-30T09:07:58Z</time>
  </trkpt>
  <trkpt lat="34.017799" lon="-4.629697">
   <ele>431.00</ele>
   <time>2014-03-30T09:08:00Z</time>
  </trkpt>
  <trkpt lat="34.018118" lon="-4.629250">
   <ele>432.00</ele>
   <time>2014-03-30T09:08:02Z</time>
  </trkpt>
  <trkpt lat="34.018269" lon="-4.629017">
   <ele>432.00</ele>
   <time>2014-03-30T09:08:03Z</time>
  </trkpt>
  <trkpt lat="34.018556" lon="-4.628531">
   <ele>433.00</ele>
   <time>2014-03-30T09:08:05Z</time>
  </trkpt>
  <trkpt lat="34.018817" lon="-4.628025">
   <ele>434.00</ele>
   <time>2014-03-30T09:08:07Z</time>
  </trkpt>
  <trkpt lat="34.019048" lon="-4.627503">
   <ele>435.00</ele>
   <time>2014-03-30T09:08:09Z</time>
  </trkpt>
  <trkpt lat="34.019250" lon="-4.626969">
   <ele>435.00</ele>
   <time>2014-03-30T09:08:11Z</time>
  </trkpt>
  <trkpt lat="34.019424" lon="-4.626422">
   <ele>435.00</ele>
   <time>2014-03-30T09:08:13Z</time>
  </trkpt>
  <trkpt lat="34.019569" lon="-4.625861">
   <ele>435.00</ele>
   <time>2014-03-30T09:08:15Z</time>
  </trkpt>
  <trkpt lat="34.019688" lon="-4.625295">
   <ele>435.00</ele>
   <time>2014-03-30T09:08:17Z</time>
  </trkpt>
  <trkpt lat="34.019984" lon="-4.623880">
   <ele>436.00</ele>
   <time>2014-03-30T09:08:22Z</time>
  </trkpt>
  <trkpt lat="34.020132" lon="-4.623328">
   <ele>437.00</ele>
   <time>2014-03-30T09:08:24Z</time>
  </trkpt>
  <trkpt lat="34.020307" lon="-4.622786">
   <ele>437.00</ele>
   <time>2014-03-30T09:08:26Z</time>
  </trkpt>
  <trkpt lat="34.020510" lon="-4.622260">
   <ele>438.00</ele>
   <time>2014-03-30T09:08:28Z</time>
  </trkpt>
  <trkpt lat="34.020735" lon="-4.621748">
   <ele>439.00</ele>
   <time>2014-03-30T09:08:30Z</time>
  </trkpt>
  <trkpt lat="34.020984" lon="-4.621251">
   <ele>440.00</ele>
   <time>2014-03-30T09:08:32Z</time>
  </trkpt>
  <trkpt lat="34.021258" lon="-4.620773">
   <ele>441.00</ele>
   <time>2014-03-30T09:08:34Z</time>
  </trkpt>
  <trkpt lat="34.021554" lon="-4.620321">
   <ele>442.00</ele>
   <time>2014-03-30T09:08:36Z</time>
  </trkpt>
  <trkpt lat="34.021870" lon="-4.619889">
   <ele>443.00</ele>
   <time>2014-03-30T09:08:38Z</time>
  </trkpt>
  <trkpt lat="34.022369" lon="-4.619261">
   <ele>445.00</ele>
   <time>2014-03-30T09:08:41Z</time>
  </trkpt>
  <trkpt lat="34.023024" lon="-4.618433">
   <ele>447.00</ele>
   <time>2014-03-30T09:08:45Z</time>
  </trkpt>
  <trkpt lat="34.023332" lon="-4.617999">
   <ele>449.00</ele>
   <time>2014-03-30T09:08:47Z</time>
  </trkpt>
  <trkpt lat="34.023622" lon="-4.617544">
   <ele>451.00</ele>
   <time>2014-03-30T09:08:49Z</time>
  </trkpt>
  <trkpt lat="34.023892" lon="-4.617069">
   <ele>453.00</ele>
   <time>2014-03-30T09:08:51Z</time>
  </trkpt>
  <trkpt lat="34.024141" lon="-4.616576">
   <ele>455.00</ele>
   <time>2014-03-30T09:08:53Z</time>
  </trkpt>
  <trkpt lat="34.024367" lon="-4.616070">
   <ele>456.00</ele>
   <time>2014-03-30T09:08:55Z</time>
  </trkpt>
  <trkpt lat="34.024570" lon="-4.615548">
   <ele>458.00</ele>
   <time>2014-03-30T09:08:57Z</time>
  </trkpt>
  <trkpt lat="34.024748" lon="-4.615011">
   <ele>460.00</ele>
   <time>2014-03-30T09:08:59Z</time>
  </trkpt>
  <trkpt lat="34.024902" lon="-4.614463">
   <ele>461.00</ele>
   <time>2014-03-30T09:09:01Z</time>
  </trkpt>
  <trkpt lat="34.025031" lon="-4.613909">
   <ele>463.00</ele>
   <time>2014-03-30T09:09:03Z</time>
  </trkpt>
  <trkpt lat="34.025135" lon="-4.613346">
   <ele>464.00</ele>
   <time>2014-03-30T09:09:05Z</time>
  </trkpt>
  <trkpt lat="34.025213" lon="-4.612776">
   <ele>465.00</ele>
   <time>2014-03-30T09:09:07Z</time>
  </trkpt>
  <trkpt lat="34.025269" lon="-4.612196">
   <ele>466.00</ele>
   <time>2014-03-30T09:09:09Z</time>
  </trkpt>
  <trkpt lat="34.025579" lon="-4.607498">
   <ele>469.00</ele>
   <time>2014-03-30T09:09:25Z</time>
  </trkpt>
  <trkpt lat="34.025887" lon="-4.602977">
   <ele>465.00</ele>
   <time>2014-03-30T09:09:40Z</time>
  </trkpt>
  <trkpt lat="34.026197" lon="-4.598532">
   <ele>462.00</ele>
   <time>2014-03-30T09:09:55Z</time>
  </trkpt>
  <trkpt lat="34.026532" lon="-4.593754">
   <ele>456.00</ele>
   <time>2014-03-30T09:10:11Z</time>
  </trkpt>
  <trkpt lat="34.026863" lon="-4.589255">
   <ele>443.00</ele>
   <time>2014-03-30T09:10:26Z</time>
  </trkpt>
  <trkpt lat="34.026965" lon="-4.588357">
   <ele>440.00</ele>
   <time>2014-03-30T09:10:29Z</time>
  </trkpt>
  <trkpt lat="34.027057" lon="-4.587765">
   <ele>438.00</ele>
   <time>2014-03-30T09:10:31Z</time>
  </trkpt>
  <trkpt lat="34.027172" lon="-4.587181">
   <ele>436.00</ele>
   <time>2014-03-30T09:10:33Z</time>
  </trkpt>
  <trkpt lat="34.027315" lon="-4.586604">
   <ele>434.00</ele>
   <time>2014-03-30T09:10:35Z</time>
  </trkpt>
  <trkpt lat="34.027485" lon="-4.586035">
   <ele>432.00</ele>
   <time>2014-03-30T09:10:37Z</time>
  </trkpt>
  <trkpt lat="34.027687" lon="-4.585480">
   <ele>429.00</ele>
   <time>2014-03-30T09:10:39Z</time>
  </trkpt>
  <trkpt lat="34.027917" lon="-4.584943">
   <ele>427.00</ele>
   <time>2014-03-30T09:10:41Z</time>
  </trkpt>
  <trkpt lat="34.028172" lon="-4.584426">
   <ele>425.00</ele>
   <time>2014-03-30T09:10:43Z</time>
  </trkpt>
  <trkpt lat="34.028452" lon="-4.583933">
   <ele>423.00</ele>
   <time>2014-03-30T09:10:45Z</time>
  </trkpt>
  <trkpt lat="34.028603" lon="-4.583695">
   <ele>421.00</ele>
   <time>2014-03-30T09:10:46Z</time>
  </trkpt>
  <trkpt lat="34.028923" lon="-4.583237">
   <ele>419.00</ele>
   <time>2014-03-30T09:10:48Z</time>
  </trkpt>
  <trkpt lat="34.029092" lon="-4.583017">
   <ele>418.00</ele>
   <time>2014-03-30T09:10:49Z</time>
  </trkpt>
  <trkpt lat="34.029446" lon="-4.582595">
   <ele>416.00</ele>
   <time>2014-03-30T09:10:51Z</time>
  </trkpt>
  <trkpt lat="34.029812" lon="-4.582203">
   <ele>415.00</ele>
   <time>2014-03-30T09:10:53Z</time>
  </trkpt>
  <trkpt lat="34.030188" lon="-4.581835">
   <ele>414.00</ele>
   <time>2014-03-30T09:10:55Z</time>
  </trkpt>
  <trkpt lat="34.030960" lon="-4.581130">
   <ele>413.00</ele>
   <time>2014-03-30T09:10:59Z</time>
  </trkpt>
  <trkpt lat="34.032316" lon="-4.579910">
   <ele>414.00</ele>
   <time>2014-03-30T09:11:06Z</time>
  </trkpt>
  <trkpt lat="34.032683" lon="-4.579532">
   <ele>415.00</ele>
   <time>2014-03-30T09:11:08Z</time>
  </trkpt>
  <trkpt lat="34.033208" lon="-4.578940">
   <ele>416.00</ele>
   <time>2014-03-30T09:11:11Z</time>
  </trkpt>
  <trkpt lat="34.033540" lon="-4.578524">
   <ele>417.00</ele>
   <time>2014-03-30T09:11:13Z</time>
  </trkpt>
  <trkpt lat="34.033858" lon="-4.578087">
   <ele>418.00</ele>
   <time>2014-03-30T09:11:15Z</time>
  </trkpt>
  <trkpt lat="34.034161" lon="-4.577634">
   <ele>418.00</ele>
   <time>2014-03-30T09:11:17Z</time>
  </trkpt>
  <trkpt lat="34.034449" lon="-4.577161">
   <ele>418.00</ele>
   <time>2014-03-30T09:11:19Z</time>
  </trkpt>
  <trkpt lat="34.034720" lon="-4.576673">
   <ele>419.00</ele>
   <time>2014-03-30T09:11:21Z</time>
  </trkpt>
  <trkpt lat="34.034974" lon="-4.576171">
   <ele>418.00</ele>
   <time>2014-03-30T09:11:23Z</time>
  </trkpt>
  <trkpt lat="34.035213" lon="-4.575657">
   <ele>418.00</ele>
   <time>2014-03-30T09:11:25Z</time>
  </trkpt>
  <trkpt lat="34.035540" lon="-4.574861">
   <ele>416.00</ele>
   <time>2014-03-30T09:11:28Z</time>
  </trkpt>
  <trkpt lat="34.036145" lon="-4.573231">
   <ele>412.00</ele>
   <time>2014-03-30T09:11:34Z</time>
  </trkpt>
  <trkpt lat="34.036857" lon="-4.571309">
   <ele>404.00</ele>
   <time>2014-03-30T09:11:41Z</time>
  </trkpt>
  <trkpt lat="34.037205" lon="-4.570497">
   <ele>399.00</ele>
   <time>2014-03-30T09:11:44Z</time>
  </trkpt>
  <trkpt lat="34.037590" lon="-4.569711">
   <ele>395.00</ele>
   <time>2014-03-30T09:11:47Z</time>
  </trkpt>
  <trkpt lat="34.038140" lon="-4.568696">
   <ele>389.00</ele>
   <time>2014-03-30T09:11:51Z</time>
  </trkpt>
  <trkpt lat="34.039829" lon="-4.565755">
   <ele>372.00</ele>
   <time>2014-03-30T09:12:03Z</time>
  </trkpt>
  <trkpt lat="34.040209" lon="-4.564973">
   <ele>368.00</ele>
   <time>2014-03-30T09:12:06Z</time>
  </trkpt>
  <trkpt lat="34.040446" lon="-4.564449">
   <ele>366.00</ele>
   <time>2014-03-30T09:12:08Z</time>
  </trkpt>
  <trkpt lat="34.040663" lon="-4.563911">
   <ele>363.00</ele>
   <time>2014-03-30T09:12:10Z</time>
  </trkpt>
  <trkpt lat="34.040964" lon="-4.563096">
   <ele>359.00</ele>
   <time>2014-03-30T09:12:13Z</time>
  </trkpt>
  <trkpt lat="34.041238" lon="-4.562263">
   <ele>356.00</ele>
   <time>2014-03-30T09:12:16Z</time>
  </trkpt>
  <trkpt lat="34.041402" lon="-4.561697">
   <ele>354.00</ele>
   <time>2014-03-30T09:12:18Z</time>
  </trkpt>
  <trkpt lat="34.041622" lon="-4.560832">
   <ele>351.00</ele>
   <time>2014-03-30T09:12:21Z</time>
  </trkpt>
  <trkpt lat="34.041748" lon="-4.560253">
   <ele>350.00</ele>
   <time>2014-03-30T09:12:23Z</time>
  </trkpt>
  <trkpt lat="34.041908" lon="-4.559382">
   <ele>348.00</ele>
   <time>2014-03-30T09:12:26Z</time>
  </trkpt>
  <trkpt lat="34.041996" lon="-4.558801">
   <ele>347.00</ele>
   <time>2014-03-30T09:12:28Z</time>
  </trkpt>
  <trkpt lat="34.042098" lon="-4.557923">
   <ele>347.00</ele>
   <time>2014-03-30T09:12:31Z</time>
  </trkpt>
  <trkpt lat="34.042165" lon="-4.557043">
   <ele>347.00</ele>
   <time>2014-03-30T09:12:34Z</time>
  </trkpt>
  <trkpt lat="34.042213" lon="-4.555887">
   <ele>347.00</ele>
   <time>2014-03-30T09:12:38Z</time>
  </trkpt>
  <trkpt lat="34.042205" lon="-4.555015">
   <ele>348.00</ele>
   <time>2014-03-30T09:12:41Z</time>
  </trkpt>
  <trkpt lat="34.042033" lon="-4.550563">
   <ele>363.00</ele>
   <time>2014-03-30T09:12:56Z</time>
  </trkpt>
  <trkpt lat="34.042057" lon="-4.549971">
   <ele>365.00</ele>
   <time>2014-03-30T09:12:58Z</time>
  </trkpt>
  <trkpt lat="34.042101" lon="-4.549379">
   <ele>367.00</ele>
   <time>2014-03-30T09:13:00Z</time>
  </trkpt>
  <trkpt lat="34.042166" lon="-4.548792">
   <ele>369.00</ele>
   <time>2014-03-30T09:13:02Z</time>
  </trkpt>
  <trkpt lat="34.042254" lon="-4.548210">
   <ele>372.00</ele>
   <time>2014-03-30T09:13:04Z</time>
  </trkpt>
  <trkpt lat="34.042362" lon="-4.547633">
   <ele>374.00</ele>
   <time>2014-03-30T09:13:06Z</time>
  </trkpt>
  <trkpt lat="34.042492" lon="-4.547063">
   <ele>376.00</ele>
   <time>2014-03-30T09:13:08Z</time>
  </trkpt>
  <trkpt lat="34.042648" lon="-4.546502">
   <ele>378.00</ele>
   <time>2014-03-30T09:13:10Z</time>
  </trkpt>
  <trkpt lat="34.042918" lon="-4.545686">
   <ele>381.00</ele>
   <time>2014-03-30T09:13:13Z</time>
  </trkpt>
  <trkpt lat="34.043222" lon="-4.544882">
   <ele>383.00</ele>
   <time>2014-03-30T09:13:16Z</time>
  </trkpt>
  <trkpt lat="34.043825" lon="-4.543272">
   <ele>385.00</ele>
   <time>2014-03-30T09:13:22Z</time>
  </trkpt>
  <trkpt lat="34.043997" lon="-4.542718">
   <ele>386.00</ele>
   <time>2014-03-30T09:13:24Z</time>
  </trkpt>
  <trkpt lat="34.044147" lon="-4.542151">
   <ele>386.00</ele>
   <time>2014-03-30T09:13:26Z</time>
  </trkpt>
  <trkpt lat="34.044269" lon="-4.541578">
   <ele>386.00</ele>
   <time>2014-03-30T09:13:28Z</time>
  </trkpt>
  <trkpt lat="34.044363" lon="-4.540997">
   <ele>385.00</ele>
   <time>2014-03-30T09:13:30Z</time>
  </trkpt>
  <trkpt lat="34.044432" lon="-4.540416">
   <ele>384.00</ele>
   <time>2014-03-30T09:13:32Z</time>
  </trkpt>
  <trkpt lat="34.044474" lon="-4.539835">
   <ele>383.00</ele>
   <time>2014-03-30T09:13:34Z</time>
  </trkpt>
  <trkpt lat="34.044496" lon="-4.539249">
   <ele>382.00</ele>
   <time>2014-03-30T09:13:36Z</time>
  </trkpt>
  <trkpt lat="34.044533" lon="-4.537208">
   <ele>378.00</ele>
   <time>2014-03-30T09:13:43Z</time>
  </trkpt>
  <trkpt lat="34.044578" lon="-4.536627">
   <ele>376.00</ele>
   <time>2014-03-30T09:13:45Z</time>
  </trkpt>
  <trkpt lat="34.044651" lon="-4.536049">
   <ele>375.00</ele>
   <time>2014-03-30T09:13:47Z</time>
  </trkpt>
  <trkpt lat="34.044752" lon="-4.535478">
   <ele>374.00</ele>
   <time>2014-03-30T09:13:49Z</time>
  </trkpt>
  <trkpt lat="34.044879" lon="-4.534914">
   <ele>372.00</ele>
   <time>2014-03-30T09:13:51Z</time>
  </trkpt>
  <trkpt lat="34.045029" lon="-4.534361">
   <ele>371.00</ele>
   <time>2014-03-30T09:13:53Z</time>
  </trkpt>
  <trkpt lat="34.045203" lon="-4.533817">
   <ele>370.00</ele>
   <time>2014-03-30T09:13:55Z</time>
  </trkpt>
  <trkpt lat="34.045402" lon="-4.533286">
   <ele>369.00</ele>
   <time>2014-03-30T09:13:57Z</time>
  </trkpt>
  <trkpt lat="34.045626" lon="-4.532770">
   <ele>367.00</ele>
   <time>2014-03-30T09:13:59Z</time>
  </trkpt>
  <trkpt lat="34.045872" lon="-4.532270">
   <ele>366.00</ele>
   <time>2014-03-30T09:14:01Z</time>
  </trkpt>
  <trkpt lat="34.046141" lon="-4.531786">
   <ele>364.00</ele>
   <time>2014-03-30T09:14:03Z</time>
  </trkpt>
  <trkpt lat="34.046433" lon="-4.531322">
   <ele>363.00</ele>
   <time>2014-03-30T09:14:05Z</time>
  </trkpt>
  <trkpt lat="34.046744" lon="-4.530876">
   <ele>362.00</ele>
   <time>2014-03-30T09:14:07Z</time>
  </trkpt>
  <trkpt lat="34.047073" lon="-4.530453">
   <ele>360.00</ele>
   <time>2014-03-30T09:14:09Z</time>
  </trkpt>
  <trkpt lat="34.047419" lon="-4.530051">
   <ele>359.00</ele>
   <time>2014-03-30T09:14:11Z</time>
  </trkpt>
  <trkpt lat="34.047778" lon="-4.529672">
   <ele>359.00</ele>
   <time>2014-03-30T09:14:13Z</time>
  </trkpt>
  <trkpt lat="34.048148" lon="-4.529320">
   <ele>360.00</ele>
   <time>2014-03-30T09:14:15Z</time>
  </trkpt>
  <trkpt lat="34.048529" lon="-4.528993">
   <ele>360.00</ele>
   <time>2014-03-30T09:14:17Z</time>
  </trkpt>
  <trkpt lat="34.048923" lon="-4.528690">
   <ele>362.00</ele>
   <time>2014-03-30T09:14:19Z</time>
  </trkpt>
  <trkpt lat="34.049327" lon="-4.528417">
   <ele>365.00</ele>
   <time>2014-03-30T09:14:21Z</time>
  </trkpt>
  <trkpt lat="34.049738" lon="-4.528171">
   <ele>368.00</ele>
   <time>2014-03-30T09:14:23Z</time>
  </trkpt>
  <trkpt lat="34.050157" lon="-4.527950">
   <ele>371.00</ele>
   <time>2014-03-30T09:14:25Z</time>
  </trkpt>
  <trkpt lat="34.050585" lon="-4.527750">
   <ele>374.00</ele>
   <time>2014-03-30T09:14:27Z</time>
  </trkpt>
  <trkpt lat="34.051462" lon="-4.527393">
   <ele>380.00</ele>
   <time>2014-03-30T09:14:31Z</time>
  </trkpt>
  <trkpt lat="34.053707" lon="-4.526538">
   <ele>389.00</ele>
   <time>2014-03-30T09:14:41Z</time>
  </trkpt>
  <trkpt lat="34.054146" lon="-4.526332">
   <ele>391.00</ele>
   <time>2014-03-30T09:14:43Z</time>
  </trkpt>
  <trkpt lat="34.054576" lon="-4.526107">
   <ele>392.00</ele>
   <time>2014-03-30T09:14:45Z</time>
  </trkpt>
  <trkpt lat="34.055422" lon="-4.525617">
   <ele>393.00</ele>
   <time>2014-03-30T09:14:49Z</time>
  </trkpt>
  <trkpt lat="34.055629" lon="-4.525481">
   <ele>393.00</ele>
   <time>2014-03-30T09:14:50Z</time>
  </trkpt>
  <trkpt lat="34.056248" lon="-4.525036">
   <ele>393.00</ele>
   <time>2014-03-30T09:14:53Z</time>
  </trkpt>
  <trkpt lat="34.058490" lon="-4.523338">
   <ele>388.00</ele>
   <time>2014-03-30T09:15:04Z</time>
  </trkpt>
  <trkpt lat="34.059133" lon="-4.522923">
   <ele>385.00</ele>
   <time>2014-03-30T09:15:07Z</time>
  </trkpt>
  <trkpt lat="34.059572" lon="-4.522676">
   <ele>383.00</ele>
   <time>2014-03-30T09:15:09Z</time>
  </trkpt>
  <trkpt lat="34.060014" lon="-4.522455">
   <ele>381.00</ele>
   <time>2014-03-30T09:15:11Z</time>
  </trkpt>
  <trkpt lat="34.060686" lon="-4.522158">
   <ele>377.00</ele>
   <time>2014-03-30T09:15:14Z</time>
  </trkpt>
  <trkpt lat="34.061148" lon="-4.521981">
   <ele>374.00</ele>
   <time>2014-03-30T09:15:16Z</time>
  </trkpt>
  <trkpt lat="34.061862" lon="-4.521747">
   <ele>370.00</ele>
   <time>2014-03-30T09:15:19Z</time>
  </trkpt>
  <trkpt lat="34.064475" lon="-4.520985">
   <ele>354.00</ele>
   <time>2014-03-30T09:15:30Z</time>
  </trkpt>
  <trkpt lat="34.064929" lon="-4.520798">
   <ele>351.00</ele>
   <time>2014-03-30T09:15:32Z</time>
  </trkpt>
  <trkpt lat="34.065375" lon="-4.520582">
   <ele>348.00</ele>
   <time>2014-03-30T09:15:34Z</time>
  </trkpt>
  <trkpt lat="34.065809" lon="-4.520337">
   <ele>345.00</ele>
   <time>2014-03-30T09:15:36Z</time>
  </trkpt>
  <trkpt lat="34.066231" lon="-4.520064">
   <ele>343.00</ele>
   <time>2014-03-30T09:15:38Z</time>
  </trkpt>
  <trkpt lat="34.066640" lon="-4.519759">
   <ele>341.00</ele>
   <time>2014-03-30T09:15:40Z</time>
  </trkpt>
  <trkpt lat="34.067234" lon="-4.519264">
   <ele>337.00</ele>
   <time>2014-03-30T09:15:43Z</time>
  </trkpt>
  <trkpt lat="34.067611" lon="-4.518902">
   <ele>335.00</ele>
   <time>2014-03-30T09:15:45Z</time>
  </trkpt>
  <trkpt lat="34.067792" lon="-4.518710">
   <ele>334.00</ele>
   <time>2014-03-30T09:15:46Z</time>
  </trkpt>
  <trkpt lat="34.068137" lon="-4.518303">
   <ele>333.00</ele>
   <time>2014-03-30T09:15:48Z</time>
  </trkpt>
  <trkpt lat="34.068465" lon="-4.517875">
   <ele>332.00</ele>
   <time>2014-03-30T09:15:50Z</time>
  </trkpt>
  <trkpt lat="34.068777" lon="-4.517428">
   <ele>331.00</ele>
   <time>2014-03-30T09:15:52Z</time>
  </trkpt>
  <trkpt lat="34.069070" lon="-4.516960">
   <ele>331.00</ele>
   <time>2014-03-30T09:15:54Z</time>
  </trkpt>
  <trkpt lat="34.069342" lon="-4.516474">
   <ele>331.00</ele>
   <time>2014-03-30T09:15:56Z</time>
  </trkpt>
  <trkpt lat="34.069590" lon="-4.515973">
   <ele>331.00</ele>
   <time>2014-03-30T09:15:58Z</time>
  </trkpt>
  <trkpt lat="34.069814" lon="-4.515457">
   <ele>331.00</ele>
   <time>2014-03-30T09:16:00Z</time>
  </trkpt>
  <trkpt lat="34.070010" lon="-4.514923">
   <ele>331.00</ele>
   <time>2014-03-30T09:16:02Z</time>
  </trkpt>
  <trkpt lat="34.070185" lon="-4.514374">
   <ele>331.00</ele>
   <time>2014-03-30T09:16:04Z</time>
  </trkpt>
  <trkpt lat="34.070336" lon="-4.513818">
   <ele>332.00</ele>
   <time>2014-03-30T09:16:06Z</time>
  </trkpt>
  <trkpt lat="34.070464" lon="-4.513256">
   <ele>333.00</ele>
   <time>2014-03-30T09:16:08Z</time>
  </trkpt>
  <trkpt lat="34.070563" lon="-4.512691">
   <ele>333.00</ele>
   <time>2014-03-30T09:16:10Z</time>
  </trkpt>
  <trkpt lat="34.070637" lon="-4.512119">
   <ele>334.00</ele>
   <time>2014-03-30T09:16:12Z</time>
  </trkpt>
  <trkpt lat="34.070723" lon="-4.511257">
   <ele>336.00</ele>
   <time>2014-03-30T09:16:15Z</time>
  </trkpt>
  <trkpt lat="34.070953" lon="-4.508640">
   <ele>344.00</ele>
   <time>2014-03-30T09:16:24Z</time>
  </trkpt>
  <trkpt lat="34.071043" lon="-4.508069">
   <ele>346.00</ele>
   <time>2014-03-30T09:16:26Z</time>
  </trkpt>
  <trkpt lat="34.071204" lon="-4.507223">
   <ele>349.00</ele>
   <time>2014-03-30T09:16:29Z</time>
  </trkpt>
  <trkpt lat="34.071394" lon="-4.506391">
   <ele>352.00</ele>
   <time>2014-03-30T09:16:32Z</time>
  </trkpt>
  <trkpt lat="34.071541" lon="-4.505842">
   <ele>354.00</ele>
   <time>2014-03-30T09:16:34Z</time>
  </trkpt>
  <trkpt lat="34.071791" lon="-4.505034">
   <ele>357.00</ele>
   <time>2014-03-30T09:16:37Z</time>
  </trkpt>
  <trkpt lat="34.072069" lon="-4.504240">
   <ele>361.00</ele>
   <time>2014-03-30T09:16:40Z</time>
  </trkpt>
  <trkpt lat="34.072378" lon="-4.503464">
   <ele>364.00</ele>
   <time>2014-03-30T09:16:43Z</time>
  </trkpt>
  <trkpt lat="34.072727" lon="-4.502703">
   <ele>367.00</ele>
   <time>2014-03-30T09:16:46Z</time>
  </trkpt>
  <trkpt lat="34.072983" lon="-4.502209">
   <ele>368.00</ele>
   <time>2014-03-30T09:16:48Z</time>
  </trkpt>
  <trkpt lat="34.073255" lon="-4.501727">
   <ele>370.00</ele>
   <time>2014-03-30T09:16:50Z</time>
  </trkpt>
  <trkpt lat="34.073542" lon="-4.501259">
   <ele>372.00</ele>
   <time>2014-03-30T09:16:52Z</time>
  </trkpt>
  <trkpt lat="34.074148" lon="-4.500353">
   <ele>376.00</ele>
   <time>2014-03-30T09:16:56Z</time>
  </trkpt>
  <trkpt lat="34.076470" lon="-4.497031">
   <ele>391.00</ele>
   <time>2014-03-30T09:17:11Z</time>
  </trkpt>
  <trkpt lat="34.078954" lon="-4.493478">
   <ele>408.00</ele>
   <time>2014-03-30T09:17:27Z</time>
  </trkpt>
  <trkpt lat="34.081268" lon="-4.490158">
   <ele>425.00</ele>
   <time>2014-03-30T09:17:42Z</time>
  </trkpt>
  <trkpt lat="34.082786" lon="-4.487892">
   <ele>432.00</ele>
   <time>2014-03-30T09:17:52Z</time>
  </trkpt>
  <trkpt lat="34.083504" lon="-4.486709">
   <ele>434.00</ele>
   <time>2014-03-30T09:17:57Z</time>
  </trkpt>
  <trkpt lat="34.084464" lon="-4.484992">
   <ele>434.00</ele>
   <time>2014-03-30T09:18:04Z</time>
  </trkpt>
  <trkpt lat="34.085227" lon="-4.483478">
   <ele>431.00</ele>
   <time>2014-03-30T09:18:10Z</time>
  </trkpt>
  <trkpt lat="34.087080" lon="-4.479653">
   <ele>420.00</ele>
   <time>2014-03-30T09:18:25Z</time>
  </trkpt>
  <trkpt lat="34.087466" lon="-4.478920">
   <ele>417.00</ele>
   <time>2014-03-30T09:18:28Z</time>
  </trkpt>
  <trkpt lat="34.088280" lon="-4.477494">
   <ele>411.00</ele>
   <time>2014-03-30T09:18:34Z</time>
  </trkpt>
  <trkpt lat="34.088876" lon="-4.476545">
   <ele>408.00</ele>
   <time>2014-03-30T09:18:38Z</time>
  </trkpt>
  <trkpt lat="34.089501" lon="-4.475635">
   <ele>404.00</ele>
   <time>2014-03-30T09:18:42Z</time>
  </trkpt>
  <trkpt lat="34.090493" lon="-4.474293">
   <ele>398.00</ele>
   <time>2014-03-30T09:18:48Z</time>
  </trkpt>
  <trkpt lat="34.091189" lon="-4.473445">
   <ele>394.00</ele>
   <time>2014-03-30T09:18:52Z</time>
  </trkpt>
  <trkpt lat="34.092453" lon="-4.472026">
   <ele>388.00</ele>
   <time>2014-03-30T09:18:59Z</time>
  </trkpt>
  <trkpt lat="34.095208" lon="-4.469063">
   <ele>377.00</ele>
   <time>2014-03-30T09:19:14Z</time>
  </trkpt>
  <trkpt lat="34.097942" lon="-4.466071">
   <ele>364.00</ele>
   <time>2014-03-30T09:19:29Z</time>
  </trkpt>
  <trkpt lat="34.098631" lon="-4.465234">
   <ele>360.00</ele>
   <time>2014-03-30T09:19:33Z</time>
  </trkpt>
  <trkpt lat="34.099466" lon="-4.464154">
   <ele>356.00</ele>
   <time>2014-03-30T09:19:38Z</time>
  </trkpt>
  <trkpt lat="34.100267" lon="-4.463024">
   <ele>353.00</ele>
   <time>2014-03-30T09:19:43Z</time>
  </trkpt>
  <trkpt lat="34.101183" lon="-4.461620">
   <ele>351.00</ele>
   <time>2014-03-30T09:19:49Z</time>
  </trkpt>
  <trkpt lat="34.103361" lon="-4.458081">
   <ele>353.00</ele>
   <time>2014-03-30T09:20:04Z</time>
  </trkpt>
  <trkpt lat="34.105612" lon="-4.454391">
   <ele>358.00</ele>
   <time>2014-03-30T09:20:20Z</time>
  </trkpt>
  <trkpt lat="34.107776" lon="-4.450875">
   <ele>361.00</ele>
   <time>2014-03-30T09:20:35Z</time>
  </trkpt>
  <trkpt lat="34.109969" lon="-4.447332">
   <ele>359.00</ele>
   <time>2014-03-30T09:20:50Z</time>
  </trkpt>
  <trkpt lat="34.111581" lon="-4.444714">
   <ele>353.00</ele>
   <time>2014-03-30T09:21:01Z</time>
  </trkpt>
  <trkpt lat="34.112721" lon="-4.442724">
   <ele>349.00</ele>
   <time>2014-03-30T09:21:09Z</time>
  </trkpt>
  <trkpt lat="34.113116" lon="-4.441943">
   <ele>348.00</ele>
   <time>2014-03-30T09:21:12Z</time>
  </trkpt>
  <trkpt lat="34.113611" lon="-4.440876">
   <ele>345.00</ele>
   <time>2014-03-30T09:21:16Z</time>
  </trkpt>
  <trkpt lat="34.113837" lon="-4.440329">
   <ele>344.00</ele>
   <time>2014-03-30T09:21:18Z</time>
  </trkpt>
  <trkpt lat="34.114251" lon="-4.439218">
   <ele>342.00</ele>
   <time>2014-03-30T09:21:22Z</time>
  </trkpt>
  <trkpt lat="34.114528" lon="-4.438363">
   <ele>340.00</ele>
   <time>2014-03-30T09:21:25Z</time>
  </trkpt>
  <trkpt lat="34.114773" lon="-4.437497">
   <ele>338.00</ele>
   <time>2014-03-30T09:21:28Z</time>
  </trkpt>
  <trkpt lat="34.114986" lon="-4.436624">
   <ele>336.00</ele>
   <time>2014-03-30T09:21:31Z</time>
  </trkpt>
  <trkpt lat="34.115479" lon="-4.434259">
   <ele>333.00</ele>
   <time>2014-03-30T09:21:39Z</time>
  </trkpt>
  <trkpt lat="34.115997" lon="-4.431580">
   <ele>331.00</ele>
   <time>2014-03-30T09:21:48Z</time>
  </trkpt>
  <trkpt lat="34.116143" lon="-4.431000">
   <ele>331.00</ele>
   <time>2014-03-30T09:21:50Z</time>
  </trkpt>
  <trkpt lat="34.116392" lon="-4.430147">
   <ele>332.00</ele>
   <time>2014-03-30T09:21:53Z</time>
  </trkpt>
  <trkpt lat="34.116669" lon="-4.429311">
   <ele>332.00</ele>
   <time>2014-03-30T09:21:56Z</time>
  </trkpt>
  <trkpt lat="34.116977" lon="-4.428492">
   <ele>333.00</ele>
   <time>2014-03-30T09:21:59Z</time>
  </trkpt>
  <trkpt lat="34.117315" lon="-4.427687">
   <ele>334.00</ele>
   <time>2014-03-30T09:22:02Z</time>
  </trkpt>
  <trkpt lat="34.117681" lon="-4.426899">
   <ele>334.00</ele>
   <time>2014-03-30T09:22:05Z</time>
  </trkpt>
  <trkpt lat="34.118341" lon="-4.425616">
   <ele>335.00</ele>
   <time>2014-03-30T09:22:10Z</time>
  </trkpt>
  <trkpt lat="34.119958" lon="-4.422521">
   <ele>337.00</ele>
   <time>2014-03-30T09:22:22Z</time>
  </trkpt>
  <trkpt lat="34.120332" lon="-4.421715">
   <ele>336.00</ele>
   <time>2014-03-30T09:22:25Z</time>
  </trkpt>
  <trkpt lat="34.120790" lon="-4.420615">
   <ele>335.00</ele>
   <time>2014-03-30T09:22:29Z</time>
  </trkpt>
  <trkpt lat="34.121109" lon="-4.419779">
   <ele>333.00</ele>
   <time>2014-03-30T09:22:32Z</time>
  </trkpt>
  <trkpt lat="34.121396" lon="-4.418922">
   <ele>332.00</ele>
   <time>2014-03-30T09:22:35Z</time>
  </trkpt>
  <trkpt lat="34.121825" lon="-4.417483">
   <ele>329.00</ele>
   <time>2014-03-30T09:22:40Z</time>
  </trkpt>
  <trkpt lat="34.122052" lon="-4.416606">
   <ele>328.00</ele>
   <time>2014-03-30T09:22:43Z</time>
  </trkpt>
  <trkpt lat="34.123123" lon="-4.411889">
   <ele>322.00</ele>
   <time>2014-03-30T09:22:59Z</time>
  </trkpt>
  <trkpt lat="34.123392" lon="-4.411052">
   <ele>322.00</ele>
   <time>2014-03-30T09:23:02Z</time>
  </trkpt>
  <trkpt lat="34.123592" lon="-4.410505">
   <ele>322.00</ele>
   <time>2014-03-30T09:23:04Z</time>
  </trkpt>
  <trkpt lat="34.123929" lon="-4.409700">
   <ele>321.00</ele>
   <time>2014-03-30T09:23:07Z</time>
  </trkpt>
  <trkpt lat="34.124304" lon="-4.408907">
   <ele>320.00</ele>
   <time>2014-03-30T09:23:10Z</time>
  </trkpt>
  <trkpt lat="34.124571" lon="-4.408395">
   <ele>319.00</ele>
   <time>2014-03-30T09:23:12Z</time>
  </trkpt>
  <trkpt lat="34.124851" lon="-4.407898">
   <ele>318.00</ele>
   <time>2014-03-30T09:23:14Z</time>
  </trkpt>
  <trkpt lat="34.125150" lon="-4.407417">
   <ele>317.00</ele>
   <time>2014-03-30T09:23:16Z</time>
  </trkpt>
  <trkpt lat="34.125624" lon="-4.406721">
   <ele>316.00</ele>
   <time>2014-03-30T09:23:19Z</time>
  </trkpt>
  <trkpt lat="34.125954" lon="-4.406273">
   <ele>315.00</ele>
   <time>2014-03-30T09:23:21Z</time>
  </trkpt>
  <trkpt lat="34.128694" lon="-4.402780">
   <ele>302.00</ele>
   <time>2014-03-30T09:23:37Z</time>
  </trkpt>
  <trkpt lat="34.129062" lon="-4.402377">
   <ele>302.00</ele>
   <time>2014-03-30T09:23:39Z</time>
  </trkpt>
  <trkpt lat="34.129441" lon="-4.402001">
   <ele>303.00</ele>
   <time>2014-03-30T09:23:41Z</time>
  </trkpt>
  <trkpt lat="34.129635" lon="-4.401824">
   <ele>304.00</ele>
   <time>2014-03-30T09:23:42Z</time>
  </trkpt>
  <trkpt lat="34.130038" lon="-4.401500">
   <ele>305.00</ele>
   <time>2014-03-30T09:23:44Z</time>
  </trkpt>
  <trkpt lat="34.130450" lon="-4.401199">
   <ele>307.00</ele>
   <time>2014-03-30T09:23:46Z</time>
  </trkpt>
  <trkpt lat="34.130660" lon="-4.401059">
   <ele>308.00</ele>
   <time>2014-03-30T09:23:47Z</time>
  </trkpt>
  <trkpt lat="34.131089" lon="-4.400800">
   <ele>310.00</ele>
   <time>2014-03-30T09:23:49Z</time>
  </trkpt>
  <trkpt lat="34.131747" lon="-4.400445">
   <ele>313.00</ele>
   <time>2014-03-30T09:23:52Z</time>
  </trkpt>
  <trkpt lat="34.133068" lon="-4.399743">
   <ele>318.00</ele>
   <time>2014-03-30T09:23:58Z</time>
  </trkpt>
  <trkpt lat="34.133499" lon="-4.399471">
   <ele>319.00</ele>
   <time>2014-03-30T09:24:00Z</time>
  </trkpt>
  <trkpt lat="34.133921" lon="-4.399176">
   <ele>320.00</ele>
   <time>2014-03-30T09:24:02Z</time>
  </trkpt>
  <trkpt lat="34.134333" lon="-4.398861">
   <ele>321.00</ele>
   <time>2014-03-30T09:24:04Z</time>
  </trkpt>
  <trkpt lat="34.134734" lon="-4.398525">
   <ele>321.00</ele>
   <time>2014-03-30T09:24:06Z</time>
  </trkpt>
  <trkpt lat="34.135125" lon="-4.398163">
   <ele>322.00</ele>
   <time>2014-03-30T09:24:08Z</time>
  </trkpt>
  <trkpt lat="34.135505" lon="-4.397781">
   <ele>321.00</ele>
   <time>2014-03-30T09:24:10Z</time>
  </trkpt>
  <trkpt lat="34.135871" lon="-4.397382">
   <ele>321.00</ele>
   <time>2014-03-30T09:24:12Z</time>
  </trkpt>
  <trkpt lat="34.136226" lon="-4.396961">
   <ele>320.00</ele>
   <time>2014-03-30T09:24:14Z</time>
  </trkpt>
  <trkpt lat="34.136567" lon="-4.396521">
   <ele>319.00</ele>
   <time>2014-03-30T09:24:16Z</time>
  </trkpt>
  <trkpt lat="34.136891" lon="-4.396062">
   <ele>318.00</ele>
   <time>2014-03-30T09:24:18Z</time>
  </trkpt>
  <trkpt lat="34.137195" lon="-4.395589">
   <ele>317.00</ele>
   <time>2014-03-30T09:24:20Z</time>
  </trkpt>
  <trkpt lat="34.137482" lon="-4.395101">
   <ele>315.00</ele>
   <time>2014-03-30T09:24:22Z</time>
  </trkpt>
  <trkpt lat="34.137753" lon="-4.394597">
   <ele>314.00</ele>
   <time>2014-03-30T09:24:24Z</time>
  </trkpt>
  <trkpt lat="34.138000" lon="-4.394077">
   <ele>311.00</ele>
   <time>2014-03-30T09:24:26Z</time>
  </trkpt>
  <trkpt lat="34.138342" lon="-4.393275">
   <ele>309.00</ele>
   <time>2014-03-30T09:24:29Z</time>
  </trkpt>
  <trkpt lat="34.138551" lon="-4.392722">
   <ele>307.00</ele>
   <time>2014-03-30T09:24:31Z</time>
  </trkpt>
  <trkpt lat="34.138737" lon="-4.392151">
   <ele>305.00</ele>
   <time>2014-03-30T09:24:33Z</time>
  </trkpt>
  <trkpt lat="34.139062" lon="-4.390989">
   <ele>302.00</ele>
   <time>2014-03-30T09:24:37Z</time>
  </trkpt>
  <trkpt lat="34.140279" lon="-4.386383">
   <ele>299.00</ele>
   <time>2014-03-30T09:24:53Z</time>
  </trkpt>
  <trkpt lat="34.140965" lon="-4.383817">
   <ele>302.00</ele>
   <time>2014-03-30T09:25:02Z</time>
  </trkpt>
  <trkpt lat="34.141152" lon="-4.382947">
   <ele>304.00</ele>
   <time>2014-03-30T09:25:05Z</time>
  </trkpt>
  <trkpt lat="34.141254" lon="-4.382358">
   <ele>304.00</ele>
   <time>2014-03-30T09:25:07Z</time>
  </trkpt>
  <trkpt lat="34.141377" lon="-4.381475">
   <ele>306.00</ele>
   <time>2014-03-30T09:25:10Z</time>
  </trkpt>
  <trkpt lat="34.141468" lon="-4.380592">
   <ele>307.00</ele>
   <time>2014-03-30T09:25:13Z</time>
  </trkpt>
  <trkpt lat="34.141839" lon="-4.376136">
   <ele>312.00</ele>
   <time>2014-03-30T09:25:28Z</time>
  </trkpt>
  <trkpt lat="34.141973" lon="-4.375247">
   <ele>312.00</ele>
   <time>2014-03-30T09:25:31Z</time>
  </trkpt>
  <trkpt lat="34.142141" lon="-4.374363">
   <ele>312.00</ele>
   <time>2014-03-30T09:25:34Z</time>
  </trkpt>
  <trkpt lat="34.142275" lon="-4.373785">
   <ele>311.00</ele>
   <time>2014-03-30T09:25:36Z</time>
  </trkpt>
  <trkpt lat="34.142501" lon="-4.372926">
   <ele>311.00</ele>
   <time>2014-03-30T09:25:39Z</time>
  </trkpt>
  <trkpt lat="34.142758" lon="-4.372081">
   <ele>311.00</ele>
   <time>2014-03-30T09:25:42Z</time>
  </trkpt>
  <trkpt lat="34.142947" lon="-4.371525">
   <ele>310.00</ele>
   <time>2014-03-30T09:25:44Z</time>
  </trkpt>
  <trkpt lat="34.143262" lon="-4.370702">
   <ele>310.00</ele>
   <time>2014-03-30T09:25:47Z</time>
  </trkpt>
  <trkpt lat="34.143724" lon="-4.369624">
   <ele>308.00</ele>
   <time>2014-03-30T09:25:51Z</time>
  </trkpt>
  <trkpt lat="34.144546" lon="-4.367749">
   <ele>306.00</ele>
   <time>2014-03-30T09:25:58Z</time>
  </trkpt>
  <trkpt lat="34.144751" lon="-4.367194">
   <ele>306.00</ele>
   <time>2014-03-30T09:26:00Z</time>
  </trkpt>
  <trkpt lat="34.144934" lon="-4.366632">
   <ele>305.00</ele>
   <time>2014-03-30T09:26:02Z</time>
  </trkpt>
  <trkpt lat="34.145095" lon="-4.366064">
   <ele>304.00</ele>
   <time>2014-03-30T09:26:04Z</time>
  </trkpt>
  <trkpt lat="34.145229" lon="-4.365489">
   <ele>303.00</ele>
   <time>2014-03-30T09:26:06Z</time>
  </trkpt>
  <trkpt lat="34.145338" lon="-4.364906">
   <ele>301.00</ele>
   <time>2014-03-30T09:26:08Z</time>
  </trkpt>
  <trkpt lat="34.145472" lon="-4.364024">
   <ele>300.00</ele>
   <time>2014-03-30T09:26:11Z</time>
  </trkpt>
  <trkpt lat="34.145531" lon="-4.363426">
   <ele>300.00</ele>
   <time>2014-03-30T09:26:13Z</time>
  </trkpt>
  <trkpt lat="34.145561" lon="-4.362825">
   <ele>300.00</ele>
   <time>2014-03-30T09:26:15Z</time>
  </trkpt>
  <trkpt lat="34.145568" lon="-4.362224">
   <ele>300.00</ele>
   <time>2014-03-30T09:26:17Z</time>
  </trkpt>
  <trkpt lat="34.145549" lon="-4.361322">
   <ele>302.00</ele>
   <time>2014-03-30T09:26:20Z</time>
  </trkpt>
  <trkpt lat="34.145507" lon="-4.359820">
   <ele>305.00</ele>
   <time>2014-03-30T09:26:25Z</time>
  </trkpt>
  <trkpt lat="34.145519" lon="-4.359223">
   <ele>306.00</ele>
   <time>2014-03-30T09:26:27Z</time>
  </trkpt>
  <trkpt lat="34.145560" lon="-4.358629">
   <ele>307.00</ele>
   <time>2014-03-30T09:26:29Z</time>
  </trkpt>
  <trkpt lat="34.145628" lon="-4.358038">
   <ele>309.00</ele>
   <time>2014-03-30T09:26:31Z</time>
  </trkpt>
  <trkpt lat="34.145722" lon="-4.357452">
   <ele>310.00</ele>
   <time>2014-03-30T09:26:33Z</time>
  </trkpt>
  <trkpt lat="34.145846" lon="-4.356874">
   <ele>310.00</ele>
   <time>2014-03-30T09:26:35Z</time>
  </trkpt>
  <trkpt lat="34.145995" lon="-4.356305">
   <ele>311.00</ele>
   <time>2014-03-30T09:26:37Z</time>
  </trkpt>
  <trkpt lat="34.146167" lon="-4.355747">
   <ele>312.00</ele>
   <time>2014-03-30T09:26:39Z</time>
  </trkpt>
  <trkpt lat="34.146368" lon="-4.355203">
   <ele>312.00</ele>
   <time>2014-03-30T09:26:41Z</time>
  </trkpt>
  <trkpt lat="34.146597" lon="-4.354666">
   <ele>311.00</ele>
   <time>2014-03-30T09:26:43Z</time>
  </trkpt>
  <trkpt lat="34.146845" lon="-4.354146">
   <ele>311.00</ele>
   <time>2014-03-30T09:26:45Z</time>
  </trkpt>
  <trkpt lat="34.147592" lon="-4.352600">
   <ele>309.00</ele>
   <time>2014-03-30T09:26:51Z</time>
  </trkpt>
  <trkpt lat="34.147812" lon="-4.352064">
   <ele>308.00</ele>
   <time>2014-03-30T09:26:53Z</time>
  </trkpt>
  <trkpt lat="34.148004" lon="-4.351514">
   <ele>308.00</ele>
   <time>2014-03-30T09:26:55Z</time>
  </trkpt>
  <trkpt lat="34.148171" lon="-4.350951">
   <ele>308.00</ele>
   <time>2014-03-30T09:26:57Z</time>
  </trkpt>
  <trkpt lat="34.148310" lon="-4.350378">
   <ele>308.00</ele>
   <time>2014-03-30T09:26:59Z</time>
  </trkpt>
  <trkpt lat="34.148422" lon="-4.349801">
   <ele>308.00</ele>
   <time>2014-03-30T09:27:01Z</time>
  </trkpt>
  <trkpt lat="34.148506" lon="-4.349222">
   <ele>308.00</ele>
   <time>2014-03-30T09:27:03Z</time>
  </trkpt>
  <trkpt lat="34.148878" lon="-4.346317">
   <ele>311.00</ele>
   <time>2014-03-30T09:27:13Z</time>
  </trkpt>
  <trkpt lat="34.148989" lon="-4.345741">
   <ele>312.00</ele>
   <time>2014-03-30T09:27:15Z</time>
  </trkpt>
  <trkpt lat="34.149119" lon="-4.345169">
   <ele>313.00</ele>
   <time>2014-03-30T09:27:17Z</time>
  </trkpt>
  <trkpt lat="34.149269" lon="-4.344604">
   <ele>314.00</ele>
   <time>2014-03-30T09:27:19Z</time>
  </trkpt>
  <trkpt lat="34.149523" lon="-4.343769">
   <ele>316.00</ele>
   <time>2014-03-30T09:27:22Z</time>
  </trkpt>
  <trkpt lat="34.149715" lon="-4.343222">
   <ele>318.00</ele>
   <time>2014-03-30T09:27:24Z</time>
  </trkpt>
  <trkpt lat="34.150027" lon="-4.342420">
   <ele>320.00</ele>
   <time>2014-03-30T09:27:27Z</time>
  </trkpt>
  <trkpt lat="34.151679" lon="-4.338472">
   <ele>330.00</ele>
   <time>2014-03-30T09:27:42Z</time>
  </trkpt>
  <trkpt lat="34.153473" lon="-4.334189">
   <ele>332.00</ele>
   <time>2014-03-30T09:27:58Z</time>
  </trkpt>
  <trkpt lat="34.155156" lon="-4.330148">
   <ele>333.00</ele>
   <time>2014-03-30T09:28:13Z</time>
  </trkpt>
  <trkpt lat="34.156852" lon="-4.326096">
   <ele>332.00</ele>
   <time>2014-03-30T09:28:28Z</time>
  </trkpt>
  <trkpt lat="34.158137" lon="-4.323112">
   <ele>328.00</ele>
   <time>2014-03-30T09:28:39Z</time>
  </trkpt>
  <trkpt lat="34.158395" lon="-4.322596">
   <ele>327.00</ele>
   <time>2014-03-30T09:28:41Z</time>
  </trkpt>
  <trkpt lat="34.158667" lon="-4.322094">
   <ele>327.00</ele>
   <time>2014-03-30T09:28:43Z</time>
  </trkpt>
  <trkpt lat="34.158956" lon="-4.321609">
   <ele>328.00</ele>
   <time>2014-03-30T09:28:45Z</time>
  </trkpt>
  <trkpt lat="34.159413" lon="-4.320907">
   <ele>328.00</ele>
   <time>2014-03-30T09:28:48Z</time>
  </trkpt>
  <trkpt lat="34.159900" lon="-4.320235">
   <ele>329.00</ele>
   <time>2014-03-30T09:28:51Z</time>
  </trkpt>
  <trkpt lat="34.160245" lon="-4.319806">
   <ele>330.00</ele>
   <time>2014-03-30T09:28:53Z</time>
  </trkpt>
  <trkpt lat="34.163105" lon="-4.316404">
   <ele>331.00</ele>
   <time>2014-03-30T09:29:09Z</time>
  </trkpt>
  <trkpt lat="34.165557" lon="-4.313509">
   <ele>318.00</ele>
   <time>2014-03-30T09:29:23Z</time>
  </trkpt>
  <trkpt lat="34.165913" lon="-4.313153">
   <ele>316.00</ele>
   <time>2014-03-30T09:29:25Z</time>
  </trkpt>
  <trkpt lat="34.166275" lon="-4.312825">
   <ele>313.00</ele>
   <time>2014-03-30T09:29:27Z</time>
  </trkpt>
  <trkpt lat="34.166639" lon="-4.312526">
   <ele>311.00</ele>
   <time>2014-03-30T09:29:29Z</time>
  </trkpt>
  <trkpt lat="34.167005" lon="-4.312256">
   <ele>308.00</ele>
   <time>2014-03-30T09:29:31Z</time>
  </trkpt>
  <trkpt lat="34.167375" lon="-4.312009">
   <ele>306.00</ele>
   <time>2014-03-30T09:29:33Z</time>
  </trkpt>
  <trkpt lat="34.167754" lon="-4.311786">
   <ele>304.00</ele>
   <time>2014-03-30T09:29:35Z</time>
  </trkpt>
  <trkpt lat="34.168144" lon="-4.311583">
   <ele>301.00</ele>
   <time>2014-03-30T09:29:37Z</time>
  </trkpt>
  <trkpt lat="34.168551" lon="-4.311399">
   <ele>299.00</ele>
   <time>2014-03-30T09:29:39Z</time>
  </trkpt>
  <trkpt lat="34.168970" lon="-4.311238">
   <ele>297.00</ele>
   <time>2014-03-30T09:29:41Z</time>
  </trkpt>
  <trkpt lat="34.169396" lon="-4.311101">
   <ele>296.00</ele>
   <time>2014-03-30T09:29:43Z</time>
  </trkpt>
  <trkpt lat="34.169829" lon="-4.310984">
   <ele>294.00</ele>
   <time>2014-03-30T09:29:45Z</time>
  </trkpt>
  <trkpt lat="34.170501" lon="-4.310844">
   <ele>293.00</ele>
   <time>2014-03-30T09:29:48Z</time>
  </trkpt>
  <trkpt lat="34.173576" lon="-4.310183">
   <ele>293.00</ele>
   <time>2014-03-30T09:30:01Z</time>
  </trkpt>
  <trkpt lat="34.177246" lon="-4.309349">
   <ele>296.00</ele>
   <time>2014-03-30T09:30:16Z</time>
  </trkpt>
  <trkpt lat="34.180203" lon="-4.308667">
   <ele>298.00</ele>
   <time>2014-03-30T09:30:28Z</time>
  </trkpt>
  <trkpt lat="34.180688" lon="-4.308513">
   <ele>299.00</ele>
   <time>2014-03-30T09:30:30Z</time>
  </trkpt>
  <trkpt lat="34.181165" lon="-4.308326">
   <ele>299.00</ele>
   <time>2014-03-30T09:30:32Z</time>
  </trkpt>
  <trkpt lat="34.181628" lon="-4.308114">
   <ele>300.00</ele>
   <time>2014-03-30T09:30:34Z</time>
  </trkpt>
  <trkpt lat="34.182080" lon="-4.307875">
   <ele>301.00</ele>
   <time>2014-03-30T09:30:36Z</time>
  </trkpt>
  <trkpt lat="34.182524" lon="-4.307607">
   <ele>301.00</ele>
   <time>2014-03-30T09:30:38Z</time>
  </trkpt>
  <trkpt lat="34.182960" lon="-4.307312">
   <ele>302.00</ele>
   <time>2014-03-30T09:30:40Z</time>
  </trkpt>
  <trkpt lat="34.183382" lon="-4.306989">
   <ele>302.00</ele>
   <time>2014-03-30T09:30:42Z</time>
  </trkpt>
  <trkpt lat="34.183789" lon="-4.306638">
   <ele>302.00</ele>
   <time>2014-03-30T09:30:44Z</time>
  </trkpt>
  <trkpt lat="34.184181" lon="-4.306259">
   <ele>303.00</ele>
   <time>2014-03-30T09:30:46Z</time>
  </trkpt>
  <trkpt lat="34.184555" lon="-4.305858">
   <ele>303.00</ele>
   <time>2014-03-30T09:30:48Z</time>
  </trkpt>
  <trkpt lat="34.184912" lon="-4.305437">
   <ele>304.00</ele>
   <time>2014-03-30T09:30:50Z</time>
  </trkpt>
  <trkpt lat="34.185251" lon="-4.304995">
   <ele>304.00</ele>
   <time>2014-03-30T09:30:52Z</time>
  </trkpt>
  <trkpt lat="34.185572" lon="-4.304534">
   <ele>305.00</ele>
   <time>2014-03-30T09:30:54Z</time>
  </trkpt>
  <trkpt lat="34.185874" lon="-4.304054">
   <ele>305.00</ele>
   <time>2014-03-30T09:30:56Z</time>
  </trkpt>
  <trkpt lat="34.186154" lon="-4.303556">
   <ele>306.00</ele>
   <time>2014-03-30T09:30:58Z</time>
  </trkpt>
  <trkpt lat="34.186412" lon="-4.303047">
   <ele>306.00</ele>
   <time>2014-03-30T09:31:00Z</time>
  </trkpt>
  <trkpt lat="34.186648" lon="-4.302523">
   <ele>307.00</ele>
   <time>2014-03-30T09:31:02Z</time>
  </trkpt>
  <trkpt lat="34.186857" lon="-4.301983">
   <ele>307.00</ele>
   <time>2014-03-30T09:31:04Z</time>
  </trkpt>
  <trkpt lat="34.187044" lon="-4.301434">
   <ele>307.00</ele>
   <time>2014-03-30T09:31:06Z</time>
  </trkpt>
  <trkpt lat="34.187208" lon="-4.300872">
   <ele>307.00</ele>
   <time>2014-03-30T09:31:08Z</time>
  </trkpt>
  <trkpt lat="34.187348" lon="-4.300296">
   <ele>306.00</ele>
   <time>2014-03-30T09:31:10Z</time>
  </trkpt>
  <trkpt lat="34.187520" lon="-4.299420">
   <ele>306.00</ele>
   <time>2014-03-30T09:31:13Z</time>
  </trkpt>
  <trkpt lat="34.187606" lon="-4.298828">
   <ele>306.00</ele>
   <time>2014-03-30T09:31:15Z</time>
  </trkpt>
  <trkpt lat="34.187662" lon="-4.298234">
   <ele>305.00</ele>
   <time>2014-03-30T09:31:17Z</time>
  </trkpt>
  <trkpt lat="34.187693" lon="-4.297642">
   <ele>306.00</ele>
   <time>2014-03-30T09:31:19Z</time>
  </trkpt>
  <trkpt lat="34.187707" lon="-4.296463">
   <ele>307.00</ele>
   <time>2014-03-30T09:31:23Z</time>
  </trkpt>
  <trkpt lat="34.187731" lon="-4.295289">
   <ele>308.00</ele>
   <time>2014-03-30T09:31:27Z</time>
  </trkpt>
  <trkpt lat="34.187774" lon="-4.294713">
   <ele>309.00</ele>
   <time>2014-03-30T09:31:29Z</time>
  </trkpt>
  <trkpt lat="34.187841" lon="-4.294142">
   <ele>309.00</ele>
   <time>2014-03-30T09:31:31Z</time>
  </trkpt>
  <trkpt lat="34.187929" lon="-4.293574">
   <ele>310.00</ele>
   <time>2014-03-30T09:31:33Z</time>
  </trkpt>
  <trkpt lat="34.188047" lon="-4.293013">
   <ele>311.00</ele>
   <time>2014-03-30T09:31:35Z</time>
  </trkpt>
  <trkpt lat="34.188189" lon="-4.292460">
   <ele>312.00</ele>
   <time>2014-03-30T09:31:37Z</time>
  </trkpt>
  <trkpt lat="34.188357" lon="-4.291916">
   <ele>312.00</ele>
   <time>2014-03-30T09:31:39Z</time>
  </trkpt>
  <trkpt lat="34.188550" lon="-4.291378">
   <ele>313.00</ele>
   <time>2014-03-30T09:31:41Z</time>
  </trkpt>
  <trkpt lat="34.188769" lon="-4.290850">
   <ele>314.00</ele>
   <time>2014-03-30T09:31:43Z</time>
  </trkpt>
  <trkpt lat="34.189137" lon="-4.290071">
   <ele>314.00</ele>
   <time>2014-03-30T09:31:46Z</time>
  </trkpt>
  <trkpt lat="34.191046" lon="-4.286168">
   <ele>313.00</ele>
   <time>2014-03-30T09:32:01Z</time>
  </trkpt>
  <trkpt lat="34.192308" lon="-4.283614">
   <ele>310.00</ele>
   <time>2014-03-30T09:32:11Z</time>
  </trkpt>
  <trkpt lat="34.192719" lon="-4.282874">
   <ele>309.00</ele>
   <time>2014-03-30T09:32:14Z</time>
  </trkpt>
  <trkpt lat="34.193152" lon="-4.282160">
   <ele>309.00</ele>
   <time>2014-03-30T09:32:17Z</time>
  </trkpt>
  <trkpt lat="34.193919" lon="-4.281011">
   <ele>309.00</ele>
   <time>2014-03-30T09:32:22Z</time>
  </trkpt>
  <trkpt lat="34.196207" lon="-4.277681">
   <ele>315.00</ele>
   <time>2014-03-30T09:32:37Z</time>
  </trkpt>
  <trkpt lat="34.198534" lon="-4.274285">
   <ele>330.00</ele>
   <time>2014-03-30T09:32:53Z</time>
  </trkpt>
  <trkpt lat="34.200726" lon="-4.271079">
   <ele>346.00</ele>
   <time>2014-03-30T09:33:08Z</time>
  </trkpt>
  <trkpt lat="34.203011" lon="-4.267748">
   <ele>357.00</ele>
   <time>2014-03-30T09:33:23Z</time>
  </trkpt>
  <trkpt lat="34.205442" lon="-4.264124">
   <ele>360.00</ele>
   <time>2014-03-30T09:33:39Z</time>
  </trkpt>
  <trkpt lat="34.206448" lon="-4.262462">
   <ele>360.00</ele>
   <time>2014-03-30T09:33:46Z</time>
  </trkpt>
  <trkpt lat="34.207399" lon="-4.260758">
   <ele>361.00</ele>
   <time>2014-03-30T09:33:53Z</time>
  </trkpt>
  <trkpt lat="34.208292" lon="-4.259017">
   <ele>362.00</ele>
   <time>2014-03-30T09:34:00Z</time>
  </trkpt>
  <trkpt lat="34.210280" lon="-4.254974">
   <ele>358.00</ele>
   <time>2014-03-30T09:34:16Z</time>
  </trkpt>
  <trkpt lat="34.212176" lon="-4.251126">
   <ele>354.00</ele>
   <time>2014-03-30T09:34:31Z</time>
  </trkpt>
  <trkpt lat="34.214201" lon="-4.247074">
   <ele>361.00</ele>
   <time>2014-03-30T09:34:46Z</time>
  </trkpt>
  <trkpt lat="34.215001" lon="-4.245415">
   <ele>369.00</ele>
   <time>2014-03-30T09:34:52Z</time>
  </trkpt>
  <trkpt lat="34.215365" lon="-4.244564">
   <ele>373.00</ele>
   <time>2014-03-30T09:34:55Z</time>
  </trkpt>
  <trkpt lat="34.215701" lon="-4.243694">
   <ele>377.00</ele>
   <time>2014-03-30T09:34:58Z</time>
  </trkpt>
  <trkpt lat="34.216114" lon="-4.242516">
   <ele>382.00</ele>
   <time>2014-03-30T09:35:02Z</time>
  </trkpt>
  <trkpt lat="34.216669" lon="-4.240755">
   <ele>389.00</ele>
   <time>2014-03-30T09:35:08Z</time>
  </trkpt>
  <trkpt lat="34.216990" lon="-4.239567">
   <ele>392.00</ele>
   <time>2014-03-30T09:35:12Z</time>
  </trkpt>
  <trkpt lat="34.217342" lon="-4.238041">
   <ele>395.00</ele>
   <time>2014-03-30T09:35:17Z</time>
  </trkpt>
  <trkpt lat="34.217635" lon="-4.236494">
   <ele>398.00</ele>
   <time>2014-03-30T09:35:22Z</time>
  </trkpt>
  <trkpt lat="34.218467" lon="-4.231901">
   <ele>406.00</ele>
   <time>2014-03-30T09:35:37Z</time>
  </trkpt>
  <trkpt lat="34.219206" lon="-4.227955">
   <ele>414.00</ele>
   <time>2014-03-30T09:35:50Z</time>
  </trkpt>
  <trkpt lat="34.219489" lon="-4.226765">
   <ele>417.00</ele>
   <time>2014-03-30T09:35:54Z</time>
  </trkpt>
  <trkpt lat="34.219898" lon="-4.225290">
   <ele>420.00</ele>
   <time>2014-03-30T09:35:59Z</time>
  </trkpt>
  <trkpt lat="34.221275" lon="-4.220613">
   <ele>429.00</ele>
   <time>2014-03-30T09:36:15Z</time>
  </trkpt>
  <trkpt lat="34.221563" lon="-4.219413">
   <ele>429.00</ele>
   <time>2014-03-30T09:36:19Z</time>
  </trkpt>
  <trkpt lat="34.221864" lon="-4.217896">
   <ele>428.00</ele>
   <time>2014-03-30T09:36:24Z</time>
  </trkpt>
  <trkpt lat="34.222018" lon="-4.216984">
   <ele>427.00</ele>
   <time>2014-03-30T09:36:27Z</time>
  </trkpt>
  <trkpt lat="34.222187" lon="-4.215763">
   <ele>425.00</ele>
   <time>2014-03-30T09:36:31Z</time>
  </trkpt>
  <trkpt lat="34.222712" lon="-4.210870">
   <ele>411.00</ele>
   <time>2014-03-30T09:36:47Z</time>
  </trkpt>
  <trkpt lat="34.223094" lon="-4.207558">
   <ele>400.00</ele>
   <time>2014-03-30T09:36:58Z</time>
  </trkpt>
  <trkpt lat="34.223287" lon="-4.206429">
   <ele>396.00</ele>
   <time>2014-03-30T09:37:02Z</time>
  </trkpt>
  <trkpt lat="34.223579" lon="-4.205037">
   <ele>392.00</ele>
   <time>2014-03-30T09:37:07Z</time>
  </trkpt>
  <trkpt lat="34.223867" lon="-4.203912">
   <ele>390.00</ele>
   <time>2014-03-30T09:37:11Z</time>
  </trkpt>
  <trkpt lat="34.224112" lon="-4.203063">
   <ele>389.00</ele>
   <time>2014-03-30T09:37:14Z</time>
  </trkpt>
  <trkpt lat="34.224479" lon="-4.201948">
   <ele>389.00</ele>
   <time>2014-03-30T09:37:18Z</time>
  </trkpt>
  <trkpt lat="34.224888" lon="-4.200852">
   <ele>390.00</ele>
   <time>2014-03-30T09:37:22Z</time>
  </trkpt>
  <trkpt lat="34.225220" lon="-4.200045">
   <ele>391.00</ele>
   <time>2014-03-30T09:37:25Z</time>
  </trkpt>
  <trkpt lat="34.225696" lon="-4.198992">
   <ele>395.00</ele>
   <time>2014-03-30T09:37:29Z</time>
  </trkpt>
  <trkpt lat="34.226078" lon="-4.198222">
   <ele>399.00</ele>
   <time>2014-03-30T09:37:32Z</time>
  </trkpt>
  <trkpt lat="34.226616" lon="-4.197224">
   <ele>404.00</ele>
   <time>2014-03-30T09:37:36Z</time>
  </trkpt>
  <trkpt lat="34.227330" lon="-4.196020">
   <ele>411.00</ele>
   <time>2014-03-30T09:37:41Z</time>
  </trkpt>
  <trkpt lat="34.228787" lon="-4.193667">
   <ele>426.00</ele>
   <time>2014-03-30T09:37:51Z</time>
  </trkpt>
  <trkpt lat="34.229180" lon="-4.192923">
   <ele>430.00</ele>
   <time>2014-03-30T09:37:54Z</time>
  </trkpt>
  <trkpt lat="34.229541" lon="-4.192156">
   <ele>434.00</ele>
   <time>2014-03-30T09:37:57Z</time>
  </trkpt>
  <trkpt lat="34.229869" lon="-4.191373">
   <ele>438.00</ele>
   <time>2014-03-30T09:38:00Z</time>
  </trkpt>
  <trkpt lat="34.230164" lon="-4.190571">
   <ele>441.00</ele>
   <time>2014-03-30T09:38:03Z</time>
  </trkpt>
  <trkpt lat="34.230342" lon="-4.190025">
   <ele>443.00</ele>
   <time>2014-03-30T09:38:05Z</time>
  </trkpt>
  <trkpt lat="34.230501" lon="-4.189468">
   <ele>445.00</ele>
   <time>2014-03-30T09:38:07Z</time>
  </trkpt>
  <trkpt lat="34.230643" lon="-4.188902">
   <ele>447.00</ele>
   <time>2014-03-30T09:38:09Z</time>
  </trkpt>
  <trkpt lat="34.230770" lon="-4.188329">
   <ele>449.00</ele>
   <time>2014-03-30T09:38:11Z</time>
  </trkpt>
  <trkpt lat="34.230927" lon="-4.187456">
   <ele>452.00</ele>
   <time>2014-03-30T09:38:14Z</time>
  </trkpt>
  <trkpt lat="34.231045" lon="-4.186573">
   <ele>454.00</ele>
   <time>2014-03-30T09:38:17Z</time>
  </trkpt>
  <trkpt lat="34.231126" lon="-4.185688">
   <ele>456.00</ele>
   <time>2014-03-30T09:38:20Z</time>
  </trkpt>
  <trkpt lat="34.231154" lon="-4.185094">
   <ele>458.00</ele>
   <time>2014-03-30T09:38:22Z</time>
  </trkpt>
  <trkpt lat="34.231163" lon="-4.184198">
   <ele>461.00</ele>
   <time>2014-03-30T09:38:25Z</time>
  </trkpt>
  <trkpt lat="34.231132" lon="-4.183010">
   <ele>465.00</ele>
   <time>2014-03-30T09:38:29Z</time>
  </trkpt>
  <trkpt lat="34.230976" lon="-4.178564">
   <ele>480.00</ele>
   <time>2014-03-30T09:38:44Z</time>
  </trkpt>
  <trkpt lat="34.230895" lon="-4.176490">
   <ele>487.00</ele>
   <time>2014-03-30T09:38:51Z</time>
  </trkpt>
  <trkpt lat="34.230823" lon="-4.175605">
   <ele>490.00</ele>
   <time>2014-03-30T09:38:54Z</time>
  </trkpt>
  <trkpt lat="34.230751" lon="-4.175019">
   <ele>492.00</ele>
   <time>2014-03-30T09:38:56Z</time>
  </trkpt>
  <trkpt lat="34.230612" lon="-4.174148">
   <ele>495.00</ele>
   <time>2014-03-30T09:38:59Z</time>
  </trkpt>
  <trkpt lat="34.230502" lon="-4.173573">
   <ele>498.00</ele>
   <time>2014-03-30T09:39:01Z</time>
  </trkpt>
  <trkpt lat="34.230374" lon="-4.173005">
   <ele>500.00</ele>
   <time>2014-03-30T09:39:03Z</time>
  </trkpt>
  <trkpt lat="34.229382" lon="-4.168810">
   <ele>520.00</ele>
   <time>2014-03-30T09:39:18Z</time>
  </trkpt>
  <trkpt lat="34.229167" lon="-4.167680">
   <ele>525.00</ele>
   <time>2014-03-30T09:39:22Z</time>
  </trkpt>
  <trkpt lat="34.228990" lon="-4.166538">
   <ele>529.00</ele>
   <time>2014-03-30T09:39:26Z</time>
  </trkpt>
  <trkpt lat="34.228858" lon="-4.165378">
   <ele>533.00</ele>
   <time>2014-03-30T09:39:30Z</time>
  </trkpt>
  <trkpt lat="34.228788" lon="-4.164499">
   <ele>535.00</ele>
   <time>2014-03-30T09:39:33Z</time>
  </trkpt>
  <trkpt lat="34.228724" lon="-4.163017">
   <ele>537.00</ele>
   <time>2014-03-30T09:39:38Z</time>
  </trkpt>
  <trkpt lat="34.228717" lon="-4.162130">
   <ele>538.00</ele>
   <time>2014-03-30T09:39:41Z</time>
  </trkpt>
  <trkpt lat="34.228753" lon="-4.160661">
   <ele>539.00</ele>
   <time>2014-03-30T09:39:46Z</time>
  </trkpt>
  <trkpt lat="34.228903" lon="-4.157433">
   <ele>535.00</ele>
   <time>2014-03-30T09:39:57Z</time>
  </trkpt>
  <trkpt lat="34.228881" lon="-4.156844">
   <ele>533.00</ele>
   <time>2014-03-30T09:39:59Z</time>
  </trkpt>
  <trkpt lat="34.228841" lon="-4.156263">
   <ele>531.00</ele>
   <time>2014-03-30T09:40:01Z</time>
  </trkpt>
  <trkpt lat="34.228774" lon="-4.155686">
   <ele>529.00</ele>
   <time>2014-03-30T09:40:03Z</time>
  </trkpt>
  <trkpt lat="34.228679" lon="-4.155112">
   <ele>527.00</ele>
   <time>2014-03-30T09:40:05Z</time>
  </trkpt>
  <trkpt lat="34.228555" lon="-4.154539">
   <ele>525.00</ele>
   <time>2014-03-30T09:40:07Z</time>
  </trkpt>
  <trkpt lat="34.228407" lon="-4.153973">
   <ele>522.00</ele>
   <time>2014-03-30T09:40:09Z</time>
  </trkpt>
  <trkpt lat="34.228234" lon="-4.153419">
   <ele>519.00</ele>
   <time>2014-03-30T09:40:11Z</time>
  </trkpt>
  <trkpt lat="34.228034" lon="-4.152879">
   <ele>516.00</ele>
   <time>2014-03-30T09:40:13Z</time>
  </trkpt>
  <trkpt lat="34.227812" lon="-4.152353">
   <ele>513.00</ele>
   <time>2014-03-30T09:40:15Z</time>
  </trkpt>
  <trkpt lat="34.227564" lon="-4.151845">
   <ele>510.00</ele>
   <time>2014-03-30T09:40:17Z</time>
  </trkpt>
  <trkpt lat="34.227431" lon="-4.151599">
   <ele>509.00</ele>
   <time>2014-03-30T09:40:18Z</time>
  </trkpt>
  <trkpt lat="34.227147" lon="-4.151117">
   <ele>506.00</ele>
   <time>2014-03-30T09:40:20Z</time>
  </trkpt>
  <trkpt lat="34.226692" lon="-4.150413">
   <ele>501.00</ele>
   <time>2014-03-30T09:40:23Z</time>
  </trkpt>
  <trkpt lat="34.225632" lon="-4.148785">
   <ele>491.00</ele>
   <time>2014-03-30T09:40:30Z</time>
  </trkpt>
  <trkpt lat="34.225362" lon="-4.148299">
   <ele>489.00</ele>
   <time>2014-03-30T09:40:32Z</time>
  </trkpt>
  <trkpt lat="34.225114" lon="-4.147798">
   <ele>486.00</ele>
   <time>2014-03-30T09:40:34Z</time>
  </trkpt>
  <trkpt lat="34.224891" lon="-4.147281">
   <ele>483.00</ele>
   <time>2014-03-30T09:40:36Z</time>
  </trkpt>
  <trkpt lat="34.224691" lon="-4.146746">
   <ele>480.00</ele>
   <time>2014-03-30T09:40:38Z</time>
  </trkpt>
  <trkpt lat="34.224515" lon="-4.146198">
   <ele>478.00</ele>
   <time>2014-03-30T09:40:40Z</time>
  </trkpt>
  <trkpt lat="34.224367" lon="-4.145639">
   <ele>475.00</ele>
   <time>2014-03-30T09:40:42Z</time>
  </trkpt>
  <trkpt lat="34.224240" lon="-4.145074">
   <ele>472.00</ele>
   <time>2014-03-30T09:40:44Z</time>
  </trkpt>
  <trkpt lat="34.224139" lon="-4.144498">
   <ele>470.00</ele>
   <time>2014-03-30T09:40:46Z</time>
  </trkpt>
  <trkpt lat="34.224065" lon="-4.143910">
   <ele>467.00</ele>
   <time>2014-03-30T09:40:48Z</time>
  </trkpt>
  <trkpt lat="34.224018" lon="-4.143314">
   <ele>464.00</ele>
   <time>2014-03-30T09:40:50Z</time>
  </trkpt>
  <trkpt lat="34.223997" lon="-4.142713">
   <ele>462.00</ele>
   <time>2014-03-30T09:40:52Z</time>
  </trkpt>
  <trkpt lat="34.224006" lon="-4.142111">
   <ele>459.00</ele>
   <time>2014-03-30T09:40:54Z</time>
  </trkpt>
  <trkpt lat="34.224042" lon="-4.141512">
   <ele>457.00</ele>
   <time>2014-03-30T09:40:56Z</time>
  </trkpt>
  <trkpt lat="34.224102" lon="-4.140914">
   <ele>454.00</ele>
   <time>2014-03-30T09:40:58Z</time>
  </trkpt>
  <trkpt lat="34.224188" lon="-4.140321">
   <ele>452.00</ele>
   <time>2014-03-30T09:41:00Z</time>
  </trkpt>
  <trkpt lat="34.224661" lon="-4.137371">
   <ele>445.00</ele>
   <time>2014-03-30T09:41:10Z</time>
  </trkpt>
  <trkpt lat="34.224707" lon="-4.136768">
   <ele>444.00</ele>
   <time>2014-03-30T09:41:12Z</time>
  </trkpt>
  <trkpt lat="34.224723" lon="-4.136162">
   <ele>443.00</ele>
   <time>2014-03-30T09:41:14Z</time>
  </trkpt>
  <trkpt lat="34.224712" lon="-4.135553">
   <ele>443.00</ele>
   <time>2014-03-30T09:41:16Z</time>
  </trkpt>
  <trkpt lat="34.224675" lon="-4.134947">
   <ele>442.00</ele>
   <time>2014-03-30T09:41:18Z</time>
  </trkpt>
  <trkpt lat="34.224644" lon="-4.134644">
   <ele>442.00</ele>
   <time>2014-03-30T09:41:19Z</time>
  </trkpt>
  <trkpt lat="34.224559" lon="-4.134046">
   <ele>441.00</ele>
   <time>2014-03-30T09:41:21Z</time>
  </trkpt>
  <trkpt lat="34.224448" lon="-4.133460">
   <ele>442.00</ele>
   <time>2014-03-30T09:41:23Z</time>
  </trkpt>
  <trkpt lat="34.224310" lon="-4.132886">
   <ele>442.00</ele>
   <time>2014-03-30T09:41:25Z</time>
  </trkpt>
  <trkpt lat="34.224145" lon="-4.132319">
   <ele>442.00</ele>
   <time>2014-03-30T09:41:27Z</time>
  </trkpt>
  <trkpt lat="34.223953" lon="-4.131763">
   <ele>443.00</ele>
   <time>2014-03-30T09:41:29Z</time>
  </trkpt>
  <trkpt lat="34.223743" lon="-4.131219">
   <ele>444.00</ele>
   <time>2014-03-30T09:41:31Z</time>
  </trkpt>
  <trkpt lat="34.222102" lon="-4.127174">
   <ele>445.00</ele>
   <time>2014-03-30T09:41:46Z</time>
  </trkpt>
  <trkpt lat="34.221801" lon="-4.126351">
   <ele>444.00</ele>
   <time>2014-03-30T09:41:49Z</time>
  </trkpt>
  <trkpt lat="34.221535" lon="-4.125507">
   <ele>443.00</ele>
   <time>2014-03-30T09:41:52Z</time>
  </trkpt>
  <trkpt lat="34.221380" lon="-4.124936">
   <ele>443.00</ele>
   <time>2014-03-30T09:41:54Z</time>
  </trkpt>
  <trkpt lat="34.221244" lon="-4.124364">
   <ele>441.00</ele>
   <time>2014-03-30T09:41:56Z</time>
  </trkpt>
  <trkpt lat="34.221129" lon="-4.123785">
   <ele>439.00</ele>
   <time>2014-03-30T09:41:58Z</time>
  </trkpt>
  <trkpt lat="34.220985" lon="-4.122900">
   <ele>437.00</ele>
   <time>2014-03-30T09:42:01Z</time>
  </trkpt>
  <trkpt lat="34.220913" lon="-4.122301">
   <ele>435.00</ele>
   <time>2014-03-30T09:42:03Z</time>
  </trkpt>
  <trkpt lat="34.220832" lon="-4.121395">
   <ele>432.00</ele>
   <time>2014-03-30T09:42:06Z</time>
  </trkpt>
  <trkpt lat="34.220533" lon="-4.116828">
   <ele>418.00</ele>
   <time>2014-03-30T09:42:21Z</time>
  </trkpt>
  <trkpt lat="34.220245" lon="-4.112233">
   <ele>404.00</ele>
   <time>2014-03-30T09:42:36Z</time>
  </trkpt>
  <trkpt lat="34.220048" lon="-4.108569">
   <ele>400.00</ele>
   <time>2014-03-30T09:42:48Z</time>
  </trkpt>
  <trkpt lat="34.220035" lon="-4.107348">
   <ele>400.00</ele>
   <time>2014-03-30T09:42:52Z</time>
  </trkpt>
  <trkpt lat="34.220071" lon="-4.106141">
   <ele>401.00</ele>
   <time>2014-03-30T09:42:56Z</time>
  </trkpt>
  <trkpt lat="34.220105" lon="-4.105544">
   <ele>401.00</ele>
   <time>2014-03-30T09:42:58Z</time>
  </trkpt>
  <trkpt lat="34.220209" lon="-4.104367">
   <ele>403.00</ele>
   <time>2014-03-30T09:43:02Z</time>
  </trkpt>
  <trkpt lat="34.220313" lon="-4.103492">
   <ele>404.00</ele>
   <time>2014-03-30T09:43:05Z</time>
  </trkpt>
  <trkpt lat="34.220487" lon="-4.102347">
   <ele>406.00</ele>
   <time>2014-03-30T09:43:09Z</time>
  </trkpt>
  <trkpt lat="34.220756" lon="-4.100922">
   <ele>407.00</ele>
   <time>2014-03-30T09:43:14Z</time>
  </trkpt>
  <trkpt lat="34.221763" lon="-4.096337">
   <ele>413.00</ele>
   <time>2014-03-30T09:43:30Z</time>
  </trkpt>
  <trkpt lat="34.222663" lon="-4.092352">
   <ele>417.00</ele>
   <time>2014-03-30T09:43:44Z</time>
  </trkpt>
  <trkpt lat="34.222961" lon="-4.091249">
   <ele>417.00</ele>
   <time>2014-03-30T09:43:48Z</time>
  </trkpt>
  <trkpt lat="34.223214" lon="-4.090434">
   <ele>417.00</ele>
   <time>2014-03-30T09:43:51Z</time>
  </trkpt>
  <trkpt lat="34.223576" lon="-4.089381">
   <ele>418.00</ele>
   <time>2014-03-30T09:43:55Z</time>
  </trkpt>
  <trkpt lat="34.224133" lon="-4.087963">
   <ele>418.00</ele>
   <time>2014-03-30T09:44:01Z</time>
  </trkpt>
  <trkpt lat="34.224525" lon="-4.087078">
   <ele>419.00</ele>
   <time>2014-03-30T09:44:05Z</time>
  </trkpt>
  <trkpt lat="34.225037" lon="-4.086034">
   <ele>419.00</ele>
   <time>2014-03-30T09:44:10Z</time>
  </trkpt>
  <trkpt lat="34.225606" lon="-4.084969">
   <ele>419.00</ele>
   <time>2014-03-30T09:44:15Z</time>
  </trkpt>
  <trkpt lat="34.226101" lon="-4.084129">
   <ele>420.00</ele>
   <time>2014-03-30T09:44:19Z</time>
  </trkpt>
  <trkpt lat="34.227221" lon="-4.082405">
   <ele>420.00</ele>
   <time>2014-03-30T09:44:28Z</time>
  </trkpt>
  <trkpt lat="34.228808" lon="-4.080064">
   <ele>422.00</ele>
   <time>2014-03-30T09:44:42Z</time>
  </trkpt>
  <trkpt lat="34.228928" lon="-4.079768">
   <ele>423.00</ele>
   <time>2014-03-30T09:44:44Z</time>
  </trkpt>
  <trkpt lat="34.228991" lon="-4.079445">
   <ele>424.00</ele>
   <time>2014-03-30T09:44:46Z</time>
  </trkpt>
  <trkpt lat="34.228985" lon="-4.079117">
   <ele>424.00</ele>
   <time>2014-03-30T09:44:48Z</time>
  </trkpt>
  <trkpt lat="34.228915" lon="-4.078807">
   <ele>424.00</ele>
   <time>2014-03-30T09:44:50Z</time>
  </trkpt>
  <trkpt lat="34.228783" lon="-4.078516">
   <ele>423.00</ele>
   <time>2014-03-30T09:44:52Z</time>
  </trkpt>
  <trkpt lat="34.228602" lon="-4.078248">
   <ele>421.00</ele>
   <time>2014-03-30T09:44:54Z</time>
  </trkpt>
  <trkpt lat="34.228323" lon="-4.077843">
   <ele>418.00</ele>
   <time>2014-03-30T09:44:57Z</time>
  </trkpt>
  <trkpt lat="34.228205" lon="-4.077523">
   <ele>417.00</ele>
   <time>2014-03-30T09:44:59Z</time>
  </trkpt>
  <trkpt lat="34.228179" lon="-4.077173">
   <ele>416.00</ele>
   <time>2014-03-30T09:45:01Z</time>
  </trkpt>
  <trkpt lat="34.228248" lon="-4.076831">
   <ele>414.00</ele>
   <time>2014-03-30T09:45:03Z</time>
  </trkpt>
  <trkpt lat="34.228403" lon="-4.076531">
   <ele>414.00</ele>
   <time>2014-03-30T09:45:05Z</time>
  </trkpt>
  <trkpt lat="34.228621" lon="-4.076303">
   <ele>413.00</ele>
   <time>2014-03-30T09:45:07Z</time>
  </trkpt>
  <trkpt lat="34.228874" lon="-4.076161">
   <ele>413.00</ele>
   <time>2014-03-30T09:45:09Z</time>
  </trkpt>
  <trkpt lat="34.229135" lon="-4.076088">
   <ele>413.00</ele>
   <time>2014-03-30T09:45:11Z</time>
  </trkpt>
  <trkpt lat="34.229384" lon="-4.076049">
   <ele>413.00</ele>
   <time>2014-03-30T09:45:13Z</time>
  </trkpt>
  <trkpt lat="34.229801" lon="-4.075995">
   <ele>414.00</ele>
   <time>2014-03-30T09:45:17Z</time>
  </trkpt>
  <trkpt lat="34.230018" lon="-4.075982">
   <ele>414.00</ele>
   <time>2014-03-30T09:45:20Z</time>
  </trkpt>
  <trkpt lat="34.230159" lon="-4.076045">
   <ele>410.00</ele>
   <time>2014-03-30T09:45:35Z</time>
  </trkpt>
  <trkpt lat="34.230175" lon="-4.076033">
   <ele>410.00</ele>
   <time>2014-03-30T09:45:51Z</time>
  </trkpt>
  <trkpt lat="34.230355" lon="-4.076004">
   <ele>410.00</ele>
   <time>2014-03-30T09:45:56Z</time>
  </trkpt>
  <trkpt lat="34.230557" lon="-4.075974">
   <ele>411.00</ele>
   <time>2014-03-30T09:46:01Z</time>
  </trkpt>
  <trkpt lat="34.230749" lon="-4.075966">
   <ele>412.00</ele>
   <time>2014-03-30T09:46:06Z</time>
  </trkpt>
  <trkpt lat="34.230950" lon="-4.075967">
   <ele>413.00</ele>
   <time>2014-03-30T09:46:22Z</time>
  </trkpt>
  <trkpt lat="34.231341" lon="-4.075979">
   <ele>414.00</ele>
   <time>2014-03-30T09:46:30Z</time>
  </trkpt>
  <trkpt lat="34.231563" lon="-4.075920">
   <ele>414.00</ele>
   <time>2014-03-30T09:46:33Z</time>
  </trkpt>
  <trkpt lat="34.231775" lon="-4.075761">
   <ele>415.00</ele>
   <time>2014-03-30T09:46:36Z</time>
  </trkpt>
  <trkpt lat="34.231901" lon="-4.075594">
   <ele>415.00</ele>
   <time>2014-03-30T09:46:38Z</time>
  </trkpt>
  <trkpt lat="34.232004" lon="-4.075391">
   <ele>416.00</ele>
   <time>2014-03-30T09:46:40Z</time>
  </trkpt>
  <trkpt lat="34.232061" lon="-4.075156">
   <ele>416.00</ele>
   <time>2014-03-30T09:46:42Z</time>
  </trkpt>
  <trkpt lat="34.232066" lon="-4.074914">
   <ele>417.00</ele>
   <time>2014-03-30T09:46:44Z</time>
  </trkpt>
  <trkpt lat="34.232036" lon="-4.074685">
   <ele>417.00</ele>
   <time>2014-03-30T09:46:46Z</time>
  </trkpt>
  <trkpt lat="34.231915" lon="-4.074408">
   <ele>417.00</ele>
   <time>2014-03-30T09:46:49Z</time>
  </trkpt>
  <trkpt lat="34.231735" lon="-4.074239">
   <ele>417.00</ele>
   <time>2014-03-30T09:46:52Z</time>
  </trkpt>
  <trkpt lat="34.231526" lon="-4.074231">
   <ele>417.00</ele>
   <time>2014-03-30T09:46:55Z</time>
  </trkpt>
  <trkpt lat="34.231312" lon="-4.074408">
   <ele>415.00</ele>
   <time>2014-03-30T09:46:58Z</time>
  </trkpt>
  <trkpt lat="34.231147" lon="-4.074577">
   <ele>415.00</ele>
   <time>2014-03-30T09:47:00Z</time>
  </trkpt>
  <trkpt lat="34.230697" lon="-4.075051">
   <ele>412.00</ele>
   <time>2014-03-30T09:47:05Z</time>
  </trkpt>
  <trkpt lat="34.230496" lon="-4.075214">
   <ele>412.00</ele>
   <time>2014-03-30T09:47:07Z</time>
  </trkpt>
  <trkpt lat="34.230272" lon="-4.075340">
   <ele>411.00</ele>
   <time>2014-03-30T09:47:09Z</time>
  </trkpt>
  <trkpt lat="34.230031" lon="-4.075424">
   <ele>410.00</ele>
   <time>2014-03-30T09:47:11Z</time>
  </trkpt>
  <trkpt lat="34.229776" lon="-4.075468">
   <ele>410.00</ele>
   <time>2014-03-30T09:47:13Z</time>
  </trkpt>
  <trkpt lat="34.229513" lon="-4.075466">
   <ele>410.00</ele>
   <time>2014-03-30T09:47:15Z</time>
  </trkpt>
  <trkpt lat="34.229260" lon="-4.075422">
   <ele>410.00</ele>
   <time>2014-03-30T09:47:17Z</time>
  </trkpt>
  <trkpt lat="34.229031" lon="-4.075355">
   <ele>411.00</ele>
   <time>2014-03-30T09:47:19Z</time>
  </trkpt>
  <trkpt lat="34.228637" lon="-4.075225">
   <ele>412.00</ele>
   <time>2014-03-30T09:47:23Z</time>
  </trkpt>
  <trkpt lat="34.228444" lon="-4.075183">
   <ele>411.00</ele>
   <time>2014-03-30T09:47:25Z</time>
  </trkpt>
  <trkpt lat="34.228260" lon="-4.075160">
   <ele>410.00</ele>
   <time>2014-03-30T09:47:27Z</time>
  </trkpt>
  <trkpt lat="34.228057" lon="-4.075132">
   <ele>410.00</ele>
   <time>2014-03-30T09:47:30Z</time>
  </trkpt>
  <trkpt lat="34.227983" lon="-4.074935">
   <ele>410.00</ele>
   <time>2014-03-30T09:47:45Z</time>
  </trkpt>
  <trkpt lat="34.228122" lon="-4.074746">
   <ele>410.00</ele>
   <time>2014-03-30T09:47:49Z</time>
  </trkpt>
  <trkpt lat="34.228393" lon="-4.074548">
   <ele>410.00</ele>
   <time>2014-03-30T09:47:53Z</time>
  </trkpt>
  <trkpt lat="34.229943" lon="-4.073384">
   <ele>410.00</ele>
   <time>2014-03-30T09:48:08Z</time>
  </trkpt>
  <trkpt lat="34.230348" lon="-4.073052">
   <ele>411.00</ele>
   <time>2014-03-30T09:48:11Z</time>
  </trkpt>
  <trkpt lat="34.230620" lon="-4.072800">
   <ele>412.00</ele>
   <time>2014-03-30T09:48:13Z</time>
  </trkpt>
  <trkpt lat="34.230884" lon="-4.072514">
   <ele>412.00</ele>
   <time>2014-03-30T09:48:15Z</time>
  </trkpt>
  <trkpt lat="34.232064" lon="-4.071153">
   <ele>414.00</ele>
   <time>2014-03-30T09:48:24Z</time>
  </trkpt>
  <trkpt lat="34.232191" lon="-4.070990">
   <ele>414.00</ele>
   <time>2014-03-30T09:48:25Z</time>
  </trkpt>
  <trkpt lat="34.232313" lon="-4.070820">
   <ele>414.00</ele>
   <time>2014-03-30T09:48:26Z</time>
  </trkpt>
  <trkpt lat="34.232429" lon="-4.070644">
   <ele>414.00</ele>
   <time>2014-03-30T09:48:27Z</time>
  </trkpt>
  <trkpt lat="34.232648" lon="-4.070277">
   <ele>414.00</ele>
   <time>2014-03-30T09:48:29Z</time>
  </trkpt>
  <trkpt lat="34.232748" lon="-4.070086">
   <ele>414.00</ele>
   <time>2014-03-30T09:48:30Z</time>
  </trkpt>
  <trkpt lat="34.232933" lon="-4.069691">
   <ele>414.00</ele>
   <time>2014-03-30T09:48:32Z</time>
  </trkpt>
  <trkpt lat="34.233017" lon="-4.069486">
   <ele>414.00</ele>
   <time>2014-03-30T09:48:33Z</time>
  </trkpt>
  <trkpt lat="34.233094" lon="-4.069275">
   <ele>414.00</ele>
   <time>2014-03-30T09:48:34Z</time>
  </trkpt>
  <trkpt lat="34.233162" lon="-4.069060">
   <ele>414.00</ele>
   <time>2014-03-30T09:48:35Z</time>
  </trkpt>
  <trkpt lat="34.233221" lon="-4.068840">
   <ele>414.00</ele>
   <time>2014-03-30T09:48:36Z</time>
  </trkpt>
  <trkpt lat="34.233317" lon="-4.068393">
   <ele>414.00</ele>
   <time>2014-03-30T09:48:38Z</time>
  </trkpt>
  <trkpt lat="34.233353" lon="-4.068168">
   <ele>414.00</ele>
   <time>2014-03-30T09:48:39Z</time>
  </trkpt>
  <trkpt lat="34.233380" lon="-4.067942">
   <ele>414.00</ele>
   <time>2014-03-30T09:48:40Z</time>
  </trkpt>
  <trkpt lat="34.233398" lon="-4.067715">
   <ele>414.00</ele>
   <time>2014-03-30T09:48:41Z</time>
  </trkpt>
  <trkpt lat="34.233407" lon="-4.067490">
   <ele>414.00</ele>
   <time>2014-03-30T09:48:42Z</time>
  </trkpt>
  <trkpt lat="34.233406" lon="-4.067051">
   <ele>414.00</ele>
   <time>2014-03-30T09:48:44Z</time>
  </trkpt>
  <trkpt lat="34.233319" lon="-4.064563">
   <ele>414.00</ele>
   <time>2014-03-30T09:48:59Z</time>
  </trkpt>
  <trkpt lat="34.233297" lon="-4.064202">
   <ele>414.00</ele>
   <time>2014-03-30T09:49:03Z</time>
  </trkpt>
  <trkpt lat="34.233295" lon="-4.063934">
   <ele>414.00</ele>
   <time>2014-03-30T09:49:06Z</time>
  </trkpt>
  <trkpt lat="34.233265" lon="-4.062634">
   <ele>414.00</ele>
   <time>2014-03-30T09:49:20Z</time>
  </trkpt>
  <trkpt lat="34.233274" lon="-4.062366">
   <ele>414.00</ele>
   <time>2014-03-30T09:49:23Z</time>
  </trkpt>
  <trkpt lat="34.233333" lon="-4.061250">
   <ele>414.00</ele>
   <time>2014-03-30T09:49:35Z</time>
  </trkpt>
  <trkpt lat="34.233362" lon="-4.061007">
   <ele>415.00</ele>
   <time>2014-03-30T09:49:37Z</time>
  </trkpt>
  <trkpt lat="34.233421" lon="-4.060754">
   <ele>415.00</ele>
   <time>2014-03-30T09:49:39Z</time>
  </trkpt>
  <trkpt lat="34.233506" lon="-4.060516">
   <ele>415.00</ele>
   <time>2014-03-30T09:49:41Z</time>
  </trkpt>
  <trkpt lat="34.233604" lon="-4.060302">
   <ele>415.00</ele>
   <time>2014-03-30T09:49:43Z</time>
  </trkpt>
  <trkpt lat="34.233865" lon="-4.059767">
   <ele>416.00</ele>
   <time>2014-03-30T09:49:49Z</time>
  </trkpt>
  <trkpt lat="34.233972" lon="-4.059496">
   <ele>417.00</ele>
   <time>2014-03-30T09:49:52Z</time>
  </trkpt>
  <trkpt lat="34.234064" lon="-4.059218">
   <ele>417.00</ele>
   <time>2014-03-30T09:49:55Z</time>
  </trkpt>
  <trkpt lat="34.234137" lon="-4.058917">
   <ele>418.00</ele>
   <time>2014-03-30T09:49:58Z</time>
  </trkpt>
  <trkpt lat="34.234183" lon="-4.058605">
   <ele>419.00</ele>
   <time>2014-03-30T09:50:01Z</time>
  </trkpt>
  <trkpt lat="34.234196" lon="-4.058294">
   <ele>419.00</ele>
   <time>2014-03-30T09:50:04Z</time>
  </trkpt>
  <trkpt lat="34.234178" lon="-4.057992">
   <ele>420.00</ele>
   <time>2014-03-30T09:50:07Z</time>
  </trkpt>
  <trkpt lat="34.234156" lon="-4.057683">
   <ele>420.00</ele>
   <time>2014-03-30T09:50:10Z</time>
  </trkpt>
  <trkpt lat="34.234173" lon="-4.057374">
   <ele>421.00</ele>
   <time>2014-03-30T09:50:13Z</time>
  </trkpt>
  <trkpt lat="34.234227" lon="-4.057072">
   <ele>421.00</ele>
   <time>2014-03-30T09:50:16Z</time>
  </trkpt>
  <trkpt lat="34.234384" lon="-4.056366">
   <ele>421.00</ele>
   <time>2014-03-30T09:50:23Z</time>
  </trkpt>
  <trkpt lat="34.234414" lon="-4.056119">
   <ele>421.00</ele>
   <time>2014-03-30T09:50:25Z</time>
  </trkpt>
  <trkpt lat="34.234424" lon="-4.055842">
   <ele>421.00</ele>
   <time>2014-03-30T09:50:27Z</time>
  </trkpt>
  <trkpt lat="34.234412" lon="-4.055535">
   <ele>421.00</ele>
   <time>2014-03-30T09:50:29Z</time>
  </trkpt>
  <trkpt lat="34.234356" lon="-4.054779">
   <ele>421.00</ele>
   <time>2014-03-30T09:50:34Z</time>
  </trkpt>
  <trkpt lat="34.234263" lon="-4.053813">
   <ele>422.00</ele>
   <time>2014-03-30T09:50:40Z</time>
  </trkpt>
  <trkpt lat="34.234146" lon="-4.051919">
   <ele>424.00</ele>
   <time>2014-03-30T09:50:49Z</time>
  </trkpt>
  <trkpt lat="34.234153" lon="-4.051685">
   <ele>424.00</ele>
   <time>2014-03-30T09:50:50Z</time>
  </trkpt>
  <trkpt lat="34.234170" lon="-4.051451">
   <ele>425.00</ele>
   <time>2014-03-30T09:50:51Z</time>
  </trkpt>
  <trkpt lat="34.234198" lon="-4.051222">
   <ele>425.00</ele>
   <time>2014-03-30T09:50:52Z</time>
  </trkpt>
  <trkpt lat="34.234234" lon="-4.050998">
   <ele>426.00</ele>
   <time>2014-03-30T09:50:53Z</time>
  </trkpt>
  <trkpt lat="34.234474" lon="-4.049674">
   <ele>429.00</ele>
   <time>2014-03-30T09:50:59Z</time>
  </trkpt>
  <trkpt lat="34.234485" lon="-4.049447">
   <ele>429.00</ele>
   <time>2014-03-30T09:51:00Z</time>
  </trkpt>
  <trkpt lat="34.234480" lon="-4.049219">
   <ele>430.00</ele>
   <time>2014-03-30T09:51:01Z</time>
  </trkpt>
  <trkpt lat="34.234463" lon="-4.048992">
   <ele>430.00</ele>
   <time>2014-03-30T09:51:02Z</time>
  </trkpt>
  <trkpt lat="34.234434" lon="-4.048768">
   <ele>430.00</ele>
   <time>2014-03-30T09:51:03Z</time>
  </trkpt>
  <trkpt lat="34.234393" lon="-4.048547">
   <ele>430.00</ele>
   <time>2014-03-30T09:51:04Z</time>
  </trkpt>
  <trkpt lat="34.234341" lon="-4.048332">
   <ele>430.00</ele>
   <time>2014-03-30T09:51:05Z</time>
  </trkpt>
  <trkpt lat="34.234280" lon="-4.048124">
   <ele>430.00</ele>
   <time>2014-03-30T09:51:06Z</time>
  </trkpt>
  <trkpt lat="34.234136" lon="-4.047754">
   <ele>430.00</ele>
   <time>2014-03-30T09:51:08Z</time>
  </trkpt>
  <trkpt lat="34.233960" lon="-4.047443">
   <ele>430.00</ele>
   <time>2014-03-30T09:51:10Z</time>
  </trkpt>
  <trkpt lat="34.233756" lon="-4.047158">
   <ele>429.00</ele>
   <time>2014-03-30T09:51:12Z</time>
  </trkpt>
  <trkpt lat="34.233534" lon="-4.046900">
   <ele>428.00</ele>
   <time>2014-03-30T09:51:14Z</time>
  </trkpt>
  <trkpt lat="34.232991" lon="-4.046271">
   <ele>427.00</ele>
   <time>2014-03-30T09:51:19Z</time>
  </trkpt>
  <trkpt lat="34.232802" lon="-4.046015">
   <ele>427.00</ele>
   <time>2014-03-30T09:51:21Z</time>
  </trkpt>
  <trkpt lat="34.232644" lon="-4.045743">
   <ele>426.00</ele>
   <time>2014-03-30T09:51:23Z</time>
  </trkpt>
  <trkpt lat="34.232517" lon="-4.045474">
   <ele>426.00</ele>
   <time>2014-03-30T09:51:25Z</time>
  </trkpt>
  <trkpt lat="34.232418" lon="-4.045226">
   <ele>426.00</ele>
   <time>2014-03-30T09:51:27Z</time>
  </trkpt>
  <trkpt lat="34.232340" lon="-4.044993">
   <ele>426.00</ele>
   <time>2014-03-30T09:51:29Z</time>
  </trkpt>
  <trkpt lat="34.232281" lon="-4.044770">
   <ele>426.00</ele>
   <time>2014-03-30T09:51:31Z</time>
  </trkpt>
  <trkpt lat="34.232237" lon="-4.044549">
   <ele>426.00</ele>
   <time>2014-03-30T09:51:33Z</time>
  </trkpt>
  <trkpt lat="34.232202" lon="-4.044320">
   <ele>426.00</ele>
   <time>2014-03-30T09:51:35Z</time>
  </trkpt>
  <trkpt lat="34.232178" lon="-4.044083">
   <ele>426.00</ele>
   <time>2014-03-30T09:51:37Z</time>
  </trkpt>
  <trkpt lat="34.232167" lon="-4.043835">
   <ele>426.00</ele>
   <time>2014-03-30T09:51:39Z</time>
  </trkpt>
  <trkpt lat="34.232167" lon="-4.043578">
   <ele>426.00</ele>
   <time>2014-03-30T09:51:41Z</time>
  </trkpt>
  <trkpt lat="34.232181" lon="-4.043329">
   <ele>426.00</ele>
   <time>2014-03-30T09:51:43Z</time>
  </trkpt>
  <trkpt lat="34.232247" lon="-4.042586">
   <ele>428.00</ele>
   <time>2014-03-30T09:51:49Z</time>
  </trkpt>
  <trkpt lat="34.232361" lon="-4.041421">
   <ele>430.00</ele>
   <time>2014-03-30T09:51:58Z</time>
  </trkpt>
  <trkpt lat="34.232374" lon="-4.041163">
   <ele>431.00</ele>
   <time>2014-03-30T09:52:00Z</time>
  </trkpt>
  <trkpt lat="34.232382" lon="-4.040374">
   <ele>433.00</ele>
   <time>2014-03-30T09:52:06Z</time>
  </trkpt>
  <trkpt lat="34.232370" lon="-4.040099">
   <ele>433.00</ele>
   <time>2014-03-30T09:52:08Z</time>
  </trkpt>
  <trkpt lat="34.232345" lon="-4.039802">
   <ele>434.00</ele>
   <time>2014-03-30T09:52:10Z</time>
  </trkpt>
  <trkpt lat="34.232304" lon="-4.039466">
   <ele>434.00</ele>
   <time>2014-03-30T09:52:12Z</time>
  </trkpt>
  <trkpt lat="34.232246" lon="-4.039124">
   <ele>434.00</ele>
   <time>2014-03-30T09:52:14Z</time>
  </trkpt>
  <trkpt lat="34.232172" lon="-4.038779">
   <ele>434.00</ele>
   <time>2014-03-30T09:52:16Z</time>
  </trkpt>
  <trkpt lat="34.231906" lon="-4.037522">
   <ele>435.00</ele>
   <time>2014-03-30T09:52:23Z</time>
  </trkpt>
  <trkpt lat="34.231592" lon="-4.035859">
   <ele>436.00</ele>
   <time>2014-03-30T09:52:32Z</time>
  </trkpt>
  <trkpt lat="34.231558" lon="-4.035488">
   <ele>436.00</ele>
   <time>2014-03-30T09:52:34Z</time>
  </trkpt>
  <trkpt lat="34.231548" lon="-4.035115">
   <ele>436.00</ele>
   <time>2014-03-30T09:52:36Z</time>
  </trkpt>
  <trkpt lat="34.231568" lon="-4.034746">
   <ele>436.00</ele>
   <time>2014-03-30T09:52:38Z</time>
  </trkpt>
  <trkpt lat="34.231634" lon="-4.034213">
   <ele>437.00</ele>
   <time>2014-03-30T09:52:41Z</time>
  </trkpt>
  <trkpt lat="34.231905" lon="-4.032284">
   <ele>438.00</ele>
   <time>2014-03-30T09:52:54Z</time>
  </trkpt>
  <trkpt lat="34.231893" lon="-4.031935">
   <ele>438.00</ele>
   <time>2014-03-30T09:52:58Z</time>
  </trkpt>
  <trkpt lat="34.232021" lon="-4.031548">
   <ele>437.00</ele>
   <time>2014-03-30T09:53:02Z</time>
  </trkpt>
  <trkpt lat="34.232063" lon="-4.031319">
   <ele>438.00</ele>
   <time>2014-03-30T09:53:04Z</time>
  </trkpt>
  <trkpt lat="34.232183" lon="-4.030532">
   <ele>438.00</ele>
   <time>2014-03-30T09:53:10Z</time>
  </trkpt>
  <trkpt lat="34.232500" lon="-4.028230">
   <ele>441.00</ele>
   <time>2014-03-30T09:53:26Z</time>
  </trkpt>
  <trkpt lat="34.232670" lon="-4.027046">
   <ele>442.00</ele>
   <time>2014-03-30T09:53:34Z</time>
  </trkpt>
  <trkpt lat="34.232742" lon="-4.026752">
   <ele>442.00</ele>
   <time>2014-03-30T09:53:36Z</time>
  </trkpt>
  <trkpt lat="34.232839" lon="-4.026467">
   <ele>442.00</ele>
   <time>2014-03-30T09:53:38Z</time>
  </trkpt>
  <trkpt lat="34.232957" lon="-4.026196">
   <ele>442.00</ele>
   <time>2014-03-30T09:53:40Z</time>
  </trkpt>
  <trkpt lat="34.233101" lon="-4.025947">
   <ele>442.00</ele>
   <time>2014-03-30T09:53:42Z</time>
  </trkpt>
  <trkpt lat="34.233272" lon="-4.025728">
   <ele>442.00</ele>
   <time>2014-03-30T09:53:44Z</time>
  </trkpt>
  <trkpt lat="34.233524" lon="-4.025430">
   <ele>441.00</ele>
   <time>2014-03-30T09:53:47Z</time>
  </trkpt>
  <trkpt lat="34.233655" lon="-4.025214">
   <ele>441.00</ele>
   <time>2014-03-30T09:53:49Z</time>
  </trkpt>
  <trkpt lat="34.233744" lon="-4.024970">
   <ele>440.00</ele>
   <time>2014-03-30T09:53:51Z</time>
  </trkpt>
  <trkpt lat="34.233792" lon="-4.024707">
   <ele>440.00</ele>
   <time>2014-03-30T09:53:53Z</time>
  </trkpt>
  <trkpt lat="34.233813" lon="-4.024433">
   <ele>439.00</ele>
   <time>2014-03-30T09:53:55Z</time>
  </trkpt>
  <trkpt lat="34.233856" lon="-4.023869">
   <ele>437.00</ele>
   <time>2014-03-30T09:53:59Z</time>
  </trkpt>
  <trkpt lat="34.233908" lon="-4.023295">
   <ele>437.00</ele>
   <time>2014-03-30T09:54:03Z</time>
  </trkpt>
  <trkpt lat="34.233924" lon="-4.022998">
   <ele>437.00</ele>
   <time>2014-03-30T09:54:05Z</time>
  </trkpt>
  <trkpt lat="34.233922" lon="-4.022699">
   <ele>438.00</ele>
   <time>2014-03-30T09:54:07Z</time>
  </trkpt>
  <trkpt lat="34.233897" lon="-4.022413">
   <ele>439.00</ele>
   <time>2014-03-30T09:54:09Z</time>
  </trkpt>
  <trkpt lat="34.233850" lon="-4.022147">
   <ele>440.00</ele>
   <time>2014-03-30T09:54:11Z</time>
  </trkpt>
  <trkpt lat="34.233781" lon="-4.021901">
   <ele>441.00</ele>
   <time>2014-03-30T09:54:13Z</time>
  </trkpt>
  <trkpt lat="34.233486" lon="-4.021042">
   <ele>443.00</ele>
   <time>2014-03-30T09:54:23Z</time>
  </trkpt>
  <trkpt lat="34.233380" lon="-4.020775">
   <ele>444.00</ele>
   <time>2014-03-30T09:54:27Z</time>
  </trkpt>
  <trkpt lat="34.233149" lon="-4.020050">
   <ele>446.00</ele>
   <time>2014-03-30T09:54:36Z</time>
  </trkpt>
  <trkpt lat="34.233070" lon="-4.019761">
   <ele>446.00</ele>
   <time>2014-03-30T09:54:39Z</time>
  </trkpt>
  <trkpt lat="34.232949" lon="-4.019257">
   <ele>447.00</ele>
   <time>2014-03-30T09:54:44Z</time>
  </trkpt>
  <trkpt lat="34.232796" lon="-4.018552">
   <ele>446.00</ele>
   <time>2014-03-30T09:54:51Z</time>
  </trkpt>
  <trkpt lat="34.232657" lon="-4.017933">
   <ele>446.00</ele>
   <time>2014-03-30T09:54:57Z</time>
  </trkpt>
  <trkpt lat="34.232392" lon="-4.016797">
   <ele>450.00</ele>
   <time>2014-03-30T09:55:08Z</time>
  </trkpt>
  <trkpt lat="34.232012" lon="-4.015215">
   <ele>450.00</ele>
   <time>2014-03-30T09:55:23Z</time>
  </trkpt>
  <trkpt lat="34.231613" lon="-4.013438">
   <ele>450.00</ele>
   <time>2014-03-30T09:55:38Z</time>
  </trkpt>
  <trkpt lat="34.231209" lon="-4.011602">
   <ele>455.00</ele>
   <time>2014-03-30T09:55:54Z</time>
  </trkpt>
  <trkpt lat="34.231021" lon="-4.010712">
   <ele>457.00</ele>
   <time>2014-03-30T09:56:02Z</time>
  </trkpt>
  <trkpt lat="34.230980" lon="-4.010420">
   <ele>457.00</ele>
   <time>2014-03-30T09:56:05Z</time>
  </trkpt>
  <trkpt lat="34.230951" lon="-4.010158">
   <ele>456.00</ele>
   <time>2014-03-30T09:56:08Z</time>
  </trkpt>
  <trkpt lat="34.230948" lon="-4.009914">
   <ele>455.00</ele>
   <time>2014-03-30T09:56:12Z</time>
  </trkpt>
  <trkpt lat="34.230978" lon="-4.009693">
   <ele>454.00</ele>
   <time>2014-03-30T09:56:19Z</time>
  </trkpt>
  <trkpt lat="34.231023" lon="-4.009432">
   <ele>454.00</ele>
   <time>2014-03-30T09:56:23Z</time>
  </trkpt>
  <trkpt lat="34.231078" lon="-4.009169">
   <ele>455.00</ele>
   <time>2014-03-30T09:56:26Z</time>
  </trkpt>
  <trkpt lat="34.231264" lon="-4.008408">
   <ele>456.00</ele>
   <time>2014-03-30T09:56:36Z</time>
  </trkpt>
  <trkpt lat="34.231277" lon="-4.008142">
   <ele>456.00</ele>
   <time>2014-03-30T09:56:40Z</time>
  </trkpt>
  <trkpt lat="34.231095" lon="-4.007993">
   <ele>456.00</ele>
   <time>2014-03-30T09:56:44Z</time>
  </trkpt>
  <trkpt lat="34.230844" lon="-4.007889">
   <ele>456.00</ele>
   <time>2014-03-30T09:56:48Z</time>
  </trkpt>
  <trkpt lat="34.230642" lon="-4.007822">
   <ele>456.00</ele>
   <time>2014-03-30T09:56:51Z</time>
  </trkpt>
  <trkpt lat="34.230424" lon="-4.007801">
   <ele>455.00</ele>
   <time>2014-03-30T09:56:54Z</time>
  </trkpt>
  <trkpt lat="34.230199" lon="-4.007852">
   <ele>454.00</ele>
   <time>2014-03-30T09:56:57Z</time>
  </trkpt>
  <trkpt lat="34.229979" lon="-4.007967">
   <ele>454.00</ele>
   <time>2014-03-30T09:57:00Z</time>
  </trkpt>
  <trkpt lat="34.229735" lon="-4.008225">
   <ele>454.00</ele>
   <time>2014-03-30T09:57:04Z</time>
  </trkpt>
  <trkpt lat="34.229640" lon="-4.008412">
   <ele>456.00</ele>
   <time>2014-03-30T09:57:06Z</time>
  </trkpt>
  <trkpt lat="34.229577" lon="-4.008626">
   <ele>457.00</ele>
   <time>2014-03-30T09:57:08Z</time>
  </trkpt>
  <trkpt lat="34.229523" lon="-4.008861">
   <ele>458.00</ele>
   <time>2014-03-30T09:57:10Z</time>
  </trkpt>
  <trkpt lat="34.229278" lon="-4.009977">
   <ele>463.00</ele>
   <time>2014-03-30T09:57:19Z</time>
  </trkpt>
  <trkpt lat="34.229207" lon="-4.010203">
   <ele>464.00</ele>
   <time>2014-03-30T09:57:21Z</time>
  </trkpt>
  <trkpt lat="34.229112" lon="-4.010409">
   <ele>465.00</ele>
   <time>2014-03-30T09:57:23Z</time>
  </trkpt>
  <trkpt lat="34.228982" lon="-4.010584">
   <ele>467.00</ele>
   <time>2014-03-30T09:57:25Z</time>
  </trkpt>
  <trkpt lat="34.228824" lon="-4.010724">
   <ele>468.00</ele>
   <time>2014-03-30T09:57:27Z</time>
  </trkpt>
  <trkpt lat="34.228643" lon="-4.010821">
   <ele>469.00</ele>
   <time>2014-03-30T09:57:29Z</time>
  </trkpt>
  <trkpt lat="34.228449" lon="-4.010870">
   <ele>470.00</ele>
   <time>2014-03-30T09:57:31Z</time>
  </trkpt>
  <trkpt lat="34.228249" lon="-4.010896">
   <ele>471.00</ele>
   <time>2014-03-30T09:57:33Z</time>
  </trkpt>
  <trkpt lat="34.226681" lon="-4.011092">
   <ele>482.00</ele>
   <time>2014-03-30T09:57:49Z</time>
  </trkpt>
  <trkpt lat="34.225403" lon="-4.011273">
   <ele>490.00</ele>
   <time>2014-03-30T09:58:04Z</time>
  </trkpt>
  <trkpt lat="34.224209" lon="-4.011439">
   <ele>495.00</ele>
   <time>2014-03-30T09:58:19Z</time>
  </trkpt>
  <trkpt lat="34.222710" lon="-4.011657">
   <ele>499.00</ele>
   <time>2014-03-30T09:58:33Z</time>
  </trkpt>
  <trkpt lat="34.222471" lon="-4.011657">
   <ele>499.00</ele>
   <time>2014-03-30T09:58:35Z</time>
  </trkpt>
  <trkpt lat="34.222242" lon="-4.011600">
   <ele>501.00</ele>
   <time>2014-03-30T09:58:37Z</time>
  </trkpt>
  <trkpt lat="34.222045" lon="-4.011476">
   <ele>502.00</ele>
   <time>2014-03-30T09:58:39Z</time>
  </trkpt>
  <trkpt lat="34.221887" lon="-4.011311">
   <ele>503.00</ele>
   <time>2014-03-30T09:58:41Z</time>
  </trkpt>
  <trkpt lat="34.221770" lon="-4.011121">
   <ele>503.00</ele>
   <time>2014-03-30T09:58:43Z</time>
  </trkpt>
  <trkpt lat="34.221699" lon="-4.010898">
   <ele>502.00</ele>
   <time>2014-03-30T09:58:45Z</time>
  </trkpt>
  <trkpt lat="34.221669" lon="-4.010659">
   <ele>504.00</ele>
   <time>2014-03-30T09:58:47Z</time>
  </trkpt>
  <trkpt lat="34.221688" lon="-4.010421">
   <ele>506.00</ele>
   <time>2014-03-30T09:58:49Z</time>
  </trkpt>
  <trkpt lat="34.221734" lon="-4.010203">
   <ele>506.00</ele>
   <time>2014-03-30T09:58:51Z</time>
  </trkpt>
  <trkpt lat="34.221900" lon="-4.009552">
   <ele>507.00</ele>
   <time>2014-03-30T09:58:58Z</time>
  </trkpt>
  <trkpt lat="34.221977" lon="-4.009280">
   <ele>509.00</ele>
   <time>2014-03-30T09:59:02Z</time>
  </trkpt>
  <trkpt lat="34.222002" lon="-4.009088">
   <ele>511.00</ele>
   <time>2014-03-30T09:59:13Z</time>
  </trkpt>
  <trkpt lat="34.221996" lon="-4.008861">
   <ele>513.00</ele>
   <time>2014-03-30T09:59:26Z</time>
  </trkpt>
  <trkpt lat="34.221934" lon="-4.008622">
   <ele>513.00</ele>
   <time>2014-03-30T09:59:30Z</time>
  </trkpt>
  <trkpt lat="34.221783" lon="-4.008392">
   <ele>513.00</ele>
   <time>2014-03-30T09:59:34Z</time>
  </trkpt>
  <trkpt lat="34.221642" lon="-4.008237">
   <ele>514.00</ele>
   <time>2014-03-30T09:59:37Z</time>
  </trkpt>
  <trkpt lat="34.221475" lon="-4.008102">
   <ele>514.00</ele>
   <time>2014-03-30T09:59:40Z</time>
  </trkpt>
  <trkpt lat="34.221165" lon="-4.007868">
   <ele>514.00</ele>
   <time>2014-03-30T09:59:45Z</time>
  </trkpt>
  <trkpt lat="34.220995" lon="-4.007714">
   <ele>515.00</ele>
   <time>2014-03-30T09:59:48Z</time>
  </trkpt>
  <trkpt lat="34.220784" lon="-4.007562">
   <ele>515.00</ele>
   <time>2014-03-30T09:59:51Z</time>
  </trkpt>
  <trkpt lat="34.220486" lon="-4.007331">
   <ele>516.00</ele>
   <time>2014-03-30T09:59:55Z</time>
  </trkpt>
  <trkpt lat="34.219923" lon="-4.006895">
   <ele>518.00</ele>
   <time>2014-03-30T10:00:02Z</time>
  </trkpt>
  <trkpt lat="34.218602" lon="-4.005913">
   <ele>519.00</ele>
   <time>2014-03-30T10:00:17Z</time>
  </trkpt>
  <trkpt lat="34.218345" lon="-4.005726">
   <ele>519.00</ele>
   <time>2014-03-30T10:00:20Z</time>
  </trkpt>
  <trkpt lat="34.218168" lon="-4.005631">
   <ele>519.00</ele>
   <time>2014-03-30T10:00:22Z</time>
  </trkpt>
  <trkpt lat="34.217984" lon="-4.005588">
   <ele>519.00</ele>
   <time>2014-03-30T10:00:24Z</time>
  </trkpt>
  <trkpt lat="34.217797" lon="-4.005596">
   <ele>519.00</ele>
   <time>2014-03-30T10:00:26Z</time>
  </trkpt>
  <trkpt lat="34.217613" lon="-4.005650">
   <ele>519.00</ele>
   <time>2014-03-30T10:00:28Z</time>
  </trkpt>
  <trkpt lat="34.217280" lon="-4.005784">
   <ele>519.00</ele>
   <time>2014-03-30T10:00:32Z</time>
  </trkpt>
  <trkpt lat="34.216860" lon="-4.005969">
   <ele>519.00</ele>
   <time>2014-03-30T10:00:37Z</time>
  </trkpt>
  <trkpt lat="34.216684" lon="-4.006066">
   <ele>518.00</ele>
   <time>2014-03-30T10:00:39Z</time>
  </trkpt>
  <trkpt lat="34.216517" lon="-4.006203">
   <ele>518.00</ele>
   <time>2014-03-30T10:00:41Z</time>
  </trkpt>
  <trkpt lat="34.216370" lon="-4.006385">
   <ele>518.00</ele>
   <time>2014-03-30T10:00:43Z</time>
  </trkpt>
  <trkpt lat="34.216236" lon="-4.006593">
   <ele>518.00</ele>
   <time>2014-03-30T10:00:45Z</time>
  </trkpt>
  <trkpt lat="34.215169" lon="-4.008390">
   <ele>519.00</ele>
   <time>2014-03-30T10:01:01Z</time>
  </trkpt>
  <trkpt lat="34.214220" lon="-4.009971">
   <ele>522.00</ele>
   <time>2014-03-30T10:01:16Z</time>
  </trkpt>
  <trkpt lat="34.213773" lon="-4.010676">
   <ele>524.00</ele>
   <time>2014-03-30T10:01:23Z</time>
  </trkpt>
  <trkpt lat="34.213597" lon="-4.010966">
   <ele>524.00</ele>
   <time>2014-03-30T10:01:26Z</time>
  </trkpt>
  <trkpt lat="34.213475" lon="-4.011160">
   <ele>525.00</ele>
   <time>2014-03-30T10:01:28Z</time>
  </trkpt>
  <trkpt lat="34.213157" lon="-4.011663">
   <ele>526.00</ele>
   <time>2014-03-30T10:01:33Z</time>
  </trkpt>
  <trkpt lat="34.212483" lon="-4.012803">
   <ele>527.00</ele>
   <time>2014-03-30T10:01:44Z</time>
  </trkpt>
  <trkpt lat="34.212301" lon="-4.013130">
   <ele>529.00</ele>
   <time>2014-03-30T10:01:49Z</time>
  </trkpt>
  <trkpt lat="34.212080" lon="-4.013099">
   <ele>528.00</ele>
   <time>2014-03-30T10:01:53Z</time>
  </trkpt>
  <trkpt lat="34.211858" lon="-4.012953">
   <ele>528.00</ele>
   <time>2014-03-30T10:01:56Z</time>
  </trkpt>
  <trkpt lat="34.210924" lon="-4.012449">
   <ele>532.00</ele>
   <time>2014-03-30T10:02:07Z</time>
  </trkpt>
  <trkpt lat="34.210763" lon="-4.012317">
   <ele>533.00</ele>
   <time>2014-03-30T10:02:09Z</time>
  </trkpt>
  <trkpt lat="34.210620" lon="-4.012148">
   <ele>534.00</ele>
   <time>2014-03-30T10:02:11Z</time>
  </trkpt>
  <trkpt lat="34.210409" lon="-4.011865">
   <ele>536.00</ele>
   <time>2014-03-30T10:02:14Z</time>
  </trkpt>
  <trkpt lat="34.210206" lon="-4.011590">
   <ele>538.00</ele>
   <time>2014-03-30T10:02:17Z</time>
  </trkpt>
  <trkpt lat="34.210060" lon="-4.011434">
   <ele>540.00</ele>
   <time>2014-03-30T10:02:19Z</time>
  </trkpt>
  <trkpt lat="34.209903" lon="-4.011301">
   <ele>541.00</ele>
   <time>2014-03-30T10:02:21Z</time>
  </trkpt>
  <trkpt lat="34.209739" lon="-4.011197">
   <ele>543.00</ele>
   <time>2014-03-30T10:02:23Z</time>
  </trkpt>
  <trkpt lat="34.209561" lon="-4.011129">
   <ele>544.00</ele>
   <time>2014-03-30T10:02:25Z</time>
  </trkpt>
  <trkpt lat="34.209369" lon="-4.011084">
   <ele>545.00</ele>
   <time>2014-03-30T10:02:27Z</time>
  </trkpt>
  <trkpt lat="34.207658" lon="-4.010739">
   <ele>553.00</ele>
   <time>2014-03-30T10:02:43Z</time>
  </trkpt>
  <trkpt lat="34.207343" lon="-4.010673">
   <ele>554.00</ele>
   <time>2014-03-30T10:02:46Z</time>
  </trkpt>
  <trkpt lat="34.206820" lon="-4.010586">
   <ele>556.00</ele>
   <time>2014-03-30T10:02:51Z</time>
  </trkpt>
  <trkpt lat="34.206611" lon="-4.010578">
   <ele>556.00</ele>
   <time>2014-03-30T10:02:53Z</time>
  </trkpt>
  <trkpt lat="34.206405" lon="-4.010600">
   <ele>557.00</ele>
   <time>2014-03-30T10:02:55Z</time>
  </trkpt>
  <trkpt lat="34.206201" lon="-4.010669">
   <ele>557.00</ele>
   <time>2014-03-30T10:02:57Z</time>
  </trkpt>
  <trkpt lat="34.205999" lon="-4.010757">
   <ele>557.00</ele>
   <time>2014-03-30T10:02:59Z</time>
  </trkpt>
  <trkpt lat="34.204699" lon="-4.011331">
   <ele>559.00</ele>
   <time>2014-03-30T10:03:11Z</time>
  </trkpt>
  <trkpt lat="34.204501" lon="-4.011459">
   <ele>560.00</ele>
   <time>2014-03-30T10:03:13Z</time>
  </trkpt>
  <trkpt lat="34.204335" lon="-4.011630">
   <ele>561.00</ele>
   <time>2014-03-30T10:03:15Z</time>
  </trkpt>
  <trkpt lat="34.204205" lon="-4.011844">
   <ele>561.00</ele>
   <time>2014-03-30T10:03:17Z</time>
  </trkpt>
  <trkpt lat="34.204107" lon="-4.012084">
   <ele>562.00</ele>
   <time>2014-03-30T10:03:19Z</time>
  </trkpt>
  <trkpt lat="34.204045" lon="-4.012348">
   <ele>564.00</ele>
   <time>2014-03-30T10:03:21Z</time>
  </trkpt>
  <trkpt lat="34.204006" lon="-4.012623">
   <ele>567.00</ele>
   <time>2014-03-30T10:03:23Z</time>
  </trkpt>
  <trkpt lat="34.203981" lon="-4.012902">
   <ele>570.00</ele>
   <time>2014-03-30T10:03:25Z</time>
  </trkpt>
  <trkpt lat="34.203964" lon="-4.013179">
   <ele>573.00</ele>
   <time>2014-03-30T10:03:27Z</time>
  </trkpt>
  <trkpt lat="34.203957" lon="-4.013459">
   <ele>575.00</ele>
   <time>2014-03-30T10:03:29Z</time>
  </trkpt>
  <trkpt lat="34.203961" lon="-4.013733">
   <ele>578.00</ele>
   <time>2014-03-30T10:03:31Z</time>
  </trkpt>
  <trkpt lat="34.203977" lon="-4.013997">
   <ele>580.00</ele>
   <time>2014-03-30T10:03:33Z</time>
  </trkpt>
  <trkpt lat="34.204044" lon="-4.014743">
   <ele>586.00</ele>
   <time>2014-03-30T10:03:39Z</time>
  </trkpt>
  <trkpt lat="34.204091" lon="-4.014957">
   <ele>588.00</ele>
   <time>2014-03-30T10:03:41Z</time>
  </trkpt>
  <trkpt lat="34.204239" lon="-4.015183">
   <ele>591.00</ele>
   <time>2014-03-30T10:03:44Z</time>
  </trkpt>
  <trkpt lat="34.204474" lon="-4.015280">
   <ele>592.00</ele>
   <time>2014-03-30T10:03:47Z</time>
  </trkpt>
  <trkpt lat="34.204660" lon="-4.015266">
   <ele>592.00</ele>
   <time>2014-03-30T10:03:49Z</time>
  </trkpt>
  <trkpt lat="34.204855" lon="-4.015208">
   <ele>592.00</ele>
   <time>2014-03-30T10:03:51Z</time>
  </trkpt>
  <trkpt lat="34.206410" lon="-4.014708">
   <ele>593.00</ele>
   <time>2014-03-30T10:04:06Z</time>
  </trkpt>
  <trkpt lat="34.206680" lon="-4.014612">
   <ele>593.00</ele>
   <time>2014-03-30T10:04:09Z</time>
  </trkpt>
  <trkpt lat="34.206916" lon="-4.014484">
   <ele>593.00</ele>
   <time>2014-03-30T10:04:12Z</time>
  </trkpt>
  <trkpt lat="34.207151" lon="-4.014347">
   <ele>593.00</ele>
   <time>2014-03-30T10:04:15Z</time>
  </trkpt>
  <trkpt lat="34.207330" lon="-4.014284">
   <ele>594.00</ele>
   <time>2014-03-30T10:04:17Z</time>
  </trkpt>
  <trkpt lat="34.207521" lon="-4.014261">
   <ele>594.00</ele>
   <time>2014-03-30T10:04:19Z</time>
  </trkpt>
  <trkpt lat="34.207706" lon="-4.014284">
   <ele>593.00</ele>
   <time>2014-03-30T10:04:21Z</time>
  </trkpt>
  <trkpt lat="34.207880" lon="-4.014344">
   <ele>593.00</ele>
   <time>2014-03-30T10:04:23Z</time>
  </trkpt>
  <trkpt lat="34.208229" lon="-4.014498">
   <ele>590.00</ele>
   <time>2014-03-30T10:04:29Z</time>
  </trkpt>
  <trkpt lat="34.208397" lon="-4.014592">
   <ele>590.00</ele>
   <time>2014-03-30T10:04:32Z</time>
  </trkpt>
  <trkpt lat="34.208699" lon="-4.014777">
   <ele>590.00</ele>
   <time>2014-03-30T10:04:37Z</time>
  </trkpt>
  <trkpt lat="34.208916" lon="-4.014924">
   <ele>591.00</ele>
   <time>2014-03-30T10:04:41Z</time>
  </trkpt>
  <trkpt lat="34.209525" lon="-4.015367">
   <ele>592.00</ele>
   <time>2014-03-30T10:04:54Z</time>
  </trkpt>
  <trkpt lat="34.209530" lon="-4.015578">
   <ele>592.00</ele>
   <time>2014-03-30T10:04:59Z</time>
  </trkpt>
  <trkpt lat="34.209373" lon="-4.015484">
   <ele>591.00</ele>
   <time>2014-03-30T10:05:03Z</time>
  </trkpt>
  <trkpt lat="34.209222" lon="-4.015303">
   <ele>589.00</ele>
   <time>2014-03-30T10:05:10Z</time>
  </trkpt>
  <trkpt lat="34.209040" lon="-4.015130">
   <ele>588.00</ele>
   <time>2014-03-30T10:05:14Z</time>
  </trkpt>
  <trkpt lat="34.208858" lon="-4.014995">
   <ele>590.00</ele>
   <time>2014-03-30T10:05:17Z</time>
  </trkpt>
  <trkpt lat="34.208658" lon="-4.014861">
   <ele>591.00</ele>
   <time>2014-03-30T10:05:20Z</time>
  </trkpt>
  <trkpt lat="34.208435" lon="-4.014726">
   <ele>591.00</ele>
   <time>2014-03-30T10:05:23Z</time>
  </trkpt>
  <trkpt lat="34.207983" lon="-4.014455">
   <ele>594.00</ele>
   <time>2014-03-30T10:05:29Z</time>
  </trkpt>
  <trkpt lat="34.207754" lon="-4.014370">
   <ele>595.00</ele>
   <time>2014-03-30T10:05:32Z</time>
  </trkpt>
  <trkpt lat="34.207527" lon="-4.014374">
   <ele>595.00</ele>
   <time>2014-03-30T10:05:35Z</time>
  </trkpt>
  <trkpt lat="34.207312" lon="-4.014448">
   <ele>594.00</ele>
   <time>2014-03-30T10:05:38Z</time>
  </trkpt>
  <trkpt lat="34.206946" lon="-4.014582">
   <ele>593.00</ele>
   <time>2014-03-30T10:05:47Z</time>
  </trkpt>
  <trkpt lat="34.205957" lon="-4.014877">
   <ele>592.00</ele>
   <time>2014-03-30T10:06:02Z</time>
  </trkpt>
  <trkpt lat="34.204802" lon="-4.015247">
   <ele>593.00</ele>
   <time>2014-03-30T10:06:14Z</time>
  </trkpt>
  <trkpt lat="34.204628" lon="-4.015339">
   <ele>593.00</ele>
   <time>2014-03-30T10:06:16Z</time>
  </trkpt>
  <trkpt lat="34.204460" lon="-4.015452">
   <ele>593.00</ele>
   <time>2014-03-30T10:06:18Z</time>
  </trkpt>
  <trkpt lat="34.203841" lon="-4.015910">
   <ele>593.00</ele>
   <time>2014-03-30T10:06:27Z</time>
  </trkpt>
  <trkpt lat="34.203555" lon="-4.016132">
   <ele>593.00</ele>
   <time>2014-03-30T10:06:31Z</time>
  </trkpt>
  <trkpt lat="34.203230" lon="-4.016365">
   <ele>593.00</ele>
   <time>2014-03-30T10:06:35Z</time>
  </trkpt>
  <trkpt lat="34.203074" lon="-4.016492">
   <ele>594.00</ele>
   <time>2014-03-30T10:06:37Z</time>
  </trkpt>
  <trkpt lat="34.202926" lon="-4.016632">
   <ele>595.00</ele>
   <time>2014-03-30T10:06:39Z</time>
  </trkpt>
  <trkpt lat="34.202805" lon="-4.016796">
   <ele>595.00</ele>
   <time>2014-03-30T10:06:41Z</time>
  </trkpt>
  <trkpt lat="34.202700" lon="-4.016987">
   <ele>596.00</ele>
   <time>2014-03-30T10:06:43Z</time>
  </trkpt>
  <trkpt lat="34.202480" lon="-4.017393">
   <ele>599.00</ele>
   <time>2014-03-30T10:06:47Z</time>
  </trkpt>
  <trkpt lat="34.202334" lon="-4.017556">
   <ele>600.00</ele>
   <time>2014-03-30T10:06:49Z</time>
  </trkpt>
  <trkpt lat="34.202150" lon="-4.017642">
   <ele>601.00</ele>
   <time>2014-03-30T10:06:51Z</time>
  </trkpt>
  <trkpt lat="34.201944" lon="-4.017670">
   <ele>602.00</ele>
   <time>2014-03-30T10:06:53Z</time>
  </trkpt>
  <trkpt lat="34.201721" lon="-4.017672">
   <ele>603.00</ele>
   <time>2014-03-30T10:06:55Z</time>
  </trkpt>
  <trkpt lat="34.201488" lon="-4.017656">
   <ele>604.00</ele>
   <time>2014-03-30T10:06:57Z</time>
  </trkpt>
  <trkpt lat="34.201260" lon="-4.017611">
   <ele>604.00</ele>
   <time>2014-03-30T10:06:59Z</time>
  </trkpt>
  <trkpt lat="34.201036" lon="-4.017549">
   <ele>605.00</ele>
   <time>2014-03-30T10:07:01Z</time>
  </trkpt>
  <trkpt lat="34.200715" lon="-4.017454">
   <ele>607.00</ele>
   <time>2014-03-30T10:07:04Z</time>
  </trkpt>
  <trkpt lat="34.200297" lon="-4.017359">
   <ele>607.00</ele>
   <time>2014-03-30T10:07:08Z</time>
  </trkpt>
  <trkpt lat="34.199906" lon="-4.017308">
   <ele>608.00</ele>
   <time>2014-03-30T10:07:12Z</time>
  </trkpt>
  <trkpt lat="34.199715" lon="-4.017310">
   <ele>609.00</ele>
   <time>2014-03-30T10:07:14Z</time>
  </trkpt>
  <trkpt lat="34.199517" lon="-4.017331">
   <ele>610.00</ele>
   <time>2014-03-30T10:07:16Z</time>
  </trkpt>
  <trkpt lat="34.199313" lon="-4.017354">
   <ele>612.00</ele>
   <time>2014-03-30T10:07:18Z</time>
  </trkpt>
  <trkpt lat="34.199116" lon="-4.017328">
   <ele>614.00</ele>
   <time>2014-03-30T10:07:20Z</time>
  </trkpt>
  <trkpt lat="34.198962" lon="-4.017182">
   <ele>615.00</ele>
   <time>2014-03-30T10:07:22Z</time>
  </trkpt>
  <trkpt lat="34.198856" lon="-4.016967">
   <ele>617.00</ele>
   <time>2014-03-30T10:07:24Z</time>
  </trkpt>
  <trkpt lat="34.198706" lon="-4.016642">
   <ele>619.00</ele>
   <time>2014-03-30T10:07:27Z</time>
  </trkpt>
  <trkpt lat="34.198564" lon="-4.016483">
   <ele>622.00</ele>
   <time>2014-03-30T10:07:29Z</time>
  </trkpt>
  <trkpt lat="34.198386" lon="-4.016402">
   <ele>624.00</ele>
   <time>2014-03-30T10:07:31Z</time>
  </trkpt>
  <trkpt lat="34.198196" lon="-4.016419">
   <ele>626.00</ele>
   <time>2014-03-30T10:07:33Z</time>
  </trkpt>
  <trkpt lat="34.198023" lon="-4.016535">
   <ele>627.00</ele>
   <time>2014-03-30T10:07:35Z</time>
  </trkpt>
  <trkpt lat="34.197882" lon="-4.016728">
   <ele>629.00</ele>
   <time>2014-03-30T10:07:37Z</time>
  </trkpt>
  <trkpt lat="34.197779" lon="-4.016975">
   <ele>630.00</ele>
   <time>2014-03-30T10:07:39Z</time>
  </trkpt>
  <trkpt lat="34.197676" lon="-4.017224">
   <ele>631.00</ele>
   <time>2014-03-30T10:07:41Z</time>
  </trkpt>
  <trkpt lat="34.197556" lon="-4.017451">
   <ele>632.00</ele>
   <time>2014-03-30T10:07:43Z</time>
  </trkpt>
  <trkpt lat="34.197480" lon="-4.017695">
   <ele>634.00</ele>
   <time>2014-03-30T10:07:45Z</time>
  </trkpt>
  <trkpt lat="34.197464" lon="-4.017961">
   <ele>636.00</ele>
   <time>2014-03-30T10:07:47Z</time>
  </trkpt>
  <trkpt lat="34.197465" lon="-4.018228">
   <ele>638.00</ele>
   <time>2014-03-30T10:07:49Z</time>
  </trkpt>
  <trkpt lat="34.197516" lon="-4.018490">
   <ele>640.00</ele>
   <time>2014-03-30T10:07:51Z</time>
  </trkpt>
  <trkpt lat="34.197569" lon="-4.018766">
   <ele>641.00</ele>
   <time>2014-03-30T10:07:53Z</time>
  </trkpt>
  <trkpt lat="34.197588" lon="-4.019057">
   <ele>643.00</ele>
   <time>2014-03-30T10:07:55Z</time>
  </trkpt>
  <trkpt lat="34.197584" lon="-4.019494">
   <ele>646.00</ele>
   <time>2014-03-30T10:07:58Z</time>
  </trkpt>
  <trkpt lat="34.197518" lon="-4.019739">
   <ele>648.00</ele>
   <time>2014-03-30T10:08:00Z</time>
  </trkpt>
  <trkpt lat="34.197367" lon="-4.019878">
   <ele>650.00</ele>
   <time>2014-03-30T10:08:02Z</time>
  </trkpt>
  <trkpt lat="34.197180" lon="-4.019874">
   <ele>651.00</ele>
   <time>2014-03-30T10:08:04Z</time>
  </trkpt>
  <trkpt lat="34.197026" lon="-4.019746">
   <ele>652.00</ele>
   <time>2014-03-30T10:08:06Z</time>
  </trkpt>
  <trkpt lat="34.196952" lon="-4.019527">
   <ele>654.00</ele>
   <time>2014-03-30T10:08:08Z</time>
  </trkpt>
  <trkpt lat="34.196942" lon="-4.019269">
   <ele>655.00</ele>
   <time>2014-03-30T10:08:10Z</time>
  </trkpt>
  <trkpt lat="34.196926" lon="-4.019012">
   <ele>657.00</ele>
   <time>2014-03-30T10:08:12Z</time>
  </trkpt>
  <trkpt lat="34.196841" lon="-4.018769">
   <ele>657.00</ele>
   <time>2014-03-30T10:08:14Z</time>
  </trkpt>
  <trkpt lat="34.196695" lon="-4.018543">
   <ele>657.00</ele>
   <time>2014-03-30T10:08:16Z</time>
  </trkpt>
  <trkpt lat="34.196442" lon="-4.018186">
   <ele>659.00</ele>
   <time>2014-03-30T10:08:19Z</time>
  </trkpt>
  <trkpt lat="34.195909" lon="-4.017472">
   <ele>664.00</ele>
   <time>2014-03-30T10:08:25Z</time>
  </trkpt>
  <trkpt lat="34.195753" lon="-4.017223">
   <ele>666.00</ele>
   <time>2014-03-30T10:08:27Z</time>
  </trkpt>
  <trkpt lat="34.195619" lon="-4.016949">
   <ele>668.00</ele>
   <time>2014-03-30T10:08:29Z</time>
  </trkpt>
  <trkpt lat="34.195279" lon="-4.016222">
   <ele>672.00</ele>
   <time>2014-03-30T10:08:34Z</time>
  </trkpt>
  <trkpt lat="34.195099" lon="-4.016005">
   <ele>674.00</ele>
   <time>2014-03-30T10:08:36Z</time>
  </trkpt>
  <trkpt lat="34.194876" lon="-4.015885">
   <ele>674.00</ele>
   <time>2014-03-30T10:08:38Z</time>
  </trkpt>
  <trkpt lat="34.194639" lon="-4.015840">
   <ele>675.00</ele>
   <time>2014-03-30T10:08:40Z</time>
  </trkpt>
  <trkpt lat="34.194060" lon="-4.015806">
   <ele>674.00</ele>
   <time>2014-03-30T10:08:45Z</time>
  </trkpt>
  <trkpt lat="34.193862" lon="-4.015744">
   <ele>674.00</ele>
   <time>2014-03-30T10:08:47Z</time>
  </trkpt>
  <trkpt lat="34.193676" lon="-4.015664">
   <ele>674.00</ele>
   <time>2014-03-30T10:08:49Z</time>
  </trkpt>
  <trkpt lat="34.193484" lon="-4.015612">
   <ele>674.00</ele>
   <time>2014-03-30T10:08:51Z</time>
  </trkpt>
  <trkpt lat="34.193283" lon="-4.015581">
   <ele>674.00</ele>
   <time>2014-03-30T10:08:53Z</time>
  </trkpt>
  <trkpt lat="34.192524" lon="-4.015546">
   <ele>675.00</ele>
   <time>2014-03-30T10:09:00Z</time>
  </trkpt>
  <trkpt lat="34.192303" lon="-4.015563">
   <ele>676.00</ele>
   <time>2014-03-30T10:09:02Z</time>
  </trkpt>
  <trkpt lat="34.192091" lon="-4.015598">
   <ele>677.00</ele>
   <time>2014-03-30T10:09:04Z</time>
  </trkpt>
  <trkpt lat="34.191892" lon="-4.015646">
   <ele>678.00</ele>
   <time>2014-03-30T10:09:06Z</time>
  </trkpt>
  <trkpt lat="34.191706" lon="-4.015726">
   <ele>679.00</ele>
   <time>2014-03-30T10:09:08Z</time>
  </trkpt>
  <trkpt lat="34.191540" lon="-4.015859">
   <ele>680.00</ele>
   <time>2014-03-30T10:09:10Z</time>
  </trkpt>
  <trkpt lat="34.191295" lon="-4.016085">
   <ele>681.00</ele>
   <time>2014-03-30T10:09:13Z</time>
  </trkpt>
  <trkpt lat="34.191084" lon="-4.016177">
   <ele>682.00</ele>
   <time>2014-03-30T10:09:15Z</time>
  </trkpt>
  <trkpt lat="34.190852" lon="-4.016225">
   <ele>682.00</ele>
   <time>2014-03-30T10:09:17Z</time>
  </trkpt>
  <trkpt lat="34.190500" lon="-4.016303">
   <ele>683.00</ele>
   <time>2014-03-30T10:09:20Z</time>
  </trkpt>
  <trkpt lat="34.190271" lon="-4.016376">
   <ele>683.00</ele>
   <time>2014-03-30T10:09:22Z</time>
  </trkpt>
  <trkpt lat="34.189935" lon="-4.016511">
   <ele>684.00</ele>
   <time>2014-03-30T10:09:25Z</time>
  </trkpt>
  <trkpt lat="34.189482" lon="-4.016693">
   <ele>685.00</ele>
   <time>2014-03-30T10:09:29Z</time>
  </trkpt>
  <trkpt lat="34.189241" lon="-4.016737">
   <ele>686.00</ele>
   <time>2014-03-30T10:09:31Z</time>
  </trkpt>
  <trkpt lat="34.188410" lon="-4.016846">
   <ele>687.00</ele>
   <time>2014-03-30T10:09:38Z</time>
  </trkpt>
  <trkpt lat="34.188197" lon="-4.016936">
   <ele>686.00</ele>
   <time>2014-03-30T10:09:40Z</time>
  </trkpt>
  <trkpt lat="34.187777" lon="-4.017184">
   <ele>684.00</ele>
   <time>2014-03-30T10:09:44Z</time>
  </trkpt>
  <trkpt lat="34.187565" lon="-4.017323">
   <ele>684.00</ele>
   <time>2014-03-30T10:09:46Z</time>
  </trkpt>
  <trkpt lat="34.187357" lon="-4.017486">
   <ele>682.00</ele>
   <time>2014-03-30T10:09:48Z</time>
  </trkpt>
  <trkpt lat="34.186955" lon="-4.017835">
   <ele>679.00</ele>
   <time>2014-03-30T10:09:52Z</time>
  </trkpt>
  <trkpt lat="34.186678" lon="-4.018101">
   <ele>678.00</ele>
   <time>2014-03-30T10:09:55Z</time>
  </trkpt>
  <trkpt lat="34.186482" lon="-4.018229">
   <ele>678.00</ele>
   <time>2014-03-30T10:09:57Z</time>
  </trkpt>
  <trkpt lat="34.186265" lon="-4.018307">
   <ele>678.00</ele>
   <time>2014-03-30T10:09:59Z</time>
  </trkpt>
  <trkpt lat="34.185925" lon="-4.018392">
   <ele>679.00</ele>
   <time>2014-03-30T10:10:02Z</time>
  </trkpt>
  <trkpt lat="34.185710" lon="-4.018503">
   <ele>679.00</ele>
   <time>2014-03-30T10:10:04Z</time>
  </trkpt>
  <trkpt lat="34.185511" lon="-4.018677">
   <ele>680.00</ele>
   <time>2014-03-30T10:10:06Z</time>
  </trkpt>
  <trkpt lat="34.185314" lon="-4.018860">
   <ele>680.00</ele>
   <time>2014-03-30T10:10:08Z</time>
  </trkpt>
  <trkpt lat="34.185104" lon="-4.019001">
   <ele>681.00</ele>
   <time>2014-03-30T10:10:10Z</time>
  </trkpt>
  <trkpt lat="34.184890" lon="-4.019095">
   <ele>682.00</ele>
   <time>2014-03-30T10:10:12Z</time>
  </trkpt>
  <trkpt lat="34.184705" lon="-4.019209">
   <ele>683.00</ele>
   <time>2014-03-30T10:10:14Z</time>
  </trkpt>
  <trkpt lat="34.184564" lon="-4.019400">
   <ele>683.00</ele>
   <time>2014-03-30T10:10:16Z</time>
  </trkpt>
  <trkpt lat="34.184448" lon="-4.019643">
   <ele>683.00</ele>
   <time>2014-03-30T10:10:18Z</time>
  </trkpt>
  <trkpt lat="34.184093" lon="-4.020414">
   <ele>684.00</ele>
   <time>2014-03-30T10:10:24Z</time>
  </trkpt>
  <trkpt lat="34.183957" lon="-4.020643">
   <ele>686.00</ele>
   <time>2014-03-30T10:10:26Z</time>
  </trkpt>
  <trkpt lat="34.183775" lon="-4.020815">
   <ele>688.00</ele>
   <time>2014-03-30T10:10:28Z</time>
  </trkpt>
  <trkpt lat="34.183557" lon="-4.020928">
   <ele>689.00</ele>
   <time>2014-03-30T10:10:30Z</time>
  </trkpt>
  <trkpt lat="34.183210" lon="-4.021059">
   <ele>693.00</ele>
   <time>2014-03-30T10:10:33Z</time>
  </trkpt>
  <trkpt lat="34.182998" lon="-4.021182">
   <ele>695.00</ele>
   <time>2014-03-30T10:10:35Z</time>
  </trkpt>
  <trkpt lat="34.182799" lon="-4.021304">
   <ele>698.00</ele>
   <time>2014-03-30T10:10:37Z</time>
  </trkpt>
  <trkpt lat="34.182596" lon="-4.021352">
   <ele>700.00</ele>
   <time>2014-03-30T10:10:39Z</time>
  </trkpt>
  <trkpt lat="34.182385" lon="-4.021281">
   <ele>701.00</ele>
   <time>2014-03-30T10:10:41Z</time>
  </trkpt>
  <trkpt lat="34.182176" lon="-4.021148">
   <ele>701.00</ele>
   <time>2014-03-30T10:10:43Z</time>
  </trkpt>
  <trkpt lat="34.181986" lon="-4.020959">
   <ele>701.00</ele>
   <time>2014-03-30T10:10:45Z</time>
  </trkpt>
  <trkpt lat="34.181811" lon="-4.020759">
   <ele>701.00</ele>
   <time>2014-03-30T10:10:47Z</time>
  </trkpt>
  <trkpt lat="34.181612" lon="-4.020637">
   <ele>701.00</ele>
   <time>2014-03-30T10:10:49Z</time>
  </trkpt>
  <trkpt lat="34.181401" lon="-4.020651">
   <ele>701.00</ele>
   <time>2014-03-30T10:10:51Z</time>
  </trkpt>
  <trkpt lat="34.181222" lon="-4.020781">
   <ele>702.00</ele>
   <time>2014-03-30T10:10:53Z</time>
  </trkpt>
  <trkpt lat="34.180865" lon="-4.021105">
   <ele>705.00</ele>
   <time>2014-03-30T10:10:57Z</time>
  </trkpt>
  <trkpt lat="34.180663" lon="-4.021205">
   <ele>707.00</ele>
   <time>2014-03-30T10:10:59Z</time>
  </trkpt>
  <trkpt lat="34.180449" lon="-4.021205">
   <ele>707.00</ele>
   <time>2014-03-30T10:11:01Z</time>
  </trkpt>
  <trkpt lat="34.180254" lon="-4.021090">
   <ele>708.00</ele>
   <time>2014-03-30T10:11:03Z</time>
  </trkpt>
  <trkpt lat="34.180004" lon="-4.020787">
   <ele>708.00</ele>
   <time>2014-03-30T10:11:06Z</time>
  </trkpt>
  <trkpt lat="34.179802" lon="-4.020619">
   <ele>708.00</ele>
   <time>2014-03-30T10:11:08Z</time>
  </trkpt>
  <trkpt lat="34.179577" lon="-4.020480">
   <ele>709.00</ele>
   <time>2014-03-30T10:11:10Z</time>
  </trkpt>
  <trkpt lat="34.179139" lon="-4.020230">
   <ele>710.00</ele>
   <time>2014-03-30T10:11:14Z</time>
  </trkpt>
  <trkpt lat="34.178924" lon="-4.020173">
   <ele>710.00</ele>
   <time>2014-03-30T10:11:16Z</time>
  </trkpt>
  <trkpt lat="34.178716" lon="-4.020192">
   <ele>710.00</ele>
   <time>2014-03-30T10:11:18Z</time>
  </trkpt>
  <trkpt lat="34.178517" lon="-4.020177">
   <ele>710.00</ele>
   <time>2014-03-30T10:11:20Z</time>
  </trkpt>
  <trkpt lat="34.178337" lon="-4.020058">
   <ele>711.00</ele>
   <time>2014-03-30T10:11:22Z</time>
  </trkpt>
  <trkpt lat="34.178228" lon="-4.019843">
   <ele>711.00</ele>
   <time>2014-03-30T10:11:24Z</time>
  </trkpt>
  <trkpt lat="34.178204" lon="-4.019588">
   <ele>711.00</ele>
   <time>2014-03-30T10:11:26Z</time>
  </trkpt>
  <trkpt lat="34.178135" lon="-4.019354">
   <ele>711.00</ele>
   <time>2014-03-30T10:11:28Z</time>
  </trkpt>
  <trkpt lat="34.177967" lon="-4.019195">
   <ele>711.00</ele>
   <time>2014-03-30T10:11:30Z</time>
  </trkpt>
  <trkpt lat="34.177771" lon="-4.019069">
   <ele>711.00</ele>
   <time>2014-03-30T10:11:32Z</time>
  </trkpt>
  <trkpt lat="34.177334" lon="-4.018802">
   <ele>712.00</ele>
   <time>2014-03-30T10:11:37Z</time>
  </trkpt>
  <trkpt lat="34.177110" lon="-4.018639">
   <ele>712.00</ele>
   <time>2014-03-30T10:11:40Z</time>
  </trkpt>
  <trkpt lat="34.176941" lon="-4.018534">
   <ele>713.00</ele>
   <time>2014-03-30T10:11:42Z</time>
  </trkpt>
  <trkpt lat="34.176601" lon="-4.018286">
   <ele>713.00</ele>
   <time>2014-03-30T10:11:46Z</time>
  </trkpt>
  <trkpt lat="34.176430" lon="-4.018163">
   <ele>713.00</ele>
   <time>2014-03-30T10:11:48Z</time>
  </trkpt>
  <trkpt lat="34.176243" lon="-4.018081">
   <ele>714.00</ele>
   <time>2014-03-30T10:11:50Z</time>
  </trkpt>
  <trkpt lat="34.176040" lon="-4.018080">
   <ele>713.00</ele>
   <time>2014-03-30T10:11:52Z</time>
  </trkpt>
  <trkpt lat="34.175837" lon="-4.018157">
   <ele>713.00</ele>
   <time>2014-03-30T10:11:54Z</time>
  </trkpt>
  <trkpt lat="34.175632" lon="-4.018228">
   <ele>713.00</ele>
   <time>2014-03-30T10:11:56Z</time>
  </trkpt>
  <trkpt lat="34.175419" lon="-4.018236">
   <ele>713.00</ele>
   <time>2014-03-30T10:11:58Z</time>
  </trkpt>
  <trkpt lat="34.175216" lon="-4.018145">
   <ele>714.00</ele>
   <time>2014-03-30T10:12:00Z</time>
  </trkpt>
  <trkpt lat="34.175061" lon="-4.017967">
   <ele>715.00</ele>
   <time>2014-03-30T10:12:02Z</time>
  </trkpt>
  <trkpt lat="34.174993" lon="-4.017730">
   <ele>716.00</ele>
   <time>2014-03-30T10:12:04Z</time>
  </trkpt>
  <trkpt lat="34.174997" lon="-4.017484">
   <ele>716.00</ele>
   <time>2014-03-30T10:12:06Z</time>
  </trkpt>
  <trkpt lat="34.174981" lon="-4.017252">
   <ele>717.00</ele>
   <time>2014-03-30T10:12:08Z</time>
  </trkpt>
  <trkpt lat="34.174872" lon="-4.017062">
   <ele>717.00</ele>
   <time>2014-03-30T10:12:10Z</time>
  </trkpt>
  <trkpt lat="34.174706" lon="-4.016916">
   <ele>718.00</ele>
   <time>2014-03-30T10:12:12Z</time>
  </trkpt>
  <trkpt lat="34.174429" lon="-4.016695">
   <ele>719.00</ele>
   <time>2014-03-30T10:12:15Z</time>
  </trkpt>
  <trkpt lat="34.174256" lon="-4.016505">
   <ele>720.00</ele>
   <time>2014-03-30T10:12:17Z</time>
  </trkpt>
  <trkpt lat="34.174121" lon="-4.016288">
   <ele>720.00</ele>
   <time>2014-03-30T10:12:19Z</time>
  </trkpt>
  <trkpt lat="34.173998" lon="-4.016091">
   <ele>721.00</ele>
   <time>2014-03-30T10:12:21Z</time>
  </trkpt>
  <trkpt lat="34.173823" lon="-4.016000">
   <ele>720.00</ele>
   <time>2014-03-30T10:12:23Z</time>
  </trkpt>
  <trkpt lat="34.173624" lon="-4.016039">
   <ele>720.00</ele>
   <time>2014-03-30T10:12:25Z</time>
  </trkpt>
  <trkpt lat="34.173422" lon="-4.016116">
   <ele>720.00</ele>
   <time>2014-03-30T10:12:27Z</time>
  </trkpt>
  <trkpt lat="34.173202" lon="-4.016141">
   <ele>721.00</ele>
   <time>2014-03-30T10:12:29Z</time>
  </trkpt>
  <trkpt lat="34.172969" lon="-4.016099">
   <ele>722.00</ele>
   <time>2014-03-30T10:12:31Z</time>
  </trkpt>
  <trkpt lat="34.172732" lon="-4.016000">
   <ele>723.00</ele>
   <time>2014-03-30T10:12:33Z</time>
  </trkpt>
  <trkpt lat="34.172131" lon="-4.015710">
   <ele>724.00</ele>
   <time>2014-03-30T10:12:38Z</time>
  </trkpt>
  <trkpt lat="34.171880" lon="-4.015661">
   <ele>724.00</ele>
   <time>2014-03-30T10:12:40Z</time>
  </trkpt>
  <trkpt lat="34.171624" lon="-4.015684">
   <ele>725.00</ele>
   <time>2014-03-30T10:12:42Z</time>
  </trkpt>
  <trkpt lat="34.171369" lon="-4.015697">
   <ele>725.00</ele>
   <time>2014-03-30T10:12:44Z</time>
  </trkpt>
  <trkpt lat="34.171114" lon="-4.015664">
   <ele>725.00</ele>
   <time>2014-03-30T10:12:46Z</time>
  </trkpt>
  <trkpt lat="34.170866" lon="-4.015617">
   <ele>726.00</ele>
   <time>2014-03-30T10:12:48Z</time>
  </trkpt>
  <trkpt lat="34.170621" lon="-4.015543">
   <ele>727.00</ele>
   <time>2014-03-30T10:12:50Z</time>
  </trkpt>
  <trkpt lat="34.170397" lon="-4.015405">
   <ele>728.00</ele>
   <time>2014-03-30T10:12:52Z</time>
  </trkpt>
  <trkpt lat="34.170222" lon="-4.015183">
   <ele>729.00</ele>
   <time>2014-03-30T10:12:54Z</time>
  </trkpt>
  <trkpt lat="34.170096" lon="-4.014910">
   <ele>730.00</ele>
   <time>2014-03-30T10:12:56Z</time>
  </trkpt>
  <trkpt lat="34.169998" lon="-4.014613">
   <ele>731.00</ele>
   <time>2014-03-30T10:12:58Z</time>
  </trkpt>
  <trkpt lat="34.169726" lon="-4.013712">
   <ele>735.00</ele>
   <time>2014-03-30T10:13:04Z</time>
  </trkpt>
  <trkpt lat="34.169711" lon="-4.013398">
   <ele>735.00</ele>
   <time>2014-03-30T10:13:06Z</time>
  </trkpt>
  <trkpt lat="34.169751" lon="-4.013082">
   <ele>737.00</ele>
   <time>2014-03-30T10:13:08Z</time>
  </trkpt>
  <trkpt lat="34.169817" lon="-4.012775">
   <ele>738.00</ele>
   <time>2014-03-30T10:13:10Z</time>
  </trkpt>
  <trkpt lat="34.169886" lon="-4.012485">
   <ele>739.00</ele>
   <time>2014-03-30T10:13:12Z</time>
  </trkpt>
  <trkpt lat="34.169909" lon="-4.012197">
   <ele>740.00</ele>
   <time>2014-03-30T10:13:14Z</time>
  </trkpt>
  <trkpt lat="34.169858" lon="-4.011905">
   <ele>741.00</ele>
   <time>2014-03-30T10:13:16Z</time>
  </trkpt>
  <trkpt lat="34.169735" lon="-4.011633">
   <ele>743.00</ele>
   <time>2014-03-30T10:13:18Z</time>
  </trkpt>
  <trkpt lat="34.169576" lon="-4.011378">
   <ele>745.00</ele>
   <time>2014-03-30T10:13:20Z</time>
  </trkpt>
  <trkpt lat="34.168915" lon="-4.010350">
   <ele>753.00</ele>
   <time>2014-03-30T10:13:28Z</time>
  </trkpt>
  <trkpt lat="34.168799" lon="-4.010095">
   <ele>754.00</ele>
   <time>2014-03-30T10:13:30Z</time>
  </trkpt>
  <trkpt lat="34.168750" lon="-4.009816">
   <ele>754.00</ele>
   <time>2014-03-30T10:13:32Z</time>
  </trkpt>
  <trkpt lat="34.168747" lon="-4.009538">
   <ele>754.00</ele>
   <time>2014-03-30T10:13:34Z</time>
  </trkpt>
  <trkpt lat="34.168695" lon="-4.009283">
   <ele>754.00</ele>
   <time>2014-03-30T10:13:36Z</time>
  </trkpt>
  <trkpt lat="34.168550" lon="-4.009091">
   <ele>755.00</ele>
   <time>2014-03-30T10:13:38Z</time>
  </trkpt>
  <trkpt lat="34.168364" lon="-4.008938">
   <ele>755.00</ele>
   <time>2014-03-30T10:13:40Z</time>
  </trkpt>
  <trkpt lat="34.168189" lon="-4.008764">
   <ele>756.00</ele>
   <time>2014-03-30T10:13:42Z</time>
  </trkpt>
  <trkpt lat="34.168059" lon="-4.008543">
   <ele>757.00</ele>
   <time>2014-03-30T10:13:44Z</time>
  </trkpt>
  <trkpt lat="34.168013" lon="-4.008276">
   <ele>758.00</ele>
   <time>2014-03-30T10:13:46Z</time>
  </trkpt>
  <trkpt lat="34.168031" lon="-4.007992">
   <ele>758.00</ele>
   <time>2014-03-30T10:13:48Z</time>
  </trkpt>
  <trkpt lat="34.168078" lon="-4.007437">
   <ele>759.00</ele>
   <time>2014-03-30T10:13:52Z</time>
  </trkpt>
  <trkpt lat="34.168041" lon="-4.007193">
   <ele>759.00</ele>
   <time>2014-03-30T10:13:54Z</time>
  </trkpt>
  <trkpt lat="34.167911" lon="-4.007018">
   <ele>760.00</ele>
   <time>2014-03-30T10:13:56Z</time>
  </trkpt>
  <trkpt lat="34.167720" lon="-4.006940">
   <ele>760.00</ele>
   <time>2014-03-30T10:13:58Z</time>
  </trkpt>
  <trkpt lat="34.167513" lon="-4.006911">
   <ele>761.00</ele>
   <time>2014-03-30T10:14:00Z</time>
  </trkpt>
  <trkpt lat="34.167309" lon="-4.006886">
   <ele>761.00</ele>
   <time>2014-03-30T10:14:02Z</time>
  </trkpt>
  <trkpt lat="34.167116" lon="-4.006825">
   <ele>762.00</ele>
   <time>2014-03-30T10:14:04Z</time>
  </trkpt>
  <trkpt lat="34.166939" lon="-4.006732">
   <ele>763.00</ele>
   <time>2014-03-30T10:14:06Z</time>
  </trkpt>
  <trkpt lat="34.166759" lon="-4.006642">
   <ele>764.00</ele>
   <time>2014-03-30T10:14:08Z</time>
  </trkpt>
  <trkpt lat="34.166559" lon="-4.006607">
   <ele>764.00</ele>
   <time>2014-03-30T10:14:10Z</time>
  </trkpt>
  <trkpt lat="34.166354" lon="-4.006667">
   <ele>763.00</ele>
   <time>2014-03-30T10:14:12Z</time>
  </trkpt>
  <trkpt lat="34.166165" lon="-4.006792">
   <ele>762.00</ele>
   <time>2014-03-30T10:14:14Z</time>
  </trkpt>
  <trkpt lat="34.165981" lon="-4.006923">
   <ele>763.00</ele>
   <time>2014-03-30T10:14:16Z</time>
  </trkpt>
  <trkpt lat="34.165791" lon="-4.007005">
   <ele>763.00</ele>
   <time>2014-03-30T10:14:18Z</time>
  </trkpt>
  <trkpt lat="34.165596" lon="-4.006982">
   <ele>764.00</ele>
   <time>2014-03-30T10:14:20Z</time>
  </trkpt>
  <trkpt lat="34.165406" lon="-4.006889">
   <ele>764.00</ele>
   <time>2014-03-30T10:14:22Z</time>
  </trkpt>
  <trkpt lat="34.165221" lon="-4.006756">
   <ele>764.00</ele>
   <time>2014-03-30T10:14:24Z</time>
  </trkpt>
  <trkpt lat="34.165055" lon="-4.006588">
   <ele>764.00</ele>
   <time>2014-03-30T10:14:26Z</time>
  </trkpt>
  <trkpt lat="34.164932" lon="-4.006367">
   <ele>764.00</ele>
   <time>2014-03-30T10:14:28Z</time>
  </trkpt>
  <trkpt lat="34.164852" lon="-4.006106">
   <ele>764.00</ele>
   <time>2014-03-30T10:14:30Z</time>
  </trkpt>
  <trkpt lat="34.164649" lon="-4.005328">
   <ele>763.00</ele>
   <time>2014-03-30T10:14:36Z</time>
  </trkpt>
  <trkpt lat="34.164511" lon="-4.005164">
   <ele>763.00</ele>
   <time>2014-03-30T10:14:38Z</time>
  </trkpt>
  <trkpt lat="34.164309" lon="-4.005115">
   <ele>763.00</ele>
   <time>2014-03-30T10:14:40Z</time>
  </trkpt>
  <trkpt lat="34.163992" lon="-4.005091">
   <ele>764.00</ele>
   <time>2014-03-30T10:14:43Z</time>
  </trkpt>
  <trkpt lat="34.163806" lon="-4.005008">
   <ele>765.00</ele>
   <time>2014-03-30T10:14:45Z</time>
  </trkpt>
  <trkpt lat="34.163646" lon="-4.004902">
   <ele>766.00</ele>
   <time>2014-03-30T10:14:47Z</time>
  </trkpt>
  <trkpt lat="34.163396" lon="-4.004827">
   <ele>766.00</ele>
   <time>2014-03-30T10:14:50Z</time>
  </trkpt>
  <trkpt lat="34.163153" lon="-4.004965">
   <ele>765.00</ele>
   <time>2014-03-30T10:14:53Z</time>
  </trkpt>
  <trkpt lat="34.163021" lon="-4.005157">
   <ele>765.00</ele>
   <time>2014-03-30T10:14:55Z</time>
  </trkpt>
  <trkpt lat="34.162685" lon="-4.005651">
   <ele>766.00</ele>
   <time>2014-03-30T10:15:00Z</time>
  </trkpt>
  <trkpt lat="34.162516" lon="-4.005815">
   <ele>765.00</ele>
   <time>2014-03-30T10:15:02Z</time>
  </trkpt>
  <trkpt lat="34.162326" lon="-4.005951">
   <ele>765.00</ele>
   <time>2014-03-30T10:15:04Z</time>
  </trkpt>
  <trkpt lat="34.162129" lon="-4.006071">
   <ele>765.00</ele>
   <time>2014-03-30T10:15:06Z</time>
  </trkpt>
  <trkpt lat="34.161810" lon="-4.006245">
   <ele>766.00</ele>
   <time>2014-03-30T10:15:09Z</time>
  </trkpt>
  <trkpt lat="34.161590" lon="-4.006346">
   <ele>767.00</ele>
   <time>2014-03-30T10:15:11Z</time>
  </trkpt>
  <trkpt lat="34.161169" lon="-4.006517">
   <ele>769.00</ele>
   <time>2014-03-30T10:15:15Z</time>
  </trkpt>
  <trkpt lat="34.160953" lon="-4.006560">
   <ele>769.00</ele>
   <time>2014-03-30T10:15:17Z</time>
  </trkpt>
  <trkpt lat="34.160722" lon="-4.006554">
   <ele>769.00</ele>
   <time>2014-03-30T10:15:19Z</time>
  </trkpt>
  <trkpt lat="34.160482" lon="-4.006528">
   <ele>770.00</ele>
   <time>2014-03-30T10:15:21Z</time>
  </trkpt>
  <trkpt lat="34.160234" lon="-4.006480">
   <ele>770.00</ele>
   <time>2014-03-30T10:15:23Z</time>
  </trkpt>
  <trkpt lat="34.159739" lon="-4.006353">
   <ele>771.00</ele>
   <time>2014-03-30T10:15:27Z</time>
  </trkpt>
  <trkpt lat="34.159510" lon="-4.006264">
   <ele>771.00</ele>
   <time>2014-03-30T10:15:29Z</time>
  </trkpt>
  <trkpt lat="34.159292" lon="-4.006143">
   <ele>772.00</ele>
   <time>2014-03-30T10:15:31Z</time>
  </trkpt>
  <trkpt lat="34.159082" lon="-4.006003">
   <ele>772.00</ele>
   <time>2014-03-30T10:15:33Z</time>
  </trkpt>
  <trkpt lat="34.158906" lon="-4.005826">
   <ele>772.00</ele>
   <time>2014-03-30T10:15:35Z</time>
  </trkpt>
  <trkpt lat="34.158768" lon="-4.005617">
   <ele>773.00</ele>
   <time>2014-03-30T10:15:37Z</time>
  </trkpt>
  <trkpt lat="34.158611" lon="-4.005454">
   <ele>774.00</ele>
   <time>2014-03-30T10:15:39Z</time>
  </trkpt>
  <trkpt lat="34.158406" lon="-4.005409">
   <ele>775.00</ele>
   <time>2014-03-30T10:15:41Z</time>
  </trkpt>
  <trkpt lat="34.158077" lon="-4.005416">
   <ele>778.00</ele>
   <time>2014-03-30T10:15:44Z</time>
  </trkpt>
  <trkpt lat="34.157613" lon="-4.005411">
   <ele>781.00</ele>
   <time>2014-03-30T10:15:48Z</time>
  </trkpt>
  <trkpt lat="34.157384" lon="-4.005453">
   <ele>783.00</ele>
   <time>2014-03-30T10:15:50Z</time>
  </trkpt>
  <trkpt lat="34.157164" lon="-4.005522">
   <ele>786.00</ele>
   <time>2014-03-30T10:15:52Z</time>
  </trkpt>
  <trkpt lat="34.156943" lon="-4.005571">
   <ele>787.00</ele>
   <time>2014-03-30T10:15:54Z</time>
  </trkpt>
  <trkpt lat="34.156715" lon="-4.005552">
   <ele>788.00</ele>
   <time>2014-03-30T10:15:56Z</time>
  </trkpt>
  <trkpt lat="34.156483" lon="-4.005482">
   <ele>790.00</ele>
   <time>2014-03-30T10:15:58Z</time>
  </trkpt>
  <trkpt lat="34.156264" lon="-4.005355">
   <ele>790.00</ele>
   <time>2014-03-30T10:16:00Z</time>
  </trkpt>
  <trkpt lat="34.156084" lon="-4.005163">
   <ele>791.00</ele>
   <time>2014-03-30T10:16:02Z</time>
  </trkpt>
  <trkpt lat="34.155862" lon="-4.004845">
   <ele>793.00</ele>
   <time>2014-03-30T10:16:05Z</time>
  </trkpt>
  <trkpt lat="34.155668" lon="-4.004706">
   <ele>794.00</ele>
   <time>2014-03-30T10:16:07Z</time>
  </trkpt>
  <trkpt lat="34.155020" lon="-4.004331">
   <ele>799.00</ele>
   <time>2014-03-30T10:16:14Z</time>
  </trkpt>
  <trkpt lat="34.154798" lon="-4.004316">
   <ele>800.00</ele>
   <time>2014-03-30T10:16:17Z</time>
  </trkpt>
  <trkpt lat="34.154695" lon="-4.004539">
   <ele>802.00</ele>
   <time>2014-03-30T10:16:20Z</time>
  </trkpt>
  <trkpt lat="34.154773" lon="-4.004753">
   <ele>802.00</ele>
   <time>2014-03-30T10:16:22Z</time>
  </trkpt>
  <trkpt lat="34.154907" lon="-4.004952">
   <ele>804.00</ele>
   <time>2014-03-30T10:16:24Z</time>
  </trkpt>
  <trkpt lat="34.155305" lon="-4.005535">
   <ele>812.00</ele>
   <time>2014-03-30T10:16:29Z</time>
  </trkpt>
  <trkpt lat="34.155595" lon="-4.005985">
   <ele>817.00</ele>
   <time>2014-03-30T10:16:33Z</time>
  </trkpt>
  <trkpt lat="34.155713" lon="-4.006165">
   <ele>819.00</ele>
   <time>2014-03-30T10:16:35Z</time>
  </trkpt>
  <trkpt lat="34.155786" lon="-4.006452">
   <ele>821.00</ele>
   <time>2014-03-30T10:16:38Z</time>
  </trkpt>
  <trkpt lat="34.155749" lon="-4.006684">
   <ele>822.00</ele>
   <time>2014-03-30T10:16:40Z</time>
  </trkpt>
  <trkpt lat="34.155645" lon="-4.007212">
   <ele>825.00</ele>
   <time>2014-03-30T10:16:44Z</time>
  </trkpt>
  <trkpt lat="34.155617" lon="-4.007492">
   <ele>826.00</ele>
   <time>2014-03-30T10:16:46Z</time>
  </trkpt>
  <trkpt lat="34.155620" lon="-4.007771">
   <ele>828.00</ele>
   <time>2014-03-30T10:16:48Z</time>
  </trkpt>
  <trkpt lat="34.155634" lon="-4.008258">
   <ele>831.00</ele>
   <time>2014-03-30T10:16:52Z</time>
  </trkpt>
  <trkpt lat="34.155503" lon="-4.008525">
   <ele>832.00</ele>
   <time>2014-03-30T10:16:55Z</time>
  </trkpt>
  <trkpt lat="34.155331" lon="-4.008656">
   <ele>832.00</ele>
   <time>2014-03-30T10:16:57Z</time>
  </trkpt>
  <trkpt lat="34.155157" lon="-4.008811">
   <ele>833.00</ele>
   <time>2014-03-30T10:16:59Z</time>
  </trkpt>
  <trkpt lat="34.154995" lon="-4.008995">
   <ele>835.00</ele>
   <time>2014-03-30T10:17:01Z</time>
  </trkpt>
  <trkpt lat="34.154821" lon="-4.009159">
   <ele>836.00</ele>
   <time>2014-03-30T10:17:03Z</time>
  </trkpt>
  <trkpt lat="34.154624" lon="-4.009266">
   <ele>837.00</ele>
   <time>2014-03-30T10:17:05Z</time>
  </trkpt>
  <trkpt lat="34.154402" lon="-4.009294">
   <ele>839.00</ele>
   <time>2014-03-30T10:17:07Z</time>
  </trkpt>
  <trkpt lat="34.154168" lon="-4.009281">
   <ele>841.00</ele>
   <time>2014-03-30T10:17:09Z</time>
  </trkpt>
  <trkpt lat="34.153942" lon="-4.009229">
   <ele>842.00</ele>
   <time>2014-03-30T10:17:11Z</time>
  </trkpt>
  <trkpt lat="34.153733" lon="-4.009138">
   <ele>843.00</ele>
   <time>2014-03-30T10:17:13Z</time>
  </trkpt>
  <trkpt lat="34.153528" lon="-4.009062">
   <ele>844.00</ele>
   <time>2014-03-30T10:17:15Z</time>
  </trkpt>
  <trkpt lat="34.153314" lon="-4.009059">
   <ele>845.00</ele>
   <time>2014-03-30T10:17:17Z</time>
  </trkpt>
  <trkpt lat="34.153104" lon="-4.009132">
   <ele>847.00</ele>
   <time>2014-03-30T10:17:19Z</time>
  </trkpt>
  <trkpt lat="34.152920" lon="-4.009263">
   <ele>850.00</ele>
   <time>2014-03-30T10:17:21Z</time>
  </trkpt>
  <trkpt lat="34.152766" lon="-4.009413">
   <ele>851.00</ele>
   <time>2014-03-30T10:17:23Z</time>
  </trkpt>
  <trkpt lat="34.152532" lon="-4.009510">
   <ele>853.00</ele>
   <time>2014-03-30T10:17:26Z</time>
  </trkpt>
  <trkpt lat="34.152339" lon="-4.009325">
   <ele>855.00</ele>
   <time>2014-03-30T10:17:29Z</time>
  </trkpt>
  <trkpt lat="34.152305" lon="-4.009084">
   <ele>856.00</ele>
   <time>2014-03-30T10:17:31Z</time>
  </trkpt>
  <trkpt lat="34.152230" lon="-4.008395">
   <ele>859.00</ele>
   <time>2014-03-30T10:17:36Z</time>
  </trkpt>
  <trkpt lat="34.152165" lon="-4.008125">
   <ele>860.00</ele>
   <time>2014-03-30T10:17:38Z</time>
  </trkpt>
  <trkpt lat="34.152064" lon="-4.007874">
   <ele>862.00</ele>
   <time>2014-03-30T10:17:40Z</time>
  </trkpt>
  <trkpt lat="34.151952" lon="-4.007648">
   <ele>863.00</ele>
   <time>2014-03-30T10:17:42Z</time>
  </trkpt>
  <trkpt lat="34.151814" lon="-4.007498">
   <ele>864.00</ele>
   <time>2014-03-30T10:17:44Z</time>
  </trkpt>
  <trkpt lat="34.151635" lon="-4.007449">
   <ele>866.00</ele>
   <time>2014-03-30T10:17:46Z</time>
  </trkpt>
  <trkpt lat="34.151421" lon="-4.007297">
   <ele>868.00</ele>
   <time>2014-03-30T10:17:49Z</time>
  </trkpt>
  <trkpt lat="34.151241" lon="-4.007095">
   <ele>870.00</ele>
   <time>2014-03-30T10:17:52Z</time>
  </trkpt>
  <trkpt lat="34.150978" lon="-4.007032">
   <ele>872.00</ele>
   <time>2014-03-30T10:17:55Z</time>
  </trkpt>
  <trkpt lat="34.150799" lon="-4.006955">
   <ele>874.00</ele>
   <time>2014-03-30T10:17:57Z</time>
  </trkpt>
  <trkpt lat="34.150617" lon="-4.006847">
   <ele>875.00</ele>
   <time>2014-03-30T10:17:59Z</time>
  </trkpt>
  <trkpt lat="34.150452" lon="-4.006735">
   <ele>877.00</ele>
   <time>2014-03-30T10:18:01Z</time>
  </trkpt>
  <trkpt lat="34.150236" lon="-4.006582">
   <ele>879.00</ele>
   <time>2014-03-30T10:18:04Z</time>
  </trkpt>
  <trkpt lat="34.150022" lon="-4.006656">
   <ele>881.00</ele>
   <time>2014-03-30T10:18:07Z</time>
  </trkpt>
  <trkpt lat="34.149847" lon="-4.006872">
   <ele>883.00</ele>
   <time>2014-03-30T10:18:10Z</time>
  </trkpt>
  <trkpt lat="34.149608" lon="-4.006911">
   <ele>885.00</ele>
   <time>2014-03-30T10:18:13Z</time>
  </trkpt>
  <trkpt lat="34.149334" lon="-4.006745">
   <ele>886.00</ele>
   <time>2014-03-30T10:18:17Z</time>
  </trkpt>
  <trkpt lat="34.149135" lon="-4.006873">
   <ele>889.00</ele>
   <time>2014-03-30T10:18:20Z</time>
  </trkpt>
  <trkpt lat="34.148916" lon="-4.007047">
   <ele>891.00</ele>
   <time>2014-03-30T10:18:23Z</time>
  </trkpt>
  <trkpt lat="34.148734" lon="-4.007132">
   <ele>893.00</ele>
   <time>2014-03-30T10:18:25Z</time>
  </trkpt>
  <trkpt lat="34.148544" lon="-4.007208">
   <ele>895.00</ele>
   <time>2014-03-30T10:18:27Z</time>
  </trkpt>
  <trkpt lat="34.148270" lon="-4.007302">
   <ele>896.00</ele>
   <time>2014-03-30T10:18:30Z</time>
  </trkpt>
  <trkpt lat="34.148009" lon="-4.007271">
   <ele>898.00</ele>
   <time>2014-03-30T10:18:33Z</time>
  </trkpt>
  <trkpt lat="34.147802" lon="-4.007118">
   <ele>901.00</ele>
   <time>2014-03-30T10:18:36Z</time>
  </trkpt>
  <trkpt lat="34.147573" lon="-4.007091">
   <ele>903.00</ele>
   <time>2014-03-30T10:18:39Z</time>
  </trkpt>
  <trkpt lat="34.147442" lon="-4.007301">
   <ele>904.00</ele>
   <time>2014-03-30T10:18:42Z</time>
  </trkpt>
  <trkpt lat="34.147497" lon="-4.007577">
   <ele>906.00</ele>
   <time>2014-03-30T10:18:45Z</time>
  </trkpt>
  <trkpt lat="34.147720" lon="-4.007748">
   <ele>908.00</ele>
   <time>2014-03-30T10:18:48Z</time>
  </trkpt>
  <trkpt lat="34.147887" lon="-4.007839">
   <ele>910.00</ele>
   <time>2014-03-30T10:18:50Z</time>
  </trkpt>
  <trkpt lat="34.148022" lon="-4.008074">
   <ele>912.00</ele>
   <time>2014-03-30T10:18:53Z</time>
  </trkpt>
  <trkpt lat="34.147917" lon="-4.008302">
   <ele>914.00</ele>
   <time>2014-03-30T10:18:56Z</time>
  </trkpt>
  <trkpt lat="34.147673" lon="-4.008342">
   <ele>915.00</ele>
   <time>2014-03-30T10:18:59Z</time>
  </trkpt>
  <trkpt lat="34.147449" lon="-4.008431">
   <ele>917.00</ele>
   <time>2014-03-30T10:19:02Z</time>
  </trkpt>
  <trkpt lat="34.147374" lon="-4.008708">
   <ele>920.00</ele>
   <time>2014-03-30T10:19:05Z</time>
  </trkpt>
  <trkpt lat="34.147418" lon="-4.008921">
   <ele>921.00</ele>
   <time>2014-03-30T10:19:07Z</time>
  </trkpt>
  <trkpt lat="34.147515" lon="-4.009327">
   <ele>924.00</ele>
   <time>2014-03-30T10:19:11Z</time>
  </trkpt>
  <trkpt lat="34.147672" lon="-4.009541">
   <ele>927.00</ele>
   <time>2014-03-30T10:19:14Z</time>
  </trkpt>
  <trkpt lat="34.147901" lon="-4.009615">
   <ele>929.00</ele>
   <time>2014-03-30T10:19:17Z</time>
  </trkpt>
  <trkpt lat="34.148142" lon="-4.009539">
   <ele>930.00</ele>
   <time>2014-03-30T10:19:20Z</time>
  </trkpt>
  <trkpt lat="34.148293" lon="-4.009418">
   <ele>931.00</ele>
   <time>2014-03-30T10:19:22Z</time>
  </trkpt>
  <trkpt lat="34.148434" lon="-4.009271">
   <ele>932.00</ele>
   <time>2014-03-30T10:19:24Z</time>
  </trkpt>
  <trkpt lat="34.148620" lon="-4.009046">
   <ele>934.00</ele>
   <time>2014-03-30T10:19:27Z</time>
  </trkpt>
  <trkpt lat="34.148856" lon="-4.008964">
   <ele>936.00</ele>
   <time>2014-03-30T10:19:30Z</time>
  </trkpt>
  <trkpt lat="34.149027" lon="-4.009056">
   <ele>938.00</ele>
   <time>2014-03-30T10:19:32Z</time>
  </trkpt>
  <trkpt lat="34.149143" lon="-4.009235">
   <ele>939.00</ele>
   <time>2014-03-30T10:19:34Z</time>
  </trkpt>
  <trkpt lat="34.149233" lon="-4.009450">
   <ele>940.00</ele>
   <time>2014-03-30T10:19:36Z</time>
  </trkpt>
  <trkpt lat="34.149325" lon="-4.009672">
   <ele>942.00</ele>
   <time>2014-03-30T10:19:38Z</time>
  </trkpt>
  <trkpt lat="34.149502" lon="-4.010076">
   <ele>946.00</ele>
   <time>2014-03-30T10:19:42Z</time>
  </trkpt>
  <trkpt lat="34.149473" lon="-4.010384">
   <ele>947.00</ele>
   <time>2014-03-30T10:19:45Z</time>
  </trkpt>
  <trkpt lat="34.149380" lon="-4.010581">
   <ele>948.00</ele>
   <time>2014-03-30T10:19:47Z</time>
  </trkpt>
  <trkpt lat="34.148841" lon="-4.011696">
   <ele>957.00</ele>
   <time>2014-03-30T10:19:57Z</time>
  </trkpt>
  <trkpt lat="34.148766" lon="-4.011944">
   <ele>958.00</ele>
   <time>2014-03-30T10:19:59Z</time>
  </trkpt>
  <trkpt lat="34.148732" lon="-4.012206">
   <ele>960.00</ele>
   <time>2014-03-30T10:20:01Z</time>
  </trkpt>
  <trkpt lat="34.148717" lon="-4.012474">
   <ele>962.00</ele>
   <time>2014-03-30T10:20:03Z</time>
  </trkpt>
  <trkpt lat="34.148659" lon="-4.013650">
   <ele>969.00</ele>
   <time>2014-03-30T10:20:12Z</time>
  </trkpt>
  <trkpt lat="34.148597" lon="-4.013861">
   <ele>971.00</ele>
   <time>2014-03-30T10:20:14Z</time>
  </trkpt>
  <trkpt lat="34.148450" lon="-4.014013">
   <ele>971.00</ele>
   <time>2014-03-30T10:20:16Z</time>
  </trkpt>
  <trkpt lat="34.148283" lon="-4.014128">
   <ele>972.00</ele>
   <time>2014-03-30T10:20:18Z</time>
  </trkpt>
  <trkpt lat="34.148174" lon="-4.014387">
   <ele>973.00</ele>
   <time>2014-03-30T10:20:21Z</time>
  </trkpt>
  <trkpt lat="34.148309" lon="-4.014659">
   <ele>976.00</ele>
   <time>2014-03-30T10:20:24Z</time>
  </trkpt>
  <trkpt lat="34.148317" lon="-4.014930">
   <ele>978.00</ele>
   <time>2014-03-30T10:20:27Z</time>
  </trkpt>
  <trkpt lat="34.148103" lon="-4.015061">
   <ele>980.00</ele>
   <time>2014-03-30T10:20:30Z</time>
  </trkpt>
  <trkpt lat="34.147924" lon="-4.015032">
   <ele>982.00</ele>
   <time>2014-03-30T10:20:32Z</time>
  </trkpt>
  <trkpt lat="34.147753" lon="-4.014938">
   <ele>983.00</ele>
   <time>2014-03-30T10:20:34Z</time>
  </trkpt>
  <trkpt lat="34.147634" lon="-4.014774">
   <ele>984.00</ele>
   <time>2014-03-30T10:20:36Z</time>
  </trkpt>
  <trkpt lat="34.147624" lon="-4.014455">
   <ele>987.00</ele>
   <time>2014-03-30T10:20:39Z</time>
  </trkpt>
  <trkpt lat="34.147719" lon="-4.014252">
   <ele>989.00</ele>
   <time>2014-03-30T10:20:41Z</time>
  </trkpt>
  <trkpt lat="34.147818" lon="-4.014045">
   <ele>992.00</ele>
   <time>2014-03-30T10:20:43Z</time>
  </trkpt>
  <trkpt lat="34.147865" lon="-4.013802">
   <ele>994.00</ele>
   <time>2014-03-30T10:20:45Z</time>
  </trkpt>
  <trkpt lat="34.147871" lon="-4.013543">
   <ele>995.00</ele>
   <time>2014-03-30T10:20:47Z</time>
  </trkpt>
  <trkpt lat="34.147837" lon="-4.013289">
   <ele>997.00</ele>
   <time>2014-03-30T10:20:49Z</time>
  </trkpt>
  <trkpt lat="34.147750" lon="-4.013049">
   <ele>998.00</ele>
   <time>2014-03-30T10:20:51Z</time>
  </trkpt>
  <trkpt lat="34.147633" lon="-4.012820">
   <ele>1000.00</ele>
   <time>2014-03-30T10:20:53Z</time>
  </trkpt>
  <trkpt lat="34.147054" lon="-4.011726">
   <ele>1009.00</ele>
   <time>2014-03-30T10:21:03Z</time>
  </trkpt>
  <trkpt lat="34.146889" lon="-4.011586">
   <ele>1010.00</ele>
   <time>2014-03-30T10:21:05Z</time>
  </trkpt>
  <trkpt lat="34.146700" lon="-4.011508">
   <ele>1011.00</ele>
   <time>2014-03-30T10:21:07Z</time>
  </trkpt>
  <trkpt lat="34.146501" lon="-4.011486">
   <ele>1012.00</ele>
   <time>2014-03-30T10:21:09Z</time>
  </trkpt>
  <trkpt lat="34.146315" lon="-4.011470">
   <ele>1014.00</ele>
   <time>2014-03-30T10:21:11Z</time>
  </trkpt>
  <trkpt lat="34.146130" lon="-4.011281">
   <ele>1016.00</ele>
   <time>2014-03-30T10:21:14Z</time>
  </trkpt>
  <trkpt lat="34.146029" lon="-4.011013">
   <ele>1018.00</ele>
   <time>2014-03-30T10:21:17Z</time>
  </trkpt>
  <trkpt lat="34.145833" lon="-4.010901">
   <ele>1019.00</ele>
   <time>2014-03-30T10:21:20Z</time>
  </trkpt>
  <trkpt lat="34.145619" lon="-4.010992">
   <ele>1020.00</ele>
   <time>2014-03-30T10:21:23Z</time>
  </trkpt>
  <trkpt lat="34.145379" lon="-4.011036">
   <ele>1021.00</ele>
   <time>2014-03-30T10:21:26Z</time>
  </trkpt>
  <trkpt lat="34.145155" lon="-4.010918">
   <ele>1021.00</ele>
   <time>2014-03-30T10:21:29Z</time>
  </trkpt>
  <trkpt lat="34.144950" lon="-4.010771">
   <ele>1023.00</ele>
   <time>2014-03-30T10:21:32Z</time>
  </trkpt>
  <trkpt lat="34.144722" lon="-4.010797">
   <ele>1025.00</ele>
   <time>2014-03-30T10:21:35Z</time>
  </trkpt>
  <trkpt lat="34.144508" lon="-4.010949">
   <ele>1027.00</ele>
   <time>2014-03-30T10:21:38Z</time>
  </trkpt>
  <trkpt lat="34.144298" lon="-4.011159">
   <ele>1029.00</ele>
   <time>2014-03-30T10:21:41Z</time>
  </trkpt>
  <trkpt lat="34.143582" lon="-4.011916">
   <ele>1038.00</ele>
   <time>2014-03-30T10:21:51Z</time>
  </trkpt>
  <trkpt lat="34.143540" lon="-4.012177">
   <ele>1040.00</ele>
   <time>2014-03-30T10:21:54Z</time>
  </trkpt>
  <trkpt lat="34.143715" lon="-4.012399">
   <ele>1043.00</ele>
   <time>2014-03-30T10:21:57Z</time>
  </trkpt>
  <trkpt lat="34.143895" lon="-4.012503">
   <ele>1045.00</ele>
   <time>2014-03-30T10:21:59Z</time>
  </trkpt>
  <trkpt lat="34.144081" lon="-4.012630">
   <ele>1047.00</ele>
   <time>2014-03-30T10:22:01Z</time>
  </trkpt>
  <trkpt lat="34.144256" lon="-4.012800">
   <ele>1049.00</ele>
   <time>2014-03-30T10:22:03Z</time>
  </trkpt>
  <trkpt lat="34.144419" lon="-4.012989">
   <ele>1051.00</ele>
   <time>2014-03-30T10:22:05Z</time>
  </trkpt>
  <trkpt lat="34.144575" lon="-4.013161">
   <ele>1053.00</ele>
   <time>2014-03-30T10:22:07Z</time>
  </trkpt>
  <trkpt lat="34.144742" lon="-4.013303">
   <ele>1055.00</ele>
   <time>2014-03-30T10:22:09Z</time>
  </trkpt>
  <trkpt lat="34.144905" lon="-4.013445">
   <ele>1057.00</ele>
   <time>2014-03-30T10:22:11Z</time>
  </trkpt>
  <trkpt lat="34.145044" lon="-4.013595">
   <ele>1058.00</ele>
   <time>2014-03-30T10:22:13Z</time>
  </trkpt>
  <trkpt lat="34.145167" lon="-4.013881">
   <ele>1060.00</ele>
   <time>2014-03-30T10:22:16Z</time>
  </trkpt>
  <trkpt lat="34.145197" lon="-4.014116">
   <ele>1061.00</ele>
   <time>2014-03-30T10:22:18Z</time>
  </trkpt>
  <trkpt lat="34.145223" lon="-4.014446">
   <ele>1062.00</ele>
   <time>2014-03-30T10:22:21Z</time>
  </trkpt>
  <trkpt lat="34.145105" lon="-4.014692">
   <ele>1063.00</ele>
   <time>2014-03-30T10:22:24Z</time>
  </trkpt>
  <trkpt lat="34.144865" lon="-4.014653">
   <ele>1064.00</ele>
   <time>2014-03-30T10:22:27Z</time>
  </trkpt>
  <trkpt lat="34.144764" lon="-4.014436">
   <ele>1066.00</ele>
   <time>2014-03-30T10:22:29Z</time>
  </trkpt>
  <trkpt lat="34.144729" lon="-4.014192">
   <ele>1069.00</ele>
   <time>2014-03-30T10:22:31Z</time>
  </trkpt>
  <trkpt lat="34.144680" lon="-4.013979">
   <ele>1071.00</ele>
   <time>2014-03-30T10:22:33Z</time>
  </trkpt>
  <trkpt lat="34.144462" lon="-4.013808">
   <ele>1076.00</ele>
   <time>2014-03-30T10:22:36Z</time>
  </trkpt>
  <trkpt lat="34.144270" lon="-4.013758">
   <ele>1077.00</ele>
   <time>2014-03-30T10:22:38Z</time>
  </trkpt>
  <trkpt lat="34.143700" lon="-4.013624">
   <ele>1082.00</ele>
   <time>2014-03-30T10:22:44Z</time>
  </trkpt>
  <trkpt lat="34.143492" lon="-4.013742">
   <ele>1083.00</ele>
   <time>2014-03-30T10:22:47Z</time>
  </trkpt>
  <trkpt lat="34.143507" lon="-4.014020">
   <ele>1084.00</ele>
   <time>2014-03-30T10:22:50Z</time>
  </trkpt>
  <trkpt lat="34.143699" lon="-4.014166">
   <ele>1087.00</ele>
   <time>2014-03-30T10:22:52Z</time>
  </trkpt>
  <trkpt lat="34.143900" lon="-4.014222">
   <ele>1089.00</ele>
   <time>2014-03-30T10:22:54Z</time>
  </trkpt>
  <trkpt lat="34.144102" lon="-4.014401">
   <ele>1091.00</ele>
   <time>2014-03-30T10:22:57Z</time>
  </trkpt>
  <trkpt lat="34.144072" lon="-4.014722">
   <ele>1092.00</ele>
   <time>2014-03-30T10:23:00Z</time>
  </trkpt>
  <trkpt lat="34.143983" lon="-4.015065">
   <ele>1094.00</ele>
   <time>2014-03-30T10:23:03Z</time>
  </trkpt>
  <trkpt lat="34.143985" lon="-4.015305">
   <ele>1095.00</ele>
   <time>2014-03-30T10:23:05Z</time>
  </trkpt>
  <trkpt lat="34.144065" lon="-4.015531">
   <ele>1098.00</ele>
   <time>2014-03-30T10:23:07Z</time>
  </trkpt>
  <trkpt lat="34.144181" lon="-4.015723">
   <ele>1100.00</ele>
   <time>2014-03-30T10:23:09Z</time>
  </trkpt>
  <trkpt lat="34.144279" lon="-4.015907">
   <ele>1101.00</ele>
   <time>2014-03-30T10:23:11Z</time>
  </trkpt>
  <trkpt lat="34.144271" lon="-4.016189">
   <ele>1104.00</ele>
   <time>2014-03-30T10:23:14Z</time>
  </trkpt>
  <trkpt lat="34.144047" lon="-4.016288">
   <ele>1105.00</ele>
   <time>2014-03-30T10:23:17Z</time>
  </trkpt>
  <trkpt lat="34.143876" lon="-4.016164">
   <ele>1106.00</ele>
   <time>2014-03-30T10:23:19Z</time>
  </trkpt>
  <trkpt lat="34.143743" lon="-4.015970">
   <ele>1107.00</ele>
   <time>2014-03-30T10:23:21Z</time>
  </trkpt>
  <trkpt lat="34.143048" lon="-4.014935">
   <ele>1114.00</ele>
   <time>2014-03-30T10:23:31Z</time>
  </trkpt>
  <trkpt lat="34.142808" lon="-4.014820">
   <ele>1116.00</ele>
   <time>2014-03-30T10:23:34Z</time>
  </trkpt>
  <trkpt lat="34.142586" lon="-4.014933">
   <ele>1117.00</ele>
   <time>2014-03-30T10:23:37Z</time>
  </trkpt>
  <trkpt lat="34.142500" lon="-4.015183">
   <ele>1118.00</ele>
   <time>2014-03-30T10:23:40Z</time>
  </trkpt>
  <trkpt lat="34.142558" lon="-4.015498">
   <ele>1121.00</ele>
   <time>2014-03-30T10:23:43Z</time>
  </trkpt>
  <trkpt lat="34.142647" lon="-4.015715">
   <ele>1123.00</ele>
   <time>2014-03-30T10:23:45Z</time>
  </trkpt>
  <trkpt lat="34.142777" lon="-4.015921">
   <ele>1125.00</ele>
   <time>2014-03-30T10:23:47Z</time>
  </trkpt>
  <trkpt lat="34.143428" lon="-4.016885">
   <ele>1135.00</ele>
   <time>2014-03-30T10:23:56Z</time>
  </trkpt>
  <trkpt lat="34.143551" lon="-4.017123">
   <ele>1137.00</ele>
   <time>2014-03-30T10:23:58Z</time>
  </trkpt>
  <trkpt lat="34.143730" lon="-4.017486">
   <ele>1139.00</ele>
   <time>2014-03-30T10:24:01Z</time>
  </trkpt>
  <trkpt lat="34.143870" lon="-4.017710">
   <ele>1141.00</ele>
   <time>2014-03-30T10:24:03Z</time>
  </trkpt>
  <trkpt lat="34.144024" lon="-4.017920">
   <ele>1143.00</ele>
   <time>2014-03-30T10:24:05Z</time>
  </trkpt>
  <trkpt lat="34.144240" lon="-4.018217">
   <ele>1146.00</ele>
   <time>2014-03-30T10:24:08Z</time>
  </trkpt>
  <trkpt lat="34.144341" lon="-4.018433">
   <ele>1147.00</ele>
   <time>2014-03-30T10:24:10Z</time>
  </trkpt>
  <trkpt lat="34.144405" lon="-4.018649">
   <ele>1149.00</ele>
   <time>2014-03-30T10:24:12Z</time>
  </trkpt>
  <trkpt lat="34.144406" lon="-4.018931">
   <ele>1150.00</ele>
   <time>2014-03-30T10:24:15Z</time>
  </trkpt>
  <trkpt lat="34.144214" lon="-4.019064">
   <ele>1152.00</ele>
   <time>2014-03-30T10:24:18Z</time>
  </trkpt>
  <trkpt lat="34.144004" lon="-4.018898">
   <ele>1154.00</ele>
   <time>2014-03-30T10:24:21Z</time>
  </trkpt>
  <trkpt lat="34.143900" lon="-4.018605">
   <ele>1156.00</ele>
   <time>2014-03-30T10:24:24Z</time>
  </trkpt>
  <trkpt lat="34.143690" lon="-4.018497">
   <ele>1159.00</ele>
   <time>2014-03-30T10:24:27Z</time>
  </trkpt>
  <trkpt lat="34.143531" lon="-4.018671">
   <ele>1160.00</ele>
   <time>2014-03-30T10:24:30Z</time>
  </trkpt>
  <trkpt lat="34.143504" lon="-4.018994">
   <ele>1162.00</ele>
   <time>2014-03-30T10:24:33Z</time>
  </trkpt>
  <trkpt lat="34.143486" lon="-4.019630">
   <ele>1164.00</ele>
   <time>2014-03-30T10:24:38Z</time>
  </trkpt>
  <trkpt lat="34.143502" lon="-4.019882">
   <ele>1166.00</ele>
   <time>2014-03-30T10:24:40Z</time>
  </trkpt>
  <trkpt lat="34.143553" lon="-4.020234">
   <ele>1168.00</ele>
   <time>2014-03-30T10:24:43Z</time>
  </trkpt>
  <trkpt lat="34.143640" lon="-4.020421">
   <ele>1169.00</ele>
   <time>2014-03-30T10:24:45Z</time>
  </trkpt>
  <trkpt lat="34.143836" lon="-4.020464">
   <ele>1171.00</ele>
   <time>2014-03-30T10:24:47Z</time>
  </trkpt>
  <trkpt lat="34.144019" lon="-4.020362">
   <ele>1173.00</ele>
   <time>2014-03-30T10:24:49Z</time>
  </trkpt>
  <trkpt lat="34.144188" lon="-4.020231">
   <ele>1175.00</ele>
   <time>2014-03-30T10:24:51Z</time>
  </trkpt>
  <trkpt lat="34.144372" lon="-4.020149">
   <ele>1176.00</ele>
   <time>2014-03-30T10:24:53Z</time>
  </trkpt>
  <trkpt lat="34.144563" lon="-4.020111">
   <ele>1178.00</ele>
   <time>2014-03-30T10:24:55Z</time>
  </trkpt>
  <trkpt lat="34.144746" lon="-4.020129">
   <ele>1180.00</ele>
   <time>2014-03-30T10:24:57Z</time>
  </trkpt>
  <trkpt lat="34.144943" lon="-4.020299">
   <ele>1182.00</ele>
   <time>2014-03-30T10:25:00Z</time>
  </trkpt>
  <trkpt lat="34.144945" lon="-4.020596">
   <ele>1182.00</ele>
   <time>2014-03-30T10:25:03Z</time>
  </trkpt>
  <trkpt lat="34.144837" lon="-4.021017">
   <ele>1184.00</ele>
   <time>2014-03-30T10:25:07Z</time>
  </trkpt>
  <trkpt lat="34.144748" lon="-4.021217">
   <ele>1185.00</ele>
   <time>2014-03-30T10:25:09Z</time>
  </trkpt>
  <trkpt lat="34.144596" lon="-4.021338">
   <ele>1186.00</ele>
   <time>2014-03-30T10:25:11Z</time>
  </trkpt>
  <trkpt lat="34.144409" lon="-4.021387">
   <ele>1187.00</ele>
   <time>2014-03-30T10:25:13Z</time>
  </trkpt>
  <trkpt lat="34.144223" lon="-4.021425">
   <ele>1188.00</ele>
   <time>2014-03-30T10:25:15Z</time>
  </trkpt>
  <trkpt lat="34.144045" lon="-4.021509">
   <ele>1189.00</ele>
   <time>2014-03-30T10:25:17Z</time>
  </trkpt>
  <trkpt lat="34.143886" lon="-4.021658">
   <ele>1190.00</ele>
   <time>2014-03-30T10:25:19Z</time>
  </trkpt>
  <trkpt lat="34.143455" lon="-4.022188">
   <ele>1195.00</ele>
   <time>2014-03-30T10:25:25Z</time>
  </trkpt>
  <trkpt lat="34.143291" lon="-4.022301">
   <ele>1196.00</ele>
   <time>2014-03-30T10:25:27Z</time>
  </trkpt>
  <trkpt lat="34.143104" lon="-4.022342">
   <ele>1197.00</ele>
   <time>2014-03-30T10:25:29Z</time>
  </trkpt>
  <trkpt lat="34.142678" lon="-4.022378">
   <ele>1198.00</ele>
   <time>2014-03-30T10:25:33Z</time>
  </trkpt>
  <trkpt lat="34.142461" lon="-4.022452">
   <ele>1199.00</ele>
   <time>2014-03-30T10:25:35Z</time>
  </trkpt>
  <trkpt lat="34.142251" lon="-4.022574">
   <ele>1199.00</ele>
   <time>2014-03-30T10:25:37Z</time>
  </trkpt>
  <trkpt lat="34.141728" lon="-4.022928">
   <ele>1200.00</ele>
   <time>2014-03-30T10:25:42Z</time>
  </trkpt>
  <trkpt lat="34.141230" lon="-4.023317">
   <ele>1201.00</ele>
   <time>2014-03-30T10:25:47Z</time>
  </trkpt>
  <trkpt lat="34.141030" lon="-4.023469">
   <ele>1201.00</ele>
   <time>2014-03-30T10:25:49Z</time>
  </trkpt>
  <trkpt lat="34.140814" lon="-4.023600">
   <ele>1201.00</ele>
   <time>2014-03-30T10:25:51Z</time>
  </trkpt>
  <trkpt lat="34.140587" lon="-4.023711">
   <ele>1202.00</ele>
   <time>2014-03-30T10:25:53Z</time>
  </trkpt>
  <trkpt lat="34.140347" lon="-4.023791">
   <ele>1202.00</ele>
   <time>2014-03-30T10:25:55Z</time>
  </trkpt>
  <trkpt lat="34.140101" lon="-4.023847">
   <ele>1202.00</ele>
   <time>2014-03-30T10:25:57Z</time>
  </trkpt>
  <trkpt lat="34.139849" lon="-4.023892">
   <ele>1202.00</ele>
   <time>2014-03-30T10:25:59Z</time>
  </trkpt>
  <trkpt lat="34.137718" lon="-4.024221">
   <ele>1204.00</ele>
   <time>2014-03-30T10:26:15Z</time>
  </trkpt>
  <trkpt lat="34.137472" lon="-4.024285">
   <ele>1205.00</ele>
   <time>2014-03-30T10:26:17Z</time>
  </trkpt>
  <trkpt lat="34.137265" lon="-4.024412">
   <ele>1205.00</ele>
   <time>2014-03-30T10:26:19Z</time>
  </trkpt>
  <trkpt lat="34.137066" lon="-4.024549">
   <ele>1206.00</ele>
   <time>2014-03-30T10:26:21Z</time>
  </trkpt>
  <trkpt lat="34.136844" lon="-4.024647">
   <ele>1206.00</ele>
   <time>2014-03-30T10:26:23Z</time>
  </trkpt>
  <trkpt lat="34.135697" lon="-4.025073">
   <ele>1210.00</ele>
   <time>2014-03-30T10:26:33Z</time>
  </trkpt>
  <trkpt lat="34.135478" lon="-4.025182">
   <ele>1211.00</ele>
   <time>2014-03-30T10:26:35Z</time>
  </trkpt>
  <trkpt lat="34.134112" lon="-4.025944">
   <ele>1215.00</ele>
   <time>2014-03-30T10:26:47Z</time>
  </trkpt>
  <trkpt lat="34.133908" lon="-4.026090">
   <ele>1215.00</ele>
   <time>2014-03-30T10:26:49Z</time>
  </trkpt>
  <trkpt lat="34.133715" lon="-4.026265">
   <ele>1216.00</ele>
   <time>2014-03-30T10:26:51Z</time>
  </trkpt>
  <trkpt lat="34.133323" lon="-4.026643">
   <ele>1218.00</ele>
   <time>2014-03-30T10:26:55Z</time>
  </trkpt>
  <trkpt lat="34.132637" lon="-4.027271">
   <ele>1221.00</ele>
   <time>2014-03-30T10:27:02Z</time>
  </trkpt>
  <trkpt lat="34.132431" lon="-4.027416">
   <ele>1222.00</ele>
   <time>2014-03-30T10:27:04Z</time>
  </trkpt>
  <trkpt lat="34.132222" lon="-4.027563">
   <ele>1223.00</ele>
   <time>2014-03-30T10:27:06Z</time>
  </trkpt>
  <trkpt lat="34.132022" lon="-4.027731">
   <ele>1224.00</ele>
   <time>2014-03-30T10:27:08Z</time>
  </trkpt>
  <trkpt lat="34.131840" lon="-4.027936">
   <ele>1224.00</ele>
   <time>2014-03-30T10:27:10Z</time>
  </trkpt>
  <trkpt lat="34.131680" lon="-4.028169">
   <ele>1225.00</ele>
   <time>2014-03-30T10:27:12Z</time>
  </trkpt>
  <trkpt lat="34.131547" lon="-4.028437">
   <ele>1226.00</ele>
   <time>2014-03-30T10:27:14Z</time>
  </trkpt>
  <trkpt lat="34.131412" lon="-4.028713">
   <ele>1227.00</ele>
   <time>2014-03-30T10:27:16Z</time>
  </trkpt>
  <trkpt lat="34.131265" lon="-4.028972">
   <ele>1228.00</ele>
   <time>2014-03-30T10:27:18Z</time>
  </trkpt>
  <trkpt lat="34.131114" lon="-4.029194">
   <ele>1230.00</ele>
   <time>2014-03-30T10:27:20Z</time>
  </trkpt>
  <trkpt lat="34.130936" lon="-4.029336">
   <ele>1231.00</ele>
   <time>2014-03-30T10:27:22Z</time>
  </trkpt>
  <trkpt lat="34.130747" lon="-4.029358">
   <ele>1232.00</ele>
   <time>2014-03-30T10:27:24Z</time>
  </trkpt>
  <trkpt lat="34.130413" lon="-4.029277">
   <ele>1233.00</ele>
   <time>2014-03-30T10:27:28Z</time>
  </trkpt>
  <trkpt lat="34.130243" lon="-4.029470">
   <ele>1233.00</ele>
   <time>2014-03-30T10:27:31Z</time>
  </trkpt>
  <trkpt lat="34.130241" lon="-4.029689">
   <ele>1233.00</ele>
   <time>2014-03-30T10:27:33Z</time>
  </trkpt>
  <trkpt lat="34.130273" lon="-4.029928">
   <ele>1233.00</ele>
   <time>2014-03-30T10:27:35Z</time>
  </trkpt>
  <trkpt lat="34.130288" lon="-4.030169">
   <ele>1234.00</ele>
   <time>2014-03-30T10:27:37Z</time>
  </trkpt>
  <trkpt lat="34.130211" lon="-4.030385">
   <ele>1234.00</ele>
   <time>2014-03-30T10:27:39Z</time>
  </trkpt>
  <trkpt lat="34.130064" lon="-4.030573">
   <ele>1234.00</ele>
   <time>2014-03-30T10:27:41Z</time>
  </trkpt>
  <trkpt lat="34.129817" lon="-4.030872">
   <ele>1235.00</ele>
   <time>2014-03-30T10:27:44Z</time>
  </trkpt>
  <trkpt lat="34.129212" lon="-4.031639">
   <ele>1239.00</ele>
   <time>2014-03-30T10:27:52Z</time>
  </trkpt>
  <trkpt lat="34.129185" lon="-4.031924">
   <ele>1241.00</ele>
   <time>2014-03-30T10:27:55Z</time>
  </trkpt>
  <trkpt lat="34.129361" lon="-4.032044">
   <ele>1243.00</ele>
   <time>2014-03-30T10:27:57Z</time>
  </trkpt>
  <trkpt lat="34.129559" lon="-4.032011">
   <ele>1245.00</ele>
   <time>2014-03-30T10:27:59Z</time>
  </trkpt>
  <trkpt lat="34.129698" lon="-4.031866">
   <ele>1245.00</ele>
   <time>2014-03-30T10:28:01Z</time>
  </trkpt>
  <trkpt lat="34.129922" lon="-4.031728">
   <ele>1247.00</ele>
   <time>2014-03-30T10:28:04Z</time>
  </trkpt>
  <trkpt lat="34.130086" lon="-4.031934">
   <ele>1248.00</ele>
   <time>2014-03-30T10:28:07Z</time>
  </trkpt>
  <trkpt lat="34.130056" lon="-4.032149">
   <ele>1249.00</ele>
   <time>2014-03-30T10:28:09Z</time>
  </trkpt>
  <trkpt lat="34.129925" lon="-4.032340">
   <ele>1250.00</ele>
   <time>2014-03-30T10:28:11Z</time>
  </trkpt>
  <trkpt lat="34.129763" lon="-4.032517">
   <ele>1252.00</ele>
   <time>2014-03-30T10:28:13Z</time>
  </trkpt>
  <trkpt lat="34.129587" lon="-4.032686">
   <ele>1254.00</ele>
   <time>2014-03-30T10:28:15Z</time>
  </trkpt>
  <trkpt lat="34.129392" lon="-4.032806">
   <ele>1255.00</ele>
   <time>2014-03-30T10:28:17Z</time>
  </trkpt>
  <trkpt lat="34.129197" lon="-4.032912">
   <ele>1257.00</ele>
   <time>2014-03-30T10:28:19Z</time>
  </trkpt>
  <trkpt lat="34.129032" lon="-4.033082">
   <ele>1259.00</ele>
   <time>2014-03-30T10:28:21Z</time>
  </trkpt>
  <trkpt lat="34.128884" lon="-4.033273">
   <ele>1261.00</ele>
   <time>2014-03-30T10:28:23Z</time>
  </trkpt>
  <trkpt lat="34.128711" lon="-4.033417">
   <ele>1262.00</ele>
   <time>2014-03-30T10:28:25Z</time>
  </trkpt>
  <trkpt lat="34.128524" lon="-4.033530">
   <ele>1264.00</ele>
   <time>2014-03-30T10:28:27Z</time>
  </trkpt>
  <trkpt lat="34.128355" lon="-4.033660">
   <ele>1266.00</ele>
   <time>2014-03-30T10:28:29Z</time>
  </trkpt>
  <trkpt lat="34.128245" lon="-4.033868">
   <ele>1268.00</ele>
   <time>2014-03-30T10:28:31Z</time>
  </trkpt>
  <trkpt lat="34.128162" lon="-4.034119">
   <ele>1270.00</ele>
   <time>2014-03-30T10:28:33Z</time>
  </trkpt>
  <trkpt lat="34.127979" lon="-4.034645">
   <ele>1274.00</ele>
   <time>2014-03-30T10:28:37Z</time>
  </trkpt>
  <trkpt lat="34.127849" lon="-4.034886">
   <ele>1276.00</ele>
   <time>2014-03-30T10:28:39Z</time>
  </trkpt>
  <trkpt lat="34.127670" lon="-4.035085">
   <ele>1277.00</ele>
   <time>2014-03-30T10:28:41Z</time>
  </trkpt>
  <trkpt lat="34.126992" lon="-4.035704">
   <ele>1283.00</ele>
   <time>2014-03-30T10:28:48Z</time>
  </trkpt>
  <trkpt lat="34.126802" lon="-4.035808">
   <ele>1285.00</ele>
   <time>2014-03-30T10:28:50Z</time>
  </trkpt>
  <trkpt lat="34.126620" lon="-4.035906">
   <ele>1287.00</ele>
   <time>2014-03-30T10:28:52Z</time>
  </trkpt>
  <trkpt lat="34.126472" lon="-4.036073">
   <ele>1288.00</ele>
   <time>2014-03-30T10:28:54Z</time>
  </trkpt>
  <trkpt lat="34.126264" lon="-4.036383">
   <ele>1291.00</ele>
   <time>2014-03-30T10:28:57Z</time>
  </trkpt>
  <trkpt lat="34.126003" lon="-4.036806">
   <ele>1294.00</ele>
   <time>2014-03-30T10:29:01Z</time>
  </trkpt>
  <trkpt lat="34.125964" lon="-4.037016">
   <ele>1296.00</ele>
   <time>2014-03-30T10:29:03Z</time>
  </trkpt>
  <trkpt lat="34.126087" lon="-4.037187">
   <ele>1299.00</ele>
   <time>2014-03-30T10:29:05Z</time>
  </trkpt>
  <trkpt lat="34.126277" lon="-4.037217">
   <ele>1302.00</ele>
   <time>2014-03-30T10:29:07Z</time>
  </trkpt>
  <trkpt lat="34.126435" lon="-4.037096">
   <ele>1302.00</ele>
   <time>2014-03-30T10:29:09Z</time>
  </trkpt>
  <trkpt lat="34.126533" lon="-4.036879">
   <ele>1305.00</ele>
   <time>2014-03-30T10:29:11Z</time>
  </trkpt>
  <trkpt lat="34.126639" lon="-4.036653">
   <ele>1307.00</ele>
   <time>2014-03-30T10:29:13Z</time>
  </trkpt>
  <trkpt lat="34.126773" lon="-4.036444">
   <ele>1309.00</ele>
   <time>2014-03-30T10:29:15Z</time>
  </trkpt>
  <trkpt lat="34.126921" lon="-4.036270">
   <ele>1310.00</ele>
   <time>2014-03-30T10:29:17Z</time>
  </trkpt>
  <trkpt lat="34.127152" lon="-4.036226">
   <ele>1312.00</ele>
   <time>2014-03-30T10:29:20Z</time>
  </trkpt>
  <trkpt lat="34.127279" lon="-4.036436">
   <ele>1313.00</ele>
   <time>2014-03-30T10:29:23Z</time>
  </trkpt>
  <trkpt lat="34.127188" lon="-4.036733">
   <ele>1313.00</ele>
   <time>2014-03-30T10:29:26Z</time>
  </trkpt>
  <trkpt lat="34.127071" lon="-4.036924">
   <ele>1314.00</ele>
   <time>2014-03-30T10:29:28Z</time>
  </trkpt>
  <trkpt lat="34.126588" lon="-4.037691">
   <ele>1320.00</ele>
   <time>2014-03-30T10:29:35Z</time>
  </trkpt>
  <trkpt lat="34.126420" lon="-4.037903">
   <ele>1321.00</ele>
   <time>2014-03-30T10:29:37Z</time>
  </trkpt>
  <trkpt lat="34.126167" lon="-4.038215">
   <ele>1322.00</ele>
   <time>2014-03-30T10:29:40Z</time>
  </trkpt>
  <trkpt lat="34.125926" lon="-4.038554">
   <ele>1323.00</ele>
   <time>2014-03-30T10:29:43Z</time>
  </trkpt>
  <trkpt lat="34.125762" lon="-4.038782">
   <ele>1325.00</ele>
   <time>2014-03-30T10:29:45Z</time>
  </trkpt>
  <trkpt lat="34.125585" lon="-4.038987">
   <ele>1326.00</ele>
   <time>2014-03-30T10:29:47Z</time>
  </trkpt>
  <trkpt lat="34.125388" lon="-4.039166">
   <ele>1328.00</ele>
   <time>2014-03-30T10:29:49Z</time>
  </trkpt>
  <trkpt lat="34.125174" lon="-4.039320">
   <ele>1330.00</ele>
   <time>2014-03-30T10:29:51Z</time>
  </trkpt>
  <trkpt lat="34.124850" lon="-4.039523">
   <ele>1333.00</ele>
   <time>2014-03-30T10:29:54Z</time>
  </trkpt>
  <trkpt lat="34.124663" lon="-4.039684">
   <ele>1335.00</ele>
   <time>2014-03-30T10:29:56Z</time>
  </trkpt>
  <trkpt lat="34.124479" lon="-4.039857">
   <ele>1336.00</ele>
   <time>2014-03-30T10:29:58Z</time>
  </trkpt>
  <trkpt lat="34.124273" lon="-4.039977">
   <ele>1338.00</ele>
   <time>2014-03-30T10:30:00Z</time>
  </trkpt>
  <trkpt lat="34.124046" lon="-4.040030">
   <ele>1339.00</ele>
   <time>2014-03-30T10:30:02Z</time>
  </trkpt>
  <trkpt lat="34.123694" lon="-4.040091">
   <ele>1342.00</ele>
   <time>2014-03-30T10:30:05Z</time>
  </trkpt>
  <trkpt lat="34.123475" lon="-4.040063">
   <ele>1344.00</ele>
   <time>2014-03-30T10:30:07Z</time>
  </trkpt>
  <trkpt lat="34.123253" lon="-4.039963">
   <ele>1346.00</ele>
   <time>2014-03-30T10:30:09Z</time>
  </trkpt>
  <trkpt lat="34.123048" lon="-4.039829">
   <ele>1348.00</ele>
   <time>2014-03-30T10:30:11Z</time>
  </trkpt>
  <trkpt lat="34.122857" lon="-4.039672">
   <ele>1350.00</ele>
   <time>2014-03-30T10:30:13Z</time>
  </trkpt>
  <trkpt lat="34.122673" lon="-4.039500">
   <ele>1351.00</ele>
   <time>2014-03-30T10:30:15Z</time>
  </trkpt>
  <trkpt lat="34.122506" lon="-4.039309">
   <ele>1352.00</ele>
   <time>2014-03-30T10:30:17Z</time>
  </trkpt>
  <trkpt lat="34.122372" lon="-4.039113">
   <ele>1352.00</ele>
   <time>2014-03-30T10:30:19Z</time>
  </trkpt>
  <trkpt lat="34.122266" lon="-4.038897">
   <ele>1352.00</ele>
   <time>2014-03-30T10:30:21Z</time>
  </trkpt>
  <trkpt lat="34.122179" lon="-4.038677">
   <ele>1351.00</ele>
   <time>2014-03-30T10:30:23Z</time>
  </trkpt>
  <trkpt lat="34.122069" lon="-4.038504">
   <ele>1349.00</ele>
   <time>2014-03-30T10:30:25Z</time>
  </trkpt>
  <trkpt lat="34.121838" lon="-4.038451">
   <ele>1348.00</ele>
   <time>2014-03-30T10:30:28Z</time>
  </trkpt>
  <trkpt lat="34.121675" lon="-4.038560">
   <ele>1347.00</ele>
   <time>2014-03-30T10:30:30Z</time>
  </trkpt>
  <trkpt lat="34.121521" lon="-4.038732">
   <ele>1346.00</ele>
   <time>2014-03-30T10:30:32Z</time>
  </trkpt>
  <trkpt lat="34.121396" lon="-4.038965">
   <ele>1346.00</ele>
   <time>2014-03-30T10:30:34Z</time>
  </trkpt>
  <trkpt lat="34.121214" lon="-4.039343">
   <ele>1346.00</ele>
   <time>2014-03-30T10:30:37Z</time>
  </trkpt>
  <trkpt lat="34.121037" lon="-4.039528">
   <ele>1346.00</ele>
   <time>2014-03-30T10:30:39Z</time>
  </trkpt>
  <trkpt lat="34.120803" lon="-4.039609">
   <ele>1346.00</ele>
   <time>2014-03-30T10:30:41Z</time>
  </trkpt>
  <trkpt lat="34.120563" lon="-4.039693">
   <ele>1347.00</ele>
   <time>2014-03-30T10:30:43Z</time>
  </trkpt>
  <trkpt lat="34.120348" lon="-4.039834">
   <ele>1347.00</ele>
   <time>2014-03-30T10:30:45Z</time>
  </trkpt>
  <trkpt lat="34.120153" lon="-4.040027">
   <ele>1348.00</ele>
   <time>2014-03-30T10:30:47Z</time>
  </trkpt>
  <trkpt lat="34.120002" lon="-4.040270">
   <ele>1349.00</ele>
   <time>2014-03-30T10:30:49Z</time>
  </trkpt>
  <trkpt lat="34.119937" lon="-4.040554">
   <ele>1349.00</ele>
   <time>2014-03-30T10:30:51Z</time>
  </trkpt>
  <trkpt lat="34.119926" lon="-4.040839">
   <ele>1350.00</ele>
   <time>2014-03-30T10:30:53Z</time>
  </trkpt>
  <trkpt lat="34.119871" lon="-4.041112">
   <ele>1350.00</ele>
   <time>2014-03-30T10:30:55Z</time>
  </trkpt>
  <trkpt lat="34.119717" lon="-4.041344">
   <ele>1350.00</ele>
   <time>2014-03-30T10:30:57Z</time>
  </trkpt>
  <trkpt lat="34.119496" lon="-4.041506">
   <ele>1351.00</ele>
   <time>2014-03-30T10:30:59Z</time>
  </trkpt>
  <trkpt lat="34.117763" lon="-4.042648">
   <ele>1355.00</ele>
   <time>2014-03-30T10:31:13Z</time>
  </trkpt>
  <trkpt lat="34.117636" lon="-4.042860">
   <ele>1355.00</ele>
   <time>2014-03-30T10:31:15Z</time>
  </trkpt>
  <trkpt lat="34.117591" lon="-4.043115">
   <ele>1356.00</ele>
   <time>2014-03-30T10:31:17Z</time>
  </trkpt>
  <trkpt lat="34.117543" lon="-4.043375">
   <ele>1356.00</ele>
   <time>2014-03-30T10:31:19Z</time>
  </trkpt>
  <trkpt lat="34.117413" lon="-4.043589">
   <ele>1357.00</ele>
   <time>2014-03-30T10:31:21Z</time>
  </trkpt>
  <trkpt lat="34.117215" lon="-4.043730">
   <ele>1357.00</ele>
   <time>2014-03-30T10:31:23Z</time>
  </trkpt>
  <trkpt lat="34.117015" lon="-4.043882">
   <ele>1358.00</ele>
   <time>2014-03-30T10:31:25Z</time>
  </trkpt>
  <trkpt lat="34.116843" lon="-4.044099">
   <ele>1358.00</ele>
   <time>2014-03-30T10:31:27Z</time>
  </trkpt>
  <trkpt lat="34.116684" lon="-4.044359">
   <ele>1358.00</ele>
   <time>2014-03-30T10:31:29Z</time>
  </trkpt>
  <trkpt lat="34.116143" lon="-4.045301">
   <ele>1359.00</ele>
   <time>2014-03-30T10:31:36Z</time>
  </trkpt>
  <trkpt lat="34.116054" lon="-4.045597">
   <ele>1360.00</ele>
   <time>2014-03-30T10:31:38Z</time>
  </trkpt>
  <trkpt lat="34.115978" lon="-4.046039">
   <ele>1360.00</ele>
   <time>2014-03-30T10:31:41Z</time>
  </trkpt>
  <trkpt lat="34.115864" lon="-4.046290">
   <ele>1360.00</ele>
   <time>2014-03-30T10:31:43Z</time>
  </trkpt>
  <trkpt lat="34.115654" lon="-4.046431">
   <ele>1361.00</ele>
   <time>2014-03-30T10:31:45Z</time>
  </trkpt>
  <trkpt lat="34.115428" lon="-4.046501">
   <ele>1362.00</ele>
   <time>2014-03-30T10:31:47Z</time>
  </trkpt>
  <trkpt lat="34.115237" lon="-4.046632">
   <ele>1362.00</ele>
   <time>2014-03-30T10:31:49Z</time>
  </trkpt>
  <trkpt lat="34.115119" lon="-4.046842">
   <ele>1363.00</ele>
   <time>2014-03-30T10:31:51Z</time>
  </trkpt>
  <trkpt lat="34.115072" lon="-4.047066">
   <ele>1365.00</ele>
   <time>2014-03-30T10:31:53Z</time>
  </trkpt>
  <trkpt lat="34.115021" lon="-4.047291">
   <ele>1366.00</ele>
   <time>2014-03-30T10:31:55Z</time>
  </trkpt>
  <trkpt lat="34.114907" lon="-4.047498">
   <ele>1367.00</ele>
   <time>2014-03-30T10:31:57Z</time>
  </trkpt>
  <trkpt lat="34.114713" lon="-4.047783">
   <ele>1367.00</ele>
   <time>2014-03-30T10:32:00Z</time>
  </trkpt>
  <trkpt lat="34.114663" lon="-4.048002">
   <ele>1366.00</ele>
   <time>2014-03-30T10:32:02Z</time>
  </trkpt>
  <trkpt lat="34.114636" lon="-4.048237">
   <ele>1366.00</ele>
   <time>2014-03-30T10:32:04Z</time>
  </trkpt>
  <trkpt lat="34.114519" lon="-4.048435">
   <ele>1366.00</ele>
   <time>2014-03-30T10:32:06Z</time>
  </trkpt>
  <trkpt lat="34.114302" lon="-4.048685">
   <ele>1367.00</ele>
   <time>2014-03-30T10:32:09Z</time>
  </trkpt>
  <trkpt lat="34.114209" lon="-4.048909">
   <ele>1367.00</ele>
   <time>2014-03-30T10:32:11Z</time>
  </trkpt>
  <trkpt lat="34.114130" lon="-4.049147">
   <ele>1367.00</ele>
   <time>2014-03-30T10:32:13Z</time>
  </trkpt>
  <trkpt lat="34.113988" lon="-4.049334">
   <ele>1367.00</ele>
   <time>2014-03-30T10:32:15Z</time>
  </trkpt>
  <trkpt lat="34.113794" lon="-4.049453">
   <ele>1367.00</ele>
   <time>2014-03-30T10:32:17Z</time>
  </trkpt>
  <trkpt lat="34.113499" lon="-4.049610">
   <ele>1366.00</ele>
   <time>2014-03-30T10:32:20Z</time>
  </trkpt>
  <trkpt lat="34.113326" lon="-4.049773">
   <ele>1367.00</ele>
   <time>2014-03-30T10:32:22Z</time>
  </trkpt>
  <trkpt lat="34.113183" lon="-4.049981">
   <ele>1367.00</ele>
   <time>2014-03-30T10:32:24Z</time>
  </trkpt>
  <trkpt lat="34.112875" lon="-4.050488">
   <ele>1369.00</ele>
   <time>2014-03-30T10:32:29Z</time>
  </trkpt>
  <trkpt lat="34.112743" lon="-4.050668">
   <ele>1370.00</ele>
   <time>2014-03-30T10:32:31Z</time>
  </trkpt>
  <trkpt lat="34.112598" lon="-4.050846">
   <ele>1370.00</ele>
   <time>2014-03-30T10:32:33Z</time>
  </trkpt>
  <trkpt lat="34.111414" lon="-4.052237">
   <ele>1360.00</ele>
   <time>2014-03-30T10:32:46Z</time>
  </trkpt>
  <trkpt lat="34.111173" lon="-4.052390">
   <ele>1357.00</ele>
   <time>2014-03-30T10:32:48Z</time>
  </trkpt>
  <trkpt lat="34.110899" lon="-4.052430">
   <ele>1356.00</ele>
   <time>2014-03-30T10:32:50Z</time>
  </trkpt>
  <trkpt lat="34.110487" lon="-4.052432">
   <ele>1355.00</ele>
   <time>2014-03-30T10:32:53Z</time>
  </trkpt>
  <trkpt lat="34.110229" lon="-4.052495">
   <ele>1355.00</ele>
   <time>2014-03-30T10:32:55Z</time>
  </trkpt>
  <trkpt lat="34.110001" lon="-4.052646">
   <ele>1355.00</ele>
   <time>2014-03-30T10:32:57Z</time>
  </trkpt>
  <trkpt lat="34.109823" lon="-4.052860">
   <ele>1355.00</ele>
   <time>2014-03-30T10:32:59Z</time>
  </trkpt>
  <trkpt lat="34.109708" lon="-4.053136">
   <ele>1356.00</ele>
   <time>2014-03-30T10:33:01Z</time>
  </trkpt>
  <trkpt lat="34.109632" lon="-4.053452">
   <ele>1356.00</ele>
   <time>2014-03-30T10:33:03Z</time>
  </trkpt>
  <trkpt lat="34.109524" lon="-4.053959">
   <ele>1358.00</ele>
   <time>2014-03-30T10:33:06Z</time>
  </trkpt>
  <trkpt lat="34.109414" lon="-4.054463">
   <ele>1359.00</ele>
   <time>2014-03-30T10:33:09Z</time>
  </trkpt>
  <trkpt lat="34.109305" lon="-4.054761">
   <ele>1360.00</ele>
   <time>2014-03-30T10:33:11Z</time>
  </trkpt>
  <trkpt lat="34.109130" lon="-4.055000">
   <ele>1360.00</ele>
   <time>2014-03-30T10:33:13Z</time>
  </trkpt>
  <trkpt lat="34.108921" lon="-4.055186">
   <ele>1361.00</ele>
   <time>2014-03-30T10:33:15Z</time>
  </trkpt>
  <trkpt lat="34.108731" lon="-4.055382">
   <ele>1361.00</ele>
   <time>2014-03-30T10:33:17Z</time>
  </trkpt>
  <trkpt lat="34.108588" lon="-4.055635">
   <ele>1362.00</ele>
   <time>2014-03-30T10:33:19Z</time>
  </trkpt>
  <trkpt lat="34.108481" lon="-4.055921">
   <ele>1362.00</ele>
   <time>2014-03-30T10:33:21Z</time>
  </trkpt>
  <trkpt lat="34.108409" lon="-4.056238">
   <ele>1364.00</ele>
   <time>2014-03-30T10:33:23Z</time>
  </trkpt>
  <trkpt lat="34.108108" lon="-4.057616">
   <ele>1368.00</ele>
   <time>2014-03-30T10:33:31Z</time>
  </trkpt>
  <trkpt lat="34.108014" lon="-4.057973">
   <ele>1368.00</ele>
   <time>2014-03-30T10:33:33Z</time>
  </trkpt>
  <trkpt lat="34.107757" lon="-4.058863">
   <ele>1370.00</ele>
   <time>2014-03-30T10:33:38Z</time>
  </trkpt>
  <trkpt lat="34.107626" lon="-4.059185">
   <ele>1370.00</ele>
   <time>2014-03-30T10:33:40Z</time>
  </trkpt>
  <trkpt lat="34.107473" lon="-4.059462">
   <ele>1371.00</ele>
   <time>2014-03-30T10:33:42Z</time>
  </trkpt>
  <trkpt lat="34.107345" lon="-4.059742">
   <ele>1372.00</ele>
   <time>2014-03-30T10:33:44Z</time>
  </trkpt>
  <trkpt lat="34.107287" lon="-4.060051">
   <ele>1372.00</ele>
   <time>2014-03-30T10:33:46Z</time>
  </trkpt>
  <trkpt lat="34.107284" lon="-4.060383">
   <ele>1372.00</ele>
   <time>2014-03-30T10:33:48Z</time>
  </trkpt>
  <trkpt lat="34.107256" lon="-4.060728">
   <ele>1373.00</ele>
   <time>2014-03-30T10:33:50Z</time>
  </trkpt>
  <trkpt lat="34.107178" lon="-4.061072">
   <ele>1373.00</ele>
   <time>2014-03-30T10:33:52Z</time>
  </trkpt>
  <trkpt lat="34.106707" lon="-4.062810">
   <ele>1375.00</ele>
   <time>2014-03-30T10:34:02Z</time>
  </trkpt>
  <trkpt lat="34.106675" lon="-4.063142">
   <ele>1375.00</ele>
   <time>2014-03-30T10:34:04Z</time>
  </trkpt>
  <trkpt lat="34.106664" lon="-4.063643">
   <ele>1376.00</ele>
   <time>2014-03-30T10:34:07Z</time>
  </trkpt>
  <trkpt lat="34.106605" lon="-4.063965">
   <ele>1377.00</ele>
   <time>2014-03-30T10:34:09Z</time>
  </trkpt>
  <trkpt lat="34.106468" lon="-4.064266">
   <ele>1377.00</ele>
   <time>2014-03-30T10:34:11Z</time>
  </trkpt>
  <trkpt lat="34.106277" lon="-4.064539">
   <ele>1377.00</ele>
   <time>2014-03-30T10:34:13Z</time>
  </trkpt>
  <trkpt lat="34.106094" lon="-4.064809">
   <ele>1377.00</ele>
   <time>2014-03-30T10:34:15Z</time>
  </trkpt>
  <trkpt lat="34.105958" lon="-4.065113">
   <ele>1376.00</ele>
   <time>2014-03-30T10:34:17Z</time>
  </trkpt>
  <trkpt lat="34.105820" lon="-4.065419">
   <ele>1376.00</ele>
   <time>2014-03-30T10:34:19Z</time>
  </trkpt>
  <trkpt lat="34.105626" lon="-4.065681">
   <ele>1376.00</ele>
   <time>2014-03-30T10:34:21Z</time>
  </trkpt>
  <trkpt lat="34.105308" lon="-4.066021">
   <ele>1377.00</ele>
   <time>2014-03-30T10:34:24Z</time>
  </trkpt>
  <trkpt lat="34.105161" lon="-4.066302">
   <ele>1378.00</ele>
   <time>2014-03-30T10:34:26Z</time>
  </trkpt>
  <trkpt lat="34.105042" lon="-4.066599">
   <ele>1378.00</ele>
   <time>2014-03-30T10:34:28Z</time>
  </trkpt>
  <trkpt lat="34.104924" lon="-4.066886">
   <ele>1379.00</ele>
   <time>2014-03-30T10:34:30Z</time>
  </trkpt>
  <trkpt lat="34.104776" lon="-4.067151">
   <ele>1379.00</ele>
   <time>2014-03-30T10:34:32Z</time>
  </trkpt>
  <trkpt lat="34.104558" lon="-4.067361">
   <ele>1379.00</ele>
   <time>2014-03-30T10:34:34Z</time>
  </trkpt>
  <trkpt lat="34.104295" lon="-4.067503">
   <ele>1379.00</ele>
   <time>2014-03-30T10:34:36Z</time>
  </trkpt>
  <trkpt lat="34.104026" lon="-4.067661">
   <ele>1378.00</ele>
   <time>2014-03-30T10:34:38Z</time>
  </trkpt>
  <trkpt lat="34.103490" lon="-4.068058">
   <ele>1378.00</ele>
   <time>2014-03-30T10:34:42Z</time>
  </trkpt>
  <trkpt lat="34.102969" lon="-4.068459">
   <ele>1377.00</ele>
   <time>2014-03-30T10:34:46Z</time>
  </trkpt>
  <trkpt lat="34.102746" lon="-4.068703">
   <ele>1377.00</ele>
   <time>2014-03-30T10:34:48Z</time>
  </trkpt>
  <trkpt lat="34.102580" lon="-4.069008">
   <ele>1377.00</ele>
   <time>2014-03-30T10:34:50Z</time>
  </trkpt>
  <trkpt lat="34.102472" lon="-4.069338">
   <ele>1377.00</ele>
   <time>2014-03-30T10:34:52Z</time>
  </trkpt>
  <trkpt lat="34.102338" lon="-4.069633">
   <ele>1377.00</ele>
   <time>2014-03-30T10:34:54Z</time>
  </trkpt>
  <trkpt lat="34.102157" lon="-4.069876">
   <ele>1377.00</ele>
   <time>2014-03-30T10:34:56Z</time>
  </trkpt>
  <trkpt lat="34.101981" lon="-4.070129">
   <ele>1377.00</ele>
   <time>2014-03-30T10:34:58Z</time>
  </trkpt>
  <trkpt lat="34.101837" lon="-4.070419">
   <ele>1377.00</ele>
   <time>2014-03-30T10:35:00Z</time>
  </trkpt>
  <trkpt lat="34.101717" lon="-4.070731">
   <ele>1378.00</ele>
   <time>2014-03-30T10:35:02Z</time>
  </trkpt>
  <trkpt lat="34.101494" lon="-4.071337">
   <ele>1378.00</ele>
   <time>2014-03-30T10:35:06Z</time>
  </trkpt>
  <trkpt lat="34.101353" lon="-4.071617">
   <ele>1378.00</ele>
   <time>2014-03-30T10:35:08Z</time>
  </trkpt>
  <trkpt lat="34.101175" lon="-4.071881">
   <ele>1377.00</ele>
   <time>2014-03-30T10:35:10Z</time>
  </trkpt>
  <trkpt lat="34.100873" lon="-4.072275">
   <ele>1376.00</ele>
   <time>2014-03-30T10:35:13Z</time>
  </trkpt>
  <trkpt lat="34.099208" lon="-4.074447">
   <ele>1367.00</ele>
   <time>2014-03-30T10:35:28Z</time>
  </trkpt>
  <trkpt lat="34.097308" lon="-4.076933">
   <ele>1366.00</ele>
   <time>2014-03-30T10:35:44Z</time>
  </trkpt>
  <trkpt lat="34.095587" lon="-4.079176">
   <ele>1365.00</ele>
   <time>2014-03-30T10:35:59Z</time>
  </trkpt>
  <trkpt lat="34.093795" lon="-4.081534">
   <ele>1365.00</ele>
   <time>2014-03-30T10:36:14Z</time>
  </trkpt>
  <trkpt lat="34.093596" lon="-4.081874">
   <ele>1366.00</ele>
   <time>2014-03-30T10:36:16Z</time>
  </trkpt>
  <trkpt lat="34.093413" lon="-4.082236">
   <ele>1365.00</ele>
   <time>2014-03-30T10:36:18Z</time>
  </trkpt>
  <trkpt lat="34.091953" lon="-4.085247">
   <ele>1370.00</ele>
   <time>2014-03-30T10:36:34Z</time>
  </trkpt>
  <trkpt lat="34.090644" lon="-4.087962">
   <ele>1372.00</ele>
   <time>2014-03-30T10:36:49Z</time>
  </trkpt>
  <trkpt lat="34.090538" lon="-4.088293">
   <ele>1373.00</ele>
   <time>2014-03-30T10:36:51Z</time>
  </trkpt>
  <trkpt lat="34.090470" lon="-4.088641">
   <ele>1373.00</ele>
   <time>2014-03-30T10:36:53Z</time>
  </trkpt>
  <trkpt lat="34.090440" lon="-4.089006">
   <ele>1372.00</ele>
   <time>2014-03-30T10:36:55Z</time>
  </trkpt>
  <trkpt lat="34.090453" lon="-4.089391">
   <ele>1372.00</ele>
   <time>2014-03-30T10:36:57Z</time>
  </trkpt>
  <trkpt lat="34.090518" lon="-4.089792">
   <ele>1372.00</ele>
   <time>2014-03-30T10:36:59Z</time>
  </trkpt>
  <trkpt lat="34.091036" lon="-4.092103">
   <ele>1373.00</ele>
   <time>2014-03-30T10:37:10Z</time>
  </trkpt>
  <trkpt lat="34.091149" lon="-4.092497">
   <ele>1374.00</ele>
   <time>2014-03-30T10:37:12Z</time>
  </trkpt>
  <trkpt lat="34.091304" lon="-4.092869">
   <ele>1374.00</ele>
   <time>2014-03-30T10:37:14Z</time>
  </trkpt>
  <trkpt lat="34.092489" lon="-4.095538">
   <ele>1379.00</ele>
   <time>2014-03-30T10:37:29Z</time>
  </trkpt>
  <trkpt lat="34.092629" lon="-4.095832">
   <ele>1380.00</ele>
   <time>2014-03-30T10:37:31Z</time>
  </trkpt>
  <trkpt lat="34.092784" lon="-4.096089">
   <ele>1381.00</ele>
   <time>2014-03-30T10:37:33Z</time>
  </trkpt>
  <trkpt lat="34.092954" lon="-4.096296">
   <ele>1381.00</ele>
   <time>2014-03-30T10:37:35Z</time>
  </trkpt>
  <trkpt lat="34.093201" lon="-4.096569">
   <ele>1382.00</ele>
   <time>2014-03-30T10:37:38Z</time>
  </trkpt>
  <trkpt lat="34.093335" lon="-4.096786">
   <ele>1382.00</ele>
   <time>2014-03-30T10:37:40Z</time>
  </trkpt>
  <trkpt lat="34.093437" lon="-4.097034">
   <ele>1383.00</ele>
   <time>2014-03-30T10:37:42Z</time>
  </trkpt>
  <trkpt lat="34.093577" lon="-4.097416">
   <ele>1384.00</ele>
   <time>2014-03-30T10:37:45Z</time>
  </trkpt>
  <trkpt lat="34.093623" lon="-4.097689">
   <ele>1384.00</ele>
   <time>2014-03-30T10:37:47Z</time>
  </trkpt>
  <trkpt lat="34.093616" lon="-4.098121">
   <ele>1385.00</ele>
   <time>2014-03-30T10:37:50Z</time>
  </trkpt>
  <trkpt lat="34.093553" lon="-4.098395">
   <ele>1384.00</ele>
   <time>2014-03-30T10:37:52Z</time>
  </trkpt>
  <trkpt lat="34.093440" lon="-4.098669">
   <ele>1383.00</ele>
   <time>2014-03-30T10:37:54Z</time>
  </trkpt>
  <trkpt lat="34.092606" lon="-4.100697">
   <ele>1387.00</ele>
   <time>2014-03-30T10:38:07Z</time>
  </trkpt>
  <trkpt lat="34.092557" lon="-4.100992">
   <ele>1388.00</ele>
   <time>2014-03-30T10:38:09Z</time>
  </trkpt>
  <trkpt lat="34.092565" lon="-4.101299">
   <ele>1390.00</ele>
   <time>2014-03-30T10:38:11Z</time>
  </trkpt>
  <trkpt lat="34.092609" lon="-4.101597">
   <ele>1392.00</ele>
   <time>2014-03-30T10:38:13Z</time>
  </trkpt>
  <trkpt lat="34.092674" lon="-4.101861">
   <ele>1395.00</ele>
   <time>2014-03-30T10:38:15Z</time>
  </trkpt>
  <trkpt lat="34.092737" lon="-4.102105">
   <ele>1396.00</ele>
   <time>2014-03-30T10:38:17Z</time>
  </trkpt>
  <trkpt lat="34.092760" lon="-4.102365">
   <ele>1398.00</ele>
   <time>2014-03-30T10:38:19Z</time>
  </trkpt>
  <trkpt lat="34.092737" lon="-4.102631">
   <ele>1400.00</ele>
   <time>2014-03-30T10:38:21Z</time>
  </trkpt>
  <trkpt lat="34.092694" lon="-4.102892">
   <ele>1402.00</ele>
   <time>2014-03-30T10:38:23Z</time>
  </trkpt>
  <trkpt lat="34.092648" lon="-4.103147">
   <ele>1404.00</ele>
   <time>2014-03-30T10:38:25Z</time>
  </trkpt>
  <trkpt lat="34.092580" lon="-4.103389">
   <ele>1406.00</ele>
   <time>2014-03-30T10:38:27Z</time>
  </trkpt>
  <trkpt lat="34.092479" lon="-4.103606">
   <ele>1406.00</ele>
   <time>2014-03-30T10:38:29Z</time>
  </trkpt>
  <trkpt lat="34.092344" lon="-4.103822">
   <ele>1407.00</ele>
   <time>2014-03-30T10:38:32Z</time>
  </trkpt>
  <trkpt lat="34.092407" lon="-4.104059">
   <ele>1409.00</ele>
   <time>2014-03-30T10:38:40Z</time>
  </trkpt>
  <trkpt lat="34.092294" lon="-4.104169">
   <ele>1410.00</ele>
   <time>2014-03-30T10:38:47Z</time>
  </trkpt>
  <trkpt lat="34.092291" lon="-4.104163">
   <ele>1411.00</ele>
   <time>2014-03-30T10:38:56Z</time>
  </trkpt>
 </trkseg>
 <trkseg>
  <trkpt lat="34.092301" lon="-4.104130">
   <ele>1412.00</ele>
   <time>2014-03-30T10:44:01Z</time>
  </trkpt>
  <trkpt lat="34.092300" lon="-4.104128">
   <ele>1412.00</ele>
   <time>2014-03-30T10:44:17Z</time>
  </trkpt>
  <trkpt lat="34.092298" lon="-4.104123">
   <ele>1411.00</ele>
   <time>2014-03-30T10:44:32Z</time>
  </trkpt>
  <trkpt lat="34.092283" lon="-4.104120">
   <ele>1410.00</ele>
   <time>2014-03-30T10:44:48Z</time>
  </trkpt>
  <trkpt lat="34.092094" lon="-4.104149">
   <ele>1409.00</ele>
   <time>2014-03-30T10:44:54Z</time>
  </trkpt>
  <trkpt lat="34.091893" lon="-4.104236">
   <ele>1407.00</ele>
   <time>2014-03-30T10:44:59Z</time>
  </trkpt>
  <trkpt lat="34.091664" lon="-4.104321">
   <ele>1406.00</ele>
   <time>2014-03-30T10:45:05Z</time>
  </trkpt>
  <trkpt lat="34.091499" lon="-4.104449">
   <ele>1405.00</ele>
   <time>2014-03-30T10:45:08Z</time>
  </trkpt>
  <trkpt lat="34.091224" lon="-4.104686">
   <ele>1404.00</ele>
   <time>2014-03-30T10:45:12Z</time>
  </trkpt>
  <trkpt lat="34.090709" lon="-4.105091">
   <ele>1402.00</ele>
   <time>2014-03-30T10:45:18Z</time>
  </trkpt>
  <trkpt lat="34.090511" lon="-4.105199">
   <ele>1400.00</ele>
   <time>2014-03-30T10:45:20Z</time>
  </trkpt>
  <trkpt lat="34.090295" lon="-4.105259">
   <ele>1399.00</ele>
   <time>2014-03-30T10:45:22Z</time>
  </trkpt>
  <trkpt lat="34.089956" lon="-4.105321">
   <ele>1396.00</ele>
   <time>2014-03-30T10:45:25Z</time>
  </trkpt>
  <trkpt lat="34.089740" lon="-4.105416">
   <ele>1395.00</ele>
   <time>2014-03-30T10:45:27Z</time>
  </trkpt>
  <trkpt lat="34.089555" lon="-4.105580">
   <ele>1393.00</ele>
   <time>2014-03-30T10:45:29Z</time>
  </trkpt>
  <trkpt lat="34.089395" lon="-4.105783">
   <ele>1391.00</ele>
   <time>2014-03-30T10:45:31Z</time>
  </trkpt>
  <trkpt lat="34.089165" lon="-4.106092">
   <ele>1389.00</ele>
   <time>2014-03-30T10:45:34Z</time>
  </trkpt>
  <trkpt lat="34.089042" lon="-4.106323">
   <ele>1388.00</ele>
   <time>2014-03-30T10:45:36Z</time>
  </trkpt>
  <trkpt lat="34.088863" lon="-4.106675">
   <ele>1387.00</ele>
   <time>2014-03-30T10:45:39Z</time>
  </trkpt>
  <trkpt lat="34.088714" lon="-4.106884">
   <ele>1386.00</ele>
   <time>2014-03-30T10:45:41Z</time>
  </trkpt>
  <trkpt lat="34.088545" lon="-4.107074">
   <ele>1386.00</ele>
   <time>2014-03-30T10:45:43Z</time>
  </trkpt>
  <trkpt lat="34.088364" lon="-4.107260">
   <ele>1385.00</ele>
   <time>2014-03-30T10:45:45Z</time>
  </trkpt>
  <trkpt lat="34.088174" lon="-4.107436">
   <ele>1384.00</ele>
   <time>2014-03-30T10:45:47Z</time>
  </trkpt>
  <trkpt lat="34.087975" lon="-4.107593">
   <ele>1383.00</ele>
   <time>2014-03-30T10:45:49Z</time>
  </trkpt>
  <trkpt lat="34.087190" lon="-4.108213">
   <ele>1381.00</ele>
   <time>2014-03-30T10:45:57Z</time>
  </trkpt>
  <trkpt lat="34.087007" lon="-4.108393">
   <ele>1381.00</ele>
   <time>2014-03-30T10:45:59Z</time>
  </trkpt>
  <trkpt lat="34.085824" lon="-4.109737">
   <ele>1387.00</ele>
   <time>2014-03-30T10:46:12Z</time>
  </trkpt>
  <trkpt lat="34.085300" lon="-4.110357">
   <ele>1390.00</ele>
   <time>2014-03-30T10:46:18Z</time>
  </trkpt>
  <trkpt lat="34.085149" lon="-4.110594">
   <ele>1391.00</ele>
   <time>2014-03-30T10:46:20Z</time>
  </trkpt>
  <trkpt lat="34.085020" lon="-4.110856">
   <ele>1393.00</ele>
   <time>2014-03-30T10:46:22Z</time>
  </trkpt>
  <trkpt lat="34.084915" lon="-4.111144">
   <ele>1394.00</ele>
   <time>2014-03-30T10:46:24Z</time>
  </trkpt>
  <trkpt lat="34.084828" lon="-4.111445">
   <ele>1395.00</ele>
   <time>2014-03-30T10:46:26Z</time>
  </trkpt>
  <trkpt lat="34.084618" lon="-4.112188">
   <ele>1399.00</ele>
   <time>2014-03-30T10:46:31Z</time>
  </trkpt>
  <trkpt lat="34.084517" lon="-4.112483">
   <ele>1401.00</ele>
   <time>2014-03-30T10:46:33Z</time>
  </trkpt>
  <trkpt lat="34.084387" lon="-4.112766">
   <ele>1403.00</ele>
   <time>2014-03-30T10:46:35Z</time>
  </trkpt>
  <trkpt lat="34.084169" lon="-4.113181">
   <ele>1406.00</ele>
   <time>2014-03-30T10:46:38Z</time>
  </trkpt>
  <trkpt lat="34.082935" lon="-4.115441">
   <ele>1418.00</ele>
   <time>2014-03-30T10:46:54Z</time>
  </trkpt>
  <trkpt lat="34.082480" lon="-4.116261">
   <ele>1423.00</ele>
   <time>2014-03-30T10:47:00Z</time>
  </trkpt>
  <trkpt lat="34.082312" lon="-4.116514">
   <ele>1425.00</ele>
   <time>2014-03-30T10:47:02Z</time>
  </trkpt>
  <trkpt lat="34.082119" lon="-4.116734">
   <ele>1427.00</ele>
   <time>2014-03-30T10:47:04Z</time>
  </trkpt>
  <trkpt lat="34.081738" lon="-4.117128">
   <ele>1431.00</ele>
   <time>2014-03-30T10:47:08Z</time>
  </trkpt>
  <trkpt lat="34.081582" lon="-4.117352">
   <ele>1434.00</ele>
   <time>2014-03-30T10:47:10Z</time>
  </trkpt>
  <trkpt lat="34.081457" lon="-4.117602">
   <ele>1436.00</ele>
   <time>2014-03-30T10:47:12Z</time>
  </trkpt>
  <trkpt lat="34.081357" lon="-4.117869">
   <ele>1438.00</ele>
   <time>2014-03-30T10:47:14Z</time>
  </trkpt>
  <trkpt lat="34.081270" lon="-4.118145">
   <ele>1441.00</ele>
   <time>2014-03-30T10:47:16Z</time>
  </trkpt>
  <trkpt lat="34.081166" lon="-4.118416">
   <ele>1443.00</ele>
   <time>2014-03-30T10:47:18Z</time>
  </trkpt>
  <trkpt lat="34.081012" lon="-4.118659">
   <ele>1445.00</ele>
   <time>2014-03-30T10:47:20Z</time>
  </trkpt>
  <trkpt lat="34.080822" lon="-4.118866">
   <ele>1447.00</ele>
   <time>2014-03-30T10:47:22Z</time>
  </trkpt>
  <trkpt lat="34.080610" lon="-4.119047">
   <ele>1449.00</ele>
   <time>2014-03-30T10:47:24Z</time>
  </trkpt>
  <trkpt lat="34.080397" lon="-4.119231">
   <ele>1451.00</ele>
   <time>2014-03-30T10:47:26Z</time>
  </trkpt>
  <trkpt lat="34.080199" lon="-4.119433">
   <ele>1453.00</ele>
   <time>2014-03-30T10:47:28Z</time>
  </trkpt>
  <trkpt lat="34.080019" lon="-4.119659">
   <ele>1455.00</ele>
   <time>2014-03-30T10:47:30Z</time>
  </trkpt>
  <trkpt lat="34.079855" lon="-4.119911">
   <ele>1457.00</ele>
   <time>2014-03-30T10:47:32Z</time>
  </trkpt>
  <trkpt lat="34.079383" lon="-4.120699">
   <ele>1463.00</ele>
   <time>2014-03-30T10:47:38Z</time>
  </trkpt>
  <trkpt lat="34.079192" lon="-4.120913">
   <ele>1464.00</ele>
   <time>2014-03-30T10:47:40Z</time>
  </trkpt>
  <trkpt lat="34.079002" lon="-4.121089">
   <ele>1465.00</ele>
   <time>2014-03-30T10:47:42Z</time>
  </trkpt>
  <trkpt lat="34.078818" lon="-4.121210">
   <ele>1466.00</ele>
   <time>2014-03-30T10:47:44Z</time>
  </trkpt>
  <trkpt lat="34.078630" lon="-4.121235">
   <ele>1467.00</ele>
   <time>2014-03-30T10:47:46Z</time>
  </trkpt>
  <trkpt lat="34.078436" lon="-4.121125">
   <ele>1469.00</ele>
   <time>2014-03-30T10:47:48Z</time>
  </trkpt>
  <trkpt lat="34.078296" lon="-4.120888">
   <ele>1470.00</ele>
   <time>2014-03-30T10:47:50Z</time>
  </trkpt>
  <trkpt lat="34.078239" lon="-4.120609">
   <ele>1471.00</ele>
   <time>2014-03-30T10:47:52Z</time>
  </trkpt>
  <trkpt lat="34.078256" lon="-4.120321">
   <ele>1473.00</ele>
   <time>2014-03-30T10:47:54Z</time>
  </trkpt>
  <trkpt lat="34.078356" lon="-4.118987">
   <ele>1478.00</ele>
   <time>2014-03-30T10:48:03Z</time>
  </trkpt>
  <trkpt lat="34.078348" lon="-4.118694">
   <ele>1479.00</ele>
   <time>2014-03-30T10:48:05Z</time>
  </trkpt>
  <trkpt lat="34.078308" lon="-4.118396">
   <ele>1480.00</ele>
   <time>2014-03-30T10:48:07Z</time>
  </trkpt>
  <trkpt lat="34.078240" lon="-4.118100">
   <ele>1482.00</ele>
   <time>2014-03-30T10:48:09Z</time>
  </trkpt>
  <trkpt lat="34.078159" lon="-4.117809">
   <ele>1483.00</ele>
   <time>2014-03-30T10:48:11Z</time>
  </trkpt>
  <trkpt lat="34.077932" lon="-4.117017">
   <ele>1486.00</ele>
   <time>2014-03-30T10:48:17Z</time>
  </trkpt>
  <trkpt lat="34.077833" lon="-4.116800">
   <ele>1487.00</ele>
   <time>2014-03-30T10:48:19Z</time>
  </trkpt>
  <trkpt lat="34.077687" lon="-4.116615">
   <ele>1488.00</ele>
   <time>2014-03-30T10:48:21Z</time>
  </trkpt>
  <trkpt lat="34.077503" lon="-4.116464">
   <ele>1489.00</ele>
   <time>2014-03-30T10:48:23Z</time>
  </trkpt>
  <trkpt lat="34.077281" lon="-4.116374">
   <ele>1488.00</ele>
   <time>2014-03-30T10:48:25Z</time>
  </trkpt>
  <trkpt lat="34.077045" lon="-4.116362">
   <ele>1489.00</ele>
   <time>2014-03-30T10:48:27Z</time>
  </trkpt>
  <trkpt lat="34.076800" lon="-4.116416">
   <ele>1490.00</ele>
   <time>2014-03-30T10:48:29Z</time>
  </trkpt>
  <trkpt lat="34.076561" lon="-4.116534">
   <ele>1491.00</ele>
   <time>2014-03-30T10:48:31Z</time>
  </trkpt>
  <trkpt lat="34.075851" lon="-4.116910">
   <ele>1493.00</ele>
   <time>2014-03-30T10:48:37Z</time>
  </trkpt>
  <trkpt lat="34.075646" lon="-4.117080">
   <ele>1493.00</ele>
   <time>2014-03-30T10:48:39Z</time>
  </trkpt>
  <trkpt lat="34.075487" lon="-4.117304">
   <ele>1494.00</ele>
   <time>2014-03-30T10:48:41Z</time>
  </trkpt>
  <trkpt lat="34.075393" lon="-4.117575">
   <ele>1494.00</ele>
   <time>2014-03-30T10:48:43Z</time>
  </trkpt>
  <trkpt lat="34.075357" lon="-4.117881">
   <ele>1494.00</ele>
   <time>2014-03-30T10:48:45Z</time>
  </trkpt>
  <trkpt lat="34.075325" lon="-4.118200">
   <ele>1495.00</ele>
   <time>2014-03-30T10:48:47Z</time>
  </trkpt>
  <trkpt lat="34.075258" lon="-4.118513">
   <ele>1496.00</ele>
   <time>2014-03-30T10:48:49Z</time>
  </trkpt>
  <trkpt lat="34.075071" lon="-4.119254">
   <ele>1498.00</ele>
   <time>2014-03-30T10:48:54Z</time>
  </trkpt>
  <trkpt lat="34.075058" lon="-4.119538">
   <ele>1499.00</ele>
   <time>2014-03-30T10:48:56Z</time>
  </trkpt>
  <trkpt lat="34.075102" lon="-4.119819">
   <ele>1499.00</ele>
   <time>2014-03-30T10:48:58Z</time>
  </trkpt>
  <trkpt lat="34.075178" lon="-4.120091">
   <ele>1500.00</ele>
   <time>2014-03-30T10:49:00Z</time>
  </trkpt>
  <trkpt lat="34.075254" lon="-4.120359">
   <ele>1500.00</ele>
   <time>2014-03-30T10:49:02Z</time>
  </trkpt>
  <trkpt lat="34.075296" lon="-4.120639">
   <ele>1501.00</ele>
   <time>2014-03-30T10:49:04Z</time>
  </trkpt>
  <trkpt lat="34.075280" lon="-4.120918">
   <ele>1501.00</ele>
   <time>2014-03-30T10:49:06Z</time>
  </trkpt>
  <trkpt lat="34.075210" lon="-4.121458">
   <ele>1504.00</ele>
   <time>2014-03-30T10:49:10Z</time>
  </trkpt>
  <trkpt lat="34.075221" lon="-4.121737">
   <ele>1505.00</ele>
   <time>2014-03-30T10:49:12Z</time>
  </trkpt>
  <trkpt lat="34.075266" lon="-4.122018">
   <ele>1506.00</ele>
   <time>2014-03-30T10:49:14Z</time>
  </trkpt>
  <trkpt lat="34.075315" lon="-4.122298">
   <ele>1506.00</ele>
   <time>2014-03-30T10:49:16Z</time>
  </trkpt>
  <trkpt lat="34.075328" lon="-4.122581">
   <ele>1506.00</ele>
   <time>2014-03-30T10:49:18Z</time>
  </trkpt>
  <trkpt lat="34.075286" lon="-4.122865">
   <ele>1507.00</ele>
   <time>2014-03-30T10:49:20Z</time>
  </trkpt>
  <trkpt lat="34.075181" lon="-4.123123">
   <ele>1508.00</ele>
   <time>2014-03-30T10:49:22Z</time>
  </trkpt>
  <trkpt lat="34.075016" lon="-4.123330">
   <ele>1508.00</ele>
   <time>2014-03-30T10:49:24Z</time>
  </trkpt>
  <trkpt lat="34.074818" lon="-4.123484">
   <ele>1509.00</ele>
   <time>2014-03-30T10:49:26Z</time>
  </trkpt>
  <trkpt lat="34.074600" lon="-4.123606">
   <ele>1509.00</ele>
   <time>2014-03-30T10:49:28Z</time>
  </trkpt>
  <trkpt lat="34.074370" lon="-4.123710">
   <ele>1510.00</ele>
   <time>2014-03-30T10:49:30Z</time>
  </trkpt>
  <trkpt lat="34.072582" lon="-4.124523">
   <ele>1515.00</ele>
   <time>2014-03-30T10:49:45Z</time>
  </trkpt>
  <trkpt lat="34.071210" lon="-4.125162">
   <ele>1522.00</ele>
   <time>2014-03-30T10:49:56Z</time>
  </trkpt>
  <trkpt lat="34.070970" lon="-4.125241">
   <ele>1523.00</ele>
   <time>2014-03-30T10:49:58Z</time>
  </trkpt>
  <trkpt lat="34.070731" lon="-4.125257">
   <ele>1525.00</ele>
   <time>2014-03-30T10:50:00Z</time>
  </trkpt>
  <trkpt lat="34.070499" lon="-4.125195">
   <ele>1526.00</ele>
   <time>2014-03-30T10:50:02Z</time>
  </trkpt>
  <trkpt lat="34.070281" lon="-4.125062">
   <ele>1527.00</ele>
   <time>2014-03-30T10:50:04Z</time>
  </trkpt>
  <trkpt lat="34.070086" lon="-4.124875">
   <ele>1529.00</ele>
   <time>2014-03-30T10:50:06Z</time>
  </trkpt>
  <trkpt lat="34.069908" lon="-4.124673">
   <ele>1530.00</ele>
   <time>2014-03-30T10:50:08Z</time>
  </trkpt>
  <trkpt lat="34.069735" lon="-4.124479">
   <ele>1532.00</ele>
   <time>2014-03-30T10:50:10Z</time>
  </trkpt>
  <trkpt lat="34.069551" lon="-4.124314">
   <ele>1534.00</ele>
   <time>2014-03-30T10:50:12Z</time>
  </trkpt>
  <trkpt lat="34.069347" lon="-4.124204">
   <ele>1537.00</ele>
   <time>2014-03-30T10:50:14Z</time>
  </trkpt>
  <trkpt lat="34.069038" lon="-4.124080">
   <ele>1539.00</ele>
   <time>2014-03-30T10:50:17Z</time>
  </trkpt>
  <trkpt lat="34.068852" lon="-4.123951">
   <ele>1541.00</ele>
   <time>2014-03-30T10:50:19Z</time>
  </trkpt>
  <trkpt lat="34.068704" lon="-4.123772">
   <ele>1542.00</ele>
   <time>2014-03-30T10:50:21Z</time>
  </trkpt>
  <trkpt lat="34.068597" lon="-4.123560">
   <ele>1544.00</ele>
   <time>2014-03-30T10:50:23Z</time>
  </trkpt>
  <trkpt lat="34.068528" lon="-4.123327">
   <ele>1544.00</ele>
   <time>2014-03-30T10:50:25Z</time>
  </trkpt>
  <trkpt lat="34.068502" lon="-4.123083">
   <ele>1544.00</ele>
   <time>2014-03-30T10:50:27Z</time>
  </trkpt>
  <trkpt lat="34.068526" lon="-4.122847">
   <ele>1545.00</ele>
   <time>2014-03-30T10:50:29Z</time>
  </trkpt>
  <trkpt lat="34.068608" lon="-4.122440">
   <ele>1546.00</ele>
   <time>2014-03-30T10:50:33Z</time>
  </trkpt>
  <trkpt lat="34.068621" lon="-4.122195">
   <ele>1546.00</ele>
   <time>2014-03-30T10:50:42Z</time>
  </trkpt>
  <trkpt lat="34.068557" lon="-4.121946">
   <ele>1545.00</ele>
   <time>2014-03-30T10:50:48Z</time>
  </trkpt>
  <trkpt lat="34.068368" lon="-4.121791">
   <ele>1544.00</ele>
   <time>2014-03-30T10:50:52Z</time>
  </trkpt>
  <trkpt lat="34.068173" lon="-4.121827">
   <ele>1545.00</ele>
   <time>2014-03-30T10:50:55Z</time>
  </trkpt>
  <trkpt lat="34.068012" lon="-4.122007">
   <ele>1545.00</ele>
   <time>2014-03-30T10:50:58Z</time>
  </trkpt>
  <trkpt lat="34.067923" lon="-4.122283">
   <ele>1546.00</ele>
   <time>2014-03-30T10:51:01Z</time>
  </trkpt>
  <trkpt lat="34.067456" lon="-4.124000">
   <ele>1552.00</ele>
   <time>2014-03-30T10:51:17Z</time>
  </trkpt>
  <trkpt lat="34.067421" lon="-4.124232">
   <ele>1553.00</ele>
   <time>2014-03-30T10:51:19Z</time>
  </trkpt>
  <trkpt lat="34.067414" lon="-4.124472">
   <ele>1554.00</ele>
   <time>2014-03-30T10:51:21Z</time>
  </trkpt>
  <trkpt lat="34.067408" lon="-4.124834">
   <ele>1555.00</ele>
   <time>2014-03-30T10:51:24Z</time>
  </trkpt>
  <trkpt lat="34.067364" lon="-4.125062">
   <ele>1556.00</ele>
   <time>2014-03-30T10:51:26Z</time>
  </trkpt>
  <trkpt lat="34.067266" lon="-4.125270">
   <ele>1557.00</ele>
   <time>2014-03-30T10:51:28Z</time>
  </trkpt>
  <trkpt lat="34.067132" lon="-4.125443">
   <ele>1560.00</ele>
   <time>2014-03-30T10:51:30Z</time>
  </trkpt>
  <trkpt lat="34.066960" lon="-4.125564">
   <ele>1563.00</ele>
   <time>2014-03-30T10:51:32Z</time>
  </trkpt>
  <trkpt lat="34.066767" lon="-4.125651">
   <ele>1564.00</ele>
   <time>2014-03-30T10:51:34Z</time>
  </trkpt>
  <trkpt lat="34.066401" lon="-4.125820">
   <ele>1568.00</ele>
   <time>2014-03-30T10:51:38Z</time>
  </trkpt>
  <trkpt lat="34.066196" lon="-4.126017">
   <ele>1569.00</ele>
   <time>2014-03-30T10:51:41Z</time>
  </trkpt>
  <trkpt lat="34.066087" lon="-4.126303">
   <ele>1571.00</ele>
   <time>2014-03-30T10:51:44Z</time>
  </trkpt>
  <trkpt lat="34.065981" lon="-4.126593">
   <ele>1573.00</ele>
   <time>2014-03-30T10:51:47Z</time>
  </trkpt>
  <trkpt lat="34.065820" lon="-4.126849">
   <ele>1575.00</ele>
   <time>2014-03-30T10:51:50Z</time>
  </trkpt>
  <trkpt lat="34.065674" lon="-4.126990">
   <ele>1576.00</ele>
   <time>2014-03-30T10:51:52Z</time>
  </trkpt>
  <trkpt lat="34.065517" lon="-4.127117">
   <ele>1579.00</ele>
   <time>2014-03-30T10:51:54Z</time>
  </trkpt>
  <trkpt lat="34.065367" lon="-4.127245">
   <ele>1581.00</ele>
   <time>2014-03-30T10:51:56Z</time>
  </trkpt>
  <trkpt lat="34.065257" lon="-4.127417">
   <ele>1582.00</ele>
   <time>2014-03-30T10:51:58Z</time>
  </trkpt>
  <trkpt lat="34.065196" lon="-4.127622">
   <ele>1582.00</ele>
   <time>2014-03-30T10:52:00Z</time>
  </trkpt>
  <trkpt lat="34.065174" lon="-4.127839">
   <ele>1582.00</ele>
   <time>2014-03-30T10:52:02Z</time>
  </trkpt>
  <trkpt lat="34.065186" lon="-4.128067">
   <ele>1583.00</ele>
   <time>2014-03-30T10:52:04Z</time>
  </trkpt>
  <trkpt lat="34.065248" lon="-4.128876">
   <ele>1584.00</ele>
   <time>2014-03-30T10:52:11Z</time>
  </trkpt>
  <trkpt lat="34.065238" lon="-4.129096">
   <ele>1583.00</ele>
   <time>2014-03-30T10:52:13Z</time>
  </trkpt>
  <trkpt lat="34.065183" lon="-4.129317">
   <ele>1583.00</ele>
   <time>2014-03-30T10:52:15Z</time>
  </trkpt>
  <trkpt lat="34.065091" lon="-4.129538">
   <ele>1582.00</ele>
   <time>2014-03-30T10:52:17Z</time>
  </trkpt>
  <trkpt lat="34.064772" lon="-4.130240">
   <ele>1582.00</ele>
   <time>2014-03-30T10:52:23Z</time>
  </trkpt>
  <trkpt lat="34.064440" lon="-4.130893">
   <ele>1581.00</ele>
   <time>2014-03-30T10:52:28Z</time>
  </trkpt>
  <trkpt lat="34.064282" lon="-4.131152">
   <ele>1581.00</ele>
   <time>2014-03-30T10:52:30Z</time>
  </trkpt>
  <trkpt lat="34.064111" lon="-4.131399">
   <ele>1580.00</ele>
   <time>2014-03-30T10:52:32Z</time>
  </trkpt>
  <trkpt lat="34.063599" lon="-4.132123">
   <ele>1577.00</ele>
   <time>2014-03-30T10:52:38Z</time>
  </trkpt>
  <trkpt lat="34.063358" lon="-4.132499">
   <ele>1576.00</ele>
   <time>2014-03-30T10:52:41Z</time>
  </trkpt>
  <trkpt lat="34.063223" lon="-4.132773">
   <ele>1575.00</ele>
   <time>2014-03-30T10:52:43Z</time>
  </trkpt>
  <trkpt lat="34.063100" lon="-4.133067">
   <ele>1574.00</ele>
   <time>2014-03-30T10:52:45Z</time>
  </trkpt>
  <trkpt lat="34.062110" lon="-4.135722">
   <ele>1568.00</ele>
   <time>2014-03-30T10:53:01Z</time>
  </trkpt>
  <trkpt lat="34.061811" lon="-4.136534">
   <ele>1566.00</ele>
   <time>2014-03-30T10:53:06Z</time>
  </trkpt>
  <trkpt lat="34.061609" lon="-4.137137">
   <ele>1565.00</ele>
   <time>2014-03-30T10:53:10Z</time>
  </trkpt>
  <trkpt lat="34.061581" lon="-4.137405">
   <ele>1563.00</ele>
   <time>2014-03-30T10:53:12Z</time>
  </trkpt>
  <trkpt lat="34.061628" lon="-4.137666">
   <ele>1562.00</ele>
   <time>2014-03-30T10:53:14Z</time>
  </trkpt>
  <trkpt lat="34.061662" lon="-4.137940">
   <ele>1560.00</ele>
   <time>2014-03-30T10:53:16Z</time>
  </trkpt>
  <trkpt lat="34.061638" lon="-4.138215">
   <ele>1559.00</ele>
   <time>2014-03-30T10:53:18Z</time>
  </trkpt>
  <trkpt lat="34.061584" lon="-4.138470">
   <ele>1558.00</ele>
   <time>2014-03-30T10:53:20Z</time>
  </trkpt>
  <trkpt lat="34.061513" lon="-4.138769">
   <ele>1557.00</ele>
   <time>2014-03-30T10:53:23Z</time>
  </trkpt>
  <trkpt lat="34.061624" lon="-4.138963">
   <ele>1557.00</ele>
   <time>2014-03-30T10:53:26Z</time>
  </trkpt>
  <trkpt lat="34.061862" lon="-4.138932">
   <ele>1553.00</ele>
   <time>2014-03-30T10:53:29Z</time>
  </trkpt>
  <trkpt lat="34.062045" lon="-4.138876">
   <ele>1551.00</ele>
   <time>2014-03-30T10:53:31Z</time>
  </trkpt>
  <trkpt lat="34.062227" lon="-4.138872">
   <ele>1549.00</ele>
   <time>2014-03-30T10:53:33Z</time>
  </trkpt>
  <trkpt lat="34.062379" lon="-4.138993">
   <ele>1548.00</ele>
   <time>2014-03-30T10:53:35Z</time>
  </trkpt>
  <trkpt lat="34.062487" lon="-4.139192">
   <ele>1546.00</ele>
   <time>2014-03-30T10:53:37Z</time>
  </trkpt>
  <trkpt lat="34.062570" lon="-4.139423">
   <ele>1544.00</ele>
   <time>2014-03-30T10:53:39Z</time>
  </trkpt>
  <trkpt lat="34.062639" lon="-4.139662">
   <ele>1542.00</ele>
   <time>2014-03-30T10:53:41Z</time>
  </trkpt>
  <trkpt lat="34.062624" lon="-4.139969">
   <ele>1539.00</ele>
   <time>2014-03-30T10:53:44Z</time>
  </trkpt>
  <trkpt lat="34.062521" lon="-4.140152">
   <ele>1538.00</ele>
   <time>2014-03-30T10:53:46Z</time>
  </trkpt>
  <trkpt lat="34.062399" lon="-4.140359">
   <ele>1536.00</ele>
   <time>2014-03-30T10:53:48Z</time>
  </trkpt>
  <trkpt lat="34.062282" lon="-4.140587">
   <ele>1534.00</ele>
   <time>2014-03-30T10:53:50Z</time>
  </trkpt>
  <trkpt lat="34.062106" lon="-4.140935">
   <ele>1531.00</ele>
   <time>2014-03-30T10:53:53Z</time>
  </trkpt>
  <trkpt lat="34.061980" lon="-4.141143">
   <ele>1529.00</ele>
   <time>2014-03-30T10:53:55Z</time>
  </trkpt>
  <trkpt lat="34.061871" lon="-4.141318">
   <ele>1527.00</ele>
   <time>2014-03-30T10:53:57Z</time>
  </trkpt>
  <trkpt lat="34.061862" lon="-4.141600">
   <ele>1524.00</ele>
   <time>2014-03-30T10:54:00Z</time>
  </trkpt>
  <trkpt lat="34.061979" lon="-4.141769">
   <ele>1522.00</ele>
   <time>2014-03-30T10:54:02Z</time>
  </trkpt>
  <trkpt lat="34.062115" lon="-4.141913">
   <ele>1520.00</ele>
   <time>2014-03-30T10:54:04Z</time>
  </trkpt>
  <trkpt lat="34.062144" lon="-4.142179">
   <ele>1518.00</ele>
   <time>2014-03-30T10:54:07Z</time>
  </trkpt>
  <trkpt lat="34.062049" lon="-4.142374">
   <ele>1516.00</ele>
   <time>2014-03-30T10:54:09Z</time>
  </trkpt>
  <trkpt lat="34.061969" lon="-4.142607">
   <ele>1514.00</ele>
   <time>2014-03-30T10:54:11Z</time>
  </trkpt>
  <trkpt lat="34.061872" lon="-4.142981">
   <ele>1512.00</ele>
   <time>2014-03-30T10:54:14Z</time>
  </trkpt>
  <trkpt lat="34.061738" lon="-4.143198">
   <ele>1511.00</ele>
   <time>2014-03-30T10:54:16Z</time>
  </trkpt>
  <trkpt lat="34.061568" lon="-4.143399">
   <ele>1509.00</ele>
   <time>2014-03-30T10:54:18Z</time>
  </trkpt>
  <trkpt lat="34.061196" lon="-4.143794">
   <ele>1505.00</ele>
   <time>2014-03-30T10:54:22Z</time>
  </trkpt>
  <trkpt lat="34.061007" lon="-4.143985">
   <ele>1504.00</ele>
   <time>2014-03-30T10:54:24Z</time>
  </trkpt>
  <trkpt lat="34.060862" lon="-4.144197">
   <ele>1502.00</ele>
   <time>2014-03-30T10:54:26Z</time>
  </trkpt>
  <trkpt lat="34.060781" lon="-4.144450">
   <ele>1500.00</ele>
   <time>2014-03-30T10:54:28Z</time>
  </trkpt>
  <trkpt lat="34.060696" lon="-4.144708">
   <ele>1498.00</ele>
   <time>2014-03-30T10:54:30Z</time>
  </trkpt>
  <trkpt lat="34.060575" lon="-4.144936">
   <ele>1496.00</ele>
   <time>2014-03-30T10:54:32Z</time>
  </trkpt>
  <trkpt lat="34.060410" lon="-4.145123">
   <ele>1495.00</ele>
   <time>2014-03-30T10:54:34Z</time>
  </trkpt>
  <trkpt lat="34.060215" lon="-4.145281">
   <ele>1493.00</ele>
   <time>2014-03-30T10:54:36Z</time>
  </trkpt>
  <trkpt lat="34.059805" lon="-4.145594">
   <ele>1490.00</ele>
   <time>2014-03-30T10:54:40Z</time>
  </trkpt>
  <trkpt lat="34.059569" lon="-4.145682">
   <ele>1489.00</ele>
   <time>2014-03-30T10:54:42Z</time>
  </trkpt>
  <trkpt lat="34.058748" lon="-4.145832">
   <ele>1485.00</ele>
   <time>2014-03-30T10:54:49Z</time>
  </trkpt>
  <trkpt lat="34.058570" lon="-4.145902">
   <ele>1483.00</ele>
   <time>2014-03-30T10:54:51Z</time>
  </trkpt>
  <trkpt lat="34.058420" lon="-4.146123">
   <ele>1481.00</ele>
   <time>2014-03-30T10:54:54Z</time>
  </trkpt>
  <trkpt lat="34.058437" lon="-4.146456">
   <ele>1480.00</ele>
   <time>2014-03-30T10:54:57Z</time>
  </trkpt>
  <trkpt lat="34.058445" lon="-4.146706">
   <ele>1479.00</ele>
   <time>2014-03-30T10:54:59Z</time>
  </trkpt>
  <trkpt lat="34.058399" lon="-4.146959">
   <ele>1478.00</ele>
   <time>2014-03-30T10:55:01Z</time>
  </trkpt>
  <trkpt lat="34.058302" lon="-4.147200">
   <ele>1477.00</ele>
   <time>2014-03-30T10:55:03Z</time>
  </trkpt>
  <trkpt lat="34.058162" lon="-4.147415">
   <ele>1475.00</ele>
   <time>2014-03-30T10:55:05Z</time>
  </trkpt>
  <trkpt lat="34.057998" lon="-4.147610">
   <ele>1474.00</ele>
   <time>2014-03-30T10:55:07Z</time>
  </trkpt>
  <trkpt lat="34.057837" lon="-4.147791">
   <ele>1472.00</ele>
   <time>2014-03-30T10:55:09Z</time>
  </trkpt>
  <trkpt lat="34.057737" lon="-4.148001">
   <ele>1471.00</ele>
   <time>2014-03-30T10:55:11Z</time>
  </trkpt>
  <trkpt lat="34.057729" lon="-4.148241">
   <ele>1469.00</ele>
   <time>2014-03-30T10:55:13Z</time>
  </trkpt>
  <trkpt lat="34.057808" lon="-4.148472">
   <ele>1467.00</ele>
   <time>2014-03-30T10:55:15Z</time>
  </trkpt>
  <trkpt lat="34.057967" lon="-4.148651">
   <ele>1466.00</ele>
   <time>2014-03-30T10:55:17Z</time>
  </trkpt>
  <trkpt lat="34.058228" lon="-4.148868">
   <ele>1463.00</ele>
   <time>2014-03-30T10:55:20Z</time>
  </trkpt>
  <trkpt lat="34.058369" lon="-4.149129">
   <ele>1460.00</ele>
   <time>2014-03-30T10:55:23Z</time>
  </trkpt>
  <trkpt lat="34.058310" lon="-4.149422">
   <ele>1458.00</ele>
   <time>2014-03-30T10:55:26Z</time>
  </trkpt>
  <trkpt lat="34.058167" lon="-4.149570">
   <ele>1456.00</ele>
   <time>2014-03-30T10:55:28Z</time>
  </trkpt>
  <trkpt lat="34.057680" lon="-4.149956">
   <ele>1455.00</ele>
   <time>2014-03-30T10:55:40Z</time>
  </trkpt>
  <trkpt lat="34.057503" lon="-4.150101">
   <ele>1456.00</ele>
   <time>2014-03-30T10:55:46Z</time>
  </trkpt>
  <trkpt lat="34.057321" lon="-4.150245">
   <ele>1455.00</ele>
   <time>2014-03-30T10:55:50Z</time>
  </trkpt>
  <trkpt lat="34.056795" lon="-4.150656">
   <ele>1453.00</ele>
   <time>2014-03-30T10:55:57Z</time>
  </trkpt>
  <trkpt lat="34.056635" lon="-4.150807">
   <ele>1453.00</ele>
   <time>2014-03-30T10:55:59Z</time>
  </trkpt>
  <trkpt lat="34.056490" lon="-4.150981">
   <ele>1453.00</ele>
   <time>2014-03-30T10:56:01Z</time>
  </trkpt>
  <trkpt lat="34.056371" lon="-4.151176">
   <ele>1454.00</ele>
   <time>2014-03-30T10:56:03Z</time>
  </trkpt>
  <trkpt lat="34.056308" lon="-4.151396">
   <ele>1456.00</ele>
   <time>2014-03-30T10:56:05Z</time>
  </trkpt>
  <trkpt lat="34.056279" lon="-4.151614">
   <ele>1458.00</ele>
   <time>2014-03-30T10:56:07Z</time>
  </trkpt>
  <trkpt lat="34.056353" lon="-4.151845">
   <ele>1459.00</ele>
   <time>2014-03-30T10:56:10Z</time>
  </trkpt>
  <trkpt lat="34.056564" lon="-4.151944">
   <ele>1460.00</ele>
   <time>2014-03-30T10:56:13Z</time>
  </trkpt>
  <trkpt lat="34.056743" lon="-4.152129">
   <ele>1461.00</ele>
   <time>2014-03-30T10:56:16Z</time>
  </trkpt>
  <trkpt lat="34.056842" lon="-4.152381">
   <ele>1463.00</ele>
   <time>2014-03-30T10:56:19Z</time>
  </trkpt>
  <trkpt lat="34.056966" lon="-4.152743">
   <ele>1465.00</ele>
   <time>2014-03-30T10:56:23Z</time>
  </trkpt>
  <trkpt lat="34.056977" lon="-4.152830">
   <ele>1468.00</ele>
   <time>2014-03-30T10:56:33Z</time>
  </trkpt>
  <trkpt lat="34.056910" lon="-4.152631">
   <ele>1468.00</ele>
   <time>2014-03-30T10:56:46Z</time>
  </trkpt>
  <trkpt lat="34.056839" lon="-4.152386">
   <ele>1467.00</ele>
   <time>2014-03-30T10:56:51Z</time>
  </trkpt>
  <trkpt lat="34.056761" lon="-4.152176">
   <ele>1466.00</ele>
   <time>2014-03-30T10:56:55Z</time>
  </trkpt>
  <trkpt lat="34.056627" lon="-4.151977">
   <ele>1465.00</ele>
   <time>2014-03-30T10:56:59Z</time>
  </trkpt>
  <trkpt lat="34.056453" lon="-4.151900">
   <ele>1463.00</ele>
   <time>2014-03-30T10:57:02Z</time>
  </trkpt>
  <trkpt lat="34.056296" lon="-4.151781">
   <ele>1462.00</ele>
   <time>2014-03-30T10:57:05Z</time>
  </trkpt>
  <trkpt lat="34.056274" lon="-4.151548">
   <ele>1460.00</ele>
   <time>2014-03-30T10:57:08Z</time>
  </trkpt>
  <trkpt lat="34.056322" lon="-4.151287">
   <ele>1458.00</ele>
   <time>2014-03-30T10:57:11Z</time>
  </trkpt>
  <trkpt lat="34.056431" lon="-4.151046">
   <ele>1457.00</ele>
   <time>2014-03-30T10:57:14Z</time>
  </trkpt>
  <trkpt lat="34.056530" lon="-4.150858">
   <ele>1455.00</ele>
   <time>2014-03-30T10:57:17Z</time>
  </trkpt>
  <trkpt lat="34.056364" lon="-4.150729">
   <ele>1454.00</ele>
   <time>2014-03-30T10:57:21Z</time>
  </trkpt>
  <trkpt lat="34.056136" lon="-4.150688">
   <ele>1453.00</ele>
   <time>2014-03-30T10:57:24Z</time>
  </trkpt>
  <trkpt lat="34.055916" lon="-4.150566">
   <ele>1451.00</ele>
   <time>2014-03-30T10:57:27Z</time>
  </trkpt>
  <trkpt lat="34.055728" lon="-4.150395">
   <ele>1450.00</ele>
   <time>2014-03-30T10:57:30Z</time>
  </trkpt>
  <trkpt lat="34.055527" lon="-4.150404">
   <ele>1449.00</ele>
   <time>2014-03-30T10:57:33Z</time>
  </trkpt>
  <trkpt lat="34.055392" lon="-4.150657">
   <ele>1448.00</ele>
   <time>2014-03-30T10:57:36Z</time>
  </trkpt>
  <trkpt lat="34.055307" lon="-4.150849">
   <ele>1447.00</ele>
   <time>2014-03-30T10:57:38Z</time>
  </trkpt>
  <trkpt lat="34.055182" lon="-4.151006">
   <ele>1445.00</ele>
   <time>2014-03-30T10:57:40Z</time>
  </trkpt>
  <trkpt lat="34.054930" lon="-4.151084">
   <ele>1444.00</ele>
   <time>2014-03-30T10:57:43Z</time>
  </trkpt>
  <trkpt lat="34.054690" lon="-4.150989">
   <ele>1443.00</ele>
   <time>2014-03-30T10:57:46Z</time>
  </trkpt>
  <trkpt lat="34.054455" lon="-4.151051">
   <ele>1442.00</ele>
   <time>2014-03-30T10:57:49Z</time>
  </trkpt>
  <trkpt lat="34.054306" lon="-4.151191">
   <ele>1442.00</ele>
   <time>2014-03-30T10:57:51Z</time>
  </trkpt>
  <trkpt lat="34.054138" lon="-4.151327">
   <ele>1441.00</ele>
   <time>2014-03-30T10:57:53Z</time>
  </trkpt>
  <trkpt lat="34.053955" lon="-4.151446">
   <ele>1440.00</ele>
   <time>2014-03-30T10:57:55Z</time>
  </trkpt>
  <trkpt lat="34.053755" lon="-4.151520">
   <ele>1440.00</ele>
   <time>2014-03-30T10:57:57Z</time>
  </trkpt>
  <trkpt lat="34.053545" lon="-4.151530">
   <ele>1439.00</ele>
   <time>2014-03-30T10:57:59Z</time>
  </trkpt>
  <trkpt lat="34.053349" lon="-4.151469">
   <ele>1438.00</ele>
   <time>2014-03-30T10:58:01Z</time>
  </trkpt>
  <trkpt lat="34.053211" lon="-4.151313">
   <ele>1437.00</ele>
   <time>2014-03-30T10:58:03Z</time>
  </trkpt>
  <trkpt lat="34.053090" lon="-4.151144">
   <ele>1436.00</ele>
   <time>2014-03-30T10:58:05Z</time>
  </trkpt>
  <trkpt lat="34.052924" lon="-4.151048">
   <ele>1435.00</ele>
   <time>2014-03-30T10:58:07Z</time>
  </trkpt>
  <trkpt lat="34.052663" lon="-4.150942">
   <ele>1434.00</ele>
   <time>2014-03-30T10:58:10Z</time>
  </trkpt>
  <trkpt lat="34.052559" lon="-4.150700">
   <ele>1433.00</ele>
   <time>2014-03-30T10:58:13Z</time>
  </trkpt>
  <trkpt lat="34.052564" lon="-4.150376">
   <ele>1432.00</ele>
   <time>2014-03-30T10:58:16Z</time>
  </trkpt>
  <trkpt lat="34.052511" lon="-4.150163">
   <ele>1431.00</ele>
   <time>2014-03-30T10:58:18Z</time>
  </trkpt>
  <trkpt lat="34.052406" lon="-4.149965">
   <ele>1430.00</ele>
   <time>2014-03-30T10:58:20Z</time>
  </trkpt>
  <trkpt lat="34.052326" lon="-4.149740">
   <ele>1430.00</ele>
   <time>2014-03-30T10:58:22Z</time>
  </trkpt>
  <trkpt lat="34.052273" lon="-4.149500">
   <ele>1429.00</ele>
   <time>2014-03-30T10:58:24Z</time>
  </trkpt>
  <trkpt lat="34.052211" lon="-4.149276">
   <ele>1429.00</ele>
   <time>2014-03-30T10:58:26Z</time>
  </trkpt>
  <trkpt lat="34.052100" lon="-4.149092">
   <ele>1429.00</ele>
   <time>2014-03-30T10:58:28Z</time>
  </trkpt>
  <trkpt lat="34.051954" lon="-4.148950">
   <ele>1429.00</ele>
   <time>2014-03-30T10:58:30Z</time>
  </trkpt>
  <trkpt lat="34.051816" lon="-4.148696">
   <ele>1429.00</ele>
   <time>2014-03-30T10:58:33Z</time>
  </trkpt>
  <trkpt lat="34.051659" lon="-4.148555">
   <ele>1430.00</ele>
   <time>2014-03-30T10:58:36Z</time>
  </trkpt>
  <trkpt lat="34.051454" lon="-4.148699">
   <ele>1429.00</ele>
   <time>2014-03-30T10:58:39Z</time>
  </trkpt>
  <trkpt lat="34.051324" lon="-4.148875">
   <ele>1429.00</ele>
   <time>2014-03-30T10:58:41Z</time>
  </trkpt>
  <trkpt lat="34.050995" lon="-4.149381">
   <ele>1428.00</ele>
   <time>2014-03-30T10:58:46Z</time>
  </trkpt>
  <trkpt lat="34.050861" lon="-4.149606">
   <ele>1427.00</ele>
   <time>2014-03-30T10:58:48Z</time>
  </trkpt>
  <trkpt lat="34.050394" lon="-4.150417">
   <ele>1423.00</ele>
   <time>2014-03-30T10:58:55Z</time>
  </trkpt>
  <trkpt lat="34.050221" lon="-4.150592">
   <ele>1421.00</ele>
   <time>2014-03-30T10:58:57Z</time>
  </trkpt>
  <trkpt lat="34.050020" lon="-4.150716">
   <ele>1420.00</ele>
   <time>2014-03-30T10:58:59Z</time>
  </trkpt>
  <trkpt lat="34.049805" lon="-4.150798">
   <ele>1420.00</ele>
   <time>2014-03-30T10:59:01Z</time>
  </trkpt>
  <trkpt lat="34.049599" lon="-4.150894">
   <ele>1419.00</ele>
   <time>2014-03-30T10:59:03Z</time>
  </trkpt>
  <trkpt lat="34.049420" lon="-4.151038">
   <ele>1418.00</ele>
   <time>2014-03-30T10:59:05Z</time>
  </trkpt>
  <trkpt lat="34.049260" lon="-4.151175">
   <ele>1417.00</ele>
   <time>2014-03-30T10:59:07Z</time>
  </trkpt>
  <trkpt lat="34.049078" lon="-4.151206">
   <ele>1416.00</ele>
   <time>2014-03-30T10:59:09Z</time>
  </trkpt>
  <trkpt lat="34.048891" lon="-4.151146">
   <ele>1416.00</ele>
   <time>2014-03-30T10:59:11Z</time>
  </trkpt>
  <trkpt lat="34.048686" lon="-4.151106">
   <ele>1415.00</ele>
   <time>2014-03-30T10:59:13Z</time>
  </trkpt>
  <trkpt lat="34.048471" lon="-4.151130">
   <ele>1414.00</ele>
   <time>2014-03-30T10:59:15Z</time>
  </trkpt>
  <trkpt lat="34.048268" lon="-4.151223">
   <ele>1412.00</ele>
   <time>2014-03-30T10:59:17Z</time>
  </trkpt>
  <trkpt lat="34.048113" lon="-4.151403">
   <ele>1411.00</ele>
   <time>2014-03-30T10:59:19Z</time>
  </trkpt>
  <trkpt lat="34.048015" lon="-4.151632">
   <ele>1410.00</ele>
   <time>2014-03-30T10:59:21Z</time>
  </trkpt>
  <trkpt lat="34.047869" lon="-4.151977">
   <ele>1409.00</ele>
   <time>2014-03-30T10:59:24Z</time>
  </trkpt>
  <trkpt lat="34.047743" lon="-4.152179">
   <ele>1408.00</ele>
   <time>2014-03-30T10:59:26Z</time>
  </trkpt>
  <trkpt lat="34.047651" lon="-4.152406">
   <ele>1407.00</ele>
   <time>2014-03-30T10:59:28Z</time>
  </trkpt>
  <trkpt lat="34.047591" lon="-4.152622">
   <ele>1407.00</ele>
   <time>2014-03-30T10:59:30Z</time>
  </trkpt>
  <trkpt lat="34.047379" lon="-4.152810">
   <ele>1406.00</ele>
   <time>2014-03-30T10:59:33Z</time>
  </trkpt>
  <trkpt lat="34.047179" lon="-4.152870">
   <ele>1405.00</ele>
   <time>2014-03-30T10:59:35Z</time>
  </trkpt>
  <trkpt lat="34.046965" lon="-4.152939">
   <ele>1404.00</ele>
   <time>2014-03-30T10:59:37Z</time>
  </trkpt>
  <trkpt lat="34.046537" lon="-4.153144">
   <ele>1402.00</ele>
   <time>2014-03-30T10:59:41Z</time>
  </trkpt>
  <trkpt lat="34.046356" lon="-4.153311">
   <ele>1401.00</ele>
   <time>2014-03-30T10:59:43Z</time>
  </trkpt>
  <trkpt lat="34.046115" lon="-4.153611">
   <ele>1399.00</ele>
   <time>2014-03-30T10:59:46Z</time>
  </trkpt>
  <trkpt lat="34.045954" lon="-4.153812">
   <ele>1398.00</ele>
   <time>2014-03-30T10:59:48Z</time>
  </trkpt>
  <trkpt lat="34.045832" lon="-4.154038">
   <ele>1397.00</ele>
   <time>2014-03-30T10:59:50Z</time>
  </trkpt>
  <trkpt lat="34.045684" lon="-4.154200">
   <ele>1396.00</ele>
   <time>2014-03-30T10:59:52Z</time>
  </trkpt>
  <trkpt lat="34.045481" lon="-4.154249">
   <ele>1395.00</ele>
   <time>2014-03-30T10:59:54Z</time>
  </trkpt>
  <trkpt lat="34.045262" lon="-4.154226">
   <ele>1393.00</ele>
   <time>2014-03-30T10:59:56Z</time>
  </trkpt>
  <trkpt lat="34.045042" lon="-4.154159">
   <ele>1392.00</ele>
   <time>2014-03-30T10:59:58Z</time>
  </trkpt>
  <trkpt lat="34.044813" lon="-4.154089">
   <ele>1390.00</ele>
   <time>2014-03-30T11:00:00Z</time>
  </trkpt>
  <trkpt lat="34.044573" lon="-4.154041">
   <ele>1389.00</ele>
   <time>2014-03-30T11:00:02Z</time>
  </trkpt>
  <trkpt lat="34.044320" lon="-4.154026">
   <ele>1387.00</ele>
   <time>2014-03-30T11:00:04Z</time>
  </trkpt>
  <trkpt lat="34.044059" lon="-4.154066">
   <ele>1385.00</ele>
   <time>2014-03-30T11:00:06Z</time>
  </trkpt>
  <trkpt lat="34.043653" lon="-4.154133">
   <ele>1382.00</ele>
   <time>2014-03-30T11:00:09Z</time>
  </trkpt>
  <trkpt lat="34.043397" lon="-4.154149">
   <ele>1380.00</ele>
   <time>2014-03-30T11:00:11Z</time>
  </trkpt>
  <trkpt lat="34.043155" lon="-4.154108">
   <ele>1378.00</ele>
   <time>2014-03-30T11:00:13Z</time>
  </trkpt>
  <trkpt lat="34.042933" lon="-4.154046">
   <ele>1376.00</ele>
   <time>2014-03-30T11:00:15Z</time>
  </trkpt>
  <trkpt lat="34.042726" lon="-4.154088">
   <ele>1374.00</ele>
   <time>2014-03-30T11:00:17Z</time>
  </trkpt>
  <trkpt lat="34.042523" lon="-4.154195">
   <ele>1372.00</ele>
   <time>2014-03-30T11:00:19Z</time>
  </trkpt>
  <trkpt lat="34.042299" lon="-4.154253">
   <ele>1370.00</ele>
   <time>2014-03-30T11:00:21Z</time>
  </trkpt>
  <trkpt lat="34.042063" lon="-4.154309">
   <ele>1368.00</ele>
   <time>2014-03-30T11:00:23Z</time>
  </trkpt>
  <trkpt lat="34.041830" lon="-4.154408">
   <ele>1366.00</ele>
   <time>2014-03-30T11:00:25Z</time>
  </trkpt>
  <trkpt lat="34.041271" lon="-4.154717">
   <ele>1365.00</ele>
   <time>2014-03-30T11:00:30Z</time>
  </trkpt>
  <trkpt lat="34.040972" lon="-4.154904">
   <ele>1364.00</ele>
   <time>2014-03-30T11:00:33Z</time>
  </trkpt>
  <trkpt lat="34.040792" lon="-4.155037">
   <ele>1364.00</ele>
   <time>2014-03-30T11:00:35Z</time>
  </trkpt>
  <trkpt lat="34.040643" lon="-4.155198">
   <ele>1363.00</ele>
   <time>2014-03-30T11:00:37Z</time>
  </trkpt>
  <trkpt lat="34.040503" lon="-4.155358">
   <ele>1362.00</ele>
   <time>2014-03-30T11:00:39Z</time>
  </trkpt>
  <trkpt lat="34.040347" lon="-4.155487">
   <ele>1362.00</ele>
   <time>2014-03-30T11:00:41Z</time>
  </trkpt>
  <trkpt lat="34.040171" lon="-4.155592">
   <ele>1361.00</ele>
   <time>2014-03-30T11:00:43Z</time>
  </trkpt>
  <trkpt lat="34.039982" lon="-4.155677">
   <ele>1360.00</ele>
   <time>2014-03-30T11:00:45Z</time>
  </trkpt>
  <trkpt lat="34.039785" lon="-4.155728">
   <ele>1359.00</ele>
   <time>2014-03-30T11:00:47Z</time>
  </trkpt>
  <trkpt lat="34.039493" lon="-4.155787">
   <ele>1357.00</ele>
   <time>2014-03-30T11:00:50Z</time>
  </trkpt>
  <trkpt lat="34.039306" lon="-4.155842">
   <ele>1355.00</ele>
   <time>2014-03-30T11:00:52Z</time>
  </trkpt>
  <trkpt lat="34.039049" lon="-4.155814">
   <ele>1353.00</ele>
   <time>2014-03-30T11:00:55Z</time>
  </trkpt>
  <trkpt lat="34.038794" lon="-4.155885">
   <ele>1350.00</ele>
   <time>2014-03-30T11:00:58Z</time>
  </trkpt>
  <trkpt lat="34.038192" lon="-4.156183">
   <ele>1345.00</ele>
   <time>2014-03-30T11:01:05Z</time>
  </trkpt>
  <trkpt lat="34.037972" lon="-4.156113">
   <ele>1343.00</ele>
   <time>2014-03-30T11:01:08Z</time>
  </trkpt>
  <trkpt lat="34.037716" lon="-4.156078">
   <ele>1341.00</ele>
   <time>2014-03-30T11:01:11Z</time>
  </trkpt>
  <trkpt lat="34.037529" lon="-4.156080">
   <ele>1340.00</ele>
   <time>2014-03-30T11:01:13Z</time>
  </trkpt>
  <trkpt lat="34.037286" lon="-4.156193">
   <ele>1338.00</ele>
   <time>2014-03-30T11:01:16Z</time>
  </trkpt>
  <trkpt lat="34.037062" lon="-4.156332">
   <ele>1336.00</ele>
   <time>2014-03-30T11:01:19Z</time>
  </trkpt>
  <trkpt lat="34.036813" lon="-4.156398">
   <ele>1334.00</ele>
   <time>2014-03-30T11:01:22Z</time>
  </trkpt>
  <trkpt lat="34.036664" lon="-4.156523">
   <ele>1332.00</ele>
   <time>2014-03-30T11:01:24Z</time>
  </trkpt>
  <trkpt lat="34.036508" lon="-4.156646">
   <ele>1331.00</ele>
   <time>2014-03-30T11:01:26Z</time>
  </trkpt>
  <trkpt lat="34.036353" lon="-4.156855">
   <ele>1329.00</ele>
   <time>2014-03-30T11:01:29Z</time>
  </trkpt>
  <trkpt lat="34.036205" lon="-4.156988">
   <ele>1328.00</ele>
   <time>2014-03-30T11:01:32Z</time>
  </trkpt>
  <trkpt lat="34.035793" lon="-4.156979">
   <ele>1325.00</ele>
   <time>2014-03-30T11:01:37Z</time>
  </trkpt>
  <trkpt lat="34.035569" lon="-4.157085">
   <ele>1324.00</ele>
   <time>2014-03-30T11:01:40Z</time>
  </trkpt>
  <trkpt lat="34.035436" lon="-4.157232">
   <ele>1323.00</ele>
   <time>2014-03-30T11:01:43Z</time>
  </trkpt>
  <trkpt lat="34.035258" lon="-4.157267">
   <ele>1321.00</ele>
   <time>2014-03-30T11:01:46Z</time>
  </trkpt>
  <trkpt lat="34.035031" lon="-4.157207">
   <ele>1319.00</ele>
   <time>2014-03-30T11:01:49Z</time>
  </trkpt>
  <trkpt lat="34.034681" lon="-4.157116">
   <ele>1315.00</ele>
   <time>2014-03-30T11:01:53Z</time>
  </trkpt>
  <trkpt lat="34.034413" lon="-4.157140">
   <ele>1313.00</ele>
   <time>2014-03-30T11:01:56Z</time>
  </trkpt>
  <trkpt lat="34.034227" lon="-4.157149">
   <ele>1312.00</ele>
   <time>2014-03-30T11:01:58Z</time>
  </trkpt>
  <trkpt lat="34.034046" lon="-4.157099">
   <ele>1310.00</ele>
   <time>2014-03-30T11:02:00Z</time>
  </trkpt>
  <trkpt lat="34.033858" lon="-4.157053">
   <ele>1309.00</ele>
   <time>2014-03-30T11:02:02Z</time>
  </trkpt>
  <trkpt lat="34.033653" lon="-4.157025">
   <ele>1307.00</ele>
   <time>2014-03-30T11:02:04Z</time>
  </trkpt>
  <trkpt lat="34.033445" lon="-4.157016">
   <ele>1306.00</ele>
   <time>2014-03-30T11:02:06Z</time>
  </trkpt>
  <trkpt lat="34.033252" lon="-4.157026">
   <ele>1304.00</ele>
   <time>2014-03-30T11:02:08Z</time>
  </trkpt>
  <trkpt lat="34.033025" lon="-4.157117">
   <ele>1302.00</ele>
   <time>2014-03-30T11:02:11Z</time>
  </trkpt>
  <trkpt lat="34.032828" lon="-4.157190">
   <ele>1300.00</ele>
   <time>2014-03-30T11:02:14Z</time>
  </trkpt>
  <trkpt lat="34.032617" lon="-4.157075">
   <ele>1298.00</ele>
   <time>2014-03-30T11:02:17Z</time>
  </trkpt>
  <trkpt lat="34.032401" lon="-4.156930">
   <ele>1296.00</ele>
   <time>2014-03-30T11:02:20Z</time>
  </trkpt>
  <trkpt lat="34.032174" lon="-4.156859">
   <ele>1294.00</ele>
   <time>2014-03-30T11:02:23Z</time>
  </trkpt>
  <trkpt lat="34.031914" lon="-4.156925">
   <ele>1292.00</ele>
   <time>2014-03-30T11:02:26Z</time>
  </trkpt>
  <trkpt lat="34.031727" lon="-4.156950">
   <ele>1290.00</ele>
   <time>2014-03-30T11:02:28Z</time>
  </trkpt>
  <trkpt lat="34.031500" lon="-4.157074">
   <ele>1288.00</ele>
   <time>2014-03-30T11:02:31Z</time>
  </trkpt>
  <trkpt lat="34.031351" lon="-4.157305">
   <ele>1287.00</ele>
   <time>2014-03-30T11:02:34Z</time>
  </trkpt>
  <trkpt lat="34.031172" lon="-4.157478">
   <ele>1286.00</ele>
   <time>2014-03-30T11:02:37Z</time>
  </trkpt>
  <trkpt lat="34.030948" lon="-4.157513">
   <ele>1286.00</ele>
   <time>2014-03-30T11:02:40Z</time>
  </trkpt>
  <trkpt lat="34.030708" lon="-4.157520">
   <ele>1284.00</ele>
   <time>2014-03-30T11:02:43Z</time>
  </trkpt>
  <trkpt lat="34.030464" lon="-4.157633">
   <ele>1282.00</ele>
   <time>2014-03-30T11:02:46Z</time>
  </trkpt>
  <trkpt lat="34.030287" lon="-4.157670">
   <ele>1281.00</ele>
   <time>2014-03-30T11:02:48Z</time>
  </trkpt>
  <trkpt lat="34.030104" lon="-4.157636">
   <ele>1279.00</ele>
   <time>2014-03-30T11:02:50Z</time>
  </trkpt>
  <trkpt lat="34.029923" lon="-4.157565">
   <ele>1278.00</ele>
   <time>2014-03-30T11:02:52Z</time>
  </trkpt>
  <trkpt lat="34.029754" lon="-4.157456">
   <ele>1276.00</ele>
   <time>2014-03-30T11:02:54Z</time>
  </trkpt>
  <trkpt lat="34.029620" lon="-4.157291">
   <ele>1274.00</ele>
   <time>2014-03-30T11:02:56Z</time>
  </trkpt>
  <trkpt lat="34.029557" lon="-4.157084">
   <ele>1273.00</ele>
   <time>2014-03-30T11:02:58Z</time>
  </trkpt>
  <trkpt lat="34.029567" lon="-4.156849">
   <ele>1271.00</ele>
   <time>2014-03-30T11:03:00Z</time>
  </trkpt>
  <trkpt lat="34.029566" lon="-4.156611">
   <ele>1270.00</ele>
   <time>2014-03-30T11:03:02Z</time>
  </trkpt>
  <trkpt lat="34.029509" lon="-4.156381">
   <ele>1268.00</ele>
   <time>2014-03-30T11:03:04Z</time>
  </trkpt>
  <trkpt lat="34.029430" lon="-4.156180">
   <ele>1266.00</ele>
   <time>2014-03-30T11:03:06Z</time>
  </trkpt>
  <trkpt lat="34.029488" lon="-4.155915">
   <ele>1264.00</ele>
   <time>2014-03-30T11:03:09Z</time>
  </trkpt>
  <trkpt lat="34.029716" lon="-4.155749">
   <ele>1261.00</ele>
   <time>2014-03-30T11:03:12Z</time>
  </trkpt>
  <trkpt lat="34.029898" lon="-4.155702">
   <ele>1258.00</ele>
   <time>2014-03-30T11:03:14Z</time>
  </trkpt>
  <trkpt lat="34.030076" lon="-4.155662">
   <ele>1256.00</ele>
   <time>2014-03-30T11:03:16Z</time>
  </trkpt>
  <trkpt lat="34.030252" lon="-4.155510">
   <ele>1255.00</ele>
   <time>2014-03-30T11:03:19Z</time>
  </trkpt>
  <trkpt lat="34.030262" lon="-4.155254">
   <ele>1253.00</ele>
   <time>2014-03-30T11:03:22Z</time>
  </trkpt>
  <trkpt lat="34.030088" lon="-4.155033">
   <ele>1250.00</ele>
   <time>2014-03-30T11:03:25Z</time>
  </trkpt>
  <trkpt lat="34.029914" lon="-4.154970">
   <ele>1249.00</ele>
   <time>2014-03-30T11:03:27Z</time>
  </trkpt>
  <trkpt lat="34.029720" lon="-4.154934">
   <ele>1247.00</ele>
   <time>2014-03-30T11:03:29Z</time>
  </trkpt>
  <trkpt lat="34.029517" lon="-4.154921">
   <ele>1246.00</ele>
   <time>2014-03-30T11:03:31Z</time>
  </trkpt>
  <trkpt lat="34.029319" lon="-4.154983">
   <ele>1244.00</ele>
   <time>2014-03-30T11:03:33Z</time>
  </trkpt>
  <trkpt lat="34.029148" lon="-4.155120">
   <ele>1243.00</ele>
   <time>2014-03-30T11:03:35Z</time>
  </trkpt>
  <trkpt lat="34.028988" lon="-4.155251">
   <ele>1241.00</ele>
   <time>2014-03-30T11:03:37Z</time>
  </trkpt>
  <trkpt lat="34.028809" lon="-4.155275">
   <ele>1240.00</ele>
   <time>2014-03-30T11:03:39Z</time>
  </trkpt>
  <trkpt lat="34.028641" lon="-4.155184">
   <ele>1239.00</ele>
   <time>2014-03-30T11:03:41Z</time>
  </trkpt>
  <trkpt lat="34.028492" lon="-4.155033">
   <ele>1238.00</ele>
   <time>2014-03-30T11:03:43Z</time>
  </trkpt>
  <trkpt lat="34.028361" lon="-4.154852">
   <ele>1237.00</ele>
   <time>2014-03-30T11:03:45Z</time>
  </trkpt>
  <trkpt lat="34.028293" lon="-4.154625">
   <ele>1236.00</ele>
   <time>2014-03-30T11:03:47Z</time>
  </trkpt>
  <trkpt lat="34.028311" lon="-4.154376">
   <ele>1234.00</ele>
   <time>2014-03-30T11:03:49Z</time>
  </trkpt>
  <trkpt lat="34.028383" lon="-4.154136">
   <ele>1232.00</ele>
   <time>2014-03-30T11:03:51Z</time>
  </trkpt>
  <trkpt lat="34.028510" lon="-4.153925">
   <ele>1231.00</ele>
   <time>2014-03-30T11:03:53Z</time>
  </trkpt>
  <trkpt lat="34.028674" lon="-4.153742">
   <ele>1229.00</ele>
   <time>2014-03-30T11:03:55Z</time>
  </trkpt>
  <trkpt lat="34.028828" lon="-4.153539">
   <ele>1228.00</ele>
   <time>2014-03-30T11:03:57Z</time>
  </trkpt>
  <trkpt lat="34.028915" lon="-4.153286">
   <ele>1226.00</ele>
   <time>2014-03-30T11:03:59Z</time>
  </trkpt>
  <trkpt lat="34.028952" lon="-4.153009">
   <ele>1225.00</ele>
   <time>2014-03-30T11:04:01Z</time>
  </trkpt>
  <trkpt lat="34.029014" lon="-4.152749">
   <ele>1224.00</ele>
   <time>2014-03-30T11:04:03Z</time>
  </trkpt>
  <trkpt lat="34.029081" lon="-4.152513">
   <ele>1223.00</ele>
   <time>2014-03-30T11:04:05Z</time>
  </trkpt>
  <trkpt lat="34.029076" lon="-4.152272">
   <ele>1222.00</ele>
   <time>2014-03-30T11:04:07Z</time>
  </trkpt>
  <trkpt lat="34.028958" lon="-4.151502">
   <ele>1218.00</ele>
   <time>2014-03-30T11:04:13Z</time>
  </trkpt>
  <trkpt lat="34.028959" lon="-4.151225">
   <ele>1217.00</ele>
   <time>2014-03-30T11:04:15Z</time>
  </trkpt>
  <trkpt lat="34.028972" lon="-4.150945">
   <ele>1216.00</ele>
   <time>2014-03-30T11:04:17Z</time>
  </trkpt>
  <trkpt lat="34.028958" lon="-4.150664">
   <ele>1214.00</ele>
   <time>2014-03-30T11:04:19Z</time>
  </trkpt>
  <trkpt lat="34.028919" lon="-4.150241">
   <ele>1212.00</ele>
   <time>2014-03-30T11:04:22Z</time>
  </trkpt>
  <trkpt lat="34.028940" lon="-4.149957">
   <ele>1211.00</ele>
   <time>2014-03-30T11:04:24Z</time>
  </trkpt>
  <trkpt lat="34.029009" lon="-4.149684">
   <ele>1210.00</ele>
   <time>2014-03-30T11:04:26Z</time>
  </trkpt>
  <trkpt lat="34.029112" lon="-4.149325">
   <ele>1210.00</ele>
   <time>2014-03-30T11:04:29Z</time>
  </trkpt>
  <trkpt lat="34.029122" lon="-4.149097">
   <ele>1209.00</ele>
   <time>2014-03-30T11:04:31Z</time>
  </trkpt>
  <trkpt lat="34.029069" lon="-4.148877">
   <ele>1209.00</ele>
   <time>2014-03-30T11:04:33Z</time>
  </trkpt>
  <trkpt lat="34.028939" lon="-4.148451">
   <ele>1209.00</ele>
   <time>2014-03-30T11:04:37Z</time>
  </trkpt>
  <trkpt lat="34.028840" lon="-4.148264">
   <ele>1209.00</ele>
   <time>2014-03-30T11:04:39Z</time>
  </trkpt>
  <trkpt lat="34.028686" lon="-4.148128">
   <ele>1209.00</ele>
   <time>2014-03-30T11:04:41Z</time>
  </trkpt>
  <trkpt lat="34.028412" lon="-4.147941">
   <ele>1208.00</ele>
   <time>2014-03-30T11:04:44Z</time>
  </trkpt>
  <trkpt lat="34.028253" lon="-4.147794">
   <ele>1208.00</ele>
   <time>2014-03-30T11:04:46Z</time>
  </trkpt>
  <trkpt lat="34.028071" lon="-4.147579">
   <ele>1208.00</ele>
   <time>2014-03-30T11:04:49Z</time>
  </trkpt>
  <trkpt lat="34.027837" lon="-4.147511">
   <ele>1208.00</ele>
   <time>2014-03-30T11:04:52Z</time>
  </trkpt>
  <trkpt lat="34.027654" lon="-4.147492">
   <ele>1207.00</ele>
   <time>2014-03-30T11:04:54Z</time>
  </trkpt>
  <trkpt lat="34.027261" lon="-4.147444">
   <ele>1207.00</ele>
   <time>2014-03-30T11:04:58Z</time>
  </trkpt>
  <trkpt lat="34.027050" lon="-4.147450">
   <ele>1207.00</ele>
   <time>2014-03-30T11:05:00Z</time>
  </trkpt>
  <trkpt lat="34.026726" lon="-4.147483">
   <ele>1206.00</ele>
   <time>2014-03-30T11:05:03Z</time>
  </trkpt>
  <trkpt lat="34.026398" lon="-4.147492">
   <ele>1205.00</ele>
   <time>2014-03-30T11:05:06Z</time>
  </trkpt>
  <trkpt lat="34.026016" lon="-4.147482">
   <ele>1204.00</ele>
   <time>2014-03-30T11:05:10Z</time>
  </trkpt>
  <trkpt lat="34.025690" lon="-4.147541">
   <ele>1202.00</ele>
   <time>2014-03-30T11:05:14Z</time>
  </trkpt>
  <trkpt lat="34.025079" lon="-4.147674">
   <ele>1199.00</ele>
   <time>2014-03-30T11:05:20Z</time>
  </trkpt>
  <trkpt lat="34.024870" lon="-4.147763">
   <ele>1197.00</ele>
   <time>2014-03-30T11:05:22Z</time>
  </trkpt>
  <trkpt lat="34.024661" lon="-4.147886">
   <ele>1196.00</ele>
   <time>2014-03-30T11:05:24Z</time>
  </trkpt>
  <trkpt lat="34.024450" lon="-4.148036">
   <ele>1194.00</ele>
   <time>2014-03-30T11:05:26Z</time>
  </trkpt>
  <trkpt lat="34.024128" lon="-4.148291">
   <ele>1192.00</ele>
   <time>2014-03-30T11:05:29Z</time>
  </trkpt>
  <trkpt lat="34.023930" lon="-4.148483">
   <ele>1191.00</ele>
   <time>2014-03-30T11:05:31Z</time>
  </trkpt>
  <trkpt lat="34.023739" lon="-4.148662">
   <ele>1190.00</ele>
   <time>2014-03-30T11:05:33Z</time>
  </trkpt>
  <trkpt lat="34.023534" lon="-4.148787">
   <ele>1189.00</ele>
   <time>2014-03-30T11:05:35Z</time>
  </trkpt>
  <trkpt lat="34.023316" lon="-4.148832">
   <ele>1189.00</ele>
   <time>2014-03-30T11:05:37Z</time>
  </trkpt>
  <trkpt lat="34.023099" lon="-4.148830">
   <ele>1189.00</ele>
   <time>2014-03-30T11:05:39Z</time>
  </trkpt>
  <trkpt lat="34.022538" lon="-4.148806">
   <ele>1189.00</ele>
   <time>2014-03-30T11:05:44Z</time>
  </trkpt>
  <trkpt lat="34.022312" lon="-4.148763">
   <ele>1189.00</ele>
   <time>2014-03-30T11:05:46Z</time>
  </trkpt>
  <trkpt lat="34.022082" lon="-4.148733">
   <ele>1189.00</ele>
   <time>2014-03-30T11:05:48Z</time>
  </trkpt>
  <trkpt lat="34.021848" lon="-4.148749">
   <ele>1189.00</ele>
   <time>2014-03-30T11:05:50Z</time>
  </trkpt>
  <trkpt lat="34.021491" lon="-4.148802">
   <ele>1190.00</ele>
   <time>2014-03-30T11:05:53Z</time>
  </trkpt>
  <trkpt lat="34.021256" lon="-4.148852">
   <ele>1190.00</ele>
   <time>2014-03-30T11:05:55Z</time>
  </trkpt>
  <trkpt lat="34.021031" lon="-4.148935">
   <ele>1191.00</ele>
   <time>2014-03-30T11:05:57Z</time>
  </trkpt>
  <trkpt lat="34.020829" lon="-4.149066">
   <ele>1191.00</ele>
   <time>2014-03-30T11:05:59Z</time>
  </trkpt>
  <trkpt lat="34.020655" lon="-4.149225">
   <ele>1191.00</ele>
   <time>2014-03-30T11:06:01Z</time>
  </trkpt>
  <trkpt lat="34.020475" lon="-4.149371">
   <ele>1191.00</ele>
   <time>2014-03-30T11:06:03Z</time>
  </trkpt>
  <trkpt lat="34.020279" lon="-4.149487">
   <ele>1191.00</ele>
   <time>2014-03-30T11:06:05Z</time>
  </trkpt>
  <trkpt lat="34.020082" lon="-4.149618">
   <ele>1190.00</ele>
   <time>2014-03-30T11:06:07Z</time>
  </trkpt>
  <trkpt lat="34.019788" lon="-4.149839">
   <ele>1189.00</ele>
   <time>2014-03-30T11:06:10Z</time>
  </trkpt>
  <trkpt lat="34.019589" lon="-4.149979">
   <ele>1189.00</ele>
   <time>2014-03-30T11:06:12Z</time>
  </trkpt>
  <trkpt lat="34.019405" lon="-4.150153">
   <ele>1189.00</ele>
   <time>2014-03-30T11:06:14Z</time>
  </trkpt>
  <trkpt lat="34.018977" lon="-4.150585">
   <ele>1190.00</ele>
   <time>2014-03-30T11:06:19Z</time>
  </trkpt>
  <trkpt lat="34.018798" lon="-4.150742">
   <ele>1190.00</ele>
   <time>2014-03-30T11:06:21Z</time>
  </trkpt>
  <trkpt lat="34.018625" lon="-4.150894">
   <ele>1190.00</ele>
   <time>2014-03-30T11:06:23Z</time>
  </trkpt>
  <trkpt lat="34.018492" lon="-4.151090">
   <ele>1190.00</ele>
   <time>2014-03-30T11:06:25Z</time>
  </trkpt>
  <trkpt lat="34.018257" lon="-4.151534">
   <ele>1192.00</ele>
   <time>2014-03-30T11:06:29Z</time>
  </trkpt>
  <trkpt lat="34.018126" lon="-4.151741">
   <ele>1194.00</ele>
   <time>2014-03-30T11:06:31Z</time>
  </trkpt>
  <trkpt lat="34.017974" lon="-4.151928">
   <ele>1194.00</ele>
   <time>2014-03-30T11:06:33Z</time>
  </trkpt>
  <trkpt lat="34.017794" lon="-4.152079">
   <ele>1195.00</ele>
   <time>2014-03-30T11:06:35Z</time>
  </trkpt>
  <trkpt lat="34.017584" lon="-4.152171">
   <ele>1196.00</ele>
   <time>2014-03-30T11:06:37Z</time>
  </trkpt>
  <trkpt lat="34.017238" lon="-4.152243">
   <ele>1196.00</ele>
   <time>2014-03-30T11:06:40Z</time>
  </trkpt>
  <trkpt lat="34.017014" lon="-4.152336">
   <ele>1195.00</ele>
   <time>2014-03-30T11:06:42Z</time>
  </trkpt>
  <trkpt lat="34.016795" lon="-4.152458">
   <ele>1193.00</ele>
   <time>2014-03-30T11:06:44Z</time>
  </trkpt>
  <trkpt lat="34.016459" lon="-4.152658">
   <ele>1190.00</ele>
   <time>2014-03-30T11:06:47Z</time>
  </trkpt>
  <trkpt lat="34.016266" lon="-4.152838">
   <ele>1189.00</ele>
   <time>2014-03-30T11:06:49Z</time>
  </trkpt>
  <trkpt lat="34.016020" lon="-4.153130">
   <ele>1188.00</ele>
   <time>2014-03-30T11:06:52Z</time>
  </trkpt>
  <trkpt lat="34.015844" lon="-4.153218">
   <ele>1187.00</ele>
   <time>2014-03-30T11:06:54Z</time>
  </trkpt>
  <trkpt lat="34.015663" lon="-4.153185">
   <ele>1187.00</ele>
   <time>2014-03-30T11:06:56Z</time>
  </trkpt>
  <trkpt lat="34.015422" lon="-4.153079">
   <ele>1186.00</ele>
   <time>2014-03-30T11:06:59Z</time>
  </trkpt>
  <trkpt lat="34.015184" lon="-4.153100">
   <ele>1186.00</ele>
   <time>2014-03-30T11:07:02Z</time>
  </trkpt>
  <trkpt lat="34.014980" lon="-4.153265">
   <ele>1186.00</ele>
   <time>2014-03-30T11:07:05Z</time>
  </trkpt>
  <trkpt lat="34.014859" lon="-4.153545">
   <ele>1186.00</ele>
   <time>2014-03-30T11:07:08Z</time>
  </trkpt>
  <trkpt lat="34.014717" lon="-4.153962">
   <ele>1186.00</ele>
   <time>2014-03-30T11:07:12Z</time>
  </trkpt>
  <trkpt lat="34.014617" lon="-4.154151">
   <ele>1186.00</ele>
   <time>2014-03-30T11:07:14Z</time>
  </trkpt>
  <trkpt lat="34.014473" lon="-4.154336">
   <ele>1186.00</ele>
   <time>2014-03-30T11:07:17Z</time>
  </trkpt>
  <trkpt lat="34.014390" lon="-4.154437">
   <ele>1187.00</ele>
   <time>2014-03-30T11:07:32Z</time>
  </trkpt>
  <trkpt lat="34.014388" lon="-4.154431">
   <ele>1188.00</ele>
   <time>2014-03-30T11:07:48Z</time>
  </trkpt>
  <trkpt lat="34.014386" lon="-4.154430">
   <ele>1189.00</ele>
   <time>2014-03-30T11:08:03Z</time>
  </trkpt>
  <trkpt lat="34.014387" lon="-4.154430">
   <ele>1190.00</ele>
   <time>2014-03-30T11:08:18Z</time>
  </trkpt>
  <trkpt lat="34.014386" lon="-4.154434">
   <ele>1193.00</ele>
   <time>2014-03-30T11:08:34Z</time>
  </trkpt>
  <trkpt lat="34.014381" lon="-4.154432">
   <ele>1192.00</ele>
   <time>2014-03-30T11:08:49Z</time>
  </trkpt>
  <trkpt lat="34.014341" lon="-4.154668">
   <ele>1190.00</ele>
   <time>2014-03-30T11:09:01Z</time>
  </trkpt>
  <trkpt lat="34.014180" lon="-4.154861">
   <ele>1190.00</ele>
   <time>2014-03-30T11:09:05Z</time>
  </trkpt>
  <trkpt lat="34.013992" lon="-4.154949">
   <ele>1190.00</ele>
   <time>2014-03-30T11:09:08Z</time>
  </trkpt>
  <trkpt lat="34.013753" lon="-4.154953">
   <ele>1190.00</ele>
   <time>2014-03-30T11:09:11Z</time>
  </trkpt>
  <trkpt lat="34.013210" lon="-4.154899">
   <ele>1192.00</ele>
   <time>2014-03-30T11:09:17Z</time>
  </trkpt>
  <trkpt lat="34.013014" lon="-4.154902">
   <ele>1193.00</ele>
   <time>2014-03-30T11:09:19Z</time>
  </trkpt>
  <trkpt lat="34.012816" lon="-4.154911">
   <ele>1194.00</ele>
   <time>2014-03-30T11:09:21Z</time>
  </trkpt>
  <trkpt lat="34.012626" lon="-4.154894">
   <ele>1195.00</ele>
   <time>2014-03-30T11:09:23Z</time>
  </trkpt>
  <trkpt lat="34.012441" lon="-4.154847">
   <ele>1196.00</ele>
   <time>2014-03-30T11:09:25Z</time>
  </trkpt>
  <trkpt lat="34.012190" lon="-4.154769">
   <ele>1198.00</ele>
   <time>2014-03-30T11:09:28Z</time>
  </trkpt>
  <trkpt lat="34.011970" lon="-4.154801">
   <ele>1199.00</ele>
   <time>2014-03-30T11:09:31Z</time>
  </trkpt>
  <trkpt lat="34.011816" lon="-4.155010">
   <ele>1199.00</ele>
   <time>2014-03-30T11:09:34Z</time>
  </trkpt>
  <trkpt lat="34.011644" lon="-4.155225">
   <ele>1200.00</ele>
   <time>2014-03-30T11:09:37Z</time>
  </trkpt>
  <trkpt lat="34.011408" lon="-4.155363">
   <ele>1201.00</ele>
   <time>2014-03-30T11:09:40Z</time>
  </trkpt>
  <trkpt lat="34.010654" lon="-4.155739">
   <ele>1204.00</ele>
   <time>2014-03-30T11:09:49Z</time>
  </trkpt>
  <trkpt lat="34.010332" lon="-4.155922">
   <ele>1204.00</ele>
   <time>2014-03-30T11:09:53Z</time>
  </trkpt>
  <trkpt lat="34.010101" lon="-4.156014">
   <ele>1204.00</ele>
   <time>2014-03-30T11:09:56Z</time>
  </trkpt>
  <trkpt lat="34.009881" lon="-4.155967">
   <ele>1203.00</ele>
   <time>2014-03-30T11:09:59Z</time>
  </trkpt>
  <trkpt lat="34.009674" lon="-4.155848">
   <ele>1202.00</ele>
   <time>2014-03-30T11:10:02Z</time>
  </trkpt>
  <trkpt lat="34.009443" lon="-4.155811">
   <ele>1201.00</ele>
   <time>2014-03-30T11:10:05Z</time>
  </trkpt>
  <trkpt lat="34.009204" lon="-4.155900">
   <ele>1200.00</ele>
   <time>2014-03-30T11:10:08Z</time>
  </trkpt>
  <trkpt lat="34.008978" lon="-4.156066">
   <ele>1199.00</ele>
   <time>2014-03-30T11:10:11Z</time>
  </trkpt>
  <trkpt lat="34.008301" lon="-4.156650">
   <ele>1196.00</ele>
   <time>2014-03-30T11:10:24Z</time>
  </trkpt>
  <trkpt lat="34.008294" lon="-4.156656">
   <ele>1197.00</ele>
   <time>2014-03-30T11:10:40Z</time>
  </trkpt>
  <trkpt lat="34.008295" lon="-4.156653">
   <ele>1198.00</ele>
   <time>2014-03-30T11:10:55Z</time>
  </trkpt>
  <trkpt lat="34.008295" lon="-4.156653">
   <ele>1198.00</ele>
   <time>2014-03-30T11:11:10Z</time>
  </trkpt>
  <trkpt lat="34.008297" lon="-4.156652">
   <ele>1198.00</ele>
   <time>2014-03-30T11:11:26Z</time>
  </trkpt>
  <trkpt lat="34.008299" lon="-4.156651">
   <ele>1199.00</ele>
   <time>2014-03-30T11:11:41Z</time>
  </trkpt>
  <trkpt lat="34.008297" lon="-4.156653">
   <ele>1199.00</ele>
   <time>2014-03-30T11:11:57Z</time>
  </trkpt>
  <trkpt lat="34.008271" lon="-4.156673">
   <ele>1200.00</ele>
   <time>2014-03-30T11:12:12Z</time>
  </trkpt>
  <trkpt lat="34.008141" lon="-4.156587">
   <ele>1197.00</ele>
   <time>2014-03-30T11:12:19Z</time>
  </trkpt>
  <trkpt lat="34.008109" lon="-4.156335">
   <ele>1194.00</ele>
   <time>2014-03-30T11:12:23Z</time>
  </trkpt>
  <trkpt lat="34.008066" lon="-4.156018">
   <ele>1192.00</ele>
   <time>2014-03-30T11:12:28Z</time>
  </trkpt>
  <trkpt lat="34.008006" lon="-4.155658">
   <ele>1191.00</ele>
   <time>2014-03-30T11:12:35Z</time>
  </trkpt>
  <trkpt lat="34.007956" lon="-4.155431">
   <ele>1189.00</ele>
   <time>2014-03-30T11:12:44Z</time>
  </trkpt>
  <trkpt lat="34.007818" lon="-4.155264">
   <ele>1188.00</ele>
   <time>2014-03-30T11:12:51Z</time>
  </trkpt>
  <trkpt lat="34.007612" lon="-4.155181">
   <ele>1187.00</ele>
   <time>2014-03-30T11:12:57Z</time>
  </trkpt>
  <trkpt lat="34.007467" lon="-4.155048">
   <ele>1185.00</ele>
   <time>2014-03-30T11:13:02Z</time>
  </trkpt>
  <trkpt lat="34.007338" lon="-4.154852">
   <ele>1184.00</ele>
   <time>2014-03-30T11:13:07Z</time>
  </trkpt>
  <trkpt lat="34.007237" lon="-4.154631">
   <ele>1183.00</ele>
   <time>2014-03-30T11:13:12Z</time>
  </trkpt>
  <trkpt lat="34.007186" lon="-4.154395">
   <ele>1181.00</ele>
   <time>2014-03-30T11:13:17Z</time>
  </trkpt>
  <trkpt lat="34.007110" lon="-4.154175">
   <ele>1180.00</ele>
   <time>2014-03-30T11:13:22Z</time>
  </trkpt>
  <trkpt lat="34.006959" lon="-4.153987">
   <ele>1181.00</ele>
   <time>2014-03-30T11:13:27Z</time>
  </trkpt>
  <trkpt lat="34.006733" lon="-4.153833">
   <ele>1181.00</ele>
   <time>2014-03-30T11:13:32Z</time>
  </trkpt>
  <trkpt lat="34.006558" lon="-4.153750">
   <ele>1181.00</ele>
   <time>2014-03-30T11:13:36Z</time>
  </trkpt>
  <trkpt lat="34.006275" lon="-4.153650">
   <ele>1181.00</ele>
   <time>2014-03-30T11:13:43Z</time>
  </trkpt>
  <trkpt lat="34.006118" lon="-4.153540">
   <ele>1180.00</ele>
   <time>2014-03-30T11:13:47Z</time>
  </trkpt>
  <trkpt lat="34.006046" lon="-4.153323">
   <ele>1180.00</ele>
   <time>2014-03-30T11:13:52Z</time>
  </trkpt>
  <trkpt lat="34.006003" lon="-4.153089">
   <ele>1179.00</ele>
   <time>2014-03-30T11:13:57Z</time>
  </trkpt>
  <trkpt lat="34.006000" lon="-4.152851">
   <ele>1179.00</ele>
   <time>2014-03-30T11:14:02Z</time>
  </trkpt>
  <trkpt lat="34.006029" lon="-4.152636">
   <ele>1179.00</ele>
   <time>2014-03-30T11:14:07Z</time>
  </trkpt>
  <trkpt lat="34.006142" lon="-4.152462">
   <ele>1179.00</ele>
   <time>2014-03-30T11:14:12Z</time>
  </trkpt>
  <trkpt lat="34.006197" lon="-4.152252">
   <ele>1179.00</ele>
   <time>2014-03-30T11:14:17Z</time>
  </trkpt>
  <trkpt lat="34.006178" lon="-4.152004">
   <ele>1180.00</ele>
   <time>2014-03-30T11:14:22Z</time>
  </trkpt>
  <trkpt lat="34.006206" lon="-4.151787">
   <ele>1180.00</ele>
   <time>2014-03-30T11:14:26Z</time>
  </trkpt>
  <trkpt lat="34.006277" lon="-4.151562">
   <ele>1181.00</ele>
   <time>2014-03-30T11:14:30Z</time>
  </trkpt>
  <trkpt lat="34.006422" lon="-4.151395">
   <ele>1181.00</ele>
   <time>2014-03-30T11:14:34Z</time>
  </trkpt>
  <trkpt lat="34.006600" lon="-4.151239">
   <ele>1182.00</ele>
   <time>2014-03-30T11:14:38Z</time>
  </trkpt>
  <trkpt lat="34.006710" lon="-4.151015">
   <ele>1182.00</ele>
   <time>2014-03-30T11:14:42Z</time>
  </trkpt>
  <trkpt lat="34.006822" lon="-4.150783">
   <ele>1183.00</ele>
   <time>2014-03-30T11:14:46Z</time>
  </trkpt>
  <trkpt lat="34.006964" lon="-4.150503">
   <ele>1183.00</ele>
   <time>2014-03-30T11:14:51Z</time>
  </trkpt>
  <trkpt lat="34.006925" lon="-4.150280">
   <ele>1184.00</ele>
   <time>2014-03-30T11:14:56Z</time>
  </trkpt>
  <trkpt lat="34.006774" lon="-4.150134">
   <ele>1185.00</ele>
   <time>2014-03-30T11:15:00Z</time>
  </trkpt>
  <trkpt lat="34.006563" lon="-4.149921">
   <ele>1190.00</ele>
   <time>2014-03-30T11:15:06Z</time>
  </trkpt>
  <trkpt lat="34.006468" lon="-4.149721">
   <ele>1193.00</ele>
   <time>2014-03-30T11:15:11Z</time>
  </trkpt>
  <trkpt lat="34.006310" lon="-4.149534">
   <ele>1196.00</ele>
   <time>2014-03-30T11:15:16Z</time>
  </trkpt>
  <trkpt lat="34.006093" lon="-4.149486">
   <ele>1198.00</ele>
   <time>2014-03-30T11:15:21Z</time>
  </trkpt>
  <trkpt lat="34.005892" lon="-4.149445">
   <ele>1203.00</ele>
   <time>2014-03-30T11:15:26Z</time>
  </trkpt>
  <trkpt lat="34.005695" lon="-4.149541">
   <ele>1205.00</ele>
   <time>2014-03-30T11:15:31Z</time>
  </trkpt>
  <trkpt lat="34.005494" lon="-4.149578">
   <ele>1206.00</ele>
   <time>2014-03-30T11:15:35Z</time>
  </trkpt>
  <trkpt lat="34.005274" lon="-4.149575">
   <ele>1207.00</ele>
   <time>2014-03-30T11:15:39Z</time>
  </trkpt>
  <trkpt lat="34.005093" lon="-4.149616">
   <ele>1210.00</ele>
   <time>2014-03-30T11:15:43Z</time>
  </trkpt>
  <trkpt lat="34.004977" lon="-4.149816">
   <ele>1212.00</ele>
   <time>2014-03-30T11:15:48Z</time>
  </trkpt>
  <trkpt lat="34.004805" lon="-4.149934">
   <ele>1212.00</ele>
   <time>2014-03-30T11:15:53Z</time>
  </trkpt>
  <trkpt lat="34.004611" lon="-4.149924">
   <ele>1211.00</ele>
   <time>2014-03-30T11:15:58Z</time>
  </trkpt>
  <trkpt lat="34.004450" lon="-4.149795">
   <ele>1208.00</ele>
   <time>2014-03-30T11:16:02Z</time>
  </trkpt>
  <trkpt lat="34.004289" lon="-4.149601">
   <ele>1206.00</ele>
   <time>2014-03-30T11:16:06Z</time>
  </trkpt>
  <trkpt lat="34.004125" lon="-4.149446">
   <ele>1206.00</ele>
   <time>2014-03-30T11:16:10Z</time>
  </trkpt>
  <trkpt lat="34.003934" lon="-4.149352">
   <ele>1206.00</ele>
   <time>2014-03-30T11:16:14Z</time>
  </trkpt>
  <trkpt lat="34.003746" lon="-4.149318">
   <ele>1206.00</ele>
   <time>2014-03-30T11:16:18Z</time>
  </trkpt>
  <trkpt lat="34.003440" lon="-4.149279">
   <ele>1207.00</ele>
   <time>2014-03-30T11:16:24Z</time>
  </trkpt>
  <trkpt lat="34.003306" lon="-4.149138">
   <ele>1207.00</ele>
   <time>2014-03-30T11:16:28Z</time>
  </trkpt>
  <trkpt lat="34.003208" lon="-4.148914">
   <ele>1208.00</ele>
   <time>2014-03-30T11:16:32Z</time>
  </trkpt>
  <trkpt lat="34.003167" lon="-4.148660">
   <ele>1209.00</ele>
   <time>2014-03-30T11:16:36Z</time>
  </trkpt>
  <trkpt lat="34.003138" lon="-4.148433">
   <ele>1209.00</ele>
   <time>2014-03-30T11:16:40Z</time>
  </trkpt>
  <trkpt lat="34.003173" lon="-4.148173">
   <ele>1210.00</ele>
   <time>2014-03-30T11:16:45Z</time>
  </trkpt>
  <trkpt lat="34.003075" lon="-4.147947">
   <ele>1211.00</ele>
   <time>2014-03-30T11:16:50Z</time>
  </trkpt>
  <trkpt lat="34.002884" lon="-4.147890">
   <ele>1210.00</ele>
   <time>2014-03-30T11:16:54Z</time>
  </trkpt>
  <trkpt lat="34.002697" lon="-4.147810">
   <ele>1208.00</ele>
   <time>2014-03-30T11:16:58Z</time>
  </trkpt>
  <trkpt lat="34.002481" lon="-4.147730">
   <ele>1207.00</ele>
   <time>2014-03-30T11:17:02Z</time>
  </trkpt>
  <trkpt lat="34.002251" lon="-4.147650">
   <ele>1206.00</ele>
   <time>2014-03-30T11:17:07Z</time>
  </trkpt>
  <trkpt lat="34.002069" lon="-4.147700">
   <ele>1204.00</ele>
   <time>2014-03-30T11:17:11Z</time>
  </trkpt>
  <trkpt lat="34.001853" lon="-4.147764">
   <ele>1203.00</ele>
   <time>2014-03-30T11:17:15Z</time>
  </trkpt>
  <trkpt lat="34.001483" lon="-4.147840">
   <ele>1203.00</ele>
   <time>2014-03-30T11:17:23Z</time>
  </trkpt>
  <trkpt lat="34.001221" lon="-4.147917">
   <ele>1205.00</ele>
   <time>2014-03-30T11:17:28Z</time>
  </trkpt>
  <trkpt lat="34.001013" lon="-4.147974">
   <ele>1206.00</ele>
   <time>2014-03-30T11:17:32Z</time>
  </trkpt>
  <trkpt lat="34.000819" lon="-4.147917">
   <ele>1207.00</ele>
   <time>2014-03-30T11:17:36Z</time>
  </trkpt>
  <trkpt lat="34.000679" lon="-4.147750">
   <ele>1207.00</ele>
   <time>2014-03-30T11:17:40Z</time>
  </trkpt>
  <trkpt lat="34.000536" lon="-4.147594">
   <ele>1208.00</ele>
   <time>2014-03-30T11:17:44Z</time>
  </trkpt>
  <trkpt lat="34.000408" lon="-4.147439">
   <ele>1210.00</ele>
   <time>2014-03-30T11:17:48Z</time>
  </trkpt>
  <trkpt lat="34.000269" lon="-4.147270">
   <ele>1212.00</ele>
   <time>2014-03-30T11:17:52Z</time>
  </trkpt>
  <trkpt lat="34.000129" lon="-4.147101">
   <ele>1212.00</ele>
   <time>2014-03-30T11:17:56Z</time>
  </trkpt>
  <trkpt lat="33.999960" lon="-4.146916">
   <ele>1211.00</ele>
   <time>2014-03-30T11:18:00Z</time>
  </trkpt>
  <trkpt lat="33.999793" lon="-4.146733">
   <ele>1211.00</ele>
   <time>2014-03-30T11:18:04Z</time>
  </trkpt>
  <trkpt lat="33.999668" lon="-4.146557">
   <ele>1210.00</ele>
   <time>2014-03-30T11:18:08Z</time>
  </trkpt>
  <trkpt lat="33.999587" lon="-4.146353">
   <ele>1210.00</ele>
   <time>2014-03-30T11:18:12Z</time>
  </trkpt>
  <trkpt lat="33.999521" lon="-4.146134">
   <ele>1209.00</ele>
   <time>2014-03-30T11:18:16Z</time>
  </trkpt>
  <trkpt lat="33.999453" lon="-4.145920">
   <ele>1209.00</ele>
   <time>2014-03-30T11:18:20Z</time>
  </trkpt>
  <trkpt lat="33.999355" lon="-4.145700">
   <ele>1210.00</ele>
   <time>2014-03-30T11:18:24Z</time>
  </trkpt>
  <trkpt lat="33.999210" lon="-4.145550">
   <ele>1211.00</ele>
   <time>2014-03-30T11:18:28Z</time>
  </trkpt>
  <trkpt lat="33.999018" lon="-4.145406">
   <ele>1213.00</ele>
   <time>2014-03-30T11:18:33Z</time>
  </trkpt>
  <trkpt lat="33.998864" lon="-4.145261">
   <ele>1214.00</ele>
   <time>2014-03-30T11:18:37Z</time>
  </trkpt>
  <trkpt lat="33.998745" lon="-4.145049">
   <ele>1214.00</ele>
   <time>2014-03-30T11:18:41Z</time>
  </trkpt>
  <trkpt lat="33.998688" lon="-4.144836">
   <ele>1214.00</ele>
   <time>2014-03-30T11:18:44Z</time>
  </trkpt>
  <trkpt lat="33.998620" lon="-4.144583">
   <ele>1214.00</ele>
   <time>2014-03-30T11:18:48Z</time>
  </trkpt>
  <trkpt lat="33.998490" lon="-4.144268">
   <ele>1216.00</ele>
   <time>2014-03-30T11:18:53Z</time>
  </trkpt>
  <trkpt lat="33.998466" lon="-4.144010">
   <ele>1216.00</ele>
   <time>2014-03-30T11:18:57Z</time>
  </trkpt>
  <trkpt lat="33.998488" lon="-4.143786">
   <ele>1215.00</ele>
   <time>2014-03-30T11:19:00Z</time>
  </trkpt>
  <trkpt lat="33.998530" lon="-4.143466">
   <ele>1214.00</ele>
   <time>2014-03-30T11:19:04Z</time>
  </trkpt>
  <trkpt lat="33.998535" lon="-4.143238">
   <ele>1213.00</ele>
   <time>2014-03-30T11:19:07Z</time>
  </trkpt>
  <trkpt lat="33.998519" lon="-4.143005">
   <ele>1212.00</ele>
   <time>2014-03-30T11:19:11Z</time>
  </trkpt>
  <trkpt lat="33.998388" lon="-4.142764">
   <ele>1211.00</ele>
   <time>2014-03-30T11:19:16Z</time>
  </trkpt>
  <trkpt lat="33.998192" lon="-4.142441">
   <ele>1208.00</ele>
   <time>2014-03-30T11:19:22Z</time>
  </trkpt>
  <trkpt lat="33.998101" lon="-4.142242">
   <ele>1208.00</ele>
   <time>2014-03-30T11:19:25Z</time>
  </trkpt>
  <trkpt lat="33.998040" lon="-4.141970">
   <ele>1207.00</ele>
   <time>2014-03-30T11:19:29Z</time>
  </trkpt>
  <trkpt lat="33.998074" lon="-4.141750">
   <ele>1207.00</ele>
   <time>2014-03-30T11:19:33Z</time>
  </trkpt>
  <trkpt lat="33.998137" lon="-4.141538">
   <ele>1207.00</ele>
   <time>2014-03-30T11:19:38Z</time>
  </trkpt>
  <trkpt lat="33.998027" lon="-4.141318">
   <ele>1206.00</ele>
   <time>2014-03-30T11:19:43Z</time>
  </trkpt>
  <trkpt lat="33.997973" lon="-4.141070">
   <ele>1205.00</ele>
   <time>2014-03-30T11:19:47Z</time>
  </trkpt>
  <trkpt lat="33.997932" lon="-4.140809">
   <ele>1204.00</ele>
   <time>2014-03-30T11:19:51Z</time>
  </trkpt>
  <trkpt lat="33.997827" lon="-4.140554">
   <ele>1203.00</ele>
   <time>2014-03-30T11:19:55Z</time>
  </trkpt>
  <trkpt lat="33.997693" lon="-4.140321">
   <ele>1203.00</ele>
   <time>2014-03-30T11:19:59Z</time>
  </trkpt>
  <trkpt lat="33.997534" lon="-4.140142">
   <ele>1203.00</ele>
   <time>2014-03-30T11:20:04Z</time>
  </trkpt>
  <trkpt lat="33.997382" lon="-4.139958">
   <ele>1203.00</ele>
   <time>2014-03-30T11:20:09Z</time>
  </trkpt>
  <trkpt lat="33.997203" lon="-4.139841">
   <ele>1204.00</ele>
   <time>2014-03-30T11:20:13Z</time>
  </trkpt>
  <trkpt lat="33.997002" lon="-4.139835">
   <ele>1205.00</ele>
   <time>2014-03-30T11:20:17Z</time>
  </trkpt>
  <trkpt lat="33.996804" lon="-4.139871">
   <ele>1207.00</ele>
   <time>2014-03-30T11:20:21Z</time>
  </trkpt>
  <trkpt lat="33.996619" lon="-4.139867">
   <ele>1209.00</ele>
   <time>2014-03-30T11:20:25Z</time>
  </trkpt>
  <trkpt lat="33.996387" lon="-4.139842">
   <ele>1211.00</ele>
   <time>2014-03-30T11:20:31Z</time>
  </trkpt>
  <trkpt lat="33.996207" lon="-4.139895">
   <ele>1213.00</ele>
   <time>2014-03-30T11:20:35Z</time>
  </trkpt>
  <trkpt lat="33.996011" lon="-4.140004">
   <ele>1214.00</ele>
   <time>2014-03-30T11:20:39Z</time>
  </trkpt>
  <trkpt lat="33.995806" lon="-4.140058">
   <ele>1215.00</ele>
   <time>2014-03-30T11:20:43Z</time>
  </trkpt>
  <trkpt lat="33.995748" lon="-4.139873">
   <ele>1216.00</ele>
   <time>2014-03-30T11:20:47Z</time>
  </trkpt>
  <trkpt lat="33.995838" lon="-4.139664">
   <ele>1217.00</ele>
   <time>2014-03-30T11:20:51Z</time>
  </trkpt>
  <trkpt lat="33.995910" lon="-4.139458">
   <ele>1219.00</ele>
   <time>2014-03-30T11:20:55Z</time>
  </trkpt>
  <trkpt lat="33.996005" lon="-4.139267">
   <ele>1219.00</ele>
   <time>2014-03-30T11:20:59Z</time>
  </trkpt>
  <trkpt lat="33.996172" lon="-4.138948">
   <ele>1219.00</ele>
   <time>2014-03-30T11:21:07Z</time>
  </trkpt>
  <trkpt lat="33.996179" lon="-4.138733">
   <ele>1219.00</ele>
   <time>2014-03-30T11:21:11Z</time>
  </trkpt>
  <trkpt lat="33.996064" lon="-4.138520">
   <ele>1221.00</ele>
   <time>2014-03-30T11:21:15Z</time>
  </trkpt>
  <trkpt lat="33.995923" lon="-4.138305">
   <ele>1222.00</ele>
   <time>2014-03-30T11:21:19Z</time>
  </trkpt>
  <trkpt lat="33.995749" lon="-4.138112">
   <ele>1221.00</ele>
   <time>2014-03-30T11:21:23Z</time>
  </trkpt>
  <trkpt lat="33.995594" lon="-4.137936">
   <ele>1221.00</ele>
   <time>2014-03-30T11:21:27Z</time>
  </trkpt>
  <trkpt lat="33.995356" lon="-4.137711">
   <ele>1221.00</ele>
   <time>2014-03-30T11:21:33Z</time>
  </trkpt>
  <trkpt lat="33.995226" lon="-4.137502">
   <ele>1223.00</ele>
   <time>2014-03-30T11:21:37Z</time>
  </trkpt>
  <trkpt lat="33.995071" lon="-4.137323">
   <ele>1224.00</ele>
   <time>2014-03-30T11:21:41Z</time>
  </trkpt>
  <trkpt lat="33.994934" lon="-4.137133">
   <ele>1224.00</ele>
   <time>2014-03-30T11:21:45Z</time>
  </trkpt>
  <trkpt lat="33.994824" lon="-4.136893">
   <ele>1224.00</ele>
   <time>2014-03-30T11:21:49Z</time>
  </trkpt>
  <trkpt lat="33.994723" lon="-4.136676">
   <ele>1224.00</ele>
   <time>2014-03-30T11:21:52Z</time>
  </trkpt>
  <trkpt lat="33.994613" lon="-4.136471">
   <ele>1223.00</ele>
   <time>2014-03-30T11:21:55Z</time>
  </trkpt>
  <trkpt lat="33.994475" lon="-4.136309">
   <ele>1224.00</ele>
   <time>2014-03-30T11:21:58Z</time>
  </trkpt>
  <trkpt lat="33.994313" lon="-4.136122">
   <ele>1225.00</ele>
   <time>2014-03-30T11:22:02Z</time>
  </trkpt>
  <trkpt lat="33.994236" lon="-4.135921">
   <ele>1226.00</ele>
   <time>2014-03-30T11:22:06Z</time>
  </trkpt>
  <trkpt lat="33.994144" lon="-4.135681">
   <ele>1226.00</ele>
   <time>2014-03-30T11:22:11Z</time>
  </trkpt>
  <trkpt lat="33.994000" lon="-4.135455">
   <ele>1227.00</ele>
   <time>2014-03-30T11:22:15Z</time>
  </trkpt>
  <trkpt lat="33.993695" lon="-4.135025">
   <ele>1229.00</ele>
   <time>2014-03-30T11:22:23Z</time>
  </trkpt>
  <trkpt lat="33.993505" lon="-4.134731">
   <ele>1232.00</ele>
   <time>2014-03-30T11:22:29Z</time>
  </trkpt>
  <trkpt lat="33.993378" lon="-4.134574">
   <ele>1233.00</ele>
   <time>2014-03-30T11:22:33Z</time>
  </trkpt>
  <trkpt lat="33.993282" lon="-4.134380">
   <ele>1235.00</ele>
   <time>2014-03-30T11:22:37Z</time>
  </trkpt>
  <trkpt lat="33.993181" lon="-4.134180">
   <ele>1236.00</ele>
   <time>2014-03-30T11:22:41Z</time>
  </trkpt>
  <trkpt lat="33.992966" lon="-4.133773">
   <ele>1238.00</ele>
   <time>2014-03-30T11:22:48Z</time>
  </trkpt>
  <trkpt lat="33.992854" lon="-4.133598">
   <ele>1239.00</ele>
   <time>2014-03-30T11:22:51Z</time>
  </trkpt>
  <trkpt lat="33.992676" lon="-4.133338">
   <ele>1241.00</ele>
   <time>2014-03-30T11:22:56Z</time>
  </trkpt>
  <trkpt lat="33.992571" lon="-4.133149">
   <ele>1242.00</ele>
   <time>2014-03-30T11:23:00Z</time>
  </trkpt>
  <trkpt lat="33.992405" lon="-4.132883">
   <ele>1242.00</ele>
   <time>2014-03-30T11:23:05Z</time>
  </trkpt>
  <trkpt lat="33.992296" lon="-4.132671">
   <ele>1243.00</ele>
   <time>2014-03-30T11:23:08Z</time>
  </trkpt>
  <trkpt lat="33.992240" lon="-4.132432">
   <ele>1243.00</ele>
   <time>2014-03-30T11:23:12Z</time>
  </trkpt>
  <trkpt lat="33.992328" lon="-4.132246">
   <ele>1242.00</ele>
   <time>2014-03-30T11:23:16Z</time>
  </trkpt>
  <trkpt lat="33.992470" lon="-4.132061">
   <ele>1241.00</ele>
   <time>2014-03-30T11:23:20Z</time>
  </trkpt>
  <trkpt lat="33.992568" lon="-4.131827">
   <ele>1240.00</ele>
   <time>2014-03-30T11:23:24Z</time>
  </trkpt>
  <trkpt lat="33.992537" lon="-4.131573">
   <ele>1240.00</ele>
   <time>2014-03-30T11:23:28Z</time>
  </trkpt>
  <trkpt lat="33.992525" lon="-4.131312">
   <ele>1240.00</ele>
   <time>2014-03-30T11:23:33Z</time>
  </trkpt>
  <trkpt lat="33.992632" lon="-4.131088">
   <ele>1239.00</ele>
   <time>2014-03-30T11:23:38Z</time>
  </trkpt>
  <trkpt lat="33.992742" lon="-4.130905">
   <ele>1237.00</ele>
   <time>2014-03-30T11:23:42Z</time>
  </trkpt>
  <trkpt lat="33.992826" lon="-4.130698">
   <ele>1236.00</ele>
   <time>2014-03-30T11:23:46Z</time>
  </trkpt>
  <trkpt lat="33.992826" lon="-4.130469">
   <ele>1235.00</ele>
   <time>2014-03-30T11:23:50Z</time>
  </trkpt>
  <trkpt lat="33.992715" lon="-4.130280">
   <ele>1235.00</ele>
   <time>2014-03-30T11:23:55Z</time>
  </trkpt>
  <trkpt lat="33.992519" lon="-4.130271">
   <ele>1237.00</ele>
   <time>2014-03-30T11:23:59Z</time>
  </trkpt>
  <trkpt lat="33.992333" lon="-4.130176">
   <ele>1239.00</ele>
   <time>2014-03-30T11:24:03Z</time>
  </trkpt>
  <trkpt lat="33.992176" lon="-4.130014">
   <ele>1242.00</ele>
   <time>2014-03-30T11:24:07Z</time>
  </trkpt>
  <trkpt lat="33.992040" lon="-4.129858">
   <ele>1244.00</ele>
   <time>2014-03-30T11:24:11Z</time>
  </trkpt>
  <trkpt lat="33.991902" lon="-4.129669">
   <ele>1246.00</ele>
   <time>2014-03-30T11:24:16Z</time>
  </trkpt>
  <trkpt lat="33.991829" lon="-4.129432">
   <ele>1248.00</ele>
   <time>2014-03-30T11:24:20Z</time>
  </trkpt>
  <trkpt lat="33.991700" lon="-4.128900">
   <ele>1252.00</ele>
   <time>2014-03-30T11:24:28Z</time>
  </trkpt>
  <trkpt lat="33.991606" lon="-4.128686">
   <ele>1253.00</ele>
   <time>2014-03-30T11:24:32Z</time>
  </trkpt>
  <trkpt lat="33.991521" lon="-4.128490">
   <ele>1253.00</ele>
   <time>2014-03-30T11:24:36Z</time>
  </trkpt>
  <trkpt lat="33.991459" lon="-4.128262">
   <ele>1253.00</ele>
   <time>2014-03-30T11:24:40Z</time>
  </trkpt>
  <trkpt lat="33.991467" lon="-4.128046">
   <ele>1253.00</ele>
   <time>2014-03-30T11:24:44Z</time>
  </trkpt>
  <trkpt lat="33.991573" lon="-4.127785">
   <ele>1253.00</ele>
   <time>2014-03-30T11:24:50Z</time>
  </trkpt>
  <trkpt lat="33.991572" lon="-4.127566">
   <ele>1252.00</ele>
   <time>2014-03-30T11:24:54Z</time>
  </trkpt>
  <trkpt lat="33.991525" lon="-4.127325">
   <ele>1252.00</ele>
   <time>2014-03-30T11:24:58Z</time>
  </trkpt>
  <trkpt lat="33.991532" lon="-4.127084">
   <ele>1252.00</ele>
   <time>2014-03-30T11:25:02Z</time>
  </trkpt>
  <trkpt lat="33.991602" lon="-4.126854">
   <ele>1252.00</ele>
   <time>2014-03-30T11:25:06Z</time>
  </trkpt>
  <trkpt lat="33.991615" lon="-4.126600">
   <ele>1250.00</ele>
   <time>2014-03-30T11:25:10Z</time>
  </trkpt>
  <trkpt lat="33.991544" lon="-4.126278">
   <ele>1249.00</ele>
   <time>2014-03-30T11:25:15Z</time>
  </trkpt>
  <trkpt lat="33.991563" lon="-4.126038">
   <ele>1249.00</ele>
   <time>2014-03-30T11:25:19Z</time>
  </trkpt>
  <trkpt lat="33.991663" lon="-4.125812">
   <ele>1248.00</ele>
   <time>2014-03-30T11:25:23Z</time>
  </trkpt>
  <trkpt lat="33.991700" lon="-4.125580">
   <ele>1247.00</ele>
   <time>2014-03-30T11:25:28Z</time>
  </trkpt>
  <trkpt lat="33.991678" lon="-4.125302">
   <ele>1247.00</ele>
   <time>2014-03-30T11:25:33Z</time>
  </trkpt>
  <trkpt lat="33.991737" lon="-4.125075">
   <ele>1248.00</ele>
   <time>2014-03-30T11:25:38Z</time>
  </trkpt>
  <trkpt lat="33.991922" lon="-4.125013">
   <ele>1249.00</ele>
   <time>2014-03-30T11:25:43Z</time>
  </trkpt>
  <trkpt lat="33.992117" lon="-4.124900">
   <ele>1251.00</ele>
   <time>2014-03-30T11:25:48Z</time>
  </trkpt>
  <trkpt lat="33.992236" lon="-4.124728">
   <ele>1252.00</ele>
   <time>2014-03-30T11:25:52Z</time>
  </trkpt>
  <trkpt lat="33.992305" lon="-4.124525">
   <ele>1254.00</ele>
   <time>2014-03-30T11:25:56Z</time>
  </trkpt>
  <trkpt lat="33.992496" lon="-4.124388">
   <ele>1256.00</ele>
   <time>2014-03-30T11:26:01Z</time>
  </trkpt>
  <trkpt lat="33.992658" lon="-4.124295">
   <ele>1256.00</ele>
   <time>2014-03-30T11:26:05Z</time>
  </trkpt>
  <trkpt lat="33.992732" lon="-4.124071">
   <ele>1257.00</ele>
   <time>2014-03-30T11:26:10Z</time>
  </trkpt>
  <trkpt lat="33.992733" lon="-4.123820">
   <ele>1259.00</ele>
   <time>2014-03-30T11:26:15Z</time>
  </trkpt>
  <trkpt lat="33.992796" lon="-4.123599">
   <ele>1260.00</ele>
   <time>2014-03-30T11:26:20Z</time>
  </trkpt>
  <trkpt lat="33.992928" lon="-4.123459">
   <ele>1261.00</ele>
   <time>2014-03-30T11:26:24Z</time>
  </trkpt>
  <trkpt lat="33.993119" lon="-4.123517">
   <ele>1262.00</ele>
   <time>2014-03-30T11:26:29Z</time>
  </trkpt>
  <trkpt lat="33.993262" lon="-4.123702">
   <ele>1261.00</ele>
   <time>2014-03-30T11:26:34Z</time>
  </trkpt>
  <trkpt lat="33.993392" lon="-4.123855">
   <ele>1261.00</ele>
   <time>2014-03-30T11:26:38Z</time>
  </trkpt>
  <trkpt lat="33.993612" lon="-4.123904">
   <ele>1261.00</ele>
   <time>2014-03-30T11:26:44Z</time>
  </trkpt>
  <trkpt lat="33.993805" lon="-4.123848">
   <ele>1262.00</ele>
   <time>2014-03-30T11:26:48Z</time>
  </trkpt>
  <trkpt lat="33.993973" lon="-4.123733">
   <ele>1264.00</ele>
   <time>2014-03-30T11:26:52Z</time>
  </trkpt>
  <trkpt lat="33.994122" lon="-4.123599">
   <ele>1266.00</ele>
   <time>2014-03-30T11:26:56Z</time>
  </trkpt>
  <trkpt lat="33.994243" lon="-4.123416">
   <ele>1268.00</ele>
   <time>2014-03-30T11:27:00Z</time>
  </trkpt>
  <trkpt lat="33.994321" lon="-4.123213">
   <ele>1271.00</ele>
   <time>2014-03-30T11:27:04Z</time>
  </trkpt>
  <trkpt lat="33.994358" lon="-4.122993">
   <ele>1273.00</ele>
   <time>2014-03-30T11:27:08Z</time>
  </trkpt>
  <trkpt lat="33.994418" lon="-4.122775">
   <ele>1274.00</ele>
   <time>2014-03-30T11:27:12Z</time>
  </trkpt>
  <trkpt lat="33.994462" lon="-4.122549">
   <ele>1276.00</ele>
   <time>2014-03-30T11:27:16Z</time>
  </trkpt>
  <trkpt lat="33.994487" lon="-4.122319">
   <ele>1278.00</ele>
   <time>2014-03-30T11:27:20Z</time>
  </trkpt>
  <trkpt lat="33.994542" lon="-4.122101">
   <ele>1279.00</ele>
   <time>2014-03-30T11:27:24Z</time>
  </trkpt>
  <trkpt lat="33.994646" lon="-4.121884">
   <ele>1280.00</ele>
   <time>2014-03-30T11:27:29Z</time>
  </trkpt>
  <trkpt lat="33.994653" lon="-4.121667">
   <ele>1281.00</ele>
   <time>2014-03-30T11:27:33Z</time>
  </trkpt>
  <trkpt lat="33.994662" lon="-4.121411">
   <ele>1283.00</ele>
   <time>2014-03-30T11:27:38Z</time>
  </trkpt>
  <trkpt lat="33.994755" lon="-4.121217">
   <ele>1283.00</ele>
   <time>2014-03-30T11:27:43Z</time>
  </trkpt>
  <trkpt lat="33.994835" lon="-4.121018">
   <ele>1284.00</ele>
   <time>2014-03-30T11:27:48Z</time>
  </trkpt>
  <trkpt lat="33.994899" lon="-4.120791">
   <ele>1286.00</ele>
   <time>2014-03-30T11:27:53Z</time>
  </trkpt>
  <trkpt lat="33.994965" lon="-4.120557">
   <ele>1287.00</ele>
   <time>2014-03-30T11:27:58Z</time>
  </trkpt>
  <trkpt lat="33.995019" lon="-4.120325">
   <ele>1289.00</ele>
   <time>2014-03-30T11:28:03Z</time>
  </trkpt>
  <trkpt lat="33.995079" lon="-4.120096">
   <ele>1290.00</ele>
   <time>2014-03-30T11:28:08Z</time>
  </trkpt>
  <trkpt lat="33.995169" lon="-4.119844">
   <ele>1291.00</ele>
   <time>2014-03-30T11:28:13Z</time>
  </trkpt>
  <trkpt lat="33.995236" lon="-4.119590">
   <ele>1291.00</ele>
   <time>2014-03-30T11:28:18Z</time>
  </trkpt>
  <trkpt lat="33.995308" lon="-4.119347">
   <ele>1291.00</ele>
   <time>2014-03-30T11:28:23Z</time>
  </trkpt>
  <trkpt lat="33.995324" lon="-4.119127">
   <ele>1292.00</ele>
   <time>2014-03-30T11:28:27Z</time>
  </trkpt>
  <trkpt lat="33.995391" lon="-4.118915">
   <ele>1292.00</ele>
   <time>2014-03-30T11:28:31Z</time>
  </trkpt>
  <trkpt lat="33.995497" lon="-4.118682">
   <ele>1294.00</ele>
   <time>2014-03-30T11:28:36Z</time>
  </trkpt>
  <trkpt lat="33.995558" lon="-4.118438">
   <ele>1295.00</ele>
   <time>2014-03-30T11:28:41Z</time>
  </trkpt>
  <trkpt lat="33.995597" lon="-4.118210">
   <ele>1297.00</ele>
   <time>2014-03-30T11:28:45Z</time>
  </trkpt>
  <trkpt lat="33.995676" lon="-4.117992">
   <ele>1298.00</ele>
   <time>2014-03-30T11:28:49Z</time>
  </trkpt>
  <trkpt lat="33.995778" lon="-4.117770">
   <ele>1298.00</ele>
   <time>2014-03-30T11:28:53Z</time>
  </trkpt>
  <trkpt lat="33.995853" lon="-4.117539">
   <ele>1299.00</ele>
   <time>2014-03-30T11:28:57Z</time>
  </trkpt>
  <trkpt lat="33.995919" lon="-4.117327">
   <ele>1301.00</ele>
   <time>2014-03-30T11:29:01Z</time>
  </trkpt>
  <trkpt lat="33.995956" lon="-4.117112">
   <ele>1302.00</ele>
   <time>2014-03-30T11:29:05Z</time>
  </trkpt>
  <trkpt lat="33.995987" lon="-4.116819">
   <ele>1304.00</ele>
   <time>2014-03-30T11:29:10Z</time>
  </trkpt>
  <trkpt lat="33.996043" lon="-4.116580">
   <ele>1305.00</ele>
   <time>2014-03-30T11:29:15Z</time>
  </trkpt>
  <trkpt lat="33.996115" lon="-4.116279">
   <ele>1306.00</ele>
   <time>2014-03-30T11:29:21Z</time>
  </trkpt>
  <trkpt lat="33.996234" lon="-4.116093">
   <ele>1307.00</ele>
   <time>2014-03-30T11:29:25Z</time>
  </trkpt>
  <trkpt lat="33.996359" lon="-4.115897">
   <ele>1309.00</ele>
   <time>2014-03-30T11:29:30Z</time>
  </trkpt>
  <trkpt lat="33.996450" lon="-4.115678">
   <ele>1310.00</ele>
   <time>2014-03-30T11:29:35Z</time>
  </trkpt>
  <trkpt lat="33.996557" lon="-4.115467">
   <ele>1311.00</ele>
   <time>2014-03-30T11:29:40Z</time>
  </trkpt>
  <trkpt lat="33.996610" lon="-4.115154">
   <ele>1312.00</ele>
   <time>2014-03-30T11:29:46Z</time>
  </trkpt>
  <trkpt lat="33.996717" lon="-4.114926">
   <ele>1313.00</ele>
   <time>2014-03-30T11:29:51Z</time>
  </trkpt>
  <trkpt lat="33.996848" lon="-4.114760">
   <ele>1313.00</ele>
   <time>2014-03-30T11:29:56Z</time>
  </trkpt>
  <trkpt lat="33.996966" lon="-4.114568">
   <ele>1315.00</ele>
   <time>2014-03-30T11:30:02Z</time>
  </trkpt>
  <trkpt lat="33.997065" lon="-4.114285">
   <ele>1317.00</ele>
   <time>2014-03-30T11:30:09Z</time>
  </trkpt>
  <trkpt lat="33.997170" lon="-4.114032">
   <ele>1317.00</ele>
   <time>2014-03-30T11:30:15Z</time>
  </trkpt>
  <trkpt lat="33.997279" lon="-4.113809">
   <ele>1318.00</ele>
   <time>2014-03-30T11:30:21Z</time>
  </trkpt>
  <trkpt lat="33.997305" lon="-4.113698">
   <ele>1320.00</ele>
   <time>2014-03-30T11:30:37Z</time>
  </trkpt>
  <trkpt lat="33.997293" lon="-4.113703">
   <ele>1322.00</ele>
   <time>2014-03-30T11:30:52Z</time>
  </trkpt>
  <trkpt lat="33.997281" lon="-4.113705">
   <ele>1325.00</ele>
   <time>2014-03-30T11:31:08Z</time>
  </trkpt>
  <trkpt lat="33.997272" lon="-4.113706">
   <ele>1327.00</ele>
   <time>2014-03-30T11:31:23Z</time>
  </trkpt>
  <trkpt lat="33.997303" lon="-4.113704">
   <ele>1320.00</ele>
   <time>2014-03-30T11:31:38Z</time>
  </trkpt>
  <trkpt lat="33.997347" lon="-4.113562">
   <ele>1316.00</ele>
   <time>2014-03-30T11:31:54Z</time>
  </trkpt>
  <trkpt lat="33.997428" lon="-4.113317">
   <ele>1316.00</ele>
   <time>2014-03-30T11:32:00Z</time>
  </trkpt>
  <trkpt lat="33.997511" lon="-4.113074">
   <ele>1317.00</ele>
   <time>2014-03-30T11:32:05Z</time>
  </trkpt>
  <trkpt lat="33.997575" lon="-4.112821">
   <ele>1318.00</ele>
   <time>2014-03-30T11:32:10Z</time>
  </trkpt>
  <trkpt lat="33.997680" lon="-4.112644">
   <ele>1318.00</ele>
   <time>2014-03-30T11:32:14Z</time>
  </trkpt>
  <trkpt lat="33.997766" lon="-4.112423">
   <ele>1319.00</ele>
   <time>2014-03-30T11:32:19Z</time>
  </trkpt>
  <trkpt lat="33.997782" lon="-4.112173">
   <ele>1320.00</ele>
   <time>2014-03-30T11:32:24Z</time>
  </trkpt>
  <trkpt lat="33.997824" lon="-4.111955">
   <ele>1322.00</ele>
   <time>2014-03-30T11:32:28Z</time>
  </trkpt>
  <trkpt lat="33.997942" lon="-4.111612">
   <ele>1324.00</ele>
   <time>2014-03-30T11:32:35Z</time>
  </trkpt>
  <trkpt lat="33.997985" lon="-4.111398">
   <ele>1324.00</ele>
   <time>2014-03-30T11:32:40Z</time>
  </trkpt>
  <trkpt lat="33.998079" lon="-4.111179">
   <ele>1325.00</ele>
   <time>2014-03-30T11:32:45Z</time>
  </trkpt>
  <trkpt lat="33.998208" lon="-4.110990">
   <ele>1326.00</ele>
   <time>2014-03-30T11:32:50Z</time>
  </trkpt>
  <trkpt lat="33.998301" lon="-4.110750">
   <ele>1325.00</ele>
   <time>2014-03-30T11:32:55Z</time>
  </trkpt>
  <trkpt lat="33.998336" lon="-4.110515">
   <ele>1324.00</ele>
   <time>2014-03-30T11:32:59Z</time>
  </trkpt>
  <trkpt lat="33.998344" lon="-4.110278">
   <ele>1323.00</ele>
   <time>2014-03-30T11:33:03Z</time>
  </trkpt>
  <trkpt lat="33.998344" lon="-4.110058">
   <ele>1323.00</ele>
   <time>2014-03-30T11:33:07Z</time>
  </trkpt>
  <trkpt lat="33.998324" lon="-4.109808">
   <ele>1322.00</ele>
   <time>2014-03-30T11:33:12Z</time>
  </trkpt>
  <trkpt lat="33.998369" lon="-4.109574">
   <ele>1323.00</ele>
   <time>2014-03-30T11:33:17Z</time>
  </trkpt>
  <trkpt lat="33.998559" lon="-4.109511">
   <ele>1323.00</ele>
   <time>2014-03-30T11:33:23Z</time>
  </trkpt>
  <trkpt lat="33.998751" lon="-4.109498">
   <ele>1324.00</ele>
   <time>2014-03-30T11:33:28Z</time>
  </trkpt>
  <trkpt lat="33.998915" lon="-4.109382">
   <ele>1326.00</ele>
   <time>2014-03-30T11:33:33Z</time>
  </trkpt>
  <trkpt lat="33.999080" lon="-4.109242">
   <ele>1328.00</ele>
   <time>2014-03-30T11:33:38Z</time>
  </trkpt>
  <trkpt lat="33.999195" lon="-4.109071">
   <ele>1328.00</ele>
   <time>2014-03-30T11:33:43Z</time>
  </trkpt>
  <trkpt lat="33.999254" lon="-4.108835">
   <ele>1328.00</ele>
   <time>2014-03-30T11:33:49Z</time>
  </trkpt>
  <trkpt lat="33.999307" lon="-4.108589">
   <ele>1329.00</ele>
   <time>2014-03-30T11:33:54Z</time>
  </trkpt>
  <trkpt lat="33.999393" lon="-4.108397">
   <ele>1329.00</ele>
   <time>2014-03-30T11:33:58Z</time>
  </trkpt>
  <trkpt lat="33.999545" lon="-4.108207">
   <ele>1330.00</ele>
   <time>2014-03-30T11:34:03Z</time>
  </trkpt>
  <trkpt lat="33.999712" lon="-4.108037">
   <ele>1333.00</ele>
   <time>2014-03-30T11:34:08Z</time>
  </trkpt>
  <trkpt lat="33.999819" lon="-4.107849">
   <ele>1334.00</ele>
   <time>2014-03-30T11:34:12Z</time>
  </trkpt>
  <trkpt lat="33.999942" lon="-4.107638">
   <ele>1335.00</ele>
   <time>2014-03-30T11:34:16Z</time>
  </trkpt>
  <trkpt lat="34.000117" lon="-4.107396">
   <ele>1336.00</ele>
   <time>2014-03-30T11:34:21Z</time>
  </trkpt>
  <trkpt lat="34.000240" lon="-4.107181">
   <ele>1336.00</ele>
   <time>2014-03-30T11:34:25Z</time>
  </trkpt>
  <trkpt lat="34.000355" lon="-4.106954">
   <ele>1337.00</ele>
   <time>2014-03-30T11:34:29Z</time>
  </trkpt>
  <trkpt lat="34.000480" lon="-4.106672">
   <ele>1338.00</ele>
   <time>2014-03-30T11:34:34Z</time>
  </trkpt>
  <trkpt lat="34.000562" lon="-4.106445">
   <ele>1338.00</ele>
   <time>2014-03-30T11:34:38Z</time>
  </trkpt>
  <trkpt lat="34.000684" lon="-4.106231">
   <ele>1338.00</ele>
   <time>2014-03-30T11:34:42Z</time>
  </trkpt>
  <trkpt lat="34.000807" lon="-4.106035">
   <ele>1338.00</ele>
   <time>2014-03-30T11:34:46Z</time>
  </trkpt>
  <trkpt lat="34.000897" lon="-4.105781">
   <ele>1338.00</ele>
   <time>2014-03-30T11:34:50Z</time>
  </trkpt>
  <trkpt lat="34.000961" lon="-4.105578">
   <ele>1339.00</ele>
   <time>2014-03-30T11:34:53Z</time>
  </trkpt>
  <trkpt lat="34.001041" lon="-4.105356">
   <ele>1339.00</ele>
   <time>2014-03-30T11:34:57Z</time>
  </trkpt>
  <trkpt lat="34.001136" lon="-4.105147">
   <ele>1339.00</ele>
   <time>2014-03-30T11:35:01Z</time>
  </trkpt>
  <trkpt lat="34.001250" lon="-4.104944">
   <ele>1340.00</ele>
   <time>2014-03-30T11:35:05Z</time>
  </trkpt>
  <trkpt lat="34.001354" lon="-4.104724">
   <ele>1342.00</ele>
   <time>2014-03-30T11:35:09Z</time>
  </trkpt>
  <trkpt lat="34.001587" lon="-4.104230">
   <ele>1345.00</ele>
   <time>2014-03-30T11:35:19Z</time>
  </trkpt>
  <trkpt lat="34.001674" lon="-4.104040">
   <ele>1347.00</ele>
   <time>2014-03-30T11:35:23Z</time>
  </trkpt>
  <trkpt lat="34.001761" lon="-4.103805">
   <ele>1349.00</ele>
   <time>2014-03-30T11:35:28Z</time>
  </trkpt>
  <trkpt lat="34.001862" lon="-4.103479">
   <ele>1348.00</ele>
   <time>2014-03-30T11:35:35Z</time>
  </trkpt>
  <trkpt lat="34.001917" lon="-4.103223">
   <ele>1347.00</ele>
   <time>2014-03-30T11:35:40Z</time>
  </trkpt>
  <trkpt lat="34.001905" lon="-4.102965">
   <ele>1346.00</ele>
   <time>2014-03-30T11:35:45Z</time>
  </trkpt>
  <trkpt lat="34.001863" lon="-4.102736">
   <ele>1346.00</ele>
   <time>2014-03-30T11:35:49Z</time>
  </trkpt>
  <trkpt lat="34.001858" lon="-4.102470">
   <ele>1347.00</ele>
   <time>2014-03-30T11:35:54Z</time>
  </trkpt>
  <trkpt lat="34.001887" lon="-4.102253">
   <ele>1346.00</ele>
   <time>2014-03-30T11:35:58Z</time>
  </trkpt>
  <trkpt lat="34.001882" lon="-4.101901">
   <ele>1346.00</ele>
   <time>2014-03-30T11:36:03Z</time>
  </trkpt>
  <trkpt lat="34.001866" lon="-4.101464">
   <ele>1345.00</ele>
   <time>2014-03-30T11:36:08Z</time>
  </trkpt>
  <trkpt lat="34.001884" lon="-4.101190">
   <ele>1345.00</ele>
   <time>2014-03-30T11:36:11Z</time>
  </trkpt>
  <trkpt lat="34.001931" lon="-4.100915">
   <ele>1345.00</ele>
   <time>2014-03-30T11:36:14Z</time>
  </trkpt>
  <trkpt lat="34.002030" lon="-4.100661">
   <ele>1345.00</ele>
   <time>2014-03-30T11:36:17Z</time>
  </trkpt>
  <trkpt lat="34.002183" lon="-4.100451">
   <ele>1344.00</ele>
   <time>2014-03-30T11:36:20Z</time>
  </trkpt>
  <trkpt lat="34.002351" lon="-4.100240">
   <ele>1344.00</ele>
   <time>2014-03-30T11:36:23Z</time>
  </trkpt>
  <trkpt lat="34.002480" lon="-4.099993">
   <ele>1343.00</ele>
   <time>2014-03-30T11:36:26Z</time>
  </trkpt>
  <trkpt lat="34.002525" lon="-4.099716">
   <ele>1344.00</ele>
   <time>2014-03-30T11:36:29Z</time>
  </trkpt>
  <trkpt lat="34.002471" lon="-4.099414">
   <ele>1345.00</ele>
   <time>2014-03-30T11:36:32Z</time>
  </trkpt>
  <trkpt lat="34.002462" lon="-4.099102">
   <ele>1345.00</ele>
   <time>2014-03-30T11:36:35Z</time>
  </trkpt>
  <trkpt lat="34.002539" lon="-4.098805">
   <ele>1346.00</ele>
   <time>2014-03-30T11:36:38Z</time>
  </trkpt>
  <trkpt lat="34.002653" lon="-4.098535">
   <ele>1347.00</ele>
   <time>2014-03-30T11:36:41Z</time>
  </trkpt>
  <trkpt lat="34.002723" lon="-4.098269">
   <ele>1349.00</ele>
   <time>2014-03-30T11:36:44Z</time>
  </trkpt>
  <trkpt lat="34.002710" lon="-4.097984">
   <ele>1350.00</ele>
   <time>2014-03-30T11:36:47Z</time>
  </trkpt>
  <trkpt lat="34.002711" lon="-4.097700">
   <ele>1351.00</ele>
   <time>2014-03-30T11:36:50Z</time>
  </trkpt>
  <trkpt lat="34.002737" lon="-4.097413">
   <ele>1353.00</ele>
   <time>2014-03-30T11:36:53Z</time>
  </trkpt>
  <trkpt lat="34.002875" lon="-4.097176">
   <ele>1354.00</ele>
   <time>2014-03-30T11:36:56Z</time>
  </trkpt>
  <trkpt lat="34.003142" lon="-4.096874">
   <ele>1355.00</ele>
   <time>2014-03-30T11:37:00Z</time>
  </trkpt>
  <trkpt lat="34.003268" lon="-4.096691">
   <ele>1356.00</ele>
   <time>2014-03-30T11:37:02Z</time>
  </trkpt>
  <trkpt lat="34.003377" lon="-4.096496">
   <ele>1357.00</ele>
   <time>2014-03-30T11:37:04Z</time>
  </trkpt>
  <trkpt lat="34.003447" lon="-4.096284">
   <ele>1359.00</ele>
   <time>2014-03-30T11:37:06Z</time>
  </trkpt>
  <trkpt lat="34.003454" lon="-4.096052">
   <ele>1360.00</ele>
   <time>2014-03-30T11:37:08Z</time>
  </trkpt>
  <trkpt lat="34.003429" lon="-4.095817">
   <ele>1362.00</ele>
   <time>2014-03-30T11:37:10Z</time>
  </trkpt>
  <trkpt lat="34.003392" lon="-4.095581">
   <ele>1363.00</ele>
   <time>2014-03-30T11:37:12Z</time>
  </trkpt>
  <trkpt lat="34.003327" lon="-4.095224">
   <ele>1365.00</ele>
   <time>2014-03-30T11:37:15Z</time>
  </trkpt>
  <trkpt lat="34.003268" lon="-4.095002">
   <ele>1366.00</ele>
   <time>2014-03-30T11:37:17Z</time>
  </trkpt>
  <trkpt lat="34.003188" lon="-4.094805">
   <ele>1367.00</ele>
   <time>2014-03-30T11:37:19Z</time>
  </trkpt>
  <trkpt lat="34.003087" lon="-4.094507">
   <ele>1367.00</ele>
   <time>2014-03-30T11:37:22Z</time>
  </trkpt>
  <trkpt lat="34.003113" lon="-4.094185">
   <ele>1368.00</ele>
   <time>2014-03-30T11:37:25Z</time>
  </trkpt>
  <trkpt lat="34.003183" lon="-4.093969">
   <ele>1368.00</ele>
   <time>2014-03-30T11:37:27Z</time>
  </trkpt>
  <trkpt lat="34.003437" lon="-4.093229">
   <ele>1370.00</ele>
   <time>2014-03-30T11:37:34Z</time>
  </trkpt>
  <trkpt lat="34.003477" lon="-4.093008">
   <ele>1370.00</ele>
   <time>2014-03-30T11:37:36Z</time>
  </trkpt>
  <trkpt lat="34.003465" lon="-4.092773">
   <ele>1371.00</ele>
   <time>2014-03-30T11:37:38Z</time>
  </trkpt>
  <trkpt lat="34.003422" lon="-4.092542">
   <ele>1370.00</ele>
   <time>2014-03-30T11:37:40Z</time>
  </trkpt>
  <trkpt lat="34.003347" lon="-4.092327">
   <ele>1370.00</ele>
   <time>2014-03-30T11:37:42Z</time>
  </trkpt>
  <trkpt lat="34.003237" lon="-4.092141">
   <ele>1370.00</ele>
   <time>2014-03-30T11:37:44Z</time>
  </trkpt>
  <trkpt lat="34.003112" lon="-4.091968">
   <ele>1370.00</ele>
   <time>2014-03-30T11:37:46Z</time>
  </trkpt>
  <trkpt lat="34.002974" lon="-4.091811">
   <ele>1369.00</ele>
   <time>2014-03-30T11:37:48Z</time>
  </trkpt>
  <trkpt lat="34.002817" lon="-4.091690">
   <ele>1369.00</ele>
   <time>2014-03-30T11:37:50Z</time>
  </trkpt>
  <trkpt lat="34.002641" lon="-4.091637">
   <ele>1368.00</ele>
   <time>2014-03-30T11:37:52Z</time>
  </trkpt>
  <trkpt lat="34.002384" lon="-4.091699">
   <ele>1367.00</ele>
   <time>2014-03-30T11:37:55Z</time>
  </trkpt>
  <trkpt lat="34.002182" lon="-4.091637">
   <ele>1365.00</ele>
   <time>2014-03-30T11:37:58Z</time>
  </trkpt>
  <trkpt lat="34.002090" lon="-4.091374">
   <ele>1364.00</ele>
   <time>2014-03-30T11:38:01Z</time>
  </trkpt>
  <trkpt lat="34.002090" lon="-4.091052">
   <ele>1363.00</ele>
   <time>2014-03-30T11:38:04Z</time>
  </trkpt>
  <trkpt lat="34.002116" lon="-4.090836">
   <ele>1362.00</ele>
   <time>2014-03-30T11:38:06Z</time>
  </trkpt>
  <trkpt lat="34.002162" lon="-4.090622">
   <ele>1362.00</ele>
   <time>2014-03-30T11:38:08Z</time>
  </trkpt>
  <trkpt lat="34.002265" lon="-4.090438">
   <ele>1361.00</ele>
   <time>2014-03-30T11:38:10Z</time>
  </trkpt>
  <trkpt lat="34.002425" lon="-4.090314">
   <ele>1360.00</ele>
   <time>2014-03-30T11:38:12Z</time>
  </trkpt>
  <trkpt lat="34.002590" lon="-4.090198">
   <ele>1360.00</ele>
   <time>2014-03-30T11:38:14Z</time>
  </trkpt>
  <trkpt lat="34.002710" lon="-4.090035">
   <ele>1359.00</ele>
   <time>2014-03-30T11:38:16Z</time>
  </trkpt>
  <trkpt lat="34.002791" lon="-4.089732">
   <ele>1360.00</ele>
   <time>2014-03-30T11:38:19Z</time>
  </trkpt>
  <trkpt lat="34.002897" lon="-4.089227">
   <ele>1360.00</ele>
   <time>2014-03-30T11:38:24Z</time>
  </trkpt>
  <trkpt lat="34.002890" lon="-4.088900">
   <ele>1359.00</ele>
   <time>2014-03-30T11:38:27Z</time>
  </trkpt>
  <trkpt lat="34.002815" lon="-4.088411">
   <ele>1358.00</ele>
   <time>2014-03-30T11:38:31Z</time>
  </trkpt>
  <trkpt lat="34.002806" lon="-4.088164">
   <ele>1357.00</ele>
   <time>2014-03-30T11:38:33Z</time>
  </trkpt>
  <trkpt lat="34.002831" lon="-4.087923">
   <ele>1356.00</ele>
   <time>2014-03-30T11:38:35Z</time>
  </trkpt>
  <trkpt lat="34.002902" lon="-4.087689">
   <ele>1355.00</ele>
   <time>2014-03-30T11:38:37Z</time>
  </trkpt>
  <trkpt lat="34.003015" lon="-4.087475">
   <ele>1355.00</ele>
   <time>2014-03-30T11:38:39Z</time>
  </trkpt>
  <trkpt lat="34.003162" lon="-4.087298">
   <ele>1354.00</ele>
   <time>2014-03-30T11:38:41Z</time>
  </trkpt>
  <trkpt lat="34.003341" lon="-4.087162">
   <ele>1353.00</ele>
   <time>2014-03-30T11:38:43Z</time>
  </trkpt>
  <trkpt lat="34.003523" lon="-4.087016">
   <ele>1352.00</ele>
   <time>2014-03-30T11:38:45Z</time>
  </trkpt>
  <trkpt lat="34.003884" lon="-4.086692">
   <ele>1350.00</ele>
   <time>2014-03-30T11:38:49Z</time>
  </trkpt>
  <trkpt lat="34.004073" lon="-4.086556">
   <ele>1349.00</ele>
   <time>2014-03-30T11:38:51Z</time>
  </trkpt>
  <trkpt lat="34.004263" lon="-4.086480">
   <ele>1349.00</ele>
   <time>2014-03-30T11:38:53Z</time>
  </trkpt>
  <trkpt lat="34.004476" lon="-4.086386">
   <ele>1349.00</ele>
   <time>2014-03-30T11:38:56Z</time>
  </trkpt>
  <trkpt lat="34.004517" lon="-4.086159">
   <ele>1348.00</ele>
   <time>2014-03-30T11:38:59Z</time>
  </trkpt>
  <trkpt lat="34.004482" lon="-4.085856">
   <ele>1348.00</ele>
   <time>2014-03-30T11:39:02Z</time>
  </trkpt>
  <trkpt lat="34.004508" lon="-4.085639">
   <ele>1347.00</ele>
   <time>2014-03-30T11:39:04Z</time>
  </trkpt>
  <trkpt lat="34.004581" lon="-4.085420">
   <ele>1347.00</ele>
   <time>2014-03-30T11:39:06Z</time>
  </trkpt>
  <trkpt lat="34.004691" lon="-4.085209">
   <ele>1346.00</ele>
   <time>2014-03-30T11:39:08Z</time>
  </trkpt>
  <trkpt lat="34.004820" lon="-4.085010">
   <ele>1345.00</ele>
   <time>2014-03-30T11:39:10Z</time>
  </trkpt>
  <trkpt lat="34.005079" lon="-4.084627">
   <ele>1345.00</ele>
   <time>2014-03-30T11:39:14Z</time>
  </trkpt>
  <trkpt lat="34.005277" lon="-4.084435">
   <ele>1345.00</ele>
   <time>2014-03-30T11:39:17Z</time>
  </trkpt>
  <trkpt lat="34.005414" lon="-4.084233">
   <ele>1345.00</ele>
   <time>2014-03-30T11:39:20Z</time>
  </trkpt>
  <trkpt lat="34.005414" lon="-4.083940">
   <ele>1345.00</ele>
   <time>2014-03-30T11:39:23Z</time>
  </trkpt>
  <trkpt lat="34.005269" lon="-4.083691">
   <ele>1345.00</ele>
   <time>2014-03-30T11:39:26Z</time>
  </trkpt>
  <trkpt lat="34.005006" lon="-4.083633">
   <ele>1345.00</ele>
   <time>2014-03-30T11:39:29Z</time>
  </trkpt>
  <trkpt lat="34.004813" lon="-4.083649">
   <ele>1345.00</ele>
   <time>2014-03-30T11:39:31Z</time>
  </trkpt>
  <trkpt lat="34.004615" lon="-4.083623">
   <ele>1344.00</ele>
   <time>2014-03-30T11:39:33Z</time>
  </trkpt>
  <trkpt lat="34.004420" lon="-4.083549">
   <ele>1345.00</ele>
   <time>2014-03-30T11:39:35Z</time>
  </trkpt>
  <trkpt lat="34.004237" lon="-4.083437">
   <ele>1347.00</ele>
   <time>2014-03-30T11:39:37Z</time>
  </trkpt>
  <trkpt lat="34.004085" lon="-4.083304">
   <ele>1348.00</ele>
   <time>2014-03-30T11:39:39Z</time>
  </trkpt>
  <trkpt lat="34.003850" lon="-4.083161">
   <ele>1350.00</ele>
   <time>2014-03-30T11:39:42Z</time>
  </trkpt>
  <trkpt lat="34.003596" lon="-4.083081">
   <ele>1352.00</ele>
   <time>2014-03-30T11:39:45Z</time>
  </trkpt>
  <trkpt lat="34.003378" lon="-4.082980">
   <ele>1354.00</ele>
   <time>2014-03-30T11:39:48Z</time>
  </trkpt>
  <trkpt lat="34.003207" lon="-4.082764">
   <ele>1354.00</ele>
   <time>2014-03-30T11:39:51Z</time>
  </trkpt>
  <trkpt lat="34.002924" lon="-4.082288">
   <ele>1354.00</ele>
   <time>2014-03-30T11:39:56Z</time>
  </trkpt>
  <trkpt lat="34.002781" lon="-4.082108">
   <ele>1353.00</ele>
   <time>2014-03-30T11:39:58Z</time>
  </trkpt>
  <trkpt lat="34.002606" lon="-4.081971">
   <ele>1352.00</ele>
   <time>2014-03-30T11:40:00Z</time>
  </trkpt>
  <trkpt lat="34.002411" lon="-4.081880">
   <ele>1352.00</ele>
   <time>2014-03-30T11:40:02Z</time>
  </trkpt>
  <trkpt lat="34.002032" lon="-4.081725">
   <ele>1351.00</ele>
   <time>2014-03-30T11:40:06Z</time>
  </trkpt>
  <trkpt lat="34.001868" lon="-4.081601">
   <ele>1350.00</ele>
   <time>2014-03-30T11:40:08Z</time>
  </trkpt>
  <trkpt lat="34.001717" lon="-4.081433">
   <ele>1348.00</ele>
   <time>2014-03-30T11:40:10Z</time>
  </trkpt>
  <trkpt lat="34.001452" lon="-4.081111">
   <ele>1345.00</ele>
   <time>2014-03-30T11:40:14Z</time>
  </trkpt>
  <trkpt lat="34.001260" lon="-4.081172">
   <ele>1341.00</ele>
   <time>2014-03-30T11:40:18Z</time>
  </trkpt>
  <trkpt lat="34.001277" lon="-4.081426">
   <ele>1339.00</ele>
   <time>2014-03-30T11:40:21Z</time>
  </trkpt>
  <trkpt lat="34.001304" lon="-4.081694">
   <ele>1337.00</ele>
   <time>2014-03-30T11:40:24Z</time>
  </trkpt>
  <trkpt lat="34.001176" lon="-4.081891">
   <ele>1335.00</ele>
   <time>2014-03-30T11:40:27Z</time>
  </trkpt>
  <trkpt lat="34.000958" lon="-4.081953">
   <ele>1333.00</ele>
   <time>2014-03-30T11:40:30Z</time>
  </trkpt>
  <trkpt lat="34.000803" lon="-4.081796">
   <ele>1331.00</ele>
   <time>2014-03-30T11:40:33Z</time>
  </trkpt>
  <trkpt lat="34.000705" lon="-4.081564">
   <ele>1328.00</ele>
   <time>2014-03-30T11:40:36Z</time>
  </trkpt>
  <trkpt lat="34.000532" lon="-4.081359">
   <ele>1325.00</ele>
   <time>2014-03-30T11:40:39Z</time>
  </trkpt>
  <trkpt lat="34.000332" lon="-4.081245">
   <ele>1323.00</ele>
   <time>2014-03-30T11:40:42Z</time>
  </trkpt>
  <trkpt lat="34.000098" lon="-4.081285">
   <ele>1320.00</ele>
   <time>2014-03-30T11:40:45Z</time>
  </trkpt>
  <trkpt lat="33.999870" lon="-4.081402">
   <ele>1318.00</ele>
   <time>2014-03-30T11:40:48Z</time>
  </trkpt>
  <trkpt lat="33.999697" lon="-4.081625">
   <ele>1319.00</ele>
   <time>2014-03-30T11:40:51Z</time>
  </trkpt>
  <trkpt lat="33.999541" lon="-4.081883">
   <ele>1318.00</ele>
   <time>2014-03-30T11:40:54Z</time>
  </trkpt>
  <trkpt lat="33.999399" lon="-4.082168">
   <ele>1321.00</ele>
   <time>2014-03-30T11:40:57Z</time>
  </trkpt>
  <trkpt lat="33.999294" lon="-4.082345">
   <ele>1322.00</ele>
   <time>2014-03-30T11:40:59Z</time>
  </trkpt>
  <trkpt lat="33.999180" lon="-4.082612">
   <ele>1325.00</ele>
   <time>2014-03-30T11:41:02Z</time>
  </trkpt>
  <trkpt lat="33.999027" lon="-4.082841">
   <ele>1327.00</ele>
   <time>2014-03-30T11:41:05Z</time>
  </trkpt>
  <trkpt lat="33.998799" lon="-4.082978">
   <ele>1330.00</ele>
   <time>2014-03-30T11:41:08Z</time>
  </trkpt>
  <trkpt lat="33.998543" lon="-4.082999">
   <ele>1332.00</ele>
   <time>2014-03-30T11:41:11Z</time>
  </trkpt>
  <trkpt lat="33.998348" lon="-4.082974">
   <ele>1333.00</ele>
   <time>2014-03-30T11:41:14Z</time>
  </trkpt>
  <trkpt lat="33.998364" lon="-4.082810">
   <ele>1334.00</ele>
   <time>2014-03-30T11:41:18Z</time>
  </trkpt>
  <trkpt lat="33.998618" lon="-4.082707">
   <ele>1336.00</ele>
   <time>2014-03-30T11:41:22Z</time>
  </trkpt>
  <trkpt lat="33.998774" lon="-4.082504">
   <ele>1338.00</ele>
   <time>2014-03-30T11:41:25Z</time>
  </trkpt>
  <trkpt lat="33.998888" lon="-4.082258">
   <ele>1339.00</ele>
   <time>2014-03-30T11:41:28Z</time>
  </trkpt>
  <trkpt lat="33.998935" lon="-4.081961">
   <ele>1341.00</ele>
   <time>2014-03-30T11:41:31Z</time>
  </trkpt>
  <trkpt lat="33.998937" lon="-4.081642">
   <ele>1343.00</ele>
   <time>2014-03-30T11:41:34Z</time>
  </trkpt>
  <trkpt lat="33.998888" lon="-4.081143">
   <ele>1347.00</ele>
   <time>2014-03-30T11:41:39Z</time>
  </trkpt>
  <trkpt lat="33.998767" lon="-4.080928">
   <ele>1350.00</ele>
   <time>2014-03-30T11:41:42Z</time>
  </trkpt>
  <trkpt lat="33.998559" lon="-4.080790">
   <ele>1352.00</ele>
   <time>2014-03-30T11:41:45Z</time>
  </trkpt>
  <trkpt lat="33.998230" lon="-4.080625">
   <ele>1354.00</ele>
   <time>2014-03-30T11:41:49Z</time>
  </trkpt>
  <trkpt lat="33.998068" lon="-4.080514">
   <ele>1354.00</ele>
   <time>2014-03-30T11:41:51Z</time>
  </trkpt>
  <trkpt lat="33.997863" lon="-4.080348">
   <ele>1354.00</ele>
   <time>2014-03-30T11:41:54Z</time>
  </trkpt>
  <trkpt lat="33.997730" lon="-4.080124">
   <ele>1355.00</ele>
   <time>2014-03-30T11:41:57Z</time>
  </trkpt>
  <trkpt lat="33.997596" lon="-4.079862">
   <ele>1354.00</ele>
   <time>2014-03-30T11:42:00Z</time>
  </trkpt>
  <trkpt lat="33.997479" lon="-4.079692">
   <ele>1353.00</ele>
   <time>2014-03-30T11:42:02Z</time>
  </trkpt>
  <trkpt lat="33.997291" lon="-4.079426">
   <ele>1353.00</ele>
   <time>2014-03-30T11:42:05Z</time>
  </trkpt>
  <trkpt lat="33.997174" lon="-4.079242">
   <ele>1352.00</ele>
   <time>2014-03-30T11:42:07Z</time>
  </trkpt>
  <trkpt lat="33.997075" lon="-4.079061">
   <ele>1352.00</ele>
   <time>2014-03-30T11:42:09Z</time>
  </trkpt>
  <trkpt lat="33.996912" lon="-4.078817">
   <ele>1351.00</ele>
   <time>2014-03-30T11:42:12Z</time>
  </trkpt>
  <trkpt lat="33.996729" lon="-4.078594">
   <ele>1350.00</ele>
   <time>2014-03-30T11:42:15Z</time>
  </trkpt>
  <trkpt lat="33.996506" lon="-4.078512">
   <ele>1349.00</ele>
   <time>2014-03-30T11:42:18Z</time>
  </trkpt>
  <trkpt lat="33.996276" lon="-4.078626">
   <ele>1346.00</ele>
   <time>2014-03-30T11:42:21Z</time>
  </trkpt>
  <trkpt lat="33.996057" lon="-4.078772">
   <ele>1344.00</ele>
   <time>2014-03-30T11:42:24Z</time>
  </trkpt>
  <trkpt lat="33.995821" lon="-4.078816">
   <ele>1342.00</ele>
   <time>2014-03-30T11:42:27Z</time>
  </trkpt>
  <trkpt lat="33.995190" lon="-4.078808">
   <ele>1337.00</ele>
   <time>2014-03-30T11:42:34Z</time>
  </trkpt>
  <trkpt lat="33.994931" lon="-4.078847">
   <ele>1335.00</ele>
   <time>2014-03-30T11:42:37Z</time>
  </trkpt>
  <trkpt lat="33.994696" lon="-4.078910">
   <ele>1332.00</ele>
   <time>2014-03-30T11:42:40Z</time>
  </trkpt>
  <trkpt lat="33.994472" lon="-4.078967">
   <ele>1329.00</ele>
   <time>2014-03-30T11:42:43Z</time>
  </trkpt>
  <trkpt lat="33.994228" lon="-4.078954">
   <ele>1327.00</ele>
   <time>2014-03-30T11:42:46Z</time>
  </trkpt>
  <trkpt lat="33.994036" lon="-4.078857">
   <ele>1327.00</ele>
   <time>2014-03-30T11:42:49Z</time>
  </trkpt>
  <trkpt lat="33.993934" lon="-4.078650">
   <ele>1327.00</ele>
   <time>2014-03-30T11:42:52Z</time>
  </trkpt>
  <trkpt lat="33.993846" lon="-4.078390">
   <ele>1327.00</ele>
   <time>2014-03-30T11:42:55Z</time>
  </trkpt>
  <trkpt lat="33.993756" lon="-4.078113">
   <ele>1328.00</ele>
   <time>2014-03-30T11:42:58Z</time>
  </trkpt>
  <trkpt lat="33.993658" lon="-4.077828">
   <ele>1330.00</ele>
   <time>2014-03-30T11:43:01Z</time>
  </trkpt>
  <trkpt lat="33.993504" lon="-4.077595">
   <ele>1333.00</ele>
   <time>2014-03-30T11:43:04Z</time>
  </trkpt>
  <trkpt lat="33.993341" lon="-4.077358">
   <ele>1336.00</ele>
   <time>2014-03-30T11:43:07Z</time>
  </trkpt>
  <trkpt lat="33.993246" lon="-4.077081">
   <ele>1338.00</ele>
   <time>2014-03-30T11:43:10Z</time>
  </trkpt>
  <trkpt lat="33.993247" lon="-4.076797">
   <ele>1341.00</ele>
   <time>2014-03-30T11:43:13Z</time>
  </trkpt>
  <trkpt lat="33.993356" lon="-4.076551">
   <ele>1343.00</ele>
   <time>2014-03-30T11:43:16Z</time>
  </trkpt>
  <trkpt lat="33.993449" lon="-4.076308">
   <ele>1345.00</ele>
   <time>2014-03-30T11:43:19Z</time>
  </trkpt>
  <trkpt lat="33.993445" lon="-4.076036">
   <ele>1347.00</ele>
   <time>2014-03-30T11:43:22Z</time>
  </trkpt>
  <trkpt lat="33.993351" lon="-4.075782">
   <ele>1349.00</ele>
   <time>2014-03-30T11:43:25Z</time>
  </trkpt>
  <trkpt lat="33.993127" lon="-4.075309">
   <ele>1355.00</ele>
   <time>2014-03-30T11:43:31Z</time>
  </trkpt>
  <trkpt lat="33.992918" lon="-4.075203">
   <ele>1356.00</ele>
   <time>2014-03-30T11:43:35Z</time>
  </trkpt>
  <trkpt lat="33.992722" lon="-4.075192">
   <ele>1358.00</ele>
   <time>2014-03-30T11:43:38Z</time>
  </trkpt>
  <trkpt lat="33.992513" lon="-4.075162">
   <ele>1360.00</ele>
   <time>2014-03-30T11:43:41Z</time>
  </trkpt>
  <trkpt lat="33.992329" lon="-4.075062">
   <ele>1361.00</ele>
   <time>2014-03-30T11:43:44Z</time>
  </trkpt>
  <trkpt lat="33.992285" lon="-4.074848">
   <ele>1362.00</ele>
   <time>2014-03-30T11:43:47Z</time>
  </trkpt>
  <trkpt lat="33.992456" lon="-4.074697">
   <ele>1363.00</ele>
   <time>2014-03-30T11:43:51Z</time>
  </trkpt>
  <trkpt lat="33.992660" lon="-4.074573">
   <ele>1363.00</ele>
   <time>2014-03-30T11:43:55Z</time>
  </trkpt>
  <trkpt lat="33.992768" lon="-4.074388">
   <ele>1363.00</ele>
   <time>2014-03-30T11:43:58Z</time>
  </trkpt>
  <trkpt lat="33.992746" lon="-4.074142">
   <ele>1364.00</ele>
   <time>2014-03-30T11:44:01Z</time>
  </trkpt>
  <trkpt lat="33.992621" lon="-4.073890">
   <ele>1366.00</ele>
   <time>2014-03-30T11:44:04Z</time>
  </trkpt>
  <trkpt lat="33.992525" lon="-4.073619">
   <ele>1367.00</ele>
   <time>2014-03-30T11:44:07Z</time>
  </trkpt>
  <trkpt lat="33.992609" lon="-4.073362">
   <ele>1368.00</ele>
   <time>2014-03-30T11:44:10Z</time>
  </trkpt>
  <trkpt lat="33.992715" lon="-4.073106">
   <ele>1369.00</ele>
   <time>2014-03-30T11:44:13Z</time>
  </trkpt>
  <trkpt lat="33.992765" lon="-4.072810">
   <ele>1371.00</ele>
   <time>2014-03-30T11:44:16Z</time>
  </trkpt>
  <trkpt lat="33.992878" lon="-4.072581">
   <ele>1372.00</ele>
   <time>2014-03-30T11:44:19Z</time>
  </trkpt>
  <trkpt lat="33.992946" lon="-4.072346">
   <ele>1373.00</ele>
   <time>2014-03-30T11:44:22Z</time>
  </trkpt>
  <trkpt lat="33.992930" lon="-4.072056">
   <ele>1374.00</ele>
   <time>2014-03-30T11:44:25Z</time>
  </trkpt>
  <trkpt lat="33.992950" lon="-4.071744">
   <ele>1377.00</ele>
   <time>2014-03-30T11:44:28Z</time>
  </trkpt>
  <trkpt lat="33.993070" lon="-4.071495">
   <ele>1378.00</ele>
   <time>2014-03-30T11:44:31Z</time>
  </trkpt>
  <trkpt lat="33.993194" lon="-4.071293">
   <ele>1379.00</ele>
   <time>2014-03-30T11:44:34Z</time>
  </trkpt>
  <trkpt lat="33.993280" lon="-4.071051">
   <ele>1378.00</ele>
   <time>2014-03-30T11:44:37Z</time>
  </trkpt>
  <trkpt lat="33.993308" lon="-4.070745">
   <ele>1376.00</ele>
   <time>2014-03-30T11:44:40Z</time>
  </trkpt>
  <trkpt lat="33.993282" lon="-4.070521">
   <ele>1374.00</ele>
   <time>2014-03-30T11:44:42Z</time>
  </trkpt>
  <trkpt lat="33.993257" lon="-4.070303">
   <ele>1372.00</ele>
   <time>2014-03-30T11:44:44Z</time>
  </trkpt>
  <trkpt lat="33.993176" lon="-4.070033">
   <ele>1369.00</ele>
   <time>2014-03-30T11:44:47Z</time>
  </trkpt>
  <trkpt lat="33.992961" lon="-4.069970">
   <ele>1368.00</ele>
   <time>2014-03-30T11:44:50Z</time>
  </trkpt>
  <trkpt lat="33.992508" lon="-4.070081">
   <ele>1367.00</ele>
   <time>2014-03-30T11:44:55Z</time>
  </trkpt>
  <trkpt lat="33.992326" lon="-4.070164">
   <ele>1368.00</ele>
   <time>2014-03-30T11:44:57Z</time>
  </trkpt>
  <trkpt lat="33.992155" lon="-4.070259">
   <ele>1368.00</ele>
   <time>2014-03-30T11:44:59Z</time>
  </trkpt>
  <trkpt lat="33.991905" lon="-4.070380">
   <ele>1370.00</ele>
   <time>2014-03-30T11:45:02Z</time>
  </trkpt>
  <trkpt lat="33.991720" lon="-4.070415">
   <ele>1371.00</ele>
   <time>2014-03-30T11:45:04Z</time>
  </trkpt>
  <trkpt lat="33.991460" lon="-4.070424">
   <ele>1374.00</ele>
   <time>2014-03-30T11:45:07Z</time>
  </trkpt>
  <trkpt lat="33.991259" lon="-4.070303">
   <ele>1376.00</ele>
   <time>2014-03-30T11:45:10Z</time>
  </trkpt>
  <trkpt lat="33.991134" lon="-4.070044">
   <ele>1378.00</ele>
   <time>2014-03-30T11:45:13Z</time>
  </trkpt>
  <trkpt lat="33.990879" lon="-4.069321">
   <ele>1379.00</ele>
   <time>2014-03-30T11:45:20Z</time>
  </trkpt>
  <trkpt lat="33.990820" lon="-4.069112">
   <ele>1380.00</ele>
   <time>2014-03-30T11:45:22Z</time>
  </trkpt>
  <trkpt lat="33.990778" lon="-4.068810">
   <ele>1381.00</ele>
   <time>2014-03-30T11:45:25Z</time>
  </trkpt>
  <trkpt lat="33.990825" lon="-4.068549">
   <ele>1381.00</ele>
   <time>2014-03-30T11:45:28Z</time>
  </trkpt>
  <trkpt lat="33.990853" lon="-4.068317">
   <ele>1382.00</ele>
   <time>2014-03-30T11:45:31Z</time>
  </trkpt>
  <trkpt lat="33.990682" lon="-4.068248">
   <ele>1383.00</ele>
   <time>2014-03-30T11:45:34Z</time>
  </trkpt>
  <trkpt lat="33.990478" lon="-4.068389">
   <ele>1384.00</ele>
   <time>2014-03-30T11:45:37Z</time>
  </trkpt>
  <trkpt lat="33.990219" lon="-4.068617">
   <ele>1386.00</ele>
   <time>2014-03-30T11:45:41Z</time>
  </trkpt>
  <trkpt lat="33.989996" lon="-4.068635">
   <ele>1387.00</ele>
   <time>2014-03-30T11:45:44Z</time>
  </trkpt>
  <trkpt lat="33.989795" lon="-4.068480">
   <ele>1387.00</ele>
   <time>2014-03-30T11:45:47Z</time>
  </trkpt>
  <trkpt lat="33.989631" lon="-4.068269">
   <ele>1387.00</ele>
   <time>2014-03-30T11:45:50Z</time>
  </trkpt>
  <trkpt lat="33.989613" lon="-4.067996">
   <ele>1388.00</ele>
   <time>2014-03-30T11:45:53Z</time>
  </trkpt>
  <trkpt lat="33.989640" lon="-4.067715">
   <ele>1389.00</ele>
   <time>2014-03-30T11:45:56Z</time>
  </trkpt>
  <trkpt lat="33.989610" lon="-4.067424">
   <ele>1391.00</ele>
   <time>2014-03-30T11:45:59Z</time>
  </trkpt>
  <trkpt lat="33.989502" lon="-4.067161">
   <ele>1394.00</ele>
   <time>2014-03-30T11:46:02Z</time>
  </trkpt>
  <trkpt lat="33.989342" lon="-4.066928">
   <ele>1396.00</ele>
   <time>2014-03-30T11:46:05Z</time>
  </trkpt>
  <trkpt lat="33.989060" lon="-4.066580">
   <ele>1400.00</ele>
   <time>2014-03-30T11:46:10Z</time>
  </trkpt>
  <trkpt lat="33.989012" lon="-4.066343">
   <ele>1401.00</ele>
   <time>2014-03-30T11:46:13Z</time>
  </trkpt>
  <trkpt lat="33.989107" lon="-4.066110">
   <ele>1398.00</ele>
   <time>2014-03-30T11:46:16Z</time>
  </trkpt>
  <trkpt lat="33.989037" lon="-4.065755">
   <ele>1397.00</ele>
   <time>2014-03-30T11:46:20Z</time>
  </trkpt>
  <trkpt lat="33.988912" lon="-4.065583">
   <ele>1397.00</ele>
   <time>2014-03-30T11:46:22Z</time>
  </trkpt>
  <trkpt lat="33.988642" lon="-4.065205">
   <ele>1398.00</ele>
   <time>2014-03-30T11:46:26Z</time>
  </trkpt>
  <trkpt lat="33.988523" lon="-4.065002">
   <ele>1398.00</ele>
   <time>2014-03-30T11:46:28Z</time>
  </trkpt>
  <trkpt lat="33.988419" lon="-4.064801">
   <ele>1398.00</ele>
   <time>2014-03-30T11:46:30Z</time>
  </trkpt>
  <trkpt lat="33.988347" lon="-4.064593">
   <ele>1398.00</ele>
   <time>2014-03-30T11:46:32Z</time>
  </trkpt>
  <trkpt lat="33.988332" lon="-4.064372">
   <ele>1399.00</ele>
   <time>2014-03-30T11:46:34Z</time>
  </trkpt>
  <trkpt lat="33.988331" lon="-4.064152">
   <ele>1399.00</ele>
   <time>2014-03-30T11:46:36Z</time>
  </trkpt>
  <trkpt lat="33.988262" lon="-4.063845">
   <ele>1400.00</ele>
   <time>2014-03-30T11:46:39Z</time>
  </trkpt>
  <trkpt lat="33.988089" lon="-4.063649">
   <ele>1401.00</ele>
   <time>2014-03-30T11:46:42Z</time>
  </trkpt>
  <trkpt lat="33.987837" lon="-4.063695">
   <ele>1403.00</ele>
   <time>2014-03-30T11:46:45Z</time>
  </trkpt>
  <trkpt lat="33.987672" lon="-4.063803">
   <ele>1403.00</ele>
   <time>2014-03-30T11:46:47Z</time>
  </trkpt>
  <trkpt lat="33.987428" lon="-4.063992">
   <ele>1405.00</ele>
   <time>2014-03-30T11:46:50Z</time>
  </trkpt>
  <trkpt lat="33.987262" lon="-4.064092">
   <ele>1406.00</ele>
   <time>2014-03-30T11:46:52Z</time>
  </trkpt>
  <trkpt lat="33.987003" lon="-4.064143">
   <ele>1407.00</ele>
   <time>2014-03-30T11:46:55Z</time>
  </trkpt>
  <trkpt lat="33.986779" lon="-4.064042">
   <ele>1408.00</ele>
   <time>2014-03-30T11:46:58Z</time>
  </trkpt>
  <trkpt lat="33.986590" lon="-4.063814">
   <ele>1407.00</ele>
   <time>2014-03-30T11:47:01Z</time>
  </trkpt>
  <trkpt lat="33.986337" lon="-4.063462">
   <ele>1406.00</ele>
   <time>2014-03-30T11:47:05Z</time>
  </trkpt>
  <trkpt lat="33.986196" lon="-4.063293">
   <ele>1405.00</ele>
   <time>2014-03-30T11:47:07Z</time>
  </trkpt>
  <trkpt lat="33.985903" lon="-4.062954">
   <ele>1403.00</ele>
   <time>2014-03-30T11:47:11Z</time>
  </trkpt>
  <trkpt lat="33.985765" lon="-4.062774">
   <ele>1403.00</ele>
   <time>2014-03-30T11:47:13Z</time>
  </trkpt>
  <trkpt lat="33.985626" lon="-4.062610">
   <ele>1403.00</ele>
   <time>2014-03-30T11:47:15Z</time>
  </trkpt>
  <trkpt lat="33.985463" lon="-4.062485">
   <ele>1402.00</ele>
   <time>2014-03-30T11:47:17Z</time>
  </trkpt>
  <trkpt lat="33.985281" lon="-4.062375">
   <ele>1400.00</ele>
   <time>2014-03-30T11:47:19Z</time>
  </trkpt>
  <trkpt lat="33.984894" lon="-4.062171">
   <ele>1398.00</ele>
   <time>2014-03-30T11:47:23Z</time>
  </trkpt>
  <trkpt lat="33.984703" lon="-4.062046">
   <ele>1397.00</ele>
   <time>2014-03-30T11:47:25Z</time>
  </trkpt>
  <trkpt lat="33.984521" lon="-4.061898">
   <ele>1396.00</ele>
   <time>2014-03-30T11:47:27Z</time>
  </trkpt>
  <trkpt lat="33.984345" lon="-4.061748">
   <ele>1396.00</ele>
   <time>2014-03-30T11:47:29Z</time>
  </trkpt>
  <trkpt lat="33.984159" lon="-4.061620">
   <ele>1396.00</ele>
   <time>2014-03-30T11:47:31Z</time>
  </trkpt>
  <trkpt lat="33.983957" lon="-4.061535">
   <ele>1396.00</ele>
   <time>2014-03-30T11:47:33Z</time>
  </trkpt>
  <trkpt lat="33.983750" lon="-4.061486">
   <ele>1397.00</ele>
   <time>2014-03-30T11:47:35Z</time>
  </trkpt>
  <trkpt lat="33.983539" lon="-4.061431">
   <ele>1396.00</ele>
   <time>2014-03-30T11:47:37Z</time>
  </trkpt>
  <trkpt lat="33.982849" lon="-4.061212">
   <ele>1398.00</ele>
   <time>2014-03-30T11:47:43Z</time>
  </trkpt>
  <trkpt lat="33.982345" lon="-4.061035">
   <ele>1399.00</ele>
   <time>2014-03-30T11:47:47Z</time>
  </trkpt>
  <trkpt lat="33.982121" lon="-4.060937">
   <ele>1400.00</ele>
   <time>2014-03-30T11:47:49Z</time>
  </trkpt>
  <trkpt lat="33.981928" lon="-4.060803">
   <ele>1401.00</ele>
   <time>2014-03-30T11:47:51Z</time>
  </trkpt>
  <trkpt lat="33.981795" lon="-4.060594">
   <ele>1402.00</ele>
   <time>2014-03-30T11:47:53Z</time>
  </trkpt>
  <trkpt lat="33.981692" lon="-4.060353">
   <ele>1404.00</ele>
   <time>2014-03-30T11:47:55Z</time>
  </trkpt>
  <trkpt lat="33.981594" lon="-4.060104">
   <ele>1406.00</ele>
   <time>2014-03-30T11:47:57Z</time>
  </trkpt>
  <trkpt lat="33.981514" lon="-4.059843">
   <ele>1408.00</ele>
   <time>2014-03-30T11:47:59Z</time>
  </trkpt>
  <trkpt lat="33.981457" lon="-4.059572">
   <ele>1411.00</ele>
   <time>2014-03-30T11:48:01Z</time>
  </trkpt>
  <trkpt lat="33.981401" lon="-4.059317">
   <ele>1413.00</ele>
   <time>2014-03-30T11:48:03Z</time>
  </trkpt>
  <trkpt lat="33.981318" lon="-4.059090">
   <ele>1415.00</ele>
   <time>2014-03-30T11:48:05Z</time>
  </trkpt>
  <trkpt lat="33.981194" lon="-4.058893">
   <ele>1416.00</ele>
   <time>2014-03-30T11:48:07Z</time>
  </trkpt>
  <trkpt lat="33.981039" lon="-4.058729">
   <ele>1416.00</ele>
   <time>2014-03-30T11:48:09Z</time>
  </trkpt>
  <trkpt lat="33.980849" lon="-4.058686">
   <ele>1415.00</ele>
   <time>2014-03-30T11:48:11Z</time>
  </trkpt>
  <trkpt lat="33.980675" lon="-4.058803">
   <ele>1414.00</ele>
   <time>2014-03-30T11:48:13Z</time>
  </trkpt>
  <trkpt lat="33.980548" lon="-4.058986">
   <ele>1413.00</ele>
   <time>2014-03-30T11:48:15Z</time>
  </trkpt>
  <trkpt lat="33.980376" lon="-4.059248">
   <ele>1412.00</ele>
   <time>2014-03-30T11:48:18Z</time>
  </trkpt>
  <trkpt lat="33.980165" lon="-4.059258">
   <ele>1410.00</ele>
   <time>2014-03-30T11:48:22Z</time>
  </trkpt>
  <trkpt lat="33.980075" lon="-4.058987">
   <ele>1405.00</ele>
   <time>2014-03-30T11:48:25Z</time>
  </trkpt>
  <trkpt lat="33.979987" lon="-4.058620">
   <ele>1399.00</ele>
   <time>2014-03-30T11:48:28Z</time>
  </trkpt>
  <trkpt lat="33.979899" lon="-4.058353">
   <ele>1396.00</ele>
   <time>2014-03-30T11:48:30Z</time>
  </trkpt>
  <trkpt lat="33.979783" lon="-4.058077">
   <ele>1393.00</ele>
   <time>2014-03-30T11:48:32Z</time>
  </trkpt>
  <trkpt lat="33.979623" lon="-4.057812">
   <ele>1390.00</ele>
   <time>2014-03-30T11:48:34Z</time>
  </trkpt>
  <trkpt lat="33.979425" lon="-4.057561">
   <ele>1387.00</ele>
   <time>2014-03-30T11:48:36Z</time>
  </trkpt>
  <trkpt lat="33.979191" lon="-4.057343">
   <ele>1384.00</ele>
   <time>2014-03-30T11:48:38Z</time>
  </trkpt>
  <trkpt lat="33.978938" lon="-4.057161">
   <ele>1383.00</ele>
   <time>2014-03-30T11:48:40Z</time>
  </trkpt>
  <trkpt lat="33.978690" lon="-4.056995">
   <ele>1383.00</ele>
   <time>2014-03-30T11:48:42Z</time>
  </trkpt>
  <trkpt lat="33.978440" lon="-4.056851">
   <ele>1383.00</ele>
   <time>2014-03-30T11:48:44Z</time>
  </trkpt>
  <trkpt lat="33.978177" lon="-4.056720">
   <ele>1384.00</ele>
   <time>2014-03-30T11:48:46Z</time>
  </trkpt>
  <trkpt lat="33.977649" lon="-4.056476">
   <ele>1386.00</ele>
   <time>2014-03-30T11:48:50Z</time>
  </trkpt>
  <trkpt lat="33.977412" lon="-4.056320">
   <ele>1388.00</ele>
   <time>2014-03-30T11:48:52Z</time>
  </trkpt>
  <trkpt lat="33.977073" lon="-4.056093">
   <ele>1390.00</ele>
   <time>2014-03-30T11:48:55Z</time>
  </trkpt>
  <trkpt lat="33.976849" lon="-4.056009">
   <ele>1392.00</ele>
   <time>2014-03-30T11:48:57Z</time>
  </trkpt>
  <trkpt lat="33.976623" lon="-4.056005">
   <ele>1394.00</ele>
   <time>2014-03-30T11:48:59Z</time>
  </trkpt>
  <trkpt lat="33.976397" lon="-4.056065">
   <ele>1396.00</ele>
   <time>2014-03-30T11:49:01Z</time>
  </trkpt>
  <trkpt lat="33.976179" lon="-4.056145">
   <ele>1396.00</ele>
   <time>2014-03-30T11:49:03Z</time>
  </trkpt>
  <trkpt lat="33.975533" lon="-4.056408">
   <ele>1394.00</ele>
   <time>2014-03-30T11:49:09Z</time>
  </trkpt>
  <trkpt lat="33.975332" lon="-4.056553">
   <ele>1393.00</ele>
   <time>2014-03-30T11:49:11Z</time>
  </trkpt>
  <trkpt lat="33.975154" lon="-4.056738">
   <ele>1392.00</ele>
   <time>2014-03-30T11:49:13Z</time>
  </trkpt>
  <trkpt lat="33.974970" lon="-4.056910">
   <ele>1393.00</ele>
   <time>2014-03-30T11:49:15Z</time>
  </trkpt>
  <trkpt lat="33.974788" lon="-4.057080">
   <ele>1393.00</ele>
   <time>2014-03-30T11:49:17Z</time>
  </trkpt>
  <trkpt lat="33.974547" lon="-4.057347">
   <ele>1392.00</ele>
   <time>2014-03-30T11:49:20Z</time>
  </trkpt>
  <trkpt lat="33.974389" lon="-4.057522">
   <ele>1390.00</ele>
   <time>2014-03-30T11:49:22Z</time>
  </trkpt>
  <trkpt lat="33.974213" lon="-4.057693">
   <ele>1389.00</ele>
   <time>2014-03-30T11:49:24Z</time>
  </trkpt>
  <trkpt lat="33.974018" lon="-4.057850">
   <ele>1387.00</ele>
   <time>2014-03-30T11:49:26Z</time>
  </trkpt>
  <trkpt lat="33.973799" lon="-4.057966">
   <ele>1385.00</ele>
   <time>2014-03-30T11:49:28Z</time>
  </trkpt>
  <trkpt lat="33.973559" lon="-4.058026">
   <ele>1384.00</ele>
   <time>2014-03-30T11:49:30Z</time>
  </trkpt>
  <trkpt lat="33.973319" lon="-4.058056">
   <ele>1382.00</ele>
   <time>2014-03-30T11:49:32Z</time>
  </trkpt>
  <trkpt lat="33.973086" lon="-4.058029">
   <ele>1382.00</ele>
   <time>2014-03-30T11:49:34Z</time>
  </trkpt>
  <trkpt lat="33.972869" lon="-4.057948">
   <ele>1381.00</ele>
   <time>2014-03-30T11:49:36Z</time>
  </trkpt>
  <trkpt lat="33.972217" lon="-4.057688">
   <ele>1379.00</ele>
   <time>2014-03-30T11:49:42Z</time>
  </trkpt>
  <trkpt lat="33.972009" lon="-4.057612">
   <ele>1379.00</ele>
   <time>2014-03-30T11:49:44Z</time>
  </trkpt>
  <trkpt lat="33.971798" lon="-4.057575">
   <ele>1379.00</ele>
   <time>2014-03-30T11:49:46Z</time>
  </trkpt>
  <trkpt lat="33.971586" lon="-4.057541">
   <ele>1379.00</ele>
   <time>2014-03-30T11:49:48Z</time>
  </trkpt>
  <trkpt lat="33.971383" lon="-4.057468">
   <ele>1379.00</ele>
   <time>2014-03-30T11:49:50Z</time>
  </trkpt>
  <trkpt lat="33.971200" lon="-4.057382">
   <ele>1380.00</ele>
   <time>2014-03-30T11:49:52Z</time>
  </trkpt>
  <trkpt lat="33.970954" lon="-4.057305">
   <ele>1380.00</ele>
   <time>2014-03-30T11:49:55Z</time>
  </trkpt>
  <trkpt lat="33.970714" lon="-4.057343">
   <ele>1379.00</ele>
   <time>2014-03-30T11:49:58Z</time>
  </trkpt>
  <trkpt lat="33.970466" lon="-4.057383">
   <ele>1377.00</ele>
   <time>2014-03-30T11:50:01Z</time>
  </trkpt>
  <trkpt lat="33.970128" lon="-4.057400">
   <ele>1375.00</ele>
   <time>2014-03-30T11:50:05Z</time>
  </trkpt>
  <trkpt lat="33.969896" lon="-4.057325">
   <ele>1372.00</ele>
   <time>2014-03-30T11:50:08Z</time>
  </trkpt>
  <trkpt lat="33.969450" lon="-4.057057">
   <ele>1369.00</ele>
   <time>2014-03-30T11:50:15Z</time>
  </trkpt>
  <trkpt lat="33.969293" lon="-4.056932">
   <ele>1368.00</ele>
   <time>2014-03-30T11:50:18Z</time>
  </trkpt>
  <trkpt lat="33.969140" lon="-4.056807">
   <ele>1366.00</ele>
   <time>2014-03-30T11:50:21Z</time>
  </trkpt>
  <trkpt lat="33.968753" lon="-4.056502">
   <ele>1362.00</ele>
   <time>2014-03-30T11:50:27Z</time>
  </trkpt>
  <trkpt lat="33.968570" lon="-4.056317">
   <ele>1361.00</ele>
   <time>2014-03-30T11:50:30Z</time>
  </trkpt>
  <trkpt lat="33.968427" lon="-4.056106">
   <ele>1360.00</ele>
   <time>2014-03-30T11:50:33Z</time>
  </trkpt>
  <trkpt lat="33.968250" lon="-4.055899">
   <ele>1358.00</ele>
   <time>2014-03-30T11:50:36Z</time>
  </trkpt>
  <trkpt lat="33.968011" lon="-4.055788">
   <ele>1356.00</ele>
   <time>2014-03-30T11:50:39Z</time>
  </trkpt>
  <trkpt lat="33.967758" lon="-4.055871">
   <ele>1353.00</ele>
   <time>2014-03-30T11:50:42Z</time>
  </trkpt>
  <trkpt lat="33.967582" lon="-4.055985">
   <ele>1351.00</ele>
   <time>2014-03-30T11:50:44Z</time>
  </trkpt>
  <trkpt lat="33.967239" lon="-4.056201">
   <ele>1347.00</ele>
   <time>2014-03-30T11:50:48Z</time>
  </trkpt>
  <trkpt lat="33.967102" lon="-4.056354">
   <ele>1345.00</ele>
   <time>2014-03-30T11:50:50Z</time>
  </trkpt>
  <trkpt lat="33.966990" lon="-4.056560">
   <ele>1342.00</ele>
   <time>2014-03-30T11:50:52Z</time>
  </trkpt>
  <trkpt lat="33.966931" lon="-4.056802">
   <ele>1340.00</ele>
   <time>2014-03-30T11:50:54Z</time>
  </trkpt>
  <trkpt lat="33.966931" lon="-4.057064">
   <ele>1338.00</ele>
   <time>2014-03-30T11:50:56Z</time>
  </trkpt>
  <trkpt lat="33.966940" lon="-4.057328">
   <ele>1337.00</ele>
   <time>2014-03-30T11:50:58Z</time>
  </trkpt>
  <trkpt lat="33.966932" lon="-4.057575">
   <ele>1336.00</ele>
   <time>2014-03-30T11:51:00Z</time>
  </trkpt>
  <trkpt lat="33.966895" lon="-4.057788">
   <ele>1334.00</ele>
   <time>2014-03-30T11:51:02Z</time>
  </trkpt>
  <trkpt lat="33.966720" lon="-4.057943">
   <ele>1332.00</ele>
   <time>2014-03-30T11:51:05Z</time>
  </trkpt>
  <trkpt lat="33.966496" lon="-4.057795">
   <ele>1330.00</ele>
   <time>2014-03-30T11:51:08Z</time>
  </trkpt>
  <trkpt lat="33.966350" lon="-4.057631">
   <ele>1329.00</ele>
   <time>2014-03-30T11:51:10Z</time>
  </trkpt>
  <trkpt lat="33.966217" lon="-4.057445">
   <ele>1328.00</ele>
   <time>2014-03-30T11:51:12Z</time>
  </trkpt>
  <trkpt lat="33.966102" lon="-4.057245">
   <ele>1327.00</ele>
   <time>2014-03-30T11:51:14Z</time>
  </trkpt>
  <trkpt lat="33.965930" lon="-4.056974">
   <ele>1327.00</ele>
   <time>2014-03-30T11:51:17Z</time>
  </trkpt>
  <trkpt lat="33.965729" lon="-4.056854">
   <ele>1328.00</ele>
   <time>2014-03-30T11:51:20Z</time>
  </trkpt>
  <trkpt lat="33.965463" lon="-4.056873">
   <ele>1327.00</ele>
   <time>2014-03-30T11:51:23Z</time>
  </trkpt>
  <trkpt lat="33.965253" lon="-4.056875">
   <ele>1327.00</ele>
   <time>2014-03-30T11:51:25Z</time>
  </trkpt>
  <trkpt lat="33.965037" lon="-4.056856">
   <ele>1327.00</ele>
   <time>2014-03-30T11:51:27Z</time>
  </trkpt>
  <trkpt lat="33.964616" lon="-4.056804">
   <ele>1330.00</ele>
   <time>2014-03-30T11:51:31Z</time>
  </trkpt>
  <trkpt lat="33.964374" lon="-4.056686">
   <ele>1332.00</ele>
   <time>2014-03-30T11:51:34Z</time>
  </trkpt>
  <trkpt lat="33.964281" lon="-4.056386">
   <ele>1334.00</ele>
   <time>2014-03-30T11:51:37Z</time>
  </trkpt>
  <trkpt lat="33.964245" lon="-4.056148">
   <ele>1334.00</ele>
   <time>2014-03-30T11:51:39Z</time>
  </trkpt>
  <trkpt lat="33.964186" lon="-4.055918">
   <ele>1335.00</ele>
   <time>2014-03-30T11:51:41Z</time>
  </trkpt>
  <trkpt lat="33.964095" lon="-4.055727">
   <ele>1335.00</ele>
   <time>2014-03-30T11:51:43Z</time>
  </trkpt>
  <trkpt lat="33.963886" lon="-4.055631">
   <ele>1337.00</ele>
   <time>2014-03-30T11:51:46Z</time>
  </trkpt>
  <trkpt lat="33.963638" lon="-4.055717">
   <ele>1338.00</ele>
   <time>2014-03-30T11:51:49Z</time>
  </trkpt>
  <trkpt lat="33.963081" lon="-4.055967">
   <ele>1341.00</ele>
   <time>2014-03-30T11:51:55Z</time>
  </trkpt>
  <trkpt lat="33.962916" lon="-4.056088">
   <ele>1342.00</ele>
   <time>2014-03-30T11:51:57Z</time>
  </trkpt>
  <trkpt lat="33.962797" lon="-4.056267">
   <ele>1342.00</ele>
   <time>2014-03-30T11:51:59Z</time>
  </trkpt>
  <trkpt lat="33.962758" lon="-4.056503">
   <ele>1342.00</ele>
   <time>2014-03-30T11:52:01Z</time>
  </trkpt>
  <trkpt lat="33.962776" lon="-4.056764">
   <ele>1343.00</ele>
   <time>2014-03-30T11:52:03Z</time>
  </trkpt>
  <trkpt lat="33.962771" lon="-4.057045">
   <ele>1343.00</ele>
   <time>2014-03-30T11:52:05Z</time>
  </trkpt>
  <trkpt lat="33.962734" lon="-4.057324">
   <ele>1344.00</ele>
   <time>2014-03-30T11:52:07Z</time>
  </trkpt>
  <trkpt lat="33.962681" lon="-4.057720">
   <ele>1346.00</ele>
   <time>2014-03-30T11:52:10Z</time>
  </trkpt>
  <trkpt lat="33.962617" lon="-4.058424">
   <ele>1351.00</ele>
   <time>2014-03-30T11:52:16Z</time>
  </trkpt>
  <trkpt lat="33.962553" lon="-4.058653">
   <ele>1352.00</ele>
   <time>2014-03-30T11:52:18Z</time>
  </trkpt>
  <trkpt lat="33.962466" lon="-4.058871">
   <ele>1353.00</ele>
   <time>2014-03-30T11:52:20Z</time>
  </trkpt>
  <trkpt lat="33.962359" lon="-4.059048">
   <ele>1354.00</ele>
   <time>2014-03-30T11:52:22Z</time>
  </trkpt>
  <trkpt lat="33.962150" lon="-4.059028">
   <ele>1355.00</ele>
   <time>2014-03-30T11:52:25Z</time>
  </trkpt>
  <trkpt lat="33.961938" lon="-4.058866">
   <ele>1355.00</ele>
   <time>2014-03-30T11:52:28Z</time>
  </trkpt>
  <trkpt lat="33.961732" lon="-4.059018">
   <ele>1354.00</ele>
   <time>2014-03-30T11:52:31Z</time>
  </trkpt>
  <trkpt lat="33.961626" lon="-4.059212">
   <ele>1353.00</ele>
   <time>2014-03-30T11:52:33Z</time>
  </trkpt>
  <trkpt lat="33.961492" lon="-4.059357">
   <ele>1352.00</ele>
   <time>2014-03-30T11:52:35Z</time>
  </trkpt>
  <trkpt lat="33.961339" lon="-4.059483">
   <ele>1352.00</ele>
   <time>2014-03-30T11:52:37Z</time>
  </trkpt>
  <trkpt lat="33.961113" lon="-4.059697">
   <ele>1350.00</ele>
   <time>2014-03-30T11:52:40Z</time>
  </trkpt>
  <trkpt lat="33.960944" lon="-4.059827">
   <ele>1349.00</ele>
   <time>2014-03-30T11:52:42Z</time>
  </trkpt>
  <trkpt lat="33.960760" lon="-4.059940">
   <ele>1347.00</ele>
   <time>2014-03-30T11:52:44Z</time>
  </trkpt>
  <trkpt lat="33.960571" lon="-4.060020">
   <ele>1345.00</ele>
   <time>2014-03-30T11:52:46Z</time>
  </trkpt>
  <trkpt lat="33.960337" lon="-4.059954">
   <ele>1343.00</ele>
   <time>2014-03-30T11:52:49Z</time>
  </trkpt>
  <trkpt lat="33.960220" lon="-4.059775">
   <ele>1340.00</ele>
   <time>2014-03-30T11:52:51Z</time>
  </trkpt>
  <trkpt lat="33.960098" lon="-4.059551">
   <ele>1339.00</ele>
   <time>2014-03-30T11:52:53Z</time>
  </trkpt>
  <trkpt lat="33.959972" lon="-4.059288">
   <ele>1339.00</ele>
   <time>2014-03-30T11:52:55Z</time>
  </trkpt>
  <trkpt lat="33.959857" lon="-4.059012">
   <ele>1338.00</ele>
   <time>2014-03-30T11:52:57Z</time>
  </trkpt>
  <trkpt lat="33.959749" lon="-4.058729">
   <ele>1338.00</ele>
   <time>2014-03-30T11:52:59Z</time>
  </trkpt>
  <trkpt lat="33.959531" lon="-4.058147">
   <ele>1339.00</ele>
   <time>2014-03-30T11:53:03Z</time>
  </trkpt>
  <trkpt lat="33.959264" lon="-4.057476">
   <ele>1342.00</ele>
   <time>2014-03-30T11:53:08Z</time>
  </trkpt>
  <trkpt lat="33.959136" lon="-4.057244">
   <ele>1343.00</ele>
   <time>2014-03-30T11:53:10Z</time>
  </trkpt>
  <trkpt lat="33.958994" lon="-4.057080">
   <ele>1344.00</ele>
   <time>2014-03-30T11:53:12Z</time>
  </trkpt>
  <trkpt lat="33.958774" lon="-4.057146">
   <ele>1345.00</ele>
   <time>2014-03-30T11:53:15Z</time>
  </trkpt>
  <trkpt lat="33.958614" lon="-4.057374">
   <ele>1346.00</ele>
   <time>2014-03-30T11:53:18Z</time>
  </trkpt>
  <trkpt lat="33.958472" lon="-4.057616">
   <ele>1347.00</ele>
   <time>2014-03-30T11:53:21Z</time>
  </trkpt>
  <trkpt lat="33.958303" lon="-4.057598">
   <ele>1347.00</ele>
   <time>2014-03-30T11:53:25Z</time>
  </trkpt>
  <trkpt lat="33.958276" lon="-4.057354">
   <ele>1346.00</ele>
   <time>2014-03-30T11:53:28Z</time>
  </trkpt>
  <trkpt lat="33.958202" lon="-4.057051">
   <ele>1345.00</ele>
   <time>2014-03-30T11:53:31Z</time>
  </trkpt>
  <trkpt lat="33.958090" lon="-4.056866">
   <ele>1345.00</ele>
   <time>2014-03-30T11:53:33Z</time>
  </trkpt>
  <trkpt lat="33.957981" lon="-4.056662">
   <ele>1344.00</ele>
   <time>2014-03-30T11:53:35Z</time>
  </trkpt>
  <trkpt lat="33.957925" lon="-4.056422">
   <ele>1344.00</ele>
   <time>2014-03-30T11:53:37Z</time>
  </trkpt>
  <trkpt lat="33.957923" lon="-4.056169">
   <ele>1344.00</ele>
   <time>2014-03-30T11:53:39Z</time>
  </trkpt>
  <trkpt lat="33.957915" lon="-4.055919">
   <ele>1344.00</ele>
   <time>2014-03-30T11:53:41Z</time>
  </trkpt>
  <trkpt lat="33.957876" lon="-4.055669">
   <ele>1342.00</ele>
   <time>2014-03-30T11:53:43Z</time>
  </trkpt>
  <trkpt lat="33.957841" lon="-4.055412">
   <ele>1341.00</ele>
   <time>2014-03-30T11:53:45Z</time>
  </trkpt>
  <trkpt lat="33.957823" lon="-4.055143">
   <ele>1339.00</ele>
   <time>2014-03-30T11:53:47Z</time>
  </trkpt>
  <trkpt lat="33.957800" lon="-4.054599">
   <ele>1337.00</ele>
   <time>2014-03-30T11:53:51Z</time>
  </trkpt>
  <trkpt lat="33.957744" lon="-4.054380">
   <ele>1336.00</ele>
   <time>2014-03-30T11:53:53Z</time>
  </trkpt>
  <trkpt lat="33.957556" lon="-4.054159">
   <ele>1335.00</ele>
   <time>2014-03-30T11:53:56Z</time>
  </trkpt>
  <trkpt lat="33.957387" lon="-4.054079">
   <ele>1335.00</ele>
   <time>2014-03-30T11:53:58Z</time>
  </trkpt>
  <trkpt lat="33.957203" lon="-4.054063">
   <ele>1335.00</ele>
   <time>2014-03-30T11:54:00Z</time>
  </trkpt>
  <trkpt lat="33.957025" lon="-4.054117">
   <ele>1335.00</ele>
   <time>2014-03-30T11:54:02Z</time>
  </trkpt>
  <trkpt lat="33.956769" lon="-4.054221">
   <ele>1335.00</ele>
   <time>2014-03-30T11:54:05Z</time>
  </trkpt>
  <trkpt lat="33.956525" lon="-4.054180">
   <ele>1336.00</ele>
   <time>2014-03-30T11:54:08Z</time>
  </trkpt>
  <trkpt lat="33.956406" lon="-4.053945">
   <ele>1337.00</ele>
   <time>2014-03-30T11:54:11Z</time>
  </trkpt>
  <trkpt lat="33.956377" lon="-4.053613">
   <ele>1339.00</ele>
   <time>2014-03-30T11:54:14Z</time>
  </trkpt>
  <trkpt lat="33.956347" lon="-4.053368">
   <ele>1340.00</ele>
   <time>2014-03-30T11:54:16Z</time>
  </trkpt>
  <trkpt lat="33.956323" lon="-4.053117">
   <ele>1340.00</ele>
   <time>2014-03-30T11:54:18Z</time>
  </trkpt>
  <trkpt lat="33.956356" lon="-4.052876">
   <ele>1341.00</ele>
   <time>2014-03-30T11:54:20Z</time>
  </trkpt>
  <trkpt lat="33.956448" lon="-4.052506">
   <ele>1340.00</ele>
   <time>2014-03-30T11:54:23Z</time>
  </trkpt>
  <trkpt lat="33.956482" lon="-4.052252">
   <ele>1340.00</ele>
   <time>2014-03-30T11:54:25Z</time>
  </trkpt>
  <trkpt lat="33.956485" lon="-4.051996">
   <ele>1341.00</ele>
   <time>2014-03-30T11:54:27Z</time>
  </trkpt>
  <trkpt lat="33.956446" lon="-4.051740">
   <ele>1340.00</ele>
   <time>2014-03-30T11:54:29Z</time>
  </trkpt>
  <trkpt lat="33.956363" lon="-4.051493">
   <ele>1339.00</ele>
   <time>2014-03-30T11:54:31Z</time>
  </trkpt>
  <trkpt lat="33.956245" lon="-4.051262">
   <ele>1338.00</ele>
   <time>2014-03-30T11:54:33Z</time>
  </trkpt>
  <trkpt lat="33.956124" lon="-4.051060">
   <ele>1338.00</ele>
   <time>2014-03-30T11:54:35Z</time>
  </trkpt>
  <trkpt lat="33.955894" lon="-4.050915">
   <ele>1337.00</ele>
   <time>2014-03-30T11:54:38Z</time>
  </trkpt>
  <trkpt lat="33.955713" lon="-4.050897">
   <ele>1336.00</ele>
   <time>2014-03-30T11:54:40Z</time>
  </trkpt>
  <trkpt lat="33.955441" lon="-4.050907">
   <ele>1336.00</ele>
   <time>2014-03-30T11:54:43Z</time>
  </trkpt>
  <trkpt lat="33.955200" lon="-4.050965">
   <ele>1335.00</ele>
   <time>2014-03-30T11:54:46Z</time>
  </trkpt>
  <trkpt lat="33.955011" lon="-4.051162">
   <ele>1332.00</ele>
   <time>2014-03-30T11:54:49Z</time>
  </trkpt>
  <trkpt lat="33.954893" lon="-4.051452">
   <ele>1329.00</ele>
   <time>2014-03-30T11:54:52Z</time>
  </trkpt>
  <trkpt lat="33.954785" lon="-4.051633">
   <ele>1328.00</ele>
   <time>2014-03-30T11:54:54Z</time>
  </trkpt>
  <trkpt lat="33.954632" lon="-4.051784">
   <ele>1326.00</ele>
   <time>2014-03-30T11:54:56Z</time>
  </trkpt>
  <trkpt lat="33.954447" lon="-4.051901">
   <ele>1324.00</ele>
   <time>2014-03-30T11:54:58Z</time>
  </trkpt>
  <trkpt lat="33.954227" lon="-4.051964">
   <ele>1322.00</ele>
   <time>2014-03-30T11:55:00Z</time>
  </trkpt>
  <trkpt lat="33.953336" lon="-4.052181">
   <ele>1313.00</ele>
   <time>2014-03-30T11:55:07Z</time>
  </trkpt>
  <trkpt lat="33.952918" lon="-4.052302">
   <ele>1308.00</ele>
   <time>2014-03-30T11:55:10Z</time>
  </trkpt>
  <trkpt lat="33.952644" lon="-4.052376">
   <ele>1306.00</ele>
   <time>2014-03-30T11:55:12Z</time>
  </trkpt>
  <trkpt lat="33.952400" lon="-4.052457">
   <ele>1303.00</ele>
   <time>2014-03-30T11:55:14Z</time>
  </trkpt>
  <trkpt lat="33.952158" lon="-4.052474">
   <ele>1301.00</ele>
   <time>2014-03-30T11:55:16Z</time>
  </trkpt>
  <trkpt lat="33.951645" lon="-4.052465">
   <ele>1296.00</ele>
   <time>2014-03-30T11:55:20Z</time>
  </trkpt>
  <trkpt lat="33.951122" lon="-4.052446">
   <ele>1290.00</ele>
   <time>2014-03-30T11:55:24Z</time>
  </trkpt>
  <trkpt lat="33.950580" lon="-4.052471">
   <ele>1285.00</ele>
   <time>2014-03-30T11:55:28Z</time>
  </trkpt>
  <trkpt lat="33.950198" lon="-4.052500">
   <ele>1281.00</ele>
   <time>2014-03-30T11:55:31Z</time>
  </trkpt>
  <trkpt lat="33.949981" lon="-4.052507">
   <ele>1279.00</ele>
   <time>2014-03-30T11:55:33Z</time>
  </trkpt>
  <trkpt lat="33.949787" lon="-4.052541">
   <ele>1277.00</ele>
   <time>2014-03-30T11:55:35Z</time>
  </trkpt>
  <trkpt lat="33.949602" lon="-4.052728">
   <ele>1274.00</ele>
   <time>2014-03-30T11:55:38Z</time>
  </trkpt>
  <trkpt lat="33.949560" lon="-4.052941">
   <ele>1271.00</ele>
   <time>2014-03-30T11:55:40Z</time>
  </trkpt>
  <trkpt lat="33.949553" lon="-4.053185">
   <ele>1269.00</ele>
   <time>2014-03-30T11:55:42Z</time>
  </trkpt>
  <trkpt lat="33.949565" lon="-4.053449">
   <ele>1267.00</ele>
   <time>2014-03-30T11:55:44Z</time>
  </trkpt>
  <trkpt lat="33.949602" lon="-4.053728">
   <ele>1264.00</ele>
   <time>2014-03-30T11:55:46Z</time>
  </trkpt>
  <trkpt lat="33.949654" lon="-4.053984">
   <ele>1262.00</ele>
   <time>2014-03-30T11:55:48Z</time>
  </trkpt>
  <trkpt lat="33.949577" lon="-4.054267">
   <ele>1260.00</ele>
   <time>2014-03-30T11:55:51Z</time>
  </trkpt>
  <trkpt lat="33.949351" lon="-4.054353">
   <ele>1260.00</ele>
   <time>2014-03-30T11:55:54Z</time>
  </trkpt>
  <trkpt lat="33.949078" lon="-4.054331">
   <ele>1261.00</ele>
   <time>2014-03-30T11:55:57Z</time>
  </trkpt>
  <trkpt lat="33.948894" lon="-4.054274">
   <ele>1262.00</ele>
   <time>2014-03-30T11:55:59Z</time>
  </trkpt>
  <trkpt lat="33.948615" lon="-4.054138">
   <ele>1263.00</ele>
   <time>2014-03-30T11:56:02Z</time>
  </trkpt>
  <trkpt lat="33.948003" lon="-4.053880">
   <ele>1267.00</ele>
   <time>2014-03-30T11:56:08Z</time>
  </trkpt>
  <trkpt lat="33.947811" lon="-4.053757">
   <ele>1269.00</ele>
   <time>2014-03-30T11:56:10Z</time>
  </trkpt>
  <trkpt lat="33.947640" lon="-4.053593">
   <ele>1271.00</ele>
   <time>2014-03-30T11:56:12Z</time>
  </trkpt>
  <trkpt lat="33.947476" lon="-4.053418">
   <ele>1272.00</ele>
   <time>2014-03-30T11:56:14Z</time>
  </trkpt>
  <trkpt lat="33.947312" lon="-4.053257">
   <ele>1274.00</ele>
   <time>2014-03-30T11:56:16Z</time>
  </trkpt>
  <trkpt lat="33.947169" lon="-4.053098">
   <ele>1276.00</ele>
   <time>2014-03-30T11:56:18Z</time>
  </trkpt>
  <trkpt lat="33.946995" lon="-4.052866">
   <ele>1277.00</ele>
   <time>2014-03-30T11:56:21Z</time>
  </trkpt>
  <trkpt lat="33.946789" lon="-4.052731">
   <ele>1278.00</ele>
   <time>2014-03-30T11:56:24Z</time>
  </trkpt>
  <trkpt lat="33.946554" lon="-4.052678">
   <ele>1277.00</ele>
   <time>2014-03-30T11:56:27Z</time>
  </trkpt>
  <trkpt lat="33.946304" lon="-4.052704">
   <ele>1275.00</ele>
   <time>2014-03-30T11:56:30Z</time>
  </trkpt>
  <trkpt lat="33.946124" lon="-4.052764">
   <ele>1274.00</ele>
   <time>2014-03-30T11:56:32Z</time>
  </trkpt>
  <trkpt lat="33.945929" lon="-4.052832">
   <ele>1272.00</ele>
   <time>2014-03-30T11:56:34Z</time>
  </trkpt>
  <trkpt lat="33.945708" lon="-4.052863">
   <ele>1270.00</ele>
   <time>2014-03-30T11:56:36Z</time>
  </trkpt>
  <trkpt lat="33.945466" lon="-4.052844">
   <ele>1268.00</ele>
   <time>2014-03-30T11:56:38Z</time>
  </trkpt>
  <trkpt lat="33.945231" lon="-4.052740">
   <ele>1266.00</ele>
   <time>2014-03-30T11:56:40Z</time>
  </trkpt>
  <trkpt lat="33.945001" lon="-4.052597">
   <ele>1263.00</ele>
   <time>2014-03-30T11:56:42Z</time>
  </trkpt>
  <trkpt lat="33.944774" lon="-4.052426">
   <ele>1260.00</ele>
   <time>2014-03-30T11:56:44Z</time>
  </trkpt>
  <trkpt lat="33.944117" lon="-4.051847">
   <ele>1253.00</ele>
   <time>2014-03-30T11:56:50Z</time>
  </trkpt>
  <trkpt lat="33.943932" lon="-4.051658">
   <ele>1251.00</ele>
   <time>2014-03-30T11:56:52Z</time>
  </trkpt>
  <trkpt lat="33.943746" lon="-4.051511">
   <ele>1250.00</ele>
   <time>2014-03-30T11:56:54Z</time>
  </trkpt>
  <trkpt lat="33.943588" lon="-4.051392">
   <ele>1248.00</ele>
   <time>2014-03-30T11:56:56Z</time>
  </trkpt>
  <trkpt lat="33.943424" lon="-4.051147">
   <ele>1246.00</ele>
   <time>2014-03-30T11:56:59Z</time>
  </trkpt>
  <trkpt lat="33.943305" lon="-4.050949">
   <ele>1246.00</ele>
   <time>2014-03-30T11:57:01Z</time>
  </trkpt>
  <trkpt lat="33.942832" lon="-4.050160">
   <ele>1245.00</ele>
   <time>2014-03-30T11:57:08Z</time>
  </trkpt>
  <trkpt lat="33.942737" lon="-4.049920">
   <ele>1245.00</ele>
   <time>2014-03-30T11:57:10Z</time>
  </trkpt>
  <trkpt lat="33.942658" lon="-4.049669">
   <ele>1244.00</ele>
   <time>2014-03-30T11:57:12Z</time>
  </trkpt>
  <trkpt lat="33.942585" lon="-4.049413">
   <ele>1243.00</ele>
   <time>2014-03-30T11:57:14Z</time>
  </trkpt>
  <trkpt lat="33.942502" lon="-4.049166">
   <ele>1243.00</ele>
   <time>2014-03-30T11:57:16Z</time>
  </trkpt>
  <trkpt lat="33.942386" lon="-4.048810">
   <ele>1242.00</ele>
   <time>2014-03-30T11:57:19Z</time>
  </trkpt>
  <trkpt lat="33.942403" lon="-4.048571">
   <ele>1241.00</ele>
   <time>2014-03-30T11:57:21Z</time>
  </trkpt>
  <trkpt lat="33.942492" lon="-4.048344">
   <ele>1241.00</ele>
   <time>2014-03-30T11:57:23Z</time>
  </trkpt>
  <trkpt lat="33.942583" lon="-4.048104">
   <ele>1241.00</ele>
   <time>2014-03-30T11:57:25Z</time>
  </trkpt>
  <trkpt lat="33.942713" lon="-4.047715">
   <ele>1241.00</ele>
   <time>2014-03-30T11:57:28Z</time>
  </trkpt>
  <trkpt lat="33.942791" lon="-4.047448">
   <ele>1242.00</ele>
   <time>2014-03-30T11:57:30Z</time>
  </trkpt>
  <trkpt lat="33.942858" lon="-4.047178">
   <ele>1242.00</ele>
   <time>2014-03-30T11:57:32Z</time>
  </trkpt>
  <trkpt lat="33.942916" lon="-4.046914">
   <ele>1242.00</ele>
   <time>2014-03-30T11:57:34Z</time>
  </trkpt>
  <trkpt lat="33.943034" lon="-4.046700">
   <ele>1242.00</ele>
   <time>2014-03-30T11:57:36Z</time>
  </trkpt>
  <trkpt lat="33.943199" lon="-4.046538">
   <ele>1242.00</ele>
   <time>2014-03-30T11:57:38Z</time>
  </trkpt>
  <trkpt lat="33.943347" lon="-4.046352">
   <ele>1242.00</ele>
   <time>2014-03-30T11:57:40Z</time>
  </trkpt>
  <trkpt lat="33.943458" lon="-4.046132">
   <ele>1242.00</ele>
   <time>2014-03-30T11:57:42Z</time>
  </trkpt>
  <trkpt lat="33.943533" lon="-4.045905">
   <ele>1243.00</ele>
   <time>2014-03-30T11:57:44Z</time>
  </trkpt>
  <trkpt lat="33.943545" lon="-4.045689">
   <ele>1244.00</ele>
   <time>2014-03-30T11:57:46Z</time>
  </trkpt>
  <trkpt lat="33.943413" lon="-4.045406">
   <ele>1244.00</ele>
   <time>2014-03-30T11:57:49Z</time>
  </trkpt>
  <trkpt lat="33.943265" lon="-4.045153">
   <ele>1246.00</ele>
   <time>2014-03-30T11:57:52Z</time>
  </trkpt>
  <trkpt lat="33.943104" lon="-4.044853">
   <ele>1247.00</ele>
   <time>2014-03-30T11:57:57Z</time>
  </trkpt>
  <trkpt lat="33.942940" lon="-4.044602">
   <ele>1248.00</ele>
   <time>2014-03-30T11:58:10Z</time>
  </trkpt>
  <trkpt lat="33.942757" lon="-4.044584">
   <ele>1247.00</ele>
   <time>2014-03-30T11:58:15Z</time>
  </trkpt>
  <trkpt lat="33.942633" lon="-4.044768">
   <ele>1244.00</ele>
   <time>2014-03-30T11:58:18Z</time>
  </trkpt>
  <trkpt lat="33.942499" lon="-4.045018">
   <ele>1241.00</ele>
   <time>2014-03-30T11:58:21Z</time>
  </trkpt>
  <trkpt lat="33.942311" lon="-4.045228">
   <ele>1238.00</ele>
   <time>2014-03-30T11:58:24Z</time>
  </trkpt>
  <trkpt lat="33.942059" lon="-4.045250">
   <ele>1236.00</ele>
   <time>2014-03-30T11:58:27Z</time>
  </trkpt>
  <trkpt lat="33.941834" lon="-4.045085">
   <ele>1234.00</ele>
   <time>2014-03-30T11:58:30Z</time>
  </trkpt>
  <trkpt lat="33.941684" lon="-4.044945">
   <ele>1232.00</ele>
   <time>2014-03-30T11:58:32Z</time>
  </trkpt>
  <trkpt lat="33.941507" lon="-4.044808">
   <ele>1230.00</ele>
   <time>2014-03-30T11:58:34Z</time>
  </trkpt>
  <trkpt lat="33.941314" lon="-4.044665">
   <ele>1227.00</ele>
   <time>2014-03-30T11:58:36Z</time>
  </trkpt>
  <trkpt lat="33.941126" lon="-4.044483">
   <ele>1225.00</ele>
   <time>2014-03-30T11:58:38Z</time>
  </trkpt>
  <trkpt lat="33.940959" lon="-4.044262">
   <ele>1222.00</ele>
   <time>2014-03-30T11:58:40Z</time>
  </trkpt>
  <trkpt lat="33.940772" lon="-4.044053">
   <ele>1220.00</ele>
   <time>2014-03-30T11:58:42Z</time>
  </trkpt>
  <trkpt lat="33.940559" lon="-4.043869">
   <ele>1217.00</ele>
   <time>2014-03-30T11:58:44Z</time>
  </trkpt>
  <trkpt lat="33.940338" lon="-4.043712">
   <ele>1214.00</ele>
   <time>2014-03-30T11:58:46Z</time>
  </trkpt>
  <trkpt lat="33.940096" lon="-4.043599">
   <ele>1212.00</ele>
   <time>2014-03-30T11:58:48Z</time>
  </trkpt>
  <trkpt lat="33.939838" lon="-4.043516">
   <ele>1209.00</ele>
   <time>2014-03-30T11:58:50Z</time>
  </trkpt>
  <trkpt lat="33.939305" lon="-4.043344">
   <ele>1205.00</ele>
   <time>2014-03-30T11:58:54Z</time>
  </trkpt>
  <trkpt lat="33.939052" lon="-4.043200">
   <ele>1203.00</ele>
   <time>2014-03-30T11:58:56Z</time>
  </trkpt>
  <trkpt lat="33.938820" lon="-4.043008">
   <ele>1201.00</ele>
   <time>2014-03-30T11:58:58Z</time>
  </trkpt>
  <trkpt lat="33.938608" lon="-4.042784">
   <ele>1199.00</ele>
   <time>2014-03-30T11:59:00Z</time>
  </trkpt>
  <trkpt lat="33.938420" lon="-4.042537">
   <ele>1198.00</ele>
   <time>2014-03-30T11:59:02Z</time>
  </trkpt>
  <trkpt lat="33.938079" lon="-4.042041">
   <ele>1195.00</ele>
   <time>2014-03-30T11:59:06Z</time>
  </trkpt>
  <trkpt lat="33.937889" lon="-4.041824">
   <ele>1194.00</ele>
   <time>2014-03-30T11:59:08Z</time>
  </trkpt>
  <trkpt lat="33.937684" lon="-4.041623">
   <ele>1193.00</ele>
   <time>2014-03-30T11:59:10Z</time>
  </trkpt>
  <trkpt lat="33.937268" lon="-4.041243">
   <ele>1191.00</ele>
   <time>2014-03-30T11:59:14Z</time>
  </trkpt>
  <trkpt lat="33.937079" lon="-4.041035">
   <ele>1190.00</ele>
   <time>2014-03-30T11:59:16Z</time>
  </trkpt>
  <trkpt lat="33.936802" lon="-4.040718">
   <ele>1188.00</ele>
   <time>2014-03-30T11:59:19Z</time>
  </trkpt>
  <trkpt lat="33.936495" lon="-4.040450">
   <ele>1187.00</ele>
   <time>2014-03-30T11:59:22Z</time>
  </trkpt>
  <trkpt lat="33.936279" lon="-4.040305">
   <ele>1187.00</ele>
   <time>2014-03-30T11:59:24Z</time>
  </trkpt>
  <trkpt lat="33.936058" lon="-4.040220">
   <ele>1186.00</ele>
   <time>2014-03-30T11:59:26Z</time>
  </trkpt>
  <trkpt lat="33.935832" lon="-4.040212">
   <ele>1185.00</ele>
   <time>2014-03-30T11:59:28Z</time>
  </trkpt>
  <trkpt lat="33.933766" lon="-4.040270">
   <ele>1174.00</ele>
   <time>2014-03-30T11:59:44Z</time>
  </trkpt>
  <trkpt lat="33.933228" lon="-4.040296">
   <ele>1171.00</ele>
   <time>2014-03-30T11:59:48Z</time>
  </trkpt>
  <trkpt lat="33.932977" lon="-4.040351">
   <ele>1171.00</ele>
   <time>2014-03-30T11:59:50Z</time>
  </trkpt>
  <trkpt lat="33.932762" lon="-4.040482">
   <ele>1170.00</ele>
   <time>2014-03-30T11:59:52Z</time>
  </trkpt>
  <trkpt lat="33.932606" lon="-4.040678">
   <ele>1170.00</ele>
   <time>2014-03-30T11:59:54Z</time>
  </trkpt>
  <trkpt lat="33.932504" lon="-4.040901">
   <ele>1170.00</ele>
   <time>2014-03-30T11:59:56Z</time>
  </trkpt>
  <trkpt lat="33.932321" lon="-4.041414">
   <ele>1171.00</ele>
   <time>2014-03-30T12:00:01Z</time>
  </trkpt>
  <trkpt lat="33.932179" lon="-4.041835">
   <ele>1171.00</ele>
   <time>2014-03-30T12:00:06Z</time>
  </trkpt>
  <trkpt lat="33.932121" lon="-4.042084">
   <ele>1170.00</ele>
   <time>2014-03-30T12:00:10Z</time>
  </trkpt>
  <trkpt lat="33.932103" lon="-4.042312">
   <ele>1168.00</ele>
   <time>2014-03-30T12:00:16Z</time>
  </trkpt>
  <trkpt lat="33.932116" lon="-4.042306">
   <ele>1169.00</ele>
   <time>2014-03-30T12:00:26Z</time>
  </trkpt>
 </trkseg>
 <trkseg>
  <trkpt lat="33.931884" lon="-4.043713">
   <ele>1164.00</ele>
   <time>2014-03-30T12:09:57Z</time>
  </trkpt>
  <trkpt lat="33.931772" lon="-4.044244">
   <ele>1162.00</ele>
   <time>2014-03-30T12:10:03Z</time>
  </trkpt>
  <trkpt lat="33.931745" lon="-4.044519">
   <ele>1161.00</ele>
   <time>2014-03-30T12:10:06Z</time>
  </trkpt>
  <trkpt lat="33.931746" lon="-4.044827">
   <ele>1159.00</ele>
   <time>2014-03-30T12:10:09Z</time>
  </trkpt>
  <trkpt lat="33.931764" lon="-4.045143">
   <ele>1158.00</ele>
   <time>2014-03-30T12:10:12Z</time>
  </trkpt>
  <trkpt lat="33.931813" lon="-4.045456">
   <ele>1156.00</ele>
   <time>2014-03-30T12:10:15Z</time>
  </trkpt>
  <trkpt lat="33.931859" lon="-4.045671">
   <ele>1155.00</ele>
   <time>2014-03-30T12:10:17Z</time>
  </trkpt>
  <trkpt lat="33.931952" lon="-4.045994">
   <ele>1154.00</ele>
   <time>2014-03-30T12:10:20Z</time>
  </trkpt>
  <trkpt lat="33.932013" lon="-4.046205">
   <ele>1153.00</ele>
   <time>2014-03-30T12:10:22Z</time>
  </trkpt>
  <trkpt lat="33.932059" lon="-4.046519">
   <ele>1152.00</ele>
   <time>2014-03-30T12:10:25Z</time>
  </trkpt>
  <trkpt lat="33.931992" lon="-4.046809">
   <ele>1151.00</ele>
   <time>2014-03-30T12:10:28Z</time>
  </trkpt>
  <trkpt lat="33.931789" lon="-4.047005">
   <ele>1150.00</ele>
   <time>2014-03-30T12:10:31Z</time>
  </trkpt>
  <trkpt lat="33.931609" lon="-4.047092">
   <ele>1149.00</ele>
   <time>2014-03-30T12:10:33Z</time>
  </trkpt>
  <trkpt lat="33.931343" lon="-4.047206">
   <ele>1149.00</ele>
   <time>2014-03-30T12:10:36Z</time>
  </trkpt>
  <trkpt lat="33.931124" lon="-4.047326">
   <ele>1148.00</ele>
   <time>2014-03-30T12:10:39Z</time>
  </trkpt>
  <trkpt lat="33.931044" lon="-4.047553">
   <ele>1149.00</ele>
   <time>2014-03-30T12:10:42Z</time>
  </trkpt>
  <trkpt lat="33.931039" lon="-4.047856">
   <ele>1149.00</ele>
   <time>2014-03-30T12:10:45Z</time>
  </trkpt>
  <trkpt lat="33.931034" lon="-4.048077">
   <ele>1150.00</ele>
   <time>2014-03-30T12:10:47Z</time>
  </trkpt>
  <trkpt lat="33.931011" lon="-4.048754">
   <ele>1151.00</ele>
   <time>2014-03-30T12:10:53Z</time>
  </trkpt>
  <trkpt lat="33.930970" lon="-4.048969">
   <ele>1150.00</ele>
   <time>2014-03-30T12:10:55Z</time>
  </trkpt>
  <trkpt lat="33.930862" lon="-4.049297">
   <ele>1148.00</ele>
   <time>2014-03-30T12:10:58Z</time>
  </trkpt>
  <trkpt lat="33.930780" lon="-4.049500">
   <ele>1145.00</ele>
   <time>2014-03-30T12:11:00Z</time>
  </trkpt>
  <trkpt lat="33.930594" lon="-4.049683">
   <ele>1142.00</ele>
   <time>2014-03-30T12:11:03Z</time>
  </trkpt>
  <trkpt lat="33.930410" lon="-4.049687">
   <ele>1140.00</ele>
   <time>2014-03-30T12:11:05Z</time>
  </trkpt>
  <trkpt lat="33.930210" lon="-4.049622">
   <ele>1138.00</ele>
   <time>2014-03-30T12:11:07Z</time>
  </trkpt>
  <trkpt lat="33.929997" lon="-4.049557">
   <ele>1135.00</ele>
   <time>2014-03-30T12:11:09Z</time>
  </trkpt>
  <trkpt lat="33.929773" lon="-4.049562">
   <ele>1133.00</ele>
   <time>2014-03-30T12:11:11Z</time>
  </trkpt>
  <trkpt lat="33.929544" lon="-4.049613">
   <ele>1130.00</ele>
   <time>2014-03-30T12:11:13Z</time>
  </trkpt>
  <trkpt lat="33.929309" lon="-4.049673">
   <ele>1127.00</ele>
   <time>2014-03-30T12:11:15Z</time>
  </trkpt>
  <trkpt lat="33.929082" lon="-4.049761">
   <ele>1125.00</ele>
   <time>2014-03-30T12:11:17Z</time>
  </trkpt>
  <trkpt lat="33.928745" lon="-4.049918">
   <ele>1121.00</ele>
   <time>2014-03-30T12:11:20Z</time>
  </trkpt>
  <trkpt lat="33.928543" lon="-4.050036">
   <ele>1119.00</ele>
   <time>2014-03-30T12:11:22Z</time>
  </trkpt>
  <trkpt lat="33.928282" lon="-4.050215">
   <ele>1115.00</ele>
   <time>2014-03-30T12:11:25Z</time>
  </trkpt>
  <trkpt lat="33.928095" lon="-4.050284">
   <ele>1113.00</ele>
   <time>2014-03-30T12:11:27Z</time>
  </trkpt>
  <trkpt lat="33.927894" lon="-4.050310">
   <ele>1111.00</ele>
   <time>2014-03-30T12:11:29Z</time>
  </trkpt>
  <trkpt lat="33.927690" lon="-4.050332">
   <ele>1109.00</ele>
   <time>2014-03-30T12:11:31Z</time>
  </trkpt>
  <trkpt lat="33.927487" lon="-4.050383">
   <ele>1107.00</ele>
   <time>2014-03-30T12:11:33Z</time>
  </trkpt>
  <trkpt lat="33.927292" lon="-4.050474">
   <ele>1104.00</ele>
   <time>2014-03-30T12:11:35Z</time>
  </trkpt>
  <trkpt lat="33.927103" lon="-4.050596">
   <ele>1102.00</ele>
   <time>2014-03-30T12:11:37Z</time>
  </trkpt>
  <trkpt lat="33.926837" lon="-4.050781">
   <ele>1098.00</ele>
   <time>2014-03-30T12:11:40Z</time>
  </trkpt>
  <trkpt lat="33.926664" lon="-4.050857">
   <ele>1096.00</ele>
   <time>2014-03-30T12:11:42Z</time>
  </trkpt>
  <trkpt lat="33.926477" lon="-4.050751">
   <ele>1093.00</ele>
   <time>2014-03-30T12:11:45Z</time>
  </trkpt>
  <trkpt lat="33.926464" lon="-4.050501">
   <ele>1092.00</ele>
   <time>2014-03-30T12:11:48Z</time>
  </trkpt>
  <trkpt lat="33.926464" lon="-4.050267">
   <ele>1091.00</ele>
   <time>2014-03-30T12:11:51Z</time>
  </trkpt>
  <trkpt lat="33.926306" lon="-4.050207">
   <ele>1090.00</ele>
   <time>2014-03-30T12:11:54Z</time>
  </trkpt>
  <trkpt lat="33.926107" lon="-4.050311">
   <ele>1088.00</ele>
   <time>2014-03-30T12:11:57Z</time>
  </trkpt>
  <trkpt lat="33.925854" lon="-4.050345">
   <ele>1086.00</ele>
   <time>2014-03-30T12:12:00Z</time>
  </trkpt>
  <trkpt lat="33.925668" lon="-4.050376">
   <ele>1084.00</ele>
   <time>2014-03-30T12:12:02Z</time>
  </trkpt>
  <trkpt lat="33.925484" lon="-4.050461">
   <ele>1082.00</ele>
   <time>2014-03-30T12:12:04Z</time>
  </trkpt>
  <trkpt lat="33.924896" lon="-4.050782">
   <ele>1076.00</ele>
   <time>2014-03-30T12:12:10Z</time>
  </trkpt>
  <trkpt lat="33.924490" lon="-4.050985">
   <ele>1072.00</ele>
   <time>2014-03-30T12:12:14Z</time>
  </trkpt>
  <trkpt lat="33.924309" lon="-4.051029">
   <ele>1070.00</ele>
   <time>2014-03-30T12:12:16Z</time>
  </trkpt>
  <trkpt lat="33.924066" lon="-4.051001">
   <ele>1067.00</ele>
   <time>2014-03-30T12:12:19Z</time>
  </trkpt>
  <trkpt lat="33.923896" lon="-4.051080">
   <ele>1065.00</ele>
   <time>2014-03-30T12:12:22Z</time>
  </trkpt>
  <trkpt lat="33.923823" lon="-4.051321">
   <ele>1062.00</ele>
   <time>2014-03-30T12:12:25Z</time>
  </trkpt>
  <trkpt lat="33.923689" lon="-4.051563">
   <ele>1060.00</ele>
   <time>2014-03-30T12:12:28Z</time>
  </trkpt>
  <trkpt lat="33.923528" lon="-4.051663">
   <ele>1059.00</ele>
   <time>2014-03-30T12:12:30Z</time>
  </trkpt>
  <trkpt lat="33.922843" lon="-4.051991">
   <ele>1056.00</ele>
   <time>2014-03-30T12:12:37Z</time>
  </trkpt>
  <trkpt lat="33.922639" lon="-4.052070">
   <ele>1055.00</ele>
   <time>2014-03-30T12:12:39Z</time>
  </trkpt>
  <trkpt lat="33.922325" lon="-4.052182">
   <ele>1053.00</ele>
   <time>2014-03-30T12:12:42Z</time>
  </trkpt>
  <trkpt lat="33.922132" lon="-4.052288">
   <ele>1053.00</ele>
   <time>2014-03-30T12:12:44Z</time>
  </trkpt>
  <trkpt lat="33.921967" lon="-4.052433">
   <ele>1052.00</ele>
   <time>2014-03-30T12:12:46Z</time>
  </trkpt>
  <trkpt lat="33.921748" lon="-4.052674">
   <ele>1052.00</ele>
   <time>2014-03-30T12:12:49Z</time>
  </trkpt>
  <trkpt lat="33.921575" lon="-4.052795">
   <ele>1052.00</ele>
   <time>2014-03-30T12:12:51Z</time>
  </trkpt>
  <trkpt lat="33.921400" lon="-4.052867">
   <ele>1052.00</ele>
   <time>2014-03-30T12:12:53Z</time>
  </trkpt>
  <trkpt lat="33.921157" lon="-4.052779">
   <ele>1051.00</ele>
   <time>2014-03-30T12:12:56Z</time>
  </trkpt>
  <trkpt lat="33.921027" lon="-4.052605">
   <ele>1050.00</ele>
   <time>2014-03-30T12:12:58Z</time>
  </trkpt>
  <trkpt lat="33.920940" lon="-4.052371">
   <ele>1050.00</ele>
   <time>2014-03-30T12:13:00Z</time>
  </trkpt>
  <trkpt lat="33.920882" lon="-4.052112">
   <ele>1050.00</ele>
   <time>2014-03-30T12:13:02Z</time>
  </trkpt>
  <trkpt lat="33.920764" lon="-4.051547">
   <ele>1050.00</ele>
   <time>2014-03-30T12:13:07Z</time>
  </trkpt>
  <trkpt lat="33.920615" lon="-4.051406">
   <ele>1050.00</ele>
   <time>2014-03-30T12:13:10Z</time>
  </trkpt>
  <trkpt lat="33.920408" lon="-4.051568">
   <ele>1050.00</ele>
   <time>2014-03-30T12:13:13Z</time>
  </trkpt>
  <trkpt lat="33.920271" lon="-4.051733">
   <ele>1050.00</ele>
   <time>2014-03-30T12:13:15Z</time>
  </trkpt>
  <trkpt lat="33.920123" lon="-4.051896">
   <ele>1050.00</ele>
   <time>2014-03-30T12:13:17Z</time>
  </trkpt>
  <trkpt lat="33.919964" lon="-4.052032">
   <ele>1050.00</ele>
   <time>2014-03-30T12:13:19Z</time>
  </trkpt>
  <trkpt lat="33.919789" lon="-4.052060">
   <ele>1050.00</ele>
   <time>2014-03-30T12:13:21Z</time>
  </trkpt>
  <trkpt lat="33.919637" lon="-4.051835">
   <ele>1050.00</ele>
   <time>2014-03-30T12:13:24Z</time>
  </trkpt>
  <trkpt lat="33.919565" lon="-4.051625">
   <ele>1050.00</ele>
   <time>2014-03-30T12:13:26Z</time>
  </trkpt>
  <trkpt lat="33.919435" lon="-4.051456">
   <ele>1051.00</ele>
   <time>2014-03-30T12:13:28Z</time>
  </trkpt>
  <trkpt lat="33.919289" lon="-4.051317">
   <ele>1051.00</ele>
   <time>2014-03-30T12:13:30Z</time>
  </trkpt>
  <trkpt lat="33.919209" lon="-4.051046">
   <ele>1051.00</ele>
   <time>2014-03-30T12:13:33Z</time>
  </trkpt>
  <trkpt lat="33.919346" lon="-4.050761">
   <ele>1051.00</ele>
   <time>2014-03-30T12:13:36Z</time>
  </trkpt>
  <trkpt lat="33.919495" lon="-4.050586">
   <ele>1051.00</ele>
   <time>2014-03-30T12:13:38Z</time>
  </trkpt>
  <trkpt lat="33.919657" lon="-4.050422">
   <ele>1050.00</ele>
   <time>2014-03-30T12:13:40Z</time>
  </trkpt>
  <trkpt lat="33.919793" lon="-4.050236">
   <ele>1050.00</ele>
   <time>2014-03-30T12:13:42Z</time>
  </trkpt>
  <trkpt lat="33.919964" lon="-4.049947">
   <ele>1049.00</ele>
   <time>2014-03-30T12:13:45Z</time>
  </trkpt>
  <trkpt lat="33.920107" lon="-4.049803">
   <ele>1048.00</ele>
   <time>2014-03-30T12:13:47Z</time>
  </trkpt>
  <trkpt lat="33.920344" lon="-4.049707">
   <ele>1047.00</ele>
   <time>2014-03-30T12:13:50Z</time>
  </trkpt>
  <trkpt lat="33.920535" lon="-4.049653">
   <ele>1045.00</ele>
   <time>2014-03-30T12:13:53Z</time>
  </trkpt>
  <trkpt lat="33.920513" lon="-4.049445">
   <ele>1043.00</ele>
   <time>2014-03-30T12:13:58Z</time>
  </trkpt>
  <trkpt lat="33.920287" lon="-4.049418">
   <ele>1041.00</ele>
   <time>2014-03-30T12:14:01Z</time>
  </trkpt>
  <trkpt lat="33.920100" lon="-4.049431">
   <ele>1040.00</ele>
   <time>2014-03-30T12:14:03Z</time>
  </trkpt>
  <trkpt lat="33.919888" lon="-4.049468">
   <ele>1038.00</ele>
   <time>2014-03-30T12:14:05Z</time>
  </trkpt>
  <trkpt lat="33.919554" lon="-4.049558">
   <ele>1034.00</ele>
   <time>2014-03-30T12:14:08Z</time>
  </trkpt>
  <trkpt lat="33.919344" lon="-4.049636">
   <ele>1032.00</ele>
   <time>2014-03-30T12:14:10Z</time>
  </trkpt>
  <trkpt lat="33.919169" lon="-4.049744">
   <ele>1030.00</ele>
   <time>2014-03-30T12:14:12Z</time>
  </trkpt>
  <trkpt lat="33.919009" lon="-4.049846">
   <ele>1028.00</ele>
   <time>2014-03-30T12:14:14Z</time>
  </trkpt>
  <trkpt lat="33.918826" lon="-4.049853">
   <ele>1026.00</ele>
   <time>2014-03-30T12:14:16Z</time>
  </trkpt>
  <trkpt lat="33.918632" lon="-4.049793">
   <ele>1025.00</ele>
   <time>2014-03-30T12:14:18Z</time>
  </trkpt>
  <trkpt lat="33.918426" lon="-4.049741">
   <ele>1023.00</ele>
   <time>2014-03-30T12:14:20Z</time>
  </trkpt>
  <trkpt lat="33.918211" lon="-4.049742">
   <ele>1020.00</ele>
   <time>2014-03-30T12:14:22Z</time>
  </trkpt>
  <trkpt lat="33.917989" lon="-4.049789">
   <ele>1017.00</ele>
   <time>2014-03-30T12:14:24Z</time>
  </trkpt>
  <trkpt lat="33.917656" lon="-4.049873">
   <ele>1014.00</ele>
   <time>2014-03-30T12:14:27Z</time>
  </trkpt>
  <trkpt lat="33.917449" lon="-4.049893">
   <ele>1012.00</ele>
   <time>2014-03-30T12:14:29Z</time>
  </trkpt>
  <trkpt lat="33.917220" lon="-4.049999">
   <ele>1009.00</ele>
   <time>2014-03-30T12:14:32Z</time>
  </trkpt>
  <trkpt lat="33.917015" lon="-4.050156">
   <ele>1007.00</ele>
   <time>2014-03-30T12:14:35Z</time>
  </trkpt>
  <trkpt lat="33.916743" lon="-4.050178">
   <ele>1004.00</ele>
   <time>2014-03-30T12:14:38Z</time>
  </trkpt>
  <trkpt lat="33.916361" lon="-4.050135">
   <ele>1000.00</ele>
   <time>2014-03-30T12:14:42Z</time>
  </trkpt>
  <trkpt lat="33.916123" lon="-4.050094">
   <ele>998.00</ele>
   <time>2014-03-30T12:14:45Z</time>
  </trkpt>
  <trkpt lat="33.916018" lon="-4.050212">
   <ele>995.00</ele>
   <time>2014-03-30T12:14:50Z</time>
  </trkpt>
  <trkpt lat="33.916238" lon="-4.050313">
   <ele>992.00</ele>
   <time>2014-03-30T12:14:54Z</time>
  </trkpt>
  <trkpt lat="33.916479" lon="-4.050414">
   <ele>989.00</ele>
   <time>2014-03-30T12:14:57Z</time>
  </trkpt>
  <trkpt lat="33.916656" lon="-4.050504">
   <ele>988.00</ele>
   <time>2014-03-30T12:14:59Z</time>
  </trkpt>
  <trkpt lat="33.916939" lon="-4.050669">
   <ele>984.00</ele>
   <time>2014-03-30T12:15:03Z</time>
  </trkpt>
  <trkpt lat="33.916924" lon="-4.050859">
   <ele>982.00</ele>
   <time>2014-03-30T12:15:07Z</time>
  </trkpt>
  <trkpt lat="33.916716" lon="-4.050828">
   <ele>979.00</ele>
   <time>2014-03-30T12:15:10Z</time>
  </trkpt>
  <trkpt lat="33.916385" lon="-4.050742">
   <ele>976.00</ele>
   <time>2014-03-30T12:15:14Z</time>
  </trkpt>
  <trkpt lat="33.916199" lon="-4.050744">
   <ele>974.00</ele>
   <time>2014-03-30T12:15:16Z</time>
  </trkpt>
  <trkpt lat="33.916020" lon="-4.050802">
   <ele>972.00</ele>
   <time>2014-03-30T12:15:18Z</time>
  </trkpt>
  <trkpt lat="33.915809" lon="-4.050887">
   <ele>970.00</ele>
   <time>2014-03-30T12:15:21Z</time>
  </trkpt>
  <trkpt lat="33.915621" lon="-4.050862">
   <ele>968.00</ele>
   <time>2014-03-30T12:15:24Z</time>
  </trkpt>
  <trkpt lat="33.915508" lon="-4.050633">
   <ele>965.00</ele>
   <time>2014-03-30T12:15:27Z</time>
  </trkpt>
  <trkpt lat="33.915407" lon="-4.050343">
   <ele>962.00</ele>
   <time>2014-03-30T12:15:30Z</time>
  </trkpt>
  <trkpt lat="33.915315" lon="-4.050144">
   <ele>960.00</ele>
   <time>2014-03-30T12:15:32Z</time>
  </trkpt>
  <trkpt lat="33.915195" lon="-4.049956">
   <ele>957.00</ele>
   <time>2014-03-30T12:15:34Z</time>
  </trkpt>
  <trkpt lat="33.915059" lon="-4.049788">
   <ele>956.00</ele>
   <time>2014-03-30T12:15:36Z</time>
  </trkpt>
  <trkpt lat="33.914925" lon="-4.049638">
   <ele>954.00</ele>
   <time>2014-03-30T12:15:38Z</time>
  </trkpt>
  <trkpt lat="33.914703" lon="-4.049504">
   <ele>951.00</ele>
   <time>2014-03-30T12:15:41Z</time>
  </trkpt>
  <trkpt lat="33.914448" lon="-4.049541">
   <ele>949.00</ele>
   <time>2014-03-30T12:15:44Z</time>
  </trkpt>
  <trkpt lat="33.914284" lon="-4.049636">
   <ele>947.00</ele>
   <time>2014-03-30T12:15:46Z</time>
  </trkpt>
  <trkpt lat="33.914043" lon="-4.049807">
   <ele>945.00</ele>
   <time>2014-03-30T12:15:49Z</time>
  </trkpt>
  <trkpt lat="33.913841" lon="-4.049916">
   <ele>943.00</ele>
   <time>2014-03-30T12:15:52Z</time>
  </trkpt>
  <trkpt lat="33.913675" lon="-4.049728">
   <ele>941.00</ele>
   <time>2014-03-30T12:15:56Z</time>
  </trkpt>
  <trkpt lat="33.913411" lon="-4.049044">
   <ele>935.00</ele>
   <time>2014-03-30T12:16:04Z</time>
  </trkpt>
  <trkpt lat="33.913433" lon="-4.048823">
   <ele>933.00</ele>
   <time>2014-03-30T12:16:07Z</time>
  </trkpt>
  <trkpt lat="33.913631" lon="-4.048735">
   <ele>930.00</ele>
   <time>2014-03-30T12:16:10Z</time>
  </trkpt>
  <trkpt lat="33.913895" lon="-4.048682">
   <ele>927.00</ele>
   <time>2014-03-30T12:16:13Z</time>
  </trkpt>
  <trkpt lat="33.914086" lon="-4.048610">
   <ele>925.00</ele>
   <time>2014-03-30T12:16:15Z</time>
  </trkpt>
  <trkpt lat="33.914276" lon="-4.048490">
   <ele>925.00</ele>
   <time>2014-03-30T12:16:17Z</time>
  </trkpt>
  <trkpt lat="33.914452" lon="-4.048329">
   <ele>924.00</ele>
   <time>2014-03-30T12:16:19Z</time>
  </trkpt>
  <trkpt lat="33.914608" lon="-4.048141">
   <ele>923.00</ele>
   <time>2014-03-30T12:16:21Z</time>
  </trkpt>
  <trkpt lat="33.914720" lon="-4.047923">
   <ele>922.00</ele>
   <time>2014-03-30T12:16:23Z</time>
  </trkpt>
  <trkpt lat="33.914754" lon="-4.047682">
   <ele>921.00</ele>
   <time>2014-03-30T12:16:25Z</time>
  </trkpt>
  <trkpt lat="33.914726" lon="-4.047431">
   <ele>919.00</ele>
   <time>2014-03-30T12:16:27Z</time>
  </trkpt>
  <trkpt lat="33.914562" lon="-4.046645">
   <ele>915.00</ele>
   <time>2014-03-30T12:16:33Z</time>
  </trkpt>
  <trkpt lat="33.914448" lon="-4.046415">
   <ele>913.00</ele>
   <time>2014-03-30T12:16:35Z</time>
  </trkpt>
  <trkpt lat="33.914277" lon="-4.046237">
   <ele>913.00</ele>
   <time>2014-03-30T12:16:37Z</time>
  </trkpt>
  <trkpt lat="33.914083" lon="-4.046085">
   <ele>912.00</ele>
   <time>2014-03-30T12:16:39Z</time>
  </trkpt>
  <trkpt lat="33.913885" lon="-4.045934">
   <ele>911.00</ele>
   <time>2014-03-30T12:16:41Z</time>
  </trkpt>
  <trkpt lat="33.913705" lon="-4.045753">
   <ele>910.00</ele>
   <time>2014-03-30T12:16:43Z</time>
  </trkpt>
  <trkpt lat="33.913546" lon="-4.045547">
   <ele>909.00</ele>
   <time>2014-03-30T12:16:45Z</time>
  </trkpt>
  <trkpt lat="33.913388" lon="-4.045350">
   <ele>909.00</ele>
   <time>2014-03-30T12:16:47Z</time>
  </trkpt>
  <trkpt lat="33.913216" lon="-4.045184">
   <ele>909.00</ele>
   <time>2014-03-30T12:16:49Z</time>
  </trkpt>
  <trkpt lat="33.913024" lon="-4.045053">
   <ele>909.00</ele>
   <time>2014-03-30T12:16:51Z</time>
  </trkpt>
  <trkpt lat="33.912813" lon="-4.044962">
   <ele>908.00</ele>
   <time>2014-03-30T12:16:53Z</time>
  </trkpt>
  <trkpt lat="33.912595" lon="-4.044909">
   <ele>908.00</ele>
   <time>2014-03-30T12:16:55Z</time>
  </trkpt>
  <trkpt lat="33.912144" lon="-4.044844">
   <ele>907.00</ele>
   <time>2014-03-30T12:16:59Z</time>
  </trkpt>
  <trkpt lat="33.911911" lon="-4.044781">
   <ele>906.00</ele>
   <time>2014-03-30T12:17:01Z</time>
  </trkpt>
  <trkpt lat="33.911682" lon="-4.044698">
   <ele>906.00</ele>
   <time>2014-03-30T12:17:03Z</time>
  </trkpt>
  <trkpt lat="33.911465" lon="-4.044598">
   <ele>906.00</ele>
   <time>2014-03-30T12:17:05Z</time>
  </trkpt>
  <trkpt lat="33.911270" lon="-4.044471">
   <ele>906.00</ele>
   <time>2014-03-30T12:17:07Z</time>
  </trkpt>
  <trkpt lat="33.911111" lon="-4.044304">
   <ele>906.00</ele>
   <time>2014-03-30T12:17:09Z</time>
  </trkpt>
  <trkpt lat="33.910991" lon="-4.044109">
   <ele>906.00</ele>
   <time>2014-03-30T12:17:11Z</time>
  </trkpt>
  <trkpt lat="33.910905" lon="-4.043910">
   <ele>905.00</ele>
   <time>2014-03-30T12:17:13Z</time>
  </trkpt>
  <trkpt lat="33.910795" lon="-4.043681">
   <ele>905.00</ele>
   <time>2014-03-30T12:17:16Z</time>
  </trkpt>
  <trkpt lat="33.910622" lon="-4.043651">
   <ele>904.00</ele>
   <time>2014-03-30T12:17:20Z</time>
  </trkpt>
  <trkpt lat="33.910430" lon="-4.043773">
   <ele>902.00</ele>
   <time>2014-03-30T12:17:24Z</time>
  </trkpt>
  <trkpt lat="33.910249" lon="-4.043889">
   <ele>902.00</ele>
   <time>2014-03-30T12:17:27Z</time>
  </trkpt>
  <trkpt lat="33.910036" lon="-4.043865">
   <ele>902.00</ele>
   <time>2014-03-30T12:17:30Z</time>
  </trkpt>
  <trkpt lat="33.909898" lon="-4.043627">
   <ele>902.00</ele>
   <time>2014-03-30T12:17:33Z</time>
  </trkpt>
  <trkpt lat="33.909818" lon="-4.043431">
   <ele>902.00</ele>
   <time>2014-03-30T12:17:35Z</time>
  </trkpt>
  <trkpt lat="33.909740" lon="-4.043211">
   <ele>903.00</ele>
   <time>2014-03-30T12:17:37Z</time>
  </trkpt>
  <trkpt lat="33.909673" lon="-4.042977">
   <ele>904.00</ele>
   <time>2014-03-30T12:17:39Z</time>
  </trkpt>
  <trkpt lat="33.909643" lon="-4.042735">
   <ele>905.00</ele>
   <time>2014-03-30T12:17:41Z</time>
  </trkpt>
  <trkpt lat="33.909655" lon="-4.042491">
   <ele>906.00</ele>
   <time>2014-03-30T12:17:43Z</time>
  </trkpt>
  <trkpt lat="33.909710" lon="-4.042280">
   <ele>908.00</ele>
   <time>2014-03-30T12:17:45Z</time>
  </trkpt>
  <trkpt lat="33.909874" lon="-4.042059">
   <ele>912.00</ele>
   <time>2014-03-30T12:17:48Z</time>
  </trkpt>
  <trkpt lat="33.910028" lon="-4.041849">
   <ele>915.00</ele>
   <time>2014-03-30T12:17:51Z</time>
  </trkpt>
  <trkpt lat="33.910144" lon="-4.041600">
   <ele>917.00</ele>
   <time>2014-03-30T12:17:54Z</time>
  </trkpt>
  <trkpt lat="33.910201" lon="-4.041342">
   <ele>918.00</ele>
   <time>2014-03-30T12:17:57Z</time>
  </trkpt>
  <trkpt lat="33.910036" lon="-4.041146">
   <ele>918.00</ele>
   <time>2014-03-30T12:18:00Z</time>
  </trkpt>
  <trkpt lat="33.909843" lon="-4.041075">
   <ele>917.00</ele>
   <time>2014-03-30T12:18:02Z</time>
  </trkpt>
  <trkpt lat="33.909636" lon="-4.040974">
   <ele>916.00</ele>
   <time>2014-03-30T12:18:04Z</time>
  </trkpt>
  <trkpt lat="33.909444" lon="-4.040816">
   <ele>914.00</ele>
   <time>2014-03-30T12:18:06Z</time>
  </trkpt>
  <trkpt lat="33.909281" lon="-4.040598">
   <ele>912.00</ele>
   <time>2014-03-30T12:18:08Z</time>
  </trkpt>
  <trkpt lat="33.909151" lon="-4.040334">
   <ele>910.00</ele>
   <time>2014-03-30T12:18:10Z</time>
  </trkpt>
  <trkpt lat="33.909049" lon="-4.040047">
   <ele>908.00</ele>
   <time>2014-03-30T12:18:12Z</time>
  </trkpt>
  <trkpt lat="33.908904" lon="-4.039623">
   <ele>906.00</ele>
   <time>2014-03-30T12:18:15Z</time>
  </trkpt>
  <trkpt lat="33.908772" lon="-4.039370">
   <ele>905.00</ele>
   <time>2014-03-30T12:18:17Z</time>
  </trkpt>
  <trkpt lat="33.908596" lon="-4.039151">
   <ele>904.00</ele>
   <time>2014-03-30T12:18:19Z</time>
  </trkpt>
  <trkpt lat="33.908398" lon="-4.038945">
   <ele>903.00</ele>
   <time>2014-03-30T12:18:21Z</time>
  </trkpt>
  <trkpt lat="33.908190" lon="-4.038756">
   <ele>903.00</ele>
   <time>2014-03-30T12:18:23Z</time>
  </trkpt>
  <trkpt lat="33.907979" lon="-4.038588">
   <ele>902.00</ele>
   <time>2014-03-30T12:18:25Z</time>
  </trkpt>
  <trkpt lat="33.907556" lon="-4.038287">
   <ele>902.00</ele>
   <time>2014-03-30T12:18:29Z</time>
  </trkpt>
  <trkpt lat="33.907386" lon="-4.038099">
   <ele>902.00</ele>
   <time>2014-03-30T12:18:31Z</time>
  </trkpt>
  <trkpt lat="33.907275" lon="-4.037854">
   <ele>903.00</ele>
   <time>2014-03-30T12:18:33Z</time>
  </trkpt>
  <trkpt lat="33.907229" lon="-4.037567">
   <ele>902.00</ele>
   <time>2014-03-30T12:18:35Z</time>
  </trkpt>
  <trkpt lat="33.907227" lon="-4.037257">
   <ele>901.00</ele>
   <time>2014-03-30T12:18:37Z</time>
  </trkpt>
  <trkpt lat="33.907251" lon="-4.036774">
   <ele>900.00</ele>
   <time>2014-03-30T12:18:40Z</time>
  </trkpt>
  <trkpt lat="33.907295" lon="-4.036101">
   <ele>900.00</ele>
   <time>2014-03-30T12:18:45Z</time>
  </trkpt>
  <trkpt lat="33.907260" lon="-4.035883">
   <ele>900.00</ele>
   <time>2014-03-30T12:18:47Z</time>
  </trkpt>
  <trkpt lat="33.907150" lon="-4.035674">
   <ele>899.00</ele>
   <time>2014-03-30T12:18:49Z</time>
  </trkpt>
  <trkpt lat="33.907001" lon="-4.035465">
   <ele>899.00</ele>
   <time>2014-03-30T12:18:51Z</time>
  </trkpt>
  <trkpt lat="33.906463" lon="-4.034709">
   <ele>899.00</ele>
   <time>2014-03-30T12:18:58Z</time>
  </trkpt>
  <trkpt lat="33.906344" lon="-4.034485">
   <ele>899.00</ele>
   <time>2014-03-30T12:19:00Z</time>
  </trkpt>
  <trkpt lat="33.906261" lon="-4.034232">
   <ele>899.00</ele>
   <time>2014-03-30T12:19:02Z</time>
  </trkpt>
  <trkpt lat="33.906231" lon="-4.033958">
   <ele>900.00</ele>
   <time>2014-03-30T12:19:04Z</time>
  </trkpt>
  <trkpt lat="33.906265" lon="-4.033669">
   <ele>899.00</ele>
   <time>2014-03-30T12:19:06Z</time>
  </trkpt>
  <trkpt lat="33.906336" lon="-4.033372">
   <ele>900.00</ele>
   <time>2014-03-30T12:19:08Z</time>
  </trkpt>
  <trkpt lat="33.906420" lon="-4.033088">
   <ele>901.00</ele>
   <time>2014-03-30T12:19:10Z</time>
  </trkpt>
  <trkpt lat="33.906530" lon="-4.032864">
   <ele>901.00</ele>
   <time>2014-03-30T12:19:12Z</time>
  </trkpt>
  <trkpt lat="33.906692" lon="-4.032702">
   <ele>900.00</ele>
   <time>2014-03-30T12:19:14Z</time>
  </trkpt>
  <trkpt lat="33.906861" lon="-4.032505">
   <ele>899.00</ele>
   <time>2014-03-30T12:19:16Z</time>
  </trkpt>
  <trkpt lat="33.907022" lon="-4.032266">
   <ele>897.00</ele>
   <time>2014-03-30T12:19:18Z</time>
  </trkpt>
  <trkpt lat="33.907500" lon="-4.031494">
   <ele>896.00</ele>
   <time>2014-03-30T12:19:24Z</time>
  </trkpt>
  <trkpt lat="33.907682" lon="-4.031271">
   <ele>896.00</ele>
   <time>2014-03-30T12:19:26Z</time>
  </trkpt>
  <trkpt lat="33.907889" lon="-4.031083">
   <ele>896.00</ele>
   <time>2014-03-30T12:19:28Z</time>
  </trkpt>
  <trkpt lat="33.908102" lon="-4.030929">
   <ele>896.00</ele>
   <time>2014-03-30T12:19:30Z</time>
  </trkpt>
  <trkpt lat="33.908479" lon="-4.030685">
   <ele>896.00</ele>
   <time>2014-03-30T12:19:34Z</time>
  </trkpt>
  <trkpt lat="33.908582" lon="-4.030457">
   <ele>896.00</ele>
   <time>2014-03-30T12:19:37Z</time>
  </trkpt>
  <trkpt lat="33.908493" lon="-4.030143">
   <ele>895.00</ele>
   <time>2014-03-30T12:19:40Z</time>
  </trkpt>
  <trkpt lat="33.908353" lon="-4.029927">
   <ele>894.00</ele>
   <time>2014-03-30T12:19:42Z</time>
  </trkpt>
  <trkpt lat="33.908176" lon="-4.029710">
   <ele>893.00</ele>
   <time>2014-03-30T12:19:44Z</time>
  </trkpt>
  <trkpt lat="33.907451" lon="-4.028815">
   <ele>892.00</ele>
   <time>2014-03-30T12:19:52Z</time>
  </trkpt>
  <trkpt lat="33.907283" lon="-4.028730">
   <ele>893.00</ele>
   <time>2014-03-30T12:19:54Z</time>
  </trkpt>
  <trkpt lat="33.907107" lon="-4.028793">
   <ele>893.00</ele>
   <time>2014-03-30T12:19:56Z</time>
  </trkpt>
  <trkpt lat="33.906935" lon="-4.028941">
   <ele>894.00</ele>
   <time>2014-03-30T12:19:58Z</time>
  </trkpt>
  <trkpt lat="33.906741" lon="-4.029099">
   <ele>893.00</ele>
   <time>2014-03-30T12:20:00Z</time>
  </trkpt>
  <trkpt lat="33.906518" lon="-4.029218">
   <ele>893.00</ele>
   <time>2014-03-30T12:20:02Z</time>
  </trkpt>
  <trkpt lat="33.906274" lon="-4.029322">
   <ele>892.00</ele>
   <time>2014-03-30T12:20:04Z</time>
  </trkpt>
  <trkpt lat="33.906022" lon="-4.029400">
   <ele>892.00</ele>
   <time>2014-03-30T12:20:06Z</time>
  </trkpt>
  <trkpt lat="33.905770" lon="-4.029431">
   <ele>892.00</ele>
   <time>2014-03-30T12:20:08Z</time>
  </trkpt>
  <trkpt lat="33.905520" lon="-4.029397">
   <ele>892.00</ele>
   <time>2014-03-30T12:20:10Z</time>
  </trkpt>
  <trkpt lat="33.905288" lon="-4.029288">
   <ele>892.00</ele>
   <time>2014-03-30T12:20:12Z</time>
  </trkpt>
  <trkpt lat="33.905060" lon="-4.029144">
   <ele>892.00</ele>
   <time>2014-03-30T12:20:14Z</time>
  </trkpt>
  <trkpt lat="33.904815" lon="-4.029031">
   <ele>892.00</ele>
   <time>2014-03-30T12:20:16Z</time>
  </trkpt>
  <trkpt lat="33.904440" lon="-4.028877">
   <ele>892.00</ele>
   <time>2014-03-30T12:20:19Z</time>
  </trkpt>
  <trkpt lat="33.903812" lon="-4.028583">
   <ele>893.00</ele>
   <time>2014-03-30T12:20:24Z</time>
  </trkpt>
  <trkpt lat="33.903553" lon="-4.028504">
   <ele>894.00</ele>
   <time>2014-03-30T12:20:26Z</time>
  </trkpt>
  <trkpt lat="33.903283" lon="-4.028444">
   <ele>895.00</ele>
   <time>2014-03-30T12:20:28Z</time>
  </trkpt>
  <trkpt lat="33.903032" lon="-4.028430">
   <ele>896.00</ele>
   <time>2014-03-30T12:20:30Z</time>
  </trkpt>
  <trkpt lat="33.902833" lon="-4.028521">
   <ele>897.00</ele>
   <time>2014-03-30T12:20:32Z</time>
  </trkpt>
  <trkpt lat="33.902665" lon="-4.028675">
   <ele>899.00</ele>
   <time>2014-03-30T12:20:34Z</time>
  </trkpt>
  <trkpt lat="33.902486" lon="-4.028833">
   <ele>900.00</ele>
   <time>2014-03-30T12:20:36Z</time>
  </trkpt>
  <trkpt lat="33.902285" lon="-4.028957">
   <ele>900.00</ele>
   <time>2014-03-30T12:20:38Z</time>
  </trkpt>
  <trkpt lat="33.901957" lon="-4.029120">
   <ele>901.00</ele>
   <time>2014-03-30T12:20:41Z</time>
  </trkpt>
  <trkpt lat="33.901741" lon="-4.029265">
   <ele>901.00</ele>
   <time>2014-03-30T12:20:43Z</time>
  </trkpt>
  <trkpt lat="33.901538" lon="-4.029416">
   <ele>902.00</ele>
   <time>2014-03-30T12:20:45Z</time>
  </trkpt>
  <trkpt lat="33.901347" lon="-4.029556">
   <ele>902.00</ele>
   <time>2014-03-30T12:20:47Z</time>
  </trkpt>
  <trkpt lat="33.901162" lon="-4.029686">
   <ele>903.00</ele>
   <time>2014-03-30T12:20:49Z</time>
  </trkpt>
  <trkpt lat="33.900890" lon="-4.029880">
   <ele>903.00</ele>
   <time>2014-03-30T12:20:52Z</time>
  </trkpt>
  <trkpt lat="33.900671" lon="-4.029950">
   <ele>903.00</ele>
   <time>2014-03-30T12:20:54Z</time>
  </trkpt>
  <trkpt lat="33.900439" lon="-4.029996">
   <ele>902.00</ele>
   <time>2014-03-30T12:20:56Z</time>
  </trkpt>
  <trkpt lat="33.900209" lon="-4.030018">
   <ele>902.00</ele>
   <time>2014-03-30T12:20:58Z</time>
  </trkpt>
  <trkpt lat="33.899988" lon="-4.030006">
   <ele>902.00</ele>
   <time>2014-03-30T12:21:00Z</time>
  </trkpt>
  <trkpt lat="33.899672" lon="-4.029963">
   <ele>901.00</ele>
   <time>2014-03-30T12:21:03Z</time>
  </trkpt>
  <trkpt lat="33.899463" lon="-4.029973">
   <ele>902.00</ele>
   <time>2014-03-30T12:21:05Z</time>
  </trkpt>
  <trkpt lat="33.899268" lon="-4.030016">
   <ele>903.00</ele>
   <time>2014-03-30T12:21:07Z</time>
  </trkpt>
  <trkpt lat="33.899096" lon="-4.030136">
   <ele>904.00</ele>
   <time>2014-03-30T12:21:09Z</time>
  </trkpt>
  <trkpt lat="33.898949" lon="-4.030326">
   <ele>903.00</ele>
   <time>2014-03-30T12:21:11Z</time>
  </trkpt>
  <trkpt lat="33.898341" lon="-4.031136">
   <ele>901.00</ele>
   <time>2014-03-30T12:21:19Z</time>
  </trkpt>
  <trkpt lat="33.897947" lon="-4.031632">
   <ele>902.00</ele>
   <time>2014-03-30T12:21:24Z</time>
  </trkpt>
  <trkpt lat="33.897513" lon="-4.032215">
   <ele>903.00</ele>
   <time>2014-03-30T12:21:30Z</time>
  </trkpt>
  <trkpt lat="33.897314" lon="-4.032492">
   <ele>904.00</ele>
   <time>2014-03-30T12:21:33Z</time>
  </trkpt>
  <trkpt lat="33.897107" lon="-4.032671">
   <ele>905.00</ele>
   <time>2014-03-30T12:21:36Z</time>
  </trkpt>
  <trkpt lat="33.896868" lon="-4.032810">
   <ele>907.00</ele>
   <time>2014-03-30T12:21:39Z</time>
  </trkpt>
  <trkpt lat="33.896075" lon="-4.033218">
   <ele>908.00</ele>
   <time>2014-03-30T12:21:47Z</time>
  </trkpt>
  <trkpt lat="33.895796" lon="-4.033344">
   <ele>908.00</ele>
   <time>2014-03-30T12:21:50Z</time>
  </trkpt>
  <trkpt lat="33.895570" lon="-4.033433">
   <ele>909.00</ele>
   <time>2014-03-30T12:21:53Z</time>
  </trkpt>
  <trkpt lat="33.895325" lon="-4.033525">
   <ele>909.00</ele>
   <time>2014-03-30T12:21:57Z</time>
  </trkpt>
  <trkpt lat="33.895172" lon="-4.033667">
   <ele>910.00</ele>
   <time>2014-03-30T12:22:00Z</time>
  </trkpt>
  <trkpt lat="33.895032" lon="-4.033927">
   <ele>911.00</ele>
   <time>2014-03-30T12:22:03Z</time>
  </trkpt>
  <trkpt lat="33.894957" lon="-4.034229">
   <ele>914.00</ele>
   <time>2014-03-30T12:22:06Z</time>
  </trkpt>
  <trkpt lat="33.894893" lon="-4.034467">
   <ele>915.00</ele>
   <time>2014-03-30T12:22:08Z</time>
  </trkpt>
  <trkpt lat="33.894799" lon="-4.034715">
   <ele>917.00</ele>
   <time>2014-03-30T12:22:10Z</time>
  </trkpt>
  <trkpt lat="33.894688" lon="-4.034944">
   <ele>919.00</ele>
   <time>2014-03-30T12:22:12Z</time>
  </trkpt>
  <trkpt lat="33.894555" lon="-4.035132">
   <ele>921.00</ele>
   <time>2014-03-30T12:22:14Z</time>
  </trkpt>
  <trkpt lat="33.894371" lon="-4.035272">
   <ele>923.00</ele>
   <time>2014-03-30T12:22:16Z</time>
  </trkpt>
  <trkpt lat="33.894068" lon="-4.035466">
   <ele>925.00</ele>
   <time>2014-03-30T12:22:19Z</time>
  </trkpt>
  <trkpt lat="33.893887" lon="-4.035611">
   <ele>927.00</ele>
   <time>2014-03-30T12:22:21Z</time>
  </trkpt>
  <trkpt lat="33.893718" lon="-4.035742">
   <ele>928.00</ele>
   <time>2014-03-30T12:22:23Z</time>
  </trkpt>
  <trkpt lat="33.893568" lon="-4.035897">
   <ele>929.00</ele>
   <time>2014-03-30T12:22:25Z</time>
  </trkpt>
  <trkpt lat="33.893464" lon="-4.036118">
   <ele>931.00</ele>
   <time>2014-03-30T12:22:27Z</time>
  </trkpt>
  <trkpt lat="33.893388" lon="-4.036379">
   <ele>932.00</ele>
   <time>2014-03-30T12:22:29Z</time>
  </trkpt>
  <trkpt lat="33.893334" lon="-4.036661">
   <ele>934.00</ele>
   <time>2014-03-30T12:22:31Z</time>
  </trkpt>
  <trkpt lat="33.893292" lon="-4.036957">
   <ele>935.00</ele>
   <time>2014-03-30T12:22:33Z</time>
  </trkpt>
  <trkpt lat="33.893282" lon="-4.037251">
   <ele>937.00</ele>
   <time>2014-03-30T12:22:35Z</time>
  </trkpt>
  <trkpt lat="33.893319" lon="-4.037525">
   <ele>938.00</ele>
   <time>2014-03-30T12:22:37Z</time>
  </trkpt>
  <trkpt lat="33.893382" lon="-4.037765">
   <ele>940.00</ele>
   <time>2014-03-30T12:22:39Z</time>
  </trkpt>
  <trkpt lat="33.893437" lon="-4.038026">
   <ele>942.00</ele>
   <time>2014-03-30T12:22:42Z</time>
  </trkpt>
  <trkpt lat="33.893240" lon="-4.038065">
   <ele>945.00</ele>
   <time>2014-03-30T12:22:46Z</time>
  </trkpt>
  <trkpt lat="33.892944" lon="-4.037952">
   <ele>948.00</ele>
   <time>2014-03-30T12:22:50Z</time>
  </trkpt>
  <trkpt lat="33.892795" lon="-4.037722">
   <ele>950.00</ele>
   <time>2014-03-30T12:22:53Z</time>
  </trkpt>
  <trkpt lat="33.892660" lon="-4.037445">
   <ele>952.00</ele>
   <time>2014-03-30T12:22:56Z</time>
  </trkpt>
  <trkpt lat="33.892524" lon="-4.037294">
   <ele>953.00</ele>
   <time>2014-03-30T12:22:58Z</time>
  </trkpt>
  <trkpt lat="33.892308" lon="-4.037223">
   <ele>956.00</ele>
   <time>2014-03-30T12:23:01Z</time>
  </trkpt>
  <trkpt lat="33.892231" lon="-4.037454">
   <ele>957.00</ele>
   <time>2014-03-30T12:23:04Z</time>
  </trkpt>
  <trkpt lat="33.892191" lon="-4.037758">
   <ele>959.00</ele>
   <time>2014-03-30T12:23:07Z</time>
  </trkpt>
  <trkpt lat="33.892050" lon="-4.037976">
   <ele>960.00</ele>
   <time>2014-03-30T12:23:10Z</time>
  </trkpt>
  <trkpt lat="33.891916" lon="-4.037849">
   <ele>961.00</ele>
   <time>2014-03-30T12:23:13Z</time>
  </trkpt>
  <trkpt lat="33.892007" lon="-4.037583">
   <ele>962.00</ele>
   <time>2014-03-30T12:23:16Z</time>
  </trkpt>
  <trkpt lat="33.892065" lon="-4.037286">
   <ele>963.00</ele>
   <time>2014-03-30T12:23:19Z</time>
  </trkpt>
  <trkpt lat="33.892125" lon="-4.037016">
   <ele>964.00</ele>
   <time>2014-03-30T12:23:22Z</time>
  </trkpt>
  <trkpt lat="33.892324" lon="-4.036915">
   <ele>964.00</ele>
   <time>2014-03-30T12:23:25Z</time>
  </trkpt>
  <trkpt lat="33.892565" lon="-4.037007">
   <ele>964.00</ele>
   <time>2014-03-30T12:23:28Z</time>
  </trkpt>
  <trkpt lat="33.892785" lon="-4.037096">
   <ele>965.00</ele>
   <time>2014-03-30T12:23:31Z</time>
  </trkpt>
  <trkpt lat="33.892958" lon="-4.036994">
   <ele>966.00</ele>
   <time>2014-03-30T12:23:34Z</time>
  </trkpt>
  <trkpt lat="33.892976" lon="-4.036723">
   <ele>967.00</ele>
   <time>2014-03-30T12:23:37Z</time>
  </trkpt>
  <trkpt lat="33.892975" lon="-4.036398">
   <ele>969.00</ele>
   <time>2014-03-30T12:23:40Z</time>
  </trkpt>
  <trkpt lat="33.893008" lon="-4.035949">
   <ele>971.00</ele>
   <time>2014-03-30T12:23:44Z</time>
  </trkpt>
  <trkpt lat="33.893033" lon="-4.035722">
   <ele>972.00</ele>
   <time>2014-03-30T12:23:46Z</time>
  </trkpt>
  <trkpt lat="33.893097" lon="-4.035499">
   <ele>973.00</ele>
   <time>2014-03-30T12:23:48Z</time>
  </trkpt>
  <trkpt lat="33.893193" lon="-4.035200">
   <ele>976.00</ele>
   <time>2014-03-30T12:23:51Z</time>
  </trkpt>
  <trkpt lat="33.893353" lon="-4.035023">
   <ele>977.00</ele>
   <time>2014-03-30T12:23:54Z</time>
  </trkpt>
  <trkpt lat="33.893671" lon="-4.034899">
   <ele>978.00</ele>
   <time>2014-03-30T12:23:58Z</time>
  </trkpt>
  <trkpt lat="33.893866" lon="-4.034694">
   <ele>981.00</ele>
   <time>2014-03-30T12:24:01Z</time>
  </trkpt>
  <trkpt lat="33.893920" lon="-4.034404">
   <ele>984.00</ele>
   <time>2014-03-30T12:24:04Z</time>
  </trkpt>
  <trkpt lat="33.893853" lon="-4.034203">
   <ele>984.00</ele>
   <time>2014-03-30T12:24:06Z</time>
  </trkpt>
  <trkpt lat="33.893744" lon="-4.034008">
   <ele>986.00</ele>
   <time>2014-03-30T12:24:08Z</time>
  </trkpt>
  <trkpt lat="33.893605" lon="-4.033817">
   <ele>988.00</ele>
   <time>2014-03-30T12:24:10Z</time>
  </trkpt>
  <trkpt lat="33.893386" lon="-4.033518">
   <ele>991.00</ele>
   <time>2014-03-30T12:24:13Z</time>
  </trkpt>
  <trkpt lat="33.893283" lon="-4.033279">
   <ele>993.00</ele>
   <time>2014-03-30T12:24:15Z</time>
  </trkpt>
  <trkpt lat="33.893223" lon="-4.033023">
   <ele>995.00</ele>
   <time>2014-03-30T12:24:17Z</time>
  </trkpt>
  <trkpt lat="33.893191" lon="-4.032765">
   <ele>997.00</ele>
   <time>2014-03-30T12:24:19Z</time>
  </trkpt>
  <trkpt lat="33.893101" lon="-4.032539">
   <ele>999.00</ele>
   <time>2014-03-30T12:24:21Z</time>
  </trkpt>
  <trkpt lat="33.892946" lon="-4.032371">
   <ele>1001.00</ele>
   <time>2014-03-30T12:24:23Z</time>
  </trkpt>
  <trkpt lat="33.892760" lon="-4.032248">
   <ele>1003.00</ele>
   <time>2014-03-30T12:24:25Z</time>
  </trkpt>
  <trkpt lat="33.892486" lon="-4.032090">
   <ele>1005.00</ele>
   <time>2014-03-30T12:24:28Z</time>
  </trkpt>
  <trkpt lat="33.892297" lon="-4.031890">
   <ele>1006.00</ele>
   <time>2014-03-30T12:24:31Z</time>
  </trkpt>
  <trkpt lat="33.892320" lon="-4.031627">
   <ele>1007.00</ele>
   <time>2014-03-30T12:24:34Z</time>
  </trkpt>
  <trkpt lat="33.892464" lon="-4.031374">
   <ele>1008.00</ele>
   <time>2014-03-30T12:24:37Z</time>
  </trkpt>
  <trkpt lat="33.892550" lon="-4.031090">
   <ele>1010.00</ele>
   <time>2014-03-30T12:24:40Z</time>
  </trkpt>
  <trkpt lat="33.892776" lon="-4.030993">
   <ele>1011.00</ele>
   <time>2014-03-30T12:24:43Z</time>
  </trkpt>
  <trkpt lat="33.892977" lon="-4.030986">
   <ele>1011.00</ele>
   <time>2014-03-30T12:24:45Z</time>
  </trkpt>
  <trkpt lat="33.893181" lon="-4.030912">
   <ele>1012.00</ele>
   <time>2014-03-30T12:24:47Z</time>
  </trkpt>
  <trkpt lat="33.893482" lon="-4.030752">
   <ele>1015.00</ele>
   <time>2014-03-30T12:24:50Z</time>
  </trkpt>
  <trkpt lat="33.893664" lon="-4.030649">
   <ele>1017.00</ele>
   <time>2014-03-30T12:24:52Z</time>
  </trkpt>
  <trkpt lat="33.893798" lon="-4.030475">
   <ele>1019.00</ele>
   <time>2014-03-30T12:24:54Z</time>
  </trkpt>
  <trkpt lat="33.893857" lon="-4.030241">
   <ele>1020.00</ele>
   <time>2014-03-30T12:24:56Z</time>
  </trkpt>
  <trkpt lat="33.893854" lon="-4.029991">
   <ele>1021.00</ele>
   <time>2014-03-30T12:24:58Z</time>
  </trkpt>
  <trkpt lat="33.893787" lon="-4.029758">
   <ele>1024.00</ele>
   <time>2014-03-30T12:25:00Z</time>
  </trkpt>
  <trkpt lat="33.893686" lon="-4.029571">
   <ele>1026.00</ele>
   <time>2014-03-30T12:25:02Z</time>
  </trkpt>
  <trkpt lat="33.893640" lon="-4.029278">
   <ele>1027.00</ele>
   <time>2014-03-30T12:25:05Z</time>
  </trkpt>
  <trkpt lat="33.893683" lon="-4.029065">
   <ele>1028.00</ele>
   <time>2014-03-30T12:25:07Z</time>
  </trkpt>
  <trkpt lat="33.893731" lon="-4.028761">
   <ele>1029.00</ele>
   <time>2014-03-30T12:25:10Z</time>
  </trkpt>
  <trkpt lat="33.893614" lon="-4.028507">
   <ele>1029.00</ele>
   <time>2014-03-30T12:25:13Z</time>
  </trkpt>
  <trkpt lat="33.893455" lon="-4.028393">
   <ele>1030.00</ele>
   <time>2014-03-30T12:25:15Z</time>
  </trkpt>
  <trkpt lat="33.893201" lon="-4.028231">
   <ele>1032.00</ele>
   <time>2014-03-30T12:25:18Z</time>
  </trkpt>
  <trkpt lat="33.893070" lon="-4.028080">
   <ele>1033.00</ele>
   <time>2014-03-30T12:25:20Z</time>
  </trkpt>
  <trkpt lat="33.892946" lon="-4.027803">
   <ele>1035.00</ele>
   <time>2014-03-30T12:25:23Z</time>
  </trkpt>
  <trkpt lat="33.892754" lon="-4.027651">
   <ele>1038.00</ele>
   <time>2014-03-30T12:25:26Z</time>
  </trkpt>
  <trkpt lat="33.892508" lon="-4.027556">
   <ele>1041.00</ele>
   <time>2014-03-30T12:25:29Z</time>
  </trkpt>
  <trkpt lat="33.892334" lon="-4.027484">
   <ele>1043.00</ele>
   <time>2014-03-30T12:25:31Z</time>
  </trkpt>
  <trkpt lat="33.892046" lon="-4.027420">
   <ele>1046.00</ele>
   <time>2014-03-30T12:25:34Z</time>
  </trkpt>
  <trkpt lat="33.891862" lon="-4.027319">
   <ele>1048.00</ele>
   <time>2014-03-30T12:25:36Z</time>
  </trkpt>
  <trkpt lat="33.891709" lon="-4.027184">
   <ele>1049.00</ele>
   <time>2014-03-30T12:25:38Z</time>
  </trkpt>
  <trkpt lat="33.891556" lon="-4.026970">
   <ele>1052.00</ele>
   <time>2014-03-30T12:25:41Z</time>
  </trkpt>
  <trkpt lat="33.891361" lon="-4.026957">
   <ele>1055.00</ele>
   <time>2014-03-30T12:25:44Z</time>
  </trkpt>
  <trkpt lat="33.891175" lon="-4.026904">
   <ele>1057.00</ele>
   <time>2014-03-30T12:25:47Z</time>
  </trkpt>
  <trkpt lat="33.891026" lon="-4.026675">
   <ele>1059.00</ele>
   <time>2014-03-30T12:25:50Z</time>
  </trkpt>
  <trkpt lat="33.890901" lon="-4.026445">
   <ele>1062.00</ele>
   <time>2014-03-30T12:25:53Z</time>
  </trkpt>
  <trkpt lat="33.890706" lon="-4.026392">
   <ele>1064.00</ele>
   <time>2014-03-30T12:25:56Z</time>
  </trkpt>
  <trkpt lat="33.890468" lon="-4.026440">
   <ele>1066.00</ele>
   <time>2014-03-30T12:25:59Z</time>
  </trkpt>
  <trkpt lat="33.890232" lon="-4.026363">
   <ele>1068.00</ele>
   <time>2014-03-30T12:26:02Z</time>
  </trkpt>
  <trkpt lat="33.890000" lon="-4.026396">
   <ele>1070.00</ele>
   <time>2014-03-30T12:26:05Z</time>
  </trkpt>
  <trkpt lat="33.889861" lon="-4.026586">
   <ele>1072.00</ele>
   <time>2014-03-30T12:26:08Z</time>
  </trkpt>
  <trkpt lat="33.889647" lon="-4.026672">
   <ele>1074.00</ele>
   <time>2014-03-30T12:26:12Z</time>
  </trkpt>
  <trkpt lat="33.889477" lon="-4.026571">
   <ele>1075.00</ele>
   <time>2014-03-30T12:26:15Z</time>
  </trkpt>
  <trkpt lat="33.889282" lon="-4.026477">
   <ele>1076.00</ele>
   <time>2014-03-30T12:26:18Z</time>
  </trkpt>
  <trkpt lat="33.889081" lon="-4.026478">
   <ele>1077.00</ele>
   <time>2014-03-30T12:26:21Z</time>
  </trkpt>
  <trkpt lat="33.888871" lon="-4.026567">
   <ele>1078.00</ele>
   <time>2014-03-30T12:26:24Z</time>
  </trkpt>
  <trkpt lat="33.888620" lon="-4.026575">
   <ele>1078.00</ele>
   <time>2014-03-30T12:26:27Z</time>
  </trkpt>
  <trkpt lat="33.888275" lon="-4.026593">
   <ele>1078.00</ele>
   <time>2014-03-30T12:26:31Z</time>
  </trkpt>
  <trkpt lat="33.888026" lon="-4.026589">
   <ele>1079.00</ele>
   <time>2014-03-30T12:26:34Z</time>
  </trkpt>
  <trkpt lat="33.887773" lon="-4.026578">
   <ele>1080.00</ele>
   <time>2014-03-30T12:26:37Z</time>
  </trkpt>
  <trkpt lat="33.887551" lon="-4.026501">
   <ele>1082.00</ele>
   <time>2014-03-30T12:26:40Z</time>
  </trkpt>
  <trkpt lat="33.887332" lon="-4.026428">
   <ele>1083.00</ele>
   <time>2014-03-30T12:26:43Z</time>
  </trkpt>
  <trkpt lat="33.887075" lon="-4.026403">
   <ele>1085.00</ele>
   <time>2014-03-30T12:26:46Z</time>
  </trkpt>
  <trkpt lat="33.886803" lon="-4.026384">
   <ele>1087.00</ele>
   <time>2014-03-30T12:26:49Z</time>
  </trkpt>
  <trkpt lat="33.886621" lon="-4.026329">
   <ele>1088.00</ele>
   <time>2014-03-30T12:26:51Z</time>
  </trkpt>
  <trkpt lat="33.886435" lon="-4.026276">
   <ele>1089.00</ele>
   <time>2014-03-30T12:26:53Z</time>
  </trkpt>
  <trkpt lat="33.886248" lon="-4.026270">
   <ele>1090.00</ele>
   <time>2014-03-30T12:26:55Z</time>
  </trkpt>
  <trkpt lat="33.886013" lon="-4.026384">
   <ele>1091.00</ele>
   <time>2014-03-30T12:26:58Z</time>
  </trkpt>
  <trkpt lat="33.885826" lon="-4.026455">
   <ele>1093.00</ele>
   <time>2014-03-30T12:27:01Z</time>
  </trkpt>
  <trkpt lat="33.885650" lon="-4.026316">
   <ele>1096.00</ele>
   <time>2014-03-30T12:27:04Z</time>
  </trkpt>
  <trkpt lat="33.885460" lon="-4.026099">
   <ele>1098.00</ele>
   <time>2014-03-30T12:27:07Z</time>
  </trkpt>
  <trkpt lat="33.885221" lon="-4.025816">
   <ele>1100.00</ele>
   <time>2014-03-30T12:27:11Z</time>
  </trkpt>
  <trkpt lat="33.885057" lon="-4.025845">
   <ele>1101.00</ele>
   <time>2014-03-30T12:27:15Z</time>
  </trkpt>
  <trkpt lat="33.885197" lon="-4.026057">
   <ele>1103.00</ele>
   <time>2014-03-30T12:27:19Z</time>
  </trkpt>
  <trkpt lat="33.885410" lon="-4.026260">
   <ele>1105.00</ele>
   <time>2014-03-30T12:27:22Z</time>
  </trkpt>
  <trkpt lat="33.885542" lon="-4.026424">
   <ele>1107.00</ele>
   <time>2014-03-30T12:27:24Z</time>
  </trkpt>
  <trkpt lat="33.885722" lon="-4.026730">
   <ele>1110.00</ele>
   <time>2014-03-30T12:27:28Z</time>
  </trkpt>
  <trkpt lat="33.885896" lon="-4.026837">
   <ele>1112.00</ele>
   <time>2014-03-30T12:27:31Z</time>
  </trkpt>
  <trkpt lat="33.886076" lon="-4.026736">
   <ele>1113.00</ele>
   <time>2014-03-30T12:27:34Z</time>
  </trkpt>
  <trkpt lat="33.886272" lon="-4.026600">
   <ele>1114.00</ele>
   <time>2014-03-30T12:27:37Z</time>
  </trkpt>
  <trkpt lat="33.886514" lon="-4.026616">
   <ele>1116.00</ele>
   <time>2014-03-30T12:27:40Z</time>
  </trkpt>
  <trkpt lat="33.886850" lon="-4.026760">
   <ele>1119.00</ele>
   <time>2014-03-30T12:27:44Z</time>
  </trkpt>
  <trkpt lat="33.887199" lon="-4.026873">
   <ele>1123.00</ele>
   <time>2014-03-30T12:27:48Z</time>
  </trkpt>
  <trkpt lat="33.887442" lon="-4.026974">
   <ele>1125.00</ele>
   <time>2014-03-30T12:27:51Z</time>
  </trkpt>
  <trkpt lat="33.887668" lon="-4.027057">
   <ele>1127.00</ele>
   <time>2014-03-30T12:27:54Z</time>
  </trkpt>
  <trkpt lat="33.887833" lon="-4.027178">
   <ele>1129.00</ele>
   <time>2014-03-30T12:27:57Z</time>
  </trkpt>
  <trkpt lat="33.888020" lon="-4.027338">
   <ele>1130.00</ele>
   <time>2014-03-30T12:28:01Z</time>
  </trkpt>
  <trkpt lat="33.888225" lon="-4.027321">
   <ele>1131.00</ele>
   <time>2014-03-30T12:28:04Z</time>
  </trkpt>
  <trkpt lat="33.888461" lon="-4.027362">
   <ele>1133.00</ele>
   <time>2014-03-30T12:28:07Z</time>
  </trkpt>
  <trkpt lat="33.888709" lon="-4.027436">
   <ele>1135.00</ele>
   <time>2014-03-30T12:28:10Z</time>
  </trkpt>
  <trkpt lat="33.889130" lon="-4.027567">
   <ele>1139.00</ele>
   <time>2014-03-30T12:28:15Z</time>
  </trkpt>
  <trkpt lat="33.889361" lon="-4.027719">
   <ele>1142.00</ele>
   <time>2014-03-30T12:28:18Z</time>
  </trkpt>
  <trkpt lat="33.889607" lon="-4.027821">
   <ele>1143.00</ele>
   <time>2014-03-30T12:28:21Z</time>
  </trkpt>
  <trkpt lat="33.889876" lon="-4.027833">
   <ele>1143.00</ele>
   <time>2014-03-30T12:28:24Z</time>
  </trkpt>
  <trkpt lat="33.890057" lon="-4.027825">
   <ele>1144.00</ele>
   <time>2014-03-30T12:28:26Z</time>
  </trkpt>
  <trkpt lat="33.890304" lon="-4.027805">
   <ele>1146.00</ele>
   <time>2014-03-30T12:28:29Z</time>
  </trkpt>
  <trkpt lat="33.890490" lon="-4.027948">
   <ele>1149.00</ele>
   <time>2014-03-30T12:28:32Z</time>
  </trkpt>
  <trkpt lat="33.890645" lon="-4.028186">
   <ele>1151.00</ele>
   <time>2014-03-30T12:28:35Z</time>
  </trkpt>
  <trkpt lat="33.890698" lon="-4.028463">
   <ele>1151.00</ele>
   <time>2014-03-30T12:28:38Z</time>
  </trkpt>
  <trkpt lat="33.890639" lon="-4.028669">
   <ele>1152.00</ele>
   <time>2014-03-30T12:28:40Z</time>
  </trkpt>
  <trkpt lat="33.890594" lon="-4.028915">
   <ele>1153.00</ele>
   <time>2014-03-30T12:28:42Z</time>
  </trkpt>
  <trkpt lat="33.890581" lon="-4.029180">
   <ele>1155.00</ele>
   <time>2014-03-30T12:28:44Z</time>
  </trkpt>
  <trkpt lat="33.890585" lon="-4.029413">
   <ele>1156.00</ele>
   <time>2014-03-30T12:28:46Z</time>
  </trkpt>
  <trkpt lat="33.890540" lon="-4.029684">
   <ele>1158.00</ele>
   <time>2014-03-30T12:28:49Z</time>
  </trkpt>
  <trkpt lat="33.890322" lon="-4.029815">
   <ele>1161.00</ele>
   <time>2014-03-30T12:28:52Z</time>
  </trkpt>
  <trkpt lat="33.890043" lon="-4.029896">
   <ele>1164.00</ele>
   <time>2014-03-30T12:28:55Z</time>
  </trkpt>
  <trkpt lat="33.889863" lon="-4.029982">
   <ele>1166.00</ele>
   <time>2014-03-30T12:28:57Z</time>
  </trkpt>
  <trkpt lat="33.889695" lon="-4.030084">
   <ele>1167.00</ele>
   <time>2014-03-30T12:28:59Z</time>
  </trkpt>
  <trkpt lat="33.889480" lon="-4.030252">
   <ele>1169.00</ele>
   <time>2014-03-30T12:29:02Z</time>
  </trkpt>
  <trkpt lat="33.889390" lon="-4.030494">
   <ele>1171.00</ele>
   <time>2014-03-30T12:29:05Z</time>
  </trkpt>
  <trkpt lat="33.889370" lon="-4.030764">
   <ele>1172.00</ele>
   <time>2014-03-30T12:29:08Z</time>
  </trkpt>
  <trkpt lat="33.889200" lon="-4.030936">
   <ele>1173.00</ele>
   <time>2014-03-30T12:29:11Z</time>
  </trkpt>
  <trkpt lat="33.889067" lon="-4.031122">
   <ele>1174.00</ele>
   <time>2014-03-30T12:29:14Z</time>
  </trkpt>
  <trkpt lat="33.889048" lon="-4.031371">
   <ele>1175.00</ele>
   <time>2014-03-30T12:29:17Z</time>
  </trkpt>
  <trkpt lat="33.888878" lon="-4.031502">
   <ele>1176.00</ele>
   <time>2014-03-30T12:29:20Z</time>
  </trkpt>
  <trkpt lat="33.888636" lon="-4.031531">
   <ele>1178.00</ele>
   <time>2014-03-30T12:29:23Z</time>
  </trkpt>
  <trkpt lat="33.888422" lon="-4.031605">
   <ele>1179.00</ele>
   <time>2014-03-30T12:29:26Z</time>
  </trkpt>
  <trkpt lat="33.888375" lon="-4.031852">
   <ele>1180.00</ele>
   <time>2014-03-30T12:29:29Z</time>
  </trkpt>
  <trkpt lat="33.888510" lon="-4.032130">
   <ele>1181.00</ele>
   <time>2014-03-30T12:29:32Z</time>
  </trkpt>
  <trkpt lat="33.888719" lon="-4.032612">
   <ele>1185.00</ele>
   <time>2014-03-30T12:29:37Z</time>
  </trkpt>
  <trkpt lat="33.888747" lon="-4.032836">
   <ele>1186.00</ele>
   <time>2014-03-30T12:29:39Z</time>
  </trkpt>
  <trkpt lat="33.888794" lon="-4.033062">
   <ele>1187.00</ele>
   <time>2014-03-30T12:29:41Z</time>
  </trkpt>
  <trkpt lat="33.888887" lon="-4.033279">
   <ele>1189.00</ele>
   <time>2014-03-30T12:29:43Z</time>
  </trkpt>
  <trkpt lat="33.889024" lon="-4.033587">
   <ele>1190.00</ele>
   <time>2014-03-30T12:29:46Z</time>
  </trkpt>
  <trkpt lat="33.889175" lon="-4.033829">
   <ele>1192.00</ele>
   <time>2014-03-30T12:29:49Z</time>
  </trkpt>
  <trkpt lat="33.889180" lon="-4.034042">
   <ele>1194.00</ele>
   <time>2014-03-30T12:29:52Z</time>
  </trkpt>
  <trkpt lat="33.888978" lon="-4.034138">
   <ele>1196.00</ele>
   <time>2014-03-30T12:29:55Z</time>
  </trkpt>
  <trkpt lat="33.888620" lon="-4.034261">
   <ele>1200.00</ele>
   <time>2014-03-30T12:29:59Z</time>
  </trkpt>
  <trkpt lat="33.888428" lon="-4.034221">
   <ele>1203.00</ele>
   <time>2014-03-30T12:30:01Z</time>
  </trkpt>
  <trkpt lat="33.888206" lon="-4.034115">
   <ele>1204.00</ele>
   <time>2014-03-30T12:30:03Z</time>
  </trkpt>
  <trkpt lat="33.887983" lon="-4.034016">
   <ele>1206.00</ele>
   <time>2014-03-30T12:30:05Z</time>
  </trkpt>
  <trkpt lat="33.887766" lon="-4.033947">
   <ele>1208.00</ele>
   <time>2014-03-30T12:30:07Z</time>
  </trkpt>
  <trkpt lat="33.887574" lon="-4.033891">
   <ele>1210.00</ele>
   <time>2014-03-30T12:30:09Z</time>
  </trkpt>
  <trkpt lat="33.887342" lon="-4.033781">
   <ele>1213.00</ele>
   <time>2014-03-30T12:30:12Z</time>
  </trkpt>
  <trkpt lat="33.887169" lon="-4.033876">
   <ele>1215.00</ele>
   <time>2014-03-30T12:30:15Z</time>
  </trkpt>
  <trkpt lat="33.887105" lon="-4.034170">
   <ele>1218.00</ele>
   <time>2014-03-30T12:30:18Z</time>
  </trkpt>
  <trkpt lat="33.886958" lon="-4.034356">
   <ele>1219.00</ele>
   <time>2014-03-30T12:30:21Z</time>
  </trkpt>
  <trkpt lat="33.886818" lon="-4.034519">
   <ele>1221.00</ele>
   <time>2014-03-30T12:30:24Z</time>
  </trkpt>
  <trkpt lat="33.886787" lon="-4.034784">
   <ele>1222.00</ele>
   <time>2014-03-30T12:30:27Z</time>
  </trkpt>
  <trkpt lat="33.886759" lon="-4.035038">
   <ele>1223.00</ele>
   <time>2014-03-30T12:30:30Z</time>
  </trkpt>
  <trkpt lat="33.886826" lon="-4.035238">
   <ele>1224.00</ele>
   <time>2014-03-30T12:30:33Z</time>
  </trkpt>
  <trkpt lat="33.886846" lon="-4.035466">
   <ele>1225.00</ele>
   <time>2014-03-30T12:30:37Z</time>
  </trkpt>
  <trkpt lat="33.886693" lon="-4.035586">
   <ele>1228.00</ele>
   <time>2014-03-30T12:30:40Z</time>
  </trkpt>
  <trkpt lat="33.886461" lon="-4.035746">
   <ele>1231.00</ele>
   <time>2014-03-30T12:30:43Z</time>
  </trkpt>
  <trkpt lat="33.886241" lon="-4.035889">
   <ele>1233.00</ele>
   <time>2014-03-30T12:30:46Z</time>
  </trkpt>
  <trkpt lat="33.886005" lon="-4.035812">
   <ele>1235.00</ele>
   <time>2014-03-30T12:30:49Z</time>
  </trkpt>
  <trkpt lat="33.885855" lon="-4.035688">
   <ele>1237.00</ele>
   <time>2014-03-30T12:30:51Z</time>
  </trkpt>
  <trkpt lat="33.885602" lon="-4.035631">
   <ele>1239.00</ele>
   <time>2014-03-30T12:30:54Z</time>
  </trkpt>
  <trkpt lat="33.885344" lon="-4.035632">
   <ele>1241.00</ele>
   <time>2014-03-30T12:30:57Z</time>
  </trkpt>
  <trkpt lat="33.885099" lon="-4.035591">
   <ele>1242.00</ele>
   <time>2014-03-30T12:31:00Z</time>
  </trkpt>
  <trkpt lat="33.884862" lon="-4.035727">
   <ele>1243.00</ele>
   <time>2014-03-30T12:31:03Z</time>
  </trkpt>
  <trkpt lat="33.884625" lon="-4.035947">
   <ele>1244.00</ele>
   <time>2014-03-30T12:31:06Z</time>
  </trkpt>
  <trkpt lat="33.884435" lon="-4.036066">
   <ele>1245.00</ele>
   <time>2014-03-30T12:31:08Z</time>
  </trkpt>
  <trkpt lat="33.884250" lon="-4.036185">
   <ele>1245.00</ele>
   <time>2014-03-30T12:31:10Z</time>
  </trkpt>
  <trkpt lat="33.884030" lon="-4.036277">
   <ele>1246.00</ele>
   <time>2014-03-30T12:31:13Z</time>
  </trkpt>
  <trkpt lat="33.883898" lon="-4.036101">
   <ele>1247.00</ele>
   <time>2014-03-30T12:31:16Z</time>
  </trkpt>
  <trkpt lat="33.883764" lon="-4.035925">
   <ele>1248.00</ele>
   <time>2014-03-30T12:31:19Z</time>
  </trkpt>
  <trkpt lat="33.883553" lon="-4.036001">
   <ele>1249.00</ele>
   <time>2014-03-30T12:31:23Z</time>
  </trkpt>
  <trkpt lat="33.883371" lon="-4.036206">
   <ele>1249.00</ele>
   <time>2014-03-30T12:31:26Z</time>
  </trkpt>
  <trkpt lat="33.883105" lon="-4.036517">
   <ele>1251.00</ele>
   <time>2014-03-30T12:31:30Z</time>
  </trkpt>
  <trkpt lat="33.882958" lon="-4.036682">
   <ele>1252.00</ele>
   <time>2014-03-30T12:31:32Z</time>
  </trkpt>
  <trkpt lat="33.882800" lon="-4.036808">
   <ele>1252.00</ele>
   <time>2014-03-30T12:31:34Z</time>
  </trkpt>
  <trkpt lat="33.882636" lon="-4.036900">
   <ele>1253.00</ele>
   <time>2014-03-30T12:31:36Z</time>
  </trkpt>
  <trkpt lat="33.882440" lon="-4.037101">
   <ele>1255.00</ele>
   <time>2014-03-30T12:31:39Z</time>
  </trkpt>
  <trkpt lat="33.882367" lon="-4.037386">
   <ele>1255.00</ele>
   <time>2014-03-30T12:31:42Z</time>
  </trkpt>
  <trkpt lat="33.882451" lon="-4.037638">
   <ele>1255.00</ele>
   <time>2014-03-30T12:31:45Z</time>
  </trkpt>
  <trkpt lat="33.882534" lon="-4.037894">
   <ele>1256.00</ele>
   <time>2014-03-30T12:31:48Z</time>
  </trkpt>
  <trkpt lat="33.882515" lon="-4.038293">
   <ele>1257.00</ele>
   <time>2014-03-30T12:31:52Z</time>
  </trkpt>
  <trkpt lat="33.882611" lon="-4.038487">
   <ele>1258.00</ele>
   <time>2014-03-30T12:31:54Z</time>
  </trkpt>
  <trkpt lat="33.882790" lon="-4.038758">
   <ele>1259.00</ele>
   <time>2014-03-30T12:31:57Z</time>
  </trkpt>
  <trkpt lat="33.882867" lon="-4.039018">
   <ele>1261.00</ele>
   <time>2014-03-30T12:32:00Z</time>
  </trkpt>
  <trkpt lat="33.882809" lon="-4.039283">
   <ele>1262.00</ele>
   <time>2014-03-30T12:32:03Z</time>
  </trkpt>
  <trkpt lat="33.882792" lon="-4.039549">
   <ele>1263.00</ele>
   <time>2014-03-30T12:32:06Z</time>
  </trkpt>
  <trkpt lat="33.882742" lon="-4.039785">
   <ele>1265.00</ele>
   <time>2014-03-30T12:32:10Z</time>
  </trkpt>
  <trkpt lat="33.882649" lon="-4.039567">
   <ele>1267.00</ele>
   <time>2014-03-30T12:32:14Z</time>
  </trkpt>
  <trkpt lat="33.882676" lon="-4.039279">
   <ele>1267.00</ele>
   <time>2014-03-30T12:32:17Z</time>
  </trkpt>
  <trkpt lat="33.882726" lon="-4.038990">
   <ele>1267.00</ele>
   <time>2014-03-30T12:32:20Z</time>
  </trkpt>
  <trkpt lat="33.882641" lon="-4.038755">
   <ele>1269.00</ele>
   <time>2014-03-30T12:32:23Z</time>
  </trkpt>
  <trkpt lat="33.882396" lon="-4.038445">
   <ele>1271.00</ele>
   <time>2014-03-30T12:32:27Z</time>
  </trkpt>
  <trkpt lat="33.882290" lon="-4.038158">
   <ele>1272.00</ele>
   <time>2014-03-30T12:32:30Z</time>
  </trkpt>
  <trkpt lat="33.882298" lon="-4.037870">
   <ele>1272.00</ele>
   <time>2014-03-30T12:32:33Z</time>
  </trkpt>
  <trkpt lat="33.882210" lon="-4.037621">
   <ele>1273.00</ele>
   <time>2014-03-30T12:32:36Z</time>
  </trkpt>
  <trkpt lat="33.882103" lon="-4.037366">
   <ele>1273.00</ele>
   <time>2014-03-30T12:32:39Z</time>
  </trkpt>
  <trkpt lat="33.882179" lon="-4.037077">
   <ele>1274.00</ele>
   <time>2014-03-30T12:32:42Z</time>
  </trkpt>
  <trkpt lat="33.882379" lon="-4.036497">
   <ele>1275.00</ele>
   <time>2014-03-30T12:32:48Z</time>
  </trkpt>
  <trkpt lat="33.882572" lon="-4.036411">
   <ele>1274.00</ele>
   <time>2014-03-30T12:32:51Z</time>
  </trkpt>
  <trkpt lat="33.882774" lon="-4.036399">
   <ele>1275.00</ele>
   <time>2014-03-30T12:32:54Z</time>
  </trkpt>
  <trkpt lat="33.882909" lon="-4.036217">
   <ele>1276.00</ele>
   <time>2014-03-30T12:32:57Z</time>
  </trkpt>
  <trkpt lat="33.883122" lon="-4.035888">
   <ele>1277.00</ele>
   <time>2014-03-30T12:33:01Z</time>
  </trkpt>
  <trkpt lat="33.883250" lon="-4.035720">
   <ele>1278.00</ele>
   <time>2014-03-30T12:33:03Z</time>
  </trkpt>
  <trkpt lat="33.883627" lon="-4.035271">
   <ele>1280.00</ele>
   <time>2014-03-30T12:33:09Z</time>
  </trkpt>
  <trkpt lat="33.883799" lon="-4.035217">
   <ele>1280.00</ele>
   <time>2014-03-30T12:33:12Z</time>
  </trkpt>
  <trkpt lat="33.883929" lon="-4.035372">
   <ele>1281.00</ele>
   <time>2014-03-30T12:33:15Z</time>
  </trkpt>
  <trkpt lat="33.884107" lon="-4.035477">
   <ele>1281.00</ele>
   <time>2014-03-30T12:33:18Z</time>
  </trkpt>
  <trkpt lat="33.884337" lon="-4.035420">
   <ele>1282.00</ele>
   <time>2014-03-30T12:33:21Z</time>
  </trkpt>
  <trkpt lat="33.884553" lon="-4.035243">
   <ele>1282.00</ele>
   <time>2014-03-30T12:33:24Z</time>
  </trkpt>
  <trkpt lat="33.884713" lon="-4.035111">
   <ele>1282.00</ele>
   <time>2014-03-30T12:33:26Z</time>
  </trkpt>
  <trkpt lat="33.884970" lon="-4.034938">
   <ele>1283.00</ele>
   <time>2014-03-30T12:33:29Z</time>
  </trkpt>
  <trkpt lat="33.885226" lon="-4.034891">
   <ele>1284.00</ele>
   <time>2014-03-30T12:33:32Z</time>
  </trkpt>
  <trkpt lat="33.885407" lon="-4.034908">
   <ele>1285.00</ele>
   <time>2014-03-30T12:33:34Z</time>
  </trkpt>
  <trkpt lat="33.885601" lon="-4.034894">
   <ele>1286.00</ele>
   <time>2014-03-30T12:33:36Z</time>
  </trkpt>
  <trkpt lat="33.885870" lon="-4.034856">
   <ele>1288.00</ele>
   <time>2014-03-30T12:33:39Z</time>
  </trkpt>
  <trkpt lat="33.886009" lon="-4.034701">
   <ele>1289.00</ele>
   <time>2014-03-30T12:33:42Z</time>
  </trkpt>
  <trkpt lat="33.885988" lon="-4.034455">
   <ele>1290.00</ele>
   <time>2014-03-30T12:33:45Z</time>
  </trkpt>
  <trkpt lat="33.885923" lon="-4.034137">
   <ele>1291.00</ele>
   <time>2014-03-30T12:33:48Z</time>
  </trkpt>
  <trkpt lat="33.885964" lon="-4.033843">
   <ele>1292.00</ele>
   <time>2014-03-30T12:33:51Z</time>
  </trkpt>
  <trkpt lat="33.886155" lon="-4.033642">
   <ele>1293.00</ele>
   <time>2014-03-30T12:33:54Z</time>
  </trkpt>
  <trkpt lat="33.886266" lon="-4.033396">
   <ele>1294.00</ele>
   <time>2014-03-30T12:33:57Z</time>
  </trkpt>
  <trkpt lat="33.886290" lon="-4.033078">
   <ele>1296.00</ele>
   <time>2014-03-30T12:34:00Z</time>
  </trkpt>
  <trkpt lat="33.886359" lon="-4.032876">
   <ele>1297.00</ele>
   <time>2014-03-30T12:34:02Z</time>
  </trkpt>
  <trkpt lat="33.886487" lon="-4.032704">
   <ele>1299.00</ele>
   <time>2014-03-30T12:34:04Z</time>
  </trkpt>
  <trkpt lat="33.886637" lon="-4.032573">
   <ele>1300.00</ele>
   <time>2014-03-30T12:34:06Z</time>
  </trkpt>
  <trkpt lat="33.886809" lon="-4.032383">
   <ele>1302.00</ele>
   <time>2014-03-30T12:34:09Z</time>
  </trkpt>
  <trkpt lat="33.886795" lon="-4.032107">
   <ele>1304.00</ele>
   <time>2014-03-30T12:34:12Z</time>
  </trkpt>
  <trkpt lat="33.886730" lon="-4.031812">
   <ele>1306.00</ele>
   <time>2014-03-30T12:34:15Z</time>
  </trkpt>
  <trkpt lat="33.886661" lon="-4.031510">
   <ele>1309.00</ele>
   <time>2014-03-30T12:34:18Z</time>
  </trkpt>
  <trkpt lat="33.886503" lon="-4.031294">
   <ele>1311.00</ele>
   <time>2014-03-30T12:34:21Z</time>
  </trkpt>
  <trkpt lat="33.886437" lon="-4.031049">
   <ele>1314.00</ele>
   <time>2014-03-30T12:34:24Z</time>
  </trkpt>
  <trkpt lat="33.886434" lon="-4.030810">
   <ele>1316.00</ele>
   <time>2014-03-30T12:34:27Z</time>
  </trkpt>
  <trkpt lat="33.886214" lon="-4.030804">
   <ele>1318.00</ele>
   <time>2014-03-30T12:34:31Z</time>
  </trkpt>
  <trkpt lat="33.885965" lon="-4.030954">
   <ele>1320.00</ele>
   <time>2014-03-30T12:34:34Z</time>
  </trkpt>
  <trkpt lat="33.885773" lon="-4.031007">
   <ele>1321.00</ele>
   <time>2014-03-30T12:34:36Z</time>
  </trkpt>
  <trkpt lat="33.885566" lon="-4.030995">
   <ele>1323.00</ele>
   <time>2014-03-30T12:34:38Z</time>
  </trkpt>
  <trkpt lat="33.884849" lon="-4.030872">
   <ele>1329.00</ele>
   <time>2014-03-30T12:34:44Z</time>
  </trkpt>
  <trkpt lat="33.884614" lon="-4.030774">
   <ele>1332.00</ele>
   <time>2014-03-30T12:34:46Z</time>
  </trkpt>
  <trkpt lat="33.884395" lon="-4.030614">
   <ele>1334.00</ele>
   <time>2014-03-30T12:34:48Z</time>
  </trkpt>
  <trkpt lat="33.884087" lon="-4.030351">
   <ele>1338.00</ele>
   <time>2014-03-30T12:34:51Z</time>
  </trkpt>
  <trkpt lat="33.883808" lon="-4.030161">
   <ele>1340.00</ele>
   <time>2014-03-30T12:34:54Z</time>
  </trkpt>
  <trkpt lat="33.883647" lon="-4.030036">
   <ele>1341.00</ele>
   <time>2014-03-30T12:34:56Z</time>
  </trkpt>
  <trkpt lat="33.883453" lon="-4.029969">
   <ele>1343.00</ele>
   <time>2014-03-30T12:34:58Z</time>
  </trkpt>
  <trkpt lat="33.883270" lon="-4.029888">
   <ele>1344.00</ele>
   <time>2014-03-30T12:35:00Z</time>
  </trkpt>
  <trkpt lat="33.883143" lon="-4.029710">
   <ele>1344.00</ele>
   <time>2014-03-30T12:35:02Z</time>
  </trkpt>
  <trkpt lat="33.883011" lon="-4.029517">
   <ele>1346.00</ele>
   <time>2014-03-30T12:35:04Z</time>
  </trkpt>
  <trkpt lat="33.882833" lon="-4.029395">
   <ele>1345.00</ele>
   <time>2014-03-30T12:35:06Z</time>
  </trkpt>
  <trkpt lat="33.882626" lon="-4.029337">
   <ele>1346.00</ele>
   <time>2014-03-30T12:35:08Z</time>
  </trkpt>
  <trkpt lat="33.882406" lon="-4.029350">
   <ele>1348.00</ele>
   <time>2014-03-30T12:35:10Z</time>
  </trkpt>
  <trkpt lat="33.882186" lon="-4.029393">
   <ele>1350.00</ele>
   <time>2014-03-30T12:35:12Z</time>
  </trkpt>
  <trkpt lat="33.881889" lon="-4.029462">
   <ele>1352.00</ele>
   <time>2014-03-30T12:35:15Z</time>
  </trkpt>
  <trkpt lat="33.881711" lon="-4.029414">
   <ele>1354.00</ele>
   <time>2014-03-30T12:35:17Z</time>
  </trkpt>
  <trkpt lat="33.881576" lon="-4.029232">
   <ele>1356.00</ele>
   <time>2014-03-30T12:35:19Z</time>
  </trkpt>
  <trkpt lat="33.881495" lon="-4.028979">
   <ele>1359.00</ele>
   <time>2014-03-30T12:35:21Z</time>
  </trkpt>
  <trkpt lat="33.881401" lon="-4.028720">
   <ele>1361.00</ele>
   <time>2014-03-30T12:35:23Z</time>
  </trkpt>
  <trkpt lat="33.881301" lon="-4.028448">
   <ele>1363.00</ele>
   <time>2014-03-30T12:35:25Z</time>
  </trkpt>
  <trkpt lat="33.881219" lon="-4.028182">
   <ele>1365.00</ele>
   <time>2014-03-30T12:35:27Z</time>
  </trkpt>
  <trkpt lat="33.881141" lon="-4.027958">
   <ele>1367.00</ele>
   <time>2014-03-30T12:35:29Z</time>
  </trkpt>
  <trkpt lat="33.880930" lon="-4.027783">
   <ele>1367.00</ele>
   <time>2014-03-30T12:35:32Z</time>
  </trkpt>
  <trkpt lat="33.880743" lon="-4.027738">
   <ele>1369.00</ele>
   <time>2014-03-30T12:35:34Z</time>
  </trkpt>
  <trkpt lat="33.880549" lon="-4.027776">
   <ele>1371.00</ele>
   <time>2014-03-30T12:35:36Z</time>
  </trkpt>
  <trkpt lat="33.880348" lon="-4.027850">
   <ele>1374.00</ele>
   <time>2014-03-30T12:35:38Z</time>
  </trkpt>
  <trkpt lat="33.880130" lon="-4.027891">
   <ele>1376.00</ele>
   <time>2014-03-30T12:35:40Z</time>
  </trkpt>
  <trkpt lat="33.879911" lon="-4.027907">
   <ele>1379.00</ele>
   <time>2014-03-30T12:35:42Z</time>
  </trkpt>
  <trkpt lat="33.879710" lon="-4.027939">
   <ele>1382.00</ele>
   <time>2014-03-30T12:35:44Z</time>
  </trkpt>
  <trkpt lat="33.879543" lon="-4.028055">
   <ele>1385.00</ele>
   <time>2014-03-30T12:35:46Z</time>
  </trkpt>
  <trkpt lat="33.879417" lon="-4.028244">
   <ele>1387.00</ele>
   <time>2014-03-30T12:35:48Z</time>
  </trkpt>
  <trkpt lat="33.879299" lon="-4.028452">
   <ele>1390.00</ele>
   <time>2014-03-30T12:35:50Z</time>
  </trkpt>
  <trkpt lat="33.879176" lon="-4.028665">
   <ele>1393.00</ele>
   <time>2014-03-30T12:35:52Z</time>
  </trkpt>
  <trkpt lat="33.879035" lon="-4.028859">
   <ele>1395.00</ele>
   <time>2014-03-30T12:35:54Z</time>
  </trkpt>
  <trkpt lat="33.878866" lon="-4.029022">
   <ele>1398.00</ele>
   <time>2014-03-30T12:35:56Z</time>
  </trkpt>
  <trkpt lat="33.878672" lon="-4.029149">
   <ele>1401.00</ele>
   <time>2014-03-30T12:35:58Z</time>
  </trkpt>
  <trkpt lat="33.878461" lon="-4.029236">
   <ele>1404.00</ele>
   <time>2014-03-30T12:36:00Z</time>
  </trkpt>
  <trkpt lat="33.878239" lon="-4.029282">
   <ele>1407.00</ele>
   <time>2014-03-30T12:36:02Z</time>
  </trkpt>
  <trkpt lat="33.878011" lon="-4.029281">
   <ele>1409.00</ele>
   <time>2014-03-30T12:36:04Z</time>
  </trkpt>
  <trkpt lat="33.877797" lon="-4.029207">
   <ele>1412.00</ele>
   <time>2014-03-30T12:36:06Z</time>
  </trkpt>
  <trkpt lat="33.877612" lon="-4.029079">
   <ele>1414.00</ele>
   <time>2014-03-30T12:36:08Z</time>
  </trkpt>
  <trkpt lat="33.877427" lon="-4.029001">
   <ele>1416.00</ele>
   <time>2014-03-30T12:36:10Z</time>
  </trkpt>
  <trkpt lat="33.877229" lon="-4.029024">
   <ele>1419.00</ele>
   <time>2014-03-30T12:36:12Z</time>
  </trkpt>
  <trkpt lat="33.877037" lon="-4.029105">
   <ele>1422.00</ele>
   <time>2014-03-30T12:36:14Z</time>
  </trkpt>
  <trkpt lat="33.876842" lon="-4.029146">
   <ele>1424.00</ele>
   <time>2014-03-30T12:36:16Z</time>
  </trkpt>
  <trkpt lat="33.876656" lon="-4.029077">
   <ele>1426.00</ele>
   <time>2014-03-30T12:36:18Z</time>
  </trkpt>
  <trkpt lat="33.876487" lon="-4.028948">
   <ele>1428.00</ele>
   <time>2014-03-30T12:36:20Z</time>
  </trkpt>
  <trkpt lat="33.876328" lon="-4.028825">
   <ele>1430.00</ele>
   <time>2014-03-30T12:36:22Z</time>
  </trkpt>
  <trkpt lat="33.876143" lon="-4.028779">
   <ele>1432.00</ele>
   <time>2014-03-30T12:36:24Z</time>
  </trkpt>
  <trkpt lat="33.875943" lon="-4.028798">
   <ele>1435.00</ele>
   <time>2014-03-30T12:36:26Z</time>
  </trkpt>
  <trkpt lat="33.875632" lon="-4.028829">
   <ele>1439.00</ele>
   <time>2014-03-30T12:36:29Z</time>
  </trkpt>
  <trkpt lat="33.875433" lon="-4.028800">
   <ele>1441.00</ele>
   <time>2014-03-30T12:36:31Z</time>
  </trkpt>
  <trkpt lat="33.875200" lon="-4.028742">
   <ele>1444.00</ele>
   <time>2014-03-30T12:36:34Z</time>
  </trkpt>
  <trkpt lat="33.875072" lon="-4.028978">
   <ele>1444.00</ele>
   <time>2014-03-30T12:36:38Z</time>
  </trkpt>
  <trkpt lat="33.875023" lon="-4.029274">
   <ele>1450.00</ele>
   <time>2014-03-30T12:36:41Z</time>
  </trkpt>
  <trkpt lat="33.874942" lon="-4.029578">
   <ele>1455.00</ele>
   <time>2014-03-30T12:36:44Z</time>
  </trkpt>
  <trkpt lat="33.874848" lon="-4.029829">
   <ele>1459.00</ele>
   <time>2014-03-30T12:36:47Z</time>
  </trkpt>
  <trkpt lat="33.874690" lon="-4.030018">
   <ele>1461.00</ele>
   <time>2014-03-30T12:36:50Z</time>
  </trkpt>
  <trkpt lat="33.874535" lon="-4.030138">
   <ele>1463.00</ele>
   <time>2014-03-30T12:36:53Z</time>
  </trkpt>
  <trkpt lat="33.874434" lon="-4.029905">
   <ele>1465.00</ele>
   <time>2014-03-30T12:36:57Z</time>
  </trkpt>
  <trkpt lat="33.874435" lon="-4.029603">
   <ele>1465.00</ele>
   <time>2014-03-30T12:37:00Z</time>
  </trkpt>
  <trkpt lat="33.874281" lon="-4.029486">
   <ele>1464.00</ele>
   <time>2014-03-30T12:37:03Z</time>
  </trkpt>
  <trkpt lat="33.874044" lon="-4.029578">
   <ele>1466.00</ele>
   <time>2014-03-30T12:37:06Z</time>
  </trkpt>
  <trkpt lat="33.873877" lon="-4.029673">
   <ele>1467.00</ele>
   <time>2014-03-30T12:37:08Z</time>
  </trkpt>
  <trkpt lat="33.873662" lon="-4.029810">
   <ele>1470.00</ele>
   <time>2014-03-30T12:37:11Z</time>
  </trkpt>
  <trkpt lat="33.873480" lon="-4.029713">
   <ele>1472.00</ele>
   <time>2014-03-30T12:37:14Z</time>
  </trkpt>
  <trkpt lat="33.873434" lon="-4.029393">
   <ele>1473.00</ele>
   <time>2014-03-30T12:37:17Z</time>
  </trkpt>
  <trkpt lat="33.873381" lon="-4.029090">
   <ele>1473.00</ele>
   <time>2014-03-30T12:37:20Z</time>
  </trkpt>
  <trkpt lat="33.873188" lon="-4.028908">
   <ele>1474.00</ele>
   <time>2014-03-30T12:37:23Z</time>
  </trkpt>
  <trkpt lat="33.872957" lon="-4.028802">
   <ele>1475.00</ele>
   <time>2014-03-30T12:37:26Z</time>
  </trkpt>
  <trkpt lat="33.872796" lon="-4.028577">
   <ele>1476.00</ele>
   <time>2014-03-30T12:37:29Z</time>
  </trkpt>
  <trkpt lat="33.872572" lon="-4.028450">
   <ele>1477.00</ele>
   <time>2014-03-30T12:37:32Z</time>
  </trkpt>
  <trkpt lat="33.872400" lon="-4.028288">
   <ele>1477.00</ele>
   <time>2014-03-30T12:37:35Z</time>
  </trkpt>
  <trkpt lat="33.872375" lon="-4.028000">
   <ele>1477.00</ele>
   <time>2014-03-30T12:37:38Z</time>
  </trkpt>
  <trkpt lat="33.872257" lon="-4.027710">
   <ele>1479.00</ele>
   <time>2014-03-30T12:37:41Z</time>
  </trkpt>
  <trkpt lat="33.872099" lon="-4.027587">
   <ele>1480.00</ele>
   <time>2014-03-30T12:37:43Z</time>
  </trkpt>
  <trkpt lat="33.871905" lon="-4.027567">
   <ele>1481.00</ele>
   <time>2014-03-30T12:37:45Z</time>
  </trkpt>
  <trkpt lat="33.871731" lon="-4.027648">
   <ele>1482.00</ele>
   <time>2014-03-30T12:37:47Z</time>
  </trkpt>
  <trkpt lat="33.871585" lon="-4.027797">
   <ele>1484.00</ele>
   <time>2014-03-30T12:37:49Z</time>
  </trkpt>
  <trkpt lat="33.871415" lon="-4.027929">
   <ele>1485.00</ele>
   <time>2014-03-30T12:37:51Z</time>
  </trkpt>
  <trkpt lat="33.871222" lon="-4.027974">
   <ele>1487.00</ele>
   <time>2014-03-30T12:37:53Z</time>
  </trkpt>
  <trkpt lat="33.870972" lon="-4.027876">
   <ele>1490.00</ele>
   <time>2014-03-30T12:37:56Z</time>
  </trkpt>
  <trkpt lat="33.870800" lon="-4.027801">
   <ele>1491.00</ele>
   <time>2014-03-30T12:37:58Z</time>
  </trkpt>
  <trkpt lat="33.870609" lon="-4.027784">
   <ele>1493.00</ele>
   <time>2014-03-30T12:38:00Z</time>
  </trkpt>
  <trkpt lat="33.870367" lon="-4.027851">
   <ele>1496.00</ele>
   <time>2014-03-30T12:38:03Z</time>
  </trkpt>
  <trkpt lat="33.870324" lon="-4.028060">
   <ele>1499.00</ele>
   <time>2014-03-30T12:38:06Z</time>
  </trkpt>
  <trkpt lat="33.870477" lon="-4.028210">
   <ele>1499.00</ele>
   <time>2014-03-30T12:38:09Z</time>
  </trkpt>
  <trkpt lat="33.870658" lon="-4.028300">
   <ele>1500.00</ele>
   <time>2014-03-30T12:38:11Z</time>
  </trkpt>
  <trkpt lat="33.870865" lon="-4.028410">
   <ele>1501.00</ele>
   <time>2014-03-30T12:38:13Z</time>
  </trkpt>
  <trkpt lat="33.871072" lon="-4.028552">
   <ele>1502.00</ele>
   <time>2014-03-30T12:38:15Z</time>
  </trkpt>
  <trkpt lat="33.871505" lon="-4.028885">
   <ele>1504.00</ele>
   <time>2014-03-30T12:38:19Z</time>
  </trkpt>
  <trkpt lat="33.871702" lon="-4.029078">
   <ele>1505.00</ele>
   <time>2014-03-30T12:38:21Z</time>
  </trkpt>
  <trkpt lat="33.871858" lon="-4.029284">
   <ele>1507.00</ele>
   <time>2014-03-30T12:38:23Z</time>
  </trkpt>
  <trkpt lat="33.871949" lon="-4.029516">
   <ele>1509.00</ele>
   <time>2014-03-30T12:38:25Z</time>
  </trkpt>
  <trkpt lat="33.871967" lon="-4.029743">
   <ele>1510.00</ele>
   <time>2014-03-30T12:38:27Z</time>
  </trkpt>
  <trkpt lat="33.871844" lon="-4.029905">
   <ele>1513.00</ele>
   <time>2014-03-30T12:38:30Z</time>
  </trkpt>
  <trkpt lat="33.871667" lon="-4.029764">
   <ele>1513.00</ele>
   <time>2014-03-30T12:38:33Z</time>
  </trkpt>
  <trkpt lat="33.871500" lon="-4.029577">
   <ele>1515.00</ele>
   <time>2014-03-30T12:38:35Z</time>
  </trkpt>
  <trkpt lat="33.871270" lon="-4.029432">
   <ele>1517.00</ele>
   <time>2014-03-30T12:38:37Z</time>
  </trkpt>
  <trkpt lat="33.871039" lon="-4.029371">
   <ele>1520.00</ele>
   <time>2014-03-30T12:38:39Z</time>
  </trkpt>
  <trkpt lat="33.870827" lon="-4.029412">
   <ele>1521.00</ele>
   <time>2014-03-30T12:38:41Z</time>
  </trkpt>
  <trkpt lat="33.870699" lon="-4.029574">
   <ele>1524.00</ele>
   <time>2014-03-30T12:38:43Z</time>
  </trkpt>
  <trkpt lat="33.870646" lon="-4.029816">
   <ele>1527.00</ele>
   <time>2014-03-30T12:38:45Z</time>
  </trkpt>
  <trkpt lat="33.870567" lon="-4.030030">
   <ele>1529.00</ele>
   <time>2014-03-30T12:38:47Z</time>
  </trkpt>
  <trkpt lat="33.870395" lon="-4.030194">
   <ele>1532.00</ele>
   <time>2014-03-30T12:38:50Z</time>
  </trkpt>
  <trkpt lat="33.870196" lon="-4.030100">
   <ele>1535.00</ele>
   <time>2014-03-30T12:38:53Z</time>
  </trkpt>
  <trkpt lat="33.870034" lon="-4.029998">
   <ele>1537.00</ele>
   <time>2014-03-30T12:38:55Z</time>
  </trkpt>
  <trkpt lat="33.869854" lon="-4.029916">
   <ele>1538.00</ele>
   <time>2014-03-30T12:38:57Z</time>
  </trkpt>
  <trkpt lat="33.869598" lon="-4.029918">
   <ele>1541.00</ele>
   <time>2014-03-30T12:39:00Z</time>
  </trkpt>
  <trkpt lat="33.869498" lon="-4.030178">
   <ele>1542.00</ele>
   <time>2014-03-30T12:39:03Z</time>
  </trkpt>
  <trkpt lat="33.869537" lon="-4.030428">
   <ele>1542.00</ele>
   <time>2014-03-30T12:39:05Z</time>
  </trkpt>
  <trkpt lat="33.869638" lon="-4.030965">
   <ele>1542.00</ele>
   <time>2014-03-30T12:39:09Z</time>
  </trkpt>
  <trkpt lat="33.869719" lon="-4.031756">
   <ele>1543.00</ele>
   <time>2014-03-30T12:39:14Z</time>
  </trkpt>
  <trkpt lat="33.869757" lon="-4.032319">
   <ele>1544.00</ele>
   <time>2014-03-30T12:39:18Z</time>
  </trkpt>
  <trkpt lat="33.869673" lon="-4.032591">
   <ele>1545.00</ele>
   <time>2014-03-30T12:39:21Z</time>
  </trkpt>
  <trkpt lat="33.869480" lon="-4.032533">
   <ele>1545.00</ele>
   <time>2014-03-30T12:39:24Z</time>
  </trkpt>
  <trkpt lat="33.869296" lon="-4.032313">
   <ele>1546.00</ele>
   <time>2014-03-30T12:39:27Z</time>
  </trkpt>
  <trkpt lat="33.869132" lon="-4.032207">
   <ele>1547.00</ele>
   <time>2014-03-30T12:39:29Z</time>
  </trkpt>
  <trkpt lat="33.868945" lon="-4.032104">
   <ele>1548.00</ele>
   <time>2014-03-30T12:39:31Z</time>
  </trkpt>
  <trkpt lat="33.868783" lon="-4.031926">
   <ele>1550.00</ele>
   <time>2014-03-30T12:39:33Z</time>
  </trkpt>
  <trkpt lat="33.868631" lon="-4.031748">
   <ele>1551.00</ele>
   <time>2014-03-30T12:39:35Z</time>
  </trkpt>
  <trkpt lat="33.868449" lon="-4.031704">
   <ele>1552.00</ele>
   <time>2014-03-30T12:39:37Z</time>
  </trkpt>
  <trkpt lat="33.868290" lon="-4.031810">
   <ele>1552.00</ele>
   <time>2014-03-30T12:39:39Z</time>
  </trkpt>
  <trkpt lat="33.868169" lon="-4.031995">
   <ele>1554.00</ele>
   <time>2014-03-30T12:39:41Z</time>
  </trkpt>
  <trkpt lat="33.868065" lon="-4.032263">
   <ele>1557.00</ele>
   <time>2014-03-30T12:39:44Z</time>
  </trkpt>
  <trkpt lat="33.867890" lon="-4.032336">
   <ele>1558.00</ele>
   <time>2014-03-30T12:39:47Z</time>
  </trkpt>
  <trkpt lat="33.867790" lon="-4.032104">
   <ele>1558.00</ele>
   <time>2014-03-30T12:39:50Z</time>
  </trkpt>
  <trkpt lat="33.867793" lon="-4.031774">
   <ele>1559.00</ele>
   <time>2014-03-30T12:39:53Z</time>
  </trkpt>
  <trkpt lat="33.867785" lon="-4.031517">
   <ele>1560.00</ele>
   <time>2014-03-30T12:39:55Z</time>
  </trkpt>
  <trkpt lat="33.867746" lon="-4.031239">
   <ele>1562.00</ele>
   <time>2014-03-30T12:39:57Z</time>
  </trkpt>
  <trkpt lat="33.867678" lon="-4.030792">
   <ele>1564.00</ele>
   <time>2014-03-30T12:40:00Z</time>
  </trkpt>
  <trkpt lat="33.867463" lon="-4.029190">
   <ele>1572.00</ele>
   <time>2014-03-30T12:40:10Z</time>
  </trkpt>
  <trkpt lat="33.867363" lon="-4.028967">
   <ele>1575.00</ele>
   <time>2014-03-30T12:40:13Z</time>
  </trkpt>
  <trkpt lat="33.867277" lon="-4.029175">
   <ele>1577.00</ele>
   <time>2014-03-30T12:40:17Z</time>
  </trkpt>
  <trkpt lat="33.867308" lon="-4.029464">
   <ele>1580.00</ele>
   <time>2014-03-30T12:40:20Z</time>
  </trkpt>
  <trkpt lat="33.867287" lon="-4.029701">
   <ele>1581.00</ele>
   <time>2014-03-30T12:40:22Z</time>
  </trkpt>
  <trkpt lat="33.867198" lon="-4.030721">
   <ele>1587.00</ele>
   <time>2014-03-30T12:40:30Z</time>
  </trkpt>
  <trkpt lat="33.867200" lon="-4.031010">
   <ele>1589.00</ele>
   <time>2014-03-30T12:40:32Z</time>
  </trkpt>
  <trkpt lat="33.867207" lon="-4.031299">
   <ele>1591.00</ele>
   <time>2014-03-30T12:40:34Z</time>
  </trkpt>
  <trkpt lat="33.867197" lon="-4.031586">
   <ele>1593.00</ele>
   <time>2014-03-30T12:40:36Z</time>
  </trkpt>
  <trkpt lat="33.867151" lon="-4.031873">
   <ele>1595.00</ele>
   <time>2014-03-30T12:40:38Z</time>
  </trkpt>
  <trkpt lat="33.867075" lon="-4.032157">
   <ele>1597.00</ele>
   <time>2014-03-30T12:40:40Z</time>
  </trkpt>
  <trkpt lat="33.866946" lon="-4.032581">
   <ele>1600.00</ele>
   <time>2014-03-30T12:40:43Z</time>
  </trkpt>
  <trkpt lat="33.866856" lon="-4.032818">
   <ele>1602.00</ele>
   <time>2014-03-30T12:40:45Z</time>
  </trkpt>
  <trkpt lat="33.866752" lon="-4.033075">
   <ele>1605.00</ele>
   <time>2014-03-30T12:40:48Z</time>
  </trkpt>
  <trkpt lat="33.866865" lon="-4.033312">
   <ele>1606.00</ele>
   <time>2014-03-30T12:40:52Z</time>
  </trkpt>
  <trkpt lat="33.866943" lon="-4.033558">
   <ele>1607.00</ele>
   <time>2014-03-30T12:40:55Z</time>
  </trkpt>
  <trkpt lat="33.866869" lon="-4.033849">
   <ele>1610.00</ele>
   <time>2014-03-30T12:40:58Z</time>
  </trkpt>
  <trkpt lat="33.866743" lon="-4.034118">
   <ele>1613.00</ele>
   <time>2014-03-30T12:41:01Z</time>
  </trkpt>
  <trkpt lat="33.866640" lon="-4.034297">
   <ele>1615.00</ele>
   <time>2014-03-30T12:41:03Z</time>
  </trkpt>
  <trkpt lat="33.866389" lon="-4.034694">
   <ele>1619.00</ele>
   <time>2014-03-30T12:41:07Z</time>
  </trkpt>
  <trkpt lat="33.866244" lon="-4.034875">
   <ele>1620.00</ele>
   <time>2014-03-30T12:41:09Z</time>
  </trkpt>
  <trkpt lat="33.866073" lon="-4.035021">
   <ele>1621.00</ele>
   <time>2014-03-30T12:41:11Z</time>
  </trkpt>
  <trkpt lat="33.865864" lon="-4.035124">
   <ele>1622.00</ele>
   <time>2014-03-30T12:41:13Z</time>
  </trkpt>
  <trkpt lat="33.865629" lon="-4.035195">
   <ele>1624.00</ele>
   <time>2014-03-30T12:41:15Z</time>
  </trkpt>
  <trkpt lat="33.865386" lon="-4.035263">
   <ele>1625.00</ele>
   <time>2014-03-30T12:41:17Z</time>
  </trkpt>
  <trkpt lat="33.865150" lon="-4.035375">
   <ele>1627.00</ele>
   <time>2014-03-30T12:41:19Z</time>
  </trkpt>
  <trkpt lat="33.864935" lon="-4.035550">
   <ele>1628.00</ele>
   <time>2014-03-30T12:41:21Z</time>
  </trkpt>
  <trkpt lat="33.864749" lon="-4.035781">
   <ele>1629.00</ele>
   <time>2014-03-30T12:41:23Z</time>
  </trkpt>
  <trkpt lat="33.864585" lon="-4.036042">
   <ele>1631.00</ele>
   <time>2014-03-30T12:41:25Z</time>
  </trkpt>
  <trkpt lat="33.864281" lon="-4.036569">
   <ele>1634.00</ele>
   <time>2014-03-30T12:41:29Z</time>
  </trkpt>
  <trkpt lat="33.864057" lon="-4.036939">
   <ele>1636.00</ele>
   <time>2014-03-30T12:41:32Z</time>
  </trkpt>
  <trkpt lat="33.863938" lon="-4.037193">
   <ele>1638.00</ele>
   <time>2014-03-30T12:41:34Z</time>
  </trkpt>
  <trkpt lat="33.863873" lon="-4.037465">
   <ele>1639.00</ele>
   <time>2014-03-30T12:41:36Z</time>
  </trkpt>
  <trkpt lat="33.863875" lon="-4.037749">
   <ele>1640.00</ele>
   <time>2014-03-30T12:41:38Z</time>
  </trkpt>
  <trkpt lat="33.863934" lon="-4.038031">
   <ele>1641.00</ele>
   <time>2014-03-30T12:41:40Z</time>
  </trkpt>
  <trkpt lat="33.864051" lon="-4.038441">
   <ele>1642.00</ele>
   <time>2014-03-30T12:41:43Z</time>
  </trkpt>
  <trkpt lat="33.864090" lon="-4.038726">
   <ele>1644.00</ele>
   <time>2014-03-30T12:41:45Z</time>
  </trkpt>
  <trkpt lat="33.864093" lon="-4.039008">
   <ele>1645.00</ele>
   <time>2014-03-30T12:41:47Z</time>
  </trkpt>
  <trkpt lat="33.864073" lon="-4.039359">
   <ele>1646.00</ele>
   <time>2014-03-30T12:41:50Z</time>
  </trkpt>
  <trkpt lat="33.863981" lon="-4.039553">
   <ele>1648.00</ele>
   <time>2014-03-30T12:41:53Z</time>
  </trkpt>
  <trkpt lat="33.863774" lon="-4.039557">
   <ele>1649.00</ele>
   <time>2014-03-30T12:41:56Z</time>
  </trkpt>
  <trkpt lat="33.863409" lon="-4.039418">
   <ele>1651.00</ele>
   <time>2014-03-30T12:42:00Z</time>
  </trkpt>
  <trkpt lat="33.863215" lon="-4.039382">
   <ele>1652.00</ele>
   <time>2014-03-30T12:42:02Z</time>
  </trkpt>
  <trkpt lat="33.863000" lon="-4.039379">
   <ele>1653.00</ele>
   <time>2014-03-30T12:42:04Z</time>
  </trkpt>
  <trkpt lat="33.862557" lon="-4.039406">
   <ele>1655.00</ele>
   <time>2014-03-30T12:42:08Z</time>
  </trkpt>
  <trkpt lat="33.862344" lon="-4.039348">
   <ele>1656.00</ele>
   <time>2014-03-30T12:42:10Z</time>
  </trkpt>
  <trkpt lat="33.861788" lon="-4.039126">
   <ele>1657.00</ele>
   <time>2014-03-30T12:42:15Z</time>
  </trkpt>
  <trkpt lat="33.861583" lon="-4.038999">
   <ele>1658.00</ele>
   <time>2014-03-30T12:42:17Z</time>
  </trkpt>
  <trkpt lat="33.861397" lon="-4.038827">
   <ele>1660.00</ele>
   <time>2014-03-30T12:42:19Z</time>
  </trkpt>
  <trkpt lat="33.861229" lon="-4.038629">
   <ele>1661.00</ele>
   <time>2014-03-30T12:42:21Z</time>
  </trkpt>
  <trkpt lat="33.861091" lon="-4.038441">
   <ele>1663.00</ele>
   <time>2014-03-30T12:42:23Z</time>
  </trkpt>
  <trkpt lat="33.860948" lon="-4.038210">
   <ele>1665.00</ele>
   <time>2014-03-30T12:42:26Z</time>
  </trkpt>
  <trkpt lat="33.860740" lon="-4.038222">
   <ele>1666.00</ele>
   <time>2014-03-30T12:42:30Z</time>
  </trkpt>
  <trkpt lat="33.860581" lon="-4.038487">
   <ele>1666.00</ele>
   <time>2014-03-30T12:42:33Z</time>
  </trkpt>
  <trkpt lat="33.860332" lon="-4.038910">
   <ele>1667.00</ele>
   <time>2014-03-30T12:42:37Z</time>
  </trkpt>
  <trkpt lat="33.860202" lon="-4.039181">
   <ele>1668.00</ele>
   <time>2014-03-30T12:42:39Z</time>
  </trkpt>
  <trkpt lat="33.860032" lon="-4.039599">
   <ele>1669.00</ele>
   <time>2014-03-30T12:42:42Z</time>
  </trkpt>
  <trkpt lat="33.859734" lon="-4.040360">
   <ele>1673.00</ele>
   <time>2014-03-30T12:42:48Z</time>
  </trkpt>
  <trkpt lat="33.859609" lon="-4.040534">
   <ele>1675.00</ele>
   <time>2014-03-30T12:42:50Z</time>
  </trkpt>
  <trkpt lat="33.859373" lon="-4.040593">
   <ele>1677.00</ele>
   <time>2014-03-30T12:42:53Z</time>
  </trkpt>
  <trkpt lat="33.859173" lon="-4.040400">
   <ele>1679.00</ele>
   <time>2014-03-30T12:42:56Z</time>
  </trkpt>
  <trkpt lat="33.858675" lon="-4.039694">
   <ele>1686.00</ele>
   <time>2014-03-30T12:43:03Z</time>
  </trkpt>
  <trkpt lat="33.858448" lon="-4.039360">
   <ele>1690.00</ele>
   <time>2014-03-30T12:43:06Z</time>
  </trkpt>
  <trkpt lat="33.858284" lon="-4.039168">
   <ele>1692.00</ele>
   <time>2014-03-30T12:43:08Z</time>
  </trkpt>
  <trkpt lat="33.858132" lon="-4.039021">
   <ele>1695.00</ele>
   <time>2014-03-30T12:43:10Z</time>
  </trkpt>
  <trkpt lat="33.857946" lon="-4.038894">
   <ele>1697.00</ele>
   <time>2014-03-30T12:43:13Z</time>
  </trkpt>
  <trkpt lat="33.857785" lon="-4.038994">
   <ele>1699.00</ele>
   <time>2014-03-30T12:43:17Z</time>
  </trkpt>
  <trkpt lat="33.857836" lon="-4.039232">
   <ele>1699.00</ele>
   <time>2014-03-30T12:43:20Z</time>
  </trkpt>
  <trkpt lat="33.857970" lon="-4.039504">
   <ele>1698.00</ele>
   <time>2014-03-30T12:43:23Z</time>
  </trkpt>
  <trkpt lat="33.858057" lon="-4.039701">
   <ele>1697.00</ele>
   <time>2014-03-30T12:43:25Z</time>
  </trkpt>
  <trkpt lat="33.858105" lon="-4.039916">
   <ele>1698.00</ele>
   <time>2014-03-30T12:43:27Z</time>
  </trkpt>
  <trkpt lat="33.858109" lon="-4.040148">
   <ele>1700.00</ele>
   <time>2014-03-30T12:43:29Z</time>
  </trkpt>
  <trkpt lat="33.858076" lon="-4.040370">
   <ele>1701.00</ele>
   <time>2014-03-30T12:43:31Z</time>
  </trkpt>
  <trkpt lat="33.858014" lon="-4.040581">
   <ele>1702.00</ele>
   <time>2014-03-30T12:43:33Z</time>
  </trkpt>
  <trkpt lat="33.857925" lon="-4.040794">
   <ele>1704.00</ele>
   <time>2014-03-30T12:43:35Z</time>
  </trkpt>
  <trkpt lat="33.857698" lon="-4.041249">
   <ele>1707.00</ele>
   <time>2014-03-30T12:43:39Z</time>
  </trkpt>
  <trkpt lat="33.857564" lon="-4.041485">
   <ele>1709.00</ele>
   <time>2014-03-30T12:43:41Z</time>
  </trkpt>
  <trkpt lat="33.857417" lon="-4.041717">
   <ele>1710.00</ele>
   <time>2014-03-30T12:43:43Z</time>
  </trkpt>
  <trkpt lat="33.857258" lon="-4.041935">
   <ele>1712.00</ele>
   <time>2014-03-30T12:43:45Z</time>
  </trkpt>
  <trkpt lat="33.857083" lon="-4.042140">
   <ele>1713.00</ele>
   <time>2014-03-30T12:43:47Z</time>
  </trkpt>
  <trkpt lat="33.856827" lon="-4.042422">
   <ele>1715.00</ele>
   <time>2014-03-30T12:43:50Z</time>
  </trkpt>
  <trkpt lat="33.856665" lon="-4.042581">
   <ele>1717.00</ele>
   <time>2014-03-30T12:43:52Z</time>
  </trkpt>
  <trkpt lat="33.856501" lon="-4.042698">
   <ele>1718.00</ele>
   <time>2014-03-30T12:43:54Z</time>
  </trkpt>
  <trkpt lat="33.856245" lon="-4.042683">
   <ele>1719.00</ele>
   <time>2014-03-30T12:43:57Z</time>
  </trkpt>
  <trkpt lat="33.856085" lon="-4.042560">
   <ele>1720.00</ele>
   <time>2014-03-30T12:43:59Z</time>
  </trkpt>
  <trkpt lat="33.855927" lon="-4.042382">
   <ele>1721.00</ele>
   <time>2014-03-30T12:44:01Z</time>
  </trkpt>
  <trkpt lat="33.855762" lon="-4.042171">
   <ele>1722.00</ele>
   <time>2014-03-30T12:44:03Z</time>
  </trkpt>
  <trkpt lat="33.855155" lon="-4.041361">
   <ele>1729.00</ele>
   <time>2014-03-30T12:44:10Z</time>
  </trkpt>
  <trkpt lat="33.854766" lon="-4.040913">
   <ele>1731.00</ele>
   <time>2014-03-30T12:44:14Z</time>
  </trkpt>
  <trkpt lat="33.854367" lon="-4.040466">
   <ele>1734.00</ele>
   <time>2014-03-30T12:44:18Z</time>
  </trkpt>
  <trkpt lat="33.854190" lon="-4.040238">
   <ele>1735.00</ele>
   <time>2014-03-30T12:44:20Z</time>
  </trkpt>
  <trkpt lat="33.854041" lon="-4.040009">
   <ele>1736.00</ele>
   <time>2014-03-30T12:44:22Z</time>
  </trkpt>
  <trkpt lat="33.853936" lon="-4.039780">
   <ele>1737.00</ele>
   <time>2014-03-30T12:44:24Z</time>
  </trkpt>
  <trkpt lat="33.853888" lon="-4.039555">
   <ele>1738.00</ele>
   <time>2014-03-30T12:44:26Z</time>
  </trkpt>
  <trkpt lat="33.853897" lon="-4.039272">
   <ele>1739.00</ele>
   <time>2014-03-30T12:44:29Z</time>
  </trkpt>
  <trkpt lat="33.853797" lon="-4.039046">
   <ele>1741.00</ele>
   <time>2014-03-30T12:44:33Z</time>
  </trkpt>
  <trkpt lat="33.853609" lon="-4.038962">
   <ele>1741.00</ele>
   <time>2014-03-30T12:44:36Z</time>
  </trkpt>
  <trkpt lat="33.853286" lon="-4.038831">
   <ele>1742.00</ele>
   <time>2014-03-30T12:44:40Z</time>
  </trkpt>
  <trkpt lat="33.853107" lon="-4.038774">
   <ele>1743.00</ele>
   <time>2014-03-30T12:44:42Z</time>
  </trkpt>
  <trkpt lat="33.852925" lon="-4.038735">
   <ele>1744.00</ele>
   <time>2014-03-30T12:44:44Z</time>
  </trkpt>
  <trkpt lat="33.852742" lon="-4.038715">
   <ele>1746.00</ele>
   <time>2014-03-30T12:44:46Z</time>
  </trkpt>
  <trkpt lat="33.852329" lon="-4.038683">
   <ele>1749.00</ele>
   <time>2014-03-30T12:44:51Z</time>
  </trkpt>
  <trkpt lat="33.852128" lon="-4.038629">
   <ele>1750.00</ele>
   <time>2014-03-30T12:44:54Z</time>
  </trkpt>
  <trkpt lat="33.851943" lon="-4.038489">
   <ele>1751.00</ele>
   <time>2014-03-30T12:44:57Z</time>
  </trkpt>
  <trkpt lat="33.851783" lon="-4.038255">
   <ele>1753.00</ele>
   <time>2014-03-30T12:45:00Z</time>
  </trkpt>
  <trkpt lat="33.851613" lon="-4.037991">
   <ele>1755.00</ele>
   <time>2014-03-30T12:45:03Z</time>
  </trkpt>
  <trkpt lat="33.851489" lon="-4.037830">
   <ele>1756.00</ele>
   <time>2014-03-30T12:45:05Z</time>
  </trkpt>
  <trkpt lat="33.851312" lon="-4.037618">
   <ele>1757.00</ele>
   <time>2014-03-30T12:45:08Z</time>
  </trkpt>
  <trkpt lat="33.851222" lon="-4.037397">
   <ele>1759.00</ele>
   <time>2014-03-30T12:45:11Z</time>
  </trkpt>
  <trkpt lat="33.851286" lon="-4.037154">
   <ele>1762.00</ele>
   <time>2014-03-30T12:45:14Z</time>
  </trkpt>
  <trkpt lat="33.851266" lon="-4.036898">
   <ele>1763.00</ele>
   <time>2014-03-30T12:45:18Z</time>
  </trkpt>
  <trkpt lat="33.851106" lon="-4.036774">
   <ele>1763.00</ele>
   <time>2014-03-30T12:45:21Z</time>
  </trkpt>
  <trkpt lat="33.850767" lon="-4.036563">
   <ele>1765.00</ele>
   <time>2014-03-30T12:45:26Z</time>
  </trkpt>
  <trkpt lat="33.850486" lon="-4.036358">
   <ele>1766.00</ele>
   <time>2014-03-30T12:45:30Z</time>
  </trkpt>
  <trkpt lat="33.850184" lon="-4.036111">
   <ele>1769.00</ele>
   <time>2014-03-30T12:45:34Z</time>
  </trkpt>
  <trkpt lat="33.850035" lon="-4.035970">
   <ele>1771.00</ele>
   <time>2014-03-30T12:45:36Z</time>
  </trkpt>
  <trkpt lat="33.849739" lon="-4.035671">
   <ele>1774.00</ele>
   <time>2014-03-30T12:45:40Z</time>
  </trkpt>
  <trkpt lat="33.849590" lon="-4.035545">
   <ele>1776.00</ele>
   <time>2014-03-30T12:45:42Z</time>
  </trkpt>
  <trkpt lat="33.849404" lon="-4.035444">
   <ele>1777.00</ele>
   <time>2014-03-30T12:45:45Z</time>
  </trkpt>
  <trkpt lat="33.849298" lon="-4.035604">
   <ele>1777.00</ele>
   <time>2014-03-30T12:45:49Z</time>
  </trkpt>
  <trkpt lat="33.849344" lon="-4.035879">
   <ele>1778.00</ele>
   <time>2014-03-30T12:45:52Z</time>
  </trkpt>
  <trkpt lat="33.849453" lon="-4.036432">
   <ele>1780.00</ele>
   <time>2014-03-30T12:45:57Z</time>
  </trkpt>
  <trkpt lat="33.849479" lon="-4.036670">
   <ele>1782.00</ele>
   <time>2014-03-30T12:45:59Z</time>
  </trkpt>
  <trkpt lat="33.849482" lon="-4.036923">
   <ele>1784.00</ele>
   <time>2014-03-30T12:46:01Z</time>
  </trkpt>
  <trkpt lat="33.849456" lon="-4.037190">
   <ele>1786.00</ele>
   <time>2014-03-30T12:46:03Z</time>
  </trkpt>
  <trkpt lat="33.849355" lon="-4.037917">
   <ele>1791.00</ele>
   <time>2014-03-30T12:46:09Z</time>
  </trkpt>
  <trkpt lat="33.849293" lon="-4.038122">
   <ele>1793.00</ele>
   <time>2014-03-30T12:46:11Z</time>
  </trkpt>
  <trkpt lat="33.849143" lon="-4.038377">
   <ele>1796.00</ele>
   <time>2014-03-30T12:46:14Z</time>
  </trkpt>
  <trkpt lat="33.848913" lon="-4.038522">
   <ele>1799.00</ele>
   <time>2014-03-30T12:46:17Z</time>
  </trkpt>
  <trkpt lat="33.848732" lon="-4.038554">
   <ele>1801.00</ele>
   <time>2014-03-30T12:46:19Z</time>
  </trkpt>
  <trkpt lat="33.848193" lon="-4.038591">
   <ele>1806.00</ele>
   <time>2014-03-30T12:46:25Z</time>
  </trkpt>
  <trkpt lat="33.848013" lon="-4.038647">
   <ele>1808.00</ele>
   <time>2014-03-30T12:46:27Z</time>
  </trkpt>
  <trkpt lat="33.847833" lon="-4.038827">
   <ele>1810.00</ele>
   <time>2014-03-30T12:46:30Z</time>
  </trkpt>
  <trkpt lat="33.847807" lon="-4.039108">
   <ele>1811.00</ele>
   <time>2014-03-30T12:46:33Z</time>
  </trkpt>
  <trkpt lat="33.847853" lon="-4.039417">
   <ele>1812.00</ele>
   <time>2014-03-30T12:46:36Z</time>
  </trkpt>
  <trkpt lat="33.847913" lon="-4.039849">
   <ele>1814.00</ele>
   <time>2014-03-30T12:46:40Z</time>
  </trkpt>
  <trkpt lat="33.847946" lon="-4.040069">
   <ele>1816.00</ele>
   <time>2014-03-30T12:46:42Z</time>
  </trkpt>
  <trkpt lat="33.848041" lon="-4.040356">
   <ele>1817.00</ele>
   <time>2014-03-30T12:46:45Z</time>
  </trkpt>
  <trkpt lat="33.848195" lon="-4.040614">
   <ele>1819.00</ele>
   <time>2014-03-30T12:46:48Z</time>
  </trkpt>
  <trkpt lat="33.848497" lon="-4.041054">
   <ele>1820.00</ele>
   <time>2014-03-30T12:46:53Z</time>
  </trkpt>
  <trkpt lat="33.848585" lon="-4.041342">
   <ele>1822.00</ele>
   <time>2014-03-30T12:46:56Z</time>
  </trkpt>
  <trkpt lat="33.848497" lon="-4.041611">
   <ele>1824.00</ele>
   <time>2014-03-30T12:46:59Z</time>
  </trkpt>
  <trkpt lat="33.848387" lon="-4.041886">
   <ele>1826.00</ele>
   <time>2014-03-30T12:47:02Z</time>
  </trkpt>
  <trkpt lat="33.848316" lon="-4.042198">
   <ele>1828.00</ele>
   <time>2014-03-30T12:47:05Z</time>
  </trkpt>
  <trkpt lat="33.848302" lon="-4.042427">
   <ele>1829.00</ele>
   <time>2014-03-30T12:47:07Z</time>
  </trkpt>
  <trkpt lat="33.848320" lon="-4.042670">
   <ele>1830.00</ele>
   <time>2014-03-30T12:47:09Z</time>
  </trkpt>
  <trkpt lat="33.848361" lon="-4.042915">
   <ele>1831.00</ele>
   <time>2014-03-30T12:47:11Z</time>
  </trkpt>
  <trkpt lat="33.848526" lon="-4.043746">
   <ele>1835.00</ele>
   <time>2014-03-30T12:47:18Z</time>
  </trkpt>
  <trkpt lat="33.848572" lon="-4.044103">
   <ele>1837.00</ele>
   <time>2014-03-30T12:47:21Z</time>
  </trkpt>
  <trkpt lat="33.848590" lon="-4.044344">
   <ele>1838.00</ele>
   <time>2014-03-30T12:47:23Z</time>
  </trkpt>
  <trkpt lat="33.848591" lon="-4.044574">
   <ele>1839.00</ele>
   <time>2014-03-30T12:47:25Z</time>
  </trkpt>
  <trkpt lat="33.848558" lon="-4.044793">
   <ele>1840.00</ele>
   <time>2014-03-30T12:47:27Z</time>
  </trkpt>
  <trkpt lat="33.848501" lon="-4.045103">
   <ele>1842.00</ele>
   <time>2014-03-30T12:47:30Z</time>
  </trkpt>
  <trkpt lat="33.848534" lon="-4.045420">
   <ele>1844.00</ele>
   <time>2014-03-30T12:47:33Z</time>
  </trkpt>
  <trkpt lat="33.848518" lon="-4.045719">
   <ele>1846.00</ele>
   <time>2014-03-30T12:47:36Z</time>
  </trkpt>
  <trkpt lat="33.848427" lon="-4.045908">
   <ele>1847.00</ele>
   <time>2014-03-30T12:47:38Z</time>
  </trkpt>
  <trkpt lat="33.848300" lon="-4.046073">
   <ele>1849.00</ele>
   <time>2014-03-30T12:47:40Z</time>
  </trkpt>
  <trkpt lat="33.848040" lon="-4.046331">
   <ele>1851.00</ele>
   <time>2014-03-30T12:47:44Z</time>
  </trkpt>
  <trkpt lat="33.848019" lon="-4.046565">
   <ele>1853.00</ele>
   <time>2014-03-30T12:47:47Z</time>
  </trkpt>
  <trkpt lat="33.848094" lon="-4.046791">
   <ele>1854.00</ele>
   <time>2014-03-30T12:47:50Z</time>
  </trkpt>
  <trkpt lat="33.848172" lon="-4.047078">
   <ele>1856.00</ele>
   <time>2014-03-30T12:47:53Z</time>
  </trkpt>
  <trkpt lat="33.848233" lon="-4.047323">
   <ele>1857.00</ele>
   <time>2014-03-30T12:47:56Z</time>
  </trkpt>
  <trkpt lat="33.848190" lon="-4.047536">
   <ele>1859.00</ele>
   <time>2014-03-30T12:48:00Z</time>
  </trkpt>
  <trkpt lat="33.847974" lon="-4.047521">
   <ele>1860.00</ele>
   <time>2014-03-30T12:48:04Z</time>
  </trkpt>
  <trkpt lat="33.847730" lon="-4.047440">
   <ele>1861.00</ele>
   <time>2014-03-30T12:48:08Z</time>
  </trkpt>
  <trkpt lat="33.847579" lon="-4.047257">
   <ele>1862.00</ele>
   <time>2014-03-30T12:48:12Z</time>
  </trkpt>
  <trkpt lat="33.847385" lon="-4.047128">
   <ele>1863.00</ele>
   <time>2014-03-30T12:48:16Z</time>
  </trkpt>
  <trkpt lat="33.847178" lon="-4.047082">
   <ele>1865.00</ele>
   <time>2014-03-30T12:48:19Z</time>
  </trkpt>
  <trkpt lat="33.846967" lon="-4.047026">
   <ele>1866.00</ele>
   <time>2014-03-30T12:48:22Z</time>
  </trkpt>
  <trkpt lat="33.846794" lon="-4.046868">
   <ele>1868.00</ele>
   <time>2014-03-30T12:48:25Z</time>
  </trkpt>
  <trkpt lat="33.846658" lon="-4.046678">
   <ele>1869.00</ele>
   <time>2014-03-30T12:48:28Z</time>
  </trkpt>
  <trkpt lat="33.846465" lon="-4.046609">
   <ele>1870.00</ele>
   <time>2014-03-30T12:48:31Z</time>
  </trkpt>
  <trkpt lat="33.846252" lon="-4.046627">
   <ele>1870.00</ele>
   <time>2014-03-30T12:48:34Z</time>
  </trkpt>
  <trkpt lat="33.846041" lon="-4.046603">
   <ele>1871.00</ele>
   <time>2014-03-30T12:48:38Z</time>
  </trkpt>
  <trkpt lat="33.846001" lon="-4.046339">
   <ele>1872.00</ele>
   <time>2014-03-30T12:48:42Z</time>
  </trkpt>
  <trkpt lat="33.846037" lon="-4.045885">
   <ele>1874.00</ele>
   <time>2014-03-30T12:48:47Z</time>
  </trkpt>
  <trkpt lat="33.846005" lon="-4.045628">
   <ele>1876.00</ele>
   <time>2014-03-30T12:48:50Z</time>
  </trkpt>
  <trkpt lat="33.845869" lon="-4.045458">
   <ele>1877.00</ele>
   <time>2014-03-30T12:48:53Z</time>
  </trkpt>
  <trkpt lat="33.845658" lon="-4.045383">
   <ele>1879.00</ele>
   <time>2014-03-30T12:48:56Z</time>
  </trkpt>
  <trkpt lat="33.845406" lon="-4.045367">
   <ele>1881.00</ele>
   <time>2014-03-30T12:48:59Z</time>
  </trkpt>
  <trkpt lat="33.845224" lon="-4.045385">
   <ele>1882.00</ele>
   <time>2014-03-30T12:49:01Z</time>
  </trkpt>
  <trkpt lat="33.845034" lon="-4.045423">
   <ele>1885.00</ele>
   <time>2014-03-30T12:49:03Z</time>
  </trkpt>
  <trkpt lat="33.844587" lon="-4.045536">
   <ele>1888.00</ele>
   <time>2014-03-30T12:49:08Z</time>
  </trkpt>
  <trkpt lat="33.844386" lon="-4.045562">
   <ele>1890.00</ele>
   <time>2014-03-30T12:49:10Z</time>
  </trkpt>
  <trkpt lat="33.844171" lon="-4.045563">
   <ele>1892.00</ele>
   <time>2014-03-30T12:49:12Z</time>
  </trkpt>
  <trkpt lat="33.843958" lon="-4.045539">
   <ele>1893.00</ele>
   <time>2014-03-30T12:49:14Z</time>
  </trkpt>
  <trkpt lat="33.843586" lon="-4.045489">
   <ele>1896.00</ele>
   <time>2014-03-30T12:49:18Z</time>
  </trkpt>
  <trkpt lat="33.843362" lon="-4.045547">
   <ele>1898.00</ele>
   <time>2014-03-30T12:49:21Z</time>
  </trkpt>
  <trkpt lat="33.843192" lon="-4.045736">
   <ele>1899.00</ele>
   <time>2014-03-30T12:49:24Z</time>
  </trkpt>
  <trkpt lat="33.843057" lon="-4.045995">
   <ele>1901.00</ele>
   <time>2014-03-30T12:49:27Z</time>
  </trkpt>
  <trkpt lat="33.842990" lon="-4.046202">
   <ele>1902.00</ele>
   <time>2014-03-30T12:49:29Z</time>
  </trkpt>
  <trkpt lat="33.842942" lon="-4.046414">
   <ele>1904.00</ele>
   <time>2014-03-30T12:49:31Z</time>
  </trkpt>
  <trkpt lat="33.842849" lon="-4.046678">
   <ele>1906.00</ele>
   <time>2014-03-30T12:49:34Z</time>
  </trkpt>
  <trkpt lat="33.842685" lon="-4.046794">
   <ele>1908.00</ele>
   <time>2014-03-30T12:49:37Z</time>
  </trkpt>
  <trkpt lat="33.842480" lon="-4.046693">
   <ele>1910.00</ele>
   <time>2014-03-30T12:49:40Z</time>
  </trkpt>
  <trkpt lat="33.842251" lon="-4.046517">
   <ele>1911.00</ele>
   <time>2014-03-30T12:49:43Z</time>
  </trkpt>
  <trkpt lat="33.842017" lon="-4.046383">
   <ele>1912.00</ele>
   <time>2014-03-30T12:49:46Z</time>
  </trkpt>
  <trkpt lat="33.841793" lon="-4.046391">
   <ele>1913.00</ele>
   <time>2014-03-30T12:49:49Z</time>
  </trkpt>
  <trkpt lat="33.841604" lon="-4.046568">
   <ele>1914.00</ele>
   <time>2014-03-30T12:49:52Z</time>
  </trkpt>
  <trkpt lat="33.841392" lon="-4.046686">
   <ele>1915.00</ele>
   <time>2014-03-30T12:49:55Z</time>
  </trkpt>
  <trkpt lat="33.841141" lon="-4.046614">
   <ele>1917.00</ele>
   <time>2014-03-30T12:49:58Z</time>
  </trkpt>
  <trkpt lat="33.840875" lon="-4.046520">
   <ele>1920.00</ele>
   <time>2014-03-30T12:50:01Z</time>
  </trkpt>
  <trkpt lat="33.840690" lon="-4.046486">
   <ele>1921.00</ele>
   <time>2014-03-30T12:50:03Z</time>
  </trkpt>
  <trkpt lat="33.840427" lon="-4.046458">
   <ele>1923.00</ele>
   <time>2014-03-30T12:50:06Z</time>
  </trkpt>
  <trkpt lat="33.840183" lon="-4.046473">
   <ele>1925.00</ele>
   <time>2014-03-30T12:50:09Z</time>
  </trkpt>
  <trkpt lat="33.839956" lon="-4.046567">
   <ele>1927.00</ele>
   <time>2014-03-30T12:50:12Z</time>
  </trkpt>
  <trkpt lat="33.839764" lon="-4.046740">
   <ele>1928.00</ele>
   <time>2014-03-30T12:50:15Z</time>
  </trkpt>
  <trkpt lat="33.839628" lon="-4.046912">
   <ele>1930.00</ele>
   <time>2014-03-30T12:50:18Z</time>
  </trkpt>
  <trkpt lat="33.839457" lon="-4.047014">
   <ele>1931.00</ele>
   <time>2014-03-30T12:50:22Z</time>
  </trkpt>
  <trkpt lat="33.839375" lon="-4.046823">
   <ele>1932.00</ele>
   <time>2014-03-30T12:50:25Z</time>
  </trkpt>
  <trkpt lat="33.839327" lon="-4.046277">
   <ele>1934.00</ele>
   <time>2014-03-30T12:50:30Z</time>
  </trkpt>
  <trkpt lat="33.839212" lon="-4.046002">
   <ele>1935.00</ele>
   <time>2014-03-30T12:50:33Z</time>
  </trkpt>
  <trkpt lat="33.839022" lon="-4.045893">
   <ele>1937.00</ele>
   <time>2014-03-30T12:50:36Z</time>
  </trkpt>
  <trkpt lat="33.838796" lon="-4.045909">
   <ele>1940.00</ele>
   <time>2014-03-30T12:50:40Z</time>
  </trkpt>
  <trkpt lat="33.838606" lon="-4.045963">
   <ele>1943.00</ele>
   <time>2014-03-30T12:50:43Z</time>
  </trkpt>
  <trkpt lat="33.838381" lon="-4.046003">
   <ele>1945.00</ele>
   <time>2014-03-30T12:50:46Z</time>
  </trkpt>
  <trkpt lat="33.838141" lon="-4.045986">
   <ele>1947.00</ele>
   <time>2014-03-30T12:50:49Z</time>
  </trkpt>
  <trkpt lat="33.837910" lon="-4.045956">
   <ele>1949.00</ele>
   <time>2014-03-30T12:50:52Z</time>
  </trkpt>
  <trkpt lat="33.837695" lon="-4.045983">
   <ele>1951.00</ele>
   <time>2014-03-30T12:50:55Z</time>
  </trkpt>
  <trkpt lat="33.837500" lon="-4.046053">
   <ele>1952.00</ele>
   <time>2014-03-30T12:50:58Z</time>
  </trkpt>
  <trkpt lat="33.837338" lon="-4.045972">
   <ele>1954.00</ele>
   <time>2014-03-30T12:51:01Z</time>
  </trkpt>
  <trkpt lat="33.837278" lon="-4.045720">
   <ele>1954.00</ele>
   <time>2014-03-30T12:51:04Z</time>
  </trkpt>
  <trkpt lat="33.837193" lon="-4.045464">
   <ele>1955.00</ele>
   <time>2014-03-30T12:51:07Z</time>
  </trkpt>
  <trkpt lat="33.837045" lon="-4.045322">
   <ele>1956.00</ele>
   <time>2014-03-30T12:51:10Z</time>
  </trkpt>
  <trkpt lat="33.836845" lon="-4.045411">
   <ele>1958.00</ele>
   <time>2014-03-30T12:51:14Z</time>
  </trkpt>
  <trkpt lat="33.836725" lon="-4.045639">
   <ele>1959.00</ele>
   <time>2014-03-30T12:51:17Z</time>
  </trkpt>
  <trkpt lat="33.836495" lon="-4.046260">
   <ele>1960.00</ele>
   <time>2014-03-30T12:51:23Z</time>
  </trkpt>
  <trkpt lat="33.836422" lon="-4.046505">
   <ele>1961.00</ele>
   <time>2014-03-30T12:51:25Z</time>
  </trkpt>
  <trkpt lat="33.836363" lon="-4.046759">
   <ele>1961.00</ele>
   <time>2014-03-30T12:51:27Z</time>
  </trkpt>
  <trkpt lat="33.836334" lon="-4.047010">
   <ele>1962.00</ele>
   <time>2014-03-30T12:51:29Z</time>
  </trkpt>
  <trkpt lat="33.836333" lon="-4.047231">
   <ele>1962.00</ele>
   <time>2014-03-30T12:51:31Z</time>
  </trkpt>
  <trkpt lat="33.836246" lon="-4.047452">
   <ele>1962.00</ele>
   <time>2014-03-30T12:51:35Z</time>
  </trkpt>
  <trkpt lat="33.836020" lon="-4.047438">
   <ele>1962.00</ele>
   <time>2014-03-30T12:51:39Z</time>
  </trkpt>
  <trkpt lat="33.835820" lon="-4.047494">
   <ele>1963.00</ele>
   <time>2014-03-30T12:51:42Z</time>
  </trkpt>
  <trkpt lat="33.835634" lon="-4.047512">
   <ele>1964.00</ele>
   <time>2014-03-30T12:51:45Z</time>
  </trkpt>
  <trkpt lat="33.835445" lon="-4.047435">
   <ele>1965.00</ele>
   <time>2014-03-30T12:51:48Z</time>
  </trkpt>
  <trkpt lat="33.835233" lon="-4.047467">
   <ele>1966.00</ele>
   <time>2014-03-30T12:51:51Z</time>
  </trkpt>
  <trkpt lat="33.835018" lon="-4.047581">
   <ele>1967.00</ele>
   <time>2014-03-30T12:51:54Z</time>
  </trkpt>
  <trkpt lat="33.834789" lon="-4.047681">
   <ele>1969.00</ele>
   <time>2014-03-30T12:51:57Z</time>
  </trkpt>
  <trkpt lat="33.834545" lon="-4.047734">
   <ele>1970.00</ele>
   <time>2014-03-30T12:52:00Z</time>
  </trkpt>
  <trkpt lat="33.834314" lon="-4.047750">
   <ele>1972.00</ele>
   <time>2014-03-30T12:52:03Z</time>
  </trkpt>
  <trkpt lat="33.834124" lon="-4.047645">
   <ele>1973.00</ele>
   <time>2014-03-30T12:52:06Z</time>
  </trkpt>
  <trkpt lat="33.833980" lon="-4.047401">
   <ele>1974.00</ele>
   <time>2014-03-30T12:52:09Z</time>
  </trkpt>
  <trkpt lat="33.833883" lon="-4.047188">
   <ele>1974.00</ele>
   <time>2014-03-30T12:52:11Z</time>
  </trkpt>
  <trkpt lat="33.833783" lon="-4.046973">
   <ele>1975.00</ele>
   <time>2014-03-30T12:52:13Z</time>
  </trkpt>
  <trkpt lat="33.833679" lon="-4.046792">
   <ele>1975.00</ele>
   <time>2014-03-30T12:52:15Z</time>
  </trkpt>
  <trkpt lat="33.833480" lon="-4.046598">
   <ele>1975.00</ele>
   <time>2014-03-30T12:52:18Z</time>
  </trkpt>
  <trkpt lat="33.833247" lon="-4.046458">
   <ele>1974.00</ele>
   <time>2014-03-30T12:52:21Z</time>
  </trkpt>
  <trkpt lat="33.833029" lon="-4.046355">
   <ele>1973.00</ele>
   <time>2014-03-30T12:52:24Z</time>
  </trkpt>
  <trkpt lat="33.832836" lon="-4.046347">
   <ele>1972.00</ele>
   <time>2014-03-30T12:52:27Z</time>
  </trkpt>
  <trkpt lat="33.832640" lon="-4.046466">
   <ele>1970.00</ele>
   <time>2014-03-30T12:52:30Z</time>
  </trkpt>
  <trkpt lat="33.832431" lon="-4.046682">
   <ele>1968.00</ele>
   <time>2014-03-30T12:52:33Z</time>
  </trkpt>
  <trkpt lat="33.832212" lon="-4.046914">
   <ele>1966.00</ele>
   <time>2014-03-30T12:52:36Z</time>
  </trkpt>
  <trkpt lat="33.832090" lon="-4.047088">
   <ele>1965.00</ele>
   <time>2014-03-30T12:52:38Z</time>
  </trkpt>
  <trkpt lat="33.832010" lon="-4.047286">
   <ele>1963.00</ele>
   <time>2014-03-30T12:52:40Z</time>
  </trkpt>
  <trkpt lat="33.832030" lon="-4.047582">
   <ele>1962.00</ele>
   <time>2014-03-30T12:52:43Z</time>
  </trkpt>
  <trkpt lat="33.832193" lon="-4.047798">
   <ele>1960.00</ele>
   <time>2014-03-30T12:52:46Z</time>
  </trkpt>
  <trkpt lat="33.832400" lon="-4.047973">
   <ele>1959.00</ele>
   <time>2014-03-30T12:52:49Z</time>
  </trkpt>
  <trkpt lat="33.832598" lon="-4.048128">
   <ele>1958.00</ele>
   <time>2014-03-30T12:52:52Z</time>
  </trkpt>
  <trkpt lat="33.832725" lon="-4.048358">
   <ele>1958.00</ele>
   <time>2014-03-30T12:52:55Z</time>
  </trkpt>
  <trkpt lat="33.832789" lon="-4.048608">
   <ele>1958.00</ele>
   <time>2014-03-30T12:52:58Z</time>
  </trkpt>
  <trkpt lat="33.832704" lon="-4.048823">
   <ele>1958.00</ele>
   <time>2014-03-30T12:53:02Z</time>
  </trkpt>
  <trkpt lat="33.832490" lon="-4.048842">
   <ele>1959.00</ele>
   <time>2014-03-30T12:53:06Z</time>
  </trkpt>
  <trkpt lat="33.832202" lon="-4.048853">
   <ele>1960.00</ele>
   <time>2014-03-30T12:53:10Z</time>
  </trkpt>
  <trkpt lat="33.831957" lon="-4.048918">
   <ele>1962.00</ele>
   <time>2014-03-30T12:53:13Z</time>
  </trkpt>
  <trkpt lat="33.831720" lon="-4.048970">
   <ele>1963.00</ele>
   <time>2014-03-30T12:53:16Z</time>
  </trkpt>
  <trkpt lat="33.831260" lon="-4.049025">
   <ele>1966.00</ele>
   <time>2014-03-30T12:53:22Z</time>
  </trkpt>
  <trkpt lat="33.831042" lon="-4.049116">
   <ele>1968.00</ele>
   <time>2014-03-30T12:53:25Z</time>
  </trkpt>
  <trkpt lat="33.830851" lon="-4.049304">
   <ele>1969.00</ele>
   <time>2014-03-30T12:53:28Z</time>
  </trkpt>
  <trkpt lat="33.830733" lon="-4.049472">
   <ele>1970.00</ele>
   <time>2014-03-30T12:53:30Z</time>
  </trkpt>
  <trkpt lat="33.830373" lon="-4.050012">
   <ele>1974.00</ele>
   <time>2014-03-30T12:53:36Z</time>
  </trkpt>
  <trkpt lat="33.830255" lon="-4.050277">
   <ele>1976.00</ele>
   <time>2014-03-30T12:53:39Z</time>
  </trkpt>
  <trkpt lat="33.830210" lon="-4.050565">
   <ele>1977.00</ele>
   <time>2014-03-30T12:53:42Z</time>
  </trkpt>
  <trkpt lat="33.830213" lon="-4.050886">
   <ele>1977.00</ele>
   <time>2014-03-30T12:53:45Z</time>
  </trkpt>
  <trkpt lat="33.830245" lon="-4.051189">
   <ele>1977.00</ele>
   <time>2014-03-30T12:53:48Z</time>
  </trkpt>
  <trkpt lat="33.830323" lon="-4.051432">
   <ele>1977.00</ele>
   <time>2014-03-30T12:53:51Z</time>
  </trkpt>
  <trkpt lat="33.830404" lon="-4.051641">
   <ele>1978.00</ele>
   <time>2014-03-30T12:53:54Z</time>
  </trkpt>
  <trkpt lat="33.830403" lon="-4.051860">
   <ele>1977.00</ele>
   <time>2014-03-30T12:53:57Z</time>
  </trkpt>
  <trkpt lat="33.830317" lon="-4.052087">
   <ele>1977.00</ele>
   <time>2014-03-30T12:54:00Z</time>
  </trkpt>
  <trkpt lat="33.830204" lon="-4.052291">
   <ele>1977.00</ele>
   <time>2014-03-30T12:54:03Z</time>
  </trkpt>
  <trkpt lat="33.829993" lon="-4.052344">
   <ele>1977.00</ele>
   <time>2014-03-30T12:54:06Z</time>
  </trkpt>
  <trkpt lat="33.829737" lon="-4.052345">
   <ele>1978.00</ele>
   <time>2014-03-30T12:54:09Z</time>
  </trkpt>
  <trkpt lat="33.829521" lon="-4.052426">
   <ele>1978.00</ele>
   <time>2014-03-30T12:54:12Z</time>
  </trkpt>
  <trkpt lat="33.829398" lon="-4.052637">
   <ele>1978.00</ele>
   <time>2014-03-30T12:54:15Z</time>
  </trkpt>
  <trkpt lat="33.829327" lon="-4.052928">
   <ele>1979.00</ele>
   <time>2014-03-30T12:54:18Z</time>
  </trkpt>
  <trkpt lat="33.829240" lon="-4.053311">
   <ele>1980.00</ele>
   <time>2014-03-30T12:54:22Z</time>
  </trkpt>
  <trkpt lat="33.829102" lon="-4.053435">
   <ele>1980.00</ele>
   <time>2014-03-30T12:54:25Z</time>
  </trkpt>
  <trkpt lat="33.828886" lon="-4.053399">
   <ele>1981.00</ele>
   <time>2014-03-30T12:54:28Z</time>
  </trkpt>
  <trkpt lat="33.828645" lon="-4.053351">
   <ele>1982.00</ele>
   <time>2014-03-30T12:54:31Z</time>
  </trkpt>
  <trkpt lat="33.828454" lon="-4.053422">
   <ele>1982.00</ele>
   <time>2014-03-30T12:54:34Z</time>
  </trkpt>
  <trkpt lat="33.828343" lon="-4.053650">
   <ele>1983.00</ele>
   <time>2014-03-30T12:54:37Z</time>
  </trkpt>
  <trkpt lat="33.828256" lon="-4.053955">
   <ele>1982.00</ele>
   <time>2014-03-30T12:54:40Z</time>
  </trkpt>
  <trkpt lat="33.828157" lon="-4.054351">
   <ele>1983.00</ele>
   <time>2014-03-30T12:54:44Z</time>
  </trkpt>
  <trkpt lat="33.828039" lon="-4.054546">
   <ele>1983.00</ele>
   <time>2014-03-30T12:54:47Z</time>
  </trkpt>
  <trkpt lat="33.827843" lon="-4.054577">
   <ele>1983.00</ele>
   <time>2014-03-30T12:54:50Z</time>
  </trkpt>
  <trkpt lat="33.827636" lon="-4.054478">
   <ele>1983.00</ele>
   <time>2014-03-30T12:54:53Z</time>
  </trkpt>
  <trkpt lat="33.827459" lon="-4.054361">
   <ele>1983.00</ele>
   <time>2014-03-30T12:54:56Z</time>
  </trkpt>
  <trkpt lat="33.827301" lon="-4.054249">
   <ele>1984.00</ele>
   <time>2014-03-30T12:54:59Z</time>
  </trkpt>
  <trkpt lat="33.827109" lon="-4.054181">
   <ele>1984.00</ele>
   <time>2014-03-30T12:55:03Z</time>
  </trkpt>
  <trkpt lat="33.826932" lon="-4.054327">
   <ele>1984.00</ele>
   <time>2014-03-30T12:55:07Z</time>
  </trkpt>
  <trkpt lat="33.826840" lon="-4.054583">
   <ele>1983.00</ele>
   <time>2014-03-30T12:55:10Z</time>
  </trkpt>
  <trkpt lat="33.826770" lon="-4.054885">
   <ele>1982.00</ele>
   <time>2014-03-30T12:55:13Z</time>
  </trkpt>
  <trkpt lat="33.826730" lon="-4.055117">
   <ele>1982.00</ele>
   <time>2014-03-30T12:55:15Z</time>
  </trkpt>
  <trkpt lat="33.826667" lon="-4.055480">
   <ele>1981.00</ele>
   <time>2014-03-30T12:55:18Z</time>
  </trkpt>
  <trkpt lat="33.826612" lon="-4.055706">
   <ele>1981.00</ele>
   <time>2014-03-30T12:55:20Z</time>
  </trkpt>
  <trkpt lat="33.826527" lon="-4.055900">
   <ele>1981.00</ele>
   <time>2014-03-30T12:55:22Z</time>
  </trkpt>
  <trkpt lat="33.826338" lon="-4.056077">
   <ele>1982.00</ele>
   <time>2014-03-30T12:55:25Z</time>
  </trkpt>
  <trkpt lat="33.826133" lon="-4.056018">
   <ele>1983.00</ele>
   <time>2014-03-30T12:55:28Z</time>
  </trkpt>
  <trkpt lat="33.826023" lon="-4.055750">
   <ele>1982.00</ele>
   <time>2014-03-30T12:55:31Z</time>
  </trkpt>
  <trkpt lat="33.825911" lon="-4.055356">
   <ele>1982.00</ele>
   <time>2014-03-30T12:55:35Z</time>
  </trkpt>
  <trkpt lat="33.825783" lon="-4.055144">
   <ele>1983.00</ele>
   <time>2014-03-30T12:55:38Z</time>
  </trkpt>
  <trkpt lat="33.825574" lon="-4.055070">
   <ele>1983.00</ele>
   <time>2014-03-30T12:55:42Z</time>
  </trkpt>
  <trkpt lat="33.825360" lon="-4.055155">
   <ele>1983.00</ele>
   <time>2014-03-30T12:55:46Z</time>
  </trkpt>
  <trkpt lat="33.825275" lon="-4.055408">
   <ele>1981.00</ele>
   <time>2014-03-30T12:55:50Z</time>
  </trkpt>
  <trkpt lat="33.825323" lon="-4.055656">
   <ele>1980.00</ele>
   <time>2014-03-30T12:55:53Z</time>
  </trkpt>
  <trkpt lat="33.825409" lon="-4.055896">
   <ele>1978.00</ele>
   <time>2014-03-30T12:55:56Z</time>
  </trkpt>
  <trkpt lat="33.825541" lon="-4.056100">
   <ele>1977.00</ele>
   <time>2014-03-30T12:55:59Z</time>
  </trkpt>
  <trkpt lat="33.825706" lon="-4.056276">
   <ele>1975.00</ele>
   <time>2014-03-30T12:56:02Z</time>
  </trkpt>
  <trkpt lat="33.825819" lon="-4.056537">
   <ele>1974.00</ele>
   <time>2014-03-30T12:56:05Z</time>
  </trkpt>
  <trkpt lat="33.825855" lon="-4.056753">
   <ele>1972.00</ele>
   <time>2014-03-30T12:56:07Z</time>
  </trkpt>
  <trkpt lat="33.825927" lon="-4.057320">
   <ele>1967.00</ele>
   <time>2014-03-30T12:56:12Z</time>
  </trkpt>
  <trkpt lat="33.825948" lon="-4.057646">
   <ele>1964.00</ele>
   <time>2014-03-30T12:56:15Z</time>
  </trkpt>
  <trkpt lat="33.825853" lon="-4.057888">
   <ele>1962.00</ele>
   <time>2014-03-30T12:56:18Z</time>
  </trkpt>
  <trkpt lat="33.825647" lon="-4.058057">
   <ele>1959.00</ele>
   <time>2014-03-30T12:56:21Z</time>
  </trkpt>
  <trkpt lat="33.825446" lon="-4.058250">
   <ele>1956.00</ele>
   <time>2014-03-30T12:56:24Z</time>
  </trkpt>
  <trkpt lat="33.825304" lon="-4.058507">
   <ele>1953.00</ele>
   <time>2014-03-30T12:56:27Z</time>
  </trkpt>
  <trkpt lat="33.825221" lon="-4.058808">
   <ele>1950.00</ele>
   <time>2014-03-30T12:56:30Z</time>
  </trkpt>
  <trkpt lat="33.825146" lon="-4.059107">
   <ele>1948.00</ele>
   <time>2014-03-30T12:56:33Z</time>
  </trkpt>
  <trkpt lat="33.825009" lon="-4.059341">
   <ele>1945.00</ele>
   <time>2014-03-30T12:56:36Z</time>
  </trkpt>
  <trkpt lat="33.824808" lon="-4.059434">
   <ele>1943.00</ele>
   <time>2014-03-30T12:56:39Z</time>
  </trkpt>
  <trkpt lat="33.824606" lon="-4.059423">
   <ele>1940.00</ele>
   <time>2014-03-30T12:56:42Z</time>
  </trkpt>
  <trkpt lat="33.824421" lon="-4.059393">
   <ele>1939.00</ele>
   <time>2014-03-30T12:56:45Z</time>
  </trkpt>
  <trkpt lat="33.824197" lon="-4.059328">
   <ele>1936.00</ele>
   <time>2014-03-30T12:56:49Z</time>
  </trkpt>
  <trkpt lat="33.824025" lon="-4.059257">
   <ele>1934.00</ele>
   <time>2014-03-30T12:56:52Z</time>
  </trkpt>
  <trkpt lat="33.823540" lon="-4.059063">
   <ele>1929.00</ele>
   <time>2014-03-30T12:56:59Z</time>
  </trkpt>
  <trkpt lat="33.823306" lon="-4.059019">
   <ele>1927.00</ele>
   <time>2014-03-30T12:57:02Z</time>
  </trkpt>
  <trkpt lat="33.823064" lon="-4.058951">
   <ele>1925.00</ele>
   <time>2014-03-30T12:57:05Z</time>
  </trkpt>
  <trkpt lat="33.822855" lon="-4.058780">
   <ele>1923.00</ele>
   <time>2014-03-30T12:57:08Z</time>
  </trkpt>
  <trkpt lat="33.822681" lon="-4.058613">
   <ele>1922.00</ele>
   <time>2014-03-30T12:57:11Z</time>
  </trkpt>
  <trkpt lat="33.822491" lon="-4.058597">
   <ele>1918.00</ele>
   <time>2014-03-30T12:57:14Z</time>
  </trkpt>
  <trkpt lat="33.822304" lon="-4.058679">
   <ele>1916.00</ele>
   <time>2014-03-30T12:57:17Z</time>
  </trkpt>
  <trkpt lat="33.822107" lon="-4.058664">
   <ele>1914.00</ele>
   <time>2014-03-30T12:57:20Z</time>
  </trkpt>
  <trkpt lat="33.821913" lon="-4.058560">
   <ele>1912.00</ele>
   <time>2014-03-30T12:57:23Z</time>
  </trkpt>
  <trkpt lat="33.821720" lon="-4.058411">
   <ele>1911.00</ele>
   <time>2014-03-30T12:57:26Z</time>
  </trkpt>
  <trkpt lat="33.821490" lon="-4.058279">
   <ele>1909.00</ele>
   <time>2014-03-30T12:57:29Z</time>
  </trkpt>
  <trkpt lat="33.821312" lon="-4.058223">
   <ele>1907.00</ele>
   <time>2014-03-30T12:57:31Z</time>
  </trkpt>
  <trkpt lat="33.821143" lon="-4.058133">
   <ele>1905.00</ele>
   <time>2014-03-30T12:57:33Z</time>
  </trkpt>
  <trkpt lat="33.820945" lon="-4.057958">
   <ele>1904.00</ele>
   <time>2014-03-30T12:57:36Z</time>
  </trkpt>
  <trkpt lat="33.820711" lon="-4.057933">
   <ele>1899.00</ele>
   <time>2014-03-30T12:57:39Z</time>
  </trkpt>
  <trkpt lat="33.820455" lon="-4.057949">
   <ele>1896.00</ele>
   <time>2014-03-30T12:57:42Z</time>
  </trkpt>
  <trkpt lat="33.820188" lon="-4.057919">
   <ele>1893.00</ele>
   <time>2014-03-30T12:57:45Z</time>
  </trkpt>
  <trkpt lat="33.820004" lon="-4.057850">
   <ele>1891.00</ele>
   <time>2014-03-30T12:57:47Z</time>
  </trkpt>
  <trkpt lat="33.819810" lon="-4.057777">
   <ele>1889.00</ele>
   <time>2014-03-30T12:57:49Z</time>
  </trkpt>
  <trkpt lat="33.819599" lon="-4.057739">
   <ele>1888.00</ele>
   <time>2014-03-30T12:57:51Z</time>
  </trkpt>
  <trkpt lat="33.819386" lon="-4.057739">
   <ele>1887.00</ele>
   <time>2014-03-30T12:57:53Z</time>
  </trkpt>
  <trkpt lat="33.819061" lon="-4.057756">
   <ele>1887.00</ele>
   <time>2014-03-30T12:57:56Z</time>
  </trkpt>
  <trkpt lat="33.818839" lon="-4.057696">
   <ele>1887.00</ele>
   <time>2014-03-30T12:57:58Z</time>
  </trkpt>
  <trkpt lat="33.818514" lon="-4.057595">
   <ele>1888.00</ele>
   <time>2014-03-30T12:58:01Z</time>
  </trkpt>
  <trkpt lat="33.818302" lon="-4.057593">
   <ele>1889.00</ele>
   <time>2014-03-30T12:58:03Z</time>
  </trkpt>
  <trkpt lat="33.818088" lon="-4.057587">
   <ele>1890.00</ele>
   <time>2014-03-30T12:58:05Z</time>
  </trkpt>
  <trkpt lat="33.817889" lon="-4.057512">
   <ele>1892.00</ele>
   <time>2014-03-30T12:58:07Z</time>
  </trkpt>
  <trkpt lat="33.817717" lon="-4.057365">
   <ele>1894.00</ele>
   <time>2014-03-30T12:58:09Z</time>
  </trkpt>
  <trkpt lat="33.817558" lon="-4.057214">
   <ele>1897.00</ele>
   <time>2014-03-30T12:58:11Z</time>
  </trkpt>
  <trkpt lat="33.817389" lon="-4.057116">
   <ele>1900.00</ele>
   <time>2014-03-30T12:58:13Z</time>
  </trkpt>
  <trkpt lat="33.817146" lon="-4.057082">
   <ele>1901.00</ele>
   <time>2014-03-30T12:58:16Z</time>
  </trkpt>
  <trkpt lat="33.816956" lon="-4.057236">
   <ele>1901.00</ele>
   <time>2014-03-30T12:58:19Z</time>
  </trkpt>
  <trkpt lat="33.816961" lon="-4.057519">
   <ele>1901.00</ele>
   <time>2014-03-30T12:58:22Z</time>
  </trkpt>
  <trkpt lat="33.817162" lon="-4.057554">
   <ele>1901.00</ele>
   <time>2014-03-30T12:58:25Z</time>
  </trkpt>
  <trkpt lat="33.817354" lon="-4.057467">
   <ele>1904.00</ele>
   <time>2014-03-30T12:58:28Z</time>
  </trkpt>
  <trkpt lat="33.817521" lon="-4.057567">
   <ele>1907.00</ele>
   <time>2014-03-30T12:58:31Z</time>
  </trkpt>
  <trkpt lat="33.817652" lon="-4.057804">
   <ele>1909.00</ele>
   <time>2014-03-30T12:58:34Z</time>
  </trkpt>
  <trkpt lat="33.817730" lon="-4.058014">
   <ele>1911.00</ele>
   <time>2014-03-30T12:58:36Z</time>
  </trkpt>
  <trkpt lat="33.817798" lon="-4.058254">
   <ele>1913.00</ele>
   <time>2014-03-30T12:58:38Z</time>
  </trkpt>
  <trkpt lat="33.817905" lon="-4.058626">
   <ele>1915.00</ele>
   <time>2014-03-30T12:58:41Z</time>
  </trkpt>
  <trkpt lat="33.818012" lon="-4.058997">
   <ele>1917.00</ele>
   <time>2014-03-30T12:58:44Z</time>
  </trkpt>
  <trkpt lat="33.818054" lon="-4.059245">
   <ele>1918.00</ele>
   <time>2014-03-30T12:58:46Z</time>
  </trkpt>
  <trkpt lat="33.818092" lon="-4.059614">
   <ele>1919.00</ele>
   <time>2014-03-30T12:58:49Z</time>
  </trkpt>
  <trkpt lat="33.818098" lon="-4.059836">
   <ele>1919.00</ele>
   <time>2014-03-30T12:58:51Z</time>
  </trkpt>
  <trkpt lat="33.817945" lon="-4.060049">
   <ele>1919.00</ele>
   <time>2014-03-30T12:58:54Z</time>
  </trkpt>
  <trkpt lat="33.817730" lon="-4.060134">
   <ele>1919.00</ele>
   <time>2014-03-30T12:58:57Z</time>
  </trkpt>
  <trkpt lat="33.817635" lon="-4.060375">
   <ele>1918.00</ele>
   <time>2014-03-30T12:59:00Z</time>
  </trkpt>
  <trkpt lat="33.817636" lon="-4.060601">
   <ele>1918.00</ele>
   <time>2014-03-30T12:59:02Z</time>
  </trkpt>
  <trkpt lat="33.817639" lon="-4.060839">
   <ele>1917.00</ele>
   <time>2014-03-30T12:59:04Z</time>
  </trkpt>
  <trkpt lat="33.817628" lon="-4.061078">
   <ele>1917.00</ele>
   <time>2014-03-30T12:59:06Z</time>
  </trkpt>
  <trkpt lat="33.817598" lon="-4.061324">
   <ele>1917.00</ele>
   <time>2014-03-30T12:59:08Z</time>
  </trkpt>
  <trkpt lat="33.817540" lon="-4.061699">
   <ele>1917.00</ele>
   <time>2014-03-30T12:59:11Z</time>
  </trkpt>
  <trkpt lat="33.817470" lon="-4.061925">
   <ele>1917.00</ele>
   <time>2014-03-30T12:59:13Z</time>
  </trkpt>
  <trkpt lat="33.817349" lon="-4.062129">
   <ele>1917.00</ele>
   <time>2014-03-30T12:59:15Z</time>
  </trkpt>
  <trkpt lat="33.817208" lon="-4.062307">
   <ele>1917.00</ele>
   <time>2014-03-30T12:59:17Z</time>
  </trkpt>
  <trkpt lat="33.816994" lon="-4.062443">
   <ele>1917.00</ele>
   <time>2014-03-30T12:59:20Z</time>
  </trkpt>
  <trkpt lat="33.816804" lon="-4.062280">
   <ele>1917.00</ele>
   <time>2014-03-30T12:59:23Z</time>
  </trkpt>
  <trkpt lat="33.816723" lon="-4.062060">
   <ele>1917.00</ele>
   <time>2014-03-30T12:59:25Z</time>
  </trkpt>
  <trkpt lat="33.816370" lon="-4.061004">
   <ele>1916.00</ele>
   <time>2014-03-30T12:59:33Z</time>
  </trkpt>
  <trkpt lat="33.815981" lon="-4.060071">
   <ele>1915.00</ele>
   <time>2014-03-30T12:59:40Z</time>
  </trkpt>
  <trkpt lat="33.815865" lon="-4.059845">
   <ele>1915.00</ele>
   <time>2014-03-30T12:59:42Z</time>
  </trkpt>
  <trkpt lat="33.815721" lon="-4.059687">
   <ele>1916.00</ele>
   <time>2014-03-30T12:59:44Z</time>
  </trkpt>
  <trkpt lat="33.815495" lon="-4.059512">
   <ele>1917.00</ele>
   <time>2014-03-30T12:59:47Z</time>
  </trkpt>
  <trkpt lat="33.815286" lon="-4.059484">
   <ele>1914.00</ele>
   <time>2014-03-30T12:59:50Z</time>
  </trkpt>
  <trkpt lat="33.815153" lon="-4.059699">
   <ele>1912.00</ele>
   <time>2014-03-30T12:59:53Z</time>
  </trkpt>
  <trkpt lat="33.815109" lon="-4.059910">
   <ele>1912.00</ele>
   <time>2014-03-30T12:59:55Z</time>
  </trkpt>
  <trkpt lat="33.815082" lon="-4.060153">
   <ele>1911.00</ele>
   <time>2014-03-30T12:59:57Z</time>
  </trkpt>
  <trkpt lat="33.815046" lon="-4.060418">
   <ele>1912.00</ele>
   <time>2014-03-30T12:59:59Z</time>
  </trkpt>
  <trkpt lat="33.814997" lon="-4.060693">
   <ele>1914.00</ele>
   <time>2014-03-30T13:00:01Z</time>
  </trkpt>
  <trkpt lat="33.814925" lon="-4.060962">
   <ele>1914.00</ele>
   <time>2014-03-30T13:00:03Z</time>
  </trkpt>
  <trkpt lat="33.814770" lon="-4.061472">
   <ele>1915.00</ele>
   <time>2014-03-30T13:00:07Z</time>
  </trkpt>
  <trkpt lat="33.814722" lon="-4.061682">
   <ele>1915.00</ele>
   <time>2014-03-30T13:00:09Z</time>
  </trkpt>
  <trkpt lat="33.814695" lon="-4.061916">
   <ele>1914.00</ele>
   <time>2014-03-30T13:00:12Z</time>
  </trkpt>
  <trkpt lat="33.814706" lon="-4.062148">
   <ele>1913.00</ele>
   <time>2014-03-30T13:00:15Z</time>
  </trkpt>
  <trkpt lat="33.814767" lon="-4.062434">
   <ele>1911.00</ele>
   <time>2014-03-30T13:00:18Z</time>
  </trkpt>
  <trkpt lat="33.814844" lon="-4.062743">
   <ele>1909.00</ele>
   <time>2014-03-30T13:00:21Z</time>
  </trkpt>
  <trkpt lat="33.814932" lon="-4.063050">
   <ele>1907.00</ele>
   <time>2014-03-30T13:00:24Z</time>
  </trkpt>
  <trkpt lat="33.815034" lon="-4.063310">
   <ele>1905.00</ele>
   <time>2014-03-30T13:00:27Z</time>
  </trkpt>
  <trkpt lat="33.815156" lon="-4.063503">
   <ele>1904.00</ele>
   <time>2014-03-30T13:00:30Z</time>
  </trkpt>
  <trkpt lat="33.815163" lon="-4.063713">
   <ele>1902.00</ele>
   <time>2014-03-30T13:00:34Z</time>
  </trkpt>
  <trkpt lat="33.814971" lon="-4.063751">
   <ele>1901.00</ele>
   <time>2014-03-30T13:00:37Z</time>
  </trkpt>
  <trkpt lat="33.814283" lon="-4.063730">
   <ele>1897.00</ele>
   <time>2014-03-30T13:00:44Z</time>
  </trkpt>
  <trkpt lat="33.814071" lon="-4.063713">
   <ele>1896.00</ele>
   <time>2014-03-30T13:00:46Z</time>
  </trkpt>
  <trkpt lat="33.813849" lon="-4.063680">
   <ele>1893.00</ele>
   <time>2014-03-30T13:00:48Z</time>
  </trkpt>
  <trkpt lat="33.813626" lon="-4.063614">
   <ele>1891.00</ele>
   <time>2014-03-30T13:00:50Z</time>
  </trkpt>
  <trkpt lat="33.813429" lon="-4.063509">
   <ele>1891.00</ele>
   <time>2014-03-30T13:00:52Z</time>
  </trkpt>
  <trkpt lat="33.813265" lon="-4.063369">
   <ele>1889.00</ele>
   <time>2014-03-30T13:00:54Z</time>
  </trkpt>
  <trkpt lat="33.813046" lon="-4.063214">
   <ele>1887.00</ele>
   <time>2014-03-30T13:00:57Z</time>
  </trkpt>
  <trkpt lat="33.812816" lon="-4.063286">
   <ele>1882.00</ele>
   <time>2014-03-30T13:01:00Z</time>
  </trkpt>
  <trkpt lat="33.812655" lon="-4.063392">
   <ele>1879.00</ele>
   <time>2014-03-30T13:01:02Z</time>
  </trkpt>
  <trkpt lat="33.812404" lon="-4.063554">
   <ele>1875.00</ele>
   <time>2014-03-30T13:01:05Z</time>
  </trkpt>
  <trkpt lat="33.812247" lon="-4.063703">
   <ele>1872.00</ele>
   <time>2014-03-30T13:01:07Z</time>
  </trkpt>
  <trkpt lat="33.812118" lon="-4.063890">
   <ele>1869.00</ele>
   <time>2014-03-30T13:01:09Z</time>
  </trkpt>
  <trkpt lat="33.812036" lon="-4.064103">
   <ele>1866.00</ele>
   <time>2014-03-30T13:01:11Z</time>
  </trkpt>
  <trkpt lat="33.812018" lon="-4.064338">
   <ele>1863.00</ele>
   <time>2014-03-30T13:01:13Z</time>
  </trkpt>
  <trkpt lat="33.812059" lon="-4.064580">
   <ele>1860.00</ele>
   <time>2014-03-30T13:01:15Z</time>
  </trkpt>
  <trkpt lat="33.812108" lon="-4.064803">
   <ele>1858.00</ele>
   <time>2014-03-30T13:01:17Z</time>
  </trkpt>
  <trkpt lat="33.812072" lon="-4.065079">
   <ele>1855.00</ele>
   <time>2014-03-30T13:01:20Z</time>
  </trkpt>
  <trkpt lat="33.811842" lon="-4.065206">
   <ele>1853.00</ele>
   <time>2014-03-30T13:01:23Z</time>
  </trkpt>
  <trkpt lat="33.811637" lon="-4.065219">
   <ele>1854.00</ele>
   <time>2014-03-30T13:01:25Z</time>
  </trkpt>
  <trkpt lat="33.811429" lon="-4.065244">
   <ele>1854.00</ele>
   <time>2014-03-30T13:01:27Z</time>
  </trkpt>
  <trkpt lat="33.811213" lon="-4.065308">
   <ele>1851.00</ele>
   <time>2014-03-30T13:01:29Z</time>
  </trkpt>
  <trkpt lat="33.810919" lon="-4.065402">
   <ele>1847.00</ele>
   <time>2014-03-30T13:01:32Z</time>
  </trkpt>
  <trkpt lat="33.810770" lon="-4.065591">
   <ele>1843.00</ele>
   <time>2014-03-30T13:01:35Z</time>
  </trkpt>
  <trkpt lat="33.810718" lon="-4.065826">
   <ele>1840.00</ele>
   <time>2014-03-30T13:01:38Z</time>
  </trkpt>
  <trkpt lat="33.810536" lon="-4.065886">
   <ele>1837.00</ele>
   <time>2014-03-30T13:01:41Z</time>
  </trkpt>
  <trkpt lat="33.810334" lon="-4.065966">
   <ele>1835.00</ele>
   <time>2014-03-30T13:01:44Z</time>
  </trkpt>
  <trkpt lat="33.810251" lon="-4.066239">
   <ele>1831.00</ele>
   <time>2014-03-30T13:01:47Z</time>
  </trkpt>
  <trkpt lat="33.810221" lon="-4.066457">
   <ele>1829.00</ele>
   <time>2014-03-30T13:01:49Z</time>
  </trkpt>
  <trkpt lat="33.810204" lon="-4.066684">
   <ele>1827.00</ele>
   <time>2014-03-30T13:01:51Z</time>
  </trkpt>
  <trkpt lat="33.810208" lon="-4.066919">
   <ele>1826.00</ele>
   <time>2014-03-30T13:01:53Z</time>
  </trkpt>
  <trkpt lat="33.810247" lon="-4.067155">
   <ele>1824.00</ele>
   <time>2014-03-30T13:01:55Z</time>
  </trkpt>
  <trkpt lat="33.810307" lon="-4.067385">
   <ele>1822.00</ele>
   <time>2014-03-30T13:01:57Z</time>
  </trkpt>
  <trkpt lat="33.810381" lon="-4.067595">
   <ele>1820.00</ele>
   <time>2014-03-30T13:01:59Z</time>
  </trkpt>
  <trkpt lat="33.810518" lon="-4.067802">
   <ele>1818.00</ele>
   <time>2014-03-30T13:02:02Z</time>
  </trkpt>
  <trkpt lat="33.810600" lon="-4.067902">
   <ele>1816.00</ele>
   <time>2014-03-30T13:02:18Z</time>
  </trkpt>
  <trkpt lat="33.810600" lon="-4.067896">
   <ele>1818.00</ele>
   <time>2014-03-30T13:02:34Z</time>
  </trkpt>
  <trkpt lat="33.810600" lon="-4.067895">
   <ele>1818.00</ele>
   <time>2014-03-30T13:02:49Z</time>
  </trkpt>
  <trkpt lat="33.810603" lon="-4.067890">
   <ele>1818.00</ele>
   <time>2014-03-30T13:03:04Z</time>
  </trkpt>
  <trkpt lat="33.810607" lon="-4.067883">
   <ele>1817.00</ele>
   <time>2014-03-30T13:03:19Z</time>
  </trkpt>
  <trkpt lat="33.810599" lon="-4.067884">
   <ele>1816.00</ele>
   <time>2014-03-30T13:03:35Z</time>
  </trkpt>
  <trkpt lat="33.810596" lon="-4.067884">
   <ele>1816.00</ele>
   <time>2014-03-30T13:03:50Z</time>
  </trkpt>
  <trkpt lat="33.810594" lon="-4.067887">
   <ele>1817.00</ele>
   <time>2014-03-30T13:04:05Z</time>
  </trkpt>
  <trkpt lat="33.810602" lon="-4.067959">
   <ele>1820.00</ele>
   <time>2014-03-30T13:04:21Z</time>
  </trkpt>
  <trkpt lat="33.810422" lon="-4.068098">
   <ele>1822.00</ele>
   <time>2014-03-30T13:04:26Z</time>
  </trkpt>
  <trkpt lat="33.810241" lon="-4.068032">
   <ele>1822.00</ele>
   <time>2014-03-30T13:04:29Z</time>
  </trkpt>
  <trkpt lat="33.810057" lon="-4.067877">
   <ele>1821.00</ele>
   <time>2014-03-30T13:04:32Z</time>
  </trkpt>
  <trkpt lat="33.809814" lon="-4.067637">
   <ele>1823.00</ele>
   <time>2014-03-30T13:04:36Z</time>
  </trkpt>
  <trkpt lat="33.809589" lon="-4.067524">
   <ele>1823.00</ele>
   <time>2014-03-30T13:04:39Z</time>
  </trkpt>
  <trkpt lat="33.809333" lon="-4.067451">
   <ele>1821.00</ele>
   <time>2014-03-30T13:04:42Z</time>
  </trkpt>
  <trkpt lat="33.809138" lon="-4.067450">
   <ele>1819.00</ele>
   <time>2014-03-30T13:04:44Z</time>
  </trkpt>
  <trkpt lat="33.808934" lon="-4.067467">
   <ele>1816.00</ele>
   <time>2014-03-30T13:04:46Z</time>
  </trkpt>
  <trkpt lat="33.808741" lon="-4.067505">
   <ele>1814.00</ele>
   <time>2014-03-30T13:04:48Z</time>
  </trkpt>
  <trkpt lat="33.808445" lon="-4.067617">
   <ele>1811.00</ele>
   <time>2014-03-30T13:04:52Z</time>
  </trkpt>
  <trkpt lat="33.808282" lon="-4.067464">
   <ele>1808.00</ele>
   <time>2014-03-30T13:04:55Z</time>
  </trkpt>
  <trkpt lat="33.808044" lon="-4.067122">
   <ele>1808.00</ele>
   <time>2014-03-30T13:04:59Z</time>
  </trkpt>
  <trkpt lat="33.807927" lon="-4.066926">
   <ele>1808.00</ele>
   <time>2014-03-30T13:05:01Z</time>
  </trkpt>
  <trkpt lat="33.807802" lon="-4.066706">
   <ele>1806.00</ele>
   <time>2014-03-30T13:05:03Z</time>
  </trkpt>
  <trkpt lat="33.807694" lon="-4.066462">
   <ele>1805.00</ele>
   <time>2014-03-30T13:05:05Z</time>
  </trkpt>
  <trkpt lat="33.807195" lon="-4.065182">
   <ele>1801.00</ele>
   <time>2014-03-30T13:05:15Z</time>
  </trkpt>
  <trkpt lat="33.807025" lon="-4.064952">
   <ele>1804.00</ele>
   <time>2014-03-30T13:05:18Z</time>
  </trkpt>
  <trkpt lat="33.806809" lon="-4.064799">
   <ele>1806.00</ele>
   <time>2014-03-30T13:05:21Z</time>
  </trkpt>
  <trkpt lat="33.806605" lon="-4.064850">
   <ele>1805.00</ele>
   <time>2014-03-30T13:05:24Z</time>
  </trkpt>
  <trkpt lat="33.806530" lon="-4.065073">
   <ele>1805.00</ele>
   <time>2014-03-30T13:05:27Z</time>
  </trkpt>
  <trkpt lat="33.806488" lon="-4.065395">
   <ele>1806.00</ele>
   <time>2014-03-30T13:05:30Z</time>
  </trkpt>
  <trkpt lat="33.806478" lon="-4.065636">
   <ele>1807.00</ele>
   <time>2014-03-30T13:05:32Z</time>
  </trkpt>
  <trkpt lat="33.806481" lon="-4.065891">
   <ele>1808.00</ele>
   <time>2014-03-30T13:05:34Z</time>
  </trkpt>
  <trkpt lat="33.806485" lon="-4.066172">
   <ele>1809.00</ele>
   <time>2014-03-30T13:05:36Z</time>
  </trkpt>
  <trkpt lat="33.806449" lon="-4.066445">
   <ele>1810.00</ele>
   <time>2014-03-30T13:05:38Z</time>
  </trkpt>
  <trkpt lat="33.806344" lon="-4.066696">
   <ele>1812.00</ele>
   <time>2014-03-30T13:05:40Z</time>
  </trkpt>
  <trkpt lat="33.806187" lon="-4.066935">
   <ele>1813.00</ele>
   <time>2014-03-30T13:05:42Z</time>
  </trkpt>
  <trkpt lat="33.806010" lon="-4.067170">
   <ele>1814.00</ele>
   <time>2014-03-30T13:05:44Z</time>
  </trkpt>
  <trkpt lat="33.805595" lon="-4.067654">
   <ele>1816.00</ele>
   <time>2014-03-30T13:05:49Z</time>
  </trkpt>
  <trkpt lat="33.805377" lon="-4.067676">
   <ele>1817.00</ele>
   <time>2014-03-30T13:05:52Z</time>
  </trkpt>
  <trkpt lat="33.805263" lon="-4.067455">
   <ele>1818.00</ele>
   <time>2014-03-30T13:05:55Z</time>
  </trkpt>
  <trkpt lat="33.805302" lon="-4.067190">
   <ele>1816.00</ele>
   <time>2014-03-30T13:05:57Z</time>
  </trkpt>
  <trkpt lat="33.805352" lon="-4.066937">
   <ele>1816.00</ele>
   <time>2014-03-30T13:05:59Z</time>
  </trkpt>
  <trkpt lat="33.805384" lon="-4.066661">
   <ele>1816.00</ele>
   <time>2014-03-30T13:06:01Z</time>
  </trkpt>
  <trkpt lat="33.805387" lon="-4.066354">
   <ele>1817.00</ele>
   <time>2014-03-30T13:06:03Z</time>
  </trkpt>
  <trkpt lat="33.805366" lon="-4.066027">
   <ele>1819.00</ele>
   <time>2014-03-30T13:06:05Z</time>
  </trkpt>
  <trkpt lat="33.805328" lon="-4.065702">
   <ele>1820.00</ele>
   <time>2014-03-30T13:06:07Z</time>
  </trkpt>
  <trkpt lat="33.805213" lon="-4.064886">
   <ele>1824.00</ele>
   <time>2014-03-30T13:06:12Z</time>
  </trkpt>
  <trkpt lat="33.805143" lon="-4.064571">
   <ele>1826.00</ele>
   <time>2014-03-30T13:06:14Z</time>
  </trkpt>
  <trkpt lat="33.805050" lon="-4.064260">
   <ele>1827.00</ele>
   <time>2014-03-30T13:06:16Z</time>
  </trkpt>
  <trkpt lat="33.804869" lon="-4.063689">
   <ele>1830.00</ele>
   <time>2014-03-30T13:06:20Z</time>
  </trkpt>
  <trkpt lat="33.804763" lon="-4.063480">
   <ele>1830.00</ele>
   <time>2014-03-30T13:06:22Z</time>
  </trkpt>
  <trkpt lat="33.804526" lon="-4.063316">
   <ele>1835.00</ele>
   <time>2014-03-30T13:06:25Z</time>
  </trkpt>
  <trkpt lat="33.804355" lon="-4.063166">
   <ele>1837.00</ele>
   <time>2014-03-30T13:06:27Z</time>
  </trkpt>
  <trkpt lat="33.804215" lon="-4.062988">
   <ele>1840.00</ele>
   <time>2014-03-30T13:06:29Z</time>
  </trkpt>
  <trkpt lat="33.803995" lon="-4.062872">
   <ele>1843.00</ele>
   <time>2014-03-30T13:06:32Z</time>
  </trkpt>
  <trkpt lat="33.803840" lon="-4.063049">
   <ele>1841.00</ele>
   <time>2014-03-30T13:06:35Z</time>
  </trkpt>
  <trkpt lat="33.803754" lon="-4.063311">
   <ele>1840.00</ele>
   <time>2014-03-30T13:06:38Z</time>
  </trkpt>
  <trkpt lat="33.803606" lon="-4.063476">
   <ele>1841.00</ele>
   <time>2014-03-30T13:06:41Z</time>
  </trkpt>
  <trkpt lat="33.803380" lon="-4.063395">
   <ele>1842.00</ele>
   <time>2014-03-30T13:06:44Z</time>
  </trkpt>
  <trkpt lat="33.803124" lon="-4.063397">
   <ele>1842.00</ele>
   <time>2014-03-30T13:06:47Z</time>
  </trkpt>
  <trkpt lat="33.802890" lon="-4.063310">
   <ele>1843.00</ele>
   <time>2014-03-30T13:06:50Z</time>
  </trkpt>
  <trkpt lat="33.802792" lon="-4.063114">
   <ele>1843.00</ele>
   <time>2014-03-30T13:06:52Z</time>
  </trkpt>
  <trkpt lat="33.802779" lon="-4.062881">
   <ele>1843.00</ele>
   <time>2014-03-30T13:06:54Z</time>
  </trkpt>
  <trkpt lat="33.802792" lon="-4.062628">
   <ele>1843.00</ele>
   <time>2014-03-30T13:06:56Z</time>
  </trkpt>
  <trkpt lat="33.802786" lon="-4.062281">
   <ele>1843.00</ele>
   <time>2014-03-30T13:06:59Z</time>
  </trkpt>
  <trkpt lat="33.802755" lon="-4.061970">
   <ele>1848.00</ele>
   <time>2014-03-30T13:07:02Z</time>
  </trkpt>
  <trkpt lat="33.802553" lon="-4.061836">
   <ele>1848.00</ele>
   <time>2014-03-30T13:07:05Z</time>
  </trkpt>
  <trkpt lat="33.802363" lon="-4.061966">
   <ele>1846.00</ele>
   <time>2014-03-30T13:07:08Z</time>
  </trkpt>
  <trkpt lat="33.802286" lon="-4.062166">
   <ele>1846.00</ele>
   <time>2014-03-30T13:07:10Z</time>
  </trkpt>
  <trkpt lat="33.802219" lon="-4.062377">
   <ele>1844.00</ele>
   <time>2014-03-30T13:07:12Z</time>
  </trkpt>
  <trkpt lat="33.802108" lon="-4.062740">
   <ele>1842.00</ele>
   <time>2014-03-30T13:07:16Z</time>
  </trkpt>
  <trkpt lat="33.801928" lon="-4.062868">
   <ele>1841.00</ele>
   <time>2014-03-30T13:07:19Z</time>
  </trkpt>
  <trkpt lat="33.801590" lon="-4.062892">
   <ele>1839.00</ele>
   <time>2014-03-30T13:07:23Z</time>
  </trkpt>
  <trkpt lat="33.801417" lon="-4.062992">
   <ele>1837.00</ele>
   <time>2014-03-30T13:07:25Z</time>
  </trkpt>
  <trkpt lat="33.801266" lon="-4.063157">
   <ele>1836.00</ele>
   <time>2014-03-30T13:07:27Z</time>
  </trkpt>
  <trkpt lat="33.801133" lon="-4.063361">
   <ele>1834.00</ele>
   <time>2014-03-30T13:07:29Z</time>
  </trkpt>
  <trkpt lat="33.800920" lon="-4.063687">
   <ele>1833.00</ele>
   <time>2014-03-30T13:07:32Z</time>
  </trkpt>
  <trkpt lat="33.800746" lon="-4.063868">
   <ele>1832.00</ele>
   <time>2014-03-30T13:07:34Z</time>
  </trkpt>
  <trkpt lat="33.800493" lon="-4.064108">
   <ele>1830.00</ele>
   <time>2014-03-30T13:07:37Z</time>
  </trkpt>
  <trkpt lat="33.800372" lon="-4.064319">
   <ele>1829.00</ele>
   <time>2014-03-30T13:07:39Z</time>
  </trkpt>
  <trkpt lat="33.800284" lon="-4.064577">
   <ele>1827.00</ele>
   <time>2014-03-30T13:07:41Z</time>
  </trkpt>
  <trkpt lat="33.800189" lon="-4.064837">
   <ele>1825.00</ele>
   <time>2014-03-30T13:07:43Z</time>
  </trkpt>
  <trkpt lat="33.800075" lon="-4.065095">
   <ele>1823.00</ele>
   <time>2014-03-30T13:07:45Z</time>
  </trkpt>
  <trkpt lat="33.799957" lon="-4.065334">
   <ele>1821.00</ele>
   <time>2014-03-30T13:07:47Z</time>
  </trkpt>
  <trkpt lat="33.799840" lon="-4.065506">
   <ele>1819.00</ele>
   <time>2014-03-30T13:07:49Z</time>
  </trkpt>
  <trkpt lat="33.799651" lon="-4.065517">
   <ele>1817.00</ele>
   <time>2014-03-30T13:07:52Z</time>
  </trkpt>
  <trkpt lat="33.799496" lon="-4.065297">
   <ele>1816.00</ele>
   <time>2014-03-30T13:07:55Z</time>
  </trkpt>
  <trkpt lat="33.799269" lon="-4.065271">
   <ele>1816.00</ele>
   <time>2014-03-30T13:07:58Z</time>
  </trkpt>
  <trkpt lat="33.799038" lon="-4.065356">
   <ele>1814.00</ele>
   <time>2014-03-30T13:08:01Z</time>
  </trkpt>
  <trkpt lat="33.798885" lon="-4.065239">
   <ele>1813.00</ele>
   <time>2014-03-30T13:08:03Z</time>
  </trkpt>
  <trkpt lat="33.798753" lon="-4.065027">
   <ele>1812.00</ele>
   <time>2014-03-30T13:08:05Z</time>
  </trkpt>
  <trkpt lat="33.798654" lon="-4.064752">
   <ele>1810.00</ele>
   <time>2014-03-30T13:08:07Z</time>
  </trkpt>
  <trkpt lat="33.798558" lon="-4.064447">
   <ele>1809.00</ele>
   <time>2014-03-30T13:08:09Z</time>
  </trkpt>
  <trkpt lat="33.798429" lon="-4.064140">
   <ele>1808.00</ele>
   <time>2014-03-30T13:08:11Z</time>
  </trkpt>
  <trkpt lat="33.797979" lon="-4.063227">
   <ele>1803.00</ele>
   <time>2014-03-30T13:08:17Z</time>
  </trkpt>
  <trkpt lat="33.797678" lon="-4.062644">
   <ele>1803.00</ele>
   <time>2014-03-30T13:08:21Z</time>
  </trkpt>
  <trkpt lat="33.797508" lon="-4.062393">
   <ele>1804.00</ele>
   <time>2014-03-30T13:08:23Z</time>
  </trkpt>
  <trkpt lat="33.797312" lon="-4.062200">
   <ele>1805.00</ele>
   <time>2014-03-30T13:08:25Z</time>
  </trkpt>
  <trkpt lat="33.797086" lon="-4.062053">
   <ele>1806.00</ele>
   <time>2014-03-30T13:08:27Z</time>
  </trkpt>
  <trkpt lat="33.796835" lon="-4.061921">
   <ele>1807.00</ele>
   <time>2014-03-30T13:08:29Z</time>
  </trkpt>
  <trkpt lat="33.796570" lon="-4.061795">
   <ele>1808.00</ele>
   <time>2014-03-30T13:08:31Z</time>
  </trkpt>
  <trkpt lat="33.796291" lon="-4.061681">
   <ele>1808.00</ele>
   <time>2014-03-30T13:08:33Z</time>
  </trkpt>
  <trkpt lat="33.795733" lon="-4.061455">
   <ele>1807.00</ele>
   <time>2014-03-30T13:08:37Z</time>
  </trkpt>
  <trkpt lat="33.794030" lon="-4.060710">
   <ele>1805.00</ele>
   <time>2014-03-30T13:08:48Z</time>
  </trkpt>
  <trkpt lat="33.793745" lon="-4.060637">
   <ele>1806.00</ele>
   <time>2014-03-30T13:08:50Z</time>
  </trkpt>
  <trkpt lat="33.793490" lon="-4.060655">
   <ele>1806.00</ele>
   <time>2014-03-30T13:08:52Z</time>
  </trkpt>
  <trkpt lat="33.793262" lon="-4.060709">
   <ele>1807.00</ele>
   <time>2014-03-30T13:08:54Z</time>
  </trkpt>
  <trkpt lat="33.793055" lon="-4.060664">
   <ele>1808.00</ele>
   <time>2014-03-30T13:08:56Z</time>
  </trkpt>
  <trkpt lat="33.792895" lon="-4.060513">
   <ele>1809.00</ele>
   <time>2014-03-30T13:08:58Z</time>
  </trkpt>
  <trkpt lat="33.792731" lon="-4.060353">
   <ele>1810.00</ele>
   <time>2014-03-30T13:09:00Z</time>
  </trkpt>
  <trkpt lat="33.792524" lon="-4.060228">
   <ele>1811.00</ele>
   <time>2014-03-30T13:09:02Z</time>
  </trkpt>
  <trkpt lat="33.792294" lon="-4.060144">
   <ele>1812.00</ele>
   <time>2014-03-30T13:09:04Z</time>
  </trkpt>
  <trkpt lat="33.792082" lon="-4.060088">
   <ele>1813.00</ele>
   <time>2014-03-30T13:09:06Z</time>
  </trkpt>
  <trkpt lat="33.791770" lon="-4.060022">
   <ele>1815.00</ele>
   <time>2014-03-30T13:09:10Z</time>
  </trkpt>
  <trkpt lat="33.791705" lon="-4.059791">
   <ele>1816.00</ele>
   <time>2014-03-30T13:09:14Z</time>
  </trkpt>
  <trkpt lat="33.791849" lon="-4.059526">
   <ele>1817.00</ele>
   <time>2014-03-30T13:09:17Z</time>
  </trkpt>
  <trkpt lat="33.792104" lon="-4.059118">
   <ele>1817.00</ele>
   <time>2014-03-30T13:09:21Z</time>
  </trkpt>
  <trkpt lat="33.792356" lon="-4.058649">
   <ele>1817.00</ele>
   <time>2014-03-30T13:09:25Z</time>
  </trkpt>
  <trkpt lat="33.792521" lon="-4.058458">
   <ele>1817.00</ele>
   <time>2014-03-30T13:09:27Z</time>
  </trkpt>
  <trkpt lat="33.792706" lon="-4.058287">
   <ele>1816.00</ele>
   <time>2014-03-30T13:09:29Z</time>
  </trkpt>
  <trkpt lat="33.792872" lon="-4.058081">
   <ele>1816.00</ele>
   <time>2014-03-30T13:09:31Z</time>
  </trkpt>
  <trkpt lat="33.792989" lon="-4.057854">
   <ele>1816.00</ele>
   <time>2014-03-30T13:09:33Z</time>
  </trkpt>
  <trkpt lat="33.792951" lon="-4.057598">
   <ele>1817.00</ele>
   <time>2014-03-30T13:09:36Z</time>
  </trkpt>
  <trkpt lat="33.792760" lon="-4.057572">
   <ele>1818.00</ele>
   <time>2014-03-30T13:09:39Z</time>
  </trkpt>
  <trkpt lat="33.792567" lon="-4.057761">
   <ele>1818.00</ele>
   <time>2014-03-30T13:09:42Z</time>
  </trkpt>
  <trkpt lat="33.792456" lon="-4.057947">
   <ele>1818.00</ele>
   <time>2014-03-30T13:09:44Z</time>
  </trkpt>
  <trkpt lat="33.792371" lon="-4.058158">
   <ele>1819.00</ele>
   <time>2014-03-30T13:09:46Z</time>
  </trkpt>
  <trkpt lat="33.792237" lon="-4.058522">
   <ele>1821.00</ele>
   <time>2014-03-30T13:09:49Z</time>
  </trkpt>
  <trkpt lat="33.792106" lon="-4.058759">
   <ele>1822.00</ele>
   <time>2014-03-30T13:09:51Z</time>
  </trkpt>
  <trkpt lat="33.791955" lon="-4.058985">
   <ele>1823.00</ele>
   <time>2014-03-30T13:09:53Z</time>
  </trkpt>
  <trkpt lat="33.791784" lon="-4.059198">
   <ele>1823.00</ele>
   <time>2014-03-30T13:09:55Z</time>
  </trkpt>
  <trkpt lat="33.791607" lon="-4.059403">
   <ele>1824.00</ele>
   <time>2014-03-30T13:09:57Z</time>
  </trkpt>
  <trkpt lat="33.791455" lon="-4.059632">
   <ele>1826.00</ele>
   <time>2014-03-30T13:09:59Z</time>
  </trkpt>
  <trkpt lat="33.791330" lon="-4.059878">
   <ele>1827.00</ele>
   <time>2014-03-30T13:10:01Z</time>
  </trkpt>
  <trkpt lat="33.791194" lon="-4.060208">
   <ele>1828.00</ele>
   <time>2014-03-30T13:10:04Z</time>
  </trkpt>
  <trkpt lat="33.791145" lon="-4.060460">
   <ele>1830.00</ele>
   <time>2014-03-30T13:10:07Z</time>
  </trkpt>
  <trkpt lat="33.791333" lon="-4.060566">
   <ele>1832.00</ele>
   <time>2014-03-30T13:10:10Z</time>
  </trkpt>
  <trkpt lat="33.791688" lon="-4.060637">
   <ele>1834.00</ele>
   <time>2014-03-30T13:10:14Z</time>
  </trkpt>
  <trkpt lat="33.791858" lon="-4.060719">
   <ele>1836.00</ele>
   <time>2014-03-30T13:10:16Z</time>
  </trkpt>
  <trkpt lat="33.792021" lon="-4.060841">
   <ele>1837.00</ele>
   <time>2014-03-30T13:10:18Z</time>
  </trkpt>
  <trkpt lat="33.792187" lon="-4.060988">
   <ele>1839.00</ele>
   <time>2014-03-30T13:10:20Z</time>
  </trkpt>
  <trkpt lat="33.792341" lon="-4.061147">
   <ele>1841.00</ele>
   <time>2014-03-30T13:10:22Z</time>
  </trkpt>
  <trkpt lat="33.792473" lon="-4.061322">
   <ele>1843.00</ele>
   <time>2014-03-30T13:10:24Z</time>
  </trkpt>
  <trkpt lat="33.792570" lon="-4.061523">
   <ele>1845.00</ele>
   <time>2014-03-30T13:10:26Z</time>
  </trkpt>
  <trkpt lat="33.792665" lon="-4.061716">
   <ele>1846.00</ele>
   <time>2014-03-30T13:10:28Z</time>
  </trkpt>
  <trkpt lat="33.792788" lon="-4.061880">
   <ele>1848.00</ele>
   <time>2014-03-30T13:10:30Z</time>
  </trkpt>
  <trkpt lat="33.792894" lon="-4.062141">
   <ele>1851.00</ele>
   <time>2014-03-30T13:10:33Z</time>
  </trkpt>
  <trkpt lat="33.792832" lon="-4.062423">
   <ele>1854.00</ele>
   <time>2014-03-30T13:10:36Z</time>
  </trkpt>
  <trkpt lat="33.792672" lon="-4.062670">
   <ele>1855.00</ele>
   <time>2014-03-30T13:10:39Z</time>
  </trkpt>
  <trkpt lat="33.792427" lon="-4.062794">
   <ele>1857.00</ele>
   <time>2014-03-30T13:10:42Z</time>
  </trkpt>
  <trkpt lat="33.791817" lon="-4.062914">
   <ele>1859.00</ele>
   <time>2014-03-30T13:10:48Z</time>
  </trkpt>
  <trkpt lat="33.791632" lon="-4.062982">
   <ele>1860.00</ele>
   <time>2014-03-30T13:10:50Z</time>
  </trkpt>
  <trkpt lat="33.791344" lon="-4.063111">
   <ele>1862.00</ele>
   <time>2014-03-30T13:10:53Z</time>
  </trkpt>
  <trkpt lat="33.791045" lon="-4.063215">
   <ele>1863.00</ele>
   <time>2014-03-30T13:10:56Z</time>
  </trkpt>
  <trkpt lat="33.790854" lon="-4.063317">
   <ele>1864.00</ele>
   <time>2014-03-30T13:10:58Z</time>
  </trkpt>
  <trkpt lat="33.790676" lon="-4.063435">
   <ele>1865.00</ele>
   <time>2014-03-30T13:11:00Z</time>
  </trkpt>
  <trkpt lat="33.790521" lon="-4.063573">
   <ele>1866.00</ele>
   <time>2014-03-30T13:11:02Z</time>
  </trkpt>
  <trkpt lat="33.790400" lon="-4.063738">
   <ele>1867.00</ele>
   <time>2014-03-30T13:11:04Z</time>
  </trkpt>
  <trkpt lat="33.790308" lon="-4.063940">
   <ele>1868.00</ele>
   <time>2014-03-30T13:11:06Z</time>
  </trkpt>
  <trkpt lat="33.790226" lon="-4.064168">
   <ele>1869.00</ele>
   <time>2014-03-30T13:11:08Z</time>
  </trkpt>
  <trkpt lat="33.790042" lon="-4.064749">
   <ele>1873.00</ele>
   <time>2014-03-30T13:11:13Z</time>
  </trkpt>
  <trkpt lat="33.790017" lon="-4.065038">
   <ele>1874.00</ele>
   <time>2014-03-30T13:11:16Z</time>
  </trkpt>
  <trkpt lat="33.790075" lon="-4.065292">
   <ele>1875.00</ele>
   <time>2014-03-30T13:11:19Z</time>
  </trkpt>
  <trkpt lat="33.790124" lon="-4.065550">
   <ele>1876.00</ele>
   <time>2014-03-30T13:11:22Z</time>
  </trkpt>
  <trkpt lat="33.790044" lon="-4.065787">
   <ele>1877.00</ele>
   <time>2014-03-30T13:11:25Z</time>
  </trkpt>
  <trkpt lat="33.789829" lon="-4.065886">
   <ele>1878.00</ele>
   <time>2014-03-30T13:11:28Z</time>
  </trkpt>
  <trkpt lat="33.789592" lon="-4.065921">
   <ele>1880.00</ele>
   <time>2014-03-30T13:11:31Z</time>
  </trkpt>
  <trkpt lat="33.789335" lon="-4.065926">
   <ele>1881.00</ele>
   <time>2014-03-30T13:11:34Z</time>
  </trkpt>
  <trkpt lat="33.789093" lon="-4.065841">
   <ele>1882.00</ele>
   <time>2014-03-30T13:11:37Z</time>
  </trkpt>
  <trkpt lat="33.788906" lon="-4.065615">
   <ele>1884.00</ele>
   <time>2014-03-30T13:11:40Z</time>
  </trkpt>
  <trkpt lat="33.788790" lon="-4.065445">
   <ele>1884.00</ele>
   <time>2014-03-30T13:11:42Z</time>
  </trkpt>
  <trkpt lat="33.788595" lon="-4.065246">
   <ele>1885.00</ele>
   <time>2014-03-30T13:11:45Z</time>
  </trkpt>
  <trkpt lat="33.788352" lon="-4.065205">
   <ele>1886.00</ele>
   <time>2014-03-30T13:11:48Z</time>
  </trkpt>
  <trkpt lat="33.788117" lon="-4.065299">
   <ele>1885.00</ele>
   <time>2014-03-30T13:11:51Z</time>
  </trkpt>
  <trkpt lat="33.787836" lon="-4.065431">
   <ele>1884.00</ele>
   <time>2014-03-30T13:11:55Z</time>
  </trkpt>
  <trkpt lat="33.787620" lon="-4.065473">
   <ele>1882.00</ele>
   <time>2014-03-30T13:11:58Z</time>
  </trkpt>
  <trkpt lat="33.787421" lon="-4.065452">
   <ele>1880.00</ele>
   <time>2014-03-30T13:12:01Z</time>
  </trkpt>
  <trkpt lat="33.787187" lon="-4.065400">
   <ele>1878.00</ele>
   <time>2014-03-30T13:12:06Z</time>
  </trkpt>
  <trkpt lat="33.787137" lon="-4.065383">
   <ele>1875.00</ele>
   <time>2014-03-30T13:12:22Z</time>
  </trkpt>
  <trkpt lat="33.787150" lon="-4.065388">
   <ele>1876.00</ele>
   <time>2014-03-30T13:12:37Z</time>
  </trkpt>
  <trkpt lat="33.787153" lon="-4.065386">
   <ele>1877.00</ele>
   <time>2014-03-30T13:12:52Z</time>
  </trkpt>
  <trkpt lat="33.787153" lon="-4.065389">
   <ele>1876.00</ele>
   <time>2014-03-30T13:13:08Z</time>
  </trkpt>
  <trkpt lat="33.786949" lon="-4.065449">
   <ele>1873.00</ele>
   <time>2014-03-30T13:13:24Z</time>
  </trkpt>
  <trkpt lat="33.786780" lon="-4.065584">
   <ele>1871.00</ele>
   <time>2014-03-30T13:13:28Z</time>
  </trkpt>
  <trkpt lat="33.786631" lon="-4.065767">
   <ele>1870.00</ele>
   <time>2014-03-30T13:13:32Z</time>
  </trkpt>
  <trkpt lat="33.786457" lon="-4.065979">
   <ele>1868.00</ele>
   <time>2014-03-30T13:13:36Z</time>
  </trkpt>
  <trkpt lat="33.786267" lon="-4.066127">
   <ele>1867.00</ele>
   <time>2014-03-30T13:13:39Z</time>
  </trkpt>
  <trkpt lat="33.786046" lon="-4.066250">
   <ele>1865.00</ele>
   <time>2014-03-30T13:13:42Z</time>
  </trkpt>
  <trkpt lat="33.785809" lon="-4.066386">
   <ele>1863.00</ele>
   <time>2014-03-30T13:13:45Z</time>
  </trkpt>
  <trkpt lat="33.785653" lon="-4.066504">
   <ele>1861.00</ele>
   <time>2014-03-30T13:13:47Z</time>
  </trkpt>
  <trkpt lat="33.785506" lon="-4.066652">
   <ele>1859.00</ele>
   <time>2014-03-30T13:13:49Z</time>
  </trkpt>
  <trkpt lat="33.785371" lon="-4.066829">
   <ele>1858.00</ele>
   <time>2014-03-30T13:13:51Z</time>
  </trkpt>
  <trkpt lat="33.785240" lon="-4.067026">
   <ele>1857.00</ele>
   <time>2014-03-30T13:13:53Z</time>
  </trkpt>
  <trkpt lat="33.785028" lon="-4.067349">
   <ele>1857.00</ele>
   <time>2014-03-30T13:13:56Z</time>
  </trkpt>
  <trkpt lat="33.784867" lon="-4.067564">
   <ele>1857.00</ele>
   <time>2014-03-30T13:13:58Z</time>
  </trkpt>
  <trkpt lat="33.784257" lon="-4.068336">
   <ele>1859.00</ele>
   <time>2014-03-30T13:14:05Z</time>
  </trkpt>
  <trkpt lat="33.784071" lon="-4.068524">
   <ele>1860.00</ele>
   <time>2014-03-30T13:14:07Z</time>
  </trkpt>
  <trkpt lat="33.783909" lon="-4.068718">
   <ele>1860.00</ele>
   <time>2014-03-30T13:14:09Z</time>
  </trkpt>
  <trkpt lat="33.783778" lon="-4.068951">
   <ele>1861.00</ele>
   <time>2014-03-30T13:14:11Z</time>
  </trkpt>
  <trkpt lat="33.783674" lon="-4.069213">
   <ele>1861.00</ele>
   <time>2014-03-30T13:14:13Z</time>
  </trkpt>
  <trkpt lat="33.783598" lon="-4.069497">
   <ele>1862.00</ele>
   <time>2014-03-30T13:14:15Z</time>
  </trkpt>
  <trkpt lat="33.783543" lon="-4.069795">
   <ele>1862.00</ele>
   <time>2014-03-30T13:14:17Z</time>
  </trkpt>
  <trkpt lat="33.783502" lon="-4.070100">
   <ele>1862.00</ele>
   <time>2014-03-30T13:14:19Z</time>
  </trkpt>
  <trkpt lat="33.783406" lon="-4.070979">
   <ele>1863.00</ele>
   <time>2014-03-30T13:14:25Z</time>
  </trkpt>
  <trkpt lat="33.783391" lon="-4.071266">
   <ele>1863.00</ele>
   <time>2014-03-30T13:14:27Z</time>
  </trkpt>
  <trkpt lat="33.783379" lon="-4.071837">
   <ele>1862.00</ele>
   <time>2014-03-30T13:14:31Z</time>
  </trkpt>
  <trkpt lat="33.783367" lon="-4.072494">
   <ele>1862.00</ele>
   <time>2014-03-30T13:14:36Z</time>
  </trkpt>
  <trkpt lat="33.783329" lon="-4.072713">
   <ele>1862.00</ele>
   <time>2014-03-30T13:14:38Z</time>
  </trkpt>
  <trkpt lat="33.783192" lon="-4.072967">
   <ele>1862.00</ele>
   <time>2014-03-30T13:14:41Z</time>
  </trkpt>
  <trkpt lat="33.783045" lon="-4.073099">
   <ele>1862.00</ele>
   <time>2014-03-30T13:14:43Z</time>
  </trkpt>
  <trkpt lat="33.782866" lon="-4.073214">
   <ele>1863.00</ele>
   <time>2014-03-30T13:14:45Z</time>
  </trkpt>
  <trkpt lat="33.782470" lon="-4.073432">
   <ele>1863.00</ele>
   <time>2014-03-30T13:14:49Z</time>
  </trkpt>
  <trkpt lat="33.782254" lon="-4.073535">
   <ele>1863.00</ele>
   <time>2014-03-30T13:14:51Z</time>
  </trkpt>
  <trkpt lat="33.781554" lon="-4.073848">
   <ele>1863.00</ele>
   <time>2014-03-30T13:14:57Z</time>
  </trkpt>
  <trkpt lat="33.781203" lon="-4.074036">
   <ele>1863.00</ele>
   <time>2014-03-30T13:15:00Z</time>
  </trkpt>
  <trkpt lat="33.779254" lon="-4.074966">
   <ele>1861.00</ele>
   <time>2014-03-30T13:15:15Z</time>
  </trkpt>
  <trkpt lat="33.779036" lon="-4.075075">
   <ele>1862.00</ele>
   <time>2014-03-30T13:15:17Z</time>
  </trkpt>
  <trkpt lat="33.778870" lon="-4.075197">
   <ele>1862.00</ele>
   <time>2014-03-30T13:15:19Z</time>
  </trkpt>
  <trkpt lat="33.778743" lon="-4.075364">
   <ele>1863.00</ele>
   <time>2014-03-30T13:15:21Z</time>
  </trkpt>
  <trkpt lat="33.778637" lon="-4.075553">
   <ele>1863.00</ele>
   <time>2014-03-30T13:15:23Z</time>
  </trkpt>
  <trkpt lat="33.778364" lon="-4.076057">
   <ele>1863.00</ele>
   <time>2014-03-30T13:15:28Z</time>
  </trkpt>
  <trkpt lat="33.778249" lon="-4.076226">
   <ele>1864.00</ele>
   <time>2014-03-30T13:15:30Z</time>
  </trkpt>
  <trkpt lat="33.778029" lon="-4.076383">
   <ele>1864.00</ele>
   <time>2014-03-30T13:15:33Z</time>
  </trkpt>
  <trkpt lat="33.777848" lon="-4.076387">
   <ele>1864.00</ele>
   <time>2014-03-30T13:15:35Z</time>
  </trkpt>
  <trkpt lat="33.777651" lon="-4.076316">
   <ele>1865.00</ele>
   <time>2014-03-30T13:15:37Z</time>
  </trkpt>
  <trkpt lat="33.777461" lon="-4.076210">
   <ele>1867.00</ele>
   <time>2014-03-30T13:15:39Z</time>
  </trkpt>
  <trkpt lat="33.776972" lon="-4.075898">
   <ele>1871.00</ele>
   <time>2014-03-30T13:15:44Z</time>
  </trkpt>
  <trkpt lat="33.776768" lon="-4.075785">
   <ele>1874.00</ele>
   <time>2014-03-30T13:15:46Z</time>
  </trkpt>
  <trkpt lat="33.776451" lon="-4.075632">
   <ele>1878.00</ele>
   <time>2014-03-30T13:15:49Z</time>
  </trkpt>
  <trkpt lat="33.776129" lon="-4.075475">
   <ele>1881.00</ele>
   <time>2014-03-30T13:15:52Z</time>
  </trkpt>
  <trkpt lat="33.775677" lon="-4.075226">
   <ele>1886.00</ele>
   <time>2014-03-30T13:15:56Z</time>
  </trkpt>
  <trkpt lat="33.774496" lon="-4.074505">
   <ele>1899.00</ele>
   <time>2014-03-30T13:16:06Z</time>
  </trkpt>
  <trkpt lat="33.774282" lon="-4.074312">
   <ele>1901.00</ele>
   <time>2014-03-30T13:16:08Z</time>
  </trkpt>
  <trkpt lat="33.774094" lon="-4.074096">
   <ele>1903.00</ele>
   <time>2014-03-30T13:16:10Z</time>
  </trkpt>
  <trkpt lat="33.773917" lon="-4.073890">
   <ele>1905.00</ele>
   <time>2014-03-30T13:16:12Z</time>
  </trkpt>
  <trkpt lat="33.773723" lon="-4.073720">
   <ele>1907.00</ele>
   <time>2014-03-30T13:16:14Z</time>
  </trkpt>
  <trkpt lat="33.773520" lon="-4.073607">
   <ele>1908.00</ele>
   <time>2014-03-30T13:16:16Z</time>
  </trkpt>
  <trkpt lat="33.773322" lon="-4.073562">
   <ele>1909.00</ele>
   <time>2014-03-30T13:16:18Z</time>
  </trkpt>
  <trkpt lat="33.773124" lon="-4.073603">
   <ele>1909.00</ele>
   <time>2014-03-30T13:16:20Z</time>
  </trkpt>
  <trkpt lat="33.772937" lon="-4.073710">
   <ele>1909.00</ele>
   <time>2014-03-30T13:16:22Z</time>
  </trkpt>
  <trkpt lat="33.772756" lon="-4.073817">
   <ele>1909.00</ele>
   <time>2014-03-30T13:16:24Z</time>
  </trkpt>
  <trkpt lat="33.772569" lon="-4.073881">
   <ele>1909.00</ele>
   <time>2014-03-30T13:16:26Z</time>
  </trkpt>
  <trkpt lat="33.772377" lon="-4.073872">
   <ele>1909.00</ele>
   <time>2014-03-30T13:16:28Z</time>
  </trkpt>
  <trkpt lat="33.772196" lon="-4.073769">
   <ele>1909.00</ele>
   <time>2014-03-30T13:16:30Z</time>
  </trkpt>
  <trkpt lat="33.772062" lon="-4.073597">
   <ele>1909.00</ele>
   <time>2014-03-30T13:16:32Z</time>
  </trkpt>
  <trkpt lat="33.771936" lon="-4.073438">
   <ele>1909.00</ele>
   <time>2014-03-30T13:16:34Z</time>
  </trkpt>
  <trkpt lat="33.771684" lon="-4.073441">
   <ele>1909.00</ele>
   <time>2014-03-30T13:16:37Z</time>
  </trkpt>
  <trkpt lat="33.771508" lon="-4.073553">
   <ele>1908.00</ele>
   <time>2014-03-30T13:16:39Z</time>
  </trkpt>
  <trkpt lat="33.771322" lon="-4.073630">
   <ele>1908.00</ele>
   <time>2014-03-30T13:16:41Z</time>
  </trkpt>
  <trkpt lat="33.771114" lon="-4.073492">
   <ele>1907.00</ele>
   <time>2014-03-30T13:16:44Z</time>
  </trkpt>
  <trkpt lat="33.771024" lon="-4.073194">
   <ele>1907.00</ele>
   <time>2014-03-30T13:16:47Z</time>
  </trkpt>
  <trkpt lat="33.770976" lon="-4.072885">
   <ele>1907.00</ele>
   <time>2014-03-30T13:16:50Z</time>
  </trkpt>
  <trkpt lat="33.771031" lon="-4.072581">
   <ele>1908.00</ele>
   <time>2014-03-30T13:16:53Z</time>
  </trkpt>
  <trkpt lat="33.770985" lon="-4.072321">
   <ele>1908.00</ele>
   <time>2014-03-30T13:16:56Z</time>
  </trkpt>
  <trkpt lat="33.770744" lon="-4.072227">
   <ele>1909.00</ele>
   <time>2014-03-30T13:16:59Z</time>
  </trkpt>
  <trkpt lat="33.770543" lon="-4.072219">
   <ele>1908.00</ele>
   <time>2014-03-30T13:17:01Z</time>
  </trkpt>
  <trkpt lat="33.770342" lon="-4.072249">
   <ele>1907.00</ele>
   <time>2014-03-30T13:17:03Z</time>
  </trkpt>
  <trkpt lat="33.770163" lon="-4.072284">
   <ele>1907.00</ele>
   <time>2014-03-30T13:17:05Z</time>
  </trkpt>
  <trkpt lat="33.769971" lon="-4.072182">
   <ele>1907.00</ele>
   <time>2014-03-30T13:17:08Z</time>
  </trkpt>
  <trkpt lat="33.769910" lon="-4.071890">
   <ele>1906.00</ele>
   <time>2014-03-30T13:17:11Z</time>
  </trkpt>
  <trkpt lat="33.769929" lon="-4.071647">
   <ele>1907.00</ele>
   <time>2014-03-30T13:17:13Z</time>
  </trkpt>
  <trkpt lat="33.769955" lon="-4.071410">
   <ele>1907.00</ele>
   <time>2014-03-30T13:17:15Z</time>
  </trkpt>
  <trkpt lat="33.769957" lon="-4.071187">
   <ele>1908.00</ele>
   <time>2014-03-30T13:17:17Z</time>
  </trkpt>
  <trkpt lat="33.769843" lon="-4.070935">
   <ele>1909.00</ele>
   <time>2014-03-30T13:17:20Z</time>
  </trkpt>
  <trkpt lat="33.769596" lon="-4.070833">
   <ele>1912.00</ele>
   <time>2014-03-30T13:17:23Z</time>
  </trkpt>
  <trkpt lat="33.769407" lon="-4.070773">
   <ele>1912.00</ele>
   <time>2014-03-30T13:17:25Z</time>
  </trkpt>
  <trkpt lat="33.769231" lon="-4.070661">
   <ele>1913.00</ele>
   <time>2014-03-30T13:17:27Z</time>
  </trkpt>
  <trkpt lat="33.769095" lon="-4.070475">
   <ele>1913.00</ele>
   <time>2014-03-30T13:17:29Z</time>
  </trkpt>
  <trkpt lat="33.769009" lon="-4.070268">
   <ele>1913.00</ele>
   <time>2014-03-30T13:17:31Z</time>
  </trkpt>
  <trkpt lat="33.768821" lon="-4.070104">
   <ele>1915.00</ele>
   <time>2014-03-30T13:17:34Z</time>
  </trkpt>
  <trkpt lat="33.768609" lon="-4.070122">
   <ele>1913.00</ele>
   <time>2014-03-30T13:17:36Z</time>
  </trkpt>
  <trkpt lat="33.768375" lon="-4.070180">
   <ele>1911.00</ele>
   <time>2014-03-30T13:17:38Z</time>
  </trkpt>
  <trkpt lat="33.768137" lon="-4.070267">
   <ele>1910.00</ele>
   <time>2014-03-30T13:17:40Z</time>
  </trkpt>
  <trkpt lat="33.767833" lon="-4.070399">
   <ele>1908.00</ele>
   <time>2014-03-30T13:17:43Z</time>
  </trkpt>
  <trkpt lat="33.767569" lon="-4.070364">
   <ele>1907.00</ele>
   <time>2014-03-30T13:17:46Z</time>
  </trkpt>
  <trkpt lat="33.767384" lon="-4.070414">
   <ele>1907.00</ele>
   <time>2014-03-30T13:17:48Z</time>
  </trkpt>
  <trkpt lat="33.767203" lon="-4.070521">
   <ele>1906.00</ele>
   <time>2014-03-30T13:17:50Z</time>
  </trkpt>
  <trkpt lat="33.767048" lon="-4.070641">
   <ele>1906.00</ele>
   <time>2014-03-30T13:17:52Z</time>
  </trkpt>
  <trkpt lat="33.766855" lon="-4.070824">
   <ele>1906.00</ele>
   <time>2014-03-30T13:17:55Z</time>
  </trkpt>
  <trkpt lat="33.766685" lon="-4.071053">
   <ele>1905.00</ele>
   <time>2014-03-30T13:17:58Z</time>
  </trkpt>
  <trkpt lat="33.766561" lon="-4.071308">
   <ele>1905.00</ele>
   <time>2014-03-30T13:18:01Z</time>
  </trkpt>
  <trkpt lat="33.766457" lon="-4.071506">
   <ele>1905.00</ele>
   <time>2014-03-30T13:18:04Z</time>
  </trkpt>
  <trkpt lat="33.766306" lon="-4.071383">
   <ele>1905.00</ele>
   <time>2014-03-30T13:18:08Z</time>
  </trkpt>
  <trkpt lat="33.766263" lon="-4.071142">
   <ele>1903.00</ele>
   <time>2014-03-30T13:18:11Z</time>
  </trkpt>
  <trkpt lat="33.766260" lon="-4.070896">
   <ele>1903.00</ele>
   <time>2014-03-30T13:18:14Z</time>
  </trkpt>
  <trkpt lat="33.766238" lon="-4.070603">
   <ele>1903.00</ele>
   <time>2014-03-30T13:18:17Z</time>
  </trkpt>
  <trkpt lat="33.766211" lon="-4.070388">
   <ele>1903.00</ele>
   <time>2014-03-30T13:18:19Z</time>
  </trkpt>
  <trkpt lat="33.766151" lon="-4.070067">
   <ele>1903.00</ele>
   <time>2014-03-30T13:18:22Z</time>
  </trkpt>
  <trkpt lat="33.766087" lon="-4.069851">
   <ele>1904.00</ele>
   <time>2014-03-30T13:18:24Z</time>
  </trkpt>
  <trkpt lat="33.765985" lon="-4.069671">
   <ele>1905.00</ele>
   <time>2014-03-30T13:18:26Z</time>
  </trkpt>
  <trkpt lat="33.765835" lon="-4.069541">
   <ele>1907.00</ele>
   <time>2014-03-30T13:18:28Z</time>
  </trkpt>
  <trkpt lat="33.765683" lon="-4.069412">
   <ele>1909.00</ele>
   <time>2014-03-30T13:18:30Z</time>
  </trkpt>
  <trkpt lat="33.765549" lon="-4.069245">
   <ele>1910.00</ele>
   <time>2014-03-30T13:18:32Z</time>
  </trkpt>
  <trkpt lat="33.765414" lon="-4.069093">
   <ele>1910.00</ele>
   <time>2014-03-30T13:18:34Z</time>
  </trkpt>
  <trkpt lat="33.765168" lon="-4.069146">
   <ele>1910.00</ele>
   <time>2014-03-30T13:18:37Z</time>
  </trkpt>
  <trkpt lat="33.765050" lon="-4.069311">
   <ele>1909.00</ele>
   <time>2014-03-30T13:18:39Z</time>
  </trkpt>
  <trkpt lat="33.764945" lon="-4.069511">
   <ele>1909.00</ele>
   <time>2014-03-30T13:18:41Z</time>
  </trkpt>
  <trkpt lat="33.764836" lon="-4.069724">
   <ele>1909.00</ele>
   <time>2014-03-30T13:18:43Z</time>
  </trkpt>
  <trkpt lat="33.764495" lon="-4.070391">
   <ele>1905.00</ele>
   <time>2014-03-30T13:18:49Z</time>
  </trkpt>
  <trkpt lat="33.764145" lon="-4.071007">
   <ele>1904.00</ele>
   <time>2014-03-30T13:18:55Z</time>
  </trkpt>
  <trkpt lat="33.764007" lon="-4.071217">
   <ele>1904.00</ele>
   <time>2014-03-30T13:18:58Z</time>
  </trkpt>
  <trkpt lat="33.763829" lon="-4.071187">
   <ele>1903.00</ele>
   <time>2014-03-30T13:19:03Z</time>
  </trkpt>
  <trkpt lat="33.763875" lon="-4.070901">
   <ele>1902.00</ele>
   <time>2014-03-30T13:19:07Z</time>
  </trkpt>
  <trkpt lat="33.764042" lon="-4.070040">
   <ele>1902.00</ele>
   <time>2014-03-30T13:19:15Z</time>
  </trkpt>
  <trkpt lat="33.764071" lon="-4.069778">
   <ele>1902.00</ele>
   <time>2014-03-30T13:19:17Z</time>
  </trkpt>
  <trkpt lat="33.764075" lon="-4.069511">
   <ele>1903.00</ele>
   <time>2014-03-30T13:19:19Z</time>
  </trkpt>
  <trkpt lat="33.764049" lon="-4.069244">
   <ele>1903.00</ele>
   <time>2014-03-30T13:19:21Z</time>
  </trkpt>
  <trkpt lat="33.763991" lon="-4.068992">
   <ele>1903.00</ele>
   <time>2014-03-30T13:19:23Z</time>
  </trkpt>
  <trkpt lat="33.763906" lon="-4.068769">
   <ele>1904.00</ele>
   <time>2014-03-30T13:19:25Z</time>
  </trkpt>
  <trkpt lat="33.763798" lon="-4.068585">
   <ele>1905.00</ele>
   <time>2014-03-30T13:19:27Z</time>
  </trkpt>
  <trkpt lat="33.763655" lon="-4.068329">
   <ele>1905.00</ele>
   <time>2014-03-30T13:19:30Z</time>
  </trkpt>
  <trkpt lat="33.763695" lon="-4.068053">
   <ele>1905.00</ele>
   <time>2014-03-30T13:19:33Z</time>
  </trkpt>
  <trkpt lat="33.763844" lon="-4.067888">
   <ele>1905.00</ele>
   <time>2014-03-30T13:19:35Z</time>
  </trkpt>
  <trkpt lat="33.764038" lon="-4.067739">
   <ele>1905.00</ele>
   <time>2014-03-30T13:19:37Z</time>
  </trkpt>
  <trkpt lat="33.764222" lon="-4.067569">
   <ele>1905.00</ele>
   <time>2014-03-30T13:19:39Z</time>
  </trkpt>
  <trkpt lat="33.764388" lon="-4.067367">
   <ele>1905.00</ele>
   <time>2014-03-30T13:19:41Z</time>
  </trkpt>
  <trkpt lat="33.764648" lon="-4.067045">
   <ele>1906.00</ele>
   <time>2014-03-30T13:19:44Z</time>
  </trkpt>
  <trkpt lat="33.764837" lon="-4.066842">
   <ele>1906.00</ele>
   <time>2014-03-30T13:19:46Z</time>
  </trkpt>
  <trkpt lat="33.765034" lon="-4.066663">
   <ele>1906.00</ele>
   <time>2014-03-30T13:19:48Z</time>
  </trkpt>
  <trkpt lat="33.765237" lon="-4.066523">
   <ele>1906.00</ele>
   <time>2014-03-30T13:19:50Z</time>
  </trkpt>
  <trkpt lat="33.765441" lon="-4.066409">
   <ele>1906.00</ele>
   <time>2014-03-30T13:19:52Z</time>
  </trkpt>
  <trkpt lat="33.765802" lon="-4.066211">
   <ele>1906.00</ele>
   <time>2014-03-30T13:19:56Z</time>
  </trkpt>
  <trkpt lat="33.765962" lon="-4.066021">
   <ele>1905.00</ele>
   <time>2014-03-30T13:19:59Z</time>
  </trkpt>
  <trkpt lat="33.765960" lon="-4.065739">
   <ele>1906.00</ele>
   <time>2014-03-30T13:20:02Z</time>
  </trkpt>
  <trkpt lat="33.765890" lon="-4.065438">
   <ele>1905.00</ele>
   <time>2014-03-30T13:20:05Z</time>
  </trkpt>
  <trkpt lat="33.765722" lon="-4.065276">
   <ele>1906.00</ele>
   <time>2014-03-30T13:20:08Z</time>
  </trkpt>
  <trkpt lat="33.765480" lon="-4.065362">
   <ele>1905.00</ele>
   <time>2014-03-30T13:20:11Z</time>
  </trkpt>
  <trkpt lat="33.765298" lon="-4.065463">
   <ele>1904.00</ele>
   <time>2014-03-30T13:20:13Z</time>
  </trkpt>
  <trkpt lat="33.765101" lon="-4.065522">
   <ele>1903.00</ele>
   <time>2014-03-30T13:20:15Z</time>
  </trkpt>
  <trkpt lat="33.764894" lon="-4.065528">
   <ele>1902.00</ele>
   <time>2014-03-30T13:20:17Z</time>
  </trkpt>
  <trkpt lat="33.764679" lon="-4.065498">
   <ele>1900.00</ele>
   <time>2014-03-30T13:20:19Z</time>
  </trkpt>
  <trkpt lat="33.764240" lon="-4.065417">
   <ele>1898.00</ele>
   <time>2014-03-30T13:20:23Z</time>
  </trkpt>
  <trkpt lat="33.764035" lon="-4.065425">
   <ele>1897.00</ele>
   <time>2014-03-30T13:20:25Z</time>
  </trkpt>
  <trkpt lat="33.763842" lon="-4.065499">
   <ele>1895.00</ele>
   <time>2014-03-30T13:20:27Z</time>
  </trkpt>
  <trkpt lat="33.763654" lon="-4.065613">
   <ele>1894.00</ele>
   <time>2014-03-30T13:20:29Z</time>
  </trkpt>
  <trkpt lat="33.763470" lon="-4.065735">
   <ele>1892.00</ele>
   <time>2014-03-30T13:20:31Z</time>
  </trkpt>
  <trkpt lat="33.763118" lon="-4.065933">
   <ele>1890.00</ele>
   <time>2014-03-30T13:20:35Z</time>
  </trkpt>
  <trkpt lat="33.762850" lon="-4.065933">
   <ele>1888.00</ele>
   <time>2014-03-30T13:20:38Z</time>
  </trkpt>
  <trkpt lat="33.762686" lon="-4.065843">
   <ele>1886.00</ele>
   <time>2014-03-30T13:20:40Z</time>
  </trkpt>
  <trkpt lat="33.762570" lon="-4.065590">
   <ele>1883.00</ele>
   <time>2014-03-30T13:20:43Z</time>
  </trkpt>
  <trkpt lat="33.762645" lon="-4.065319">
   <ele>1878.00</ele>
   <time>2014-03-30T13:20:46Z</time>
  </trkpt>
  <trkpt lat="33.762810" lon="-4.065186">
   <ele>1876.00</ele>
   <time>2014-03-30T13:20:48Z</time>
  </trkpt>
  <trkpt lat="33.762986" lon="-4.065065">
   <ele>1873.00</ele>
   <time>2014-03-30T13:20:50Z</time>
  </trkpt>
  <trkpt lat="33.763113" lon="-4.064885">
   <ele>1871.00</ele>
   <time>2014-03-30T13:20:52Z</time>
  </trkpt>
  <trkpt lat="33.763180" lon="-4.064651">
   <ele>1870.00</ele>
   <time>2014-03-30T13:20:54Z</time>
  </trkpt>
  <trkpt lat="33.763208" lon="-4.064394">
   <ele>1869.00</ele>
   <time>2014-03-30T13:20:56Z</time>
  </trkpt>
  <trkpt lat="33.763231" lon="-4.064016">
   <ele>1867.00</ele>
   <time>2014-03-30T13:20:59Z</time>
  </trkpt>
  <trkpt lat="33.763227" lon="-4.063797">
   <ele>1866.00</ele>
   <time>2014-03-30T13:21:01Z</time>
  </trkpt>
  <trkpt lat="33.763120" lon="-4.063511">
   <ele>1864.00</ele>
   <time>2014-03-30T13:21:04Z</time>
  </trkpt>
  <trkpt lat="33.762978" lon="-4.063375">
   <ele>1863.00</ele>
   <time>2014-03-30T13:21:06Z</time>
  </trkpt>
  <trkpt lat="33.762742" lon="-4.063287">
   <ele>1861.00</ele>
   <time>2014-03-30T13:21:09Z</time>
  </trkpt>
  <trkpt lat="33.762541" lon="-4.063415">
   <ele>1858.00</ele>
   <time>2014-03-30T13:21:12Z</time>
  </trkpt>
  <trkpt lat="33.762366" lon="-4.063650">
   <ele>1857.00</ele>
   <time>2014-03-30T13:21:15Z</time>
  </trkpt>
  <trkpt lat="33.762255" lon="-4.063832">
   <ele>1856.00</ele>
   <time>2014-03-30T13:21:17Z</time>
  </trkpt>
  <trkpt lat="33.762084" lon="-4.064107">
   <ele>1855.00</ele>
   <time>2014-03-30T13:21:20Z</time>
  </trkpt>
  <trkpt lat="33.761943" lon="-4.064258">
   <ele>1854.00</ele>
   <time>2014-03-30T13:21:22Z</time>
  </trkpt>
  <trkpt lat="33.761780" lon="-4.064386">
   <ele>1853.00</ele>
   <time>2014-03-30T13:21:24Z</time>
  </trkpt>
  <trkpt lat="33.761438" lon="-4.064650">
   <ele>1850.00</ele>
   <time>2014-03-30T13:21:28Z</time>
  </trkpt>
  <trkpt lat="33.761271" lon="-4.064800">
   <ele>1849.00</ele>
   <time>2014-03-30T13:21:30Z</time>
  </trkpt>
  <trkpt lat="33.761064" lon="-4.065009">
   <ele>1847.00</ele>
   <time>2014-03-30T13:21:33Z</time>
  </trkpt>
  <trkpt lat="33.760833" lon="-4.065076">
   <ele>1845.00</ele>
   <time>2014-03-30T13:21:36Z</time>
  </trkpt>
  <trkpt lat="33.760591" lon="-4.065173">
   <ele>1843.00</ele>
   <time>2014-03-30T13:21:39Z</time>
  </trkpt>
  <trkpt lat="33.760408" lon="-4.065384">
   <ele>1842.00</ele>
   <time>2014-03-30T13:21:42Z</time>
  </trkpt>
  <trkpt lat="33.760247" lon="-4.065536">
   <ele>1841.00</ele>
   <time>2014-03-30T13:21:45Z</time>
  </trkpt>
  <trkpt lat="33.760076" lon="-4.065479">
   <ele>1841.00</ele>
   <time>2014-03-30T13:21:48Z</time>
  </trkpt>
  <trkpt lat="33.759924" lon="-4.065272">
   <ele>1839.00</ele>
   <time>2014-03-30T13:21:51Z</time>
  </trkpt>
  <trkpt lat="33.759821" lon="-4.065089">
   <ele>1838.00</ele>
   <time>2014-03-30T13:21:53Z</time>
  </trkpt>
  <trkpt lat="33.759701" lon="-4.064913">
   <ele>1837.00</ele>
   <time>2014-03-30T13:21:55Z</time>
  </trkpt>
  <trkpt lat="33.759539" lon="-4.064795">
   <ele>1836.00</ele>
   <time>2014-03-30T13:21:57Z</time>
  </trkpt>
  <trkpt lat="33.759354" lon="-4.064715">
   <ele>1835.00</ele>
   <time>2014-03-30T13:21:59Z</time>
  </trkpt>
  <trkpt lat="33.759167" lon="-4.064650">
   <ele>1834.00</ele>
   <time>2014-03-30T13:22:01Z</time>
  </trkpt>
  <trkpt lat="33.758889" lon="-4.064550">
   <ele>1832.00</ele>
   <time>2014-03-30T13:22:04Z</time>
  </trkpt>
  <trkpt lat="33.758714" lon="-4.064479">
   <ele>1831.00</ele>
   <time>2014-03-30T13:22:06Z</time>
  </trkpt>
  <trkpt lat="33.758535" lon="-4.064444">
   <ele>1829.00</ele>
   <time>2014-03-30T13:22:08Z</time>
  </trkpt>
  <trkpt lat="33.758353" lon="-4.064461">
   <ele>1828.00</ele>
   <time>2014-03-30T13:22:10Z</time>
  </trkpt>
  <trkpt lat="33.758107" lon="-4.064392">
   <ele>1827.00</ele>
   <time>2014-03-30T13:22:13Z</time>
  </trkpt>
  <trkpt lat="33.757969" lon="-4.064168">
   <ele>1828.00</ele>
   <time>2014-03-30T13:22:16Z</time>
  </trkpt>
  <trkpt lat="33.757851" lon="-4.063923">
   <ele>1831.00</ele>
   <time>2014-03-30T13:22:19Z</time>
  </trkpt>
  <trkpt lat="33.757665" lon="-4.063726">
   <ele>1833.00</ele>
   <time>2014-03-30T13:22:22Z</time>
  </trkpt>
  <trkpt lat="33.757511" lon="-4.063610">
   <ele>1835.00</ele>
   <time>2014-03-30T13:22:24Z</time>
  </trkpt>
  <trkpt lat="33.757339" lon="-4.063500">
   <ele>1836.00</ele>
   <time>2014-03-30T13:22:26Z</time>
  </trkpt>
  <trkpt lat="33.757149" lon="-4.063408">
   <ele>1838.00</ele>
   <time>2014-03-30T13:22:28Z</time>
  </trkpt>
  <trkpt lat="33.756951" lon="-4.063344">
   <ele>1839.00</ele>
   <time>2014-03-30T13:22:30Z</time>
  </trkpt>
  <trkpt lat="33.756749" lon="-4.063316">
   <ele>1841.00</ele>
   <time>2014-03-30T13:22:32Z</time>
  </trkpt>
  <trkpt lat="33.756547" lon="-4.063341">
   <ele>1841.00</ele>
   <time>2014-03-30T13:22:34Z</time>
  </trkpt>
  <trkpt lat="33.756343" lon="-4.063420">
   <ele>1842.00</ele>
   <time>2014-03-30T13:22:36Z</time>
  </trkpt>
  <trkpt lat="33.756133" lon="-4.063541">
   <ele>1842.00</ele>
   <time>2014-03-30T13:22:38Z</time>
  </trkpt>
  <trkpt lat="33.755810" lon="-4.063754">
   <ele>1843.00</ele>
   <time>2014-03-30T13:22:41Z</time>
  </trkpt>
  <trkpt lat="33.755363" lon="-4.064050">
   <ele>1844.00</ele>
   <time>2014-03-30T13:22:45Z</time>
  </trkpt>
  <trkpt lat="33.755124" lon="-4.064135">
   <ele>1844.00</ele>
   <time>2014-03-30T13:22:47Z</time>
  </trkpt>
  <trkpt lat="33.754869" lon="-4.064123">
   <ele>1845.00</ele>
   <time>2014-03-30T13:22:49Z</time>
  </trkpt>
  <trkpt lat="33.754615" lon="-4.064055">
   <ele>1845.00</ele>
   <time>2014-03-30T13:22:51Z</time>
  </trkpt>
  <trkpt lat="33.754368" lon="-4.063993">
   <ele>1845.00</ele>
   <time>2014-03-30T13:22:53Z</time>
  </trkpt>
  <trkpt lat="33.754129" lon="-4.063991">
   <ele>1845.00</ele>
   <time>2014-03-30T13:22:55Z</time>
  </trkpt>
  <trkpt lat="33.753902" lon="-4.064086">
   <ele>1846.00</ele>
   <time>2014-03-30T13:22:57Z</time>
  </trkpt>
  <trkpt lat="33.753556" lon="-4.064267">
   <ele>1846.00</ele>
   <time>2014-03-30T13:23:00Z</time>
  </trkpt>
  <trkpt lat="33.753315" lon="-4.064338">
   <ele>1846.00</ele>
   <time>2014-03-30T13:23:02Z</time>
  </trkpt>
  <trkpt lat="33.753084" lon="-4.064361">
   <ele>1846.00</ele>
   <time>2014-03-30T13:23:04Z</time>
  </trkpt>
  <trkpt lat="33.752871" lon="-4.064384">
   <ele>1846.00</ele>
   <time>2014-03-30T13:23:06Z</time>
  </trkpt>
  <trkpt lat="33.752680" lon="-4.064493">
   <ele>1846.00</ele>
   <time>2014-03-30T13:23:08Z</time>
  </trkpt>
  <trkpt lat="33.752487" lon="-4.064648">
   <ele>1846.00</ele>
   <time>2014-03-30T13:23:10Z</time>
  </trkpt>
  <trkpt lat="33.752276" lon="-4.064814">
   <ele>1846.00</ele>
   <time>2014-03-30T13:23:12Z</time>
  </trkpt>
  <trkpt lat="33.752041" lon="-4.064964">
   <ele>1847.00</ele>
   <time>2014-03-30T13:23:14Z</time>
  </trkpt>
  <trkpt lat="33.751778" lon="-4.065084">
   <ele>1847.00</ele>
   <time>2014-03-30T13:23:16Z</time>
  </trkpt>
  <trkpt lat="33.751516" lon="-4.065181">
   <ele>1848.00</ele>
   <time>2014-03-30T13:23:18Z</time>
  </trkpt>
  <trkpt lat="33.750398" lon="-4.065536">
   <ele>1851.00</ele>
   <time>2014-03-30T13:23:27Z</time>
  </trkpt>
  <trkpt lat="33.750135" lon="-4.065582">
   <ele>1851.00</ele>
   <time>2014-03-30T13:23:29Z</time>
  </trkpt>
  <trkpt lat="33.749879" lon="-4.065572">
   <ele>1852.00</ele>
   <time>2014-03-30T13:23:31Z</time>
  </trkpt>
  <trkpt lat="33.749649" lon="-4.065517">
   <ele>1853.00</ele>
   <time>2014-03-30T13:23:33Z</time>
  </trkpt>
  <trkpt lat="33.749385" lon="-4.065433">
   <ele>1854.00</ele>
   <time>2014-03-30T13:23:36Z</time>
  </trkpt>
  <trkpt lat="33.749199" lon="-4.065387">
   <ele>1854.00</ele>
   <time>2014-03-30T13:23:39Z</time>
  </trkpt>
  <trkpt lat="33.748864" lon="-4.065238">
   <ele>1856.00</ele>
   <time>2014-03-30T13:23:44Z</time>
  </trkpt>
  <trkpt lat="33.748634" lon="-4.065173">
   <ele>1857.00</ele>
   <time>2014-03-30T13:23:47Z</time>
  </trkpt>
  <trkpt lat="33.748002" lon="-4.064999">
   <ele>1860.00</ele>
   <time>2014-03-30T13:23:54Z</time>
  </trkpt>
  <trkpt lat="33.747601" lon="-4.064878">
   <ele>1862.00</ele>
   <time>2014-03-30T13:23:59Z</time>
  </trkpt>
  <trkpt lat="33.747338" lon="-4.064919">
   <ele>1862.00</ele>
   <time>2014-03-30T13:24:02Z</time>
  </trkpt>
  <trkpt lat="33.747167" lon="-4.065010">
   <ele>1864.00</ele>
   <time>2014-03-30T13:24:04Z</time>
  </trkpt>
  <trkpt lat="33.746997" lon="-4.065132">
   <ele>1864.00</ele>
   <time>2014-03-30T13:24:06Z</time>
  </trkpt>
  <trkpt lat="33.746720" lon="-4.065342">
   <ele>1865.00</ele>
   <time>2014-03-30T13:24:09Z</time>
  </trkpt>
  <trkpt lat="33.746514" lon="-4.065466">
   <ele>1866.00</ele>
   <time>2014-03-30T13:24:11Z</time>
  </trkpt>
  <trkpt lat="33.746294" lon="-4.065540">
   <ele>1867.00</ele>
   <time>2014-03-30T13:24:13Z</time>
  </trkpt>
  <trkpt lat="33.746066" lon="-4.065560">
   <ele>1868.00</ele>
   <time>2014-03-30T13:24:15Z</time>
  </trkpt>
  <trkpt lat="33.745837" lon="-4.065581">
   <ele>1869.00</ele>
   <time>2014-03-30T13:24:17Z</time>
  </trkpt>
  <trkpt lat="33.745615" lon="-4.065672">
   <ele>1870.00</ele>
   <time>2014-03-30T13:24:19Z</time>
  </trkpt>
  <trkpt lat="33.745405" lon="-4.065823">
   <ele>1871.00</ele>
   <time>2014-03-30T13:24:21Z</time>
  </trkpt>
  <trkpt lat="33.745218" lon="-4.066004">
   <ele>1873.00</ele>
   <time>2014-03-30T13:24:23Z</time>
  </trkpt>
  <trkpt lat="33.745048" lon="-4.066202">
   <ele>1874.00</ele>
   <time>2014-03-30T13:24:25Z</time>
  </trkpt>
  <trkpt lat="33.744882" lon="-4.066423">
   <ele>1875.00</ele>
   <time>2014-03-30T13:24:27Z</time>
  </trkpt>
  <trkpt lat="33.744724" lon="-4.066661">
   <ele>1877.00</ele>
   <time>2014-03-30T13:24:29Z</time>
  </trkpt>
  <trkpt lat="33.744475" lon="-4.067037">
   <ele>1879.00</ele>
   <time>2014-03-30T13:24:32Z</time>
  </trkpt>
  <trkpt lat="33.744281" lon="-4.067282">
   <ele>1881.00</ele>
   <time>2014-03-30T13:24:34Z</time>
  </trkpt>
  <trkpt lat="33.742744" lon="-4.069055">
   <ele>1889.00</ele>
   <time>2014-03-30T13:24:49Z</time>
  </trkpt>
  <trkpt lat="33.741999" lon="-4.069892">
   <ele>1891.00</ele>
   <time>2014-03-30T13:24:56Z</time>
  </trkpt>
  <trkpt lat="33.741582" lon="-4.070345">
   <ele>1891.00</ele>
   <time>2014-03-30T13:25:00Z</time>
  </trkpt>
  <trkpt lat="33.740719" lon="-4.071390">
   <ele>1891.00</ele>
   <time>2014-03-30T13:25:09Z</time>
  </trkpt>
  <trkpt lat="33.740589" lon="-4.071590">
   <ele>1891.00</ele>
   <time>2014-03-30T13:25:11Z</time>
  </trkpt>
  <trkpt lat="33.740463" lon="-4.071858">
   <ele>1891.00</ele>
   <time>2014-03-30T13:25:14Z</time>
  </trkpt>
  <trkpt lat="33.739850" lon="-4.073288">
   <ele>1891.00</ele>
   <time>2014-03-30T13:25:29Z</time>
  </trkpt>
  <trkpt lat="33.739674" lon="-4.073691">
   <ele>1892.00</ele>
   <time>2014-03-30T13:25:32Z</time>
  </trkpt>
  <trkpt lat="33.739542" lon="-4.073930">
   <ele>1893.00</ele>
   <time>2014-03-30T13:25:34Z</time>
  </trkpt>
  <trkpt lat="33.739376" lon="-4.074110">
   <ele>1894.00</ele>
   <time>2014-03-30T13:25:36Z</time>
  </trkpt>
  <trkpt lat="33.739172" lon="-4.074222">
   <ele>1895.00</ele>
   <time>2014-03-30T13:25:38Z</time>
  </trkpt>
  <trkpt lat="33.738935" lon="-4.074258">
   <ele>1896.00</ele>
   <time>2014-03-30T13:25:40Z</time>
  </trkpt>
  <trkpt lat="33.738696" lon="-4.074252">
   <ele>1898.00</ele>
   <time>2014-03-30T13:25:42Z</time>
  </trkpt>
  <trkpt lat="33.738257" lon="-4.074237">
   <ele>1900.00</ele>
   <time>2014-03-30T13:25:46Z</time>
  </trkpt>
  <trkpt lat="33.738028" lon="-4.074258">
   <ele>1900.00</ele>
   <time>2014-03-30T13:25:48Z</time>
  </trkpt>
  <trkpt lat="33.737789" lon="-4.074293">
   <ele>1901.00</ele>
   <time>2014-03-30T13:25:50Z</time>
  </trkpt>
  <trkpt lat="33.737541" lon="-4.074347">
   <ele>1902.00</ele>
   <time>2014-03-30T13:25:52Z</time>
  </trkpt>
  <trkpt lat="33.736617" lon="-4.074566">
   <ele>1905.00</ele>
   <time>2014-03-30T13:25:59Z</time>
  </trkpt>
  <trkpt lat="33.736359" lon="-4.074542">
   <ele>1906.00</ele>
   <time>2014-03-30T13:26:01Z</time>
  </trkpt>
  <trkpt lat="33.736126" lon="-4.074431">
   <ele>1907.00</ele>
   <time>2014-03-30T13:26:03Z</time>
  </trkpt>
  <trkpt lat="33.735805" lon="-4.074251">
   <ele>1908.00</ele>
   <time>2014-03-30T13:26:06Z</time>
  </trkpt>
  <trkpt lat="33.735582" lon="-4.074202">
   <ele>1909.00</ele>
   <time>2014-03-30T13:26:08Z</time>
  </trkpt>
  <trkpt lat="33.735348" lon="-4.074227">
   <ele>1910.00</ele>
   <time>2014-03-30T13:26:10Z</time>
  </trkpt>
  <trkpt lat="33.734075" lon="-4.074455">
   <ele>1915.00</ele>
   <time>2014-03-30T13:26:19Z</time>
  </trkpt>
  <trkpt lat="33.733778" lon="-4.074483">
   <ele>1916.00</ele>
   <time>2014-03-30T13:26:21Z</time>
  </trkpt>
  <trkpt lat="33.733479" lon="-4.074483">
   <ele>1917.00</ele>
   <time>2014-03-30T13:26:23Z</time>
  </trkpt>
  <trkpt lat="33.733045" lon="-4.074450">
   <ele>1918.00</ele>
   <time>2014-03-30T13:26:26Z</time>
  </trkpt>
  <trkpt lat="33.730652" lon="-4.074200">
   <ele>1928.00</ele>
   <time>2014-03-30T13:26:41Z</time>
  </trkpt>
  <trkpt lat="33.728753" lon="-4.074012">
   <ele>1938.00</ele>
   <time>2014-03-30T13:26:57Z</time>
  </trkpt>
  <trkpt lat="33.727953" lon="-4.073948">
   <ele>1944.00</ele>
   <time>2014-03-30T13:27:04Z</time>
  </trkpt>
  <trkpt lat="33.727715" lon="-4.073968">
   <ele>1945.00</ele>
   <time>2014-03-30T13:27:06Z</time>
  </trkpt>
  <trkpt lat="33.727478" lon="-4.074049">
   <ele>1946.00</ele>
   <time>2014-03-30T13:27:08Z</time>
  </trkpt>
  <trkpt lat="33.727243" lon="-4.074156">
   <ele>1946.00</ele>
   <time>2014-03-30T13:27:10Z</time>
  </trkpt>
  <trkpt lat="33.726768" lon="-4.074369">
   <ele>1946.00</ele>
   <time>2014-03-30T13:27:14Z</time>
  </trkpt>
  <trkpt lat="33.726520" lon="-4.074426">
   <ele>1947.00</ele>
   <time>2014-03-30T13:27:16Z</time>
  </trkpt>
  <trkpt lat="33.726274" lon="-4.074422">
   <ele>1947.00</ele>
   <time>2014-03-30T13:27:18Z</time>
  </trkpt>
  <trkpt lat="33.726035" lon="-4.074441">
   <ele>1947.00</ele>
   <time>2014-03-30T13:27:20Z</time>
  </trkpt>
  <trkpt lat="33.725802" lon="-4.074532">
   <ele>1948.00</ele>
   <time>2014-03-30T13:27:22Z</time>
  </trkpt>
  <trkpt lat="33.725590" lon="-4.074690">
   <ele>1948.00</ele>
   <time>2014-03-30T13:27:24Z</time>
  </trkpt>
  <trkpt lat="33.725419" lon="-4.074902">
   <ele>1948.00</ele>
   <time>2014-03-30T13:27:26Z</time>
  </trkpt>
  <trkpt lat="33.725044" lon="-4.075447">
   <ele>1952.00</ele>
   <time>2014-03-30T13:27:31Z</time>
  </trkpt>
  <trkpt lat="33.724875" lon="-4.075651">
   <ele>1954.00</ele>
   <time>2014-03-30T13:27:33Z</time>
  </trkpt>
  <trkpt lat="33.724607" lon="-4.075935">
   <ele>1958.00</ele>
   <time>2014-03-30T13:27:36Z</time>
  </trkpt>
  <trkpt lat="33.724431" lon="-4.076128">
   <ele>1960.00</ele>
   <time>2014-03-30T13:27:38Z</time>
  </trkpt>
  <trkpt lat="33.724280" lon="-4.076333">
   <ele>1962.00</ele>
   <time>2014-03-30T13:27:40Z</time>
  </trkpt>
  <trkpt lat="33.724176" lon="-4.076565">
   <ele>1964.00</ele>
   <time>2014-03-30T13:27:42Z</time>
  </trkpt>
  <trkpt lat="33.724119" lon="-4.076813">
   <ele>1965.00</ele>
   <time>2014-03-30T13:27:44Z</time>
  </trkpt>
  <trkpt lat="33.724038" lon="-4.077204">
   <ele>1965.00</ele>
   <time>2014-03-30T13:27:47Z</time>
  </trkpt>
  <trkpt lat="33.723945" lon="-4.077456">
   <ele>1965.00</ele>
   <time>2014-03-30T13:27:49Z</time>
  </trkpt>
  <trkpt lat="33.723812" lon="-4.077679">
   <ele>1965.00</ele>
   <time>2014-03-30T13:27:51Z</time>
  </trkpt>
  <trkpt lat="33.723630" lon="-4.077863">
   <ele>1965.00</ele>
   <time>2014-03-30T13:27:53Z</time>
  </trkpt>
  <trkpt lat="33.723413" lon="-4.078025">
   <ele>1964.00</ele>
   <time>2014-03-30T13:27:55Z</time>
  </trkpt>
  <trkpt lat="33.723185" lon="-4.078201">
   <ele>1963.00</ele>
   <time>2014-03-30T13:27:57Z</time>
  </trkpt>
  <trkpt lat="33.722969" lon="-4.078413">
   <ele>1962.00</ele>
   <time>2014-03-30T13:27:59Z</time>
  </trkpt>
  <trkpt lat="33.722782" lon="-4.078659">
   <ele>1962.00</ele>
   <time>2014-03-30T13:28:01Z</time>
  </trkpt>
  <trkpt lat="33.722618" lon="-4.078925">
   <ele>1962.00</ele>
   <time>2014-03-30T13:28:03Z</time>
  </trkpt>
  <trkpt lat="33.722464" lon="-4.079182">
   <ele>1962.00</ele>
   <time>2014-03-30T13:28:05Z</time>
  </trkpt>
  <trkpt lat="33.722279" lon="-4.079387">
   <ele>1963.00</ele>
   <time>2014-03-30T13:28:07Z</time>
  </trkpt>
  <trkpt lat="33.722055" lon="-4.079536">
   <ele>1964.00</ele>
   <time>2014-03-30T13:28:09Z</time>
  </trkpt>
  <trkpt lat="33.721420" lon="-4.079889">
   <ele>1966.00</ele>
   <time>2014-03-30T13:28:14Z</time>
  </trkpt>
  <trkpt lat="33.721192" lon="-4.080062">
   <ele>1968.00</ele>
   <time>2014-03-30T13:28:16Z</time>
  </trkpt>
  <trkpt lat="33.720996" lon="-4.080270">
   <ele>1969.00</ele>
   <time>2014-03-30T13:28:18Z</time>
  </trkpt>
  <trkpt lat="33.720828" lon="-4.080508">
   <ele>1971.00</ele>
   <time>2014-03-30T13:28:20Z</time>
  </trkpt>
  <trkpt lat="33.720505" lon="-4.081005">
   <ele>1974.00</ele>
   <time>2014-03-30T13:28:24Z</time>
  </trkpt>
  <trkpt lat="33.720320" lon="-4.081233">
   <ele>1975.00</ele>
   <time>2014-03-30T13:28:26Z</time>
  </trkpt>
  <trkpt lat="33.720118" lon="-4.081429">
   <ele>1977.00</ele>
   <time>2014-03-30T13:28:28Z</time>
  </trkpt>
  <trkpt lat="33.719905" lon="-4.081594">
   <ele>1979.00</ele>
   <time>2014-03-30T13:28:30Z</time>
  </trkpt>
  <trkpt lat="33.719678" lon="-4.081727">
   <ele>1981.00</ele>
   <time>2014-03-30T13:28:32Z</time>
  </trkpt>
  <trkpt lat="33.719437" lon="-4.081826">
   <ele>1983.00</ele>
   <time>2014-03-30T13:28:34Z</time>
  </trkpt>
  <trkpt lat="33.719184" lon="-4.081895">
   <ele>1985.00</ele>
   <time>2014-03-30T13:28:36Z</time>
  </trkpt>
  <trkpt lat="33.718921" lon="-4.081943">
   <ele>1987.00</ele>
   <time>2014-03-30T13:28:38Z</time>
  </trkpt>
  <trkpt lat="33.718099" lon="-4.082073">
   <ele>1991.00</ele>
   <time>2014-03-30T13:28:44Z</time>
  </trkpt>
  <trkpt lat="33.717834" lon="-4.082140">
   <ele>1991.00</ele>
   <time>2014-03-30T13:28:46Z</time>
  </trkpt>
  <trkpt lat="33.717468" lon="-4.082254">
   <ele>1992.00</ele>
   <time>2014-03-30T13:28:49Z</time>
  </trkpt>
  <trkpt lat="33.717238" lon="-4.082340">
   <ele>1992.00</ele>
   <time>2014-03-30T13:28:51Z</time>
  </trkpt>
  <trkpt lat="33.717007" lon="-4.082462">
   <ele>1992.00</ele>
   <time>2014-03-30T13:28:53Z</time>
  </trkpt>
  <trkpt lat="33.716789" lon="-4.082638">
   <ele>1991.00</ele>
   <time>2014-03-30T13:28:55Z</time>
  </trkpt>
  <trkpt lat="33.716595" lon="-4.082849">
   <ele>1992.00</ele>
   <time>2014-03-30T13:28:57Z</time>
  </trkpt>
  <trkpt lat="33.716433" lon="-4.083083">
   <ele>1992.00</ele>
   <time>2014-03-30T13:28:59Z</time>
  </trkpt>
  <trkpt lat="33.716277" lon="-4.083322">
   <ele>1992.00</ele>
   <time>2014-03-30T13:29:01Z</time>
  </trkpt>
  <trkpt lat="33.715464" lon="-4.084596">
   <ele>1996.00</ele>
   <time>2014-03-30T13:29:12Z</time>
  </trkpt>
  <trkpt lat="33.715223" lon="-4.084942">
   <ele>1996.00</ele>
   <time>2014-03-30T13:29:17Z</time>
  </trkpt>
  <trkpt lat="33.714730" lon="-4.085764">
   <ele>1997.00</ele>
   <time>2014-03-30T13:29:26Z</time>
  </trkpt>
  <trkpt lat="33.714482" lon="-4.086218">
   <ele>1997.00</ele>
   <time>2014-03-30T13:29:30Z</time>
  </trkpt>
  <trkpt lat="33.713616" lon="-4.087935">
   <ele>1998.00</ele>
   <time>2014-03-30T13:29:45Z</time>
  </trkpt>
  <trkpt lat="33.712890" lon="-4.089341">
   <ele>1998.00</ele>
   <time>2014-03-30T13:29:55Z</time>
  </trkpt>
  <trkpt lat="33.712720" lon="-4.089605">
   <ele>1999.00</ele>
   <time>2014-03-30T13:29:57Z</time>
  </trkpt>
  <trkpt lat="33.712521" lon="-4.089849">
   <ele>2000.00</ele>
   <time>2014-03-30T13:29:59Z</time>
  </trkpt>
  <trkpt lat="33.712294" lon="-4.090071">
   <ele>2001.00</ele>
   <time>2014-03-30T13:30:01Z</time>
  </trkpt>
  <trkpt lat="33.712048" lon="-4.090279">
   <ele>2002.00</ele>
   <time>2014-03-30T13:30:03Z</time>
  </trkpt>
  <trkpt lat="33.711544" lon="-4.090671">
   <ele>2005.00</ele>
   <time>2014-03-30T13:30:07Z</time>
  </trkpt>
  <trkpt lat="33.711199" lon="-4.090942">
   <ele>2007.00</ele>
   <time>2014-03-30T13:30:10Z</time>
  </trkpt>
  <trkpt lat="33.710677" lon="-4.091361">
   <ele>2010.00</ele>
   <time>2014-03-30T13:30:15Z</time>
  </trkpt>
  <trkpt lat="33.710480" lon="-4.091561">
   <ele>2011.00</ele>
   <time>2014-03-30T13:30:17Z</time>
  </trkpt>
  <trkpt lat="33.710301" lon="-4.091801">
   <ele>2011.00</ele>
   <time>2014-03-30T13:30:19Z</time>
  </trkpt>
  <trkpt lat="33.710143" lon="-4.092072">
   <ele>2011.00</ele>
   <time>2014-03-30T13:30:21Z</time>
  </trkpt>
  <trkpt lat="33.710006" lon="-4.092349">
   <ele>2012.00</ele>
   <time>2014-03-30T13:30:23Z</time>
  </trkpt>
  <trkpt lat="33.709742" lon="-4.092928">
   <ele>2013.00</ele>
   <time>2014-03-30T13:30:27Z</time>
  </trkpt>
  <trkpt lat="33.708680" lon="-4.095254">
   <ele>2014.00</ele>
   <time>2014-03-30T13:30:43Z</time>
  </trkpt>
  <trkpt lat="33.708063" lon="-4.096613">
   <ele>2016.00</ele>
   <time>2014-03-30T13:30:58Z</time>
  </trkpt>
  <trkpt lat="33.707425" lon="-4.098028">
   <ele>2015.00</ele>
   <time>2014-03-30T13:31:13Z</time>
  </trkpt>
  <trkpt lat="33.706763" lon="-4.099440">
   <ele>2016.00</ele>
   <time>2014-03-30T13:31:23Z</time>
  </trkpt>
  <trkpt lat="33.706606" lon="-4.099723">
   <ele>2016.00</ele>
   <time>2014-03-30T13:31:25Z</time>
  </trkpt>
  <trkpt lat="33.706431" lon="-4.099989">
   <ele>2017.00</ele>
   <time>2014-03-30T13:31:27Z</time>
  </trkpt>
  <trkpt lat="33.706236" lon="-4.100248">
   <ele>2018.00</ele>
   <time>2014-03-30T13:31:29Z</time>
  </trkpt>
  <trkpt lat="33.706029" lon="-4.100486">
   <ele>2019.00</ele>
   <time>2014-03-30T13:31:31Z</time>
  </trkpt>
  <trkpt lat="33.705819" lon="-4.100701">
   <ele>2020.00</ele>
   <time>2014-03-30T13:31:33Z</time>
  </trkpt>
  <trkpt lat="33.704303" lon="-4.102169">
   <ele>2027.00</ele>
   <time>2014-03-30T13:31:48Z</time>
  </trkpt>
  <trkpt lat="33.703406" lon="-4.103032">
   <ele>2032.00</ele>
   <time>2014-03-30T13:31:57Z</time>
  </trkpt>
  <trkpt lat="33.703206" lon="-4.103190">
   <ele>2033.00</ele>
   <time>2014-03-30T13:31:59Z</time>
  </trkpt>
  <trkpt lat="33.702998" lon="-4.103332">
   <ele>2034.00</ele>
   <time>2014-03-30T13:32:01Z</time>
  </trkpt>
  <trkpt lat="33.702788" lon="-4.103456">
   <ele>2035.00</ele>
   <time>2014-03-30T13:32:03Z</time>
  </trkpt>
  <trkpt lat="33.702569" lon="-4.103559">
   <ele>2036.00</ele>
   <time>2014-03-30T13:32:05Z</time>
  </trkpt>
  <trkpt lat="33.702339" lon="-4.103643">
   <ele>2037.00</ele>
   <time>2014-03-30T13:32:07Z</time>
  </trkpt>
  <trkpt lat="33.702098" lon="-4.103709">
   <ele>2038.00</ele>
   <time>2014-03-30T13:32:09Z</time>
  </trkpt>
  <trkpt lat="33.701848" lon="-4.103759">
   <ele>2039.00</ele>
   <time>2014-03-30T13:32:11Z</time>
  </trkpt>
  <trkpt lat="33.701589" lon="-4.103790">
   <ele>2040.00</ele>
   <time>2014-03-30T13:32:13Z</time>
  </trkpt>
  <trkpt lat="33.701324" lon="-4.103799">
   <ele>2041.00</ele>
   <time>2014-03-30T13:32:15Z</time>
  </trkpt>
  <trkpt lat="33.700781" lon="-4.103783">
   <ele>2043.00</ele>
   <time>2014-03-30T13:32:19Z</time>
  </trkpt>
  <trkpt lat="33.698640" lon="-4.103708">
   <ele>2052.00</ele>
   <time>2014-03-30T13:32:34Z</time>
  </trkpt>
  <trkpt lat="33.697055" lon="-4.103677">
   <ele>2060.00</ele>
   <time>2014-03-30T13:32:46Z</time>
  </trkpt>
  <trkpt lat="33.696771" lon="-4.103693">
   <ele>2061.00</ele>
   <time>2014-03-30T13:32:48Z</time>
  </trkpt>
  <trkpt lat="33.696486" lon="-4.103736">
   <ele>2062.00</ele>
   <time>2014-03-30T13:32:50Z</time>
  </trkpt>
  <trkpt lat="33.696204" lon="-4.103800">
   <ele>2063.00</ele>
   <time>2014-03-30T13:32:52Z</time>
  </trkpt>
  <trkpt lat="33.695928" lon="-4.103888">
   <ele>2064.00</ele>
   <time>2014-03-30T13:32:54Z</time>
  </trkpt>
  <trkpt lat="33.695660" lon="-4.104002">
   <ele>2065.00</ele>
   <time>2014-03-30T13:32:56Z</time>
  </trkpt>
  <trkpt lat="33.695286" lon="-4.104189">
   <ele>2067.00</ele>
   <time>2014-03-30T13:32:59Z</time>
  </trkpt>
  <trkpt lat="33.695058" lon="-4.104346">
   <ele>2069.00</ele>
   <time>2014-03-30T13:33:01Z</time>
  </trkpt>
  <trkpt lat="33.693824" lon="-4.105305">
   <ele>2078.00</ele>
   <time>2014-03-30T13:33:13Z</time>
  </trkpt>
  <trkpt lat="33.693600" lon="-4.105493">
   <ele>2080.00</ele>
   <time>2014-03-30T13:33:16Z</time>
  </trkpt>
  <trkpt lat="33.693445" lon="-4.105646">
   <ele>2081.00</ele>
   <time>2014-03-30T13:33:18Z</time>
  </trkpt>
  <trkpt lat="33.693298" lon="-4.105827">
   <ele>2082.00</ele>
   <time>2014-03-30T13:33:20Z</time>
  </trkpt>
  <trkpt lat="33.693163" lon="-4.106018">
   <ele>2083.00</ele>
   <time>2014-03-30T13:33:22Z</time>
  </trkpt>
  <trkpt lat="33.693040" lon="-4.106246">
   <ele>2084.00</ele>
   <time>2014-03-30T13:33:25Z</time>
  </trkpt>
  <trkpt lat="33.692961" lon="-4.106470">
   <ele>2084.00</ele>
   <time>2014-03-30T13:33:29Z</time>
  </trkpt>
  <trkpt lat="33.692746" lon="-4.107159">
   <ele>2085.00</ele>
   <time>2014-03-30T13:33:38Z</time>
  </trkpt>
  <trkpt lat="33.692500" lon="-4.108053">
   <ele>2088.00</ele>
   <time>2014-03-30T13:33:54Z</time>
  </trkpt>
  <trkpt lat="33.692362" lon="-4.108460">
   <ele>2088.00</ele>
   <time>2014-03-30T13:33:58Z</time>
  </trkpt>
  <trkpt lat="33.692265" lon="-4.108684">
   <ele>2087.00</ele>
   <time>2014-03-30T13:34:00Z</time>
  </trkpt>
  <trkpt lat="33.692143" lon="-4.108906">
   <ele>2087.00</ele>
   <time>2014-03-30T13:34:02Z</time>
  </trkpt>
  <trkpt lat="33.692001" lon="-4.109122">
   <ele>2087.00</ele>
   <time>2014-03-30T13:34:04Z</time>
  </trkpt>
  <trkpt lat="33.691462" lon="-4.109897">
   <ele>2089.00</ele>
   <time>2014-03-30T13:34:11Z</time>
  </trkpt>
  <trkpt lat="33.691031" lon="-4.110475">
   <ele>2092.00</ele>
   <time>2014-03-30T13:34:17Z</time>
  </trkpt>
  <trkpt lat="33.690881" lon="-4.110629">
   <ele>2094.00</ele>
   <time>2014-03-30T13:34:19Z</time>
  </trkpt>
  <trkpt lat="33.690715" lon="-4.110726">
   <ele>2096.00</ele>
   <time>2014-03-30T13:34:21Z</time>
  </trkpt>
  <trkpt lat="33.690459" lon="-4.110754">
   <ele>2098.00</ele>
   <time>2014-03-30T13:34:24Z</time>
  </trkpt>
  <trkpt lat="33.690228" lon="-4.110673">
   <ele>2100.00</ele>
   <time>2014-03-30T13:34:27Z</time>
  </trkpt>
  <trkpt lat="33.690034" lon="-4.110466">
   <ele>2102.00</ele>
   <time>2014-03-30T13:34:30Z</time>
  </trkpt>
  <trkpt lat="33.689944" lon="-4.110272">
   <ele>2103.00</ele>
   <time>2014-03-30T13:34:32Z</time>
  </trkpt>
  <trkpt lat="33.689902" lon="-4.110058">
   <ele>2104.00</ele>
   <time>2014-03-30T13:34:34Z</time>
  </trkpt>
  <trkpt lat="33.689868" lon="-4.109757">
   <ele>2107.00</ele>
   <time>2014-03-30T13:34:37Z</time>
  </trkpt>
  <trkpt lat="33.689762" lon="-4.109522">
   <ele>2108.00</ele>
   <time>2014-03-30T13:34:40Z</time>
  </trkpt>
  <trkpt lat="33.689563" lon="-4.109370">
   <ele>2110.00</ele>
   <time>2014-03-30T13:34:43Z</time>
  </trkpt>
  <trkpt lat="33.689330" lon="-4.109256">
   <ele>2113.00</ele>
   <time>2014-03-30T13:34:46Z</time>
  </trkpt>
  <trkpt lat="33.689155" lon="-4.109203">
   <ele>2114.00</ele>
   <time>2014-03-30T13:34:48Z</time>
  </trkpt>
  <trkpt lat="33.688965" lon="-4.109160">
   <ele>2116.00</ele>
   <time>2014-03-30T13:34:50Z</time>
  </trkpt>
  <trkpt lat="33.688669" lon="-4.109100">
   <ele>2118.00</ele>
   <time>2014-03-30T13:34:53Z</time>
  </trkpt>
  <trkpt lat="33.688483" lon="-4.109030">
   <ele>2120.00</ele>
   <time>2014-03-30T13:34:55Z</time>
  </trkpt>
  <trkpt lat="33.688324" lon="-4.108902">
   <ele>2122.00</ele>
   <time>2014-03-30T13:34:57Z</time>
  </trkpt>
  <trkpt lat="33.688213" lon="-4.108723">
   <ele>2124.00</ele>
   <time>2014-03-30T13:34:59Z</time>
  </trkpt>
  <trkpt lat="33.688098" lon="-4.108450">
   <ele>2126.00</ele>
   <time>2014-03-30T13:35:02Z</time>
  </trkpt>
  <trkpt lat="33.687927" lon="-4.108243">
   <ele>2128.00</ele>
   <time>2014-03-30T13:35:05Z</time>
  </trkpt>
  <trkpt lat="33.687705" lon="-4.108081">
   <ele>2130.00</ele>
   <time>2014-03-30T13:35:08Z</time>
  </trkpt>
  <trkpt lat="33.687482" lon="-4.107968">
   <ele>2132.00</ele>
   <time>2014-03-30T13:35:11Z</time>
  </trkpt>
  <trkpt lat="33.687229" lon="-4.107956">
   <ele>2134.00</ele>
   <time>2014-03-30T13:35:14Z</time>
  </trkpt>
  <trkpt lat="33.686946" lon="-4.107971">
   <ele>2135.00</ele>
   <time>2014-03-30T13:35:17Z</time>
  </trkpt>
  <trkpt lat="33.686660" lon="-4.107978">
   <ele>2138.00</ele>
   <time>2014-03-30T13:35:20Z</time>
  </trkpt>
  <trkpt lat="33.686467" lon="-4.108004">
   <ele>2139.00</ele>
   <time>2014-03-30T13:35:22Z</time>
  </trkpt>
  <trkpt lat="33.686290" lon="-4.108050">
   <ele>2141.00</ele>
   <time>2014-03-30T13:35:24Z</time>
  </trkpt>
  <trkpt lat="33.686069" lon="-4.108196">
   <ele>2143.00</ele>
   <time>2014-03-30T13:35:27Z</time>
  </trkpt>
  <trkpt lat="33.685893" lon="-4.108438">
   <ele>2145.00</ele>
   <time>2014-03-30T13:35:30Z</time>
  </trkpt>
  <trkpt lat="33.685792" lon="-4.108631">
   <ele>2146.00</ele>
   <time>2014-03-30T13:35:32Z</time>
  </trkpt>
  <trkpt lat="33.685709" lon="-4.108834">
   <ele>2148.00</ele>
   <time>2014-03-30T13:35:34Z</time>
  </trkpt>
  <trkpt lat="33.685629" lon="-4.109117">
   <ele>2149.00</ele>
   <time>2014-03-30T13:35:37Z</time>
  </trkpt>
  <trkpt lat="33.685585" lon="-4.109341">
   <ele>2151.00</ele>
   <time>2014-03-30T13:35:40Z</time>
  </trkpt>
  <trkpt lat="33.685588" lon="-4.109604">
   <ele>2150.00</ele>
   <time>2014-03-30T13:35:44Z</time>
  </trkpt>
  <trkpt lat="33.685698" lon="-4.109851">
   <ele>2150.00</ele>
   <time>2014-03-30T13:35:48Z</time>
  </trkpt>
  <trkpt lat="33.685825" lon="-4.110019">
   <ele>2149.00</ele>
   <time>2014-03-30T13:35:51Z</time>
  </trkpt>
  <trkpt lat="33.686178" lon="-4.110482">
   <ele>2146.00</ele>
   <time>2014-03-30T13:35:59Z</time>
  </trkpt>
  <trkpt lat="33.686309" lon="-4.110675">
   <ele>2146.00</ele>
   <time>2014-03-30T13:36:02Z</time>
  </trkpt>
  <trkpt lat="33.686432" lon="-4.110868">
   <ele>2145.00</ele>
   <time>2014-03-30T13:36:05Z</time>
  </trkpt>
  <trkpt lat="33.686527" lon="-4.111082">
   <ele>2144.00</ele>
   <time>2014-03-30T13:36:08Z</time>
  </trkpt>
  <trkpt lat="33.686598" lon="-4.111333">
   <ele>2143.00</ele>
   <time>2014-03-30T13:36:11Z</time>
  </trkpt>
  <trkpt lat="33.686676" lon="-4.111598">
   <ele>2143.00</ele>
   <time>2014-03-30T13:36:14Z</time>
  </trkpt>
  <trkpt lat="33.686777" lon="-4.111851">
   <ele>2142.00</ele>
   <time>2014-03-30T13:36:17Z</time>
  </trkpt>
  <trkpt lat="33.686929" lon="-4.112065">
   <ele>2141.00</ele>
   <time>2014-03-30T13:36:20Z</time>
  </trkpt>
  <trkpt lat="33.687135" lon="-4.112216">
   <ele>2140.00</ele>
   <time>2014-03-30T13:36:23Z</time>
  </trkpt>
  <trkpt lat="33.687501" lon="-4.112394">
   <ele>2138.00</ele>
   <time>2014-03-30T13:36:28Z</time>
  </trkpt>
  <trkpt lat="33.687673" lon="-4.112530">
   <ele>2138.00</ele>
   <time>2014-03-30T13:36:31Z</time>
  </trkpt>
  <trkpt lat="33.687792" lon="-4.112731">
   <ele>2137.00</ele>
   <time>2014-03-30T13:36:34Z</time>
  </trkpt>
  <trkpt lat="33.687841" lon="-4.112979">
   <ele>2136.00</ele>
   <time>2014-03-30T13:36:37Z</time>
  </trkpt>
  <trkpt lat="33.687830" lon="-4.113260">
   <ele>2135.00</ele>
   <time>2014-03-30T13:36:40Z</time>
  </trkpt>
  <trkpt lat="33.687823" lon="-4.113529">
   <ele>2134.00</ele>
   <time>2014-03-30T13:36:43Z</time>
  </trkpt>
  <trkpt lat="33.687820" lon="-4.113663">
   <ele>2132.00</ele>
   <time>2014-03-30T13:36:59Z</time>
  </trkpt>
  <trkpt lat="33.687819" lon="-4.113654">
   <ele>2132.00</ele>
   <time>2014-03-30T13:37:14Z</time>
  </trkpt>
  <trkpt lat="33.687819" lon="-4.113651">
   <ele>2132.00</ele>
   <time>2014-03-30T13:37:29Z</time>
  </trkpt>
  <trkpt lat="33.687819" lon="-4.113649">
   <ele>2133.00</ele>
   <time>2014-03-30T13:37:45Z</time>
  </trkpt>
  <trkpt lat="33.687819" lon="-4.113649">
   <ele>2132.00</ele>
   <time>2014-03-30T13:38:00Z</time>
  </trkpt>
  <trkpt lat="33.687820" lon="-4.113650">
   <ele>2132.00</ele>
   <time>2014-03-30T13:38:15Z</time>
  </trkpt>
  <trkpt lat="33.687820" lon="-4.113651">
   <ele>2132.00</ele>
   <time>2014-03-30T13:38:31Z</time>
  </trkpt>
  <trkpt lat="33.687820" lon="-4.113652">
   <ele>2133.00</ele>
   <time>2014-03-30T13:38:46Z</time>
  </trkpt>
  <trkpt lat="33.687820" lon="-4.113652">
   <ele>2133.00</ele>
   <time>2014-03-30T13:39:01Z</time>
  </trkpt>
  <trkpt lat="33.687806" lon="-4.113888">
   <ele>2133.00</ele>
   <time>2014-03-30T13:39:11Z</time>
  </trkpt>
  <trkpt lat="33.687853" lon="-4.114131">
   <ele>2132.00</ele>
   <time>2014-03-30T13:39:16Z</time>
  </trkpt>
  <trkpt lat="33.687961" lon="-4.114337">
   <ele>2132.00</ele>
   <time>2014-03-30T13:39:20Z</time>
  </trkpt>
  <trkpt lat="33.688124" lon="-4.114495">
   <ele>2131.00</ele>
   <time>2014-03-30T13:39:24Z</time>
  </trkpt>
  <trkpt lat="33.688371" lon="-4.114683">
   <ele>2129.00</ele>
   <time>2014-03-30T13:39:29Z</time>
  </trkpt>
  <trkpt lat="33.688513" lon="-4.114832">
   <ele>2128.00</ele>
   <time>2014-03-30T13:39:32Z</time>
  </trkpt>
  <trkpt lat="33.688645" lon="-4.115014">
   <ele>2127.00</ele>
   <time>2014-03-30T13:39:35Z</time>
  </trkpt>
  <trkpt lat="33.688778" lon="-4.115212">
   <ele>2125.00</ele>
   <time>2014-03-30T13:39:38Z</time>
  </trkpt>
  <trkpt lat="33.688935" lon="-4.115399">
   <ele>2124.00</ele>
   <time>2014-03-30T13:39:41Z</time>
  </trkpt>
  <trkpt lat="33.689112" lon="-4.115564">
   <ele>2123.00</ele>
   <time>2014-03-30T13:39:44Z</time>
  </trkpt>
  <trkpt lat="33.689304" lon="-4.115727">
   <ele>2122.00</ele>
   <time>2014-03-30T13:39:47Z</time>
  </trkpt>
  <trkpt lat="33.689505" lon="-4.115899">
   <ele>2120.00</ele>
   <time>2014-03-30T13:39:50Z</time>
  </trkpt>
  <trkpt lat="33.689846" lon="-4.116203">
   <ele>2118.00</ele>
   <time>2014-03-30T13:39:55Z</time>
  </trkpt>
  <trkpt lat="33.689986" lon="-4.116409">
   <ele>2117.00</ele>
   <time>2014-03-30T13:39:58Z</time>
  </trkpt>
  <trkpt lat="33.689977" lon="-4.116646">
   <ele>2116.00</ele>
   <time>2014-03-30T13:40:01Z</time>
  </trkpt>
  <trkpt lat="33.689782" lon="-4.116803">
   <ele>2114.00</ele>
   <time>2014-03-30T13:40:04Z</time>
  </trkpt>
  <trkpt lat="33.689599" lon="-4.116856">
   <ele>2113.00</ele>
   <time>2014-03-30T13:40:06Z</time>
  </trkpt>
  <trkpt lat="33.689012" lon="-4.117051">
   <ele>2109.00</ele>
   <time>2014-03-30T13:40:12Z</time>
  </trkpt>
  <trkpt lat="33.688816" lon="-4.117152">
   <ele>2107.00</ele>
   <time>2014-03-30T13:40:14Z</time>
  </trkpt>
  <trkpt lat="33.688638" lon="-4.117314">
   <ele>2105.00</ele>
   <time>2014-03-30T13:40:16Z</time>
  </trkpt>
  <trkpt lat="33.688383" lon="-4.117607">
   <ele>2102.00</ele>
   <time>2014-03-30T13:40:19Z</time>
  </trkpt>
  <trkpt lat="33.688184" lon="-4.117774">
   <ele>2101.00</ele>
   <time>2014-03-30T13:40:21Z</time>
  </trkpt>
  <trkpt lat="33.687968" lon="-4.117913">
   <ele>2099.00</ele>
   <time>2014-03-30T13:40:23Z</time>
  </trkpt>
  <trkpt lat="33.687641" lon="-4.118118">
   <ele>2096.00</ele>
   <time>2014-03-30T13:40:26Z</time>
  </trkpt>
  <trkpt lat="33.687452" lon="-4.118277">
   <ele>2094.00</ele>
   <time>2014-03-30T13:40:28Z</time>
  </trkpt>
  <trkpt lat="33.687317" lon="-4.118476">
   <ele>2093.00</ele>
   <time>2014-03-30T13:40:30Z</time>
  </trkpt>
  <trkpt lat="33.687248" lon="-4.118716">
   <ele>2092.00</ele>
   <time>2014-03-30T13:40:32Z</time>
  </trkpt>
  <trkpt lat="33.687219" lon="-4.118967">
   <ele>2090.00</ele>
   <time>2014-03-30T13:40:34Z</time>
  </trkpt>
  <trkpt lat="33.687199" lon="-4.119205">
   <ele>2088.00</ele>
   <time>2014-03-30T13:40:36Z</time>
  </trkpt>
  <trkpt lat="33.687138" lon="-4.119408">
   <ele>2086.00</ele>
   <time>2014-03-30T13:40:38Z</time>
  </trkpt>
  <trkpt lat="33.686995" lon="-4.119558">
   <ele>2084.00</ele>
   <time>2014-03-30T13:40:40Z</time>
  </trkpt>
  <trkpt lat="33.686792" lon="-4.119640">
   <ele>2083.00</ele>
   <time>2014-03-30T13:40:42Z</time>
  </trkpt>
  <trkpt lat="33.686595" lon="-4.119724">
   <ele>2081.00</ele>
   <time>2014-03-30T13:40:44Z</time>
  </trkpt>
  <trkpt lat="33.686425" lon="-4.119871">
   <ele>2079.00</ele>
   <time>2014-03-30T13:40:46Z</time>
  </trkpt>
  <trkpt lat="33.686292" lon="-4.120083">
   <ele>2077.00</ele>
   <time>2014-03-30T13:40:48Z</time>
  </trkpt>
  <trkpt lat="33.685903" lon="-4.120825">
   <ele>2072.00</ele>
   <time>2014-03-30T13:40:54Z</time>
  </trkpt>
  <trkpt lat="33.685767" lon="-4.121051">
   <ele>2070.00</ele>
   <time>2014-03-30T13:40:56Z</time>
  </trkpt>
  <trkpt lat="33.685628" lon="-4.121229">
   <ele>2069.00</ele>
   <time>2014-03-30T13:40:58Z</time>
  </trkpt>
  <trkpt lat="33.685459" lon="-4.121338">
   <ele>2069.00</ele>
   <time>2014-03-30T13:41:00Z</time>
  </trkpt>
  <trkpt lat="33.685258" lon="-4.121384">
   <ele>2068.00</ele>
   <time>2014-03-30T13:41:02Z</time>
  </trkpt>
  <trkpt lat="33.683252" lon="-4.121645">
   <ele>2076.00</ele>
   <time>2014-03-30T13:41:18Z</time>
  </trkpt>
  <trkpt lat="33.683027" lon="-4.121654">
   <ele>2078.00</ele>
   <time>2014-03-30T13:41:20Z</time>
  </trkpt>
  <trkpt lat="33.682826" lon="-4.121615">
   <ele>2079.00</ele>
   <time>2014-03-30T13:41:22Z</time>
  </trkpt>
  <trkpt lat="33.682650" lon="-4.121502">
   <ele>2081.00</ele>
   <time>2014-03-30T13:41:24Z</time>
  </trkpt>
  <trkpt lat="33.682503" lon="-4.121319">
   <ele>2082.00</ele>
   <time>2014-03-30T13:41:26Z</time>
  </trkpt>
  <trkpt lat="33.682231" lon="-4.120878">
   <ele>2085.00</ele>
   <time>2014-03-30T13:41:30Z</time>
  </trkpt>
  <trkpt lat="33.682112" lon="-4.120645">
   <ele>2087.00</ele>
   <time>2014-03-30T13:41:32Z</time>
  </trkpt>
  <trkpt lat="33.681999" lon="-4.120429">
   <ele>2088.00</ele>
   <time>2014-03-30T13:41:34Z</time>
  </trkpt>
  <trkpt lat="33.681855" lon="-4.120268">
   <ele>2090.00</ele>
   <time>2014-03-30T13:41:36Z</time>
  </trkpt>
  <trkpt lat="33.681667" lon="-4.120165">
   <ele>2091.00</ele>
   <time>2014-03-30T13:41:38Z</time>
  </trkpt>
  <trkpt lat="33.681456" lon="-4.120088">
   <ele>2093.00</ele>
   <time>2014-03-30T13:41:40Z</time>
  </trkpt>
  <trkpt lat="33.681238" lon="-4.120033">
   <ele>2095.00</ele>
   <time>2014-03-30T13:41:42Z</time>
  </trkpt>
  <trkpt lat="33.681024" lon="-4.120003">
   <ele>2096.00</ele>
   <time>2014-03-30T13:41:44Z</time>
  </trkpt>
  <trkpt lat="33.680812" lon="-4.120006">
   <ele>2097.00</ele>
   <time>2014-03-30T13:41:46Z</time>
  </trkpt>
  <trkpt lat="33.680605" lon="-4.120064">
   <ele>2097.00</ele>
   <time>2014-03-30T13:41:48Z</time>
  </trkpt>
  <trkpt lat="33.680411" lon="-4.120182">
   <ele>2097.00</ele>
   <time>2014-03-30T13:41:50Z</time>
  </trkpt>
  <trkpt lat="33.680238" lon="-4.120335">
   <ele>2098.00</ele>
   <time>2014-03-30T13:41:52Z</time>
  </trkpt>
  <trkpt lat="33.680079" lon="-4.120516">
   <ele>2099.00</ele>
   <time>2014-03-30T13:41:54Z</time>
  </trkpt>
  <trkpt lat="33.679943" lon="-4.120729">
   <ele>2101.00</ele>
   <time>2014-03-30T13:41:56Z</time>
  </trkpt>
  <trkpt lat="33.679833" lon="-4.120963">
   <ele>2102.00</ele>
   <time>2014-03-30T13:41:58Z</time>
  </trkpt>
  <trkpt lat="33.679741" lon="-4.121203">
   <ele>2103.00</ele>
   <time>2014-03-30T13:42:00Z</time>
  </trkpt>
  <trkpt lat="33.679614" lon="-4.121529">
   <ele>2105.00</ele>
   <time>2014-03-30T13:42:03Z</time>
  </trkpt>
  <trkpt lat="33.679506" lon="-4.121774">
   <ele>2107.00</ele>
   <time>2014-03-30T13:42:06Z</time>
  </trkpt>
  <trkpt lat="33.679353" lon="-4.121948">
   <ele>2108.00</ele>
   <time>2014-03-30T13:42:10Z</time>
  </trkpt>
  <trkpt lat="33.679156" lon="-4.122045">
   <ele>2108.00</ele>
   <time>2014-03-30T13:42:14Z</time>
  </trkpt>
  <trkpt lat="33.678928" lon="-4.122115">
   <ele>2108.00</ele>
   <time>2014-03-30T13:42:18Z</time>
  </trkpt>
  <trkpt lat="33.678655" lon="-4.122190">
   <ele>2107.00</ele>
   <time>2014-03-30T13:42:22Z</time>
  </trkpt>
  <trkpt lat="33.678043" lon="-4.122333">
   <ele>2107.00</ele>
   <time>2014-03-30T13:42:32Z</time>
  </trkpt>
  <trkpt lat="33.677814" lon="-4.122361">
   <ele>2107.00</ele>
   <time>2014-03-30T13:42:35Z</time>
  </trkpt>
  <trkpt lat="33.677572" lon="-4.122356">
   <ele>2106.00</ele>
   <time>2014-03-30T13:42:38Z</time>
  </trkpt>
  <trkpt lat="33.677331" lon="-4.122388">
   <ele>2106.00</ele>
   <time>2014-03-30T13:42:41Z</time>
  </trkpt>
  <trkpt lat="33.677095" lon="-4.122495">
   <ele>2106.00</ele>
   <time>2014-03-30T13:42:44Z</time>
  </trkpt>
  <trkpt lat="33.676623" lon="-4.122753">
   <ele>2105.00</ele>
   <time>2014-03-30T13:42:50Z</time>
  </trkpt>
  <trkpt lat="33.676370" lon="-4.122865">
   <ele>2105.00</ele>
   <time>2014-03-30T13:42:53Z</time>
  </trkpt>
  <trkpt lat="33.676194" lon="-4.122944">
   <ele>2105.00</ele>
   <time>2014-03-30T13:42:55Z</time>
  </trkpt>
  <trkpt lat="33.675938" lon="-4.123074">
   <ele>2104.00</ele>
   <time>2014-03-30T13:42:58Z</time>
  </trkpt>
  <trkpt lat="33.675628" lon="-4.123236">
   <ele>2104.00</ele>
   <time>2014-03-30T13:43:02Z</time>
  </trkpt>
  <trkpt lat="33.675408" lon="-4.123293">
   <ele>2104.00</ele>
   <time>2014-03-30T13:43:05Z</time>
  </trkpt>
  <trkpt lat="33.675167" lon="-4.123244">
   <ele>2104.00</ele>
   <time>2014-03-30T13:43:08Z</time>
  </trkpt>
  <trkpt lat="33.674998" lon="-4.123162">
   <ele>2103.00</ele>
   <time>2014-03-30T13:43:10Z</time>
  </trkpt>
  <trkpt lat="33.674775" lon="-4.123007">
   <ele>2102.00</ele>
   <time>2014-03-30T13:43:13Z</time>
  </trkpt>
  <trkpt lat="33.674582" lon="-4.122844">
   <ele>2102.00</ele>
   <time>2014-03-30T13:43:16Z</time>
  </trkpt>
  <trkpt lat="33.674403" lon="-4.122651">
   <ele>2101.00</ele>
   <time>2014-03-30T13:43:19Z</time>
  </trkpt>
  <trkpt lat="33.674209" lon="-4.122444">
   <ele>2101.00</ele>
   <time>2014-03-30T13:43:22Z</time>
  </trkpt>
  <trkpt lat="33.674016" lon="-4.122265">
   <ele>2100.00</ele>
   <time>2014-03-30T13:43:25Z</time>
  </trkpt>
  <trkpt lat="33.673818" lon="-4.122186">
   <ele>2100.00</ele>
   <time>2014-03-30T13:43:28Z</time>
  </trkpt>
  <trkpt lat="33.673644" lon="-4.122277">
   <ele>2101.00</ele>
   <time>2014-03-30T13:43:31Z</time>
  </trkpt>
  <trkpt lat="33.673539" lon="-4.122454">
   <ele>2102.00</ele>
   <time>2014-03-30T13:43:34Z</time>
  </trkpt>
  <trkpt lat="33.673547" lon="-4.122675">
   <ele>2102.00</ele>
   <time>2014-03-30T13:43:37Z</time>
  </trkpt>
  <trkpt lat="33.673595" lon="-4.122897">
   <ele>2103.00</ele>
   <time>2014-03-30T13:43:40Z</time>
  </trkpt>
  <trkpt lat="33.673603" lon="-4.123166">
   <ele>2104.00</ele>
   <time>2014-03-30T13:43:43Z</time>
  </trkpt>
  <trkpt lat="33.673534" lon="-4.123449">
   <ele>2105.00</ele>
   <time>2014-03-30T13:43:46Z</time>
  </trkpt>
  <trkpt lat="33.673442" lon="-4.123641">
   <ele>2106.00</ele>
   <time>2014-03-30T13:43:48Z</time>
  </trkpt>
  <trkpt lat="33.673300" lon="-4.123910">
   <ele>2109.00</ele>
   <time>2014-03-30T13:43:51Z</time>
  </trkpt>
  <trkpt lat="33.673130" lon="-4.124159">
   <ele>2111.00</ele>
   <time>2014-03-30T13:43:54Z</time>
  </trkpt>
  <trkpt lat="33.672903" lon="-4.124339">
   <ele>2113.00</ele>
   <time>2014-03-30T13:43:57Z</time>
  </trkpt>
  <trkpt lat="33.672729" lon="-4.124424">
   <ele>2114.00</ele>
   <time>2014-03-30T13:43:59Z</time>
  </trkpt>
  <trkpt lat="33.672552" lon="-4.124511">
   <ele>2115.00</ele>
   <time>2014-03-30T13:44:01Z</time>
  </trkpt>
  <trkpt lat="33.672395" lon="-4.124637">
   <ele>2117.00</ele>
   <time>2014-03-30T13:44:03Z</time>
  </trkpt>
  <trkpt lat="33.672173" lon="-4.124844">
   <ele>2119.00</ele>
   <time>2014-03-30T13:44:06Z</time>
  </trkpt>
  <trkpt lat="33.672010" lon="-4.124950">
   <ele>2120.00</ele>
   <time>2014-03-30T13:44:08Z</time>
  </trkpt>
  <trkpt lat="33.671830" lon="-4.125034">
   <ele>2122.00</ele>
   <time>2014-03-30T13:44:10Z</time>
  </trkpt>
  <trkpt lat="33.671578" lon="-4.125110">
   <ele>2123.00</ele>
   <time>2014-03-30T13:44:13Z</time>
  </trkpt>
  <trkpt lat="33.671334" lon="-4.125061">
   <ele>2125.00</ele>
   <time>2014-03-30T13:44:16Z</time>
  </trkpt>
  <trkpt lat="33.671181" lon="-4.124938">
   <ele>2126.00</ele>
   <time>2014-03-30T13:44:18Z</time>
  </trkpt>
  <trkpt lat="33.671039" lon="-4.124787">
   <ele>2126.00</ele>
   <time>2014-03-30T13:44:20Z</time>
  </trkpt>
  <trkpt lat="33.670801" lon="-4.124500">
   <ele>2128.00</ele>
   <time>2014-03-30T13:44:24Z</time>
  </trkpt>
  <trkpt lat="33.670573" lon="-4.124434">
   <ele>2129.00</ele>
   <time>2014-03-30T13:44:27Z</time>
  </trkpt>
  <trkpt lat="33.670312" lon="-4.124488">
   <ele>2132.00</ele>
   <time>2014-03-30T13:44:30Z</time>
  </trkpt>
  <trkpt lat="33.670062" lon="-4.124535">
   <ele>2134.00</ele>
   <time>2014-03-30T13:44:33Z</time>
  </trkpt>
  <trkpt lat="33.669864" lon="-4.124581">
   <ele>2135.00</ele>
   <time>2014-03-30T13:44:36Z</time>
  </trkpt>
  <trkpt lat="33.669723" lon="-4.124741">
   <ele>2137.00</ele>
   <time>2014-03-30T13:44:39Z</time>
  </trkpt>
  <trkpt lat="33.669702" lon="-4.125017">
   <ele>2137.00</ele>
   <time>2014-03-30T13:44:42Z</time>
  </trkpt>
  <trkpt lat="33.669741" lon="-4.125329">
   <ele>2139.00</ele>
   <time>2014-03-30T13:44:45Z</time>
  </trkpt>
  <trkpt lat="33.669759" lon="-4.125619">
   <ele>2140.00</ele>
   <time>2014-03-30T13:44:48Z</time>
  </trkpt>
  <trkpt lat="33.669710" lon="-4.125841">
   <ele>2142.00</ele>
   <time>2014-03-30T13:44:51Z</time>
  </trkpt>
  <trkpt lat="33.669618" lon="-4.126038">
   <ele>2142.00</ele>
   <time>2014-03-30T13:44:54Z</time>
  </trkpt>
  <trkpt lat="33.669479" lon="-4.126239">
   <ele>2140.00</ele>
   <time>2014-03-30T13:44:57Z</time>
  </trkpt>
  <trkpt lat="33.669277" lon="-4.126511">
   <ele>2138.00</ele>
   <time>2014-03-30T13:45:01Z</time>
  </trkpt>
  <trkpt lat="33.669115" lon="-4.126712">
   <ele>2136.00</ele>
   <time>2014-03-30T13:45:04Z</time>
  </trkpt>
  <trkpt lat="33.668812" lon="-4.127024">
   <ele>2133.00</ele>
   <time>2014-03-30T13:45:09Z</time>
  </trkpt>
  <trkpt lat="33.668659" lon="-4.127227">
   <ele>2133.00</ele>
   <time>2014-03-30T13:45:12Z</time>
  </trkpt>
  <trkpt lat="33.668533" lon="-4.127421">
   <ele>2132.00</ele>
   <time>2014-03-30T13:45:16Z</time>
  </trkpt>
  <trkpt lat="33.668510" lon="-4.127492">
   <ele>2132.00</ele>
   <time>2014-03-30T13:45:31Z</time>
  </trkpt>
  <trkpt lat="33.668517" lon="-4.127480">
   <ele>2131.00</ele>
   <time>2014-03-30T13:45:47Z</time>
  </trkpt>
  <trkpt lat="33.668524" lon="-4.127484">
   <ele>2131.00</ele>
   <time>2014-03-30T13:46:02Z</time>
  </trkpt>
  <trkpt lat="33.668524" lon="-4.127482">
   <ele>2130.00</ele>
   <time>2014-03-30T13:46:18Z</time>
  </trkpt>
  <trkpt lat="33.668523" lon="-4.127487">
   <ele>2131.00</ele>
   <time>2014-03-30T13:46:33Z</time>
  </trkpt>
  <trkpt lat="33.668506" lon="-4.127606">
   <ele>2130.00</ele>
   <time>2014-03-30T13:46:49Z</time>
  </trkpt>
  <trkpt lat="33.668506" lon="-4.127604">
   <ele>2130.00</ele>
   <time>2014-03-30T13:47:04Z</time>
  </trkpt>
  <trkpt lat="33.668507" lon="-4.127597">
   <ele>2129.00</ele>
   <time>2014-03-30T13:47:19Z</time>
  </trkpt>
  <trkpt lat="33.668508" lon="-4.127590">
   <ele>2127.00</ele>
   <time>2014-03-30T13:47:35Z</time>
  </trkpt>
  <trkpt lat="33.668507" lon="-4.127593">
   <ele>2128.00</ele>
   <time>2014-03-30T13:47:50Z</time>
  </trkpt>
  <trkpt lat="33.668507" lon="-4.127594">
   <ele>2129.00</ele>
   <time>2014-03-30T13:48:05Z</time>
  </trkpt>
  <trkpt lat="33.668508" lon="-4.127594">
   <ele>2129.00</ele>
   <time>2014-03-30T13:48:21Z</time>
  </trkpt>
  <trkpt lat="33.668509" lon="-4.127593">
   <ele>2129.00</ele>
   <time>2014-03-30T13:48:36Z</time>
  </trkpt>
  <trkpt lat="33.668510" lon="-4.127592">
   <ele>2129.00</ele>
   <time>2014-03-30T13:48:54Z</time>
  </trkpt>
  <trkpt lat="33.668511" lon="-4.127592">
   <ele>2130.00</ele>
   <time>2014-03-30T13:49:09Z</time>
  </trkpt>
  <trkpt lat="33.668513" lon="-4.127595">
   <ele>2130.00</ele>
   <time>2014-03-30T13:49:25Z</time>
  </trkpt>
  <trkpt lat="33.668513" lon="-4.127596">
   <ele>2130.00</ele>
   <time>2014-03-30T13:49:40Z</time>
  </trkpt>
  <trkpt lat="33.668513" lon="-4.127597">
   <ele>2131.00</ele>
   <time>2014-03-30T13:49:55Z</time>
  </trkpt>
  <trkpt lat="33.668513" lon="-4.127597">
   <ele>2130.00</ele>
   <time>2014-03-30T13:50:11Z</time>
  </trkpt>
  <trkpt lat="33.668514" lon="-4.127594">
   <ele>2130.00</ele>
   <time>2014-03-30T13:50:26Z</time>
  </trkpt>
  <trkpt lat="33.668514" lon="-4.127596">
   <ele>2131.00</ele>
   <time>2014-03-30T13:50:42Z</time>
  </trkpt>
  <trkpt lat="33.668514" lon="-4.127596">
   <ele>2130.00</ele>
   <time>2014-03-30T13:50:57Z</time>
  </trkpt>
  <trkpt lat="33.668514" lon="-4.127594">
   <ele>2130.00</ele>
   <time>2014-03-30T13:51:12Z</time>
  </trkpt>
  <trkpt lat="33.668515" lon="-4.127593">
   <ele>2130.00</ele>
   <time>2014-03-30T13:51:28Z</time>
  </trkpt>
  <trkpt lat="33.668515" lon="-4.127592">
   <ele>2129.00</ele>
   <time>2014-03-30T13:51:43Z</time>
  </trkpt>
  <trkpt lat="33.668514" lon="-4.127596">
   <ele>2129.00</ele>
   <time>2014-03-30T13:51:58Z</time>
  </trkpt>
  <trkpt lat="33.668514" lon="-4.127597">
   <ele>2129.00</ele>
   <time>2014-03-30T13:52:14Z</time>
  </trkpt>
  <trkpt lat="33.668525" lon="-4.127834">
   <ele>2128.00</ele>
   <time>2014-03-30T13:52:29Z</time>
  </trkpt>
  <trkpt lat="33.668613" lon="-4.128066">
   <ele>2126.00</ele>
   <time>2014-03-30T13:52:33Z</time>
  </trkpt>
  <trkpt lat="33.668760" lon="-4.128258">
   <ele>2125.00</ele>
   <time>2014-03-30T13:52:37Z</time>
  </trkpt>
  <trkpt lat="33.668962" lon="-4.128272">
   <ele>2122.00</ele>
   <time>2014-03-30T13:52:41Z</time>
  </trkpt>
  <trkpt lat="33.669126" lon="-4.128157">
   <ele>2120.00</ele>
   <time>2014-03-30T13:52:44Z</time>
  </trkpt>
  <trkpt lat="33.669268" lon="-4.127983">
   <ele>2119.00</ele>
   <time>2014-03-30T13:52:47Z</time>
  </trkpt>
  <trkpt lat="33.669351" lon="-4.127759">
   <ele>2118.00</ele>
   <time>2014-03-30T13:52:50Z</time>
  </trkpt>
  <trkpt lat="33.669411" lon="-4.127470">
   <ele>2116.00</ele>
   <time>2014-03-30T13:52:54Z</time>
  </trkpt>
  <trkpt lat="33.669566" lon="-4.127290">
   <ele>2114.00</ele>
   <time>2014-03-30T13:52:58Z</time>
  </trkpt>
  <trkpt lat="33.669755" lon="-4.127420">
   <ele>2112.00</ele>
   <time>2014-03-30T13:53:02Z</time>
  </trkpt>
  <trkpt lat="33.669817" lon="-4.127678">
   <ele>2110.00</ele>
   <time>2014-03-30T13:53:05Z</time>
  </trkpt>
  <trkpt lat="33.669876" lon="-4.127982">
   <ele>2106.00</ele>
   <time>2014-03-30T13:53:08Z</time>
  </trkpt>
  <trkpt lat="33.669954" lon="-4.128317">
   <ele>2101.00</ele>
   <time>2014-03-30T13:53:11Z</time>
  </trkpt>
  <trkpt lat="33.669993" lon="-4.128557">
   <ele>2099.00</ele>
   <time>2014-03-30T13:53:13Z</time>
  </trkpt>
  <trkpt lat="33.670037" lon="-4.128799">
   <ele>2097.00</ele>
   <time>2014-03-30T13:53:15Z</time>
  </trkpt>
  <trkpt lat="33.670104" lon="-4.129029">
   <ele>2096.00</ele>
   <time>2014-03-30T13:53:17Z</time>
  </trkpt>
  <trkpt lat="33.670193" lon="-4.129244">
   <ele>2094.00</ele>
   <time>2014-03-30T13:53:19Z</time>
  </trkpt>
  <trkpt lat="33.670380" lon="-4.129671">
   <ele>2090.00</ele>
   <time>2014-03-30T13:53:23Z</time>
  </trkpt>
  <trkpt lat="33.670455" lon="-4.129896">
   <ele>2089.00</ele>
   <time>2014-03-30T13:53:25Z</time>
  </trkpt>
  <trkpt lat="33.670617" lon="-4.130392">
   <ele>2085.00</ele>
   <time>2014-03-30T13:53:30Z</time>
  </trkpt>
  <trkpt lat="33.670768" lon="-4.130800">
   <ele>2080.00</ele>
   <time>2014-03-30T13:53:34Z</time>
  </trkpt>
  <trkpt lat="33.670829" lon="-4.131020">
   <ele>2078.00</ele>
   <time>2014-03-30T13:53:36Z</time>
  </trkpt>
  <trkpt lat="33.670851" lon="-4.131250">
   <ele>2076.00</ele>
   <time>2014-03-30T13:53:38Z</time>
  </trkpt>
  <trkpt lat="33.670828" lon="-4.131484">
   <ele>2073.00</ele>
   <time>2014-03-30T13:53:40Z</time>
  </trkpt>
  <trkpt lat="33.670803" lon="-4.131700">
   <ele>2071.00</ele>
   <time>2014-03-30T13:53:42Z</time>
  </trkpt>
  <trkpt lat="33.670832" lon="-4.131952">
   <ele>2069.00</ele>
   <time>2014-03-30T13:53:45Z</time>
  </trkpt>
  <trkpt lat="33.670976" lon="-4.132145">
   <ele>2067.00</ele>
   <time>2014-03-30T13:53:48Z</time>
  </trkpt>
  <trkpt lat="33.671195" lon="-4.132285">
   <ele>2064.00</ele>
   <time>2014-03-30T13:53:51Z</time>
  </trkpt>
  <trkpt lat="33.671373" lon="-4.132328">
   <ele>2062.00</ele>
   <time>2014-03-30T13:53:53Z</time>
  </trkpt>
  <trkpt lat="33.671566" lon="-4.132344">
   <ele>2059.00</ele>
   <time>2014-03-30T13:53:55Z</time>
  </trkpt>
  <trkpt lat="33.672081" lon="-4.132375">
   <ele>2054.00</ele>
   <time>2014-03-30T13:54:00Z</time>
  </trkpt>
  <trkpt lat="33.672266" lon="-4.132406">
   <ele>2051.00</ele>
   <time>2014-03-30T13:54:02Z</time>
  </trkpt>
  <trkpt lat="33.672462" lon="-4.132551">
   <ele>2048.00</ele>
   <time>2014-03-30T13:54:05Z</time>
  </trkpt>
  <trkpt lat="33.672518" lon="-4.132804">
   <ele>2047.00</ele>
   <time>2014-03-30T13:54:08Z</time>
  </trkpt>
  <trkpt lat="33.672412" lon="-4.133079">
   <ele>2046.00</ele>
   <time>2014-03-30T13:54:11Z</time>
  </trkpt>
  <trkpt lat="33.672286" lon="-4.133244">
   <ele>2046.00</ele>
   <time>2014-03-30T13:54:13Z</time>
  </trkpt>
  <trkpt lat="33.671824" lon="-4.133842">
   <ele>2044.00</ele>
   <time>2014-03-30T13:54:20Z</time>
  </trkpt>
  <trkpt lat="33.671700" lon="-4.134036">
   <ele>2042.00</ele>
   <time>2014-03-30T13:54:22Z</time>
  </trkpt>
  <trkpt lat="33.671326" lon="-4.134673">
   <ele>2037.00</ele>
   <time>2014-03-30T13:54:28Z</time>
  </trkpt>
  <trkpt lat="33.671139" lon="-4.134969">
   <ele>2035.00</ele>
   <time>2014-03-30T13:54:31Z</time>
  </trkpt>
  <trkpt lat="33.671083" lon="-4.135272">
   <ele>2032.00</ele>
   <time>2014-03-30T13:54:34Z</time>
  </trkpt>
  <trkpt lat="33.671231" lon="-4.135523">
   <ele>2030.00</ele>
   <time>2014-03-30T13:54:37Z</time>
  </trkpt>
  <trkpt lat="33.671396" lon="-4.135634">
   <ele>2028.00</ele>
   <time>2014-03-30T13:54:39Z</time>
  </trkpt>
  <trkpt lat="33.671589" lon="-4.135698">
   <ele>2026.00</ele>
   <time>2014-03-30T13:54:41Z</time>
  </trkpt>
  <trkpt lat="33.672080" lon="-4.135844">
   <ele>2021.00</ele>
   <time>2014-03-30T13:54:46Z</time>
  </trkpt>
  <trkpt lat="33.672255" lon="-4.136026">
   <ele>2018.00</ele>
   <time>2014-03-30T13:54:49Z</time>
  </trkpt>
  <trkpt lat="33.672249" lon="-4.136301">
   <ele>2016.00</ele>
   <time>2014-03-30T13:54:52Z</time>
  </trkpt>
  <trkpt lat="33.672250" lon="-4.136612">
   <ele>2013.00</ele>
   <time>2014-03-30T13:54:55Z</time>
  </trkpt>
  <trkpt lat="33.672286" lon="-4.136841">
   <ele>2011.00</ele>
   <time>2014-03-30T13:54:57Z</time>
  </trkpt>
  <trkpt lat="33.672329" lon="-4.137088">
   <ele>2008.00</ele>
   <time>2014-03-30T13:54:59Z</time>
  </trkpt>
  <trkpt lat="33.672335" lon="-4.137348">
   <ele>2005.00</ele>
   <time>2014-03-30T13:55:01Z</time>
  </trkpt>
  <trkpt lat="33.672293" lon="-4.137593">
   <ele>2004.00</ele>
   <time>2014-03-30T13:55:03Z</time>
  </trkpt>
  <trkpt lat="33.672236" lon="-4.137930">
   <ele>2002.00</ele>
   <time>2014-03-30T13:55:06Z</time>
  </trkpt>
  <trkpt lat="33.672239" lon="-4.138149">
   <ele>2000.00</ele>
   <time>2014-03-30T13:55:08Z</time>
  </trkpt>
  <trkpt lat="33.672302" lon="-4.138365">
   <ele>1999.00</ele>
   <time>2014-03-30T13:55:10Z</time>
  </trkpt>
  <trkpt lat="33.672412" lon="-4.138575">
   <ele>1996.00</ele>
   <time>2014-03-30T13:55:12Z</time>
  </trkpt>
  <trkpt lat="33.672571" lon="-4.138757">
   <ele>1994.00</ele>
   <time>2014-03-30T13:55:14Z</time>
  </trkpt>
  <trkpt lat="33.672748" lon="-4.138921">
   <ele>1993.00</ele>
   <time>2014-03-30T13:55:16Z</time>
  </trkpt>
  <trkpt lat="33.672941" lon="-4.139057">
   <ele>1991.00</ele>
   <time>2014-03-30T13:55:18Z</time>
  </trkpt>
  <trkpt lat="33.673145" lon="-4.139151">
   <ele>1989.00</ele>
   <time>2014-03-30T13:55:20Z</time>
  </trkpt>
  <trkpt lat="33.673344" lon="-4.139247">
   <ele>1987.00</ele>
   <time>2014-03-30T13:55:22Z</time>
  </trkpt>
  <trkpt lat="33.673506" lon="-4.139396">
   <ele>1986.00</ele>
   <time>2014-03-30T13:55:24Z</time>
  </trkpt>
  <trkpt lat="33.673619" lon="-4.139588">
   <ele>1984.00</ele>
   <time>2014-03-30T13:55:26Z</time>
  </trkpt>
  <trkpt lat="33.673696" lon="-4.139794">
   <ele>1983.00</ele>
   <time>2014-03-30T13:55:28Z</time>
  </trkpt>
  <trkpt lat="33.673676" lon="-4.140108">
   <ele>1980.00</ele>
   <time>2014-03-30T13:55:31Z</time>
  </trkpt>
  <trkpt lat="33.673593" lon="-4.140307">
   <ele>1978.00</ele>
   <time>2014-03-30T13:55:33Z</time>
  </trkpt>
  <trkpt lat="33.673483" lon="-4.140493">
   <ele>1976.00</ele>
   <time>2014-03-30T13:55:35Z</time>
  </trkpt>
  <trkpt lat="33.673341" lon="-4.140651">
   <ele>1974.00</ele>
   <time>2014-03-30T13:55:37Z</time>
  </trkpt>
  <trkpt lat="33.673204" lon="-4.140801">
   <ele>1973.00</ele>
   <time>2014-03-30T13:55:39Z</time>
  </trkpt>
  <trkpt lat="33.673088" lon="-4.141048">
   <ele>1971.00</ele>
   <time>2014-03-30T13:55:42Z</time>
  </trkpt>
  <trkpt lat="33.673219" lon="-4.141277">
   <ele>1968.00</ele>
   <time>2014-03-30T13:55:45Z</time>
  </trkpt>
  <trkpt lat="33.673402" lon="-4.141367">
   <ele>1966.00</ele>
   <time>2014-03-30T13:55:47Z</time>
  </trkpt>
  <trkpt lat="33.673580" lon="-4.141475">
   <ele>1964.00</ele>
   <time>2014-03-30T13:55:49Z</time>
  </trkpt>
  <trkpt lat="33.673730" lon="-4.141623">
   <ele>1963.00</ele>
   <time>2014-03-30T13:55:51Z</time>
  </trkpt>
  <trkpt lat="33.673830" lon="-4.141810">
   <ele>1961.00</ele>
   <time>2014-03-30T13:55:53Z</time>
  </trkpt>
  <trkpt lat="33.673884" lon="-4.142022">
   <ele>1959.00</ele>
   <time>2014-03-30T13:55:55Z</time>
  </trkpt>
  <trkpt lat="33.673892" lon="-4.142252">
   <ele>1957.00</ele>
   <time>2014-03-30T13:55:57Z</time>
  </trkpt>
  <trkpt lat="33.673824" lon="-4.142485">
   <ele>1955.00</ele>
   <time>2014-03-30T13:55:59Z</time>
  </trkpt>
  <trkpt lat="33.673680" lon="-4.142700">
   <ele>1952.00</ele>
   <time>2014-03-30T13:56:01Z</time>
  </trkpt>
  <trkpt lat="33.673452" lon="-4.143003">
   <ele>1949.00</ele>
   <time>2014-03-30T13:56:04Z</time>
  </trkpt>
  <trkpt lat="33.673361" lon="-4.143222">
   <ele>1948.00</ele>
   <time>2014-03-30T13:56:06Z</time>
  </trkpt>
  <trkpt lat="33.673360" lon="-4.143467">
   <ele>1946.00</ele>
   <time>2014-03-30T13:56:08Z</time>
  </trkpt>
  <trkpt lat="33.673440" lon="-4.143718">
   <ele>1943.00</ele>
   <time>2014-03-30T13:56:10Z</time>
  </trkpt>
  <trkpt lat="33.673487" lon="-4.143965">
   <ele>1941.00</ele>
   <time>2014-03-30T13:56:12Z</time>
  </trkpt>
  <trkpt lat="33.673439" lon="-4.144215">
   <ele>1939.00</ele>
   <time>2014-03-30T13:56:14Z</time>
  </trkpt>
  <trkpt lat="33.673340" lon="-4.144445">
   <ele>1938.00</ele>
   <time>2014-03-30T13:56:16Z</time>
  </trkpt>
  <trkpt lat="33.673281" lon="-4.144685">
   <ele>1936.00</ele>
   <time>2014-03-30T13:56:18Z</time>
  </trkpt>
  <trkpt lat="33.673285" lon="-4.144944">
   <ele>1933.00</ele>
   <time>2014-03-30T13:56:20Z</time>
  </trkpt>
  <trkpt lat="33.673349" lon="-4.145214">
   <ele>1931.00</ele>
   <time>2014-03-30T13:56:22Z</time>
  </trkpt>
  <trkpt lat="33.673402" lon="-4.145496">
   <ele>1929.00</ele>
   <time>2014-03-30T13:56:24Z</time>
  </trkpt>
  <trkpt lat="33.673384" lon="-4.145771">
   <ele>1928.00</ele>
   <time>2014-03-30T13:56:26Z</time>
  </trkpt>
  <trkpt lat="33.673364" lon="-4.146029">
   <ele>1926.00</ele>
   <time>2014-03-30T13:56:28Z</time>
  </trkpt>
  <trkpt lat="33.673399" lon="-4.146280">
   <ele>1924.00</ele>
   <time>2014-03-30T13:56:30Z</time>
  </trkpt>
  <trkpt lat="33.673490" lon="-4.146522">
   <ele>1923.00</ele>
   <time>2014-03-30T13:56:32Z</time>
  </trkpt>
  <trkpt lat="33.673593" lon="-4.146758">
   <ele>1921.00</ele>
   <time>2014-03-30T13:56:34Z</time>
  </trkpt>
  <trkpt lat="33.673631" lon="-4.147002">
   <ele>1921.00</ele>
   <time>2014-03-30T13:56:36Z</time>
  </trkpt>
  <trkpt lat="33.673607" lon="-4.147246">
   <ele>1919.00</ele>
   <time>2014-03-30T13:56:38Z</time>
  </trkpt>
  <trkpt lat="33.673559" lon="-4.147490">
   <ele>1917.00</ele>
   <time>2014-03-30T13:56:40Z</time>
  </trkpt>
  <trkpt lat="33.673454" lon="-4.147708">
   <ele>1915.00</ele>
   <time>2014-03-30T13:56:42Z</time>
  </trkpt>
  <trkpt lat="33.673273" lon="-4.147883">
   <ele>1914.00</ele>
   <time>2014-03-30T13:56:44Z</time>
  </trkpt>
  <trkpt lat="33.673043" lon="-4.148008">
   <ele>1913.00</ele>
   <time>2014-03-30T13:56:46Z</time>
  </trkpt>
  <trkpt lat="33.672782" lon="-4.148096">
   <ele>1913.00</ele>
   <time>2014-03-30T13:56:48Z</time>
  </trkpt>
  <trkpt lat="33.671286" lon="-4.148568">
   <ele>1915.00</ele>
   <time>2014-03-30T13:56:59Z</time>
  </trkpt>
  <trkpt lat="33.670698" lon="-4.148716">
   <ele>1918.00</ele>
   <time>2014-03-30T13:57:03Z</time>
  </trkpt>
  <trkpt lat="33.670402" lon="-4.148771">
   <ele>1920.00</ele>
   <time>2014-03-30T13:57:05Z</time>
  </trkpt>
  <trkpt lat="33.670098" lon="-4.148809">
   <ele>1923.00</ele>
   <time>2014-03-30T13:57:07Z</time>
  </trkpt>
  <trkpt lat="33.669277" lon="-4.148890">
   <ele>1928.00</ele>
   <time>2014-03-30T13:57:13Z</time>
  </trkpt>
  <trkpt lat="33.668905" lon="-4.148935">
   <ele>1928.00</ele>
   <time>2014-03-30T13:57:16Z</time>
  </trkpt>
  <trkpt lat="33.667226" lon="-4.149124">
   <ele>1927.00</ele>
   <time>2014-03-30T13:57:28Z</time>
  </trkpt>
  <trkpt lat="33.666971" lon="-4.149185">
   <ele>1927.00</ele>
   <time>2014-03-30T13:57:30Z</time>
  </trkpt>
  <trkpt lat="33.666733" lon="-4.149279">
   <ele>1927.00</ele>
   <time>2014-03-30T13:57:32Z</time>
  </trkpt>
  <trkpt lat="33.666528" lon="-4.149421">
   <ele>1928.00</ele>
   <time>2014-03-30T13:57:34Z</time>
  </trkpt>
  <trkpt lat="33.666365" lon="-4.149623">
   <ele>1927.00</ele>
   <time>2014-03-30T13:57:36Z</time>
  </trkpt>
  <trkpt lat="33.666234" lon="-4.149885">
   <ele>1926.00</ele>
   <time>2014-03-30T13:57:38Z</time>
  </trkpt>
  <trkpt lat="33.666114" lon="-4.150195">
   <ele>1925.00</ele>
   <time>2014-03-30T13:57:40Z</time>
  </trkpt>
  <trkpt lat="33.666011" lon="-4.150534">
   <ele>1924.00</ele>
   <time>2014-03-30T13:57:42Z</time>
  </trkpt>
  <trkpt lat="33.665640" lon="-4.151916">
   <ele>1927.00</ele>
   <time>2014-03-30T13:57:50Z</time>
  </trkpt>
  <trkpt lat="33.665495" lon="-4.152208">
   <ele>1928.00</ele>
   <time>2014-03-30T13:57:52Z</time>
  </trkpt>
  <trkpt lat="33.665324" lon="-4.152462">
   <ele>1929.00</ele>
   <time>2014-03-30T13:57:54Z</time>
  </trkpt>
  <trkpt lat="33.665139" lon="-4.152658">
   <ele>1931.00</ele>
   <time>2014-03-30T13:57:56Z</time>
  </trkpt>
  <trkpt lat="33.664907" lon="-4.152756">
   <ele>1931.00</ele>
   <time>2014-03-30T13:57:58Z</time>
  </trkpt>
  <trkpt lat="33.664683" lon="-4.152742">
   <ele>1931.00</ele>
   <time>2014-03-30T13:58:00Z</time>
  </trkpt>
  <trkpt lat="33.664524" lon="-4.152581">
   <ele>1931.00</ele>
   <time>2014-03-30T13:58:02Z</time>
  </trkpt>
  <trkpt lat="33.664405" lon="-4.152336">
   <ele>1930.00</ele>
   <time>2014-03-30T13:58:04Z</time>
  </trkpt>
  <trkpt lat="33.664309" lon="-4.152102">
   <ele>1929.00</ele>
   <time>2014-03-30T13:58:06Z</time>
  </trkpt>
  <trkpt lat="33.664197" lon="-4.151884">
   <ele>1927.00</ele>
   <time>2014-03-30T13:58:08Z</time>
  </trkpt>
  <trkpt lat="33.664042" lon="-4.151731">
   <ele>1927.00</ele>
   <time>2014-03-30T13:58:10Z</time>
  </trkpt>
  <trkpt lat="33.663867" lon="-4.151751">
   <ele>1925.00</ele>
   <time>2014-03-30T13:58:12Z</time>
  </trkpt>
  <trkpt lat="33.663721" lon="-4.152021">
   <ele>1922.00</ele>
   <time>2014-03-30T13:58:15Z</time>
  </trkpt>
  <trkpt lat="33.663705" lon="-4.152285">
   <ele>1921.00</ele>
   <time>2014-03-30T13:58:17Z</time>
  </trkpt>
  <trkpt lat="33.663683" lon="-4.152848">
   <ele>1922.00</ele>
   <time>2014-03-30T13:58:21Z</time>
  </trkpt>
  <trkpt lat="33.663635" lon="-4.153063">
   <ele>1923.00</ele>
   <time>2014-03-30T13:58:23Z</time>
  </trkpt>
  <trkpt lat="33.663420" lon="-4.153238">
   <ele>1923.00</ele>
   <time>2014-03-30T13:58:26Z</time>
  </trkpt>
  <trkpt lat="33.663199" lon="-4.153259">
   <ele>1922.00</ele>
   <time>2014-03-30T13:58:28Z</time>
  </trkpt>
  <trkpt lat="33.662954" lon="-4.153286">
   <ele>1921.00</ele>
   <time>2014-03-30T13:58:30Z</time>
  </trkpt>
  <trkpt lat="33.662709" lon="-4.153343">
   <ele>1919.00</ele>
   <time>2014-03-30T13:58:32Z</time>
  </trkpt>
  <trkpt lat="33.662475" lon="-4.153435">
   <ele>1918.00</ele>
   <time>2014-03-30T13:58:34Z</time>
  </trkpt>
  <trkpt lat="33.662263" lon="-4.153573">
   <ele>1918.00</ele>
   <time>2014-03-30T13:58:36Z</time>
  </trkpt>
  <trkpt lat="33.662084" lon="-4.153748">
   <ele>1918.00</ele>
   <time>2014-03-30T13:58:38Z</time>
  </trkpt>
  <trkpt lat="33.661913" lon="-4.153906">
   <ele>1917.00</ele>
   <time>2014-03-30T13:58:40Z</time>
  </trkpt>
  <trkpt lat="33.661726" lon="-4.153992">
   <ele>1917.00</ele>
   <time>2014-03-30T13:58:42Z</time>
  </trkpt>
  <trkpt lat="33.661535" lon="-4.153963">
   <ele>1915.00</ele>
   <time>2014-03-30T13:58:44Z</time>
  </trkpt>
  <trkpt lat="33.661344" lon="-4.153834">
   <ele>1914.00</ele>
   <time>2014-03-30T13:58:46Z</time>
  </trkpt>
  <trkpt lat="33.661159" lon="-4.153647">
   <ele>1912.00</ele>
   <time>2014-03-30T13:58:48Z</time>
  </trkpt>
  <trkpt lat="33.660989" lon="-4.153423">
   <ele>1910.00</ele>
   <time>2014-03-30T13:58:50Z</time>
  </trkpt>
  <trkpt lat="33.660844" lon="-4.153172">
   <ele>1908.00</ele>
   <time>2014-03-30T13:58:52Z</time>
  </trkpt>
  <trkpt lat="33.660653" lon="-4.152832">
   <ele>1906.00</ele>
   <time>2014-03-30T13:58:55Z</time>
  </trkpt>
  <trkpt lat="33.660502" lon="-4.152683">
   <ele>1904.00</ele>
   <time>2014-03-30T13:58:57Z</time>
  </trkpt>
  <trkpt lat="33.660309" lon="-4.152642">
   <ele>1904.00</ele>
   <time>2014-03-30T13:58:59Z</time>
  </trkpt>
  <trkpt lat="33.660116" lon="-4.152705">
   <ele>1902.00</ele>
   <time>2014-03-30T13:59:01Z</time>
  </trkpt>
  <trkpt lat="33.659926" lon="-4.152793">
   <ele>1900.00</ele>
   <time>2014-03-30T13:59:03Z</time>
  </trkpt>
  <trkpt lat="33.659746" lon="-4.152932">
   <ele>1898.00</ele>
   <time>2014-03-30T13:59:05Z</time>
  </trkpt>
  <trkpt lat="33.659615" lon="-4.153157">
   <ele>1896.00</ele>
   <time>2014-03-30T13:59:07Z</time>
  </trkpt>
  <trkpt lat="33.659522" lon="-4.153431">
   <ele>1893.00</ele>
   <time>2014-03-30T13:59:09Z</time>
  </trkpt>
  <trkpt lat="33.659222" lon="-4.154309">
   <ele>1887.00</ele>
   <time>2014-03-30T13:59:15Z</time>
  </trkpt>
  <trkpt lat="33.659189" lon="-4.154617">
   <ele>1886.00</ele>
   <time>2014-03-30T13:59:17Z</time>
  </trkpt>
  <trkpt lat="33.659238" lon="-4.154914">
   <ele>1886.00</ele>
   <time>2014-03-30T13:59:19Z</time>
  </trkpt>
  <trkpt lat="33.659388" lon="-4.155681">
   <ele>1885.00</ele>
   <time>2014-03-30T13:59:24Z</time>
  </trkpt>
  <trkpt lat="33.659412" lon="-4.155952">
   <ele>1885.00</ele>
   <time>2014-03-30T13:59:26Z</time>
  </trkpt>
  <trkpt lat="33.659354" lon="-4.156165">
   <ele>1886.00</ele>
   <time>2014-03-30T13:59:28Z</time>
  </trkpt>
  <trkpt lat="33.659220" lon="-4.156315">
   <ele>1885.00</ele>
   <time>2014-03-30T13:59:30Z</time>
  </trkpt>
  <trkpt lat="33.659029" lon="-4.156414">
   <ele>1884.00</ele>
   <time>2014-03-30T13:59:32Z</time>
  </trkpt>
  <trkpt lat="33.658799" lon="-4.156479">
   <ele>1882.00</ele>
   <time>2014-03-30T13:59:34Z</time>
  </trkpt>
  <trkpt lat="33.658576" lon="-4.156502">
   <ele>1880.00</ele>
   <time>2014-03-30T13:59:36Z</time>
  </trkpt>
  <trkpt lat="33.658380" lon="-4.156443">
   <ele>1878.00</ele>
   <time>2014-03-30T13:59:38Z</time>
  </trkpt>
  <trkpt lat="33.658202" lon="-4.156294">
   <ele>1875.00</ele>
   <time>2014-03-30T13:59:40Z</time>
  </trkpt>
  <trkpt lat="33.658026" lon="-4.156111">
   <ele>1874.00</ele>
   <time>2014-03-30T13:59:42Z</time>
  </trkpt>
  <trkpt lat="33.657857" lon="-4.155913">
   <ele>1873.00</ele>
   <time>2014-03-30T13:59:44Z</time>
  </trkpt>
  <trkpt lat="33.657704" lon="-4.155734">
   <ele>1872.00</ele>
   <time>2014-03-30T13:59:46Z</time>
  </trkpt>
  <trkpt lat="33.657536" lon="-4.155620">
   <ele>1871.00</ele>
   <time>2014-03-30T13:59:48Z</time>
  </trkpt>
  <trkpt lat="33.657350" lon="-4.155592">
   <ele>1869.00</ele>
   <time>2014-03-30T13:59:50Z</time>
  </trkpt>
  <trkpt lat="33.657147" lon="-4.155620">
   <ele>1868.00</ele>
   <time>2014-03-30T13:59:52Z</time>
  </trkpt>
  <trkpt lat="33.656936" lon="-4.155617">
   <ele>1867.00</ele>
   <time>2014-03-30T13:59:54Z</time>
  </trkpt>
  <trkpt lat="33.656723" lon="-4.155549">
   <ele>1866.00</ele>
   <time>2014-03-30T13:59:56Z</time>
  </trkpt>
  <trkpt lat="33.656511" lon="-4.155442">
   <ele>1865.00</ele>
   <time>2014-03-30T13:59:58Z</time>
  </trkpt>
  <trkpt lat="33.656293" lon="-4.155344">
   <ele>1864.00</ele>
   <time>2014-03-30T14:00:00Z</time>
  </trkpt>
  <trkpt lat="33.656062" lon="-4.155288">
   <ele>1864.00</ele>
   <time>2014-03-30T14:00:02Z</time>
  </trkpt>
  <trkpt lat="33.655853" lon="-4.155251">
   <ele>1864.00</ele>
   <time>2014-03-30T14:00:04Z</time>
  </trkpt>
  <trkpt lat="33.655614" lon="-4.155249">
   <ele>1863.00</ele>
   <time>2014-03-30T14:00:07Z</time>
  </trkpt>
  <trkpt lat="33.655457" lon="-4.155390">
   <ele>1862.00</ele>
   <time>2014-03-30T14:00:10Z</time>
  </trkpt>
  <trkpt lat="33.655439" lon="-4.155627">
   <ele>1863.00</ele>
   <time>2014-03-30T14:00:13Z</time>
  </trkpt>
  <trkpt lat="33.655526" lon="-4.155874">
   <ele>1865.00</ele>
   <time>2014-03-30T14:00:16Z</time>
  </trkpt>
  <trkpt lat="33.655683" lon="-4.156121">
   <ele>1867.00</ele>
   <time>2014-03-30T14:00:19Z</time>
  </trkpt>
  <trkpt lat="33.655854" lon="-4.156379">
   <ele>1869.00</ele>
   <time>2014-03-30T14:00:22Z</time>
  </trkpt>
  <trkpt lat="33.655957" lon="-4.156589">
   <ele>1870.00</ele>
   <time>2014-03-30T14:00:24Z</time>
  </trkpt>
  <trkpt lat="33.656032" lon="-4.156805">
   <ele>1870.00</ele>
   <time>2014-03-30T14:00:26Z</time>
  </trkpt>
  <trkpt lat="33.656086" lon="-4.157016">
   <ele>1870.00</ele>
   <time>2014-03-30T14:00:28Z</time>
  </trkpt>
  <trkpt lat="33.656129" lon="-4.157234">
   <ele>1871.00</ele>
   <time>2014-03-30T14:00:30Z</time>
  </trkpt>
  <trkpt lat="33.656169" lon="-4.157454">
   <ele>1872.00</ele>
   <time>2014-03-30T14:00:32Z</time>
  </trkpt>
  <trkpt lat="33.656179" lon="-4.157675">
   <ele>1873.00</ele>
   <time>2014-03-30T14:00:34Z</time>
  </trkpt>
  <trkpt lat="33.656154" lon="-4.157996">
   <ele>1873.00</ele>
   <time>2014-03-30T14:00:37Z</time>
  </trkpt>
  <trkpt lat="33.656080" lon="-4.158288">
   <ele>1874.00</ele>
   <time>2014-03-30T14:00:40Z</time>
  </trkpt>
  <trkpt lat="33.655937" lon="-4.158475">
   <ele>1874.00</ele>
   <time>2014-03-30T14:00:43Z</time>
  </trkpt>
  <trkpt lat="33.655690" lon="-4.158481">
   <ele>1875.00</ele>
   <time>2014-03-30T14:00:46Z</time>
  </trkpt>
  <trkpt lat="33.655550" lon="-4.158325">
   <ele>1875.00</ele>
   <time>2014-03-30T14:00:48Z</time>
  </trkpt>
  <trkpt lat="33.655412" lon="-4.158142">
   <ele>1876.00</ele>
   <time>2014-03-30T14:00:50Z</time>
  </trkpt>
  <trkpt lat="33.655250" lon="-4.157994">
   <ele>1877.00</ele>
   <time>2014-03-30T14:00:52Z</time>
  </trkpt>
  <trkpt lat="33.655066" lon="-4.157935">
   <ele>1876.00</ele>
   <time>2014-03-30T14:00:54Z</time>
  </trkpt>
  <trkpt lat="33.654872" lon="-4.157972">
   <ele>1876.00</ele>
   <time>2014-03-30T14:00:56Z</time>
  </trkpt>
  <trkpt lat="33.654690" lon="-4.158068">
   <ele>1878.00</ele>
   <time>2014-03-30T14:00:58Z</time>
  </trkpt>
  <trkpt lat="33.654534" lon="-4.158244">
   <ele>1878.00</ele>
   <time>2014-03-30T14:01:00Z</time>
  </trkpt>
  <trkpt lat="33.654442" lon="-4.158453">
   <ele>1876.00</ele>
   <time>2014-03-30T14:01:02Z</time>
  </trkpt>
  <trkpt lat="33.654293" lon="-4.158607">
   <ele>1876.00</ele>
   <time>2014-03-30T14:01:04Z</time>
  </trkpt>
  <trkpt lat="33.654113" lon="-4.158652">
   <ele>1875.00</ele>
   <time>2014-03-30T14:01:06Z</time>
  </trkpt>
  <trkpt lat="33.653936" lon="-4.158712">
   <ele>1873.00</ele>
   <time>2014-03-30T14:01:08Z</time>
  </trkpt>
  <trkpt lat="33.653741" lon="-4.158924">
   <ele>1871.00</ele>
   <time>2014-03-30T14:01:11Z</time>
  </trkpt>
  <trkpt lat="33.653598" lon="-4.159182">
   <ele>1870.00</ele>
   <time>2014-03-30T14:01:14Z</time>
  </trkpt>
  <trkpt lat="33.653368" lon="-4.159338">
   <ele>1871.00</ele>
   <time>2014-03-30T14:01:17Z</time>
  </trkpt>
  <trkpt lat="33.653179" lon="-4.159511">
   <ele>1869.00</ele>
   <time>2014-03-30T14:01:20Z</time>
  </trkpt>
  <trkpt lat="33.653133" lon="-4.159822">
   <ele>1872.00</ele>
   <time>2014-03-30T14:01:23Z</time>
  </trkpt>
  <trkpt lat="33.653090" lon="-4.160033">
   <ele>1873.00</ele>
   <time>2014-03-30T14:01:25Z</time>
  </trkpt>
  <trkpt lat="33.652937" lon="-4.160275">
   <ele>1875.00</ele>
   <time>2014-03-30T14:01:28Z</time>
  </trkpt>
  <trkpt lat="33.652810" lon="-4.160484">
   <ele>1877.00</ele>
   <time>2014-03-30T14:01:31Z</time>
  </trkpt>
  <trkpt lat="33.652837" lon="-4.160740">
   <ele>1880.00</ele>
   <time>2014-03-30T14:01:34Z</time>
  </trkpt>
  <trkpt lat="33.652893" lon="-4.160981">
   <ele>1882.00</ele>
   <time>2014-03-30T14:01:37Z</time>
  </trkpt>
  <trkpt lat="33.652822" lon="-4.161231">
   <ele>1885.00</ele>
   <time>2014-03-30T14:01:40Z</time>
  </trkpt>
  <trkpt lat="33.652702" lon="-4.161464">
   <ele>1886.00</ele>
   <time>2014-03-30T14:01:43Z</time>
  </trkpt>
  <trkpt lat="33.652588" lon="-4.161632">
   <ele>1887.00</ele>
   <time>2014-03-30T14:01:45Z</time>
  </trkpt>
  <trkpt lat="33.652522" lon="-4.161843">
   <ele>1888.00</ele>
   <time>2014-03-30T14:01:47Z</time>
  </trkpt>
  <trkpt lat="33.652508" lon="-4.162076">
   <ele>1890.00</ele>
   <time>2014-03-30T14:01:49Z</time>
  </trkpt>
  <trkpt lat="33.652462" lon="-4.162293">
   <ele>1892.00</ele>
   <time>2014-03-30T14:01:51Z</time>
  </trkpt>
  <trkpt lat="33.652407" lon="-4.162639">
   <ele>1895.00</ele>
   <time>2014-03-30T14:01:54Z</time>
  </trkpt>
  <trkpt lat="33.652340" lon="-4.162859">
   <ele>1895.00</ele>
   <time>2014-03-30T14:01:56Z</time>
  </trkpt>
  <trkpt lat="33.652229" lon="-4.163054">
   <ele>1896.00</ele>
   <time>2014-03-30T14:01:58Z</time>
  </trkpt>
  <trkpt lat="33.652106" lon="-4.163229">
   <ele>1897.00</ele>
   <time>2014-03-30T14:02:00Z</time>
  </trkpt>
  <trkpt lat="33.651958" lon="-4.163385">
   <ele>1897.00</ele>
   <time>2014-03-30T14:02:02Z</time>
  </trkpt>
  <trkpt lat="33.651799" lon="-4.163535">
   <ele>1897.00</ele>
   <time>2014-03-30T14:02:04Z</time>
  </trkpt>
  <trkpt lat="33.651678" lon="-4.163741">
   <ele>1899.00</ele>
   <time>2014-03-30T14:02:06Z</time>
  </trkpt>
  <trkpt lat="33.651615" lon="-4.163980">
   <ele>1898.00</ele>
   <time>2014-03-30T14:02:08Z</time>
  </trkpt>
  <trkpt lat="33.651553" lon="-4.164218">
   <ele>1899.00</ele>
   <time>2014-03-30T14:02:10Z</time>
  </trkpt>
  <trkpt lat="33.651431" lon="-4.164447">
   <ele>1901.00</ele>
   <time>2014-03-30T14:02:12Z</time>
  </trkpt>
  <trkpt lat="33.651315" lon="-4.164656">
   <ele>1898.00</ele>
   <time>2014-03-30T14:02:14Z</time>
  </trkpt>
  <trkpt lat="33.651219" lon="-4.164856">
   <ele>1897.00</ele>
   <time>2014-03-30T14:02:16Z</time>
  </trkpt>
  <trkpt lat="33.651228" lon="-4.165157">
   <ele>1898.00</ele>
   <time>2014-03-30T14:02:19Z</time>
  </trkpt>
  <trkpt lat="33.651332" lon="-4.165428">
   <ele>1899.00</ele>
   <time>2014-03-30T14:02:22Z</time>
  </trkpt>
  <trkpt lat="33.651394" lon="-4.165743">
   <ele>1901.00</ele>
   <time>2014-03-30T14:02:25Z</time>
  </trkpt>
  <trkpt lat="33.651356" lon="-4.165962">
   <ele>1903.00</ele>
   <time>2014-03-30T14:02:27Z</time>
  </trkpt>
  <trkpt lat="33.651272" lon="-4.166172">
   <ele>1903.00</ele>
   <time>2014-03-30T14:02:29Z</time>
  </trkpt>
  <trkpt lat="33.651200" lon="-4.166389">
   <ele>1904.00</ele>
   <time>2014-03-30T14:02:31Z</time>
  </trkpt>
  <trkpt lat="33.651144" lon="-4.166615">
   <ele>1905.00</ele>
   <time>2014-03-30T14:02:33Z</time>
  </trkpt>
  <trkpt lat="33.651071" lon="-4.166830">
   <ele>1905.00</ele>
   <time>2014-03-30T14:02:35Z</time>
  </trkpt>
  <trkpt lat="33.650967" lon="-4.167019">
   <ele>1905.00</ele>
   <time>2014-03-30T14:02:37Z</time>
  </trkpt>
  <trkpt lat="33.650825" lon="-4.167175">
   <ele>1904.00</ele>
   <time>2014-03-30T14:02:39Z</time>
  </trkpt>
  <trkpt lat="33.650650" lon="-4.167320">
   <ele>1903.00</ele>
   <time>2014-03-30T14:02:41Z</time>
  </trkpt>
  <trkpt lat="33.650065" lon="-4.167780">
   <ele>1901.00</ele>
   <time>2014-03-30T14:02:48Z</time>
  </trkpt>
  <trkpt lat="33.649945" lon="-4.167994">
   <ele>1900.00</ele>
   <time>2014-03-30T14:02:51Z</time>
  </trkpt>
  <trkpt lat="33.649894" lon="-4.168278">
   <ele>1900.00</ele>
   <time>2014-03-30T14:02:54Z</time>
  </trkpt>
  <trkpt lat="33.649874" lon="-4.168585">
   <ele>1900.00</ele>
   <time>2014-03-30T14:02:57Z</time>
  </trkpt>
  <trkpt lat="33.649858" lon="-4.168878">
   <ele>1900.00</ele>
   <time>2014-03-30T14:03:00Z</time>
  </trkpt>
  <trkpt lat="33.649723" lon="-4.169134">
   <ele>1899.00</ele>
   <time>2014-03-30T14:03:03Z</time>
  </trkpt>
  <trkpt lat="33.649565" lon="-4.169394">
   <ele>1899.00</ele>
   <time>2014-03-30T14:03:06Z</time>
  </trkpt>
  <trkpt lat="33.649495" lon="-4.169596">
   <ele>1898.00</ele>
   <time>2014-03-30T14:03:08Z</time>
  </trkpt>
  <trkpt lat="33.649462" lon="-4.169816">
   <ele>1897.00</ele>
   <time>2014-03-30T14:03:10Z</time>
  </trkpt>
  <trkpt lat="33.649424" lon="-4.170050">
   <ele>1896.00</ele>
   <time>2014-03-30T14:03:12Z</time>
  </trkpt>
  <trkpt lat="33.649197" lon="-4.171461">
   <ele>1892.00</ele>
   <time>2014-03-30T14:03:23Z</time>
  </trkpt>
  <trkpt lat="33.649136" lon="-4.171714">
   <ele>1891.00</ele>
   <time>2014-03-30T14:03:25Z</time>
  </trkpt>
  <trkpt lat="33.649053" lon="-4.171954">
   <ele>1889.00</ele>
   <time>2014-03-30T14:03:27Z</time>
  </trkpt>
  <trkpt lat="33.648949" lon="-4.172177">
   <ele>1888.00</ele>
   <time>2014-03-30T14:03:29Z</time>
  </trkpt>
  <trkpt lat="33.648830" lon="-4.172387">
   <ele>1887.00</ele>
   <time>2014-03-30T14:03:31Z</time>
  </trkpt>
  <trkpt lat="33.648696" lon="-4.172594">
   <ele>1887.00</ele>
   <time>2014-03-30T14:03:33Z</time>
  </trkpt>
  <trkpt lat="33.648268" lon="-4.173201">
   <ele>1886.00</ele>
   <time>2014-03-30T14:03:39Z</time>
  </trkpt>
  <trkpt lat="33.647079" lon="-4.174829">
   <ele>1879.00</ele>
   <time>2014-03-30T14:03:54Z</time>
  </trkpt>
  <trkpt lat="33.646748" lon="-4.175252">
   <ele>1876.00</ele>
   <time>2014-03-30T14:03:59Z</time>
  </trkpt>
  <trkpt lat="33.646626" lon="-4.175431">
   <ele>1876.00</ele>
   <time>2014-03-30T14:04:01Z</time>
  </trkpt>
  <trkpt lat="33.646329" lon="-4.175906">
   <ele>1876.00</ele>
   <time>2014-03-30T14:04:06Z</time>
  </trkpt>
  <trkpt lat="33.646203" lon="-4.176079">
   <ele>1876.00</ele>
   <time>2014-03-30T14:04:08Z</time>
  </trkpt>
  <trkpt lat="33.645873" lon="-4.176496">
   <ele>1876.00</ele>
   <time>2014-03-30T14:04:13Z</time>
  </trkpt>
  <trkpt lat="33.645687" lon="-4.176722">
   <ele>1876.00</ele>
   <time>2014-03-30T14:04:16Z</time>
  </trkpt>
  <trkpt lat="33.645571" lon="-4.176893">
   <ele>1876.00</ele>
   <time>2014-03-30T14:04:18Z</time>
  </trkpt>
  <trkpt lat="33.645458" lon="-4.177075">
   <ele>1877.00</ele>
   <time>2014-03-30T14:04:20Z</time>
  </trkpt>
  <trkpt lat="33.645230" lon="-4.177452">
   <ele>1877.00</ele>
   <time>2014-03-30T14:04:24Z</time>
  </trkpt>
  <trkpt lat="33.645032" lon="-4.177732">
   <ele>1876.00</ele>
   <time>2014-03-30T14:04:27Z</time>
  </trkpt>
  <trkpt lat="33.644905" lon="-4.177918">
   <ele>1875.00</ele>
   <time>2014-03-30T14:04:29Z</time>
  </trkpt>
  <trkpt lat="33.644829" lon="-4.178137">
   <ele>1874.00</ele>
   <time>2014-03-30T14:04:31Z</time>
  </trkpt>
  <trkpt lat="33.644779" lon="-4.178478">
   <ele>1873.00</ele>
   <time>2014-03-30T14:04:34Z</time>
  </trkpt>
  <trkpt lat="33.644763" lon="-4.178697">
   <ele>1872.00</ele>
   <time>2014-03-30T14:04:36Z</time>
  </trkpt>
  <trkpt lat="33.644781" lon="-4.178919">
   <ele>1872.00</ele>
   <time>2014-03-30T14:04:38Z</time>
  </trkpt>
  <trkpt lat="33.644824" lon="-4.179151">
   <ele>1873.00</ele>
   <time>2014-03-30T14:04:40Z</time>
  </trkpt>
  <trkpt lat="33.644880" lon="-4.179378">
   <ele>1873.00</ele>
   <time>2014-03-30T14:04:42Z</time>
  </trkpt>
  <trkpt lat="33.644945" lon="-4.179607">
   <ele>1873.00</ele>
   <time>2014-03-30T14:04:44Z</time>
  </trkpt>
  <trkpt lat="33.645007" lon="-4.179834">
   <ele>1873.00</ele>
   <time>2014-03-30T14:04:46Z</time>
  </trkpt>
  <trkpt lat="33.645048" lon="-4.180051">
   <ele>1872.00</ele>
   <time>2014-03-30T14:04:48Z</time>
  </trkpt>
  <trkpt lat="33.645037" lon="-4.180320">
   <ele>1872.00</ele>
   <time>2014-03-30T14:04:51Z</time>
  </trkpt>
  <trkpt lat="33.644931" lon="-4.180564">
   <ele>1871.00</ele>
   <time>2014-03-30T14:04:55Z</time>
  </trkpt>
  <trkpt lat="33.644827" lon="-4.180786">
   <ele>1871.00</ele>
   <time>2014-03-30T14:04:59Z</time>
  </trkpt>
  <trkpt lat="33.644691" lon="-4.180954">
   <ele>1869.00</ele>
   <time>2014-03-30T14:05:02Z</time>
  </trkpt>
  <trkpt lat="33.644505" lon="-4.181069">
   <ele>1866.00</ele>
   <time>2014-03-30T14:05:05Z</time>
  </trkpt>
  <trkpt lat="33.644341" lon="-4.181260">
   <ele>1865.00</ele>
   <time>2014-03-30T14:05:09Z</time>
  </trkpt>
  <trkpt lat="33.644304" lon="-4.181482">
   <ele>1864.00</ele>
   <time>2014-03-30T14:05:12Z</time>
  </trkpt>
  <trkpt lat="33.644253" lon="-4.181709">
   <ele>1863.00</ele>
   <time>2014-03-30T14:05:15Z</time>
  </trkpt>
  <trkpt lat="33.644185" lon="-4.181925">
   <ele>1862.00</ele>
   <time>2014-03-30T14:05:18Z</time>
  </trkpt>
  <trkpt lat="33.644127" lon="-4.182162">
   <ele>1860.00</ele>
   <time>2014-03-30T14:05:21Z</time>
  </trkpt>
  <trkpt lat="33.644090" lon="-4.182439">
   <ele>1858.00</ele>
   <time>2014-03-30T14:05:24Z</time>
  </trkpt>
  <trkpt lat="33.644058" lon="-4.182729">
   <ele>1856.00</ele>
   <time>2014-03-30T14:05:27Z</time>
  </trkpt>
  <trkpt lat="33.644052" lon="-4.183035">
   <ele>1855.00</ele>
   <time>2014-03-30T14:05:30Z</time>
  </trkpt>
  <trkpt lat="33.644047" lon="-4.183537">
   <ele>1853.00</ele>
   <time>2014-03-30T14:05:35Z</time>
  </trkpt>
  <trkpt lat="33.644100" lon="-4.183921">
   <ele>1851.00</ele>
   <time>2014-03-30T14:05:39Z</time>
  </trkpt>
  <trkpt lat="33.644019" lon="-4.184177">
   <ele>1849.00</ele>
   <time>2014-03-30T14:05:42Z</time>
  </trkpt>
  <trkpt lat="33.643989" lon="-4.184444">
   <ele>1847.00</ele>
   <time>2014-03-30T14:05:45Z</time>
  </trkpt>
  <trkpt lat="33.644051" lon="-4.184716">
   <ele>1846.00</ele>
   <time>2014-03-30T14:05:48Z</time>
  </trkpt>
  <trkpt lat="33.644091" lon="-4.184970">
   <ele>1846.00</ele>
   <time>2014-03-30T14:05:51Z</time>
  </trkpt>
  <trkpt lat="33.644011" lon="-4.185219">
   <ele>1844.00</ele>
   <time>2014-03-30T14:05:54Z</time>
  </trkpt>
  <trkpt lat="33.643831" lon="-4.185447">
   <ele>1841.00</ele>
   <time>2014-03-30T14:05:57Z</time>
  </trkpt>
  <trkpt lat="33.643673" lon="-4.185692">
   <ele>1840.00</ele>
   <time>2014-03-30T14:06:00Z</time>
  </trkpt>
  <trkpt lat="33.643616" lon="-4.185970">
   <ele>1839.00</ele>
   <time>2014-03-30T14:06:03Z</time>
  </trkpt>
  <trkpt lat="33.643652" lon="-4.186289">
   <ele>1838.00</ele>
   <time>2014-03-30T14:06:06Z</time>
  </trkpt>
  <trkpt lat="33.643713" lon="-4.186521">
   <ele>1836.00</ele>
   <time>2014-03-30T14:06:08Z</time>
  </trkpt>
  <trkpt lat="33.643853" lon="-4.187135">
   <ele>1834.00</ele>
   <time>2014-03-30T14:06:13Z</time>
  </trkpt>
  <trkpt lat="33.643882" lon="-4.187362">
   <ele>1832.00</ele>
   <time>2014-03-30T14:06:15Z</time>
  </trkpt>
  <trkpt lat="33.643850" lon="-4.187582">
   <ele>1830.00</ele>
   <time>2014-03-30T14:06:17Z</time>
  </trkpt>
  <trkpt lat="33.643757" lon="-4.187786">
   <ele>1829.00</ele>
   <time>2014-03-30T14:06:19Z</time>
  </trkpt>
  <trkpt lat="33.643587" lon="-4.188081">
   <ele>1827.00</ele>
   <time>2014-03-30T14:06:22Z</time>
  </trkpt>
  <trkpt lat="33.643405" lon="-4.188372">
   <ele>1826.00</ele>
   <time>2014-03-30T14:06:26Z</time>
  </trkpt>
  <trkpt lat="33.643239" lon="-4.188567">
   <ele>1825.00</ele>
   <time>2014-03-30T14:06:30Z</time>
  </trkpt>
  <trkpt lat="33.643104" lon="-4.188800">
   <ele>1824.00</ele>
   <time>2014-03-30T14:06:34Z</time>
  </trkpt>
  <trkpt lat="33.642868" lon="-4.189319">
   <ele>1821.00</ele>
   <time>2014-03-30T14:06:41Z</time>
  </trkpt>
  <trkpt lat="33.642721" lon="-4.189669">
   <ele>1819.00</ele>
   <time>2014-03-30T14:06:45Z</time>
  </trkpt>
  <trkpt lat="33.642618" lon="-4.189966">
   <ele>1818.00</ele>
   <time>2014-03-30T14:06:48Z</time>
  </trkpt>
  <trkpt lat="33.642518" lon="-4.190278">
   <ele>1816.00</ele>
   <time>2014-03-30T14:06:51Z</time>
  </trkpt>
  <trkpt lat="33.642437" lon="-4.190483">
   <ele>1816.00</ele>
   <time>2014-03-30T14:06:53Z</time>
  </trkpt>
  <trkpt lat="33.642272" lon="-4.190892">
   <ele>1814.00</ele>
   <time>2014-03-30T14:06:57Z</time>
  </trkpt>
  <trkpt lat="33.642167" lon="-4.191223">
   <ele>1813.00</ele>
   <time>2014-03-30T14:07:00Z</time>
  </trkpt>
  <trkpt lat="33.642063" lon="-4.191560">
   <ele>1812.00</ele>
   <time>2014-03-30T14:07:03Z</time>
  </trkpt>
  <trkpt lat="33.641950" lon="-4.191870">
   <ele>1811.00</ele>
   <time>2014-03-30T14:07:06Z</time>
  </trkpt>
  <trkpt lat="33.641845" lon="-4.192143">
   <ele>1811.00</ele>
   <time>2014-03-30T14:07:09Z</time>
  </trkpt>
  <trkpt lat="33.641780" lon="-4.192386">
   <ele>1811.00</ele>
   <time>2014-03-30T14:07:12Z</time>
  </trkpt>
  <trkpt lat="33.641714" lon="-4.192630">
   <ele>1811.00</ele>
   <time>2014-03-30T14:07:15Z</time>
  </trkpt>
  <trkpt lat="33.641596" lon="-4.192878">
   <ele>1811.00</ele>
   <time>2014-03-30T14:07:18Z</time>
  </trkpt>
  <trkpt lat="33.641492" lon="-4.193112">
   <ele>1811.00</ele>
   <time>2014-03-30T14:07:21Z</time>
  </trkpt>
  <trkpt lat="33.641370" lon="-4.193445">
   <ele>1810.00</ele>
   <time>2014-03-30T14:07:25Z</time>
  </trkpt>
  <trkpt lat="33.641257" lon="-4.193720">
   <ele>1810.00</ele>
   <time>2014-03-30T14:07:28Z</time>
  </trkpt>
  <trkpt lat="33.641135" lon="-4.193981">
   <ele>1809.00</ele>
   <time>2014-03-30T14:07:31Z</time>
  </trkpt>
  <trkpt lat="33.641011" lon="-4.194219">
   <ele>1809.00</ele>
   <time>2014-03-30T14:07:34Z</time>
  </trkpt>
  <trkpt lat="33.640892" lon="-4.194436">
   <ele>1808.00</ele>
   <time>2014-03-30T14:07:37Z</time>
  </trkpt>
  <trkpt lat="33.640701" lon="-4.194842">
   <ele>1809.00</ele>
   <time>2014-03-30T14:07:43Z</time>
  </trkpt>
  <trkpt lat="33.640603" lon="-4.195051">
   <ele>1809.00</ele>
   <time>2014-03-30T14:07:46Z</time>
  </trkpt>
  <trkpt lat="33.640504" lon="-4.195298">
   <ele>1809.00</ele>
   <time>2014-03-30T14:07:50Z</time>
  </trkpt>
  <trkpt lat="33.640396" lon="-4.195608">
   <ele>1808.00</ele>
   <time>2014-03-30T14:07:54Z</time>
  </trkpt>
  <trkpt lat="33.640313" lon="-4.195850">
   <ele>1807.00</ele>
   <time>2014-03-30T14:07:57Z</time>
  </trkpt>
  <trkpt lat="33.640235" lon="-4.196092">
   <ele>1806.00</ele>
   <time>2014-03-30T14:08:00Z</time>
  </trkpt>
  <trkpt lat="33.640052" lon="-4.196690">
   <ele>1802.00</ele>
   <time>2014-03-30T14:08:07Z</time>
  </trkpt>
  <trkpt lat="33.639985" lon="-4.196966">
   <ele>1800.00</ele>
   <time>2014-03-30T14:08:10Z</time>
  </trkpt>
  <trkpt lat="33.639969" lon="-4.197262">
   <ele>1798.00</ele>
   <time>2014-03-30T14:08:13Z</time>
  </trkpt>
  <trkpt lat="33.639986" lon="-4.197569">
   <ele>1796.00</ele>
   <time>2014-03-30T14:08:16Z</time>
  </trkpt>
  <trkpt lat="33.640063" lon="-4.197870">
   <ele>1794.00</ele>
   <time>2014-03-30T14:08:19Z</time>
  </trkpt>
  <trkpt lat="33.640238" lon="-4.198115">
   <ele>1792.00</ele>
   <time>2014-03-30T14:08:22Z</time>
  </trkpt>
  <trkpt lat="33.640392" lon="-4.198245">
   <ele>1790.00</ele>
   <time>2014-03-30T14:08:24Z</time>
  </trkpt>
  <trkpt lat="33.640566" lon="-4.198344">
   <ele>1788.00</ele>
   <time>2014-03-30T14:08:26Z</time>
  </trkpt>
  <trkpt lat="33.640911" lon="-4.198515">
   <ele>1784.00</ele>
   <time>2014-03-30T14:08:30Z</time>
  </trkpt>
  <trkpt lat="33.641051" lon="-4.198747">
   <ele>1780.00</ele>
   <time>2014-03-30T14:08:33Z</time>
  </trkpt>
  <trkpt lat="33.641006" lon="-4.199064">
   <ele>1777.00</ele>
   <time>2014-03-30T14:08:36Z</time>
  </trkpt>
  <trkpt lat="33.640924" lon="-4.199277">
   <ele>1775.00</ele>
   <time>2014-03-30T14:08:38Z</time>
  </trkpt>
  <trkpt lat="33.640710" lon="-4.199833">
   <ele>1771.00</ele>
   <time>2014-03-30T14:08:43Z</time>
  </trkpt>
  <trkpt lat="33.640528" lon="-4.200273">
   <ele>1770.00</ele>
   <time>2014-03-30T14:08:47Z</time>
  </trkpt>
  <trkpt lat="33.640406" lon="-4.200613">
   <ele>1769.00</ele>
   <time>2014-03-30T14:08:50Z</time>
  </trkpt>
  <trkpt lat="33.640304" lon="-4.200903">
   <ele>1769.00</ele>
   <time>2014-03-30T14:08:53Z</time>
  </trkpt>
  <trkpt lat="33.640180" lon="-4.201179">
   <ele>1768.00</ele>
   <time>2014-03-30T14:08:56Z</time>
  </trkpt>
  <trkpt lat="33.640112" lon="-4.201379">
   <ele>1768.00</ele>
   <time>2014-03-30T14:08:58Z</time>
  </trkpt>
  <trkpt lat="33.639983" lon="-4.201799">
   <ele>1766.00</ele>
   <time>2014-03-30T14:09:02Z</time>
  </trkpt>
  <trkpt lat="33.639925" lon="-4.202032">
   <ele>1765.00</ele>
   <time>2014-03-30T14:09:04Z</time>
  </trkpt>
  <trkpt lat="33.639664" lon="-4.203208">
   <ele>1758.00</ele>
   <time>2014-03-30T14:09:13Z</time>
  </trkpt>
  <trkpt lat="33.639644" lon="-4.203462">
   <ele>1757.00</ele>
   <time>2014-03-30T14:09:15Z</time>
  </trkpt>
  <trkpt lat="33.639667" lon="-4.203707">
   <ele>1757.00</ele>
   <time>2014-03-30T14:09:17Z</time>
  </trkpt>
  <trkpt lat="33.639741" lon="-4.203941">
   <ele>1755.00</ele>
   <time>2014-03-30T14:09:19Z</time>
  </trkpt>
  <trkpt lat="33.639850" lon="-4.204168">
   <ele>1754.00</ele>
   <time>2014-03-30T14:09:21Z</time>
  </trkpt>
  <trkpt lat="33.639971" lon="-4.204408">
   <ele>1751.00</ele>
   <time>2014-03-30T14:09:23Z</time>
  </trkpt>
  <trkpt lat="33.640079" lon="-4.204667">
   <ele>1749.00</ele>
   <time>2014-03-30T14:09:25Z</time>
  </trkpt>
  <trkpt lat="33.640160" lon="-4.204925">
   <ele>1747.00</ele>
   <time>2014-03-30T14:09:27Z</time>
  </trkpt>
  <trkpt lat="33.640218" lon="-4.205180">
   <ele>1744.00</ele>
   <time>2014-03-30T14:09:29Z</time>
  </trkpt>
  <trkpt lat="33.640280" lon="-4.205545">
   <ele>1741.00</ele>
   <time>2014-03-30T14:09:32Z</time>
  </trkpt>
  <trkpt lat="33.640278" lon="-4.205855">
   <ele>1739.00</ele>
   <time>2014-03-30T14:09:35Z</time>
  </trkpt>
  <trkpt lat="33.640124" lon="-4.206097">
   <ele>1735.00</ele>
   <time>2014-03-30T14:09:38Z</time>
  </trkpt>
  <trkpt lat="33.639942" lon="-4.206184">
   <ele>1733.00</ele>
   <time>2014-03-30T14:09:40Z</time>
  </trkpt>
  <trkpt lat="33.639749" lon="-4.206205">
   <ele>1731.00</ele>
   <time>2014-03-30T14:09:42Z</time>
  </trkpt>
  <trkpt lat="33.639510" lon="-4.206190">
   <ele>1728.00</ele>
   <time>2014-03-30T14:09:45Z</time>
  </trkpt>
  <trkpt lat="33.639334" lon="-4.206301">
   <ele>1727.00</ele>
   <time>2014-03-30T14:09:48Z</time>
  </trkpt>
  <trkpt lat="33.639290" lon="-4.206567">
   <ele>1726.00</ele>
   <time>2014-03-30T14:09:51Z</time>
  </trkpt>
  <trkpt lat="33.639325" lon="-4.206799">
   <ele>1725.00</ele>
   <time>2014-03-30T14:09:53Z</time>
  </trkpt>
  <trkpt lat="33.639372" lon="-4.207053">
   <ele>1723.00</ele>
   <time>2014-03-30T14:09:55Z</time>
  </trkpt>
  <trkpt lat="33.639437" lon="-4.207302">
   <ele>1721.00</ele>
   <time>2014-03-30T14:09:57Z</time>
  </trkpt>
  <trkpt lat="33.639511" lon="-4.207531">
   <ele>1719.00</ele>
   <time>2014-03-30T14:09:59Z</time>
  </trkpt>
  <trkpt lat="33.639622" lon="-4.207742">
   <ele>1717.00</ele>
   <time>2014-03-30T14:10:01Z</time>
  </trkpt>
  <trkpt lat="33.639758" lon="-4.207941">
   <ele>1716.00</ele>
   <time>2014-03-30T14:10:03Z</time>
  </trkpt>
  <trkpt lat="33.639906" lon="-4.208119">
   <ele>1714.00</ele>
   <time>2014-03-30T14:10:05Z</time>
  </trkpt>
  <trkpt lat="33.640074" lon="-4.208252">
   <ele>1712.00</ele>
   <time>2014-03-30T14:10:07Z</time>
  </trkpt>
  <trkpt lat="33.640254" lon="-4.208345">
   <ele>1710.00</ele>
   <time>2014-03-30T14:10:09Z</time>
  </trkpt>
  <trkpt lat="33.640434" lon="-4.208418">
   <ele>1706.00</ele>
   <time>2014-03-30T14:10:11Z</time>
  </trkpt>
  <trkpt lat="33.640628" lon="-4.208473">
   <ele>1705.00</ele>
   <time>2014-03-30T14:10:13Z</time>
  </trkpt>
  <trkpt lat="33.640833" lon="-4.208512">
   <ele>1704.00</ele>
   <time>2014-03-30T14:10:15Z</time>
  </trkpt>
  <trkpt lat="33.641136" lon="-4.208565">
   <ele>1702.00</ele>
   <time>2014-03-30T14:10:18Z</time>
  </trkpt>
  <trkpt lat="33.641378" lon="-4.208648">
   <ele>1699.00</ele>
   <time>2014-03-30T14:10:21Z</time>
  </trkpt>
  <trkpt lat="33.641546" lon="-4.208857">
   <ele>1696.00</ele>
   <time>2014-03-30T14:10:24Z</time>
  </trkpt>
  <trkpt lat="33.641529" lon="-4.209153">
   <ele>1692.00</ele>
   <time>2014-03-30T14:10:27Z</time>
  </trkpt>
  <trkpt lat="33.641350" lon="-4.209391">
   <ele>1691.00</ele>
   <time>2014-03-30T14:10:30Z</time>
  </trkpt>
  <trkpt lat="33.641186" lon="-4.209495">
   <ele>1690.00</ele>
   <time>2014-03-30T14:10:32Z</time>
  </trkpt>
  <trkpt lat="33.640920" lon="-4.209617">
   <ele>1689.00</ele>
   <time>2014-03-30T14:10:35Z</time>
  </trkpt>
  <trkpt lat="33.640640" lon="-4.209744">
   <ele>1688.00</ele>
   <time>2014-03-30T14:10:38Z</time>
  </trkpt>
  <trkpt lat="33.640461" lon="-4.209857">
   <ele>1688.00</ele>
   <time>2014-03-30T14:10:40Z</time>
  </trkpt>
  <trkpt lat="33.640288" lon="-4.209990">
   <ele>1687.00</ele>
   <time>2014-03-30T14:10:42Z</time>
  </trkpt>
  <trkpt lat="33.640115" lon="-4.210146">
   <ele>1687.00</ele>
   <time>2014-03-30T14:10:44Z</time>
  </trkpt>
  <trkpt lat="33.639951" lon="-4.210330">
   <ele>1685.00</ele>
   <time>2014-03-30T14:10:46Z</time>
  </trkpt>
  <trkpt lat="33.639797" lon="-4.210527">
   <ele>1684.00</ele>
   <time>2014-03-30T14:10:48Z</time>
  </trkpt>
  <trkpt lat="33.639482" lon="-4.210912">
   <ele>1683.00</ele>
   <time>2014-03-30T14:10:52Z</time>
  </trkpt>
  <trkpt lat="33.639128" lon="-4.211337">
   <ele>1681.00</ele>
   <time>2014-03-30T14:10:57Z</time>
  </trkpt>
  <trkpt lat="33.639007" lon="-4.211513">
   <ele>1679.00</ele>
   <time>2014-03-30T14:10:59Z</time>
  </trkpt>
  <trkpt lat="33.638913" lon="-4.211701">
   <ele>1679.00</ele>
   <time>2014-03-30T14:11:01Z</time>
  </trkpt>
  <trkpt lat="33.638896" lon="-4.212014">
   <ele>1677.00</ele>
   <time>2014-03-30T14:11:04Z</time>
  </trkpt>
  <trkpt lat="33.638987" lon="-4.212228">
   <ele>1677.00</ele>
   <time>2014-03-30T14:11:06Z</time>
  </trkpt>
  <trkpt lat="33.639117" lon="-4.212428">
   <ele>1676.00</ele>
   <time>2014-03-30T14:11:08Z</time>
  </trkpt>
  <trkpt lat="33.639259" lon="-4.212616">
   <ele>1674.00</ele>
   <time>2014-03-30T14:11:10Z</time>
  </trkpt>
  <trkpt lat="33.639407" lon="-4.212807">
   <ele>1673.00</ele>
   <time>2014-03-30T14:11:12Z</time>
  </trkpt>
  <trkpt lat="33.639542" lon="-4.213013">
   <ele>1671.00</ele>
   <time>2014-03-30T14:11:14Z</time>
  </trkpt>
  <trkpt lat="33.639639" lon="-4.213251">
   <ele>1669.00</ele>
   <time>2014-03-30T14:11:16Z</time>
  </trkpt>
  <trkpt lat="33.639693" lon="-4.213512">
   <ele>1667.00</ele>
   <time>2014-03-30T14:11:18Z</time>
  </trkpt>
  <trkpt lat="33.639694" lon="-4.213762">
   <ele>1665.00</ele>
   <time>2014-03-30T14:11:20Z</time>
  </trkpt>
  <trkpt lat="33.639645" lon="-4.213992">
   <ele>1663.00</ele>
   <time>2014-03-30T14:11:22Z</time>
  </trkpt>
  <trkpt lat="33.639558" lon="-4.214204">
   <ele>1662.00</ele>
   <time>2014-03-30T14:11:24Z</time>
  </trkpt>
  <trkpt lat="33.639466" lon="-4.214418">
   <ele>1661.00</ele>
   <time>2014-03-30T14:11:26Z</time>
  </trkpt>
  <trkpt lat="33.639383" lon="-4.214645">
   <ele>1660.00</ele>
   <time>2014-03-30T14:11:28Z</time>
  </trkpt>
  <trkpt lat="33.639316" lon="-4.214887">
   <ele>1659.00</ele>
   <time>2014-03-30T14:11:30Z</time>
  </trkpt>
  <trkpt lat="33.639279" lon="-4.215141">
   <ele>1658.00</ele>
   <time>2014-03-30T14:11:32Z</time>
  </trkpt>
  <trkpt lat="33.639307" lon="-4.215400">
   <ele>1657.00</ele>
   <time>2014-03-30T14:11:34Z</time>
  </trkpt>
  <trkpt lat="33.639415" lon="-4.215623">
   <ele>1656.00</ele>
   <time>2014-03-30T14:11:36Z</time>
  </trkpt>
  <trkpt lat="33.639569" lon="-4.215800">
   <ele>1656.00</ele>
   <time>2014-03-30T14:11:38Z</time>
  </trkpt>
  <trkpt lat="33.639746" lon="-4.215910">
   <ele>1654.00</ele>
   <time>2014-03-30T14:11:40Z</time>
  </trkpt>
  <trkpt lat="33.639931" lon="-4.215909">
   <ele>1653.00</ele>
   <time>2014-03-30T14:11:42Z</time>
  </trkpt>
  <trkpt lat="33.640106" lon="-4.215812">
   <ele>1651.00</ele>
   <time>2014-03-30T14:11:44Z</time>
  </trkpt>
  <trkpt lat="33.640269" lon="-4.215665">
   <ele>1650.00</ele>
   <time>2014-03-30T14:11:46Z</time>
  </trkpt>
  <trkpt lat="33.640434" lon="-4.215517">
   <ele>1649.00</ele>
   <time>2014-03-30T14:11:48Z</time>
  </trkpt>
  <trkpt lat="33.640606" lon="-4.215395">
   <ele>1648.00</ele>
   <time>2014-03-30T14:11:50Z</time>
  </trkpt>
  <trkpt lat="33.640780" lon="-4.215277">
   <ele>1647.00</ele>
   <time>2014-03-30T14:11:52Z</time>
  </trkpt>
  <trkpt lat="33.640941" lon="-4.215109">
   <ele>1646.00</ele>
   <time>2014-03-30T14:11:54Z</time>
  </trkpt>
  <trkpt lat="33.641083" lon="-4.214904">
   <ele>1645.00</ele>
   <time>2014-03-30T14:11:56Z</time>
  </trkpt>
  <trkpt lat="33.641212" lon="-4.214683">
   <ele>1644.00</ele>
   <time>2014-03-30T14:11:58Z</time>
  </trkpt>
  <trkpt lat="33.641344" lon="-4.214461">
   <ele>1643.00</ele>
   <time>2014-03-30T14:12:00Z</time>
  </trkpt>
  <trkpt lat="33.641499" lon="-4.214253">
   <ele>1642.00</ele>
   <time>2014-03-30T14:12:02Z</time>
  </trkpt>
  <trkpt lat="33.641651" lon="-4.214042">
   <ele>1641.00</ele>
   <time>2014-03-30T14:12:04Z</time>
  </trkpt>
  <trkpt lat="33.641781" lon="-4.213818">
   <ele>1639.00</ele>
   <time>2014-03-30T14:12:06Z</time>
  </trkpt>
  <trkpt lat="33.641975" lon="-4.213459">
   <ele>1636.00</ele>
   <time>2014-03-30T14:12:10Z</time>
  </trkpt>
  <trkpt lat="33.642178" lon="-4.213435">
   <ele>1634.00</ele>
   <time>2014-03-30T14:12:13Z</time>
  </trkpt>
  <trkpt lat="33.642400" lon="-4.213579">
   <ele>1633.00</ele>
   <time>2014-03-30T14:12:16Z</time>
  </trkpt>
  <trkpt lat="33.642664" lon="-4.213550">
   <ele>1631.00</ele>
   <time>2014-03-30T14:12:19Z</time>
  </trkpt>
  <trkpt lat="33.642829" lon="-4.213425">
   <ele>1630.00</ele>
   <time>2014-03-30T14:12:21Z</time>
  </trkpt>
  <trkpt lat="33.642982" lon="-4.213279">
   <ele>1629.00</ele>
   <time>2014-03-30T14:12:23Z</time>
  </trkpt>
  <trkpt lat="33.643111" lon="-4.213111">
   <ele>1628.00</ele>
   <time>2014-03-30T14:12:25Z</time>
  </trkpt>
  <trkpt lat="33.643192" lon="-4.212902">
   <ele>1627.00</ele>
   <time>2014-03-30T14:12:27Z</time>
  </trkpt>
  <trkpt lat="33.643260" lon="-4.212680">
   <ele>1625.00</ele>
   <time>2014-03-30T14:12:29Z</time>
  </trkpt>
  <trkpt lat="33.643381" lon="-4.212497">
   <ele>1624.00</ele>
   <time>2014-03-30T14:12:31Z</time>
  </trkpt>
  <trkpt lat="33.643545" lon="-4.212395">
   <ele>1623.00</ele>
   <time>2014-03-30T14:12:33Z</time>
  </trkpt>
  <trkpt lat="33.643738" lon="-4.212372">
   <ele>1622.00</ele>
   <time>2014-03-30T14:12:35Z</time>
  </trkpt>
  <trkpt lat="33.643940" lon="-4.212388">
   <ele>1621.00</ele>
   <time>2014-03-30T14:12:37Z</time>
  </trkpt>
  <trkpt lat="33.644145" lon="-4.212412">
   <ele>1620.00</ele>
   <time>2014-03-30T14:12:39Z</time>
  </trkpt>
  <trkpt lat="33.644360" lon="-4.212410">
   <ele>1620.00</ele>
   <time>2014-03-30T14:12:41Z</time>
  </trkpt>
  <trkpt lat="33.644582" lon="-4.212391">
   <ele>1619.00</ele>
   <time>2014-03-30T14:12:43Z</time>
  </trkpt>
  <trkpt lat="33.644806" lon="-4.212349">
   <ele>1618.00</ele>
   <time>2014-03-30T14:12:45Z</time>
  </trkpt>
  <trkpt lat="33.645014" lon="-4.212260">
   <ele>1617.00</ele>
   <time>2014-03-30T14:12:47Z</time>
  </trkpt>
  <trkpt lat="33.645192" lon="-4.212153">
   <ele>1616.00</ele>
   <time>2014-03-30T14:12:49Z</time>
  </trkpt>
  <trkpt lat="33.645401" lon="-4.212063">
   <ele>1613.00</ele>
   <time>2014-03-30T14:12:52Z</time>
  </trkpt>
  <trkpt lat="33.645472" lon="-4.212264">
   <ele>1610.00</ele>
   <time>2014-03-30T14:12:55Z</time>
  </trkpt>
  <trkpt lat="33.645314" lon="-4.212487">
   <ele>1609.00</ele>
   <time>2014-03-30T14:12:58Z</time>
  </trkpt>
  <trkpt lat="33.645085" lon="-4.212630">
   <ele>1609.00</ele>
   <time>2014-03-30T14:13:01Z</time>
  </trkpt>
  <trkpt lat="33.644911" lon="-4.212685">
   <ele>1610.00</ele>
   <time>2014-03-30T14:13:03Z</time>
  </trkpt>
  <trkpt lat="33.644714" lon="-4.212698">
   <ele>1610.00</ele>
   <time>2014-03-30T14:13:05Z</time>
  </trkpt>
  <trkpt lat="33.644200" lon="-4.212689">
   <ele>1613.00</ele>
   <time>2014-03-30T14:13:10Z</time>
  </trkpt>
  <trkpt lat="33.644021" lon="-4.212646">
   <ele>1614.00</ele>
   <time>2014-03-30T14:13:12Z</time>
  </trkpt>
  <trkpt lat="33.643784" lon="-4.212625">
   <ele>1615.00</ele>
   <time>2014-03-30T14:13:15Z</time>
  </trkpt>
  <trkpt lat="33.643604" lon="-4.212694">
   <ele>1616.00</ele>
   <time>2014-03-30T14:13:18Z</time>
  </trkpt>
  <trkpt lat="33.643576" lon="-4.212950">
   <ele>1614.00</ele>
   <time>2014-03-30T14:13:22Z</time>
  </trkpt>
  <trkpt lat="33.643740" lon="-4.213066">
   <ele>1613.00</ele>
   <time>2014-03-30T14:13:24Z</time>
  </trkpt>
  <trkpt lat="33.643923" lon="-4.213174">
   <ele>1611.00</ele>
   <time>2014-03-30T14:13:26Z</time>
  </trkpt>
  <trkpt lat="33.644082" lon="-4.213312">
   <ele>1609.00</ele>
   <time>2014-03-30T14:13:28Z</time>
  </trkpt>
  <trkpt lat="33.644254" lon="-4.213532">
   <ele>1606.00</ele>
   <time>2014-03-30T14:13:31Z</time>
  </trkpt>
  <trkpt lat="33.644307" lon="-4.213815">
   <ele>1601.00</ele>
   <time>2014-03-30T14:13:34Z</time>
  </trkpt>
  <trkpt lat="33.644266" lon="-4.214210">
   <ele>1595.00</ele>
   <time>2014-03-30T14:13:38Z</time>
  </trkpt>
  <trkpt lat="33.644122" lon="-4.214430">
   <ele>1592.00</ele>
   <time>2014-03-30T14:13:41Z</time>
  </trkpt>
  <trkpt lat="33.644017" lon="-4.214683">
   <ele>1589.00</ele>
   <time>2014-03-30T14:13:44Z</time>
  </trkpt>
  <trkpt lat="33.643892" lon="-4.214925">
   <ele>1586.00</ele>
   <time>2014-03-30T14:13:47Z</time>
  </trkpt>
  <trkpt lat="33.643648" lon="-4.215004">
   <ele>1584.00</ele>
   <time>2014-03-30T14:13:50Z</time>
  </trkpt>
  <trkpt lat="33.643413" lon="-4.214928">
   <ele>1583.00</ele>
   <time>2014-03-30T14:13:53Z</time>
  </trkpt>
  <trkpt lat="33.643224" lon="-4.214831">
   <ele>1581.00</ele>
   <time>2014-03-30T14:13:56Z</time>
  </trkpt>
  <trkpt lat="33.643052" lon="-4.214952">
   <ele>1580.00</ele>
   <time>2014-03-30T14:13:59Z</time>
  </trkpt>
  <trkpt lat="33.642843" lon="-4.215053">
   <ele>1579.00</ele>
   <time>2014-03-30T14:14:02Z</time>
  </trkpt>
  <trkpt lat="33.642605" lon="-4.215117">
   <ele>1578.00</ele>
   <time>2014-03-30T14:14:05Z</time>
  </trkpt>
  <trkpt lat="33.642392" lon="-4.215258">
   <ele>1576.00</ele>
   <time>2014-03-30T14:14:08Z</time>
  </trkpt>
  <trkpt lat="33.642246" lon="-4.215506">
   <ele>1575.00</ele>
   <time>2014-03-30T14:14:11Z</time>
  </trkpt>
  <trkpt lat="33.642115" lon="-4.215737">
   <ele>1573.00</ele>
   <time>2014-03-30T14:14:14Z</time>
  </trkpt>
  <trkpt lat="33.642130" lon="-4.215920">
   <ele>1571.00</ele>
   <time>2014-03-30T14:14:18Z</time>
  </trkpt>
  <trkpt lat="33.642310" lon="-4.215813">
   <ele>1568.00</ele>
   <time>2014-03-30T14:14:21Z</time>
  </trkpt>
  <trkpt lat="33.642491" lon="-4.215642">
   <ele>1566.00</ele>
   <time>2014-03-30T14:14:24Z</time>
  </trkpt>
  <trkpt lat="33.642704" lon="-4.215522">
   <ele>1565.00</ele>
   <time>2014-03-30T14:14:27Z</time>
  </trkpt>
  <trkpt lat="33.642927" lon="-4.215415">
   <ele>1563.00</ele>
   <time>2014-03-30T14:14:30Z</time>
  </trkpt>
  <trkpt lat="33.643179" lon="-4.215393">
   <ele>1562.00</ele>
   <time>2014-03-30T14:14:33Z</time>
  </trkpt>
  <trkpt lat="33.643357" lon="-4.215446">
   <ele>1561.00</ele>
   <time>2014-03-30T14:14:35Z</time>
  </trkpt>
  <trkpt lat="33.643711" lon="-4.215579">
   <ele>1558.00</ele>
   <time>2014-03-30T14:14:39Z</time>
  </trkpt>
  <trkpt lat="33.643980" lon="-4.215675">
   <ele>1555.00</ele>
   <time>2014-03-30T14:14:42Z</time>
  </trkpt>
  <trkpt lat="33.644217" lon="-4.215717">
   <ele>1554.00</ele>
   <time>2014-03-30T14:14:45Z</time>
  </trkpt>
  <trkpt lat="33.644394" lon="-4.215572">
   <ele>1553.00</ele>
   <time>2014-03-30T14:14:48Z</time>
  </trkpt>
  <trkpt lat="33.644607" lon="-4.215266">
   <ele>1553.00</ele>
   <time>2014-03-30T14:14:52Z</time>
  </trkpt>
  <trkpt lat="33.644835" lon="-4.215151">
   <ele>1553.00</ele>
   <time>2014-03-30T14:14:55Z</time>
  </trkpt>
  <trkpt lat="33.645098" lon="-4.215176">
   <ele>1553.00</ele>
   <time>2014-03-30T14:14:58Z</time>
  </trkpt>
  <trkpt lat="33.645358" lon="-4.215235">
   <ele>1554.00</ele>
   <time>2014-03-30T14:15:01Z</time>
  </trkpt>
  <trkpt lat="33.645635" lon="-4.215281">
   <ele>1556.00</ele>
   <time>2014-03-30T14:15:04Z</time>
  </trkpt>
  <trkpt lat="33.646133" lon="-4.215351">
   <ele>1561.00</ele>
   <time>2014-03-30T14:15:09Z</time>
  </trkpt>
  <trkpt lat="33.646423" lon="-4.215413">
   <ele>1565.00</ele>
   <time>2014-03-30T14:15:12Z</time>
  </trkpt>
  <trkpt lat="33.646686" lon="-4.215466">
   <ele>1567.00</ele>
   <time>2014-03-30T14:15:15Z</time>
  </trkpt>
  <trkpt lat="33.646925" lon="-4.215373">
   <ele>1569.00</ele>
   <time>2014-03-30T14:15:18Z</time>
  </trkpt>
  <trkpt lat="33.647086" lon="-4.215272">
   <ele>1570.00</ele>
   <time>2014-03-30T14:15:20Z</time>
  </trkpt>
  <trkpt lat="33.647272" lon="-4.215205">
   <ele>1572.00</ele>
   <time>2014-03-30T14:15:22Z</time>
  </trkpt>
  <trkpt lat="33.647468" lon="-4.215123">
   <ele>1574.00</ele>
   <time>2014-03-30T14:15:24Z</time>
  </trkpt>
  <trkpt lat="33.647769" lon="-4.214985">
   <ele>1576.00</ele>
   <time>2014-03-30T14:15:27Z</time>
  </trkpt>
  <trkpt lat="33.648384" lon="-4.214688">
   <ele>1580.00</ele>
   <time>2014-03-30T14:15:33Z</time>
  </trkpt>
  <trkpt lat="33.648594" lon="-4.214611">
   <ele>1581.00</ele>
   <time>2014-03-30T14:15:35Z</time>
  </trkpt>
  <trkpt lat="33.648910" lon="-4.214509">
   <ele>1582.00</ele>
   <time>2014-03-30T14:15:38Z</time>
  </trkpt>
  <trkpt lat="33.649301" lon="-4.214370">
   <ele>1582.00</ele>
   <time>2014-03-30T14:15:42Z</time>
  </trkpt>
  <trkpt lat="33.649552" lon="-4.214374">
   <ele>1582.00</ele>
   <time>2014-03-30T14:15:45Z</time>
  </trkpt>
  <trkpt lat="33.649811" lon="-4.214396">
   <ele>1582.00</ele>
   <time>2014-03-30T14:15:48Z</time>
  </trkpt>
  <trkpt lat="33.650034" lon="-4.214359">
   <ele>1582.00</ele>
   <time>2014-03-30T14:15:51Z</time>
  </trkpt>
  <trkpt lat="33.650220" lon="-4.214342">
   <ele>1582.00</ele>
   <time>2014-03-30T14:15:54Z</time>
  </trkpt>
  <trkpt lat="33.650405" lon="-4.214366">
   <ele>1583.00</ele>
   <time>2014-03-30T14:15:57Z</time>
  </trkpt>
  <trkpt lat="33.650617" lon="-4.214489">
   <ele>1584.00</ele>
   <time>2014-03-30T14:16:00Z</time>
  </trkpt>
  <trkpt lat="33.650753" lon="-4.214748">
   <ele>1584.00</ele>
   <time>2014-03-30T14:16:03Z</time>
  </trkpt>
  <trkpt lat="33.650872" lon="-4.215060">
   <ele>1583.00</ele>
   <time>2014-03-30T14:16:06Z</time>
  </trkpt>
  <trkpt lat="33.650977" lon="-4.215276">
   <ele>1582.00</ele>
   <time>2014-03-30T14:16:08Z</time>
  </trkpt>
  <trkpt lat="33.651094" lon="-4.215478">
   <ele>1581.00</ele>
   <time>2014-03-30T14:16:10Z</time>
  </trkpt>
  <trkpt lat="33.651218" lon="-4.215640">
   <ele>1580.00</ele>
   <time>2014-03-30T14:16:12Z</time>
  </trkpt>
  <trkpt lat="33.651421" lon="-4.215772">
   <ele>1578.00</ele>
   <time>2014-03-30T14:16:15Z</time>
  </trkpt>
  <trkpt lat="33.651509" lon="-4.215998">
   <ele>1576.00</ele>
   <time>2014-03-30T14:16:18Z</time>
  </trkpt>
  <trkpt lat="33.651423" lon="-4.216264">
   <ele>1573.00</ele>
   <time>2014-03-30T14:16:21Z</time>
  </trkpt>
  <trkpt lat="33.651463" lon="-4.216497">
   <ele>1572.00</ele>
   <time>2014-03-30T14:16:24Z</time>
  </trkpt>
  <trkpt lat="33.651666" lon="-4.216588">
   <ele>1571.00</ele>
   <time>2014-03-30T14:16:27Z</time>
  </trkpt>
  <trkpt lat="33.651865" lon="-4.216587">
   <ele>1570.00</ele>
   <time>2014-03-30T14:16:30Z</time>
  </trkpt>
  <trkpt lat="33.652080" lon="-4.216672">
   <ele>1568.00</ele>
   <time>2014-03-30T14:16:34Z</time>
  </trkpt>
  <trkpt lat="33.652115" lon="-4.216923">
   <ele>1565.00</ele>
   <time>2014-03-30T14:16:37Z</time>
  </trkpt>
  <trkpt lat="33.652097" lon="-4.217401">
   <ele>1559.00</ele>
   <time>2014-03-30T14:16:41Z</time>
  </trkpt>
  <trkpt lat="33.652043" lon="-4.217669">
   <ele>1556.00</ele>
   <time>2014-03-30T14:16:43Z</time>
  </trkpt>
  <trkpt lat="33.651861" lon="-4.218318">
   <ele>1549.00</ele>
   <time>2014-03-30T14:16:48Z</time>
  </trkpt>
  <trkpt lat="33.651810" lon="-4.218556">
   <ele>1546.00</ele>
   <time>2014-03-30T14:16:50Z</time>
  </trkpt>
  <trkpt lat="33.651741" lon="-4.218874">
   <ele>1543.00</ele>
   <time>2014-03-30T14:16:53Z</time>
  </trkpt>
  <trkpt lat="33.651595" lon="-4.219010">
   <ele>1540.00</ele>
   <time>2014-03-30T14:16:56Z</time>
  </trkpt>
  <trkpt lat="33.651395" lon="-4.218871">
   <ele>1538.00</ele>
   <time>2014-03-30T14:16:59Z</time>
  </trkpt>
  <trkpt lat="33.651243" lon="-4.218727">
   <ele>1537.00</ele>
   <time>2014-03-30T14:17:01Z</time>
  </trkpt>
  <trkpt lat="33.651088" lon="-4.218605">
   <ele>1535.00</ele>
   <time>2014-03-30T14:17:03Z</time>
  </trkpt>
  <trkpt lat="33.650875" lon="-4.218603">
   <ele>1533.00</ele>
   <time>2014-03-30T14:17:06Z</time>
  </trkpt>
  <trkpt lat="33.650752" lon="-4.218854">
   <ele>1528.00</ele>
   <time>2014-03-30T14:17:09Z</time>
  </trkpt>
  <trkpt lat="33.650630" lon="-4.219322">
   <ele>1524.00</ele>
   <time>2014-03-30T14:17:13Z</time>
  </trkpt>
  <trkpt lat="33.650514" lon="-4.219827">
   <ele>1522.00</ele>
   <time>2014-03-30T14:17:17Z</time>
  </trkpt>
  <trkpt lat="33.650462" lon="-4.220074">
   <ele>1521.00</ele>
   <time>2014-03-30T14:17:19Z</time>
  </trkpt>
  <trkpt lat="33.650377" lon="-4.220295">
   <ele>1521.00</ele>
   <time>2014-03-30T14:17:21Z</time>
  </trkpt>
  <trkpt lat="33.650244" lon="-4.220470">
   <ele>1522.00</ele>
   <time>2014-03-30T14:17:23Z</time>
  </trkpt>
  <trkpt lat="33.650091" lon="-4.220616">
   <ele>1523.00</ele>
   <time>2014-03-30T14:17:25Z</time>
  </trkpt>
  <trkpt lat="33.649947" lon="-4.220758">
   <ele>1523.00</ele>
   <time>2014-03-30T14:17:27Z</time>
  </trkpt>
  <trkpt lat="33.649699" lon="-4.221024">
   <ele>1523.00</ele>
   <time>2014-03-30T14:17:32Z</time>
  </trkpt>
  <trkpt lat="33.649792" lon="-4.221179">
   <ele>1521.00</ele>
   <time>2014-03-30T14:17:41Z</time>
  </trkpt>
  <trkpt lat="33.649926" lon="-4.220999">
   <ele>1523.00</ele>
   <time>2014-03-30T14:17:48Z</time>
  </trkpt>
  <trkpt lat="33.649937" lon="-4.220944">
   <ele>1526.00</ele>
   <time>2014-03-30T14:18:02Z</time>
  </trkpt>
 </trkseg>
 <trkseg>
  <trkpt lat="33.649946" lon="-4.220926">
   <ele>1524.00</ele>
   <time>2014-03-30T14:57:11Z</time>
  </trkpt>
  <trkpt lat="33.649899" lon="-4.220881">
   <ele>1524.00</ele>
   <time>2014-03-30T14:57:26Z</time>
  </trkpt>
  <trkpt lat="33.649726" lon="-4.220958">
   <ele>1522.00</ele>
   <time>2014-03-30T14:57:39Z</time>
  </trkpt>
  <trkpt lat="33.649442" lon="-4.221303">
   <ele>1518.00</ele>
   <time>2014-03-30T14:57:48Z</time>
  </trkpt>
  <trkpt lat="33.649319" lon="-4.221528">
   <ele>1515.00</ele>
   <time>2014-03-30T14:57:52Z</time>
  </trkpt>
  <trkpt lat="33.649254" lon="-4.221747">
   <ele>1513.00</ele>
   <time>2014-03-30T14:57:55Z</time>
  </trkpt>
  <trkpt lat="33.649220" lon="-4.221985">
   <ele>1511.00</ele>
   <time>2014-03-30T14:57:58Z</time>
  </trkpt>
  <trkpt lat="33.649215" lon="-4.222233">
   <ele>1511.00</ele>
   <time>2014-03-30T14:58:01Z</time>
  </trkpt>
  <trkpt lat="33.649249" lon="-4.222515">
   <ele>1511.00</ele>
   <time>2014-03-30T14:58:04Z</time>
  </trkpt>
  <trkpt lat="33.649276" lon="-4.222835">
   <ele>1511.00</ele>
   <time>2014-03-30T14:58:07Z</time>
  </trkpt>
  <trkpt lat="33.649265" lon="-4.223064">
   <ele>1511.00</ele>
   <time>2014-03-30T14:58:09Z</time>
  </trkpt>
  <trkpt lat="33.649212" lon="-4.223301">
   <ele>1510.00</ele>
   <time>2014-03-30T14:58:11Z</time>
  </trkpt>
  <trkpt lat="33.649122" lon="-4.223543">
   <ele>1509.00</ele>
   <time>2014-03-30T14:58:13Z</time>
  </trkpt>
  <trkpt lat="33.649012" lon="-4.223783">
   <ele>1508.00</ele>
   <time>2014-03-30T14:58:15Z</time>
  </trkpt>
  <trkpt lat="33.648768" lon="-4.224280">
   <ele>1503.00</ele>
   <time>2014-03-30T14:58:19Z</time>
  </trkpt>
  <trkpt lat="33.648664" lon="-4.224548">
   <ele>1501.00</ele>
   <time>2014-03-30T14:58:21Z</time>
  </trkpt>
  <trkpt lat="33.648590" lon="-4.224816">
   <ele>1499.00</ele>
   <time>2014-03-30T14:58:23Z</time>
  </trkpt>
  <trkpt lat="33.648572" lon="-4.225084">
   <ele>1497.00</ele>
   <time>2014-03-30T14:58:25Z</time>
  </trkpt>
  <trkpt lat="33.648611" lon="-4.225353">
   <ele>1495.00</ele>
   <time>2014-03-30T14:58:27Z</time>
  </trkpt>
  <trkpt lat="33.648706" lon="-4.225604">
   <ele>1493.00</ele>
   <time>2014-03-30T14:58:29Z</time>
  </trkpt>
  <trkpt lat="33.648854" lon="-4.225835">
   <ele>1490.00</ele>
   <time>2014-03-30T14:58:31Z</time>
  </trkpt>
  <trkpt lat="33.649025" lon="-4.226042">
   <ele>1488.00</ele>
   <time>2014-03-30T14:58:33Z</time>
  </trkpt>
  <trkpt lat="33.649185" lon="-4.226237">
   <ele>1486.00</ele>
   <time>2014-03-30T14:58:35Z</time>
  </trkpt>
  <trkpt lat="33.649289" lon="-4.226457">
   <ele>1484.00</ele>
   <time>2014-03-30T14:58:37Z</time>
  </trkpt>
  <trkpt lat="33.649312" lon="-4.226707">
   <ele>1482.00</ele>
   <time>2014-03-30T14:58:39Z</time>
  </trkpt>
  <trkpt lat="33.649269" lon="-4.226947">
   <ele>1480.00</ele>
   <time>2014-03-30T14:58:41Z</time>
  </trkpt>
  <trkpt lat="33.649160" lon="-4.227136">
   <ele>1479.00</ele>
   <time>2014-03-30T14:58:43Z</time>
  </trkpt>
  <trkpt lat="33.649006" lon="-4.227286">
   <ele>1477.00</ele>
   <time>2014-03-30T14:58:45Z</time>
  </trkpt>
  <trkpt lat="33.648832" lon="-4.227406">
   <ele>1475.00</ele>
   <time>2014-03-30T14:58:47Z</time>
  </trkpt>
  <trkpt lat="33.648587" lon="-4.227553">
   <ele>1472.00</ele>
   <time>2014-03-30T14:58:50Z</time>
  </trkpt>
  <trkpt lat="33.648480" lon="-4.227731">
   <ele>1469.00</ele>
   <time>2014-03-30T14:58:52Z</time>
  </trkpt>
  <trkpt lat="33.648445" lon="-4.227970">
   <ele>1467.00</ele>
   <time>2014-03-30T14:58:54Z</time>
  </trkpt>
  <trkpt lat="33.648447" lon="-4.228232">
   <ele>1465.00</ele>
   <time>2014-03-30T14:58:56Z</time>
  </trkpt>
  <trkpt lat="33.648466" lon="-4.228503">
   <ele>1463.00</ele>
   <time>2014-03-30T14:58:58Z</time>
  </trkpt>
  <trkpt lat="33.648503" lon="-4.228776">
   <ele>1461.00</ele>
   <time>2014-03-30T14:59:00Z</time>
  </trkpt>
  <trkpt lat="33.648533" lon="-4.229058">
   <ele>1458.00</ele>
   <time>2014-03-30T14:59:02Z</time>
  </trkpt>
  <trkpt lat="33.648529" lon="-4.229340">
   <ele>1455.00</ele>
   <time>2014-03-30T14:59:04Z</time>
  </trkpt>
  <trkpt lat="33.648472" lon="-4.229605">
   <ele>1453.00</ele>
   <time>2014-03-30T14:59:06Z</time>
  </trkpt>
  <trkpt lat="33.648329" lon="-4.229828">
   <ele>1450.00</ele>
   <time>2014-03-30T14:59:08Z</time>
  </trkpt>
  <trkpt lat="33.648123" lon="-4.229970">
   <ele>1449.00</ele>
   <time>2014-03-30T14:59:10Z</time>
  </trkpt>
  <trkpt lat="33.647921" lon="-4.230103">
   <ele>1447.00</ele>
   <time>2014-03-30T14:59:12Z</time>
  </trkpt>
  <trkpt lat="33.647760" lon="-4.230299">
   <ele>1445.00</ele>
   <time>2014-03-30T14:59:14Z</time>
  </trkpt>
  <trkpt lat="33.647638" lon="-4.230534">
   <ele>1444.00</ele>
   <time>2014-03-30T14:59:16Z</time>
  </trkpt>
  <trkpt lat="33.647563" lon="-4.230765">
   <ele>1442.00</ele>
   <time>2014-03-30T14:59:18Z</time>
  </trkpt>
  <trkpt lat="33.647545" lon="-4.231009">
   <ele>1440.00</ele>
   <time>2014-03-30T14:59:20Z</time>
  </trkpt>
  <trkpt lat="33.647608" lon="-4.231257">
   <ele>1439.00</ele>
   <time>2014-03-30T14:59:22Z</time>
  </trkpt>
  <trkpt lat="33.647711" lon="-4.231498">
   <ele>1437.00</ele>
   <time>2014-03-30T14:59:24Z</time>
  </trkpt>
  <trkpt lat="33.647785" lon="-4.231736">
   <ele>1435.00</ele>
   <time>2014-03-30T14:59:26Z</time>
  </trkpt>
  <trkpt lat="33.647761" lon="-4.232036">
   <ele>1432.00</ele>
   <time>2014-03-30T14:59:29Z</time>
  </trkpt>
  <trkpt lat="33.647610" lon="-4.232159">
   <ele>1430.00</ele>
   <time>2014-03-30T14:59:31Z</time>
  </trkpt>
  <trkpt lat="33.647401" lon="-4.232215">
   <ele>1428.00</ele>
   <time>2014-03-30T14:59:33Z</time>
  </trkpt>
  <trkpt lat="33.647168" lon="-4.232231">
   <ele>1426.00</ele>
   <time>2014-03-30T14:59:35Z</time>
  </trkpt>
  <trkpt lat="33.646933" lon="-4.232238">
   <ele>1424.00</ele>
   <time>2014-03-30T14:59:37Z</time>
  </trkpt>
  <trkpt lat="33.646720" lon="-4.232274">
   <ele>1422.00</ele>
   <time>2014-03-30T14:59:39Z</time>
  </trkpt>
  <trkpt lat="33.646535" lon="-4.232366">
   <ele>1420.00</ele>
   <time>2014-03-30T14:59:41Z</time>
  </trkpt>
  <trkpt lat="33.646388" lon="-4.232536">
   <ele>1418.00</ele>
   <time>2014-03-30T14:59:43Z</time>
  </trkpt>
  <trkpt lat="33.646281" lon="-4.232765">
   <ele>1416.00</ele>
   <time>2014-03-30T14:59:45Z</time>
  </trkpt>
  <trkpt lat="33.646221" lon="-4.233038">
   <ele>1414.00</ele>
   <time>2014-03-30T14:59:47Z</time>
  </trkpt>
  <trkpt lat="33.646235" lon="-4.233334">
   <ele>1411.00</ele>
   <time>2014-03-30T14:59:49Z</time>
  </trkpt>
  <trkpt lat="33.646337" lon="-4.233623">
   <ele>1409.00</ele>
   <time>2014-03-30T14:59:51Z</time>
  </trkpt>
  <trkpt lat="33.646492" lon="-4.233899">
   <ele>1406.00</ele>
   <time>2014-03-30T14:59:53Z</time>
  </trkpt>
  <trkpt lat="33.646738" lon="-4.234284">
   <ele>1402.00</ele>
   <time>2014-03-30T14:59:56Z</time>
  </trkpt>
  <trkpt lat="33.646927" lon="-4.234508">
   <ele>1400.00</ele>
   <time>2014-03-30T14:59:58Z</time>
  </trkpt>
  <trkpt lat="33.647120" lon="-4.234712">
   <ele>1397.00</ele>
   <time>2014-03-30T15:00:00Z</time>
  </trkpt>
  <trkpt lat="33.647321" lon="-4.234889">
   <ele>1394.00</ele>
   <time>2014-03-30T15:00:02Z</time>
  </trkpt>
  <trkpt lat="33.647529" lon="-4.235025">
   <ele>1392.00</ele>
   <time>2014-03-30T15:00:04Z</time>
  </trkpt>
  <trkpt lat="33.647765" lon="-4.235109">
   <ele>1389.00</ele>
   <time>2014-03-30T15:00:06Z</time>
  </trkpt>
  <trkpt lat="33.648018" lon="-4.235156">
   <ele>1386.00</ele>
   <time>2014-03-30T15:00:08Z</time>
  </trkpt>
  <trkpt lat="33.648278" lon="-4.235154">
   <ele>1384.00</ele>
   <time>2014-03-30T15:00:10Z</time>
  </trkpt>
  <trkpt lat="33.648510" lon="-4.235110">
   <ele>1383.00</ele>
   <time>2014-03-30T15:00:12Z</time>
  </trkpt>
  <trkpt lat="33.648688" lon="-4.235009">
   <ele>1381.00</ele>
   <time>2014-03-30T15:00:14Z</time>
  </trkpt>
  <trkpt lat="33.648816" lon="-4.234842">
   <ele>1380.00</ele>
   <time>2014-03-30T15:00:16Z</time>
  </trkpt>
  <trkpt lat="33.648948" lon="-4.234683">
   <ele>1379.00</ele>
   <time>2014-03-30T15:00:18Z</time>
  </trkpt>
  <trkpt lat="33.649123" lon="-4.234615">
   <ele>1377.00</ele>
   <time>2014-03-30T15:00:20Z</time>
  </trkpt>
  <trkpt lat="33.649318" lon="-4.234638">
   <ele>1376.00</ele>
   <time>2014-03-30T15:00:22Z</time>
  </trkpt>
  <trkpt lat="33.649497" lon="-4.234638">
   <ele>1375.00</ele>
   <time>2014-03-30T15:00:24Z</time>
  </trkpt>
  <trkpt lat="33.649644" lon="-4.234429">
   <ele>1374.00</ele>
   <time>2014-03-30T15:00:27Z</time>
  </trkpt>
  <trkpt lat="33.649810" lon="-4.234242">
   <ele>1371.00</ele>
   <time>2014-03-30T15:00:30Z</time>
  </trkpt>
  <trkpt lat="33.650045" lon="-4.234344">
   <ele>1369.00</ele>
   <time>2014-03-30T15:00:33Z</time>
  </trkpt>
  <trkpt lat="33.650171" lon="-4.234504">
   <ele>1367.00</ele>
   <time>2014-03-30T15:00:35Z</time>
  </trkpt>
  <trkpt lat="33.650351" lon="-4.234684">
   <ele>1366.00</ele>
   <time>2014-03-30T15:00:38Z</time>
  </trkpt>
  <trkpt lat="33.650572" lon="-4.234701">
   <ele>1364.00</ele>
   <time>2014-03-30T15:00:41Z</time>
  </trkpt>
  <trkpt lat="33.650834" lon="-4.234658">
   <ele>1362.00</ele>
   <time>2014-03-30T15:00:44Z</time>
  </trkpt>
  <trkpt lat="33.651021" lon="-4.234628">
   <ele>1361.00</ele>
   <time>2014-03-30T15:00:46Z</time>
  </trkpt>
  <trkpt lat="33.651216" lon="-4.234610">
   <ele>1360.00</ele>
   <time>2014-03-30T15:00:48Z</time>
  </trkpt>
  <trkpt lat="33.651622" lon="-4.234586">
   <ele>1357.00</ele>
   <time>2014-03-30T15:00:52Z</time>
  </trkpt>
  <trkpt lat="33.651940" lon="-4.234530">
   <ele>1355.00</ele>
   <time>2014-03-30T15:00:55Z</time>
  </trkpt>
  <trkpt lat="33.652273" lon="-4.234475">
   <ele>1353.00</ele>
   <time>2014-03-30T15:00:58Z</time>
  </trkpt>
  <trkpt lat="33.652497" lon="-4.234473">
   <ele>1352.00</ele>
   <time>2014-03-30T15:01:00Z</time>
  </trkpt>
  <trkpt lat="33.652831" lon="-4.234490">
   <ele>1349.00</ele>
   <time>2014-03-30T15:01:03Z</time>
  </trkpt>
  <trkpt lat="33.653058" lon="-4.234447">
   <ele>1348.00</ele>
   <time>2014-03-30T15:01:05Z</time>
  </trkpt>
  <trkpt lat="33.653288" lon="-4.234408">
   <ele>1347.00</ele>
   <time>2014-03-30T15:01:07Z</time>
  </trkpt>
  <trkpt lat="33.653520" lon="-4.234382">
   <ele>1345.00</ele>
   <time>2014-03-30T15:01:09Z</time>
  </trkpt>
  <trkpt lat="33.653737" lon="-4.234383">
   <ele>1344.00</ele>
   <time>2014-03-30T15:01:11Z</time>
  </trkpt>
  <trkpt lat="33.653987" lon="-4.234411">
   <ele>1343.00</ele>
   <time>2014-03-30T15:01:15Z</time>
  </trkpt>
  <trkpt lat="33.654236" lon="-4.234392">
   <ele>1343.00</ele>
   <time>2014-03-30T15:01:19Z</time>
  </trkpt>
  <trkpt lat="33.654490" lon="-4.234380">
   <ele>1342.00</ele>
   <time>2014-03-30T15:01:22Z</time>
  </trkpt>
  <trkpt lat="33.654681" lon="-4.234391">
   <ele>1342.00</ele>
   <time>2014-03-30T15:01:24Z</time>
  </trkpt>
  <trkpt lat="33.654888" lon="-4.234389">
   <ele>1342.00</ele>
   <time>2014-03-30T15:01:26Z</time>
  </trkpt>
  <trkpt lat="33.656175" lon="-4.234295">
   <ele>1340.00</ele>
   <time>2014-03-30T15:01:38Z</time>
  </trkpt>
  <trkpt lat="33.656372" lon="-4.234320">
   <ele>1340.00</ele>
   <time>2014-03-30T15:01:40Z</time>
  </trkpt>
  <trkpt lat="33.656547" lon="-4.234391">
   <ele>1340.00</ele>
   <time>2014-03-30T15:01:42Z</time>
  </trkpt>
  <trkpt lat="33.656800" lon="-4.234532">
   <ele>1340.00</ele>
   <time>2014-03-30T15:01:45Z</time>
  </trkpt>
  <trkpt lat="33.656993" lon="-4.234604">
   <ele>1340.00</ele>
   <time>2014-03-30T15:01:47Z</time>
  </trkpt>
  <trkpt lat="33.657177" lon="-4.234658">
   <ele>1340.00</ele>
   <time>2014-03-30T15:01:49Z</time>
  </trkpt>
  <trkpt lat="33.657508" lon="-4.234730">
   <ele>1341.00</ele>
   <time>2014-03-30T15:01:53Z</time>
  </trkpt>
  <trkpt lat="33.657754" lon="-4.234795">
   <ele>1341.00</ele>
   <time>2014-03-30T15:01:56Z</time>
  </trkpt>
  <trkpt lat="33.657941" lon="-4.234794">
   <ele>1341.00</ele>
   <time>2014-03-30T15:01:58Z</time>
  </trkpt>
  <trkpt lat="33.658367" lon="-4.234755">
   <ele>1340.00</ele>
   <time>2014-03-30T15:02:02Z</time>
  </trkpt>
  <trkpt lat="33.658586" lon="-4.234761">
   <ele>1339.00</ele>
   <time>2014-03-30T15:02:04Z</time>
  </trkpt>
  <trkpt lat="33.658801" lon="-4.234790">
   <ele>1339.00</ele>
   <time>2014-03-30T15:02:06Z</time>
  </trkpt>
  <trkpt lat="33.659327" lon="-4.234853">
   <ele>1336.00</ele>
   <time>2014-03-30T15:02:11Z</time>
  </trkpt>
  <trkpt lat="33.659532" lon="-4.234855">
   <ele>1335.00</ele>
   <time>2014-03-30T15:02:13Z</time>
  </trkpt>
  <trkpt lat="33.659734" lon="-4.234819">
   <ele>1334.00</ele>
   <time>2014-03-30T15:02:15Z</time>
  </trkpt>
  <trkpt lat="33.660026" lon="-4.234757">
   <ele>1334.00</ele>
   <time>2014-03-30T15:02:18Z</time>
  </trkpt>
  <trkpt lat="33.660220" lon="-4.234736">
   <ele>1333.00</ele>
   <time>2014-03-30T15:02:20Z</time>
  </trkpt>
  <trkpt lat="33.660463" lon="-4.234757">
   <ele>1333.00</ele>
   <time>2014-03-30T15:02:23Z</time>
  </trkpt>
  <trkpt lat="33.660657" lon="-4.234693">
   <ele>1328.00</ele>
   <time>2014-03-30T15:02:26Z</time>
  </trkpt>
  <trkpt lat="33.660866" lon="-4.234689">
   <ele>1330.00</ele>
   <time>2014-03-30T15:02:29Z</time>
  </trkpt>
  <trkpt lat="33.661118" lon="-4.234702">
   <ele>1331.00</ele>
   <time>2014-03-30T15:02:32Z</time>
  </trkpt>
  <trkpt lat="33.661367" lon="-4.234740">
   <ele>1331.00</ele>
   <time>2014-03-30T15:02:35Z</time>
  </trkpt>
  <trkpt lat="33.661547" lon="-4.234757">
   <ele>1331.00</ele>
   <time>2014-03-30T15:02:37Z</time>
  </trkpt>
  <trkpt lat="33.661730" lon="-4.234778">
   <ele>1331.00</ele>
   <time>2014-03-30T15:02:39Z</time>
  </trkpt>
  <trkpt lat="33.661912" lon="-4.234806">
   <ele>1331.00</ele>
   <time>2014-03-30T15:02:41Z</time>
  </trkpt>
  <trkpt lat="33.662178" lon="-4.234842">
   <ele>1332.00</ele>
   <time>2014-03-30T15:02:44Z</time>
  </trkpt>
  <trkpt lat="33.662450" lon="-4.234842">
   <ele>1332.00</ele>
   <time>2014-03-30T15:02:47Z</time>
  </trkpt>
  <trkpt lat="33.662640" lon="-4.234816">
   <ele>1331.00</ele>
   <time>2014-03-30T15:02:49Z</time>
  </trkpt>
  <trkpt lat="33.663047" lon="-4.234754">
   <ele>1331.00</ele>
   <time>2014-03-30T15:02:53Z</time>
  </trkpt>
  <trkpt lat="33.663346" lon="-4.234720">
   <ele>1330.00</ele>
   <time>2014-03-30T15:02:56Z</time>
  </trkpt>
  <trkpt lat="33.663545" lon="-4.234719">
   <ele>1329.00</ele>
   <time>2014-03-30T15:02:58Z</time>
  </trkpt>
  <trkpt lat="33.663744" lon="-4.234752">
   <ele>1328.00</ele>
   <time>2014-03-30T15:03:00Z</time>
  </trkpt>
  <trkpt lat="33.663936" lon="-4.234816">
   <ele>1328.00</ele>
   <time>2014-03-30T15:03:02Z</time>
  </trkpt>
  <trkpt lat="33.664119" lon="-4.234893">
   <ele>1328.00</ele>
   <time>2014-03-30T15:03:04Z</time>
  </trkpt>
  <trkpt lat="33.664284" lon="-4.234991">
   <ele>1327.00</ele>
   <time>2014-03-30T15:03:06Z</time>
  </trkpt>
  <trkpt lat="33.664420" lon="-4.235142">
   <ele>1327.00</ele>
   <time>2014-03-30T15:03:08Z</time>
  </trkpt>
  <trkpt lat="33.664522" lon="-4.235339">
   <ele>1326.00</ele>
   <time>2014-03-30T15:03:10Z</time>
  </trkpt>
  <trkpt lat="33.664626" lon="-4.235548">
   <ele>1326.00</ele>
   <time>2014-03-30T15:03:12Z</time>
  </trkpt>
  <trkpt lat="33.664757" lon="-4.235745">
   <ele>1326.00</ele>
   <time>2014-03-30T15:03:14Z</time>
  </trkpt>
  <trkpt lat="33.664908" lon="-4.235921">
   <ele>1327.00</ele>
   <time>2014-03-30T15:03:16Z</time>
  </trkpt>
  <trkpt lat="33.665084" lon="-4.236045">
   <ele>1327.00</ele>
   <time>2014-03-30T15:03:18Z</time>
  </trkpt>
  <trkpt lat="33.665276" lon="-4.236098">
   <ele>1329.00</ele>
   <time>2014-03-30T15:03:20Z</time>
  </trkpt>
  <trkpt lat="33.665536" lon="-4.236094">
   <ele>1331.00</ele>
   <time>2014-03-30T15:03:23Z</time>
  </trkpt>
  <trkpt lat="33.665784" lon="-4.236137">
   <ele>1333.00</ele>
   <time>2014-03-30T15:03:26Z</time>
  </trkpt>
  <trkpt lat="33.666133" lon="-4.236251">
   <ele>1337.00</ele>
   <time>2014-03-30T15:03:30Z</time>
  </trkpt>
  <trkpt lat="33.666334" lon="-4.236371">
   <ele>1340.00</ele>
   <time>2014-03-30T15:03:33Z</time>
  </trkpt>
  <trkpt lat="33.666391" lon="-4.236580">
   <ele>1342.00</ele>
   <time>2014-03-30T15:03:36Z</time>
  </trkpt>
  <trkpt lat="33.666319" lon="-4.236850">
   <ele>1344.00</ele>
   <time>2014-03-30T15:03:39Z</time>
  </trkpt>
  <trkpt lat="33.666200" lon="-4.237133">
   <ele>1347.00</ele>
   <time>2014-03-30T15:03:42Z</time>
  </trkpt>
  <trkpt lat="33.666203" lon="-4.237434">
   <ele>1349.00</ele>
   <time>2014-03-30T15:03:45Z</time>
  </trkpt>
  <trkpt lat="33.666249" lon="-4.237689">
   <ele>1351.00</ele>
   <time>2014-03-30T15:03:48Z</time>
  </trkpt>
  <trkpt lat="33.666312" lon="-4.237903">
   <ele>1352.00</ele>
   <time>2014-03-30T15:03:51Z</time>
  </trkpt>
  <trkpt lat="33.666517" lon="-4.237917">
   <ele>1354.00</ele>
   <time>2014-03-30T15:03:54Z</time>
  </trkpt>
  <trkpt lat="33.666713" lon="-4.237769">
   <ele>1356.00</ele>
   <time>2014-03-30T15:03:57Z</time>
  </trkpt>
  <trkpt lat="33.666839" lon="-4.237519">
   <ele>1358.00</ele>
   <time>2014-03-30T15:04:00Z</time>
  </trkpt>
  <trkpt lat="33.666943" lon="-4.237254">
   <ele>1361.00</ele>
   <time>2014-03-30T15:04:03Z</time>
  </trkpt>
  <trkpt lat="33.667121" lon="-4.237082">
   <ele>1365.00</ele>
   <time>2014-03-30T15:04:06Z</time>
  </trkpt>
  <trkpt lat="33.667337" lon="-4.237185">
   <ele>1367.00</ele>
   <time>2014-03-30T15:04:09Z</time>
  </trkpt>
  <trkpt lat="33.667498" lon="-4.237431">
   <ele>1369.00</ele>
   <time>2014-03-30T15:04:12Z</time>
  </trkpt>
  <trkpt lat="33.667819" lon="-4.237855">
   <ele>1372.00</ele>
   <time>2014-03-30T15:04:17Z</time>
  </trkpt>
  <trkpt lat="33.667999" lon="-4.238010">
   <ele>1374.00</ele>
   <time>2014-03-30T15:04:19Z</time>
  </trkpt>
  <trkpt lat="33.668194" lon="-4.238132">
   <ele>1375.00</ele>
   <time>2014-03-30T15:04:21Z</time>
  </trkpt>
  <trkpt lat="33.668421" lon="-4.238191">
   <ele>1377.00</ele>
   <time>2014-03-30T15:04:23Z</time>
  </trkpt>
  <trkpt lat="33.668632" lon="-4.238211">
   <ele>1379.00</ele>
   <time>2014-03-30T15:04:25Z</time>
  </trkpt>
  <trkpt lat="33.668818" lon="-4.238255">
   <ele>1380.00</ele>
   <time>2014-03-30T15:04:27Z</time>
  </trkpt>
  <trkpt lat="33.668965" lon="-4.238391">
   <ele>1382.00</ele>
   <time>2014-03-30T15:04:29Z</time>
  </trkpt>
  <trkpt lat="33.669039" lon="-4.238611">
   <ele>1382.00</ele>
   <time>2014-03-30T15:04:31Z</time>
  </trkpt>
  <trkpt lat="33.669000" lon="-4.238848">
   <ele>1383.00</ele>
   <time>2014-03-30T15:04:33Z</time>
  </trkpt>
  <trkpt lat="33.668920" lon="-4.239055">
   <ele>1384.00</ele>
   <time>2014-03-30T15:04:35Z</time>
  </trkpt>
  <trkpt lat="33.668904" lon="-4.239330">
   <ele>1385.00</ele>
   <time>2014-03-30T15:04:38Z</time>
  </trkpt>
  <trkpt lat="33.669128" lon="-4.239380">
   <ele>1385.00</ele>
   <time>2014-03-30T15:04:41Z</time>
  </trkpt>
  <trkpt lat="33.669319" lon="-4.239543">
   <ele>1387.00</ele>
   <time>2014-03-30T15:04:44Z</time>
  </trkpt>
  <trkpt lat="33.669301" lon="-4.239840">
   <ele>1388.00</ele>
   <time>2014-03-30T15:04:47Z</time>
  </trkpt>
  <trkpt lat="33.669202" lon="-4.240024">
   <ele>1390.00</ele>
   <time>2014-03-30T15:04:49Z</time>
  </trkpt>
  <trkpt lat="33.669059" lon="-4.240291">
   <ele>1392.00</ele>
   <time>2014-03-30T15:04:52Z</time>
  </trkpt>
  <trkpt lat="33.668988" lon="-4.240490">
   <ele>1393.00</ele>
   <time>2014-03-30T15:04:54Z</time>
  </trkpt>
  <trkpt lat="33.668902" lon="-4.240798">
   <ele>1394.00</ele>
   <time>2014-03-30T15:04:57Z</time>
  </trkpt>
  <trkpt lat="33.668864" lon="-4.241080">
   <ele>1396.00</ele>
   <time>2014-03-30T15:05:00Z</time>
  </trkpt>
  <trkpt lat="33.669012" lon="-4.241241">
   <ele>1397.00</ele>
   <time>2014-03-30T15:05:03Z</time>
  </trkpt>
  <trkpt lat="33.669266" lon="-4.241174">
   <ele>1397.00</ele>
   <time>2014-03-30T15:05:06Z</time>
  </trkpt>
  <trkpt lat="33.669536" lon="-4.241083">
   <ele>1398.00</ele>
   <time>2014-03-30T15:05:09Z</time>
  </trkpt>
  <trkpt lat="33.669735" lon="-4.241055">
   <ele>1399.00</ele>
   <time>2014-03-30T15:05:11Z</time>
  </trkpt>
  <trkpt lat="33.669953" lon="-4.241093">
   <ele>1400.00</ele>
   <time>2014-03-30T15:05:13Z</time>
  </trkpt>
  <trkpt lat="33.670182" lon="-4.241173">
   <ele>1400.00</ele>
   <time>2014-03-30T15:05:15Z</time>
  </trkpt>
  <trkpt lat="33.670635" lon="-4.241357">
   <ele>1402.00</ele>
   <time>2014-03-30T15:05:19Z</time>
  </trkpt>
  <trkpt lat="33.670807" lon="-4.241467">
   <ele>1403.00</ele>
   <time>2014-03-30T15:05:21Z</time>
  </trkpt>
  <trkpt lat="33.671036" lon="-4.241506">
   <ele>1404.00</ele>
   <time>2014-03-30T15:05:24Z</time>
  </trkpt>
  <trkpt lat="33.671186" lon="-4.241256">
   <ele>1405.00</ele>
   <time>2014-03-30T15:05:27Z</time>
  </trkpt>
  <trkpt lat="33.671214" lon="-4.241035">
   <ele>1407.00</ele>
   <time>2014-03-30T15:05:29Z</time>
  </trkpt>
  <trkpt lat="33.671302" lon="-4.240845">
   <ele>1408.00</ele>
   <time>2014-03-30T15:05:31Z</time>
  </trkpt>
  <trkpt lat="33.671472" lon="-4.240728">
   <ele>1410.00</ele>
   <time>2014-03-30T15:05:33Z</time>
  </trkpt>
  <trkpt lat="33.671673" lon="-4.240621">
   <ele>1411.00</ele>
   <time>2014-03-30T15:05:35Z</time>
  </trkpt>
  <trkpt lat="33.671873" lon="-4.240505">
   <ele>1413.00</ele>
   <time>2014-03-30T15:05:37Z</time>
  </trkpt>
  <trkpt lat="33.672063" lon="-4.240433">
   <ele>1414.00</ele>
   <time>2014-03-30T15:05:39Z</time>
  </trkpt>
  <trkpt lat="33.672228" lon="-4.240332">
   <ele>1415.00</ele>
   <time>2014-03-30T15:05:41Z</time>
  </trkpt>
  <trkpt lat="33.672329" lon="-4.240153">
   <ele>1416.00</ele>
   <time>2014-03-30T15:05:43Z</time>
  </trkpt>
  <trkpt lat="33.672295" lon="-4.239885">
   <ele>1418.00</ele>
   <time>2014-03-30T15:05:46Z</time>
  </trkpt>
  <trkpt lat="33.672060" lon="-4.239788">
   <ele>1418.00</ele>
   <time>2014-03-30T15:05:49Z</time>
  </trkpt>
  <trkpt lat="33.671872" lon="-4.239746">
   <ele>1420.00</ele>
   <time>2014-03-30T15:05:51Z</time>
  </trkpt>
  <trkpt lat="33.671671" lon="-4.239674">
   <ele>1422.00</ele>
   <time>2014-03-30T15:05:53Z</time>
  </trkpt>
  <trkpt lat="33.671483" lon="-4.239563">
   <ele>1424.00</ele>
   <time>2014-03-30T15:05:55Z</time>
  </trkpt>
  <trkpt lat="33.671378" lon="-4.239326">
   <ele>1426.00</ele>
   <time>2014-03-30T15:05:58Z</time>
  </trkpt>
  <trkpt lat="33.671556" lon="-4.239126">
   <ele>1427.00</ele>
   <time>2014-03-30T15:06:01Z</time>
  </trkpt>
  <trkpt lat="33.671757" lon="-4.239168">
   <ele>1428.00</ele>
   <time>2014-03-30T15:06:03Z</time>
  </trkpt>
  <trkpt lat="33.671953" lon="-4.239248">
   <ele>1429.00</ele>
   <time>2014-03-30T15:06:05Z</time>
  </trkpt>
  <trkpt lat="33.672165" lon="-4.239316">
   <ele>1430.00</ele>
   <time>2014-03-30T15:06:07Z</time>
  </trkpt>
  <trkpt lat="33.672377" lon="-4.239369">
   <ele>1431.00</ele>
   <time>2014-03-30T15:06:09Z</time>
  </trkpt>
  <trkpt lat="33.672571" lon="-4.239400">
   <ele>1432.00</ele>
   <time>2014-03-30T15:06:11Z</time>
  </trkpt>
  <trkpt lat="33.672792" lon="-4.239290">
   <ele>1432.00</ele>
   <time>2014-03-30T15:06:14Z</time>
  </trkpt>
  <trkpt lat="33.672805" lon="-4.239014">
   <ele>1433.00</ele>
   <time>2014-03-30T15:06:17Z</time>
  </trkpt>
  <trkpt lat="33.672715" lon="-4.238817">
   <ele>1433.00</ele>
   <time>2014-03-30T15:06:19Z</time>
  </trkpt>
  <trkpt lat="33.672623" lon="-4.238616">
   <ele>1433.00</ele>
   <time>2014-03-30T15:06:21Z</time>
  </trkpt>
  <trkpt lat="33.672592" lon="-4.238349">
   <ele>1434.00</ele>
   <time>2014-03-30T15:06:24Z</time>
  </trkpt>
  <trkpt lat="33.672831" lon="-4.238297">
   <ele>1433.00</ele>
   <time>2014-03-30T15:06:27Z</time>
  </trkpt>
  <trkpt lat="33.673020" lon="-4.238285">
   <ele>1432.00</ele>
   <time>2014-03-30T15:06:29Z</time>
  </trkpt>
  <trkpt lat="33.673221" lon="-4.238412">
   <ele>1431.00</ele>
   <time>2014-03-30T15:06:32Z</time>
  </trkpt>
  <trkpt lat="33.673198" lon="-4.238705">
   <ele>1429.00</ele>
   <time>2014-03-30T15:06:35Z</time>
  </trkpt>
  <trkpt lat="33.673191" lon="-4.238922">
   <ele>1427.00</ele>
   <time>2014-03-30T15:06:37Z</time>
  </trkpt>
  <trkpt lat="33.673356" lon="-4.239146">
   <ele>1424.00</ele>
   <time>2014-03-30T15:06:40Z</time>
  </trkpt>
  <trkpt lat="33.673599" lon="-4.239239">
   <ele>1421.00</ele>
   <time>2014-03-30T15:06:43Z</time>
  </trkpt>
  <trkpt lat="33.673736" lon="-4.239467">
   <ele>1418.00</ele>
   <time>2014-03-30T15:06:46Z</time>
  </trkpt>
  <trkpt lat="33.673723" lon="-4.239716">
   <ele>1416.00</ele>
   <time>2014-03-30T15:06:48Z</time>
  </trkpt>
  <trkpt lat="33.673721" lon="-4.239953">
   <ele>1414.00</ele>
   <time>2014-03-30T15:06:50Z</time>
  </trkpt>
  <trkpt lat="33.673767" lon="-4.240165">
   <ele>1413.00</ele>
   <time>2014-03-30T15:06:52Z</time>
  </trkpt>
  <trkpt lat="33.673819" lon="-4.240476">
   <ele>1410.00</ele>
   <time>2014-03-30T15:06:55Z</time>
  </trkpt>
  <trkpt lat="33.673780" lon="-4.240698">
   <ele>1408.00</ele>
   <time>2014-03-30T15:06:57Z</time>
  </trkpt>
  <trkpt lat="33.673705" lon="-4.240896">
   <ele>1406.00</ele>
   <time>2014-03-30T15:06:59Z</time>
  </trkpt>
  <trkpt lat="33.673637" lon="-4.241138">
   <ele>1405.00</ele>
   <time>2014-03-30T15:07:02Z</time>
  </trkpt>
  <trkpt lat="33.673819" lon="-4.241255">
   <ele>1403.00</ele>
   <time>2014-03-30T15:07:06Z</time>
  </trkpt>
  <trkpt lat="33.674165" lon="-4.241183">
   <ele>1403.00</ele>
   <time>2014-03-30T15:07:10Z</time>
  </trkpt>
  <trkpt lat="33.674413" lon="-4.241216">
   <ele>1403.00</ele>
   <time>2014-03-30T15:07:13Z</time>
  </trkpt>
  <trkpt lat="33.674622" lon="-4.241162">
   <ele>1404.00</ele>
   <time>2014-03-30T15:07:16Z</time>
  </trkpt>
  <trkpt lat="33.674820" lon="-4.241074">
   <ele>1404.00</ele>
   <time>2014-03-30T15:07:19Z</time>
  </trkpt>
  <trkpt lat="33.674893" lon="-4.240873">
   <ele>1406.00</ele>
   <time>2014-03-30T15:07:22Z</time>
  </trkpt>
  <trkpt lat="33.674889" lon="-4.240633">
   <ele>1407.00</ele>
   <time>2014-03-30T15:07:25Z</time>
  </trkpt>
  <trkpt lat="33.674984" lon="-4.240380">
   <ele>1409.00</ele>
   <time>2014-03-30T15:07:28Z</time>
  </trkpt>
  <trkpt lat="33.675194" lon="-4.240178">
   <ele>1412.00</ele>
   <time>2014-03-30T15:07:31Z</time>
  </trkpt>
  <trkpt lat="33.675370" lon="-4.240071">
   <ele>1414.00</ele>
   <time>2014-03-30T15:07:33Z</time>
  </trkpt>
  <trkpt lat="33.675544" lon="-4.239977">
   <ele>1416.00</ele>
   <time>2014-03-30T15:07:35Z</time>
  </trkpt>
  <trkpt lat="33.675807" lon="-4.239987">
   <ele>1419.00</ele>
   <time>2014-03-30T15:07:38Z</time>
  </trkpt>
  <trkpt lat="33.675962" lon="-4.240201">
   <ele>1420.00</ele>
   <time>2014-03-30T15:07:40Z</time>
  </trkpt>
  <trkpt lat="33.676045" lon="-4.240464">
   <ele>1421.00</ele>
   <time>2014-03-30T15:07:42Z</time>
  </trkpt>
  <trkpt lat="33.676149" lon="-4.240721">
   <ele>1422.00</ele>
   <time>2014-03-30T15:07:44Z</time>
  </trkpt>
  <trkpt lat="33.676305" lon="-4.240947">
   <ele>1423.00</ele>
   <time>2014-03-30T15:07:46Z</time>
  </trkpt>
  <trkpt lat="33.676802" lon="-4.241574">
   <ele>1426.00</ele>
   <time>2014-03-30T15:07:52Z</time>
  </trkpt>
  <trkpt lat="33.677048" lon="-4.241951">
   <ele>1428.00</ele>
   <time>2014-03-30T15:07:56Z</time>
  </trkpt>
  <trkpt lat="33.677241" lon="-4.242016">
   <ele>1428.00</ele>
   <time>2014-03-30T15:07:59Z</time>
  </trkpt>
  <trkpt lat="33.677385" lon="-4.241806">
   <ele>1429.00</ele>
   <time>2014-03-30T15:08:02Z</time>
  </trkpt>
  <trkpt lat="33.677456" lon="-4.241602">
   <ele>1429.00</ele>
   <time>2014-03-30T15:08:04Z</time>
  </trkpt>
  <trkpt lat="33.677471" lon="-4.241362">
   <ele>1429.00</ele>
   <time>2014-03-30T15:08:06Z</time>
  </trkpt>
  <trkpt lat="33.677449" lon="-4.241112">
   <ele>1430.00</ele>
   <time>2014-03-30T15:08:08Z</time>
  </trkpt>
  <trkpt lat="33.677467" lon="-4.240862">
   <ele>1431.00</ele>
   <time>2014-03-30T15:08:10Z</time>
  </trkpt>
  <trkpt lat="33.677548" lon="-4.240629">
   <ele>1432.00</ele>
   <time>2014-03-30T15:08:12Z</time>
  </trkpt>
  <trkpt lat="33.677688" lon="-4.240486">
   <ele>1433.00</ele>
   <time>2014-03-30T15:08:14Z</time>
  </trkpt>
  <trkpt lat="33.677932" lon="-4.240555">
   <ele>1433.00</ele>
   <time>2014-03-30T15:08:17Z</time>
  </trkpt>
  <trkpt lat="33.678074" lon="-4.240704">
   <ele>1434.00</ele>
   <time>2014-03-30T15:08:19Z</time>
  </trkpt>
  <trkpt lat="33.678243" lon="-4.240782">
   <ele>1435.00</ele>
   <time>2014-03-30T15:08:21Z</time>
  </trkpt>
  <trkpt lat="33.678497" lon="-4.240738">
   <ele>1438.00</ele>
   <time>2014-03-30T15:08:24Z</time>
  </trkpt>
  <trkpt lat="33.678678" lon="-4.240905">
   <ele>1440.00</ele>
   <time>2014-03-30T15:08:27Z</time>
  </trkpt>
  <trkpt lat="33.678631" lon="-4.241230">
   <ele>1442.00</ele>
   <time>2014-03-30T15:08:30Z</time>
  </trkpt>
  <trkpt lat="33.678553" lon="-4.241609">
   <ele>1444.00</ele>
   <time>2014-03-30T15:08:33Z</time>
  </trkpt>
  <trkpt lat="33.678538" lon="-4.241879">
   <ele>1445.00</ele>
   <time>2014-03-30T15:08:35Z</time>
  </trkpt>
  <trkpt lat="33.678544" lon="-4.242155">
   <ele>1447.00</ele>
   <time>2014-03-30T15:08:37Z</time>
  </trkpt>
  <trkpt lat="33.678567" lon="-4.242557">
   <ele>1449.00</ele>
   <time>2014-03-30T15:08:40Z</time>
  </trkpt>
  <trkpt lat="33.678618" lon="-4.243031">
   <ele>1451.00</ele>
   <time>2014-03-30T15:08:44Z</time>
  </trkpt>
  <trkpt lat="33.678699" lon="-4.243227">
   <ele>1452.00</ele>
   <time>2014-03-30T15:08:46Z</time>
  </trkpt>
  <trkpt lat="33.678869" lon="-4.243456">
   <ele>1452.00</ele>
   <time>2014-03-30T15:08:49Z</time>
  </trkpt>
  <trkpt lat="33.679122" lon="-4.243499">
   <ele>1453.00</ele>
   <time>2014-03-30T15:08:52Z</time>
  </trkpt>
  <trkpt lat="33.679302" lon="-4.243438">
   <ele>1454.00</ele>
   <time>2014-03-30T15:08:54Z</time>
  </trkpt>
  <trkpt lat="33.679492" lon="-4.243221">
   <ele>1455.00</ele>
   <time>2014-03-30T15:08:57Z</time>
  </trkpt>
  <trkpt lat="33.679577" lon="-4.242918">
   <ele>1456.00</ele>
   <time>2014-03-30T15:09:00Z</time>
  </trkpt>
  <trkpt lat="33.679734" lon="-4.242678">
   <ele>1457.00</ele>
   <time>2014-03-30T15:09:03Z</time>
  </trkpt>
  <trkpt lat="33.679959" lon="-4.242714">
   <ele>1459.00</ele>
   <time>2014-03-30T15:09:06Z</time>
  </trkpt>
  <trkpt lat="33.680104" lon="-4.242847">
   <ele>1460.00</ele>
   <time>2014-03-30T15:09:08Z</time>
  </trkpt>
  <trkpt lat="33.680270" lon="-4.242974">
   <ele>1461.00</ele>
   <time>2014-03-30T15:09:10Z</time>
  </trkpt>
  <trkpt lat="33.680863" lon="-4.243372">
   <ele>1464.00</ele>
   <time>2014-03-30T15:09:17Z</time>
  </trkpt>
  <trkpt lat="33.681114" lon="-4.243434">
   <ele>1465.00</ele>
   <time>2014-03-30T15:09:20Z</time>
  </trkpt>
  <trkpt lat="33.681321" lon="-4.243267">
   <ele>1465.00</ele>
   <time>2014-03-30T15:09:23Z</time>
  </trkpt>
  <trkpt lat="33.681384" lon="-4.243050">
   <ele>1465.00</ele>
   <time>2014-03-30T15:09:25Z</time>
  </trkpt>
  <trkpt lat="33.681379" lon="-4.242818">
   <ele>1465.00</ele>
   <time>2014-03-30T15:09:27Z</time>
  </trkpt>
  <trkpt lat="33.681301" lon="-4.242612">
   <ele>1466.00</ele>
   <time>2014-03-30T15:09:29Z</time>
  </trkpt>
  <trkpt lat="33.681221" lon="-4.242417">
   <ele>1467.00</ele>
   <time>2014-03-30T15:09:31Z</time>
  </trkpt>
  <trkpt lat="33.681237" lon="-4.242091">
   <ele>1470.00</ele>
   <time>2014-03-30T15:09:34Z</time>
  </trkpt>
  <trkpt lat="33.681247" lon="-4.241870">
   <ele>1472.00</ele>
   <time>2014-03-30T15:09:36Z</time>
  </trkpt>
  <trkpt lat="33.681340" lon="-4.241645">
   <ele>1473.00</ele>
   <time>2014-03-30T15:09:39Z</time>
  </trkpt>
  <trkpt lat="33.681544" lon="-4.241693">
   <ele>1474.00</ele>
   <time>2014-03-30T15:09:42Z</time>
  </trkpt>
  <trkpt lat="33.681764" lon="-4.241877">
   <ele>1475.00</ele>
   <time>2014-03-30T15:09:45Z</time>
  </trkpt>
  <trkpt lat="33.681855" lon="-4.242081">
   <ele>1476.00</ele>
   <time>2014-03-30T15:09:47Z</time>
  </trkpt>
  <trkpt lat="33.681914" lon="-4.242330">
   <ele>1478.00</ele>
   <time>2014-03-30T15:09:49Z</time>
  </trkpt>
  <trkpt lat="33.681953" lon="-4.242607">
   <ele>1479.00</ele>
   <time>2014-03-30T15:09:51Z</time>
  </trkpt>
  <trkpt lat="33.681974" lon="-4.242900">
   <ele>1481.00</ele>
   <time>2014-03-30T15:09:53Z</time>
  </trkpt>
  <trkpt lat="33.682005" lon="-4.243193">
   <ele>1483.00</ele>
   <time>2014-03-30T15:09:55Z</time>
  </trkpt>
  <trkpt lat="33.682074" lon="-4.243465">
   <ele>1484.00</ele>
   <time>2014-03-30T15:09:57Z</time>
  </trkpt>
  <trkpt lat="33.682184" lon="-4.243810">
   <ele>1488.00</ele>
   <time>2014-03-30T15:10:00Z</time>
  </trkpt>
  <trkpt lat="33.682232" lon="-4.244105">
   <ele>1490.00</ele>
   <time>2014-03-30T15:10:03Z</time>
  </trkpt>
  <trkpt lat="33.682363" lon="-4.244331">
   <ele>1492.00</ele>
   <time>2014-03-30T15:10:06Z</time>
  </trkpt>
  <trkpt lat="33.682518" lon="-4.244503">
   <ele>1494.00</ele>
   <time>2014-03-30T15:10:09Z</time>
  </trkpt>
  <trkpt lat="33.682699" lon="-4.244621">
   <ele>1495.00</ele>
   <time>2014-03-30T15:10:13Z</time>
  </trkpt>
  <trkpt lat="33.682916" lon="-4.244510">
   <ele>1496.00</ele>
   <time>2014-03-30T15:10:17Z</time>
  </trkpt>
  <trkpt lat="33.683126" lon="-4.244479">
   <ele>1498.00</ele>
   <time>2014-03-30T15:10:20Z</time>
  </trkpt>
  <trkpt lat="33.683305" lon="-4.244637">
   <ele>1500.00</ele>
   <time>2014-03-30T15:10:23Z</time>
  </trkpt>
  <trkpt lat="33.683505" lon="-4.244713">
   <ele>1500.00</ele>
   <time>2014-03-30T15:10:26Z</time>
  </trkpt>
  <trkpt lat="33.683736" lon="-4.244590">
   <ele>1501.00</ele>
   <time>2014-03-30T15:10:29Z</time>
  </trkpt>
  <trkpt lat="33.683950" lon="-4.244429">
   <ele>1503.00</ele>
   <time>2014-03-30T15:10:32Z</time>
  </trkpt>
  <trkpt lat="33.684169" lon="-4.244430">
   <ele>1504.00</ele>
   <time>2014-03-30T15:10:35Z</time>
  </trkpt>
  <trkpt lat="33.684359" lon="-4.244648">
   <ele>1506.00</ele>
   <time>2014-03-30T15:10:38Z</time>
  </trkpt>
  <trkpt lat="33.684507" lon="-4.244769">
   <ele>1507.00</ele>
   <time>2014-03-30T15:10:40Z</time>
  </trkpt>
  <trkpt lat="33.684696" lon="-4.244769">
   <ele>1508.00</ele>
   <time>2014-03-30T15:10:42Z</time>
  </trkpt>
  <trkpt lat="33.684874" lon="-4.244683">
   <ele>1509.00</ele>
   <time>2014-03-30T15:10:44Z</time>
  </trkpt>
  <trkpt lat="33.685125" lon="-4.244667">
   <ele>1510.00</ele>
   <time>2014-03-30T15:10:47Z</time>
  </trkpt>
  <trkpt lat="33.685375" lon="-4.244699">
   <ele>1512.00</ele>
   <time>2014-03-30T15:10:50Z</time>
  </trkpt>
  <trkpt lat="33.685630" lon="-4.244730">
   <ele>1513.00</ele>
   <time>2014-03-30T15:10:53Z</time>
  </trkpt>
  <trkpt lat="33.685790" lon="-4.244856">
   <ele>1515.00</ele>
   <time>2014-03-30T15:10:55Z</time>
  </trkpt>
  <trkpt lat="33.685952" lon="-4.244988">
   <ele>1516.00</ele>
   <time>2014-03-30T15:10:57Z</time>
  </trkpt>
  <trkpt lat="33.686134" lon="-4.245047">
   <ele>1518.00</ele>
   <time>2014-03-30T15:10:59Z</time>
  </trkpt>
  <trkpt lat="33.686386" lon="-4.245032">
   <ele>1520.00</ele>
   <time>2014-03-30T15:11:02Z</time>
  </trkpt>
  <trkpt lat="33.686559" lon="-4.245247">
   <ele>1521.00</ele>
   <time>2014-03-30T15:11:05Z</time>
  </trkpt>
  <trkpt lat="33.686615" lon="-4.245468">
   <ele>1523.00</ele>
   <time>2014-03-30T15:11:07Z</time>
  </trkpt>
  <trkpt lat="33.686700" lon="-4.245685">
   <ele>1524.00</ele>
   <time>2014-03-30T15:11:09Z</time>
  </trkpt>
  <trkpt lat="33.686832" lon="-4.245847">
   <ele>1526.00</ele>
   <time>2014-03-30T15:11:11Z</time>
  </trkpt>
  <trkpt lat="33.686999" lon="-4.245945">
   <ele>1528.00</ele>
   <time>2014-03-30T15:11:13Z</time>
  </trkpt>
  <trkpt lat="33.687157" lon="-4.246146">
   <ele>1530.00</ele>
   <time>2014-03-30T15:11:16Z</time>
  </trkpt>
  <trkpt lat="33.687112" lon="-4.246445">
   <ele>1531.00</ele>
   <time>2014-03-30T15:11:19Z</time>
  </trkpt>
  <trkpt lat="33.687138" lon="-4.246712">
   <ele>1532.00</ele>
   <time>2014-03-30T15:11:22Z</time>
  </trkpt>
  <trkpt lat="33.687309" lon="-4.246913">
   <ele>1534.00</ele>
   <time>2014-03-30T15:11:25Z</time>
  </trkpt>
  <trkpt lat="33.687424" lon="-4.247194">
   <ele>1536.00</ele>
   <time>2014-03-30T15:11:28Z</time>
  </trkpt>
  <trkpt lat="33.687495" lon="-4.247599">
   <ele>1538.00</ele>
   <time>2014-03-30T15:11:32Z</time>
  </trkpt>
  <trkpt lat="33.687661" lon="-4.247834">
   <ele>1539.00</ele>
   <time>2014-03-30T15:11:35Z</time>
  </trkpt>
  <trkpt lat="33.687919" lon="-4.247878">
   <ele>1539.00</ele>
   <time>2014-03-30T15:11:38Z</time>
  </trkpt>
  <trkpt lat="33.688118" lon="-4.247793">
   <ele>1539.00</ele>
   <time>2014-03-30T15:11:40Z</time>
  </trkpt>
  <trkpt lat="33.688447" lon="-4.247629">
   <ele>1541.00</ele>
   <time>2014-03-30T15:11:43Z</time>
  </trkpt>
  <trkpt lat="33.688854" lon="-4.247476">
   <ele>1543.00</ele>
   <time>2014-03-30T15:11:47Z</time>
  </trkpt>
  <trkpt lat="33.689034" lon="-4.247519">
   <ele>1544.00</ele>
   <time>2014-03-30T15:11:49Z</time>
  </trkpt>
  <trkpt lat="33.689220" lon="-4.247596">
   <ele>1544.00</ele>
   <time>2014-03-30T15:11:51Z</time>
  </trkpt>
  <trkpt lat="33.689406" lon="-4.247598">
   <ele>1546.00</ele>
   <time>2014-03-30T15:11:53Z</time>
  </trkpt>
  <trkpt lat="33.689585" lon="-4.247625">
   <ele>1547.00</ele>
   <time>2014-03-30T15:11:55Z</time>
  </trkpt>
  <trkpt lat="33.689760" lon="-4.247750">
   <ele>1548.00</ele>
   <time>2014-03-30T15:11:57Z</time>
  </trkpt>
  <trkpt lat="33.690192" lon="-4.248119">
   <ele>1551.00</ele>
   <time>2014-03-30T15:12:02Z</time>
  </trkpt>
  <trkpt lat="33.690371" lon="-4.248206">
   <ele>1552.00</ele>
   <time>2014-03-30T15:12:04Z</time>
  </trkpt>
  <trkpt lat="33.690555" lon="-4.248203">
   <ele>1553.00</ele>
   <time>2014-03-30T15:12:06Z</time>
  </trkpt>
  <trkpt lat="33.690714" lon="-4.248078">
   <ele>1554.00</ele>
   <time>2014-03-30T15:12:08Z</time>
  </trkpt>
  <trkpt lat="33.690867" lon="-4.247903">
   <ele>1555.00</ele>
   <time>2014-03-30T15:12:10Z</time>
  </trkpt>
  <trkpt lat="33.691028" lon="-4.247781">
   <ele>1556.00</ele>
   <time>2014-03-30T15:12:12Z</time>
  </trkpt>
  <trkpt lat="33.691286" lon="-4.247866">
   <ele>1557.00</ele>
   <time>2014-03-30T15:12:15Z</time>
  </trkpt>
  <trkpt lat="33.691471" lon="-4.247982">
   <ele>1558.00</ele>
   <time>2014-03-30T15:12:17Z</time>
  </trkpt>
  <trkpt lat="33.691651" lon="-4.248124">
   <ele>1559.00</ele>
   <time>2014-03-30T15:12:19Z</time>
  </trkpt>
  <trkpt lat="33.691812" lon="-4.248311">
   <ele>1559.00</ele>
   <time>2014-03-30T15:12:21Z</time>
  </trkpt>
  <trkpt lat="33.691934" lon="-4.248534">
   <ele>1559.00</ele>
   <time>2014-03-30T15:12:23Z</time>
  </trkpt>
  <trkpt lat="33.692013" lon="-4.248762">
   <ele>1559.00</ele>
   <time>2014-03-30T15:12:25Z</time>
  </trkpt>
  <trkpt lat="33.692075" lon="-4.248967">
   <ele>1559.00</ele>
   <time>2014-03-30T15:12:27Z</time>
  </trkpt>
  <trkpt lat="33.692218" lon="-4.249149">
   <ele>1560.00</ele>
   <time>2014-03-30T15:12:30Z</time>
  </trkpt>
  <trkpt lat="33.692392" lon="-4.248985">
   <ele>1561.00</ele>
   <time>2014-03-30T15:12:33Z</time>
  </trkpt>
  <trkpt lat="33.692486" lon="-4.248788">
   <ele>1561.00</ele>
   <time>2014-03-30T15:12:35Z</time>
  </trkpt>
  <trkpt lat="33.692590" lon="-4.248605">
   <ele>1562.00</ele>
   <time>2014-03-30T15:12:37Z</time>
  </trkpt>
  <trkpt lat="33.692739" lon="-4.248485">
   <ele>1562.00</ele>
   <time>2014-03-30T15:12:39Z</time>
  </trkpt>
  <trkpt lat="33.692939" lon="-4.248453">
   <ele>1563.00</ele>
   <time>2014-03-30T15:12:41Z</time>
  </trkpt>
  <trkpt lat="33.693139" lon="-4.248456">
   <ele>1564.00</ele>
   <time>2014-03-30T15:12:43Z</time>
  </trkpt>
  <trkpt lat="33.693331" lon="-4.248402">
   <ele>1565.00</ele>
   <time>2014-03-30T15:12:45Z</time>
  </trkpt>
  <trkpt lat="33.693490" lon="-4.248238">
   <ele>1566.00</ele>
   <time>2014-03-30T15:12:47Z</time>
  </trkpt>
  <trkpt lat="33.693681" lon="-4.247972">
   <ele>1567.00</ele>
   <time>2014-03-30T15:12:50Z</time>
  </trkpt>
  <trkpt lat="33.693939" lon="-4.247937">
   <ele>1568.00</ele>
   <time>2014-03-30T15:12:53Z</time>
  </trkpt>
  <trkpt lat="33.694137" lon="-4.247984">
   <ele>1568.00</ele>
   <time>2014-03-30T15:12:55Z</time>
  </trkpt>
  <trkpt lat="33.694339" lon="-4.247938">
   <ele>1568.00</ele>
   <time>2014-03-30T15:12:57Z</time>
  </trkpt>
  <trkpt lat="33.694506" lon="-4.247781">
   <ele>1569.00</ele>
   <time>2014-03-30T15:12:59Z</time>
  </trkpt>
  <trkpt lat="33.694680" lon="-4.247632">
   <ele>1570.00</ele>
   <time>2014-03-30T15:13:01Z</time>
  </trkpt>
  <trkpt lat="33.694883" lon="-4.247539">
   <ele>1571.00</ele>
   <time>2014-03-30T15:13:03Z</time>
  </trkpt>
  <trkpt lat="33.695076" lon="-4.247417">
   <ele>1573.00</ele>
   <time>2014-03-30T15:13:05Z</time>
  </trkpt>
  <trkpt lat="33.695235" lon="-4.247216">
   <ele>1574.00</ele>
   <time>2014-03-30T15:13:07Z</time>
  </trkpt>
  <trkpt lat="33.695385" lon="-4.246979">
   <ele>1576.00</ele>
   <time>2014-03-30T15:13:09Z</time>
  </trkpt>
  <trkpt lat="33.695512" lon="-4.246750">
   <ele>1577.00</ele>
   <time>2014-03-30T15:13:11Z</time>
  </trkpt>
  <trkpt lat="33.695555" lon="-4.246513">
   <ele>1578.00</ele>
   <time>2014-03-30T15:13:13Z</time>
  </trkpt>
  <trkpt lat="33.695527" lon="-4.246275">
   <ele>1580.00</ele>
   <time>2014-03-30T15:13:15Z</time>
  </trkpt>
  <trkpt lat="33.695560" lon="-4.246023">
   <ele>1581.00</ele>
   <time>2014-03-30T15:13:17Z</time>
  </trkpt>
  <trkpt lat="33.695644" lon="-4.245762">
   <ele>1583.00</ele>
   <time>2014-03-30T15:13:19Z</time>
  </trkpt>
  <trkpt lat="33.695730" lon="-4.245484">
   <ele>1584.00</ele>
   <time>2014-03-30T15:13:21Z</time>
  </trkpt>
  <trkpt lat="33.695854" lon="-4.245083">
   <ele>1586.00</ele>
   <time>2014-03-30T15:13:24Z</time>
  </trkpt>
  <trkpt lat="33.695906" lon="-4.244813">
   <ele>1588.00</ele>
   <time>2014-03-30T15:13:26Z</time>
  </trkpt>
  <trkpt lat="33.695960" lon="-4.244537">
   <ele>1590.00</ele>
   <time>2014-03-30T15:13:28Z</time>
  </trkpt>
  <trkpt lat="33.696034" lon="-4.244262">
   <ele>1591.00</ele>
   <time>2014-03-30T15:13:30Z</time>
  </trkpt>
  <trkpt lat="33.696146" lon="-4.243996">
   <ele>1593.00</ele>
   <time>2014-03-30T15:13:32Z</time>
  </trkpt>
  <trkpt lat="33.696302" lon="-4.243766">
   <ele>1595.00</ele>
   <time>2014-03-30T15:13:34Z</time>
  </trkpt>
  <trkpt lat="33.696483" lon="-4.243578">
   <ele>1596.00</ele>
   <time>2014-03-30T15:13:36Z</time>
  </trkpt>
  <trkpt lat="33.696636" lon="-4.243365">
   <ele>1597.00</ele>
   <time>2014-03-30T15:13:38Z</time>
  </trkpt>
  <trkpt lat="33.696785" lon="-4.243153">
   <ele>1598.00</ele>
   <time>2014-03-30T15:13:40Z</time>
  </trkpt>
  <trkpt lat="33.696989" lon="-4.243030">
   <ele>1600.00</ele>
   <time>2014-03-30T15:13:42Z</time>
  </trkpt>
  <trkpt lat="33.697235" lon="-4.242990">
   <ele>1600.00</ele>
   <time>2014-03-30T15:13:44Z</time>
  </trkpt>
  <trkpt lat="33.697476" lon="-4.242897">
   <ele>1601.00</ele>
   <time>2014-03-30T15:13:46Z</time>
  </trkpt>
  <trkpt lat="33.697948" lon="-4.242652">
   <ele>1603.00</ele>
   <time>2014-03-30T15:13:50Z</time>
  </trkpt>
  <trkpt lat="33.698221" lon="-4.242600">
   <ele>1603.00</ele>
   <time>2014-03-30T15:13:52Z</time>
  </trkpt>
  <trkpt lat="33.698519" lon="-4.242581">
   <ele>1604.00</ele>
   <time>2014-03-30T15:13:54Z</time>
  </trkpt>
  <trkpt lat="33.698827" lon="-4.242584">
   <ele>1605.00</ele>
   <time>2014-03-30T15:13:56Z</time>
  </trkpt>
  <trkpt lat="33.699135" lon="-4.242610">
   <ele>1606.00</ele>
   <time>2014-03-30T15:13:58Z</time>
  </trkpt>
  <trkpt lat="33.699445" lon="-4.242662">
   <ele>1606.00</ele>
   <time>2014-03-30T15:14:00Z</time>
  </trkpt>
  <trkpt lat="33.699746" lon="-4.242777">
   <ele>1608.00</ele>
   <time>2014-03-30T15:14:02Z</time>
  </trkpt>
  <trkpt lat="33.700502" lon="-4.243202">
   <ele>1611.00</ele>
   <time>2014-03-30T15:14:07Z</time>
  </trkpt>
  <trkpt lat="33.700769" lon="-4.243399">
   <ele>1612.00</ele>
   <time>2014-03-30T15:14:09Z</time>
  </trkpt>
  <trkpt lat="33.701021" lon="-4.243561">
   <ele>1613.00</ele>
   <time>2014-03-30T15:14:11Z</time>
  </trkpt>
  <trkpt lat="33.701300" lon="-4.243655">
   <ele>1614.00</ele>
   <time>2014-03-30T15:14:13Z</time>
  </trkpt>
  <trkpt lat="33.701581" lon="-4.243755">
   <ele>1616.00</ele>
   <time>2014-03-30T15:14:15Z</time>
  </trkpt>
  <trkpt lat="33.701828" lon="-4.243940">
   <ele>1617.00</ele>
   <time>2014-03-30T15:14:17Z</time>
  </trkpt>
  <trkpt lat="33.702044" lon="-4.244171">
   <ele>1618.00</ele>
   <time>2014-03-30T15:14:19Z</time>
  </trkpt>
  <trkpt lat="33.702205" lon="-4.244430">
   <ele>1619.00</ele>
   <time>2014-03-30T15:14:21Z</time>
  </trkpt>
  <trkpt lat="33.702324" lon="-4.244683">
   <ele>1619.00</ele>
   <time>2014-03-30T15:14:23Z</time>
  </trkpt>
  <trkpt lat="33.702487" lon="-4.244848">
   <ele>1620.00</ele>
   <time>2014-03-30T15:14:25Z</time>
  </trkpt>
  <trkpt lat="33.702713" lon="-4.244860">
   <ele>1620.00</ele>
   <time>2014-03-30T15:14:27Z</time>
  </trkpt>
  <trkpt lat="33.702946" lon="-4.244783">
   <ele>1621.00</ele>
   <time>2014-03-30T15:14:29Z</time>
  </trkpt>
  <trkpt lat="33.703146" lon="-4.244674">
   <ele>1621.00</ele>
   <time>2014-03-30T15:14:31Z</time>
  </trkpt>
  <trkpt lat="33.703397" lon="-4.244667">
   <ele>1622.00</ele>
   <time>2014-03-30T15:14:34Z</time>
  </trkpt>
  <trkpt lat="33.703557" lon="-4.244920">
   <ele>1624.00</ele>
   <time>2014-03-30T15:14:37Z</time>
  </trkpt>
  <trkpt lat="33.703779" lon="-4.245059">
   <ele>1625.00</ele>
   <time>2014-03-30T15:14:40Z</time>
  </trkpt>
  <trkpt lat="33.704034" lon="-4.245088">
   <ele>1626.00</ele>
   <time>2014-03-30T15:14:43Z</time>
  </trkpt>
  <trkpt lat="33.704173" lon="-4.245328">
   <ele>1628.00</ele>
   <time>2014-03-30T15:14:46Z</time>
  </trkpt>
  <trkpt lat="33.704230" lon="-4.245554">
   <ele>1628.00</ele>
   <time>2014-03-30T15:14:48Z</time>
  </trkpt>
  <trkpt lat="33.704330" lon="-4.245757">
   <ele>1629.00</ele>
   <time>2014-03-30T15:14:50Z</time>
  </trkpt>
  <trkpt lat="33.704471" lon="-4.245892">
   <ele>1629.00</ele>
   <time>2014-03-30T15:14:52Z</time>
  </trkpt>
  <trkpt lat="33.704655" lon="-4.245932">
   <ele>1629.00</ele>
   <time>2014-03-30T15:14:54Z</time>
  </trkpt>
  <trkpt lat="33.704860" lon="-4.245916">
   <ele>1629.00</ele>
   <time>2014-03-30T15:14:56Z</time>
  </trkpt>
  <trkpt lat="33.705139" lon="-4.245871">
   <ele>1629.00</ele>
   <time>2014-03-30T15:14:59Z</time>
  </trkpt>
  <trkpt lat="33.705348" lon="-4.245970">
   <ele>1629.00</ele>
   <time>2014-03-30T15:15:02Z</time>
  </trkpt>
  <trkpt lat="33.705306" lon="-4.246192">
   <ele>1629.00</ele>
   <time>2014-03-30T15:15:05Z</time>
  </trkpt>
  <trkpt lat="33.705142" lon="-4.246427">
   <ele>1630.00</ele>
   <time>2014-03-30T15:15:08Z</time>
  </trkpt>
  <trkpt lat="33.704975" lon="-4.246646">
   <ele>1630.00</ele>
   <time>2014-03-30T15:15:11Z</time>
  </trkpt>
  <trkpt lat="33.704859" lon="-4.246896">
   <ele>1629.00</ele>
   <time>2014-03-30T15:15:14Z</time>
  </trkpt>
  <trkpt lat="33.704969" lon="-4.247167">
   <ele>1629.00</ele>
   <time>2014-03-30T15:15:17Z</time>
  </trkpt>
  <trkpt lat="33.705183" lon="-4.247449">
   <ele>1629.00</ele>
   <time>2014-03-30T15:15:20Z</time>
  </trkpt>
  <trkpt lat="33.705269" lon="-4.247693">
   <ele>1628.00</ele>
   <time>2014-03-30T15:15:22Z</time>
  </trkpt>
  <trkpt lat="33.705357" lon="-4.247932">
   <ele>1628.00</ele>
   <time>2014-03-30T15:15:24Z</time>
  </trkpt>
  <trkpt lat="33.705527" lon="-4.248350">
   <ele>1628.00</ele>
   <time>2014-03-30T15:15:28Z</time>
  </trkpt>
  <trkpt lat="33.705575" lon="-4.248628">
   <ele>1628.00</ele>
   <time>2014-03-30T15:15:31Z</time>
  </trkpt>
  <trkpt lat="33.705408" lon="-4.248839">
   <ele>1628.00</ele>
   <time>2014-03-30T15:15:34Z</time>
  </trkpt>
  <trkpt lat="33.705213" lon="-4.248953">
   <ele>1627.00</ele>
   <time>2014-03-30T15:15:36Z</time>
  </trkpt>
  <trkpt lat="33.705011" lon="-4.249070">
   <ele>1626.00</ele>
   <time>2014-03-30T15:15:38Z</time>
  </trkpt>
  <trkpt lat="33.704823" lon="-4.249222">
   <ele>1625.00</ele>
   <time>2014-03-30T15:15:40Z</time>
  </trkpt>
  <trkpt lat="33.704673" lon="-4.249389">
   <ele>1624.00</ele>
   <time>2014-03-30T15:15:42Z</time>
  </trkpt>
  <trkpt lat="33.704608" lon="-4.249628">
   <ele>1623.00</ele>
   <time>2014-03-30T15:15:45Z</time>
  </trkpt>
  <trkpt lat="33.704793" lon="-4.249778">
   <ele>1621.00</ele>
   <time>2014-03-30T15:15:48Z</time>
  </trkpt>
  <trkpt lat="33.705008" lon="-4.249792">
   <ele>1622.00</ele>
   <time>2014-03-30T15:15:50Z</time>
  </trkpt>
  <trkpt lat="33.705567" lon="-4.249828">
   <ele>1623.00</ele>
   <time>2014-03-30T15:15:54Z</time>
  </trkpt>
  <trkpt lat="33.705858" lon="-4.249871">
   <ele>1624.00</ele>
   <time>2014-03-30T15:15:56Z</time>
  </trkpt>
  <trkpt lat="33.706145" lon="-4.249941">
   <ele>1624.00</ele>
   <time>2014-03-30T15:15:58Z</time>
  </trkpt>
  <trkpt lat="33.706533" lon="-4.250060">
   <ele>1626.00</ele>
   <time>2014-03-30T15:16:01Z</time>
  </trkpt>
  <trkpt lat="33.706788" lon="-4.250057">
   <ele>1628.00</ele>
   <time>2014-03-30T15:16:03Z</time>
  </trkpt>
  <trkpt lat="33.707014" lon="-4.249950">
   <ele>1629.00</ele>
   <time>2014-03-30T15:16:05Z</time>
  </trkpt>
  <trkpt lat="33.707196" lon="-4.249828">
   <ele>1632.00</ele>
   <time>2014-03-30T15:16:07Z</time>
  </trkpt>
  <trkpt lat="33.707390" lon="-4.249792">
   <ele>1632.00</ele>
   <time>2014-03-30T15:16:09Z</time>
  </trkpt>
  <trkpt lat="33.707580" lon="-4.249883">
   <ele>1633.00</ele>
   <time>2014-03-30T15:16:11Z</time>
  </trkpt>
  <trkpt lat="33.707795" lon="-4.249973">
   <ele>1633.00</ele>
   <time>2014-03-30T15:16:13Z</time>
  </trkpt>
  <trkpt lat="33.708035" lon="-4.249993">
   <ele>1634.00</ele>
   <time>2014-03-30T15:16:15Z</time>
  </trkpt>
  <trkpt lat="33.708287" lon="-4.249953">
   <ele>1634.00</ele>
   <time>2014-03-30T15:16:17Z</time>
  </trkpt>
  <trkpt lat="33.708547" lon="-4.249890">
   <ele>1635.00</ele>
   <time>2014-03-30T15:16:19Z</time>
  </trkpt>
  <trkpt lat="33.708819" lon="-4.249879">
   <ele>1636.00</ele>
   <time>2014-03-30T15:16:21Z</time>
  </trkpt>
  <trkpt lat="33.709091" lon="-4.249927">
   <ele>1637.00</ele>
   <time>2014-03-30T15:16:23Z</time>
  </trkpt>
  <trkpt lat="33.709354" lon="-4.250021">
   <ele>1638.00</ele>
   <time>2014-03-30T15:16:25Z</time>
  </trkpt>
  <trkpt lat="33.709593" lon="-4.250145">
   <ele>1639.00</ele>
   <time>2014-03-30T15:16:27Z</time>
  </trkpt>
  <trkpt lat="33.709800" lon="-4.250286">
   <ele>1641.00</ele>
   <time>2014-03-30T15:16:29Z</time>
  </trkpt>
  <trkpt lat="33.709971" lon="-4.250447">
   <ele>1642.00</ele>
   <time>2014-03-30T15:16:31Z</time>
  </trkpt>
  <trkpt lat="33.710081" lon="-4.250632">
   <ele>1643.00</ele>
   <time>2014-03-30T15:16:33Z</time>
  </trkpt>
  <trkpt lat="33.709969" lon="-4.250904">
   <ele>1643.00</ele>
   <time>2014-03-30T15:16:36Z</time>
  </trkpt>
  <trkpt lat="33.709797" lon="-4.251008">
   <ele>1643.00</ele>
   <time>2014-03-30T15:16:38Z</time>
  </trkpt>
  <trkpt lat="33.709304" lon="-4.251299">
   <ele>1645.00</ele>
   <time>2014-03-30T15:16:43Z</time>
  </trkpt>
  <trkpt lat="33.709141" lon="-4.251461">
   <ele>1645.00</ele>
   <time>2014-03-30T15:16:45Z</time>
  </trkpt>
  <trkpt lat="33.709016" lon="-4.251654">
   <ele>1646.00</ele>
   <time>2014-03-30T15:16:47Z</time>
  </trkpt>
  <trkpt lat="33.708907" lon="-4.251834">
   <ele>1646.00</ele>
   <time>2014-03-30T15:16:49Z</time>
  </trkpt>
  <trkpt lat="33.708923" lon="-4.252111">
   <ele>1646.00</ele>
   <time>2014-03-30T15:16:52Z</time>
  </trkpt>
  <trkpt lat="33.709150" lon="-4.252285">
   <ele>1647.00</ele>
   <time>2014-03-30T15:16:55Z</time>
  </trkpt>
  <trkpt lat="33.709359" lon="-4.252377">
   <ele>1647.00</ele>
   <time>2014-03-30T15:16:57Z</time>
  </trkpt>
  <trkpt lat="33.709596" lon="-4.252475">
   <ele>1649.00</ele>
   <time>2014-03-30T15:16:59Z</time>
  </trkpt>
  <trkpt lat="33.709925" lon="-4.252654">
   <ele>1650.00</ele>
   <time>2014-03-30T15:17:02Z</time>
  </trkpt>
  <trkpt lat="33.710087" lon="-4.252835">
   <ele>1651.00</ele>
   <time>2014-03-30T15:17:04Z</time>
  </trkpt>
  <trkpt lat="33.710175" lon="-4.253090">
   <ele>1652.00</ele>
   <time>2014-03-30T15:17:06Z</time>
  </trkpt>
  <trkpt lat="33.710228" lon="-4.253353">
   <ele>1652.00</ele>
   <time>2014-03-30T15:17:08Z</time>
  </trkpt>
  <trkpt lat="33.710298" lon="-4.253740">
   <ele>1651.00</ele>
   <time>2014-03-30T15:17:11Z</time>
  </trkpt>
  <trkpt lat="33.710385" lon="-4.253991">
   <ele>1651.00</ele>
   <time>2014-03-30T15:17:13Z</time>
  </trkpt>
  <trkpt lat="33.710527" lon="-4.254214">
   <ele>1651.00</ele>
   <time>2014-03-30T15:17:15Z</time>
  </trkpt>
  <trkpt lat="33.710701" lon="-4.254386">
   <ele>1651.00</ele>
   <time>2014-03-30T15:17:17Z</time>
  </trkpt>
  <trkpt lat="33.710877" lon="-4.254435">
   <ele>1651.00</ele>
   <time>2014-03-30T15:17:19Z</time>
  </trkpt>
  <trkpt lat="33.711047" lon="-4.254330">
   <ele>1650.00</ele>
   <time>2014-03-30T15:17:21Z</time>
  </trkpt>
  <trkpt lat="33.711141" lon="-4.254129">
   <ele>1649.00</ele>
   <time>2014-03-30T15:17:23Z</time>
  </trkpt>
  <trkpt lat="33.711215" lon="-4.253881">
   <ele>1647.00</ele>
   <time>2014-03-30T15:17:25Z</time>
  </trkpt>
  <trkpt lat="33.711271" lon="-4.253656">
   <ele>1647.00</ele>
   <time>2014-03-30T15:17:27Z</time>
  </trkpt>
  <trkpt lat="33.711375" lon="-4.253458">
   <ele>1646.00</ele>
   <time>2014-03-30T15:17:29Z</time>
  </trkpt>
  <trkpt lat="33.711535" lon="-4.253299">
   <ele>1645.00</ele>
   <time>2014-03-30T15:17:31Z</time>
  </trkpt>
  <trkpt lat="33.711695" lon="-4.253139">
   <ele>1645.00</ele>
   <time>2014-03-30T15:17:33Z</time>
  </trkpt>
  <trkpt lat="33.711824" lon="-4.252945">
   <ele>1644.00</ele>
   <time>2014-03-30T15:17:35Z</time>
  </trkpt>
  <trkpt lat="33.711941" lon="-4.252761">
   <ele>1644.00</ele>
   <time>2014-03-30T15:17:37Z</time>
  </trkpt>
  <trkpt lat="33.712091" lon="-4.252617">
   <ele>1645.00</ele>
   <time>2014-03-30T15:17:39Z</time>
  </trkpt>
  <trkpt lat="33.712286" lon="-4.252508">
   <ele>1645.00</ele>
   <time>2014-03-30T15:17:41Z</time>
  </trkpt>
  <trkpt lat="33.712513" lon="-4.252475">
   <ele>1644.00</ele>
   <time>2014-03-30T15:17:43Z</time>
  </trkpt>
  <trkpt lat="33.712886" lon="-4.252489">
   <ele>1644.00</ele>
   <time>2014-03-30T15:17:46Z</time>
  </trkpt>
  <trkpt lat="33.713142" lon="-4.252509">
   <ele>1643.00</ele>
   <time>2014-03-30T15:17:48Z</time>
  </trkpt>
  <trkpt lat="33.713401" lon="-4.252568">
   <ele>1641.00</ele>
   <time>2014-03-30T15:17:50Z</time>
  </trkpt>
  <trkpt lat="33.713663" lon="-4.252647">
   <ele>1640.00</ele>
   <time>2014-03-30T15:17:52Z</time>
  </trkpt>
  <trkpt lat="33.713921" lon="-4.252745">
   <ele>1639.00</ele>
   <time>2014-03-30T15:17:54Z</time>
  </trkpt>
  <trkpt lat="33.714176" lon="-4.252839">
   <ele>1637.00</ele>
   <time>2014-03-30T15:17:56Z</time>
  </trkpt>
  <trkpt lat="33.714435" lon="-4.252865">
   <ele>1635.00</ele>
   <time>2014-03-30T15:17:58Z</time>
  </trkpt>
  <trkpt lat="33.714697" lon="-4.252862">
   <ele>1634.00</ele>
   <time>2014-03-30T15:18:00Z</time>
  </trkpt>
  <trkpt lat="33.714956" lon="-4.252923">
   <ele>1633.00</ele>
   <time>2014-03-30T15:18:02Z</time>
  </trkpt>
  <trkpt lat="33.715203" lon="-4.253025">
   <ele>1631.00</ele>
   <time>2014-03-30T15:18:04Z</time>
  </trkpt>
  <trkpt lat="33.715448" lon="-4.253133">
   <ele>1630.00</ele>
   <time>2014-03-30T15:18:06Z</time>
  </trkpt>
  <trkpt lat="33.715704" lon="-4.253208">
   <ele>1628.00</ele>
   <time>2014-03-30T15:18:08Z</time>
  </trkpt>
  <trkpt lat="33.715963" lon="-4.253283">
   <ele>1627.00</ele>
   <time>2014-03-30T15:18:10Z</time>
  </trkpt>
  <trkpt lat="33.716464" lon="-4.253455">
   <ele>1625.00</ele>
   <time>2014-03-30T15:18:14Z</time>
  </trkpt>
  <trkpt lat="33.716705" lon="-4.253542">
   <ele>1623.00</ele>
   <time>2014-03-30T15:18:16Z</time>
  </trkpt>
  <trkpt lat="33.716953" lon="-4.253585">
   <ele>1622.00</ele>
   <time>2014-03-30T15:18:18Z</time>
  </trkpt>
  <trkpt lat="33.717325" lon="-4.253618">
   <ele>1618.00</ele>
   <time>2014-03-30T15:18:21Z</time>
  </trkpt>
  <trkpt lat="33.717547" lon="-4.253575">
   <ele>1616.00</ele>
   <time>2014-03-30T15:18:23Z</time>
  </trkpt>
  <trkpt lat="33.717750" lon="-4.253415">
   <ele>1612.00</ele>
   <time>2014-03-30T15:18:25Z</time>
  </trkpt>
  <trkpt lat="33.717936" lon="-4.253204">
   <ele>1610.00</ele>
   <time>2014-03-30T15:18:27Z</time>
  </trkpt>
  <trkpt lat="33.718111" lon="-4.252948">
   <ele>1607.00</ele>
   <time>2014-03-30T15:18:29Z</time>
  </trkpt>
  <trkpt lat="33.718265" lon="-4.252666">
   <ele>1604.00</ele>
   <time>2014-03-30T15:18:31Z</time>
  </trkpt>
  <trkpt lat="33.718497" lon="-4.252241">
   <ele>1601.00</ele>
   <time>2014-03-30T15:18:34Z</time>
  </trkpt>
  <trkpt lat="33.718654" lon="-4.251965">
   <ele>1598.00</ele>
   <time>2014-03-30T15:18:36Z</time>
  </trkpt>
  <trkpt lat="33.718864" lon="-4.251575">
   <ele>1595.00</ele>
   <time>2014-03-30T15:18:39Z</time>
  </trkpt>
  <trkpt lat="33.719011" lon="-4.251357">
   <ele>1594.00</ele>
   <time>2014-03-30T15:18:41Z</time>
  </trkpt>
  <trkpt lat="33.719155" lon="-4.251205">
   <ele>1593.00</ele>
   <time>2014-03-30T15:18:43Z</time>
  </trkpt>
  <trkpt lat="33.719347" lon="-4.251177">
   <ele>1592.00</ele>
   <time>2014-03-30T15:18:45Z</time>
  </trkpt>
  <trkpt lat="33.719555" lon="-4.251226">
   <ele>1591.00</ele>
   <time>2014-03-30T15:18:47Z</time>
  </trkpt>
  <trkpt lat="33.719756" lon="-4.251316">
   <ele>1589.00</ele>
   <time>2014-03-30T15:18:49Z</time>
  </trkpt>
  <trkpt lat="33.719956" lon="-4.251413">
   <ele>1588.00</ele>
   <time>2014-03-30T15:18:51Z</time>
  </trkpt>
  <trkpt lat="33.720148" lon="-4.251454">
   <ele>1587.00</ele>
   <time>2014-03-30T15:18:53Z</time>
  </trkpt>
  <trkpt lat="33.720321" lon="-4.251339">
   <ele>1586.00</ele>
   <time>2014-03-30T15:18:55Z</time>
  </trkpt>
  <trkpt lat="33.720425" lon="-4.251145">
   <ele>1584.00</ele>
   <time>2014-03-30T15:18:57Z</time>
  </trkpt>
  <trkpt lat="33.720436" lon="-4.250884">
   <ele>1583.00</ele>
   <time>2014-03-30T15:18:59Z</time>
  </trkpt>
  <trkpt lat="33.720369" lon="-4.250625">
   <ele>1582.00</ele>
   <time>2014-03-30T15:19:01Z</time>
  </trkpt>
  <trkpt lat="33.720136" lon="-4.249949">
   <ele>1581.00</ele>
   <time>2014-03-30T15:19:07Z</time>
  </trkpt>
  <trkpt lat="33.720196" lon="-4.249711">
   <ele>1581.00</ele>
   <time>2014-03-30T15:19:10Z</time>
  </trkpt>
  <trkpt lat="33.720368" lon="-4.249675">
   <ele>1580.00</ele>
   <time>2014-03-30T15:19:12Z</time>
  </trkpt>
  <trkpt lat="33.720572" lon="-4.249716">
   <ele>1579.00</ele>
   <time>2014-03-30T15:19:14Z</time>
  </trkpt>
  <trkpt lat="33.720809" lon="-4.249763">
   <ele>1577.00</ele>
   <time>2014-03-30T15:19:16Z</time>
  </trkpt>
  <trkpt lat="33.721028" lon="-4.249848">
   <ele>1575.00</ele>
   <time>2014-03-30T15:19:18Z</time>
  </trkpt>
  <trkpt lat="33.721169" lon="-4.250039">
   <ele>1573.00</ele>
   <time>2014-03-30T15:19:20Z</time>
  </trkpt>
  <trkpt lat="33.721189" lon="-4.250283">
   <ele>1571.00</ele>
   <time>2014-03-30T15:19:22Z</time>
  </trkpt>
  <trkpt lat="33.721245" lon="-4.250536">
   <ele>1570.00</ele>
   <time>2014-03-30T15:19:25Z</time>
  </trkpt>
  <trkpt lat="33.721414" lon="-4.250544">
   <ele>1569.00</ele>
   <time>2014-03-30T15:19:28Z</time>
  </trkpt>
  <trkpt lat="33.721527" lon="-4.250372">
   <ele>1568.00</ele>
   <time>2014-03-30T15:19:30Z</time>
  </trkpt>
  <trkpt lat="33.721667" lon="-4.250215">
   <ele>1567.00</ele>
   <time>2014-03-30T15:19:32Z</time>
  </trkpt>
  <trkpt lat="33.721851" lon="-4.250111">
   <ele>1566.00</ele>
   <time>2014-03-30T15:19:34Z</time>
  </trkpt>
  <trkpt lat="33.722052" lon="-4.250084">
   <ele>1565.00</ele>
   <time>2014-03-30T15:19:36Z</time>
  </trkpt>
  <trkpt lat="33.722227" lon="-4.250193">
   <ele>1564.00</ele>
   <time>2014-03-30T15:19:38Z</time>
  </trkpt>
  <trkpt lat="33.722371" lon="-4.250355">
   <ele>1563.00</ele>
   <time>2014-03-30T15:19:40Z</time>
  </trkpt>
  <trkpt lat="33.722581" lon="-4.250515">
   <ele>1562.00</ele>
   <time>2014-03-30T15:19:43Z</time>
  </trkpt>
  <trkpt lat="33.722761" lon="-4.250357">
   <ele>1561.00</ele>
   <time>2014-03-30T15:19:46Z</time>
  </trkpt>
  <trkpt lat="33.722944" lon="-4.249990">
   <ele>1559.00</ele>
   <time>2014-03-30T15:19:50Z</time>
  </trkpt>
  <trkpt lat="33.723165" lon="-4.249822">
   <ele>1558.00</ele>
   <time>2014-03-30T15:19:53Z</time>
  </trkpt>
  <trkpt lat="33.723402" lon="-4.249873">
   <ele>1558.00</ele>
   <time>2014-03-30T15:19:56Z</time>
  </trkpt>
  <trkpt lat="33.723688" lon="-4.250133">
   <ele>1556.00</ele>
   <time>2014-03-30T15:20:00Z</time>
  </trkpt>
  <trkpt lat="33.723817" lon="-4.250296">
   <ele>1555.00</ele>
   <time>2014-03-30T15:20:02Z</time>
  </trkpt>
  <trkpt lat="33.723884" lon="-4.250516">
   <ele>1553.00</ele>
   <time>2014-03-30T15:20:04Z</time>
  </trkpt>
  <trkpt lat="33.723946" lon="-4.250737">
   <ele>1552.00</ele>
   <time>2014-03-30T15:20:06Z</time>
  </trkpt>
  <trkpt lat="33.724046" lon="-4.250933">
   <ele>1551.00</ele>
   <time>2014-03-30T15:20:08Z</time>
  </trkpt>
  <trkpt lat="33.724200" lon="-4.251051">
   <ele>1550.00</ele>
   <time>2014-03-30T15:20:10Z</time>
  </trkpt>
  <trkpt lat="33.724402" lon="-4.251056">
   <ele>1549.00</ele>
   <time>2014-03-30T15:20:12Z</time>
  </trkpt>
  <trkpt lat="33.725025" lon="-4.250993">
   <ele>1546.00</ele>
   <time>2014-03-30T15:20:18Z</time>
  </trkpt>
  <trkpt lat="33.725198" lon="-4.251051">
   <ele>1545.00</ele>
   <time>2014-03-30T15:20:20Z</time>
  </trkpt>
  <trkpt lat="33.725334" lon="-4.251204">
   <ele>1543.00</ele>
   <time>2014-03-30T15:20:22Z</time>
  </trkpt>
  <trkpt lat="33.725454" lon="-4.251382">
   <ele>1542.00</ele>
   <time>2014-03-30T15:20:24Z</time>
  </trkpt>
  <trkpt lat="33.725542" lon="-4.251639">
   <ele>1540.00</ele>
   <time>2014-03-30T15:20:27Z</time>
  </trkpt>
  <trkpt lat="33.725373" lon="-4.251817">
   <ele>1537.00</ele>
   <time>2014-03-30T15:20:30Z</time>
  </trkpt>
  <trkpt lat="33.725181" lon="-4.251848">
   <ele>1535.00</ele>
   <time>2014-03-30T15:20:32Z</time>
  </trkpt>
  <trkpt lat="33.725000" lon="-4.251913">
   <ele>1534.00</ele>
   <time>2014-03-30T15:20:34Z</time>
  </trkpt>
  <trkpt lat="33.724846" lon="-4.252060">
   <ele>1533.00</ele>
   <time>2014-03-30T15:20:36Z</time>
  </trkpt>
  <trkpt lat="33.724677" lon="-4.252212">
   <ele>1532.00</ele>
   <time>2014-03-30T15:20:38Z</time>
  </trkpt>
  <trkpt lat="33.724478" lon="-4.252331">
   <ele>1529.00</ele>
   <time>2014-03-30T15:20:40Z</time>
  </trkpt>
  <trkpt lat="33.724277" lon="-4.252460">
   <ele>1526.00</ele>
   <time>2014-03-30T15:20:42Z</time>
  </trkpt>
  <trkpt lat="33.724102" lon="-4.252615">
   <ele>1524.00</ele>
   <time>2014-03-30T15:20:44Z</time>
  </trkpt>
  <trkpt lat="33.723942" lon="-4.252718">
   <ele>1522.00</ele>
   <time>2014-03-30T15:20:46Z</time>
  </trkpt>
  <trkpt lat="33.723756" lon="-4.252705">
   <ele>1520.00</ele>
   <time>2014-03-30T15:20:48Z</time>
  </trkpt>
  <trkpt lat="33.723503" lon="-4.252713">
   <ele>1518.00</ele>
   <time>2014-03-30T15:20:51Z</time>
  </trkpt>
  <trkpt lat="33.723385" lon="-4.252967">
   <ele>1515.00</ele>
   <time>2014-03-30T15:20:54Z</time>
  </trkpt>
  <trkpt lat="33.723383" lon="-4.253210">
   <ele>1514.00</ele>
   <time>2014-03-30T15:20:56Z</time>
  </trkpt>
  <trkpt lat="33.723373" lon="-4.253464">
   <ele>1512.00</ele>
   <time>2014-03-30T15:20:58Z</time>
  </trkpt>
  <trkpt lat="33.723329" lon="-4.253686">
   <ele>1511.00</ele>
   <time>2014-03-30T15:21:00Z</time>
  </trkpt>
  <trkpt lat="33.723160" lon="-4.253941">
   <ele>1509.00</ele>
   <time>2014-03-30T15:21:03Z</time>
  </trkpt>
  <trkpt lat="33.723017" lon="-4.254107">
   <ele>1507.00</ele>
   <time>2014-03-30T15:21:05Z</time>
  </trkpt>
  <trkpt lat="33.722856" lon="-4.254234">
   <ele>1506.00</ele>
   <time>2014-03-30T15:21:07Z</time>
  </trkpt>
  <trkpt lat="33.722668" lon="-4.254273">
   <ele>1505.00</ele>
   <time>2014-03-30T15:21:09Z</time>
  </trkpt>
  <trkpt lat="33.722392" lon="-4.254275">
   <ele>1502.00</ele>
   <time>2014-03-30T15:21:12Z</time>
  </trkpt>
  <trkpt lat="33.722192" lon="-4.254398">
   <ele>1500.00</ele>
   <time>2014-03-30T15:21:15Z</time>
  </trkpt>
  <trkpt lat="33.722229" lon="-4.254723">
   <ele>1498.00</ele>
   <time>2014-03-30T15:21:18Z</time>
  </trkpt>
  <trkpt lat="33.722350" lon="-4.255203">
   <ele>1496.00</ele>
   <time>2014-03-30T15:21:22Z</time>
  </trkpt>
  <trkpt lat="33.722418" lon="-4.255428">
   <ele>1495.00</ele>
   <time>2014-03-30T15:21:24Z</time>
  </trkpt>
  <trkpt lat="33.722499" lon="-4.255704">
   <ele>1493.00</ele>
   <time>2014-03-30T15:21:27Z</time>
  </trkpt>
  <trkpt lat="33.722372" lon="-4.255889">
   <ele>1491.00</ele>
   <time>2014-03-30T15:21:30Z</time>
  </trkpt>
  <trkpt lat="33.722194" lon="-4.255942">
   <ele>1489.00</ele>
   <time>2014-03-30T15:21:32Z</time>
  </trkpt>
  <trkpt lat="33.721894" lon="-4.256018">
   <ele>1487.00</ele>
   <time>2014-03-30T15:21:35Z</time>
  </trkpt>
  <trkpt lat="33.721687" lon="-4.256049">
   <ele>1486.00</ele>
   <time>2014-03-30T15:21:37Z</time>
  </trkpt>
  <trkpt lat="33.721495" lon="-4.256072">
   <ele>1484.00</ele>
   <time>2014-03-30T15:21:39Z</time>
  </trkpt>
  <trkpt lat="33.721323" lon="-4.256306">
   <ele>1482.00</ele>
   <time>2014-03-30T15:21:42Z</time>
  </trkpt>
  <trkpt lat="33.721345" lon="-4.256530">
   <ele>1481.00</ele>
   <time>2014-03-30T15:21:44Z</time>
  </trkpt>
  <trkpt lat="33.721438" lon="-4.256883">
   <ele>1478.00</ele>
   <time>2014-03-30T15:21:47Z</time>
  </trkpt>
  <trkpt lat="33.721503" lon="-4.257137">
   <ele>1475.00</ele>
   <time>2014-03-30T15:21:49Z</time>
  </trkpt>
  <trkpt lat="33.721602" lon="-4.257387">
   <ele>1474.00</ele>
   <time>2014-03-30T15:21:51Z</time>
  </trkpt>
  <trkpt lat="33.721677" lon="-4.257652">
   <ele>1472.00</ele>
   <time>2014-03-30T15:21:53Z</time>
  </trkpt>
  <trkpt lat="33.721680" lon="-4.257933">
   <ele>1470.00</ele>
   <time>2014-03-30T15:21:55Z</time>
  </trkpt>
  <trkpt lat="33.721625" lon="-4.258216">
   <ele>1468.00</ele>
   <time>2014-03-30T15:21:57Z</time>
  </trkpt>
  <trkpt lat="33.721429" lon="-4.259057">
   <ele>1463.00</ele>
   <time>2014-03-30T15:22:03Z</time>
  </trkpt>
  <trkpt lat="33.721355" lon="-4.259279">
   <ele>1462.00</ele>
   <time>2014-03-30T15:22:05Z</time>
  </trkpt>
  <trkpt lat="33.721256" lon="-4.259483">
   <ele>1461.00</ele>
   <time>2014-03-30T15:22:08Z</time>
  </trkpt>
  <trkpt lat="33.721212" lon="-4.259680">
   <ele>1459.00</ele>
   <time>2014-03-30T15:22:17Z</time>
  </trkpt>
  <trkpt lat="33.721214" lon="-4.259660">
   <ele>1460.00</ele>
   <time>2014-03-30T15:22:32Z</time>
  </trkpt>
  <trkpt lat="33.721220" lon="-4.259652">
   <ele>1461.00</ele>
   <time>2014-03-30T15:22:47Z</time>
  </trkpt>
  <trkpt lat="33.721224" lon="-4.259649">
   <ele>1462.00</ele>
   <time>2014-03-30T15:23:03Z</time>
  </trkpt>
  <trkpt lat="33.721226" lon="-4.259647">
   <ele>1463.00</ele>
   <time>2014-03-30T15:23:18Z</time>
  </trkpt>
  <trkpt lat="33.721228" lon="-4.259646">
   <ele>1463.00</ele>
   <time>2014-03-30T15:23:33Z</time>
  </trkpt>
  <trkpt lat="33.721252" lon="-4.259902">
   <ele>1462.00</ele>
   <time>2014-03-30T15:23:41Z</time>
  </trkpt>
  <trkpt lat="33.721271" lon="-4.260150">
   <ele>1460.00</ele>
   <time>2014-03-30T15:23:44Z</time>
  </trkpt>
  <trkpt lat="33.721275" lon="-4.260441">
   <ele>1459.00</ele>
   <time>2014-03-30T15:23:47Z</time>
  </trkpt>
  <trkpt lat="33.721308" lon="-4.260744">
   <ele>1457.00</ele>
   <time>2014-03-30T15:23:50Z</time>
  </trkpt>
  <trkpt lat="33.721361" lon="-4.261009">
   <ele>1456.00</ele>
   <time>2014-03-30T15:23:53Z</time>
  </trkpt>
  <trkpt lat="33.721245" lon="-4.261224">
   <ele>1453.00</ele>
   <time>2014-03-30T15:23:56Z</time>
  </trkpt>
  <trkpt lat="33.721070" lon="-4.261440">
   <ele>1451.00</ele>
   <time>2014-03-30T15:23:59Z</time>
  </trkpt>
  <trkpt lat="33.720982" lon="-4.261638">
   <ele>1449.00</ele>
   <time>2014-03-30T15:24:01Z</time>
  </trkpt>
  <trkpt lat="33.720935" lon="-4.261874">
   <ele>1448.00</ele>
   <time>2014-03-30T15:24:03Z</time>
  </trkpt>
  <trkpt lat="33.720932" lon="-4.262135">
   <ele>1446.00</ele>
   <time>2014-03-30T15:24:05Z</time>
  </trkpt>
  <trkpt lat="33.720960" lon="-4.262556">
   <ele>1443.00</ele>
   <time>2014-03-30T15:24:08Z</time>
  </trkpt>
  <trkpt lat="33.720921" lon="-4.262842">
   <ele>1440.00</ele>
   <time>2014-03-30T15:24:10Z</time>
  </trkpt>
  <trkpt lat="33.720800" lon="-4.263103">
   <ele>1439.00</ele>
   <time>2014-03-30T15:24:12Z</time>
  </trkpt>
  <trkpt lat="33.720661" lon="-4.263363">
   <ele>1437.00</ele>
   <time>2014-03-30T15:24:14Z</time>
  </trkpt>
  <trkpt lat="33.720256" lon="-4.264177">
   <ele>1432.00</ele>
   <time>2014-03-30T15:24:20Z</time>
  </trkpt>
  <trkpt lat="33.720189" lon="-4.264426">
   <ele>1431.00</ele>
   <time>2014-03-30T15:24:22Z</time>
  </trkpt>
  <trkpt lat="33.720197" lon="-4.264690">
   <ele>1430.00</ele>
   <time>2014-03-30T15:24:24Z</time>
  </trkpt>
  <trkpt lat="33.720243" lon="-4.265089">
   <ele>1428.00</ele>
   <time>2014-03-30T15:24:27Z</time>
  </trkpt>
  <trkpt lat="33.720227" lon="-4.265352">
   <ele>1427.00</ele>
   <time>2014-03-30T15:24:29Z</time>
  </trkpt>
  <trkpt lat="33.720155" lon="-4.265601">
   <ele>1426.00</ele>
   <time>2014-03-30T15:24:31Z</time>
  </trkpt>
  <trkpt lat="33.719960" lon="-4.266079">
   <ele>1423.00</ele>
   <time>2014-03-30T15:24:35Z</time>
  </trkpt>
  <trkpt lat="33.719878" lon="-4.266306">
   <ele>1421.00</ele>
   <time>2014-03-30T15:24:37Z</time>
  </trkpt>
  <trkpt lat="33.719789" lon="-4.266500">
   <ele>1420.00</ele>
   <time>2014-03-30T15:24:39Z</time>
  </trkpt>
  <trkpt lat="33.719603" lon="-4.266834">
   <ele>1418.00</ele>
   <time>2014-03-30T15:24:43Z</time>
  </trkpt>
  <trkpt lat="33.719512" lon="-4.267102">
   <ele>1416.00</ele>
   <time>2014-03-30T15:24:46Z</time>
  </trkpt>
  <trkpt lat="33.719411" lon="-4.267520">
   <ele>1413.00</ele>
   <time>2014-03-30T15:24:51Z</time>
  </trkpt>
  <trkpt lat="33.719491" lon="-4.267719">
   <ele>1411.00</ele>
   <time>2014-03-30T15:24:55Z</time>
  </trkpt>
  <trkpt lat="33.719731" lon="-4.267713">
   <ele>1410.00</ele>
   <time>2014-03-30T15:24:59Z</time>
  </trkpt>
  <trkpt lat="33.719931" lon="-4.267661">
   <ele>1409.00</ele>
   <time>2014-03-30T15:25:02Z</time>
  </trkpt>
  <trkpt lat="33.720138" lon="-4.267583">
   <ele>1409.00</ele>
   <time>2014-03-30T15:25:05Z</time>
  </trkpt>
  <trkpt lat="33.720340" lon="-4.267463">
   <ele>1409.00</ele>
   <time>2014-03-30T15:25:08Z</time>
  </trkpt>
  <trkpt lat="33.720514" lon="-4.267287">
   <ele>1408.00</ele>
   <time>2014-03-30T15:25:11Z</time>
  </trkpt>
  <trkpt lat="33.720637" lon="-4.267056">
   <ele>1408.00</ele>
   <time>2014-03-30T15:25:14Z</time>
  </trkpt>
  <trkpt lat="33.720797" lon="-4.266824">
   <ele>1408.00</ele>
   <time>2014-03-30T15:25:17Z</time>
  </trkpt>
  <trkpt lat="33.720994" lon="-4.266608">
   <ele>1407.00</ele>
   <time>2014-03-30T15:25:20Z</time>
  </trkpt>
  <trkpt lat="33.721229" lon="-4.266469">
   <ele>1406.00</ele>
   <time>2014-03-30T15:25:23Z</time>
  </trkpt>
  <trkpt lat="33.721496" lon="-4.266465">
   <ele>1404.00</ele>
   <time>2014-03-30T15:25:26Z</time>
  </trkpt>
  <trkpt lat="33.721738" lon="-4.266374">
   <ele>1403.00</ele>
   <time>2014-03-30T15:25:29Z</time>
  </trkpt>
  <trkpt lat="33.721819" lon="-4.266086">
   <ele>1402.00</ele>
   <time>2014-03-30T15:25:32Z</time>
  </trkpt>
  <trkpt lat="33.721880" lon="-4.265834">
   <ele>1401.00</ele>
   <time>2014-03-30T15:25:35Z</time>
  </trkpt>
  <trkpt lat="33.722105" lon="-4.265748">
   <ele>1400.00</ele>
   <time>2014-03-30T15:25:38Z</time>
  </trkpt>
  <trkpt lat="33.722378" lon="-4.265680">
   <ele>1397.00</ele>
   <time>2014-03-30T15:25:41Z</time>
  </trkpt>
  <trkpt lat="33.722553" lon="-4.265597">
   <ele>1396.00</ele>
   <time>2014-03-30T15:25:43Z</time>
  </trkpt>
  <trkpt lat="33.722738" lon="-4.265381">
   <ele>1393.00</ele>
   <time>2014-03-30T15:25:46Z</time>
  </trkpt>
  <trkpt lat="33.722943" lon="-4.265288">
   <ele>1391.00</ele>
   <time>2014-03-30T15:25:49Z</time>
  </trkpt>
  <trkpt lat="33.723071" lon="-4.265442">
   <ele>1389.00</ele>
   <time>2014-03-30T15:25:51Z</time>
  </trkpt>
  <trkpt lat="33.723138" lon="-4.265643">
   <ele>1388.00</ele>
   <time>2014-03-30T15:25:53Z</time>
  </trkpt>
  <trkpt lat="33.723227" lon="-4.265840">
   <ele>1387.00</ele>
   <time>2014-03-30T15:25:55Z</time>
  </trkpt>
  <trkpt lat="33.723378" lon="-4.265967">
   <ele>1385.00</ele>
   <time>2014-03-30T15:25:57Z</time>
  </trkpt>
  <trkpt lat="33.723565" lon="-4.266002">
   <ele>1384.00</ele>
   <time>2014-03-30T15:25:59Z</time>
  </trkpt>
  <trkpt lat="33.723760" lon="-4.266007">
   <ele>1383.00</ele>
   <time>2014-03-30T15:26:01Z</time>
  </trkpt>
  <trkpt lat="33.724263" lon="-4.266009">
   <ele>1379.00</ele>
   <time>2014-03-30T15:26:06Z</time>
  </trkpt>
  <trkpt lat="33.724476" lon="-4.265992">
   <ele>1378.00</ele>
   <time>2014-03-30T15:26:08Z</time>
  </trkpt>
  <trkpt lat="33.725031" lon="-4.265916">
   <ele>1374.00</ele>
   <time>2014-03-30T15:26:13Z</time>
  </trkpt>
  <trkpt lat="33.725261" lon="-4.265941">
   <ele>1372.00</ele>
   <time>2014-03-30T15:26:15Z</time>
  </trkpt>
  <trkpt lat="33.725570" lon="-4.266016">
   <ele>1369.00</ele>
   <time>2014-03-30T15:26:18Z</time>
  </trkpt>
  <trkpt lat="33.725762" lon="-4.266179">
   <ele>1367.00</ele>
   <time>2014-03-30T15:26:21Z</time>
  </trkpt>
  <trkpt lat="33.725706" lon="-4.266456">
   <ele>1365.00</ele>
   <time>2014-03-30T15:26:24Z</time>
  </trkpt>
  <trkpt lat="33.725486" lon="-4.266637">
   <ele>1364.00</ele>
   <time>2014-03-30T15:26:27Z</time>
  </trkpt>
  <trkpt lat="33.725338" lon="-4.266845">
   <ele>1362.00</ele>
   <time>2014-03-30T15:26:30Z</time>
  </trkpt>
  <trkpt lat="33.725405" lon="-4.267082">
   <ele>1360.00</ele>
   <time>2014-03-30T15:26:33Z</time>
  </trkpt>
  <trkpt lat="33.725619" lon="-4.267286">
   <ele>1358.00</ele>
   <time>2014-03-30T15:26:36Z</time>
  </trkpt>
  <trkpt lat="33.725772" lon="-4.267443">
   <ele>1356.00</ele>
   <time>2014-03-30T15:26:38Z</time>
  </trkpt>
  <trkpt lat="33.725931" lon="-4.267595">
   <ele>1354.00</ele>
   <time>2014-03-30T15:26:40Z</time>
  </trkpt>
  <trkpt lat="33.726287" lon="-4.267892">
   <ele>1351.00</ele>
   <time>2014-03-30T15:26:44Z</time>
  </trkpt>
  <trkpt lat="33.726487" lon="-4.268010">
   <ele>1349.00</ele>
   <time>2014-03-30T15:26:46Z</time>
  </trkpt>
  <trkpt lat="33.726698" lon="-4.268058">
   <ele>1348.00</ele>
   <time>2014-03-30T15:26:48Z</time>
  </trkpt>
  <trkpt lat="33.726875" lon="-4.268128">
   <ele>1346.00</ele>
   <time>2014-03-30T15:26:50Z</time>
  </trkpt>
  <trkpt lat="33.726988" lon="-4.268385">
   <ele>1344.00</ele>
   <time>2014-03-30T15:26:53Z</time>
  </trkpt>
  <trkpt lat="33.727039" lon="-4.268644">
   <ele>1341.00</ele>
   <time>2014-03-30T15:26:56Z</time>
  </trkpt>
  <trkpt lat="33.727263" lon="-4.268694">
   <ele>1338.00</ele>
   <time>2014-03-30T15:26:59Z</time>
  </trkpt>
  <trkpt lat="33.727453" lon="-4.268668">
   <ele>1336.00</ele>
   <time>2014-03-30T15:27:01Z</time>
  </trkpt>
  <trkpt lat="33.727646" lon="-4.268685">
   <ele>1335.00</ele>
   <time>2014-03-30T15:27:03Z</time>
  </trkpt>
  <trkpt lat="33.727839" lon="-4.268739">
   <ele>1333.00</ele>
   <time>2014-03-30T15:27:05Z</time>
  </trkpt>
  <trkpt lat="33.728025" lon="-4.268843">
   <ele>1331.00</ele>
   <time>2014-03-30T15:27:07Z</time>
  </trkpt>
  <trkpt lat="33.728200" lon="-4.268995">
   <ele>1329.00</ele>
   <time>2014-03-30T15:27:09Z</time>
  </trkpt>
  <trkpt lat="33.728322" lon="-4.269176">
   <ele>1327.00</ele>
   <time>2014-03-30T15:27:11Z</time>
  </trkpt>
  <trkpt lat="33.728295" lon="-4.269487">
   <ele>1324.00</ele>
   <time>2014-03-30T15:27:14Z</time>
  </trkpt>
  <trkpt lat="33.728169" lon="-4.269673">
   <ele>1323.00</ele>
   <time>2014-03-30T15:27:16Z</time>
  </trkpt>
  <trkpt lat="33.727908" lon="-4.270039">
   <ele>1320.00</ele>
   <time>2014-03-30T15:27:20Z</time>
  </trkpt>
  <trkpt lat="33.727796" lon="-4.270232">
   <ele>1319.00</ele>
   <time>2014-03-30T15:27:22Z</time>
  </trkpt>
  <trkpt lat="33.727698" lon="-4.270445">
   <ele>1318.00</ele>
   <time>2014-03-30T15:27:24Z</time>
  </trkpt>
  <trkpt lat="33.727544" lon="-4.270788">
   <ele>1315.00</ele>
   <time>2014-03-30T15:27:27Z</time>
  </trkpt>
  <trkpt lat="33.727419" lon="-4.271019">
   <ele>1314.00</ele>
   <time>2014-03-30T15:27:29Z</time>
  </trkpt>
  <trkpt lat="33.727298" lon="-4.271251">
   <ele>1312.00</ele>
   <time>2014-03-30T15:27:31Z</time>
  </trkpt>
  <trkpt lat="33.727203" lon="-4.271489">
   <ele>1310.00</ele>
   <time>2014-03-30T15:27:33Z</time>
  </trkpt>
  <trkpt lat="33.727019" lon="-4.271985">
   <ele>1306.00</ele>
   <time>2014-03-30T15:27:37Z</time>
  </trkpt>
  <trkpt lat="33.726945" lon="-4.272201">
   <ele>1305.00</ele>
   <time>2014-03-30T15:27:39Z</time>
  </trkpt>
  <trkpt lat="33.726939" lon="-4.272427">
   <ele>1303.00</ele>
   <time>2014-03-30T15:27:41Z</time>
  </trkpt>
  <trkpt lat="33.727004" lon="-4.272638">
   <ele>1302.00</ele>
   <time>2014-03-30T15:27:43Z</time>
  </trkpt>
  <trkpt lat="33.727200" lon="-4.272798">
   <ele>1300.00</ele>
   <time>2014-03-30T15:27:46Z</time>
  </trkpt>
  <trkpt lat="33.727380" lon="-4.272755">
   <ele>1297.00</ele>
   <time>2014-03-30T15:27:48Z</time>
  </trkpt>
  <trkpt lat="33.727640" lon="-4.272655">
   <ele>1295.00</ele>
   <time>2014-03-30T15:27:51Z</time>
  </trkpt>
  <trkpt lat="33.727823" lon="-4.272646">
   <ele>1294.00</ele>
   <time>2014-03-30T15:27:53Z</time>
  </trkpt>
  <trkpt lat="33.728012" lon="-4.272693">
   <ele>1292.00</ele>
   <time>2014-03-30T15:27:55Z</time>
  </trkpt>
  <trkpt lat="33.728305" lon="-4.272790">
   <ele>1289.00</ele>
   <time>2014-03-30T15:27:58Z</time>
  </trkpt>
  <trkpt lat="33.728494" lon="-4.272849">
   <ele>1288.00</ele>
   <time>2014-03-30T15:28:00Z</time>
  </trkpt>
  <trkpt lat="33.728653" lon="-4.272976">
   <ele>1286.00</ele>
   <time>2014-03-30T15:28:02Z</time>
  </trkpt>
  <trkpt lat="33.728770" lon="-4.273166">
   <ele>1285.00</ele>
   <time>2014-03-30T15:28:04Z</time>
  </trkpt>
  <trkpt lat="33.728887" lon="-4.273371">
   <ele>1283.00</ele>
   <time>2014-03-30T15:28:06Z</time>
  </trkpt>
  <trkpt lat="33.729074" lon="-4.273694">
   <ele>1281.00</ele>
   <time>2014-03-30T15:28:09Z</time>
  </trkpt>
  <trkpt lat="33.729567" lon="-4.274609">
   <ele>1276.00</ele>
   <time>2014-03-30T15:28:17Z</time>
  </trkpt>
  <trkpt lat="33.729671" lon="-4.274813">
   <ele>1274.00</ele>
   <time>2014-03-30T15:28:19Z</time>
  </trkpt>
  <trkpt lat="33.729715" lon="-4.275041">
   <ele>1273.00</ele>
   <time>2014-03-30T15:28:21Z</time>
  </trkpt>
  <trkpt lat="33.729716" lon="-4.275293">
   <ele>1271.00</ele>
   <time>2014-03-30T15:28:23Z</time>
  </trkpt>
  <trkpt lat="33.729715" lon="-4.275557">
   <ele>1270.00</ele>
   <time>2014-03-30T15:28:25Z</time>
  </trkpt>
  <trkpt lat="33.729734" lon="-4.275830">
   <ele>1268.00</ele>
   <time>2014-03-30T15:28:27Z</time>
  </trkpt>
  <trkpt lat="33.729791" lon="-4.276107">
   <ele>1266.00</ele>
   <time>2014-03-30T15:28:29Z</time>
  </trkpt>
  <trkpt lat="33.729874" lon="-4.276385">
   <ele>1264.00</ele>
   <time>2014-03-30T15:28:31Z</time>
  </trkpt>
  <trkpt lat="33.729986" lon="-4.276654">
   <ele>1262.00</ele>
   <time>2014-03-30T15:28:33Z</time>
  </trkpt>
  <trkpt lat="33.730135" lon="-4.276905">
   <ele>1260.00</ele>
   <time>2014-03-30T15:28:35Z</time>
  </trkpt>
  <trkpt lat="33.730313" lon="-4.277124">
   <ele>1257.00</ele>
   <time>2014-03-30T15:28:37Z</time>
  </trkpt>
  <trkpt lat="33.730498" lon="-4.277309">
   <ele>1255.00</ele>
   <time>2014-03-30T15:28:39Z</time>
  </trkpt>
  <trkpt lat="33.730670" lon="-4.277496">
   <ele>1252.00</ele>
   <time>2014-03-30T15:28:41Z</time>
  </trkpt>
  <trkpt lat="33.730822" lon="-4.277718">
   <ele>1250.00</ele>
   <time>2014-03-30T15:28:43Z</time>
  </trkpt>
  <trkpt lat="33.731118" lon="-4.278182">
   <ele>1246.00</ele>
   <time>2014-03-30T15:28:47Z</time>
  </trkpt>
  <trkpt lat="33.731292" lon="-4.278357">
   <ele>1244.00</ele>
   <time>2014-03-30T15:28:49Z</time>
  </trkpt>
  <trkpt lat="33.731512" lon="-4.278455">
   <ele>1242.00</ele>
   <time>2014-03-30T15:28:51Z</time>
  </trkpt>
  <trkpt lat="33.731756" lon="-4.278491">
   <ele>1239.00</ele>
   <time>2014-03-30T15:28:53Z</time>
  </trkpt>
  <trkpt lat="33.731989" lon="-4.278529">
   <ele>1237.00</ele>
   <time>2014-03-30T15:28:55Z</time>
  </trkpt>
  <trkpt lat="33.732186" lon="-4.278576">
   <ele>1236.00</ele>
   <time>2014-03-30T15:28:57Z</time>
  </trkpt>
  <trkpt lat="33.732331" lon="-4.278763">
   <ele>1234.00</ele>
   <time>2014-03-30T15:29:00Z</time>
  </trkpt>
  <trkpt lat="33.732205" lon="-4.279056">
   <ele>1233.00</ele>
   <time>2014-03-30T15:29:03Z</time>
  </trkpt>
  <trkpt lat="33.732084" lon="-4.279282">
   <ele>1232.00</ele>
   <time>2014-03-30T15:29:05Z</time>
  </trkpt>
  <trkpt lat="33.732000" lon="-4.279549">
   <ele>1231.00</ele>
   <time>2014-03-30T15:29:07Z</time>
  </trkpt>
  <trkpt lat="33.731830" lon="-4.280273">
   <ele>1226.00</ele>
   <time>2014-03-30T15:29:12Z</time>
  </trkpt>
  <trkpt lat="33.731776" lon="-4.280570">
   <ele>1223.00</ele>
   <time>2014-03-30T15:29:14Z</time>
  </trkpt>
  <trkpt lat="33.731747" lon="-4.280842">
   <ele>1222.00</ele>
   <time>2014-03-30T15:29:16Z</time>
  </trkpt>
  <trkpt lat="33.731780" lon="-4.281070">
   <ele>1220.00</ele>
   <time>2014-03-30T15:29:18Z</time>
  </trkpt>
  <trkpt lat="33.731893" lon="-4.281265">
   <ele>1218.00</ele>
   <time>2014-03-30T15:29:20Z</time>
  </trkpt>
  <trkpt lat="33.732067" lon="-4.281402">
   <ele>1216.00</ele>
   <time>2014-03-30T15:29:22Z</time>
  </trkpt>
  <trkpt lat="33.732281" lon="-4.281496">
   <ele>1213.00</ele>
   <time>2014-03-30T15:29:24Z</time>
  </trkpt>
  <trkpt lat="33.732787" lon="-4.281697">
   <ele>1207.00</ele>
   <time>2014-03-30T15:29:29Z</time>
  </trkpt>
  <trkpt lat="33.732925" lon="-4.281914">
   <ele>1203.00</ele>
   <time>2014-03-30T15:29:32Z</time>
  </trkpt>
  <trkpt lat="33.732948" lon="-4.282156">
   <ele>1200.00</ele>
   <time>2014-03-30T15:29:34Z</time>
  </trkpt>
  <trkpt lat="33.732996" lon="-4.282432">
   <ele>1197.00</ele>
   <time>2014-03-30T15:29:36Z</time>
  </trkpt>
  <trkpt lat="33.733065" lon="-4.282729">
   <ele>1195.00</ele>
   <time>2014-03-30T15:29:38Z</time>
  </trkpt>
  <trkpt lat="33.733131" lon="-4.283044">
   <ele>1192.00</ele>
   <time>2014-03-30T15:29:40Z</time>
  </trkpt>
  <trkpt lat="33.733151" lon="-4.283370">
   <ele>1190.00</ele>
   <time>2014-03-30T15:29:42Z</time>
  </trkpt>
  <trkpt lat="33.733088" lon="-4.283685">
   <ele>1189.00</ele>
   <time>2014-03-30T15:29:44Z</time>
  </trkpt>
  <trkpt lat="33.732971" lon="-4.284070">
   <ele>1188.00</ele>
   <time>2014-03-30T15:29:47Z</time>
  </trkpt>
  <trkpt lat="33.732989" lon="-4.284301">
   <ele>1187.00</ele>
   <time>2014-03-30T15:29:49Z</time>
  </trkpt>
  <trkpt lat="33.733079" lon="-4.284504">
   <ele>1186.00</ele>
   <time>2014-03-30T15:29:51Z</time>
  </trkpt>
  <trkpt lat="33.733282" lon="-4.284629">
   <ele>1184.00</ele>
   <time>2014-03-30T15:29:54Z</time>
  </trkpt>
  <trkpt lat="33.733440" lon="-4.284518">
   <ele>1183.00</ele>
   <time>2014-03-30T15:29:56Z</time>
  </trkpt>
  <trkpt lat="33.733581" lon="-4.284328">
   <ele>1182.00</ele>
   <time>2014-03-30T15:29:58Z</time>
  </trkpt>
  <trkpt lat="33.733714" lon="-4.284107">
   <ele>1180.00</ele>
   <time>2014-03-30T15:30:00Z</time>
  </trkpt>
  <trkpt lat="33.733831" lon="-4.283857">
   <ele>1178.00</ele>
   <time>2014-03-30T15:30:02Z</time>
  </trkpt>
  <trkpt lat="33.734034" lon="-4.283325">
   <ele>1174.00</ele>
   <time>2014-03-30T15:30:06Z</time>
  </trkpt>
  <trkpt lat="33.734058" lon="-4.283060">
   <ele>1171.00</ele>
   <time>2014-03-30T15:30:08Z</time>
  </trkpt>
  <trkpt lat="33.733980" lon="-4.282847">
   <ele>1168.00</ele>
   <time>2014-03-30T15:30:10Z</time>
  </trkpt>
  <trkpt lat="33.733802" lon="-4.282691">
   <ele>1166.00</ele>
   <time>2014-03-30T15:30:12Z</time>
  </trkpt>
  <trkpt lat="33.733617" lon="-4.282535">
   <ele>1165.00</ele>
   <time>2014-03-30T15:30:14Z</time>
  </trkpt>
  <trkpt lat="33.733483" lon="-4.282354">
   <ele>1163.00</ele>
   <time>2014-03-30T15:30:16Z</time>
  </trkpt>
  <trkpt lat="33.733437" lon="-4.282139">
   <ele>1162.00</ele>
   <time>2014-03-30T15:30:18Z</time>
  </trkpt>
  <trkpt lat="33.733473" lon="-4.281891">
   <ele>1160.00</ele>
   <time>2014-03-30T15:30:20Z</time>
  </trkpt>
  <trkpt lat="33.733544" lon="-4.281522">
   <ele>1157.00</ele>
   <time>2014-03-30T15:30:23Z</time>
  </trkpt>
  <trkpt lat="33.733490" lon="-4.281222">
   <ele>1154.00</ele>
   <time>2014-03-30T15:30:26Z</time>
  </trkpt>
  <trkpt lat="33.733347" lon="-4.281044">
   <ele>1152.00</ele>
   <time>2014-03-30T15:30:28Z</time>
  </trkpt>
  <trkpt lat="33.733156" lon="-4.280909">
   <ele>1150.00</ele>
   <time>2014-03-30T15:30:30Z</time>
  </trkpt>
  <trkpt lat="33.732956" lon="-4.280821">
   <ele>1149.00</ele>
   <time>2014-03-30T15:30:32Z</time>
  </trkpt>
  <trkpt lat="33.732779" lon="-4.280736">
   <ele>1148.00</ele>
   <time>2014-03-30T15:30:34Z</time>
  </trkpt>
  <trkpt lat="33.732633" lon="-4.280481">
   <ele>1146.00</ele>
   <time>2014-03-30T15:30:37Z</time>
  </trkpt>
  <trkpt lat="33.732679" lon="-4.280250">
   <ele>1145.00</ele>
   <time>2014-03-30T15:30:39Z</time>
  </trkpt>
  <trkpt lat="33.732779" lon="-4.280017">
   <ele>1143.00</ele>
   <time>2014-03-30T15:30:41Z</time>
  </trkpt>
  <trkpt lat="33.732912" lon="-4.279798">
   <ele>1142.00</ele>
   <time>2014-03-30T15:30:43Z</time>
  </trkpt>
  <trkpt lat="33.733099" lon="-4.279615">
   <ele>1140.00</ele>
   <time>2014-03-30T15:30:45Z</time>
  </trkpt>
  <trkpt lat="33.733329" lon="-4.279457">
   <ele>1139.00</ele>
   <time>2014-03-30T15:30:47Z</time>
  </trkpt>
  <trkpt lat="33.733577" lon="-4.279319">
   <ele>1138.00</ele>
   <time>2014-03-30T15:30:49Z</time>
  </trkpt>
  <trkpt lat="33.733846" lon="-4.279210">
   <ele>1135.00</ele>
   <time>2014-03-30T15:30:51Z</time>
  </trkpt>
  <trkpt lat="33.734125" lon="-4.279138">
   <ele>1132.00</ele>
   <time>2014-03-30T15:30:53Z</time>
  </trkpt>
  <trkpt lat="33.734377" lon="-4.279067">
   <ele>1130.00</ele>
   <time>2014-03-30T15:30:55Z</time>
  </trkpt>
  <trkpt lat="33.734562" lon="-4.278952">
   <ele>1129.00</ele>
   <time>2014-03-30T15:30:57Z</time>
  </trkpt>
  <trkpt lat="33.734638" lon="-4.278651">
   <ele>1126.00</ele>
   <time>2014-03-30T15:31:00Z</time>
  </trkpt>
  <trkpt lat="33.734630" lon="-4.278416">
   <ele>1125.00</ele>
   <time>2014-03-30T15:31:02Z</time>
  </trkpt>
  <trkpt lat="33.734721" lon="-4.278188">
   <ele>1123.00</ele>
   <time>2014-03-30T15:31:04Z</time>
  </trkpt>
  <trkpt lat="33.735006" lon="-4.277698">
   <ele>1119.00</ele>
   <time>2014-03-30T15:31:08Z</time>
  </trkpt>
  <trkpt lat="33.735190" lon="-4.277477">
   <ele>1117.00</ele>
   <time>2014-03-30T15:31:10Z</time>
  </trkpt>
  <trkpt lat="33.735411" lon="-4.277303">
   <ele>1115.00</ele>
   <time>2014-03-30T15:31:12Z</time>
  </trkpt>
  <trkpt lat="33.735644" lon="-4.277154">
   <ele>1113.00</ele>
   <time>2014-03-30T15:31:14Z</time>
  </trkpt>
  <trkpt lat="33.735866" lon="-4.277004">
   <ele>1111.00</ele>
   <time>2014-03-30T15:31:16Z</time>
  </trkpt>
  <trkpt lat="33.736036" lon="-4.276822">
   <ele>1109.00</ele>
   <time>2014-03-30T15:31:18Z</time>
  </trkpt>
  <trkpt lat="33.736119" lon="-4.276580">
   <ele>1107.00</ele>
   <time>2014-03-30T15:31:20Z</time>
  </trkpt>
  <trkpt lat="33.736131" lon="-4.276353">
   <ele>1105.00</ele>
   <time>2014-03-30T15:31:22Z</time>
  </trkpt>
  <trkpt lat="33.736137" lon="-4.276130">
   <ele>1103.00</ele>
   <time>2014-03-30T15:31:25Z</time>
  </trkpt>
  <trkpt lat="33.736306" lon="-4.276257">
   <ele>1101.00</ele>
   <time>2014-03-30T15:31:29Z</time>
  </trkpt>
  <trkpt lat="33.736296" lon="-4.276576">
   <ele>1099.00</ele>
   <time>2014-03-30T15:31:32Z</time>
  </trkpt>
  <trkpt lat="33.736271" lon="-4.276792">
   <ele>1099.00</ele>
   <time>2014-03-30T15:31:34Z</time>
  </trkpt>
  <trkpt lat="33.736191" lon="-4.277005">
   <ele>1097.00</ele>
   <time>2014-03-30T15:31:36Z</time>
  </trkpt>
  <trkpt lat="33.736057" lon="-4.277209">
   <ele>1097.00</ele>
   <time>2014-03-30T15:31:38Z</time>
  </trkpt>
  <trkpt lat="33.735878" lon="-4.277382">
   <ele>1096.00</ele>
   <time>2014-03-30T15:31:40Z</time>
  </trkpt>
  <trkpt lat="33.735681" lon="-4.277532">
   <ele>1096.00</ele>
   <time>2014-03-30T15:31:42Z</time>
  </trkpt>
  <trkpt lat="33.735400" lon="-4.277736">
   <ele>1095.00</ele>
   <time>2014-03-30T15:31:45Z</time>
  </trkpt>
  <trkpt lat="33.735254" lon="-4.277898">
   <ele>1094.00</ele>
   <time>2014-03-30T15:31:47Z</time>
  </trkpt>
  <trkpt lat="33.735160" lon="-4.278093">
   <ele>1092.00</ele>
   <time>2014-03-30T15:31:49Z</time>
  </trkpt>
  <trkpt lat="33.735093" lon="-4.278399">
   <ele>1092.00</ele>
   <time>2014-03-30T15:31:52Z</time>
  </trkpt>
  <trkpt lat="33.735190" lon="-4.278662">
   <ele>1091.00</ele>
   <time>2014-03-30T15:31:55Z</time>
  </trkpt>
  <trkpt lat="33.735289" lon="-4.278850">
   <ele>1093.00</ele>
   <time>2014-03-30T15:31:57Z</time>
  </trkpt>
  <trkpt lat="33.735280" lon="-4.279155">
   <ele>1092.00</ele>
   <time>2014-03-30T15:32:00Z</time>
  </trkpt>
  <trkpt lat="33.735147" lon="-4.279381">
   <ele>1090.00</ele>
   <time>2014-03-30T15:32:02Z</time>
  </trkpt>
  <trkpt lat="33.734994" lon="-4.279596">
   <ele>1087.00</ele>
   <time>2014-03-30T15:32:04Z</time>
  </trkpt>
  <trkpt lat="33.734812" lon="-4.279742">
   <ele>1084.00</ele>
   <time>2014-03-30T15:32:06Z</time>
  </trkpt>
  <trkpt lat="33.734608" lon="-4.279865">
   <ele>1084.00</ele>
   <time>2014-03-30T15:32:08Z</time>
  </trkpt>
  <trkpt lat="33.734393" lon="-4.279950">
   <ele>1083.00</ele>
   <time>2014-03-30T15:32:10Z</time>
  </trkpt>
  <trkpt lat="33.734087" lon="-4.280038">
   <ele>1083.00</ele>
   <time>2014-03-30T15:32:13Z</time>
  </trkpt>
  <trkpt lat="33.733883" lon="-4.280152">
   <ele>1083.00</ele>
   <time>2014-03-30T15:32:16Z</time>
  </trkpt>
  <trkpt lat="33.733866" lon="-4.280376">
   <ele>1082.00</ele>
   <time>2014-03-30T15:32:19Z</time>
  </trkpt>
  <trkpt lat="33.734068" lon="-4.280609">
   <ele>1081.00</ele>
   <time>2014-03-30T15:32:22Z</time>
  </trkpt>
  <trkpt lat="33.734236" lon="-4.280756">
   <ele>1081.00</ele>
   <time>2014-03-30T15:32:24Z</time>
  </trkpt>
  <trkpt lat="33.734416" lon="-4.280878">
   <ele>1083.00</ele>
   <time>2014-03-30T15:32:26Z</time>
  </trkpt>
  <trkpt lat="33.734602" lon="-4.281070">
   <ele>1084.00</ele>
   <time>2014-03-30T15:32:29Z</time>
  </trkpt>
  <trkpt lat="33.734589" lon="-4.281358">
   <ele>1084.00</ele>
   <time>2014-03-30T15:32:32Z</time>
  </trkpt>
  <trkpt lat="33.734635" lon="-4.281651">
   <ele>1084.00</ele>
   <time>2014-03-30T15:32:35Z</time>
  </trkpt>
  <trkpt lat="33.734854" lon="-4.281844">
   <ele>1083.00</ele>
   <time>2014-03-30T15:32:38Z</time>
  </trkpt>
  <trkpt lat="33.735033" lon="-4.281925">
   <ele>1081.00</ele>
   <time>2014-03-30T15:32:40Z</time>
  </trkpt>
  <trkpt lat="33.735220" lon="-4.281855">
   <ele>1078.00</ele>
   <time>2014-03-30T15:32:42Z</time>
  </trkpt>
  <trkpt lat="33.735361" lon="-4.281684">
   <ele>1076.00</ele>
   <time>2014-03-30T15:32:44Z</time>
  </trkpt>
  <trkpt lat="33.735476" lon="-4.281466">
   <ele>1074.00</ele>
   <time>2014-03-30T15:32:46Z</time>
  </trkpt>
  <trkpt lat="33.735608" lon="-4.281249">
   <ele>1072.00</ele>
   <time>2014-03-30T15:32:48Z</time>
  </trkpt>
  <trkpt lat="33.735777" lon="-4.281062">
   <ele>1069.00</ele>
   <time>2014-03-30T15:32:50Z</time>
  </trkpt>
  <trkpt lat="33.735965" lon="-4.280895">
   <ele>1067.00</ele>
   <time>2014-03-30T15:32:52Z</time>
  </trkpt>
  <trkpt lat="33.736134" lon="-4.280739">
   <ele>1065.00</ele>
   <time>2014-03-30T15:32:54Z</time>
  </trkpt>
  <trkpt lat="33.736376" lon="-4.280623">
   <ele>1061.00</ele>
   <time>2014-03-30T15:32:57Z</time>
  </trkpt>
  <trkpt lat="33.736568" lon="-4.280659">
   <ele>1059.00</ele>
   <time>2014-03-30T15:32:59Z</time>
  </trkpt>
  <trkpt lat="33.736774" lon="-4.280720">
   <ele>1056.00</ele>
   <time>2014-03-30T15:33:01Z</time>
  </trkpt>
  <trkpt lat="33.736991" lon="-4.280691">
   <ele>1054.00</ele>
   <time>2014-03-30T15:33:03Z</time>
  </trkpt>
  <trkpt lat="33.737191" lon="-4.280556">
   <ele>1052.00</ele>
   <time>2014-03-30T15:33:05Z</time>
  </trkpt>
  <trkpt lat="33.737378" lon="-4.280375">
   <ele>1050.00</ele>
   <time>2014-03-30T15:33:07Z</time>
  </trkpt>
  <trkpt lat="33.737633" lon="-4.280093">
   <ele>1048.00</ele>
   <time>2014-03-30T15:33:10Z</time>
  </trkpt>
  <trkpt lat="33.737810" lon="-4.280028">
   <ele>1046.00</ele>
   <time>2014-03-30T15:33:12Z</time>
  </trkpt>
  <trkpt lat="33.738008" lon="-4.280091">
   <ele>1044.00</ele>
   <time>2014-03-30T15:33:14Z</time>
  </trkpt>
  <trkpt lat="33.738223" lon="-4.280170">
   <ele>1042.00</ele>
   <time>2014-03-30T15:33:16Z</time>
  </trkpt>
  <trkpt lat="33.738446" lon="-4.280164">
   <ele>1040.00</ele>
   <time>2014-03-30T15:33:18Z</time>
  </trkpt>
  <trkpt lat="33.738647" lon="-4.280044">
   <ele>1038.00</ele>
   <time>2014-03-30T15:33:20Z</time>
  </trkpt>
  <trkpt lat="33.738826" lon="-4.279882">
   <ele>1037.00</ele>
   <time>2014-03-30T15:33:22Z</time>
  </trkpt>
  <trkpt lat="33.738995" lon="-4.279699">
   <ele>1035.00</ele>
   <time>2014-03-30T15:33:24Z</time>
  </trkpt>
  <trkpt lat="33.739151" lon="-4.279493">
   <ele>1034.00</ele>
   <time>2014-03-30T15:33:26Z</time>
  </trkpt>
  <trkpt lat="33.739305" lon="-4.279286">
   <ele>1033.00</ele>
   <time>2014-03-30T15:33:28Z</time>
  </trkpt>
  <trkpt lat="33.739474" lon="-4.279095">
   <ele>1031.00</ele>
   <time>2014-03-30T15:33:30Z</time>
  </trkpt>
  <trkpt lat="33.739649" lon="-4.278945">
   <ele>1030.00</ele>
   <time>2014-03-30T15:33:32Z</time>
  </trkpt>
  <trkpt lat="33.739887" lon="-4.278955">
   <ele>1028.00</ele>
   <time>2014-03-30T15:33:35Z</time>
  </trkpt>
  <trkpt lat="33.740011" lon="-4.279152">
   <ele>1027.00</ele>
   <time>2014-03-30T15:33:37Z</time>
  </trkpt>
  <trkpt lat="33.740022" lon="-4.279390">
   <ele>1025.00</ele>
   <time>2014-03-30T15:33:39Z</time>
  </trkpt>
  <trkpt lat="33.740036" lon="-4.279638">
   <ele>1024.00</ele>
   <time>2014-03-30T15:33:41Z</time>
  </trkpt>
  <trkpt lat="33.740133" lon="-4.279835">
   <ele>1022.00</ele>
   <time>2014-03-30T15:33:43Z</time>
  </trkpt>
  <trkpt lat="33.740303" lon="-4.279910">
   <ele>1020.00</ele>
   <time>2014-03-30T15:33:45Z</time>
  </trkpt>
  <trkpt lat="33.740491" lon="-4.279860">
   <ele>1018.00</ele>
   <time>2014-03-30T15:33:47Z</time>
  </trkpt>
  <trkpt lat="33.740674" lon="-4.279756">
   <ele>1017.00</ele>
   <time>2014-03-30T15:33:49Z</time>
  </trkpt>
  <trkpt lat="33.740876" lon="-4.279704">
   <ele>1015.00</ele>
   <time>2014-03-30T15:33:51Z</time>
  </trkpt>
  <trkpt lat="33.741089" lon="-4.279730">
   <ele>1013.00</ele>
   <time>2014-03-30T15:33:53Z</time>
  </trkpt>
  <trkpt lat="33.741312" lon="-4.279801">
   <ele>1011.00</ele>
   <time>2014-03-30T15:33:55Z</time>
  </trkpt>
  <trkpt lat="33.741548" lon="-4.279867">
   <ele>1009.00</ele>
   <time>2014-03-30T15:33:57Z</time>
  </trkpt>
  <trkpt lat="33.741917" lon="-4.279950">
   <ele>1006.00</ele>
   <time>2014-03-30T15:34:00Z</time>
  </trkpt>
  <trkpt lat="33.742154" lon="-4.280050">
   <ele>1004.00</ele>
   <time>2014-03-30T15:34:02Z</time>
  </trkpt>
  <trkpt lat="33.742382" lon="-4.280191">
   <ele>1003.00</ele>
   <time>2014-03-30T15:34:04Z</time>
  </trkpt>
  <trkpt lat="33.742711" lon="-4.280419">
   <ele>1001.00</ele>
   <time>2014-03-30T15:34:07Z</time>
  </trkpt>
  <trkpt lat="33.742903" lon="-4.280603">
   <ele>1000.00</ele>
   <time>2014-03-30T15:34:09Z</time>
  </trkpt>
  <trkpt lat="33.743069" lon="-4.280815">
   <ele>999.00</ele>
   <time>2014-03-30T15:34:11Z</time>
  </trkpt>
  <trkpt lat="33.743234" lon="-4.281030">
   <ele>997.00</ele>
   <time>2014-03-30T15:34:13Z</time>
  </trkpt>
  <trkpt lat="33.743415" lon="-4.281227">
   <ele>996.00</ele>
   <time>2014-03-30T15:34:15Z</time>
  </trkpt>
  <trkpt lat="33.743596" lon="-4.281426">
   <ele>994.00</ele>
   <time>2014-03-30T15:34:17Z</time>
  </trkpt>
  <trkpt lat="33.743775" lon="-4.281609">
   <ele>992.00</ele>
   <time>2014-03-30T15:34:19Z</time>
  </trkpt>
  <trkpt lat="33.743983" lon="-4.281723">
   <ele>990.00</ele>
   <time>2014-03-30T15:34:21Z</time>
  </trkpt>
  <trkpt lat="33.744212" lon="-4.281747">
   <ele>988.00</ele>
   <time>2014-03-30T15:34:23Z</time>
  </trkpt>
  <trkpt lat="33.744421" lon="-4.281734">
   <ele>987.00</ele>
   <time>2014-03-30T15:34:25Z</time>
  </trkpt>
  <trkpt lat="33.744637" lon="-4.281848">
   <ele>984.00</ele>
   <time>2014-03-30T15:34:28Z</time>
  </trkpt>
  <trkpt lat="33.744700" lon="-4.282059">
   <ele>983.00</ele>
   <time>2014-03-30T15:34:30Z</time>
  </trkpt>
  <trkpt lat="33.744717" lon="-4.282332">
   <ele>983.00</ele>
   <time>2014-03-30T15:34:32Z</time>
  </trkpt>
  <trkpt lat="33.744777" lon="-4.283965">
   <ele>982.00</ele>
   <time>2014-03-30T15:34:42Z</time>
  </trkpt>
  <trkpt lat="33.744819" lon="-4.284269">
   <ele>982.00</ele>
   <time>2014-03-30T15:34:44Z</time>
  </trkpt>
  <trkpt lat="33.744897" lon="-4.284552">
   <ele>982.00</ele>
   <time>2014-03-30T15:34:46Z</time>
  </trkpt>
  <trkpt lat="33.745031" lon="-4.284949">
   <ele>982.00</ele>
   <time>2014-03-30T15:34:49Z</time>
  </trkpt>
  <trkpt lat="33.745062" lon="-4.285229">
   <ele>983.00</ele>
   <time>2014-03-30T15:34:51Z</time>
  </trkpt>
  <trkpt lat="33.745046" lon="-4.285521">
   <ele>984.00</ele>
   <time>2014-03-30T15:34:53Z</time>
  </trkpt>
  <trkpt lat="33.744975" lon="-4.286488">
   <ele>986.00</ele>
   <time>2014-03-30T15:35:00Z</time>
  </trkpt>
  <trkpt lat="33.745128" lon="-4.286696">
   <ele>987.00</ele>
   <time>2014-03-30T15:35:03Z</time>
  </trkpt>
  <trkpt lat="33.745333" lon="-4.286719">
   <ele>987.00</ele>
   <time>2014-03-30T15:35:05Z</time>
  </trkpt>
  <trkpt lat="33.745535" lon="-4.286752">
   <ele>987.00</ele>
   <time>2014-03-30T15:35:07Z</time>
  </trkpt>
  <trkpt lat="33.745718" lon="-4.286876">
   <ele>987.00</ele>
   <time>2014-03-30T15:35:09Z</time>
  </trkpt>
  <trkpt lat="33.745889" lon="-4.287026">
   <ele>987.00</ele>
   <time>2014-03-30T15:35:11Z</time>
  </trkpt>
  <trkpt lat="33.746079" lon="-4.287117">
   <ele>987.00</ele>
   <time>2014-03-30T15:35:13Z</time>
  </trkpt>
  <trkpt lat="33.746268" lon="-4.287066">
   <ele>987.00</ele>
   <time>2014-03-30T15:35:15Z</time>
  </trkpt>
  <trkpt lat="33.746357" lon="-4.286883">
   <ele>986.00</ele>
   <time>2014-03-30T15:35:17Z</time>
  </trkpt>
  <trkpt lat="33.746360" lon="-4.286661">
   <ele>987.00</ele>
   <time>2014-03-30T15:35:19Z</time>
  </trkpt>
  <trkpt lat="33.746502" lon="-4.286398">
   <ele>987.00</ele>
   <time>2014-03-30T15:35:22Z</time>
  </trkpt>
  <trkpt lat="33.746713" lon="-4.286352">
   <ele>987.00</ele>
   <time>2014-03-30T15:35:24Z</time>
  </trkpt>
  <trkpt lat="33.747042" lon="-4.286331">
   <ele>986.00</ele>
   <time>2014-03-30T15:35:27Z</time>
  </trkpt>
  <trkpt lat="33.747243" lon="-4.286293">
   <ele>986.00</ele>
   <time>2014-03-30T15:35:29Z</time>
  </trkpt>
  <trkpt lat="33.747384" lon="-4.286138">
   <ele>985.00</ele>
   <time>2014-03-30T15:35:31Z</time>
  </trkpt>
  <trkpt lat="33.747430" lon="-4.285918">
   <ele>984.00</ele>
   <time>2014-03-30T15:35:33Z</time>
  </trkpt>
  <trkpt lat="33.747469" lon="-4.285697">
   <ele>984.00</ele>
   <time>2014-03-30T15:35:35Z</time>
  </trkpt>
  <trkpt lat="33.747569" lon="-4.285495">
   <ele>984.00</ele>
   <time>2014-03-30T15:35:37Z</time>
  </trkpt>
  <trkpt lat="33.747727" lon="-4.285307">
   <ele>984.00</ele>
   <time>2014-03-30T15:35:39Z</time>
  </trkpt>
  <trkpt lat="33.747906" lon="-4.285131">
   <ele>984.00</ele>
   <time>2014-03-30T15:35:41Z</time>
  </trkpt>
  <trkpt lat="33.748121" lon="-4.284982">
   <ele>983.00</ele>
   <time>2014-03-30T15:35:43Z</time>
  </trkpt>
  <trkpt lat="33.748343" lon="-4.284859">
   <ele>983.00</ele>
   <time>2014-03-30T15:35:45Z</time>
  </trkpt>
  <trkpt lat="33.748559" lon="-4.284781">
   <ele>983.00</ele>
   <time>2014-03-30T15:35:47Z</time>
  </trkpt>
  <trkpt lat="33.748782" lon="-4.284782">
   <ele>983.00</ele>
   <time>2014-03-30T15:35:49Z</time>
  </trkpt>
  <trkpt lat="33.749017" lon="-4.284834">
   <ele>983.00</ele>
   <time>2014-03-30T15:35:51Z</time>
  </trkpt>
  <trkpt lat="33.749383" lon="-4.284913">
   <ele>982.00</ele>
   <time>2014-03-30T15:35:54Z</time>
  </trkpt>
  <trkpt lat="33.749622" lon="-4.284913">
   <ele>982.00</ele>
   <time>2014-03-30T15:35:56Z</time>
  </trkpt>
  <trkpt lat="33.749826" lon="-4.284785">
   <ele>982.00</ele>
   <time>2014-03-30T15:35:58Z</time>
  </trkpt>
  <trkpt lat="33.750136" lon="-4.284550">
   <ele>981.00</ele>
   <time>2014-03-30T15:36:01Z</time>
  </trkpt>
  <trkpt lat="33.750354" lon="-4.284429">
   <ele>981.00</ele>
   <time>2014-03-30T15:36:03Z</time>
  </trkpt>
  <trkpt lat="33.750585" lon="-4.284385">
   <ele>979.00</ele>
   <time>2014-03-30T15:36:05Z</time>
  </trkpt>
  <trkpt lat="33.750813" lon="-4.284454">
   <ele>978.00</ele>
   <time>2014-03-30T15:36:07Z</time>
  </trkpt>
  <trkpt lat="33.751009" lon="-4.284627">
   <ele>975.00</ele>
   <time>2014-03-30T15:36:09Z</time>
  </trkpt>
  <trkpt lat="33.751161" lon="-4.284868">
   <ele>974.00</ele>
   <time>2014-03-30T15:36:11Z</time>
  </trkpt>
  <trkpt lat="33.751354" lon="-4.285260">
   <ele>971.00</ele>
   <time>2014-03-30T15:36:14Z</time>
  </trkpt>
  <trkpt lat="33.751446" lon="-4.285521">
   <ele>969.00</ele>
   <time>2014-03-30T15:36:16Z</time>
  </trkpt>
  <trkpt lat="33.751482" lon="-4.285803">
   <ele>967.00</ele>
   <time>2014-03-30T15:36:18Z</time>
  </trkpt>
  <trkpt lat="33.751453" lon="-4.286102">
   <ele>964.00</ele>
   <time>2014-03-30T15:36:20Z</time>
  </trkpt>
  <trkpt lat="33.751396" lon="-4.286408">
   <ele>962.00</ele>
   <time>2014-03-30T15:36:22Z</time>
  </trkpt>
  <trkpt lat="33.751074" lon="-4.287992">
   <ele>956.00</ele>
   <time>2014-03-30T15:36:32Z</time>
  </trkpt>
  <trkpt lat="33.751045" lon="-4.288263">
   <ele>955.00</ele>
   <time>2014-03-30T15:36:34Z</time>
  </trkpt>
  <trkpt lat="33.751085" lon="-4.288505">
   <ele>955.00</ele>
   <time>2014-03-30T15:36:36Z</time>
  </trkpt>
  <trkpt lat="33.751215" lon="-4.288676">
   <ele>954.00</ele>
   <time>2014-03-30T15:36:38Z</time>
  </trkpt>
  <trkpt lat="33.751417" lon="-4.288733">
   <ele>953.00</ele>
   <time>2014-03-30T15:36:40Z</time>
  </trkpt>
  <trkpt lat="33.751658" lon="-4.288647">
   <ele>952.00</ele>
   <time>2014-03-30T15:36:42Z</time>
  </trkpt>
  <trkpt lat="33.751854" lon="-4.288466">
   <ele>951.00</ele>
   <time>2014-03-30T15:36:44Z</time>
  </trkpt>
  <trkpt lat="33.752013" lon="-4.288222">
   <ele>949.00</ele>
   <time>2014-03-30T15:36:46Z</time>
  </trkpt>
  <trkpt lat="33.752324" lon="-4.287718">
   <ele>945.00</ele>
   <time>2014-03-30T15:36:50Z</time>
  </trkpt>
  <trkpt lat="33.752524" lon="-4.287507">
   <ele>943.00</ele>
   <time>2014-03-30T15:36:52Z</time>
  </trkpt>
  <trkpt lat="33.752751" lon="-4.287370">
   <ele>940.00</ele>
   <time>2014-03-30T15:36:54Z</time>
  </trkpt>
  <trkpt lat="33.752966" lon="-4.287334">
   <ele>938.00</ele>
   <time>2014-03-30T15:36:56Z</time>
  </trkpt>
  <trkpt lat="33.753165" lon="-4.287404">
   <ele>936.00</ele>
   <time>2014-03-30T15:36:58Z</time>
  </trkpt>
  <trkpt lat="33.753344" lon="-4.287545">
   <ele>933.00</ele>
   <time>2014-03-30T15:37:00Z</time>
  </trkpt>
  <trkpt lat="33.753495" lon="-4.287749">
   <ele>931.00</ele>
   <time>2014-03-30T15:37:02Z</time>
  </trkpt>
  <trkpt lat="33.753727" lon="-4.288115">
   <ele>928.00</ele>
   <time>2014-03-30T15:37:05Z</time>
  </trkpt>
  <trkpt lat="33.753876" lon="-4.288388">
   <ele>926.00</ele>
   <time>2014-03-30T15:37:07Z</time>
  </trkpt>
  <trkpt lat="33.753991" lon="-4.288696">
   <ele>923.00</ele>
   <time>2014-03-30T15:37:09Z</time>
  </trkpt>
  <trkpt lat="33.754124" lon="-4.289170">
   <ele>919.00</ele>
   <time>2014-03-30T15:37:12Z</time>
  </trkpt>
  <trkpt lat="33.754269" lon="-4.289427">
   <ele>917.00</ele>
   <time>2014-03-30T15:37:14Z</time>
  </trkpt>
  <trkpt lat="33.754472" lon="-4.289619">
   <ele>915.00</ele>
   <time>2014-03-30T15:37:16Z</time>
  </trkpt>
  <trkpt lat="33.754714" lon="-4.289744">
   <ele>914.00</ele>
   <time>2014-03-30T15:37:18Z</time>
  </trkpt>
  <trkpt lat="33.754979" lon="-4.289802">
   <ele>912.00</ele>
   <time>2014-03-30T15:37:20Z</time>
  </trkpt>
  <trkpt lat="33.755995" lon="-4.289940">
   <ele>905.00</ele>
   <time>2014-03-30T15:37:27Z</time>
  </trkpt>
  <trkpt lat="33.756281" lon="-4.290009">
   <ele>904.00</ele>
   <time>2014-03-30T15:37:29Z</time>
  </trkpt>
  <trkpt lat="33.756526" lon="-4.290120">
   <ele>902.00</ele>
   <time>2014-03-30T15:37:31Z</time>
  </trkpt>
  <trkpt lat="33.756720" lon="-4.290261">
   <ele>901.00</ele>
   <time>2014-03-30T15:37:33Z</time>
  </trkpt>
  <trkpt lat="33.756890" lon="-4.290436">
   <ele>899.00</ele>
   <time>2014-03-30T15:37:35Z</time>
  </trkpt>
  <trkpt lat="33.757244" lon="-4.290832">
   <ele>895.00</ele>
   <time>2014-03-30T15:37:39Z</time>
  </trkpt>
  <trkpt lat="33.757457" lon="-4.290981">
   <ele>892.00</ele>
   <time>2014-03-30T15:37:41Z</time>
  </trkpt>
  <trkpt lat="33.757707" lon="-4.291050">
   <ele>890.00</ele>
   <time>2014-03-30T15:37:43Z</time>
  </trkpt>
  <trkpt lat="33.757972" lon="-4.291032">
   <ele>888.00</ele>
   <time>2014-03-30T15:37:45Z</time>
  </trkpt>
  <trkpt lat="33.759194" lon="-4.290797">
   <ele>886.00</ele>
   <time>2014-03-30T15:37:55Z</time>
  </trkpt>
  <trkpt lat="33.759639" lon="-4.290698">
   <ele>885.00</ele>
   <time>2014-03-30T15:38:01Z</time>
  </trkpt>
  <trkpt lat="33.759849" lon="-4.290647">
   <ele>884.00</ele>
   <time>2014-03-30T15:38:05Z</time>
  </trkpt>
  <trkpt lat="33.760203" lon="-4.290592">
   <ele>885.00</ele>
   <time>2014-03-30T15:38:13Z</time>
  </trkpt>
  <trkpt lat="33.760658" lon="-4.290499">
   <ele>886.00</ele>
   <time>2014-03-30T15:38:21Z</time>
  </trkpt>
  <trkpt lat="33.760881" lon="-4.290482">
   <ele>887.00</ele>
   <time>2014-03-30T15:38:24Z</time>
  </trkpt>
  <trkpt lat="33.761127" lon="-4.290502">
   <ele>887.00</ele>
   <time>2014-03-30T15:38:27Z</time>
  </trkpt>
  <trkpt lat="33.761358" lon="-4.290567">
   <ele>888.00</ele>
   <time>2014-03-30T15:38:30Z</time>
  </trkpt>
  <trkpt lat="33.761606" lon="-4.290684">
   <ele>888.00</ele>
   <time>2014-03-30T15:38:33Z</time>
  </trkpt>
  <trkpt lat="33.761769" lon="-4.290790">
   <ele>889.00</ele>
   <time>2014-03-30T15:38:35Z</time>
  </trkpt>
  <trkpt lat="33.761977" lon="-4.290974">
   <ele>888.00</ele>
   <time>2014-03-30T15:38:38Z</time>
  </trkpt>
  <trkpt lat="33.762159" lon="-4.291184">
   <ele>888.00</ele>
   <time>2014-03-30T15:38:41Z</time>
  </trkpt>
  <trkpt lat="33.763359" lon="-4.292601">
   <ele>883.00</ele>
   <time>2014-03-30T15:38:57Z</time>
  </trkpt>
  <trkpt lat="33.764665" lon="-4.294140">
   <ele>879.00</ele>
   <time>2014-03-30T15:39:12Z</time>
  </trkpt>
  <trkpt lat="33.765571" lon="-4.295204">
   <ele>878.00</ele>
   <time>2014-03-30T15:39:21Z</time>
  </trkpt>
  <trkpt lat="33.765779" lon="-4.295396">
   <ele>878.00</ele>
   <time>2014-03-30T15:39:23Z</time>
  </trkpt>
  <trkpt lat="33.765995" lon="-4.295537">
   <ele>879.00</ele>
   <time>2014-03-30T15:39:25Z</time>
  </trkpt>
  <trkpt lat="33.766210" lon="-4.295640">
   <ele>881.00</ele>
   <time>2014-03-30T15:39:27Z</time>
  </trkpt>
  <trkpt lat="33.766431" lon="-4.295709">
   <ele>882.00</ele>
   <time>2014-03-30T15:39:29Z</time>
  </trkpt>
  <trkpt lat="33.766664" lon="-4.295743">
   <ele>884.00</ele>
   <time>2014-03-30T15:39:31Z</time>
  </trkpt>
  <trkpt lat="33.766903" lon="-4.295739">
   <ele>885.00</ele>
   <time>2014-03-30T15:39:33Z</time>
  </trkpt>
  <trkpt lat="33.767138" lon="-4.295696">
   <ele>886.00</ele>
   <time>2014-03-30T15:39:35Z</time>
  </trkpt>
  <trkpt lat="33.768111" lon="-4.295432">
   <ele>888.00</ele>
   <time>2014-03-30T15:39:43Z</time>
  </trkpt>
  <trkpt lat="33.768358" lon="-4.295364">
   <ele>888.00</ele>
   <time>2014-03-30T15:39:45Z</time>
  </trkpt>
  <trkpt lat="33.768610" lon="-4.295325">
   <ele>887.00</ele>
   <time>2014-03-30T15:39:47Z</time>
  </trkpt>
  <trkpt lat="33.768867" lon="-4.295323">
   <ele>887.00</ele>
   <time>2014-03-30T15:39:49Z</time>
  </trkpt>
  <trkpt lat="33.769118" lon="-4.295385">
   <ele>886.00</ele>
   <time>2014-03-30T15:39:51Z</time>
  </trkpt>
  <trkpt lat="33.769466" lon="-4.295595">
   <ele>886.00</ele>
   <time>2014-03-30T15:39:54Z</time>
  </trkpt>
  <trkpt lat="33.769665" lon="-4.295792">
   <ele>886.00</ele>
   <time>2014-03-30T15:39:56Z</time>
  </trkpt>
  <trkpt lat="33.769824" lon="-4.296026">
   <ele>886.00</ele>
   <time>2014-03-30T15:39:58Z</time>
  </trkpt>
  <trkpt lat="33.769942" lon="-4.296289">
   <ele>886.00</ele>
   <time>2014-03-30T15:40:00Z</time>
  </trkpt>
  <trkpt lat="33.770024" lon="-4.296577">
   <ele>885.00</ele>
   <time>2014-03-30T15:40:02Z</time>
  </trkpt>
  <trkpt lat="33.770075" lon="-4.296885">
   <ele>885.00</ele>
   <time>2014-03-30T15:40:04Z</time>
  </trkpt>
  <trkpt lat="33.770131" lon="-4.297371">
   <ele>885.00</ele>
   <time>2014-03-30T15:40:07Z</time>
  </trkpt>
  <trkpt lat="33.770376" lon="-4.299988">
   <ele>882.00</ele>
   <time>2014-03-30T15:40:22Z</time>
  </trkpt>
  <trkpt lat="33.770507" lon="-4.301349">
   <ele>879.00</ele>
   <time>2014-03-30T15:40:30Z</time>
  </trkpt>
  <trkpt lat="33.770561" lon="-4.301664">
   <ele>878.00</ele>
   <time>2014-03-30T15:40:32Z</time>
  </trkpt>
  <trkpt lat="33.770692" lon="-4.302278">
   <ele>877.00</ele>
   <time>2014-03-30T15:40:36Z</time>
  </trkpt>
  <trkpt lat="33.770814" lon="-4.302734">
   <ele>876.00</ele>
   <time>2014-03-30T15:40:39Z</time>
  </trkpt>
  <trkpt lat="33.771071" lon="-4.303679">
   <ele>874.00</ele>
   <time>2014-03-30T15:40:45Z</time>
  </trkpt>
  <trkpt lat="33.771141" lon="-4.303997">
   <ele>873.00</ele>
   <time>2014-03-30T15:40:47Z</time>
  </trkpt>
  <trkpt lat="33.771188" lon="-4.304313">
   <ele>873.00</ele>
   <time>2014-03-30T15:40:49Z</time>
  </trkpt>
  <trkpt lat="33.771218" lon="-4.304626">
   <ele>872.00</ele>
   <time>2014-03-30T15:40:51Z</time>
  </trkpt>
  <trkpt lat="33.771245" lon="-4.305084">
   <ele>871.00</ele>
   <time>2014-03-30T15:40:54Z</time>
  </trkpt>
  <trkpt lat="33.771263" lon="-4.305660">
   <ele>870.00</ele>
   <time>2014-03-30T15:40:58Z</time>
  </trkpt>
  <trkpt lat="33.771283" lon="-4.305942">
   <ele>870.00</ele>
   <time>2014-03-30T15:41:00Z</time>
  </trkpt>
  <trkpt lat="33.771313" lon="-4.306624">
   <ele>869.00</ele>
   <time>2014-03-30T15:41:05Z</time>
  </trkpt>
  <trkpt lat="33.771342" lon="-4.307022">
   <ele>869.00</ele>
   <time>2014-03-30T15:41:08Z</time>
  </trkpt>
  <trkpt lat="33.771351" lon="-4.307294">
   <ele>869.00</ele>
   <time>2014-03-30T15:41:10Z</time>
  </trkpt>
  <trkpt lat="33.771351" lon="-4.307564">
   <ele>869.00</ele>
   <time>2014-03-30T15:41:12Z</time>
  </trkpt>
  <trkpt lat="33.771339" lon="-4.307826">
   <ele>868.00</ele>
   <time>2014-03-30T15:41:14Z</time>
  </trkpt>
  <trkpt lat="33.771308" lon="-4.308087">
   <ele>868.00</ele>
   <time>2014-03-30T15:41:16Z</time>
  </trkpt>
  <trkpt lat="33.771089" lon="-4.309786">
   <ele>868.00</ele>
   <time>2014-03-30T15:41:29Z</time>
  </trkpt>
  <trkpt lat="33.771064" lon="-4.310035">
   <ele>868.00</ele>
   <time>2014-03-30T15:41:31Z</time>
  </trkpt>
  <trkpt lat="33.771053" lon="-4.310280">
   <ele>868.00</ele>
   <time>2014-03-30T15:41:33Z</time>
  </trkpt>
  <trkpt lat="33.771064" lon="-4.310529">
   <ele>868.00</ele>
   <time>2014-03-30T15:41:35Z</time>
  </trkpt>
  <trkpt lat="33.771103" lon="-4.310786">
   <ele>868.00</ele>
   <time>2014-03-30T15:41:37Z</time>
  </trkpt>
  <trkpt lat="33.771164" lon="-4.311053">
   <ele>868.00</ele>
   <time>2014-03-30T15:41:39Z</time>
  </trkpt>
  <trkpt lat="33.771642" lon="-4.312898">
   <ele>866.00</ele>
   <time>2014-03-30T15:41:53Z</time>
  </trkpt>
  <trkpt lat="33.771670" lon="-4.313136">
   <ele>865.00</ele>
   <time>2014-03-30T15:41:55Z</time>
  </trkpt>
  <trkpt lat="33.771674" lon="-4.313362">
   <ele>865.00</ele>
   <time>2014-03-30T15:41:57Z</time>
  </trkpt>
  <trkpt lat="33.771667" lon="-4.313594">
   <ele>865.00</ele>
   <time>2014-03-30T15:41:59Z</time>
  </trkpt>
  <trkpt lat="33.771640" lon="-4.313839">
   <ele>864.00</ele>
   <time>2014-03-30T15:42:01Z</time>
  </trkpt>
  <trkpt lat="33.771360" lon="-4.315671">
   <ele>861.00</ele>
   <time>2014-03-30T15:42:16Z</time>
  </trkpt>
  <trkpt lat="33.771342" lon="-4.315919">
   <ele>860.00</ele>
   <time>2014-03-30T15:42:18Z</time>
  </trkpt>
  <trkpt lat="33.771352" lon="-4.316168">
   <ele>860.00</ele>
   <time>2014-03-30T15:42:20Z</time>
  </trkpt>
  <trkpt lat="33.771392" lon="-4.316417">
   <ele>859.00</ele>
   <time>2014-03-30T15:42:22Z</time>
  </trkpt>
  <trkpt lat="33.771454" lon="-4.316662">
   <ele>858.00</ele>
   <time>2014-03-30T15:42:24Z</time>
  </trkpt>
  <trkpt lat="33.772065" lon="-4.318729">
   <ele>857.00</ele>
   <time>2014-03-30T15:42:40Z</time>
  </trkpt>
  <trkpt lat="33.772155" lon="-4.318982">
   <ele>857.00</ele>
   <time>2014-03-30T15:42:42Z</time>
  </trkpt>
  <trkpt lat="33.772256" lon="-4.319227">
   <ele>856.00</ele>
   <time>2014-03-30T15:42:44Z</time>
  </trkpt>
  <trkpt lat="33.772420" lon="-4.319588">
   <ele>855.00</ele>
   <time>2014-03-30T15:42:47Z</time>
  </trkpt>
  <trkpt lat="33.772540" lon="-4.319824">
   <ele>854.00</ele>
   <time>2014-03-30T15:42:49Z</time>
  </trkpt>
  <trkpt lat="33.773485" lon="-4.321613">
   <ele>849.00</ele>
   <time>2014-03-30T15:43:04Z</time>
  </trkpt>
  <trkpt lat="33.773611" lon="-4.321843">
   <ele>848.00</ele>
   <time>2014-03-30T15:43:06Z</time>
  </trkpt>
  <trkpt lat="33.773743" lon="-4.322053">
   <ele>848.00</ele>
   <time>2014-03-30T15:43:08Z</time>
  </trkpt>
  <trkpt lat="33.773892" lon="-4.322246">
   <ele>848.00</ele>
   <time>2014-03-30T15:43:10Z</time>
  </trkpt>
  <trkpt lat="33.774065" lon="-4.322418">
   <ele>848.00</ele>
   <time>2014-03-30T15:43:12Z</time>
  </trkpt>
  <trkpt lat="33.774436" lon="-4.322723">
   <ele>847.00</ele>
   <time>2014-03-30T15:43:16Z</time>
  </trkpt>
  <trkpt lat="33.774717" lon="-4.322950">
   <ele>848.00</ele>
   <time>2014-03-30T15:43:19Z</time>
  </trkpt>
  <trkpt lat="33.774893" lon="-4.323110">
   <ele>848.00</ele>
   <time>2014-03-30T15:43:21Z</time>
  </trkpt>
  <trkpt lat="33.775061" lon="-4.323279">
   <ele>848.00</ele>
   <time>2014-03-30T15:43:23Z</time>
  </trkpt>
  <trkpt lat="33.775211" lon="-4.323463">
   <ele>848.00</ele>
   <time>2014-03-30T15:43:25Z</time>
  </trkpt>
  <trkpt lat="33.775337" lon="-4.323676">
   <ele>848.00</ele>
   <time>2014-03-30T15:43:27Z</time>
  </trkpt>
  <trkpt lat="33.775447" lon="-4.323912">
   <ele>848.00</ele>
   <time>2014-03-30T15:43:29Z</time>
  </trkpt>
  <trkpt lat="33.776208" lon="-4.325623">
   <ele>846.00</ele>
   <time>2014-03-30T15:43:43Z</time>
  </trkpt>
  <trkpt lat="33.776371" lon="-4.326033">
   <ele>846.00</ele>
   <time>2014-03-30T15:43:47Z</time>
  </trkpt>
  <trkpt lat="33.776623" lon="-4.326581">
   <ele>847.00</ele>
   <time>2014-03-30T15:43:52Z</time>
  </trkpt>
  <trkpt lat="33.776754" lon="-4.326814">
   <ele>848.00</ele>
   <time>2014-03-30T15:43:54Z</time>
  </trkpt>
  <trkpt lat="33.776906" lon="-4.327035">
   <ele>849.00</ele>
   <time>2014-03-30T15:43:56Z</time>
  </trkpt>
  <trkpt lat="33.777089" lon="-4.327240">
   <ele>850.00</ele>
   <time>2014-03-30T15:43:58Z</time>
  </trkpt>
  <trkpt lat="33.778103" lon="-4.328220">
   <ele>854.00</ele>
   <time>2014-03-30T15:44:08Z</time>
  </trkpt>
  <trkpt lat="33.779609" lon="-4.329650">
   <ele>855.00</ele>
   <time>2014-03-30T15:44:23Z</time>
  </trkpt>
  <trkpt lat="33.781481" lon="-4.331444">
   <ele>859.00</ele>
   <time>2014-03-30T15:44:39Z</time>
  </trkpt>
  <trkpt lat="33.783303" lon="-4.333196">
   <ele>863.00</ele>
   <time>2014-03-30T15:44:54Z</time>
  </trkpt>
  <trkpt lat="33.785169" lon="-4.334976">
   <ele>861.00</ele>
   <time>2014-03-30T15:45:10Z</time>
  </trkpt>
  <trkpt lat="33.785716" lon="-4.335529">
   <ele>859.00</ele>
   <time>2014-03-30T15:45:15Z</time>
  </trkpt>
  <trkpt lat="33.785911" lon="-4.335777">
   <ele>859.00</ele>
   <time>2014-03-30T15:45:17Z</time>
  </trkpt>
  <trkpt lat="33.786089" lon="-4.336052">
   <ele>858.00</ele>
   <time>2014-03-30T15:45:19Z</time>
  </trkpt>
  <trkpt lat="33.787485" lon="-4.338179">
   <ele>854.00</ele>
   <time>2014-03-30T15:45:35Z</time>
  </trkpt>
  <trkpt lat="33.788761" lon="-4.340127">
   <ele>850.00</ele>
   <time>2014-03-30T15:45:50Z</time>
  </trkpt>
  <trkpt lat="33.789003" lon="-4.340499">
   <ele>849.00</ele>
   <time>2014-03-30T15:45:53Z</time>
  </trkpt>
  <trkpt lat="33.789317" lon="-4.341028">
   <ele>845.00</ele>
   <time>2014-03-30T15:45:57Z</time>
  </trkpt>
  <trkpt lat="33.789475" lon="-4.341322">
   <ele>843.00</ele>
   <time>2014-03-30T15:45:59Z</time>
  </trkpt>
  <trkpt lat="33.789628" lon="-4.341630">
   <ele>841.00</ele>
   <time>2014-03-30T15:46:01Z</time>
  </trkpt>
  <trkpt lat="33.790693" lon="-4.343816">
   <ele>837.00</ele>
   <time>2014-03-30T15:46:16Z</time>
  </trkpt>
  <trkpt lat="33.791809" lon="-4.346165">
   <ele>829.00</ele>
   <time>2014-03-30T15:46:32Z</time>
  </trkpt>
  <trkpt lat="33.792600" lon="-4.347830">
   <ele>823.00</ele>
   <time>2014-03-30T15:46:43Z</time>
  </trkpt>
  <trkpt lat="33.792688" lon="-4.348152">
   <ele>822.00</ele>
   <time>2014-03-30T15:46:45Z</time>
  </trkpt>
  <trkpt lat="33.792735" lon="-4.348486">
   <ele>821.00</ele>
   <time>2014-03-30T15:46:47Z</time>
  </trkpt>
  <trkpt lat="33.792782" lon="-4.348817">
   <ele>820.00</ele>
   <time>2014-03-30T15:46:49Z</time>
  </trkpt>
  <trkpt lat="33.792861" lon="-4.349139">
   <ele>818.00</ele>
   <time>2014-03-30T15:46:51Z</time>
  </trkpt>
  <trkpt lat="33.792971" lon="-4.349422">
   <ele>816.00</ele>
   <time>2014-03-30T15:46:53Z</time>
  </trkpt>
  <trkpt lat="33.793684" lon="-4.350927">
   <ele>818.00</ele>
   <time>2014-03-30T15:47:05Z</time>
  </trkpt>
  <trkpt lat="33.793843" lon="-4.351256">
   <ele>819.00</ele>
   <time>2014-03-30T15:47:08Z</time>
  </trkpt>
  <trkpt lat="33.794059" lon="-4.351718">
   <ele>819.00</ele>
   <time>2014-03-30T15:47:12Z</time>
  </trkpt>
  <trkpt lat="33.794209" lon="-4.351957">
   <ele>820.00</ele>
   <time>2014-03-30T15:47:14Z</time>
  </trkpt>
  <trkpt lat="33.794385" lon="-4.352193">
   <ele>820.00</ele>
   <time>2014-03-30T15:47:16Z</time>
  </trkpt>
  <trkpt lat="33.795900" lon="-4.354152">
   <ele>825.00</ele>
   <time>2014-03-30T15:47:33Z</time>
  </trkpt>
  <trkpt lat="33.797223" lon="-4.355875">
   <ele>832.00</ele>
   <time>2014-03-30T15:47:48Z</time>
  </trkpt>
  <trkpt lat="33.797842" lon="-4.356679">
   <ele>833.00</ele>
   <time>2014-03-30T15:47:55Z</time>
  </trkpt>
  <trkpt lat="33.797996" lon="-4.356912">
   <ele>834.00</ele>
   <time>2014-03-30T15:47:57Z</time>
  </trkpt>
  <trkpt lat="33.798123" lon="-4.357168">
   <ele>834.00</ele>
   <time>2014-03-30T15:47:59Z</time>
  </trkpt>
  <trkpt lat="33.798979" lon="-4.359217">
   <ele>835.00</ele>
   <time>2014-03-30T15:48:14Z</time>
  </trkpt>
  <trkpt lat="33.799179" lon="-4.359736">
   <ele>836.00</ele>
   <time>2014-03-30T15:48:18Z</time>
  </trkpt>
  <trkpt lat="33.799335" lon="-4.360134">
   <ele>837.00</ele>
   <time>2014-03-30T15:48:21Z</time>
  </trkpt>
  <trkpt lat="33.800330" lon="-4.362517">
   <ele>838.00</ele>
   <time>2014-03-30T15:48:37Z</time>
  </trkpt>
  <trkpt lat="33.801404" lon="-4.365119">
   <ele>840.00</ele>
   <time>2014-03-30T15:48:52Z</time>
  </trkpt>
  <trkpt lat="33.802588" lon="-4.367935">
   <ele>843.00</ele>
   <time>2014-03-30T15:49:08Z</time>
  </trkpt>
  <trkpt lat="33.803659" lon="-4.370556">
   <ele>850.00</ele>
   <time>2014-03-30T15:49:23Z</time>
  </trkpt>
  <trkpt lat="33.804763" lon="-4.373206">
   <ele>854.00</ele>
   <time>2014-03-30T15:49:38Z</time>
  </trkpt>
  <trkpt lat="33.805134" lon="-4.374036">
   <ele>855.00</ele>
   <time>2014-03-30T15:49:43Z</time>
  </trkpt>
  <trkpt lat="33.805711" lon="-4.375170">
   <ele>859.00</ele>
   <time>2014-03-30T15:49:50Z</time>
  </trkpt>
  <trkpt lat="33.806422" lon="-4.376570">
   <ele>868.00</ele>
   <time>2014-03-30T15:49:59Z</time>
  </trkpt>
  <trkpt lat="33.806627" lon="-4.377034">
   <ele>870.00</ele>
   <time>2014-03-30T15:50:02Z</time>
  </trkpt>
  <trkpt lat="33.807740" lon="-4.379601">
   <ele>876.00</ele>
   <time>2014-03-30T15:50:18Z</time>
  </trkpt>
  <trkpt lat="33.807900" lon="-4.379873">
   <ele>878.00</ele>
   <time>2014-03-30T15:50:20Z</time>
  </trkpt>
  <trkpt lat="33.808093" lon="-4.380117">
   <ele>880.00</ele>
   <time>2014-03-30T15:50:22Z</time>
  </trkpt>
  <trkpt lat="33.808309" lon="-4.380316">
   <ele>881.00</ele>
   <time>2014-03-30T15:50:24Z</time>
  </trkpt>
  <trkpt lat="33.809265" lon="-4.381117">
   <ele>885.00</ele>
   <time>2014-03-30T15:50:34Z</time>
  </trkpt>
  <trkpt lat="33.809204" lon="-4.381328">
   <ele>886.00</ele>
   <time>2014-03-30T15:50:39Z</time>
  </trkpt>
  <trkpt lat="33.809032" lon="-4.381478">
   <ele>885.00</ele>
   <time>2014-03-30T15:50:42Z</time>
  </trkpt>
  <trkpt lat="33.807796" lon="-4.382698">
   <ele>883.00</ele>
   <time>2014-03-30T15:50:57Z</time>
  </trkpt>
  <trkpt lat="33.807297" lon="-4.383186">
   <ele>882.00</ele>
   <time>2014-03-30T15:51:02Z</time>
  </trkpt>
  <trkpt lat="33.806893" lon="-4.383559">
   <ele>881.00</ele>
   <time>2014-03-30T15:51:06Z</time>
  </trkpt>
  <trkpt lat="33.806713" lon="-4.383740">
   <ele>880.00</ele>
   <time>2014-03-30T15:51:08Z</time>
  </trkpt>
  <trkpt lat="33.806515" lon="-4.383867">
   <ele>880.00</ele>
   <time>2014-03-30T15:51:10Z</time>
  </trkpt>
  <trkpt lat="33.806291" lon="-4.383903">
   <ele>879.00</ele>
   <time>2014-03-30T15:51:12Z</time>
  </trkpt>
  <trkpt lat="33.806059" lon="-4.383874">
   <ele>878.00</ele>
   <time>2014-03-30T15:51:14Z</time>
  </trkpt>
  <trkpt lat="33.803702" lon="-4.383405">
   <ele>867.00</ele>
   <time>2014-03-30T15:51:32Z</time>
  </trkpt>
  <trkpt lat="33.801517" lon="-4.382983">
   <ele>860.00</ele>
   <time>2014-03-30T15:51:47Z</time>
  </trkpt>
  <trkpt lat="33.798782" lon="-4.382476">
   <ele>851.00</ele>
   <time>2014-03-30T15:52:03Z</time>
  </trkpt>
  <trkpt lat="33.796689" lon="-4.382089">
   <ele>846.00</ele>
   <time>2014-03-30T15:52:16Z</time>
  </trkpt>
  <trkpt lat="33.796369" lon="-4.382067">
   <ele>844.00</ele>
   <time>2014-03-30T15:52:18Z</time>
  </trkpt>
  <trkpt lat="33.796056" lon="-4.382139">
   <ele>842.00</ele>
   <time>2014-03-30T15:52:20Z</time>
  </trkpt>
  <trkpt lat="33.795758" lon="-4.382296">
   <ele>840.00</ele>
   <time>2014-03-30T15:52:22Z</time>
  </trkpt>
  <trkpt lat="33.793723" lon="-4.383537">
   <ele>831.00</ele>
   <time>2014-03-30T15:52:37Z</time>
  </trkpt>
  <trkpt lat="33.793462" lon="-4.383713">
   <ele>830.00</ele>
   <time>2014-03-30T15:52:39Z</time>
  </trkpt>
  <trkpt lat="33.793200" lon="-4.383921">
   <ele>830.00</ele>
   <time>2014-03-30T15:52:41Z</time>
  </trkpt>
  <trkpt lat="33.791159" lon="-4.385650">
   <ele>827.00</ele>
   <time>2014-03-30T15:52:56Z</time>
  </trkpt>
  <trkpt lat="33.790395" lon="-4.386327">
   <ele>825.00</ele>
   <time>2014-03-30T15:53:02Z</time>
  </trkpt>
  <trkpt lat="33.788358" lon="-4.388025">
   <ele>819.00</ele>
   <time>2014-03-30T15:53:17Z</time>
  </trkpt>
  <trkpt lat="33.786216" lon="-4.389820">
   <ele>813.00</ele>
   <time>2014-03-30T15:53:33Z</time>
  </trkpt>
  <trkpt lat="33.784999" lon="-4.390862">
   <ele>813.00</ele>
   <time>2014-03-30T15:53:43Z</time>
  </trkpt>
  <trkpt lat="33.784671" lon="-4.391176">
   <ele>813.00</ele>
   <time>2014-03-30T15:53:46Z</time>
  </trkpt>
  <trkpt lat="33.784480" lon="-4.391391">
   <ele>813.00</ele>
   <time>2014-03-30T15:53:48Z</time>
  </trkpt>
  <trkpt lat="33.784307" lon="-4.391608">
   <ele>813.00</ele>
   <time>2014-03-30T15:53:50Z</time>
  </trkpt>
  <trkpt lat="33.783049" lon="-4.393220">
   <ele>809.00</ele>
   <time>2014-03-30T15:54:05Z</time>
  </trkpt>
  <trkpt lat="33.782843" lon="-4.393424">
   <ele>808.00</ele>
   <time>2014-03-30T15:54:07Z</time>
  </trkpt>
  <trkpt lat="33.782604" lon="-4.393567">
   <ele>807.00</ele>
   <time>2014-03-30T15:54:09Z</time>
  </trkpt>
  <trkpt lat="33.782343" lon="-4.393656">
   <ele>806.00</ele>
   <time>2014-03-30T15:54:11Z</time>
  </trkpt>
  <trkpt lat="33.781381" lon="-4.393896">
   <ele>801.00</ele>
   <time>2014-03-30T15:54:18Z</time>
  </trkpt>
  <trkpt lat="33.780090" lon="-4.394232">
   <ele>800.00</ele>
   <time>2014-03-30T15:54:28Z</time>
  </trkpt>
  <trkpt lat="33.779942" lon="-4.394409">
   <ele>800.00</ele>
   <time>2014-03-30T15:54:30Z</time>
  </trkpt>
  <trkpt lat="33.779831" lon="-4.394646">
   <ele>800.00</ele>
   <time>2014-03-30T15:54:32Z</time>
  </trkpt>
  <trkpt lat="33.778937" lon="-4.396578">
   <ele>803.00</ele>
   <time>2014-03-30T15:54:46Z</time>
  </trkpt>
  <trkpt lat="33.778783" lon="-4.396853">
   <ele>803.00</ele>
   <time>2014-03-30T15:54:48Z</time>
  </trkpt>
  <trkpt lat="33.778606" lon="-4.397100">
   <ele>803.00</ele>
   <time>2014-03-30T15:54:50Z</time>
  </trkpt>
  <trkpt lat="33.778394" lon="-4.397302">
   <ele>803.00</ele>
   <time>2014-03-30T15:54:52Z</time>
  </trkpt>
  <trkpt lat="33.778046" lon="-4.397579">
   <ele>803.00</ele>
   <time>2014-03-30T15:54:55Z</time>
  </trkpt>
  <trkpt lat="33.776011" lon="-4.399161">
   <ele>794.00</ele>
   <time>2014-03-30T15:55:12Z</time>
  </trkpt>
  <trkpt lat="33.774469" lon="-4.400364">
   <ele>796.00</ele>
   <time>2014-03-30T15:55:25Z</time>
  </trkpt>
  <trkpt lat="33.773009" lon="-4.401380">
   <ele>793.00</ele>
   <time>2014-03-30T15:55:37Z</time>
  </trkpt>
  <trkpt lat="33.772748" lon="-4.401527">
   <ele>793.00</ele>
   <time>2014-03-30T15:55:39Z</time>
  </trkpt>
  <trkpt lat="33.772472" lon="-4.401658">
   <ele>793.00</ele>
   <time>2014-03-30T15:55:41Z</time>
  </trkpt>
  <trkpt lat="33.772188" lon="-4.401778">
   <ele>792.00</ele>
   <time>2014-03-30T15:55:43Z</time>
  </trkpt>
  <trkpt lat="33.770287" lon="-4.402511">
   <ele>789.00</ele>
   <time>2014-03-30T15:55:58Z</time>
  </trkpt>
  <trkpt lat="33.769549" lon="-4.402795">
   <ele>787.00</ele>
   <time>2014-03-30T15:56:04Z</time>
  </trkpt>
  <trkpt lat="33.769318" lon="-4.402886">
   <ele>787.00</ele>
   <time>2014-03-30T15:56:06Z</time>
  </trkpt>
  <trkpt lat="33.769112" lon="-4.403026">
   <ele>787.00</ele>
   <time>2014-03-30T15:56:08Z</time>
  </trkpt>
  <trkpt lat="33.768948" lon="-4.403237">
   <ele>787.00</ele>
   <time>2014-03-30T15:56:10Z</time>
  </trkpt>
  <trkpt lat="33.768726" lon="-4.403599">
   <ele>787.00</ele>
   <time>2014-03-30T15:56:13Z</time>
  </trkpt>
  <trkpt lat="33.768559" lon="-4.403837">
   <ele>787.00</ele>
   <time>2014-03-30T15:56:15Z</time>
  </trkpt>
  <trkpt lat="33.768373" lon="-4.404062">
   <ele>787.00</ele>
   <time>2014-03-30T15:56:17Z</time>
  </trkpt>
  <trkpt lat="33.767801" lon="-4.404694">
   <ele>787.00</ele>
   <time>2014-03-30T15:56:23Z</time>
  </trkpt>
  <trkpt lat="33.767643" lon="-4.404920">
   <ele>787.00</ele>
   <time>2014-03-30T15:56:25Z</time>
  </trkpt>
  <trkpt lat="33.767522" lon="-4.405186">
   <ele>787.00</ele>
   <time>2014-03-30T15:56:27Z</time>
  </trkpt>
  <trkpt lat="33.767424" lon="-4.405483">
   <ele>787.00</ele>
   <time>2014-03-30T15:56:29Z</time>
  </trkpt>
  <trkpt lat="33.766669" lon="-4.407904">
   <ele>783.00</ele>
   <time>2014-03-30T15:56:45Z</time>
  </trkpt>
  <trkpt lat="33.766354" lon="-4.408892">
   <ele>781.00</ele>
   <time>2014-03-30T15:56:52Z</time>
  </trkpt>
  <trkpt lat="33.766249" lon="-4.409163">
   <ele>780.00</ele>
   <time>2014-03-30T15:56:54Z</time>
  </trkpt>
  <trkpt lat="33.766123" lon="-4.409422">
   <ele>780.00</ele>
   <time>2014-03-30T15:56:56Z</time>
  </trkpt>
  <trkpt lat="33.765970" lon="-4.409667">
   <ele>779.00</ele>
   <time>2014-03-30T15:56:58Z</time>
  </trkpt>
  <trkpt lat="33.765801" lon="-4.409901">
   <ele>779.00</ele>
   <time>2014-03-30T15:57:00Z</time>
  </trkpt>
  <trkpt lat="33.764439" lon="-4.411624">
   <ele>781.00</ele>
   <time>2014-03-30T15:57:16Z</time>
  </trkpt>
  <trkpt lat="33.764279" lon="-4.411811">
   <ele>783.00</ele>
   <time>2014-03-30T15:57:18Z</time>
  </trkpt>
  <trkpt lat="33.764118" lon="-4.411963">
   <ele>785.00</ele>
   <time>2014-03-30T15:57:20Z</time>
  </trkpt>
  <trkpt lat="33.763930" lon="-4.412031">
   <ele>787.00</ele>
   <time>2014-03-30T15:57:22Z</time>
  </trkpt>
  <trkpt lat="33.763735" lon="-4.411979">
   <ele>788.00</ele>
   <time>2014-03-30T15:57:24Z</time>
  </trkpt>
  <trkpt lat="33.763544" lon="-4.411863">
   <ele>789.00</ele>
   <time>2014-03-30T15:57:26Z</time>
  </trkpt>
  <trkpt lat="33.763357" lon="-4.411729">
   <ele>790.00</ele>
   <time>2014-03-30T15:57:28Z</time>
  </trkpt>
  <trkpt lat="33.763176" lon="-4.411609">
   <ele>792.00</ele>
   <time>2014-03-30T15:57:30Z</time>
  </trkpt>
  <trkpt lat="33.762993" lon="-4.411544">
   <ele>794.00</ele>
   <time>2014-03-30T15:57:32Z</time>
  </trkpt>
  <trkpt lat="33.762796" lon="-4.411543">
   <ele>795.00</ele>
   <time>2014-03-30T15:57:34Z</time>
  </trkpt>
  <trkpt lat="33.761610" lon="-4.411687">
   <ele>805.00</ele>
   <time>2014-03-30T15:57:45Z</time>
  </trkpt>
  <trkpt lat="33.761398" lon="-4.411670">
   <ele>806.00</ele>
   <time>2014-03-30T15:57:47Z</time>
  </trkpt>
  <trkpt lat="33.761191" lon="-4.411607">
   <ele>808.00</ele>
   <time>2014-03-30T15:57:49Z</time>
  </trkpt>
  <trkpt lat="33.761001" lon="-4.411482">
   <ele>810.00</ele>
   <time>2014-03-30T15:57:51Z</time>
  </trkpt>
  <trkpt lat="33.760828" lon="-4.411307">
   <ele>812.00</ele>
   <time>2014-03-30T15:57:53Z</time>
  </trkpt>
  <trkpt lat="33.760312" lon="-4.410750">
   <ele>817.00</ele>
   <time>2014-03-30T15:57:59Z</time>
  </trkpt>
  <trkpt lat="33.760112" lon="-4.410594">
   <ele>819.00</ele>
   <time>2014-03-30T15:58:01Z</time>
  </trkpt>
  <trkpt lat="33.759373" lon="-4.410082">
   <ele>824.00</ele>
   <time>2014-03-30T15:58:08Z</time>
  </trkpt>
  <trkpt lat="33.759157" lon="-4.409910">
   <ele>825.00</ele>
   <time>2014-03-30T15:58:10Z</time>
  </trkpt>
  <trkpt lat="33.758089" lon="-4.409045">
   <ele>835.00</ele>
   <time>2014-03-30T15:58:20Z</time>
  </trkpt>
  <trkpt lat="33.757863" lon="-4.408898">
   <ele>836.00</ele>
   <time>2014-03-30T15:58:22Z</time>
  </trkpt>
  <trkpt lat="33.757628" lon="-4.408764">
   <ele>838.00</ele>
   <time>2014-03-30T15:58:24Z</time>
  </trkpt>
  <trkpt lat="33.755992" lon="-4.407915">
   <ele>849.00</ele>
   <time>2014-03-30T15:58:38Z</time>
  </trkpt>
  <trkpt lat="33.755776" lon="-4.407824">
   <ele>850.00</ele>
   <time>2014-03-30T15:58:40Z</time>
  </trkpt>
  <trkpt lat="33.755561" lon="-4.407791">
   <ele>852.00</ele>
   <time>2014-03-30T15:58:42Z</time>
  </trkpt>
  <trkpt lat="33.755337" lon="-4.407822">
   <ele>853.00</ele>
   <time>2014-03-30T15:58:44Z</time>
  </trkpt>
  <trkpt lat="33.753531" lon="-4.408305">
   <ele>860.00</ele>
   <time>2014-03-30T15:58:59Z</time>
  </trkpt>
  <trkpt lat="33.752059" lon="-4.408672">
   <ele>871.00</ele>
   <time>2014-03-30T15:59:11Z</time>
  </trkpt>
  <trkpt lat="33.751800" lon="-4.408717">
   <ele>874.00</ele>
   <time>2014-03-30T15:59:13Z</time>
  </trkpt>
  <trkpt lat="33.751539" lon="-4.408718">
   <ele>875.00</ele>
   <time>2014-03-30T15:59:15Z</time>
  </trkpt>
  <trkpt lat="33.751277" lon="-4.408674">
   <ele>877.00</ele>
   <time>2014-03-30T15:59:17Z</time>
  </trkpt>
  <trkpt lat="33.750894" lon="-4.408577">
   <ele>880.00</ele>
   <time>2014-03-30T15:59:20Z</time>
  </trkpt>
  <trkpt lat="33.750659" lon="-4.408491">
   <ele>881.00</ele>
   <time>2014-03-30T15:59:22Z</time>
  </trkpt>
  <trkpt lat="33.750435" lon="-4.408389">
   <ele>883.00</ele>
   <time>2014-03-30T15:59:24Z</time>
  </trkpt>
  <trkpt lat="33.750212" lon="-4.408295">
   <ele>885.00</ele>
   <time>2014-03-30T15:59:26Z</time>
  </trkpt>
  <trkpt lat="33.749981" lon="-4.408244">
   <ele>887.00</ele>
   <time>2014-03-30T15:59:28Z</time>
  </trkpt>
  <trkpt lat="33.749745" lon="-4.408250">
   <ele>890.00</ele>
   <time>2014-03-30T15:59:30Z</time>
  </trkpt>
  <trkpt lat="33.749507" lon="-4.408293">
   <ele>892.00</ele>
   <time>2014-03-30T15:59:32Z</time>
  </trkpt>
  <trkpt lat="33.748343" lon="-4.408508">
   <ele>904.00</ele>
   <time>2014-03-30T15:59:42Z</time>
  </trkpt>
  <trkpt lat="33.748131" lon="-4.408346">
   <ele>906.00</ele>
   <time>2014-03-30T15:59:45Z</time>
  </trkpt>
  <trkpt lat="33.748102" lon="-4.408122">
   <ele>907.00</ele>
   <time>2014-03-30T15:59:47Z</time>
  </trkpt>
  <trkpt lat="33.748142" lon="-4.407883">
   <ele>909.00</ele>
   <time>2014-03-30T15:59:49Z</time>
  </trkpt>
  <trkpt lat="33.748128" lon="-4.407656">
   <ele>910.00</ele>
   <time>2014-03-30T15:59:51Z</time>
  </trkpt>
  <trkpt lat="33.747917" lon="-4.407461">
   <ele>911.00</ele>
   <time>2014-03-30T15:59:54Z</time>
  </trkpt>
  <trkpt lat="33.747659" lon="-4.407358">
   <ele>912.00</ele>
   <time>2014-03-30T15:59:57Z</time>
  </trkpt>
  <trkpt lat="33.747552" lon="-4.407099">
   <ele>913.00</ele>
   <time>2014-03-30T16:00:00Z</time>
  </trkpt>
  <trkpt lat="33.747597" lon="-4.406870">
   <ele>914.00</ele>
   <time>2014-03-30T16:00:02Z</time>
  </trkpt>
  <trkpt lat="33.747697" lon="-4.406643">
   <ele>916.00</ele>
   <time>2014-03-30T16:00:04Z</time>
  </trkpt>
  <trkpt lat="33.747823" lon="-4.406429">
   <ele>918.00</ele>
   <time>2014-03-30T16:00:06Z</time>
  </trkpt>
  <trkpt lat="33.747924" lon="-4.406213">
   <ele>919.00</ele>
   <time>2014-03-30T16:00:08Z</time>
  </trkpt>
  <trkpt lat="33.747951" lon="-4.405992">
   <ele>921.00</ele>
   <time>2014-03-30T16:00:10Z</time>
  </trkpt>
  <trkpt lat="33.747791" lon="-4.405743">
   <ele>922.00</ele>
   <time>2014-03-30T16:00:13Z</time>
  </trkpt>
  <trkpt lat="33.747632" lon="-4.405600">
   <ele>924.00</ele>
   <time>2014-03-30T16:00:15Z</time>
  </trkpt>
  <trkpt lat="33.747467" lon="-4.405459">
   <ele>925.00</ele>
   <time>2014-03-30T16:00:17Z</time>
  </trkpt>
  <trkpt lat="33.747287" lon="-4.405348">
   <ele>926.00</ele>
   <time>2014-03-30T16:00:19Z</time>
  </trkpt>
  <trkpt lat="33.747100" lon="-4.405296">
   <ele>928.00</ele>
   <time>2014-03-30T16:00:21Z</time>
  </trkpt>
  <trkpt lat="33.746925" lon="-4.405341">
   <ele>929.00</ele>
   <time>2014-03-30T16:00:23Z</time>
  </trkpt>
  <trkpt lat="33.746810" lon="-4.405597">
   <ele>932.00</ele>
   <time>2014-03-30T16:00:26Z</time>
  </trkpt>
  <trkpt lat="33.746805" lon="-4.405920">
   <ele>934.00</ele>
   <time>2014-03-30T16:00:29Z</time>
  </trkpt>
  <trkpt lat="33.746816" lon="-4.406289">
   <ele>936.00</ele>
   <time>2014-03-30T16:00:32Z</time>
  </trkpt>
  <trkpt lat="33.746788" lon="-4.406552">
   <ele>939.00</ele>
   <time>2014-03-30T16:00:34Z</time>
  </trkpt>
  <trkpt lat="33.746719" lon="-4.406807">
   <ele>941.00</ele>
   <time>2014-03-30T16:00:36Z</time>
  </trkpt>
  <trkpt lat="33.746443" lon="-4.407627">
   <ele>946.00</ele>
   <time>2014-03-30T16:00:43Z</time>
  </trkpt>
  <trkpt lat="33.746317" lon="-4.407821">
   <ele>947.00</ele>
   <time>2014-03-30T16:00:45Z</time>
  </trkpt>
  <trkpt lat="33.746138" lon="-4.407913">
   <ele>949.00</ele>
   <time>2014-03-30T16:00:47Z</time>
  </trkpt>
  <trkpt lat="33.745957" lon="-4.407831">
   <ele>951.00</ele>
   <time>2014-03-30T16:00:49Z</time>
  </trkpt>
  <trkpt lat="33.745777" lon="-4.407784">
   <ele>952.00</ele>
   <time>2014-03-30T16:00:51Z</time>
  </trkpt>
  <trkpt lat="33.745593" lon="-4.407967">
   <ele>953.00</ele>
   <time>2014-03-30T16:00:54Z</time>
  </trkpt>
  <trkpt lat="33.745623" lon="-4.408281">
   <ele>954.00</ele>
   <time>2014-03-30T16:00:57Z</time>
  </trkpt>
  <trkpt lat="33.745571" lon="-4.408495">
   <ele>955.00</ele>
   <time>2014-03-30T16:00:59Z</time>
  </trkpt>
  <trkpt lat="33.745440" lon="-4.408674">
   <ele>957.00</ele>
   <time>2014-03-30T16:01:01Z</time>
  </trkpt>
  <trkpt lat="33.745003" lon="-4.409210">
   <ele>964.00</ele>
   <time>2014-03-30T16:01:07Z</time>
  </trkpt>
  <trkpt lat="33.744776" lon="-4.409254">
   <ele>966.00</ele>
   <time>2014-03-30T16:01:10Z</time>
  </trkpt>
  <trkpt lat="33.744628" lon="-4.409005">
   <ele>967.00</ele>
   <time>2014-03-30T16:01:13Z</time>
  </trkpt>
  <trkpt lat="33.744426" lon="-4.408853">
   <ele>968.00</ele>
   <time>2014-03-30T16:01:16Z</time>
  </trkpt>
  <trkpt lat="33.744242" lon="-4.408842">
   <ele>969.00</ele>
   <time>2014-03-30T16:01:18Z</time>
  </trkpt>
  <trkpt lat="33.743987" lon="-4.408828">
   <ele>971.00</ele>
   <time>2014-03-30T16:01:21Z</time>
  </trkpt>
  <trkpt lat="33.743808" lon="-4.408658">
   <ele>973.00</ele>
   <time>2014-03-30T16:01:24Z</time>
  </trkpt>
  <trkpt lat="33.743838" lon="-4.408347">
   <ele>974.00</ele>
   <time>2014-03-30T16:01:27Z</time>
  </trkpt>
  <trkpt lat="33.743911" lon="-4.408137">
   <ele>974.00</ele>
   <time>2014-03-30T16:01:29Z</time>
  </trkpt>
  <trkpt lat="33.743931" lon="-4.407850">
   <ele>975.00</ele>
   <time>2014-03-30T16:01:32Z</time>
  </trkpt>
  <trkpt lat="33.743743" lon="-4.407819">
   <ele>977.00</ele>
   <time>2014-03-30T16:01:35Z</time>
  </trkpt>
  <trkpt lat="33.743533" lon="-4.407965">
   <ele>980.00</ele>
   <time>2014-03-30T16:01:38Z</time>
  </trkpt>
  <trkpt lat="33.743387" lon="-4.408103">
   <ele>982.00</ele>
   <time>2014-03-30T16:01:40Z</time>
  </trkpt>
  <trkpt lat="33.743217" lon="-4.408241">
   <ele>983.00</ele>
   <time>2014-03-30T16:01:42Z</time>
  </trkpt>
  <trkpt lat="33.743016" lon="-4.408342">
   <ele>985.00</ele>
   <time>2014-03-30T16:01:44Z</time>
  </trkpt>
  <trkpt lat="33.742797" lon="-4.408406">
   <ele>987.00</ele>
   <time>2014-03-30T16:01:46Z</time>
  </trkpt>
  <trkpt lat="33.742351" lon="-4.408516">
   <ele>990.00</ele>
   <time>2014-03-30T16:01:50Z</time>
  </trkpt>
  <trkpt lat="33.742129" lon="-4.408519">
   <ele>990.00</ele>
   <time>2014-03-30T16:01:52Z</time>
  </trkpt>
  <trkpt lat="33.741911" lon="-4.408454">
   <ele>991.00</ele>
   <time>2014-03-30T16:01:54Z</time>
  </trkpt>
  <trkpt lat="33.741694" lon="-4.408354">
   <ele>992.00</ele>
   <time>2014-03-30T16:01:56Z</time>
  </trkpt>
  <trkpt lat="33.741262" lon="-4.408158">
   <ele>994.00</ele>
   <time>2014-03-30T16:02:00Z</time>
  </trkpt>
  <trkpt lat="33.741057" lon="-4.408090">
   <ele>995.00</ele>
   <time>2014-03-30T16:02:02Z</time>
  </trkpt>
  <trkpt lat="33.740842" lon="-4.408070">
   <ele>996.00</ele>
   <time>2014-03-30T16:02:04Z</time>
  </trkpt>
  <trkpt lat="33.740617" lon="-4.408095">
   <ele>997.00</ele>
   <time>2014-03-30T16:02:06Z</time>
  </trkpt>
  <trkpt lat="33.740277" lon="-4.408139">
   <ele>1000.00</ele>
   <time>2014-03-30T16:02:09Z</time>
  </trkpt>
  <trkpt lat="33.740067" lon="-4.408141">
   <ele>1001.00</ele>
   <time>2014-03-30T16:02:11Z</time>
  </trkpt>
  <trkpt lat="33.739898" lon="-4.408042">
   <ele>1002.00</ele>
   <time>2014-03-30T16:02:13Z</time>
  </trkpt>
  <trkpt lat="33.739796" lon="-4.407836">
   <ele>1002.00</ele>
   <time>2014-03-30T16:02:15Z</time>
  </trkpt>
  <trkpt lat="33.739723" lon="-4.407622">
   <ele>1003.00</ele>
   <time>2014-03-30T16:02:17Z</time>
  </trkpt>
  <trkpt lat="33.739631" lon="-4.407432">
   <ele>1003.00</ele>
   <time>2014-03-30T16:02:19Z</time>
  </trkpt>
  <trkpt lat="33.739406" lon="-4.407266">
   <ele>1003.00</ele>
   <time>2014-03-30T16:02:22Z</time>
  </trkpt>
  <trkpt lat="33.739198" lon="-4.407231">
   <ele>1002.00</ele>
   <time>2014-03-30T16:02:24Z</time>
  </trkpt>
  <trkpt lat="33.738093" lon="-4.407075">
   <ele>1004.00</ele>
   <time>2014-03-30T16:02:34Z</time>
  </trkpt>
  <trkpt lat="33.737888" lon="-4.407002">
   <ele>1005.00</ele>
   <time>2014-03-30T16:02:36Z</time>
  </trkpt>
  <trkpt lat="33.737723" lon="-4.406855">
   <ele>1006.00</ele>
   <time>2014-03-30T16:02:38Z</time>
  </trkpt>
  <trkpt lat="33.737614" lon="-4.406651">
   <ele>1006.00</ele>
   <time>2014-03-30T16:02:40Z</time>
  </trkpt>
  <trkpt lat="33.737505" lon="-4.406457">
   <ele>1007.00</ele>
   <time>2014-03-30T16:02:42Z</time>
  </trkpt>
  <trkpt lat="33.737340" lon="-4.406378">
   <ele>1006.00</ele>
   <time>2014-03-30T16:02:44Z</time>
  </trkpt>
  <trkpt lat="33.737178" lon="-4.406487">
   <ele>1007.00</ele>
   <time>2014-03-30T16:02:46Z</time>
  </trkpt>
  <trkpt lat="33.736998" lon="-4.406632">
   <ele>1006.00</ele>
   <time>2014-03-30T16:02:48Z</time>
  </trkpt>
  <trkpt lat="33.736623" lon="-4.406976">
   <ele>1005.00</ele>
   <time>2014-03-30T16:02:52Z</time>
  </trkpt>
  <trkpt lat="33.736436" lon="-4.407133">
   <ele>1005.00</ele>
   <time>2014-03-30T16:02:54Z</time>
  </trkpt>
  <trkpt lat="33.736247" lon="-4.407249">
   <ele>1007.00</ele>
   <time>2014-03-30T16:02:56Z</time>
  </trkpt>
  <trkpt lat="33.736048" lon="-4.407295">
   <ele>1007.00</ele>
   <time>2014-03-30T16:02:58Z</time>
  </trkpt>
  <trkpt lat="33.735847" lon="-4.407304">
   <ele>1008.00</ele>
   <time>2014-03-30T16:03:00Z</time>
  </trkpt>
  <trkpt lat="33.735526" lon="-4.407316">
   <ele>1009.00</ele>
   <time>2014-03-30T16:03:03Z</time>
  </trkpt>
  <trkpt lat="33.735197" lon="-4.407347">
   <ele>1011.00</ele>
   <time>2014-03-30T16:03:06Z</time>
  </trkpt>
  <trkpt lat="33.734890" lon="-4.407389">
   <ele>1013.00</ele>
   <time>2014-03-30T16:03:09Z</time>
  </trkpt>
  <trkpt lat="33.734707" lon="-4.407465">
   <ele>1014.00</ele>
   <time>2014-03-30T16:03:11Z</time>
  </trkpt>
  <trkpt lat="33.734574" lon="-4.407623">
   <ele>1015.00</ele>
   <time>2014-03-30T16:03:13Z</time>
  </trkpt>
  <trkpt lat="33.734437" lon="-4.407768">
   <ele>1016.00</ele>
   <time>2014-03-30T16:03:15Z</time>
  </trkpt>
  <trkpt lat="33.734176" lon="-4.407780">
   <ele>1018.00</ele>
   <time>2014-03-30T16:03:18Z</time>
  </trkpt>
  <trkpt lat="33.734018" lon="-4.407652">
   <ele>1020.00</ele>
   <time>2014-03-30T16:03:20Z</time>
  </trkpt>
  <trkpt lat="33.733939" lon="-4.407435">
   <ele>1021.00</ele>
   <time>2014-03-30T16:03:22Z</time>
  </trkpt>
  <trkpt lat="33.733941" lon="-4.407184">
   <ele>1022.00</ele>
   <time>2014-03-30T16:03:24Z</time>
  </trkpt>
  <trkpt lat="33.733929" lon="-4.406931">
   <ele>1024.00</ele>
   <time>2014-03-30T16:03:26Z</time>
  </trkpt>
  <trkpt lat="33.733863" lon="-4.406689">
   <ele>1025.00</ele>
   <time>2014-03-30T16:03:28Z</time>
  </trkpt>
  <trkpt lat="33.733746" lon="-4.406474">
   <ele>1027.00</ele>
   <time>2014-03-30T16:03:30Z</time>
  </trkpt>
  <trkpt lat="33.733599" lon="-4.406275">
   <ele>1030.00</ele>
   <time>2014-03-30T16:03:32Z</time>
  </trkpt>
  <trkpt lat="33.733004" lon="-4.405498">
   <ele>1041.00</ele>
   <time>2014-03-30T16:03:40Z</time>
  </trkpt>
  <trkpt lat="33.732858" lon="-4.405275">
   <ele>1043.00</ele>
   <time>2014-03-30T16:03:42Z</time>
  </trkpt>
  <trkpt lat="33.732716" lon="-4.405037">
   <ele>1045.00</ele>
   <time>2014-03-30T16:03:44Z</time>
  </trkpt>
  <trkpt lat="33.732583" lon="-4.404776">
   <ele>1046.00</ele>
   <time>2014-03-30T16:03:46Z</time>
  </trkpt>
  <trkpt lat="33.732465" lon="-4.404499">
   <ele>1048.00</ele>
   <time>2014-03-30T16:03:48Z</time>
  </trkpt>
  <trkpt lat="33.732342" lon="-4.404228">
   <ele>1050.00</ele>
   <time>2014-03-30T16:03:50Z</time>
  </trkpt>
  <trkpt lat="33.732204" lon="-4.403976">
   <ele>1051.00</ele>
   <time>2014-03-30T16:03:52Z</time>
  </trkpt>
  <trkpt lat="33.732074" lon="-4.403722">
   <ele>1053.00</ele>
   <time>2014-03-30T16:03:54Z</time>
  </trkpt>
  <trkpt lat="33.731963" lon="-4.403454">
   <ele>1054.00</ele>
   <time>2014-03-30T16:03:56Z</time>
  </trkpt>
  <trkpt lat="33.731869" lon="-4.403176">
   <ele>1056.00</ele>
   <time>2014-03-30T16:03:58Z</time>
  </trkpt>
  <trkpt lat="33.731796" lon="-4.402889">
   <ele>1057.00</ele>
   <time>2014-03-30T16:04:00Z</time>
  </trkpt>
  <trkpt lat="33.731730" lon="-4.402609">
   <ele>1059.00</ele>
   <time>2014-03-30T16:04:02Z</time>
  </trkpt>
  <trkpt lat="33.731628" lon="-4.402362">
   <ele>1060.00</ele>
   <time>2014-03-30T16:04:04Z</time>
  </trkpt>
  <trkpt lat="33.731489" lon="-4.402153">
   <ele>1062.00</ele>
   <time>2014-03-30T16:04:06Z</time>
  </trkpt>
  <trkpt lat="33.731343" lon="-4.401941">
   <ele>1063.00</ele>
   <time>2014-03-30T16:04:08Z</time>
  </trkpt>
  <trkpt lat="33.731130" lon="-4.401613">
   <ele>1066.00</ele>
   <time>2014-03-30T16:04:11Z</time>
  </trkpt>
  <trkpt lat="33.730954" lon="-4.401428">
   <ele>1067.00</ele>
   <time>2014-03-30T16:04:13Z</time>
  </trkpt>
  <trkpt lat="33.730764" lon="-4.401254">
   <ele>1069.00</ele>
   <time>2014-03-30T16:04:15Z</time>
  </trkpt>
  <trkpt lat="33.730587" lon="-4.401060">
   <ele>1070.00</ele>
   <time>2014-03-30T16:04:17Z</time>
  </trkpt>
  <trkpt lat="33.730426" lon="-4.400852">
   <ele>1072.00</ele>
   <time>2014-03-30T16:04:19Z</time>
  </trkpt>
  <trkpt lat="33.730280" lon="-4.400633">
   <ele>1075.00</ele>
   <time>2014-03-30T16:04:21Z</time>
  </trkpt>
  <trkpt lat="33.730187" lon="-4.400377">
   <ele>1076.00</ele>
   <time>2014-03-30T16:04:23Z</time>
  </trkpt>
  <trkpt lat="33.730153" lon="-4.400083">
   <ele>1077.00</ele>
   <time>2014-03-30T16:04:25Z</time>
  </trkpt>
  <trkpt lat="33.730137" lon="-4.399776">
   <ele>1079.00</ele>
   <time>2014-03-30T16:04:27Z</time>
  </trkpt>
  <trkpt lat="33.730123" lon="-4.399473">
   <ele>1080.00</ele>
   <time>2014-03-30T16:04:29Z</time>
  </trkpt>
  <trkpt lat="33.730091" lon="-4.399182">
   <ele>1081.00</ele>
   <time>2014-03-30T16:04:31Z</time>
  </trkpt>
  <trkpt lat="33.730037" lon="-4.398729">
   <ele>1082.00</ele>
   <time>2014-03-30T16:04:34Z</time>
  </trkpt>
  <trkpt lat="33.730004" lon="-4.398285">
   <ele>1083.00</ele>
   <time>2014-03-30T16:04:37Z</time>
  </trkpt>
  <trkpt lat="33.729982" lon="-4.398009">
   <ele>1085.00</ele>
   <time>2014-03-30T16:04:39Z</time>
  </trkpt>
  <trkpt lat="33.729913" lon="-4.397766">
   <ele>1086.00</ele>
   <time>2014-03-30T16:04:41Z</time>
  </trkpt>
  <trkpt lat="33.729759" lon="-4.397593">
   <ele>1086.00</ele>
   <time>2014-03-30T16:04:43Z</time>
  </trkpt>
  <trkpt lat="33.729550" lon="-4.397489">
   <ele>1087.00</ele>
   <time>2014-03-30T16:04:45Z</time>
  </trkpt>
  <trkpt lat="33.729112" lon="-4.397302">
   <ele>1088.00</ele>
   <time>2014-03-30T16:04:49Z</time>
  </trkpt>
  <trkpt lat="33.728878" lon="-4.397223">
   <ele>1088.00</ele>
   <time>2014-03-30T16:04:51Z</time>
  </trkpt>
  <trkpt lat="33.728632" lon="-4.397170">
   <ele>1089.00</ele>
   <time>2014-03-30T16:04:53Z</time>
  </trkpt>
  <trkpt lat="33.726510" lon="-4.396845">
   <ele>1096.00</ele>
   <time>2014-03-30T16:05:08Z</time>
  </trkpt>
  <trkpt lat="33.723870" lon="-4.396410">
   <ele>1103.00</ele>
   <time>2014-03-30T16:05:24Z</time>
  </trkpt>
  <trkpt lat="33.721682" lon="-4.396033">
   <ele>1110.00</ele>
   <time>2014-03-30T16:05:38Z</time>
  </trkpt>
  <trkpt lat="33.721423" lon="-4.396048">
   <ele>1110.00</ele>
   <time>2014-03-30T16:05:40Z</time>
  </trkpt>
  <trkpt lat="33.721196" lon="-4.396167">
   <ele>1110.00</ele>
   <time>2014-03-30T16:05:42Z</time>
  </trkpt>
  <trkpt lat="33.721039" lon="-4.396404">
   <ele>1109.00</ele>
   <time>2014-03-30T16:05:44Z</time>
  </trkpt>
  <trkpt lat="33.720894" lon="-4.396665">
   <ele>1107.00</ele>
   <time>2014-03-30T16:05:46Z</time>
  </trkpt>
  <trkpt lat="33.719513" lon="-4.398945">
   <ele>1094.00</ele>
   <time>2014-03-30T16:06:01Z</time>
  </trkpt>
  <trkpt lat="33.717919" lon="-4.401555">
   <ele>1083.00</ele>
   <time>2014-03-30T16:06:17Z</time>
  </trkpt>
  <trkpt lat="33.717064" lon="-4.402914">
   <ele>1085.00</ele>
   <time>2014-03-30T16:06:26Z</time>
  </trkpt>
  <trkpt lat="33.716841" lon="-4.403191">
   <ele>1086.00</ele>
   <time>2014-03-30T16:06:28Z</time>
  </trkpt>
  <trkpt lat="33.716605" lon="-4.403449">
   <ele>1086.00</ele>
   <time>2014-03-30T16:06:30Z</time>
  </trkpt>
  <trkpt lat="33.715947" lon="-4.404135">
   <ele>1089.00</ele>
   <time>2014-03-30T16:06:36Z</time>
  </trkpt>
  <trkpt lat="33.715714" lon="-4.404326">
   <ele>1089.00</ele>
   <time>2014-03-30T16:06:38Z</time>
  </trkpt>
  <trkpt lat="33.715462" lon="-4.404501">
   <ele>1090.00</ele>
   <time>2014-03-30T16:06:40Z</time>
  </trkpt>
  <trkpt lat="33.714091" lon="-4.405433">
   <ele>1093.00</ele>
   <time>2014-03-30T16:06:51Z</time>
  </trkpt>
  <trkpt lat="33.713874" lon="-4.405618">
   <ele>1093.00</ele>
   <time>2014-03-30T16:06:53Z</time>
  </trkpt>
  <trkpt lat="33.713694" lon="-4.405836">
   <ele>1093.00</ele>
   <time>2014-03-30T16:06:55Z</time>
  </trkpt>
  <trkpt lat="33.712931" lon="-4.406973">
   <ele>1091.00</ele>
   <time>2014-03-30T16:07:06Z</time>
  </trkpt>
  <trkpt lat="33.713037" lon="-4.407179">
   <ele>1091.00</ele>
   <time>2014-03-30T16:07:12Z</time>
  </trkpt>
  <trkpt lat="33.713143" lon="-4.407373">
   <ele>1089.00</ele>
   <time>2014-03-30T16:07:16Z</time>
  </trkpt>
  <trkpt lat="33.713334" lon="-4.407537">
   <ele>1086.00</ele>
   <time>2014-03-30T16:07:21Z</time>
  </trkpt>
  <trkpt lat="33.713500" lon="-4.407812">
   <ele>1083.00</ele>
   <time>2014-03-30T16:07:27Z</time>
  </trkpt>
  <trkpt lat="33.713604" lon="-4.408020">
   <ele>1081.00</ele>
   <time>2014-03-30T16:07:31Z</time>
  </trkpt>
  <trkpt lat="33.713714" lon="-4.408209">
   <ele>1079.00</ele>
   <time>2014-03-30T16:07:35Z</time>
  </trkpt>
  <trkpt lat="33.713899" lon="-4.408376">
   <ele>1078.00</ele>
   <time>2014-03-30T16:07:40Z</time>
  </trkpt>
  <trkpt lat="33.714114" lon="-4.408440">
   <ele>1075.00</ele>
   <time>2014-03-30T16:07:45Z</time>
  </trkpt>
  <trkpt lat="33.714306" lon="-4.408519">
   <ele>1073.00</ele>
   <time>2014-03-30T16:07:50Z</time>
  </trkpt>
  <trkpt lat="33.714468" lon="-4.408636">
   <ele>1070.00</ele>
   <time>2014-03-30T16:07:57Z</time>
  </trkpt>
  <trkpt lat="33.714529" lon="-4.408849">
   <ele>1069.00</ele>
   <time>2014-03-30T16:08:03Z</time>
  </trkpt>
  <trkpt lat="33.714597" lon="-4.409073">
   <ele>1067.00</ele>
   <time>2014-03-30T16:08:09Z</time>
  </trkpt>
  <trkpt lat="33.714753" lon="-4.409201">
   <ele>1065.00</ele>
   <time>2014-03-30T16:08:15Z</time>
  </trkpt>
  <trkpt lat="33.714909" lon="-4.409325">
   <ele>1062.00</ele>
   <time>2014-03-30T16:08:22Z</time>
  </trkpt>
  <trkpt lat="33.715082" lon="-4.409363">
   <ele>1060.00</ele>
   <time>2014-03-30T16:08:29Z</time>
  </trkpt>
  <trkpt lat="33.715127" lon="-4.409499">
   <ele>1060.00</ele>
   <time>2014-03-30T16:08:41Z</time>
  </trkpt>
 </trkseg>
</trk>
<trk>
 <name>GPS_20140331</name>
 <trkseg>
  <trkpt lat="33.715096" lon="-4.409586">
   <ele>1064.00</ele>
   <time>2014-03-31T08:10:05Z</time>
  </trkpt>
  <trkpt lat="33.715096" lon="-4.409587">
   <ele>1063.00</ele>
   <time>2014-03-31T08:10:21Z</time>
  </trkpt>
  <trkpt lat="33.715095" lon="-4.409588">
   <ele>1063.00</ele>
   <time>2014-03-31T08:10:37Z</time>
  </trkpt>
  <trkpt lat="33.715096" lon="-4.409588">
   <ele>1063.00</ele>
   <time>2014-03-31T08:10:43Z</time>
  </trkpt>
 </trkseg>
 <trkseg>
  <trkpt lat="33.715092" lon="-4.409571">
   <ele>1064.00</ele>
   <time>2014-03-31T08:37:17Z</time>
  </trkpt>
  <trkpt lat="33.715093" lon="-4.409571">
   <ele>1064.00</ele>
   <time>2014-03-31T08:37:32Z</time>
  </trkpt>
  <trkpt lat="33.715088" lon="-4.409570">
   <ele>1064.00</ele>
   <time>2014-03-31T08:37:48Z</time>
  </trkpt>
  <trkpt lat="33.715086" lon="-4.409572">
   <ele>1064.00</ele>
   <time>2014-03-31T08:38:04Z</time>
  </trkpt>
  <trkpt lat="33.715084" lon="-4.409573">
   <ele>1063.00</ele>
   <time>2014-03-31T08:38:19Z</time>
  </trkpt>
  <trkpt lat="33.715087" lon="-4.409573">
   <ele>1063.00</ele>
   <time>2014-03-31T08:38:35Z</time>
  </trkpt>
  <trkpt lat="33.715090" lon="-4.409574">
   <ele>1063.00</ele>
   <time>2014-03-31T08:38:50Z</time>
  </trkpt>
  <trkpt lat="33.715093" lon="-4.409576">
   <ele>1063.00</ele>
   <time>2014-03-31T08:39:06Z</time>
  </trkpt>
  <trkpt lat="33.715091" lon="-4.409577">
   <ele>1063.00</ele>
   <time>2014-03-31T08:39:21Z</time>
  </trkpt>
  <trkpt lat="33.715071" lon="-4.409553">
   <ele>1063.00</ele>
   <time>2014-03-31T08:39:36Z</time>
  </trkpt>
  <trkpt lat="33.715049" lon="-4.409349">
   <ele>1065.00</ele>
   <time>2014-03-31T08:39:47Z</time>
  </trkpt>
  <trkpt lat="33.714863" lon="-4.409305">
   <ele>1067.00</ele>
   <time>2014-03-31T08:39:56Z</time>
  </trkpt>
  <trkpt lat="33.714728" lon="-4.409169">
   <ele>1070.00</ele>
   <time>2014-03-31T08:40:03Z</time>
  </trkpt>
  <trkpt lat="33.714574" lon="-4.409031">
   <ele>1072.00</ele>
   <time>2014-03-31T08:40:10Z</time>
  </trkpt>
  <trkpt lat="33.714505" lon="-4.408801">
   <ele>1073.00</ele>
   <time>2014-03-31T08:40:16Z</time>
  </trkpt>
  <trkpt lat="33.714433" lon="-4.408581">
   <ele>1074.00</ele>
   <time>2014-03-31T08:40:22Z</time>
  </trkpt>
  <trkpt lat="33.714254" lon="-4.408472">
   <ele>1076.00</ele>
   <time>2014-03-31T08:40:29Z</time>
  </trkpt>
  <trkpt lat="33.714069" lon="-4.408403">
   <ele>1077.00</ele>
   <time>2014-03-31T08:40:35Z</time>
  </trkpt>
  <trkpt lat="33.713880" lon="-4.408342">
   <ele>1079.00</ele>
   <time>2014-03-31T08:40:41Z</time>
  </trkpt>
  <trkpt lat="33.713720" lon="-4.408194">
   <ele>1081.00</ele>
   <time>2014-03-31T08:40:47Z</time>
  </trkpt>
  <trkpt lat="33.713600" lon="-4.407998">
   <ele>1082.00</ele>
   <time>2014-03-31T08:40:53Z</time>
  </trkpt>
  <trkpt lat="33.713510" lon="-4.407799">
   <ele>1083.00</ele>
   <time>2014-03-31T08:40:58Z</time>
  </trkpt>
  <trkpt lat="33.713386" lon="-4.407582">
   <ele>1084.00</ele>
   <time>2014-03-31T08:41:03Z</time>
  </trkpt>
  <trkpt lat="33.713257" lon="-4.407402">
   <ele>1086.00</ele>
   <time>2014-03-31T08:41:08Z</time>
  </trkpt>
  <trkpt lat="33.713112" lon="-4.407245">
   <ele>1089.00</ele>
   <time>2014-03-31T08:41:13Z</time>
  </trkpt>
  <trkpt lat="33.713026" lon="-4.407035">
   <ele>1091.00</ele>
   <time>2014-03-31T08:41:18Z</time>
  </trkpt>
  <trkpt lat="33.712878" lon="-4.407014">
   <ele>1092.00</ele>
   <time>2014-03-31T08:41:28Z</time>
  </trkpt>
  <trkpt lat="33.712765" lon="-4.407187">
   <ele>1092.00</ele>
   <time>2014-03-31T08:41:32Z</time>
  </trkpt>
  <trkpt lat="33.712237" lon="-4.407974">
   <ele>1089.00</ele>
   <time>2014-03-31T08:41:43Z</time>
  </trkpt>
  <trkpt lat="33.712110" lon="-4.408138">
   <ele>1089.00</ele>
   <time>2014-03-31T08:41:45Z</time>
  </trkpt>
  <trkpt lat="33.711904" lon="-4.408383">
   <ele>1088.00</ele>
   <time>2014-03-31T08:41:48Z</time>
  </trkpt>
  <trkpt lat="33.710691" lon="-4.409764">
   <ele>1083.00</ele>
   <time>2014-03-31T08:42:04Z</time>
  </trkpt>
  <trkpt lat="33.710527" lon="-4.409953">
   <ele>1082.00</ele>
   <time>2014-03-31T08:42:06Z</time>
  </trkpt>
  <trkpt lat="33.710178" lon="-4.410320">
   <ele>1080.00</ele>
   <time>2014-03-31T08:42:10Z</time>
  </trkpt>
  <trkpt lat="33.709222" lon="-4.411312">
   <ele>1075.00</ele>
   <time>2014-03-31T08:42:20Z</time>
  </trkpt>
  <trkpt lat="33.709038" lon="-4.411535">
   <ele>1074.00</ele>
   <time>2014-03-31T08:42:22Z</time>
  </trkpt>
  <trkpt lat="33.708861" lon="-4.411772">
   <ele>1073.00</ele>
   <time>2014-03-31T08:42:24Z</time>
  </trkpt>
  <trkpt lat="33.708184" lon="-4.412720">
   <ele>1069.00</ele>
   <time>2014-03-31T08:42:32Z</time>
  </trkpt>
  <trkpt lat="33.707899" lon="-4.413064">
   <ele>1067.00</ele>
   <time>2014-03-31T08:42:35Z</time>
  </trkpt>
  <trkpt lat="33.707673" lon="-4.413282">
   <ele>1065.00</ele>
   <time>2014-03-31T08:42:37Z</time>
  </trkpt>
  <trkpt lat="33.707430" lon="-4.413479">
   <ele>1064.00</ele>
   <time>2014-03-31T08:42:39Z</time>
  </trkpt>
  <trkpt lat="33.706576" lon="-4.414119">
   <ele>1062.00</ele>
   <time>2014-03-31T08:42:46Z</time>
  </trkpt>
  <trkpt lat="33.706329" lon="-4.414273">
   <ele>1061.00</ele>
   <time>2014-03-31T08:42:48Z</time>
  </trkpt>
  <trkpt lat="33.706079" lon="-4.414404">
   <ele>1060.00</ele>
   <time>2014-03-31T08:42:50Z</time>
  </trkpt>
  <trkpt lat="33.705480" lon="-4.414709">
   <ele>1055.00</ele>
   <time>2014-03-31T08:42:55Z</time>
  </trkpt>
  <trkpt lat="33.705288" lon="-4.414868">
   <ele>1054.00</ele>
   <time>2014-03-31T08:42:57Z</time>
  </trkpt>
  <trkpt lat="33.705134" lon="-4.415097">
   <ele>1052.00</ele>
   <time>2014-03-31T08:42:59Z</time>
  </trkpt>
  <trkpt lat="33.704756" lon="-4.415799">
   <ele>1046.00</ele>
   <time>2014-03-31T08:43:04Z</time>
  </trkpt>
  <trkpt lat="33.704433" lon="-4.416387">
   <ele>1041.00</ele>
   <time>2014-03-31T08:43:08Z</time>
  </trkpt>
  <trkpt lat="33.704247" lon="-4.416668">
   <ele>1039.00</ele>
   <time>2014-03-31T08:43:10Z</time>
  </trkpt>
  <trkpt lat="33.702675" lon="-4.418728">
   <ele>1021.00</ele>
   <time>2014-03-31T08:43:25Z</time>
  </trkpt>
  <trkpt lat="33.700994" lon="-4.420916">
   <ele>1006.00</ele>
   <time>2014-03-31T08:43:41Z</time>
  </trkpt>
  <trkpt lat="33.699955" lon="-4.422244">
   <ele>1001.00</ele>
   <time>2014-03-31T08:43:51Z</time>
  </trkpt>
  <trkpt lat="33.699788" lon="-4.422513">
   <ele>1001.00</ele>
   <time>2014-03-31T08:43:53Z</time>
  </trkpt>
  <trkpt lat="33.699646" lon="-4.422802">
   <ele>1000.00</ele>
   <time>2014-03-31T08:43:55Z</time>
  </trkpt>
  <trkpt lat="33.698697" lon="-4.425017">
   <ele>998.00</ele>
   <time>2014-03-31T08:44:09Z</time>
  </trkpt>
  <trkpt lat="33.697812" lon="-4.426707">
   <ele>996.00</ele>
   <time>2014-03-31T08:44:20Z</time>
  </trkpt>
  <trkpt lat="33.697629" lon="-4.426993">
   <ele>995.00</ele>
   <time>2014-03-31T08:44:22Z</time>
  </trkpt>
  <trkpt lat="33.697413" lon="-4.427249">
   <ele>995.00</ele>
   <time>2014-03-31T08:44:24Z</time>
  </trkpt>
  <trkpt lat="33.697174" lon="-4.427482">
   <ele>994.00</ele>
   <time>2014-03-31T08:44:26Z</time>
  </trkpt>
  <trkpt lat="33.696570" lon="-4.428070">
   <ele>993.00</ele>
   <time>2014-03-31T08:44:31Z</time>
  </trkpt>
  <trkpt lat="33.696229" lon="-4.428436">
   <ele>993.00</ele>
   <time>2014-03-31T08:44:34Z</time>
  </trkpt>
  <trkpt lat="33.695795" lon="-4.428950">
   <ele>992.00</ele>
   <time>2014-03-31T08:44:38Z</time>
  </trkpt>
  <trkpt lat="33.695270" lon="-4.429634">
   <ele>988.00</ele>
   <time>2014-03-31T08:44:43Z</time>
  </trkpt>
  <trkpt lat="33.695069" lon="-4.429924">
   <ele>987.00</ele>
   <time>2014-03-31T08:44:45Z</time>
  </trkpt>
  <trkpt lat="33.694879" lon="-4.430235">
   <ele>985.00</ele>
   <time>2014-03-31T08:44:47Z</time>
  </trkpt>
  <trkpt lat="33.693431" lon="-4.432747">
   <ele>974.00</ele>
   <time>2014-03-31T08:45:03Z</time>
  </trkpt>
  <trkpt lat="33.692189" lon="-4.434876">
   <ele>961.00</ele>
   <time>2014-03-31T08:45:17Z</time>
  </trkpt>
  <trkpt lat="33.692036" lon="-4.435206">
   <ele>959.00</ele>
   <time>2014-03-31T08:45:19Z</time>
  </trkpt>
  <trkpt lat="33.691501" lon="-4.436535">
   <ele>953.00</ele>
   <time>2014-03-31T08:45:27Z</time>
  </trkpt>
  <trkpt lat="33.691331" lon="-4.436843">
   <ele>952.00</ele>
   <time>2014-03-31T08:45:29Z</time>
  </trkpt>
  <trkpt lat="33.691147" lon="-4.437139">
   <ele>950.00</ele>
   <time>2014-03-31T08:45:31Z</time>
  </trkpt>
  <trkpt lat="33.689726" lon="-4.439415">
   <ele>938.00</ele>
   <time>2014-03-31T08:45:46Z</time>
  </trkpt>
  <trkpt lat="33.689054" lon="-4.440477">
   <ele>933.00</ele>
   <time>2014-03-31T08:45:53Z</time>
  </trkpt>
  <trkpt lat="33.688861" lon="-4.440741">
   <ele>932.00</ele>
   <time>2014-03-31T08:45:55Z</time>
  </trkpt>
  <trkpt lat="33.688669" lon="-4.440933">
   <ele>931.00</ele>
   <time>2014-03-31T08:45:57Z</time>
  </trkpt>
  <trkpt lat="33.688471" lon="-4.441037">
   <ele>931.00</ele>
   <time>2014-03-31T08:45:59Z</time>
  </trkpt>
  <trkpt lat="33.688260" lon="-4.441067">
   <ele>931.00</ele>
   <time>2014-03-31T08:46:01Z</time>
  </trkpt>
  <trkpt lat="33.688053" lon="-4.441044">
   <ele>930.00</ele>
   <time>2014-03-31T08:46:03Z</time>
  </trkpt>
  <trkpt lat="33.687859" lon="-4.440961">
   <ele>929.00</ele>
   <time>2014-03-31T08:46:05Z</time>
  </trkpt>
  <trkpt lat="33.687663" lon="-4.440842">
   <ele>928.00</ele>
   <time>2014-03-31T08:46:07Z</time>
  </trkpt>
  <trkpt lat="33.687193" lon="-4.440525">
   <ele>925.00</ele>
   <time>2014-03-31T08:46:12Z</time>
  </trkpt>
  <trkpt lat="33.686999" lon="-4.440422">
   <ele>924.00</ele>
   <time>2014-03-31T08:46:14Z</time>
  </trkpt>
  <trkpt lat="33.686790" lon="-4.440366">
   <ele>922.00</ele>
   <time>2014-03-31T08:46:16Z</time>
  </trkpt>
  <trkpt lat="33.686578" lon="-4.440375">
   <ele>921.00</ele>
   <time>2014-03-31T08:46:18Z</time>
  </trkpt>
  <trkpt lat="33.686378" lon="-4.440445">
   <ele>920.00</ele>
   <time>2014-03-31T08:46:20Z</time>
  </trkpt>
  <trkpt lat="33.686193" lon="-4.440566">
   <ele>918.00</ele>
   <time>2014-03-31T08:46:22Z</time>
  </trkpt>
  <trkpt lat="33.686030" lon="-4.440731">
   <ele>917.00</ele>
   <time>2014-03-31T08:46:24Z</time>
  </trkpt>
  <trkpt lat="33.685892" lon="-4.440934">
   <ele>915.00</ele>
   <time>2014-03-31T08:46:26Z</time>
  </trkpt>
  <trkpt lat="33.685365" lon="-4.441794">
   <ele>908.00</ele>
   <time>2014-03-31T08:46:34Z</time>
  </trkpt>
  <trkpt lat="33.685259" lon="-4.442033">
   <ele>906.00</ele>
   <time>2014-03-31T08:46:36Z</time>
  </trkpt>
  <trkpt lat="33.685201" lon="-4.442300">
   <ele>905.00</ele>
   <time>2014-03-31T08:46:38Z</time>
  </trkpt>
  <trkpt lat="33.685174" lon="-4.442578">
   <ele>903.00</ele>
   <time>2014-03-31T08:46:40Z</time>
  </trkpt>
  <trkpt lat="33.685126" lon="-4.442849">
   <ele>901.00</ele>
   <time>2014-03-31T08:46:42Z</time>
  </trkpt>
  <trkpt lat="33.685036" lon="-4.443095">
   <ele>900.00</ele>
   <time>2014-03-31T08:46:44Z</time>
  </trkpt>
  <trkpt lat="33.684923" lon="-4.443324">
   <ele>899.00</ele>
   <time>2014-03-31T08:46:46Z</time>
  </trkpt>
  <trkpt lat="33.684210" lon="-4.444685">
   <ele>892.00</ele>
   <time>2014-03-31T08:46:58Z</time>
  </trkpt>
  <trkpt lat="33.684125" lon="-4.444864">
   <ele>892.00</ele>
   <time>2014-03-31T08:47:13Z</time>
  </trkpt>
  <trkpt lat="33.683995" lon="-4.445084">
   <ele>891.00</ele>
   <time>2014-03-31T08:47:24Z</time>
  </trkpt>
  <trkpt lat="33.683300" lon="-4.446376">
   <ele>888.00</ele>
   <time>2014-03-31T08:47:37Z</time>
  </trkpt>
  <trkpt lat="33.683189" lon="-4.446621">
   <ele>887.00</ele>
   <time>2014-03-31T08:47:39Z</time>
  </trkpt>
  <trkpt lat="33.682977" lon="-4.447145">
   <ele>886.00</ele>
   <time>2014-03-31T08:47:43Z</time>
  </trkpt>
  <trkpt lat="33.682884" lon="-4.447433">
   <ele>884.00</ele>
   <time>2014-03-31T08:47:45Z</time>
  </trkpt>
  <trkpt lat="33.682807" lon="-4.447746">
   <ele>883.00</ele>
   <time>2014-03-31T08:47:47Z</time>
  </trkpt>
  <trkpt lat="33.682744" lon="-4.448083">
   <ele>882.00</ele>
   <time>2014-03-31T08:47:49Z</time>
  </trkpt>
  <trkpt lat="33.682342" lon="-4.450380">
   <ele>873.00</ele>
   <time>2014-03-31T08:48:02Z</time>
  </trkpt>
  <trkpt lat="33.682215" lon="-4.451049">
   <ele>871.00</ele>
   <time>2014-03-31T08:48:06Z</time>
  </trkpt>
  <trkpt lat="33.682170" lon="-4.451357">
   <ele>871.00</ele>
   <time>2014-03-31T08:48:08Z</time>
  </trkpt>
  <trkpt lat="33.682130" lon="-4.451634">
   <ele>871.00</ele>
   <time>2014-03-31T08:48:10Z</time>
  </trkpt>
  <trkpt lat="33.682081" lon="-4.451872">
   <ele>871.00</ele>
   <time>2014-03-31T08:48:12Z</time>
  </trkpt>
  <trkpt lat="33.682036" lon="-4.452096">
   <ele>871.00</ele>
   <time>2014-03-31T08:48:14Z</time>
  </trkpt>
  <trkpt lat="33.682025" lon="-4.452326">
   <ele>871.00</ele>
   <time>2014-03-31T08:48:16Z</time>
  </trkpt>
  <trkpt lat="33.682049" lon="-4.452567">
   <ele>870.00</ele>
   <time>2014-03-31T08:48:18Z</time>
  </trkpt>
  <trkpt lat="33.682183" lon="-4.453665">
   <ele>869.00</ele>
   <time>2014-03-31T08:48:26Z</time>
  </trkpt>
  <trkpt lat="33.682173" lon="-4.453924">
   <ele>869.00</ele>
   <time>2014-03-31T08:48:28Z</time>
  </trkpt>
  <trkpt lat="33.682110" lon="-4.454160">
   <ele>870.00</ele>
   <time>2014-03-31T08:48:30Z</time>
  </trkpt>
  <trkpt lat="33.682015" lon="-4.454381">
   <ele>870.00</ele>
   <time>2014-03-31T08:48:32Z</time>
  </trkpt>
  <trkpt lat="33.681927" lon="-4.454607">
   <ele>870.00</ele>
   <time>2014-03-31T08:48:34Z</time>
  </trkpt>
  <trkpt lat="33.681863" lon="-4.454858">
   <ele>869.00</ele>
   <time>2014-03-31T08:48:36Z</time>
  </trkpt>
  <trkpt lat="33.681818" lon="-4.455127">
   <ele>868.00</ele>
   <time>2014-03-31T08:48:38Z</time>
  </trkpt>
  <trkpt lat="33.681709" lon="-4.455854">
   <ele>866.00</ele>
   <time>2014-03-31T08:48:43Z</time>
  </trkpt>
  <trkpt lat="33.681564" lon="-4.456543">
   <ele>863.00</ele>
   <time>2014-03-31T08:48:48Z</time>
  </trkpt>
  <trkpt lat="33.681454" lon="-4.456985">
   <ele>860.00</ele>
   <time>2014-03-31T08:48:52Z</time>
  </trkpt>
  <trkpt lat="33.681366" lon="-4.457230">
   <ele>859.00</ele>
   <time>2014-03-31T08:48:55Z</time>
  </trkpt>
  <trkpt lat="33.681211" lon="-4.457407">
   <ele>858.00</ele>
   <time>2014-03-31T08:48:58Z</time>
  </trkpt>
  <trkpt lat="33.680989" lon="-4.457464">
   <ele>857.00</ele>
   <time>2014-03-31T08:49:01Z</time>
  </trkpt>
  <trkpt lat="33.680767" lon="-4.457400">
   <ele>856.00</ele>
   <time>2014-03-31T08:49:04Z</time>
  </trkpt>
  <trkpt lat="33.680402" lon="-4.457241">
   <ele>856.00</ele>
   <time>2014-03-31T08:49:10Z</time>
  </trkpt>
  <trkpt lat="33.680233" lon="-4.457108">
   <ele>856.00</ele>
   <time>2014-03-31T08:49:13Z</time>
  </trkpt>
  <trkpt lat="33.680119" lon="-4.456869">
   <ele>857.00</ele>
   <time>2014-03-31T08:49:16Z</time>
  </trkpt>
  <trkpt lat="33.680039" lon="-4.456578">
   <ele>858.00</ele>
   <time>2014-03-31T08:49:19Z</time>
  </trkpt>
  <trkpt lat="33.679951" lon="-4.456295">
   <ele>860.00</ele>
   <time>2014-03-31T08:49:22Z</time>
  </trkpt>
  <trkpt lat="33.679842" lon="-4.455940">
   <ele>862.00</ele>
   <time>2014-03-31T08:49:26Z</time>
  </trkpt>
  <trkpt lat="33.679718" lon="-4.455677">
   <ele>864.00</ele>
   <time>2014-03-31T08:49:29Z</time>
  </trkpt>
  <trkpt lat="33.679548" lon="-4.455429">
   <ele>867.00</ele>
   <time>2014-03-31T08:49:32Z</time>
  </trkpt>
  <trkpt lat="33.679422" lon="-4.455267">
   <ele>868.00</ele>
   <time>2014-03-31T08:49:34Z</time>
  </trkpt>
  <trkpt lat="33.679281" lon="-4.455117">
   <ele>870.00</ele>
   <time>2014-03-31T08:49:36Z</time>
  </trkpt>
  <trkpt lat="33.679120" lon="-4.454991">
   <ele>873.00</ele>
   <time>2014-03-31T08:49:38Z</time>
  </trkpt>
  <trkpt lat="33.678945" lon="-4.454897">
   <ele>875.00</ele>
   <time>2014-03-31T08:49:40Z</time>
  </trkpt>
  <trkpt lat="33.678759" lon="-4.454832">
   <ele>877.00</ele>
   <time>2014-03-31T08:49:42Z</time>
  </trkpt>
  <trkpt lat="33.678565" lon="-4.454797">
   <ele>879.00</ele>
   <time>2014-03-31T08:49:44Z</time>
  </trkpt>
  <trkpt lat="33.678367" lon="-4.454789">
   <ele>881.00</ele>
   <time>2014-03-31T08:49:46Z</time>
  </trkpt>
  <trkpt lat="33.678174" lon="-4.454797">
   <ele>883.00</ele>
   <time>2014-03-31T08:49:48Z</time>
  </trkpt>
  <trkpt lat="33.677741" lon="-4.454826">
   <ele>887.00</ele>
   <time>2014-03-31T08:49:53Z</time>
  </trkpt>
  <trkpt lat="33.677561" lon="-4.454793">
   <ele>889.00</ele>
   <time>2014-03-31T08:49:56Z</time>
  </trkpt>
  <trkpt lat="33.677373" lon="-4.454679">
   <ele>891.00</ele>
   <time>2014-03-31T08:49:59Z</time>
  </trkpt>
  <trkpt lat="33.677155" lon="-4.454518">
   <ele>892.00</ele>
   <time>2014-03-31T08:50:02Z</time>
  </trkpt>
  <trkpt lat="33.676938" lon="-4.454327">
   <ele>894.00</ele>
   <time>2014-03-31T08:50:05Z</time>
  </trkpt>
  <trkpt lat="33.676612" lon="-4.454005">
   <ele>896.00</ele>
   <time>2014-03-31T08:50:09Z</time>
  </trkpt>
  <trkpt lat="33.676277" lon="-4.453649">
   <ele>899.00</ele>
   <time>2014-03-31T08:50:13Z</time>
  </trkpt>
  <trkpt lat="33.676095" lon="-4.453458">
   <ele>900.00</ele>
   <time>2014-03-31T08:50:15Z</time>
  </trkpt>
  <trkpt lat="33.674763" lon="-4.452192">
   <ele>910.00</ele>
   <time>2014-03-31T08:50:28Z</time>
  </trkpt>
  <trkpt lat="33.672850" lon="-4.450445">
   <ele>925.00</ele>
   <time>2014-03-31T08:50:44Z</time>
  </trkpt>
  <trkpt lat="33.670934" lon="-4.448701">
   <ele>942.00</ele>
   <time>2014-03-31T08:50:59Z</time>
  </trkpt>
  <trkpt lat="33.669028" lon="-4.446965">
   <ele>965.00</ele>
   <time>2014-03-31T08:51:15Z</time>
  </trkpt>
  <trkpt lat="33.668834" lon="-4.446756">
   <ele>967.00</ele>
   <time>2014-03-31T08:51:17Z</time>
  </trkpt>
  <trkpt lat="33.668653" lon="-4.446514">
   <ele>969.00</ele>
   <time>2014-03-31T08:51:19Z</time>
  </trkpt>
  <trkpt lat="33.668290" lon="-4.445967">
   <ele>971.00</ele>
   <time>2014-03-31T08:51:23Z</time>
  </trkpt>
  <trkpt lat="33.667573" lon="-4.444829">
   <ele>976.00</ele>
   <time>2014-03-31T08:51:31Z</time>
  </trkpt>
  <trkpt lat="33.667305" lon="-4.444468">
   <ele>977.00</ele>
   <time>2014-03-31T08:51:34Z</time>
  </trkpt>
  <trkpt lat="33.666960" lon="-4.444044">
   <ele>979.00</ele>
   <time>2014-03-31T08:51:38Z</time>
  </trkpt>
  <trkpt lat="33.666774" lon="-4.443855">
   <ele>980.00</ele>
   <time>2014-03-31T08:51:40Z</time>
  </trkpt>
  <trkpt lat="33.666490" lon="-4.443557">
   <ele>983.00</ele>
   <time>2014-03-31T08:51:43Z</time>
  </trkpt>
  <trkpt lat="33.666306" lon="-4.443341">
   <ele>985.00</ele>
   <time>2014-03-31T08:51:45Z</time>
  </trkpt>
  <trkpt lat="33.666123" lon="-4.443121">
   <ele>987.00</ele>
   <time>2014-03-31T08:51:47Z</time>
  </trkpt>
  <trkpt lat="33.665912" lon="-4.442932">
   <ele>989.00</ele>
   <time>2014-03-31T08:51:49Z</time>
  </trkpt>
  <trkpt lat="33.665674" lon="-4.442804">
   <ele>991.00</ele>
   <time>2014-03-31T08:51:51Z</time>
  </trkpt>
  <trkpt lat="33.665421" lon="-4.442774">
   <ele>994.00</ele>
   <time>2014-03-31T08:51:53Z</time>
  </trkpt>
  <trkpt lat="33.665174" lon="-4.442825">
   <ele>996.00</ele>
   <time>2014-03-31T08:51:55Z</time>
  </trkpt>
  <trkpt lat="33.664946" lon="-4.442960">
   <ele>997.00</ele>
   <time>2014-03-31T08:51:57Z</time>
  </trkpt>
  <trkpt lat="33.664740" lon="-4.443156">
   <ele>999.00</ele>
   <time>2014-03-31T08:51:59Z</time>
  </trkpt>
  <trkpt lat="33.664529" lon="-4.443362">
   <ele>1000.00</ele>
   <time>2014-03-31T08:52:01Z</time>
  </trkpt>
  <trkpt lat="33.664294" lon="-4.443550">
   <ele>1001.00</ele>
   <time>2014-03-31T08:52:03Z</time>
  </trkpt>
  <trkpt lat="33.663487" lon="-4.444151">
   <ele>1007.00</ele>
   <time>2014-03-31T08:52:10Z</time>
  </trkpt>
  <trkpt lat="33.663278" lon="-4.444235">
   <ele>1009.00</ele>
   <time>2014-03-31T08:52:12Z</time>
  </trkpt>
  <trkpt lat="33.663081" lon="-4.444213">
   <ele>1011.00</ele>
   <time>2014-03-31T08:52:14Z</time>
  </trkpt>
  <trkpt lat="33.662912" lon="-4.444116">
   <ele>1012.00</ele>
   <time>2014-03-31T08:52:16Z</time>
  </trkpt>
  <trkpt lat="33.662778" lon="-4.443949">
   <ele>1013.00</ele>
   <time>2014-03-31T08:52:18Z</time>
  </trkpt>
  <trkpt lat="33.662714" lon="-4.443724">
   <ele>1015.00</ele>
   <time>2014-03-31T08:52:20Z</time>
  </trkpt>
  <trkpt lat="33.662705" lon="-4.443466">
   <ele>1017.00</ele>
   <time>2014-03-31T08:52:22Z</time>
  </trkpt>
  <trkpt lat="33.662727" lon="-4.443190">
   <ele>1019.00</ele>
   <time>2014-03-31T08:52:24Z</time>
  </trkpt>
  <trkpt lat="33.662965" lon="-4.440746">
   <ele>1035.00</ele>
   <time>2014-03-31T08:52:39Z</time>
  </trkpt>
  <trkpt lat="33.663042" lon="-4.439005">
   <ele>1047.00</ele>
   <time>2014-03-31T08:52:49Z</time>
  </trkpt>
  <trkpt lat="33.663094" lon="-4.438653">
   <ele>1049.00</ele>
   <time>2014-03-31T08:52:51Z</time>
  </trkpt>
  <trkpt lat="33.663206" lon="-4.438101">
   <ele>1051.00</ele>
   <time>2014-03-31T08:52:54Z</time>
  </trkpt>
  <trkpt lat="33.663710" lon="-4.435687">
   <ele>1064.00</ele>
   <time>2014-03-31T08:53:07Z</time>
  </trkpt>
  <trkpt lat="33.663705" lon="-4.435359">
   <ele>1066.00</ele>
   <time>2014-03-31T08:53:09Z</time>
  </trkpt>
  <trkpt lat="33.663638" lon="-4.435043">
   <ele>1068.00</ele>
   <time>2014-03-31T08:53:11Z</time>
  </trkpt>
  <trkpt lat="33.663521" lon="-4.434751">
   <ele>1070.00</ele>
   <time>2014-03-31T08:53:13Z</time>
  </trkpt>
  <trkpt lat="33.663357" lon="-4.434484">
   <ele>1071.00</ele>
   <time>2014-03-31T08:53:15Z</time>
  </trkpt>
  <trkpt lat="33.663160" lon="-4.434232">
   <ele>1073.00</ele>
   <time>2014-03-31T08:53:17Z</time>
  </trkpt>
  <trkpt lat="33.662937" lon="-4.434001">
   <ele>1075.00</ele>
   <time>2014-03-31T08:53:19Z</time>
  </trkpt>
  <trkpt lat="33.661566" lon="-4.432642">
   <ele>1089.00</ele>
   <time>2014-03-31T08:53:31Z</time>
  </trkpt>
  <trkpt lat="33.661345" lon="-4.432478">
   <ele>1092.00</ele>
   <time>2014-03-31T08:53:33Z</time>
  </trkpt>
  <trkpt lat="33.661101" lon="-4.432383">
   <ele>1094.00</ele>
   <time>2014-03-31T08:53:35Z</time>
  </trkpt>
  <trkpt lat="33.660840" lon="-4.432364">
   <ele>1096.00</ele>
   <time>2014-03-31T08:53:37Z</time>
  </trkpt>
  <trkpt lat="33.660577" lon="-4.432402">
   <ele>1097.00</ele>
   <time>2014-03-31T08:53:39Z</time>
  </trkpt>
  <trkpt lat="33.660317" lon="-4.432482">
   <ele>1099.00</ele>
   <time>2014-03-31T08:53:41Z</time>
  </trkpt>
  <trkpt lat="33.660069" lon="-4.432639">
   <ele>1100.00</ele>
   <time>2014-03-31T08:53:43Z</time>
  </trkpt>
  <trkpt lat="33.659821" lon="-4.432843">
   <ele>1100.00</ele>
   <time>2014-03-31T08:53:45Z</time>
  </trkpt>
  <trkpt lat="33.659183" lon="-4.433395">
   <ele>1102.00</ele>
   <time>2014-03-31T08:53:50Z</time>
  </trkpt>
  <trkpt lat="33.658946" lon="-4.433635">
   <ele>1103.00</ele>
   <time>2014-03-31T08:53:52Z</time>
  </trkpt>
  <trkpt lat="33.658753" lon="-4.433909">
   <ele>1104.00</ele>
   <time>2014-03-31T08:53:54Z</time>
  </trkpt>
  <trkpt lat="33.658619" lon="-4.434197">
   <ele>1105.00</ele>
   <time>2014-03-31T08:53:56Z</time>
  </trkpt>
  <trkpt lat="33.658487" lon="-4.434454">
   <ele>1106.00</ele>
   <time>2014-03-31T08:53:58Z</time>
  </trkpt>
  <trkpt lat="33.658306" lon="-4.434640">
   <ele>1107.00</ele>
   <time>2014-03-31T08:54:00Z</time>
  </trkpt>
  <trkpt lat="33.658084" lon="-4.434771">
   <ele>1108.00</ele>
   <time>2014-03-31T08:54:02Z</time>
  </trkpt>
  <trkpt lat="33.657472" lon="-4.435084">
   <ele>1111.00</ele>
   <time>2014-03-31T08:54:07Z</time>
  </trkpt>
  <trkpt lat="33.656830" lon="-4.435475">
   <ele>1114.00</ele>
   <time>2014-03-31T08:54:12Z</time>
  </trkpt>
  <trkpt lat="33.655729" lon="-4.436068">
   <ele>1119.00</ele>
   <time>2014-03-31T08:54:20Z</time>
  </trkpt>
  <trkpt lat="33.655478" lon="-4.436247">
   <ele>1121.00</ele>
   <time>2014-03-31T08:54:22Z</time>
  </trkpt>
  <trkpt lat="33.655259" lon="-4.436469">
   <ele>1123.00</ele>
   <time>2014-03-31T08:54:24Z</time>
  </trkpt>
  <trkpt lat="33.655078" lon="-4.436735">
   <ele>1125.00</ele>
   <time>2014-03-31T08:54:26Z</time>
  </trkpt>
  <trkpt lat="33.654922" lon="-4.437030">
   <ele>1127.00</ele>
   <time>2014-03-31T08:54:28Z</time>
  </trkpt>
  <trkpt lat="33.654760" lon="-4.437326">
   <ele>1129.00</ele>
   <time>2014-03-31T08:54:30Z</time>
  </trkpt>
  <trkpt lat="33.654579" lon="-4.437606">
   <ele>1131.00</ele>
   <time>2014-03-31T08:54:32Z</time>
  </trkpt>
  <trkpt lat="33.654387" lon="-4.437872">
   <ele>1133.00</ele>
   <time>2014-03-31T08:54:34Z</time>
  </trkpt>
  <trkpt lat="33.654180" lon="-4.438104">
   <ele>1136.00</ele>
   <time>2014-03-31T08:54:36Z</time>
  </trkpt>
  <trkpt lat="33.653951" lon="-4.438298">
   <ele>1138.00</ele>
   <time>2014-03-31T08:54:38Z</time>
  </trkpt>
  <trkpt lat="33.653700" lon="-4.438468">
   <ele>1140.00</ele>
   <time>2014-03-31T08:54:40Z</time>
  </trkpt>
  <trkpt lat="33.652905" lon="-4.438964">
   <ele>1146.00</ele>
   <time>2014-03-31T08:54:46Z</time>
  </trkpt>
  <trkpt lat="33.652144" lon="-4.439485">
   <ele>1153.00</ele>
   <time>2014-03-31T08:54:52Z</time>
  </trkpt>
  <trkpt lat="33.651892" lon="-4.439637">
   <ele>1155.00</ele>
   <time>2014-03-31T08:54:54Z</time>
  </trkpt>
  <trkpt lat="33.651669" lon="-4.439835">
   <ele>1158.00</ele>
   <time>2014-03-31T08:54:56Z</time>
  </trkpt>
  <trkpt lat="33.651476" lon="-4.440085">
   <ele>1160.00</ele>
   <time>2014-03-31T08:54:58Z</time>
  </trkpt>
  <trkpt lat="33.651195" lon="-4.440482">
   <ele>1163.00</ele>
   <time>2014-03-31T08:55:01Z</time>
  </trkpt>
  <trkpt lat="33.650990" lon="-4.440724">
   <ele>1165.00</ele>
   <time>2014-03-31T08:55:03Z</time>
  </trkpt>
  <trkpt lat="33.650792" lon="-4.440960">
   <ele>1167.00</ele>
   <time>2014-03-31T08:55:05Z</time>
  </trkpt>
  <trkpt lat="33.650621" lon="-4.441209">
   <ele>1168.00</ele>
   <time>2014-03-31T08:55:07Z</time>
  </trkpt>
  <trkpt lat="33.650450" lon="-4.441441">
   <ele>1170.00</ele>
   <time>2014-03-31T08:55:09Z</time>
  </trkpt>
  <trkpt lat="33.650252" lon="-4.441636">
   <ele>1172.00</ele>
   <time>2014-03-31T08:55:11Z</time>
  </trkpt>
  <trkpt lat="33.650035" lon="-4.441806">
   <ele>1174.00</ele>
   <time>2014-03-31T08:55:13Z</time>
  </trkpt>
  <trkpt lat="33.649827" lon="-4.442000">
   <ele>1176.00</ele>
   <time>2014-03-31T08:55:15Z</time>
  </trkpt>
  <trkpt lat="33.649640" lon="-4.442229">
   <ele>1178.00</ele>
   <time>2014-03-31T08:55:17Z</time>
  </trkpt>
  <trkpt lat="33.649384" lon="-4.442578">
   <ele>1181.00</ele>
   <time>2014-03-31T08:55:20Z</time>
  </trkpt>
  <trkpt lat="33.649196" lon="-4.442776">
   <ele>1183.00</ele>
   <time>2014-03-31T08:55:22Z</time>
  </trkpt>
  <trkpt lat="33.649027" lon="-4.442990">
   <ele>1186.00</ele>
   <time>2014-03-31T08:55:24Z</time>
  </trkpt>
  <trkpt lat="33.648916" lon="-4.443226">
   <ele>1188.00</ele>
   <time>2014-03-31T08:55:26Z</time>
  </trkpt>
  <trkpt lat="33.648789" lon="-4.443578">
   <ele>1191.00</ele>
   <time>2014-03-31T08:55:29Z</time>
  </trkpt>
  <trkpt lat="33.648695" lon="-4.443811">
   <ele>1194.00</ele>
   <time>2014-03-31T08:55:31Z</time>
  </trkpt>
  <trkpt lat="33.648566" lon="-4.444007">
   <ele>1196.00</ele>
   <time>2014-03-31T08:55:33Z</time>
  </trkpt>
  <trkpt lat="33.648407" lon="-4.444137">
   <ele>1198.00</ele>
   <time>2014-03-31T08:55:35Z</time>
  </trkpt>
  <trkpt lat="33.648223" lon="-4.444195">
   <ele>1199.00</ele>
   <time>2014-03-31T08:55:37Z</time>
  </trkpt>
  <trkpt lat="33.648022" lon="-4.444178">
   <ele>1199.00</ele>
   <time>2014-03-31T08:55:39Z</time>
  </trkpt>
  <trkpt lat="33.647811" lon="-4.444099">
   <ele>1200.00</ele>
   <time>2014-03-31T08:55:41Z</time>
  </trkpt>
  <trkpt lat="33.647591" lon="-4.443987">
   <ele>1200.00</ele>
   <time>2014-03-31T08:55:43Z</time>
  </trkpt>
  <trkpt lat="33.647374" lon="-4.443854">
   <ele>1199.00</ele>
   <time>2014-03-31T08:55:45Z</time>
  </trkpt>
  <trkpt lat="33.647151" lon="-4.443721">
   <ele>1198.00</ele>
   <time>2014-03-31T08:55:47Z</time>
  </trkpt>
  <trkpt lat="33.646908" lon="-4.443618">
   <ele>1197.00</ele>
   <time>2014-03-31T08:55:49Z</time>
  </trkpt>
  <trkpt lat="33.646648" lon="-4.443574">
   <ele>1197.00</ele>
   <time>2014-03-31T08:55:51Z</time>
  </trkpt>
  <trkpt lat="33.645176" lon="-4.443449">
   <ele>1199.00</ele>
   <time>2014-03-31T08:56:03Z</time>
  </trkpt>
  <trkpt lat="33.643629" lon="-4.443234">
   <ele>1196.00</ele>
   <time>2014-03-31T08:56:15Z</time>
  </trkpt>
  <trkpt lat="33.643375" lon="-4.443139">
   <ele>1195.00</ele>
   <time>2014-03-31T08:56:17Z</time>
  </trkpt>
  <trkpt lat="33.643121" lon="-4.442991">
   <ele>1195.00</ele>
   <time>2014-03-31T08:56:19Z</time>
  </trkpt>
  <trkpt lat="33.642864" lon="-4.442822">
   <ele>1195.00</ele>
   <time>2014-03-31T08:56:21Z</time>
  </trkpt>
  <trkpt lat="33.640784" lon="-4.441385">
   <ele>1194.00</ele>
   <time>2014-03-31T08:56:36Z</time>
  </trkpt>
  <trkpt lat="33.638605" lon="-4.439890">
   <ele>1190.00</ele>
   <time>2014-03-31T08:56:52Z</time>
  </trkpt>
  <trkpt lat="33.637422" lon="-4.439098">
   <ele>1185.00</ele>
   <time>2014-03-31T08:57:01Z</time>
  </trkpt>
  <trkpt lat="33.637170" lon="-4.439001">
   <ele>1184.00</ele>
   <time>2014-03-31T08:57:03Z</time>
  </trkpt>
  <trkpt lat="33.636896" lon="-4.438968">
   <ele>1182.00</ele>
   <time>2014-03-31T08:57:05Z</time>
  </trkpt>
  <trkpt lat="33.634652" lon="-4.438907">
   <ele>1162.00</ele>
   <time>2014-03-31T08:57:21Z</time>
  </trkpt>
  <trkpt lat="33.634369" lon="-4.438849">
   <ele>1159.00</ele>
   <time>2014-03-31T08:57:23Z</time>
  </trkpt>
  <trkpt lat="33.633553" lon="-4.438645">
   <ele>1151.00</ele>
   <time>2014-03-31T08:57:29Z</time>
  </trkpt>
  <trkpt lat="33.633293" lon="-4.438639">
   <ele>1147.00</ele>
   <time>2014-03-31T08:57:31Z</time>
  </trkpt>
  <trkpt lat="33.633028" lon="-4.438719">
   <ele>1144.00</ele>
   <time>2014-03-31T08:57:33Z</time>
  </trkpt>
  <trkpt lat="33.632789" lon="-4.438909">
   <ele>1140.00</ele>
   <time>2014-03-31T08:57:35Z</time>
  </trkpt>
  <trkpt lat="33.632592" lon="-4.439171">
   <ele>1137.00</ele>
   <time>2014-03-31T08:57:37Z</time>
  </trkpt>
  <trkpt lat="33.632314" lon="-4.439579">
   <ele>1132.00</ele>
   <time>2014-03-31T08:57:40Z</time>
  </trkpt>
  <trkpt lat="33.632106" lon="-4.439818">
   <ele>1129.00</ele>
   <time>2014-03-31T08:57:42Z</time>
  </trkpt>
  <trkpt lat="33.631876" lon="-4.440013">
   <ele>1126.00</ele>
   <time>2014-03-31T08:57:44Z</time>
  </trkpt>
  <trkpt lat="33.631632" lon="-4.440168">
   <ele>1123.00</ele>
   <time>2014-03-31T08:57:46Z</time>
  </trkpt>
  <trkpt lat="33.631386" lon="-4.440281">
   <ele>1121.00</ele>
   <time>2014-03-31T08:57:48Z</time>
  </trkpt>
  <trkpt lat="33.629522" lon="-4.440981">
   <ele>1108.00</ele>
   <time>2014-03-31T08:58:04Z</time>
  </trkpt>
  <trkpt lat="33.627652" lon="-4.441675">
   <ele>1098.00</ele>
   <time>2014-03-31T08:58:20Z</time>
  </trkpt>
  <trkpt lat="33.627013" lon="-4.441930">
   <ele>1094.00</ele>
   <time>2014-03-31T08:58:26Z</time>
  </trkpt>
  <trkpt lat="33.626693" lon="-4.442065">
   <ele>1092.00</ele>
   <time>2014-03-31T08:58:29Z</time>
  </trkpt>
  <trkpt lat="33.626475" lon="-4.442139">
   <ele>1091.00</ele>
   <time>2014-03-31T08:58:31Z</time>
  </trkpt>
  <trkpt lat="33.626255" lon="-4.442190">
   <ele>1090.00</ele>
   <time>2014-03-31T08:58:33Z</time>
  </trkpt>
  <trkpt lat="33.626032" lon="-4.442221">
   <ele>1088.00</ele>
   <time>2014-03-31T08:58:35Z</time>
  </trkpt>
  <trkpt lat="33.625809" lon="-4.442237">
   <ele>1087.00</ele>
   <time>2014-03-31T08:58:37Z</time>
  </trkpt>
  <trkpt lat="33.625588" lon="-4.442216">
   <ele>1085.00</ele>
   <time>2014-03-31T08:58:39Z</time>
  </trkpt>
  <trkpt lat="33.625384" lon="-4.442151">
   <ele>1083.00</ele>
   <time>2014-03-31T08:58:41Z</time>
  </trkpt>
  <trkpt lat="33.625200" lon="-4.442070">
   <ele>1081.00</ele>
   <time>2014-03-31T08:58:43Z</time>
  </trkpt>
  <trkpt lat="33.624827" lon="-4.441905">
   <ele>1079.00</ele>
   <time>2014-03-31T08:58:47Z</time>
  </trkpt>
  <trkpt lat="33.624637" lon="-4.441857">
   <ele>1078.00</ele>
   <time>2014-03-31T08:58:49Z</time>
  </trkpt>
  <trkpt lat="33.624415" lon="-4.441845">
   <ele>1078.00</ele>
   <time>2014-03-31T08:58:52Z</time>
  </trkpt>
  <trkpt lat="33.624426" lon="-4.441981">
   <ele>1076.00</ele>
   <time>2014-03-31T08:59:02Z</time>
  </trkpt>
  <trkpt lat="33.624661" lon="-4.442047">
   <ele>1073.00</ele>
   <time>2014-03-31T08:59:06Z</time>
  </trkpt>
  <trkpt lat="33.624747" lon="-4.442232">
   <ele>1072.00</ele>
   <time>2014-03-31T08:59:09Z</time>
  </trkpt>
  <trkpt lat="33.624588" lon="-4.442369">
   <ele>1070.00</ele>
   <time>2014-03-31T08:59:12Z</time>
  </trkpt>
  <trkpt lat="33.624362" lon="-4.442416">
   <ele>1067.00</ele>
   <time>2014-03-31T08:59:15Z</time>
  </trkpt>
  <trkpt lat="33.624161" lon="-4.442598">
   <ele>1063.00</ele>
   <time>2014-03-31T08:59:18Z</time>
  </trkpt>
  <trkpt lat="33.623948" lon="-4.442841">
   <ele>1059.00</ele>
   <time>2014-03-31T08:59:21Z</time>
  </trkpt>
  <trkpt lat="33.623792" lon="-4.443019">
   <ele>1057.00</ele>
   <time>2014-03-31T08:59:23Z</time>
  </trkpt>
  <trkpt lat="33.623611" lon="-4.443173">
   <ele>1054.00</ele>
   <time>2014-03-31T08:59:25Z</time>
  </trkpt>
  <trkpt lat="33.623422" lon="-4.443317">
   <ele>1051.00</ele>
   <time>2014-03-31T08:59:27Z</time>
  </trkpt>
  <trkpt lat="33.623247" lon="-4.443465">
   <ele>1049.00</ele>
   <time>2014-03-31T08:59:29Z</time>
  </trkpt>
  <trkpt lat="33.623078" lon="-4.443608">
   <ele>1046.00</ele>
   <time>2014-03-31T08:59:31Z</time>
  </trkpt>
  <trkpt lat="33.622887" lon="-4.443720">
   <ele>1043.00</ele>
   <time>2014-03-31T08:59:33Z</time>
  </trkpt>
  <trkpt lat="33.622686" lon="-4.443789">
   <ele>1041.00</ele>
   <time>2014-03-31T08:59:35Z</time>
  </trkpt>
  <trkpt lat="33.622500" lon="-4.443847">
   <ele>1039.00</ele>
   <time>2014-03-31T08:59:37Z</time>
  </trkpt>
  <trkpt lat="33.622307" lon="-4.444044">
   <ele>1035.00</ele>
   <time>2014-03-31T08:59:40Z</time>
  </trkpt>
  <trkpt lat="33.622148" lon="-4.444306">
   <ele>1031.00</ele>
   <time>2014-03-31T08:59:43Z</time>
  </trkpt>
  <trkpt lat="33.621976" lon="-4.444409">
   <ele>1030.00</ele>
   <time>2014-03-31T08:59:45Z</time>
  </trkpt>
  <trkpt lat="33.621799" lon="-4.444500">
   <ele>1028.00</ele>
   <time>2014-03-31T08:59:47Z</time>
  </trkpt>
  <trkpt lat="33.621653" lon="-4.444642">
   <ele>1027.00</ele>
   <time>2014-03-31T08:59:49Z</time>
  </trkpt>
  <trkpt lat="33.621454" lon="-4.444887">
   <ele>1025.00</ele>
   <time>2014-03-31T08:59:52Z</time>
  </trkpt>
  <trkpt lat="33.621238" lon="-4.445115">
   <ele>1022.00</ele>
   <time>2014-03-31T08:59:55Z</time>
  </trkpt>
  <trkpt lat="33.621114" lon="-4.445301">
   <ele>1020.00</ele>
   <time>2014-03-31T08:59:57Z</time>
  </trkpt>
  <trkpt lat="33.620945" lon="-4.445619">
   <ele>1016.00</ele>
   <time>2014-03-31T09:00:00Z</time>
  </trkpt>
  <trkpt lat="33.620813" lon="-4.445806">
   <ele>1014.00</ele>
   <time>2014-03-31T09:00:02Z</time>
  </trkpt>
  <trkpt lat="33.620602" lon="-4.446061">
   <ele>1010.00</ele>
   <time>2014-03-31T09:00:05Z</time>
  </trkpt>
  <trkpt lat="33.620491" lon="-4.446248">
   <ele>1008.00</ele>
   <time>2014-03-31T09:00:07Z</time>
  </trkpt>
  <trkpt lat="33.620358" lon="-4.446482">
   <ele>1006.00</ele>
   <time>2014-03-31T09:00:10Z</time>
  </trkpt>
  <trkpt lat="33.620144" lon="-4.446555">
   <ele>1002.00</ele>
   <time>2014-03-31T09:00:14Z</time>
  </trkpt>
  <trkpt lat="33.619946" lon="-4.446424">
   <ele>1000.00</ele>
   <time>2014-03-31T09:00:17Z</time>
  </trkpt>
  <trkpt lat="33.619706" lon="-4.446292">
   <ele>999.00</ele>
   <time>2014-03-31T09:00:20Z</time>
  </trkpt>
  <trkpt lat="33.619538" lon="-4.446188">
   <ele>998.00</ele>
   <time>2014-03-31T09:00:22Z</time>
  </trkpt>
  <trkpt lat="33.619395" lon="-4.446045">
   <ele>998.00</ele>
   <time>2014-03-31T09:00:24Z</time>
  </trkpt>
  <trkpt lat="33.619293" lon="-4.445861">
   <ele>997.00</ele>
   <time>2014-03-31T09:00:26Z</time>
  </trkpt>
  <trkpt lat="33.619225" lon="-4.445654">
   <ele>997.00</ele>
   <time>2014-03-31T09:00:28Z</time>
  </trkpt>
  <trkpt lat="33.619222" lon="-4.445430">
   <ele>997.00</ele>
   <time>2014-03-31T09:00:30Z</time>
  </trkpt>
  <trkpt lat="33.619255" lon="-4.445196">
   <ele>997.00</ele>
   <time>2014-03-31T09:00:32Z</time>
  </trkpt>
  <trkpt lat="33.619234" lon="-4.444978">
   <ele>997.00</ele>
   <time>2014-03-31T09:00:34Z</time>
  </trkpt>
  <trkpt lat="33.619076" lon="-4.444725">
   <ele>998.00</ele>
   <time>2014-03-31T09:00:37Z</time>
  </trkpt>
  <trkpt lat="33.618905" lon="-4.444610">
   <ele>998.00</ele>
   <time>2014-03-31T09:00:39Z</time>
  </trkpt>
  <trkpt lat="33.618533" lon="-4.444401">
   <ele>1000.00</ele>
   <time>2014-03-31T09:00:43Z</time>
  </trkpt>
  <trkpt lat="33.618383" lon="-4.444266">
   <ele>1000.00</ele>
   <time>2014-03-31T09:00:45Z</time>
  </trkpt>
  <trkpt lat="33.618203" lon="-4.444040">
   <ele>999.00</ele>
   <time>2014-03-31T09:00:48Z</time>
  </trkpt>
  <trkpt lat="33.617985" lon="-4.443950">
   <ele>997.00</ele>
   <time>2014-03-31T09:00:51Z</time>
  </trkpt>
  <trkpt lat="33.617803" lon="-4.443964">
   <ele>996.00</ele>
   <time>2014-03-31T09:00:53Z</time>
  </trkpt>
  <trkpt lat="33.617616" lon="-4.443992">
   <ele>994.00</ele>
   <time>2014-03-31T09:00:55Z</time>
  </trkpt>
  <trkpt lat="33.617395" lon="-4.444116">
   <ele>992.00</ele>
   <time>2014-03-31T09:00:58Z</time>
  </trkpt>
  <trkpt lat="33.617275" lon="-4.444400">
   <ele>989.00</ele>
   <time>2014-03-31T09:01:01Z</time>
  </trkpt>
  <trkpt lat="33.617175" lon="-4.444769">
   <ele>986.00</ele>
   <time>2014-03-31T09:01:04Z</time>
  </trkpt>
  <trkpt lat="33.617078" lon="-4.445025">
   <ele>983.00</ele>
   <time>2014-03-31T09:01:06Z</time>
  </trkpt>
  <trkpt lat="33.616962" lon="-4.445282">
   <ele>981.00</ele>
   <time>2014-03-31T09:01:08Z</time>
  </trkpt>
  <trkpt lat="33.616817" lon="-4.445507">
   <ele>979.00</ele>
   <time>2014-03-31T09:01:10Z</time>
  </trkpt>
  <trkpt lat="33.616636" lon="-4.445696">
   <ele>976.00</ele>
   <time>2014-03-31T09:01:12Z</time>
  </trkpt>
  <trkpt lat="33.616276" lon="-4.446033">
   <ele>972.00</ele>
   <time>2014-03-31T09:01:16Z</time>
  </trkpt>
  <trkpt lat="33.616173" lon="-4.446245">
   <ele>970.00</ele>
   <time>2014-03-31T09:01:18Z</time>
  </trkpt>
  <trkpt lat="33.616152" lon="-4.446495">
   <ele>969.00</ele>
   <time>2014-03-31T09:01:20Z</time>
  </trkpt>
  <trkpt lat="33.616178" lon="-4.446869">
   <ele>968.00</ele>
   <time>2014-03-31T09:01:23Z</time>
  </trkpt>
  <trkpt lat="33.616133" lon="-4.447118">
   <ele>967.00</ele>
   <time>2014-03-31T09:01:25Z</time>
  </trkpt>
  <trkpt lat="33.616043" lon="-4.447367">
   <ele>965.00</ele>
   <time>2014-03-31T09:01:27Z</time>
  </trkpt>
  <trkpt lat="33.615955" lon="-4.447633">
   <ele>964.00</ele>
   <time>2014-03-31T09:01:29Z</time>
  </trkpt>
  <trkpt lat="33.615880" lon="-4.447914">
   <ele>962.00</ele>
   <time>2014-03-31T09:01:31Z</time>
  </trkpt>
  <trkpt lat="33.615696" lon="-4.448666">
   <ele>957.00</ele>
   <time>2014-03-31T09:01:36Z</time>
  </trkpt>
  <trkpt lat="33.615603" lon="-4.448967">
   <ele>955.00</ele>
   <time>2014-03-31T09:01:38Z</time>
  </trkpt>
  <trkpt lat="33.615373" lon="-4.449697">
   <ele>953.00</ele>
   <time>2014-03-31T09:01:43Z</time>
  </trkpt>
  <trkpt lat="33.615341" lon="-4.449984">
   <ele>952.00</ele>
   <time>2014-03-31T09:01:45Z</time>
  </trkpt>
  <trkpt lat="33.615353" lon="-4.450270">
   <ele>952.00</ele>
   <time>2014-03-31T09:01:47Z</time>
  </trkpt>
  <trkpt lat="33.615412" lon="-4.451235">
   <ele>948.00</ele>
   <time>2014-03-31T09:01:54Z</time>
  </trkpt>
  <trkpt lat="33.615354" lon="-4.451472">
   <ele>946.00</ele>
   <time>2014-03-31T09:01:56Z</time>
  </trkpt>
  <trkpt lat="33.615247" lon="-4.451706">
   <ele>945.00</ele>
   <time>2014-03-31T09:01:58Z</time>
  </trkpt>
  <trkpt lat="33.615014" lon="-4.452172">
   <ele>942.00</ele>
   <time>2014-03-31T09:02:02Z</time>
  </trkpt>
  <trkpt lat="33.614929" lon="-4.452427">
   <ele>941.00</ele>
   <time>2014-03-31T09:02:04Z</time>
  </trkpt>
  <trkpt lat="33.614909" lon="-4.452704">
   <ele>939.00</ele>
   <time>2014-03-31T09:02:06Z</time>
  </trkpt>
  <trkpt lat="33.614932" lon="-4.452989">
   <ele>938.00</ele>
   <time>2014-03-31T09:02:08Z</time>
  </trkpt>
  <trkpt lat="33.614953" lon="-4.453265">
   <ele>937.00</ele>
   <time>2014-03-31T09:02:10Z</time>
  </trkpt>
  <trkpt lat="33.614906" lon="-4.453519">
   <ele>936.00</ele>
   <time>2014-03-31T09:02:12Z</time>
  </trkpt>
  <trkpt lat="33.614804" lon="-4.453736">
   <ele>935.00</ele>
   <time>2014-03-31T09:02:14Z</time>
  </trkpt>
  <trkpt lat="33.614739" lon="-4.453965">
   <ele>935.00</ele>
   <time>2014-03-31T09:02:16Z</time>
  </trkpt>
  <trkpt lat="33.614668" lon="-4.454195">
   <ele>934.00</ele>
   <time>2014-03-31T09:02:18Z</time>
  </trkpt>
  <trkpt lat="33.614536" lon="-4.454398">
   <ele>934.00</ele>
   <time>2014-03-31T09:02:20Z</time>
  </trkpt>
  <trkpt lat="33.614372" lon="-4.454572">
   <ele>934.00</ele>
   <time>2014-03-31T09:02:22Z</time>
  </trkpt>
  <trkpt lat="33.614125" lon="-4.454802">
   <ele>933.00</ele>
   <time>2014-03-31T09:02:25Z</time>
  </trkpt>
  <trkpt lat="33.613986" lon="-4.454975">
   <ele>933.00</ele>
   <time>2014-03-31T09:02:27Z</time>
  </trkpt>
  <trkpt lat="33.613825" lon="-4.455088">
   <ele>932.00</ele>
   <time>2014-03-31T09:02:29Z</time>
  </trkpt>
  <trkpt lat="33.613641" lon="-4.455110">
   <ele>932.00</ele>
   <time>2014-03-31T09:02:31Z</time>
  </trkpt>
  <trkpt lat="33.613456" lon="-4.455174">
   <ele>932.00</ele>
   <time>2014-03-31T09:02:33Z</time>
  </trkpt>
  <trkpt lat="33.613288" lon="-4.455308">
   <ele>933.00</ele>
   <time>2014-03-31T09:02:35Z</time>
  </trkpt>
  <trkpt lat="33.613155" lon="-4.455503">
   <ele>933.00</ele>
   <time>2014-03-31T09:02:37Z</time>
  </trkpt>
  <trkpt lat="33.612850" lon="-4.456066">
   <ele>932.00</ele>
   <time>2014-03-31T09:02:42Z</time>
  </trkpt>
  <trkpt lat="33.612742" lon="-4.456298">
   <ele>932.00</ele>
   <time>2014-03-31T09:02:44Z</time>
  </trkpt>
  <trkpt lat="33.612666" lon="-4.456536">
   <ele>931.00</ele>
   <time>2014-03-31T09:02:46Z</time>
  </trkpt>
  <trkpt lat="33.612651" lon="-4.456792">
   <ele>930.00</ele>
   <time>2014-03-31T09:02:48Z</time>
  </trkpt>
  <trkpt lat="33.612683" lon="-4.457201">
   <ele>927.00</ele>
   <time>2014-03-31T09:02:51Z</time>
  </trkpt>
  <trkpt lat="33.612657" lon="-4.457472">
   <ele>927.00</ele>
   <time>2014-03-31T09:02:53Z</time>
  </trkpt>
  <trkpt lat="33.612657" lon="-4.457728">
   <ele>926.00</ele>
   <time>2014-03-31T09:02:55Z</time>
  </trkpt>
  <trkpt lat="33.612685" lon="-4.457968">
   <ele>925.00</ele>
   <time>2014-03-31T09:02:57Z</time>
  </trkpt>
  <trkpt lat="33.612650" lon="-4.458189">
   <ele>925.00</ele>
   <time>2014-03-31T09:02:59Z</time>
  </trkpt>
  <trkpt lat="33.612560" lon="-4.458395">
   <ele>924.00</ele>
   <time>2014-03-31T09:03:01Z</time>
  </trkpt>
  <trkpt lat="33.612462" lon="-4.458617">
   <ele>923.00</ele>
   <time>2014-03-31T09:03:03Z</time>
  </trkpt>
  <trkpt lat="33.612376" lon="-4.458861">
   <ele>922.00</ele>
   <time>2014-03-31T09:03:05Z</time>
  </trkpt>
  <trkpt lat="33.612243" lon="-4.459245">
   <ele>921.00</ele>
   <time>2014-03-31T09:03:08Z</time>
  </trkpt>
  <trkpt lat="33.612136" lon="-4.459499">
   <ele>920.00</ele>
   <time>2014-03-31T09:03:10Z</time>
  </trkpt>
  <trkpt lat="33.612012" lon="-4.459737">
   <ele>919.00</ele>
   <time>2014-03-31T09:03:12Z</time>
  </trkpt>
  <trkpt lat="33.611826" lon="-4.460087">
   <ele>916.00</ele>
   <time>2014-03-31T09:03:15Z</time>
  </trkpt>
  <trkpt lat="33.611675" lon="-4.460373">
   <ele>915.00</ele>
   <time>2014-03-31T09:03:18Z</time>
  </trkpt>
  <trkpt lat="33.611474" lon="-4.460441">
   <ele>913.00</ele>
   <time>2014-03-31T09:03:21Z</time>
  </trkpt>
  <trkpt lat="33.611242" lon="-4.460285">
   <ele>911.00</ele>
   <time>2014-03-31T09:03:24Z</time>
  </trkpt>
  <trkpt lat="33.610936" lon="-4.460062">
   <ele>909.00</ele>
   <time>2014-03-31T09:03:28Z</time>
  </trkpt>
  <trkpt lat="33.610756" lon="-4.459937">
   <ele>908.00</ele>
   <time>2014-03-31T09:03:32Z</time>
  </trkpt>
  <trkpt lat="33.610579" lon="-4.459823">
   <ele>908.00</ele>
   <time>2014-03-31T09:03:36Z</time>
  </trkpt>
  <trkpt lat="33.610424" lon="-4.459704">
   <ele>908.00</ele>
   <time>2014-03-31T09:03:39Z</time>
  </trkpt>
  <trkpt lat="33.610113" lon="-4.459495">
   <ele>907.00</ele>
   <time>2014-03-31T09:03:45Z</time>
  </trkpt>
  <trkpt lat="33.609830" lon="-4.459281">
   <ele>907.00</ele>
   <time>2014-03-31T09:03:50Z</time>
  </trkpt>
  <trkpt lat="33.609547" lon="-4.459095">
   <ele>906.00</ele>
   <time>2014-03-31T09:03:54Z</time>
  </trkpt>
  <trkpt lat="33.609146" lon="-4.458803">
   <ele>906.00</ele>
   <time>2014-03-31T09:03:59Z</time>
  </trkpt>
  <trkpt lat="33.608900" lon="-4.458645">
   <ele>906.00</ele>
   <time>2014-03-31T09:04:02Z</time>
  </trkpt>
  <trkpt lat="33.608678" lon="-4.458458">
   <ele>906.00</ele>
   <time>2014-03-31T09:04:05Z</time>
  </trkpt>
  <trkpt lat="33.608519" lon="-4.458326">
   <ele>906.00</ele>
   <time>2014-03-31T09:04:07Z</time>
  </trkpt>
  <trkpt lat="33.608353" lon="-4.458202">
   <ele>906.00</ele>
   <time>2014-03-31T09:04:09Z</time>
  </trkpt>
  <trkpt lat="33.608187" lon="-4.458075">
   <ele>906.00</ele>
   <time>2014-03-31T09:04:11Z</time>
  </trkpt>
  <trkpt lat="33.607691" lon="-4.457661">
   <ele>908.00</ele>
   <time>2014-03-31T09:04:17Z</time>
  </trkpt>
  <trkpt lat="33.607543" lon="-4.457517">
   <ele>909.00</ele>
   <time>2014-03-31T09:04:19Z</time>
  </trkpt>
  <trkpt lat="33.607390" lon="-4.457265">
   <ele>911.00</ele>
   <time>2014-03-31T09:04:22Z</time>
  </trkpt>
  <trkpt lat="33.607349" lon="-4.456969">
   <ele>912.00</ele>
   <time>2014-03-31T09:04:25Z</time>
  </trkpt>
  <trkpt lat="33.607269" lon="-4.456700">
   <ele>914.00</ele>
   <time>2014-03-31T09:04:28Z</time>
  </trkpt>
  <trkpt lat="33.607060" lon="-4.456523">
   <ele>915.00</ele>
   <time>2014-03-31T09:04:31Z</time>
  </trkpt>
  <trkpt lat="33.606808" lon="-4.456461">
   <ele>916.00</ele>
   <time>2014-03-31T09:04:34Z</time>
  </trkpt>
  <trkpt lat="33.606561" lon="-4.456586">
   <ele>918.00</ele>
   <time>2014-03-31T09:04:37Z</time>
  </trkpt>
  <trkpt lat="33.606398" lon="-4.456721">
   <ele>919.00</ele>
   <time>2014-03-31T09:04:39Z</time>
  </trkpt>
  <trkpt lat="33.606203" lon="-4.456815">
   <ele>921.00</ele>
   <time>2014-03-31T09:04:41Z</time>
  </trkpt>
  <trkpt lat="33.606000" lon="-4.456910">
   <ele>923.00</ele>
   <time>2014-03-31T09:04:43Z</time>
  </trkpt>
  <trkpt lat="33.605810" lon="-4.457049">
   <ele>925.00</ele>
   <time>2014-03-31T09:04:45Z</time>
  </trkpt>
  <trkpt lat="33.605443" lon="-4.457349">
   <ele>928.00</ele>
   <time>2014-03-31T09:04:49Z</time>
  </trkpt>
  <trkpt lat="33.605287" lon="-4.457514">
   <ele>929.00</ele>
   <time>2014-03-31T09:04:51Z</time>
  </trkpt>
  <trkpt lat="33.605144" lon="-4.457727">
   <ele>931.00</ele>
   <time>2014-03-31T09:04:54Z</time>
  </trkpt>
  <trkpt lat="33.605059" lon="-4.457919">
   <ele>932.00</ele>
   <time>2014-03-31T09:04:59Z</time>
  </trkpt>
  <trkpt lat="33.604965" lon="-4.458111">
   <ele>934.00</ele>
   <time>2014-03-31T09:05:05Z</time>
  </trkpt>
  <trkpt lat="33.604839" lon="-4.458345">
   <ele>934.00</ele>
   <time>2014-03-31T09:05:16Z</time>
  </trkpt>
  <trkpt lat="33.604743" lon="-4.458538">
   <ele>934.00</ele>
   <time>2014-03-31T09:05:19Z</time>
  </trkpt>
  <trkpt lat="33.604631" lon="-4.458808">
   <ele>934.00</ele>
   <time>2014-03-31T09:05:22Z</time>
  </trkpt>
  <trkpt lat="33.604492" lon="-4.459212">
   <ele>933.00</ele>
   <time>2014-03-31T09:05:26Z</time>
  </trkpt>
  <trkpt lat="33.604405" lon="-4.459501">
   <ele>932.00</ele>
   <time>2014-03-31T09:05:29Z</time>
  </trkpt>
  <trkpt lat="33.604272" lon="-4.459750">
   <ele>931.00</ele>
   <time>2014-03-31T09:05:32Z</time>
  </trkpt>
  <trkpt lat="33.604149" lon="-4.459916">
   <ele>929.00</ele>
   <time>2014-03-31T09:05:34Z</time>
  </trkpt>
  <trkpt lat="33.603668" lon="-4.460565">
   <ele>924.00</ele>
   <time>2014-03-31T09:05:41Z</time>
  </trkpt>
  <trkpt lat="33.603548" lon="-4.460773">
   <ele>923.00</ele>
   <time>2014-03-31T09:05:43Z</time>
  </trkpt>
  <trkpt lat="33.603445" lon="-4.460992">
   <ele>922.00</ele>
   <time>2014-03-31T09:05:45Z</time>
  </trkpt>
  <trkpt lat="33.603353" lon="-4.461211">
   <ele>922.00</ele>
   <time>2014-03-31T09:05:47Z</time>
  </trkpt>
  <trkpt lat="33.603193" lon="-4.461622">
   <ele>921.00</ele>
   <time>2014-03-31T09:05:51Z</time>
  </trkpt>
  <trkpt lat="33.603102" lon="-4.461922">
   <ele>921.00</ele>
   <time>2014-03-31T09:05:54Z</time>
  </trkpt>
  <trkpt lat="33.603004" lon="-4.462209">
   <ele>921.00</ele>
   <time>2014-03-31T09:05:57Z</time>
  </trkpt>
  <trkpt lat="33.602847" lon="-4.462424">
   <ele>920.00</ele>
   <time>2014-03-31T09:06:00Z</time>
  </trkpt>
  <trkpt lat="33.602626" lon="-4.462581">
   <ele>918.00</ele>
   <time>2014-03-31T09:06:03Z</time>
  </trkpt>
  <trkpt lat="33.602458" lon="-4.462682">
   <ele>916.00</ele>
   <time>2014-03-31T09:06:05Z</time>
  </trkpt>
  <trkpt lat="33.602008" lon="-4.462942">
   <ele>912.00</ele>
   <time>2014-03-31T09:06:10Z</time>
  </trkpt>
  <trkpt lat="33.601857" lon="-4.463073">
   <ele>911.00</ele>
   <time>2014-03-31T09:06:12Z</time>
  </trkpt>
  <trkpt lat="33.601754" lon="-4.463249">
   <ele>909.00</ele>
   <time>2014-03-31T09:06:14Z</time>
  </trkpt>
  <trkpt lat="33.601691" lon="-4.463456">
   <ele>908.00</ele>
   <time>2014-03-31T09:06:16Z</time>
  </trkpt>
  <trkpt lat="33.601622" lon="-4.463667">
   <ele>906.00</ele>
   <time>2014-03-31T09:06:18Z</time>
  </trkpt>
  <trkpt lat="33.601533" lon="-4.463875">
   <ele>905.00</ele>
   <time>2014-03-31T09:06:20Z</time>
  </trkpt>
  <trkpt lat="33.601407" lon="-4.464056">
   <ele>904.00</ele>
   <time>2014-03-31T09:06:22Z</time>
  </trkpt>
  <trkpt lat="33.601252" lon="-4.464208">
   <ele>902.00</ele>
   <time>2014-03-31T09:06:24Z</time>
  </trkpt>
  <trkpt lat="33.601012" lon="-4.464445">
   <ele>900.00</ele>
   <time>2014-03-31T09:06:27Z</time>
  </trkpt>
  <trkpt lat="33.600858" lon="-4.464626">
   <ele>898.00</ele>
   <time>2014-03-31T09:06:29Z</time>
  </trkpt>
  <trkpt lat="33.600716" lon="-4.464829">
   <ele>896.00</ele>
   <time>2014-03-31T09:06:31Z</time>
  </trkpt>
  <trkpt lat="33.600591" lon="-4.465054">
   <ele>895.00</ele>
   <time>2014-03-31T09:06:33Z</time>
  </trkpt>
  <trkpt lat="33.600243" lon="-4.465771">
   <ele>892.00</ele>
   <time>2014-03-31T09:06:39Z</time>
  </trkpt>
  <trkpt lat="33.600138" lon="-4.466020">
   <ele>891.00</ele>
   <time>2014-03-31T09:06:41Z</time>
  </trkpt>
  <trkpt lat="33.600056" lon="-4.466285">
   <ele>890.00</ele>
   <time>2014-03-31T09:06:43Z</time>
  </trkpt>
  <trkpt lat="33.599951" lon="-4.466675">
   <ele>889.00</ele>
   <time>2014-03-31T09:06:46Z</time>
  </trkpt>
  <trkpt lat="33.599853" lon="-4.466904">
   <ele>889.00</ele>
   <time>2014-03-31T09:06:48Z</time>
  </trkpt>
  <trkpt lat="33.599707" lon="-4.467079">
   <ele>888.00</ele>
   <time>2014-03-31T09:06:50Z</time>
  </trkpt>
  <trkpt lat="33.599532" lon="-4.467190">
   <ele>887.00</ele>
   <time>2014-03-31T09:06:52Z</time>
  </trkpt>
  <trkpt lat="33.599322" lon="-4.467245">
   <ele>887.00</ele>
   <time>2014-03-31T09:06:55Z</time>
  </trkpt>
  <trkpt lat="33.599100" lon="-4.467250">
   <ele>887.00</ele>
   <time>2014-03-31T09:07:01Z</time>
  </trkpt>
  <trkpt lat="33.598827" lon="-4.467251">
   <ele>887.00</ele>
   <time>2014-03-31T09:07:06Z</time>
  </trkpt>
  <trkpt lat="33.598605" lon="-4.467325">
   <ele>887.00</ele>
   <time>2014-03-31T09:07:10Z</time>
  </trkpt>
  <trkpt lat="33.598252" lon="-4.467481">
   <ele>887.00</ele>
   <time>2014-03-31T09:07:16Z</time>
  </trkpt>
  <trkpt lat="33.597805" lon="-4.467696">
   <ele>888.00</ele>
   <time>2014-03-31T09:07:23Z</time>
  </trkpt>
  <trkpt lat="33.597603" lon="-4.467756">
   <ele>889.00</ele>
   <time>2014-03-31T09:07:26Z</time>
  </trkpt>
  <trkpt lat="33.597382" lon="-4.467762">
   <ele>890.00</ele>
   <time>2014-03-31T09:07:29Z</time>
  </trkpt>
  <trkpt lat="33.597131" lon="-4.467653">
   <ele>891.00</ele>
   <time>2014-03-31T09:07:32Z</time>
  </trkpt>
  <trkpt lat="33.596991" lon="-4.467511">
   <ele>892.00</ele>
   <time>2014-03-31T09:07:34Z</time>
  </trkpt>
  <trkpt lat="33.596112" lon="-4.466529">
   <ele>894.00</ele>
   <time>2014-03-31T09:07:44Z</time>
  </trkpt>
  <trkpt lat="33.595896" lon="-4.466368">
   <ele>894.00</ele>
   <time>2014-03-31T09:07:46Z</time>
  </trkpt>
  <trkpt lat="33.595663" lon="-4.466268">
   <ele>895.00</ele>
   <time>2014-03-31T09:07:48Z</time>
  </trkpt>
  <trkpt lat="33.595332" lon="-4.466143">
   <ele>896.00</ele>
   <time>2014-03-31T09:07:51Z</time>
  </trkpt>
  <trkpt lat="33.595140" lon="-4.466000">
   <ele>896.00</ele>
   <time>2014-03-31T09:07:53Z</time>
  </trkpt>
  <trkpt lat="33.594968" lon="-4.465811">
   <ele>896.00</ele>
   <time>2014-03-31T09:07:55Z</time>
  </trkpt>
  <trkpt lat="33.594802" lon="-4.465600">
   <ele>897.00</ele>
   <time>2014-03-31T09:07:57Z</time>
  </trkpt>
  <trkpt lat="33.594649" lon="-4.465369">
   <ele>897.00</ele>
   <time>2014-03-31T09:07:59Z</time>
  </trkpt>
  <trkpt lat="33.594514" lon="-4.465110">
   <ele>897.00</ele>
   <time>2014-03-31T09:08:01Z</time>
  </trkpt>
  <trkpt lat="33.594390" lon="-4.464825">
   <ele>898.00</ele>
   <time>2014-03-31T09:08:03Z</time>
  </trkpt>
  <trkpt lat="33.594201" lon="-4.464374">
   <ele>898.00</ele>
   <time>2014-03-31T09:08:06Z</time>
  </trkpt>
  <trkpt lat="33.594055" lon="-4.464090">
   <ele>899.00</ele>
   <time>2014-03-31T09:08:08Z</time>
  </trkpt>
  <trkpt lat="33.593892" lon="-4.463825">
   <ele>900.00</ele>
   <time>2014-03-31T09:08:10Z</time>
  </trkpt>
  <trkpt lat="33.593729" lon="-4.463545">
   <ele>901.00</ele>
   <time>2014-03-31T09:08:12Z</time>
  </trkpt>
  <trkpt lat="33.593603" lon="-4.463227">
   <ele>903.00</ele>
   <time>2014-03-31T09:08:14Z</time>
  </trkpt>
  <trkpt lat="33.593505" lon="-4.462877">
   <ele>906.00</ele>
   <time>2014-03-31T09:08:16Z</time>
  </trkpt>
  <trkpt lat="33.593407" lon="-4.462520">
   <ele>910.00</ele>
   <time>2014-03-31T09:08:18Z</time>
  </trkpt>
  <trkpt lat="33.593278" lon="-4.462171">
   <ele>913.00</ele>
   <time>2014-03-31T09:08:20Z</time>
  </trkpt>
  <trkpt lat="33.592930" lon="-4.461353">
   <ele>922.00</ele>
   <time>2014-03-31T09:08:25Z</time>
  </trkpt>
  <trkpt lat="33.592795" lon="-4.461116">
   <ele>925.00</ele>
   <time>2014-03-31T09:08:27Z</time>
  </trkpt>
  <trkpt lat="33.592624" lon="-4.461006">
   <ele>928.00</ele>
   <time>2014-03-31T09:08:29Z</time>
  </trkpt>
  <trkpt lat="33.592387" lon="-4.461125">
   <ele>930.00</ele>
   <time>2014-03-31T09:08:32Z</time>
  </trkpt>
  <trkpt lat="33.592240" lon="-4.461250">
   <ele>931.00</ele>
   <time>2014-03-31T09:08:34Z</time>
  </trkpt>
  <trkpt lat="33.592012" lon="-4.461217">
   <ele>933.00</ele>
   <time>2014-03-31T09:08:37Z</time>
  </trkpt>
  <trkpt lat="33.591800" lon="-4.461006">
   <ele>935.00</ele>
   <time>2014-03-31T09:08:40Z</time>
  </trkpt>
  <trkpt lat="33.591563" lon="-4.460763">
   <ele>938.00</ele>
   <time>2014-03-31T09:08:43Z</time>
  </trkpt>
  <trkpt lat="33.591443" lon="-4.460582">
   <ele>940.00</ele>
   <time>2014-03-31T09:08:45Z</time>
  </trkpt>
  <trkpt lat="33.591363" lon="-4.460277">
   <ele>941.00</ele>
   <time>2014-03-31T09:08:48Z</time>
  </trkpt>
  <trkpt lat="33.591334" lon="-4.460046">
   <ele>942.00</ele>
   <time>2014-03-31T09:08:50Z</time>
  </trkpt>
  <trkpt lat="33.591227" lon="-4.459034">
   <ele>946.00</ele>
   <time>2014-03-31T09:08:57Z</time>
  </trkpt>
  <trkpt lat="33.591172" lon="-4.458740">
   <ele>947.00</ele>
   <time>2014-03-31T09:08:59Z</time>
  </trkpt>
  <trkpt lat="33.591096" lon="-4.458456">
   <ele>947.00</ele>
   <time>2014-03-31T09:09:01Z</time>
  </trkpt>
  <trkpt lat="33.590943" lon="-4.457872">
   <ele>946.00</ele>
   <time>2014-03-31T09:09:05Z</time>
  </trkpt>
  <trkpt lat="33.590906" lon="-4.457559">
   <ele>946.00</ele>
   <time>2014-03-31T09:09:07Z</time>
  </trkpt>
  <trkpt lat="33.590907" lon="-4.457243">
   <ele>946.00</ele>
   <time>2014-03-31T09:09:09Z</time>
  </trkpt>
  <trkpt lat="33.590918" lon="-4.456787">
   <ele>946.00</ele>
   <time>2014-03-31T09:09:12Z</time>
  </trkpt>
  <trkpt lat="33.590878" lon="-4.456505">
   <ele>946.00</ele>
   <time>2014-03-31T09:09:14Z</time>
  </trkpt>
  <trkpt lat="33.590766" lon="-4.456250">
   <ele>946.00</ele>
   <time>2014-03-31T09:09:16Z</time>
  </trkpt>
  <trkpt lat="33.590599" lon="-4.456018">
   <ele>946.00</ele>
   <time>2014-03-31T09:09:18Z</time>
  </trkpt>
  <trkpt lat="33.590406" lon="-4.455802">
   <ele>946.00</ele>
   <time>2014-03-31T09:09:20Z</time>
  </trkpt>
  <trkpt lat="33.589664" lon="-4.454984">
   <ele>947.00</ele>
   <time>2014-03-31T09:09:28Z</time>
  </trkpt>
  <trkpt lat="33.589562" lon="-4.454758">
   <ele>947.00</ele>
   <time>2014-03-31T09:09:30Z</time>
  </trkpt>
  <trkpt lat="33.589499" lon="-4.454485">
   <ele>947.00</ele>
   <time>2014-03-31T09:09:32Z</time>
  </trkpt>
  <trkpt lat="33.589320" lon="-4.453710">
   <ele>950.00</ele>
   <time>2014-03-31T09:09:37Z</time>
  </trkpt>
  <trkpt lat="33.589224" lon="-4.453396">
   <ele>951.00</ele>
   <time>2014-03-31T09:09:39Z</time>
  </trkpt>
  <trkpt lat="33.589103" lon="-4.453088">
   <ele>953.00</ele>
   <time>2014-03-31T09:09:41Z</time>
  </trkpt>
  <trkpt lat="33.588861" lon="-4.452473">
   <ele>958.00</ele>
   <time>2014-03-31T09:09:45Z</time>
  </trkpt>
  <trkpt lat="33.588767" lon="-4.452162">
   <ele>960.00</ele>
   <time>2014-03-31T09:09:47Z</time>
  </trkpt>
  <trkpt lat="33.588699" lon="-4.451847">
   <ele>963.00</ele>
   <time>2014-03-31T09:09:49Z</time>
  </trkpt>
  <trkpt lat="33.588499" lon="-4.450907">
   <ele>967.00</ele>
   <time>2014-03-31T09:09:55Z</time>
  </trkpt>
  <trkpt lat="33.588417" lon="-4.450595">
   <ele>966.00</ele>
   <time>2014-03-31T09:09:57Z</time>
  </trkpt>
  <trkpt lat="33.588184" lon="-4.449751">
   <ele>962.00</ele>
   <time>2014-03-31T09:10:02Z</time>
  </trkpt>
  <trkpt lat="33.588058" lon="-4.449429">
   <ele>962.00</ele>
   <time>2014-03-31T09:10:04Z</time>
  </trkpt>
  <trkpt lat="33.587912" lon="-4.449129">
   <ele>962.00</ele>
   <time>2014-03-31T09:10:06Z</time>
  </trkpt>
  <trkpt lat="33.587456" lon="-4.448276">
   <ele>966.00</ele>
   <time>2014-03-31T09:10:12Z</time>
  </trkpt>
  <trkpt lat="33.587335" lon="-4.447963">
   <ele>968.00</ele>
   <time>2014-03-31T09:10:14Z</time>
  </trkpt>
  <trkpt lat="33.587248" lon="-4.447618">
   <ele>969.00</ele>
   <time>2014-03-31T09:10:16Z</time>
  </trkpt>
  <trkpt lat="33.586954" lon="-4.446185">
   <ele>975.00</ele>
   <time>2014-03-31T09:10:24Z</time>
  </trkpt>
  <trkpt lat="33.586840" lon="-4.445875">
   <ele>976.00</ele>
   <time>2014-03-31T09:10:26Z</time>
  </trkpt>
  <trkpt lat="33.586675" lon="-4.445585">
   <ele>977.00</ele>
   <time>2014-03-31T09:10:28Z</time>
  </trkpt>
  <trkpt lat="33.586313" lon="-4.444982">
   <ele>979.00</ele>
   <time>2014-03-31T09:10:32Z</time>
  </trkpt>
  <trkpt lat="33.586152" lon="-4.444673">
   <ele>981.00</ele>
   <time>2014-03-31T09:10:34Z</time>
  </trkpt>
  <trkpt lat="33.586030" lon="-4.444352">
   <ele>982.00</ele>
   <time>2014-03-31T09:10:36Z</time>
  </trkpt>
  <trkpt lat="33.585956" lon="-4.444020">
   <ele>983.00</ele>
   <time>2014-03-31T09:10:38Z</time>
  </trkpt>
  <trkpt lat="33.585950" lon="-4.443681">
   <ele>984.00</ele>
   <time>2014-03-31T09:10:40Z</time>
  </trkpt>
  <trkpt lat="33.585960" lon="-4.443186">
   <ele>987.00</ele>
   <time>2014-03-31T09:10:43Z</time>
  </trkpt>
  <trkpt lat="33.585917" lon="-4.442868">
   <ele>989.00</ele>
   <time>2014-03-31T09:10:45Z</time>
  </trkpt>
  <trkpt lat="33.585814" lon="-4.442391">
   <ele>991.00</ele>
   <time>2014-03-31T09:10:48Z</time>
  </trkpt>
  <trkpt lat="33.585774" lon="-4.442052">
   <ele>992.00</ele>
   <time>2014-03-31T09:10:50Z</time>
  </trkpt>
  <trkpt lat="33.585490" lon="-4.439321">
   <ele>1008.00</ele>
   <time>2014-03-31T09:11:05Z</time>
  </trkpt>
  <trkpt lat="33.585424" lon="-4.438961">
   <ele>1009.00</ele>
   <time>2014-03-31T09:11:07Z</time>
  </trkpt>
  <trkpt lat="33.585345" lon="-4.438605">
   <ele>1010.00</ele>
   <time>2014-03-31T09:11:09Z</time>
  </trkpt>
  <trkpt lat="33.585253" lon="-4.438265">
   <ele>1011.00</ele>
   <time>2014-03-31T09:11:11Z</time>
  </trkpt>
  <trkpt lat="33.585130" lon="-4.437963">
   <ele>1012.00</ele>
   <time>2014-03-31T09:11:13Z</time>
  </trkpt>
  <trkpt lat="33.584940" lon="-4.437730">
   <ele>1013.00</ele>
   <time>2014-03-31T09:11:15Z</time>
  </trkpt>
  <trkpt lat="33.584691" lon="-4.437563">
   <ele>1013.00</ele>
   <time>2014-03-31T09:11:17Z</time>
  </trkpt>
  <trkpt lat="33.584419" lon="-4.437426">
   <ele>1014.00</ele>
   <time>2014-03-31T09:11:19Z</time>
  </trkpt>
  <trkpt lat="33.584154" lon="-4.437271">
   <ele>1014.00</ele>
   <time>2014-03-31T09:11:21Z</time>
  </trkpt>
  <trkpt lat="33.583906" lon="-4.437057">
   <ele>1015.00</ele>
   <time>2014-03-31T09:11:23Z</time>
  </trkpt>
  <trkpt lat="33.583664" lon="-4.436801">
   <ele>1015.00</ele>
   <time>2014-03-31T09:11:25Z</time>
  </trkpt>
  <trkpt lat="33.582952" lon="-4.436041">
   <ele>1017.00</ele>
   <time>2014-03-31T09:11:31Z</time>
  </trkpt>
  <trkpt lat="33.582699" lon="-4.435894">
   <ele>1017.00</ele>
   <time>2014-03-31T09:11:33Z</time>
  </trkpt>
  <trkpt lat="33.582431" lon="-4.435875">
   <ele>1016.00</ele>
   <time>2014-03-31T09:11:35Z</time>
  </trkpt>
  <trkpt lat="33.582189" lon="-4.435986">
   <ele>1015.00</ele>
   <time>2014-03-31T09:11:37Z</time>
  </trkpt>
  <trkpt lat="33.581992" lon="-4.436163">
   <ele>1013.00</ele>
   <time>2014-03-31T09:11:39Z</time>
  </trkpt>
  <trkpt lat="33.581804" lon="-4.436327">
   <ele>1012.00</ele>
   <time>2014-03-31T09:11:41Z</time>
  </trkpt>
  <trkpt lat="33.581588" lon="-4.436408">
   <ele>1010.00</ele>
   <time>2014-03-31T09:11:43Z</time>
  </trkpt>
  <trkpt lat="33.581363" lon="-4.436377">
   <ele>1008.00</ele>
   <time>2014-03-31T09:11:45Z</time>
  </trkpt>
  <trkpt lat="33.581145" lon="-4.436262">
   <ele>1005.00</ele>
   <time>2014-03-31T09:11:47Z</time>
  </trkpt>
  <trkpt lat="33.580947" lon="-4.436114">
   <ele>1003.00</ele>
   <time>2014-03-31T09:11:49Z</time>
  </trkpt>
  <trkpt lat="33.580791" lon="-4.435923">
   <ele>1001.00</ele>
   <time>2014-03-31T09:11:51Z</time>
  </trkpt>
  <trkpt lat="33.580670" lon="-4.435682">
   <ele>998.00</ele>
   <time>2014-03-31T09:11:53Z</time>
  </trkpt>
  <trkpt lat="33.580574" lon="-4.435413">
   <ele>996.00</ele>
   <time>2014-03-31T09:11:55Z</time>
  </trkpt>
  <trkpt lat="33.580528" lon="-4.435131">
   <ele>995.00</ele>
   <time>2014-03-31T09:11:57Z</time>
  </trkpt>
  <trkpt lat="33.580518" lon="-4.434855">
   <ele>995.00</ele>
   <time>2014-03-31T09:11:59Z</time>
  </trkpt>
  <trkpt lat="33.580508" lon="-4.434461">
   <ele>995.00</ele>
   <time>2014-03-31T09:12:02Z</time>
  </trkpt>
  <trkpt lat="33.580492" lon="-4.434054">
   <ele>996.00</ele>
   <time>2014-03-31T09:12:05Z</time>
  </trkpt>
  <trkpt lat="33.580498" lon="-4.433521">
   <ele>997.00</ele>
   <time>2014-03-31T09:12:09Z</time>
  </trkpt>
  <trkpt lat="33.580581" lon="-4.433269">
   <ele>998.00</ele>
   <time>2014-03-31T09:12:11Z</time>
  </trkpt>
  <trkpt lat="33.580695" lon="-4.433023">
   <ele>1000.00</ele>
   <time>2014-03-31T09:12:13Z</time>
  </trkpt>
  <trkpt lat="33.580763" lon="-4.432763">
   <ele>1002.00</ele>
   <time>2014-03-31T09:12:15Z</time>
  </trkpt>
  <trkpt lat="33.580774" lon="-4.432476">
   <ele>1005.00</ele>
   <time>2014-03-31T09:12:17Z</time>
  </trkpt>
  <trkpt lat="33.580755" lon="-4.432173">
   <ele>1007.00</ele>
   <time>2014-03-31T09:12:19Z</time>
  </trkpt>
  <trkpt lat="33.580725" lon="-4.431872">
   <ele>1010.00</ele>
   <time>2014-03-31T09:12:21Z</time>
  </trkpt>
  <trkpt lat="33.580675" lon="-4.431596">
   <ele>1013.00</ele>
   <time>2014-03-31T09:12:23Z</time>
  </trkpt>
  <trkpt lat="33.580571" lon="-4.431361">
   <ele>1015.00</ele>
   <time>2014-03-31T09:12:25Z</time>
  </trkpt>
  <trkpt lat="33.580393" lon="-4.431191">
   <ele>1017.00</ele>
   <time>2014-03-31T09:12:27Z</time>
  </trkpt>
  <trkpt lat="33.580170" lon="-4.431050">
   <ele>1020.00</ele>
   <time>2014-03-31T09:12:29Z</time>
  </trkpt>
  <trkpt lat="33.578885" lon="-4.430257">
   <ele>1040.00</ele>
   <time>2014-03-31T09:12:40Z</time>
  </trkpt>
  <trkpt lat="33.578671" lon="-4.430090">
   <ele>1044.00</ele>
   <time>2014-03-31T09:12:42Z</time>
  </trkpt>
  <trkpt lat="33.578471" lon="-4.429906">
   <ele>1048.00</ele>
   <time>2014-03-31T09:12:44Z</time>
  </trkpt>
  <trkpt lat="33.578002" lon="-4.429444">
   <ele>1055.00</ele>
   <time>2014-03-31T09:12:49Z</time>
  </trkpt>
  <trkpt lat="33.577852" lon="-4.429230">
   <ele>1057.00</ele>
   <time>2014-03-31T09:12:51Z</time>
  </trkpt>
  <trkpt lat="33.577741" lon="-4.428969">
   <ele>1060.00</ele>
   <time>2014-03-31T09:12:53Z</time>
  </trkpt>
  <trkpt lat="33.577658" lon="-4.428684">
   <ele>1063.00</ele>
   <time>2014-03-31T09:12:55Z</time>
  </trkpt>
  <trkpt lat="33.577502" lon="-4.428105">
   <ele>1070.00</ele>
   <time>2014-03-31T09:12:59Z</time>
  </trkpt>
  <trkpt lat="33.577407" lon="-4.427827">
   <ele>1074.00</ele>
   <time>2014-03-31T09:13:01Z</time>
  </trkpt>
  <trkpt lat="33.577285" lon="-4.427564">
   <ele>1078.00</ele>
   <time>2014-03-31T09:13:03Z</time>
  </trkpt>
  <trkpt lat="33.577146" lon="-4.427313">
   <ele>1082.00</ele>
   <time>2014-03-31T09:13:05Z</time>
  </trkpt>
  <trkpt lat="33.576993" lon="-4.427085">
   <ele>1086.00</ele>
   <time>2014-03-31T09:13:07Z</time>
  </trkpt>
  <trkpt lat="33.576818" lon="-4.426904">
   <ele>1089.00</ele>
   <time>2014-03-31T09:13:09Z</time>
  </trkpt>
  <trkpt lat="33.576613" lon="-4.426799">
   <ele>1093.00</ele>
   <time>2014-03-31T09:13:11Z</time>
  </trkpt>
  <trkpt lat="33.576412" lon="-4.426724">
   <ele>1097.00</ele>
   <time>2014-03-31T09:13:13Z</time>
  </trkpt>
  <trkpt lat="33.576249" lon="-4.426590">
   <ele>1100.00</ele>
   <time>2014-03-31T09:13:15Z</time>
  </trkpt>
  <trkpt lat="33.576143" lon="-4.426377">
   <ele>1104.00</ele>
   <time>2014-03-31T09:13:17Z</time>
  </trkpt>
  <trkpt lat="33.576067" lon="-4.426129">
   <ele>1108.00</ele>
   <time>2014-03-31T09:13:19Z</time>
  </trkpt>
  <trkpt lat="33.575920" lon="-4.425619">
   <ele>1115.00</ele>
   <time>2014-03-31T09:13:23Z</time>
  </trkpt>
  <trkpt lat="33.575796" lon="-4.425388">
   <ele>1117.00</ele>
   <time>2014-03-31T09:13:25Z</time>
  </trkpt>
  <trkpt lat="33.575638" lon="-4.425169">
   <ele>1120.00</ele>
   <time>2014-03-31T09:13:27Z</time>
  </trkpt>
  <trkpt lat="33.575472" lon="-4.424960">
   <ele>1123.00</ele>
   <time>2014-03-31T09:13:29Z</time>
  </trkpt>
  <trkpt lat="33.575304" lon="-4.424790">
   <ele>1126.00</ele>
   <time>2014-03-31T09:13:31Z</time>
  </trkpt>
  <trkpt lat="33.575111" lon="-4.424696">
   <ele>1129.00</ele>
   <time>2014-03-31T09:13:33Z</time>
  </trkpt>
  <trkpt lat="33.574913" lon="-4.424631">
   <ele>1131.00</ele>
   <time>2014-03-31T09:13:35Z</time>
  </trkpt>
  <trkpt lat="33.574740" lon="-4.424495">
   <ele>1133.00</ele>
   <time>2014-03-31T09:13:37Z</time>
  </trkpt>
  <trkpt lat="33.574623" lon="-4.424288">
   <ele>1134.00</ele>
   <time>2014-03-31T09:13:39Z</time>
  </trkpt>
  <trkpt lat="33.574587" lon="-4.424047">
   <ele>1136.00</ele>
   <time>2014-03-31T09:13:41Z</time>
  </trkpt>
  <trkpt lat="33.574644" lon="-4.423805">
   <ele>1137.00</ele>
   <time>2014-03-31T09:13:43Z</time>
  </trkpt>
  <trkpt lat="33.574746" lon="-4.423566">
   <ele>1138.00</ele>
   <time>2014-03-31T09:13:45Z</time>
  </trkpt>
  <trkpt lat="33.574843" lon="-4.423317">
   <ele>1139.00</ele>
   <time>2014-03-31T09:13:47Z</time>
  </trkpt>
  <trkpt lat="33.574906" lon="-4.423040">
   <ele>1140.00</ele>
   <time>2014-03-31T09:13:49Z</time>
  </trkpt>
  <trkpt lat="33.574970" lon="-4.422629">
   <ele>1141.00</ele>
   <time>2014-03-31T09:13:52Z</time>
  </trkpt>
  <trkpt lat="33.574971" lon="-4.422360">
   <ele>1141.00</ele>
   <time>2014-03-31T09:13:54Z</time>
  </trkpt>
  <trkpt lat="33.574909" lon="-4.422092">
   <ele>1142.00</ele>
   <time>2014-03-31T09:13:56Z</time>
  </trkpt>
  <trkpt lat="33.574794" lon="-4.421682">
   <ele>1143.00</ele>
   <time>2014-03-31T09:13:59Z</time>
  </trkpt>
  <trkpt lat="33.574691" lon="-4.421276">
   <ele>1143.00</ele>
   <time>2014-03-31T09:14:02Z</time>
  </trkpt>
  <trkpt lat="33.574580" lon="-4.421030">
   <ele>1143.00</ele>
   <time>2014-03-31T09:14:04Z</time>
  </trkpt>
  <trkpt lat="33.574389" lon="-4.420684">
   <ele>1142.00</ele>
   <time>2014-03-31T09:14:07Z</time>
  </trkpt>
  <trkpt lat="33.574297" lon="-4.420424">
   <ele>1140.00</ele>
   <time>2014-03-31T09:14:09Z</time>
  </trkpt>
  <trkpt lat="33.574044" lon="-4.419576">
   <ele>1135.00</ele>
   <time>2014-03-31T09:14:15Z</time>
  </trkpt>
  <trkpt lat="33.574007" lon="-4.419272">
   <ele>1134.00</ele>
   <time>2014-03-31T09:14:17Z</time>
  </trkpt>
  <trkpt lat="33.574015" lon="-4.418962">
   <ele>1132.00</ele>
   <time>2014-03-31T09:14:19Z</time>
  </trkpt>
  <trkpt lat="33.574020" lon="-4.418654">
   <ele>1131.00</ele>
   <time>2014-03-31T09:14:21Z</time>
  </trkpt>
  <trkpt lat="33.573987" lon="-4.418367">
   <ele>1130.00</ele>
   <time>2014-03-31T09:14:23Z</time>
  </trkpt>
  <trkpt lat="33.573925" lon="-4.418099">
   <ele>1129.00</ele>
   <time>2014-03-31T09:14:25Z</time>
  </trkpt>
  <trkpt lat="33.573656" lon="-4.417093">
   <ele>1127.00</ele>
   <time>2014-03-31T09:14:32Z</time>
  </trkpt>
  <trkpt lat="33.573611" lon="-4.416795">
   <ele>1128.00</ele>
   <time>2014-03-31T09:14:34Z</time>
  </trkpt>
  <trkpt lat="33.573556" lon="-4.416205">
   <ele>1129.00</ele>
   <time>2014-03-31T09:14:38Z</time>
  </trkpt>
  <trkpt lat="33.573480" lon="-4.415916">
   <ele>1129.00</ele>
   <time>2014-03-31T09:14:40Z</time>
  </trkpt>
  <trkpt lat="33.573381" lon="-4.415639">
   <ele>1130.00</ele>
   <time>2014-03-31T09:14:42Z</time>
  </trkpt>
  <trkpt lat="33.573329" lon="-4.415339">
   <ele>1130.00</ele>
   <time>2014-03-31T09:14:44Z</time>
  </trkpt>
  <trkpt lat="33.573290" lon="-4.414853">
   <ele>1130.00</ele>
   <time>2014-03-31T09:14:47Z</time>
  </trkpt>
  <trkpt lat="33.573237" lon="-4.414535">
   <ele>1130.00</ele>
   <time>2014-03-31T09:14:49Z</time>
  </trkpt>
  <trkpt lat="33.573154" lon="-4.414068">
   <ele>1130.00</ele>
   <time>2014-03-31T09:14:52Z</time>
  </trkpt>
  <trkpt lat="33.573137" lon="-4.413752">
   <ele>1130.00</ele>
   <time>2014-03-31T09:14:54Z</time>
  </trkpt>
  <trkpt lat="33.573171" lon="-4.413439">
   <ele>1130.00</ele>
   <time>2014-03-31T09:14:56Z</time>
  </trkpt>
  <trkpt lat="33.573201" lon="-4.413127">
   <ele>1130.00</ele>
   <time>2014-03-31T09:14:58Z</time>
  </trkpt>
  <trkpt lat="33.573171" lon="-4.412803">
   <ele>1131.00</ele>
   <time>2014-03-31T09:15:00Z</time>
  </trkpt>
  <trkpt lat="33.573096" lon="-4.412298">
   <ele>1131.00</ele>
   <time>2014-03-31T09:15:03Z</time>
  </trkpt>
  <trkpt lat="33.573026" lon="-4.411957">
   <ele>1131.00</ele>
   <time>2014-03-31T09:15:05Z</time>
  </trkpt>
  <trkpt lat="33.572962" lon="-4.411618">
   <ele>1132.00</ele>
   <time>2014-03-31T09:15:07Z</time>
  </trkpt>
  <trkpt lat="33.572904" lon="-4.411293">
   <ele>1133.00</ele>
   <time>2014-03-31T09:15:09Z</time>
  </trkpt>
  <trkpt lat="33.572789" lon="-4.410994">
   <ele>1135.00</ele>
   <time>2014-03-31T09:15:11Z</time>
  </trkpt>
  <trkpt lat="33.572626" lon="-4.410710">
   <ele>1136.00</ele>
   <time>2014-03-31T09:15:13Z</time>
  </trkpt>
  <trkpt lat="33.572082" lon="-4.409824">
   <ele>1141.00</ele>
   <time>2014-03-31T09:15:19Z</time>
  </trkpt>
  <trkpt lat="33.571937" lon="-4.409515">
   <ele>1144.00</ele>
   <time>2014-03-31T09:15:21Z</time>
  </trkpt>
  <trkpt lat="33.571704" lon="-4.408873">
   <ele>1150.00</ele>
   <time>2014-03-31T09:15:25Z</time>
  </trkpt>
  <trkpt lat="33.571596" lon="-4.408544">
   <ele>1152.00</ele>
   <time>2014-03-31T09:15:27Z</time>
  </trkpt>
  <trkpt lat="33.571360" lon="-4.407718">
   <ele>1159.00</ele>
   <time>2014-03-31T09:15:32Z</time>
  </trkpt>
  <trkpt lat="33.571281" lon="-4.407384">
   <ele>1161.00</ele>
   <time>2014-03-31T09:15:34Z</time>
  </trkpt>
  <trkpt lat="33.571228" lon="-4.407053">
   <ele>1162.00</ele>
   <time>2014-03-31T09:15:36Z</time>
  </trkpt>
  <trkpt lat="33.571160" lon="-4.406407">
   <ele>1163.00</ele>
   <time>2014-03-31T09:15:40Z</time>
  </trkpt>
  <trkpt lat="33.571077" lon="-4.406098">
   <ele>1163.00</ele>
   <time>2014-03-31T09:15:42Z</time>
  </trkpt>
  <trkpt lat="33.570972" lon="-4.405806">
   <ele>1163.00</ele>
   <time>2014-03-31T09:15:44Z</time>
  </trkpt>
  <trkpt lat="33.570858" lon="-4.405544">
   <ele>1163.00</ele>
   <time>2014-03-31T09:15:46Z</time>
  </trkpt>
  <trkpt lat="33.570702" lon="-4.405369">
   <ele>1162.00</ele>
   <time>2014-03-31T09:15:48Z</time>
  </trkpt>
  <trkpt lat="33.570501" lon="-4.405340">
   <ele>1163.00</ele>
   <time>2014-03-31T09:15:50Z</time>
  </trkpt>
  <trkpt lat="33.570305" lon="-4.405404">
   <ele>1163.00</ele>
   <time>2014-03-31T09:15:52Z</time>
  </trkpt>
  <trkpt lat="33.570113" lon="-4.405486">
   <ele>1164.00</ele>
   <time>2014-03-31T09:15:54Z</time>
  </trkpt>
  <trkpt lat="33.569896" lon="-4.405571">
   <ele>1165.00</ele>
   <time>2014-03-31T09:15:56Z</time>
  </trkpt>
  <trkpt lat="33.569668" lon="-4.405618">
   <ele>1166.00</ele>
   <time>2014-03-31T09:15:58Z</time>
  </trkpt>
  <trkpt lat="33.569443" lon="-4.405615">
   <ele>1166.00</ele>
   <time>2014-03-31T09:16:00Z</time>
  </trkpt>
  <trkpt lat="33.569230" lon="-4.405550">
   <ele>1165.00</ele>
   <time>2014-03-31T09:16:02Z</time>
  </trkpt>
  <trkpt lat="33.569043" lon="-4.405401">
   <ele>1165.00</ele>
   <time>2014-03-31T09:16:04Z</time>
  </trkpt>
  <trkpt lat="33.568869" lon="-4.405192">
   <ele>1164.00</ele>
   <time>2014-03-31T09:16:06Z</time>
  </trkpt>
  <trkpt lat="33.568505" lon="-4.404717">
   <ele>1161.00</ele>
   <time>2014-03-31T09:16:10Z</time>
  </trkpt>
  <trkpt lat="33.568109" lon="-4.404164">
   <ele>1158.00</ele>
   <time>2014-03-31T09:16:14Z</time>
  </trkpt>
  <trkpt lat="33.567603" lon="-4.403429">
   <ele>1157.00</ele>
   <time>2014-03-31T09:16:19Z</time>
  </trkpt>
  <trkpt lat="33.567280" lon="-4.403009">
   <ele>1156.00</ele>
   <time>2014-03-31T09:16:22Z</time>
  </trkpt>
  <trkpt lat="33.567049" lon="-4.402772">
   <ele>1155.00</ele>
   <time>2014-03-31T09:16:24Z</time>
  </trkpt>
  <trkpt lat="33.566794" lon="-4.402599">
   <ele>1154.00</ele>
   <time>2014-03-31T09:16:26Z</time>
  </trkpt>
  <trkpt lat="33.566538" lon="-4.402453">
   <ele>1154.00</ele>
   <time>2014-03-31T09:16:28Z</time>
  </trkpt>
  <trkpt lat="33.566318" lon="-4.402257">
   <ele>1153.00</ele>
   <time>2014-03-31T09:16:30Z</time>
  </trkpt>
  <trkpt lat="33.566157" lon="-4.401984">
   <ele>1153.00</ele>
   <time>2014-03-31T09:16:32Z</time>
  </trkpt>
  <trkpt lat="33.566026" lon="-4.401659">
   <ele>1153.00</ele>
   <time>2014-03-31T09:16:34Z</time>
  </trkpt>
  <trkpt lat="33.565143" lon="-4.399523">
   <ele>1158.00</ele>
   <time>2014-03-31T09:16:46Z</time>
  </trkpt>
  <trkpt lat="33.564844" lon="-4.398804">
   <ele>1163.00</ele>
   <time>2014-03-31T09:16:50Z</time>
  </trkpt>
  <trkpt lat="33.564720" lon="-4.398445">
   <ele>1165.00</ele>
   <time>2014-03-31T09:16:52Z</time>
  </trkpt>
  <trkpt lat="33.564620" lon="-4.398086">
   <ele>1167.00</ele>
   <time>2014-03-31T09:16:54Z</time>
  </trkpt>
  <trkpt lat="33.564525" lon="-4.397737">
   <ele>1169.00</ele>
   <time>2014-03-31T09:16:56Z</time>
  </trkpt>
  <trkpt lat="33.564390" lon="-4.397414">
   <ele>1171.00</ele>
   <time>2014-03-31T09:16:58Z</time>
  </trkpt>
  <trkpt lat="33.564218" lon="-4.397109">
   <ele>1172.00</ele>
   <time>2014-03-31T09:17:00Z</time>
  </trkpt>
  <trkpt lat="33.563781" lon="-4.396358">
   <ele>1174.00</ele>
   <time>2014-03-31T09:17:05Z</time>
  </trkpt>
  <trkpt lat="33.563643" lon="-4.396046">
   <ele>1174.00</ele>
   <time>2014-03-31T09:17:07Z</time>
  </trkpt>
  <trkpt lat="33.563553" lon="-4.395745">
   <ele>1175.00</ele>
   <time>2014-03-31T09:17:09Z</time>
  </trkpt>
  <trkpt lat="33.563508" lon="-4.395519">
   <ele>1176.00</ele>
   <time>2014-03-31T09:17:11Z</time>
  </trkpt>
  <trkpt lat="33.563387" lon="-4.394791">
   <ele>1178.00</ele>
   <time>2014-03-31T09:17:19Z</time>
  </trkpt>
  <trkpt lat="33.563334" lon="-4.394553">
   <ele>1179.00</ele>
   <time>2014-03-31T09:17:21Z</time>
  </trkpt>
  <trkpt lat="33.563263" lon="-4.394299">
   <ele>1180.00</ele>
   <time>2014-03-31T09:17:23Z</time>
  </trkpt>
  <trkpt lat="33.563176" lon="-4.394027">
   <ele>1181.00</ele>
   <time>2014-03-31T09:17:25Z</time>
  </trkpt>
  <trkpt lat="33.562991" lon="-4.393483">
   <ele>1182.00</ele>
   <time>2014-03-31T09:17:29Z</time>
  </trkpt>
  <trkpt lat="33.562920" lon="-4.393182">
   <ele>1183.00</ele>
   <time>2014-03-31T09:17:31Z</time>
  </trkpt>
  <trkpt lat="33.562866" lon="-4.392856">
   <ele>1183.00</ele>
   <time>2014-03-31T09:17:33Z</time>
  </trkpt>
  <trkpt lat="33.562802" lon="-4.392336">
   <ele>1186.00</ele>
   <time>2014-03-31T09:17:36Z</time>
  </trkpt>
  <trkpt lat="33.562741" lon="-4.391828">
   <ele>1189.00</ele>
   <time>2014-03-31T09:17:39Z</time>
  </trkpt>
  <trkpt lat="33.562672" lon="-4.391504">
   <ele>1192.00</ele>
   <time>2014-03-31T09:17:41Z</time>
  </trkpt>
  <trkpt lat="33.562560" lon="-4.391198">
   <ele>1195.00</ele>
   <time>2014-03-31T09:17:43Z</time>
  </trkpt>
  <trkpt lat="33.562417" lon="-4.390905">
   <ele>1198.00</ele>
   <time>2014-03-31T09:17:45Z</time>
  </trkpt>
  <trkpt lat="33.561865" lon="-4.389836">
   <ele>1205.00</ele>
   <time>2014-03-31T09:17:52Z</time>
  </trkpt>
  <trkpt lat="33.561686" lon="-4.389548">
   <ele>1206.00</ele>
   <time>2014-03-31T09:17:54Z</time>
  </trkpt>
  <trkpt lat="33.561483" lon="-4.389271">
   <ele>1207.00</ele>
   <time>2014-03-31T09:17:56Z</time>
  </trkpt>
  <trkpt lat="33.560771" lon="-4.388372">
   <ele>1209.00</ele>
   <time>2014-03-31T09:18:03Z</time>
  </trkpt>
  <trkpt lat="33.560614" lon="-4.388089">
   <ele>1209.00</ele>
   <time>2014-03-31T09:18:05Z</time>
  </trkpt>
  <trkpt lat="33.560482" lon="-4.387766">
   <ele>1209.00</ele>
   <time>2014-03-31T09:18:07Z</time>
  </trkpt>
  <trkpt lat="33.559910" lon="-4.386308">
   <ele>1205.00</ele>
   <time>2014-03-31T09:18:16Z</time>
  </trkpt>
  <trkpt lat="33.559751" lon="-4.386040">
   <ele>1205.00</ele>
   <time>2014-03-31T09:18:18Z</time>
  </trkpt>
  <trkpt lat="33.559537" lon="-4.385827">
   <ele>1205.00</ele>
   <time>2014-03-31T09:18:20Z</time>
  </trkpt>
  <trkpt lat="33.559283" lon="-4.385682">
   <ele>1206.00</ele>
   <time>2014-03-31T09:18:22Z</time>
  </trkpt>
  <trkpt lat="33.559002" lon="-4.385606">
   <ele>1208.00</ele>
   <time>2014-03-31T09:18:24Z</time>
  </trkpt>
  <trkpt lat="33.558724" lon="-4.385510">
   <ele>1210.00</ele>
   <time>2014-03-31T09:18:26Z</time>
  </trkpt>
  <trkpt lat="33.558459" lon="-4.385351">
   <ele>1212.00</ele>
   <time>2014-03-31T09:18:28Z</time>
  </trkpt>
  <trkpt lat="33.558205" lon="-4.385145">
   <ele>1213.00</ele>
   <time>2014-03-31T09:18:30Z</time>
  </trkpt>
  <trkpt lat="33.557567" lon="-4.384569">
   <ele>1217.00</ele>
   <time>2014-03-31T09:18:35Z</time>
  </trkpt>
  <trkpt lat="33.557202" lon="-4.384210">
   <ele>1220.00</ele>
   <time>2014-03-31T09:18:38Z</time>
  </trkpt>
  <trkpt lat="33.556970" lon="-4.383958">
   <ele>1222.00</ele>
   <time>2014-03-31T09:18:40Z</time>
  </trkpt>
  <trkpt lat="33.556747" lon="-4.383688">
   <ele>1224.00</ele>
   <time>2014-03-31T09:18:42Z</time>
  </trkpt>
  <trkpt lat="33.556520" lon="-4.383413">
   <ele>1226.00</ele>
   <time>2014-03-31T09:18:44Z</time>
  </trkpt>
  <trkpt lat="33.556273" lon="-4.383160">
   <ele>1227.00</ele>
   <time>2014-03-31T09:18:46Z</time>
  </trkpt>
  <trkpt lat="33.554261" lon="-4.381293">
   <ele>1241.00</ele>
   <time>2014-03-31T09:19:02Z</time>
  </trkpt>
  <trkpt lat="33.553985" lon="-4.381058">
   <ele>1242.00</ele>
   <time>2014-03-31T09:19:04Z</time>
  </trkpt>
  <trkpt lat="33.553691" lon="-4.380839">
   <ele>1243.00</ele>
   <time>2014-03-31T09:19:06Z</time>
  </trkpt>
  <trkpt lat="33.551419" lon="-4.379200">
   <ele>1262.00</ele>
   <time>2014-03-31T09:19:22Z</time>
  </trkpt>
  <trkpt lat="33.551186" lon="-4.378947">
   <ele>1264.00</ele>
   <time>2014-03-31T09:19:24Z</time>
  </trkpt>
  <trkpt lat="33.550998" lon="-4.378682">
   <ele>1266.00</ele>
   <time>2014-03-31T09:19:26Z</time>
  </trkpt>
  <trkpt lat="33.550751" lon="-4.378306">
   <ele>1269.00</ele>
   <time>2014-03-31T09:19:29Z</time>
  </trkpt>
  <trkpt lat="33.550590" lon="-4.378103">
   <ele>1271.00</ele>
   <time>2014-03-31T09:19:31Z</time>
  </trkpt>
  <trkpt lat="33.550405" lon="-4.377930">
   <ele>1274.00</ele>
   <time>2014-03-31T09:19:33Z</time>
  </trkpt>
  <trkpt lat="33.549966" lon="-4.377594">
   <ele>1279.00</ele>
   <time>2014-03-31T09:19:37Z</time>
  </trkpt>
  <trkpt lat="33.549197" lon="-4.377012">
   <ele>1287.00</ele>
   <time>2014-03-31T09:19:44Z</time>
  </trkpt>
  <trkpt lat="33.549029" lon="-4.376865">
   <ele>1289.00</ele>
   <time>2014-03-31T09:19:46Z</time>
  </trkpt>
  <trkpt lat="33.548844" lon="-4.376741">
   <ele>1290.00</ele>
   <time>2014-03-31T09:19:49Z</time>
  </trkpt>
  <trkpt lat="33.548773" lon="-4.376747">
   <ele>1289.00</ele>
   <time>2014-03-31T09:20:05Z</time>
  </trkpt>
  <trkpt lat="33.548787" lon="-4.376756">
   <ele>1289.00</ele>
   <time>2014-03-31T09:20:21Z</time>
  </trkpt>
  <trkpt lat="33.548794" lon="-4.376757">
   <ele>1289.00</ele>
   <time>2014-03-31T09:20:37Z</time>
  </trkpt>
  <trkpt lat="33.548797" lon="-4.376759">
   <ele>1289.00</ele>
   <time>2014-03-31T09:20:52Z</time>
  </trkpt>
  <trkpt lat="33.548798" lon="-4.376761">
   <ele>1290.00</ele>
   <time>2014-03-31T09:21:08Z</time>
  </trkpt>
  <trkpt lat="33.548798" lon="-4.376763">
   <ele>1289.00</ele>
   <time>2014-03-31T09:21:23Z</time>
  </trkpt>
  <trkpt lat="33.548798" lon="-4.376765">
   <ele>1289.00</ele>
   <time>2014-03-31T09:21:39Z</time>
  </trkpt>
  <trkpt lat="33.548667" lon="-4.376708">
   <ele>1288.00</ele>
   <time>2014-03-31T09:21:55Z</time>
  </trkpt>
  <trkpt lat="33.548494" lon="-4.376641">
   <ele>1286.00</ele>
   <time>2014-03-31T09:21:58Z</time>
  </trkpt>
  <trkpt lat="33.547961" lon="-4.376443">
   <ele>1283.00</ele>
   <time>2014-03-31T09:22:04Z</time>
  </trkpt>
  <trkpt lat="33.547763" lon="-4.376346">
   <ele>1283.00</ele>
   <time>2014-03-31T09:22:06Z</time>
  </trkpt>
  <trkpt lat="33.547364" lon="-4.376127">
   <ele>1283.00</ele>
   <time>2014-03-31T09:22:10Z</time>
  </trkpt>
  <trkpt lat="33.547173" lon="-4.376003">
   <ele>1282.00</ele>
   <time>2014-03-31T09:22:12Z</time>
  </trkpt>
  <trkpt lat="33.546707" lon="-4.375671">
   <ele>1278.00</ele>
   <time>2014-03-31T09:22:17Z</time>
  </trkpt>
  <trkpt lat="33.545926" lon="-4.375097">
   <ele>1271.00</ele>
   <time>2014-03-31T09:22:25Z</time>
  </trkpt>
  <trkpt lat="33.545729" lon="-4.375010">
   <ele>1269.00</ele>
   <time>2014-03-31T09:22:27Z</time>
  </trkpt>
  <trkpt lat="33.545516" lon="-4.374967">
   <ele>1267.00</ele>
   <time>2014-03-31T09:22:29Z</time>
  </trkpt>
  <trkpt lat="33.545289" lon="-4.374978">
   <ele>1264.00</ele>
   <time>2014-03-31T09:22:31Z</time>
  </trkpt>
  <trkpt lat="33.545051" lon="-4.375020">
   <ele>1262.00</ele>
   <time>2014-03-31T09:22:33Z</time>
  </trkpt>
  <trkpt lat="33.544198" lon="-4.375193">
   <ele>1256.00</ele>
   <time>2014-03-31T09:22:40Z</time>
  </trkpt>
  <trkpt lat="33.542294" lon="-4.375481">
   <ele>1239.00</ele>
   <time>2014-03-31T09:22:55Z</time>
  </trkpt>
  <trkpt lat="33.542057" lon="-4.375486">
   <ele>1237.00</ele>
   <time>2014-03-31T09:22:57Z</time>
  </trkpt>
  <trkpt lat="33.541859" lon="-4.375452">
   <ele>1236.00</ele>
   <time>2014-03-31T09:22:59Z</time>
  </trkpt>
  <trkpt lat="33.541680" lon="-4.375282">
   <ele>1234.00</ele>
   <time>2014-03-31T09:23:02Z</time>
  </trkpt>
  <trkpt lat="33.541640" lon="-4.375026">
   <ele>1235.00</ele>
   <time>2014-03-31T09:23:05Z</time>
  </trkpt>
  <trkpt lat="33.541647" lon="-4.374740">
   <ele>1236.00</ele>
   <time>2014-03-31T09:23:08Z</time>
  </trkpt>
  <trkpt lat="33.541668" lon="-4.374521">
   <ele>1237.00</ele>
   <time>2014-03-31T09:23:10Z</time>
  </trkpt>
  <trkpt lat="33.541700" lon="-4.374282">
   <ele>1239.00</ele>
   <time>2014-03-31T09:23:12Z</time>
  </trkpt>
  <trkpt lat="33.541793" lon="-4.373599">
   <ele>1246.00</ele>
   <time>2014-03-31T09:23:17Z</time>
  </trkpt>
  <trkpt lat="33.541817" lon="-4.373301">
   <ele>1250.00</ele>
   <time>2014-03-31T09:23:19Z</time>
  </trkpt>
  <trkpt lat="33.541827" lon="-4.373004">
   <ele>1252.00</ele>
   <time>2014-03-31T09:23:21Z</time>
  </trkpt>
  <trkpt lat="33.541833" lon="-4.372714">
   <ele>1255.00</ele>
   <time>2014-03-31T09:23:23Z</time>
  </trkpt>
  <trkpt lat="33.541858" lon="-4.372431">
   <ele>1257.00</ele>
   <time>2014-03-31T09:23:25Z</time>
  </trkpt>
  <trkpt lat="33.541913" lon="-4.372006">
   <ele>1261.00</ele>
   <time>2014-03-31T09:23:28Z</time>
  </trkpt>
  <trkpt lat="33.541925" lon="-4.371730">
   <ele>1263.00</ele>
   <time>2014-03-31T09:23:30Z</time>
  </trkpt>
  <trkpt lat="33.541901" lon="-4.371448">
   <ele>1265.00</ele>
   <time>2014-03-31T09:23:32Z</time>
  </trkpt>
  <trkpt lat="33.541785" lon="-4.370535">
   <ele>1271.00</ele>
   <time>2014-03-31T09:23:38Z</time>
  </trkpt>
  <trkpt lat="33.541762" lon="-4.370224">
   <ele>1274.00</ele>
   <time>2014-03-31T09:23:40Z</time>
  </trkpt>
  <trkpt lat="33.541739" lon="-4.369914">
   <ele>1276.00</ele>
   <time>2014-03-31T09:23:42Z</time>
  </trkpt>
  <trkpt lat="33.541697" lon="-4.369617">
   <ele>1279.00</ele>
   <time>2014-03-31T09:23:44Z</time>
  </trkpt>
  <trkpt lat="33.541625" lon="-4.369342">
   <ele>1281.00</ele>
   <time>2014-03-31T09:23:46Z</time>
  </trkpt>
  <trkpt lat="33.541515" lon="-4.369089">
   <ele>1284.00</ele>
   <time>2014-03-31T09:23:48Z</time>
  </trkpt>
  <trkpt lat="33.541389" lon="-4.368850">
   <ele>1287.00</ele>
   <time>2014-03-31T09:23:50Z</time>
  </trkpt>
  <trkpt lat="33.541242" lon="-4.368637">
   <ele>1291.00</ele>
   <time>2014-03-31T09:23:52Z</time>
  </trkpt>
  <trkpt lat="33.541075" lon="-4.368438">
   <ele>1294.00</ele>
   <time>2014-03-31T09:23:54Z</time>
  </trkpt>
  <trkpt lat="33.540824" lon="-4.368141">
   <ele>1298.00</ele>
   <time>2014-03-31T09:23:57Z</time>
  </trkpt>
  <trkpt lat="33.540704" lon="-4.367916">
   <ele>1300.00</ele>
   <time>2014-03-31T09:23:59Z</time>
  </trkpt>
  <trkpt lat="33.540624" lon="-4.367656">
   <ele>1302.00</ele>
   <time>2014-03-31T09:24:01Z</time>
  </trkpt>
  <trkpt lat="33.540466" lon="-4.367102">
   <ele>1307.00</ele>
   <time>2014-03-31T09:24:05Z</time>
  </trkpt>
  <trkpt lat="33.540364" lon="-4.366846">
   <ele>1309.00</ele>
   <time>2014-03-31T09:24:07Z</time>
  </trkpt>
  <trkpt lat="33.540227" lon="-4.366625">
   <ele>1312.00</ele>
   <time>2014-03-31T09:24:09Z</time>
  </trkpt>
  <trkpt lat="33.540067" lon="-4.366420">
   <ele>1314.00</ele>
   <time>2014-03-31T09:24:11Z</time>
  </trkpt>
  <trkpt lat="33.539905" lon="-4.366212">
   <ele>1317.00</ele>
   <time>2014-03-31T09:24:13Z</time>
  </trkpt>
  <trkpt lat="33.539765" lon="-4.365988">
   <ele>1319.00</ele>
   <time>2014-03-31T09:24:15Z</time>
  </trkpt>
  <trkpt lat="33.539654" lon="-4.365742">
   <ele>1322.00</ele>
   <time>2014-03-31T09:24:17Z</time>
  </trkpt>
  <trkpt lat="33.539574" lon="-4.365479">
   <ele>1325.00</ele>
   <time>2014-03-31T09:24:19Z</time>
  </trkpt>
  <trkpt lat="33.539500" lon="-4.365210">
   <ele>1328.00</ele>
   <time>2014-03-31T09:24:21Z</time>
  </trkpt>
  <trkpt lat="33.539415" lon="-4.364946">
   <ele>1331.00</ele>
   <time>2014-03-31T09:24:23Z</time>
  </trkpt>
  <trkpt lat="33.539315" lon="-4.364687">
   <ele>1333.00</ele>
   <time>2014-03-31T09:24:25Z</time>
  </trkpt>
  <trkpt lat="33.538985" lon="-4.363899">
   <ele>1340.00</ele>
   <time>2014-03-31T09:24:31Z</time>
  </trkpt>
  <trkpt lat="33.538852" lon="-4.363668">
   <ele>1342.00</ele>
   <time>2014-03-31T09:24:33Z</time>
  </trkpt>
  <trkpt lat="33.538676" lon="-4.363483">
   <ele>1345.00</ele>
   <time>2014-03-31T09:24:35Z</time>
  </trkpt>
  <trkpt lat="33.538474" lon="-4.363327">
   <ele>1348.00</ele>
   <time>2014-03-31T09:24:37Z</time>
  </trkpt>
  <trkpt lat="33.538260" lon="-4.363184">
   <ele>1351.00</ele>
   <time>2014-03-31T09:24:39Z</time>
  </trkpt>
  <trkpt lat="33.537601" lon="-4.362762">
   <ele>1360.00</ele>
   <time>2014-03-31T09:24:45Z</time>
  </trkpt>
  <trkpt lat="33.537393" lon="-4.362601">
   <ele>1363.00</ele>
   <time>2014-03-31T09:24:47Z</time>
  </trkpt>
  <trkpt lat="33.537209" lon="-4.362399">
   <ele>1366.00</ele>
   <time>2014-03-31T09:24:49Z</time>
  </trkpt>
  <trkpt lat="33.537056" lon="-4.362153">
   <ele>1369.00</ele>
   <time>2014-03-31T09:24:51Z</time>
  </trkpt>
  <trkpt lat="33.536909" lon="-4.361903">
   <ele>1372.00</ele>
   <time>2014-03-31T09:24:53Z</time>
  </trkpt>
  <trkpt lat="33.536586" lon="-4.361419">
   <ele>1378.00</ele>
   <time>2014-03-31T09:24:57Z</time>
  </trkpt>
  <trkpt lat="33.536168" lon="-4.360802">
   <ele>1385.00</ele>
   <time>2014-03-31T09:25:02Z</time>
  </trkpt>
  <trkpt lat="33.536041" lon="-4.360533">
   <ele>1389.00</ele>
   <time>2014-03-31T09:25:04Z</time>
  </trkpt>
  <trkpt lat="33.535823" lon="-4.359979">
   <ele>1395.00</ele>
   <time>2014-03-31T09:25:08Z</time>
  </trkpt>
  <trkpt lat="33.535774" lon="-4.359690">
   <ele>1398.00</ele>
   <time>2014-03-31T09:25:10Z</time>
  </trkpt>
  <trkpt lat="33.535785" lon="-4.359398">
   <ele>1400.00</ele>
   <time>2014-03-31T09:25:12Z</time>
  </trkpt>
  <trkpt lat="33.535795" lon="-4.359117">
   <ele>1402.00</ele>
   <time>2014-03-31T09:25:14Z</time>
  </trkpt>
  <trkpt lat="33.535758" lon="-4.358847">
   <ele>1404.00</ele>
   <time>2014-03-31T09:25:16Z</time>
  </trkpt>
  <trkpt lat="33.535671" lon="-4.358583">
   <ele>1406.00</ele>
   <time>2014-03-31T09:25:18Z</time>
  </trkpt>
  <trkpt lat="33.535376" lon="-4.357777">
   <ele>1414.00</ele>
   <time>2014-03-31T09:25:24Z</time>
  </trkpt>
  <trkpt lat="33.535243" lon="-4.357377">
   <ele>1419.00</ele>
   <time>2014-03-31T09:25:27Z</time>
  </trkpt>
  <trkpt lat="33.535125" lon="-4.357005">
   <ele>1422.00</ele>
   <time>2014-03-31T09:25:30Z</time>
  </trkpt>
  <trkpt lat="33.535004" lon="-4.356793">
   <ele>1425.00</ele>
   <time>2014-03-31T09:25:32Z</time>
  </trkpt>
  <trkpt lat="33.534821" lon="-4.356644">
   <ele>1427.00</ele>
   <time>2014-03-31T09:25:34Z</time>
  </trkpt>
  <trkpt lat="33.534597" lon="-4.356556">
   <ele>1429.00</ele>
   <time>2014-03-31T09:25:36Z</time>
  </trkpt>
  <trkpt lat="33.534350" lon="-4.356499">
   <ele>1431.00</ele>
   <time>2014-03-31T09:25:38Z</time>
  </trkpt>
  <trkpt lat="33.533969" lon="-4.356414">
   <ele>1434.00</ele>
   <time>2014-03-31T09:25:41Z</time>
  </trkpt>
  <trkpt lat="33.533596" lon="-4.356303">
   <ele>1438.00</ele>
   <time>2014-03-31T09:25:44Z</time>
  </trkpt>
  <trkpt lat="33.533363" lon="-4.356205">
   <ele>1441.00</ele>
   <time>2014-03-31T09:25:46Z</time>
  </trkpt>
  <trkpt lat="33.533158" lon="-4.356075">
   <ele>1443.00</ele>
   <time>2014-03-31T09:25:48Z</time>
  </trkpt>
  <trkpt lat="33.532996" lon="-4.355881">
   <ele>1446.00</ele>
   <time>2014-03-31T09:25:50Z</time>
  </trkpt>
  <trkpt lat="33.532873" lon="-4.355636">
   <ele>1448.00</ele>
   <time>2014-03-31T09:25:52Z</time>
  </trkpt>
  <trkpt lat="33.532763" lon="-4.355372">
   <ele>1451.00</ele>
   <time>2014-03-31T09:25:54Z</time>
  </trkpt>
  <trkpt lat="33.532662" lon="-4.355100">
   <ele>1453.00</ele>
   <time>2014-03-31T09:25:56Z</time>
  </trkpt>
  <trkpt lat="33.532508" lon="-4.354684">
   <ele>1457.00</ele>
   <time>2014-03-31T09:25:59Z</time>
  </trkpt>
  <trkpt lat="33.532286" lon="-4.354181">
   <ele>1460.00</ele>
   <time>2014-03-31T09:26:03Z</time>
  </trkpt>
  <trkpt lat="33.532170" lon="-4.353920">
   <ele>1461.00</ele>
   <time>2014-03-31T09:26:05Z</time>
  </trkpt>
  <trkpt lat="33.531840" lon="-4.353153">
   <ele>1466.00</ele>
   <time>2014-03-31T09:26:11Z</time>
  </trkpt>
  <trkpt lat="33.531693" lon="-4.352965">
   <ele>1469.00</ele>
   <time>2014-03-31T09:26:13Z</time>
  </trkpt>
  <trkpt lat="33.531495" lon="-4.352862">
   <ele>1472.00</ele>
   <time>2014-03-31T09:26:15Z</time>
  </trkpt>
  <trkpt lat="33.531270" lon="-4.352859">
   <ele>1474.00</ele>
   <time>2014-03-31T09:26:17Z</time>
  </trkpt>
  <trkpt lat="33.531035" lon="-4.352904">
   <ele>1476.00</ele>
   <time>2014-03-31T09:26:19Z</time>
  </trkpt>
  <trkpt lat="33.530801" lon="-4.352928">
   <ele>1478.00</ele>
   <time>2014-03-31T09:26:21Z</time>
  </trkpt>
  <trkpt lat="33.530580" lon="-4.352901">
   <ele>1480.00</ele>
   <time>2014-03-31T09:26:23Z</time>
  </trkpt>
  <trkpt lat="33.530387" lon="-4.352810">
   <ele>1482.00</ele>
   <time>2014-03-31T09:26:25Z</time>
  </trkpt>
  <trkpt lat="33.530238" lon="-4.352660">
   <ele>1484.00</ele>
   <time>2014-03-31T09:26:27Z</time>
  </trkpt>
  <trkpt lat="33.530130" lon="-4.352466">
   <ele>1486.00</ele>
   <time>2014-03-31T09:26:29Z</time>
  </trkpt>
  <trkpt lat="33.530043" lon="-4.352238">
   <ele>1489.00</ele>
   <time>2014-03-31T09:26:31Z</time>
  </trkpt>
  <trkpt lat="33.529949" lon="-4.351992">
   <ele>1491.00</ele>
   <time>2014-03-31T09:26:33Z</time>
  </trkpt>
  <trkpt lat="33.529840" lon="-4.351738">
   <ele>1493.00</ele>
   <time>2014-03-31T09:26:35Z</time>
  </trkpt>
  <trkpt lat="33.529715" lon="-4.351477">
   <ele>1495.00</ele>
   <time>2014-03-31T09:26:37Z</time>
  </trkpt>
  <trkpt lat="33.529119" lon="-4.350275">
   <ele>1509.00</ele>
   <time>2014-03-31T09:26:46Z</time>
  </trkpt>
  <trkpt lat="33.528982" lon="-4.350091">
   <ele>1512.00</ele>
   <time>2014-03-31T09:26:48Z</time>
  </trkpt>
  <trkpt lat="33.528803" lon="-4.349983">
   <ele>1515.00</ele>
   <time>2014-03-31T09:26:50Z</time>
  </trkpt>
  <trkpt lat="33.528585" lon="-4.349947">
   <ele>1517.00</ele>
   <time>2014-03-31T09:26:52Z</time>
  </trkpt>
  <trkpt lat="33.528333" lon="-4.349958">
   <ele>1518.00</ele>
   <time>2014-03-31T09:26:54Z</time>
  </trkpt>
  <trkpt lat="33.527664" lon="-4.349986">
   <ele>1519.00</ele>
   <time>2014-03-31T09:26:59Z</time>
  </trkpt>
  <trkpt lat="33.526909" lon="-4.350006">
   <ele>1520.00</ele>
   <time>2014-03-31T09:27:04Z</time>
  </trkpt>
  <trkpt lat="33.526105" lon="-4.350046">
   <ele>1522.00</ele>
   <time>2014-03-31T09:27:09Z</time>
  </trkpt>
  <trkpt lat="33.525159" lon="-4.350061">
   <ele>1523.00</ele>
   <time>2014-03-31T09:27:15Z</time>
  </trkpt>
  <trkpt lat="33.523831" lon="-4.350122">
   <ele>1527.00</ele>
   <time>2014-03-31T09:27:23Z</time>
  </trkpt>
  <trkpt lat="33.523499" lon="-4.350118">
   <ele>1528.00</ele>
   <time>2014-03-31T09:27:25Z</time>
  </trkpt>
  <trkpt lat="33.523168" lon="-4.350095">
   <ele>1530.00</ele>
   <time>2014-03-31T09:27:27Z</time>
  </trkpt>
  <trkpt lat="33.522837" lon="-4.350052">
   <ele>1532.00</ele>
   <time>2014-03-31T09:27:29Z</time>
  </trkpt>
  <trkpt lat="33.522513" lon="-4.349980">
   <ele>1534.00</ele>
   <time>2014-03-31T09:27:31Z</time>
  </trkpt>
  <trkpt lat="33.522197" lon="-4.349882">
   <ele>1535.00</ele>
   <time>2014-03-31T09:27:33Z</time>
  </trkpt>
  <trkpt lat="33.521881" lon="-4.349756">
   <ele>1537.00</ele>
   <time>2014-03-31T09:27:35Z</time>
  </trkpt>
  <trkpt lat="33.521406" lon="-4.349539">
   <ele>1539.00</ele>
   <time>2014-03-31T09:27:38Z</time>
  </trkpt>
  <trkpt lat="33.520968" lon="-4.349311">
   <ele>1543.00</ele>
   <time>2014-03-31T09:27:41Z</time>
  </trkpt>
  <trkpt lat="33.520704" lon="-4.349173">
   <ele>1545.00</ele>
   <time>2014-03-31T09:27:43Z</time>
  </trkpt>
  <trkpt lat="33.520440" lon="-4.349051">
   <ele>1547.00</ele>
   <time>2014-03-31T09:27:45Z</time>
  </trkpt>
  <trkpt lat="33.518021" lon="-4.347970">
   <ele>1553.00</ele>
   <time>2014-03-31T09:28:01Z</time>
  </trkpt>
  <trkpt lat="33.517399" lon="-4.347674">
   <ele>1554.00</ele>
   <time>2014-03-31T09:28:05Z</time>
  </trkpt>
  <trkpt lat="33.516529" lon="-4.347252">
   <ele>1559.00</ele>
   <time>2014-03-31T09:28:11Z</time>
  </trkpt>
  <trkpt lat="33.516239" lon="-4.347139">
   <ele>1561.00</ele>
   <time>2014-03-31T09:28:13Z</time>
  </trkpt>
  <trkpt lat="33.515941" lon="-4.347052">
   <ele>1563.00</ele>
   <time>2014-03-31T09:28:15Z</time>
  </trkpt>
  <trkpt lat="33.515334" lon="-4.346891">
   <ele>1569.00</ele>
   <time>2014-03-31T09:28:19Z</time>
  </trkpt>
  <trkpt lat="33.515036" lon="-4.346771">
   <ele>1572.00</ele>
   <time>2014-03-31T09:28:21Z</time>
  </trkpt>
  <trkpt lat="33.514744" lon="-4.346616">
   <ele>1575.00</ele>
   <time>2014-03-31T09:28:23Z</time>
  </trkpt>
  <trkpt lat="33.514465" lon="-4.346439">
   <ele>1578.00</ele>
   <time>2014-03-31T09:28:25Z</time>
  </trkpt>
  <trkpt lat="33.513595" lon="-4.345831">
   <ele>1589.00</ele>
   <time>2014-03-31T09:28:32Z</time>
  </trkpt>
  <trkpt lat="33.513413" lon="-4.345617">
   <ele>1591.00</ele>
   <time>2014-03-31T09:28:34Z</time>
  </trkpt>
  <trkpt lat="33.513302" lon="-4.345346">
   <ele>1594.00</ele>
   <time>2014-03-31T09:28:36Z</time>
  </trkpt>
  <trkpt lat="33.513244" lon="-4.345039">
   <ele>1596.00</ele>
   <time>2014-03-31T09:28:38Z</time>
  </trkpt>
  <trkpt lat="33.513158" lon="-4.344552">
   <ele>1599.00</ele>
   <time>2014-03-31T09:28:41Z</time>
  </trkpt>
  <trkpt lat="33.513071" lon="-4.344222">
   <ele>1601.00</ele>
   <time>2014-03-31T09:28:43Z</time>
  </trkpt>
  <trkpt lat="33.512861" lon="-4.343463">
   <ele>1604.00</ele>
   <time>2014-03-31T09:28:48Z</time>
  </trkpt>
  <trkpt lat="33.512800" lon="-4.343222">
   <ele>1605.00</ele>
   <time>2014-03-31T09:28:50Z</time>
  </trkpt>
  <trkpt lat="33.512652" lon="-4.342967">
   <ele>1606.00</ele>
   <time>2014-03-31T09:28:53Z</time>
  </trkpt>
  <trkpt lat="33.512387" lon="-4.342881">
   <ele>1607.00</ele>
   <time>2014-03-31T09:28:56Z</time>
  </trkpt>
  <trkpt lat="33.512174" lon="-4.342897">
   <ele>1607.00</ele>
   <time>2014-03-31T09:28:58Z</time>
  </trkpt>
  <trkpt lat="33.511681" lon="-4.342959">
   <ele>1604.00</ele>
   <time>2014-03-31T09:29:02Z</time>
  </trkpt>
  <trkpt lat="33.511411" lon="-4.342934">
   <ele>1604.00</ele>
   <time>2014-03-31T09:29:04Z</time>
  </trkpt>
  <trkpt lat="33.511150" lon="-4.342839">
   <ele>1603.00</ele>
   <time>2014-03-31T09:29:06Z</time>
  </trkpt>
  <trkpt lat="33.510912" lon="-4.342687">
   <ele>1604.00</ele>
   <time>2014-03-31T09:29:08Z</time>
  </trkpt>
  <trkpt lat="33.510707" lon="-4.342499">
   <ele>1605.00</ele>
   <time>2014-03-31T09:29:10Z</time>
  </trkpt>
  <trkpt lat="33.510537" lon="-4.342277">
   <ele>1606.00</ele>
   <time>2014-03-31T09:29:12Z</time>
  </trkpt>
  <trkpt lat="33.510417" lon="-4.342033">
   <ele>1608.00</ele>
   <time>2014-03-31T09:29:14Z</time>
  </trkpt>
  <trkpt lat="33.510363" lon="-4.341778">
   <ele>1610.00</ele>
   <time>2014-03-31T09:29:16Z</time>
  </trkpt>
  <trkpt lat="33.510368" lon="-4.341503">
   <ele>1613.00</ele>
   <time>2014-03-31T09:29:18Z</time>
  </trkpt>
  <trkpt lat="33.510425" lon="-4.341222">
   <ele>1616.00</ele>
   <time>2014-03-31T09:29:20Z</time>
  </trkpt>
  <trkpt lat="33.510544" lon="-4.340954">
   <ele>1617.00</ele>
   <time>2014-03-31T09:29:22Z</time>
  </trkpt>
  <trkpt lat="33.510719" lon="-4.340719">
   <ele>1619.00</ele>
   <time>2014-03-31T09:29:24Z</time>
  </trkpt>
  <trkpt lat="33.510915" lon="-4.340502">
   <ele>1621.00</ele>
   <time>2014-03-31T09:29:26Z</time>
  </trkpt>
  <trkpt lat="33.511204" lon="-4.340171">
   <ele>1624.00</ele>
   <time>2014-03-31T09:29:29Z</time>
  </trkpt>
  <trkpt lat="33.511388" lon="-4.339937">
   <ele>1626.00</ele>
   <time>2014-03-31T09:29:31Z</time>
  </trkpt>
  <trkpt lat="33.511551" lon="-4.339685">
   <ele>1629.00</ele>
   <time>2014-03-31T09:29:33Z</time>
  </trkpt>
  <trkpt lat="33.511678" lon="-4.339413">
   <ele>1631.00</ele>
   <time>2014-03-31T09:29:35Z</time>
  </trkpt>
  <trkpt lat="33.511758" lon="-4.339129">
   <ele>1634.00</ele>
   <time>2014-03-31T09:29:37Z</time>
  </trkpt>
  <trkpt lat="33.511794" lon="-4.338841">
   <ele>1636.00</ele>
   <time>2014-03-31T09:29:39Z</time>
  </trkpt>
  <trkpt lat="33.511777" lon="-4.338550">
   <ele>1638.00</ele>
   <time>2014-03-31T09:29:41Z</time>
  </trkpt>
  <trkpt lat="33.511705" lon="-4.338273">
   <ele>1641.00</ele>
   <time>2014-03-31T09:29:43Z</time>
  </trkpt>
  <trkpt lat="33.511579" lon="-4.338035">
   <ele>1643.00</ele>
   <time>2014-03-31T09:29:45Z</time>
  </trkpt>
  <trkpt lat="33.511407" lon="-4.337840">
   <ele>1645.00</ele>
   <time>2014-03-31T09:29:47Z</time>
  </trkpt>
  <trkpt lat="33.511157" lon="-4.337575">
   <ele>1648.00</ele>
   <time>2014-03-31T09:29:50Z</time>
  </trkpt>
  <trkpt lat="33.511053" lon="-4.337369">
   <ele>1650.00</ele>
   <time>2014-03-31T09:29:52Z</time>
  </trkpt>
  <trkpt lat="33.511052" lon="-4.337134">
   <ele>1652.00</ele>
   <time>2014-03-31T09:29:54Z</time>
  </trkpt>
  <trkpt lat="33.511130" lon="-4.336895">
   <ele>1654.00</ele>
   <time>2014-03-31T09:29:56Z</time>
  </trkpt>
  <trkpt lat="33.511373" lon="-4.336256">
   <ele>1658.00</ele>
   <time>2014-03-31T09:30:02Z</time>
  </trkpt>
  <trkpt lat="33.511473" lon="-4.335976">
   <ele>1659.00</ele>
   <time>2014-03-31T09:30:06Z</time>
  </trkpt>
  <trkpt lat="33.511558" lon="-4.335766">
   <ele>1661.00</ele>
   <time>2014-03-31T09:30:11Z</time>
  </trkpt>
  <trkpt lat="33.511666" lon="-4.335553">
   <ele>1663.00</ele>
   <time>2014-03-31T09:30:15Z</time>
  </trkpt>
  <trkpt lat="33.511758" lon="-4.335350">
   <ele>1665.00</ele>
   <time>2014-03-31T09:30:18Z</time>
  </trkpt>
  <trkpt lat="33.511692" lon="-4.335133">
   <ele>1667.00</ele>
   <time>2014-03-31T09:30:22Z</time>
  </trkpt>
  <trkpt lat="33.511520" lon="-4.335175">
   <ele>1669.00</ele>
   <time>2014-03-31T09:30:25Z</time>
  </trkpt>
  <trkpt lat="33.511355" lon="-4.335406">
   <ele>1669.00</ele>
   <time>2014-03-31T09:30:28Z</time>
  </trkpt>
  <trkpt lat="33.510870" lon="-4.336213">
   <ele>1669.00</ele>
   <time>2014-03-31T09:30:36Z</time>
  </trkpt>
  <trkpt lat="33.510720" lon="-4.336377">
   <ele>1670.00</ele>
   <time>2014-03-31T09:30:38Z</time>
  </trkpt>
  <trkpt lat="33.510534" lon="-4.336489">
   <ele>1671.00</ele>
   <time>2014-03-31T09:30:40Z</time>
  </trkpt>
  <trkpt lat="33.510332" lon="-4.336555">
   <ele>1673.00</ele>
   <time>2014-03-31T09:30:42Z</time>
  </trkpt>
  <trkpt lat="33.510123" lon="-4.336603">
   <ele>1675.00</ele>
   <time>2014-03-31T09:30:44Z</time>
  </trkpt>
  <trkpt lat="33.509906" lon="-4.336633">
   <ele>1677.00</ele>
   <time>2014-03-31T09:30:46Z</time>
  </trkpt>
  <trkpt lat="33.509687" lon="-4.336633">
   <ele>1678.00</ele>
   <time>2014-03-31T09:30:48Z</time>
  </trkpt>
  <trkpt lat="33.509474" lon="-4.336608">
   <ele>1680.00</ele>
   <time>2014-03-31T09:30:50Z</time>
  </trkpt>
  <trkpt lat="33.509268" lon="-4.336558">
   <ele>1682.00</ele>
   <time>2014-03-31T09:30:52Z</time>
  </trkpt>
  <trkpt lat="33.509069" lon="-4.336468">
   <ele>1684.00</ele>
   <time>2014-03-31T09:30:54Z</time>
  </trkpt>
  <trkpt lat="33.508874" lon="-4.336351">
   <ele>1687.00</ele>
   <time>2014-03-31T09:30:56Z</time>
  </trkpt>
  <trkpt lat="33.508386" lon="-4.336032">
   <ele>1692.00</ele>
   <time>2014-03-31T09:31:01Z</time>
  </trkpt>
  <trkpt lat="33.508196" lon="-4.335891">
   <ele>1694.00</ele>
   <time>2014-03-31T09:31:03Z</time>
  </trkpt>
  <trkpt lat="33.507915" lon="-4.335679">
   <ele>1697.00</ele>
   <time>2014-03-31T09:31:06Z</time>
  </trkpt>
  <trkpt lat="33.507727" lon="-4.335554">
   <ele>1699.00</ele>
   <time>2014-03-31T09:31:08Z</time>
  </trkpt>
  <trkpt lat="33.507358" lon="-4.335326">
   <ele>1703.00</ele>
   <time>2014-03-31T09:31:12Z</time>
  </trkpt>
  <trkpt lat="33.507171" lon="-4.335261">
   <ele>1705.00</ele>
   <time>2014-03-31T09:31:14Z</time>
  </trkpt>
  <trkpt lat="33.506980" lon="-4.335268">
   <ele>1708.00</ele>
   <time>2014-03-31T09:31:16Z</time>
  </trkpt>
  <trkpt lat="33.506781" lon="-4.335330">
   <ele>1711.00</ele>
   <time>2014-03-31T09:31:18Z</time>
  </trkpt>
  <trkpt lat="33.506563" lon="-4.335385">
   <ele>1713.00</ele>
   <time>2014-03-31T09:31:20Z</time>
  </trkpt>
  <trkpt lat="33.506333" lon="-4.335381">
   <ele>1715.00</ele>
   <time>2014-03-31T09:31:22Z</time>
  </trkpt>
  <trkpt lat="33.506094" lon="-4.335323">
   <ele>1717.00</ele>
   <time>2014-03-31T09:31:24Z</time>
  </trkpt>
  <trkpt lat="33.505847" lon="-4.335238">
   <ele>1719.00</ele>
   <time>2014-03-31T09:31:26Z</time>
  </trkpt>
  <trkpt lat="33.505607" lon="-4.335139">
   <ele>1721.00</ele>
   <time>2014-03-31T09:31:28Z</time>
  </trkpt>
  <trkpt lat="33.505095" lon="-4.334919">
   <ele>1727.00</ele>
   <time>2014-03-31T09:31:33Z</time>
  </trkpt>
  <trkpt lat="33.504851" lon="-4.334887">
   <ele>1729.00</ele>
   <time>2014-03-31T09:31:36Z</time>
  </trkpt>
  <trkpt lat="33.504720" lon="-4.335138">
   <ele>1731.00</ele>
   <time>2014-03-31T09:31:39Z</time>
  </trkpt>
  <trkpt lat="33.504652" lon="-4.335450">
   <ele>1734.00</ele>
   <time>2014-03-31T09:31:42Z</time>
  </trkpt>
  <trkpt lat="33.504592" lon="-4.335713">
   <ele>1736.00</ele>
   <time>2014-03-31T09:31:44Z</time>
  </trkpt>
  <trkpt lat="33.504512" lon="-4.335974">
   <ele>1737.00</ele>
   <time>2014-03-31T09:31:46Z</time>
  </trkpt>
  <trkpt lat="33.504369" lon="-4.336193">
   <ele>1740.00</ele>
   <time>2014-03-31T09:31:48Z</time>
  </trkpt>
  <trkpt lat="33.504165" lon="-4.336368">
   <ele>1742.00</ele>
   <time>2014-03-31T09:31:50Z</time>
  </trkpt>
  <trkpt lat="33.503928" lon="-4.336508">
   <ele>1745.00</ele>
   <time>2014-03-31T09:31:52Z</time>
  </trkpt>
  <trkpt lat="33.503680" lon="-4.336615">
   <ele>1748.00</ele>
   <time>2014-03-31T09:31:54Z</time>
  </trkpt>
  <trkpt lat="33.503291" lon="-4.336761">
   <ele>1751.00</ele>
   <time>2014-03-31T09:31:57Z</time>
  </trkpt>
  <trkpt lat="33.503024" lon="-4.336838">
   <ele>1752.00</ele>
   <time>2014-03-31T09:31:59Z</time>
  </trkpt>
  <trkpt lat="33.502516" lon="-4.336978">
   <ele>1755.00</ele>
   <time>2014-03-31T09:32:03Z</time>
  </trkpt>
  <trkpt lat="33.502296" lon="-4.337092">
   <ele>1757.00</ele>
   <time>2014-03-31T09:32:05Z</time>
  </trkpt>
  <trkpt lat="33.502104" lon="-4.337262">
   <ele>1758.00</ele>
   <time>2014-03-31T09:32:07Z</time>
  </trkpt>
  <trkpt lat="33.501728" lon="-4.337679">
   <ele>1759.00</ele>
   <time>2014-03-31T09:32:11Z</time>
  </trkpt>
  <trkpt lat="33.501264" lon="-4.338207">
   <ele>1756.00</ele>
   <time>2014-03-31T09:32:16Z</time>
  </trkpt>
  <trkpt lat="33.501083" lon="-4.338447">
   <ele>1754.00</ele>
   <time>2014-03-31T09:32:18Z</time>
  </trkpt>
  <trkpt lat="33.500913" lon="-4.338716">
   <ele>1751.00</ele>
   <time>2014-03-31T09:32:20Z</time>
  </trkpt>
  <trkpt lat="33.500763" lon="-4.339013">
   <ele>1748.00</ele>
   <time>2014-03-31T09:32:22Z</time>
  </trkpt>
  <trkpt lat="33.500624" lon="-4.339324">
   <ele>1746.00</ele>
   <time>2014-03-31T09:32:24Z</time>
  </trkpt>
  <trkpt lat="33.500173" lon="-4.340408">
   <ele>1738.00</ele>
   <time>2014-03-31T09:32:31Z</time>
  </trkpt>
  <trkpt lat="33.500005" lon="-4.340688">
   <ele>1736.00</ele>
   <time>2014-03-31T09:32:33Z</time>
  </trkpt>
  <trkpt lat="33.499795" lon="-4.340922">
   <ele>1733.00</ele>
   <time>2014-03-31T09:32:35Z</time>
  </trkpt>
  <trkpt lat="33.499559" lon="-4.341125">
   <ele>1731.00</ele>
   <time>2014-03-31T09:32:37Z</time>
  </trkpt>
  <trkpt lat="33.499314" lon="-4.341316">
   <ele>1728.00</ele>
   <time>2014-03-31T09:32:39Z</time>
  </trkpt>
  <trkpt lat="33.499051" lon="-4.341490">
   <ele>1725.00</ele>
   <time>2014-03-31T09:32:41Z</time>
  </trkpt>
  <trkpt lat="33.498765" lon="-4.341629">
   <ele>1722.00</ele>
   <time>2014-03-31T09:32:43Z</time>
  </trkpt>
  <trkpt lat="33.498467" lon="-4.341735">
   <ele>1719.00</ele>
   <time>2014-03-31T09:32:45Z</time>
  </trkpt>
  <trkpt lat="33.498171" lon="-4.341853">
   <ele>1716.00</ele>
   <time>2014-03-31T09:32:47Z</time>
  </trkpt>
  <trkpt lat="33.497426" lon="-4.342172">
   <ele>1710.00</ele>
   <time>2014-03-31T09:32:52Z</time>
  </trkpt>
  <trkpt lat="33.496705" lon="-4.342449">
   <ele>1703.00</ele>
   <time>2014-03-31T09:32:57Z</time>
  </trkpt>
  <trkpt lat="33.496306" lon="-4.342619">
   <ele>1698.00</ele>
   <time>2014-03-31T09:33:00Z</time>
  </trkpt>
  <trkpt lat="33.496012" lon="-4.342692">
   <ele>1695.00</ele>
   <time>2014-03-31T09:33:02Z</time>
  </trkpt>
  <trkpt lat="33.495717" lon="-4.342756">
   <ele>1692.00</ele>
   <time>2014-03-31T09:33:04Z</time>
  </trkpt>
  <trkpt lat="33.494818" lon="-4.342974">
   <ele>1681.00</ele>
   <time>2014-03-31T09:33:10Z</time>
  </trkpt>
  <trkpt lat="33.494080" lon="-4.343111">
   <ele>1674.00</ele>
   <time>2014-03-31T09:33:15Z</time>
  </trkpt>
  <trkpt lat="33.493802" lon="-4.343200">
   <ele>1671.00</ele>
   <time>2014-03-31T09:33:17Z</time>
  </trkpt>
  <trkpt lat="33.492960" lon="-4.343485">
   <ele>1662.00</ele>
   <time>2014-03-31T09:33:23Z</time>
  </trkpt>
  <trkpt lat="33.492538" lon="-4.343602">
   <ele>1659.00</ele>
   <time>2014-03-31T09:33:26Z</time>
  </trkpt>
  <trkpt lat="33.492255" lon="-4.343665">
   <ele>1657.00</ele>
   <time>2014-03-31T09:33:28Z</time>
  </trkpt>
  <trkpt lat="33.491985" lon="-4.343690">
   <ele>1655.00</ele>
   <time>2014-03-31T09:33:30Z</time>
  </trkpt>
  <trkpt lat="33.491730" lon="-4.343703">
   <ele>1654.00</ele>
   <time>2014-03-31T09:33:32Z</time>
  </trkpt>
  <trkpt lat="33.491481" lon="-4.343748">
   <ele>1651.00</ele>
   <time>2014-03-31T09:33:34Z</time>
  </trkpt>
  <trkpt lat="33.491235" lon="-4.343854">
   <ele>1649.00</ele>
   <time>2014-03-31T09:33:36Z</time>
  </trkpt>
  <trkpt lat="33.490988" lon="-4.344011">
   <ele>1646.00</ele>
   <time>2014-03-31T09:33:38Z</time>
  </trkpt>
  <trkpt lat="33.490740" lon="-4.344203">
   <ele>1643.00</ele>
   <time>2014-03-31T09:33:40Z</time>
  </trkpt>
  <trkpt lat="33.490378" lon="-4.344529">
   <ele>1639.00</ele>
   <time>2014-03-31T09:33:43Z</time>
  </trkpt>
  <trkpt lat="33.490145" lon="-4.344768">
   <ele>1635.00</ele>
   <time>2014-03-31T09:33:45Z</time>
  </trkpt>
  <trkpt lat="33.488867" lon="-4.346105">
   <ele>1616.00</ele>
   <time>2014-03-31T09:33:56Z</time>
  </trkpt>
  <trkpt lat="33.488626" lon="-4.346247">
   <ele>1613.00</ele>
   <time>2014-03-31T09:33:58Z</time>
  </trkpt>
  <trkpt lat="33.488000" lon="-4.346504">
   <ele>1609.00</ele>
   <time>2014-03-31T09:34:03Z</time>
  </trkpt>
  <trkpt lat="33.487736" lon="-4.346564">
   <ele>1607.00</ele>
   <time>2014-03-31T09:34:05Z</time>
  </trkpt>
  <trkpt lat="33.487458" lon="-4.346574">
   <ele>1604.00</ele>
   <time>2014-03-31T09:34:07Z</time>
  </trkpt>
  <trkpt lat="33.487175" lon="-4.346586">
   <ele>1602.00</ele>
   <time>2014-03-31T09:34:09Z</time>
  </trkpt>
  <trkpt lat="33.486769" lon="-4.346626">
   <ele>1600.00</ele>
   <time>2014-03-31T09:34:12Z</time>
  </trkpt>
  <trkpt lat="33.486533" lon="-4.346668">
   <ele>1598.00</ele>
   <time>2014-03-31T09:34:14Z</time>
  </trkpt>
  <trkpt lat="33.486326" lon="-4.346735">
   <ele>1597.00</ele>
   <time>2014-03-31T09:34:16Z</time>
  </trkpt>
  <trkpt lat="33.486081" lon="-4.346747">
   <ele>1595.00</ele>
   <time>2014-03-31T09:34:19Z</time>
  </trkpt>
  <trkpt lat="33.485915" lon="-4.346531">
   <ele>1591.00</ele>
   <time>2014-03-31T09:34:22Z</time>
  </trkpt>
  <trkpt lat="33.485697" lon="-4.346354">
   <ele>1588.00</ele>
   <time>2014-03-31T09:34:25Z</time>
  </trkpt>
  <trkpt lat="33.485511" lon="-4.346308">
   <ele>1586.00</ele>
   <time>2014-03-31T09:34:27Z</time>
  </trkpt>
  <trkpt lat="33.485332" lon="-4.346347">
   <ele>1584.00</ele>
   <time>2014-03-31T09:34:29Z</time>
  </trkpt>
  <trkpt lat="33.485158" lon="-4.346461">
   <ele>1582.00</ele>
   <time>2014-03-31T09:34:31Z</time>
  </trkpt>
  <trkpt lat="33.484808" lon="-4.346723">
   <ele>1577.00</ele>
   <time>2014-03-31T09:34:35Z</time>
  </trkpt>
  <trkpt lat="33.484615" lon="-4.346794">
   <ele>1575.00</ele>
   <time>2014-03-31T09:34:37Z</time>
  </trkpt>
  <trkpt lat="33.484402" lon="-4.346796">
   <ele>1573.00</ele>
   <time>2014-03-31T09:34:39Z</time>
  </trkpt>
  <trkpt lat="33.484065" lon="-4.346760">
   <ele>1570.00</ele>
   <time>2014-03-31T09:34:42Z</time>
  </trkpt>
  <trkpt lat="33.483711" lon="-4.346703">
   <ele>1565.00</ele>
   <time>2014-03-31T09:34:45Z</time>
  </trkpt>
  <trkpt lat="33.483488" lon="-4.346643">
   <ele>1563.00</ele>
   <time>2014-03-31T09:34:47Z</time>
  </trkpt>
  <trkpt lat="33.483282" lon="-4.346598">
   <ele>1561.00</ele>
   <time>2014-03-31T09:34:49Z</time>
  </trkpt>
  <trkpt lat="33.483094" lon="-4.346620">
   <ele>1560.00</ele>
   <time>2014-03-31T09:34:51Z</time>
  </trkpt>
  <trkpt lat="33.482929" lon="-4.346725">
   <ele>1558.00</ele>
   <time>2014-03-31T09:34:53Z</time>
  </trkpt>
  <trkpt lat="33.482801" lon="-4.346899">
   <ele>1557.00</ele>
   <time>2014-03-31T09:34:55Z</time>
  </trkpt>
  <trkpt lat="33.482698" lon="-4.347107">
   <ele>1555.00</ele>
   <time>2014-03-31T09:34:57Z</time>
  </trkpt>
  <trkpt lat="33.482603" lon="-4.347330">
   <ele>1554.00</ele>
   <time>2014-03-31T09:34:59Z</time>
  </trkpt>
  <trkpt lat="33.482383" lon="-4.347870">
   <ele>1552.00</ele>
   <time>2014-03-31T09:35:04Z</time>
  </trkpt>
  <trkpt lat="33.482178" lon="-4.348065">
   <ele>1550.00</ele>
   <time>2014-03-31T09:35:07Z</time>
  </trkpt>
  <trkpt lat="33.481990" lon="-4.348116">
   <ele>1549.00</ele>
   <time>2014-03-31T09:35:09Z</time>
  </trkpt>
  <trkpt lat="33.481786" lon="-4.348107">
   <ele>1547.00</ele>
   <time>2014-03-31T09:35:11Z</time>
  </trkpt>
  <trkpt lat="33.481580" lon="-4.348048">
   <ele>1545.00</ele>
   <time>2014-03-31T09:35:13Z</time>
  </trkpt>
  <trkpt lat="33.479420" lon="-4.347306">
   <ele>1519.00</ele>
   <time>2014-03-31T09:35:31Z</time>
  </trkpt>
  <trkpt lat="33.479227" lon="-4.347207">
   <ele>1516.00</ele>
   <time>2014-03-31T09:35:33Z</time>
  </trkpt>
  <trkpt lat="33.479072" lon="-4.347032">
   <ele>1513.00</ele>
   <time>2014-03-31T09:35:35Z</time>
  </trkpt>
  <trkpt lat="33.478983" lon="-4.346778">
   <ele>1510.00</ele>
   <time>2014-03-31T09:35:37Z</time>
  </trkpt>
  <trkpt lat="33.478942" lon="-4.346489">
   <ele>1508.00</ele>
   <time>2014-03-31T09:35:39Z</time>
  </trkpt>
  <trkpt lat="33.478905" lon="-4.346070">
   <ele>1504.00</ele>
   <time>2014-03-31T09:35:42Z</time>
  </trkpt>
  <trkpt lat="33.478881" lon="-4.345808">
   <ele>1502.00</ele>
   <time>2014-03-31T09:35:44Z</time>
  </trkpt>
  <trkpt lat="33.478831" lon="-4.345573">
   <ele>1500.00</ele>
   <time>2014-03-31T09:35:46Z</time>
  </trkpt>
  <trkpt lat="33.478718" lon="-4.345380">
   <ele>1498.00</ele>
   <time>2014-03-31T09:35:48Z</time>
  </trkpt>
  <trkpt lat="33.478529" lon="-4.345269">
   <ele>1496.00</ele>
   <time>2014-03-31T09:35:50Z</time>
  </trkpt>
  <trkpt lat="33.478309" lon="-4.345260">
   <ele>1494.00</ele>
   <time>2014-03-31T09:35:52Z</time>
  </trkpt>
  <trkpt lat="33.478078" lon="-4.345290">
   <ele>1491.00</ele>
   <time>2014-03-31T09:35:54Z</time>
  </trkpt>
  <trkpt lat="33.477723" lon="-4.345332">
   <ele>1487.00</ele>
   <time>2014-03-31T09:35:57Z</time>
  </trkpt>
  <trkpt lat="33.477494" lon="-4.345319">
   <ele>1485.00</ele>
   <time>2014-03-31T09:35:59Z</time>
  </trkpt>
  <trkpt lat="33.477279" lon="-4.345243">
   <ele>1483.00</ele>
   <time>2014-03-31T09:36:01Z</time>
  </trkpt>
  <trkpt lat="33.477088" lon="-4.345122">
   <ele>1480.00</ele>
   <time>2014-03-31T09:36:03Z</time>
  </trkpt>
  <trkpt lat="33.476903" lon="-4.344972">
   <ele>1478.00</ele>
   <time>2014-03-31T09:36:05Z</time>
  </trkpt>
  <trkpt lat="33.476708" lon="-4.344816">
   <ele>1476.00</ele>
   <time>2014-03-31T09:36:07Z</time>
  </trkpt>
  <trkpt lat="33.476496" lon="-4.344683">
   <ele>1474.00</ele>
   <time>2014-03-31T09:36:09Z</time>
  </trkpt>
  <trkpt lat="33.476267" lon="-4.344584">
   <ele>1472.00</ele>
   <time>2014-03-31T09:36:11Z</time>
  </trkpt>
  <trkpt lat="33.475302" lon="-4.344206">
   <ele>1461.00</ele>
   <time>2014-03-31T09:36:19Z</time>
  </trkpt>
  <trkpt lat="33.475047" lon="-4.344143">
   <ele>1458.00</ele>
   <time>2014-03-31T09:36:21Z</time>
  </trkpt>
  <trkpt lat="33.474804" lon="-4.344129">
   <ele>1456.00</ele>
   <time>2014-03-31T09:36:23Z</time>
  </trkpt>
  <trkpt lat="33.474470" lon="-4.344143">
   <ele>1453.00</ele>
   <time>2014-03-31T09:36:26Z</time>
  </trkpt>
  <trkpt lat="33.474257" lon="-4.344114">
   <ele>1451.00</ele>
   <time>2014-03-31T09:36:28Z</time>
  </trkpt>
  <trkpt lat="33.474057" lon="-4.344062">
   <ele>1450.00</ele>
   <time>2014-03-31T09:36:30Z</time>
  </trkpt>
  <trkpt lat="33.473786" lon="-4.343970">
   <ele>1448.00</ele>
   <time>2014-03-31T09:36:33Z</time>
  </trkpt>
  <trkpt lat="33.473418" lon="-4.343832">
   <ele>1445.00</ele>
   <time>2014-03-31T09:36:37Z</time>
  </trkpt>
  <trkpt lat="33.473230" lon="-4.343745">
   <ele>1443.00</ele>
   <time>2014-03-31T09:36:39Z</time>
  </trkpt>
  <trkpt lat="33.473036" lon="-4.343643">
   <ele>1441.00</ele>
   <time>2014-03-31T09:36:41Z</time>
  </trkpt>
  <trkpt lat="33.472836" lon="-4.343520">
   <ele>1439.00</ele>
   <time>2014-03-31T09:36:43Z</time>
  </trkpt>
  <trkpt lat="33.472515" lon="-4.343322">
   <ele>1436.00</ele>
   <time>2014-03-31T09:36:46Z</time>
  </trkpt>
  <trkpt lat="33.472301" lon="-4.343215">
   <ele>1434.00</ele>
   <time>2014-03-31T09:36:48Z</time>
  </trkpt>
  <trkpt lat="33.472077" lon="-4.343166">
   <ele>1432.00</ele>
   <time>2014-03-31T09:36:50Z</time>
  </trkpt>
  <trkpt lat="33.471839" lon="-4.343160">
   <ele>1430.00</ele>
   <time>2014-03-31T09:36:52Z</time>
  </trkpt>
  <trkpt lat="33.471591" lon="-4.343189">
   <ele>1428.00</ele>
   <time>2014-03-31T09:36:54Z</time>
  </trkpt>
  <trkpt lat="33.470665" lon="-4.343359">
   <ele>1427.00</ele>
   <time>2014-03-31T09:37:02Z</time>
  </trkpt>
  <trkpt lat="33.470093" lon="-4.343511">
   <ele>1426.00</ele>
   <time>2014-03-31T09:37:07Z</time>
  </trkpt>
  <trkpt lat="33.469858" lon="-4.343604">
   <ele>1425.00</ele>
   <time>2014-03-31T09:37:09Z</time>
  </trkpt>
  <trkpt lat="33.469629" lon="-4.343724">
   <ele>1425.00</ele>
   <time>2014-03-31T09:37:11Z</time>
  </trkpt>
  <trkpt lat="33.469411" lon="-4.343863">
   <ele>1424.00</ele>
   <time>2014-03-31T09:37:13Z</time>
  </trkpt>
  <trkpt lat="33.469207" lon="-4.344023">
   <ele>1424.00</ele>
   <time>2014-03-31T09:37:15Z</time>
  </trkpt>
  <trkpt lat="33.469013" lon="-4.344199">
   <ele>1423.00</ele>
   <time>2014-03-31T09:37:17Z</time>
  </trkpt>
  <trkpt lat="33.468727" lon="-4.344472">
   <ele>1422.00</ele>
   <time>2014-03-31T09:37:20Z</time>
  </trkpt>
  <trkpt lat="33.468522" lon="-4.344617">
   <ele>1422.00</ele>
   <time>2014-03-31T09:37:22Z</time>
  </trkpt>
  <trkpt lat="33.468297" lon="-4.344709">
   <ele>1422.00</ele>
   <time>2014-03-31T09:37:24Z</time>
  </trkpt>
  <trkpt lat="33.468052" lon="-4.344734">
   <ele>1421.00</ele>
   <time>2014-03-31T09:37:26Z</time>
  </trkpt>
  <trkpt lat="33.467799" lon="-4.344717">
   <ele>1421.00</ele>
   <time>2014-03-31T09:37:28Z</time>
  </trkpt>
  <trkpt lat="33.466960" lon="-4.344632">
   <ele>1421.00</ele>
   <time>2014-03-31T09:37:35Z</time>
  </trkpt>
  <trkpt lat="33.466758" lon="-4.344663">
   <ele>1421.00</ele>
   <time>2014-03-31T09:37:37Z</time>
  </trkpt>
  <trkpt lat="33.466639" lon="-4.344820">
   <ele>1421.00</ele>
   <time>2014-03-31T09:37:39Z</time>
  </trkpt>
  <trkpt lat="33.466627" lon="-4.345041">
   <ele>1422.00</ele>
   <time>2014-03-31T09:37:41Z</time>
  </trkpt>
  <trkpt lat="33.466671" lon="-4.345278">
   <ele>1422.00</ele>
   <time>2014-03-31T09:37:43Z</time>
  </trkpt>
  <trkpt lat="33.466732" lon="-4.345525">
   <ele>1423.00</ele>
   <time>2014-03-31T09:37:45Z</time>
  </trkpt>
  <trkpt lat="33.466883" lon="-4.346152">
   <ele>1424.00</ele>
   <time>2014-03-31T09:37:50Z</time>
  </trkpt>
  <trkpt lat="33.466911" lon="-4.346381">
   <ele>1425.00</ele>
   <time>2014-03-31T09:37:52Z</time>
  </trkpt>
  <trkpt lat="33.466804" lon="-4.346584">
   <ele>1425.00</ele>
   <time>2014-03-31T09:37:55Z</time>
  </trkpt>
  <trkpt lat="33.466590" lon="-4.346521">
   <ele>1425.00</ele>
   <time>2014-03-31T09:37:58Z</time>
  </trkpt>
  <trkpt lat="33.466376" lon="-4.346347">
   <ele>1423.00</ele>
   <time>2014-03-31T09:38:01Z</time>
  </trkpt>
  <trkpt lat="33.466234" lon="-4.346201">
   <ele>1423.00</ele>
   <time>2014-03-31T09:38:03Z</time>
  </trkpt>
  <trkpt lat="33.466099" lon="-4.346030">
   <ele>1422.00</ele>
   <time>2014-03-31T09:38:05Z</time>
  </trkpt>
  <trkpt lat="33.465961" lon="-4.345860">
   <ele>1421.00</ele>
   <time>2014-03-31T09:38:07Z</time>
  </trkpt>
  <trkpt lat="33.465797" lon="-4.345728">
   <ele>1421.00</ele>
   <time>2014-03-31T09:38:09Z</time>
  </trkpt>
  <trkpt lat="33.465612" lon="-4.345663">
   <ele>1420.00</ele>
   <time>2014-03-31T09:38:11Z</time>
  </trkpt>
  <trkpt lat="33.465419" lon="-4.345650">
   <ele>1420.00</ele>
   <time>2014-03-31T09:38:13Z</time>
  </trkpt>
  <trkpt lat="33.465222" lon="-4.345663">
   <ele>1421.00</ele>
   <time>2014-03-31T09:38:15Z</time>
  </trkpt>
  <trkpt lat="33.464925" lon="-4.345705">
   <ele>1422.00</ele>
   <time>2014-03-31T09:38:18Z</time>
  </trkpt>
  <trkpt lat="33.464538" lon="-4.345779">
   <ele>1424.00</ele>
   <time>2014-03-31T09:38:22Z</time>
  </trkpt>
  <trkpt lat="33.464340" lon="-4.345833">
   <ele>1424.00</ele>
   <time>2014-03-31T09:38:24Z</time>
  </trkpt>
  <trkpt lat="33.464135" lon="-4.345906">
   <ele>1424.00</ele>
   <time>2014-03-31T09:38:26Z</time>
  </trkpt>
  <trkpt lat="33.462914" lon="-4.346383">
   <ele>1423.00</ele>
   <time>2014-03-31T09:38:37Z</time>
  </trkpt>
  <trkpt lat="33.461944" lon="-4.346701">
   <ele>1421.00</ele>
   <time>2014-03-31T09:38:45Z</time>
  </trkpt>
  <trkpt lat="33.461702" lon="-4.346729">
   <ele>1421.00</ele>
   <time>2014-03-31T09:38:47Z</time>
  </trkpt>
  <trkpt lat="33.461469" lon="-4.346694">
   <ele>1420.00</ele>
   <time>2014-03-31T09:38:49Z</time>
  </trkpt>
  <trkpt lat="33.461254" lon="-4.346610">
   <ele>1421.00</ele>
   <time>2014-03-31T09:38:51Z</time>
  </trkpt>
  <trkpt lat="33.461045" lon="-4.346521">
   <ele>1420.00</ele>
   <time>2014-03-31T09:38:53Z</time>
  </trkpt>
  <trkpt lat="33.460832" lon="-4.346460">
   <ele>1419.00</ele>
   <time>2014-03-31T09:38:55Z</time>
  </trkpt>
  <trkpt lat="33.460611" lon="-4.346438">
   <ele>1418.00</ele>
   <time>2014-03-31T09:38:57Z</time>
  </trkpt>
  <trkpt lat="33.460382" lon="-4.346456">
   <ele>1416.00</ele>
   <time>2014-03-31T09:38:59Z</time>
  </trkpt>
  <trkpt lat="33.460158" lon="-4.346514">
   <ele>1414.00</ele>
   <time>2014-03-31T09:39:01Z</time>
  </trkpt>
  <trkpt lat="33.459938" lon="-4.346599">
   <ele>1412.00</ele>
   <time>2014-03-31T09:39:03Z</time>
  </trkpt>
  <trkpt lat="33.457861" lon="-4.347435">
   <ele>1397.00</ele>
   <time>2014-03-31T09:39:19Z</time>
  </trkpt>
  <trkpt lat="33.457478" lon="-4.347568">
   <ele>1397.00</ele>
   <time>2014-03-31T09:39:22Z</time>
  </trkpt>
  <trkpt lat="33.457228" lon="-4.347629">
   <ele>1398.00</ele>
   <time>2014-03-31T09:39:24Z</time>
  </trkpt>
  <trkpt lat="33.456981" lon="-4.347650">
   <ele>1399.00</ele>
   <time>2014-03-31T09:39:26Z</time>
  </trkpt>
  <trkpt lat="33.456617" lon="-4.347648">
   <ele>1401.00</ele>
   <time>2014-03-31T09:39:29Z</time>
  </trkpt>
  <trkpt lat="33.456383" lon="-4.347650">
   <ele>1401.00</ele>
   <time>2014-03-31T09:39:31Z</time>
  </trkpt>
  <trkpt lat="33.456157" lon="-4.347673">
   <ele>1402.00</ele>
   <time>2014-03-31T09:39:33Z</time>
  </trkpt>
  <trkpt lat="33.455937" lon="-4.347733">
   <ele>1402.00</ele>
   <time>2014-03-31T09:39:35Z</time>
  </trkpt>
  <trkpt lat="33.455717" lon="-4.347821">
   <ele>1401.00</ele>
   <time>2014-03-31T09:39:37Z</time>
  </trkpt>
  <trkpt lat="33.455495" lon="-4.347908">
   <ele>1398.00</ele>
   <time>2014-03-31T09:39:39Z</time>
  </trkpt>
  <trkpt lat="33.455257" lon="-4.347975">
   <ele>1396.00</ele>
   <time>2014-03-31T09:39:41Z</time>
  </trkpt>
  <trkpt lat="33.454869" lon="-4.348054">
   <ele>1391.00</ele>
   <time>2014-03-31T09:39:44Z</time>
  </trkpt>
  <trkpt lat="33.454597" lon="-4.348091">
   <ele>1388.00</ele>
   <time>2014-03-31T09:39:46Z</time>
  </trkpt>
  <trkpt lat="33.454331" lon="-4.348111">
   <ele>1385.00</ele>
   <time>2014-03-31T09:39:48Z</time>
  </trkpt>
  <trkpt lat="33.454056" lon="-4.348115">
   <ele>1382.00</ele>
   <time>2014-03-31T09:39:50Z</time>
  </trkpt>
  <trkpt lat="33.452400" lon="-4.348076">
   <ele>1367.00</ele>
   <time>2014-03-31T09:40:02Z</time>
  </trkpt>
  <trkpt lat="33.452168" lon="-4.348042">
   <ele>1367.00</ele>
   <time>2014-03-31T09:40:04Z</time>
  </trkpt>
  <trkpt lat="33.451731" lon="-4.347945">
   <ele>1366.00</ele>
   <time>2014-03-31T09:40:08Z</time>
  </trkpt>
  <trkpt lat="33.451503" lon="-4.347912">
   <ele>1365.00</ele>
   <time>2014-03-31T09:40:10Z</time>
  </trkpt>
  <trkpt lat="33.450654" lon="-4.347817">
   <ele>1360.00</ele>
   <time>2014-03-31T09:40:17Z</time>
  </trkpt>
  <trkpt lat="33.449133" lon="-4.347691">
   <ele>1352.00</ele>
   <time>2014-03-31T09:40:29Z</time>
  </trkpt>
  <trkpt lat="33.448789" lon="-4.347642">
   <ele>1350.00</ele>
   <time>2014-03-31T09:40:32Z</time>
  </trkpt>
  <trkpt lat="33.448574" lon="-4.347480">
   <ele>1345.00</ele>
   <time>2014-03-31T09:40:35Z</time>
  </trkpt>
  <trkpt lat="33.448523" lon="-4.347258">
   <ele>1342.00</ele>
   <time>2014-03-31T09:40:37Z</time>
  </trkpt>
  <trkpt lat="33.448524" lon="-4.347007">
   <ele>1341.00</ele>
   <time>2014-03-31T09:40:39Z</time>
  </trkpt>
  <trkpt lat="33.448617" lon="-4.346782">
   <ele>1340.00</ele>
   <time>2014-03-31T09:40:41Z</time>
  </trkpt>
  <trkpt lat="33.448775" lon="-4.346604">
   <ele>1341.00</ele>
   <time>2014-03-31T09:40:43Z</time>
  </trkpt>
  <trkpt lat="33.448954" lon="-4.346436">
   <ele>1341.00</ele>
   <time>2014-03-31T09:40:45Z</time>
  </trkpt>
  <trkpt lat="33.449148" lon="-4.346269">
   <ele>1342.00</ele>
   <time>2014-03-31T09:40:47Z</time>
  </trkpt>
  <trkpt lat="33.450070" lon="-4.345460">
   <ele>1343.00</ele>
   <time>2014-03-31T09:40:56Z</time>
  </trkpt>
  <trkpt lat="33.450195" lon="-4.345256">
   <ele>1343.00</ele>
   <time>2014-03-31T09:40:58Z</time>
  </trkpt>
  <trkpt lat="33.450218" lon="-4.345028">
   <ele>1344.00</ele>
   <time>2014-03-31T09:41:00Z</time>
  </trkpt>
  <trkpt lat="33.450153" lon="-4.344812">
   <ele>1345.00</ele>
   <time>2014-03-31T09:41:02Z</time>
  </trkpt>
  <trkpt lat="33.450030" lon="-4.344613">
   <ele>1345.00</ele>
   <time>2014-03-31T09:41:04Z</time>
  </trkpt>
  <trkpt lat="33.449876" lon="-4.344426">
   <ele>1345.00</ele>
   <time>2014-03-31T09:41:06Z</time>
  </trkpt>
  <trkpt lat="33.449717" lon="-4.344231">
   <ele>1346.00</ele>
   <time>2014-03-31T09:41:08Z</time>
  </trkpt>
  <trkpt lat="33.448930" lon="-4.343196">
   <ele>1345.00</ele>
   <time>2014-03-31T09:41:18Z</time>
  </trkpt>
  <trkpt lat="33.448724" lon="-4.343053">
   <ele>1344.00</ele>
   <time>2014-03-31T09:41:21Z</time>
  </trkpt>
  <trkpt lat="33.448504" lon="-4.343127">
   <ele>1344.00</ele>
   <time>2014-03-31T09:41:24Z</time>
  </trkpt>
  <trkpt lat="33.448089" lon="-4.343350">
   <ele>1344.00</ele>
   <time>2014-03-31T09:41:29Z</time>
  </trkpt>
  <trkpt lat="33.447939" lon="-4.343482">
   <ele>1345.00</ele>
   <time>2014-03-31T09:41:31Z</time>
  </trkpt>
  <trkpt lat="33.447821" lon="-4.343656">
   <ele>1344.00</ele>
   <time>2014-03-31T09:41:33Z</time>
  </trkpt>
  <trkpt lat="33.447722" lon="-4.343861">
   <ele>1344.00</ele>
   <time>2014-03-31T09:41:35Z</time>
  </trkpt>
  <trkpt lat="33.447615" lon="-4.344070">
   <ele>1344.00</ele>
   <time>2014-03-31T09:41:37Z</time>
  </trkpt>
  <trkpt lat="33.447491" lon="-4.344270">
   <ele>1345.00</ele>
   <time>2014-03-31T09:41:39Z</time>
  </trkpt>
  <trkpt lat="33.447348" lon="-4.344460">
   <ele>1345.00</ele>
   <time>2014-03-31T09:41:41Z</time>
  </trkpt>
  <trkpt lat="33.447190" lon="-4.344648">
   <ele>1344.00</ele>
   <time>2014-03-31T09:41:43Z</time>
  </trkpt>
  <trkpt lat="33.446837" lon="-4.345035">
   <ele>1344.00</ele>
   <time>2014-03-31T09:41:47Z</time>
  </trkpt>
  <trkpt lat="33.446480" lon="-4.345418">
   <ele>1343.00</ele>
   <time>2014-03-31T09:41:51Z</time>
  </trkpt>
  <trkpt lat="33.446336" lon="-4.345640">
   <ele>1343.00</ele>
   <time>2014-03-31T09:41:53Z</time>
  </trkpt>
  <trkpt lat="33.446210" lon="-4.345881">
   <ele>1342.00</ele>
   <time>2014-03-31T09:41:55Z</time>
  </trkpt>
  <trkpt lat="33.446080" lon="-4.346126">
   <ele>1343.00</ele>
   <time>2014-03-31T09:41:57Z</time>
  </trkpt>
  <trkpt lat="33.445920" lon="-4.346341">
   <ele>1343.00</ele>
   <time>2014-03-31T09:41:59Z</time>
  </trkpt>
  <trkpt lat="33.445732" lon="-4.346520">
   <ele>1343.00</ele>
   <time>2014-03-31T09:42:01Z</time>
  </trkpt>
  <trkpt lat="33.445233" lon="-4.346932">
   <ele>1346.00</ele>
   <time>2014-03-31T09:42:06Z</time>
  </trkpt>
  <trkpt lat="33.445062" lon="-4.347124">
   <ele>1347.00</ele>
   <time>2014-03-31T09:42:08Z</time>
  </trkpt>
  <trkpt lat="33.444932" lon="-4.347349">
   <ele>1347.00</ele>
   <time>2014-03-31T09:42:10Z</time>
  </trkpt>
  <trkpt lat="33.444633" lon="-4.347920">
   <ele>1347.00</ele>
   <time>2014-03-31T09:42:15Z</time>
  </trkpt>
  <trkpt lat="33.444495" lon="-4.348102">
   <ele>1348.00</ele>
   <time>2014-03-31T09:42:17Z</time>
  </trkpt>
  <trkpt lat="33.444346" lon="-4.348242">
   <ele>1348.00</ele>
   <time>2014-03-31T09:42:19Z</time>
  </trkpt>
  <trkpt lat="33.444181" lon="-4.348342">
   <ele>1348.00</ele>
   <time>2014-03-31T09:42:21Z</time>
  </trkpt>
  <trkpt lat="33.444006" lon="-4.348414">
   <ele>1348.00</ele>
   <time>2014-03-31T09:42:23Z</time>
  </trkpt>
  <trkpt lat="33.443364" lon="-4.348673">
   <ele>1349.00</ele>
   <time>2014-03-31T09:42:30Z</time>
  </trkpt>
  <trkpt lat="33.442995" lon="-4.348838">
   <ele>1349.00</ele>
   <time>2014-03-31T09:42:34Z</time>
  </trkpt>
  <trkpt lat="33.442797" lon="-4.348901">
   <ele>1349.00</ele>
   <time>2014-03-31T09:42:36Z</time>
  </trkpt>
  <trkpt lat="33.442588" lon="-4.348946">
   <ele>1349.00</ele>
   <time>2014-03-31T09:42:38Z</time>
  </trkpt>
  <trkpt lat="33.442370" lon="-4.348978">
   <ele>1349.00</ele>
   <time>2014-03-31T09:42:40Z</time>
  </trkpt>
  <trkpt lat="33.442155" lon="-4.348989">
   <ele>1350.00</ele>
   <time>2014-03-31T09:42:42Z</time>
  </trkpt>
  <trkpt lat="33.441852" lon="-4.348996">
   <ele>1351.00</ele>
   <time>2014-03-31T09:42:45Z</time>
  </trkpt>
  <trkpt lat="33.441658" lon="-4.349002">
   <ele>1351.00</ele>
   <time>2014-03-31T09:42:47Z</time>
  </trkpt>
  <trkpt lat="33.441260" lon="-4.348998">
   <ele>1352.00</ele>
   <time>2014-03-31T09:42:51Z</time>
  </trkpt>
  <trkpt lat="33.440140" lon="-4.348973">
   <ele>1357.00</ele>
   <time>2014-03-31T09:43:01Z</time>
  </trkpt>
  <trkpt lat="33.439480" lon="-4.348973">
   <ele>1359.00</ele>
   <time>2014-03-31T09:43:07Z</time>
  </trkpt>
  <trkpt lat="33.439262" lon="-4.348940">
   <ele>1360.00</ele>
   <time>2014-03-31T09:43:09Z</time>
  </trkpt>
  <trkpt lat="33.439039" lon="-4.348880">
   <ele>1360.00</ele>
   <time>2014-03-31T09:43:11Z</time>
  </trkpt>
  <trkpt lat="33.438708" lon="-4.348777">
   <ele>1361.00</ele>
   <time>2014-03-31T09:43:14Z</time>
  </trkpt>
  <trkpt lat="33.438495" lon="-4.348687">
   <ele>1361.00</ele>
   <time>2014-03-31T09:43:16Z</time>
  </trkpt>
  <trkpt lat="33.438294" lon="-4.348570">
   <ele>1360.00</ele>
   <time>2014-03-31T09:43:18Z</time>
  </trkpt>
  <trkpt lat="33.438104" lon="-4.348434">
   <ele>1359.00</ele>
   <time>2014-03-31T09:43:20Z</time>
  </trkpt>
  <trkpt lat="33.437619" lon="-4.348090">
   <ele>1357.00</ele>
   <time>2014-03-31T09:43:25Z</time>
  </trkpt>
  <trkpt lat="33.437412" lon="-4.347982">
   <ele>1357.00</ele>
   <time>2014-03-31T09:43:27Z</time>
  </trkpt>
  <trkpt lat="33.437203" lon="-4.347901">
   <ele>1357.00</ele>
   <time>2014-03-31T09:43:29Z</time>
  </trkpt>
  <trkpt lat="33.436670" lon="-4.347738">
   <ele>1357.00</ele>
   <time>2014-03-31T09:43:34Z</time>
  </trkpt>
  <trkpt lat="33.436337" lon="-4.347652">
   <ele>1357.00</ele>
   <time>2014-03-31T09:43:37Z</time>
  </trkpt>
  <trkpt lat="33.436110" lon="-4.347610">
   <ele>1357.00</ele>
   <time>2014-03-31T09:43:39Z</time>
  </trkpt>
  <trkpt lat="33.435881" lon="-4.347581">
   <ele>1357.00</ele>
   <time>2014-03-31T09:43:41Z</time>
  </trkpt>
  <trkpt lat="33.435069" lon="-4.347473">
   <ele>1358.00</ele>
   <time>2014-03-31T09:43:48Z</time>
  </trkpt>
  <trkpt lat="33.434268" lon="-4.347331">
   <ele>1359.00</ele>
   <time>2014-03-31T09:43:55Z</time>
  </trkpt>
  <trkpt lat="33.434041" lon="-4.347278">
   <ele>1359.00</ele>
   <time>2014-03-31T09:43:57Z</time>
  </trkpt>
  <trkpt lat="33.433821" lon="-4.347210">
   <ele>1359.00</ele>
   <time>2014-03-31T09:43:59Z</time>
  </trkpt>
  <trkpt lat="33.433278" lon="-4.347003">
   <ele>1356.00</ele>
   <time>2014-03-31T09:44:04Z</time>
  </trkpt>
  <trkpt lat="33.432724" lon="-4.346788">
   <ele>1355.00</ele>
   <time>2014-03-31T09:44:09Z</time>
  </trkpt>
  <trkpt lat="33.432496" lon="-4.346717">
   <ele>1355.00</ele>
   <time>2014-03-31T09:44:11Z</time>
  </trkpt>
  <trkpt lat="33.432267" lon="-4.346664">
   <ele>1355.00</ele>
   <time>2014-03-31T09:44:13Z</time>
  </trkpt>
  <trkpt lat="33.431569" lon="-4.346533">
   <ele>1355.00</ele>
   <time>2014-03-31T09:44:19Z</time>
  </trkpt>
  <trkpt lat="33.430064" lon="-4.346085">
   <ele>1358.00</ele>
   <time>2014-03-31T09:44:31Z</time>
  </trkpt>
  <trkpt lat="33.429809" lon="-4.345982">
   <ele>1359.00</ele>
   <time>2014-03-31T09:44:33Z</time>
  </trkpt>
  <trkpt lat="33.429566" lon="-4.345854">
   <ele>1359.00</ele>
   <time>2014-03-31T09:44:35Z</time>
  </trkpt>
  <trkpt lat="33.429340" lon="-4.345708">
   <ele>1360.00</ele>
   <time>2014-03-31T09:44:37Z</time>
  </trkpt>
  <trkpt lat="33.428794" lon="-4.345339">
   <ele>1360.00</ele>
   <time>2014-03-31T09:44:42Z</time>
  </trkpt>
  <trkpt lat="33.428578" lon="-4.345225">
   <ele>1360.00</ele>
   <time>2014-03-31T09:44:44Z</time>
  </trkpt>
  <trkpt lat="33.428351" lon="-4.345164">
   <ele>1361.00</ele>
   <time>2014-03-31T09:44:46Z</time>
  </trkpt>
  <trkpt lat="33.428107" lon="-4.345153">
   <ele>1360.00</ele>
   <time>2014-03-31T09:44:48Z</time>
  </trkpt>
  <trkpt lat="33.427717" lon="-4.345152">
   <ele>1361.00</ele>
   <time>2014-03-31T09:44:51Z</time>
  </trkpt>
  <trkpt lat="33.427449" lon="-4.345135">
   <ele>1361.00</ele>
   <time>2014-03-31T09:44:53Z</time>
  </trkpt>
  <trkpt lat="33.427193" lon="-4.345098">
   <ele>1362.00</ele>
   <time>2014-03-31T09:44:55Z</time>
  </trkpt>
  <trkpt lat="33.426963" lon="-4.345020">
   <ele>1363.00</ele>
   <time>2014-03-31T09:44:57Z</time>
  </trkpt>
  <trkpt lat="33.426759" lon="-4.344891">
   <ele>1363.00</ele>
   <time>2014-03-31T09:44:59Z</time>
  </trkpt>
  <trkpt lat="33.426457" lon="-4.344675">
   <ele>1364.00</ele>
   <time>2014-03-31T09:45:02Z</time>
  </trkpt>
  <trkpt lat="33.426141" lon="-4.344490">
   <ele>1364.00</ele>
   <time>2014-03-31T09:45:05Z</time>
  </trkpt>
  <trkpt lat="33.425928" lon="-4.344376">
   <ele>1364.00</ele>
   <time>2014-03-31T09:45:07Z</time>
  </trkpt>
  <trkpt lat="33.425706" lon="-4.344279">
   <ele>1363.00</ele>
   <time>2014-03-31T09:45:09Z</time>
  </trkpt>
  <trkpt lat="33.425473" lon="-4.344199">
   <ele>1363.00</ele>
   <time>2014-03-31T09:45:11Z</time>
  </trkpt>
  <trkpt lat="33.424887" lon="-4.344018">
   <ele>1363.00</ele>
   <time>2014-03-31T09:45:16Z</time>
  </trkpt>
  <trkpt lat="33.424668" lon="-4.343905">
   <ele>1363.00</ele>
   <time>2014-03-31T09:45:18Z</time>
  </trkpt>
  <trkpt lat="33.424474" lon="-4.343732">
   <ele>1363.00</ele>
   <time>2014-03-31T09:45:20Z</time>
  </trkpt>
  <trkpt lat="33.424294" lon="-4.343522">
   <ele>1363.00</ele>
   <time>2014-03-31T09:45:22Z</time>
  </trkpt>
  <trkpt lat="33.423948" lon="-4.343087">
   <ele>1364.00</ele>
   <time>2014-03-31T09:45:26Z</time>
  </trkpt>
  <trkpt lat="33.423785" lon="-4.342881">
   <ele>1364.00</ele>
   <time>2014-03-31T09:45:28Z</time>
  </trkpt>
  <trkpt lat="33.423628" lon="-4.342706">
   <ele>1365.00</ele>
   <time>2014-03-31T09:45:30Z</time>
  </trkpt>
  <trkpt lat="33.423436" lon="-4.342537">
   <ele>1366.00</ele>
   <time>2014-03-31T09:45:33Z</time>
  </trkpt>
  <trkpt lat="33.423278" lon="-4.342404">
   <ele>1367.00</ele>
   <time>2014-03-31T09:45:37Z</time>
  </trkpt>
  <trkpt lat="33.423171" lon="-4.342233">
   <ele>1367.00</ele>
   <time>2014-03-31T09:45:42Z</time>
  </trkpt>
  <trkpt lat="33.423164" lon="-4.342164">
   <ele>1367.00</ele>
   <time>2014-03-31T09:45:58Z</time>
  </trkpt>
  <trkpt lat="33.423173" lon="-4.342170">
   <ele>1369.00</ele>
   <time>2014-03-31T09:46:13Z</time>
  </trkpt>
  <trkpt lat="33.423178" lon="-4.342176">
   <ele>1371.00</ele>
   <time>2014-03-31T09:46:29Z</time>
  </trkpt>
  <trkpt lat="33.423181" lon="-4.342180">
   <ele>1371.00</ele>
   <time>2014-03-31T09:46:44Z</time>
  </trkpt>
  <trkpt lat="33.423182" lon="-4.342181">
   <ele>1372.00</ele>
   <time>2014-03-31T09:46:59Z</time>
  </trkpt>
  <trkpt lat="33.423183" lon="-4.342185">
   <ele>1371.00</ele>
   <time>2014-03-31T09:47:15Z</time>
  </trkpt>
  <trkpt lat="33.423154" lon="-4.341967">
   <ele>1371.00</ele>
   <time>2014-03-31T09:47:24Z</time>
  </trkpt>
  <trkpt lat="33.423003" lon="-4.340846">
   <ele>1370.00</ele>
   <time>2014-03-31T09:47:39Z</time>
  </trkpt>
  <trkpt lat="33.422975" lon="-4.340572">
   <ele>1371.00</ele>
   <time>2014-03-31T09:47:42Z</time>
  </trkpt>
  <trkpt lat="33.422853" lon="-4.338855">
   <ele>1375.00</ele>
   <time>2014-03-31T09:47:58Z</time>
  </trkpt>
  <trkpt lat="33.422803" lon="-4.338266">
   <ele>1376.00</ele>
   <time>2014-03-31T09:48:03Z</time>
  </trkpt>
  <trkpt lat="33.422755" lon="-4.337780">
   <ele>1377.00</ele>
   <time>2014-03-31T09:48:07Z</time>
  </trkpt>
  <trkpt lat="33.422720" lon="-4.337249">
   <ele>1377.00</ele>
   <time>2014-03-31T09:48:11Z</time>
  </trkpt>
  <trkpt lat="33.422530" lon="-4.335189">
   <ele>1380.00</ele>
   <time>2014-03-31T09:48:26Z</time>
  </trkpt>
  <trkpt lat="33.422447" lon="-4.334368">
   <ele>1382.00</ele>
   <time>2014-03-31T09:48:32Z</time>
  </trkpt>
  <trkpt lat="33.422402" lon="-4.334097">
   <ele>1383.00</ele>
   <time>2014-03-31T09:48:34Z</time>
  </trkpt>
  <trkpt lat="33.422322" lon="-4.333864">
   <ele>1384.00</ele>
   <time>2014-03-31T09:48:36Z</time>
  </trkpt>
  <trkpt lat="33.422187" lon="-4.333704">
   <ele>1385.00</ele>
   <time>2014-03-31T09:48:38Z</time>
  </trkpt>
  <trkpt lat="33.422025" lon="-4.333603">
   <ele>1385.00</ele>
   <time>2014-03-31T09:48:40Z</time>
  </trkpt>
  <trkpt lat="33.421844" lon="-4.333518">
   <ele>1386.00</ele>
   <time>2014-03-31T09:48:42Z</time>
  </trkpt>
  <trkpt lat="33.421239" lon="-4.333243">
   <ele>1388.00</ele>
   <time>2014-03-31T09:48:49Z</time>
  </trkpt>
  <trkpt lat="33.420902" lon="-4.333064">
   <ele>1388.00</ele>
   <time>2014-03-31T09:48:53Z</time>
  </trkpt>
  <trkpt lat="33.420717" lon="-4.332951">
   <ele>1388.00</ele>
   <time>2014-03-31T09:48:56Z</time>
  </trkpt>
  <trkpt lat="33.420642" lon="-4.332744">
   <ele>1388.00</ele>
   <time>2014-03-31T09:49:01Z</time>
  </trkpt>
  <trkpt lat="33.420845" lon="-4.332591">
   <ele>1388.00</ele>
   <time>2014-03-31T09:49:05Z</time>
  </trkpt>
  <trkpt lat="33.421571" lon="-4.332061">
   <ele>1394.00</ele>
   <time>2014-03-31T09:49:15Z</time>
  </trkpt>
  <trkpt lat="33.421703" lon="-4.331906">
   <ele>1396.00</ele>
   <time>2014-03-31T09:49:17Z</time>
  </trkpt>
  <trkpt lat="33.421809" lon="-4.331718">
   <ele>1398.00</ele>
   <time>2014-03-31T09:49:19Z</time>
  </trkpt>
  <trkpt lat="33.421879" lon="-4.331499">
   <ele>1401.00</ele>
   <time>2014-03-31T09:49:21Z</time>
  </trkpt>
  <trkpt lat="33.421926" lon="-4.331257">
   <ele>1403.00</ele>
   <time>2014-03-31T09:49:23Z</time>
  </trkpt>
  <trkpt lat="33.421996" lon="-4.330735">
   <ele>1408.00</ele>
   <time>2014-03-31T09:49:27Z</time>
  </trkpt>
  <trkpt lat="33.422174" lon="-4.329334">
   <ele>1419.00</ele>
   <time>2014-03-31T09:49:37Z</time>
  </trkpt>
  <trkpt lat="33.422224" lon="-4.329056">
   <ele>1422.00</ele>
   <time>2014-03-31T09:49:39Z</time>
  </trkpt>
  <trkpt lat="33.422295" lon="-4.328783">
   <ele>1424.00</ele>
   <time>2014-03-31T09:49:41Z</time>
  </trkpt>
  <trkpt lat="33.422391" lon="-4.328519">
   <ele>1427.00</ele>
   <time>2014-03-31T09:49:43Z</time>
  </trkpt>
  <trkpt lat="33.422730" lon="-4.327742">
   <ele>1434.00</ele>
   <time>2014-03-31T09:49:49Z</time>
  </trkpt>
  <trkpt lat="33.423651" lon="-4.325699">
   <ele>1440.00</ele>
   <time>2014-03-31T09:50:05Z</time>
  </trkpt>
  <trkpt lat="33.423770" lon="-4.325478">
   <ele>1440.00</ele>
   <time>2014-03-31T09:50:07Z</time>
  </trkpt>
  <trkpt lat="33.423891" lon="-4.325283">
   <ele>1440.00</ele>
   <time>2014-03-31T09:50:09Z</time>
  </trkpt>
  <trkpt lat="33.424011" lon="-4.325114">
   <ele>1440.00</ele>
   <time>2014-03-31T09:50:11Z</time>
  </trkpt>
  <trkpt lat="33.424200" lon="-4.324888">
   <ele>1439.00</ele>
   <time>2014-03-31T09:50:14Z</time>
  </trkpt>
  <trkpt lat="33.424328" lon="-4.324730">
   <ele>1438.00</ele>
   <time>2014-03-31T09:50:16Z</time>
  </trkpt>
  <trkpt lat="33.424454" lon="-4.324554">
   <ele>1438.00</ele>
   <time>2014-03-31T09:50:18Z</time>
  </trkpt>
  <trkpt lat="33.424572" lon="-4.324365">
   <ele>1437.00</ele>
   <time>2014-03-31T09:50:20Z</time>
  </trkpt>
  <trkpt lat="33.424666" lon="-4.324158">
   <ele>1437.00</ele>
   <time>2014-03-31T09:50:22Z</time>
  </trkpt>
  <trkpt lat="33.424737" lon="-4.323944">
   <ele>1437.00</ele>
   <time>2014-03-31T09:50:24Z</time>
  </trkpt>
  <trkpt lat="33.424793" lon="-4.323730">
   <ele>1437.00</ele>
   <time>2014-03-31T09:50:26Z</time>
  </trkpt>
  <trkpt lat="33.424932" lon="-4.323122">
   <ele>1439.00</ele>
   <time>2014-03-31T09:50:32Z</time>
  </trkpt>
  <trkpt lat="33.424991" lon="-4.322918">
   <ele>1439.00</ele>
   <time>2014-03-31T09:50:34Z</time>
  </trkpt>
  <trkpt lat="33.425067" lon="-4.322710">
   <ele>1439.00</ele>
   <time>2014-03-31T09:50:36Z</time>
  </trkpt>
  <trkpt lat="33.425163" lon="-4.322500">
   <ele>1439.00</ele>
   <time>2014-03-31T09:50:38Z</time>
  </trkpt>
  <trkpt lat="33.425274" lon="-4.322293">
   <ele>1438.00</ele>
   <time>2014-03-31T09:50:40Z</time>
  </trkpt>
  <trkpt lat="33.425395" lon="-4.322085">
   <ele>1437.00</ele>
   <time>2014-03-31T09:50:42Z</time>
  </trkpt>
  <trkpt lat="33.425526" lon="-4.321889">
   <ele>1437.00</ele>
   <time>2014-03-31T09:50:44Z</time>
  </trkpt>
  <trkpt lat="33.425683" lon="-4.321729">
   <ele>1435.00</ele>
   <time>2014-03-31T09:50:46Z</time>
  </trkpt>
  <trkpt lat="33.425868" lon="-4.321610">
   <ele>1434.00</ele>
   <time>2014-03-31T09:50:48Z</time>
  </trkpt>
  <trkpt lat="33.426074" lon="-4.321528">
   <ele>1433.00</ele>
   <time>2014-03-31T09:50:50Z</time>
  </trkpt>
  <trkpt lat="33.426983" lon="-4.321208">
   <ele>1430.00</ele>
   <time>2014-03-31T09:50:58Z</time>
  </trkpt>
  <trkpt lat="33.427700" lon="-4.320979">
   <ele>1430.00</ele>
   <time>2014-03-31T09:51:05Z</time>
  </trkpt>
  <trkpt lat="33.427833" lon="-4.320787">
   <ele>1429.00</ele>
   <time>2014-03-31T09:51:09Z</time>
  </trkpt>
  <trkpt lat="33.427663" lon="-4.320607">
   <ele>1427.00</ele>
   <time>2014-03-31T09:51:12Z</time>
  </trkpt>
  <trkpt lat="33.427469" lon="-4.320582">
   <ele>1425.00</ele>
   <time>2014-03-31T09:51:14Z</time>
  </trkpt>
  <trkpt lat="33.427249" lon="-4.320624">
   <ele>1424.00</ele>
   <time>2014-03-31T09:51:16Z</time>
  </trkpt>
  <trkpt lat="33.426883" lon="-4.320724">
   <ele>1421.00</ele>
   <time>2014-03-31T09:51:19Z</time>
  </trkpt>
  <trkpt lat="33.425856" lon="-4.321023">
   <ele>1416.00</ele>
   <time>2014-03-31T09:51:27Z</time>
  </trkpt>
  <trkpt lat="33.425594" lon="-4.321069">
   <ele>1415.00</ele>
   <time>2014-03-31T09:51:29Z</time>
  </trkpt>
  <trkpt lat="33.425329" lon="-4.321079">
   <ele>1414.00</ele>
   <time>2014-03-31T09:51:31Z</time>
  </trkpt>
  <trkpt lat="33.425066" lon="-4.321061">
   <ele>1413.00</ele>
   <time>2014-03-31T09:51:33Z</time>
  </trkpt>
  <trkpt lat="33.424679" lon="-4.321020">
   <ele>1411.00</ele>
   <time>2014-03-31T09:51:36Z</time>
  </trkpt>
  <trkpt lat="33.424449" lon="-4.320959">
   <ele>1410.00</ele>
   <time>2014-03-31T09:51:38Z</time>
  </trkpt>
  <trkpt lat="33.424248" lon="-4.320831">
   <ele>1409.00</ele>
   <time>2014-03-31T09:51:40Z</time>
  </trkpt>
  <trkpt lat="33.424079" lon="-4.320661">
   <ele>1409.00</ele>
   <time>2014-03-31T09:51:42Z</time>
  </trkpt>
  <trkpt lat="33.423914" lon="-4.320509">
   <ele>1408.00</ele>
   <time>2014-03-31T09:51:44Z</time>
  </trkpt>
  <trkpt lat="33.423733" lon="-4.320407">
   <ele>1407.00</ele>
   <time>2014-03-31T09:51:46Z</time>
  </trkpt>
  <trkpt lat="33.423484" lon="-4.320373">
   <ele>1406.00</ele>
   <time>2014-03-31T09:51:49Z</time>
  </trkpt>
  <trkpt lat="33.423286" lon="-4.320429">
   <ele>1405.00</ele>
   <time>2014-03-31T09:51:52Z</time>
  </trkpt>
  <trkpt lat="33.423092" lon="-4.320519">
   <ele>1404.00</ele>
   <time>2014-03-31T09:51:55Z</time>
  </trkpt>
  <trkpt lat="33.422920" lon="-4.320677">
   <ele>1405.00</ele>
   <time>2014-03-31T09:51:58Z</time>
  </trkpt>
  <trkpt lat="33.422742" lon="-4.320847">
   <ele>1405.00</ele>
   <time>2014-03-31T09:52:01Z</time>
  </trkpt>
  <trkpt lat="33.422534" lon="-4.320974">
   <ele>1406.00</ele>
   <time>2014-03-31T09:52:04Z</time>
  </trkpt>
  <trkpt lat="33.422296" lon="-4.320977">
   <ele>1406.00</ele>
   <time>2014-03-31T09:52:07Z</time>
  </trkpt>
  <trkpt lat="33.422061" lon="-4.320860">
   <ele>1407.00</ele>
   <time>2014-03-31T09:52:10Z</time>
  </trkpt>
  <trkpt lat="33.421898" lon="-4.320750">
   <ele>1408.00</ele>
   <time>2014-03-31T09:52:12Z</time>
  </trkpt>
  <trkpt lat="33.421475" lon="-4.320441">
   <ele>1409.00</ele>
   <time>2014-03-31T09:52:17Z</time>
  </trkpt>
  <trkpt lat="33.421327" lon="-4.320277">
   <ele>1410.00</ele>
   <time>2014-03-31T09:52:19Z</time>
  </trkpt>
  <trkpt lat="33.421197" lon="-4.320078">
   <ele>1410.00</ele>
   <time>2014-03-31T09:52:21Z</time>
  </trkpt>
  <trkpt lat="33.421080" lon="-4.319853">
   <ele>1410.00</ele>
   <time>2014-03-31T09:52:23Z</time>
  </trkpt>
  <trkpt lat="33.420858" lon="-4.319400">
   <ele>1410.00</ele>
   <time>2014-03-31T09:52:27Z</time>
  </trkpt>
  <trkpt lat="33.420717" lon="-4.319199">
   <ele>1411.00</ele>
   <time>2014-03-31T09:52:29Z</time>
  </trkpt>
  <trkpt lat="33.420548" lon="-4.319032">
   <ele>1411.00</ele>
   <time>2014-03-31T09:52:31Z</time>
  </trkpt>
  <trkpt lat="33.420362" lon="-4.318885">
   <ele>1411.00</ele>
   <time>2014-03-31T09:52:33Z</time>
  </trkpt>
  <trkpt lat="33.420153" lon="-4.318748">
   <ele>1412.00</ele>
   <time>2014-03-31T09:52:35Z</time>
  </trkpt>
  <trkpt lat="33.418985" lon="-4.318048">
   <ele>1414.00</ele>
   <time>2014-03-31T09:52:46Z</time>
  </trkpt>
  <trkpt lat="33.418801" lon="-4.317938">
   <ele>1414.00</ele>
   <time>2014-03-31T09:52:48Z</time>
  </trkpt>
  <trkpt lat="33.418634" lon="-4.317808">
   <ele>1414.00</ele>
   <time>2014-03-31T09:52:50Z</time>
  </trkpt>
  <trkpt lat="33.418403" lon="-4.317585">
   <ele>1414.00</ele>
   <time>2014-03-31T09:52:53Z</time>
  </trkpt>
  <trkpt lat="33.417714" lon="-4.316912">
   <ele>1416.00</ele>
   <time>2014-03-31T09:53:03Z</time>
  </trkpt>
  <trkpt lat="33.417609" lon="-4.316817">
   <ele>1416.00</ele>
   <time>2014-03-31T09:53:19Z</time>
  </trkpt>
  <trkpt lat="33.417621" lon="-4.316822">
   <ele>1416.00</ele>
   <time>2014-03-31T09:53:34Z</time>
  </trkpt>
  <trkpt lat="33.417625" lon="-4.316822">
   <ele>1416.00</ele>
   <time>2014-03-31T09:53:49Z</time>
  </trkpt>
  <trkpt lat="33.417628" lon="-4.316825">
   <ele>1416.00</ele>
   <time>2014-03-31T09:54:05Z</time>
  </trkpt>
  <trkpt lat="33.417631" lon="-4.316829">
   <ele>1417.00</ele>
   <time>2014-03-31T09:54:20Z</time>
  </trkpt>
  <trkpt lat="33.417634" lon="-4.316833">
   <ele>1418.00</ele>
   <time>2014-03-31T09:54:35Z</time>
  </trkpt>
  <trkpt lat="33.417636" lon="-4.316835">
   <ele>1417.00</ele>
   <time>2014-03-31T09:54:51Z</time>
  </trkpt>
  <trkpt lat="33.417637" lon="-4.316835">
   <ele>1418.00</ele>
   <time>2014-03-31T09:55:06Z</time>
  </trkpt>
  <trkpt lat="33.417637" lon="-4.316835">
   <ele>1418.00</ele>
   <time>2014-03-31T09:55:21Z</time>
  </trkpt>
  <trkpt lat="33.417638" lon="-4.316836">
   <ele>1418.00</ele>
   <time>2014-03-31T09:55:37Z</time>
  </trkpt>
  <trkpt lat="33.417637" lon="-4.316837">
   <ele>1418.00</ele>
   <time>2014-03-31T09:55:52Z</time>
  </trkpt>
  <trkpt lat="33.417634" lon="-4.316828">
   <ele>1418.00</ele>
   <time>2014-03-31T09:56:07Z</time>
  </trkpt>
  <trkpt lat="33.417635" lon="-4.316830">
   <ele>1418.00</ele>
   <time>2014-03-31T09:56:23Z</time>
  </trkpt>
  <trkpt lat="33.417637" lon="-4.316834">
   <ele>1419.00</ele>
   <time>2014-03-31T09:56:38Z</time>
  </trkpt>
  <trkpt lat="33.417636" lon="-4.316834">
   <ele>1418.00</ele>
   <time>2014-03-31T09:56:53Z</time>
  </trkpt>
  <trkpt lat="33.417637" lon="-4.316835">
   <ele>1418.00</ele>
   <time>2014-03-31T09:57:08Z</time>
  </trkpt>
  <trkpt lat="33.417636" lon="-4.316836">
   <ele>1418.00</ele>
   <time>2014-03-31T09:57:24Z</time>
  </trkpt>
  <trkpt lat="33.417635" lon="-4.316836">
   <ele>1417.00</ele>
   <time>2014-03-31T09:57:39Z</time>
  </trkpt>
  <trkpt lat="33.417597" lon="-4.316772">
   <ele>1417.00</ele>
   <time>2014-03-31T09:57:55Z</time>
  </trkpt>
  <trkpt lat="33.417459" lon="-4.316610">
   <ele>1417.00</ele>
   <time>2014-03-31T09:58:00Z</time>
  </trkpt>
  <trkpt lat="33.417286" lon="-4.316446">
   <ele>1418.00</ele>
   <time>2014-03-31T09:58:04Z</time>
  </trkpt>
  <trkpt lat="33.417069" lon="-4.316251">
   <ele>1418.00</ele>
   <time>2014-03-31T09:58:08Z</time>
  </trkpt>
  <trkpt lat="33.416906" lon="-4.316065">
   <ele>1419.00</ele>
   <time>2014-03-31T09:58:11Z</time>
  </trkpt>
  <trkpt lat="33.416631" lon="-4.315727">
   <ele>1419.00</ele>
   <time>2014-03-31T09:58:16Z</time>
  </trkpt>
  <trkpt lat="33.416129" lon="-4.315127">
   <ele>1419.00</ele>
   <time>2014-03-31T09:58:24Z</time>
  </trkpt>
  <trkpt lat="33.415973" lon="-4.314876">
   <ele>1420.00</ele>
   <time>2014-03-31T09:58:27Z</time>
  </trkpt>
  <trkpt lat="33.415829" lon="-4.314601">
   <ele>1420.00</ele>
   <time>2014-03-31T09:58:30Z</time>
  </trkpt>
  <trkpt lat="33.415258" lon="-4.313453">
   <ele>1420.00</ele>
   <time>2014-03-31T09:58:42Z</time>
  </trkpt>
  <trkpt lat="33.415178" lon="-4.313248">
   <ele>1420.00</ele>
   <time>2014-03-31T09:58:44Z</time>
  </trkpt>
  <trkpt lat="33.415112" lon="-4.313034">
   <ele>1421.00</ele>
   <time>2014-03-31T09:58:46Z</time>
  </trkpt>
  <trkpt lat="33.415035" lon="-4.312823">
   <ele>1421.00</ele>
   <time>2014-03-31T09:58:48Z</time>
  </trkpt>
  <trkpt lat="33.414936" lon="-4.312618">
   <ele>1421.00</ele>
   <time>2014-03-31T09:58:50Z</time>
  </trkpt>
  <trkpt lat="33.414814" lon="-4.312426">
   <ele>1421.00</ele>
   <time>2014-03-31T09:58:52Z</time>
  </trkpt>
  <trkpt lat="33.414555" lon="-4.312046">
   <ele>1422.00</ele>
   <time>2014-03-31T09:58:56Z</time>
  </trkpt>
  <trkpt lat="33.414442" lon="-4.311827">
   <ele>1422.00</ele>
   <time>2014-03-31T09:58:58Z</time>
  </trkpt>
  <trkpt lat="33.414341" lon="-4.311592">
   <ele>1422.00</ele>
   <time>2014-03-31T09:59:00Z</time>
  </trkpt>
  <trkpt lat="33.414189" lon="-4.311231">
   <ele>1422.00</ele>
   <time>2014-03-31T09:59:03Z</time>
  </trkpt>
  <trkpt lat="33.414063" lon="-4.311006">
   <ele>1422.00</ele>
   <time>2014-03-31T09:59:05Z</time>
  </trkpt>
  <trkpt lat="33.413925" lon="-4.310799">
   <ele>1422.00</ele>
   <time>2014-03-31T09:59:07Z</time>
  </trkpt>
  <trkpt lat="33.413716" lon="-4.310513">
   <ele>1422.00</ele>
   <time>2014-03-31T09:59:10Z</time>
  </trkpt>
  <trkpt lat="33.413510" lon="-4.310239">
   <ele>1423.00</ele>
   <time>2014-03-31T09:59:13Z</time>
  </trkpt>
  <trkpt lat="33.413415" lon="-4.310034">
   <ele>1423.00</ele>
   <time>2014-03-31T09:59:15Z</time>
  </trkpt>
  <trkpt lat="33.413347" lon="-4.309824">
   <ele>1423.00</ele>
   <time>2014-03-31T09:59:17Z</time>
  </trkpt>
  <trkpt lat="33.413224" lon="-4.309415">
   <ele>1424.00</ele>
   <time>2014-03-31T09:59:21Z</time>
  </trkpt>
  <trkpt lat="33.413122" lon="-4.309128">
   <ele>1424.00</ele>
   <time>2014-03-31T09:59:24Z</time>
  </trkpt>
  <trkpt lat="33.413028" lon="-4.308941">
   <ele>1424.00</ele>
   <time>2014-03-31T09:59:26Z</time>
  </trkpt>
  <trkpt lat="33.412912" lon="-4.308769">
   <ele>1424.00</ele>
   <time>2014-03-31T09:59:28Z</time>
  </trkpt>
  <trkpt lat="33.412780" lon="-4.308616">
   <ele>1424.00</ele>
   <time>2014-03-31T09:59:30Z</time>
  </trkpt>
  <trkpt lat="33.412628" lon="-4.308496">
   <ele>1424.00</ele>
   <time>2014-03-31T09:59:32Z</time>
  </trkpt>
  <trkpt lat="33.412463" lon="-4.308401">
   <ele>1425.00</ele>
   <time>2014-03-31T09:59:34Z</time>
  </trkpt>
  <trkpt lat="33.411932" lon="-4.308098">
   <ele>1426.00</ele>
   <time>2014-03-31T09:59:40Z</time>
  </trkpt>
  <trkpt lat="33.411738" lon="-4.308026">
   <ele>1427.00</ele>
   <time>2014-03-31T09:59:42Z</time>
  </trkpt>
  <trkpt lat="33.411543" lon="-4.307985">
   <ele>1427.00</ele>
   <time>2014-03-31T09:59:44Z</time>
  </trkpt>
  <trkpt lat="33.411350" lon="-4.308000">
   <ele>1428.00</ele>
   <time>2014-03-31T09:59:46Z</time>
  </trkpt>
  <trkpt lat="33.411170" lon="-4.308099">
   <ele>1428.00</ele>
   <time>2014-03-31T09:59:48Z</time>
  </trkpt>
  <trkpt lat="33.411022" lon="-4.308267">
   <ele>1428.00</ele>
   <time>2014-03-31T09:59:50Z</time>
  </trkpt>
  <trkpt lat="33.410918" lon="-4.308470">
   <ele>1427.00</ele>
   <time>2014-03-31T09:59:52Z</time>
  </trkpt>
  <trkpt lat="33.410888" lon="-4.308703">
   <ele>1427.00</ele>
   <time>2014-03-31T09:59:54Z</time>
  </trkpt>
  <trkpt lat="33.410906" lon="-4.308938">
   <ele>1428.00</ele>
   <time>2014-03-31T09:59:56Z</time>
  </trkpt>
  <trkpt lat="33.410942" lon="-4.309270">
   <ele>1429.00</ele>
   <time>2014-03-31T09:59:59Z</time>
  </trkpt>
  <trkpt lat="33.410976" lon="-4.309578">
   <ele>1430.00</ele>
   <time>2014-03-31T10:00:02Z</time>
  </trkpt>
  <trkpt lat="33.411073" lon="-4.310107">
   <ele>1432.00</ele>
   <time>2014-03-31T10:00:07Z</time>
  </trkpt>
  <trkpt lat="33.411166" lon="-4.310570">
   <ele>1435.00</ele>
   <time>2014-03-31T10:00:11Z</time>
  </trkpt>
  <trkpt lat="33.411314" lon="-4.311175">
   <ele>1436.00</ele>
   <time>2014-03-31T10:00:16Z</time>
  </trkpt>
  <trkpt lat="33.411373" lon="-4.311403">
   <ele>1437.00</ele>
   <time>2014-03-31T10:00:18Z</time>
  </trkpt>
  <trkpt lat="33.411398" lon="-4.311632">
   <ele>1438.00</ele>
   <time>2014-03-31T10:00:20Z</time>
  </trkpt>
  <trkpt lat="33.411382" lon="-4.311869">
   <ele>1438.00</ele>
   <time>2014-03-31T10:00:22Z</time>
  </trkpt>
  <trkpt lat="33.411339" lon="-4.312103">
   <ele>1439.00</ele>
   <time>2014-03-31T10:00:24Z</time>
  </trkpt>
  <trkpt lat="33.411271" lon="-4.312323">
   <ele>1439.00</ele>
   <time>2014-03-31T10:00:26Z</time>
  </trkpt>
  <trkpt lat="33.411168" lon="-4.312502">
   <ele>1440.00</ele>
   <time>2014-03-31T10:00:28Z</time>
  </trkpt>
  <trkpt lat="33.411013" lon="-4.312621">
   <ele>1441.00</ele>
   <time>2014-03-31T10:00:30Z</time>
  </trkpt>
  <trkpt lat="33.410815" lon="-4.312667">
   <ele>1441.00</ele>
   <time>2014-03-31T10:00:32Z</time>
  </trkpt>
  <trkpt lat="33.410606" lon="-4.312651">
   <ele>1441.00</ele>
   <time>2014-03-31T10:00:34Z</time>
  </trkpt>
  <trkpt lat="33.410417" lon="-4.312552">
   <ele>1442.00</ele>
   <time>2014-03-31T10:00:36Z</time>
  </trkpt>
  <trkpt lat="33.410273" lon="-4.312380">
   <ele>1443.00</ele>
   <time>2014-03-31T10:00:38Z</time>
  </trkpt>
  <trkpt lat="33.410205" lon="-4.312158">
   <ele>1444.00</ele>
   <time>2014-03-31T10:00:40Z</time>
  </trkpt>
  <trkpt lat="33.410215" lon="-4.311911">
   <ele>1446.00</ele>
   <time>2014-03-31T10:00:42Z</time>
  </trkpt>
  <trkpt lat="33.410258" lon="-4.311655">
   <ele>1448.00</ele>
   <time>2014-03-31T10:00:44Z</time>
  </trkpt>
  <trkpt lat="33.410300" lon="-4.311392">
   <ele>1450.00</ele>
   <time>2014-03-31T10:00:46Z</time>
  </trkpt>
  <trkpt lat="33.410314" lon="-4.311131">
   <ele>1451.00</ele>
   <time>2014-03-31T10:00:48Z</time>
  </trkpt>
  <trkpt lat="33.410281" lon="-4.310880">
   <ele>1453.00</ele>
   <time>2014-03-31T10:00:50Z</time>
  </trkpt>
  <trkpt lat="33.410182" lon="-4.310661">
   <ele>1456.00</ele>
   <time>2014-03-31T10:00:52Z</time>
  </trkpt>
  <trkpt lat="33.410027" lon="-4.310473">
   <ele>1457.00</ele>
   <time>2014-03-31T10:00:54Z</time>
  </trkpt>
  <trkpt lat="33.409839" lon="-4.310315">
   <ele>1460.00</ele>
   <time>2014-03-31T10:00:56Z</time>
  </trkpt>
  <trkpt lat="33.409635" lon="-4.310172">
   <ele>1462.00</ele>
   <time>2014-03-31T10:00:58Z</time>
  </trkpt>
  <trkpt lat="33.408819" lon="-4.309634">
   <ele>1470.00</ele>
   <time>2014-03-31T10:01:06Z</time>
  </trkpt>
  <trkpt lat="33.408620" lon="-4.309524">
   <ele>1472.00</ele>
   <time>2014-03-31T10:01:08Z</time>
  </trkpt>
  <trkpt lat="33.408408" lon="-4.309452">
   <ele>1475.00</ele>
   <time>2014-03-31T10:01:10Z</time>
  </trkpt>
  <trkpt lat="33.408184" lon="-4.309430">
   <ele>1477.00</ele>
   <time>2014-03-31T10:01:12Z</time>
  </trkpt>
  <trkpt lat="33.407957" lon="-4.309440">
   <ele>1479.00</ele>
   <time>2014-03-31T10:01:14Z</time>
  </trkpt>
  <trkpt lat="33.407732" lon="-4.309450">
   <ele>1481.00</ele>
   <time>2014-03-31T10:01:16Z</time>
  </trkpt>
  <trkpt lat="33.407511" lon="-4.309422">
   <ele>1483.00</ele>
   <time>2014-03-31T10:01:18Z</time>
  </trkpt>
  <trkpt lat="33.407295" lon="-4.309348">
   <ele>1486.00</ele>
   <time>2014-03-31T10:01:20Z</time>
  </trkpt>
  <trkpt lat="33.407090" lon="-4.309234">
   <ele>1488.00</ele>
   <time>2014-03-31T10:01:22Z</time>
  </trkpt>
  <trkpt lat="33.406917" lon="-4.309066">
   <ele>1490.00</ele>
   <time>2014-03-31T10:01:24Z</time>
  </trkpt>
  <trkpt lat="33.406778" lon="-4.308843">
   <ele>1491.00</ele>
   <time>2014-03-31T10:01:26Z</time>
  </trkpt>
  <trkpt lat="33.406580" lon="-4.308461">
   <ele>1493.00</ele>
   <time>2014-03-31T10:01:29Z</time>
  </trkpt>
  <trkpt lat="33.405641" lon="-4.306574">
   <ele>1497.00</ele>
   <time>2014-03-31T10:01:42Z</time>
  </trkpt>
  <trkpt lat="33.404162" lon="-4.304054">
   <ele>1506.00</ele>
   <time>2014-03-31T10:01:58Z</time>
  </trkpt>
  <trkpt lat="33.403689" lon="-4.303271">
   <ele>1509.00</ele>
   <time>2014-03-31T10:02:03Z</time>
  </trkpt>
  <trkpt lat="33.403477" lon="-4.302983">
   <ele>1510.00</ele>
   <time>2014-03-31T10:02:05Z</time>
  </trkpt>
  <trkpt lat="33.403250" lon="-4.302708">
   <ele>1511.00</ele>
   <time>2014-03-31T10:02:07Z</time>
  </trkpt>
  <trkpt lat="33.401368" lon="-4.300588">
   <ele>1525.00</ele>
   <time>2014-03-31T10:02:23Z</time>
  </trkpt>
  <trkpt lat="33.399721" lon="-4.298708">
   <ele>1537.00</ele>
   <time>2014-03-31T10:02:37Z</time>
  </trkpt>
  <trkpt lat="33.399502" lon="-4.298422">
   <ele>1539.00</ele>
   <time>2014-03-31T10:02:39Z</time>
  </trkpt>
  <trkpt lat="33.399093" lon="-4.297824">
   <ele>1543.00</ele>
   <time>2014-03-31T10:02:43Z</time>
  </trkpt>
  <trkpt lat="33.398369" lon="-4.296766">
   <ele>1548.00</ele>
   <time>2014-03-31T10:02:50Z</time>
  </trkpt>
  <trkpt lat="33.396697" lon="-4.294350">
   <ele>1558.00</ele>
   <time>2014-03-31T10:03:06Z</time>
  </trkpt>
  <trkpt lat="33.395150" lon="-4.292094">
   <ele>1567.00</ele>
   <time>2014-03-31T10:03:21Z</time>
  </trkpt>
  <trkpt lat="33.393802" lon="-4.290252">
   <ele>1581.00</ele>
   <time>2014-03-31T10:03:34Z</time>
  </trkpt>
  <trkpt lat="33.393592" lon="-4.289996">
   <ele>1583.00</ele>
   <time>2014-03-31T10:03:36Z</time>
  </trkpt>
  <trkpt lat="33.393372" lon="-4.289751">
   <ele>1586.00</ele>
   <time>2014-03-31T10:03:38Z</time>
  </trkpt>
  <trkpt lat="33.393138" lon="-4.289523">
   <ele>1588.00</ele>
   <time>2014-03-31T10:03:40Z</time>
  </trkpt>
  <trkpt lat="33.392887" lon="-4.289312">
   <ele>1590.00</ele>
   <time>2014-03-31T10:03:42Z</time>
  </trkpt>
  <trkpt lat="33.392622" lon="-4.289120">
   <ele>1591.00</ele>
   <time>2014-03-31T10:03:44Z</time>
  </trkpt>
  <trkpt lat="33.392338" lon="-4.288971">
   <ele>1593.00</ele>
   <time>2014-03-31T10:03:46Z</time>
  </trkpt>
  <trkpt lat="33.392035" lon="-4.288876">
   <ele>1594.00</ele>
   <time>2014-03-31T10:03:48Z</time>
  </trkpt>
  <trkpt lat="33.391726" lon="-4.288808">
   <ele>1594.00</ele>
   <time>2014-03-31T10:03:50Z</time>
  </trkpt>
  <trkpt lat="33.391262" lon="-4.288704">
   <ele>1595.00</ele>
   <time>2014-03-31T10:03:53Z</time>
  </trkpt>
  <trkpt lat="33.390965" lon="-4.288596">
   <ele>1596.00</ele>
   <time>2014-03-31T10:03:55Z</time>
  </trkpt>
  <trkpt lat="33.390387" lon="-4.288330">
   <ele>1597.00</ele>
   <time>2014-03-31T10:03:59Z</time>
  </trkpt>
  <trkpt lat="33.389958" lon="-4.288112">
   <ele>1597.00</ele>
   <time>2014-03-31T10:04:02Z</time>
  </trkpt>
  <trkpt lat="33.387713" lon="-4.286911">
   <ele>1592.00</ele>
   <time>2014-03-31T10:04:18Z</time>
  </trkpt>
  <trkpt lat="33.387027" lon="-4.286572">
   <ele>1595.00</ele>
   <time>2014-03-31T10:04:23Z</time>
  </trkpt>
  <trkpt lat="33.386767" lon="-4.286462">
   <ele>1598.00</ele>
   <time>2014-03-31T10:04:25Z</time>
  </trkpt>
  <trkpt lat="33.384935" lon="-4.285769">
   <ele>1614.00</ele>
   <time>2014-03-31T10:04:40Z</time>
  </trkpt>
  <trkpt lat="33.383614" lon="-4.285260">
   <ele>1620.00</ele>
   <time>2014-03-31T10:04:50Z</time>
  </trkpt>
  <trkpt lat="33.383055" lon="-4.285094">
   <ele>1623.00</ele>
   <time>2014-03-31T10:04:54Z</time>
  </trkpt>
  <trkpt lat="33.381060" lon="-4.284577">
   <ele>1636.00</ele>
   <time>2014-03-31T10:05:08Z</time>
  </trkpt>
  <trkpt lat="33.380791" lon="-4.284480">
   <ele>1638.00</ele>
   <time>2014-03-31T10:05:10Z</time>
  </trkpt>
  <trkpt lat="33.380536" lon="-4.284349">
   <ele>1640.00</ele>
   <time>2014-03-31T10:05:12Z</time>
  </trkpt>
  <trkpt lat="33.380293" lon="-4.284185">
   <ele>1642.00</ele>
   <time>2014-03-31T10:05:14Z</time>
  </trkpt>
  <trkpt lat="33.380063" lon="-4.283997">
   <ele>1644.00</ele>
   <time>2014-03-31T10:05:16Z</time>
  </trkpt>
  <trkpt lat="33.379485" lon="-4.283525">
   <ele>1650.00</ele>
   <time>2014-03-31T10:05:21Z</time>
  </trkpt>
  <trkpt lat="33.379242" lon="-4.283366">
   <ele>1652.00</ele>
   <time>2014-03-31T10:05:23Z</time>
  </trkpt>
  <trkpt lat="33.378736" lon="-4.283085">
   <ele>1655.00</ele>
   <time>2014-03-31T10:05:27Z</time>
  </trkpt>
  <trkpt lat="33.378478" lon="-4.282954">
   <ele>1657.00</ele>
   <time>2014-03-31T10:05:29Z</time>
  </trkpt>
  <trkpt lat="33.377574" lon="-4.282555">
   <ele>1664.00</ele>
   <time>2014-03-31T10:05:36Z</time>
  </trkpt>
  <trkpt lat="33.375447" lon="-4.281626">
   <ele>1669.00</ele>
   <time>2014-03-31T10:05:52Z</time>
  </trkpt>
  <trkpt lat="33.373859" lon="-4.280962">
   <ele>1668.00</ele>
   <time>2014-03-31T10:06:03Z</time>
  </trkpt>
  <trkpt lat="33.373555" lon="-4.280852">
   <ele>1668.00</ele>
   <time>2014-03-31T10:06:05Z</time>
  </trkpt>
  <trkpt lat="33.373242" lon="-4.280773">
   <ele>1668.00</ele>
   <time>2014-03-31T10:06:07Z</time>
  </trkpt>
  <trkpt lat="33.372923" lon="-4.280724">
   <ele>1668.00</ele>
   <time>2014-03-31T10:06:09Z</time>
  </trkpt>
  <trkpt lat="33.372442" lon="-4.280653">
   <ele>1668.00</ele>
   <time>2014-03-31T10:06:12Z</time>
  </trkpt>
  <trkpt lat="33.372131" lon="-4.280583">
   <ele>1667.00</ele>
   <time>2014-03-31T10:06:14Z</time>
  </trkpt>
  <trkpt lat="33.371835" lon="-4.280493">
   <ele>1667.00</ele>
   <time>2014-03-31T10:06:16Z</time>
  </trkpt>
  <trkpt lat="33.371550" lon="-4.280384">
   <ele>1667.00</ele>
   <time>2014-03-31T10:06:18Z</time>
  </trkpt>
  <trkpt lat="33.369392" lon="-4.279541">
   <ele>1663.00</ele>
   <time>2014-03-31T10:06:34Z</time>
  </trkpt>
  <trkpt lat="33.368613" lon="-4.279191">
   <ele>1665.00</ele>
   <time>2014-03-31T10:06:40Z</time>
  </trkpt>
  <trkpt lat="33.367903" lon="-4.278890">
   <ele>1666.00</ele>
   <time>2014-03-31T10:06:45Z</time>
  </trkpt>
  <trkpt lat="33.366753" lon="-4.278330">
   <ele>1668.00</ele>
   <time>2014-03-31T10:06:53Z</time>
  </trkpt>
  <trkpt lat="33.366484" lon="-4.278160">
   <ele>1669.00</ele>
   <time>2014-03-31T10:06:55Z</time>
  </trkpt>
  <trkpt lat="33.366233" lon="-4.277958">
   <ele>1671.00</ele>
   <time>2014-03-31T10:06:57Z</time>
  </trkpt>
  <trkpt lat="33.366002" lon="-4.277727">
   <ele>1673.00</ele>
   <time>2014-03-31T10:06:59Z</time>
  </trkpt>
  <trkpt lat="33.365784" lon="-4.277480">
   <ele>1676.00</ele>
   <time>2014-03-31T10:07:01Z</time>
  </trkpt>
  <trkpt lat="33.365346" lon="-4.276982">
   <ele>1679.00</ele>
   <time>2014-03-31T10:07:05Z</time>
  </trkpt>
  <trkpt lat="33.365111" lon="-4.276749">
   <ele>1680.00</ele>
   <time>2014-03-31T10:07:07Z</time>
  </trkpt>
  <trkpt lat="33.364854" lon="-4.276544">
   <ele>1681.00</ele>
   <time>2014-03-31T10:07:09Z</time>
  </trkpt>
  <trkpt lat="33.364582" lon="-4.276361">
   <ele>1682.00</ele>
   <time>2014-03-31T10:07:11Z</time>
  </trkpt>
  <trkpt lat="33.363773" lon="-4.275868">
   <ele>1684.00</ele>
   <time>2014-03-31T10:07:17Z</time>
  </trkpt>
  <trkpt lat="33.363378" lon="-4.275657">
   <ele>1684.00</ele>
   <time>2014-03-31T10:07:20Z</time>
  </trkpt>
  <trkpt lat="33.362977" lon="-4.275442">
   <ele>1684.00</ele>
   <time>2014-03-31T10:07:23Z</time>
  </trkpt>
  <trkpt lat="33.362711" lon="-4.275277">
   <ele>1683.00</ele>
   <time>2014-03-31T10:07:25Z</time>
  </trkpt>
  <trkpt lat="33.362448" lon="-4.275094">
   <ele>1683.00</ele>
   <time>2014-03-31T10:07:27Z</time>
  </trkpt>
  <trkpt lat="33.362192" lon="-4.274892">
   <ele>1683.00</ele>
   <time>2014-03-31T10:07:29Z</time>
  </trkpt>
  <trkpt lat="33.361478" lon="-4.274279">
   <ele>1683.00</ele>
   <time>2014-03-31T10:07:35Z</time>
  </trkpt>
  <trkpt lat="33.360736" lon="-4.273587">
   <ele>1682.00</ele>
   <time>2014-03-31T10:07:42Z</time>
  </trkpt>
  <trkpt lat="33.360516" lon="-4.273408">
   <ele>1683.00</ele>
   <time>2014-03-31T10:07:44Z</time>
  </trkpt>
  <trkpt lat="33.360319" lon="-4.273188">
   <ele>1684.00</ele>
   <time>2014-03-31T10:07:46Z</time>
  </trkpt>
  <trkpt lat="33.359531" lon="-4.272197">
   <ele>1690.00</ele>
   <time>2014-03-31T10:07:55Z</time>
  </trkpt>
  <trkpt lat="33.359326" lon="-4.271985">
   <ele>1693.00</ele>
   <time>2014-03-31T10:07:57Z</time>
  </trkpt>
  <trkpt lat="33.359102" lon="-4.271790">
   <ele>1695.00</ele>
   <time>2014-03-31T10:07:59Z</time>
  </trkpt>
  <trkpt lat="33.358864" lon="-4.271607">
   <ele>1697.00</ele>
   <time>2014-03-31T10:08:01Z</time>
  </trkpt>
  <trkpt lat="33.358151" lon="-4.271120">
   <ele>1701.00</ele>
   <time>2014-03-31T10:08:07Z</time>
  </trkpt>
  <trkpt lat="33.357641" lon="-4.270802">
   <ele>1704.00</ele>
   <time>2014-03-31T10:08:11Z</time>
  </trkpt>
  <trkpt lat="33.355442" lon="-4.269486">
   <ele>1710.00</ele>
   <time>2014-03-31T10:08:26Z</time>
  </trkpt>
  <trkpt lat="33.353049" lon="-4.267937">
   <ele>1725.00</ele>
   <time>2014-03-31T10:08:42Z</time>
  </trkpt>
  <trkpt lat="33.350816" lon="-4.266491">
   <ele>1745.00</ele>
   <time>2014-03-31T10:08:57Z</time>
  </trkpt>
  <trkpt lat="33.349067" lon="-4.265310">
   <ele>1766.00</ele>
   <time>2014-03-31T10:09:09Z</time>
  </trkpt>
  <trkpt lat="33.348811" lon="-4.265108">
   <ele>1768.00</ele>
   <time>2014-03-31T10:09:11Z</time>
  </trkpt>
  <trkpt lat="33.348586" lon="-4.264886">
   <ele>1769.00</ele>
   <time>2014-03-31T10:09:13Z</time>
  </trkpt>
  <trkpt lat="33.348387" lon="-4.264632">
   <ele>1769.00</ele>
   <time>2014-03-31T10:09:15Z</time>
  </trkpt>
  <trkpt lat="33.347348" lon="-4.263209">
   <ele>1762.00</ele>
   <time>2014-03-31T10:09:25Z</time>
  </trkpt>
  <trkpt lat="33.347059" lon="-4.262802">
   <ele>1761.00</ele>
   <time>2014-03-31T10:09:28Z</time>
  </trkpt>
  <trkpt lat="33.346850" lon="-4.262616">
   <ele>1761.00</ele>
   <time>2014-03-31T10:09:30Z</time>
  </trkpt>
  <trkpt lat="33.346658" lon="-4.262433">
   <ele>1761.00</ele>
   <time>2014-03-31T10:09:32Z</time>
  </trkpt>
  <trkpt lat="33.346515" lon="-4.262205">
   <ele>1762.00</ele>
   <time>2014-03-31T10:09:34Z</time>
  </trkpt>
  <trkpt lat="33.346443" lon="-4.261949">
   <ele>1763.00</ele>
   <time>2014-03-31T10:09:36Z</time>
  </trkpt>
  <trkpt lat="33.346456" lon="-4.261658">
   <ele>1762.00</ele>
   <time>2014-03-31T10:09:38Z</time>
  </trkpt>
  <trkpt lat="33.346539" lon="-4.261362">
   <ele>1763.00</ele>
   <time>2014-03-31T10:09:40Z</time>
  </trkpt>
  <trkpt lat="33.346665" lon="-4.261060">
   <ele>1763.00</ele>
   <time>2014-03-31T10:09:42Z</time>
  </trkpt>
  <trkpt lat="33.346849" lon="-4.260612">
   <ele>1763.00</ele>
   <time>2014-03-31T10:09:45Z</time>
  </trkpt>
  <trkpt lat="33.346943" lon="-4.260284">
   <ele>1763.00</ele>
   <time>2014-03-31T10:09:47Z</time>
  </trkpt>
  <trkpt lat="33.346989" lon="-4.259931">
   <ele>1763.00</ele>
   <time>2014-03-31T10:09:49Z</time>
  </trkpt>
  <trkpt lat="33.346980" lon="-4.259572">
   <ele>1765.00</ele>
   <time>2014-03-31T10:09:51Z</time>
  </trkpt>
  <trkpt lat="33.346937" lon="-4.259077">
   <ele>1767.00</ele>
   <time>2014-03-31T10:09:54Z</time>
  </trkpt>
  <trkpt lat="33.346882" lon="-4.258751">
   <ele>1769.00</ele>
   <time>2014-03-31T10:09:56Z</time>
  </trkpt>
  <trkpt lat="33.346782" lon="-4.258441">
   <ele>1770.00</ele>
   <time>2014-03-31T10:09:58Z</time>
  </trkpt>
  <trkpt lat="33.346419" lon="-4.257557">
   <ele>1773.00</ele>
   <time>2014-03-31T10:10:04Z</time>
  </trkpt>
  <trkpt lat="33.346295" lon="-4.257316">
   <ele>1774.00</ele>
   <time>2014-03-31T10:10:06Z</time>
  </trkpt>
  <trkpt lat="33.346139" lon="-4.257130">
   <ele>1775.00</ele>
   <time>2014-03-31T10:10:08Z</time>
  </trkpt>
  <trkpt lat="33.345945" lon="-4.257053">
   <ele>1776.00</ele>
   <time>2014-03-31T10:10:10Z</time>
  </trkpt>
  <trkpt lat="33.345747" lon="-4.257094">
   <ele>1775.00</ele>
   <time>2014-03-31T10:10:12Z</time>
  </trkpt>
  <trkpt lat="33.345552" lon="-4.257126">
   <ele>1774.00</ele>
   <time>2014-03-31T10:10:14Z</time>
  </trkpt>
  <trkpt lat="33.345373" lon="-4.257075">
   <ele>1774.00</ele>
   <time>2014-03-31T10:10:16Z</time>
  </trkpt>
  <trkpt lat="33.345221" lon="-4.256944">
   <ele>1775.00</ele>
   <time>2014-03-31T10:10:18Z</time>
  </trkpt>
  <trkpt lat="33.345097" lon="-4.256751">
   <ele>1776.00</ele>
   <time>2014-03-31T10:10:20Z</time>
  </trkpt>
  <trkpt lat="33.344997" lon="-4.256517">
   <ele>1777.00</ele>
   <time>2014-03-31T10:10:22Z</time>
  </trkpt>
  <trkpt lat="33.344863" lon="-4.256175">
   <ele>1779.00</ele>
   <time>2014-03-31T10:10:25Z</time>
  </trkpt>
  <trkpt lat="33.344796" lon="-4.255971">
   <ele>1780.00</ele>
   <time>2014-03-31T10:10:27Z</time>
  </trkpt>
  <trkpt lat="33.344616" lon="-4.255798">
   <ele>1781.00</ele>
   <time>2014-03-31T10:10:30Z</time>
  </trkpt>
  <trkpt lat="33.344350" lon="-4.255900">
   <ele>1780.00</ele>
   <time>2014-03-31T10:10:33Z</time>
  </trkpt>
  <trkpt lat="33.344150" lon="-4.256035">
   <ele>1779.00</ele>
   <time>2014-03-31T10:10:35Z</time>
  </trkpt>
  <trkpt lat="33.343940" lon="-4.256179">
   <ele>1778.00</ele>
   <time>2014-03-31T10:10:37Z</time>
  </trkpt>
  <trkpt lat="33.343709" lon="-4.256284">
   <ele>1778.00</ele>
   <time>2014-03-31T10:10:39Z</time>
  </trkpt>
  <trkpt lat="33.343465" lon="-4.256330">
   <ele>1779.00</ele>
   <time>2014-03-31T10:10:41Z</time>
  </trkpt>
  <trkpt lat="33.343227" lon="-4.256359">
   <ele>1779.00</ele>
   <time>2014-03-31T10:10:43Z</time>
  </trkpt>
  <trkpt lat="33.342995" lon="-4.256438">
   <ele>1779.00</ele>
   <time>2014-03-31T10:10:45Z</time>
  </trkpt>
  <trkpt lat="33.342771" lon="-4.256563">
   <ele>1778.00</ele>
   <time>2014-03-31T10:10:47Z</time>
  </trkpt>
  <trkpt lat="33.342210" lon="-4.256885">
   <ele>1779.00</ele>
   <time>2014-03-31T10:10:52Z</time>
  </trkpt>
  <trkpt lat="33.342001" lon="-4.257003">
   <ele>1780.00</ele>
   <time>2014-03-31T10:10:54Z</time>
  </trkpt>
  <trkpt lat="33.341797" lon="-4.257052">
   <ele>1780.00</ele>
   <time>2014-03-31T10:10:56Z</time>
  </trkpt>
  <trkpt lat="33.341609" lon="-4.256997">
   <ele>1781.00</ele>
   <time>2014-03-31T10:10:58Z</time>
  </trkpt>
  <trkpt lat="33.341447" lon="-4.256828">
   <ele>1781.00</ele>
   <time>2014-03-31T10:11:00Z</time>
  </trkpt>
  <trkpt lat="33.340687" lon="-4.255786">
   <ele>1785.00</ele>
   <time>2014-03-31T10:11:09Z</time>
  </trkpt>
  <trkpt lat="33.340528" lon="-4.255585">
   <ele>1785.00</ele>
   <time>2014-03-31T10:11:11Z</time>
  </trkpt>
  <trkpt lat="33.340342" lon="-4.255466">
   <ele>1787.00</ele>
   <time>2014-03-31T10:11:13Z</time>
  </trkpt>
  <trkpt lat="33.340134" lon="-4.255420">
   <ele>1787.00</ele>
   <time>2014-03-31T10:11:15Z</time>
  </trkpt>
  <trkpt lat="33.339914" lon="-4.255364">
   <ele>1787.00</ele>
   <time>2014-03-31T10:11:17Z</time>
  </trkpt>
  <trkpt lat="33.339704" lon="-4.255253">
   <ele>1787.00</ele>
   <time>2014-03-31T10:11:19Z</time>
  </trkpt>
  <trkpt lat="33.339539" lon="-4.255079">
   <ele>1787.00</ele>
   <time>2014-03-31T10:11:21Z</time>
  </trkpt>
  <trkpt lat="33.339477" lon="-4.254836">
   <ele>1786.00</ele>
   <time>2014-03-31T10:11:23Z</time>
  </trkpt>
  <trkpt lat="33.339533" lon="-4.254578">
   <ele>1786.00</ele>
   <time>2014-03-31T10:11:25Z</time>
  </trkpt>
  <trkpt lat="33.339659" lon="-4.254331">
   <ele>1786.00</ele>
   <time>2014-03-31T10:11:27Z</time>
  </trkpt>
  <trkpt lat="33.339761" lon="-4.254060">
   <ele>1785.00</ele>
   <time>2014-03-31T10:11:29Z</time>
  </trkpt>
  <trkpt lat="33.339842" lon="-4.253772">
   <ele>1784.00</ele>
   <time>2014-03-31T10:11:31Z</time>
  </trkpt>
  <trkpt lat="33.339956" lon="-4.253361">
   <ele>1782.00</ele>
   <time>2014-03-31T10:11:34Z</time>
  </trkpt>
  <trkpt lat="33.340083" lon="-4.253148">
   <ele>1781.00</ele>
   <time>2014-03-31T10:11:36Z</time>
  </trkpt>
  <trkpt lat="33.340251" lon="-4.252968">
   <ele>1779.00</ele>
   <time>2014-03-31T10:11:38Z</time>
  </trkpt>
  <trkpt lat="33.340495" lon="-4.252719">
   <ele>1777.00</ele>
   <time>2014-03-31T10:11:41Z</time>
  </trkpt>
  <trkpt lat="33.340574" lon="-4.252439">
   <ele>1777.00</ele>
   <time>2014-03-31T10:11:44Z</time>
  </trkpt>
  <trkpt lat="33.340500" lon="-4.252240">
   <ele>1776.00</ele>
   <time>2014-03-31T10:11:46Z</time>
  </trkpt>
  <trkpt lat="33.340431" lon="-4.252013">
   <ele>1776.00</ele>
   <time>2014-03-31T10:11:48Z</time>
  </trkpt>
  <trkpt lat="33.340414" lon="-4.251764">
   <ele>1776.00</ele>
   <time>2014-03-31T10:11:50Z</time>
  </trkpt>
  <trkpt lat="33.340346" lon="-4.251521">
   <ele>1776.00</ele>
   <time>2014-03-31T10:11:52Z</time>
  </trkpt>
  <trkpt lat="33.340218" lon="-4.251294">
   <ele>1775.00</ele>
   <time>2014-03-31T10:11:54Z</time>
  </trkpt>
  <trkpt lat="33.340086" lon="-4.251056">
   <ele>1776.00</ele>
   <time>2014-03-31T10:11:56Z</time>
  </trkpt>
  <trkpt lat="33.339972" lon="-4.250795">
   <ele>1776.00</ele>
   <time>2014-03-31T10:11:58Z</time>
  </trkpt>
  <trkpt lat="33.339815" lon="-4.250393">
   <ele>1777.00</ele>
   <time>2014-03-31T10:12:01Z</time>
  </trkpt>
  <trkpt lat="33.339727" lon="-4.250103">
   <ele>1776.00</ele>
   <time>2014-03-31T10:12:03Z</time>
  </trkpt>
  <trkpt lat="33.339658" lon="-4.249790">
   <ele>1776.00</ele>
   <time>2014-03-31T10:12:05Z</time>
  </trkpt>
  <trkpt lat="33.339473" lon="-4.248830">
   <ele>1775.00</ele>
   <time>2014-03-31T10:12:11Z</time>
  </trkpt>
  <trkpt lat="33.339391" lon="-4.248529">
   <ele>1774.00</ele>
   <time>2014-03-31T10:12:13Z</time>
  </trkpt>
  <trkpt lat="33.339294" lon="-4.248253">
   <ele>1773.00</ele>
   <time>2014-03-31T10:12:15Z</time>
  </trkpt>
  <trkpt lat="33.339185" lon="-4.247995">
   <ele>1772.00</ele>
   <time>2014-03-31T10:12:17Z</time>
  </trkpt>
  <trkpt lat="33.338275" lon="-4.245861">
   <ele>1755.00</ele>
   <time>2014-03-31T10:12:32Z</time>
  </trkpt>
  <trkpt lat="33.337986" lon="-4.245214">
   <ele>1749.00</ele>
   <time>2014-03-31T10:12:36Z</time>
  </trkpt>
  <trkpt lat="33.337857" lon="-4.244863">
   <ele>1746.00</ele>
   <time>2014-03-31T10:12:38Z</time>
  </trkpt>
  <trkpt lat="33.337749" lon="-4.244493">
   <ele>1744.00</ele>
   <time>2014-03-31T10:12:40Z</time>
  </trkpt>
  <trkpt lat="33.337277" lon="-4.242672">
   <ele>1745.00</ele>
   <time>2014-03-31T10:12:50Z</time>
  </trkpt>
  <trkpt lat="33.337224" lon="-4.242311">
   <ele>1746.00</ele>
   <time>2014-03-31T10:12:52Z</time>
  </trkpt>
  <trkpt lat="33.337196" lon="-4.241956">
   <ele>1747.00</ele>
   <time>2014-03-31T10:12:54Z</time>
  </trkpt>
  <trkpt lat="33.337120" lon="-4.240877">
   <ele>1749.00</ele>
   <time>2014-03-31T10:13:00Z</time>
  </trkpt>
  <trkpt lat="33.337018" lon="-4.239714">
   <ele>1751.00</ele>
   <time>2014-03-31T10:13:07Z</time>
  </trkpt>
  <trkpt lat="33.336930" lon="-4.239429">
   <ele>1751.00</ele>
   <time>2014-03-31T10:13:09Z</time>
  </trkpt>
  <trkpt lat="33.336787" lon="-4.239153">
   <ele>1750.00</ele>
   <time>2014-03-31T10:13:11Z</time>
  </trkpt>
  <trkpt lat="33.335485" lon="-4.236715">
   <ele>1743.00</ele>
   <time>2014-03-31T10:13:27Z</time>
  </trkpt>
  <trkpt lat="33.334847" lon="-4.235535">
   <ele>1740.00</ele>
   <time>2014-03-31T10:13:35Z</time>
  </trkpt>
  <trkpt lat="33.334721" lon="-4.235222">
   <ele>1739.00</ele>
   <time>2014-03-31T10:13:37Z</time>
  </trkpt>
  <trkpt lat="33.334616" lon="-4.234885">
   <ele>1738.00</ele>
   <time>2014-03-31T10:13:39Z</time>
  </trkpt>
  <trkpt lat="33.334334" lon="-4.233825">
   <ele>1739.00</ele>
   <time>2014-03-31T10:13:45Z</time>
  </trkpt>
  <trkpt lat="33.334259" lon="-4.233460">
   <ele>1739.00</ele>
   <time>2014-03-31T10:13:47Z</time>
  </trkpt>
  <trkpt lat="33.333732" lon="-4.230570">
   <ele>1743.00</ele>
   <time>2014-03-31T10:14:03Z</time>
  </trkpt>
  <trkpt lat="33.333661" lon="-4.230215">
   <ele>1744.00</ele>
   <time>2014-03-31T10:14:05Z</time>
  </trkpt>
  <trkpt lat="33.333591" lon="-4.229869">
   <ele>1745.00</ele>
   <time>2014-03-31T10:14:07Z</time>
  </trkpt>
  <trkpt lat="33.333265" lon="-4.228092">
   <ele>1745.00</ele>
   <time>2014-03-31T10:14:17Z</time>
  </trkpt>
  <trkpt lat="33.333204" lon="-4.227734">
   <ele>1745.00</ele>
   <time>2014-03-31T10:14:19Z</time>
  </trkpt>
  <trkpt lat="33.333110" lon="-4.227185">
   <ele>1744.00</ele>
   <time>2014-03-31T10:14:22Z</time>
  </trkpt>
  <trkpt lat="33.333067" lon="-4.226813">
   <ele>1744.00</ele>
   <time>2014-03-31T10:14:24Z</time>
  </trkpt>
  <trkpt lat="33.333042" lon="-4.226442">
   <ele>1743.00</ele>
   <time>2014-03-31T10:14:26Z</time>
  </trkpt>
  <trkpt lat="33.332967" lon="-4.224453">
   <ele>1744.00</ele>
   <time>2014-03-31T10:14:36Z</time>
  </trkpt>
  <trkpt lat="33.332959" lon="-4.223253">
   <ele>1746.00</ele>
   <time>2014-03-31T10:14:42Z</time>
  </trkpt>
  <trkpt lat="33.332986" lon="-4.222863">
   <ele>1747.00</ele>
   <time>2014-03-31T10:14:44Z</time>
  </trkpt>
  <trkpt lat="33.333030" lon="-4.222489">
   <ele>1748.00</ele>
   <time>2014-03-31T10:14:46Z</time>
  </trkpt>
  <trkpt lat="33.333113" lon="-4.221933">
   <ele>1750.00</ele>
   <time>2014-03-31T10:14:49Z</time>
  </trkpt>
  <trkpt lat="33.333438" lon="-4.220070">
   <ele>1752.00</ele>
   <time>2014-03-31T10:14:59Z</time>
  </trkpt>
  <trkpt lat="33.333545" lon="-4.219762">
   <ele>1752.00</ele>
   <time>2014-03-31T10:15:01Z</time>
  </trkpt>
  <trkpt lat="33.333712" lon="-4.219502">
   <ele>1752.00</ele>
   <time>2014-03-31T10:15:03Z</time>
  </trkpt>
  <trkpt lat="33.333932" lon="-4.219287">
   <ele>1753.00</ele>
   <time>2014-03-31T10:15:05Z</time>
  </trkpt>
  <trkpt lat="33.334178" lon="-4.219095">
   <ele>1753.00</ele>
   <time>2014-03-31T10:15:07Z</time>
  </trkpt>
  <trkpt lat="33.334907" lon="-4.218559">
   <ele>1752.00</ele>
   <time>2014-03-31T10:15:13Z</time>
  </trkpt>
  <trkpt lat="33.335099" lon="-4.218315">
   <ele>1753.00</ele>
   <time>2014-03-31T10:15:15Z</time>
  </trkpt>
  <trkpt lat="33.335256" lon="-4.218032">
   <ele>1754.00</ele>
   <time>2014-03-31T10:15:17Z</time>
  </trkpt>
  <trkpt lat="33.335357" lon="-4.217711">
   <ele>1755.00</ele>
   <time>2014-03-31T10:15:19Z</time>
  </trkpt>
  <trkpt lat="33.335393" lon="-4.217362">
   <ele>1756.00</ele>
   <time>2014-03-31T10:15:21Z</time>
  </trkpt>
  <trkpt lat="33.335394" lon="-4.217001">
   <ele>1757.00</ele>
   <time>2014-03-31T10:15:23Z</time>
  </trkpt>
  <trkpt lat="33.335401" lon="-4.216444">
   <ele>1757.00</ele>
   <time>2014-03-31T10:15:26Z</time>
  </trkpt>
  <trkpt lat="33.335452" lon="-4.216068">
   <ele>1757.00</ele>
   <time>2014-03-31T10:15:28Z</time>
  </trkpt>
  <trkpt lat="33.335861" lon="-4.213992">
   <ele>1756.00</ele>
   <time>2014-03-31T10:15:39Z</time>
  </trkpt>
  <trkpt lat="33.336074" lon="-4.213071">
   <ele>1756.00</ele>
   <time>2014-03-31T10:15:44Z</time>
  </trkpt>
  <trkpt lat="33.336161" lon="-4.212725">
   <ele>1756.00</ele>
   <time>2014-03-31T10:15:46Z</time>
  </trkpt>
  <trkpt lat="33.336232" lon="-4.212386">
   <ele>1756.00</ele>
   <time>2014-03-31T10:15:48Z</time>
  </trkpt>
  <trkpt lat="33.336267" lon="-4.212042">
   <ele>1755.00</ele>
   <time>2014-03-31T10:15:50Z</time>
  </trkpt>
  <trkpt lat="33.336251" lon="-4.211689">
   <ele>1754.00</ele>
   <time>2014-03-31T10:15:52Z</time>
  </trkpt>
  <trkpt lat="33.336187" lon="-4.211340">
   <ele>1754.00</ele>
   <time>2014-03-31T10:15:54Z</time>
  </trkpt>
  <trkpt lat="33.336070" lon="-4.210999">
   <ele>1753.00</ele>
   <time>2014-03-31T10:15:56Z</time>
  </trkpt>
  <trkpt lat="33.335911" lon="-4.210665">
   <ele>1753.00</ele>
   <time>2014-03-31T10:15:58Z</time>
  </trkpt>
  <trkpt lat="33.334408" lon="-4.207868">
   <ele>1751.00</ele>
   <time>2014-03-31T10:16:14Z</time>
  </trkpt>
  <trkpt lat="33.334223" lon="-4.207517">
   <ele>1751.00</ele>
   <time>2014-03-31T10:16:16Z</time>
  </trkpt>
  <trkpt lat="33.334063" lon="-4.207162">
   <ele>1751.00</ele>
   <time>2014-03-31T10:16:18Z</time>
  </trkpt>
  <trkpt lat="33.333935" lon="-4.206787">
   <ele>1751.00</ele>
   <time>2014-03-31T10:16:20Z</time>
  </trkpt>
  <trkpt lat="33.333833" lon="-4.206397">
   <ele>1751.00</ele>
   <time>2014-03-31T10:16:22Z</time>
  </trkpt>
  <trkpt lat="33.333530" lon="-4.204953">
   <ele>1748.00</ele>
   <time>2014-03-31T10:16:29Z</time>
  </trkpt>
  <trkpt lat="33.333471" lon="-4.204740">
   <ele>1748.00</ele>
   <time>2014-03-31T10:16:30Z</time>
  </trkpt>
  <trkpt lat="33.333332" lon="-4.204320">
   <ele>1748.00</ele>
   <time>2014-03-31T10:16:32Z</time>
  </trkpt>
  <trkpt lat="33.332591" lon="-4.202395">
   <ele>1748.00</ele>
   <time>2014-03-31T10:16:42Z</time>
  </trkpt>
  <trkpt lat="33.332487" lon="-4.202017">
   <ele>1747.00</ele>
   <time>2014-03-31T10:16:44Z</time>
  </trkpt>
  <trkpt lat="33.332409" lon="-4.201618">
   <ele>1746.00</ele>
   <time>2014-03-31T10:16:46Z</time>
  </trkpt>
  <trkpt lat="33.332348" lon="-4.201222">
   <ele>1746.00</ele>
   <time>2014-03-31T10:16:48Z</time>
  </trkpt>
  <trkpt lat="33.332303" lon="-4.200825">
   <ele>1746.00</ele>
   <time>2014-03-31T10:16:50Z</time>
  </trkpt>
  <trkpt lat="33.332007" lon="-4.197877">
   <ele>1742.00</ele>
   <time>2014-03-31T10:17:05Z</time>
  </trkpt>
  <trkpt lat="33.331937" lon="-4.197525">
   <ele>1741.00</ele>
   <time>2014-03-31T10:17:07Z</time>
  </trkpt>
  <trkpt lat="33.331835" lon="-4.197162">
   <ele>1740.00</ele>
   <time>2014-03-31T10:17:09Z</time>
  </trkpt>
  <trkpt lat="33.330886" lon="-4.194014">
   <ele>1731.00</ele>
   <time>2014-03-31T10:17:25Z</time>
  </trkpt>
  <trkpt lat="33.330648" lon="-4.193198">
   <ele>1729.00</ele>
   <time>2014-03-31T10:17:29Z</time>
  </trkpt>
  <trkpt lat="33.330547" lon="-4.192784">
   <ele>1728.00</ele>
   <time>2014-03-31T10:17:31Z</time>
  </trkpt>
  <trkpt lat="33.329787" lon="-4.189427">
   <ele>1727.00</ele>
   <time>2014-03-31T10:17:47Z</time>
  </trkpt>
  <trkpt lat="33.329049" lon="-4.186184">
   <ele>1728.00</ele>
   <time>2014-03-31T10:18:02Z</time>
  </trkpt>
  <trkpt lat="33.328336" lon="-4.183020">
   <ele>1730.00</ele>
   <time>2014-03-31T10:18:18Z</time>
  </trkpt>
  <trkpt lat="33.327747" lon="-4.180449">
   <ele>1732.00</ele>
   <time>2014-03-31T10:18:33Z</time>
  </trkpt>
  <trkpt lat="33.327672" lon="-4.180040">
   <ele>1732.00</ele>
   <time>2014-03-31T10:18:36Z</time>
  </trkpt>
  <trkpt lat="33.327569" lon="-4.179637">
   <ele>1732.00</ele>
   <time>2014-03-31T10:18:39Z</time>
  </trkpt>
  <trkpt lat="33.327449" lon="-4.179388">
   <ele>1732.00</ele>
   <time>2014-03-31T10:18:41Z</time>
  </trkpt>
  <trkpt lat="33.327258" lon="-4.179189">
   <ele>1732.00</ele>
   <time>2014-03-31T10:18:43Z</time>
  </trkpt>
  <trkpt lat="33.327022" lon="-4.179013">
   <ele>1730.00</ele>
   <time>2014-03-31T10:18:45Z</time>
  </trkpt>
  <trkpt lat="33.324886" lon="-4.177450">
   <ele>1722.00</ele>
   <time>2014-03-31T10:19:01Z</time>
  </trkpt>
  <trkpt lat="33.322685" lon="-4.175823">
   <ele>1721.00</ele>
   <time>2014-03-31T10:19:17Z</time>
  </trkpt>
  <trkpt lat="33.321100" lon="-4.174626">
   <ele>1720.00</ele>
   <time>2014-03-31T10:19:29Z</time>
  </trkpt>
  <trkpt lat="33.319396" lon="-4.173131">
   <ele>1719.00</ele>
   <time>2014-03-31T10:19:42Z</time>
  </trkpt>
  <trkpt lat="33.318475" lon="-4.172324">
   <ele>1716.00</ele>
   <time>2014-03-31T10:19:49Z</time>
  </trkpt>
  <trkpt lat="33.318188" lon="-4.172131">
   <ele>1716.00</ele>
   <time>2014-03-31T10:19:51Z</time>
  </trkpt>
  <trkpt lat="33.317885" lon="-4.171974">
   <ele>1717.00</ele>
   <time>2014-03-31T10:19:53Z</time>
  </trkpt>
  <trkpt lat="33.317573" lon="-4.171831">
   <ele>1717.00</ele>
   <time>2014-03-31T10:19:55Z</time>
  </trkpt>
  <trkpt lat="33.317089" lon="-4.171638">
   <ele>1717.00</ele>
   <time>2014-03-31T10:19:58Z</time>
  </trkpt>
  <trkpt lat="33.315464" lon="-4.171079">
   <ele>1714.00</ele>
   <time>2014-03-31T10:20:08Z</time>
  </trkpt>
  <trkpt lat="33.315144" lon="-4.170991">
   <ele>1714.00</ele>
   <time>2014-03-31T10:20:10Z</time>
  </trkpt>
  <trkpt lat="33.313390" lon="-4.170560">
   <ele>1711.00</ele>
   <time>2014-03-31T10:20:21Z</time>
  </trkpt>
  <trkpt lat="33.313083" lon="-4.170430">
   <ele>1710.00</ele>
   <time>2014-03-31T10:20:23Z</time>
  </trkpt>
  <trkpt lat="33.312797" lon="-4.170246">
   <ele>1709.00</ele>
   <time>2014-03-31T10:20:25Z</time>
  </trkpt>
  <trkpt lat="33.312537" lon="-4.170019">
   <ele>1709.00</ele>
   <time>2014-03-31T10:20:27Z</time>
  </trkpt>
  <trkpt lat="33.312295" lon="-4.169759">
   <ele>1708.00</ele>
   <time>2014-03-31T10:20:29Z</time>
  </trkpt>
  <trkpt lat="33.312072" lon="-4.169467">
   <ele>1708.00</ele>
   <time>2014-03-31T10:20:31Z</time>
  </trkpt>
  <trkpt lat="33.311870" lon="-4.169147">
   <ele>1708.00</ele>
   <time>2014-03-31T10:20:33Z</time>
  </trkpt>
  <trkpt lat="33.311705" lon="-4.168796">
   <ele>1708.00</ele>
   <time>2014-03-31T10:20:35Z</time>
  </trkpt>
  <trkpt lat="33.311571" lon="-4.168428">
   <ele>1708.00</ele>
   <time>2014-03-31T10:20:37Z</time>
  </trkpt>
  <trkpt lat="33.310673" lon="-4.165669">
   <ele>1707.00</ele>
   <time>2014-03-31T10:20:52Z</time>
  </trkpt>
  <trkpt lat="33.310060" lon="-4.163844">
   <ele>1708.00</ele>
   <time>2014-03-31T10:21:03Z</time>
  </trkpt>
  <trkpt lat="33.309802" lon="-4.163169">
   <ele>1708.00</ele>
   <time>2014-03-31T10:21:10Z</time>
  </trkpt>
  <trkpt lat="33.309702" lon="-4.162984">
   <ele>1708.00</ele>
   <time>2014-03-31T10:21:12Z</time>
  </trkpt>
  <trkpt lat="33.309572" lon="-4.162802">
   <ele>1708.00</ele>
   <time>2014-03-31T10:21:14Z</time>
  </trkpt>
  <trkpt lat="33.309419" lon="-4.162619">
   <ele>1708.00</ele>
   <time>2014-03-31T10:21:16Z</time>
  </trkpt>
  <trkpt lat="33.309158" lon="-4.162341">
   <ele>1707.00</ele>
   <time>2014-03-31T10:21:19Z</time>
  </trkpt>
  <trkpt lat="33.308283" lon="-4.161412">
   <ele>1705.00</ele>
   <time>2014-03-31T10:21:28Z</time>
  </trkpt>
  <trkpt lat="33.308106" lon="-4.161173">
   <ele>1704.00</ele>
   <time>2014-03-31T10:21:30Z</time>
  </trkpt>
  <trkpt lat="33.307979" lon="-4.160902">
   <ele>1704.00</ele>
   <time>2014-03-31T10:21:32Z</time>
  </trkpt>
  <trkpt lat="33.307936" lon="-4.160595">
   <ele>1704.00</ele>
   <time>2014-03-31T10:21:34Z</time>
  </trkpt>
  <trkpt lat="33.307975" lon="-4.160269">
   <ele>1703.00</ele>
   <time>2014-03-31T10:21:36Z</time>
  </trkpt>
  <trkpt lat="33.308063" lon="-4.159936">
   <ele>1703.00</ele>
   <time>2014-03-31T10:21:38Z</time>
  </trkpt>
  <trkpt lat="33.308267" lon="-4.159244">
   <ele>1703.00</ele>
   <time>2014-03-31T10:21:42Z</time>
  </trkpt>
  <trkpt lat="33.308689" lon="-4.157310">
   <ele>1703.00</ele>
   <time>2014-03-31T10:21:52Z</time>
  </trkpt>
  <trkpt lat="33.308761" lon="-4.156907">
   <ele>1702.00</ele>
   <time>2014-03-31T10:21:54Z</time>
  </trkpt>
  <trkpt lat="33.308808" lon="-4.156500">
   <ele>1702.00</ele>
   <time>2014-03-31T10:21:56Z</time>
  </trkpt>
  <trkpt lat="33.308828" lon="-4.156089">
   <ele>1703.00</ele>
   <time>2014-03-31T10:21:58Z</time>
  </trkpt>
  <trkpt lat="33.308878" lon="-4.154871">
   <ele>1705.00</ele>
   <time>2014-03-31T10:22:04Z</time>
  </trkpt>
  <trkpt lat="33.308927" lon="-4.154473">
   <ele>1705.00</ele>
   <time>2014-03-31T10:22:06Z</time>
  </trkpt>
  <trkpt lat="33.309039" lon="-4.153869">
   <ele>1706.00</ele>
   <time>2014-03-31T10:22:09Z</time>
  </trkpt>
  <trkpt lat="33.309674" lon="-4.150652">
   <ele>1708.00</ele>
   <time>2014-03-31T10:22:25Z</time>
  </trkpt>
  <trkpt lat="33.309779" lon="-4.150267">
   <ele>1708.00</ele>
   <time>2014-03-31T10:22:27Z</time>
  </trkpt>
  <trkpt lat="33.310480" lon="-4.147914">
   <ele>1709.00</ele>
   <time>2014-03-31T10:22:39Z</time>
  </trkpt>
  <trkpt lat="33.310551" lon="-4.147512">
   <ele>1711.00</ele>
   <time>2014-03-31T10:22:41Z</time>
  </trkpt>
  <trkpt lat="33.310813" lon="-4.145718">
   <ele>1716.00</ele>
   <time>2014-03-31T10:22:50Z</time>
  </trkpt>
  <trkpt lat="33.311403" lon="-4.142659">
   <ele>1724.00</ele>
   <time>2014-03-31T10:23:05Z</time>
  </trkpt>
  <trkpt lat="33.311672" lon="-4.141230">
   <ele>1726.00</ele>
   <time>2014-03-31T10:23:12Z</time>
  </trkpt>
  <trkpt lat="33.311852" lon="-4.139966">
   <ele>1728.00</ele>
   <time>2014-03-31T10:23:18Z</time>
  </trkpt>
  <trkpt lat="33.312177" lon="-4.137355">
   <ele>1733.00</ele>
   <time>2014-03-31T10:23:31Z</time>
  </trkpt>
  <trkpt lat="33.312164" lon="-4.137023">
   <ele>1734.00</ele>
   <time>2014-03-31T10:23:33Z</time>
  </trkpt>
  <trkpt lat="33.312058" lon="-4.136739">
   <ele>1735.00</ele>
   <time>2014-03-31T10:23:35Z</time>
  </trkpt>
  <trkpt lat="33.311863" lon="-4.136538">
   <ele>1735.00</ele>
   <time>2014-03-31T10:23:37Z</time>
  </trkpt>
  <trkpt lat="33.311610" lon="-4.136431">
   <ele>1734.00</ele>
   <time>2014-03-31T10:23:39Z</time>
  </trkpt>
  <trkpt lat="33.311335" lon="-4.136363">
   <ele>1733.00</ele>
   <time>2014-03-31T10:23:41Z</time>
  </trkpt>
  <trkpt lat="33.310362" lon="-4.136133">
   <ele>1728.00</ele>
   <time>2014-03-31T10:23:48Z</time>
  </trkpt>
  <trkpt lat="33.310123" lon="-4.136026">
   <ele>1727.00</ele>
   <time>2014-03-31T10:23:50Z</time>
  </trkpt>
  <trkpt lat="33.309963" lon="-4.135844">
   <ele>1726.00</ele>
   <time>2014-03-31T10:23:52Z</time>
  </trkpt>
  <trkpt lat="33.309914" lon="-4.135587">
   <ele>1726.00</ele>
   <time>2014-03-31T10:23:54Z</time>
  </trkpt>
  <trkpt lat="33.309925" lon="-4.135307">
   <ele>1727.00</ele>
   <time>2014-03-31T10:23:56Z</time>
  </trkpt>
  <trkpt lat="33.309983" lon="-4.134709">
   <ele>1731.00</ele>
   <time>2014-03-31T10:24:00Z</time>
  </trkpt>
  <trkpt lat="33.310155" lon="-4.132695">
   <ele>1736.00</ele>
   <time>2014-03-31T10:24:11Z</time>
  </trkpt>
  <trkpt lat="33.310170" lon="-4.132328">
   <ele>1738.00</ele>
   <time>2014-03-31T10:24:13Z</time>
  </trkpt>
  <trkpt lat="33.310172" lon="-4.131979">
   <ele>1740.00</ele>
   <time>2014-03-31T10:24:15Z</time>
  </trkpt>
  <trkpt lat="33.310163" lon="-4.131024">
   <ele>1743.00</ele>
   <time>2014-03-31T10:24:21Z</time>
  </trkpt>
  <trkpt lat="33.310189" lon="-4.130698">
   <ele>1744.00</ele>
   <time>2014-03-31T10:24:23Z</time>
  </trkpt>
  <trkpt lat="33.310231" lon="-4.130353">
   <ele>1745.00</ele>
   <time>2014-03-31T10:24:25Z</time>
  </trkpt>
  <trkpt lat="33.310470" lon="-4.128680">
   <ele>1746.00</ele>
   <time>2014-03-31T10:24:34Z</time>
  </trkpt>
  <trkpt lat="33.310498" lon="-4.128313">
   <ele>1746.00</ele>
   <time>2014-03-31T10:24:36Z</time>
  </trkpt>
  <trkpt lat="33.310505" lon="-4.127953">
   <ele>1746.00</ele>
   <time>2014-03-31T10:24:38Z</time>
  </trkpt>
  <trkpt lat="33.310482" lon="-4.127605">
   <ele>1746.00</ele>
   <time>2014-03-31T10:24:40Z</time>
  </trkpt>
  <trkpt lat="33.310412" lon="-4.127279">
   <ele>1745.00</ele>
   <time>2014-03-31T10:24:42Z</time>
  </trkpt>
  <trkpt lat="33.310345" lon="-4.126974">
   <ele>1744.00</ele>
   <time>2014-03-31T10:24:44Z</time>
  </trkpt>
  <trkpt lat="33.310349" lon="-4.126669">
   <ele>1743.00</ele>
   <time>2014-03-31T10:24:46Z</time>
  </trkpt>
  <trkpt lat="33.310432" lon="-4.126349">
   <ele>1742.00</ele>
   <time>2014-03-31T10:24:48Z</time>
  </trkpt>
  <trkpt lat="33.311218" lon="-4.124081">
   <ele>1742.00</ele>
   <time>2014-03-31T10:25:00Z</time>
  </trkpt>
  <trkpt lat="33.311296" lon="-4.123685">
   <ele>1742.00</ele>
   <time>2014-03-31T10:25:02Z</time>
  </trkpt>
  <trkpt lat="33.311318" lon="-4.123275">
   <ele>1743.00</ele>
   <time>2014-03-31T10:25:04Z</time>
  </trkpt>
  <trkpt lat="33.311334" lon="-4.122418">
   <ele>1743.00</ele>
   <time>2014-03-31T10:25:08Z</time>
  </trkpt>
  <trkpt lat="33.311351" lon="-4.122203">
   <ele>1743.00</ele>
   <time>2014-03-31T10:25:09Z</time>
  </trkpt>
  <trkpt lat="33.311474" lon="-4.120923">
   <ele>1742.00</ele>
   <time>2014-03-31T10:25:15Z</time>
  </trkpt>
  <trkpt lat="33.311483" lon="-4.120519">
   <ele>1743.00</ele>
   <time>2014-03-31T10:25:17Z</time>
  </trkpt>
  <trkpt lat="33.311462" lon="-4.120123">
   <ele>1743.00</ele>
   <time>2014-03-31T10:25:19Z</time>
  </trkpt>
  <trkpt lat="33.311436" lon="-4.119552">
   <ele>1745.00</ele>
   <time>2014-03-31T10:25:22Z</time>
  </trkpt>
  <trkpt lat="33.311467" lon="-4.119176">
   <ele>1745.00</ele>
   <time>2014-03-31T10:25:24Z</time>
  </trkpt>
  <trkpt lat="33.311540" lon="-4.118797">
   <ele>1745.00</ele>
   <time>2014-03-31T10:25:26Z</time>
  </trkpt>
  <trkpt lat="33.311743" lon="-4.117849">
   <ele>1745.00</ele>
   <time>2014-03-31T10:25:31Z</time>
  </trkpt>
  <trkpt lat="33.311792" lon="-4.117453">
   <ele>1745.00</ele>
   <time>2014-03-31T10:25:33Z</time>
  </trkpt>
  <trkpt lat="33.311820" lon="-4.117042">
   <ele>1745.00</ele>
   <time>2014-03-31T10:25:35Z</time>
  </trkpt>
  <trkpt lat="33.311885" lon="-4.115562">
   <ele>1747.00</ele>
   <time>2014-03-31T10:25:42Z</time>
  </trkpt>
  <trkpt lat="33.311943" lon="-4.115127">
   <ele>1747.00</ele>
   <time>2014-03-31T10:25:44Z</time>
  </trkpt>
  <trkpt lat="33.311982" lon="-4.114907">
   <ele>1747.00</ele>
   <time>2014-03-31T10:25:45Z</time>
  </trkpt>
  <trkpt lat="33.312029" lon="-4.114685">
   <ele>1748.00</ele>
   <time>2014-03-31T10:25:46Z</time>
  </trkpt>
  <trkpt lat="33.312444" lon="-4.112872">
   <ele>1748.00</ele>
   <time>2014-03-31T10:25:54Z</time>
  </trkpt>
  <trkpt lat="33.312507" lon="-4.112648">
   <ele>1748.00</ele>
   <time>2014-03-31T10:25:55Z</time>
  </trkpt>
  <trkpt lat="33.312577" lon="-4.112427">
   <ele>1749.00</ele>
   <time>2014-03-31T10:25:56Z</time>
  </trkpt>
  <trkpt lat="33.312734" lon="-4.111991">
   <ele>1749.00</ele>
   <time>2014-03-31T10:25:58Z</time>
  </trkpt>
  <trkpt lat="33.313530" lon="-4.109987">
   <ele>1751.00</ele>
   <time>2014-03-31T10:26:07Z</time>
  </trkpt>
  <trkpt lat="33.313599" lon="-4.109753">
   <ele>1751.00</ele>
   <time>2014-03-31T10:26:08Z</time>
  </trkpt>
  <trkpt lat="33.314096" lon="-4.107907">
   <ele>1757.00</ele>
   <time>2014-03-31T10:26:16Z</time>
  </trkpt>
  <trkpt lat="33.314251" lon="-4.107462">
   <ele>1758.00</ele>
   <time>2014-03-31T10:26:18Z</time>
  </trkpt>
  <trkpt lat="33.315535" lon="-4.104080">
   <ele>1763.00</ele>
   <time>2014-03-31T10:26:33Z</time>
  </trkpt>
  <trkpt lat="33.315630" lon="-4.103871">
   <ele>1763.00</ele>
   <time>2014-03-31T10:26:34Z</time>
  </trkpt>
  <trkpt lat="33.315733" lon="-4.103667">
   <ele>1764.00</ele>
   <time>2014-03-31T10:26:35Z</time>
  </trkpt>
  <trkpt lat="33.315957" lon="-4.103267">
   <ele>1765.00</ele>
   <time>2014-03-31T10:26:37Z</time>
  </trkpt>
  <trkpt lat="33.316523" lon="-4.102244">
   <ele>1767.00</ele>
   <time>2014-03-31T10:26:42Z</time>
  </trkpt>
  <trkpt lat="33.316944" lon="-4.101408">
   <ele>1769.00</ele>
   <time>2014-03-31T10:26:46Z</time>
  </trkpt>
  <trkpt lat="33.317041" lon="-4.101194">
   <ele>1770.00</ele>
   <time>2014-03-31T10:26:47Z</time>
  </trkpt>
  <trkpt lat="33.317215" lon="-4.100752">
   <ele>1771.00</ele>
   <time>2014-03-31T10:26:49Z</time>
  </trkpt>
  <trkpt lat="33.317365" lon="-4.100292">
   <ele>1771.00</ele>
   <time>2014-03-31T10:26:51Z</time>
  </trkpt>
  <trkpt lat="33.318244" lon="-4.097454">
   <ele>1775.00</ele>
   <time>2014-03-31T10:27:03Z</time>
  </trkpt>
  <trkpt lat="33.318338" lon="-4.097228">
   <ele>1775.00</ele>
   <time>2014-03-31T10:27:04Z</time>
  </trkpt>
  <trkpt lat="33.318443" lon="-4.097009">
   <ele>1775.00</ele>
   <time>2014-03-31T10:27:05Z</time>
  </trkpt>
  <trkpt lat="33.319117" lon="-4.095723">
   <ele>1780.00</ele>
   <time>2014-03-31T10:27:11Z</time>
  </trkpt>
  <trkpt lat="33.319233" lon="-4.095526">
   <ele>1781.00</ele>
   <time>2014-03-31T10:27:12Z</time>
  </trkpt>
  <trkpt lat="33.319358" lon="-4.095341">
   <ele>1782.00</ele>
   <time>2014-03-31T10:27:13Z</time>
  </trkpt>
  <trkpt lat="33.319493" lon="-4.095168">
   <ele>1783.00</ele>
   <time>2014-03-31T10:27:14Z</time>
  </trkpt>
  <trkpt lat="33.319639" lon="-4.095003">
   <ele>1784.00</ele>
   <time>2014-03-31T10:27:15Z</time>
  </trkpt>
  <trkpt lat="33.319947" lon="-4.094685">
   <ele>1785.00</ele>
   <time>2014-03-31T10:27:17Z</time>
  </trkpt>
  <trkpt lat="33.320548" lon="-4.094093">
   <ele>1787.00</ele>
   <time>2014-03-31T10:27:21Z</time>
  </trkpt>
  <trkpt lat="33.320828" lon="-4.093899">
   <ele>1788.00</ele>
   <time>2014-03-31T10:27:23Z</time>
  </trkpt>
  <trkpt lat="33.321141" lon="-4.093787">
   <ele>1788.00</ele>
   <time>2014-03-31T10:27:25Z</time>
  </trkpt>
  <trkpt lat="33.321978" lon="-4.093562">
   <ele>1787.00</ele>
   <time>2014-03-31T10:27:30Z</time>
  </trkpt>
  <trkpt lat="33.322287" lon="-4.093396">
   <ele>1788.00</ele>
   <time>2014-03-31T10:27:32Z</time>
  </trkpt>
  <trkpt lat="33.322564" lon="-4.093157">
   <ele>1788.00</ele>
   <time>2014-03-31T10:27:34Z</time>
  </trkpt>
  <trkpt lat="33.322819" lon="-4.092893">
   <ele>1788.00</ele>
   <time>2014-03-31T10:27:36Z</time>
  </trkpt>
  <trkpt lat="33.323048" lon="-4.092619">
   <ele>1788.00</ele>
   <time>2014-03-31T10:27:38Z</time>
  </trkpt>
  <trkpt lat="33.323205" lon="-4.092304">
   <ele>1787.00</ele>
   <time>2014-03-31T10:27:40Z</time>
  </trkpt>
  <trkpt lat="33.323270" lon="-4.091938">
   <ele>1787.00</ele>
   <time>2014-03-31T10:27:42Z</time>
  </trkpt>
  <trkpt lat="33.323279" lon="-4.091540">
   <ele>1788.00</ele>
   <time>2014-03-31T10:27:44Z</time>
  </trkpt>
  <trkpt lat="33.323287" lon="-4.090322">
   <ele>1791.00</ele>
   <time>2014-03-31T10:27:50Z</time>
  </trkpt>
  <trkpt lat="33.323350" lon="-4.089918">
   <ele>1791.00</ele>
   <time>2014-03-31T10:27:52Z</time>
  </trkpt>
  <trkpt lat="33.323501" lon="-4.089532">
   <ele>1792.00</ele>
   <time>2014-03-31T10:27:54Z</time>
  </trkpt>
  <trkpt lat="33.323602" lon="-4.089347">
   <ele>1792.00</ele>
   <time>2014-03-31T10:27:55Z</time>
  </trkpt>
  <trkpt lat="33.325322" lon="-4.086458">
   <ele>1799.00</ele>
   <time>2014-03-31T10:28:10Z</time>
  </trkpt>
  <trkpt lat="33.327105" lon="-4.083542">
   <ele>1807.00</ele>
   <time>2014-03-31T10:28:25Z</time>
  </trkpt>
  <trkpt lat="33.327237" lon="-4.083367">
   <ele>1808.00</ele>
   <time>2014-03-31T10:28:26Z</time>
  </trkpt>
  <trkpt lat="33.327378" lon="-4.083201">
   <ele>1808.00</ele>
   <time>2014-03-31T10:28:27Z</time>
  </trkpt>
  <trkpt lat="33.329440" lon="-4.080941">
   <ele>1818.00</ele>
   <time>2014-03-31T10:28:41Z</time>
  </trkpt>
  <trkpt lat="33.330263" lon="-4.079936">
   <ele>1821.00</ele>
   <time>2014-03-31T10:28:47Z</time>
  </trkpt>
  <trkpt lat="33.330411" lon="-4.079781">
   <ele>1821.00</ele>
   <time>2014-03-31T10:28:48Z</time>
  </trkpt>
  <trkpt lat="33.330565" lon="-4.079633">
   <ele>1821.00</ele>
   <time>2014-03-31T10:28:49Z</time>
  </trkpt>
  <trkpt lat="33.330724" lon="-4.079492">
   <ele>1822.00</ele>
   <time>2014-03-31T10:28:50Z</time>
  </trkpt>
  <trkpt lat="33.331993" lon="-4.078383">
   <ele>1828.00</ele>
   <time>2014-03-31T10:28:58Z</time>
  </trkpt>
  <trkpt lat="33.332132" lon="-4.078233">
   <ele>1829.00</ele>
   <time>2014-03-31T10:28:59Z</time>
  </trkpt>
  <trkpt lat="33.332258" lon="-4.078070">
   <ele>1830.00</ele>
   <time>2014-03-31T10:29:00Z</time>
  </trkpt>
  <trkpt lat="33.332374" lon="-4.077898">
   <ele>1831.00</ele>
   <time>2014-03-31T10:29:01Z</time>
  </trkpt>
  <trkpt lat="33.332591" lon="-4.077535">
   <ele>1833.00</ele>
   <time>2014-03-31T10:29:03Z</time>
  </trkpt>
  <trkpt lat="33.333655" lon="-4.075668">
   <ele>1840.00</ele>
   <time>2014-03-31T10:29:13Z</time>
  </trkpt>
  <trkpt lat="33.335135" lon="-4.073511">
   <ele>1844.00</ele>
   <time>2014-03-31T10:29:25Z</time>
  </trkpt>
  <trkpt lat="33.335656" lon="-4.072827">
   <ele>1844.00</ele>
   <time>2014-03-31T10:29:29Z</time>
  </trkpt>
  <trkpt lat="33.336195" lon="-4.072166">
   <ele>1845.00</ele>
   <time>2014-03-31T10:29:33Z</time>
  </trkpt>
  <trkpt lat="33.336321" lon="-4.071989">
   <ele>1845.00</ele>
   <time>2014-03-31T10:29:34Z</time>
  </trkpt>
  <trkpt lat="33.336560" lon="-4.071626">
   <ele>1846.00</ele>
   <time>2014-03-31T10:29:36Z</time>
  </trkpt>
  <trkpt lat="33.337598" lon="-4.069935">
   <ele>1849.00</ele>
   <time>2014-03-31T10:29:45Z</time>
  </trkpt>
  <trkpt lat="33.337810" lon="-4.069538">
   <ele>1850.00</ele>
   <time>2014-03-31T10:29:47Z</time>
  </trkpt>
  <trkpt lat="33.337905" lon="-4.069331">
   <ele>1851.00</ele>
   <time>2014-03-31T10:29:48Z</time>
  </trkpt>
  <trkpt lat="33.338165" lon="-4.068697">
   <ele>1852.00</ele>
   <time>2014-03-31T10:29:51Z</time>
  </trkpt>
  <trkpt lat="33.339451" lon="-4.065464">
   <ele>1853.00</ele>
   <time>2014-03-31T10:30:07Z</time>
  </trkpt>
  <trkpt lat="33.339567" lon="-4.065067">
   <ele>1853.00</ele>
   <time>2014-03-31T10:30:09Z</time>
  </trkpt>
  <trkpt lat="33.339758" lon="-4.064298">
   <ele>1851.00</ele>
   <time>2014-03-31T10:30:13Z</time>
  </trkpt>
  <trkpt lat="33.339899" lon="-4.063948">
   <ele>1850.00</ele>
   <time>2014-03-31T10:30:15Z</time>
  </trkpt>
  <trkpt lat="33.340079" lon="-4.063623">
   <ele>1850.00</ele>
   <time>2014-03-31T10:30:17Z</time>
  </trkpt>
  <trkpt lat="33.341525" lon="-4.061043">
   <ele>1842.00</ele>
   <time>2014-03-31T10:30:32Z</time>
  </trkpt>
  <trkpt lat="33.341942" lon="-4.060361">
   <ele>1839.00</ele>
   <time>2014-03-31T10:30:36Z</time>
  </trkpt>
  <trkpt lat="33.342782" lon="-4.059081">
   <ele>1831.00</ele>
   <time>2014-03-31T10:30:44Z</time>
  </trkpt>
  <trkpt lat="33.342921" lon="-4.058834">
   <ele>1829.00</ele>
   <time>2014-03-31T10:30:46Z</time>
  </trkpt>
  <trkpt lat="33.343047" lon="-4.058589">
   <ele>1828.00</ele>
   <time>2014-03-31T10:30:48Z</time>
  </trkpt>
  <trkpt lat="33.343238" lon="-4.058219">
   <ele>1826.00</ele>
   <time>2014-03-31T10:30:51Z</time>
  </trkpt>
  <trkpt lat="33.343387" lon="-4.058001">
   <ele>1825.00</ele>
   <time>2014-03-31T10:30:53Z</time>
  </trkpt>
  <trkpt lat="33.343578" lon="-4.057830">
   <ele>1823.00</ele>
   <time>2014-03-31T10:30:55Z</time>
  </trkpt>
  <trkpt lat="33.343799" lon="-4.057712">
   <ele>1821.00</ele>
   <time>2014-03-31T10:30:57Z</time>
  </trkpt>
  <trkpt lat="33.344002" lon="-4.057575">
   <ele>1820.00</ele>
   <time>2014-03-31T10:30:59Z</time>
  </trkpt>
  <trkpt lat="33.344156" lon="-4.057365">
   <ele>1820.00</ele>
   <time>2014-03-31T10:31:01Z</time>
  </trkpt>
  <trkpt lat="33.344268" lon="-4.057095">
   <ele>1818.00</ele>
   <time>2014-03-31T10:31:03Z</time>
  </trkpt>
  <trkpt lat="33.344427" lon="-4.056638">
   <ele>1814.00</ele>
   <time>2014-03-31T10:31:06Z</time>
  </trkpt>
  <trkpt lat="33.344756" lon="-4.055740">
   <ele>1811.00</ele>
   <time>2014-03-31T10:31:11Z</time>
  </trkpt>
  <trkpt lat="33.344926" lon="-4.055355">
   <ele>1810.00</ele>
   <time>2014-03-31T10:31:13Z</time>
  </trkpt>
  <trkpt lat="33.345294" lon="-4.054622">
   <ele>1809.00</ele>
   <time>2014-03-31T10:31:17Z</time>
  </trkpt>
  <trkpt lat="33.345483" lon="-4.054301">
   <ele>1808.00</ele>
   <time>2014-03-31T10:31:19Z</time>
  </trkpt>
  <trkpt lat="33.345705" lon="-4.054021">
   <ele>1806.00</ele>
   <time>2014-03-31T10:31:21Z</time>
  </trkpt>
  <trkpt lat="33.345952" lon="-4.053768">
   <ele>1804.00</ele>
   <time>2014-03-31T10:31:23Z</time>
  </trkpt>
  <trkpt lat="33.346450" lon="-4.053256">
   <ele>1802.00</ele>
   <time>2014-03-31T10:31:27Z</time>
  </trkpt>
  <trkpt lat="33.346661" lon="-4.052962">
   <ele>1801.00</ele>
   <time>2014-03-31T10:31:29Z</time>
  </trkpt>
  <trkpt lat="33.346847" lon="-4.052645">
   <ele>1800.00</ele>
   <time>2014-03-31T10:31:31Z</time>
  </trkpt>
  <trkpt lat="33.348001" lon="-4.050518">
   <ele>1795.00</ele>
   <time>2014-03-31T10:31:44Z</time>
  </trkpt>
  <trkpt lat="33.348127" lon="-4.050223">
   <ele>1794.00</ele>
   <time>2014-03-31T10:31:46Z</time>
  </trkpt>
  <trkpt lat="33.348189" lon="-4.049924">
   <ele>1791.00</ele>
   <time>2014-03-31T10:31:48Z</time>
  </trkpt>
  <trkpt lat="33.348248" lon="-4.049479">
   <ele>1788.00</ele>
   <time>2014-03-31T10:31:51Z</time>
  </trkpt>
  <trkpt lat="33.348350" lon="-4.049221">
   <ele>1787.00</ele>
   <time>2014-03-31T10:31:53Z</time>
  </trkpt>
  <trkpt lat="33.348485" lon="-4.048988">
   <ele>1786.00</ele>
   <time>2014-03-31T10:31:55Z</time>
  </trkpt>
  <trkpt lat="33.348690" lon="-4.048659">
   <ele>1785.00</ele>
   <time>2014-03-31T10:31:58Z</time>
  </trkpt>
  <trkpt lat="33.349302" lon="-4.047680">
   <ele>1780.00</ele>
   <time>2014-03-31T10:32:07Z</time>
  </trkpt>
  <trkpt lat="33.349426" lon="-4.047446">
   <ele>1780.00</ele>
   <time>2014-03-31T10:32:09Z</time>
  </trkpt>
  <trkpt lat="33.349508" lon="-4.047225">
   <ele>1779.00</ele>
   <time>2014-03-31T10:32:11Z</time>
  </trkpt>
  <trkpt lat="33.349551" lon="-4.047013">
   <ele>1778.00</ele>
   <time>2014-03-31T10:32:13Z</time>
  </trkpt>
  <trkpt lat="33.349589" lon="-4.046800">
   <ele>1777.00</ele>
   <time>2014-03-31T10:32:15Z</time>
  </trkpt>
  <trkpt lat="33.349649" lon="-4.046585">
   <ele>1777.00</ele>
   <time>2014-03-31T10:32:17Z</time>
  </trkpt>
  <trkpt lat="33.349760" lon="-4.046384">
   <ele>1777.00</ele>
   <time>2014-03-31T10:32:19Z</time>
  </trkpt>
  <trkpt lat="33.349921" lon="-4.046217">
   <ele>1778.00</ele>
   <time>2014-03-31T10:32:21Z</time>
  </trkpt>
  <trkpt lat="33.350097" lon="-4.046080">
   <ele>1778.00</ele>
   <time>2014-03-31T10:32:23Z</time>
  </trkpt>
  <trkpt lat="33.350286" lon="-4.045974">
   <ele>1779.00</ele>
   <time>2014-03-31T10:32:25Z</time>
  </trkpt>
  <trkpt lat="33.350491" lon="-4.045890">
   <ele>1779.00</ele>
   <time>2014-03-31T10:32:27Z</time>
  </trkpt>
  <trkpt lat="33.350705" lon="-4.045800">
   <ele>1780.00</ele>
   <time>2014-03-31T10:32:29Z</time>
  </trkpt>
  <trkpt lat="33.350910" lon="-4.045689">
   <ele>1781.00</ele>
   <time>2014-03-31T10:32:31Z</time>
  </trkpt>
  <trkpt lat="33.351089" lon="-4.045565">
   <ele>1782.00</ele>
   <time>2014-03-31T10:32:33Z</time>
  </trkpt>
  <trkpt lat="33.351302" lon="-4.045387">
   <ele>1785.00</ele>
   <time>2014-03-31T10:32:36Z</time>
  </trkpt>
  <trkpt lat="33.351478" lon="-4.045234">
   <ele>1787.00</ele>
   <time>2014-03-31T10:32:39Z</time>
  </trkpt>
  <trkpt lat="33.351691" lon="-4.045034">
   <ele>1790.00</ele>
   <time>2014-03-31T10:32:43Z</time>
  </trkpt>
  <trkpt lat="33.351916" lon="-4.044822">
   <ele>1794.00</ele>
   <time>2014-03-31T10:32:47Z</time>
  </trkpt>
  <trkpt lat="33.352118" lon="-4.044686">
   <ele>1797.00</ele>
   <time>2014-03-31T10:32:50Z</time>
  </trkpt>
  <trkpt lat="33.352773" lon="-4.044341">
   <ele>1801.00</ele>
   <time>2014-03-31T10:32:58Z</time>
  </trkpt>
  <trkpt lat="33.352956" lon="-4.044267">
   <ele>1803.00</ele>
   <time>2014-03-31T10:33:00Z</time>
  </trkpt>
  <trkpt lat="33.353152" lon="-4.044224">
   <ele>1805.00</ele>
   <time>2014-03-31T10:33:02Z</time>
  </trkpt>
  <trkpt lat="33.353341" lon="-4.044218">
   <ele>1807.00</ele>
   <time>2014-03-31T10:33:04Z</time>
  </trkpt>
  <trkpt lat="33.353530" lon="-4.044260">
   <ele>1810.00</ele>
   <time>2014-03-31T10:33:06Z</time>
  </trkpt>
  <trkpt lat="33.353958" lon="-4.044392">
   <ele>1814.00</ele>
   <time>2014-03-31T10:33:10Z</time>
  </trkpt>
  <trkpt lat="33.354194" lon="-4.044429">
   <ele>1816.00</ele>
   <time>2014-03-31T10:33:12Z</time>
  </trkpt>
  <trkpt lat="33.354443" lon="-4.044415">
   <ele>1817.00</ele>
   <time>2014-03-31T10:33:14Z</time>
  </trkpt>
  <trkpt lat="33.354698" lon="-4.044363">
   <ele>1819.00</ele>
   <time>2014-03-31T10:33:16Z</time>
  </trkpt>
  <trkpt lat="33.355082" lon="-4.044273">
   <ele>1821.00</ele>
   <time>2014-03-31T10:33:19Z</time>
  </trkpt>
  <trkpt lat="33.355317" lon="-4.044164">
   <ele>1823.00</ele>
   <time>2014-03-31T10:33:21Z</time>
  </trkpt>
  <trkpt lat="33.355534" lon="-4.044016">
   <ele>1825.00</ele>
   <time>2014-03-31T10:33:23Z</time>
  </trkpt>
  <trkpt lat="33.355748" lon="-4.043870">
   <ele>1827.00</ele>
   <time>2014-03-31T10:33:25Z</time>
  </trkpt>
  <trkpt lat="33.355974" lon="-4.043755">
   <ele>1829.00</ele>
   <time>2014-03-31T10:33:27Z</time>
  </trkpt>
  <trkpt lat="33.356217" lon="-4.043683">
   <ele>1832.00</ele>
   <time>2014-03-31T10:33:29Z</time>
  </trkpt>
  <trkpt lat="33.356459" lon="-4.043640">
   <ele>1834.00</ele>
   <time>2014-03-31T10:33:31Z</time>
  </trkpt>
  <trkpt lat="33.356676" lon="-4.043625">
   <ele>1836.00</ele>
   <time>2014-03-31T10:33:33Z</time>
  </trkpt>
  <trkpt lat="33.356865" lon="-4.043703">
   <ele>1838.00</ele>
   <time>2014-03-31T10:33:35Z</time>
  </trkpt>
  <trkpt lat="33.357020" lon="-4.043852">
   <ele>1840.00</ele>
   <time>2014-03-31T10:33:37Z</time>
  </trkpt>
  <trkpt lat="33.357221" lon="-4.044055">
   <ele>1844.00</ele>
   <time>2014-03-31T10:33:40Z</time>
  </trkpt>
  <trkpt lat="33.357434" lon="-4.044141">
   <ele>1847.00</ele>
   <time>2014-03-31T10:33:43Z</time>
  </trkpt>
  <trkpt lat="33.357642" lon="-4.044070">
   <ele>1850.00</ele>
   <time>2014-03-31T10:33:46Z</time>
  </trkpt>
  <trkpt lat="33.357787" lon="-4.043857">
   <ele>1854.00</ele>
   <time>2014-03-31T10:33:49Z</time>
  </trkpt>
  <trkpt lat="33.357886" lon="-4.043571">
   <ele>1858.00</ele>
   <time>2014-03-31T10:33:52Z</time>
  </trkpt>
  <trkpt lat="33.357937" lon="-4.043347">
   <ele>1859.00</ele>
   <time>2014-03-31T10:33:54Z</time>
  </trkpt>
  <trkpt lat="33.358274" lon="-4.041820">
   <ele>1860.00</ele>
   <time>2014-03-31T10:34:05Z</time>
  </trkpt>
  <trkpt lat="33.358268" lon="-4.041560">
   <ele>1860.00</ele>
   <time>2014-03-31T10:34:07Z</time>
  </trkpt>
  <trkpt lat="33.358163" lon="-4.041330">
   <ele>1861.00</ele>
   <time>2014-03-31T10:34:09Z</time>
  </trkpt>
  <trkpt lat="33.358004" lon="-4.041139">
   <ele>1862.00</ele>
   <time>2014-03-31T10:34:11Z</time>
  </trkpt>
  <trkpt lat="33.357850" lon="-4.040959">
   <ele>1863.00</ele>
   <time>2014-03-31T10:34:13Z</time>
  </trkpt>
  <trkpt lat="33.357728" lon="-4.040747">
   <ele>1865.00</ele>
   <time>2014-03-31T10:34:15Z</time>
  </trkpt>
  <trkpt lat="33.357645" lon="-4.040491">
   <ele>1867.00</ele>
   <time>2014-03-31T10:34:17Z</time>
  </trkpt>
  <trkpt lat="33.357464" lon="-4.039683">
   <ele>1871.00</ele>
   <time>2014-03-31T10:34:23Z</time>
  </trkpt>
  <trkpt lat="33.357452" lon="-4.039457">
   <ele>1872.00</ele>
   <time>2014-03-31T10:34:25Z</time>
  </trkpt>
  <trkpt lat="33.357508" lon="-4.039243">
   <ele>1872.00</ele>
   <time>2014-03-31T10:34:27Z</time>
  </trkpt>
  <trkpt lat="33.357626" lon="-4.039052">
   <ele>1871.00</ele>
   <time>2014-03-31T10:34:29Z</time>
  </trkpt>
  <trkpt lat="33.357771" lon="-4.038887">
   <ele>1870.00</ele>
   <time>2014-03-31T10:34:31Z</time>
  </trkpt>
  <trkpt lat="33.358002" lon="-4.038646">
   <ele>1867.00</ele>
   <time>2014-03-31T10:34:34Z</time>
  </trkpt>
  <trkpt lat="33.358148" lon="-4.038459">
   <ele>1865.00</ele>
   <time>2014-03-31T10:34:37Z</time>
  </trkpt>
  <trkpt lat="33.358213" lon="-4.038426">
   <ele>1866.00</ele>
   <time>2014-03-31T10:34:52Z</time>
  </trkpt>
  <trkpt lat="33.358213" lon="-4.038442">
   <ele>1867.00</ele>
   <time>2014-03-31T10:35:08Z</time>
  </trkpt>
  <trkpt lat="33.358216" lon="-4.038448">
   <ele>1868.00</ele>
   <time>2014-03-31T10:35:24Z</time>
  </trkpt>
  <trkpt lat="33.358218" lon="-4.038451">
   <ele>1868.00</ele>
   <time>2014-03-31T10:35:39Z</time>
  </trkpt>
  <trkpt lat="33.358222" lon="-4.038450">
   <ele>1868.00</ele>
   <time>2014-03-31T10:35:55Z</time>
  </trkpt>
  <trkpt lat="33.358225" lon="-4.038447">
   <ele>1869.00</ele>
   <time>2014-03-31T10:36:11Z</time>
  </trkpt>
  <trkpt lat="33.358227" lon="-4.038445">
   <ele>1868.00</ele>
   <time>2014-03-31T10:36:26Z</time>
  </trkpt>
  <trkpt lat="33.358229" lon="-4.038444">
   <ele>1868.00</ele>
   <time>2014-03-31T10:36:42Z</time>
  </trkpt>
  <trkpt lat="33.358226" lon="-4.038447">
   <ele>1867.00</ele>
   <time>2014-03-31T10:36:57Z</time>
  </trkpt>
  <trkpt lat="33.358225" lon="-4.038448">
   <ele>1867.00</ele>
   <time>2014-03-31T10:37:13Z</time>
  </trkpt>
  <trkpt lat="33.358223" lon="-4.038449">
   <ele>1867.00</ele>
   <time>2014-03-31T10:37:29Z</time>
  </trkpt>
  <trkpt lat="33.358223" lon="-4.038451">
   <ele>1867.00</ele>
   <time>2014-03-31T10:37:44Z</time>
  </trkpt>
  <trkpt lat="33.358225" lon="-4.038450">
   <ele>1866.00</ele>
   <time>2014-03-31T10:38:00Z</time>
  </trkpt>
  <trkpt lat="33.358221" lon="-4.038448">
   <ele>1866.00</ele>
   <time>2014-03-31T10:38:15Z</time>
  </trkpt>
  <trkpt lat="33.358216" lon="-4.038446">
   <ele>1866.00</ele>
   <time>2014-03-31T10:38:31Z</time>
  </trkpt>
  <trkpt lat="33.358216" lon="-4.038446">
   <ele>1866.00</ele>
   <time>2014-03-31T10:38:46Z</time>
  </trkpt>
  <trkpt lat="33.358219" lon="-4.038447">
   <ele>1866.00</ele>
   <time>2014-03-31T10:39:01Z</time>
  </trkpt>
  <trkpt lat="33.358219" lon="-4.038448">
   <ele>1866.00</ele>
   <time>2014-03-31T10:39:17Z</time>
  </trkpt>
  <trkpt lat="33.358221" lon="-4.038449">
   <ele>1866.00</ele>
   <time>2014-03-31T10:39:32Z</time>
  </trkpt>
  <trkpt lat="33.358429" lon="-4.038335">
   <ele>1864.00</ele>
   <time>2014-03-31T10:39:45Z</time>
  </trkpt>
  <trkpt lat="33.358595" lon="-4.038238">
   <ele>1863.00</ele>
   <time>2014-03-31T10:39:48Z</time>
  </trkpt>
  <trkpt lat="33.358769" lon="-4.038084">
   <ele>1861.00</ele>
   <time>2014-03-31T10:39:51Z</time>
  </trkpt>
  <trkpt lat="33.358930" lon="-4.037869">
   <ele>1859.00</ele>
   <time>2014-03-31T10:39:54Z</time>
  </trkpt>
  <trkpt lat="33.359087" lon="-4.037626">
   <ele>1856.00</ele>
   <time>2014-03-31T10:39:57Z</time>
  </trkpt>
  <trkpt lat="33.359214" lon="-4.037455">
   <ele>1854.00</ele>
   <time>2014-03-31T10:39:59Z</time>
  </trkpt>
  <trkpt lat="33.359360" lon="-4.037279">
   <ele>1852.00</ele>
   <time>2014-03-31T10:40:01Z</time>
  </trkpt>
  <trkpt lat="33.359613" lon="-4.037002">
   <ele>1848.00</ele>
   <time>2014-03-31T10:40:04Z</time>
  </trkpt>
  <trkpt lat="33.360364" lon="-4.036181">
   <ele>1839.00</ele>
   <time>2014-03-31T10:40:12Z</time>
  </trkpt>
  <trkpt lat="33.360505" lon="-4.035975">
   <ele>1837.00</ele>
   <time>2014-03-31T10:40:14Z</time>
  </trkpt>
  <trkpt lat="33.360587" lon="-4.035739">
   <ele>1836.00</ele>
   <time>2014-03-31T10:40:16Z</time>
  </trkpt>
  <trkpt lat="33.360616" lon="-4.035493">
   <ele>1834.00</ele>
   <time>2014-03-31T10:40:18Z</time>
  </trkpt>
  <trkpt lat="33.360635" lon="-4.035247">
   <ele>1831.00</ele>
   <time>2014-03-31T10:40:20Z</time>
  </trkpt>
  <trkpt lat="33.360687" lon="-4.035011">
   <ele>1829.00</ele>
   <time>2014-03-31T10:40:22Z</time>
  </trkpt>
  <trkpt lat="33.360831" lon="-4.034546">
   <ele>1827.00</ele>
   <time>2014-03-31T10:40:26Z</time>
  </trkpt>
  <trkpt lat="33.360875" lon="-4.034302">
   <ele>1825.00</ele>
   <time>2014-03-31T10:40:28Z</time>
  </trkpt>
  <trkpt lat="33.360945" lon="-4.033946">
   <ele>1823.00</ele>
   <time>2014-03-31T10:40:31Z</time>
  </trkpt>
  <trkpt lat="33.361035" lon="-4.033736">
   <ele>1823.00</ele>
   <time>2014-03-31T10:40:33Z</time>
  </trkpt>
  <trkpt lat="33.361165" lon="-4.033553">
   <ele>1822.00</ele>
   <time>2014-03-31T10:40:35Z</time>
  </trkpt>
  <trkpt lat="33.361320" lon="-4.033387">
   <ele>1821.00</ele>
   <time>2014-03-31T10:40:37Z</time>
  </trkpt>
  <trkpt lat="33.361492" lon="-4.033232">
   <ele>1820.00</ele>
   <time>2014-03-31T10:40:39Z</time>
  </trkpt>
  <trkpt lat="33.361673" lon="-4.033106">
   <ele>1819.00</ele>
   <time>2014-03-31T10:40:41Z</time>
  </trkpt>
  <trkpt lat="33.361853" lon="-4.033007">
   <ele>1819.00</ele>
   <time>2014-03-31T10:40:43Z</time>
  </trkpt>
  <trkpt lat="33.362003" lon="-4.032872">
   <ele>1819.00</ele>
   <time>2014-03-31T10:40:45Z</time>
  </trkpt>
  <trkpt lat="33.362102" lon="-4.032681">
   <ele>1819.00</ele>
   <time>2014-03-31T10:40:47Z</time>
  </trkpt>
  <trkpt lat="33.362135" lon="-4.032441">
   <ele>1820.00</ele>
   <time>2014-03-31T10:40:49Z</time>
  </trkpt>
  <trkpt lat="33.362147" lon="-4.032180">
   <ele>1821.00</ele>
   <time>2014-03-31T10:40:51Z</time>
  </trkpt>
  <trkpt lat="33.362162" lon="-4.031908">
   <ele>1823.00</ele>
   <time>2014-03-31T10:40:53Z</time>
  </trkpt>
  <trkpt lat="33.362196" lon="-4.031642">
   <ele>1824.00</ele>
   <time>2014-03-31T10:40:55Z</time>
  </trkpt>
  <trkpt lat="33.362264" lon="-4.031393">
   <ele>1825.00</ele>
   <time>2014-03-31T10:40:57Z</time>
  </trkpt>
  <trkpt lat="33.362382" lon="-4.031173">
   <ele>1825.00</ele>
   <time>2014-03-31T10:40:59Z</time>
  </trkpt>
  <trkpt lat="33.362560" lon="-4.031019">
   <ele>1825.00</ele>
   <time>2014-03-31T10:41:01Z</time>
  </trkpt>
  <trkpt lat="33.362769" lon="-4.030901">
   <ele>1824.00</ele>
   <time>2014-03-31T10:41:03Z</time>
  </trkpt>
  <trkpt lat="33.362973" lon="-4.030764">
   <ele>1824.00</ele>
   <time>2014-03-31T10:41:05Z</time>
  </trkpt>
  <trkpt lat="33.363149" lon="-4.030582">
   <ele>1825.00</ele>
   <time>2014-03-31T10:41:07Z</time>
  </trkpt>
  <trkpt lat="33.363288" lon="-4.030356">
   <ele>1826.00</ele>
   <time>2014-03-31T10:41:09Z</time>
  </trkpt>
  <trkpt lat="33.363402" lon="-4.030101">
   <ele>1827.00</ele>
   <time>2014-03-31T10:41:11Z</time>
  </trkpt>
  <trkpt lat="33.363629" lon="-4.029581">
   <ele>1827.00</ele>
   <time>2014-03-31T10:41:15Z</time>
  </trkpt>
  <trkpt lat="33.363796" lon="-4.029243">
   <ele>1826.00</ele>
   <time>2014-03-31T10:41:18Z</time>
  </trkpt>
  <trkpt lat="33.363968" lon="-4.029078">
   <ele>1825.00</ele>
   <time>2014-03-31T10:41:21Z</time>
  </trkpt>
  <trkpt lat="33.364160" lon="-4.029087">
   <ele>1822.00</ele>
   <time>2014-03-31T10:41:25Z</time>
  </trkpt>
  <trkpt lat="33.364172" lon="-4.029130">
   <ele>1821.00</ele>
   <time>2014-03-31T10:41:42Z</time>
  </trkpt>
  <trkpt lat="33.364163" lon="-4.029140">
   <ele>1822.00</ele>
   <time>2014-03-31T10:41:58Z</time>
  </trkpt>
  <trkpt lat="33.364156" lon="-4.029144">
   <ele>1822.00</ele>
   <time>2014-03-31T10:42:13Z</time>
  </trkpt>
  <trkpt lat="33.364153" lon="-4.029147">
   <ele>1822.00</ele>
   <time>2014-03-31T10:42:28Z</time>
  </trkpt>
  <trkpt lat="33.364153" lon="-4.029148">
   <ele>1822.00</ele>
   <time>2014-03-31T10:42:44Z</time>
  </trkpt>
  <trkpt lat="33.364157" lon="-4.029150">
   <ele>1822.00</ele>
   <time>2014-03-31T10:42:59Z</time>
  </trkpt>
  <trkpt lat="33.364159" lon="-4.029150">
   <ele>1823.00</ele>
   <time>2014-03-31T10:43:14Z</time>
  </trkpt>
  <trkpt lat="33.364154" lon="-4.029147">
   <ele>1822.00</ele>
   <time>2014-03-31T10:43:30Z</time>
  </trkpt>
  <trkpt lat="33.364150" lon="-4.029145">
   <ele>1821.00</ele>
   <time>2014-03-31T10:43:45Z</time>
  </trkpt>
  <trkpt lat="33.364150" lon="-4.029146">
   <ele>1821.00</ele>
   <time>2014-03-31T10:44:00Z</time>
  </trkpt>
  <trkpt lat="33.364152" lon="-4.029147">
   <ele>1821.00</ele>
   <time>2014-03-31T10:44:16Z</time>
  </trkpt>
  <trkpt lat="33.364155" lon="-4.029150">
   <ele>1821.00</ele>
   <time>2014-03-31T10:44:31Z</time>
  </trkpt>
  <trkpt lat="33.364161" lon="-4.029153">
   <ele>1821.00</ele>
   <time>2014-03-31T10:44:46Z</time>
  </trkpt>
  <trkpt lat="33.364159" lon="-4.029152">
   <ele>1821.00</ele>
   <time>2014-03-31T10:45:02Z</time>
  </trkpt>
  <trkpt lat="33.364161" lon="-4.029153">
   <ele>1821.00</ele>
   <time>2014-03-31T10:45:17Z</time>
  </trkpt>
  <trkpt lat="33.364162" lon="-4.029152">
   <ele>1821.00</ele>
   <time>2014-03-31T10:45:32Z</time>
  </trkpt>
  <trkpt lat="33.364161" lon="-4.029151">
   <ele>1821.00</ele>
   <time>2014-03-31T10:45:48Z</time>
  </trkpt>
  <trkpt lat="33.364162" lon="-4.029150">
   <ele>1821.00</ele>
   <time>2014-03-31T10:46:03Z</time>
  </trkpt>
  <trkpt lat="33.364163" lon="-4.029149">
   <ele>1821.00</ele>
   <time>2014-03-31T10:46:18Z</time>
  </trkpt>
  <trkpt lat="33.364165" lon="-4.029149">
   <ele>1821.00</ele>
   <time>2014-03-31T10:46:34Z</time>
  </trkpt>
  <trkpt lat="33.364167" lon="-4.029149">
   <ele>1821.00</ele>
   <time>2014-03-31T10:46:49Z</time>
  </trkpt>
  <trkpt lat="33.364168" lon="-4.029150">
   <ele>1821.00</ele>
   <time>2014-03-31T10:47:04Z</time>
  </trkpt>
  <trkpt lat="33.364169" lon="-4.029151">
   <ele>1821.00</ele>
   <time>2014-03-31T10:47:20Z</time>
  </trkpt>
  <trkpt lat="33.364169" lon="-4.029152">
   <ele>1822.00</ele>
   <time>2014-03-31T10:47:36Z</time>
  </trkpt>
  <trkpt lat="33.364169" lon="-4.029152">
   <ele>1822.00</ele>
   <time>2014-03-31T10:47:51Z</time>
  </trkpt>
  <trkpt lat="33.364168" lon="-4.029151">
   <ele>1822.00</ele>
   <time>2014-03-31T10:48:06Z</time>
  </trkpt>
  <trkpt lat="33.364165" lon="-4.029151">
   <ele>1821.00</ele>
   <time>2014-03-31T10:48:22Z</time>
  </trkpt>
  <trkpt lat="33.364164" lon="-4.029150">
   <ele>1822.00</ele>
   <time>2014-03-31T10:48:37Z</time>
  </trkpt>
  <trkpt lat="33.364161" lon="-4.029149">
   <ele>1821.00</ele>
   <time>2014-03-31T10:48:52Z</time>
  </trkpt>
  <trkpt lat="33.364159" lon="-4.029148">
   <ele>1821.00</ele>
   <time>2014-03-31T10:49:08Z</time>
  </trkpt>
  <trkpt lat="33.364296" lon="-4.029338">
   <ele>1819.00</ele>
   <time>2014-03-31T10:49:17Z</time>
  </trkpt>
  <trkpt lat="33.364413" lon="-4.029516">
   <ele>1819.00</ele>
   <time>2014-03-31T10:49:21Z</time>
  </trkpt>
  <trkpt lat="33.364494" lon="-4.029737">
   <ele>1818.00</ele>
   <time>2014-03-31T10:49:25Z</time>
  </trkpt>
  <trkpt lat="33.364528" lon="-4.030039">
   <ele>1817.00</ele>
   <time>2014-03-31T10:49:30Z</time>
  </trkpt>
  <trkpt lat="33.364686" lon="-4.030100">
   <ele>1816.00</ele>
   <time>2014-03-31T10:49:34Z</time>
  </trkpt>
  <trkpt lat="33.364836" lon="-4.029873">
   <ele>1815.00</ele>
   <time>2014-03-31T10:49:38Z</time>
  </trkpt>
  <trkpt lat="33.365064" lon="-4.029494">
   <ele>1811.00</ele>
   <time>2014-03-31T10:49:43Z</time>
  </trkpt>
  <trkpt lat="33.365470" lon="-4.028870">
   <ele>1805.00</ele>
   <time>2014-03-31T10:49:50Z</time>
  </trkpt>
  <trkpt lat="33.365608" lon="-4.028705">
   <ele>1802.00</ele>
   <time>2014-03-31T10:49:52Z</time>
  </trkpt>
  <trkpt lat="33.365763" lon="-4.028565">
   <ele>1800.00</ele>
   <time>2014-03-31T10:49:54Z</time>
  </trkpt>
  <trkpt lat="33.365989" lon="-4.028375">
   <ele>1796.00</ele>
   <time>2014-03-31T10:49:57Z</time>
  </trkpt>
  <trkpt lat="33.366132" lon="-4.028132">
   <ele>1793.00</ele>
   <time>2014-03-31T10:50:00Z</time>
  </trkpt>
  <trkpt lat="33.366187" lon="-4.027847">
   <ele>1790.00</ele>
   <time>2014-03-31T10:50:03Z</time>
  </trkpt>
  <trkpt lat="33.366282" lon="-4.027575">
   <ele>1786.00</ele>
   <time>2014-03-31T10:50:06Z</time>
  </trkpt>
  <trkpt lat="33.366408" lon="-4.027418">
   <ele>1784.00</ele>
   <time>2014-03-31T10:50:08Z</time>
  </trkpt>
  <trkpt lat="33.366562" lon="-4.027272">
   <ele>1781.00</ele>
   <time>2014-03-31T10:50:10Z</time>
  </trkpt>
  <trkpt lat="33.366797" lon="-4.027042">
   <ele>1777.00</ele>
   <time>2014-03-31T10:50:13Z</time>
  </trkpt>
  <trkpt lat="33.366934" lon="-4.026867">
   <ele>1775.00</ele>
   <time>2014-03-31T10:50:15Z</time>
  </trkpt>
  <trkpt lat="33.367046" lon="-4.026673">
   <ele>1772.00</ele>
   <time>2014-03-31T10:50:17Z</time>
  </trkpt>
  <trkpt lat="33.367248" lon="-4.026273">
   <ele>1768.00</ele>
   <time>2014-03-31T10:50:21Z</time>
  </trkpt>
  <trkpt lat="33.367372" lon="-4.026082">
   <ele>1766.00</ele>
   <time>2014-03-31T10:50:23Z</time>
  </trkpt>
  <trkpt lat="33.367503" lon="-4.025903">
   <ele>1763.00</ele>
   <time>2014-03-31T10:50:25Z</time>
  </trkpt>
  <trkpt lat="33.367917" lon="-4.025377">
   <ele>1754.00</ele>
   <time>2014-03-31T10:50:31Z</time>
  </trkpt>
  <trkpt lat="33.368073" lon="-4.025224">
   <ele>1751.00</ele>
   <time>2014-03-31T10:50:33Z</time>
  </trkpt>
  <trkpt lat="33.368251" lon="-4.025096">
   <ele>1748.00</ele>
   <time>2014-03-31T10:50:35Z</time>
  </trkpt>
  <trkpt lat="33.368536" lon="-4.024925">
   <ele>1744.00</ele>
   <time>2014-03-31T10:50:38Z</time>
  </trkpt>
  <trkpt lat="33.368729" lon="-4.024825">
   <ele>1741.00</ele>
   <time>2014-03-31T10:50:40Z</time>
  </trkpt>
  <trkpt lat="33.368933" lon="-4.024736">
   <ele>1737.00</ele>
   <time>2014-03-31T10:50:42Z</time>
  </trkpt>
  <trkpt lat="33.369151" lon="-4.024656">
   <ele>1733.00</ele>
   <time>2014-03-31T10:50:44Z</time>
  </trkpt>
  <trkpt lat="33.370798" lon="-4.024092">
   <ele>1719.00</ele>
   <time>2014-03-31T10:50:59Z</time>
  </trkpt>
  <trkpt lat="33.371099" lon="-4.023973">
   <ele>1718.00</ele>
   <time>2014-03-31T10:51:02Z</time>
  </trkpt>
  <trkpt lat="33.371296" lon="-4.023873">
   <ele>1718.00</ele>
   <time>2014-03-31T10:51:04Z</time>
  </trkpt>
  <trkpt lat="33.371921" lon="-4.023512">
   <ele>1717.00</ele>
   <time>2014-03-31T10:51:10Z</time>
  </trkpt>
  <trkpt lat="33.372400" lon="-4.023285">
   <ele>1712.00</ele>
   <time>2014-03-31T10:51:14Z</time>
  </trkpt>
  <trkpt lat="33.373268" lon="-4.022879">
   <ele>1704.00</ele>
   <time>2014-03-31T10:51:21Z</time>
  </trkpt>
  <trkpt lat="33.373497" lon="-4.022747">
   <ele>1703.00</ele>
   <time>2014-03-31T10:51:23Z</time>
  </trkpt>
  <trkpt lat="33.373810" lon="-4.022543">
   <ele>1702.00</ele>
   <time>2014-03-31T10:51:26Z</time>
  </trkpt>
  <trkpt lat="33.374004" lon="-4.022417">
   <ele>1701.00</ele>
   <time>2014-03-31T10:51:28Z</time>
  </trkpt>
  <trkpt lat="33.374205" lon="-4.022317">
   <ele>1701.00</ele>
   <time>2014-03-31T10:51:30Z</time>
  </trkpt>
  <trkpt lat="33.374412" lon="-4.022231">
   <ele>1700.00</ele>
   <time>2014-03-31T10:51:32Z</time>
  </trkpt>
  <trkpt lat="33.376064" lon="-4.021560">
   <ele>1700.00</ele>
   <time>2014-03-31T10:51:47Z</time>
  </trkpt>
  <trkpt lat="33.376304" lon="-4.021480">
   <ele>1702.00</ele>
   <time>2014-03-31T10:51:49Z</time>
  </trkpt>
  <trkpt lat="33.376680" lon="-4.021383">
   <ele>1705.00</ele>
   <time>2014-03-31T10:51:52Z</time>
  </trkpt>
  <trkpt lat="33.378654" lon="-4.020912">
   <ele>1725.00</ele>
   <time>2014-03-31T10:52:07Z</time>
  </trkpt>
  <trkpt lat="33.379834" lon="-4.020633">
   <ele>1729.00</ele>
   <time>2014-03-31T10:52:16Z</time>
  </trkpt>
  <trkpt lat="33.380086" lon="-4.020555">
   <ele>1730.00</ele>
   <time>2014-03-31T10:52:18Z</time>
  </trkpt>
  <trkpt lat="33.380323" lon="-4.020486">
   <ele>1731.00</ele>
   <time>2014-03-31T10:52:20Z</time>
  </trkpt>
  <trkpt lat="33.380559" lon="-4.020432">
   <ele>1732.00</ele>
   <time>2014-03-31T10:52:22Z</time>
  </trkpt>
  <trkpt lat="33.380792" lon="-4.020347">
   <ele>1733.00</ele>
   <time>2014-03-31T10:52:24Z</time>
  </trkpt>
  <trkpt lat="33.381259" lon="-4.020142">
   <ele>1736.00</ele>
   <time>2014-03-31T10:52:28Z</time>
  </trkpt>
  <trkpt lat="33.381859" lon="-4.019862">
   <ele>1740.00</ele>
   <time>2014-03-31T10:52:33Z</time>
  </trkpt>
  <trkpt lat="33.382084" lon="-4.019701">
   <ele>1742.00</ele>
   <time>2014-03-31T10:52:35Z</time>
  </trkpt>
  <trkpt lat="33.382290" lon="-4.019504">
   <ele>1744.00</ele>
   <time>2014-03-31T10:52:37Z</time>
  </trkpt>
  <trkpt lat="33.382493" lon="-4.019302">
   <ele>1745.00</ele>
   <time>2014-03-31T10:52:39Z</time>
  </trkpt>
  <trkpt lat="33.382711" lon="-4.019119">
   <ele>1747.00</ele>
   <time>2014-03-31T10:52:41Z</time>
  </trkpt>
  <trkpt lat="33.382940" lon="-4.018957">
   <ele>1747.00</ele>
   <time>2014-03-31T10:52:43Z</time>
  </trkpt>
  <trkpt lat="33.383857" lon="-4.018316">
   <ele>1747.00</ele>
   <time>2014-03-31T10:52:51Z</time>
  </trkpt>
  <trkpt lat="33.384094" lon="-4.018198">
   <ele>1748.00</ele>
   <time>2014-03-31T10:52:53Z</time>
  </trkpt>
  <trkpt lat="33.385219" lon="-4.017725">
   <ele>1762.00</ele>
   <time>2014-03-31T10:53:03Z</time>
  </trkpt>
  <trkpt lat="33.385453" lon="-4.017677">
   <ele>1765.00</ele>
   <time>2014-03-31T10:53:05Z</time>
  </trkpt>
  <trkpt lat="33.385675" lon="-4.017688">
   <ele>1768.00</ele>
   <time>2014-03-31T10:53:07Z</time>
  </trkpt>
  <trkpt lat="33.385884" lon="-4.017756">
   <ele>1770.00</ele>
   <time>2014-03-31T10:53:09Z</time>
  </trkpt>
  <trkpt lat="33.386084" lon="-4.017877">
   <ele>1772.00</ele>
   <time>2014-03-31T10:53:11Z</time>
  </trkpt>
  <trkpt lat="33.386284" lon="-4.018032">
   <ele>1773.00</ele>
   <time>2014-03-31T10:53:13Z</time>
  </trkpt>
  <trkpt lat="33.387773" lon="-4.019189">
   <ele>1791.00</ele>
   <time>2014-03-31T10:53:28Z</time>
  </trkpt>
  <trkpt lat="33.387942" lon="-4.019316">
   <ele>1793.00</ele>
   <time>2014-03-31T10:53:30Z</time>
  </trkpt>
  <trkpt lat="33.388109" lon="-4.019416">
   <ele>1796.00</ele>
   <time>2014-03-31T10:53:32Z</time>
  </trkpt>
  <trkpt lat="33.388284" lon="-4.019484">
   <ele>1797.00</ele>
   <time>2014-03-31T10:53:34Z</time>
  </trkpt>
  <trkpt lat="33.388666" lon="-4.019606">
   <ele>1800.00</ele>
   <time>2014-03-31T10:53:38Z</time>
  </trkpt>
  <trkpt lat="33.388855" lon="-4.019630">
   <ele>1801.00</ele>
   <time>2014-03-31T10:53:40Z</time>
  </trkpt>
  <trkpt lat="33.389027" lon="-4.019558">
   <ele>1803.00</ele>
   <time>2014-03-31T10:53:42Z</time>
  </trkpt>
  <trkpt lat="33.389140" lon="-4.019375">
   <ele>1805.00</ele>
   <time>2014-03-31T10:53:44Z</time>
  </trkpt>
  <trkpt lat="33.389211" lon="-4.019129">
   <ele>1807.00</ele>
   <time>2014-03-31T10:53:46Z</time>
  </trkpt>
  <trkpt lat="33.389513" lon="-4.017949">
   <ele>1818.00</ele>
   <time>2014-03-31T10:53:55Z</time>
  </trkpt>
  <trkpt lat="33.389513" lon="-4.017728">
   <ele>1820.00</ele>
   <time>2014-03-31T10:53:57Z</time>
  </trkpt>
  <trkpt lat="33.389441" lon="-4.017511">
   <ele>1822.00</ele>
   <time>2014-03-31T10:53:59Z</time>
  </trkpt>
  <trkpt lat="33.389315" lon="-4.017302">
   <ele>1824.00</ele>
   <time>2014-03-31T10:54:01Z</time>
  </trkpt>
  <trkpt lat="33.389158" lon="-4.017100">
   <ele>1825.00</ele>
   <time>2014-03-31T10:54:03Z</time>
  </trkpt>
  <trkpt lat="33.388933" lon="-4.016812">
   <ele>1828.00</ele>
   <time>2014-03-31T10:54:06Z</time>
  </trkpt>
  <trkpt lat="33.388863" lon="-4.016611">
   <ele>1829.00</ele>
   <time>2014-03-31T10:54:08Z</time>
  </trkpt>
  <trkpt lat="33.388891" lon="-4.016394">
   <ele>1831.00</ele>
   <time>2014-03-31T10:54:10Z</time>
  </trkpt>
  <trkpt lat="33.388998" lon="-4.016189">
   <ele>1832.00</ele>
   <time>2014-03-31T10:54:12Z</time>
  </trkpt>
  <trkpt lat="33.389152" lon="-4.016010">
   <ele>1833.00</ele>
   <time>2014-03-31T10:54:14Z</time>
  </trkpt>
  <trkpt lat="33.389345" lon="-4.015880">
   <ele>1835.00</ele>
   <time>2014-03-31T10:54:16Z</time>
  </trkpt>
  <trkpt lat="33.389655" lon="-4.015716">
   <ele>1838.00</ele>
   <time>2014-03-31T10:54:19Z</time>
  </trkpt>
  <trkpt lat="33.389822" lon="-4.015538">
   <ele>1840.00</ele>
   <time>2014-03-31T10:54:21Z</time>
  </trkpt>
  <trkpt lat="33.389961" lon="-4.015334">
   <ele>1842.00</ele>
   <time>2014-03-31T10:54:23Z</time>
  </trkpt>
  <trkpt lat="33.390108" lon="-4.015159">
   <ele>1844.00</ele>
   <time>2014-03-31T10:54:25Z</time>
  </trkpt>
  <trkpt lat="33.390289" lon="-4.015041">
   <ele>1846.00</ele>
   <time>2014-03-31T10:54:27Z</time>
  </trkpt>
  <trkpt lat="33.390488" lon="-4.014948">
   <ele>1848.00</ele>
   <time>2014-03-31T10:54:29Z</time>
  </trkpt>
  <trkpt lat="33.390690" lon="-4.014859">
   <ele>1850.00</ele>
   <time>2014-03-31T10:54:31Z</time>
  </trkpt>
  <trkpt lat="33.390892" lon="-4.014794">
   <ele>1852.00</ele>
   <time>2014-03-31T10:54:33Z</time>
  </trkpt>
  <trkpt lat="33.391188" lon="-4.014733">
   <ele>1855.00</ele>
   <time>2014-03-31T10:54:36Z</time>
  </trkpt>
  <trkpt lat="33.391424" lon="-4.014677">
   <ele>1857.00</ele>
   <time>2014-03-31T10:54:39Z</time>
  </trkpt>
  <trkpt lat="33.391530" lon="-4.014465">
   <ele>1859.00</ele>
   <time>2014-03-31T10:54:43Z</time>
  </trkpt>
  <trkpt lat="33.391365" lon="-4.014364">
   <ele>1859.00</ele>
   <time>2014-03-31T10:54:46Z</time>
  </trkpt>
  <trkpt lat="33.391132" lon="-4.014281">
   <ele>1859.00</ele>
   <time>2014-03-31T10:54:49Z</time>
  </trkpt>
  <trkpt lat="33.390952" lon="-4.014077">
   <ele>1859.00</ele>
   <time>2014-03-31T10:54:52Z</time>
  </trkpt>
  <trkpt lat="33.390890" lon="-4.013766">
   <ele>1860.00</ele>
   <time>2014-03-31T10:54:55Z</time>
  </trkpt>
  <trkpt lat="33.390904" lon="-4.013536">
   <ele>1862.00</ele>
   <time>2014-03-31T10:54:57Z</time>
  </trkpt>
  <trkpt lat="33.390945" lon="-4.013178">
   <ele>1865.00</ele>
   <time>2014-03-31T10:55:00Z</time>
  </trkpt>
  <trkpt lat="33.390994" lon="-4.012937">
   <ele>1866.00</ele>
   <time>2014-03-31T10:55:02Z</time>
  </trkpt>
  <trkpt lat="33.391066" lon="-4.012695">
   <ele>1868.00</ele>
   <time>2014-03-31T10:55:04Z</time>
  </trkpt>
  <trkpt lat="33.391154" lon="-4.012453">
   <ele>1870.00</ele>
   <time>2014-03-31T10:55:06Z</time>
  </trkpt>
  <trkpt lat="33.391248" lon="-4.012231">
   <ele>1872.00</ele>
   <time>2014-03-31T10:55:08Z</time>
  </trkpt>
  <trkpt lat="33.391359" lon="-4.012058">
   <ele>1873.00</ele>
   <time>2014-03-31T10:55:10Z</time>
  </trkpt>
  <trkpt lat="33.391577" lon="-4.011973">
   <ele>1873.00</ele>
   <time>2014-03-31T10:55:13Z</time>
  </trkpt>
  <trkpt lat="33.391808" lon="-4.012089">
   <ele>1872.00</ele>
   <time>2014-03-31T10:55:16Z</time>
  </trkpt>
  <trkpt lat="33.392010" lon="-4.012305">
   <ele>1871.00</ele>
   <time>2014-03-31T10:55:19Z</time>
  </trkpt>
  <trkpt lat="33.392126" lon="-4.012473">
   <ele>1870.00</ele>
   <time>2014-03-31T10:55:21Z</time>
  </trkpt>
  <trkpt lat="33.392328" lon="-4.012668">
   <ele>1868.00</ele>
   <time>2014-03-31T10:55:24Z</time>
  </trkpt>
  <trkpt lat="33.392572" lon="-4.012620">
   <ele>1866.00</ele>
   <time>2014-03-31T10:55:27Z</time>
  </trkpt>
  <trkpt lat="33.392714" lon="-4.012473">
   <ele>1866.00</ele>
   <time>2014-03-31T10:55:29Z</time>
  </trkpt>
  <trkpt lat="33.392854" lon="-4.012319">
   <ele>1865.00</ele>
   <time>2014-03-31T10:55:31Z</time>
  </trkpt>
  <trkpt lat="33.393022" lon="-4.012220">
   <ele>1863.00</ele>
   <time>2014-03-31T10:55:33Z</time>
  </trkpt>
  <trkpt lat="33.393244" lon="-4.012119">
   <ele>1862.00</ele>
   <time>2014-03-31T10:55:36Z</time>
  </trkpt>
  <trkpt lat="33.393264" lon="-4.011867">
   <ele>1860.00</ele>
   <time>2014-03-31T10:55:39Z</time>
  </trkpt>
  <trkpt lat="33.393200" lon="-4.011566">
   <ele>1858.00</ele>
   <time>2014-03-31T10:55:42Z</time>
  </trkpt>
  <trkpt lat="33.393224" lon="-4.011344">
   <ele>1856.00</ele>
   <time>2014-03-31T10:55:44Z</time>
  </trkpt>
  <trkpt lat="33.393275" lon="-4.011106">
   <ele>1854.00</ele>
   <time>2014-03-31T10:55:46Z</time>
  </trkpt>
  <trkpt lat="33.393420" lon="-4.010461">
   <ele>1848.00</ele>
   <time>2014-03-31T10:55:51Z</time>
  </trkpt>
  <trkpt lat="33.393418" lon="-4.010221">
   <ele>1846.00</ele>
   <time>2014-03-31T10:55:53Z</time>
  </trkpt>
  <trkpt lat="33.393335" lon="-4.009999">
   <ele>1844.00</ele>
   <time>2014-03-31T10:55:55Z</time>
  </trkpt>
  <trkpt lat="33.393202" lon="-4.009803">
   <ele>1841.00</ele>
   <time>2014-03-31T10:55:57Z</time>
  </trkpt>
  <trkpt lat="33.392977" lon="-4.009516">
   <ele>1838.00</ele>
   <time>2014-03-31T10:56:00Z</time>
  </trkpt>
  <trkpt lat="33.392853" lon="-4.009303">
   <ele>1836.00</ele>
   <time>2014-03-31T10:56:02Z</time>
  </trkpt>
  <trkpt lat="33.392772" lon="-4.009077">
   <ele>1834.00</ele>
   <time>2014-03-31T10:56:04Z</time>
  </trkpt>
  <trkpt lat="33.392746" lon="-4.008839">
   <ele>1833.00</ele>
   <time>2014-03-31T10:56:06Z</time>
  </trkpt>
  <trkpt lat="33.392791" lon="-4.008609">
   <ele>1832.00</ele>
   <time>2014-03-31T10:56:08Z</time>
  </trkpt>
  <trkpt lat="33.392880" lon="-4.008392">
   <ele>1832.00</ele>
   <time>2014-03-31T10:56:10Z</time>
  </trkpt>
  <trkpt lat="33.392992" lon="-4.008174">
   <ele>1831.00</ele>
   <time>2014-03-31T10:56:12Z</time>
  </trkpt>
  <trkpt lat="33.393178" lon="-4.007845">
   <ele>1830.00</ele>
   <time>2014-03-31T10:56:15Z</time>
  </trkpt>
  <trkpt lat="33.393321" lon="-4.007647">
   <ele>1830.00</ele>
   <time>2014-03-31T10:56:17Z</time>
  </trkpt>
  <trkpt lat="33.393489" lon="-4.007484">
   <ele>1829.00</ele>
   <time>2014-03-31T10:56:19Z</time>
  </trkpt>
  <trkpt lat="33.393673" lon="-4.007347">
   <ele>1828.00</ele>
   <time>2014-03-31T10:56:21Z</time>
  </trkpt>
  <trkpt lat="33.393855" lon="-4.007202">
   <ele>1828.00</ele>
   <time>2014-03-31T10:56:23Z</time>
  </trkpt>
  <trkpt lat="33.394022" lon="-4.007030">
   <ele>1828.00</ele>
   <time>2014-03-31T10:56:25Z</time>
  </trkpt>
  <trkpt lat="33.394153" lon="-4.006817">
   <ele>1827.00</ele>
   <time>2014-03-31T10:56:27Z</time>
  </trkpt>
  <trkpt lat="33.394259" lon="-4.006579">
   <ele>1826.00</ele>
   <time>2014-03-31T10:56:29Z</time>
  </trkpt>
  <trkpt lat="33.394620" lon="-4.005724">
   <ele>1819.00</ele>
   <time>2014-03-31T10:56:36Z</time>
  </trkpt>
  <trkpt lat="33.394702" lon="-4.005475">
   <ele>1816.00</ele>
   <time>2014-03-31T10:56:38Z</time>
  </trkpt>
  <trkpt lat="33.394770" lon="-4.005227">
   <ele>1813.00</ele>
   <time>2014-03-31T10:56:40Z</time>
  </trkpt>
  <trkpt lat="33.395257" lon="-4.003335">
   <ele>1788.00</ele>
   <time>2014-03-31T10:56:55Z</time>
  </trkpt>
  <trkpt lat="33.395288" lon="-4.003090">
   <ele>1785.00</ele>
   <time>2014-03-31T10:56:57Z</time>
  </trkpt>
  <trkpt lat="33.395312" lon="-4.002720">
   <ele>1781.00</ele>
   <time>2014-03-31T10:57:00Z</time>
  </trkpt>
  <trkpt lat="33.395368" lon="-4.002483">
   <ele>1778.00</ele>
   <time>2014-03-31T10:57:02Z</time>
  </trkpt>
  <trkpt lat="33.395466" lon="-4.002238">
   <ele>1774.00</ele>
   <time>2014-03-31T10:57:04Z</time>
  </trkpt>
  <trkpt lat="33.395576" lon="-4.002000">
   <ele>1771.00</ele>
   <time>2014-03-31T10:57:06Z</time>
  </trkpt>
  <trkpt lat="33.395683" lon="-4.001807">
   <ele>1768.00</ele>
   <time>2014-03-31T10:57:08Z</time>
  </trkpt>
  <trkpt lat="33.395897" lon="-4.001640">
   <ele>1763.00</ele>
   <time>2014-03-31T10:57:11Z</time>
  </trkpt>
  <trkpt lat="33.396127" lon="-4.001571">
   <ele>1758.00</ele>
   <time>2014-03-31T10:57:14Z</time>
  </trkpt>
  <trkpt lat="33.396258" lon="-4.001361">
   <ele>1755.00</ele>
   <time>2014-03-31T10:57:17Z</time>
  </trkpt>
  <trkpt lat="33.396278" lon="-4.001033">
   <ele>1751.00</ele>
   <time>2014-03-31T10:57:20Z</time>
  </trkpt>
  <trkpt lat="33.396284" lon="-4.000526">
   <ele>1745.00</ele>
   <time>2014-03-31T10:57:24Z</time>
  </trkpt>
  <trkpt lat="33.396305" lon="-4.000292">
   <ele>1742.00</ele>
   <time>2014-03-31T10:57:26Z</time>
  </trkpt>
  <trkpt lat="33.396344" lon="-4.000072">
   <ele>1740.00</ele>
   <time>2014-03-31T10:57:28Z</time>
  </trkpt>
  <trkpt lat="33.396407" lon="-3.999756">
   <ele>1736.00</ele>
   <time>2014-03-31T10:57:31Z</time>
  </trkpt>
  <trkpt lat="33.396392" lon="-3.999513">
   <ele>1733.00</ele>
   <time>2014-03-31T10:57:34Z</time>
  </trkpt>
  <trkpt lat="33.396290" lon="-3.999305">
   <ele>1730.00</ele>
   <time>2014-03-31T10:57:38Z</time>
  </trkpt>
  <trkpt lat="33.396168" lon="-3.999087">
   <ele>1727.00</ele>
   <time>2014-03-31T10:57:43Z</time>
  </trkpt>
  <trkpt lat="33.396107" lon="-3.998858">
   <ele>1725.00</ele>
   <time>2014-03-31T10:57:48Z</time>
  </trkpt>
  <trkpt lat="33.396083" lon="-3.998670">
   <ele>1722.00</ele>
   <time>2014-03-31T10:58:04Z</time>
  </trkpt>
  <trkpt lat="33.396082" lon="-3.998676">
   <ele>1722.00</ele>
   <time>2014-03-31T10:58:19Z</time>
  </trkpt>
  <trkpt lat="33.396069" lon="-3.998351">
   <ele>1719.00</ele>
   <time>2014-03-31T10:58:30Z</time>
  </trkpt>
  <trkpt lat="33.396017" lon="-3.998109">
   <ele>1716.00</ele>
   <time>2014-03-31T10:58:36Z</time>
  </trkpt>
  <trkpt lat="33.395926" lon="-3.997879">
   <ele>1713.00</ele>
   <time>2014-03-31T10:58:42Z</time>
  </trkpt>
  <trkpt lat="33.395817" lon="-3.997641">
   <ele>1711.00</ele>
   <time>2014-03-31T10:58:48Z</time>
  </trkpt>
  <trkpt lat="33.395769" lon="-3.997416">
   <ele>1708.00</ele>
   <time>2014-03-31T10:58:55Z</time>
  </trkpt>
  <trkpt lat="33.395835" lon="-3.997203">
   <ele>1706.00</ele>
   <time>2014-03-31T10:59:03Z</time>
  </trkpt>
  <trkpt lat="33.395964" lon="-3.997036">
   <ele>1704.00</ele>
   <time>2014-03-31T10:59:07Z</time>
  </trkpt>
  <trkpt lat="33.396116" lon="-3.996860">
   <ele>1701.00</ele>
   <time>2014-03-31T10:59:11Z</time>
  </trkpt>
  <trkpt lat="33.396168" lon="-3.996605">
   <ele>1698.00</ele>
   <time>2014-03-31T10:59:15Z</time>
  </trkpt>
  <trkpt lat="33.396123" lon="-3.996353">
   <ele>1695.00</ele>
   <time>2014-03-31T10:59:18Z</time>
  </trkpt>
  <trkpt lat="33.396069" lon="-3.996067">
   <ele>1692.00</ele>
   <time>2014-03-31T10:59:21Z</time>
  </trkpt>
  <trkpt lat="33.396035" lon="-3.995753">
   <ele>1689.00</ele>
   <time>2014-03-31T10:59:24Z</time>
  </trkpt>
  <trkpt lat="33.396108" lon="-3.995523">
   <ele>1687.00</ele>
   <time>2014-03-31T10:59:27Z</time>
  </trkpt>
  <trkpt lat="33.396280" lon="-3.995531">
   <ele>1683.00</ele>
   <time>2014-03-31T10:59:30Z</time>
  </trkpt>
  <trkpt lat="33.396393" lon="-3.995736">
   <ele>1681.00</ele>
   <time>2014-03-31T10:59:33Z</time>
  </trkpt>
  <trkpt lat="33.396914" lon="-3.996894">
   <ele>1676.00</ele>
   <time>2014-03-31T10:59:46Z</time>
  </trkpt>
  <trkpt lat="33.397062" lon="-3.997093">
   <ele>1675.00</ele>
   <time>2014-03-31T10:59:49Z</time>
  </trkpt>
  <trkpt lat="33.397265" lon="-3.997157">
   <ele>1674.00</ele>
   <time>2014-03-31T10:59:52Z</time>
  </trkpt>
  <trkpt lat="33.397406" lon="-3.996986">
   <ele>1673.00</ele>
   <time>2014-03-31T10:59:55Z</time>
  </trkpt>
  <trkpt lat="33.397370" lon="-3.996718">
   <ele>1671.00</ele>
   <time>2014-03-31T10:59:58Z</time>
  </trkpt>
  <trkpt lat="33.397266" lon="-3.996458">
   <ele>1670.00</ele>
   <time>2014-03-31T11:00:01Z</time>
  </trkpt>
  <trkpt lat="33.397220" lon="-3.996170">
   <ele>1668.00</ele>
   <time>2014-03-31T11:00:04Z</time>
  </trkpt>
  <trkpt lat="33.397200" lon="-3.995857">
   <ele>1667.00</ele>
   <time>2014-03-31T11:00:07Z</time>
  </trkpt>
  <trkpt lat="33.397169" lon="-3.995529">
   <ele>1665.00</ele>
   <time>2014-03-31T11:00:10Z</time>
  </trkpt>
  <trkpt lat="33.397170" lon="-3.995301">
   <ele>1663.00</ele>
   <time>2014-03-31T11:00:12Z</time>
  </trkpt>
  <trkpt lat="33.397211" lon="-3.995074">
   <ele>1662.00</ele>
   <time>2014-03-31T11:00:14Z</time>
  </trkpt>
  <trkpt lat="33.397279" lon="-3.994856">
   <ele>1662.00</ele>
   <time>2014-03-31T11:00:16Z</time>
  </trkpt>
  <trkpt lat="33.397381" lon="-3.994538">
   <ele>1661.00</ele>
   <time>2014-03-31T11:00:19Z</time>
  </trkpt>
  <trkpt lat="33.397409" lon="-3.994324">
   <ele>1660.00</ele>
   <time>2014-03-31T11:00:21Z</time>
  </trkpt>
  <trkpt lat="33.397347" lon="-3.994018">
   <ele>1661.00</ele>
   <time>2014-03-31T11:00:24Z</time>
  </trkpt>
  <trkpt lat="33.397310" lon="-3.993703">
   <ele>1660.00</ele>
   <time>2014-03-31T11:00:27Z</time>
  </trkpt>
  <trkpt lat="33.397333" lon="-3.993475">
   <ele>1660.00</ele>
   <time>2014-03-31T11:00:29Z</time>
  </trkpt>
  <trkpt lat="33.397483" lon="-3.992435">
   <ele>1655.00</ele>
   <time>2014-03-31T11:00:37Z</time>
  </trkpt>
  <trkpt lat="33.397477" lon="-3.992157">
   <ele>1654.00</ele>
   <time>2014-03-31T11:00:39Z</time>
  </trkpt>
  <trkpt lat="33.397427" lon="-3.991887">
   <ele>1652.00</ele>
   <time>2014-03-31T11:00:41Z</time>
  </trkpt>
  <trkpt lat="33.397357" lon="-3.991627">
   <ele>1651.00</ele>
   <time>2014-03-31T11:00:43Z</time>
  </trkpt>
  <trkpt lat="33.396900" lon="-3.990060">
   <ele>1648.00</ele>
   <time>2014-03-31T11:00:56Z</time>
  </trkpt>
  <trkpt lat="33.396825" lon="-3.989859">
   <ele>1647.00</ele>
   <time>2014-03-31T11:00:58Z</time>
  </trkpt>
  <trkpt lat="33.396657" lon="-3.989601">
   <ele>1645.00</ele>
   <time>2014-03-31T11:01:01Z</time>
  </trkpt>
  <trkpt lat="33.396491" lon="-3.989482">
   <ele>1644.00</ele>
   <time>2014-03-31T11:01:03Z</time>
  </trkpt>
  <trkpt lat="33.396297" lon="-3.989417">
   <ele>1642.00</ele>
   <time>2014-03-31T11:01:05Z</time>
  </trkpt>
  <trkpt lat="33.395655" lon="-3.989279">
   <ele>1637.00</ele>
   <time>2014-03-31T11:01:11Z</time>
  </trkpt>
  <trkpt lat="33.394834" lon="-3.989133">
   <ele>1631.00</ele>
   <time>2014-03-31T11:01:18Z</time>
  </trkpt>
  <trkpt lat="33.393977" lon="-3.989025">
   <ele>1625.00</ele>
   <time>2014-03-31T11:01:25Z</time>
  </trkpt>
  <trkpt lat="33.393507" lon="-3.988978">
   <ele>1622.00</ele>
   <time>2014-03-31T11:01:29Z</time>
  </trkpt>
  <trkpt lat="33.393284" lon="-3.988923">
   <ele>1620.00</ele>
   <time>2014-03-31T11:01:31Z</time>
  </trkpt>
  <trkpt lat="33.393072" lon="-3.988826">
   <ele>1618.00</ele>
   <time>2014-03-31T11:01:33Z</time>
  </trkpt>
  <trkpt lat="33.392871" lon="-3.988671">
   <ele>1615.00</ele>
   <time>2014-03-31T11:01:35Z</time>
  </trkpt>
  <trkpt lat="33.392676" lon="-3.988477">
   <ele>1612.00</ele>
   <time>2014-03-31T11:01:37Z</time>
  </trkpt>
  <trkpt lat="33.391072" lon="-3.986754">
   <ele>1590.00</ele>
   <time>2014-03-31T11:01:52Z</time>
  </trkpt>
  <trkpt lat="33.390830" lon="-3.986532">
   <ele>1587.00</ele>
   <time>2014-03-31T11:01:54Z</time>
  </trkpt>
  <trkpt lat="33.390466" lon="-3.986222">
   <ele>1583.00</ele>
   <time>2014-03-31T11:01:57Z</time>
  </trkpt>
  <trkpt lat="33.390222" lon="-3.986037">
   <ele>1579.00</ele>
   <time>2014-03-31T11:01:59Z</time>
  </trkpt>
  <trkpt lat="33.389959" lon="-3.985874">
   <ele>1577.00</ele>
   <time>2014-03-31T11:02:01Z</time>
  </trkpt>
  <trkpt lat="33.389545" lon="-3.985655">
   <ele>1573.00</ele>
   <time>2014-03-31T11:02:04Z</time>
  </trkpt>
  <trkpt lat="33.388845" lon="-3.985293">
   <ele>1566.00</ele>
   <time>2014-03-31T11:02:09Z</time>
  </trkpt>
  <trkpt lat="33.388597" lon="-3.985121">
   <ele>1563.00</ele>
   <time>2014-03-31T11:02:11Z</time>
  </trkpt>
  <trkpt lat="33.388369" lon="-3.984922">
   <ele>1561.00</ele>
   <time>2014-03-31T11:02:13Z</time>
  </trkpt>
  <trkpt lat="33.388042" lon="-3.984611">
   <ele>1557.00</ele>
   <time>2014-03-31T11:02:16Z</time>
  </trkpt>
  <trkpt lat="33.387743" lon="-3.984323">
   <ele>1553.00</ele>
   <time>2014-03-31T11:02:19Z</time>
  </trkpt>
  <trkpt lat="33.387579" lon="-3.984196">
   <ele>1550.00</ele>
   <time>2014-03-31T11:02:21Z</time>
  </trkpt>
  <trkpt lat="33.387350" lon="-3.984188">
   <ele>1547.00</ele>
   <time>2014-03-31T11:02:24Z</time>
  </trkpt>
  <trkpt lat="33.387181" lon="-3.984426">
   <ele>1544.00</ele>
   <time>2014-03-31T11:02:27Z</time>
  </trkpt>
  <trkpt lat="33.387112" lon="-3.984650">
   <ele>1542.00</ele>
   <time>2014-03-31T11:02:29Z</time>
  </trkpt>
  <trkpt lat="33.386948" lon="-3.985215">
   <ele>1539.00</ele>
   <time>2014-03-31T11:02:34Z</time>
  </trkpt>
  <trkpt lat="33.386775" lon="-3.985404">
   <ele>1538.00</ele>
   <time>2014-03-31T11:02:37Z</time>
  </trkpt>
  <trkpt lat="33.386593" lon="-3.985449">
   <ele>1537.00</ele>
   <time>2014-03-31T11:02:39Z</time>
  </trkpt>
  <trkpt lat="33.386373" lon="-3.985446">
   <ele>1537.00</ele>
   <time>2014-03-31T11:02:41Z</time>
  </trkpt>
  <trkpt lat="33.385621" lon="-3.985396">
   <ele>1535.00</ele>
   <time>2014-03-31T11:02:47Z</time>
  </trkpt>
  <trkpt lat="33.385360" lon="-3.985339">
   <ele>1534.00</ele>
   <time>2014-03-31T11:02:49Z</time>
  </trkpt>
  <trkpt lat="33.385099" lon="-3.985258">
   <ele>1532.00</ele>
   <time>2014-03-31T11:02:51Z</time>
  </trkpt>
  <trkpt lat="33.384161" lon="-3.984937">
   <ele>1526.00</ele>
   <time>2014-03-31T11:02:58Z</time>
  </trkpt>
  <trkpt lat="33.383740" lon="-3.984765">
   <ele>1522.00</ele>
   <time>2014-03-31T11:03:01Z</time>
  </trkpt>
  <trkpt lat="33.383302" lon="-3.984562">
   <ele>1518.00</ele>
   <time>2014-03-31T11:03:04Z</time>
  </trkpt>
  <trkpt lat="33.382542" lon="-3.984165">
   <ele>1511.00</ele>
   <time>2014-03-31T11:03:09Z</time>
  </trkpt>
  <trkpt lat="33.380065" lon="-3.982845">
   <ele>1489.00</ele>
   <time>2014-03-31T11:03:24Z</time>
  </trkpt>
  <trkpt lat="33.378454" lon="-3.982066">
   <ele>1475.00</ele>
   <time>2014-03-31T11:03:33Z</time>
  </trkpt>
  <trkpt lat="33.376731" lon="-3.981113">
   <ele>1460.00</ele>
   <time>2014-03-31T11:03:43Z</time>
  </trkpt>
  <trkpt lat="33.375709" lon="-3.980631">
   <ele>1451.00</ele>
   <time>2014-03-31T11:03:49Z</time>
  </trkpt>
  <trkpt lat="33.374136" lon="-3.979920">
   <ele>1438.00</ele>
   <time>2014-03-31T11:03:59Z</time>
  </trkpt>
  <trkpt lat="33.373871" lon="-3.979736">
   <ele>1436.00</ele>
   <time>2014-03-31T11:04:01Z</time>
  </trkpt>
  <trkpt lat="33.373632" lon="-3.979497">
   <ele>1434.00</ele>
   <time>2014-03-31T11:04:03Z</time>
  </trkpt>
  <trkpt lat="33.373292" lon="-3.979105">
   <ele>1431.00</ele>
   <time>2014-03-31T11:04:06Z</time>
  </trkpt>
  <trkpt lat="33.371988" lon="-3.977606">
   <ele>1420.00</ele>
   <time>2014-03-31T11:04:18Z</time>
  </trkpt>
  <trkpt lat="33.371756" lon="-3.977381">
   <ele>1418.00</ele>
   <time>2014-03-31T11:04:20Z</time>
  </trkpt>
  <trkpt lat="33.371509" lon="-3.977197">
   <ele>1417.00</ele>
   <time>2014-03-31T11:04:22Z</time>
  </trkpt>
  <trkpt lat="33.370218" lon="-3.976345">
   <ele>1421.00</ele>
   <time>2014-03-31T11:04:33Z</time>
  </trkpt>
  <trkpt lat="33.370032" lon="-3.976175">
   <ele>1422.00</ele>
   <time>2014-03-31T11:04:35Z</time>
  </trkpt>
  <trkpt lat="33.369886" lon="-3.975979">
   <ele>1423.00</ele>
   <time>2014-03-31T11:04:37Z</time>
  </trkpt>
  <trkpt lat="33.369748" lon="-3.975779">
   <ele>1423.00</ele>
   <time>2014-03-31T11:04:39Z</time>
  </trkpt>
  <trkpt lat="33.369596" lon="-3.975604">
   <ele>1423.00</ele>
   <time>2014-03-31T11:04:41Z</time>
  </trkpt>
  <trkpt lat="33.369421" lon="-3.975495">
   <ele>1423.00</ele>
   <time>2014-03-31T11:04:43Z</time>
  </trkpt>
  <trkpt lat="33.369156" lon="-3.975469">
   <ele>1424.00</ele>
   <time>2014-03-31T11:04:46Z</time>
  </trkpt>
  <trkpt lat="33.368899" lon="-3.975505">
   <ele>1423.00</ele>
   <time>2014-03-31T11:04:49Z</time>
  </trkpt>
  <trkpt lat="33.368655" lon="-3.975535">
   <ele>1422.00</ele>
   <time>2014-03-31T11:04:52Z</time>
  </trkpt>
  <trkpt lat="33.368416" lon="-3.975483">
   <ele>1420.00</ele>
   <time>2014-03-31T11:04:55Z</time>
  </trkpt>
  <trkpt lat="33.368173" lon="-3.975367">
   <ele>1418.00</ele>
   <time>2014-03-31T11:04:58Z</time>
  </trkpt>
  <trkpt lat="33.368011" lon="-3.975269">
   <ele>1416.00</ele>
   <time>2014-03-31T11:05:00Z</time>
  </trkpt>
  <trkpt lat="33.367456" lon="-3.974907">
   <ele>1407.00</ele>
   <time>2014-03-31T11:05:06Z</time>
  </trkpt>
  <trkpt lat="33.367252" lon="-3.974804">
   <ele>1404.00</ele>
   <time>2014-03-31T11:05:08Z</time>
  </trkpt>
  <trkpt lat="33.367039" lon="-3.974724">
   <ele>1400.00</ele>
   <time>2014-03-31T11:05:10Z</time>
  </trkpt>
  <trkpt lat="33.366610" lon="-3.974590">
   <ele>1394.00</ele>
   <time>2014-03-31T11:05:14Z</time>
  </trkpt>
  <trkpt lat="33.366397" lon="-3.974491">
   <ele>1391.00</ele>
   <time>2014-03-31T11:05:16Z</time>
  </trkpt>
  <trkpt lat="33.366181" lon="-3.974366">
   <ele>1388.00</ele>
   <time>2014-03-31T11:05:18Z</time>
  </trkpt>
  <trkpt lat="33.365969" lon="-3.974226">
   <ele>1385.00</ele>
   <time>2014-03-31T11:05:20Z</time>
  </trkpt>
  <trkpt lat="33.365576" lon="-3.973944">
   <ele>1379.00</ele>
   <time>2014-03-31T11:05:24Z</time>
  </trkpt>
  <trkpt lat="33.365414" lon="-3.973820">
   <ele>1377.00</ele>
   <time>2014-03-31T11:05:26Z</time>
  </trkpt>
  <trkpt lat="33.365167" lon="-3.973722">
   <ele>1373.00</ele>
   <time>2014-03-31T11:05:29Z</time>
  </trkpt>
  <trkpt lat="33.364908" lon="-3.973672">
   <ele>1369.00</ele>
   <time>2014-03-31T11:05:32Z</time>
  </trkpt>
  <trkpt lat="33.364667" lon="-3.973542">
   <ele>1365.00</ele>
   <time>2014-03-31T11:05:35Z</time>
  </trkpt>
  <trkpt lat="33.364522" lon="-3.973402">
   <ele>1363.00</ele>
   <time>2014-03-31T11:05:37Z</time>
  </trkpt>
  <trkpt lat="33.364380" lon="-3.973258">
   <ele>1361.00</ele>
   <time>2014-03-31T11:05:39Z</time>
  </trkpt>
  <trkpt lat="33.364223" lon="-3.973148">
   <ele>1358.00</ele>
   <time>2014-03-31T11:05:41Z</time>
  </trkpt>
  <trkpt lat="33.364042" lon="-3.973095">
   <ele>1356.00</ele>
   <time>2014-03-31T11:05:43Z</time>
  </trkpt>
  <trkpt lat="33.363859" lon="-3.973099">
   <ele>1354.00</ele>
   <time>2014-03-31T11:05:45Z</time>
  </trkpt>
  <trkpt lat="33.363490" lon="-3.973123">
   <ele>1351.00</ele>
   <time>2014-03-31T11:05:49Z</time>
  </trkpt>
  <trkpt lat="33.363307" lon="-3.973116">
   <ele>1350.00</ele>
   <time>2014-03-31T11:05:51Z</time>
  </trkpt>
  <trkpt lat="33.363070" lon="-3.973041">
   <ele>1349.00</ele>
   <time>2014-03-31T11:05:54Z</time>
  </trkpt>
  <trkpt lat="33.362887" lon="-3.972998">
   <ele>1347.00</ele>
   <time>2014-03-31T11:06:01Z</time>
  </trkpt>
  <trkpt lat="33.362705" lon="-3.973075">
   <ele>1347.00</ele>
   <time>2014-03-31T11:06:11Z</time>
  </trkpt>
  <trkpt lat="33.362590" lon="-3.973023">
   <ele>1347.00</ele>
   <time>2014-03-31T11:06:27Z</time>
  </trkpt>
  <trkpt lat="33.362597" lon="-3.973024">
   <ele>1348.00</ele>
   <time>2014-03-31T11:06:43Z</time>
  </trkpt>
  <trkpt lat="33.362600" lon="-3.973025">
   <ele>1347.00</ele>
   <time>2014-03-31T11:06:58Z</time>
  </trkpt>
  <trkpt lat="33.362602" lon="-3.973026">
   <ele>1347.00</ele>
   <time>2014-03-31T11:07:13Z</time>
  </trkpt>
  <trkpt lat="33.362605" lon="-3.973028">
   <ele>1347.00</ele>
   <time>2014-03-31T11:07:29Z</time>
  </trkpt>
  <trkpt lat="33.362606" lon="-3.973030">
   <ele>1346.00</ele>
   <time>2014-03-31T11:07:44Z</time>
  </trkpt>
  <trkpt lat="33.362607" lon="-3.973032">
   <ele>1346.00</ele>
   <time>2014-03-31T11:07:59Z</time>
  </trkpt>
  <trkpt lat="33.362609" lon="-3.973033">
   <ele>1346.00</ele>
   <time>2014-03-31T11:08:15Z</time>
  </trkpt>
  <trkpt lat="33.362610" lon="-3.973033">
   <ele>1346.00</ele>
   <time>2014-03-31T11:08:30Z</time>
  </trkpt>
  <trkpt lat="33.362610" lon="-3.973033">
   <ele>1346.00</ele>
   <time>2014-03-31T11:08:45Z</time>
  </trkpt>
  <trkpt lat="33.362517" lon="-3.972856">
   <ele>1346.00</ele>
   <time>2014-03-31T11:09:00Z</time>
  </trkpt>
  <trkpt lat="33.362469" lon="-3.972652">
   <ele>1345.00</ele>
   <time>2014-03-31T11:09:09Z</time>
  </trkpt>
  <trkpt lat="33.362307" lon="-3.972545">
   <ele>1344.00</ele>
   <time>2014-03-31T11:09:14Z</time>
  </trkpt>
  <trkpt lat="33.362128" lon="-3.972415">
   <ele>1343.00</ele>
   <time>2014-03-31T11:09:18Z</time>
  </trkpt>
  <trkpt lat="33.361950" lon="-3.972259">
   <ele>1342.00</ele>
   <time>2014-03-31T11:09:21Z</time>
  </trkpt>
  <trkpt lat="33.361764" lon="-3.972069">
   <ele>1340.00</ele>
   <time>2014-03-31T11:09:24Z</time>
  </trkpt>
  <trkpt lat="33.360739" lon="-3.970940">
   <ele>1331.00</ele>
   <time>2014-03-31T11:09:39Z</time>
  </trkpt>
  <trkpt lat="33.360589" lon="-3.970789">
   <ele>1330.00</ele>
   <time>2014-03-31T11:09:41Z</time>
  </trkpt>
  <trkpt lat="33.360274" lon="-3.970498">
   <ele>1327.00</ele>
   <time>2014-03-31T11:09:45Z</time>
  </trkpt>
  <trkpt lat="33.359543" lon="-3.969871">
   <ele>1322.00</ele>
   <time>2014-03-31T11:09:54Z</time>
  </trkpt>
  <trkpt lat="33.359425" lon="-3.969683">
   <ele>1321.00</ele>
   <time>2014-03-31T11:09:56Z</time>
  </trkpt>
  <trkpt lat="33.359360" lon="-3.969454">
   <ele>1320.00</ele>
   <time>2014-03-31T11:09:58Z</time>
  </trkpt>
  <trkpt lat="33.359329" lon="-3.969209">
   <ele>1319.00</ele>
   <time>2014-03-31T11:10:00Z</time>
  </trkpt>
  <trkpt lat="33.359271" lon="-3.968456">
   <ele>1317.00</ele>
   <time>2014-03-31T11:10:06Z</time>
  </trkpt>
  <trkpt lat="33.359214" lon="-3.968202">
   <ele>1316.00</ele>
   <time>2014-03-31T11:10:08Z</time>
  </trkpt>
  <trkpt lat="33.359133" lon="-3.967946">
   <ele>1316.00</ele>
   <time>2014-03-31T11:10:10Z</time>
  </trkpt>
  <trkpt lat="33.359031" lon="-3.967700">
   <ele>1316.00</ele>
   <time>2014-03-31T11:10:12Z</time>
  </trkpt>
  <trkpt lat="33.358908" lon="-3.967464">
   <ele>1315.00</ele>
   <time>2014-03-31T11:10:14Z</time>
  </trkpt>
  <trkpt lat="33.358758" lon="-3.967246">
   <ele>1315.00</ele>
   <time>2014-03-31T11:10:16Z</time>
  </trkpt>
  <trkpt lat="33.358583" lon="-3.967045">
   <ele>1314.00</ele>
   <time>2014-03-31T11:10:18Z</time>
  </trkpt>
  <trkpt lat="33.358207" lon="-3.966637">
   <ele>1311.00</ele>
   <time>2014-03-31T11:10:22Z</time>
  </trkpt>
  <trkpt lat="33.358048" lon="-3.966389">
   <ele>1310.00</ele>
   <time>2014-03-31T11:10:24Z</time>
  </trkpt>
  <trkpt lat="33.357911" lon="-3.966112">
   <ele>1308.00</ele>
   <time>2014-03-31T11:10:26Z</time>
  </trkpt>
  <trkpt lat="33.357309" lon="-3.964778">
   <ele>1301.00</ele>
   <time>2014-03-31T11:10:35Z</time>
  </trkpt>
  <trkpt lat="33.357210" lon="-3.964484">
   <ele>1300.00</ele>
   <time>2014-03-31T11:10:37Z</time>
  </trkpt>
  <trkpt lat="33.357136" lon="-3.964189">
   <ele>1299.00</ele>
   <time>2014-03-31T11:10:39Z</time>
  </trkpt>
  <trkpt lat="33.357039" lon="-3.963770">
   <ele>1297.00</ele>
   <time>2014-03-31T11:10:42Z</time>
  </trkpt>
  <trkpt lat="33.356937" lon="-3.963504">
   <ele>1294.00</ele>
   <time>2014-03-31T11:10:44Z</time>
  </trkpt>
  <trkpt lat="33.356789" lon="-3.963245">
   <ele>1291.00</ele>
   <time>2014-03-31T11:10:46Z</time>
  </trkpt>
  <trkpt lat="33.356606" lon="-3.963010">
   <ele>1288.00</ele>
   <time>2014-03-31T11:10:48Z</time>
  </trkpt>
  <trkpt lat="33.356376" lon="-3.962823">
   <ele>1285.00</ele>
   <time>2014-03-31T11:10:50Z</time>
  </trkpt>
  <trkpt lat="33.356127" lon="-3.962643">
   <ele>1282.00</ele>
   <time>2014-03-31T11:10:52Z</time>
  </trkpt>
  <trkpt lat="33.355909" lon="-3.962399">
   <ele>1280.00</ele>
   <time>2014-03-31T11:10:54Z</time>
  </trkpt>
  <trkpt lat="33.355727" lon="-3.962114">
   <ele>1279.00</ele>
   <time>2014-03-31T11:10:56Z</time>
  </trkpt>
  <trkpt lat="33.355205" lon="-3.961260">
   <ele>1278.00</ele>
   <time>2014-03-31T11:11:02Z</time>
  </trkpt>
  <trkpt lat="33.355009" lon="-3.961011">
   <ele>1277.00</ele>
   <time>2014-03-31T11:11:04Z</time>
  </trkpt>
  <trkpt lat="33.354792" lon="-3.960775">
   <ele>1275.00</ele>
   <time>2014-03-31T11:11:06Z</time>
  </trkpt>
  <trkpt lat="33.353174" lon="-3.959125">
   <ele>1262.00</ele>
   <time>2014-03-31T11:11:20Z</time>
  </trkpt>
  <trkpt lat="33.352919" lon="-3.958920">
   <ele>1260.00</ele>
   <time>2014-03-31T11:11:22Z</time>
  </trkpt>
  <trkpt lat="33.352648" lon="-3.958747">
   <ele>1259.00</ele>
   <time>2014-03-31T11:11:24Z</time>
  </trkpt>
  <trkpt lat="33.352370" lon="-3.958599">
   <ele>1257.00</ele>
   <time>2014-03-31T11:11:26Z</time>
  </trkpt>
  <trkpt lat="33.350553" lon="-3.957701">
   <ele>1248.00</ele>
   <time>2014-03-31T11:11:39Z</time>
  </trkpt>
  <trkpt lat="33.350275" lon="-3.957528">
   <ele>1246.00</ele>
   <time>2014-03-31T11:11:41Z</time>
  </trkpt>
  <trkpt lat="33.350003" lon="-3.957339">
   <ele>1245.00</ele>
   <time>2014-03-31T11:11:43Z</time>
  </trkpt>
  <trkpt lat="33.349602" lon="-3.957035">
   <ele>1242.00</ele>
   <time>2014-03-31T11:11:46Z</time>
  </trkpt>
  <trkpt lat="33.349350" lon="-3.956802">
   <ele>1241.00</ele>
   <time>2014-03-31T11:11:48Z</time>
  </trkpt>
  <trkpt lat="33.349105" lon="-3.956546">
   <ele>1239.00</ele>
   <time>2014-03-31T11:11:50Z</time>
  </trkpt>
  <trkpt lat="33.348866" lon="-3.956275">
   <ele>1238.00</ele>
   <time>2014-03-31T11:11:52Z</time>
  </trkpt>
  <trkpt lat="33.348652" lon="-3.955983">
   <ele>1237.00</ele>
   <time>2014-03-31T11:11:54Z</time>
  </trkpt>
  <trkpt lat="33.348474" lon="-3.955659">
   <ele>1237.00</ele>
   <time>2014-03-31T11:11:56Z</time>
  </trkpt>
  <trkpt lat="33.348333" lon="-3.955308">
   <ele>1237.00</ele>
   <time>2014-03-31T11:11:58Z</time>
  </trkpt>
  <trkpt lat="33.348135" lon="-3.954788">
   <ele>1239.00</ele>
   <time>2014-03-31T11:12:01Z</time>
  </trkpt>
  <trkpt lat="33.347992" lon="-3.954494">
   <ele>1240.00</ele>
   <time>2014-03-31T11:12:03Z</time>
  </trkpt>
  <trkpt lat="33.347900" lon="-3.954210">
   <ele>1241.00</ele>
   <time>2014-03-31T11:12:05Z</time>
  </trkpt>
  <trkpt lat="33.347882" lon="-3.953917">
   <ele>1242.00</ele>
   <time>2014-03-31T11:12:07Z</time>
  </trkpt>
  <trkpt lat="33.347881" lon="-3.953613">
   <ele>1241.00</ele>
   <time>2014-03-31T11:12:09Z</time>
  </trkpt>
  <trkpt lat="33.347867" lon="-3.953302">
   <ele>1241.00</ele>
   <time>2014-03-31T11:12:11Z</time>
  </trkpt>
  <trkpt lat="33.347827" lon="-3.952985">
   <ele>1240.00</ele>
   <time>2014-03-31T11:12:13Z</time>
  </trkpt>
  <trkpt lat="33.347758" lon="-3.952659">
   <ele>1239.00</ele>
   <time>2014-03-31T11:12:15Z</time>
  </trkpt>
  <trkpt lat="33.347663" lon="-3.952331">
   <ele>1238.00</ele>
   <time>2014-03-31T11:12:17Z</time>
  </trkpt>
  <trkpt lat="33.347538" lon="-3.952012">
   <ele>1236.00</ele>
   <time>2014-03-31T11:12:19Z</time>
  </trkpt>
  <trkpt lat="33.347383" lon="-3.951705">
   <ele>1235.00</ele>
   <time>2014-03-31T11:12:21Z</time>
  </trkpt>
  <trkpt lat="33.347211" lon="-3.951408">
   <ele>1233.00</ele>
   <time>2014-03-31T11:12:23Z</time>
  </trkpt>
  <trkpt lat="33.346850" lon="-3.950841">
   <ele>1232.00</ele>
   <time>2014-03-31T11:12:27Z</time>
  </trkpt>
  <trkpt lat="33.346650" lon="-3.950587">
   <ele>1231.00</ele>
   <time>2014-03-31T11:12:29Z</time>
  </trkpt>
  <trkpt lat="33.346434" lon="-3.950354">
   <ele>1229.00</ele>
   <time>2014-03-31T11:12:31Z</time>
  </trkpt>
  <trkpt lat="33.346020" lon="-3.949914">
   <ele>1227.00</ele>
   <time>2014-03-31T11:12:35Z</time>
  </trkpt>
  <trkpt lat="33.345857" lon="-3.949672">
   <ele>1226.00</ele>
   <time>2014-03-31T11:12:37Z</time>
  </trkpt>
  <trkpt lat="33.345732" lon="-3.949400">
   <ele>1224.00</ele>
   <time>2014-03-31T11:12:39Z</time>
  </trkpt>
  <trkpt lat="33.345632" lon="-3.949117">
   <ele>1223.00</ele>
   <time>2014-03-31T11:12:41Z</time>
  </trkpt>
  <trkpt lat="33.345549" lon="-3.948860">
   <ele>1221.00</ele>
   <time>2014-03-31T11:12:43Z</time>
  </trkpt>
  <trkpt lat="33.345502" lon="-3.948625">
   <ele>1219.00</ele>
   <time>2014-03-31T11:12:45Z</time>
  </trkpt>
  <trkpt lat="33.345544" lon="-3.948393">
   <ele>1216.00</ele>
   <time>2014-03-31T11:12:47Z</time>
  </trkpt>
  <trkpt lat="33.345675" lon="-3.948183">
   <ele>1214.00</ele>
   <time>2014-03-31T11:12:49Z</time>
  </trkpt>
  <trkpt lat="33.345834" lon="-3.947992">
   <ele>1212.00</ele>
   <time>2014-03-31T11:12:51Z</time>
  </trkpt>
  <trkpt lat="33.345933" lon="-3.947759">
   <ele>1211.00</ele>
   <time>2014-03-31T11:12:53Z</time>
  </trkpt>
  <trkpt lat="33.345948" lon="-3.947500">
   <ele>1209.00</ele>
   <time>2014-03-31T11:12:55Z</time>
  </trkpt>
  <trkpt lat="33.345911" lon="-3.947239">
   <ele>1208.00</ele>
   <time>2014-03-31T11:12:57Z</time>
  </trkpt>
  <trkpt lat="33.345831" lon="-3.946984">
   <ele>1207.00</ele>
   <time>2014-03-31T11:12:59Z</time>
  </trkpt>
  <trkpt lat="33.345679" lon="-3.946597">
   <ele>1206.00</ele>
   <time>2014-03-31T11:13:02Z</time>
  </trkpt>
  <trkpt lat="33.345569" lon="-3.946337">
   <ele>1205.00</ele>
   <time>2014-03-31T11:13:04Z</time>
  </trkpt>
  <trkpt lat="33.345443" lon="-3.946075">
   <ele>1204.00</ele>
   <time>2014-03-31T11:13:06Z</time>
  </trkpt>
  <trkpt lat="33.344945" lon="-3.945119">
   <ele>1199.00</ele>
   <time>2014-03-31T11:13:13Z</time>
  </trkpt>
  <trkpt lat="33.344817" lon="-3.944826">
   <ele>1197.00</ele>
   <time>2014-03-31T11:13:15Z</time>
  </trkpt>
  <trkpt lat="33.344338" lon="-3.943604">
   <ele>1191.00</ele>
   <time>2014-03-31T11:13:23Z</time>
  </trkpt>
  <trkpt lat="33.344256" lon="-3.943276">
   <ele>1189.00</ele>
   <time>2014-03-31T11:13:25Z</time>
  </trkpt>
  <trkpt lat="33.344172" lon="-3.942785">
   <ele>1186.00</ele>
   <time>2014-03-31T11:13:28Z</time>
  </trkpt>
  <trkpt lat="33.344073" lon="-3.942485">
   <ele>1184.00</ele>
   <time>2014-03-31T11:13:30Z</time>
  </trkpt>
  <trkpt lat="33.343926" lon="-3.942206">
   <ele>1182.00</ele>
   <time>2014-03-31T11:13:32Z</time>
  </trkpt>
  <trkpt lat="33.343663" lon="-3.941800">
   <ele>1179.00</ele>
   <time>2014-03-31T11:13:35Z</time>
  </trkpt>
  <trkpt lat="33.343205" lon="-3.941107">
   <ele>1175.00</ele>
   <time>2014-03-31T11:13:40Z</time>
  </trkpt>
  <trkpt lat="33.343066" lon="-3.940803">
   <ele>1174.00</ele>
   <time>2014-03-31T11:13:42Z</time>
  </trkpt>
  <trkpt lat="33.342954" lon="-3.940491">
   <ele>1173.00</ele>
   <time>2014-03-31T11:13:44Z</time>
  </trkpt>
  <trkpt lat="33.342685" lon="-3.939733">
   <ele>1171.00</ele>
   <time>2014-03-31T11:13:49Z</time>
  </trkpt>
  <trkpt lat="33.342559" lon="-3.939436">
   <ele>1170.00</ele>
   <time>2014-03-31T11:13:51Z</time>
  </trkpt>
  <trkpt lat="33.342411" lon="-3.939146">
   <ele>1170.00</ele>
   <time>2014-03-31T11:13:53Z</time>
  </trkpt>
  <trkpt lat="33.342091" lon="-3.938579">
   <ele>1167.00</ele>
   <time>2014-03-31T11:13:57Z</time>
  </trkpt>
  <trkpt lat="33.341289" lon="-3.937173">
   <ele>1161.00</ele>
   <time>2014-03-31T11:14:08Z</time>
  </trkpt>
  <trkpt lat="33.341071" lon="-3.936769">
   <ele>1159.00</ele>
   <time>2014-03-31T11:14:13Z</time>
  </trkpt>
  <trkpt lat="33.341009" lon="-3.936670">
   <ele>1158.00</ele>
   <time>2014-03-31T11:14:29Z</time>
  </trkpt>
  <trkpt lat="33.341018" lon="-3.936685">
   <ele>1158.00</ele>
   <time>2014-03-31T11:14:44Z</time>
  </trkpt>
  <trkpt lat="33.340989" lon="-3.936635">
   <ele>1158.00</ele>
   <time>2014-03-31T11:14:59Z</time>
  </trkpt>
  <trkpt lat="33.340597" lon="-3.935956">
   <ele>1154.00</ele>
   <time>2014-03-31T11:15:11Z</time>
  </trkpt>
  <trkpt lat="33.340342" lon="-3.935467">
   <ele>1152.00</ele>
   <time>2014-03-31T11:15:16Z</time>
  </trkpt>
  <trkpt lat="33.340253" lon="-3.935229">
   <ele>1150.00</ele>
   <time>2014-03-31T11:15:18Z</time>
  </trkpt>
  <trkpt lat="33.340189" lon="-3.934961">
   <ele>1149.00</ele>
   <time>2014-03-31T11:15:20Z</time>
  </trkpt>
  <trkpt lat="33.340146" lon="-3.934671">
   <ele>1148.00</ele>
   <time>2014-03-31T11:15:22Z</time>
  </trkpt>
  <trkpt lat="33.340117" lon="-3.934374">
   <ele>1148.00</ele>
   <time>2014-03-31T11:15:24Z</time>
  </trkpt>
  <trkpt lat="33.339887" lon="-3.931759">
   <ele>1140.00</ele>
   <time>2014-03-31T11:15:39Z</time>
  </trkpt>
  <trkpt lat="33.339765" lon="-3.930440">
   <ele>1136.00</ele>
   <time>2014-03-31T11:15:46Z</time>
  </trkpt>
  <trkpt lat="33.339686" lon="-3.929872">
   <ele>1134.00</ele>
   <time>2014-03-31T11:15:49Z</time>
  </trkpt>
  <trkpt lat="33.339130" lon="-3.926798">
   <ele>1127.00</ele>
   <time>2014-03-31T11:16:05Z</time>
  </trkpt>
  <trkpt lat="33.338621" lon="-3.924048">
   <ele>1121.00</ele>
   <time>2014-03-31T11:16:20Z</time>
  </trkpt>
  <trkpt lat="33.338511" lon="-3.923339">
   <ele>1118.00</ele>
   <time>2014-03-31T11:16:24Z</time>
  </trkpt>
  <trkpt lat="33.338332" lon="-3.921810">
   <ele>1113.00</ele>
   <time>2014-03-31T11:16:33Z</time>
  </trkpt>
  <trkpt lat="33.338260" lon="-3.921005">
   <ele>1110.00</ele>
   <time>2014-03-31T11:16:38Z</time>
  </trkpt>
  <trkpt lat="33.338279" lon="-3.920692">
   <ele>1109.00</ele>
   <time>2014-03-31T11:16:40Z</time>
  </trkpt>
  <trkpt lat="33.338347" lon="-3.920388">
   <ele>1107.00</ele>
   <time>2014-03-31T11:16:42Z</time>
  </trkpt>
  <trkpt lat="33.338412" lon="-3.920078">
   <ele>1105.00</ele>
   <time>2014-03-31T11:16:44Z</time>
  </trkpt>
  <trkpt lat="33.338422" lon="-3.919759">
   <ele>1104.00</ele>
   <time>2014-03-31T11:16:46Z</time>
  </trkpt>
  <trkpt lat="33.338369" lon="-3.919455">
   <ele>1104.00</ele>
   <time>2014-03-31T11:16:48Z</time>
  </trkpt>
  <trkpt lat="33.338268" lon="-3.919174">
   <ele>1104.00</ele>
   <time>2014-03-31T11:16:50Z</time>
  </trkpt>
  <trkpt lat="33.338140" lon="-3.918898">
   <ele>1104.00</ele>
   <time>2014-03-31T11:16:52Z</time>
  </trkpt>
  <trkpt lat="33.337927" lon="-3.918478">
   <ele>1102.00</ele>
   <time>2014-03-31T11:16:55Z</time>
  </trkpt>
  <trkpt lat="33.337808" lon="-3.918174">
   <ele>1100.00</ele>
   <time>2014-03-31T11:16:57Z</time>
  </trkpt>
  <trkpt lat="33.337704" lon="-3.917852">
   <ele>1098.00</ele>
   <time>2014-03-31T11:16:59Z</time>
  </trkpt>
  <trkpt lat="33.337243" lon="-3.916355">
   <ele>1092.00</ele>
   <time>2014-03-31T11:17:08Z</time>
  </trkpt>
  <trkpt lat="33.337087" lon="-3.916078">
   <ele>1093.00</ele>
   <time>2014-03-31T11:17:10Z</time>
  </trkpt>
  <trkpt lat="33.336911" lon="-3.915834">
   <ele>1093.00</ele>
   <time>2014-03-31T11:17:12Z</time>
  </trkpt>
  <trkpt lat="33.336781" lon="-3.915565">
   <ele>1093.00</ele>
   <time>2014-03-31T11:17:14Z</time>
  </trkpt>
  <trkpt lat="33.336706" lon="-3.915263">
   <ele>1093.00</ele>
   <time>2014-03-31T11:17:16Z</time>
  </trkpt>
  <trkpt lat="33.336656" lon="-3.914945">
   <ele>1093.00</ele>
   <time>2014-03-31T11:17:18Z</time>
  </trkpt>
  <trkpt lat="33.336584" lon="-3.914460">
   <ele>1092.00</ele>
   <time>2014-03-31T11:17:21Z</time>
  </trkpt>
  <trkpt lat="33.336510" lon="-3.914145">
   <ele>1092.00</ele>
   <time>2014-03-31T11:17:23Z</time>
  </trkpt>
  <trkpt lat="33.336401" lon="-3.913841">
   <ele>1091.00</ele>
   <time>2014-03-31T11:17:25Z</time>
  </trkpt>
  <trkpt lat="33.335855" lon="-3.912470">
   <ele>1090.00</ele>
   <time>2014-03-31T11:17:34Z</time>
  </trkpt>
  <trkpt lat="33.335758" lon="-3.912158">
   <ele>1090.00</ele>
   <time>2014-03-31T11:17:36Z</time>
  </trkpt>
  <trkpt lat="33.335677" lon="-3.911837">
   <ele>1091.00</ele>
   <time>2014-03-31T11:17:38Z</time>
  </trkpt>
  <trkpt lat="33.335608" lon="-3.911508">
   <ele>1091.00</ele>
   <time>2014-03-31T11:17:40Z</time>
  </trkpt>
  <trkpt lat="33.335526" lon="-3.910999">
   <ele>1091.00</ele>
   <time>2014-03-31T11:17:43Z</time>
  </trkpt>
  <trkpt lat="33.335410" lon="-3.910302">
   <ele>1090.00</ele>
   <time>2014-03-31T11:17:47Z</time>
  </trkpt>
  <trkpt lat="33.335331" lon="-3.909962">
   <ele>1089.00</ele>
   <time>2014-03-31T11:17:49Z</time>
  </trkpt>
  <trkpt lat="33.335226" lon="-3.909636">
   <ele>1088.00</ele>
   <time>2014-03-31T11:17:51Z</time>
  </trkpt>
  <trkpt lat="33.335098" lon="-3.909332">
   <ele>1087.00</ele>
   <time>2014-03-31T11:17:53Z</time>
  </trkpt>
  <trkpt lat="33.334967" lon="-3.909040">
   <ele>1087.00</ele>
   <time>2014-03-31T11:17:55Z</time>
  </trkpt>
  <trkpt lat="33.334866" lon="-3.908743">
   <ele>1086.00</ele>
   <time>2014-03-31T11:17:57Z</time>
  </trkpt>
  <trkpt lat="33.334811" lon="-3.908440">
   <ele>1085.00</ele>
   <time>2014-03-31T11:17:59Z</time>
  </trkpt>
  <trkpt lat="33.334815" lon="-3.908137">
   <ele>1085.00</ele>
   <time>2014-03-31T11:18:01Z</time>
  </trkpt>
  <trkpt lat="33.334852" lon="-3.907834">
   <ele>1084.00</ele>
   <time>2014-03-31T11:18:03Z</time>
  </trkpt>
  <trkpt lat="33.334889" lon="-3.907524">
   <ele>1083.00</ele>
   <time>2014-03-31T11:18:05Z</time>
  </trkpt>
  <trkpt lat="33.334897" lon="-3.907205">
   <ele>1082.00</ele>
   <time>2014-03-31T11:18:07Z</time>
  </trkpt>
  <trkpt lat="33.334882" lon="-3.906873">
   <ele>1080.00</ele>
   <time>2014-03-31T11:18:09Z</time>
  </trkpt>
  <trkpt lat="33.334774" lon="-3.905618">
   <ele>1074.00</ele>
   <time>2014-03-31T11:18:16Z</time>
  </trkpt>
  <trkpt lat="33.334597" lon="-3.903476">
   <ele>1067.00</ele>
   <time>2014-03-31T11:18:27Z</time>
  </trkpt>
  <trkpt lat="33.334582" lon="-3.903092">
   <ele>1066.00</ele>
   <time>2014-03-31T11:18:29Z</time>
  </trkpt>
  <trkpt lat="33.334572" lon="-3.902709">
   <ele>1064.00</ele>
   <time>2014-03-31T11:18:31Z</time>
  </trkpt>
  <trkpt lat="33.334521" lon="-3.902334">
   <ele>1062.00</ele>
   <time>2014-03-31T11:18:33Z</time>
  </trkpt>
  <trkpt lat="33.334423" lon="-3.901971">
   <ele>1061.00</ele>
   <time>2014-03-31T11:18:35Z</time>
  </trkpt>
  <trkpt lat="33.334300" lon="-3.901618">
   <ele>1060.00</ele>
   <time>2014-03-31T11:18:37Z</time>
  </trkpt>
  <trkpt lat="33.333908" lon="-3.900551">
   <ele>1058.00</ele>
   <time>2014-03-31T11:18:43Z</time>
  </trkpt>
  <trkpt lat="33.333807" lon="-3.900185">
   <ele>1058.00</ele>
   <time>2014-03-31T11:18:45Z</time>
  </trkpt>
  <trkpt lat="33.333774" lon="-3.899819">
   <ele>1057.00</ele>
   <time>2014-03-31T11:18:47Z</time>
  </trkpt>
  <trkpt lat="33.333818" lon="-3.899467">
   <ele>1056.00</ele>
   <time>2014-03-31T11:18:49Z</time>
  </trkpt>
  <trkpt lat="33.333856" lon="-3.899132">
   <ele>1054.00</ele>
   <time>2014-03-31T11:18:51Z</time>
  </trkpt>
  <trkpt lat="33.333827" lon="-3.898783">
   <ele>1051.00</ele>
   <time>2014-03-31T11:18:53Z</time>
  </trkpt>
  <trkpt lat="33.333759" lon="-3.898213">
   <ele>1045.00</ele>
   <time>2014-03-31T11:18:56Z</time>
  </trkpt>
  <trkpt lat="33.333731" lon="-3.897805">
   <ele>1042.00</ele>
   <time>2014-03-31T11:18:58Z</time>
  </trkpt>
  <trkpt lat="33.333634" lon="-3.895832">
   <ele>1029.00</ele>
   <time>2014-03-31T11:19:09Z</time>
  </trkpt>
  <trkpt lat="33.333670" lon="-3.895604">
   <ele>1028.00</ele>
   <time>2014-03-31T11:19:11Z</time>
  </trkpt>
  <trkpt lat="33.333793" lon="-3.895434">
   <ele>1028.00</ele>
   <time>2014-03-31T11:19:13Z</time>
  </trkpt>
  <trkpt lat="33.334009" lon="-3.895213">
   <ele>1027.00</ele>
   <time>2014-03-31T11:19:16Z</time>
  </trkpt>
  <trkpt lat="33.334076" lon="-3.895015">
   <ele>1027.00</ele>
   <time>2014-03-31T11:19:18Z</time>
  </trkpt>
  <trkpt lat="33.334044" lon="-3.894790">
   <ele>1027.00</ele>
   <time>2014-03-31T11:19:20Z</time>
  </trkpt>
  <trkpt lat="33.333972" lon="-3.894554">
   <ele>1028.00</ele>
   <time>2014-03-31T11:19:22Z</time>
  </trkpt>
  <trkpt lat="33.333481" lon="-3.892996">
   <ele>1028.00</ele>
   <time>2014-03-31T11:19:33Z</time>
  </trkpt>
  <trkpt lat="33.333363" lon="-3.892537">
   <ele>1028.00</ele>
   <time>2014-03-31T11:19:36Z</time>
  </trkpt>
  <trkpt lat="33.333297" lon="-3.892215">
   <ele>1027.00</ele>
   <time>2014-03-31T11:19:38Z</time>
  </trkpt>
  <trkpt lat="33.333254" lon="-3.891878">
   <ele>1027.00</ele>
   <time>2014-03-31T11:19:40Z</time>
  </trkpt>
  <trkpt lat="33.333240" lon="-3.891524">
   <ele>1026.00</ele>
   <time>2014-03-31T11:19:42Z</time>
  </trkpt>
  <trkpt lat="33.333258" lon="-3.891158">
   <ele>1025.00</ele>
   <time>2014-03-31T11:19:44Z</time>
  </trkpt>
  <trkpt lat="33.333297" lon="-3.890791">
   <ele>1024.00</ele>
   <time>2014-03-31T11:19:46Z</time>
  </trkpt>
  <trkpt lat="33.333727" lon="-3.887909">
   <ele>1021.00</ele>
   <time>2014-03-31T11:20:01Z</time>
  </trkpt>
  <trkpt lat="33.334222" lon="-3.884451">
   <ele>1016.00</ele>
   <time>2014-03-31T11:20:17Z</time>
  </trkpt>
  <trkpt lat="33.334692" lon="-3.881176">
   <ele>1010.00</ele>
   <time>2014-03-31T11:20:32Z</time>
  </trkpt>
  <trkpt lat="33.335105" lon="-3.878169">
   <ele>1010.00</ele>
   <time>2014-03-31T11:20:47Z</time>
  </trkpt>
  <trkpt lat="33.335391" lon="-3.876224">
   <ele>1010.00</ele>
   <time>2014-03-31T11:20:57Z</time>
  </trkpt>
  <trkpt lat="33.335463" lon="-3.875836">
   <ele>1009.00</ele>
   <time>2014-03-31T11:20:59Z</time>
  </trkpt>
  <trkpt lat="33.336068" lon="-3.872742">
   <ele>1004.00</ele>
   <time>2014-03-31T11:21:14Z</time>
  </trkpt>
  <trkpt lat="33.336766" lon="-3.869139">
   <ele>997.00</ele>
   <time>2014-03-31T11:21:30Z</time>
  </trkpt>
  <trkpt lat="33.337466" lon="-3.865582">
   <ele>991.00</ele>
   <time>2014-03-31T11:21:45Z</time>
  </trkpt>
  <trkpt lat="33.338163" lon="-3.862106">
   <ele>989.00</ele>
   <time>2014-03-31T11:22:00Z</time>
  </trkpt>
  <trkpt lat="33.338897" lon="-3.858370">
   <ele>988.00</ele>
   <time>2014-03-31T11:22:16Z</time>
  </trkpt>
  <trkpt lat="33.339589" lon="-3.854917">
   <ele>987.00</ele>
   <time>2014-03-31T11:22:31Z</time>
  </trkpt>
  <trkpt lat="33.340296" lon="-3.851347">
   <ele>985.00</ele>
   <time>2014-03-31T11:22:46Z</time>
  </trkpt>
  <trkpt lat="33.341039" lon="-3.847583">
   <ele>984.00</ele>
   <time>2014-03-31T11:23:02Z</time>
  </trkpt>
  <trkpt lat="33.341730" lon="-3.844042">
   <ele>984.00</ele>
   <time>2014-03-31T11:23:17Z</time>
  </trkpt>
  <trkpt lat="33.342111" lon="-3.841921">
   <ele>984.00</ele>
   <time>2014-03-31T11:23:26Z</time>
  </trkpt>
  <trkpt lat="33.342422" lon="-3.839761">
   <ele>982.00</ele>
   <time>2014-03-31T11:23:35Z</time>
  </trkpt>
  <trkpt lat="33.342882" lon="-3.836053">
   <ele>977.00</ele>
   <time>2014-03-31T11:23:50Z</time>
  </trkpt>
  <trkpt lat="33.343336" lon="-3.832304">
   <ele>972.00</ele>
   <time>2014-03-31T11:24:05Z</time>
  </trkpt>
  <trkpt lat="33.343641" lon="-3.830053">
   <ele>968.00</ele>
   <time>2014-03-31T11:24:14Z</time>
  </trkpt>
  <trkpt lat="33.344263" lon="-3.826279">
   <ele>962.00</ele>
   <time>2014-03-31T11:24:29Z</time>
  </trkpt>
  <trkpt lat="33.344905" lon="-3.822458">
   <ele>956.00</ele>
   <time>2014-03-31T11:24:44Z</time>
  </trkpt>
  <trkpt lat="33.345581" lon="-3.818346">
   <ele>951.00</ele>
   <time>2014-03-31T11:25:00Z</time>
  </trkpt>
  <trkpt lat="33.346233" lon="-3.814451">
   <ele>945.00</ele>
   <time>2014-03-31T11:25:15Z</time>
  </trkpt>
  <trkpt lat="33.346869" lon="-3.810552">
   <ele>942.00</ele>
   <time>2014-03-31T11:25:30Z</time>
  </trkpt>
  <trkpt lat="33.347501" lon="-3.806635">
   <ele>938.00</ele>
   <time>2014-03-31T11:25:45Z</time>
  </trkpt>
  <trkpt lat="33.347627" lon="-3.805578">
   <ele>936.00</ele>
   <time>2014-03-31T11:25:49Z</time>
  </trkpt>
  <trkpt lat="33.348045" lon="-3.801632">
   <ele>927.00</ele>
   <time>2014-03-31T11:26:04Z</time>
  </trkpt>
  <trkpt lat="33.348460" lon="-3.797557">
   <ele>921.00</ele>
   <time>2014-03-31T11:26:20Z</time>
  </trkpt>
  <trkpt lat="33.348847" lon="-3.793728">
   <ele>916.00</ele>
   <time>2014-03-31T11:26:35Z</time>
  </trkpt>
  <trkpt lat="33.349240" lon="-3.789799">
   <ele>911.00</ele>
   <time>2014-03-31T11:26:50Z</time>
  </trkpt>
  <trkpt lat="33.349566" lon="-3.786412">
   <ele>906.00</ele>
   <time>2014-03-31T11:27:03Z</time>
  </trkpt>
  <trkpt lat="33.349596" lon="-3.785628">
   <ele>905.00</ele>
   <time>2014-03-31T11:27:06Z</time>
  </trkpt>
  <trkpt lat="33.349693" lon="-3.781691">
   <ele>897.00</ele>
   <time>2014-03-31T11:27:21Z</time>
  </trkpt>
  <trkpt lat="33.349783" lon="-3.777835">
   <ele>890.00</ele>
   <time>2014-03-31T11:27:36Z</time>
  </trkpt>
  <trkpt lat="33.349885" lon="-3.773608">
   <ele>885.00</ele>
   <time>2014-03-31T11:27:52Z</time>
  </trkpt>
  <trkpt lat="33.349972" lon="-3.769559">
   <ele>881.00</ele>
   <time>2014-03-31T11:28:07Z</time>
  </trkpt>
  <trkpt lat="33.350081" lon="-3.765296">
   <ele>875.00</ele>
   <time>2014-03-31T11:28:23Z</time>
  </trkpt>
  <trkpt lat="33.350102" lon="-3.764079">
   <ele>873.00</ele>
   <time>2014-03-31T11:28:28Z</time>
  </trkpt>
  <trkpt lat="33.350086" lon="-3.763843">
   <ele>873.00</ele>
   <time>2014-03-31T11:28:29Z</time>
  </trkpt>
  <trkpt lat="33.350059" lon="-3.763610">
   <ele>872.00</ele>
   <time>2014-03-31T11:28:30Z</time>
  </trkpt>
  <trkpt lat="33.350024" lon="-3.763378">
   <ele>872.00</ele>
   <time>2014-03-31T11:28:31Z</time>
  </trkpt>
  <trkpt lat="33.349936" lon="-3.762921">
   <ele>871.00</ele>
   <time>2014-03-31T11:28:33Z</time>
  </trkpt>
  <trkpt lat="33.349825" lon="-3.762479">
   <ele>870.00</ele>
   <time>2014-03-31T11:28:35Z</time>
  </trkpt>
  <trkpt lat="33.349755" lon="-3.762265">
   <ele>869.00</ele>
   <time>2014-03-31T11:28:36Z</time>
  </trkpt>
  <trkpt lat="33.349670" lon="-3.762057">
   <ele>869.00</ele>
   <time>2014-03-31T11:28:37Z</time>
  </trkpt>
  <trkpt lat="33.349573" lon="-3.761854">
   <ele>869.00</ele>
   <time>2014-03-31T11:28:38Z</time>
  </trkpt>
  <trkpt lat="33.349468" lon="-3.761654">
   <ele>868.00</ele>
   <time>2014-03-31T11:28:39Z</time>
  </trkpt>
  <trkpt lat="33.349237" lon="-3.761263">
   <ele>867.00</ele>
   <time>2014-03-31T11:28:41Z</time>
  </trkpt>
  <trkpt lat="33.347348" lon="-3.758215">
   <ele>862.00</ele>
   <time>2014-03-31T11:28:56Z</time>
  </trkpt>
  <trkpt lat="33.345284" lon="-3.754829">
   <ele>858.00</ele>
   <time>2014-03-31T11:29:12Z</time>
  </trkpt>
  <trkpt lat="33.343464" lon="-3.751849">
   <ele>855.00</ele>
   <time>2014-03-31T11:29:27Z</time>
  </trkpt>
  <trkpt lat="33.341549" lon="-3.748713">
   <ele>852.00</ele>
   <time>2014-03-31T11:29:43Z</time>
  </trkpt>
  <trkpt lat="33.340806" lon="-3.747497">
   <ele>849.00</ele>
   <time>2014-03-31T11:29:53Z</time>
  </trkpt>
  <trkpt lat="33.340648" lon="-3.747314">
   <ele>849.00</ele>
   <time>2014-03-31T11:29:56Z</time>
  </trkpt>
  <trkpt lat="33.339258" lon="-3.745944">
   <ele>842.00</ele>
   <time>2014-03-31T11:30:11Z</time>
  </trkpt>
  <trkpt lat="33.337475" lon="-3.744185">
   <ele>837.00</ele>
   <time>2014-03-31T11:30:26Z</time>
  </trkpt>
  <trkpt lat="33.337154" lon="-3.743846">
   <ele>836.00</ele>
   <time>2014-03-31T11:30:29Z</time>
  </trkpt>
  <trkpt lat="33.336249" lon="-3.742801">
   <ele>834.00</ele>
   <time>2014-03-31T11:30:40Z</time>
  </trkpt>
  <trkpt lat="33.335781" lon="-3.742268">
   <ele>833.00</ele>
   <time>2014-03-31T11:30:47Z</time>
  </trkpt>
  <trkpt lat="33.335439" lon="-3.741912">
   <ele>832.00</ele>
   <time>2014-03-31T11:30:51Z</time>
  </trkpt>
  <trkpt lat="33.335249" lon="-3.741754">
   <ele>832.00</ele>
   <time>2014-03-31T11:30:53Z</time>
  </trkpt>
  <trkpt lat="33.335041" lon="-3.741623">
   <ele>832.00</ele>
   <time>2014-03-31T11:30:55Z</time>
  </trkpt>
  <trkpt lat="33.334726" lon="-3.741434">
   <ele>831.00</ele>
   <time>2014-03-31T11:30:58Z</time>
  </trkpt>
  <trkpt lat="33.334531" lon="-3.741279">
   <ele>831.00</ele>
   <time>2014-03-31T11:31:00Z</time>
  </trkpt>
  <trkpt lat="33.334356" lon="-3.741087">
   <ele>830.00</ele>
   <time>2014-03-31T11:31:02Z</time>
  </trkpt>
  <trkpt lat="33.334213" lon="-3.740855">
   <ele>830.00</ele>
   <time>2014-03-31T11:31:04Z</time>
  </trkpt>
  <trkpt lat="33.334107" lon="-3.740593">
   <ele>830.00</ele>
   <time>2014-03-31T11:31:06Z</time>
  </trkpt>
  <trkpt lat="33.334041" lon="-3.740308">
   <ele>830.00</ele>
   <time>2014-03-31T11:31:08Z</time>
  </trkpt>
  <trkpt lat="33.333907" lon="-3.739574">
   <ele>828.00</ele>
   <time>2014-03-31T11:31:13Z</time>
  </trkpt>
  <trkpt lat="33.333424" lon="-3.737158">
   <ele>824.00</ele>
   <time>2014-03-31T11:31:29Z</time>
  </trkpt>
  <trkpt lat="33.333127" lon="-3.735928">
   <ele>823.00</ele>
   <time>2014-03-31T11:31:38Z</time>
  </trkpt>
  <trkpt lat="33.332900" lon="-3.734992">
   <ele>822.00</ele>
   <time>2014-03-31T11:31:46Z</time>
  </trkpt>
  <trkpt lat="33.332822" lon="-3.734656">
   <ele>821.00</ele>
   <time>2014-03-31T11:31:49Z</time>
  </trkpt>
  <trkpt lat="33.332578" lon="-3.733668">
   <ele>819.00</ele>
   <time>2014-03-31T11:31:58Z</time>
  </trkpt>
  <trkpt lat="33.332343" lon="-3.732610">
   <ele>818.00</ele>
   <time>2014-03-31T11:32:08Z</time>
  </trkpt>
  <trkpt lat="33.332282" lon="-3.732396">
   <ele>817.00</ele>
   <time>2014-03-31T11:32:11Z</time>
  </trkpt>
  <trkpt lat="33.332192" lon="-3.732181">
   <ele>817.00</ele>
   <time>2014-03-31T11:32:16Z</time>
  </trkpt>
  <trkpt lat="33.332137" lon="-3.731911">
   <ele>817.00</ele>
   <time>2014-03-31T11:32:20Z</time>
  </trkpt>
  <trkpt lat="33.332084" lon="-3.731050">
   <ele>815.00</ele>
   <time>2014-03-31T11:32:30Z</time>
  </trkpt>
  <trkpt lat="33.332062" lon="-3.730456">
   <ele>814.00</ele>
   <time>2014-03-31T11:32:37Z</time>
  </trkpt>
  <trkpt lat="33.332049" lon="-3.730172">
   <ele>814.00</ele>
   <time>2014-03-31T11:32:40Z</time>
  </trkpt>
  <trkpt lat="33.331909" lon="-3.728666">
   <ele>812.00</ele>
   <time>2014-03-31T11:32:55Z</time>
  </trkpt>
  <trkpt lat="33.331774" lon="-3.727577">
   <ele>811.00</ele>
   <time>2014-03-31T11:33:05Z</time>
  </trkpt>
  <trkpt lat="33.331654" lon="-3.726822">
   <ele>810.00</ele>
   <time>2014-03-31T11:33:12Z</time>
  </trkpt>
  <trkpt lat="33.331561" lon="-3.726277">
   <ele>809.00</ele>
   <time>2014-03-31T11:33:17Z</time>
  </trkpt>
  <trkpt lat="33.331334" lon="-3.724742">
   <ele>808.00</ele>
   <time>2014-03-31T11:33:32Z</time>
  </trkpt>
  <trkpt lat="33.331034" lon="-3.722828">
   <ele>805.00</ele>
   <time>2014-03-31T11:33:48Z</time>
  </trkpt>
  <trkpt lat="33.330842" lon="-3.721700">
   <ele>803.00</ele>
   <time>2014-03-31T11:33:57Z</time>
  </trkpt>
  <trkpt lat="33.330793" lon="-3.721495">
   <ele>802.00</ele>
   <time>2014-03-31T11:34:04Z</time>
  </trkpt>
  <trkpt lat="33.330838" lon="-3.721731">
   <ele>803.00</ele>
   <time>2014-03-31T11:34:10Z</time>
  </trkpt>
  <trkpt lat="33.330934" lon="-3.722317">
   <ele>804.00</ele>
   <time>2014-03-31T11:34:20Z</time>
  </trkpt>
  <trkpt lat="33.330986" lon="-3.722682">
   <ele>805.00</ele>
   <time>2014-03-31T11:34:28Z</time>
  </trkpt>
  <trkpt lat="33.330989" lon="-3.722684">
   <ele>806.00</ele>
   <time>2014-03-31T11:34:43Z</time>
  </trkpt>
  <trkpt lat="33.330985" lon="-3.722684">
   <ele>807.00</ele>
   <time>2014-03-31T11:34:58Z</time>
  </trkpt>
  <trkpt lat="33.330980" lon="-3.722687">
   <ele>808.00</ele>
   <time>2014-03-31T11:35:13Z</time>
  </trkpt>
  <trkpt lat="33.330975" lon="-3.722690">
   <ele>810.00</ele>
   <time>2014-03-31T11:35:29Z</time>
  </trkpt>
  <trkpt lat="33.330972" lon="-3.722692">
   <ele>811.00</ele>
   <time>2014-03-31T11:35:44Z</time>
  </trkpt>
  <trkpt lat="33.330977" lon="-3.722690">
   <ele>810.00</ele>
   <time>2014-03-31T11:36:00Z</time>
  </trkpt>
  <trkpt lat="33.330983" lon="-3.722687">
   <ele>808.00</ele>
   <time>2014-03-31T11:36:15Z</time>
  </trkpt>
  <trkpt lat="33.330981" lon="-3.722687">
   <ele>808.00</ele>
   <time>2014-03-31T11:36:30Z</time>
  </trkpt>
  <trkpt lat="33.330982" lon="-3.722687">
   <ele>807.00</ele>
   <time>2014-03-31T11:36:46Z</time>
  </trkpt>
  <trkpt lat="33.330960" lon="-3.722441">
   <ele>807.00</ele>
   <time>2014-03-31T11:36:56Z</time>
  </trkpt>
  <trkpt lat="33.330930" lon="-3.722215">
   <ele>806.00</ele>
   <time>2014-03-31T11:36:59Z</time>
  </trkpt>
  <trkpt lat="33.330699" lon="-3.720650">
   <ele>805.00</ele>
   <time>2014-03-31T11:37:13Z</time>
  </trkpt>
  <trkpt lat="33.330656" lon="-3.720241">
   <ele>804.00</ele>
   <time>2014-03-31T11:37:16Z</time>
  </trkpt>
  <trkpt lat="33.330627" lon="-3.719806">
   <ele>804.00</ele>
   <time>2014-03-31T11:37:19Z</time>
  </trkpt>
  <trkpt lat="33.330625" lon="-3.719501">
   <ele>804.00</ele>
   <time>2014-03-31T11:37:21Z</time>
  </trkpt>
  <trkpt lat="33.330639" lon="-3.719190">
   <ele>803.00</ele>
   <time>2014-03-31T11:37:23Z</time>
  </trkpt>
  <trkpt lat="33.330806" lon="-3.716965">
   <ele>802.00</ele>
   <time>2014-03-31T11:37:37Z</time>
  </trkpt>
  <trkpt lat="33.330806" lon="-3.716634">
   <ele>802.00</ele>
   <time>2014-03-31T11:37:39Z</time>
  </trkpt>
  <trkpt lat="33.330791" lon="-3.716303">
   <ele>802.00</ele>
   <time>2014-03-31T11:37:41Z</time>
  </trkpt>
  <trkpt lat="33.330752" lon="-3.715806">
   <ele>802.00</ele>
   <time>2014-03-31T11:37:44Z</time>
  </trkpt>
  <trkpt lat="33.330531" lon="-3.713365">
   <ele>799.00</ele>
   <time>2014-03-31T11:37:59Z</time>
  </trkpt>
  <trkpt lat="33.330302" lon="-3.710772">
   <ele>791.00</ele>
   <time>2014-03-31T11:38:15Z</time>
  </trkpt>
  <trkpt lat="33.330085" lon="-3.708394">
   <ele>786.00</ele>
   <time>2014-03-31T11:38:30Z</time>
  </trkpt>
  <trkpt lat="33.330008" lon="-3.707627">
   <ele>786.00</ele>
   <time>2014-03-31T11:38:36Z</time>
  </trkpt>
  <trkpt lat="33.329951" lon="-3.707323">
   <ele>786.00</ele>
   <time>2014-03-31T11:38:39Z</time>
  </trkpt>
  <trkpt lat="33.329916" lon="-3.707096">
   <ele>786.00</ele>
   <time>2014-03-31T11:38:42Z</time>
  </trkpt>
  <trkpt lat="33.330031" lon="-3.706958">
   <ele>786.00</ele>
   <time>2014-03-31T11:38:46Z</time>
  </trkpt>
  <trkpt lat="33.330220" lon="-3.706969">
   <ele>786.00</ele>
   <time>2014-03-31T11:38:49Z</time>
  </trkpt>
  <trkpt lat="33.330435" lon="-3.706966">
   <ele>785.00</ele>
   <time>2014-03-31T11:38:52Z</time>
  </trkpt>
  <trkpt lat="33.330698" lon="-3.706948">
   <ele>785.00</ele>
   <time>2014-03-31T11:38:56Z</time>
  </trkpt>
  <trkpt lat="33.330887" lon="-3.706900">
   <ele>785.00</ele>
   <time>2014-03-31T11:39:00Z</time>
  </trkpt>
  <trkpt lat="33.330981" lon="-3.706747">
   <ele>785.00</ele>
   <time>2014-03-31T11:39:13Z</time>
  </trkpt>
  <trkpt lat="33.331016" lon="-3.706839">
   <ele>787.00</ele>
   <time>2014-03-31T11:39:28Z</time>
  </trkpt>
  <trkpt lat="33.331020" lon="-3.706840">
   <ele>786.00</ele>
   <time>2014-03-31T11:39:43Z</time>
  </trkpt>
  <trkpt lat="33.331019" lon="-3.706843">
   <ele>787.00</ele>
   <time>2014-03-31T11:39:59Z</time>
  </trkpt>
  <trkpt lat="33.331019" lon="-3.706844">
   <ele>788.00</ele>
   <time>2014-03-31T11:40:14Z</time>
  </trkpt>
  <trkpt lat="33.331017" lon="-3.706846">
   <ele>789.00</ele>
   <time>2014-03-31T11:40:29Z</time>
  </trkpt>
  <trkpt lat="33.330997" lon="-3.706801">
   <ele>789.00</ele>
   <time>2014-03-31T11:40:45Z</time>
  </trkpt>
  <trkpt lat="33.331030" lon="-3.706801">
   <ele>789.00</ele>
   <time>2014-03-31T11:41:01Z</time>
  </trkpt>
  <trkpt lat="33.331029" lon="-3.706801">
   <ele>789.00</ele>
   <time>2014-03-31T11:41:17Z</time>
  </trkpt>
  <trkpt lat="33.331029" lon="-3.706802">
   <ele>788.00</ele>
   <time>2014-03-31T11:41:32Z</time>
  </trkpt>
  <trkpt lat="33.331030" lon="-3.706802">
   <ele>787.00</ele>
   <time>2014-03-31T11:41:48Z</time>
  </trkpt>
  <trkpt lat="33.331031" lon="-3.706804">
   <ele>786.00</ele>
   <time>2014-03-31T11:42:04Z</time>
  </trkpt>
  <trkpt lat="33.331033" lon="-3.706804">
   <ele>785.00</ele>
   <time>2014-03-31T11:42:19Z</time>
  </trkpt>
  <trkpt lat="33.331035" lon="-3.706806">
   <ele>785.00</ele>
   <time>2014-03-31T11:42:35Z</time>
  </trkpt>
  <trkpt lat="33.331037" lon="-3.706806">
   <ele>784.00</ele>
   <time>2014-03-31T11:42:50Z</time>
  </trkpt>
  <trkpt lat="33.331040" lon="-3.706802">
   <ele>785.00</ele>
   <time>2014-03-31T11:43:06Z</time>
  </trkpt>
  <trkpt lat="33.331040" lon="-3.706800">
   <ele>785.00</ele>
   <time>2014-03-31T11:43:22Z</time>
  </trkpt>
  <trkpt lat="33.331041" lon="-3.706798">
   <ele>785.00</ele>
   <time>2014-03-31T11:43:40Z</time>
  </trkpt>
  <trkpt lat="33.331099" lon="-3.706945">
   <ele>785.00</ele>
   <time>2014-03-31T11:43:53Z</time>
  </trkpt>
  <trkpt lat="33.330896" lon="-3.706999">
   <ele>784.00</ele>
   <time>2014-03-31T11:43:58Z</time>
  </trkpt>
  <trkpt lat="33.330493" lon="-3.707053">
   <ele>784.00</ele>
   <time>2014-03-31T11:44:04Z</time>
  </trkpt>
  <trkpt lat="33.330299" lon="-3.707096">
   <ele>784.00</ele>
   <time>2014-03-31T11:44:07Z</time>
  </trkpt>
  <trkpt lat="33.330100" lon="-3.707176">
   <ele>785.00</ele>
   <time>2014-03-31T11:44:11Z</time>
  </trkpt>
  <trkpt lat="33.329927" lon="-3.707156">
   <ele>785.00</ele>
   <time>2014-03-31T11:44:15Z</time>
  </trkpt>
  <trkpt lat="33.329895" lon="-3.706892">
   <ele>785.00</ele>
   <time>2014-03-31T11:44:19Z</time>
  </trkpt>
  <trkpt lat="33.329896" lon="-3.706620">
   <ele>785.00</ele>
   <time>2014-03-31T11:44:22Z</time>
  </trkpt>
  <trkpt lat="33.329882" lon="-3.706317">
   <ele>784.00</ele>
   <time>2014-03-31T11:44:25Z</time>
  </trkpt>
  <trkpt lat="33.329817" lon="-3.705465">
   <ele>783.00</ele>
   <time>2014-03-31T11:44:32Z</time>
  </trkpt>
  <trkpt lat="33.329822" lon="-3.705210">
   <ele>782.00</ele>
   <time>2014-03-31T11:44:34Z</time>
  </trkpt>
  <trkpt lat="33.329854" lon="-3.704950">
   <ele>781.00</ele>
   <time>2014-03-31T11:44:36Z</time>
  </trkpt>
  <trkpt lat="33.329907" lon="-3.704685">
   <ele>779.00</ele>
   <time>2014-03-31T11:44:38Z</time>
  </trkpt>
  <trkpt lat="33.329978" lon="-3.704422">
   <ele>778.00</ele>
   <time>2014-03-31T11:44:40Z</time>
  </trkpt>
  <trkpt lat="33.330317" lon="-3.703276">
   <ele>777.00</ele>
   <time>2014-03-31T11:44:50Z</time>
  </trkpt>
  <trkpt lat="33.330400" lon="-3.703054">
   <ele>777.00</ele>
   <time>2014-03-31T11:44:52Z</time>
  </trkpt>
  <trkpt lat="33.330507" lon="-3.702839">
   <ele>778.00</ele>
   <time>2014-03-31T11:44:54Z</time>
  </trkpt>
  <trkpt lat="33.330640" lon="-3.702632">
   <ele>780.00</ele>
   <time>2014-03-31T11:44:56Z</time>
  </trkpt>
  <trkpt lat="33.330802" lon="-3.702446">
   <ele>781.00</ele>
   <time>2014-03-31T11:44:58Z</time>
  </trkpt>
  <trkpt lat="33.330992" lon="-3.702288">
   <ele>783.00</ele>
   <time>2014-03-31T11:45:00Z</time>
  </trkpt>
  <trkpt lat="33.331201" lon="-3.702157">
   <ele>784.00</ele>
   <time>2014-03-31T11:45:02Z</time>
  </trkpt>
  <trkpt lat="33.331422" lon="-3.702056">
   <ele>786.00</ele>
   <time>2014-03-31T11:45:04Z</time>
  </trkpt>
  <trkpt lat="33.331653" lon="-3.701996">
   <ele>787.00</ele>
   <time>2014-03-31T11:45:06Z</time>
  </trkpt>
  <trkpt lat="33.331894" lon="-3.701978">
   <ele>788.00</ele>
   <time>2014-03-31T11:45:08Z</time>
  </trkpt>
  <trkpt lat="33.332139" lon="-3.701986">
   <ele>788.00</ele>
   <time>2014-03-31T11:45:10Z</time>
  </trkpt>
  <trkpt lat="33.333772" lon="-3.702065">
   <ele>783.00</ele>
   <time>2014-03-31T11:45:23Z</time>
  </trkpt>
  <trkpt lat="33.334041" lon="-3.702045">
   <ele>783.00</ele>
   <time>2014-03-31T11:45:25Z</time>
  </trkpt>
  <trkpt lat="33.334303" lon="-3.701986">
   <ele>783.00</ele>
   <time>2014-03-31T11:45:27Z</time>
  </trkpt>
  <trkpt lat="33.334551" lon="-3.701881">
   <ele>783.00</ele>
   <time>2014-03-31T11:45:29Z</time>
  </trkpt>
  <trkpt lat="33.334780" lon="-3.701737">
   <ele>784.00</ele>
   <time>2014-03-31T11:45:31Z</time>
  </trkpt>
  <trkpt lat="33.334986" lon="-3.701568">
   <ele>785.00</ele>
   <time>2014-03-31T11:45:33Z</time>
  </trkpt>
  <trkpt lat="33.335163" lon="-3.701387">
   <ele>786.00</ele>
   <time>2014-03-31T11:45:35Z</time>
  </trkpt>
  <trkpt lat="33.335306" lon="-3.701180">
   <ele>788.00</ele>
   <time>2014-03-31T11:45:37Z</time>
  </trkpt>
  <trkpt lat="33.335413" lon="-3.700932">
   <ele>789.00</ele>
   <time>2014-03-31T11:45:39Z</time>
  </trkpt>
  <trkpt lat="33.335503" lon="-3.700656">
   <ele>790.00</ele>
   <time>2014-03-31T11:45:41Z</time>
  </trkpt>
  <trkpt lat="33.335578" lon="-3.700364">
   <ele>791.00</ele>
   <time>2014-03-31T11:45:43Z</time>
  </trkpt>
  <trkpt lat="33.335634" lon="-3.700068">
   <ele>792.00</ele>
   <time>2014-03-31T11:45:45Z</time>
  </trkpt>
  <trkpt lat="33.335676" lon="-3.699768">
   <ele>793.00</ele>
   <time>2014-03-31T11:45:47Z</time>
  </trkpt>
  <trkpt lat="33.335766" lon="-3.699148">
   <ele>794.00</ele>
   <time>2014-03-31T11:45:51Z</time>
  </trkpt>
  <trkpt lat="33.336173" lon="-3.696629">
   <ele>798.00</ele>
   <time>2014-03-31T11:46:07Z</time>
  </trkpt>
  <trkpt lat="33.336510" lon="-3.694578">
   <ele>799.00</ele>
   <time>2014-03-31T11:46:21Z</time>
  </trkpt>
  <trkpt lat="33.336556" lon="-3.694144">
   <ele>800.00</ele>
   <time>2014-03-31T11:46:26Z</time>
  </trkpt>
  <trkpt lat="33.336575" lon="-3.693862">
   <ele>800.00</ele>
   <time>2014-03-31T11:46:32Z</time>
  </trkpt>
  <trkpt lat="33.336625" lon="-3.693639">
   <ele>800.00</ele>
   <time>2014-03-31T11:46:35Z</time>
  </trkpt>
  <trkpt lat="33.336744" lon="-3.693177">
   <ele>801.00</ele>
   <time>2014-03-31T11:46:40Z</time>
  </trkpt>
  <trkpt lat="33.336784" lon="-3.692954">
   <ele>801.00</ele>
   <time>2014-03-31T11:46:42Z</time>
  </trkpt>
  <trkpt lat="33.336828" lon="-3.692710">
   <ele>801.00</ele>
   <time>2014-03-31T11:46:44Z</time>
  </trkpt>
  <trkpt lat="33.336891" lon="-3.692455">
   <ele>801.00</ele>
   <time>2014-03-31T11:46:46Z</time>
  </trkpt>
  <trkpt lat="33.336971" lon="-3.692193">
   <ele>801.00</ele>
   <time>2014-03-31T11:46:48Z</time>
  </trkpt>
  <trkpt lat="33.337072" lon="-3.691935">
   <ele>801.00</ele>
   <time>2014-03-31T11:46:50Z</time>
  </trkpt>
  <trkpt lat="33.337192" lon="-3.691692">
   <ele>801.00</ele>
   <time>2014-03-31T11:46:52Z</time>
  </trkpt>
  <trkpt lat="33.337331" lon="-3.691447">
   <ele>801.00</ele>
   <time>2014-03-31T11:46:54Z</time>
  </trkpt>
  <trkpt lat="33.338758" lon="-3.689168">
   <ele>801.00</ele>
   <time>2014-03-31T11:47:10Z</time>
  </trkpt>
  <trkpt lat="33.340160" lon="-3.686926">
   <ele>802.00</ele>
   <time>2014-03-31T11:47:25Z</time>
  </trkpt>
  <trkpt lat="33.341783" lon="-3.684342">
   <ele>805.00</ele>
   <time>2014-03-31T11:47:41Z</time>
  </trkpt>
  <trkpt lat="33.343336" lon="-3.681849">
   <ele>808.00</ele>
   <time>2014-03-31T11:47:56Z</time>
  </trkpt>
  <trkpt lat="33.344873" lon="-3.679393">
   <ele>814.00</ele>
   <time>2014-03-31T11:48:11Z</time>
  </trkpt>
  <trkpt lat="33.346480" lon="-3.676793">
   <ele>817.00</ele>
   <time>2014-03-31T11:48:27Z</time>
  </trkpt>
  <trkpt lat="33.347929" lon="-3.674461">
   <ele>819.00</ele>
   <time>2014-03-31T11:48:42Z</time>
  </trkpt>
  <trkpt lat="33.349337" lon="-3.672211">
   <ele>818.00</ele>
   <time>2014-03-31T11:48:57Z</time>
  </trkpt>
  <trkpt lat="33.350762" lon="-3.669929">
   <ele>815.00</ele>
   <time>2014-03-31T11:49:13Z</time>
  </trkpt>
  <trkpt lat="33.352073" lon="-3.667838">
   <ele>814.00</ele>
   <time>2014-03-31T11:49:28Z</time>
  </trkpt>
  <trkpt lat="33.353422" lon="-3.665670">
   <ele>816.00</ele>
   <time>2014-03-31T11:49:43Z</time>
  </trkpt>
  <trkpt lat="33.354831" lon="-3.663405">
   <ele>820.00</ele>
   <time>2014-03-31T11:49:59Z</time>
  </trkpt>
  <trkpt lat="33.356086" lon="-3.661398">
   <ele>822.00</ele>
   <time>2014-03-31T11:50:14Z</time>
  </trkpt>
  <trkpt lat="33.357436" lon="-3.659229">
   <ele>821.00</ele>
   <time>2014-03-31T11:50:29Z</time>
  </trkpt>
  <trkpt lat="33.358846" lon="-3.656986">
   <ele>819.00</ele>
   <time>2014-03-31T11:50:45Z</time>
  </trkpt>
  <trkpt lat="33.359039" lon="-3.656753">
   <ele>819.00</ele>
   <time>2014-03-31T11:50:47Z</time>
  </trkpt>
  <trkpt lat="33.359259" lon="-3.656537">
   <ele>819.00</ele>
   <time>2014-03-31T11:50:49Z</time>
  </trkpt>
  <trkpt lat="33.359504" lon="-3.656345">
   <ele>819.00</ele>
   <time>2014-03-31T11:50:51Z</time>
  </trkpt>
  <trkpt lat="33.359766" lon="-3.656180">
   <ele>819.00</ele>
   <time>2014-03-31T11:50:53Z</time>
  </trkpt>
  <trkpt lat="33.360556" lon="-3.655747">
   <ele>818.00</ele>
   <time>2014-03-31T11:50:59Z</time>
  </trkpt>
  <trkpt lat="33.362631" lon="-3.654613">
   <ele>817.00</ele>
   <time>2014-03-31T11:51:14Z</time>
  </trkpt>
  <trkpt lat="33.364757" lon="-3.653446">
   <ele>816.00</ele>
   <time>2014-03-31T11:51:30Z</time>
  </trkpt>
  <trkpt lat="33.366812" lon="-3.652314">
   <ele>815.00</ele>
   <time>2014-03-31T11:51:45Z</time>
  </trkpt>
  <trkpt lat="33.368816" lon="-3.651218">
   <ele>812.00</ele>
   <time>2014-03-31T11:52:00Z</time>
  </trkpt>
  <trkpt lat="33.371019" lon="-3.650008">
   <ele>806.00</ele>
   <time>2014-03-31T11:52:16Z</time>
  </trkpt>
  <trkpt lat="33.373096" lon="-3.648866">
   <ele>803.00</ele>
   <time>2014-03-31T11:52:31Z</time>
  </trkpt>
  <trkpt lat="33.373326" lon="-3.648729">
   <ele>803.00</ele>
   <time>2014-03-31T11:52:33Z</time>
  </trkpt>
  <trkpt lat="33.373471" lon="-3.648583">
   <ele>802.00</ele>
   <time>2014-03-31T11:52:35Z</time>
  </trkpt>
  <trkpt lat="33.373663" lon="-3.648363">
   <ele>803.00</ele>
   <time>2014-03-31T11:52:38Z</time>
  </trkpt>
  <trkpt lat="33.373852" lon="-3.648194">
   <ele>803.00</ele>
   <time>2014-03-31T11:52:41Z</time>
  </trkpt>
  <trkpt lat="33.374036" lon="-3.648079">
   <ele>804.00</ele>
   <time>2014-03-31T11:52:44Z</time>
  </trkpt>
  <trkpt lat="33.374199" lon="-3.647944">
   <ele>804.00</ele>
   <time>2014-03-31T11:52:47Z</time>
  </trkpt>
  <trkpt lat="33.374336" lon="-3.647798">
   <ele>806.00</ele>
   <time>2014-03-31T11:52:50Z</time>
  </trkpt>
  <trkpt lat="33.374487" lon="-3.647676">
   <ele>806.00</ele>
   <time>2014-03-31T11:52:54Z</time>
  </trkpt>
  <trkpt lat="33.374701" lon="-3.647676">
   <ele>806.00</ele>
   <time>2014-03-31T11:52:59Z</time>
  </trkpt>
  <trkpt lat="33.374893" lon="-3.647783">
   <ele>806.00</ele>
   <time>2014-03-31T11:53:03Z</time>
  </trkpt>
  <trkpt lat="33.375112" lon="-3.647867">
   <ele>806.00</ele>
   <time>2014-03-31T11:53:07Z</time>
  </trkpt>
  <trkpt lat="33.375338" lon="-3.647906">
   <ele>806.00</ele>
   <time>2014-03-31T11:53:11Z</time>
  </trkpt>
  <trkpt lat="33.375512" lon="-3.647832">
   <ele>806.00</ele>
   <time>2014-03-31T11:53:15Z</time>
  </trkpt>
  <trkpt lat="33.375476" lon="-3.647599">
   <ele>806.00</ele>
   <time>2014-03-31T11:53:19Z</time>
  </trkpt>
  <trkpt lat="33.375356" lon="-3.647413">
   <ele>807.00</ele>
   <time>2014-03-31T11:53:22Z</time>
  </trkpt>
  <trkpt lat="33.375243" lon="-3.647187">
   <ele>807.00</ele>
   <time>2014-03-31T11:53:25Z</time>
  </trkpt>
  <trkpt lat="33.375159" lon="-3.646929">
   <ele>808.00</ele>
   <time>2014-03-31T11:53:28Z</time>
  </trkpt>
  <trkpt lat="33.375098" lon="-3.646664">
   <ele>808.00</ele>
   <time>2014-03-31T11:53:31Z</time>
  </trkpt>
  <trkpt lat="33.374979" lon="-3.646420">
   <ele>809.00</ele>
   <time>2014-03-31T11:53:34Z</time>
  </trkpt>
  <trkpt lat="33.374804" lon="-3.646207">
   <ele>810.00</ele>
   <time>2014-03-31T11:53:37Z</time>
  </trkpt>
  <trkpt lat="33.374643" lon="-3.645965">
   <ele>811.00</ele>
   <time>2014-03-31T11:53:40Z</time>
  </trkpt>
  <trkpt lat="33.374522" lon="-3.645694">
   <ele>812.00</ele>
   <time>2014-03-31T11:53:43Z</time>
  </trkpt>
  <trkpt lat="33.374451" lon="-3.645446">
   <ele>813.00</ele>
   <time>2014-03-31T11:53:46Z</time>
  </trkpt>
  <trkpt lat="33.374291" lon="-3.645265">
   <ele>813.00</ele>
   <time>2014-03-31T11:53:49Z</time>
  </trkpt>
  <trkpt lat="33.374147" lon="-3.645056">
   <ele>814.00</ele>
   <time>2014-03-31T11:53:52Z</time>
  </trkpt>
  <trkpt lat="33.374081" lon="-3.644780">
   <ele>815.00</ele>
   <time>2014-03-31T11:53:55Z</time>
  </trkpt>
  <trkpt lat="33.374007" lon="-3.644399">
   <ele>816.00</ele>
   <time>2014-03-31T11:53:59Z</time>
  </trkpt>
  <trkpt lat="33.373945" lon="-3.644138">
   <ele>817.00</ele>
   <time>2014-03-31T11:54:02Z</time>
  </trkpt>
  <trkpt lat="33.373918" lon="-3.643875">
   <ele>819.00</ele>
   <time>2014-03-31T11:54:05Z</time>
  </trkpt>
  <trkpt lat="33.373865" lon="-3.643611">
   <ele>819.00</ele>
   <time>2014-03-31T11:54:08Z</time>
  </trkpt>
  <trkpt lat="33.373843" lon="-3.643330">
   <ele>820.00</ele>
   <time>2014-03-31T11:54:11Z</time>
  </trkpt>
  <trkpt lat="33.373840" lon="-3.643035">
   <ele>820.00</ele>
   <time>2014-03-31T11:54:14Z</time>
  </trkpt>
  <trkpt lat="33.373777" lon="-3.642752">
   <ele>821.00</ele>
   <time>2014-03-31T11:54:17Z</time>
  </trkpt>
  <trkpt lat="33.373752" lon="-3.642471">
   <ele>822.00</ele>
   <time>2014-03-31T11:54:20Z</time>
  </trkpt>
  <trkpt lat="33.373813" lon="-3.642203">
   <ele>822.00</ele>
   <time>2014-03-31T11:54:23Z</time>
  </trkpt>
  <trkpt lat="33.373924" lon="-3.641960">
   <ele>822.00</ele>
   <time>2014-03-31T11:54:26Z</time>
  </trkpt>
  <trkpt lat="33.374022" lon="-3.641667">
   <ele>822.00</ele>
   <time>2014-03-31T11:54:29Z</time>
  </trkpt>
  <trkpt lat="33.374091" lon="-3.641364">
   <ele>822.00</ele>
   <time>2014-03-31T11:54:32Z</time>
  </trkpt>
  <trkpt lat="33.374189" lon="-3.641084">
   <ele>822.00</ele>
   <time>2014-03-31T11:54:35Z</time>
  </trkpt>
  <trkpt lat="33.374276" lon="-3.640799">
   <ele>823.00</ele>
   <time>2014-03-31T11:54:38Z</time>
  </trkpt>
  <trkpt lat="33.374340" lon="-3.640509">
   <ele>824.00</ele>
   <time>2014-03-31T11:54:41Z</time>
  </trkpt>
  <trkpt lat="33.374343" lon="-3.640232">
   <ele>824.00</ele>
   <time>2014-03-31T11:54:44Z</time>
  </trkpt>
  <trkpt lat="33.374356" lon="-3.639966">
   <ele>825.00</ele>
   <time>2014-03-31T11:54:47Z</time>
  </trkpt>
  <trkpt lat="33.374456" lon="-3.639724">
   <ele>826.00</ele>
   <time>2014-03-31T11:54:50Z</time>
  </trkpt>
  <trkpt lat="33.374635" lon="-3.639594">
   <ele>826.00</ele>
   <time>2014-03-31T11:54:53Z</time>
  </trkpt>
  <trkpt lat="33.374777" lon="-3.639414">
   <ele>827.00</ele>
   <time>2014-03-31T11:54:57Z</time>
  </trkpt>
  <trkpt lat="33.374770" lon="-3.639179">
   <ele>828.00</ele>
   <time>2014-03-31T11:55:01Z</time>
  </trkpt>
  <trkpt lat="33.374897" lon="-3.638965">
   <ele>827.00</ele>
   <time>2014-03-31T11:55:05Z</time>
  </trkpt>
  <trkpt lat="33.375013" lon="-3.638777">
   <ele>827.00</ele>
   <time>2014-03-31T11:55:08Z</time>
  </trkpt>
  <trkpt lat="33.375109" lon="-3.638551">
   <ele>828.00</ele>
   <time>2014-03-31T11:55:11Z</time>
  </trkpt>
  <trkpt lat="33.375195" lon="-3.638316">
   <ele>827.00</ele>
   <time>2014-03-31T11:55:14Z</time>
  </trkpt>
  <trkpt lat="33.375356" lon="-3.638127">
   <ele>827.00</ele>
   <time>2014-03-31T11:55:17Z</time>
  </trkpt>
  <trkpt lat="33.375501" lon="-3.637916">
   <ele>827.00</ele>
   <time>2014-03-31T11:55:20Z</time>
  </trkpt>
  <trkpt lat="33.375597" lon="-3.637652">
   <ele>827.00</ele>
   <time>2014-03-31T11:55:23Z</time>
  </trkpt>
  <trkpt lat="33.375718" lon="-3.637394">
   <ele>827.00</ele>
   <time>2014-03-31T11:55:26Z</time>
  </trkpt>
  <trkpt lat="33.375952" lon="-3.636982">
   <ele>828.00</ele>
   <time>2014-03-31T11:55:31Z</time>
  </trkpt>
  <trkpt lat="33.376059" lon="-3.636729">
   <ele>828.00</ele>
   <time>2014-03-31T11:55:34Z</time>
  </trkpt>
  <trkpt lat="33.376133" lon="-3.636462">
   <ele>829.00</ele>
   <time>2014-03-31T11:55:37Z</time>
  </trkpt>
  <trkpt lat="33.376211" lon="-3.636206">
   <ele>829.00</ele>
   <time>2014-03-31T11:55:40Z</time>
  </trkpt>
  <trkpt lat="33.376252" lon="-3.635952">
   <ele>830.00</ele>
   <time>2014-03-31T11:55:43Z</time>
  </trkpt>
  <trkpt lat="33.376321" lon="-3.635709">
   <ele>830.00</ele>
   <time>2014-03-31T11:55:46Z</time>
  </trkpt>
  <trkpt lat="33.376391" lon="-3.635453">
   <ele>831.00</ele>
   <time>2014-03-31T11:55:49Z</time>
  </trkpt>
  <trkpt lat="33.376453" lon="-3.635174">
   <ele>831.00</ele>
   <time>2014-03-31T11:55:52Z</time>
  </trkpt>
  <trkpt lat="33.376550" lon="-3.634894">
   <ele>832.00</ele>
   <time>2014-03-31T11:55:55Z</time>
  </trkpt>
  <trkpt lat="33.376639" lon="-3.634605">
   <ele>833.00</ele>
   <time>2014-03-31T11:55:58Z</time>
  </trkpt>
  <trkpt lat="33.376735" lon="-3.634326">
   <ele>834.00</ele>
   <time>2014-03-31T11:56:01Z</time>
  </trkpt>
  <trkpt lat="33.376809" lon="-3.634045">
   <ele>834.00</ele>
   <time>2014-03-31T11:56:04Z</time>
  </trkpt>
  <trkpt lat="33.376821" lon="-3.633744">
   <ele>835.00</ele>
   <time>2014-03-31T11:56:07Z</time>
  </trkpt>
  <trkpt lat="33.376845" lon="-3.633429">
   <ele>836.00</ele>
   <time>2014-03-31T11:56:10Z</time>
  </trkpt>
  <trkpt lat="33.376912" lon="-3.633122">
   <ele>837.00</ele>
   <time>2014-03-31T11:56:13Z</time>
  </trkpt>
  <trkpt lat="33.377052" lon="-3.632860">
   <ele>837.00</ele>
   <time>2014-03-31T11:56:16Z</time>
  </trkpt>
  <trkpt lat="33.377166" lon="-3.632590">
   <ele>837.00</ele>
   <time>2014-03-31T11:56:19Z</time>
  </trkpt>
  <trkpt lat="33.377217" lon="-3.632292">
   <ele>838.00</ele>
   <time>2014-03-31T11:56:22Z</time>
  </trkpt>
  <trkpt lat="33.377300" lon="-3.632033">
   <ele>839.00</ele>
   <time>2014-03-31T11:56:25Z</time>
  </trkpt>
  <trkpt lat="33.377448" lon="-3.631815">
   <ele>840.00</ele>
   <time>2014-03-31T11:56:28Z</time>
  </trkpt>
  <trkpt lat="33.377577" lon="-3.631560">
   <ele>840.00</ele>
   <time>2014-03-31T11:56:31Z</time>
  </trkpt>
  <trkpt lat="33.377646" lon="-3.631302">
   <ele>841.00</ele>
   <time>2014-03-31T11:56:34Z</time>
  </trkpt>
  <trkpt lat="33.377631" lon="-3.631025">
   <ele>842.00</ele>
   <time>2014-03-31T11:56:37Z</time>
  </trkpt>
  <trkpt lat="33.377627" lon="-3.630734">
   <ele>842.00</ele>
   <time>2014-03-31T11:56:40Z</time>
  </trkpt>
  <trkpt lat="33.377681" lon="-3.630444">
   <ele>843.00</ele>
   <time>2014-03-31T11:56:43Z</time>
  </trkpt>
  <trkpt lat="33.377780" lon="-3.630153">
   <ele>844.00</ele>
   <time>2014-03-31T11:56:46Z</time>
  </trkpt>
  <trkpt lat="33.377847" lon="-3.629946">
   <ele>844.00</ele>
   <time>2014-03-31T11:56:48Z</time>
  </trkpt>
  <trkpt lat="33.377915" lon="-3.629737">
   <ele>845.00</ele>
   <time>2014-03-31T11:56:50Z</time>
  </trkpt>
  <trkpt lat="33.378010" lon="-3.629542">
   <ele>845.00</ele>
   <time>2014-03-31T11:56:52Z</time>
  </trkpt>
  <trkpt lat="33.378101" lon="-3.629342">
   <ele>845.00</ele>
   <time>2014-03-31T11:56:54Z</time>
  </trkpt>
  <trkpt lat="33.378334" lon="-3.628755">
   <ele>847.00</ele>
   <time>2014-03-31T11:57:00Z</time>
  </trkpt>
  <trkpt lat="33.378396" lon="-3.628494">
   <ele>847.00</ele>
   <time>2014-03-31T11:57:03Z</time>
  </trkpt>
  <trkpt lat="33.378483" lon="-3.628273">
   <ele>847.00</ele>
   <time>2014-03-31T11:57:06Z</time>
  </trkpt>
  <trkpt lat="33.378557" lon="-3.628056">
   <ele>847.00</ele>
   <time>2014-03-31T11:57:09Z</time>
  </trkpt>
  <trkpt lat="33.378653" lon="-3.627825">
   <ele>847.00</ele>
   <time>2014-03-31T11:57:12Z</time>
  </trkpt>
  <trkpt lat="33.378733" lon="-3.627577">
   <ele>847.00</ele>
   <time>2014-03-31T11:57:15Z</time>
  </trkpt>
  <trkpt lat="33.378811" lon="-3.627301">
   <ele>847.00</ele>
   <time>2014-03-31T11:57:18Z</time>
  </trkpt>
  <trkpt lat="33.379088" lon="-3.626566">
   <ele>849.00</ele>
   <time>2014-03-31T11:57:26Z</time>
  </trkpt>
  <trkpt lat="33.379158" lon="-3.626176">
   <ele>850.00</ele>
   <time>2014-03-31T11:57:30Z</time>
  </trkpt>
  <trkpt lat="33.379272" lon="-3.625919">
   <ele>850.00</ele>
   <time>2014-03-31T11:57:33Z</time>
  </trkpt>
  <trkpt lat="33.379351" lon="-3.625665">
   <ele>852.00</ele>
   <time>2014-03-31T11:57:36Z</time>
  </trkpt>
  <trkpt lat="33.379464" lon="-3.625478">
   <ele>852.00</ele>
   <time>2014-03-31T11:57:39Z</time>
  </trkpt>
  <trkpt lat="33.379536" lon="-3.625269">
   <ele>852.00</ele>
   <time>2014-03-31T11:57:42Z</time>
  </trkpt>
  <trkpt lat="33.379615" lon="-3.625065">
   <ele>853.00</ele>
   <time>2014-03-31T11:57:45Z</time>
  </trkpt>
  <trkpt lat="33.379708" lon="-3.624819">
   <ele>853.00</ele>
   <time>2014-03-31T11:57:49Z</time>
  </trkpt>
  <trkpt lat="33.379841" lon="-3.624405">
   <ele>851.00</ele>
   <time>2014-03-31T11:57:55Z</time>
  </trkpt>
  <trkpt lat="33.379973" lon="-3.624205">
   <ele>849.00</ele>
   <time>2014-03-31T11:57:58Z</time>
  </trkpt>
  <trkpt lat="33.380060" lon="-3.623958">
   <ele>849.00</ele>
   <time>2014-03-31T11:58:01Z</time>
  </trkpt>
  <trkpt lat="33.380122" lon="-3.623664">
   <ele>849.00</ele>
   <time>2014-03-31T11:58:04Z</time>
  </trkpt>
  <trkpt lat="33.380242" lon="-3.623391">
   <ele>849.00</ele>
   <time>2014-03-31T11:58:07Z</time>
  </trkpt>
  <trkpt lat="33.380343" lon="-3.623184">
   <ele>849.00</ele>
   <time>2014-03-31T11:58:10Z</time>
  </trkpt>
  <trkpt lat="33.380440" lon="-3.622934">
   <ele>849.00</ele>
   <time>2014-03-31T11:58:13Z</time>
  </trkpt>
  <trkpt lat="33.380539" lon="-3.622634">
   <ele>849.00</ele>
   <time>2014-03-31T11:58:16Z</time>
  </trkpt>
  <trkpt lat="33.380704" lon="-3.622378">
   <ele>849.00</ele>
   <time>2014-03-31T11:58:19Z</time>
  </trkpt>
  <trkpt lat="33.380806" lon="-3.622189">
   <ele>849.00</ele>
   <time>2014-03-31T11:58:21Z</time>
  </trkpt>
  <trkpt lat="33.380917" lon="-3.621911">
   <ele>849.00</ele>
   <time>2014-03-31T11:58:24Z</time>
  </trkpt>
  <trkpt lat="33.381002" lon="-3.621654">
   <ele>849.00</ele>
   <time>2014-03-31T11:58:27Z</time>
  </trkpt>
  <trkpt lat="33.381266" lon="-3.620894">
   <ele>851.00</ele>
   <time>2014-03-31T11:58:34Z</time>
  </trkpt>
  <trkpt lat="33.381484" lon="-3.620337">
   <ele>852.00</ele>
   <time>2014-03-31T11:58:39Z</time>
  </trkpt>
  <trkpt lat="33.381794" lon="-3.619574">
   <ele>854.00</ele>
   <time>2014-03-31T11:58:46Z</time>
  </trkpt>
  <trkpt lat="33.381870" lon="-3.619362">
   <ele>854.00</ele>
   <time>2014-03-31T11:58:48Z</time>
  </trkpt>
  <trkpt lat="33.381941" lon="-3.619158">
   <ele>855.00</ele>
   <time>2014-03-31T11:58:50Z</time>
  </trkpt>
  <trkpt lat="33.382101" lon="-3.618901">
   <ele>854.00</ele>
   <time>2014-03-31T11:58:53Z</time>
  </trkpt>
  <trkpt lat="33.382281" lon="-3.618667">
   <ele>855.00</ele>
   <time>2014-03-31T11:58:56Z</time>
  </trkpt>
  <trkpt lat="33.382431" lon="-3.618421">
   <ele>855.00</ele>
   <time>2014-03-31T11:58:59Z</time>
  </trkpt>
  <trkpt lat="33.382548" lon="-3.618169">
   <ele>857.00</ele>
   <time>2014-03-31T11:59:02Z</time>
  </trkpt>
  <trkpt lat="33.382599" lon="-3.617956">
   <ele>858.00</ele>
   <time>2014-03-31T11:59:05Z</time>
  </trkpt>
  <trkpt lat="33.382647" lon="-3.617623">
   <ele>860.00</ele>
   <time>2014-03-31T11:59:10Z</time>
  </trkpt>
  <trkpt lat="33.382617" lon="-3.617378">
   <ele>861.00</ele>
   <time>2014-03-31T11:59:13Z</time>
  </trkpt>
  <trkpt lat="33.382501" lon="-3.617135">
   <ele>862.00</ele>
   <time>2014-03-31T11:59:16Z</time>
  </trkpt>
  <trkpt lat="33.382375" lon="-3.616913">
   <ele>864.00</ele>
   <time>2014-03-31T11:59:19Z</time>
  </trkpt>
  <trkpt lat="33.382346" lon="-3.616671">
   <ele>866.00</ele>
   <time>2014-03-31T11:59:22Z</time>
  </trkpt>
  <trkpt lat="33.382432" lon="-3.616439">
   <ele>867.00</ele>
   <time>2014-03-31T11:59:25Z</time>
  </trkpt>
  <trkpt lat="33.382508" lon="-3.616179">
   <ele>867.00</ele>
   <time>2014-03-31T11:59:28Z</time>
  </trkpt>
  <trkpt lat="33.382614" lon="-3.615915">
   <ele>867.00</ele>
   <time>2014-03-31T11:59:31Z</time>
  </trkpt>
  <trkpt lat="33.382769" lon="-3.615681">
   <ele>865.00</ele>
   <time>2014-03-31T11:59:34Z</time>
  </trkpt>
  <trkpt lat="33.383040" lon="-3.615332">
   <ele>865.00</ele>
   <time>2014-03-31T11:59:39Z</time>
  </trkpt>
  <trkpt lat="33.383189" lon="-3.615107">
   <ele>865.00</ele>
   <time>2014-03-31T11:59:42Z</time>
  </trkpt>
  <trkpt lat="33.383386" lon="-3.614914">
   <ele>864.00</ele>
   <time>2014-03-31T11:59:45Z</time>
  </trkpt>
  <trkpt lat="33.383589" lon="-3.614738">
   <ele>865.00</ele>
   <time>2014-03-31T11:59:48Z</time>
  </trkpt>
  <trkpt lat="33.383774" lon="-3.614600">
   <ele>865.00</ele>
   <time>2014-03-31T11:59:51Z</time>
  </trkpt>
  <trkpt lat="33.384009" lon="-3.614546">
   <ele>865.00</ele>
   <time>2014-03-31T11:59:55Z</time>
  </trkpt>
  <trkpt lat="33.384189" lon="-3.614428">
   <ele>865.00</ele>
   <time>2014-03-31T11:59:58Z</time>
  </trkpt>
  <trkpt lat="33.384344" lon="-3.614249">
   <ele>865.00</ele>
   <time>2014-03-31T12:00:01Z</time>
  </trkpt>
  <trkpt lat="33.384406" lon="-3.614006">
   <ele>864.00</ele>
   <time>2014-03-31T12:00:04Z</time>
  </trkpt>
  <trkpt lat="33.384395" lon="-3.613745">
   <ele>863.00</ele>
   <time>2014-03-31T12:00:07Z</time>
  </trkpt>
  <trkpt lat="33.384373" lon="-3.613505">
   <ele>862.00</ele>
   <time>2014-03-31T12:00:10Z</time>
  </trkpt>
  <trkpt lat="33.384446" lon="-3.613307">
   <ele>862.00</ele>
   <time>2014-03-31T12:00:13Z</time>
  </trkpt>
  <trkpt lat="33.384504" lon="-3.613084">
   <ele>862.00</ele>
   <time>2014-03-31T12:00:16Z</time>
  </trkpt>
  <trkpt lat="33.384523" lon="-3.612862">
   <ele>862.00</ele>
   <time>2014-03-31T12:00:19Z</time>
  </trkpt>
  <trkpt lat="33.384519" lon="-3.612609">
   <ele>862.00</ele>
   <time>2014-03-31T12:00:23Z</time>
  </trkpt>
  <trkpt lat="33.384451" lon="-3.612402">
   <ele>862.00</ele>
   <time>2014-03-31T12:00:28Z</time>
  </trkpt>
  <trkpt lat="33.384532" lon="-3.612203">
   <ele>862.00</ele>
   <time>2014-03-31T12:00:33Z</time>
  </trkpt>
  <trkpt lat="33.384692" lon="-3.612083">
   <ele>864.00</ele>
   <time>2014-03-31T12:00:38Z</time>
  </trkpt>
  <trkpt lat="33.384850" lon="-3.611958">
   <ele>866.00</ele>
   <time>2014-03-31T12:00:44Z</time>
  </trkpt>
  <trkpt lat="33.385113" lon="-3.611671">
   <ele>869.00</ele>
   <time>2014-03-31T12:00:53Z</time>
  </trkpt>
  <trkpt lat="33.385240" lon="-3.611453">
   <ele>870.00</ele>
   <time>2014-03-31T12:00:57Z</time>
  </trkpt>
  <trkpt lat="33.385361" lon="-3.611264">
   <ele>871.00</ele>
   <time>2014-03-31T12:01:00Z</time>
  </trkpt>
  <trkpt lat="33.385504" lon="-3.611073">
   <ele>871.00</ele>
   <time>2014-03-31T12:01:03Z</time>
  </trkpt>
  <trkpt lat="33.385630" lon="-3.610844">
   <ele>872.00</ele>
   <time>2014-03-31T12:01:06Z</time>
  </trkpt>
  <trkpt lat="33.385742" lon="-3.610619">
   <ele>872.00</ele>
   <time>2014-03-31T12:01:09Z</time>
  </trkpt>
  <trkpt lat="33.385805" lon="-3.610378">
   <ele>872.00</ele>
   <time>2014-03-31T12:01:12Z</time>
  </trkpt>
  <trkpt lat="33.385906" lon="-3.610133">
   <ele>870.00</ele>
   <time>2014-03-31T12:01:15Z</time>
  </trkpt>
  <trkpt lat="33.386075" lon="-3.609927">
   <ele>868.00</ele>
   <time>2014-03-31T12:01:18Z</time>
  </trkpt>
  <trkpt lat="33.386268" lon="-3.609750">
   <ele>866.00</ele>
   <time>2014-03-31T12:01:21Z</time>
  </trkpt>
  <trkpt lat="33.386570" lon="-3.609412">
   <ele>864.00</ele>
   <time>2014-03-31T12:01:27Z</time>
  </trkpt>
  <trkpt lat="33.386753" lon="-3.609253">
   <ele>865.00</ele>
   <time>2014-03-31T12:01:31Z</time>
  </trkpt>
  <trkpt lat="33.386923" lon="-3.609086">
   <ele>866.00</ele>
   <time>2014-03-31T12:01:36Z</time>
  </trkpt>
  <trkpt lat="33.387070" lon="-3.608929">
   <ele>867.00</ele>
   <time>2014-03-31T12:01:40Z</time>
  </trkpt>
  <trkpt lat="33.387180" lon="-3.608746">
   <ele>868.00</ele>
   <time>2014-03-31T12:01:44Z</time>
  </trkpt>
  <trkpt lat="33.387276" lon="-3.608531">
   <ele>869.00</ele>
   <time>2014-03-31T12:01:48Z</time>
  </trkpt>
  <trkpt lat="33.387331" lon="-3.608288">
   <ele>870.00</ele>
   <time>2014-03-31T12:01:52Z</time>
  </trkpt>
  <trkpt lat="33.387551" lon="-3.607799">
   <ele>872.00</ele>
   <time>2014-03-31T12:02:00Z</time>
  </trkpt>
  <trkpt lat="33.387640" lon="-3.607588">
   <ele>872.00</ele>
   <time>2014-03-31T12:02:03Z</time>
  </trkpt>
  <trkpt lat="33.387759" lon="-3.607305">
   <ele>873.00</ele>
   <time>2014-03-31T12:02:07Z</time>
  </trkpt>
  <trkpt lat="33.387887" lon="-3.607040">
   <ele>874.00</ele>
   <time>2014-03-31T12:02:11Z</time>
  </trkpt>
  <trkpt lat="33.387978" lon="-3.606813">
   <ele>874.00</ele>
   <time>2014-03-31T12:02:14Z</time>
  </trkpt>
  <trkpt lat="33.388083" lon="-3.606573">
   <ele>875.00</ele>
   <time>2014-03-31T12:02:17Z</time>
  </trkpt>
  <trkpt lat="33.388349" lon="-3.606011">
   <ele>876.00</ele>
   <time>2014-03-31T12:02:24Z</time>
  </trkpt>
  <trkpt lat="33.388481" lon="-3.605784">
   <ele>876.00</ele>
   <time>2014-03-31T12:02:27Z</time>
  </trkpt>
  <trkpt lat="33.388585" lon="-3.605521">
   <ele>876.00</ele>
   <time>2014-03-31T12:02:30Z</time>
  </trkpt>
  <trkpt lat="33.388684" lon="-3.605273">
   <ele>876.00</ele>
   <time>2014-03-31T12:02:33Z</time>
  </trkpt>
  <trkpt lat="33.388798" lon="-3.605040">
   <ele>877.00</ele>
   <time>2014-03-31T12:02:36Z</time>
  </trkpt>
  <trkpt lat="33.388931" lon="-3.604737">
   <ele>878.00</ele>
   <time>2014-03-31T12:02:40Z</time>
  </trkpt>
  <trkpt lat="33.389012" lon="-3.604520">
   <ele>879.00</ele>
   <time>2014-03-31T12:02:43Z</time>
  </trkpt>
  <trkpt lat="33.389142" lon="-3.604214">
   <ele>879.00</ele>
   <time>2014-03-31T12:02:47Z</time>
  </trkpt>
  <trkpt lat="33.389233" lon="-3.604003">
   <ele>880.00</ele>
   <time>2014-03-31T12:02:51Z</time>
  </trkpt>
  <trkpt lat="33.389396" lon="-3.603732">
   <ele>879.00</ele>
   <time>2014-03-31T12:02:58Z</time>
  </trkpt>
  <trkpt lat="33.389495" lon="-3.603470">
   <ele>879.00</ele>
   <time>2014-03-31T12:03:02Z</time>
  </trkpt>
  <trkpt lat="33.389898" lon="-3.602386">
   <ele>880.00</ele>
   <time>2014-03-31T12:03:12Z</time>
  </trkpt>
  <trkpt lat="33.390751" lon="-3.600104">
   <ele>881.00</ele>
   <time>2014-03-31T12:03:27Z</time>
  </trkpt>
  <trkpt lat="33.391676" lon="-3.597624">
   <ele>882.00</ele>
   <time>2014-03-31T12:03:43Z</time>
  </trkpt>
  <trkpt lat="33.392577" lon="-3.595261">
   <ele>883.00</ele>
   <time>2014-03-31T12:03:58Z</time>
  </trkpt>
  <trkpt lat="33.393288" lon="-3.593387">
   <ele>883.00</ele>
   <time>2014-03-31T12:04:10Z</time>
  </trkpt>
  <trkpt lat="33.393498" lon="-3.592751">
   <ele>884.00</ele>
   <time>2014-03-31T12:04:14Z</time>
  </trkpt>
  <trkpt lat="33.393578" lon="-3.592446">
   <ele>884.00</ele>
   <time>2014-03-31T12:04:16Z</time>
  </trkpt>
  <trkpt lat="33.393616" lon="-3.592138">
   <ele>884.00</ele>
   <time>2014-03-31T12:04:18Z</time>
  </trkpt>
  <trkpt lat="33.393633" lon="-3.591820">
   <ele>884.00</ele>
   <time>2014-03-31T12:04:20Z</time>
  </trkpt>
  <trkpt lat="33.393631" lon="-3.591153">
   <ele>885.00</ele>
   <time>2014-03-31T12:04:24Z</time>
  </trkpt>
  <trkpt lat="33.393570" lon="-3.588557">
   <ele>888.00</ele>
   <time>2014-03-31T12:04:40Z</time>
  </trkpt>
  <trkpt lat="33.393525" lon="-3.586760">
   <ele>889.00</ele>
   <time>2014-03-31T12:04:52Z</time>
  </trkpt>
  <trkpt lat="33.393568" lon="-3.586464">
   <ele>889.00</ele>
   <time>2014-03-31T12:04:55Z</time>
  </trkpt>
  <trkpt lat="33.393654" lon="-3.586243">
   <ele>890.00</ele>
   <time>2014-03-31T12:04:58Z</time>
  </trkpt>
  <trkpt lat="33.393775" lon="-3.586053">
   <ele>890.00</ele>
   <time>2014-03-31T12:05:01Z</time>
  </trkpt>
  <trkpt lat="33.393940" lon="-3.585901">
   <ele>890.00</ele>
   <time>2014-03-31T12:05:04Z</time>
  </trkpt>
  <trkpt lat="33.394281" lon="-3.585663">
   <ele>890.00</ele>
   <time>2014-03-31T12:05:09Z</time>
  </trkpt>
  <trkpt lat="33.394767" lon="-3.585343">
   <ele>892.00</ele>
   <time>2014-03-31T12:05:16Z</time>
  </trkpt>
  <trkpt lat="33.395179" lon="-3.585077">
   <ele>893.00</ele>
   <time>2014-03-31T12:05:25Z</time>
  </trkpt>
  <trkpt lat="33.395353" lon="-3.584954">
   <ele>893.00</ele>
   <time>2014-03-31T12:05:31Z</time>
  </trkpt>
  <trkpt lat="33.395547" lon="-3.584817">
   <ele>893.00</ele>
   <time>2014-03-31T12:05:36Z</time>
  </trkpt>
  <trkpt lat="33.395740" lon="-3.584679">
   <ele>892.00</ele>
   <time>2014-03-31T12:05:40Z</time>
  </trkpt>
  <trkpt lat="33.395959" lon="-3.584528">
   <ele>893.00</ele>
   <time>2014-03-31T12:05:44Z</time>
  </trkpt>
  <trkpt lat="33.396108" lon="-3.584400">
   <ele>892.00</ele>
   <time>2014-03-31T12:05:47Z</time>
  </trkpt>
  <trkpt lat="33.396273" lon="-3.584235">
   <ele>892.00</ele>
   <time>2014-03-31T12:05:51Z</time>
  </trkpt>
  <trkpt lat="33.396426" lon="-3.584114">
   <ele>893.00</ele>
   <time>2014-03-31T12:05:54Z</time>
  </trkpt>
  <trkpt lat="33.396604" lon="-3.583989">
   <ele>893.00</ele>
   <time>2014-03-31T12:05:57Z</time>
  </trkpt>
  <trkpt lat="33.396799" lon="-3.583894">
   <ele>893.00</ele>
   <time>2014-03-31T12:06:00Z</time>
  </trkpt>
  <trkpt lat="33.397022" lon="-3.583850">
   <ele>894.00</ele>
   <time>2014-03-31T12:06:03Z</time>
  </trkpt>
  <trkpt lat="33.397342" lon="-3.583796">
   <ele>894.00</ele>
   <time>2014-03-31T12:06:07Z</time>
  </trkpt>
  <trkpt lat="33.397573" lon="-3.583720">
   <ele>894.00</ele>
   <time>2014-03-31T12:06:10Z</time>
  </trkpt>
  <trkpt lat="33.397782" lon="-3.583604">
   <ele>895.00</ele>
   <time>2014-03-31T12:06:13Z</time>
  </trkpt>
  <trkpt lat="33.397981" lon="-3.583459">
   <ele>895.00</ele>
   <time>2014-03-31T12:06:16Z</time>
  </trkpt>
  <trkpt lat="33.398180" lon="-3.583295">
   <ele>894.00</ele>
   <time>2014-03-31T12:06:19Z</time>
  </trkpt>
  <trkpt lat="33.398349" lon="-3.583097">
   <ele>895.00</ele>
   <time>2014-03-31T12:06:22Z</time>
  </trkpt>
  <trkpt lat="33.398483" lon="-3.582877">
   <ele>895.00</ele>
   <time>2014-03-31T12:06:25Z</time>
  </trkpt>
  <trkpt lat="33.398609" lon="-3.582670">
   <ele>894.00</ele>
   <time>2014-03-31T12:06:28Z</time>
  </trkpt>
  <trkpt lat="33.398789" lon="-3.582532">
   <ele>893.00</ele>
   <time>2014-03-31T12:06:31Z</time>
  </trkpt>
  <trkpt lat="33.398974" lon="-3.582515">
   <ele>893.00</ele>
   <time>2014-03-31T12:06:34Z</time>
  </trkpt>
  <trkpt lat="33.399166" lon="-3.582599">
   <ele>892.00</ele>
   <time>2014-03-31T12:06:37Z</time>
  </trkpt>
  <trkpt lat="33.399563" lon="-3.582850">
   <ele>892.00</ele>
   <time>2014-03-31T12:06:43Z</time>
  </trkpt>
  <trkpt lat="33.399783" lon="-3.582938">
   <ele>891.00</ele>
   <time>2014-03-31T12:06:46Z</time>
  </trkpt>
  <trkpt lat="33.400006" lon="-3.582998">
   <ele>891.00</ele>
   <time>2014-03-31T12:06:49Z</time>
  </trkpt>
  <trkpt lat="33.400228" lon="-3.583057">
   <ele>891.00</ele>
   <time>2014-03-31T12:06:52Z</time>
  </trkpt>
  <trkpt lat="33.400531" lon="-3.583144">
   <ele>891.00</ele>
   <time>2014-03-31T12:06:56Z</time>
  </trkpt>
  <trkpt lat="33.401366" lon="-3.583360">
   <ele>891.00</ele>
   <time>2014-03-31T12:07:06Z</time>
  </trkpt>
  <trkpt lat="33.401623" lon="-3.583406">
   <ele>891.00</ele>
   <time>2014-03-31T12:07:09Z</time>
  </trkpt>
  <trkpt lat="33.401884" lon="-3.583406">
   <ele>891.00</ele>
   <time>2014-03-31T12:07:12Z</time>
  </trkpt>
  <trkpt lat="33.402150" lon="-3.583377">
   <ele>890.00</ele>
   <time>2014-03-31T12:07:15Z</time>
  </trkpt>
  <trkpt lat="33.403176" lon="-3.583220">
   <ele>892.00</ele>
   <time>2014-03-31T12:07:27Z</time>
  </trkpt>
  <trkpt lat="33.403534" lon="-3.583180">
   <ele>894.00</ele>
   <time>2014-03-31T12:07:32Z</time>
  </trkpt>
  <trkpt lat="33.403739" lon="-3.583095">
   <ele>893.00</ele>
   <time>2014-03-31T12:07:35Z</time>
  </trkpt>
  <trkpt lat="33.403933" lon="-3.582938">
   <ele>892.00</ele>
   <time>2014-03-31T12:07:38Z</time>
  </trkpt>
  <trkpt lat="33.404114" lon="-3.582727">
   <ele>891.00</ele>
   <time>2014-03-31T12:07:41Z</time>
  </trkpt>
  <trkpt lat="33.404285" lon="-3.582486">
   <ele>890.00</ele>
   <time>2014-03-31T12:07:44Z</time>
  </trkpt>
  <trkpt lat="33.404579" lon="-3.582057">
   <ele>888.00</ele>
   <time>2014-03-31T12:07:49Z</time>
  </trkpt>
  <trkpt lat="33.404710" lon="-3.581908">
   <ele>887.00</ele>
   <time>2014-03-31T12:07:51Z</time>
  </trkpt>
  <trkpt lat="33.404922" lon="-3.581738">
   <ele>887.00</ele>
   <time>2014-03-31T12:07:54Z</time>
  </trkpt>
  <trkpt lat="33.405149" lon="-3.581675">
   <ele>886.00</ele>
   <time>2014-03-31T12:07:57Z</time>
  </trkpt>
  <trkpt lat="33.405375" lon="-3.581743">
   <ele>886.00</ele>
   <time>2014-03-31T12:08:00Z</time>
  </trkpt>
  <trkpt lat="33.405785" lon="-3.581900">
   <ele>888.00</ele>
   <time>2014-03-31T12:08:05Z</time>
  </trkpt>
  <trkpt lat="33.406029" lon="-3.581940">
   <ele>890.00</ele>
   <time>2014-03-31T12:08:08Z</time>
  </trkpt>
  <trkpt lat="33.406264" lon="-3.581939">
   <ele>890.00</ele>
   <time>2014-03-31T12:08:11Z</time>
  </trkpt>
  <trkpt lat="33.406748" lon="-3.581932">
   <ele>886.00</ele>
   <time>2014-03-31T12:08:17Z</time>
  </trkpt>
  <trkpt lat="33.406968" lon="-3.581944">
   <ele>885.00</ele>
   <time>2014-03-31T12:08:20Z</time>
  </trkpt>
  <trkpt lat="33.407268" lon="-3.581963">
   <ele>886.00</ele>
   <time>2014-03-31T12:08:24Z</time>
  </trkpt>
  <trkpt lat="33.407484" lon="-3.581962">
   <ele>886.00</ele>
   <time>2014-03-31T12:08:27Z</time>
  </trkpt>
  <trkpt lat="33.408302" lon="-3.581905">
   <ele>882.00</ele>
   <time>2014-03-31T12:08:40Z</time>
  </trkpt>
  <trkpt lat="33.408508" lon="-3.581917">
   <ele>882.00</ele>
   <time>2014-03-31T12:08:48Z</time>
  </trkpt>
  <trkpt lat="33.408737" lon="-3.581953">
   <ele>883.00</ele>
   <time>2014-03-31T12:08:52Z</time>
  </trkpt>
  <trkpt lat="33.408938" lon="-3.581998">
   <ele>885.00</ele>
   <time>2014-03-31T12:08:55Z</time>
  </trkpt>
  <trkpt lat="33.409140" lon="-3.582079">
   <ele>886.00</ele>
   <time>2014-03-31T12:08:58Z</time>
  </trkpt>
  <trkpt lat="33.409321" lon="-3.582230">
   <ele>886.00</ele>
   <time>2014-03-31T12:09:01Z</time>
  </trkpt>
  <trkpt lat="33.409488" lon="-3.582449">
   <ele>885.00</ele>
   <time>2014-03-31T12:09:04Z</time>
  </trkpt>
  <trkpt lat="33.410315" lon="-3.583649">
   <ele>881.00</ele>
   <time>2014-03-31T12:09:19Z</time>
  </trkpt>
  <trkpt lat="33.410536" lon="-3.583960">
   <ele>881.00</ele>
   <time>2014-03-31T12:09:23Z</time>
  </trkpt>
  <trkpt lat="33.410689" lon="-3.584181">
   <ele>880.00</ele>
   <time>2014-03-31T12:09:26Z</time>
  </trkpt>
  <trkpt lat="33.411167" lon="-3.584824">
   <ele>880.00</ele>
   <time>2014-03-31T12:09:35Z</time>
  </trkpt>
  <trkpt lat="33.411328" lon="-3.585027">
   <ele>880.00</ele>
   <time>2014-03-31T12:09:38Z</time>
  </trkpt>
  <trkpt lat="33.411505" lon="-3.585213">
   <ele>880.00</ele>
   <time>2014-03-31T12:09:41Z</time>
  </trkpt>
  <trkpt lat="33.411807" lon="-3.585504">
   <ele>878.00</ele>
   <time>2014-03-31T12:09:46Z</time>
  </trkpt>
  <trkpt lat="33.411990" lon="-3.585677">
   <ele>876.00</ele>
   <time>2014-03-31T12:09:49Z</time>
  </trkpt>
  <trkpt lat="33.412789" lon="-3.586483">
   <ele>873.00</ele>
   <time>2014-03-31T12:10:04Z</time>
  </trkpt>
  <trkpt lat="33.413087" lon="-3.586811">
   <ele>871.00</ele>
   <time>2014-03-31T12:10:11Z</time>
  </trkpt>
  <trkpt lat="33.413261" lon="-3.587001">
   <ele>869.00</ele>
   <time>2014-03-31T12:10:15Z</time>
  </trkpt>
  <trkpt lat="33.413421" lon="-3.587177">
   <ele>868.00</ele>
   <time>2014-03-31T12:10:18Z</time>
  </trkpt>
  <trkpt lat="33.413570" lon="-3.587401">
   <ele>867.00</ele>
   <time>2014-03-31T12:10:21Z</time>
  </trkpt>
  <trkpt lat="33.413693" lon="-3.587650">
   <ele>867.00</ele>
   <time>2014-03-31T12:10:24Z</time>
  </trkpt>
  <trkpt lat="33.413897" lon="-3.588046">
   <ele>866.00</ele>
   <time>2014-03-31T12:10:29Z</time>
  </trkpt>
  <trkpt lat="33.414078" lon="-3.588384">
   <ele>866.00</ele>
   <time>2014-03-31T12:10:34Z</time>
  </trkpt>
  <trkpt lat="33.414264" lon="-3.588561">
   <ele>867.00</ele>
   <time>2014-03-31T12:10:38Z</time>
  </trkpt>
  <trkpt lat="33.414446" lon="-3.588641">
   <ele>868.00</ele>
   <time>2014-03-31T12:10:41Z</time>
  </trkpt>
  <trkpt lat="33.414867" lon="-3.588771">
   <ele>869.00</ele>
   <time>2014-03-31T12:10:48Z</time>
  </trkpt>
  <trkpt lat="33.415270" lon="-3.588895">
   <ele>868.00</ele>
   <time>2014-03-31T12:10:55Z</time>
  </trkpt>
  <trkpt lat="33.416228" lon="-3.589207">
   <ele>864.00</ele>
   <time>2014-03-31T12:11:11Z</time>
  </trkpt>
  <trkpt lat="33.416398" lon="-3.589273">
   <ele>865.00</ele>
   <time>2014-03-31T12:11:18Z</time>
  </trkpt>
  <trkpt lat="33.416266" lon="-3.589230">
   <ele>867.00</ele>
   <time>2014-03-31T12:11:34Z</time>
  </trkpt>
  <trkpt lat="33.416254" lon="-3.589204">
   <ele>872.00</ele>
   <time>2014-03-31T12:11:50Z</time>
  </trkpt>
  <trkpt lat="33.416250" lon="-3.589184">
   <ele>876.00</ele>
   <time>2014-03-31T12:12:05Z</time>
  </trkpt>
  <trkpt lat="33.416248" lon="-3.589181">
   <ele>876.00</ele>
   <time>2014-03-31T12:12:20Z</time>
  </trkpt>
  <trkpt lat="33.416068" lon="-3.589112">
   <ele>876.00</ele>
   <time>2014-03-31T12:12:30Z</time>
  </trkpt>
  <trkpt lat="33.415871" lon="-3.589050">
   <ele>877.00</ele>
   <time>2014-03-31T12:12:36Z</time>
  </trkpt>
  <trkpt lat="33.415639" lon="-3.588981">
   <ele>877.00</ele>
   <time>2014-03-31T12:12:43Z</time>
  </trkpt>
  <trkpt lat="33.415583" lon="-3.588958">
   <ele>878.00</ele>
   <time>2014-03-31T12:12:59Z</time>
  </trkpt>
  <trkpt lat="33.415586" lon="-3.588964">
   <ele>877.00</ele>
   <time>2014-03-31T12:13:14Z</time>
  </trkpt>
  <trkpt lat="33.415588" lon="-3.588970">
   <ele>876.00</ele>
   <time>2014-03-31T12:13:29Z</time>
  </trkpt>
  <trkpt lat="33.415589" lon="-3.588970">
   <ele>876.00</ele>
   <time>2014-03-31T12:13:45Z</time>
  </trkpt>
  <trkpt lat="33.415459" lon="-3.588932">
   <ele>874.00</ele>
   <time>2014-03-31T12:14:01Z</time>
  </trkpt>
  <trkpt lat="33.414938" lon="-3.588754">
   <ele>875.00</ele>
   <time>2014-03-31T12:14:15Z</time>
  </trkpt>
  <trkpt lat="33.414416" lon="-3.588591">
   <ele>875.00</ele>
   <time>2014-03-31T12:14:25Z</time>
  </trkpt>
  <trkpt lat="33.414202" lon="-3.588493">
   <ele>874.00</ele>
   <time>2014-03-31T12:14:29Z</time>
  </trkpt>
  <trkpt lat="33.414060" lon="-3.588348">
   <ele>873.00</ele>
   <time>2014-03-31T12:14:32Z</time>
  </trkpt>
  <trkpt lat="33.413939" lon="-3.588150">
   <ele>872.00</ele>
   <time>2014-03-31T12:14:35Z</time>
  </trkpt>
  <trkpt lat="33.413456" lon="-3.587234">
   <ele>870.00</ele>
   <time>2014-03-31T12:14:47Z</time>
  </trkpt>
  <trkpt lat="33.413280" lon="-3.587009">
   <ele>872.00</ele>
   <time>2014-03-31T12:14:50Z</time>
  </trkpt>
  <trkpt lat="33.412422" lon="-3.586064">
   <ele>881.00</ele>
   <time>2014-03-31T12:15:02Z</time>
  </trkpt>
  <trkpt lat="33.411381" lon="-3.585031">
   <ele>888.00</ele>
   <time>2014-03-31T12:15:15Z</time>
  </trkpt>
  <trkpt lat="33.411227" lon="-3.584855">
   <ele>889.00</ele>
   <time>2014-03-31T12:15:17Z</time>
  </trkpt>
  <trkpt lat="33.411007" lon="-3.584575">
   <ele>890.00</ele>
   <time>2014-03-31T12:15:20Z</time>
  </trkpt>
  <trkpt lat="33.410142" lon="-3.583395">
   <ele>891.00</ele>
   <time>2014-03-31T12:15:32Z</time>
  </trkpt>
  <trkpt lat="33.409305" lon="-3.582209">
   <ele>894.00</ele>
   <time>2014-03-31T12:15:44Z</time>
  </trkpt>
  <trkpt lat="33.409087" lon="-3.582029">
   <ele>893.00</ele>
   <time>2014-03-31T12:15:47Z</time>
  </trkpt>
  <trkpt lat="33.408840" lon="-3.581921">
   <ele>892.00</ele>
   <time>2014-03-31T12:15:50Z</time>
  </trkpt>
  <trkpt lat="33.408657" lon="-3.581884">
   <ele>891.00</ele>
   <time>2014-03-31T12:15:52Z</time>
  </trkpt>
  <trkpt lat="33.408303" lon="-3.581851">
   <ele>889.00</ele>
   <time>2014-03-31T12:15:56Z</time>
  </trkpt>
  <trkpt lat="33.408066" lon="-3.581869">
   <ele>889.00</ele>
   <time>2014-03-31T12:15:59Z</time>
  </trkpt>
  <trkpt lat="33.407854" lon="-3.581893">
   <ele>889.00</ele>
   <time>2014-03-31T12:16:02Z</time>
  </trkpt>
  <trkpt lat="33.407540" lon="-3.581918">
   <ele>890.00</ele>
   <time>2014-03-31T12:16:07Z</time>
  </trkpt>
  <trkpt lat="33.407345" lon="-3.581956">
   <ele>890.00</ele>
   <time>2014-03-31T12:16:10Z</time>
  </trkpt>
  <trkpt lat="33.407114" lon="-3.581965">
   <ele>890.00</ele>
   <time>2014-03-31T12:16:13Z</time>
  </trkpt>
  <trkpt lat="33.406885" lon="-3.581942">
   <ele>889.00</ele>
   <time>2014-03-31T12:16:16Z</time>
  </trkpt>
  <trkpt lat="33.406657" lon="-3.581935">
   <ele>890.00</ele>
   <time>2014-03-31T12:16:19Z</time>
  </trkpt>
  <trkpt lat="33.405991" lon="-3.581935">
   <ele>896.00</ele>
   <time>2014-03-31T12:16:28Z</time>
  </trkpt>
  <trkpt lat="33.405734" lon="-3.581898">
   <ele>895.00</ele>
   <time>2014-03-31T12:16:31Z</time>
  </trkpt>
  <trkpt lat="33.405476" lon="-3.581804">
   <ele>894.00</ele>
   <time>2014-03-31T12:16:34Z</time>
  </trkpt>
  <trkpt lat="33.405248" lon="-3.581711">
   <ele>893.00</ele>
   <time>2014-03-31T12:16:37Z</time>
  </trkpt>
  <trkpt lat="33.405040" lon="-3.581673">
   <ele>892.00</ele>
   <time>2014-03-31T12:16:40Z</time>
  </trkpt>
  <trkpt lat="33.404855" lon="-3.581764">
   <ele>891.00</ele>
   <time>2014-03-31T12:16:43Z</time>
  </trkpt>
  <trkpt lat="33.404679" lon="-3.581914">
   <ele>890.00</ele>
   <time>2014-03-31T12:16:46Z</time>
  </trkpt>
  <trkpt lat="33.404518" lon="-3.582109">
   <ele>890.00</ele>
   <time>2014-03-31T12:16:49Z</time>
  </trkpt>
  <trkpt lat="33.403993" lon="-3.582851">
   <ele>892.00</ele>
   <time>2014-03-31T12:16:59Z</time>
  </trkpt>
  <trkpt lat="33.403813" lon="-3.583036">
   <ele>893.00</ele>
   <time>2014-03-31T12:17:02Z</time>
  </trkpt>
  <trkpt lat="33.403630" lon="-3.583157">
   <ele>893.00</ele>
   <time>2014-03-31T12:17:05Z</time>
  </trkpt>
  <trkpt lat="33.403433" lon="-3.583204">
   <ele>894.00</ele>
   <time>2014-03-31T12:17:09Z</time>
  </trkpt>
  <trkpt lat="33.403253" lon="-3.583215">
   <ele>895.00</ele>
   <time>2014-03-31T12:17:13Z</time>
  </trkpt>
  <trkpt lat="33.403022" lon="-3.583248">
   <ele>895.00</ele>
   <time>2014-03-31T12:17:17Z</time>
  </trkpt>
  <trkpt lat="33.402612" lon="-3.583304">
   <ele>894.00</ele>
   <time>2014-03-31T12:17:23Z</time>
  </trkpt>
  <trkpt lat="33.401922" lon="-3.583409">
   <ele>896.00</ele>
   <time>2014-03-31T12:17:32Z</time>
  </trkpt>
  <trkpt lat="33.401701" lon="-3.583418">
   <ele>896.00</ele>
   <time>2014-03-31T12:17:35Z</time>
  </trkpt>
  <trkpt lat="33.401489" lon="-3.583393">
   <ele>895.00</ele>
   <time>2014-03-31T12:17:38Z</time>
  </trkpt>
  <trkpt lat="33.401243" lon="-3.583341">
   <ele>896.00</ele>
   <time>2014-03-31T12:17:42Z</time>
  </trkpt>
  <trkpt lat="33.401008" lon="-3.583295">
   <ele>896.00</ele>
   <time>2014-03-31T12:17:46Z</time>
  </trkpt>
  <trkpt lat="33.400119" lon="-3.583033">
   <ele>895.00</ele>
   <time>2014-03-31T12:17:59Z</time>
  </trkpt>
  <trkpt lat="33.399754" lon="-3.582947">
   <ele>896.00</ele>
   <time>2014-03-31T12:18:07Z</time>
  </trkpt>
  <trkpt lat="33.399574" lon="-3.582883">
   <ele>896.00</ele>
   <time>2014-03-31T12:18:14Z</time>
  </trkpt>
  <trkpt lat="33.399375" lon="-3.582765">
   <ele>898.00</ele>
   <time>2014-03-31T12:18:19Z</time>
  </trkpt>
  <trkpt lat="33.399014" lon="-3.582526">
   <ele>900.00</ele>
   <time>2014-03-31T12:18:26Z</time>
  </trkpt>
  <trkpt lat="33.398794" lon="-3.582513">
   <ele>901.00</ele>
   <time>2014-03-31T12:18:30Z</time>
  </trkpt>
  <trkpt lat="33.398590" lon="-3.582657">
   <ele>901.00</ele>
   <time>2014-03-31T12:18:34Z</time>
  </trkpt>
  <trkpt lat="33.398478" lon="-3.582855">
   <ele>900.00</ele>
   <time>2014-03-31T12:18:37Z</time>
  </trkpt>
  <trkpt lat="33.398357" lon="-3.583064">
   <ele>898.00</ele>
   <time>2014-03-31T12:18:40Z</time>
  </trkpt>
  <trkpt lat="33.398211" lon="-3.583251">
   <ele>897.00</ele>
   <time>2014-03-31T12:18:43Z</time>
  </trkpt>
  <trkpt lat="33.398047" lon="-3.583409">
   <ele>897.00</ele>
   <time>2014-03-31T12:18:46Z</time>
  </trkpt>
  <trkpt lat="33.397870" lon="-3.583547">
   <ele>896.00</ele>
   <time>2014-03-31T12:18:49Z</time>
  </trkpt>
  <trkpt lat="33.397684" lon="-3.583668">
   <ele>896.00</ele>
   <time>2014-03-31T12:18:52Z</time>
  </trkpt>
  <trkpt lat="33.397485" lon="-3.583761">
   <ele>895.00</ele>
   <time>2014-03-31T12:18:55Z</time>
  </trkpt>
  <trkpt lat="33.397277" lon="-3.583825">
   <ele>895.00</ele>
   <time>2014-03-31T12:18:58Z</time>
  </trkpt>
  <trkpt lat="33.397068" lon="-3.583859">
   <ele>895.00</ele>
   <time>2014-03-31T12:19:01Z</time>
  </trkpt>
  <trkpt lat="33.396872" lon="-3.583882">
   <ele>896.00</ele>
   <time>2014-03-31T12:19:04Z</time>
  </trkpt>
  <trkpt lat="33.396668" lon="-3.583958">
   <ele>896.00</ele>
   <time>2014-03-31T12:19:08Z</time>
  </trkpt>
  <trkpt lat="33.396491" lon="-3.584022">
   <ele>897.00</ele>
   <time>2014-03-31T12:19:15Z</time>
  </trkpt>
  <trkpt lat="33.396513" lon="-3.583782">
   <ele>897.00</ele>
   <time>2014-03-31T12:19:26Z</time>
  </trkpt>
  <trkpt lat="33.396502" lon="-3.583551">
   <ele>897.00</ele>
   <time>2014-03-31T12:19:30Z</time>
  </trkpt>
  <trkpt lat="33.396469" lon="-3.583281">
   <ele>897.00</ele>
   <time>2014-03-31T12:19:34Z</time>
  </trkpt>
  <trkpt lat="33.396445" lon="-3.582946">
   <ele>897.00</ele>
   <time>2014-03-31T12:19:39Z</time>
  </trkpt>
  <trkpt lat="33.396456" lon="-3.582728">
   <ele>897.00</ele>
   <time>2014-03-31T12:19:42Z</time>
  </trkpt>
  <trkpt lat="33.396461" lon="-3.582504">
   <ele>897.00</ele>
   <time>2014-03-31T12:19:45Z</time>
  </trkpt>
  <trkpt lat="33.396453" lon="-3.582191">
   <ele>898.00</ele>
   <time>2014-03-31T12:19:49Z</time>
  </trkpt>
  <trkpt lat="33.396441" lon="-3.581874">
   <ele>899.00</ele>
   <time>2014-03-31T12:19:53Z</time>
  </trkpt>
  <trkpt lat="33.396450" lon="-3.581396">
   <ele>900.00</ele>
   <time>2014-03-31T12:19:59Z</time>
  </trkpt>
  <trkpt lat="33.396474" lon="-3.581146">
   <ele>900.00</ele>
   <time>2014-03-31T12:20:02Z</time>
  </trkpt>
  <trkpt lat="33.396515" lon="-3.580899">
   <ele>901.00</ele>
   <time>2014-03-31T12:20:05Z</time>
  </trkpt>
  <trkpt lat="33.396630" lon="-3.580672">
   <ele>900.00</ele>
   <time>2014-03-31T12:20:08Z</time>
  </trkpt>
  <trkpt lat="33.396781" lon="-3.580440">
   <ele>899.00</ele>
   <time>2014-03-31T12:20:11Z</time>
  </trkpt>
  <trkpt lat="33.396963" lon="-3.580085">
   <ele>899.00</ele>
   <time>2014-03-31T12:20:15Z</time>
  </trkpt>
  <trkpt lat="33.397411" lon="-3.579360">
   <ele>898.00</ele>
   <time>2014-03-31T12:20:24Z</time>
  </trkpt>
  <trkpt lat="33.398159" lon="-3.578007">
   <ele>898.00</ele>
   <time>2014-03-31T12:20:38Z</time>
  </trkpt>
  <trkpt lat="33.398289" lon="-3.577806">
   <ele>898.00</ele>
   <time>2014-03-31T12:20:40Z</time>
  </trkpt>
  <trkpt lat="33.398543" lon="-3.577429">
   <ele>898.00</ele>
   <time>2014-03-31T12:20:44Z</time>
  </trkpt>
  <trkpt lat="33.398649" lon="-3.577234">
   <ele>898.00</ele>
   <time>2014-03-31T12:20:46Z</time>
  </trkpt>
  <trkpt lat="33.398858" lon="-3.576839">
   <ele>899.00</ele>
   <time>2014-03-31T12:20:50Z</time>
  </trkpt>
  <trkpt lat="33.398974" lon="-3.576650">
   <ele>900.00</ele>
   <time>2014-03-31T12:20:52Z</time>
  </trkpt>
  <trkpt lat="33.399101" lon="-3.576467">
   <ele>900.00</ele>
   <time>2014-03-31T12:20:54Z</time>
  </trkpt>
  <trkpt lat="33.399232" lon="-3.576292">
   <ele>900.00</ele>
   <time>2014-03-31T12:20:56Z</time>
  </trkpt>
  <trkpt lat="33.399368" lon="-3.576135">
   <ele>900.00</ele>
   <time>2014-03-31T12:20:58Z</time>
  </trkpt>
  <trkpt lat="33.399498" lon="-3.575978">
   <ele>900.00</ele>
   <time>2014-03-31T12:21:00Z</time>
  </trkpt>
  <trkpt lat="33.399616" lon="-3.575812">
   <ele>899.00</ele>
   <time>2014-03-31T12:21:02Z</time>
  </trkpt>
  <trkpt lat="33.399724" lon="-3.575631">
   <ele>899.00</ele>
   <time>2014-03-31T12:21:04Z</time>
  </trkpt>
  <trkpt lat="33.399911" lon="-3.575306">
   <ele>900.00</ele>
   <time>2014-03-31T12:21:10Z</time>
  </trkpt>
  <trkpt lat="33.399812" lon="-3.575481">
   <ele>900.00</ele>
   <time>2014-03-31T12:21:17Z</time>
  </trkpt>
  <trkpt lat="33.399672" lon="-3.575718">
   <ele>900.00</ele>
   <time>2014-03-31T12:21:24Z</time>
  </trkpt>
  <trkpt lat="33.399607" lon="-3.575529">
   <ele>900.00</ele>
   <time>2014-03-31T12:21:31Z</time>
  </trkpt>
  <trkpt lat="33.399512" lon="-3.575314">
   <ele>901.00</ele>
   <time>2014-03-31T12:21:35Z</time>
  </trkpt>
  <trkpt lat="33.399495" lon="-3.575017">
   <ele>901.00</ele>
   <time>2014-03-31T12:21:39Z</time>
  </trkpt>
  <trkpt lat="33.399443" lon="-3.574770">
   <ele>901.00</ele>
   <time>2014-03-31T12:21:42Z</time>
  </trkpt>
  <trkpt lat="33.399365" lon="-3.574523">
   <ele>902.00</ele>
   <time>2014-03-31T12:21:45Z</time>
  </trkpt>
  <trkpt lat="33.399248" lon="-3.574216">
   <ele>903.00</ele>
   <time>2014-03-31T12:21:49Z</time>
  </trkpt>
  <trkpt lat="33.399198" lon="-3.573971">
   <ele>903.00</ele>
   <time>2014-03-31T12:21:52Z</time>
  </trkpt>
  <trkpt lat="33.399140" lon="-3.573700">
   <ele>904.00</ele>
   <time>2014-03-31T12:21:55Z</time>
  </trkpt>
  <trkpt lat="33.399092" lon="-3.573433">
   <ele>905.00</ele>
   <time>2014-03-31T12:21:58Z</time>
  </trkpt>
  <trkpt lat="33.399058" lon="-3.573167">
   <ele>906.00</ele>
   <time>2014-03-31T12:22:01Z</time>
  </trkpt>
  <trkpt lat="33.398978" lon="-3.572923">
   <ele>907.00</ele>
   <time>2014-03-31T12:22:04Z</time>
  </trkpt>
  <trkpt lat="33.398924" lon="-3.572669">
   <ele>908.00</ele>
   <time>2014-03-31T12:22:07Z</time>
  </trkpt>
  <trkpt lat="33.398891" lon="-3.572126">
   <ele>908.00</ele>
   <time>2014-03-31T12:22:13Z</time>
  </trkpt>
  <trkpt lat="33.398802" lon="-3.571637">
   <ele>909.00</ele>
   <time>2014-03-31T12:22:18Z</time>
  </trkpt>
  <trkpt lat="33.398738" lon="-3.571323">
   <ele>909.00</ele>
   <time>2014-03-31T12:22:21Z</time>
  </trkpt>
  <trkpt lat="33.398668" lon="-3.571001">
   <ele>910.00</ele>
   <time>2014-03-31T12:22:24Z</time>
  </trkpt>
  <trkpt lat="33.398642" lon="-3.570781">
   <ele>910.00</ele>
   <time>2014-03-31T12:22:26Z</time>
  </trkpt>
  <trkpt lat="33.398613" lon="-3.570460">
   <ele>910.00</ele>
   <time>2014-03-31T12:22:29Z</time>
  </trkpt>
  <trkpt lat="33.398584" lon="-3.570150">
   <ele>911.00</ele>
   <time>2014-03-31T12:22:32Z</time>
  </trkpt>
  <trkpt lat="33.398551" lon="-3.569847">
   <ele>911.00</ele>
   <time>2014-03-31T12:22:35Z</time>
  </trkpt>
  <trkpt lat="33.398434" lon="-3.569266">
   <ele>912.00</ele>
   <time>2014-03-31T12:22:41Z</time>
  </trkpt>
  <trkpt lat="33.398402" lon="-3.569005">
   <ele>912.00</ele>
   <time>2014-03-31T12:22:44Z</time>
  </trkpt>
  <trkpt lat="33.398319" lon="-3.568767">
   <ele>913.00</ele>
   <time>2014-03-31T12:22:47Z</time>
  </trkpt>
  <trkpt lat="33.398228" lon="-3.568519">
   <ele>913.00</ele>
   <time>2014-03-31T12:22:50Z</time>
  </trkpt>
  <trkpt lat="33.398140" lon="-3.568278">
   <ele>914.00</ele>
   <time>2014-03-31T12:22:53Z</time>
  </trkpt>
  <trkpt lat="33.398040" lon="-3.568054">
   <ele>914.00</ele>
   <time>2014-03-31T12:22:56Z</time>
  </trkpt>
  <trkpt lat="33.397963" lon="-3.567829">
   <ele>915.00</ele>
   <time>2014-03-31T12:22:59Z</time>
  </trkpt>
  <trkpt lat="33.397838" lon="-3.567469">
   <ele>915.00</ele>
   <time>2014-03-31T12:23:04Z</time>
  </trkpt>
  <trkpt lat="33.397783" lon="-3.567237">
   <ele>915.00</ele>
   <time>2014-03-31T12:23:07Z</time>
  </trkpt>
  <trkpt lat="33.397731" lon="-3.567015">
   <ele>916.00</ele>
   <time>2014-03-31T12:23:10Z</time>
  </trkpt>
  <trkpt lat="33.397629" lon="-3.566643">
   <ele>917.00</ele>
   <time>2014-03-31T12:23:15Z</time>
  </trkpt>
  <trkpt lat="33.397559" lon="-3.566327">
   <ele>918.00</ele>
   <time>2014-03-31T12:23:19Z</time>
  </trkpt>
  <trkpt lat="33.397537" lon="-3.566065">
   <ele>919.00</ele>
   <time>2014-03-31T12:23:24Z</time>
  </trkpt>
  <trkpt lat="33.397438" lon="-3.565833">
   <ele>920.00</ele>
   <time>2014-03-31T12:23:29Z</time>
  </trkpt>
  <trkpt lat="33.397326" lon="-3.565612">
   <ele>919.00</ele>
   <time>2014-03-31T12:23:33Z</time>
  </trkpt>
  <trkpt lat="33.397213" lon="-3.565287">
   <ele>919.00</ele>
   <time>2014-03-31T12:23:38Z</time>
  </trkpt>
  <trkpt lat="33.397135" lon="-3.565075">
   <ele>920.00</ele>
   <time>2014-03-31T12:23:41Z</time>
  </trkpt>
  <trkpt lat="33.397075" lon="-3.564853">
   <ele>920.00</ele>
   <time>2014-03-31T12:23:44Z</time>
  </trkpt>
  <trkpt lat="33.397022" lon="-3.564580">
   <ele>920.00</ele>
   <time>2014-03-31T12:23:48Z</time>
  </trkpt>
  <trkpt lat="33.397005" lon="-3.564309">
   <ele>920.00</ele>
   <time>2014-03-31T12:23:52Z</time>
  </trkpt>
  <trkpt lat="33.397033" lon="-3.564058">
   <ele>919.00</ele>
   <time>2014-03-31T12:23:56Z</time>
  </trkpt>
  <trkpt lat="33.397107" lon="-3.563822">
   <ele>918.00</ele>
   <time>2014-03-31T12:24:00Z</time>
  </trkpt>
  <trkpt lat="33.397164" lon="-3.563589">
   <ele>918.00</ele>
   <time>2014-03-31T12:24:05Z</time>
  </trkpt>
  <trkpt lat="33.397163" lon="-3.563369">
   <ele>919.00</ele>
   <time>2014-03-31T12:24:10Z</time>
  </trkpt>
  <trkpt lat="33.397120" lon="-3.563139">
   <ele>919.00</ele>
   <time>2014-03-31T12:24:15Z</time>
  </trkpt>
  <trkpt lat="33.397064" lon="-3.562921">
   <ele>920.00</ele>
   <time>2014-03-31T12:24:19Z</time>
  </trkpt>
  <trkpt lat="33.397010" lon="-3.562695">
   <ele>921.00</ele>
   <time>2014-03-31T12:24:24Z</time>
  </trkpt>
  <trkpt lat="33.396918" lon="-3.562450">
   <ele>920.00</ele>
   <time>2014-03-31T12:24:30Z</time>
  </trkpt>
  <trkpt lat="33.396857" lon="-3.562214">
   <ele>920.00</ele>
   <time>2014-03-31T12:24:34Z</time>
  </trkpt>
  <trkpt lat="33.396823" lon="-3.561940">
   <ele>920.00</ele>
   <time>2014-03-31T12:24:38Z</time>
  </trkpt>
  <trkpt lat="33.396847" lon="-3.561684">
   <ele>920.00</ele>
   <time>2014-03-31T12:24:42Z</time>
  </trkpt>
  <trkpt lat="33.396877" lon="-3.561468">
   <ele>921.00</ele>
   <time>2014-03-31T12:24:47Z</time>
  </trkpt>
  <trkpt lat="33.396764" lon="-3.561254">
   <ele>921.00</ele>
   <time>2014-03-31T12:24:53Z</time>
  </trkpt>
  <trkpt lat="33.396585" lon="-3.561133">
   <ele>922.00</ele>
   <time>2014-03-31T12:24:57Z</time>
  </trkpt>
  <trkpt lat="33.396430" lon="-3.560973">
   <ele>922.00</ele>
   <time>2014-03-31T12:25:01Z</time>
  </trkpt>
  <trkpt lat="33.396331" lon="-3.560742">
   <ele>922.00</ele>
   <time>2014-03-31T12:25:05Z</time>
  </trkpt>
  <trkpt lat="33.396236" lon="-3.560543">
   <ele>922.00</ele>
   <time>2014-03-31T12:25:09Z</time>
  </trkpt>
  <trkpt lat="33.396093" lon="-3.560327">
   <ele>922.00</ele>
   <time>2014-03-31T12:25:13Z</time>
  </trkpt>
  <trkpt lat="33.395949" lon="-3.560011">
   <ele>922.00</ele>
   <time>2014-03-31T12:25:18Z</time>
  </trkpt>
  <trkpt lat="33.395803" lon="-3.559760">
   <ele>922.00</ele>
   <time>2014-03-31T12:25:22Z</time>
  </trkpt>
  <trkpt lat="33.395668" lon="-3.559446">
   <ele>923.00</ele>
   <time>2014-03-31T12:25:27Z</time>
  </trkpt>
  <trkpt lat="33.395528" lon="-3.559230">
   <ele>923.00</ele>
   <time>2014-03-31T12:25:31Z</time>
  </trkpt>
  <trkpt lat="33.395407" lon="-3.559063">
   <ele>923.00</ele>
   <time>2014-03-31T12:25:34Z</time>
  </trkpt>
  <trkpt lat="33.395255" lon="-3.558910">
   <ele>924.00</ele>
   <time>2014-03-31T12:25:37Z</time>
  </trkpt>
  <trkpt lat="33.395061" lon="-3.558794">
   <ele>924.00</ele>
   <time>2014-03-31T12:25:40Z</time>
  </trkpt>
  <trkpt lat="33.394738" lon="-3.558626">
   <ele>925.00</ele>
   <time>2014-03-31T12:25:45Z</time>
  </trkpt>
  <trkpt lat="33.394555" lon="-3.558553">
   <ele>926.00</ele>
   <time>2014-03-31T12:25:49Z</time>
  </trkpt>
  <trkpt lat="33.394386" lon="-3.558398">
   <ele>926.00</ele>
   <time>2014-03-31T12:25:53Z</time>
  </trkpt>
  <trkpt lat="33.394272" lon="-3.558211">
   <ele>926.00</ele>
   <time>2014-03-31T12:25:56Z</time>
  </trkpt>
  <trkpt lat="33.394160" lon="-3.558038">
   <ele>926.00</ele>
   <time>2014-03-31T12:25:59Z</time>
  </trkpt>
  <trkpt lat="33.394018" lon="-3.557824">
   <ele>926.00</ele>
   <time>2014-03-31T12:26:03Z</time>
  </trkpt>
  <trkpt lat="33.393910" lon="-3.557641">
   <ele>926.00</ele>
   <time>2014-03-31T12:26:06Z</time>
  </trkpt>
  <trkpt lat="33.393797" lon="-3.557455">
   <ele>926.00</ele>
   <time>2014-03-31T12:26:09Z</time>
  </trkpt>
  <trkpt lat="33.393630" lon="-3.557230">
   <ele>926.00</ele>
   <time>2014-03-31T12:26:13Z</time>
  </trkpt>
  <trkpt lat="33.393553" lon="-3.556971">
   <ele>927.00</ele>
   <time>2014-03-31T12:26:17Z</time>
  </trkpt>
  <trkpt lat="33.393444" lon="-3.556760">
   <ele>927.00</ele>
   <time>2014-03-31T12:26:21Z</time>
  </trkpt>
  <trkpt lat="33.393301" lon="-3.556611">
   <ele>927.00</ele>
   <time>2014-03-31T12:26:25Z</time>
  </trkpt>
  <trkpt lat="33.393188" lon="-3.556409">
   <ele>927.00</ele>
   <time>2014-03-31T12:26:29Z</time>
  </trkpt>
  <trkpt lat="33.393056" lon="-3.556255">
   <ele>927.00</ele>
   <time>2014-03-31T12:26:33Z</time>
  </trkpt>
  <trkpt lat="33.392910" lon="-3.556113">
   <ele>927.00</ele>
   <time>2014-03-31T12:26:37Z</time>
  </trkpt>
  <trkpt lat="33.392790" lon="-3.555931">
   <ele>927.00</ele>
   <time>2014-03-31T12:26:41Z</time>
  </trkpt>
  <trkpt lat="33.392627" lon="-3.555784">
   <ele>926.00</ele>
   <time>2014-03-31T12:26:46Z</time>
  </trkpt>
  <trkpt lat="33.392460" lon="-3.555817">
   <ele>923.00</ele>
   <time>2014-03-31T12:26:51Z</time>
  </trkpt>
  <trkpt lat="33.392412" lon="-3.556054">
   <ele>920.00</ele>
   <time>2014-03-31T12:26:55Z</time>
  </trkpt>
  <trkpt lat="33.392398" lon="-3.556387">
   <ele>918.00</ele>
   <time>2014-03-31T12:27:00Z</time>
  </trkpt>
  <trkpt lat="33.392226" lon="-3.556421">
   <ele>916.00</ele>
   <time>2014-03-31T12:27:09Z</time>
  </trkpt>
  <trkpt lat="33.392143" lon="-3.556203">
   <ele>915.00</ele>
   <time>2014-03-31T12:27:16Z</time>
  </trkpt>
  <trkpt lat="33.392080" lon="-3.555964">
   <ele>915.00</ele>
   <time>2014-03-31T12:27:21Z</time>
  </trkpt>
  <trkpt lat="33.391994" lon="-3.555774">
   <ele>916.00</ele>
   <time>2014-03-31T12:27:25Z</time>
  </trkpt>
  <trkpt lat="33.391938" lon="-3.555567">
   <ele>917.00</ele>
   <time>2014-03-31T12:27:29Z</time>
  </trkpt>
  <trkpt lat="33.391934" lon="-3.555330">
   <ele>917.00</ele>
   <time>2014-03-31T12:27:33Z</time>
  </trkpt>
  <trkpt lat="33.391951" lon="-3.555081">
   <ele>918.00</ele>
   <time>2014-03-31T12:27:37Z</time>
  </trkpt>
  <trkpt lat="33.391943" lon="-3.554824">
   <ele>920.00</ele>
   <time>2014-03-31T12:27:42Z</time>
  </trkpt>
  <trkpt lat="33.391865" lon="-3.554625">
   <ele>921.00</ele>
   <time>2014-03-31T12:27:49Z</time>
  </trkpt>
  <trkpt lat="33.391866" lon="-3.554623">
   <ele>923.00</ele>
   <time>2014-03-31T12:28:04Z</time>
  </trkpt>
  <trkpt lat="33.391866" lon="-3.554622">
   <ele>925.00</ele>
   <time>2014-03-31T12:28:19Z</time>
  </trkpt>
  <trkpt lat="33.391866" lon="-3.554617">
   <ele>925.00</ele>
   <time>2014-03-31T12:28:35Z</time>
  </trkpt>
  <trkpt lat="33.391871" lon="-3.554662">
   <ele>918.00</ele>
   <time>2014-03-31T12:28:50Z</time>
  </trkpt>
  <trkpt lat="33.391872" lon="-3.554666">
   <ele>917.00</ele>
   <time>2014-03-31T12:29:06Z</time>
  </trkpt>
  <trkpt lat="33.391872" lon="-3.554670">
   <ele>917.00</ele>
   <time>2014-03-31T12:29:21Z</time>
  </trkpt>
  <trkpt lat="33.391871" lon="-3.554657">
   <ele>918.00</ele>
   <time>2014-03-31T12:29:36Z</time>
  </trkpt>
  <trkpt lat="33.391868" lon="-3.554644">
   <ele>920.00</ele>
   <time>2014-03-31T12:29:52Z</time>
  </trkpt>
  <trkpt lat="33.391865" lon="-3.554640">
   <ele>921.00</ele>
   <time>2014-03-31T12:30:07Z</time>
  </trkpt>
  <trkpt lat="33.391867" lon="-3.554631">
   <ele>921.00</ele>
   <time>2014-03-31T12:30:22Z</time>
  </trkpt>
  <trkpt lat="33.391867" lon="-3.554621">
   <ele>922.00</ele>
   <time>2014-03-31T12:30:38Z</time>
  </trkpt>
  <trkpt lat="33.391871" lon="-3.554637">
   <ele>920.00</ele>
   <time>2014-03-31T12:30:53Z</time>
  </trkpt>
  <trkpt lat="33.391871" lon="-3.554635">
   <ele>920.00</ele>
   <time>2014-03-31T12:31:08Z</time>
  </trkpt>
  <trkpt lat="33.391866" lon="-3.554638">
   <ele>921.00</ele>
   <time>2014-03-31T12:31:24Z</time>
  </trkpt>
  <trkpt lat="33.391868" lon="-3.554631">
   <ele>923.00</ele>
   <time>2014-03-31T12:31:39Z</time>
  </trkpt>
  <trkpt lat="33.391807" lon="-3.554418">
   <ele>924.00</ele>
   <time>2014-03-31T12:31:48Z</time>
  </trkpt>
  <trkpt lat="33.391701" lon="-3.554211">
   <ele>924.00</ele>
   <time>2014-03-31T12:31:54Z</time>
  </trkpt>
  <trkpt lat="33.391529" lon="-3.554068">
   <ele>924.00</ele>
   <time>2014-03-31T12:31:59Z</time>
  </trkpt>
  <trkpt lat="33.391354" lon="-3.553933">
   <ele>925.00</ele>
   <time>2014-03-31T12:32:04Z</time>
  </trkpt>
  <trkpt lat="33.391145" lon="-3.553878">
   <ele>926.00</ele>
   <time>2014-03-31T12:32:09Z</time>
  </trkpt>
  <trkpt lat="33.390966" lon="-3.553797">
   <ele>927.00</ele>
   <time>2014-03-31T12:32:14Z</time>
  </trkpt>
  <trkpt lat="33.390890" lon="-3.553596">
   <ele>927.00</ele>
   <time>2014-03-31T12:32:18Z</time>
  </trkpt>
  <trkpt lat="33.390774" lon="-3.553363">
   <ele>928.00</ele>
   <time>2014-03-31T12:32:22Z</time>
  </trkpt>
  <trkpt lat="33.390647" lon="-3.553184">
   <ele>928.00</ele>
   <time>2014-03-31T12:32:25Z</time>
  </trkpt>
  <trkpt lat="33.390484" lon="-3.553010">
   <ele>929.00</ele>
   <time>2014-03-31T12:32:28Z</time>
  </trkpt>
  <trkpt lat="33.390306" lon="-3.552840">
   <ele>930.00</ele>
   <time>2014-03-31T12:32:31Z</time>
  </trkpt>
  <trkpt lat="33.390110" lon="-3.552713">
   <ele>929.00</ele>
   <time>2014-03-31T12:32:34Z</time>
  </trkpt>
  <trkpt lat="33.389893" lon="-3.552595">
   <ele>930.00</ele>
   <time>2014-03-31T12:32:37Z</time>
  </trkpt>
  <trkpt lat="33.389686" lon="-3.552459">
   <ele>931.00</ele>
   <time>2014-03-31T12:32:40Z</time>
  </trkpt>
  <trkpt lat="33.389532" lon="-3.552268">
   <ele>931.00</ele>
   <time>2014-03-31T12:32:43Z</time>
  </trkpt>
  <trkpt lat="33.389422" lon="-3.552021">
   <ele>932.00</ele>
   <time>2014-03-31T12:32:46Z</time>
  </trkpt>
  <trkpt lat="33.389317" lon="-3.551777">
   <ele>933.00</ele>
   <time>2014-03-31T12:32:49Z</time>
  </trkpt>
  <trkpt lat="33.389161" lon="-3.551576">
   <ele>933.00</ele>
   <time>2014-03-31T12:32:52Z</time>
  </trkpt>
  <trkpt lat="33.388994" lon="-3.551387">
   <ele>934.00</ele>
   <time>2014-03-31T12:32:55Z</time>
  </trkpt>
  <trkpt lat="33.388864" lon="-3.551171">
   <ele>934.00</ele>
   <time>2014-03-31T12:32:58Z</time>
  </trkpt>
  <trkpt lat="33.388763" lon="-3.550931">
   <ele>935.00</ele>
   <time>2014-03-31T12:33:01Z</time>
  </trkpt>
  <trkpt lat="33.388686" lon="-3.550682">
   <ele>935.00</ele>
   <time>2014-03-31T12:33:04Z</time>
  </trkpt>
  <trkpt lat="33.388595" lon="-3.550426">
   <ele>936.00</ele>
   <time>2014-03-31T12:33:07Z</time>
  </trkpt>
  <trkpt lat="33.388497" lon="-3.550160">
   <ele>936.00</ele>
   <time>2014-03-31T12:33:10Z</time>
  </trkpt>
  <trkpt lat="33.388278" lon="-3.549630">
   <ele>938.00</ele>
   <time>2014-03-31T12:33:16Z</time>
  </trkpt>
  <trkpt lat="33.388371" lon="-3.549397">
   <ele>938.00</ele>
   <time>2014-03-31T12:33:19Z</time>
  </trkpt>
  <trkpt lat="33.388519" lon="-3.549193">
   <ele>937.00</ele>
   <time>2014-03-31T12:33:22Z</time>
  </trkpt>
  <trkpt lat="33.388588" lon="-3.548909">
   <ele>937.00</ele>
   <time>2014-03-31T12:33:25Z</time>
  </trkpt>
  <trkpt lat="33.388656" lon="-3.548633">
   <ele>937.00</ele>
   <time>2014-03-31T12:33:28Z</time>
  </trkpt>
  <trkpt lat="33.388775" lon="-3.548340">
   <ele>938.00</ele>
   <time>2014-03-31T12:33:32Z</time>
  </trkpt>
  <trkpt lat="33.388934" lon="-3.547759">
   <ele>938.00</ele>
   <time>2014-03-31T12:33:48Z</time>
  </trkpt>
  <trkpt lat="33.389008" lon="-3.547527">
   <ele>937.00</ele>
   <time>2014-03-31T12:33:52Z</time>
  </trkpt>
  <trkpt lat="33.389064" lon="-3.547307">
   <ele>937.00</ele>
   <time>2014-03-31T12:33:55Z</time>
  </trkpt>
  <trkpt lat="33.389131" lon="-3.547105">
   <ele>938.00</ele>
   <time>2014-03-31T12:33:58Z</time>
  </trkpt>
  <trkpt lat="33.389160" lon="-3.546859">
   <ele>939.00</ele>
   <time>2014-03-31T12:34:02Z</time>
  </trkpt>
  <trkpt lat="33.389302" lon="-3.546736">
   <ele>937.00</ele>
   <time>2014-03-31T12:34:06Z</time>
  </trkpt>
  <trkpt lat="33.389542" lon="-3.546602">
   <ele>934.00</ele>
   <time>2014-03-31T12:34:11Z</time>
  </trkpt>
  <trkpt lat="33.389737" lon="-3.546438">
   <ele>933.00</ele>
   <time>2014-03-31T12:34:15Z</time>
  </trkpt>
  <trkpt lat="33.389925" lon="-3.546272">
   <ele>932.00</ele>
   <time>2014-03-31T12:34:19Z</time>
  </trkpt>
  <trkpt lat="33.390066" lon="-3.546087">
   <ele>931.00</ele>
   <time>2014-03-31T12:34:23Z</time>
  </trkpt>
  <trkpt lat="33.390133" lon="-3.545845">
   <ele>932.00</ele>
   <time>2014-03-31T12:34:27Z</time>
  </trkpt>
  <trkpt lat="33.390195" lon="-3.545611">
   <ele>934.00</ele>
   <time>2014-03-31T12:34:31Z</time>
  </trkpt>
  <trkpt lat="33.390140" lon="-3.545401">
   <ele>936.00</ele>
   <time>2014-03-31T12:34:36Z</time>
  </trkpt>
  <trkpt lat="33.389993" lon="-3.545216">
   <ele>937.00</ele>
   <time>2014-03-31T12:34:42Z</time>
  </trkpt>
  <trkpt lat="33.389708" lon="-3.544847">
   <ele>938.00</ele>
   <time>2014-03-31T12:34:49Z</time>
  </trkpt>
  <trkpt lat="33.389458" lon="-3.544572">
   <ele>939.00</ele>
   <time>2014-03-31T12:34:55Z</time>
  </trkpt>
  <trkpt lat="33.389297" lon="-3.544379">
   <ele>940.00</ele>
   <time>2014-03-31T12:34:59Z</time>
  </trkpt>
  <trkpt lat="33.389130" lon="-3.544192">
   <ele>941.00</ele>
   <time>2014-03-31T12:35:03Z</time>
  </trkpt>
  <trkpt lat="33.388939" lon="-3.544022">
   <ele>942.00</ele>
   <time>2014-03-31T12:35:07Z</time>
  </trkpt>
  <trkpt lat="33.388775" lon="-3.543908">
   <ele>941.00</ele>
   <time>2014-03-31T12:35:10Z</time>
  </trkpt>
  <trkpt lat="33.388618" lon="-3.543774">
   <ele>941.00</ele>
   <time>2014-03-31T12:35:13Z</time>
  </trkpt>
  <trkpt lat="33.388341" lon="-3.543584">
   <ele>943.00</ele>
   <time>2014-03-31T12:35:18Z</time>
  </trkpt>
  <trkpt lat="33.388193" lon="-3.543427">
   <ele>944.00</ele>
   <time>2014-03-31T12:35:22Z</time>
  </trkpt>
  <trkpt lat="33.388259" lon="-3.543229">
   <ele>943.00</ele>
   <time>2014-03-31T12:35:26Z</time>
  </trkpt>
  <trkpt lat="33.388530" lon="-3.542803">
   <ele>938.00</ele>
   <time>2014-03-31T12:35:34Z</time>
  </trkpt>
  <trkpt lat="33.388689" lon="-3.542635">
   <ele>936.00</ele>
   <time>2014-03-31T12:35:39Z</time>
  </trkpt>
  <trkpt lat="33.388760" lon="-3.542466">
   <ele>934.00</ele>
   <time>2014-03-31T12:35:53Z</time>
  </trkpt>
  <trkpt lat="33.388612" lon="-3.542362">
   <ele>935.00</ele>
   <time>2014-03-31T12:35:59Z</time>
  </trkpt>
  <trkpt lat="33.388431" lon="-3.542275">
   <ele>935.00</ele>
   <time>2014-03-31T12:36:04Z</time>
  </trkpt>
  <trkpt lat="33.388261" lon="-3.542133">
   <ele>935.00</ele>
   <time>2014-03-31T12:36:09Z</time>
  </trkpt>
  <trkpt lat="33.388190" lon="-3.542012">
   <ele>938.00</ele>
   <time>2014-03-31T12:36:25Z</time>
  </trkpt>
  <trkpt lat="33.388216" lon="-3.542070">
   <ele>940.00</ele>
   <time>2014-03-31T12:36:40Z</time>
  </trkpt>
  <trkpt lat="33.388356" lon="-3.542221">
   <ele>935.00</ele>
   <time>2014-03-31T12:36:54Z</time>
  </trkpt>
  <trkpt lat="33.388512" lon="-3.542351">
   <ele>934.00</ele>
   <time>2014-03-31T12:37:00Z</time>
  </trkpt>
  <trkpt lat="33.388711" lon="-3.542423">
   <ele>933.00</ele>
   <time>2014-03-31T12:37:07Z</time>
  </trkpt>
  <trkpt lat="33.388732" lon="-3.542603">
   <ele>933.00</ele>
   <time>2014-03-31T12:37:14Z</time>
  </trkpt>
  <trkpt lat="33.388587" lon="-3.542761">
   <ele>936.00</ele>
   <time>2014-03-31T12:37:22Z</time>
  </trkpt>
  <trkpt lat="33.388463" lon="-3.542959">
   <ele>936.00</ele>
   <time>2014-03-31T12:37:29Z</time>
  </trkpt>
  <trkpt lat="33.388356" lon="-3.543132">
   <ele>937.00</ele>
   <time>2014-03-31T12:37:34Z</time>
  </trkpt>
  <trkpt lat="33.388241" lon="-3.543312">
   <ele>936.00</ele>
   <time>2014-03-31T12:37:38Z</time>
  </trkpt>
  <trkpt lat="33.388215" lon="-3.543532">
   <ele>937.00</ele>
   <time>2014-03-31T12:37:43Z</time>
  </trkpt>
  <trkpt lat="33.388365" lon="-3.543668">
   <ele>936.00</ele>
   <time>2014-03-31T12:37:47Z</time>
  </trkpt>
  <trkpt lat="33.388548" lon="-3.543789">
   <ele>935.00</ele>
   <time>2014-03-31T12:37:51Z</time>
  </trkpt>
  <trkpt lat="33.388736" lon="-3.543925">
   <ele>934.00</ele>
   <time>2014-03-31T12:37:55Z</time>
  </trkpt>
  <trkpt lat="33.388923" lon="-3.544075">
   <ele>933.00</ele>
   <time>2014-03-31T12:37:59Z</time>
  </trkpt>
  <trkpt lat="33.389099" lon="-3.544225">
   <ele>933.00</ele>
   <time>2014-03-31T12:38:03Z</time>
  </trkpt>
  <trkpt lat="33.389267" lon="-3.544405">
   <ele>932.00</ele>
   <time>2014-03-31T12:38:07Z</time>
  </trkpt>
  <trkpt lat="33.389428" lon="-3.544601">
   <ele>931.00</ele>
   <time>2014-03-31T12:38:11Z</time>
  </trkpt>
  <trkpt lat="33.389575" lon="-3.544774">
   <ele>930.00</ele>
   <time>2014-03-31T12:38:15Z</time>
  </trkpt>
  <trkpt lat="33.389720" lon="-3.544930">
   <ele>930.00</ele>
   <time>2014-03-31T12:38:19Z</time>
  </trkpt>
  <trkpt lat="33.389852" lon="-3.545113">
   <ele>929.00</ele>
   <time>2014-03-31T12:38:23Z</time>
  </trkpt>
  <trkpt lat="33.390028" lon="-3.545356">
   <ele>929.00</ele>
   <time>2014-03-31T12:38:30Z</time>
  </trkpt>
  <trkpt lat="33.390191" lon="-3.545253">
   <ele>927.00</ele>
   <time>2014-03-31T12:38:40Z</time>
  </trkpt>
  <trkpt lat="33.390327" lon="-3.545111">
   <ele>927.00</ele>
   <time>2014-03-31T12:38:48Z</time>
  </trkpt>
  <trkpt lat="33.390546" lon="-3.544842">
   <ele>926.00</ele>
   <time>2014-03-31T12:38:59Z</time>
  </trkpt>
  <trkpt lat="33.390710" lon="-3.544692">
   <ele>926.00</ele>
   <time>2014-03-31T12:39:05Z</time>
  </trkpt>
  <trkpt lat="33.390840" lon="-3.544758">
   <ele>927.00</ele>
   <time>2014-03-31T12:39:18Z</time>
  </trkpt>
  <trkpt lat="33.390642" lon="-3.544848">
   <ele>928.00</ele>
   <time>2014-03-31T12:39:27Z</time>
  </trkpt>
  <trkpt lat="33.390479" lon="-3.544954">
   <ele>929.00</ele>
   <time>2014-03-31T12:39:31Z</time>
  </trkpt>
  <trkpt lat="33.390338" lon="-3.545104">
   <ele>929.00</ele>
   <time>2014-03-31T12:39:39Z</time>
  </trkpt>
  <trkpt lat="33.390190" lon="-3.545249">
   <ele>929.00</ele>
   <time>2014-03-31T12:39:47Z</time>
  </trkpt>
  <trkpt lat="33.390093" lon="-3.545414">
   <ele>932.00</ele>
   <time>2014-03-31T12:39:56Z</time>
  </trkpt>
  <trkpt lat="33.390173" lon="-3.545604">
   <ele>931.00</ele>
   <time>2014-03-31T12:40:04Z</time>
  </trkpt>
  <trkpt lat="33.390115" lon="-3.545855">
   <ele>931.00</ele>
   <time>2014-03-31T12:40:10Z</time>
  </trkpt>
  <trkpt lat="33.390053" lon="-3.546073">
   <ele>930.00</ele>
   <time>2014-03-31T12:40:15Z</time>
  </trkpt>
  <trkpt lat="33.389953" lon="-3.546255">
   <ele>930.00</ele>
   <time>2014-03-31T12:40:23Z</time>
  </trkpt>
  <trkpt lat="33.389795" lon="-3.546403">
   <ele>930.00</ele>
   <time>2014-03-31T12:40:28Z</time>
  </trkpt>
  <trkpt lat="33.389629" lon="-3.546562">
   <ele>932.00</ele>
   <time>2014-03-31T12:40:32Z</time>
  </trkpt>
  <trkpt lat="33.389441" lon="-3.546708">
   <ele>933.00</ele>
   <time>2014-03-31T12:40:36Z</time>
  </trkpt>
  <trkpt lat="33.389170" lon="-3.546872">
   <ele>933.00</ele>
   <time>2014-03-31T12:40:42Z</time>
  </trkpt>
  <trkpt lat="33.389125" lon="-3.547120">
   <ele>933.00</ele>
   <time>2014-03-31T12:40:47Z</time>
  </trkpt>
  <trkpt lat="33.389055" lon="-3.547347">
   <ele>932.00</ele>
   <time>2014-03-31T12:40:51Z</time>
  </trkpt>
  <trkpt lat="33.388989" lon="-3.547605">
   <ele>932.00</ele>
   <time>2014-03-31T12:40:55Z</time>
  </trkpt>
  <trkpt lat="33.388918" lon="-3.547821">
   <ele>931.00</ele>
   <time>2014-03-31T12:40:59Z</time>
  </trkpt>
  <trkpt lat="33.388851" lon="-3.548022">
   <ele>929.00</ele>
   <time>2014-03-31T12:41:07Z</time>
  </trkpt>
  <trkpt lat="33.388763" lon="-3.548311">
   <ele>928.00</ele>
   <time>2014-03-31T12:41:21Z</time>
  </trkpt>
  <trkpt lat="33.388699" lon="-3.548524">
   <ele>930.00</ele>
   <time>2014-03-31T12:41:27Z</time>
  </trkpt>
  <trkpt lat="33.388611" lon="-3.548720">
   <ele>930.00</ele>
   <time>2014-03-31T12:41:31Z</time>
  </trkpt>
  <trkpt lat="33.388554" lon="-3.548963">
   <ele>929.00</ele>
   <time>2014-03-31T12:41:35Z</time>
  </trkpt>
  <trkpt lat="33.388533" lon="-3.549219">
   <ele>929.00</ele>
   <time>2014-03-31T12:41:39Z</time>
  </trkpt>
  <trkpt lat="33.388557" lon="-3.549562">
   <ele>928.00</ele>
   <time>2014-03-31T12:41:44Z</time>
  </trkpt>
  <trkpt lat="33.388557" lon="-3.549779">
   <ele>927.00</ele>
   <time>2014-03-31T12:41:47Z</time>
  </trkpt>
  <trkpt lat="33.388558" lon="-3.550072">
   <ele>926.00</ele>
   <time>2014-03-31T12:41:51Z</time>
  </trkpt>
  <trkpt lat="33.388598" lon="-3.550441">
   <ele>926.00</ele>
   <time>2014-03-31T12:41:56Z</time>
  </trkpt>
  <trkpt lat="33.388651" lon="-3.550658">
   <ele>925.00</ele>
   <time>2014-03-31T12:41:59Z</time>
  </trkpt>
  <trkpt lat="33.388749" lon="-3.550865">
   <ele>924.00</ele>
   <time>2014-03-31T12:42:02Z</time>
  </trkpt>
  <trkpt lat="33.389127" lon="-3.551484">
   <ele>923.00</ele>
   <time>2014-03-31T12:42:11Z</time>
  </trkpt>
  <trkpt lat="33.389376" lon="-3.551978">
   <ele>922.00</ele>
   <time>2014-03-31T12:42:18Z</time>
  </trkpt>
  <trkpt lat="33.389542" lon="-3.552369">
   <ele>921.00</ele>
   <time>2014-03-31T12:42:23Z</time>
  </trkpt>
  <trkpt lat="33.389693" lon="-3.552540">
   <ele>920.00</ele>
   <time>2014-03-31T12:42:26Z</time>
  </trkpt>
  <trkpt lat="33.389884" lon="-3.552662">
   <ele>920.00</ele>
   <time>2014-03-31T12:42:29Z</time>
  </trkpt>
  <trkpt lat="33.390083" lon="-3.552770">
   <ele>919.00</ele>
   <time>2014-03-31T12:42:32Z</time>
  </trkpt>
  <trkpt lat="33.390258" lon="-3.552869">
   <ele>919.00</ele>
   <time>2014-03-31T12:42:35Z</time>
  </trkpt>
  <trkpt lat="33.390402" lon="-3.553000">
   <ele>918.00</ele>
   <time>2014-03-31T12:42:38Z</time>
  </trkpt>
  <trkpt lat="33.390560" lon="-3.553152">
   <ele>918.00</ele>
   <time>2014-03-31T12:42:41Z</time>
  </trkpt>
  <trkpt lat="33.390710" lon="-3.553342">
   <ele>917.00</ele>
   <time>2014-03-31T12:42:44Z</time>
  </trkpt>
  <trkpt lat="33.390832" lon="-3.553560">
   <ele>917.00</ele>
   <time>2014-03-31T12:42:47Z</time>
  </trkpt>
  <trkpt lat="33.390930" lon="-3.553797">
   <ele>916.00</ele>
   <time>2014-03-31T12:42:51Z</time>
  </trkpt>
  <trkpt lat="33.391095" lon="-3.553928">
   <ele>916.00</ele>
   <time>2014-03-31T12:42:56Z</time>
  </trkpt>
  <trkpt lat="33.391318" lon="-3.553979">
   <ele>914.00</ele>
   <time>2014-03-31T12:43:01Z</time>
  </trkpt>
  <trkpt lat="33.391495" lon="-3.554104">
   <ele>913.00</ele>
   <time>2014-03-31T12:43:06Z</time>
  </trkpt>
  <trkpt lat="33.391658" lon="-3.554249">
   <ele>912.00</ele>
   <time>2014-03-31T12:43:11Z</time>
  </trkpt>
  <trkpt lat="33.391777" lon="-3.554444">
   <ele>911.00</ele>
   <time>2014-03-31T12:43:17Z</time>
  </trkpt>
  <trkpt lat="33.391842" lon="-3.554681">
   <ele>911.00</ele>
   <time>2014-03-31T12:43:22Z</time>
  </trkpt>
  <trkpt lat="33.391920" lon="-3.554880">
   <ele>911.00</ele>
   <time>2014-03-31T12:43:26Z</time>
  </trkpt>
  <trkpt lat="33.391938" lon="-3.555130">
   <ele>911.00</ele>
   <time>2014-03-31T12:43:31Z</time>
  </trkpt>
  <trkpt lat="33.391940" lon="-3.555367">
   <ele>914.00</ele>
   <time>2014-03-31T12:43:35Z</time>
  </trkpt>
  <trkpt lat="33.391953" lon="-3.555649">
   <ele>916.00</ele>
   <time>2014-03-31T12:43:40Z</time>
  </trkpt>
  <trkpt lat="33.392023" lon="-3.555884">
   <ele>914.00</ele>
   <time>2014-03-31T12:43:46Z</time>
  </trkpt>
  <trkpt lat="33.392069" lon="-3.555980">
   <ele>910.00</ele>
   <time>2014-03-31T12:44:01Z</time>
  </trkpt>
  <trkpt lat="33.392126" lon="-3.556184">
   <ele>910.00</ele>
   <time>2014-03-31T12:44:08Z</time>
  </trkpt>
  <trkpt lat="33.392149" lon="-3.556402">
   <ele>910.00</ele>
   <time>2014-03-31T12:44:16Z</time>
  </trkpt>
  <trkpt lat="33.392158" lon="-3.556403">
   <ele>909.00</ele>
   <time>2014-03-31T12:44:31Z</time>
  </trkpt>
  <trkpt lat="33.392340" lon="-3.556425">
   <ele>910.00</ele>
   <time>2014-03-31T12:44:45Z</time>
  </trkpt>
  <trkpt lat="33.392415" lon="-3.556216">
   <ele>914.00</ele>
   <time>2014-03-31T12:44:55Z</time>
  </trkpt>
  <trkpt lat="33.392433" lon="-3.556186">
   <ele>920.00</ele>
   <time>2014-03-31T12:45:10Z</time>
  </trkpt>
  <trkpt lat="33.392453" lon="-3.555940">
   <ele>922.00</ele>
   <time>2014-03-31T12:45:18Z</time>
  </trkpt>
  <trkpt lat="33.392521" lon="-3.555719">
   <ele>923.00</ele>
   <time>2014-03-31T12:45:24Z</time>
  </trkpt>
  <trkpt lat="33.392562" lon="-3.555493">
   <ele>924.00</ele>
   <time>2014-03-31T12:45:29Z</time>
  </trkpt>
  <trkpt lat="33.392627" lon="-3.555252">
   <ele>926.00</ele>
   <time>2014-03-31T12:45:34Z</time>
  </trkpt>
  <trkpt lat="33.392702" lon="-3.555045">
   <ele>927.00</ele>
   <time>2014-03-31T12:45:39Z</time>
  </trkpt>
  <trkpt lat="33.392831" lon="-3.554870">
   <ele>928.00</ele>
   <time>2014-03-31T12:45:45Z</time>
  </trkpt>
  <trkpt lat="33.392886" lon="-3.554634">
   <ele>929.00</ele>
   <time>2014-03-31T12:45:51Z</time>
  </trkpt>
  <trkpt lat="33.392909" lon="-3.554416">
   <ele>930.00</ele>
   <time>2014-03-31T12:45:56Z</time>
  </trkpt>
  <trkpt lat="33.392921" lon="-3.554184">
   <ele>931.00</ele>
   <time>2014-03-31T12:46:01Z</time>
  </trkpt>
  <trkpt lat="33.392924" lon="-3.553917">
   <ele>932.00</ele>
   <time>2014-03-31T12:46:06Z</time>
  </trkpt>
  <trkpt lat="33.392942" lon="-3.553700">
   <ele>931.00</ele>
   <time>2014-03-31T12:46:10Z</time>
  </trkpt>
  <trkpt lat="33.393085" lon="-3.553496">
   <ele>931.00</ele>
   <time>2014-03-31T12:46:15Z</time>
  </trkpt>
  <trkpt lat="33.393259" lon="-3.553273">
   <ele>929.00</ele>
   <time>2014-03-31T12:46:21Z</time>
  </trkpt>
  <trkpt lat="33.393316" lon="-3.553064">
   <ele>930.00</ele>
   <time>2014-03-31T12:46:29Z</time>
  </trkpt>
  <trkpt lat="33.393252" lon="-3.552818">
   <ele>930.00</ele>
   <time>2014-03-31T12:46:36Z</time>
  </trkpt>
  <trkpt lat="33.393159" lon="-3.552574">
   <ele>929.00</ele>
   <time>2014-03-31T12:46:45Z</time>
  </trkpt>
  <trkpt lat="33.393147" lon="-3.552329">
   <ele>930.00</ele>
   <time>2014-03-31T12:46:51Z</time>
  </trkpt>
  <trkpt lat="33.393180" lon="-3.552107">
   <ele>931.00</ele>
   <time>2014-03-31T12:46:57Z</time>
  </trkpt>
  <trkpt lat="33.393178" lon="-3.551884">
   <ele>930.00</ele>
   <time>2014-03-31T12:47:07Z</time>
  </trkpt>
  <trkpt lat="33.393335" lon="-3.551788">
   <ele>930.00</ele>
   <time>2014-03-31T12:47:15Z</time>
  </trkpt>
  <trkpt lat="33.393476" lon="-3.551679">
   <ele>929.00</ele>
   <time>2014-03-31T12:47:23Z</time>
  </trkpt>
  <trkpt lat="33.393633" lon="-3.551540">
   <ele>928.00</ele>
   <time>2014-03-31T12:47:32Z</time>
  </trkpt>
  <trkpt lat="33.393736" lon="-3.551342">
   <ele>928.00</ele>
   <time>2014-03-31T12:47:41Z</time>
  </trkpt>
  <trkpt lat="33.393866" lon="-3.551198">
   <ele>927.00</ele>
   <time>2014-03-31T12:47:48Z</time>
  </trkpt>
  <trkpt lat="33.394046" lon="-3.551104">
   <ele>928.00</ele>
   <time>2014-03-31T12:47:55Z</time>
  </trkpt>
  <trkpt lat="33.394242" lon="-3.551126">
   <ele>926.00</ele>
   <time>2014-03-31T12:48:03Z</time>
  </trkpt>
  <trkpt lat="33.394357" lon="-3.550980">
   <ele>927.00</ele>
   <time>2014-03-31T12:48:10Z</time>
  </trkpt>
  <trkpt lat="33.394363" lon="-3.550754">
   <ele>930.00</ele>
   <time>2014-03-31T12:48:16Z</time>
  </trkpt>
  <trkpt lat="33.394383" lon="-3.550532">
   <ele>932.00</ele>
   <time>2014-03-31T12:48:22Z</time>
  </trkpt>
  <trkpt lat="33.394411" lon="-3.550293">
   <ele>932.00</ele>
   <time>2014-03-31T12:48:29Z</time>
  </trkpt>
  <trkpt lat="33.394428" lon="-3.550064">
   <ele>931.00</ele>
   <time>2014-03-31T12:48:37Z</time>
  </trkpt>
  <trkpt lat="33.394439" lon="-3.549836">
   <ele>930.00</ele>
   <time>2014-03-31T12:48:44Z</time>
  </trkpt>
  <trkpt lat="33.394483" lon="-3.549603">
   <ele>929.00</ele>
   <time>2014-03-31T12:48:51Z</time>
  </trkpt>
  <trkpt lat="33.394508" lon="-3.549361">
   <ele>930.00</ele>
   <time>2014-03-31T12:48:58Z</time>
  </trkpt>
  <trkpt lat="33.394481" lon="-3.549147">
   <ele>931.00</ele>
   <time>2014-03-31T12:49:04Z</time>
  </trkpt>
  <trkpt lat="33.394492" lon="-3.548922">
   <ele>933.00</ele>
   <time>2014-03-31T12:49:11Z</time>
  </trkpt>
  <trkpt lat="33.394519" lon="-3.548696">
   <ele>935.00</ele>
   <time>2014-03-31T12:49:16Z</time>
  </trkpt>
  <trkpt lat="33.394577" lon="-3.548488">
   <ele>934.00</ele>
   <time>2014-03-31T12:49:21Z</time>
  </trkpt>
  <trkpt lat="33.394683" lon="-3.548301">
   <ele>934.00</ele>
   <time>2014-03-31T12:49:26Z</time>
  </trkpt>
  <trkpt lat="33.394749" lon="-3.548066">
   <ele>934.00</ele>
   <time>2014-03-31T12:49:31Z</time>
  </trkpt>
  <trkpt lat="33.394737" lon="-3.547840">
   <ele>935.00</ele>
   <time>2014-03-31T12:49:35Z</time>
  </trkpt>
  <trkpt lat="33.394768" lon="-3.547614">
   <ele>935.00</ele>
   <time>2014-03-31T12:49:39Z</time>
  </trkpt>
  <trkpt lat="33.394831" lon="-3.547401">
   <ele>935.00</ele>
   <time>2014-03-31T12:49:43Z</time>
  </trkpt>
  <trkpt lat="33.394795" lon="-3.547185">
   <ele>936.00</ele>
   <time>2014-03-31T12:49:47Z</time>
  </trkpt>
  <trkpt lat="33.394656" lon="-3.546983">
   <ele>936.00</ele>
   <time>2014-03-31T12:49:51Z</time>
  </trkpt>
  <trkpt lat="33.394538" lon="-3.546812">
   <ele>935.00</ele>
   <time>2014-03-31T12:49:54Z</time>
  </trkpt>
  <trkpt lat="33.394363" lon="-3.546621">
   <ele>936.00</ele>
   <time>2014-03-31T12:49:58Z</time>
  </trkpt>
  <trkpt lat="33.394228" lon="-3.546462">
   <ele>935.00</ele>
   <time>2014-03-31T12:50:01Z</time>
  </trkpt>
  <trkpt lat="33.394119" lon="-3.546284">
   <ele>934.00</ele>
   <time>2014-03-31T12:50:04Z</time>
  </trkpt>
  <trkpt lat="33.394034" lon="-3.546025">
   <ele>934.00</ele>
   <time>2014-03-31T12:50:08Z</time>
  </trkpt>
  <trkpt lat="33.393930" lon="-3.545777">
   <ele>933.00</ele>
   <time>2014-03-31T12:50:12Z</time>
  </trkpt>
  <trkpt lat="33.393783" lon="-3.545554">
   <ele>932.00</ele>
   <time>2014-03-31T12:50:16Z</time>
  </trkpt>
  <trkpt lat="33.393648" lon="-3.545401">
   <ele>930.00</ele>
   <time>2014-03-31T12:50:19Z</time>
  </trkpt>
  <trkpt lat="33.393457" lon="-3.545229">
   <ele>931.00</ele>
   <time>2014-03-31T12:50:23Z</time>
  </trkpt>
  <trkpt lat="33.393360" lon="-3.545040">
   <ele>930.00</ele>
   <time>2014-03-31T12:50:26Z</time>
  </trkpt>
  <trkpt lat="33.393304" lon="-3.544830">
   <ele>930.00</ele>
   <time>2014-03-31T12:50:29Z</time>
  </trkpt>
  <trkpt lat="33.393284" lon="-3.544574">
   <ele>932.00</ele>
   <time>2014-03-31T12:50:33Z</time>
  </trkpt>
  <trkpt lat="33.393266" lon="-3.544320">
   <ele>934.00</ele>
   <time>2014-03-31T12:50:37Z</time>
  </trkpt>
  <trkpt lat="33.393219" lon="-3.544083">
   <ele>935.00</ele>
   <time>2014-03-31T12:50:41Z</time>
  </trkpt>
  <trkpt lat="33.393112" lon="-3.543678">
   <ele>934.00</ele>
   <time>2014-03-31T12:50:48Z</time>
  </trkpt>
  <trkpt lat="33.393079" lon="-3.543462">
   <ele>934.00</ele>
   <time>2014-03-31T12:50:52Z</time>
  </trkpt>
  <trkpt lat="33.393150" lon="-3.543210">
   <ele>934.00</ele>
   <time>2014-03-31T12:51:04Z</time>
  </trkpt>
  <trkpt lat="33.393124" lon="-3.542930">
   <ele>936.00</ele>
   <time>2014-03-31T12:51:10Z</time>
  </trkpt>
  <trkpt lat="33.393148" lon="-3.542699">
   <ele>936.00</ele>
   <time>2014-03-31T12:51:14Z</time>
  </trkpt>
  <trkpt lat="33.393167" lon="-3.542457">
   <ele>937.00</ele>
   <time>2014-03-31T12:51:18Z</time>
  </trkpt>
  <trkpt lat="33.393201" lon="-3.542232">
   <ele>937.00</ele>
   <time>2014-03-31T12:51:22Z</time>
  </trkpt>
  <trkpt lat="33.393336" lon="-3.542032">
   <ele>936.00</ele>
   <time>2014-03-31T12:51:27Z</time>
  </trkpt>
  <trkpt lat="33.393474" lon="-3.541875">
   <ele>935.00</ele>
   <time>2014-03-31T12:51:32Z</time>
  </trkpt>
  <trkpt lat="33.393643" lon="-3.541706">
   <ele>934.00</ele>
   <time>2014-03-31T12:51:37Z</time>
  </trkpt>
  <trkpt lat="33.393818" lon="-3.541524">
   <ele>934.00</ele>
   <time>2014-03-31T12:51:42Z</time>
  </trkpt>
  <trkpt lat="33.393994" lon="-3.541392">
   <ele>933.00</ele>
   <time>2014-03-31T12:51:47Z</time>
  </trkpt>
  <trkpt lat="33.394082" lon="-3.541198">
   <ele>933.00</ele>
   <time>2014-03-31T12:51:51Z</time>
  </trkpt>
  <trkpt lat="33.394147" lon="-3.540981">
   <ele>934.00</ele>
   <time>2014-03-31T12:51:55Z</time>
  </trkpt>
  <trkpt lat="33.394209" lon="-3.540740">
   <ele>934.00</ele>
   <time>2014-03-31T12:51:59Z</time>
  </trkpt>
  <trkpt lat="33.394281" lon="-3.540479">
   <ele>935.00</ele>
   <time>2014-03-31T12:52:03Z</time>
  </trkpt>
  <trkpt lat="33.394355" lon="-3.540211">
   <ele>938.00</ele>
   <time>2014-03-31T12:52:07Z</time>
  </trkpt>
  <trkpt lat="33.394470" lon="-3.539848">
   <ele>940.00</ele>
   <time>2014-03-31T12:52:13Z</time>
  </trkpt>
  <trkpt lat="33.394534" lon="-3.539630">
   <ele>942.00</ele>
   <time>2014-03-31T12:52:17Z</time>
  </trkpt>
  <trkpt lat="33.394631" lon="-3.539416">
   <ele>942.00</ele>
   <time>2014-03-31T12:52:23Z</time>
  </trkpt>
  <trkpt lat="33.394634" lon="-3.539167">
   <ele>943.00</ele>
   <time>2014-03-31T12:52:28Z</time>
  </trkpt>
  <trkpt lat="33.394704" lon="-3.538928">
   <ele>943.00</ele>
   <time>2014-03-31T12:52:33Z</time>
  </trkpt>
  <trkpt lat="33.394836" lon="-3.538782">
   <ele>942.00</ele>
   <time>2014-03-31T12:52:38Z</time>
  </trkpt>
  <trkpt lat="33.395016" lon="-3.538711">
   <ele>940.00</ele>
   <time>2014-03-31T12:52:43Z</time>
  </trkpt>
  <trkpt lat="33.395227" lon="-3.538729">
   <ele>938.00</ele>
   <time>2014-03-31T12:52:48Z</time>
  </trkpt>
  <trkpt lat="33.395418" lon="-3.538785">
   <ele>937.00</ele>
   <time>2014-03-31T12:52:52Z</time>
  </trkpt>
  <trkpt lat="33.395630" lon="-3.538840">
   <ele>936.00</ele>
   <time>2014-03-31T12:52:56Z</time>
  </trkpt>
  <trkpt lat="33.395844" lon="-3.538858">
   <ele>936.00</ele>
   <time>2014-03-31T12:53:00Z</time>
  </trkpt>
  <trkpt lat="33.396060" lon="-3.538788">
   <ele>936.00</ele>
   <time>2014-03-31T12:53:04Z</time>
  </trkpt>
  <trkpt lat="33.396269" lon="-3.538691">
   <ele>935.00</ele>
   <time>2014-03-31T12:53:08Z</time>
  </trkpt>
  <trkpt lat="33.396478" lon="-3.538572">
   <ele>935.00</ele>
   <time>2014-03-31T12:53:12Z</time>
  </trkpt>
  <trkpt lat="33.396676" lon="-3.538444">
   <ele>935.00</ele>
   <time>2014-03-31T12:53:16Z</time>
  </trkpt>
  <trkpt lat="33.396875" lon="-3.538327">
   <ele>935.00</ele>
   <time>2014-03-31T12:53:20Z</time>
  </trkpt>
  <trkpt lat="33.397084" lon="-3.538280">
   <ele>935.00</ele>
   <time>2014-03-31T12:53:24Z</time>
  </trkpt>
  <trkpt lat="33.397267" lon="-3.538283">
   <ele>936.00</ele>
   <time>2014-03-31T12:53:29Z</time>
  </trkpt>
  <trkpt lat="33.397412" lon="-3.538100">
   <ele>936.00</ele>
   <time>2014-03-31T12:53:35Z</time>
  </trkpt>
  <trkpt lat="33.397569" lon="-3.537951">
   <ele>936.00</ele>
   <time>2014-03-31T12:53:39Z</time>
  </trkpt>
  <trkpt lat="33.397754" lon="-3.537813">
   <ele>935.00</ele>
   <time>2014-03-31T12:53:43Z</time>
  </trkpt>
  <trkpt lat="33.397961" lon="-3.537704">
   <ele>935.00</ele>
   <time>2014-03-31T12:53:47Z</time>
  </trkpt>
  <trkpt lat="33.398298" lon="-3.537544">
   <ele>935.00</ele>
   <time>2014-03-31T12:53:53Z</time>
  </trkpt>
  <trkpt lat="33.398481" lon="-3.537463">
   <ele>935.00</ele>
   <time>2014-03-31T12:53:56Z</time>
  </trkpt>
  <trkpt lat="33.398655" lon="-3.537358">
   <ele>936.00</ele>
   <time>2014-03-31T12:53:59Z</time>
  </trkpt>
  <trkpt lat="33.398825" lon="-3.537269">
   <ele>936.00</ele>
   <time>2014-03-31T12:54:02Z</time>
  </trkpt>
  <trkpt lat="33.399051" lon="-3.537280">
   <ele>936.00</ele>
   <time>2014-03-31T12:54:06Z</time>
  </trkpt>
  <trkpt lat="33.399265" lon="-3.537394">
   <ele>937.00</ele>
   <time>2014-03-31T12:54:10Z</time>
  </trkpt>
  <trkpt lat="33.399466" lon="-3.537522">
   <ele>937.00</ele>
   <time>2014-03-31T12:54:14Z</time>
  </trkpt>
  <trkpt lat="33.399638" lon="-3.537604">
   <ele>938.00</ele>
   <time>2014-03-31T12:54:18Z</time>
  </trkpt>
  <trkpt lat="33.399846" lon="-3.537619">
   <ele>938.00</ele>
   <time>2014-03-31T12:54:23Z</time>
  </trkpt>
  <trkpt lat="33.400045" lon="-3.537599">
   <ele>939.00</ele>
   <time>2014-03-31T12:54:29Z</time>
  </trkpt>
  <trkpt lat="33.400229" lon="-3.537454">
   <ele>940.00</ele>
   <time>2014-03-31T12:54:34Z</time>
  </trkpt>
  <trkpt lat="33.400342" lon="-3.537272">
   <ele>940.00</ele>
   <time>2014-03-31T12:54:38Z</time>
  </trkpt>
  <trkpt lat="33.400469" lon="-3.537091">
   <ele>940.00</ele>
   <time>2014-03-31T12:54:42Z</time>
  </trkpt>
  <trkpt lat="33.400674" lon="-3.536847">
   <ele>941.00</ele>
   <time>2014-03-31T12:54:48Z</time>
  </trkpt>
  <trkpt lat="33.400825" lon="-3.536677">
   <ele>941.00</ele>
   <time>2014-03-31T12:54:52Z</time>
  </trkpt>
  <trkpt lat="33.400995" lon="-3.536510">
   <ele>941.00</ele>
   <time>2014-03-31T12:54:56Z</time>
  </trkpt>
  <trkpt lat="33.401178" lon="-3.536371">
   <ele>941.00</ele>
   <time>2014-03-31T12:55:00Z</time>
  </trkpt>
  <trkpt lat="33.401373" lon="-3.536281">
   <ele>941.00</ele>
   <time>2014-03-31T12:55:04Z</time>
  </trkpt>
  <trkpt lat="33.401571" lon="-3.536186">
   <ele>942.00</ele>
   <time>2014-03-31T12:55:08Z</time>
  </trkpt>
  <trkpt lat="33.401803" lon="-3.536126">
   <ele>942.00</ele>
   <time>2014-03-31T12:55:12Z</time>
  </trkpt>
  <trkpt lat="33.401987" lon="-3.536109">
   <ele>943.00</ele>
   <time>2014-03-31T12:55:15Z</time>
  </trkpt>
  <trkpt lat="33.402169" lon="-3.536071">
   <ele>943.00</ele>
   <time>2014-03-31T12:55:18Z</time>
  </trkpt>
  <trkpt lat="33.402348" lon="-3.536004">
   <ele>944.00</ele>
   <time>2014-03-31T12:55:21Z</time>
  </trkpt>
  <trkpt lat="33.402571" lon="-3.535928">
   <ele>944.00</ele>
   <time>2014-03-31T12:55:25Z</time>
  </trkpt>
  <trkpt lat="33.402806" lon="-3.535905">
   <ele>945.00</ele>
   <time>2014-03-31T12:55:29Z</time>
  </trkpt>
  <trkpt lat="33.403041" lon="-3.535901">
   <ele>945.00</ele>
   <time>2014-03-31T12:55:33Z</time>
  </trkpt>
  <trkpt lat="33.403277" lon="-3.535874">
   <ele>946.00</ele>
   <time>2014-03-31T12:55:37Z</time>
  </trkpt>
  <trkpt lat="33.403511" lon="-3.535844">
   <ele>947.00</ele>
   <time>2014-03-31T12:55:41Z</time>
  </trkpt>
  <trkpt lat="33.403819" lon="-3.535779">
   <ele>947.00</ele>
   <time>2014-03-31T12:55:46Z</time>
  </trkpt>
  <trkpt lat="33.404007" lon="-3.535733">
   <ele>948.00</ele>
   <time>2014-03-31T12:55:49Z</time>
  </trkpt>
  <trkpt lat="33.404188" lon="-3.535728">
   <ele>948.00</ele>
   <time>2014-03-31T12:55:52Z</time>
  </trkpt>
  <trkpt lat="33.404400" lon="-3.535770">
   <ele>949.00</ele>
   <time>2014-03-31T12:55:56Z</time>
  </trkpt>
  <trkpt lat="33.404607" lon="-3.535799">
   <ele>950.00</ele>
   <time>2014-03-31T12:56:00Z</time>
  </trkpt>
  <trkpt lat="33.404826" lon="-3.535806">
   <ele>951.00</ele>
   <time>2014-03-31T12:56:04Z</time>
  </trkpt>
  <trkpt lat="33.405050" lon="-3.535825">
   <ele>952.00</ele>
   <time>2014-03-31T12:56:08Z</time>
  </trkpt>
  <trkpt lat="33.405270" lon="-3.535894">
   <ele>953.00</ele>
   <time>2014-03-31T12:56:12Z</time>
  </trkpt>
  <trkpt lat="33.405493" lon="-3.535999">
   <ele>954.00</ele>
   <time>2014-03-31T12:56:17Z</time>
  </trkpt>
  <trkpt lat="33.405658" lon="-3.536093">
   <ele>955.00</ele>
   <time>2014-03-31T12:56:22Z</time>
  </trkpt>
  <trkpt lat="33.405698" lon="-3.536312">
   <ele>956.00</ele>
   <time>2014-03-31T12:56:26Z</time>
  </trkpt>
  <trkpt lat="33.405650" lon="-3.536515">
   <ele>957.00</ele>
   <time>2014-03-31T12:56:31Z</time>
  </trkpt>
  <trkpt lat="33.405497" lon="-3.536603">
   <ele>961.00</ele>
   <time>2014-03-31T12:56:40Z</time>
  </trkpt>
  <trkpt lat="33.405467" lon="-3.536852">
   <ele>963.00</ele>
   <time>2014-03-31T12:56:47Z</time>
  </trkpt>
  <trkpt lat="33.405468" lon="-3.537105">
   <ele>965.00</ele>
   <time>2014-03-31T12:56:52Z</time>
  </trkpt>
  <trkpt lat="33.405523" lon="-3.537354">
   <ele>965.00</ele>
   <time>2014-03-31T12:56:57Z</time>
  </trkpt>
  <trkpt lat="33.405594" lon="-3.537573">
   <ele>966.00</ele>
   <time>2014-03-31T12:57:02Z</time>
  </trkpt>
  <trkpt lat="33.405676" lon="-3.537765">
   <ele>965.00</ele>
   <time>2014-03-31T12:57:08Z</time>
  </trkpt>
  <trkpt lat="33.405672" lon="-3.537715">
   <ele>966.00</ele>
   <time>2014-03-31T12:57:21Z</time>
  </trkpt>
  <trkpt lat="33.405745" lon="-3.537712">
   <ele>964.00</ele>
   <time>2014-03-31T12:57:36Z</time>
  </trkpt>
  <trkpt lat="33.405885" lon="-3.537581">
   <ele>964.00</ele>
   <time>2014-03-31T12:57:49Z</time>
  </trkpt>
  <trkpt lat="33.405950" lon="-3.537366">
   <ele>969.00</ele>
   <time>2014-03-31T12:57:59Z</time>
  </trkpt>
  <trkpt lat="33.406002" lon="-3.537149">
   <ele>972.00</ele>
   <time>2014-03-31T12:58:07Z</time>
  </trkpt>
  <trkpt lat="33.406085" lon="-3.536917">
   <ele>972.00</ele>
   <time>2014-03-31T12:58:14Z</time>
  </trkpt>
  <trkpt lat="33.406190" lon="-3.536721">
   <ele>970.00</ele>
   <time>2014-03-31T12:58:20Z</time>
  </trkpt>
  <trkpt lat="33.406281" lon="-3.536520">
   <ele>969.00</ele>
   <time>2014-03-31T12:58:26Z</time>
  </trkpt>
  <trkpt lat="33.406443" lon="-3.536390">
   <ele>968.00</ele>
   <time>2014-03-31T12:58:32Z</time>
  </trkpt>
  <trkpt lat="33.406639" lon="-3.536294">
   <ele>967.00</ele>
   <time>2014-03-31T12:58:38Z</time>
  </trkpt>
  <trkpt lat="33.406812" lon="-3.536189">
   <ele>968.00</ele>
   <time>2014-03-31T12:58:43Z</time>
  </trkpt>
  <trkpt lat="33.406988" lon="-3.536093">
   <ele>968.00</ele>
   <time>2014-03-31T12:58:48Z</time>
  </trkpt>
  <trkpt lat="33.407120" lon="-3.535924">
   <ele>967.00</ele>
   <time>2014-03-31T12:58:56Z</time>
  </trkpt>
  <trkpt lat="33.407046" lon="-3.535726">
   <ele>967.00</ele>
   <time>2014-03-31T12:59:03Z</time>
  </trkpt>
  <trkpt lat="33.406882" lon="-3.535643">
   <ele>966.00</ele>
   <time>2014-03-31T12:59:09Z</time>
  </trkpt>
  <trkpt lat="33.406683" lon="-3.535636">
   <ele>964.00</ele>
   <time>2014-03-31T12:59:15Z</time>
  </trkpt>
  <trkpt lat="33.406496" lon="-3.535565">
   <ele>964.00</ele>
   <time>2014-03-31T12:59:22Z</time>
  </trkpt>
  <trkpt lat="33.406481" lon="-3.535557">
   <ele>964.00</ele>
   <time>2014-03-31T12:59:38Z</time>
  </trkpt>
  <trkpt lat="33.406476" lon="-3.535557">
   <ele>964.00</ele>
   <time>2014-03-31T12:59:54Z</time>
  </trkpt>
  <trkpt lat="33.406474" lon="-3.535555">
   <ele>964.00</ele>
   <time>2014-03-31T13:00:09Z</time>
  </trkpt>
  <trkpt lat="33.406447" lon="-3.535318">
   <ele>965.00</ele>
   <time>2014-03-31T13:00:22Z</time>
  </trkpt>
  <trkpt lat="33.406574" lon="-3.535150">
   <ele>964.00</ele>
   <time>2014-03-31T13:00:26Z</time>
  </trkpt>
  <trkpt lat="33.406917" lon="-3.534919">
   <ele>964.00</ele>
   <time>2014-03-31T13:00:34Z</time>
  </trkpt>
  <trkpt lat="33.407115" lon="-3.534813">
   <ele>965.00</ele>
   <time>2014-03-31T13:00:39Z</time>
  </trkpt>
  <trkpt lat="33.407237" lon="-3.534685">
   <ele>964.00</ele>
   <time>2014-03-31T13:00:46Z</time>
  </trkpt>
  <trkpt lat="33.407088" lon="-3.534591">
   <ele>962.00</ele>
   <time>2014-03-31T13:00:54Z</time>
  </trkpt>
  <trkpt lat="33.406901" lon="-3.534650">
   <ele>961.00</ele>
   <time>2014-03-31T13:01:00Z</time>
  </trkpt>
  <trkpt lat="33.406748" lon="-3.534557">
   <ele>961.00</ele>
   <time>2014-03-31T13:01:07Z</time>
  </trkpt>
  <trkpt lat="33.406611" lon="-3.534442">
   <ele>962.00</ele>
   <time>2014-03-31T13:01:15Z</time>
  </trkpt>
  <trkpt lat="33.406389" lon="-3.534498">
   <ele>963.00</ele>
   <time>2014-03-31T13:01:20Z</time>
  </trkpt>
  <trkpt lat="33.406163" lon="-3.534587">
   <ele>962.00</ele>
   <time>2014-03-31T13:01:25Z</time>
  </trkpt>
  <trkpt lat="33.405979" lon="-3.534626">
   <ele>961.00</ele>
   <time>2014-03-31T13:01:30Z</time>
  </trkpt>
  <trkpt lat="33.405829" lon="-3.534536">
   <ele>960.00</ele>
   <time>2014-03-31T13:01:39Z</time>
  </trkpt>
  <trkpt lat="33.405758" lon="-3.534328">
   <ele>960.00</ele>
   <time>2014-03-31T13:01:45Z</time>
  </trkpt>
  <trkpt lat="33.405592" lon="-3.534342">
   <ele>959.00</ele>
   <time>2014-03-31T13:01:54Z</time>
  </trkpt>
  <trkpt lat="33.405439" lon="-3.534476">
   <ele>958.00</ele>
   <time>2014-03-31T13:02:00Z</time>
  </trkpt>
  <trkpt lat="33.405294" lon="-3.534637">
   <ele>958.00</ele>
   <time>2014-03-31T13:02:05Z</time>
  </trkpt>
  <trkpt lat="33.405164" lon="-3.534797">
   <ele>957.00</ele>
   <time>2014-03-31T13:02:09Z</time>
  </trkpt>
  <trkpt lat="33.405011" lon="-3.534929">
   <ele>957.00</ele>
   <time>2014-03-31T13:02:13Z</time>
  </trkpt>
  <trkpt lat="33.404809" lon="-3.535032">
   <ele>957.00</ele>
   <time>2014-03-31T13:02:18Z</time>
  </trkpt>
  <trkpt lat="33.404629" lon="-3.535095">
   <ele>958.00</ele>
   <time>2014-03-31T13:02:22Z</time>
  </trkpt>
  <trkpt lat="33.404442" lon="-3.535115">
   <ele>958.00</ele>
   <time>2014-03-31T13:02:26Z</time>
  </trkpt>
  <trkpt lat="33.404253" lon="-3.535135">
   <ele>959.00</ele>
   <time>2014-03-31T13:02:30Z</time>
  </trkpt>
  <trkpt lat="33.404012" lon="-3.535197">
   <ele>959.00</ele>
   <time>2014-03-31T13:02:35Z</time>
  </trkpt>
  <trkpt lat="33.403813" lon="-3.535267">
   <ele>958.00</ele>
   <time>2014-03-31T13:02:39Z</time>
  </trkpt>
  <trkpt lat="33.403594" lon="-3.535330">
   <ele>958.00</ele>
   <time>2014-03-31T13:02:43Z</time>
  </trkpt>
  <trkpt lat="33.403375" lon="-3.535381">
   <ele>957.00</ele>
   <time>2014-03-31T13:02:47Z</time>
  </trkpt>
  <trkpt lat="33.403156" lon="-3.535403">
   <ele>957.00</ele>
   <time>2014-03-31T13:02:51Z</time>
  </trkpt>
  <trkpt lat="33.402942" lon="-3.535291">
   <ele>956.00</ele>
   <time>2014-03-31T13:02:55Z</time>
  </trkpt>
  <trkpt lat="33.402733" lon="-3.535130">
   <ele>956.00</ele>
   <time>2014-03-31T13:02:59Z</time>
  </trkpt>
  <trkpt lat="33.402543" lon="-3.534996">
   <ele>955.00</ele>
   <time>2014-03-31T13:03:03Z</time>
  </trkpt>
  <trkpt lat="33.402354" lon="-3.534964">
   <ele>954.00</ele>
   <time>2014-03-31T13:03:07Z</time>
  </trkpt>
  <trkpt lat="33.402157" lon="-3.535004">
   <ele>953.00</ele>
   <time>2014-03-31T13:03:12Z</time>
  </trkpt>
  <trkpt lat="33.401994" lon="-3.535102">
   <ele>952.00</ele>
   <time>2014-03-31T13:03:16Z</time>
  </trkpt>
  <trkpt lat="33.401828" lon="-3.535212">
   <ele>951.00</ele>
   <time>2014-03-31T13:03:20Z</time>
  </trkpt>
  <trkpt lat="33.401638" lon="-3.535280">
   <ele>950.00</ele>
   <time>2014-03-31T13:03:26Z</time>
  </trkpt>
  <trkpt lat="33.401486" lon="-3.535123">
   <ele>948.00</ele>
   <time>2014-03-31T13:03:31Z</time>
  </trkpt>
  <trkpt lat="33.401351" lon="-3.534962">
   <ele>947.00</ele>
   <time>2014-03-31T13:03:35Z</time>
  </trkpt>
  <trkpt lat="33.401167" lon="-3.534810">
   <ele>946.00</ele>
   <time>2014-03-31T13:03:40Z</time>
  </trkpt>
  <trkpt lat="33.400968" lon="-3.534626">
   <ele>946.00</ele>
   <time>2014-03-31T13:03:46Z</time>
  </trkpt>
  <trkpt lat="33.400776" lon="-3.534526">
   <ele>945.00</ele>
   <time>2014-03-31T13:03:51Z</time>
  </trkpt>
  <trkpt lat="33.400612" lon="-3.534398">
   <ele>944.00</ele>
   <time>2014-03-31T13:04:02Z</time>
  </trkpt>
  <trkpt lat="33.400624" lon="-3.534178">
   <ele>944.00</ele>
   <time>2014-03-31T13:04:08Z</time>
  </trkpt>
  <trkpt lat="33.400708" lon="-3.533849">
   <ele>943.00</ele>
   <time>2014-03-31T13:04:15Z</time>
  </trkpt>
  <trkpt lat="33.400805" lon="-3.533627">
   <ele>943.00</ele>
   <time>2014-03-31T13:04:19Z</time>
  </trkpt>
  <trkpt lat="33.400919" lon="-3.533396">
   <ele>944.00</ele>
   <time>2014-03-31T13:04:23Z</time>
  </trkpt>
  <trkpt lat="33.401001" lon="-3.533156">
   <ele>944.00</ele>
   <time>2014-03-31T13:04:27Z</time>
  </trkpt>
  <trkpt lat="33.401095" lon="-3.532913">
   <ele>944.00</ele>
   <time>2014-03-31T13:04:31Z</time>
  </trkpt>
  <trkpt lat="33.401175" lon="-3.532671">
   <ele>944.00</ele>
   <time>2014-03-31T13:04:35Z</time>
  </trkpt>
  <trkpt lat="33.401261" lon="-3.532417">
   <ele>944.00</ele>
   <time>2014-03-31T13:04:39Z</time>
  </trkpt>
  <trkpt lat="33.401356" lon="-3.532160">
   <ele>944.00</ele>
   <time>2014-03-31T13:04:43Z</time>
  </trkpt>
  <trkpt lat="33.401392" lon="-3.531906">
   <ele>945.00</ele>
   <time>2014-03-31T13:04:47Z</time>
  </trkpt>
  <trkpt lat="33.401352" lon="-3.531682">
   <ele>945.00</ele>
   <time>2014-03-31T13:04:51Z</time>
  </trkpt>
  <trkpt lat="33.401331" lon="-3.531450">
   <ele>947.00</ele>
   <time>2014-03-31T13:04:56Z</time>
  </trkpt>
  <trkpt lat="33.401316" lon="-3.531220">
   <ele>949.00</ele>
   <time>2014-03-31T13:05:01Z</time>
  </trkpt>
  <trkpt lat="33.401235" lon="-3.531004">
   <ele>949.00</ele>
   <time>2014-03-31T13:05:12Z</time>
  </trkpt>
  <trkpt lat="33.401202" lon="-3.530787">
   <ele>952.00</ele>
   <time>2014-03-31T13:05:19Z</time>
  </trkpt>
  <trkpt lat="33.401119" lon="-3.530567">
   <ele>952.00</ele>
   <time>2014-03-31T13:05:24Z</time>
  </trkpt>
  <trkpt lat="33.401012" lon="-3.530290">
   <ele>952.00</ele>
   <time>2014-03-31T13:05:29Z</time>
  </trkpt>
  <trkpt lat="33.400867" lon="-3.530113">
   <ele>952.00</ele>
   <time>2014-03-31T13:05:33Z</time>
  </trkpt>
  <trkpt lat="33.400759" lon="-3.529933">
   <ele>951.00</ele>
   <time>2014-03-31T13:05:37Z</time>
  </trkpt>
  <trkpt lat="33.400698" lon="-3.529725">
   <ele>951.00</ele>
   <time>2014-03-31T13:05:42Z</time>
  </trkpt>
  <trkpt lat="33.400640" lon="-3.529484">
   <ele>950.00</ele>
   <time>2014-03-31T13:05:52Z</time>
  </trkpt>
  <trkpt lat="33.400675" lon="-3.529246">
   <ele>952.00</ele>
   <time>2014-03-31T13:05:57Z</time>
  </trkpt>
  <trkpt lat="33.400707" lon="-3.529018">
   <ele>952.00</ele>
   <time>2014-03-31T13:06:01Z</time>
  </trkpt>
  <trkpt lat="33.400792" lon="-3.528820">
   <ele>952.00</ele>
   <time>2014-03-31T13:06:05Z</time>
  </trkpt>
  <trkpt lat="33.400901" lon="-3.528641">
   <ele>952.00</ele>
   <time>2014-03-31T13:06:09Z</time>
  </trkpt>
  <trkpt lat="33.400991" lon="-3.528397">
   <ele>952.00</ele>
   <time>2014-03-31T13:06:14Z</time>
  </trkpt>
  <trkpt lat="33.401117" lon="-3.528180">
   <ele>952.00</ele>
   <time>2014-03-31T13:06:19Z</time>
  </trkpt>
  <trkpt lat="33.401273" lon="-3.528058">
   <ele>952.00</ele>
   <time>2014-03-31T13:06:23Z</time>
  </trkpt>
  <trkpt lat="33.401367" lon="-3.527820">
   <ele>954.00</ele>
   <time>2014-03-31T13:06:28Z</time>
  </trkpt>
  <trkpt lat="33.401422" lon="-3.527580">
   <ele>955.00</ele>
   <time>2014-03-31T13:06:33Z</time>
  </trkpt>
  <trkpt lat="33.401513" lon="-3.527353">
   <ele>956.00</ele>
   <time>2014-03-31T13:06:38Z</time>
  </trkpt>
  <trkpt lat="33.401686" lon="-3.527252">
   <ele>958.00</ele>
   <time>2014-03-31T13:06:44Z</time>
  </trkpt>
  <trkpt lat="33.401882" lon="-3.527311">
   <ele>959.00</ele>
   <time>2014-03-31T13:06:49Z</time>
  </trkpt>
  <trkpt lat="33.402081" lon="-3.527249">
   <ele>959.00</ele>
   <time>2014-03-31T13:06:54Z</time>
  </trkpt>
  <trkpt lat="33.402246" lon="-3.527143">
   <ele>959.00</ele>
   <time>2014-03-31T13:06:59Z</time>
  </trkpt>
  <trkpt lat="33.402568" lon="-3.526880">
   <ele>960.00</ele>
   <time>2014-03-31T13:07:11Z</time>
  </trkpt>
  <trkpt lat="33.402641" lon="-3.526664">
   <ele>962.00</ele>
   <time>2014-03-31T13:07:19Z</time>
  </trkpt>
  <trkpt lat="33.402789" lon="-3.526531">
   <ele>966.00</ele>
   <time>2014-03-31T13:07:29Z</time>
  </trkpt>
  <trkpt lat="33.402966" lon="-3.526475">
   <ele>969.00</ele>
   <time>2014-03-31T13:07:36Z</time>
  </trkpt>
  <trkpt lat="33.403138" lon="-3.526366">
   <ele>972.00</ele>
   <time>2014-03-31T13:07:42Z</time>
  </trkpt>
  <trkpt lat="33.403334" lon="-3.526303">
   <ele>975.00</ele>
   <time>2014-03-31T13:07:48Z</time>
  </trkpt>
  <trkpt lat="33.403568" lon="-3.526277">
   <ele>978.00</ele>
   <time>2014-03-31T13:07:56Z</time>
  </trkpt>
  <trkpt lat="33.403742" lon="-3.526194">
   <ele>980.00</ele>
   <time>2014-03-31T13:08:03Z</time>
  </trkpt>
  <trkpt lat="33.403804" lon="-3.526097">
   <ele>983.00</ele>
   <time>2014-03-31T13:08:18Z</time>
  </trkpt>
  <trkpt lat="33.403816" lon="-3.526084">
   <ele>983.00</ele>
   <time>2014-03-31T13:08:34Z</time>
  </trkpt>
  <trkpt lat="33.403815" lon="-3.526085">
   <ele>985.00</ele>
   <time>2014-03-31T13:08:50Z</time>
  </trkpt>
  <trkpt lat="33.403816" lon="-3.526087">
   <ele>986.00</ele>
   <time>2014-03-31T13:09:06Z</time>
  </trkpt>
  <trkpt lat="33.403816" lon="-3.526084">
   <ele>986.00</ele>
   <time>2014-03-31T13:09:21Z</time>
  </trkpt>
  <trkpt lat="33.403818" lon="-3.526085">
   <ele>986.00</ele>
   <time>2014-03-31T13:09:37Z</time>
  </trkpt>
  <trkpt lat="33.403820" lon="-3.526086">
   <ele>986.00</ele>
   <time>2014-03-31T13:09:53Z</time>
  </trkpt>
  <trkpt lat="33.403822" lon="-3.526087">
   <ele>986.00</ele>
   <time>2014-03-31T13:10:08Z</time>
  </trkpt>
  <trkpt lat="33.403783" lon="-3.526157">
   <ele>985.00</ele>
   <time>2014-03-31T13:10:23Z</time>
  </trkpt>
  <trkpt lat="33.403720" lon="-3.526178">
   <ele>984.00</ele>
   <time>2014-03-31T13:10:39Z</time>
  </trkpt>
  <trkpt lat="33.403563" lon="-3.526287">
   <ele>981.00</ele>
   <time>2014-03-31T13:10:51Z</time>
  </trkpt>
  <trkpt lat="33.403383" lon="-3.526299">
   <ele>979.00</ele>
   <time>2014-03-31T13:11:01Z</time>
  </trkpt>
  <trkpt lat="33.403207" lon="-3.526348">
   <ele>977.00</ele>
   <time>2014-03-31T13:11:09Z</time>
  </trkpt>
  <trkpt lat="33.403017" lon="-3.526468">
   <ele>974.00</ele>
   <time>2014-03-31T13:11:15Z</time>
  </trkpt>
  <trkpt lat="33.402852" lon="-3.526555">
   <ele>971.00</ele>
   <time>2014-03-31T13:11:20Z</time>
  </trkpt>
  <trkpt lat="33.402684" lon="-3.526620">
   <ele>968.00</ele>
   <time>2014-03-31T13:11:27Z</time>
  </trkpt>
  <trkpt lat="33.402595" lon="-3.526835">
   <ele>965.00</ele>
   <time>2014-03-31T13:11:35Z</time>
  </trkpt>
  <trkpt lat="33.402570" lon="-3.526943">
   <ele>963.00</ele>
   <time>2014-03-31T13:11:51Z</time>
  </trkpt>
  <trkpt lat="33.402570" lon="-3.526950">
   <ele>964.00</ele>
   <time>2014-03-31T13:12:06Z</time>
  </trkpt>
  <trkpt lat="33.402572" lon="-3.526951">
   <ele>964.00</ele>
   <time>2014-03-31T13:12:22Z</time>
  </trkpt>
  <trkpt lat="33.402571" lon="-3.526951">
   <ele>965.00</ele>
   <time>2014-03-31T13:12:37Z</time>
  </trkpt>
  <trkpt lat="33.402640" lon="-3.527054">
   <ele>963.00</ele>
   <time>2014-03-31T13:12:52Z</time>
  </trkpt>
  <trkpt lat="33.402699" lon="-3.527169">
   <ele>962.00</ele>
   <time>2014-03-31T13:13:07Z</time>
  </trkpt>
  <trkpt lat="33.402807" lon="-3.527281">
   <ele>961.00</ele>
   <time>2014-03-31T13:13:23Z</time>
  </trkpt>
  <trkpt lat="33.402995" lon="-3.527296">
   <ele>962.00</ele>
   <time>2014-03-31T13:13:35Z</time>
  </trkpt>
  <trkpt lat="33.403091" lon="-3.527315">
   <ele>962.00</ele>
   <time>2014-03-31T13:13:51Z</time>
  </trkpt>
  <trkpt lat="33.403286" lon="-3.527331">
   <ele>962.00</ele>
   <time>2014-03-31T13:14:04Z</time>
  </trkpt>
  <trkpt lat="33.403483" lon="-3.527329">
   <ele>963.00</ele>
   <time>2014-03-31T13:14:12Z</time>
  </trkpt>
  <trkpt lat="33.403683" lon="-3.527335">
   <ele>965.00</ele>
   <time>2014-03-31T13:14:21Z</time>
  </trkpt>
  <trkpt lat="33.403882" lon="-3.527359">
   <ele>966.00</ele>
   <time>2014-03-31T13:14:30Z</time>
  </trkpt>
  <trkpt lat="33.404129" lon="-3.527397">
   <ele>967.00</ele>
   <time>2014-03-31T13:14:41Z</time>
  </trkpt>
  <trkpt lat="33.404305" lon="-3.527494">
   <ele>968.00</ele>
   <time>2014-03-31T13:14:49Z</time>
  </trkpt>
  <trkpt lat="33.404483" lon="-3.527604">
   <ele>969.00</ele>
   <time>2014-03-31T13:14:57Z</time>
  </trkpt>
  <trkpt lat="33.404629" lon="-3.527727">
   <ele>970.00</ele>
   <time>2014-03-31T13:15:07Z</time>
  </trkpt>
  <trkpt lat="33.404827" lon="-3.527736">
   <ele>971.00</ele>
   <time>2014-03-31T13:15:17Z</time>
  </trkpt>
  <trkpt lat="33.405003" lon="-3.527792">
   <ele>973.00</ele>
   <time>2014-03-31T13:15:25Z</time>
  </trkpt>
  <trkpt lat="33.405079" lon="-3.527795">
   <ele>973.00</ele>
   <time>2014-03-31T13:15:40Z</time>
  </trkpt>
  <trkpt lat="33.405078" lon="-3.527795">
   <ele>974.00</ele>
   <time>2014-03-31T13:15:56Z</time>
  </trkpt>
  <trkpt lat="33.405076" lon="-3.527793">
   <ele>973.00</ele>
   <time>2014-03-31T13:16:11Z</time>
  </trkpt>
  <trkpt lat="33.405076" lon="-3.527791">
   <ele>973.00</ele>
   <time>2014-03-31T13:16:26Z</time>
  </trkpt>
  <trkpt lat="33.405076" lon="-3.527791">
   <ele>972.00</ele>
   <time>2014-03-31T13:16:42Z</time>
  </trkpt>
  <trkpt lat="33.405074" lon="-3.527793">
   <ele>973.00</ele>
   <time>2014-03-31T13:16:57Z</time>
  </trkpt>
  <trkpt lat="33.405076" lon="-3.527794">
   <ele>973.00</ele>
   <time>2014-03-31T13:17:12Z</time>
  </trkpt>
  <trkpt lat="33.405078" lon="-3.527794">
   <ele>972.00</ele>
   <time>2014-03-31T13:17:28Z</time>
  </trkpt>
  <trkpt lat="33.405077" lon="-3.527793">
   <ele>972.00</ele>
   <time>2014-03-31T13:17:43Z</time>
  </trkpt>
  <trkpt lat="33.405076" lon="-3.527790">
   <ele>971.00</ele>
   <time>2014-03-31T13:17:58Z</time>
  </trkpt>
  <trkpt lat="33.405076" lon="-3.527790">
   <ele>971.00</ele>
   <time>2014-03-31T13:18:14Z</time>
  </trkpt>
  <trkpt lat="33.405075" lon="-3.527789">
   <ele>972.00</ele>
   <time>2014-03-31T13:18:29Z</time>
  </trkpt>
  <trkpt lat="33.405073" lon="-3.527789">
   <ele>972.00</ele>
   <time>2014-03-31T13:18:44Z</time>
  </trkpt>
  <trkpt lat="33.405071" lon="-3.527788">
   <ele>973.00</ele>
   <time>2014-03-31T13:19:00Z</time>
  </trkpt>
  <trkpt lat="33.405071" lon="-3.527788">
   <ele>973.00</ele>
   <time>2014-03-31T13:19:15Z</time>
  </trkpt>
  <trkpt lat="33.405072" lon="-3.527790">
   <ele>973.00</ele>
   <time>2014-03-31T13:19:31Z</time>
  </trkpt>
  <trkpt lat="33.405074" lon="-3.527792">
   <ele>973.00</ele>
   <time>2014-03-31T13:19:46Z</time>
  </trkpt>
  <trkpt lat="33.405074" lon="-3.527792">
   <ele>973.00</ele>
   <time>2014-03-31T13:20:01Z</time>
  </trkpt>
  <trkpt lat="33.405074" lon="-3.527791">
   <ele>972.00</ele>
   <time>2014-03-31T13:20:17Z</time>
  </trkpt>
  <trkpt lat="33.405072" lon="-3.527790">
   <ele>972.00</ele>
   <time>2014-03-31T13:20:32Z</time>
  </trkpt>
  <trkpt lat="33.405071" lon="-3.527789">
   <ele>971.00</ele>
   <time>2014-03-31T13:20:46Z</time>
  </trkpt>
  <trkpt lat="33.405072" lon="-3.527789">
   <ele>971.00</ele>
   <time>2014-03-31T13:21:04Z</time>
  </trkpt>
  <trkpt lat="33.405072" lon="-3.527788">
   <ele>971.00</ele>
   <time>2014-03-31T13:21:20Z</time>
  </trkpt>
  <trkpt lat="33.405073" lon="-3.527787">
   <ele>971.00</ele>
   <time>2014-03-31T13:21:35Z</time>
  </trkpt>
  <trkpt lat="33.405074" lon="-3.527787">
   <ele>971.00</ele>
   <time>2014-03-31T13:21:51Z</time>
  </trkpt>
  <trkpt lat="33.405073" lon="-3.527788">
   <ele>972.00</ele>
   <time>2014-03-31T13:22:06Z</time>
  </trkpt>
  <trkpt lat="33.405073" lon="-3.527792">
   <ele>974.00</ele>
   <time>2014-03-31T13:22:22Z</time>
  </trkpt>
  <trkpt lat="33.405077" lon="-3.527797">
   <ele>975.00</ele>
   <time>2014-03-31T13:22:38Z</time>
  </trkpt>
  <trkpt lat="33.405076" lon="-3.527797">
   <ele>975.00</ele>
   <time>2014-03-31T13:22:53Z</time>
  </trkpt>
  <trkpt lat="33.405197" lon="-3.527792">
   <ele>976.00</ele>
   <time>2014-03-31T13:23:09Z</time>
  </trkpt>
  <trkpt lat="33.405370" lon="-3.527757">
   <ele>978.00</ele>
   <time>2014-03-31T13:23:24Z</time>
  </trkpt>
  <trkpt lat="33.405497" lon="-3.527743">
   <ele>981.00</ele>
   <time>2014-03-31T13:23:40Z</time>
  </trkpt>
  <trkpt lat="33.405606" lon="-3.527845">
   <ele>985.00</ele>
   <time>2014-03-31T13:23:56Z</time>
  </trkpt>
  <trkpt lat="33.405771" lon="-3.527920">
   <ele>987.00</ele>
   <time>2014-03-31T13:24:12Z</time>
  </trkpt>
  <trkpt lat="33.405951" lon="-3.527936">
   <ele>989.00</ele>
   <time>2014-03-31T13:24:24Z</time>
  </trkpt>
  <trkpt lat="33.406053" lon="-3.527752">
   <ele>990.00</ele>
   <time>2014-03-31T13:24:36Z</time>
  </trkpt>
  <trkpt lat="33.406055" lon="-3.527752">
   <ele>991.00</ele>
   <time>2014-03-31T13:24:51Z</time>
  </trkpt>
  <trkpt lat="33.406055" lon="-3.527753">
   <ele>990.00</ele>
   <time>2014-03-31T13:25:07Z</time>
  </trkpt>
  <trkpt lat="33.405969" lon="-3.527939">
   <ele>991.00</ele>
   <time>2014-03-31T13:25:22Z</time>
  </trkpt>
  <trkpt lat="33.405842" lon="-3.528095">
   <ele>991.00</ele>
   <time>2014-03-31T13:25:28Z</time>
  </trkpt>
  <trkpt lat="33.405840" lon="-3.528099">
   <ele>991.00</ele>
   <time>2014-03-31T13:25:44Z</time>
  </trkpt>
  <trkpt lat="33.405842" lon="-3.528098">
   <ele>991.00</ele>
   <time>2014-03-31T13:26:00Z</time>
  </trkpt>
  <trkpt lat="33.405846" lon="-3.528098">
   <ele>991.00</ele>
   <time>2014-03-31T13:26:15Z</time>
  </trkpt>
  <trkpt lat="33.405847" lon="-3.528099">
   <ele>991.00</ele>
   <time>2014-03-31T13:26:31Z</time>
  </trkpt>
  <trkpt lat="33.405848" lon="-3.528102">
   <ele>992.00</ele>
   <time>2014-03-31T13:26:47Z</time>
  </trkpt>
  <trkpt lat="33.405849" lon="-3.528103">
   <ele>992.00</ele>
   <time>2014-03-31T13:27:02Z</time>
  </trkpt>
  <trkpt lat="33.405855" lon="-3.528108">
   <ele>994.00</ele>
   <time>2014-03-31T13:27:18Z</time>
  </trkpt>
  <trkpt lat="33.405858" lon="-3.528112">
   <ele>995.00</ele>
   <time>2014-03-31T13:27:33Z</time>
  </trkpt>
  <trkpt lat="33.405861" lon="-3.528115">
   <ele>995.00</ele>
   <time>2014-03-31T13:27:49Z</time>
  </trkpt>
  <trkpt lat="33.405863" lon="-3.528117">
   <ele>996.00</ele>
   <time>2014-03-31T13:28:05Z</time>
  </trkpt>
  <trkpt lat="33.405865" lon="-3.528119">
   <ele>996.00</ele>
   <time>2014-03-31T13:28:20Z</time>
  </trkpt>
  <trkpt lat="33.405865" lon="-3.528117">
   <ele>996.00</ele>
   <time>2014-03-31T13:28:36Z</time>
  </trkpt>
  <trkpt lat="33.405890" lon="-3.528076">
   <ele>995.00</ele>
   <time>2014-03-31T13:28:52Z</time>
  </trkpt>
  <trkpt lat="33.406011" lon="-3.527912">
   <ele>996.00</ele>
   <time>2014-03-31T13:28:59Z</time>
  </trkpt>
  <trkpt lat="33.406031" lon="-3.527770">
   <ele>996.00</ele>
   <time>2014-03-31T13:29:15Z</time>
  </trkpt>
  <trkpt lat="33.406030" lon="-3.527770">
   <ele>996.00</ele>
   <time>2014-03-31T13:29:31Z</time>
  </trkpt>
  <trkpt lat="33.406032" lon="-3.527771">
   <ele>996.00</ele>
   <time>2014-03-31T13:29:46Z</time>
  </trkpt>
  <trkpt lat="33.406033" lon="-3.527772">
   <ele>995.00</ele>
   <time>2014-03-31T13:30:02Z</time>
  </trkpt>
  <trkpt lat="33.406033" lon="-3.527774">
   <ele>995.00</ele>
   <time>2014-03-31T13:30:18Z</time>
  </trkpt>
  <trkpt lat="33.406035" lon="-3.527776">
   <ele>995.00</ele>
   <time>2014-03-31T13:30:33Z</time>
  </trkpt>
  <trkpt lat="33.406032" lon="-3.527777">
   <ele>994.00</ele>
   <time>2014-03-31T13:30:49Z</time>
  </trkpt>
  <trkpt lat="33.406029" lon="-3.527774">
   <ele>993.00</ele>
   <time>2014-03-31T13:31:05Z</time>
  </trkpt>
  <trkpt lat="33.406026" lon="-3.527771">
   <ele>993.00</ele>
   <time>2014-03-31T13:31:20Z</time>
  </trkpt>
  <trkpt lat="33.406025" lon="-3.527773">
   <ele>992.00</ele>
   <time>2014-03-31T13:31:36Z</time>
  </trkpt>
  <trkpt lat="33.406024" lon="-3.527775">
   <ele>992.00</ele>
   <time>2014-03-31T13:31:51Z</time>
  </trkpt>
  <trkpt lat="33.406023" lon="-3.527773">
   <ele>992.00</ele>
   <time>2014-03-31T13:32:07Z</time>
  </trkpt>
  <trkpt lat="33.406023" lon="-3.527774">
   <ele>992.00</ele>
   <time>2014-03-31T13:32:23Z</time>
  </trkpt>
  <trkpt lat="33.406024" lon="-3.527776">
   <ele>992.00</ele>
   <time>2014-03-31T13:32:38Z</time>
  </trkpt>
  <trkpt lat="33.406024" lon="-3.527776">
   <ele>992.00</ele>
   <time>2014-03-31T13:32:54Z</time>
  </trkpt>
  <trkpt lat="33.406025" lon="-3.527775">
   <ele>993.00</ele>
   <time>2014-03-31T13:33:10Z</time>
  </trkpt>
  <trkpt lat="33.406024" lon="-3.527771">
   <ele>993.00</ele>
   <time>2014-03-31T13:33:25Z</time>
  </trkpt>
  <trkpt lat="33.406022" lon="-3.527766">
   <ele>992.00</ele>
   <time>2014-03-31T13:33:41Z</time>
  </trkpt>
  <trkpt lat="33.406021" lon="-3.527764">
   <ele>991.00</ele>
   <time>2014-03-31T13:33:57Z</time>
  </trkpt>
  <trkpt lat="33.406019" lon="-3.527760">
   <ele>991.00</ele>
   <time>2014-03-31T13:34:12Z</time>
  </trkpt>
  <trkpt lat="33.406022" lon="-3.527760">
   <ele>992.00</ele>
   <time>2014-03-31T13:34:28Z</time>
  </trkpt>
  <trkpt lat="33.406023" lon="-3.527758">
   <ele>993.00</ele>
   <time>2014-03-31T13:34:44Z</time>
  </trkpt>
  <trkpt lat="33.406023" lon="-3.527757">
   <ele>994.00</ele>
   <time>2014-03-31T13:34:59Z</time>
  </trkpt>
  <trkpt lat="33.406025" lon="-3.527757">
   <ele>995.00</ele>
   <time>2014-03-31T13:35:15Z</time>
  </trkpt>
  <trkpt lat="33.406028" lon="-3.527756">
   <ele>995.00</ele>
   <time>2014-03-31T13:35:31Z</time>
  </trkpt>
  <trkpt lat="33.406031" lon="-3.527753">
   <ele>995.00</ele>
   <time>2014-03-31T13:35:46Z</time>
  </trkpt>
  <trkpt lat="33.406031" lon="-3.527751">
   <ele>995.00</ele>
   <time>2014-03-31T13:36:02Z</time>
  </trkpt>
  <trkpt lat="33.406032" lon="-3.527749">
   <ele>996.00</ele>
   <time>2014-03-31T13:36:18Z</time>
  </trkpt>
  <trkpt lat="33.406031" lon="-3.527749">
   <ele>996.00</ele>
   <time>2014-03-31T13:36:33Z</time>
  </trkpt>
  <trkpt lat="33.406028" lon="-3.527745">
   <ele>998.00</ele>
   <time>2014-03-31T13:36:49Z</time>
  </trkpt>
  <trkpt lat="33.406026" lon="-3.527740">
   <ele>1000.00</ele>
   <time>2014-03-31T13:37:05Z</time>
  </trkpt>
  <trkpt lat="33.406026" lon="-3.527740">
   <ele>1001.00</ele>
   <time>2014-03-31T13:37:20Z</time>
  </trkpt>
  <trkpt lat="33.406026" lon="-3.527741">
   <ele>1001.00</ele>
   <time>2014-03-31T13:37:36Z</time>
  </trkpt>
  <trkpt lat="33.406028" lon="-3.527741">
   <ele>1002.00</ele>
   <time>2014-03-31T13:37:51Z</time>
  </trkpt>
  <trkpt lat="33.406029" lon="-3.527742">
   <ele>1002.00</ele>
   <time>2014-03-31T13:38:07Z</time>
  </trkpt>
  <trkpt lat="33.406029" lon="-3.527742">
   <ele>1002.00</ele>
   <time>2014-03-31T13:38:23Z</time>
  </trkpt>
  <trkpt lat="33.406028" lon="-3.527739">
   <ele>1003.00</ele>
   <time>2014-03-31T13:38:38Z</time>
  </trkpt>
  <trkpt lat="33.406030" lon="-3.527736">
   <ele>1003.00</ele>
   <time>2014-03-31T13:38:54Z</time>
  </trkpt>
  <trkpt lat="33.406033" lon="-3.527734">
   <ele>1002.00</ele>
   <time>2014-03-31T13:39:10Z</time>
  </trkpt>
  <trkpt lat="33.406033" lon="-3.527732">
   <ele>1001.00</ele>
   <time>2014-03-31T13:39:25Z</time>
  </trkpt>
  <trkpt lat="33.406033" lon="-3.527730">
   <ele>1001.00</ele>
   <time>2014-03-31T13:39:41Z</time>
  </trkpt>
  <trkpt lat="33.406032" lon="-3.527729">
   <ele>1001.00</ele>
   <time>2014-03-31T13:39:57Z</time>
  </trkpt>
  <trkpt lat="33.406032" lon="-3.527729">
   <ele>1001.00</ele>
   <time>2014-03-31T13:40:12Z</time>
  </trkpt>
  <trkpt lat="33.406033" lon="-3.527730">
   <ele>1001.00</ele>
   <time>2014-03-31T13:40:28Z</time>
  </trkpt>
  <trkpt lat="33.406034" lon="-3.527731">
   <ele>1000.00</ele>
   <time>2014-03-31T13:40:44Z</time>
  </trkpt>
  <trkpt lat="33.406036" lon="-3.527735">
   <ele>1000.00</ele>
   <time>2014-03-31T13:40:59Z</time>
  </trkpt>
  <trkpt lat="33.406038" lon="-3.527739">
   <ele>999.00</ele>
   <time>2014-03-31T13:41:15Z</time>
  </trkpt>
  <trkpt lat="33.406039" lon="-3.527743">
   <ele>999.00</ele>
   <time>2014-03-31T13:41:30Z</time>
  </trkpt>
  <trkpt lat="33.406041" lon="-3.527745">
   <ele>999.00</ele>
   <time>2014-03-31T13:41:46Z</time>
  </trkpt>
  <trkpt lat="33.406042" lon="-3.527746">
   <ele>999.00</ele>
   <time>2014-03-31T13:42:02Z</time>
  </trkpt>
  <trkpt lat="33.406042" lon="-3.527747">
   <ele>998.00</ele>
   <time>2014-03-31T13:42:17Z</time>
  </trkpt>
  <trkpt lat="33.406042" lon="-3.527746">
   <ele>999.00</ele>
   <time>2014-03-31T13:42:33Z</time>
  </trkpt>
  <trkpt lat="33.406041" lon="-3.527745">
   <ele>999.00</ele>
   <time>2014-03-31T13:42:49Z</time>
  </trkpt>
  <trkpt lat="33.406041" lon="-3.527744">
   <ele>999.00</ele>
   <time>2014-03-31T13:43:04Z</time>
  </trkpt>
  <trkpt lat="33.406039" lon="-3.527745">
   <ele>999.00</ele>
   <time>2014-03-31T13:43:20Z</time>
  </trkpt>
  <trkpt lat="33.406038" lon="-3.527746">
   <ele>1000.00</ele>
   <time>2014-03-31T13:43:36Z</time>
  </trkpt>
  <trkpt lat="33.406040" lon="-3.527756">
   <ele>999.00</ele>
   <time>2014-03-31T13:43:51Z</time>
  </trkpt>
  <trkpt lat="33.406042" lon="-3.527758">
   <ele>999.00</ele>
   <time>2014-03-31T13:44:07Z</time>
  </trkpt>
  <trkpt lat="33.406041" lon="-3.527763">
   <ele>998.00</ele>
   <time>2014-03-31T13:44:23Z</time>
  </trkpt>
  <trkpt lat="33.406040" lon="-3.527761">
   <ele>998.00</ele>
   <time>2014-03-31T13:44:38Z</time>
  </trkpt>
  <trkpt lat="33.406041" lon="-3.527763">
   <ele>996.00</ele>
   <time>2014-03-31T13:44:54Z</time>
  </trkpt>
  <trkpt lat="33.406042" lon="-3.527769">
   <ele>995.00</ele>
   <time>2014-03-31T13:45:09Z</time>
  </trkpt>
  <trkpt lat="33.406043" lon="-3.527772">
   <ele>995.00</ele>
   <time>2014-03-31T13:45:25Z</time>
  </trkpt>
  <trkpt lat="33.406046" lon="-3.527772">
   <ele>994.00</ele>
   <time>2014-03-31T13:45:41Z</time>
  </trkpt>
  <trkpt lat="33.406207" lon="-3.527654">
   <ele>994.00</ele>
   <time>2014-03-31T13:45:56Z</time>
  </trkpt>
  <trkpt lat="33.406275" lon="-3.527441">
   <ele>995.00</ele>
   <time>2014-03-31T13:46:03Z</time>
  </trkpt>
  <trkpt lat="33.406197" lon="-3.527228">
   <ele>996.00</ele>
   <time>2014-03-31T13:46:09Z</time>
  </trkpt>
  <trkpt lat="33.406087" lon="-3.527044">
   <ele>997.00</ele>
   <time>2014-03-31T13:46:14Z</time>
  </trkpt>
  <trkpt lat="33.406008" lon="-3.526850">
   <ele>998.00</ele>
   <time>2014-03-31T13:46:18Z</time>
  </trkpt>
  <trkpt lat="33.406002" lon="-3.526624">
   <ele>999.00</ele>
   <time>2014-03-31T13:46:22Z</time>
  </trkpt>
  <trkpt lat="33.406044" lon="-3.526405">
   <ele>1000.00</ele>
   <time>2014-03-31T13:46:26Z</time>
  </trkpt>
  <trkpt lat="33.406047" lon="-3.526162">
   <ele>1001.00</ele>
   <time>2014-03-31T13:46:30Z</time>
  </trkpt>
  <trkpt lat="33.406002" lon="-3.525898">
   <ele>1001.00</ele>
   <time>2014-03-31T13:46:34Z</time>
  </trkpt>
  <trkpt lat="33.405937" lon="-3.525626">
   <ele>1002.00</ele>
   <time>2014-03-31T13:46:38Z</time>
  </trkpt>
  <trkpt lat="33.405823" lon="-3.525445">
   <ele>1003.00</ele>
   <time>2014-03-31T13:46:41Z</time>
  </trkpt>
  <trkpt lat="33.405688" lon="-3.525254">
   <ele>1004.00</ele>
   <time>2014-03-31T13:46:44Z</time>
  </trkpt>
  <trkpt lat="33.405594" lon="-3.525026">
   <ele>1005.00</ele>
   <time>2014-03-31T13:46:47Z</time>
  </trkpt>
  <trkpt lat="33.405526" lon="-3.524765">
   <ele>1006.00</ele>
   <time>2014-03-31T13:46:50Z</time>
  </trkpt>
  <trkpt lat="33.405413" lon="-3.524253">
   <ele>1010.00</ele>
   <time>2014-03-31T13:46:56Z</time>
  </trkpt>
  <trkpt lat="33.405340" lon="-3.523824">
   <ele>1012.00</ele>
   <time>2014-03-31T13:47:03Z</time>
  </trkpt>
  <trkpt lat="33.405258" lon="-3.523557">
   <ele>1013.00</ele>
   <time>2014-03-31T13:47:07Z</time>
  </trkpt>
  <trkpt lat="33.404940" lon="-3.522523">
   <ele>1017.00</ele>
   <time>2014-03-31T13:47:20Z</time>
  </trkpt>
  <trkpt lat="33.404843" lon="-3.522190">
   <ele>1019.00</ele>
   <time>2014-03-31T13:47:24Z</time>
  </trkpt>
  <trkpt lat="33.404733" lon="-3.521978">
   <ele>1019.00</ele>
   <time>2014-03-31T13:47:28Z</time>
  </trkpt>
  <trkpt lat="33.404550" lon="-3.521729">
   <ele>1017.00</ele>
   <time>2014-03-31T13:47:33Z</time>
  </trkpt>
  <trkpt lat="33.404578" lon="-3.521493">
   <ele>1017.00</ele>
   <time>2014-03-31T13:47:37Z</time>
  </trkpt>
  <trkpt lat="33.404763" lon="-3.521102">
   <ele>1017.00</ele>
   <time>2014-03-31T13:47:43Z</time>
  </trkpt>
  <trkpt lat="33.404804" lon="-3.520852">
   <ele>1017.00</ele>
   <time>2014-03-31T13:47:47Z</time>
  </trkpt>
  <trkpt lat="33.404689" lon="-3.520639">
   <ele>1017.00</ele>
   <time>2014-03-31T13:47:51Z</time>
  </trkpt>
  <trkpt lat="33.404522" lon="-3.520481">
   <ele>1017.00</ele>
   <time>2014-03-31T13:47:54Z</time>
  </trkpt>
  <trkpt lat="33.404311" lon="-3.520330">
   <ele>1017.00</ele>
   <time>2014-03-31T13:47:57Z</time>
  </trkpt>
  <trkpt lat="33.404088" lon="-3.520198">
   <ele>1017.00</ele>
   <time>2014-03-31T13:48:00Z</time>
  </trkpt>
  <trkpt lat="33.403857" lon="-3.520101">
   <ele>1016.00</ele>
   <time>2014-03-31T13:48:03Z</time>
  </trkpt>
  <trkpt lat="33.403586" lon="-3.520006">
   <ele>1017.00</ele>
   <time>2014-03-31T13:48:07Z</time>
  </trkpt>
  <trkpt lat="33.403438" lon="-3.519872">
   <ele>1018.00</ele>
   <time>2014-03-31T13:48:10Z</time>
  </trkpt>
  <trkpt lat="33.403346" lon="-3.519673">
   <ele>1020.00</ele>
   <time>2014-03-31T13:48:13Z</time>
  </trkpt>
  <trkpt lat="33.403272" lon="-3.519407">
   <ele>1022.00</ele>
   <time>2014-03-31T13:48:17Z</time>
  </trkpt>
  <trkpt lat="33.403240" lon="-3.519175">
   <ele>1022.00</ele>
   <time>2014-03-31T13:48:21Z</time>
  </trkpt>
  <trkpt lat="33.403218" lon="-3.518854">
   <ele>1021.00</ele>
   <time>2014-03-31T13:48:26Z</time>
  </trkpt>
  <trkpt lat="33.403207" lon="-3.518616">
   <ele>1019.00</ele>
   <time>2014-03-31T13:48:29Z</time>
  </trkpt>
  <trkpt lat="33.403197" lon="-3.518355">
   <ele>1018.00</ele>
   <time>2014-03-31T13:48:32Z</time>
  </trkpt>
  <trkpt lat="33.403163" lon="-3.517809">
   <ele>1014.00</ele>
   <time>2014-03-31T13:48:38Z</time>
  </trkpt>
  <trkpt lat="33.403174" lon="-3.517525">
   <ele>1013.00</ele>
   <time>2014-03-31T13:48:41Z</time>
  </trkpt>
  <trkpt lat="33.403169" lon="-3.517239">
   <ele>1011.00</ele>
   <time>2014-03-31T13:48:44Z</time>
  </trkpt>
  <trkpt lat="33.403141" lon="-3.516946">
   <ele>1010.00</ele>
   <time>2014-03-31T13:48:47Z</time>
  </trkpt>
  <trkpt lat="33.403072" lon="-3.516358">
   <ele>1010.00</ele>
   <time>2014-03-31T13:48:53Z</time>
  </trkpt>
  <trkpt lat="33.402983" lon="-3.516079">
   <ele>1010.00</ele>
   <time>2014-03-31T13:48:56Z</time>
  </trkpt>
  <trkpt lat="33.402848" lon="-3.515824">
   <ele>1011.00</ele>
   <time>2014-03-31T13:48:59Z</time>
  </trkpt>
  <trkpt lat="33.402692" lon="-3.515611">
   <ele>1012.00</ele>
   <time>2014-03-31T13:49:02Z</time>
  </trkpt>
  <trkpt lat="33.402509" lon="-3.515387">
   <ele>1013.00</ele>
   <time>2014-03-31T13:49:06Z</time>
  </trkpt>
  <trkpt lat="33.402368" lon="-3.515140">
   <ele>1012.00</ele>
   <time>2014-03-31T13:49:10Z</time>
  </trkpt>
  <trkpt lat="33.402231" lon="-3.514964">
   <ele>1013.00</ele>
   <time>2014-03-31T13:49:13Z</time>
  </trkpt>
  <trkpt lat="33.402096" lon="-3.514783">
   <ele>1015.00</ele>
   <time>2014-03-31T13:49:16Z</time>
  </trkpt>
  <trkpt lat="33.401653" lon="-3.514152">
   <ele>1014.00</ele>
   <time>2014-03-31T13:49:26Z</time>
  </trkpt>
  <trkpt lat="33.401525" lon="-3.513944">
   <ele>1013.00</ele>
   <time>2014-03-31T13:49:29Z</time>
  </trkpt>
  <trkpt lat="33.401415" lon="-3.513735">
   <ele>1012.00</ele>
   <time>2014-03-31T13:49:32Z</time>
  </trkpt>
  <trkpt lat="33.401306" lon="-3.513559">
   <ele>1012.00</ele>
   <time>2014-03-31T13:49:35Z</time>
  </trkpt>
  <trkpt lat="33.401020" lon="-3.513152">
   <ele>1011.00</ele>
   <time>2014-03-31T13:49:42Z</time>
  </trkpt>
  <trkpt lat="33.400885" lon="-3.513009">
   <ele>1011.00</ele>
   <time>2014-03-31T13:49:45Z</time>
  </trkpt>
  <trkpt lat="33.400723" lon="-3.512802">
   <ele>1012.00</ele>
   <time>2014-03-31T13:49:49Z</time>
  </trkpt>
  <trkpt lat="33.400529" lon="-3.512522">
   <ele>1015.00</ele>
   <time>2014-03-31T13:49:54Z</time>
  </trkpt>
  <trkpt lat="33.400361" lon="-3.512348">
   <ele>1016.00</ele>
   <time>2014-03-31T13:49:58Z</time>
  </trkpt>
  <trkpt lat="33.400311" lon="-3.512288">
   <ele>1018.00</ele>
   <time>2014-03-31T13:50:14Z</time>
  </trkpt>
  <trkpt lat="33.400318" lon="-3.512293">
   <ele>1019.00</ele>
   <time>2014-03-31T13:50:30Z</time>
  </trkpt>
  <trkpt lat="33.400322" lon="-3.512299">
   <ele>1019.00</ele>
   <time>2014-03-31T13:50:45Z</time>
  </trkpt>
  <trkpt lat="33.400324" lon="-3.512301">
   <ele>1020.00</ele>
   <time>2014-03-31T13:51:01Z</time>
  </trkpt>
  <trkpt lat="33.400324" lon="-3.512305">
   <ele>1020.00</ele>
   <time>2014-03-31T13:51:16Z</time>
  </trkpt>
  <trkpt lat="33.400192" lon="-3.512127">
   <ele>1019.00</ele>
   <time>2014-03-31T13:51:28Z</time>
  </trkpt>
  <trkpt lat="33.400058" lon="-3.511977">
   <ele>1019.00</ele>
   <time>2014-03-31T13:51:32Z</time>
  </trkpt>
  <trkpt lat="33.399857" lon="-3.511842">
   <ele>1019.00</ele>
   <time>2014-03-31T13:51:36Z</time>
  </trkpt>
  <trkpt lat="33.399634" lon="-3.511778">
   <ele>1018.00</ele>
   <time>2014-03-31T13:51:40Z</time>
  </trkpt>
  <trkpt lat="33.399431" lon="-3.511782">
   <ele>1018.00</ele>
   <time>2014-03-31T13:51:44Z</time>
  </trkpt>
  <trkpt lat="33.399216" lon="-3.511834">
   <ele>1018.00</ele>
   <time>2014-03-31T13:51:48Z</time>
  </trkpt>
  <trkpt lat="33.399013" lon="-3.511945">
   <ele>1019.00</ele>
   <time>2014-03-31T13:51:52Z</time>
  </trkpt>
  <trkpt lat="33.398815" lon="-3.512103">
   <ele>1021.00</ele>
   <time>2014-03-31T13:51:56Z</time>
  </trkpt>
  <trkpt lat="33.398648" lon="-3.512230">
   <ele>1023.00</ele>
   <time>2014-03-31T13:52:00Z</time>
  </trkpt>
  <trkpt lat="33.398471" lon="-3.512150">
   <ele>1024.00</ele>
   <time>2014-03-31T13:52:05Z</time>
  </trkpt>
  <trkpt lat="33.398294" lon="-3.512019">
   <ele>1023.00</ele>
   <time>2014-03-31T13:52:09Z</time>
  </trkpt>
  <trkpt lat="33.398100" lon="-3.511865">
   <ele>1023.00</ele>
   <time>2014-03-31T13:52:13Z</time>
  </trkpt>
  <trkpt lat="33.397905" lon="-3.511691">
   <ele>1022.00</ele>
   <time>2014-03-31T13:52:17Z</time>
  </trkpt>
  <trkpt lat="33.397768" lon="-3.511530">
   <ele>1021.00</ele>
   <time>2014-03-31T13:52:20Z</time>
  </trkpt>
  <trkpt lat="33.397645" lon="-3.511347">
   <ele>1021.00</ele>
   <time>2014-03-31T13:52:23Z</time>
  </trkpt>
  <trkpt lat="33.397533" lon="-3.511140">
   <ele>1020.00</ele>
   <time>2014-03-31T13:52:26Z</time>
  </trkpt>
  <trkpt lat="33.397435" lon="-3.510926">
   <ele>1019.00</ele>
   <time>2014-03-31T13:52:29Z</time>
  </trkpt>
  <trkpt lat="33.397351" lon="-3.510714">
   <ele>1018.00</ele>
   <time>2014-03-31T13:52:32Z</time>
  </trkpt>
  <trkpt lat="33.397290" lon="-3.510478">
   <ele>1017.00</ele>
   <time>2014-03-31T13:52:35Z</time>
  </trkpt>
  <trkpt lat="33.397248" lon="-3.510215">
   <ele>1015.00</ele>
   <time>2014-03-31T13:52:38Z</time>
  </trkpt>
  <trkpt lat="33.397208" lon="-3.509953">
   <ele>1014.00</ele>
   <time>2014-03-31T13:52:41Z</time>
  </trkpt>
  <trkpt lat="33.397141" lon="-3.509690">
   <ele>1012.00</ele>
   <time>2014-03-31T13:52:44Z</time>
  </trkpt>
  <trkpt lat="33.397057" lon="-3.509437">
   <ele>1011.00</ele>
   <time>2014-03-31T13:52:47Z</time>
  </trkpt>
  <trkpt lat="33.397009" lon="-3.509196">
   <ele>1011.00</ele>
   <time>2014-03-31T13:52:50Z</time>
  </trkpt>
  <trkpt lat="33.396957" lon="-3.508968">
   <ele>1012.00</ele>
   <time>2014-03-31T13:52:53Z</time>
  </trkpt>
  <trkpt lat="33.396889" lon="-3.508727">
   <ele>1012.00</ele>
   <time>2014-03-31T13:52:56Z</time>
  </trkpt>
  <trkpt lat="33.396789" lon="-3.508492">
   <ele>1011.00</ele>
   <time>2014-03-31T13:52:59Z</time>
  </trkpt>
  <trkpt lat="33.396625" lon="-3.508193">
   <ele>1010.00</ele>
   <time>2014-03-31T13:53:03Z</time>
  </trkpt>
  <trkpt lat="33.396522" lon="-3.507981">
   <ele>1011.00</ele>
   <time>2014-03-31T13:53:06Z</time>
  </trkpt>
  <trkpt lat="33.396498" lon="-3.507761">
   <ele>1013.00</ele>
   <time>2014-03-31T13:53:09Z</time>
  </trkpt>
  <trkpt lat="33.396526" lon="-3.507390">
   <ele>1015.00</ele>
   <time>2014-03-31T13:53:14Z</time>
  </trkpt>
  <trkpt lat="33.396517" lon="-3.507159">
   <ele>1014.00</ele>
   <time>2014-03-31T13:53:18Z</time>
  </trkpt>
  <trkpt lat="33.396434" lon="-3.506948">
   <ele>1011.00</ele>
   <time>2014-03-31T13:53:22Z</time>
  </trkpt>
  <trkpt lat="33.396294" lon="-3.506786">
   <ele>1009.00</ele>
   <time>2014-03-31T13:53:25Z</time>
  </trkpt>
  <trkpt lat="33.396100" lon="-3.506639">
   <ele>1008.00</ele>
   <time>2014-03-31T13:53:28Z</time>
  </trkpt>
  <trkpt lat="33.395871" lon="-3.506532">
   <ele>1008.00</ele>
   <time>2014-03-31T13:53:31Z</time>
  </trkpt>
  <trkpt lat="33.395546" lon="-3.506429">
   <ele>1007.00</ele>
   <time>2014-03-31T13:53:35Z</time>
  </trkpt>
  <trkpt lat="33.395305" lon="-3.506326">
   <ele>1007.00</ele>
   <time>2014-03-31T13:53:38Z</time>
  </trkpt>
  <trkpt lat="33.395150" lon="-3.506212">
   <ele>1007.00</ele>
   <time>2014-03-31T13:53:40Z</time>
  </trkpt>
  <trkpt lat="33.394667" lon="-3.505780">
   <ele>1008.00</ele>
   <time>2014-03-31T13:53:46Z</time>
  </trkpt>
  <trkpt lat="33.394517" lon="-3.505619">
   <ele>1009.00</ele>
   <time>2014-03-31T13:53:48Z</time>
  </trkpt>
  <trkpt lat="33.394388" lon="-3.505443">
   <ele>1009.00</ele>
   <time>2014-03-31T13:53:50Z</time>
  </trkpt>
  <trkpt lat="33.394099" lon="-3.505019">
   <ele>1010.00</ele>
   <time>2014-03-31T13:53:55Z</time>
  </trkpt>
  <trkpt lat="33.394007" lon="-3.504761">
   <ele>1011.00</ele>
   <time>2014-03-31T13:53:58Z</time>
  </trkpt>
  <trkpt lat="33.393990" lon="-3.504542">
   <ele>1010.00</ele>
   <time>2014-03-31T13:54:01Z</time>
  </trkpt>
  <trkpt lat="33.394044" lon="-3.504312">
   <ele>1009.00</ele>
   <time>2014-03-31T13:54:06Z</time>
  </trkpt>
  <trkpt lat="33.394162" lon="-3.504122">
   <ele>1010.00</ele>
   <time>2014-03-31T13:54:10Z</time>
  </trkpt>
  <trkpt lat="33.394285" lon="-3.503953">
   <ele>1012.00</ele>
   <time>2014-03-31T13:54:13Z</time>
  </trkpt>
  <trkpt lat="33.394481" lon="-3.503716">
   <ele>1013.00</ele>
   <time>2014-03-31T13:54:17Z</time>
  </trkpt>
  <trkpt lat="33.394652" lon="-3.503543">
   <ele>1014.00</ele>
   <time>2014-03-31T13:54:20Z</time>
  </trkpt>
  <trkpt lat="33.395165" lon="-3.503054">
   <ele>1015.00</ele>
   <time>2014-03-31T13:54:28Z</time>
  </trkpt>
  <trkpt lat="33.395321" lon="-3.502845">
   <ele>1015.00</ele>
   <time>2014-03-31T13:54:31Z</time>
  </trkpt>
  <trkpt lat="33.395403" lon="-3.502595">
   <ele>1015.00</ele>
   <time>2014-03-31T13:54:34Z</time>
  </trkpt>
  <trkpt lat="33.395520" lon="-3.502323">
   <ele>1015.00</ele>
   <time>2014-03-31T13:54:37Z</time>
  </trkpt>
  <trkpt lat="33.395699" lon="-3.501926">
   <ele>1015.00</ele>
   <time>2014-03-31T13:54:41Z</time>
  </trkpt>
  <trkpt lat="33.395813" lon="-3.501636">
   <ele>1016.00</ele>
   <time>2014-03-31T13:54:44Z</time>
  </trkpt>
  <trkpt lat="33.395917" lon="-3.501386">
   <ele>1016.00</ele>
   <time>2014-03-31T13:54:47Z</time>
  </trkpt>
  <trkpt lat="33.396023" lon="-3.501169">
   <ele>1017.00</ele>
   <time>2014-03-31T13:54:50Z</time>
  </trkpt>
  <trkpt lat="33.396142" lon="-3.500974">
   <ele>1017.00</ele>
   <time>2014-03-31T13:54:53Z</time>
  </trkpt>
  <trkpt lat="33.396250" lon="-3.500769">
   <ele>1018.00</ele>
   <time>2014-03-31T13:54:56Z</time>
  </trkpt>
  <trkpt lat="33.396362" lon="-3.500539">
   <ele>1018.00</ele>
   <time>2014-03-31T13:54:59Z</time>
  </trkpt>
  <trkpt lat="33.396479" lon="-3.500280">
   <ele>1019.00</ele>
   <time>2014-03-31T13:55:02Z</time>
  </trkpt>
  <trkpt lat="33.396614" lon="-3.500023">
   <ele>1020.00</ele>
   <time>2014-03-31T13:55:05Z</time>
  </trkpt>
  <trkpt lat="33.396742" lon="-3.499773">
   <ele>1022.00</ele>
   <time>2014-03-31T13:55:08Z</time>
  </trkpt>
  <trkpt lat="33.396964" lon="-3.499327">
   <ele>1024.00</ele>
   <time>2014-03-31T13:55:13Z</time>
  </trkpt>
  <trkpt lat="33.397286" lon="-3.498731">
   <ele>1027.00</ele>
   <time>2014-03-31T13:55:20Z</time>
  </trkpt>
  <trkpt lat="33.397427" lon="-3.498521">
   <ele>1027.00</ele>
   <time>2014-03-31T13:55:23Z</time>
  </trkpt>
  <trkpt lat="33.397603" lon="-3.498286">
   <ele>1026.00</ele>
   <time>2014-03-31T13:55:26Z</time>
  </trkpt>
  <trkpt lat="33.398000" lon="-3.497786">
   <ele>1022.00</ele>
   <time>2014-03-31T13:55:32Z</time>
  </trkpt>
  <trkpt lat="33.398126" lon="-3.497614">
   <ele>1021.00</ele>
   <time>2014-03-31T13:55:34Z</time>
  </trkpt>
  <trkpt lat="33.398288" lon="-3.497377">
   <ele>1020.00</ele>
   <time>2014-03-31T13:55:37Z</time>
  </trkpt>
  <trkpt lat="33.398402" lon="-3.497133">
   <ele>1019.00</ele>
   <time>2014-03-31T13:55:40Z</time>
  </trkpt>
  <trkpt lat="33.398514" lon="-3.496906">
   <ele>1019.00</ele>
   <time>2014-03-31T13:55:43Z</time>
  </trkpt>
  <trkpt lat="33.398626" lon="-3.496703">
   <ele>1019.00</ele>
   <time>2014-03-31T13:55:46Z</time>
  </trkpt>
  <trkpt lat="33.398782" lon="-3.496502">
   <ele>1019.00</ele>
   <time>2014-03-31T13:55:49Z</time>
  </trkpt>
  <trkpt lat="33.398973" lon="-3.496306">
   <ele>1020.00</ele>
   <time>2014-03-31T13:55:52Z</time>
  </trkpt>
  <trkpt lat="33.399187" lon="-3.496134">
   <ele>1020.00</ele>
   <time>2014-03-31T13:55:55Z</time>
  </trkpt>
  <trkpt lat="33.399406" lon="-3.496001">
   <ele>1021.00</ele>
   <time>2014-03-31T13:55:58Z</time>
  </trkpt>
  <trkpt lat="33.399963" lon="-3.495694">
   <ele>1020.00</ele>
   <time>2014-03-31T13:56:05Z</time>
  </trkpt>
  <trkpt lat="33.400304" lon="-3.495507">
   <ele>1019.00</ele>
   <time>2014-03-31T13:56:09Z</time>
  </trkpt>
  <trkpt lat="33.400614" lon="-3.495334">
   <ele>1016.00</ele>
   <time>2014-03-31T13:56:13Z</time>
  </trkpt>
  <trkpt lat="33.400857" lon="-3.495213">
   <ele>1015.00</ele>
   <time>2014-03-31T13:56:17Z</time>
  </trkpt>
  <trkpt lat="33.401004" lon="-3.495080">
   <ele>1016.00</ele>
   <time>2014-03-31T13:56:20Z</time>
  </trkpt>
  <trkpt lat="33.401073" lon="-3.494878">
   <ele>1017.00</ele>
   <time>2014-03-31T13:56:23Z</time>
  </trkpt>
  <trkpt lat="33.401073" lon="-3.494653">
   <ele>1018.00</ele>
   <time>2014-03-31T13:56:26Z</time>
  </trkpt>
  <trkpt lat="33.401061" lon="-3.494404">
   <ele>1020.00</ele>
   <time>2014-03-31T13:56:29Z</time>
  </trkpt>
  <trkpt lat="33.401059" lon="-3.493964">
   <ele>1022.00</ele>
   <time>2014-03-31T13:56:34Z</time>
  </trkpt>
  <trkpt lat="33.401092" lon="-3.493712">
   <ele>1023.00</ele>
   <time>2014-03-31T13:56:37Z</time>
  </trkpt>
  <trkpt lat="33.401159" lon="-3.493469">
   <ele>1024.00</ele>
   <time>2014-03-31T13:56:40Z</time>
  </trkpt>
  <trkpt lat="33.401220" lon="-3.493225">
   <ele>1024.00</ele>
   <time>2014-03-31T13:56:43Z</time>
  </trkpt>
  <trkpt lat="33.401227" lon="-3.492976">
   <ele>1024.00</ele>
   <time>2014-03-31T13:56:46Z</time>
  </trkpt>
  <trkpt lat="33.401181" lon="-3.492739">
   <ele>1024.00</ele>
   <time>2014-03-31T13:56:49Z</time>
  </trkpt>
  <trkpt lat="33.401129" lon="-3.492513">
   <ele>1026.00</ele>
   <time>2014-03-31T13:56:52Z</time>
  </trkpt>
  <trkpt lat="33.401038" lon="-3.492031">
   <ele>1028.00</ele>
   <time>2014-03-31T13:56:58Z</time>
  </trkpt>
  <trkpt lat="33.401003" lon="-3.491778">
   <ele>1028.00</ele>
   <time>2014-03-31T13:57:01Z</time>
  </trkpt>
  <trkpt lat="33.400997" lon="-3.491533">
   <ele>1028.00</ele>
   <time>2014-03-31T13:57:04Z</time>
  </trkpt>
  <trkpt lat="33.400999" lon="-3.491276">
   <ele>1029.00</ele>
   <time>2014-03-31T13:57:07Z</time>
  </trkpt>
  <trkpt lat="33.401013" lon="-3.491007">
   <ele>1030.00</ele>
   <time>2014-03-31T13:57:10Z</time>
  </trkpt>
  <trkpt lat="33.401051" lon="-3.490751">
   <ele>1031.00</ele>
   <time>2014-03-31T13:57:13Z</time>
  </trkpt>
  <trkpt lat="33.401051" lon="-3.490497">
   <ele>1032.00</ele>
   <time>2014-03-31T13:57:16Z</time>
  </trkpt>
  <trkpt lat="33.401042" lon="-3.490150">
   <ele>1033.00</ele>
   <time>2014-03-31T13:57:20Z</time>
  </trkpt>
  <trkpt lat="33.401084" lon="-3.489897">
   <ele>1033.00</ele>
   <time>2014-03-31T13:57:23Z</time>
  </trkpt>
  <trkpt lat="33.401171" lon="-3.489692">
   <ele>1034.00</ele>
   <time>2014-03-31T13:57:26Z</time>
  </trkpt>
  <trkpt lat="33.401327" lon="-3.489340">
   <ele>1035.00</ele>
   <time>2014-03-31T13:57:31Z</time>
  </trkpt>
  <trkpt lat="33.401449" lon="-3.489040">
   <ele>1035.00</ele>
   <time>2014-03-31T13:57:35Z</time>
  </trkpt>
  <trkpt lat="33.401546" lon="-3.488818">
   <ele>1036.00</ele>
   <time>2014-03-31T13:57:38Z</time>
  </trkpt>
  <trkpt lat="33.401662" lon="-3.488516">
   <ele>1036.00</ele>
   <time>2014-03-31T13:57:42Z</time>
  </trkpt>
  <trkpt lat="33.401782" lon="-3.488335">
   <ele>1036.00</ele>
   <time>2014-03-31T13:57:45Z</time>
  </trkpt>
  <trkpt lat="33.401887" lon="-3.488139">
   <ele>1036.00</ele>
   <time>2014-03-31T13:57:48Z</time>
  </trkpt>
  <trkpt lat="33.402014" lon="-3.487928">
   <ele>1036.00</ele>
   <time>2014-03-31T13:57:51Z</time>
  </trkpt>
  <trkpt lat="33.402520" lon="-3.487259">
   <ele>1037.00</ele>
   <time>2014-03-31T13:58:00Z</time>
  </trkpt>
  <trkpt lat="33.402801" lon="-3.486913">
   <ele>1037.00</ele>
   <time>2014-03-31T13:58:05Z</time>
  </trkpt>
  <trkpt lat="33.403142" lon="-3.486512">
   <ele>1034.00</ele>
   <time>2014-03-31T13:58:11Z</time>
  </trkpt>
  <trkpt lat="33.403314" lon="-3.486310">
   <ele>1033.00</ele>
   <time>2014-03-31T13:58:14Z</time>
  </trkpt>
  <trkpt lat="33.403722" lon="-3.485823">
   <ele>1028.00</ele>
   <time>2014-03-31T13:58:21Z</time>
  </trkpt>
  <trkpt lat="33.404034" lon="-3.485420">
   <ele>1026.00</ele>
   <time>2014-03-31T13:58:27Z</time>
  </trkpt>
  <trkpt lat="33.404120" lon="-3.485172">
   <ele>1025.00</ele>
   <time>2014-03-31T13:58:30Z</time>
  </trkpt>
  <trkpt lat="33.404098" lon="-3.484899">
   <ele>1024.00</ele>
   <time>2014-03-31T13:58:33Z</time>
  </trkpt>
  <trkpt lat="33.404036" lon="-3.484654">
   <ele>1023.00</ele>
   <time>2014-03-31T13:58:36Z</time>
  </trkpt>
  <trkpt lat="33.403935" lon="-3.484335">
   <ele>1022.00</ele>
   <time>2014-03-31T13:58:40Z</time>
  </trkpt>
  <trkpt lat="33.403870" lon="-3.484109">
   <ele>1022.00</ele>
   <time>2014-03-31T13:58:43Z</time>
  </trkpt>
  <trkpt lat="33.403766" lon="-3.483917">
   <ele>1021.00</ele>
   <time>2014-03-31T13:58:46Z</time>
  </trkpt>
  <trkpt lat="33.403616" lon="-3.483766">
   <ele>1020.00</ele>
   <time>2014-03-31T13:58:49Z</time>
  </trkpt>
  <trkpt lat="33.403348" lon="-3.483565">
   <ele>1021.00</ele>
   <time>2014-03-31T13:58:54Z</time>
  </trkpt>
  <trkpt lat="33.403187" lon="-3.483436">
   <ele>1022.00</ele>
   <time>2014-03-31T13:58:57Z</time>
  </trkpt>
  <trkpt lat="33.403020" lon="-3.483279">
   <ele>1023.00</ele>
   <time>2014-03-31T13:59:00Z</time>
  </trkpt>
  <trkpt lat="33.402856" lon="-3.483101">
   <ele>1023.00</ele>
   <time>2014-03-31T13:59:03Z</time>
  </trkpt>
  <trkpt lat="33.402708" lon="-3.482890">
   <ele>1022.00</ele>
   <time>2014-03-31T13:59:06Z</time>
  </trkpt>
  <trkpt lat="33.402536" lon="-3.482602">
   <ele>1020.00</ele>
   <time>2014-03-31T13:59:10Z</time>
  </trkpt>
  <trkpt lat="33.402473" lon="-3.482388">
   <ele>1019.00</ele>
   <time>2014-03-31T13:59:13Z</time>
  </trkpt>
  <trkpt lat="33.402480" lon="-3.482105">
   <ele>1018.00</ele>
   <time>2014-03-31T13:59:17Z</time>
  </trkpt>
  <trkpt lat="33.402560" lon="-3.481655">
   <ele>1017.00</ele>
   <time>2014-03-31T13:59:23Z</time>
  </trkpt>
  <trkpt lat="33.402633" lon="-3.481444">
   <ele>1015.00</ele>
   <time>2014-03-31T13:59:26Z</time>
  </trkpt>
  <trkpt lat="33.402806" lon="-3.481155">
   <ele>1015.00</ele>
   <time>2014-03-31T13:59:31Z</time>
  </trkpt>
  <trkpt lat="33.402875" lon="-3.480950">
   <ele>1014.00</ele>
   <time>2014-03-31T13:59:34Z</time>
  </trkpt>
  <trkpt lat="33.402949" lon="-3.480709">
   <ele>1012.00</ele>
   <time>2014-03-31T13:59:37Z</time>
  </trkpt>
  <trkpt lat="33.403024" lon="-3.480469">
   <ele>1011.00</ele>
   <time>2014-03-31T13:59:40Z</time>
  </trkpt>
  <trkpt lat="33.403069" lon="-3.480353">
   <ele>1010.00</ele>
   <time>2014-03-31T13:59:56Z</time>
  </trkpt>
  <trkpt lat="33.403069" lon="-3.480373">
   <ele>1011.00</ele>
   <time>2014-03-31T14:00:11Z</time>
  </trkpt>
  <trkpt lat="33.403071" lon="-3.480380">
   <ele>1010.00</ele>
   <time>2014-03-31T14:00:27Z</time>
  </trkpt>
  <trkpt lat="33.403062" lon="-3.480375">
   <ele>1009.00</ele>
   <time>2014-03-31T14:00:43Z</time>
  </trkpt>
  <trkpt lat="33.403050" lon="-3.480374">
   <ele>1007.00</ele>
   <time>2014-03-31T14:00:58Z</time>
  </trkpt>
  <trkpt lat="33.403042" lon="-3.480375">
   <ele>1006.00</ele>
   <time>2014-03-31T14:01:14Z</time>
  </trkpt>
  <trkpt lat="33.403046" lon="-3.480374">
   <ele>1006.00</ele>
   <time>2014-03-31T14:01:30Z</time>
  </trkpt>
  <trkpt lat="33.403039" lon="-3.480374">
   <ele>1006.00</ele>
   <time>2014-03-31T14:01:45Z</time>
  </trkpt>
  <trkpt lat="33.403055" lon="-3.480371">
   <ele>1007.00</ele>
   <time>2014-03-31T14:02:01Z</time>
  </trkpt>
  <trkpt lat="33.403046" lon="-3.480373">
   <ele>1007.00</ele>
   <time>2014-03-31T14:02:17Z</time>
  </trkpt>
  <trkpt lat="33.403048" lon="-3.480377">
   <ele>1008.00</ele>
   <time>2014-03-31T14:02:32Z</time>
  </trkpt>
  <trkpt lat="33.403057" lon="-3.480378">
   <ele>1008.00</ele>
   <time>2014-03-31T14:02:48Z</time>
  </trkpt>
  <trkpt lat="33.403059" lon="-3.480380">
   <ele>1009.00</ele>
   <time>2014-03-31T14:03:03Z</time>
  </trkpt>
  <trkpt lat="33.403060" lon="-3.480382">
   <ele>1010.00</ele>
   <time>2014-03-31T14:03:19Z</time>
  </trkpt>
  <trkpt lat="33.403065" lon="-3.480379">
   <ele>1010.00</ele>
   <time>2014-03-31T14:03:35Z</time>
  </trkpt>
  <trkpt lat="33.403066" lon="-3.480378">
   <ele>1010.00</ele>
   <time>2014-03-31T14:03:51Z</time>
  </trkpt>
  <trkpt lat="33.403069" lon="-3.480377">
   <ele>1010.00</ele>
   <time>2014-03-31T14:04:06Z</time>
  </trkpt>
  <trkpt lat="33.403075" lon="-3.480377">
   <ele>1010.00</ele>
   <time>2014-03-31T14:04:22Z</time>
  </trkpt>
  <trkpt lat="33.403081" lon="-3.480375">
   <ele>1009.00</ele>
   <time>2014-03-31T14:04:38Z</time>
  </trkpt>
  <trkpt lat="33.403082" lon="-3.480372">
   <ele>1010.00</ele>
   <time>2014-03-31T14:04:53Z</time>
  </trkpt>
  <trkpt lat="33.403080" lon="-3.480375">
   <ele>1011.00</ele>
   <time>2014-03-31T14:05:09Z</time>
  </trkpt>
  <trkpt lat="33.403082" lon="-3.480375">
   <ele>1011.00</ele>
   <time>2014-03-31T14:05:24Z</time>
  </trkpt>
  <trkpt lat="33.403084" lon="-3.480372">
   <ele>1011.00</ele>
   <time>2014-03-31T14:05:40Z</time>
  </trkpt>
  <trkpt lat="33.403085" lon="-3.480370">
   <ele>1011.00</ele>
   <time>2014-03-31T14:05:56Z</time>
  </trkpt>
  <trkpt lat="33.403087" lon="-3.480369">
   <ele>1011.00</ele>
   <time>2014-03-31T14:06:11Z</time>
  </trkpt>
  <trkpt lat="33.403089" lon="-3.480369">
   <ele>1011.00</ele>
   <time>2014-03-31T14:06:27Z</time>
  </trkpt>
  <trkpt lat="33.403092" lon="-3.480368">
   <ele>1011.00</ele>
   <time>2014-03-31T14:06:43Z</time>
  </trkpt>
  <trkpt lat="33.403092" lon="-3.480367">
   <ele>1011.00</ele>
   <time>2014-03-31T14:06:58Z</time>
  </trkpt>
  <trkpt lat="33.403091" lon="-3.480367">
   <ele>1011.00</ele>
   <time>2014-03-31T14:07:14Z</time>
  </trkpt>
  <trkpt lat="33.403094" lon="-3.480364">
   <ele>1011.00</ele>
   <time>2014-03-31T14:07:30Z</time>
  </trkpt>
  <trkpt lat="33.403095" lon="-3.480363">
   <ele>1011.00</ele>
   <time>2014-03-31T14:07:45Z</time>
  </trkpt>
  <trkpt lat="33.403097" lon="-3.480362">
   <ele>1011.00</ele>
   <time>2014-03-31T14:08:01Z</time>
  </trkpt>
  <trkpt lat="33.403100" lon="-3.480362">
   <ele>1012.00</ele>
   <time>2014-03-31T14:08:17Z</time>
  </trkpt>
  <trkpt lat="33.403100" lon="-3.480361">
   <ele>1012.00</ele>
   <time>2014-03-31T14:08:32Z</time>
  </trkpt>
  <trkpt lat="33.403102" lon="-3.480362">
   <ele>1013.00</ele>
   <time>2014-03-31T14:08:48Z</time>
  </trkpt>
  <trkpt lat="33.403103" lon="-3.480362">
   <ele>1013.00</ele>
   <time>2014-03-31T14:09:04Z</time>
  </trkpt>
  <trkpt lat="33.403102" lon="-3.480363">
   <ele>1013.00</ele>
   <time>2014-03-31T14:09:19Z</time>
  </trkpt>
  <trkpt lat="33.403096" lon="-3.480368">
   <ele>1014.00</ele>
   <time>2014-03-31T14:09:35Z</time>
  </trkpt>
  <trkpt lat="33.403093" lon="-3.480371">
   <ele>1015.00</ele>
   <time>2014-03-31T14:09:50Z</time>
  </trkpt>
  <trkpt lat="33.403091" lon="-3.480372">
   <ele>1015.00</ele>
   <time>2014-03-31T14:10:06Z</time>
  </trkpt>
  <trkpt lat="33.403078" lon="-3.480373">
   <ele>1014.00</ele>
   <time>2014-03-31T14:10:22Z</time>
  </trkpt>
  <trkpt lat="33.403085" lon="-3.480373">
   <ele>1015.00</ele>
   <time>2014-03-31T14:10:37Z</time>
  </trkpt>
  <trkpt lat="33.403090" lon="-3.480365">
   <ele>1015.00</ele>
   <time>2014-03-31T14:10:53Z</time>
  </trkpt>
  <trkpt lat="33.403178" lon="-3.480122">
   <ele>1015.00</ele>
   <time>2014-03-31T14:11:06Z</time>
  </trkpt>
  <trkpt lat="33.403277" lon="-3.479854">
   <ele>1014.00</ele>
   <time>2014-03-31T14:11:11Z</time>
  </trkpt>
  <trkpt lat="33.403372" lon="-3.479644">
   <ele>1014.00</ele>
   <time>2014-03-31T14:11:14Z</time>
  </trkpt>
  <trkpt lat="33.403574" lon="-3.479190">
   <ele>1012.00</ele>
   <time>2014-03-31T14:11:20Z</time>
  </trkpt>
  <trkpt lat="33.403696" lon="-3.478959">
   <ele>1012.00</ele>
   <time>2014-03-31T14:11:23Z</time>
  </trkpt>
  <trkpt lat="33.403859" lon="-3.478755">
   <ele>1012.00</ele>
   <time>2014-03-31T14:11:26Z</time>
  </trkpt>
  <trkpt lat="33.404068" lon="-3.478606">
   <ele>1013.00</ele>
   <time>2014-03-31T14:11:29Z</time>
  </trkpt>
  <trkpt lat="33.404278" lon="-3.478468">
   <ele>1014.00</ele>
   <time>2014-03-31T14:11:32Z</time>
  </trkpt>
  <trkpt lat="33.404456" lon="-3.478270">
   <ele>1015.00</ele>
   <time>2014-03-31T14:11:35Z</time>
  </trkpt>
  <trkpt lat="33.404604" lon="-3.478039">
   <ele>1016.00</ele>
   <time>2014-03-31T14:11:38Z</time>
  </trkpt>
  <trkpt lat="33.404742" lon="-3.477825">
   <ele>1016.00</ele>
   <time>2014-03-31T14:11:41Z</time>
  </trkpt>
  <trkpt lat="33.404913" lon="-3.477653">
   <ele>1015.00</ele>
   <time>2014-03-31T14:11:44Z</time>
  </trkpt>
  <trkpt lat="33.405019" lon="-3.477447">
   <ele>1013.00</ele>
   <time>2014-03-31T14:11:48Z</time>
  </trkpt>
  <trkpt lat="33.405100" lon="-3.477217">
   <ele>1011.00</ele>
   <time>2014-03-31T14:11:52Z</time>
  </trkpt>
  <trkpt lat="33.405215" lon="-3.477050">
   <ele>1009.00</ele>
   <time>2014-03-31T14:11:55Z</time>
  </trkpt>
  <trkpt lat="33.405385" lon="-3.476953">
   <ele>1006.00</ele>
   <time>2014-03-31T14:11:58Z</time>
  </trkpt>
  <trkpt lat="33.405570" lon="-3.476948">
   <ele>1004.00</ele>
   <time>2014-03-31T14:12:01Z</time>
  </trkpt>
  <trkpt lat="33.405741" lon="-3.477021">
   <ele>1001.00</ele>
   <time>2014-03-31T14:12:04Z</time>
  </trkpt>
  <trkpt lat="33.405926" lon="-3.476926">
   <ele>998.00</ele>
   <time>2014-03-31T14:12:09Z</time>
  </trkpt>
  <trkpt lat="33.405983" lon="-3.476711">
   <ele>998.00</ele>
   <time>2014-03-31T14:12:13Z</time>
  </trkpt>
  <trkpt lat="33.405992" lon="-3.476424">
   <ele>999.00</ele>
   <time>2014-03-31T14:12:17Z</time>
  </trkpt>
  <trkpt lat="33.405986" lon="-3.476197">
   <ele>1000.00</ele>
   <time>2014-03-31T14:12:20Z</time>
  </trkpt>
  <trkpt lat="33.405972" lon="-3.475948">
   <ele>1001.00</ele>
   <time>2014-03-31T14:12:23Z</time>
  </trkpt>
  <trkpt lat="33.405941" lon="-3.475679">
   <ele>1001.00</ele>
   <time>2014-03-31T14:12:26Z</time>
  </trkpt>
  <trkpt lat="33.405876" lon="-3.475291">
   <ele>1004.00</ele>
   <time>2014-03-31T14:12:30Z</time>
  </trkpt>
  <trkpt lat="33.405829" lon="-3.475081">
   <ele>1005.00</ele>
   <time>2014-03-31T14:12:32Z</time>
  </trkpt>
  <trkpt lat="33.405772" lon="-3.474874">
   <ele>1006.00</ele>
   <time>2014-03-31T14:12:34Z</time>
  </trkpt>
  <trkpt lat="33.405616" lon="-3.474318">
   <ele>1008.00</ele>
   <time>2014-03-31T14:12:41Z</time>
  </trkpt>
  <trkpt lat="33.405504" lon="-3.473899">
   <ele>1010.00</ele>
   <time>2014-03-31T14:12:47Z</time>
  </trkpt>
  <trkpt lat="33.405377" lon="-3.473208">
   <ele>1013.00</ele>
   <time>2014-03-31T14:12:54Z</time>
  </trkpt>
  <trkpt lat="33.405331" lon="-3.472915">
   <ele>1014.00</ele>
   <time>2014-03-31T14:12:57Z</time>
  </trkpt>
  <trkpt lat="33.405265" lon="-3.472634">
   <ele>1015.00</ele>
   <time>2014-03-31T14:13:00Z</time>
  </trkpt>
  <trkpt lat="33.405165" lon="-3.472292">
   <ele>1017.00</ele>
   <time>2014-03-31T14:13:04Z</time>
  </trkpt>
  <trkpt lat="33.405143" lon="-3.472046">
   <ele>1018.00</ele>
   <time>2014-03-31T14:13:07Z</time>
  </trkpt>
  <trkpt lat="33.405117" lon="-3.471675">
   <ele>1018.00</ele>
   <time>2014-03-31T14:13:11Z</time>
  </trkpt>
  <trkpt lat="33.405113" lon="-3.471413">
   <ele>1018.00</ele>
   <time>2014-03-31T14:13:14Z</time>
  </trkpt>
  <trkpt lat="33.405161" lon="-3.471150">
   <ele>1019.00</ele>
   <time>2014-03-31T14:13:17Z</time>
  </trkpt>
  <trkpt lat="33.405223" lon="-3.470852">
   <ele>1019.00</ele>
   <time>2014-03-31T14:13:20Z</time>
  </trkpt>
  <trkpt lat="33.405276" lon="-3.470414">
   <ele>1019.00</ele>
   <time>2014-03-31T14:13:24Z</time>
  </trkpt>
  <trkpt lat="33.405353" lon="-3.469813">
   <ele>1020.00</ele>
   <time>2014-03-31T14:13:29Z</time>
  </trkpt>
  <trkpt lat="33.405364" lon="-3.469568">
   <ele>1020.00</ele>
   <time>2014-03-31T14:13:31Z</time>
  </trkpt>
  <trkpt lat="33.405343" lon="-3.469330">
   <ele>1020.00</ele>
   <time>2014-03-31T14:13:33Z</time>
  </trkpt>
  <trkpt lat="33.405284" lon="-3.469099">
   <ele>1021.00</ele>
   <time>2014-03-31T14:13:35Z</time>
  </trkpt>
  <trkpt lat="33.405212" lon="-3.468898">
   <ele>1021.00</ele>
   <time>2014-03-31T14:13:37Z</time>
  </trkpt>
  <trkpt lat="33.405078" lon="-3.468607">
   <ele>1022.00</ele>
   <time>2014-03-31T14:13:41Z</time>
  </trkpt>
  <trkpt lat="33.404976" lon="-3.468276">
   <ele>1024.00</ele>
   <time>2014-03-31T14:13:45Z</time>
  </trkpt>
  <trkpt lat="33.404844" lon="-3.468004">
   <ele>1025.00</ele>
   <time>2014-03-31T14:13:48Z</time>
  </trkpt>
  <trkpt lat="33.404684" lon="-3.467766">
   <ele>1026.00</ele>
   <time>2014-03-31T14:13:51Z</time>
  </trkpt>
  <trkpt lat="33.404564" lon="-3.467563">
   <ele>1027.00</ele>
   <time>2014-03-31T14:13:54Z</time>
  </trkpt>
  <trkpt lat="33.404426" lon="-3.467362">
   <ele>1028.00</ele>
   <time>2014-03-31T14:13:57Z</time>
  </trkpt>
  <trkpt lat="33.404296" lon="-3.467095">
   <ele>1029.00</ele>
   <time>2014-03-31T14:14:00Z</time>
  </trkpt>
  <trkpt lat="33.404174" lon="-3.466809">
   <ele>1029.00</ele>
   <time>2014-03-31T14:14:03Z</time>
  </trkpt>
  <trkpt lat="33.403930" lon="-3.466329">
   <ele>1031.00</ele>
   <time>2014-03-31T14:14:09Z</time>
  </trkpt>
  <trkpt lat="33.403836" lon="-3.466028">
   <ele>1032.00</ele>
   <time>2014-03-31T14:14:14Z</time>
  </trkpt>
  <trkpt lat="33.403684" lon="-3.465853">
   <ele>1032.00</ele>
   <time>2014-03-31T14:14:18Z</time>
  </trkpt>
  <trkpt lat="33.403643" lon="-3.465629">
   <ele>1032.00</ele>
   <time>2014-03-31T14:14:21Z</time>
  </trkpt>
  <trkpt lat="33.403588" lon="-3.465371">
   <ele>1033.00</ele>
   <time>2014-03-31T14:14:24Z</time>
  </trkpt>
  <trkpt lat="33.403528" lon="-3.465081">
   <ele>1034.00</ele>
   <time>2014-03-31T14:14:27Z</time>
  </trkpt>
  <trkpt lat="33.403460" lon="-3.464690">
   <ele>1035.00</ele>
   <time>2014-03-31T14:14:31Z</time>
  </trkpt>
  <trkpt lat="33.403377" lon="-3.464428">
   <ele>1035.00</ele>
   <time>2014-03-31T14:14:34Z</time>
  </trkpt>
  <trkpt lat="33.403291" lon="-3.464163">
   <ele>1036.00</ele>
   <time>2014-03-31T14:14:37Z</time>
  </trkpt>
  <trkpt lat="33.403207" lon="-3.463891">
   <ele>1036.00</ele>
   <time>2014-03-31T14:14:40Z</time>
  </trkpt>
  <trkpt lat="33.403128" lon="-3.463632">
   <ele>1037.00</ele>
   <time>2014-03-31T14:14:43Z</time>
  </trkpt>
  <trkpt lat="33.403106" lon="-3.463393">
   <ele>1037.00</ele>
   <time>2014-03-31T14:14:46Z</time>
  </trkpt>
  <trkpt lat="33.403148" lon="-3.463117">
   <ele>1037.00</ele>
   <time>2014-03-31T14:14:49Z</time>
  </trkpt>
  <trkpt lat="33.403181" lon="-3.462841">
   <ele>1038.00</ele>
   <time>2014-03-31T14:14:52Z</time>
  </trkpt>
  <trkpt lat="33.403210" lon="-3.462580">
   <ele>1038.00</ele>
   <time>2014-03-31T14:14:55Z</time>
  </trkpt>
  <trkpt lat="33.403288" lon="-3.462321">
   <ele>1038.00</ele>
   <time>2014-03-31T14:14:58Z</time>
  </trkpt>
  <trkpt lat="33.403356" lon="-3.462053">
   <ele>1038.00</ele>
   <time>2014-03-31T14:15:01Z</time>
  </trkpt>
  <trkpt lat="33.403455" lon="-3.461803">
   <ele>1038.00</ele>
   <time>2014-03-31T14:15:04Z</time>
  </trkpt>
  <trkpt lat="33.403556" lon="-3.461583">
   <ele>1038.00</ele>
   <time>2014-03-31T14:15:07Z</time>
  </trkpt>
  <trkpt lat="33.403775" lon="-3.461138">
   <ele>1039.00</ele>
   <time>2014-03-31T14:15:13Z</time>
  </trkpt>
  <trkpt lat="33.403877" lon="-3.460888">
   <ele>1040.00</ele>
   <time>2014-03-31T14:15:16Z</time>
  </trkpt>
  <trkpt lat="33.403995" lon="-3.460628">
   <ele>1042.00</ele>
   <time>2014-03-31T14:15:19Z</time>
  </trkpt>
  <trkpt lat="33.404084" lon="-3.460346">
   <ele>1043.00</ele>
   <time>2014-03-31T14:15:22Z</time>
  </trkpt>
  <trkpt lat="33.404119" lon="-3.460074">
   <ele>1044.00</ele>
   <time>2014-03-31T14:15:25Z</time>
  </trkpt>
  <trkpt lat="33.404213" lon="-3.459847">
   <ele>1044.00</ele>
   <time>2014-03-31T14:15:28Z</time>
  </trkpt>
  <trkpt lat="33.404454" lon="-3.459473">
   <ele>1046.00</ele>
   <time>2014-03-31T14:15:33Z</time>
  </trkpt>
  <trkpt lat="33.404609" lon="-3.459253">
   <ele>1047.00</ele>
   <time>2014-03-31T14:15:36Z</time>
  </trkpt>
  <trkpt lat="33.404737" lon="-3.458996">
   <ele>1047.00</ele>
   <time>2014-03-31T14:15:39Z</time>
  </trkpt>
  <trkpt lat="33.404776" lon="-3.458692">
   <ele>1048.00</ele>
   <time>2014-03-31T14:15:42Z</time>
  </trkpt>
  <trkpt lat="33.404743" lon="-3.458468">
   <ele>1049.00</ele>
   <time>2014-03-31T14:15:44Z</time>
  </trkpt>
  <trkpt lat="33.404666" lon="-3.457923">
   <ele>1051.00</ele>
   <time>2014-03-31T14:15:49Z</time>
  </trkpt>
  <trkpt lat="33.404638" lon="-3.457703">
   <ele>1051.00</ele>
   <time>2014-03-31T14:15:51Z</time>
  </trkpt>
  <trkpt lat="33.404587" lon="-3.457383">
   <ele>1053.00</ele>
   <time>2014-03-31T14:15:54Z</time>
  </trkpt>
  <trkpt lat="33.404502" lon="-3.456979">
   <ele>1054.00</ele>
   <time>2014-03-31T14:15:58Z</time>
  </trkpt>
  <trkpt lat="33.404476" lon="-3.456765">
   <ele>1055.00</ele>
   <time>2014-03-31T14:16:00Z</time>
  </trkpt>
  <trkpt lat="33.404392" lon="-3.456039">
   <ele>1058.00</ele>
   <time>2014-03-31T14:16:06Z</time>
  </trkpt>
  <trkpt lat="33.404300" lon="-3.455385">
   <ele>1059.00</ele>
   <time>2014-03-31T14:16:11Z</time>
  </trkpt>
  <trkpt lat="33.404265" lon="-3.455156">
   <ele>1060.00</ele>
   <time>2014-03-31T14:16:13Z</time>
  </trkpt>
  <trkpt lat="33.404150" lon="-3.454178">
   <ele>1062.00</ele>
   <time>2014-03-31T14:16:22Z</time>
  </trkpt>
  <trkpt lat="33.404095" lon="-3.453969">
   <ele>1064.00</ele>
   <time>2014-03-31T14:16:24Z</time>
  </trkpt>
  <trkpt lat="33.403995" lon="-3.453755">
   <ele>1065.00</ele>
   <time>2014-03-31T14:16:26Z</time>
  </trkpt>
  <trkpt lat="33.403813" lon="-3.453414">
   <ele>1067.00</ele>
   <time>2014-03-31T14:16:29Z</time>
  </trkpt>
  <trkpt lat="33.403705" lon="-3.453169">
   <ele>1068.00</ele>
   <time>2014-03-31T14:16:31Z</time>
  </trkpt>
  <trkpt lat="33.403552" lon="-3.452796">
   <ele>1070.00</ele>
   <time>2014-03-31T14:16:34Z</time>
  </trkpt>
  <trkpt lat="33.403461" lon="-3.452541">
   <ele>1071.00</ele>
   <time>2014-03-31T14:16:36Z</time>
  </trkpt>
  <trkpt lat="33.403386" lon="-3.452298">
   <ele>1071.00</ele>
   <time>2014-03-31T14:16:38Z</time>
  </trkpt>
  <trkpt lat="33.403328" lon="-3.452081">
   <ele>1072.00</ele>
   <time>2014-03-31T14:16:40Z</time>
  </trkpt>
  <trkpt lat="33.403280" lon="-3.451869">
   <ele>1072.00</ele>
   <time>2014-03-31T14:16:42Z</time>
  </trkpt>
  <trkpt lat="33.403239" lon="-3.451638">
   <ele>1073.00</ele>
   <time>2014-03-31T14:16:44Z</time>
  </trkpt>
  <trkpt lat="33.403195" lon="-3.451398">
   <ele>1073.00</ele>
   <time>2014-03-31T14:16:46Z</time>
  </trkpt>
  <trkpt lat="33.403139" lon="-3.451167">
   <ele>1073.00</ele>
   <time>2014-03-31T14:16:48Z</time>
  </trkpt>
  <trkpt lat="33.403096" lon="-3.450937">
   <ele>1074.00</ele>
   <time>2014-03-31T14:16:50Z</time>
  </trkpt>
  <trkpt lat="33.403004" lon="-3.450214">
   <ele>1076.00</ele>
   <time>2014-03-31T14:16:56Z</time>
  </trkpt>
  <trkpt lat="33.402977" lon="-3.449969">
   <ele>1076.00</ele>
   <time>2014-03-31T14:16:59Z</time>
  </trkpt>
  <trkpt lat="33.402968" lon="-3.449714">
   <ele>1077.00</ele>
   <time>2014-03-31T14:17:03Z</time>
  </trkpt>
  <trkpt lat="33.402908" lon="-3.449463">
   <ele>1079.00</ele>
   <time>2014-03-31T14:17:06Z</time>
  </trkpt>
  <trkpt lat="33.402806" lon="-3.449108">
   <ele>1082.00</ele>
   <time>2014-03-31T14:17:10Z</time>
  </trkpt>
  <trkpt lat="33.402809" lon="-3.448887">
   <ele>1084.00</ele>
   <time>2014-03-31T14:17:13Z</time>
  </trkpt>
  <trkpt lat="33.402782" lon="-3.448599">
   <ele>1086.00</ele>
   <time>2014-03-31T14:17:17Z</time>
  </trkpt>
  <trkpt lat="33.402729" lon="-3.448383">
   <ele>1088.00</ele>
   <time>2014-03-31T14:17:20Z</time>
  </trkpt>
  <trkpt lat="33.402697" lon="-3.448129">
   <ele>1089.00</ele>
   <time>2014-03-31T14:17:23Z</time>
  </trkpt>
  <trkpt lat="33.402577" lon="-3.447298">
   <ele>1089.00</ele>
   <time>2014-03-31T14:17:30Z</time>
  </trkpt>
  <trkpt lat="33.402513" lon="-3.446922">
   <ele>1088.00</ele>
   <time>2014-03-31T14:17:33Z</time>
  </trkpt>
  <trkpt lat="33.402461" lon="-3.446708">
   <ele>1087.00</ele>
   <time>2014-03-31T14:17:35Z</time>
  </trkpt>
  <trkpt lat="33.402416" lon="-3.446408">
   <ele>1087.00</ele>
   <time>2014-03-31T14:17:38Z</time>
  </trkpt>
  <trkpt lat="33.402369" lon="-3.446192">
   <ele>1087.00</ele>
   <time>2014-03-31T14:17:40Z</time>
  </trkpt>
  <trkpt lat="33.402298" lon="-3.445940">
   <ele>1086.00</ele>
   <time>2014-03-31T14:17:42Z</time>
  </trkpt>
  <trkpt lat="33.402212" lon="-3.445685">
   <ele>1087.00</ele>
   <time>2014-03-31T14:17:44Z</time>
  </trkpt>
  <trkpt lat="33.402084" lon="-3.445308">
   <ele>1087.00</ele>
   <time>2014-03-31T14:17:47Z</time>
  </trkpt>
  <trkpt lat="33.402019" lon="-3.445039">
   <ele>1087.00</ele>
   <time>2014-03-31T14:17:49Z</time>
  </trkpt>
  <trkpt lat="33.401971" lon="-3.444753">
   <ele>1087.00</ele>
   <time>2014-03-31T14:17:51Z</time>
  </trkpt>
  <trkpt lat="33.401934" lon="-3.444472">
   <ele>1088.00</ele>
   <time>2014-03-31T14:17:53Z</time>
  </trkpt>
  <trkpt lat="33.401919" lon="-3.444204">
   <ele>1088.00</ele>
   <time>2014-03-31T14:17:55Z</time>
  </trkpt>
  <trkpt lat="33.401936" lon="-3.443961">
   <ele>1088.00</ele>
   <time>2014-03-31T14:17:57Z</time>
  </trkpt>
  <trkpt lat="33.401968" lon="-3.443722">
   <ele>1089.00</ele>
   <time>2014-03-31T14:17:59Z</time>
  </trkpt>
  <trkpt lat="33.402009" lon="-3.443483">
   <ele>1089.00</ele>
   <time>2014-03-31T14:18:01Z</time>
  </trkpt>
  <trkpt lat="33.402074" lon="-3.443252">
   <ele>1090.00</ele>
   <time>2014-03-31T14:18:03Z</time>
  </trkpt>
  <trkpt lat="33.402145" lon="-3.443045">
   <ele>1089.00</ele>
   <time>2014-03-31T14:18:05Z</time>
  </trkpt>
  <trkpt lat="33.402185" lon="-3.442743">
   <ele>1089.00</ele>
   <time>2014-03-31T14:18:08Z</time>
  </trkpt>
  <trkpt lat="33.402143" lon="-3.442449">
   <ele>1089.00</ele>
   <time>2014-03-31T14:18:11Z</time>
  </trkpt>
  <trkpt lat="33.402031" lon="-3.442208">
   <ele>1089.00</ele>
   <time>2014-03-31T14:18:14Z</time>
  </trkpt>
  <trkpt lat="33.401826" lon="-3.441996">
   <ele>1089.00</ele>
   <time>2014-03-31T14:18:17Z</time>
  </trkpt>
  <trkpt lat="33.401673" lon="-3.441849">
   <ele>1088.00</ele>
   <time>2014-03-31T14:18:19Z</time>
  </trkpt>
  <trkpt lat="33.401456" lon="-3.441626">
   <ele>1089.00</ele>
   <time>2014-03-31T14:18:22Z</time>
  </trkpt>
  <trkpt lat="33.401291" lon="-3.441433">
   <ele>1091.00</ele>
   <time>2014-03-31T14:18:25Z</time>
  </trkpt>
  <trkpt lat="33.401188" lon="-3.441186">
   <ele>1092.00</ele>
   <time>2014-03-31T14:18:29Z</time>
  </trkpt>
  <trkpt lat="33.401151" lon="-3.440969">
   <ele>1093.00</ele>
   <time>2014-03-31T14:18:32Z</time>
  </trkpt>
  <trkpt lat="33.401164" lon="-3.440750">
   <ele>1095.00</ele>
   <time>2014-03-31T14:18:35Z</time>
  </trkpt>
  <trkpt lat="33.401147" lon="-3.440525">
   <ele>1096.00</ele>
   <time>2014-03-31T14:18:38Z</time>
  </trkpt>
  <trkpt lat="33.401106" lon="-3.440240">
   <ele>1097.00</ele>
   <time>2014-03-31T14:18:41Z</time>
  </trkpt>
  <trkpt lat="33.401022" lon="-3.439947">
   <ele>1096.00</ele>
   <time>2014-03-31T14:18:44Z</time>
  </trkpt>
  <trkpt lat="33.400909" lon="-3.439767">
   <ele>1096.00</ele>
   <time>2014-03-31T14:18:46Z</time>
  </trkpt>
  <trkpt lat="33.400792" lon="-3.439601">
   <ele>1095.00</ele>
   <time>2014-03-31T14:18:48Z</time>
  </trkpt>
  <trkpt lat="33.400694" lon="-3.439418">
   <ele>1093.00</ele>
   <time>2014-03-31T14:18:50Z</time>
  </trkpt>
  <trkpt lat="33.400507" lon="-3.439012">
   <ele>1093.00</ele>
   <time>2014-03-31T14:18:54Z</time>
  </trkpt>
  <trkpt lat="33.400390" lon="-3.438815">
   <ele>1093.00</ele>
   <time>2014-03-31T14:18:56Z</time>
  </trkpt>
  <trkpt lat="33.399897" lon="-3.438111">
   <ele>1095.00</ele>
   <time>2014-03-31T14:19:03Z</time>
  </trkpt>
  <trkpt lat="33.399566" lon="-3.437667">
   <ele>1096.00</ele>
   <time>2014-03-31T14:19:07Z</time>
  </trkpt>
  <trkpt lat="33.399401" lon="-3.437464">
   <ele>1097.00</ele>
   <time>2014-03-31T14:19:09Z</time>
  </trkpt>
  <trkpt lat="33.399247" lon="-3.437307">
   <ele>1097.00</ele>
   <time>2014-03-31T14:19:11Z</time>
  </trkpt>
  <trkpt lat="33.399043" lon="-3.437106">
   <ele>1097.00</ele>
   <time>2014-03-31T14:19:14Z</time>
  </trkpt>
  <trkpt lat="33.398939" lon="-3.436930">
   <ele>1097.00</ele>
   <time>2014-03-31T14:19:16Z</time>
  </trkpt>
  <trkpt lat="33.398840" lon="-3.436657">
   <ele>1099.00</ele>
   <time>2014-03-31T14:19:19Z</time>
  </trkpt>
  <trkpt lat="33.398828" lon="-3.436408">
   <ele>1098.00</ele>
   <time>2014-03-31T14:19:22Z</time>
  </trkpt>
  <trkpt lat="33.398908" lon="-3.436074">
   <ele>1098.00</ele>
   <time>2014-03-31T14:19:26Z</time>
  </trkpt>
  <trkpt lat="33.398877" lon="-3.435806">
   <ele>1098.00</ele>
   <time>2014-03-31T14:19:29Z</time>
  </trkpt>
  <trkpt lat="33.398839" lon="-3.435532">
   <ele>1099.00</ele>
   <time>2014-03-31T14:19:32Z</time>
  </trkpt>
  <trkpt lat="33.398783" lon="-3.435228">
   <ele>1100.00</ele>
   <time>2014-03-31T14:19:35Z</time>
  </trkpt>
  <trkpt lat="33.398722" lon="-3.435006">
   <ele>1101.00</ele>
   <time>2014-03-31T14:19:37Z</time>
  </trkpt>
  <trkpt lat="33.398637" lon="-3.434774">
   <ele>1101.00</ele>
   <time>2014-03-31T14:19:39Z</time>
  </trkpt>
  <trkpt lat="33.398483" lon="-3.434408">
   <ele>1102.00</ele>
   <time>2014-03-31T14:19:42Z</time>
  </trkpt>
  <trkpt lat="33.397704" lon="-3.432699">
   <ele>1106.00</ele>
   <time>2014-03-31T14:19:56Z</time>
  </trkpt>
  <trkpt lat="33.397675" lon="-3.432420">
   <ele>1106.00</ele>
   <time>2014-03-31T14:19:59Z</time>
  </trkpt>
  <trkpt lat="33.397649" lon="-3.432129">
   <ele>1106.00</ele>
   <time>2014-03-31T14:20:02Z</time>
  </trkpt>
  <trkpt lat="33.397679" lon="-3.431856">
   <ele>1106.00</ele>
   <time>2014-03-31T14:20:05Z</time>
  </trkpt>
  <trkpt lat="33.397691" lon="-3.431593">
   <ele>1107.00</ele>
   <time>2014-03-31T14:20:08Z</time>
  </trkpt>
  <trkpt lat="33.397665" lon="-3.431366">
   <ele>1108.00</ele>
   <time>2014-03-31T14:20:11Z</time>
  </trkpt>
  <trkpt lat="33.397592" lon="-3.431143">
   <ele>1109.00</ele>
   <time>2014-03-31T14:20:15Z</time>
  </trkpt>
  <trkpt lat="33.397528" lon="-3.430891">
   <ele>1110.00</ele>
   <time>2014-03-31T14:20:19Z</time>
  </trkpt>
  <trkpt lat="33.397506" lon="-3.430624">
   <ele>1110.00</ele>
   <time>2014-03-31T14:20:23Z</time>
  </trkpt>
  <trkpt lat="33.397478" lon="-3.430378">
   <ele>1110.00</ele>
   <time>2014-03-31T14:20:27Z</time>
  </trkpt>
  <trkpt lat="33.397461" lon="-3.430121">
   <ele>1110.00</ele>
   <time>2014-03-31T14:20:31Z</time>
  </trkpt>
  <trkpt lat="33.397530" lon="-3.429716">
   <ele>1111.00</ele>
   <time>2014-03-31T14:20:37Z</time>
  </trkpt>
  <trkpt lat="33.397523" lon="-3.429494">
   <ele>1112.00</ele>
   <time>2014-03-31T14:20:40Z</time>
  </trkpt>
  <trkpt lat="33.397555" lon="-3.429249">
   <ele>1112.00</ele>
   <time>2014-03-31T14:20:43Z</time>
  </trkpt>
  <trkpt lat="33.397618" lon="-3.428994">
   <ele>1113.00</ele>
   <time>2014-03-31T14:20:46Z</time>
  </trkpt>
  <trkpt lat="33.397802" lon="-3.428428">
   <ele>1114.00</ele>
   <time>2014-03-31T14:20:52Z</time>
  </trkpt>
  <trkpt lat="33.397938" lon="-3.428131">
   <ele>1114.00</ele>
   <time>2014-03-31T14:20:56Z</time>
  </trkpt>
  <trkpt lat="33.397965" lon="-3.427916">
   <ele>1114.00</ele>
   <time>2014-03-31T14:20:59Z</time>
  </trkpt>
  <trkpt lat="33.398115" lon="-3.427752">
   <ele>1114.00</ele>
   <time>2014-03-31T14:21:03Z</time>
  </trkpt>
  <trkpt lat="33.398317" lon="-3.427792">
   <ele>1112.00</ele>
   <time>2014-03-31T14:21:07Z</time>
  </trkpt>
  <trkpt lat="33.398499" lon="-3.427874">
   <ele>1110.00</ele>
   <time>2014-03-31T14:21:12Z</time>
  </trkpt>
  <trkpt lat="33.398514" lon="-3.427673">
   <ele>1110.00</ele>
   <time>2014-03-31T14:21:17Z</time>
  </trkpt>
  <trkpt lat="33.398400" lon="-3.427507">
   <ele>1110.00</ele>
   <time>2014-03-31T14:21:20Z</time>
  </trkpt>
  <trkpt lat="33.398241" lon="-3.427368">
   <ele>1111.00</ele>
   <time>2014-03-31T14:21:23Z</time>
  </trkpt>
  <trkpt lat="33.398080" lon="-3.427223">
   <ele>1112.00</ele>
   <time>2014-03-31T14:21:26Z</time>
  </trkpt>
  <trkpt lat="33.397941" lon="-3.427054">
   <ele>1113.00</ele>
   <time>2014-03-31T14:21:29Z</time>
  </trkpt>
  <trkpt lat="33.397785" lon="-3.426934">
   <ele>1113.00</ele>
   <time>2014-03-31T14:21:32Z</time>
  </trkpt>
  <trkpt lat="33.397600" lon="-3.426821">
   <ele>1113.00</ele>
   <time>2014-03-31T14:21:36Z</time>
  </trkpt>
  <trkpt lat="33.397499" lon="-3.426615">
   <ele>1115.00</ele>
   <time>2014-03-31T14:21:39Z</time>
  </trkpt>
  <trkpt lat="33.397366" lon="-3.426293">
   <ele>1118.00</ele>
   <time>2014-03-31T14:21:43Z</time>
  </trkpt>
  <trkpt lat="33.397384" lon="-3.426021">
   <ele>1119.00</ele>
   <time>2014-03-31T14:21:46Z</time>
  </trkpt>
  <trkpt lat="33.397472" lon="-3.425780">
   <ele>1121.00</ele>
   <time>2014-03-31T14:21:49Z</time>
  </trkpt>
  <trkpt lat="33.397662" lon="-3.425631">
   <ele>1121.00</ele>
   <time>2014-03-31T14:21:52Z</time>
  </trkpt>
  <trkpt lat="33.397937" lon="-3.425479">
   <ele>1121.00</ele>
   <time>2014-03-31T14:21:56Z</time>
  </trkpt>
  <trkpt lat="33.398086" lon="-3.425339">
   <ele>1122.00</ele>
   <time>2014-03-31T14:21:59Z</time>
  </trkpt>
  <trkpt lat="33.398140" lon="-3.425113">
   <ele>1124.00</ele>
   <time>2014-03-31T14:22:03Z</time>
  </trkpt>
  <trkpt lat="33.398098" lon="-3.424891">
   <ele>1126.00</ele>
   <time>2014-03-31T14:22:06Z</time>
  </trkpt>
  <trkpt lat="33.397998" lon="-3.424670">
   <ele>1128.00</ele>
   <time>2014-03-31T14:22:09Z</time>
  </trkpt>
  <trkpt lat="33.397853" lon="-3.424504">
   <ele>1128.00</ele>
   <time>2014-03-31T14:22:12Z</time>
  </trkpt>
  <trkpt lat="33.397661" lon="-3.424307">
   <ele>1128.00</ele>
   <time>2014-03-31T14:22:17Z</time>
  </trkpt>
  <trkpt lat="33.397482" lon="-3.424172">
   <ele>1128.00</ele>
   <time>2014-03-31T14:22:21Z</time>
  </trkpt>
  <trkpt lat="33.397327" lon="-3.423993">
   <ele>1129.00</ele>
   <time>2014-03-31T14:22:25Z</time>
  </trkpt>
  <trkpt lat="33.397175" lon="-3.423717">
   <ele>1131.00</ele>
   <time>2014-03-31T14:22:29Z</time>
  </trkpt>
  <trkpt lat="33.397032" lon="-3.423485">
   <ele>1132.00</ele>
   <time>2014-03-31T14:22:32Z</time>
  </trkpt>
  <trkpt lat="33.396848" lon="-3.423206">
   <ele>1133.00</ele>
   <time>2014-03-31T14:22:36Z</time>
  </trkpt>
  <trkpt lat="33.396757" lon="-3.423005">
   <ele>1135.00</ele>
   <time>2014-03-31T14:22:39Z</time>
  </trkpt>
  <trkpt lat="33.396673" lon="-3.422813">
   <ele>1136.00</ele>
   <time>2014-03-31T14:22:42Z</time>
  </trkpt>
  <trkpt lat="33.396544" lon="-3.422578">
   <ele>1135.00</ele>
   <time>2014-03-31T14:22:46Z</time>
  </trkpt>
  <trkpt lat="33.396446" lon="-3.422382">
   <ele>1135.00</ele>
   <time>2014-03-31T14:22:49Z</time>
  </trkpt>
  <trkpt lat="33.396408" lon="-3.422168">
   <ele>1135.00</ele>
   <time>2014-03-31T14:22:52Z</time>
  </trkpt>
  <trkpt lat="33.396435" lon="-3.421946">
   <ele>1134.00</ele>
   <time>2014-03-31T14:22:55Z</time>
  </trkpt>
  <trkpt lat="33.396528" lon="-3.421760">
   <ele>1132.00</ele>
   <time>2014-03-31T14:22:58Z</time>
  </trkpt>
  <trkpt lat="33.396631" lon="-3.421564">
   <ele>1131.00</ele>
   <time>2014-03-31T14:23:01Z</time>
  </trkpt>
  <trkpt lat="33.396667" lon="-3.421352">
   <ele>1132.00</ele>
   <time>2014-03-31T14:23:04Z</time>
  </trkpt>
  <trkpt lat="33.396637" lon="-3.421082">
   <ele>1133.00</ele>
   <time>2014-03-31T14:23:08Z</time>
  </trkpt>
  <trkpt lat="33.396576" lon="-3.420855">
   <ele>1134.00</ele>
   <time>2014-03-31T14:23:12Z</time>
  </trkpt>
  <trkpt lat="33.396475" lon="-3.420637">
   <ele>1135.00</ele>
   <time>2014-03-31T14:23:16Z</time>
  </trkpt>
  <trkpt lat="33.396345" lon="-3.420448">
   <ele>1135.00</ele>
   <time>2014-03-31T14:23:21Z</time>
  </trkpt>
  <trkpt lat="33.396105" lon="-3.420110">
   <ele>1136.00</ele>
   <time>2014-03-31T14:23:37Z</time>
  </trkpt>
  <trkpt lat="33.395958" lon="-3.419910">
   <ele>1136.00</ele>
   <time>2014-03-31T14:23:41Z</time>
  </trkpt>
  <trkpt lat="33.395827" lon="-3.419731">
   <ele>1137.00</ele>
   <time>2014-03-31T14:23:44Z</time>
  </trkpt>
  <trkpt lat="33.395709" lon="-3.419541">
   <ele>1138.00</ele>
   <time>2014-03-31T14:23:47Z</time>
  </trkpt>
  <trkpt lat="33.395562" lon="-3.419361">
   <ele>1137.00</ele>
   <time>2014-03-31T14:23:50Z</time>
  </trkpt>
  <trkpt lat="33.395346" lon="-3.419104">
   <ele>1137.00</ele>
   <time>2014-03-31T14:23:54Z</time>
  </trkpt>
  <trkpt lat="33.395163" lon="-3.418887">
   <ele>1138.00</ele>
   <time>2014-03-31T14:23:57Z</time>
  </trkpt>
  <trkpt lat="33.394927" lon="-3.418606">
   <ele>1140.00</ele>
   <time>2014-03-31T14:24:01Z</time>
  </trkpt>
  <trkpt lat="33.394797" lon="-3.418372">
   <ele>1141.00</ele>
   <time>2014-03-31T14:24:04Z</time>
  </trkpt>
  <trkpt lat="33.394660" lon="-3.418180">
   <ele>1142.00</ele>
   <time>2014-03-31T14:24:07Z</time>
  </trkpt>
  <trkpt lat="33.394470" lon="-3.418008">
   <ele>1141.00</ele>
   <time>2014-03-31T14:24:11Z</time>
  </trkpt>
  <trkpt lat="33.394450" lon="-3.417742">
   <ele>1141.00</ele>
   <time>2014-03-31T14:24:15Z</time>
  </trkpt>
  <trkpt lat="33.394531" lon="-3.417409">
   <ele>1141.00</ele>
   <time>2014-03-31T14:24:20Z</time>
  </trkpt>
  <trkpt lat="33.394642" lon="-3.417186">
   <ele>1140.00</ele>
   <time>2014-03-31T14:24:24Z</time>
  </trkpt>
  <trkpt lat="33.394755" lon="-3.416982">
   <ele>1140.00</ele>
   <time>2014-03-31T14:24:28Z</time>
  </trkpt>
  <trkpt lat="33.394818" lon="-3.416742">
   <ele>1141.00</ele>
   <time>2014-03-31T14:24:32Z</time>
  </trkpt>
  <trkpt lat="33.394804" lon="-3.416488">
   <ele>1142.00</ele>
   <time>2014-03-31T14:24:36Z</time>
  </trkpt>
  <trkpt lat="33.394737" lon="-3.416220">
   <ele>1144.00</ele>
   <time>2014-03-31T14:24:40Z</time>
  </trkpt>
  <trkpt lat="33.394621" lon="-3.415982">
   <ele>1145.00</ele>
   <time>2014-03-31T14:24:44Z</time>
  </trkpt>
  <trkpt lat="33.394481" lon="-3.415815">
   <ele>1146.00</ele>
   <time>2014-03-31T14:24:48Z</time>
  </trkpt>
  <trkpt lat="33.394421" lon="-3.415530">
   <ele>1147.00</ele>
   <time>2014-03-31T14:24:52Z</time>
  </trkpt>
  <trkpt lat="33.394244" lon="-3.414983">
   <ele>1151.00</ele>
   <time>2014-03-31T14:24:57Z</time>
  </trkpt>
  <trkpt lat="33.394137" lon="-3.414721">
   <ele>1154.00</ele>
   <time>2014-03-31T14:25:00Z</time>
  </trkpt>
  <trkpt lat="33.394078" lon="-3.414479">
   <ele>1156.00</ele>
   <time>2014-03-31T14:25:04Z</time>
  </trkpt>
  <trkpt lat="33.394033" lon="-3.414191">
   <ele>1157.00</ele>
   <time>2014-03-31T14:25:10Z</time>
  </trkpt>
  <trkpt lat="33.394031" lon="-3.414166">
   <ele>1157.00</ele>
   <time>2014-03-31T14:25:25Z</time>
  </trkpt>
  <trkpt lat="33.394043" lon="-3.414169">
   <ele>1154.00</ele>
   <time>2014-03-31T14:25:40Z</time>
  </trkpt>
  <trkpt lat="33.394051" lon="-3.414167">
   <ele>1152.00</ele>
   <time>2014-03-31T14:25:56Z</time>
  </trkpt>
  <trkpt lat="33.394056" lon="-3.414166">
   <ele>1152.00</ele>
   <time>2014-03-31T14:26:11Z</time>
  </trkpt>
  <trkpt lat="33.394054" lon="-3.414167">
   <ele>1152.00</ele>
   <time>2014-03-31T14:26:26Z</time>
  </trkpt>
  <trkpt lat="33.394057" lon="-3.414167">
   <ele>1152.00</ele>
   <time>2014-03-31T14:26:42Z</time>
  </trkpt>
  <trkpt lat="33.394057" lon="-3.414166">
   <ele>1151.00</ele>
   <time>2014-03-31T14:26:57Z</time>
  </trkpt>
  <trkpt lat="33.394052" lon="-3.414167">
   <ele>1152.00</ele>
   <time>2014-03-31T14:27:12Z</time>
  </trkpt>
  <trkpt lat="33.394054" lon="-3.414166">
   <ele>1152.00</ele>
   <time>2014-03-31T14:27:28Z</time>
  </trkpt>
  <trkpt lat="33.394054" lon="-3.414167">
   <ele>1151.00</ele>
   <time>2014-03-31T14:27:43Z</time>
  </trkpt>
  <trkpt lat="33.394056" lon="-3.414165">
   <ele>1151.00</ele>
   <time>2014-03-31T14:27:58Z</time>
  </trkpt>
  <trkpt lat="33.394040" lon="-3.414063">
   <ele>1152.00</ele>
   <time>2014-03-31T14:28:14Z</time>
  </trkpt>
  <trkpt lat="33.393955" lon="-3.413868">
   <ele>1151.00</ele>
   <time>2014-03-31T14:28:29Z</time>
  </trkpt>
  <trkpt lat="33.393889" lon="-3.413722">
   <ele>1150.00</ele>
   <time>2014-03-31T14:28:44Z</time>
  </trkpt>
  <trkpt lat="33.393894" lon="-3.413709">
   <ele>1148.00</ele>
   <time>2014-03-31T14:28:59Z</time>
  </trkpt>
  <trkpt lat="33.393841" lon="-3.413624">
   <ele>1152.00</ele>
   <time>2014-03-31T14:29:15Z</time>
  </trkpt>
  <trkpt lat="33.393852" lon="-3.413410">
   <ele>1152.00</ele>
   <time>2014-03-31T14:29:21Z</time>
  </trkpt>
  <trkpt lat="33.393956" lon="-3.413194">
   <ele>1152.00</ele>
   <time>2014-03-31T14:29:26Z</time>
  </trkpt>
  <trkpt lat="33.394111" lon="-3.413031">
   <ele>1153.00</ele>
   <time>2014-03-31T14:29:30Z</time>
  </trkpt>
  <trkpt lat="33.394382" lon="-3.412823">
   <ele>1154.00</ele>
   <time>2014-03-31T14:29:36Z</time>
  </trkpt>
  <trkpt lat="33.394511" lon="-3.412651">
   <ele>1155.00</ele>
   <time>2014-03-31T14:29:40Z</time>
  </trkpt>
  <trkpt lat="33.394555" lon="-3.412405">
   <ele>1156.00</ele>
   <time>2014-03-31T14:29:45Z</time>
  </trkpt>
  <trkpt lat="33.394576" lon="-3.412126">
   <ele>1158.00</ele>
   <time>2014-03-31T14:29:51Z</time>
  </trkpt>
  <trkpt lat="33.394663" lon="-3.411926">
   <ele>1159.00</ele>
   <time>2014-03-31T14:29:56Z</time>
  </trkpt>
  <trkpt lat="33.394792" lon="-3.411760">
   <ele>1160.00</ele>
   <time>2014-03-31T14:30:01Z</time>
  </trkpt>
  <trkpt lat="33.394944" lon="-3.411614">
   <ele>1161.00</ele>
   <time>2014-03-31T14:30:07Z</time>
  </trkpt>
  <trkpt lat="33.395128" lon="-3.411544">
   <ele>1161.00</ele>
   <time>2014-03-31T14:30:14Z</time>
  </trkpt>
  <trkpt lat="33.395303" lon="-3.411498">
   <ele>1162.00</ele>
   <time>2014-03-31T14:30:21Z</time>
  </trkpt>
  <trkpt lat="33.395446" lon="-3.411363">
   <ele>1164.00</ele>
   <time>2014-03-31T14:30:28Z</time>
  </trkpt>
  <trkpt lat="33.395606" lon="-3.411236">
   <ele>1166.00</ele>
   <time>2014-03-31T14:30:37Z</time>
  </trkpt>
  <trkpt lat="33.395816" lon="-3.411235">
   <ele>1167.00</ele>
   <time>2014-03-31T14:30:43Z</time>
  </trkpt>
  <trkpt lat="33.395993" lon="-3.411347">
   <ele>1169.00</ele>
   <time>2014-03-31T14:30:48Z</time>
  </trkpt>
  <trkpt lat="33.396163" lon="-3.411444">
   <ele>1171.00</ele>
   <time>2014-03-31T14:30:52Z</time>
  </trkpt>
  <trkpt lat="33.396366" lon="-3.411529">
   <ele>1174.00</ele>
   <time>2014-03-31T14:30:56Z</time>
  </trkpt>
  <trkpt lat="33.396589" lon="-3.411589">
   <ele>1177.00</ele>
   <time>2014-03-31T14:31:00Z</time>
  </trkpt>
  <trkpt lat="33.396825" lon="-3.411598">
   <ele>1180.00</ele>
   <time>2014-03-31T14:31:04Z</time>
  </trkpt>
  <trkpt lat="33.397043" lon="-3.411589">
   <ele>1183.00</ele>
   <time>2014-03-31T14:31:08Z</time>
  </trkpt>
  <trkpt lat="33.397187" lon="-3.411416">
   <ele>1185.00</ele>
   <time>2014-03-31T14:31:12Z</time>
  </trkpt>
  <trkpt lat="33.397279" lon="-3.411228">
   <ele>1188.00</ele>
   <time>2014-03-31T14:31:16Z</time>
  </trkpt>
  <trkpt lat="33.397289" lon="-3.411081">
   <ele>1191.00</ele>
   <time>2014-03-31T14:31:31Z</time>
  </trkpt>
  <trkpt lat="33.397280" lon="-3.411091">
   <ele>1192.00</ele>
   <time>2014-03-31T14:31:47Z</time>
  </trkpt>
  <trkpt lat="33.397324" lon="-3.410880">
   <ele>1194.00</ele>
   <time>2014-03-31T14:31:55Z</time>
  </trkpt>
  <trkpt lat="33.397269" lon="-3.410691">
   <ele>1196.00</ele>
   <time>2014-03-31T14:32:01Z</time>
  </trkpt>
  <trkpt lat="33.397106" lon="-3.410554">
   <ele>1198.00</ele>
   <time>2014-03-31T14:32:07Z</time>
  </trkpt>
  <trkpt lat="33.397207" lon="-3.410356">
   <ele>1200.00</ele>
   <time>2014-03-31T14:32:12Z</time>
  </trkpt>
  <trkpt lat="33.397324" lon="-3.410187">
   <ele>1202.00</ele>
   <time>2014-03-31T14:32:16Z</time>
  </trkpt>
  <trkpt lat="33.397378" lon="-3.409968">
   <ele>1206.00</ele>
   <time>2014-03-31T14:32:20Z</time>
  </trkpt>
  <trkpt lat="33.397411" lon="-3.409713">
   <ele>1209.00</ele>
   <time>2014-03-31T14:32:24Z</time>
  </trkpt>
  <trkpt lat="33.397343" lon="-3.409461">
   <ele>1210.00</ele>
   <time>2014-03-31T14:32:28Z</time>
  </trkpt>
  <trkpt lat="33.397207" lon="-3.409152">
   <ele>1211.00</ele>
   <time>2014-03-31T14:32:33Z</time>
  </trkpt>
  <trkpt lat="33.397125" lon="-3.408959">
   <ele>1213.00</ele>
   <time>2014-03-31T14:32:37Z</time>
  </trkpt>
  <trkpt lat="33.396912" lon="-3.408865">
   <ele>1213.00</ele>
   <time>2014-03-31T14:32:42Z</time>
  </trkpt>
  <trkpt lat="33.396729" lon="-3.408860">
   <ele>1211.00</ele>
   <time>2014-03-31T14:32:45Z</time>
  </trkpt>
  <trkpt lat="33.396531" lon="-3.408807">
   <ele>1210.00</ele>
   <time>2014-03-31T14:32:48Z</time>
  </trkpt>
  <trkpt lat="33.396301" lon="-3.408683">
   <ele>1209.00</ele>
   <time>2014-03-31T14:32:52Z</time>
  </trkpt>
  <trkpt lat="33.396118" lon="-3.408650">
   <ele>1208.00</ele>
   <time>2014-03-31T14:32:55Z</time>
  </trkpt>
  <trkpt lat="33.395951" lon="-3.408543">
   <ele>1207.00</ele>
   <time>2014-03-31T14:32:58Z</time>
  </trkpt>
  <trkpt lat="33.395843" lon="-3.408302">
   <ele>1208.00</ele>
   <time>2014-03-31T14:33:02Z</time>
  </trkpt>
  <trkpt lat="33.395888" lon="-3.408082">
   <ele>1210.00</ele>
   <time>2014-03-31T14:33:05Z</time>
  </trkpt>
  <trkpt lat="33.395991" lon="-3.407876">
   <ele>1210.00</ele>
   <time>2014-03-31T14:33:08Z</time>
  </trkpt>
  <trkpt lat="33.396087" lon="-3.407677">
   <ele>1211.00</ele>
   <time>2014-03-31T14:33:11Z</time>
  </trkpt>
  <trkpt lat="33.396072" lon="-3.407388">
   <ele>1211.00</ele>
   <time>2014-03-31T14:33:15Z</time>
  </trkpt>
  <trkpt lat="33.396061" lon="-3.407155">
   <ele>1211.00</ele>
   <time>2014-03-31T14:33:18Z</time>
  </trkpt>
  <trkpt lat="33.396114" lon="-3.406944">
   <ele>1211.00</ele>
   <time>2014-03-31T14:33:21Z</time>
  </trkpt>
  <trkpt lat="33.396250" lon="-3.406793">
   <ele>1210.00</ele>
   <time>2014-03-31T14:33:24Z</time>
  </trkpt>
  <trkpt lat="33.396442" lon="-3.406687">
   <ele>1210.00</ele>
   <time>2014-03-31T14:33:27Z</time>
  </trkpt>
  <trkpt lat="33.396674" lon="-3.406549">
   <ele>1212.00</ele>
   <time>2014-03-31T14:33:31Z</time>
  </trkpt>
  <trkpt lat="33.396849" lon="-3.406503">
   <ele>1213.00</ele>
   <time>2014-03-31T14:33:34Z</time>
  </trkpt>
  <trkpt lat="33.397063" lon="-3.406453">
   <ele>1215.00</ele>
   <time>2014-03-31T14:33:38Z</time>
  </trkpt>
  <trkpt lat="33.397154" lon="-3.406242">
   <ele>1216.00</ele>
   <time>2014-03-31T14:33:42Z</time>
  </trkpt>
  <trkpt lat="33.397063" lon="-3.406056">
   <ele>1216.00</ele>
   <time>2014-03-31T14:33:45Z</time>
  </trkpt>
  <trkpt lat="33.396906" lon="-3.405897">
   <ele>1216.00</ele>
   <time>2014-03-31T14:33:48Z</time>
  </trkpt>
  <trkpt lat="33.396742" lon="-3.405742">
   <ele>1216.00</ele>
   <time>2014-03-31T14:33:51Z</time>
  </trkpt>
  <trkpt lat="33.396594" lon="-3.405557">
   <ele>1217.00</ele>
   <time>2014-03-31T14:33:54Z</time>
  </trkpt>
  <trkpt lat="33.396490" lon="-3.405368">
   <ele>1217.00</ele>
   <time>2014-03-31T14:33:57Z</time>
  </trkpt>
  <trkpt lat="33.396415" lon="-3.405155">
   <ele>1217.00</ele>
   <time>2014-03-31T14:34:00Z</time>
  </trkpt>
  <trkpt lat="33.396323" lon="-3.404963">
   <ele>1219.00</ele>
   <time>2014-03-31T14:34:03Z</time>
  </trkpt>
  <trkpt lat="33.396127" lon="-3.404866">
   <ele>1218.00</ele>
   <time>2014-03-31T14:34:07Z</time>
  </trkpt>
  <trkpt lat="33.395962" lon="-3.404951">
   <ele>1217.00</ele>
   <time>2014-03-31T14:34:10Z</time>
  </trkpt>
  <trkpt lat="33.395757" lon="-3.405148">
   <ele>1215.00</ele>
   <time>2014-03-31T14:34:14Z</time>
  </trkpt>
  <trkpt lat="33.395568" lon="-3.405225">
   <ele>1214.00</ele>
   <time>2014-03-31T14:34:17Z</time>
  </trkpt>
  <trkpt lat="33.395376" lon="-3.405173">
   <ele>1215.00</ele>
   <time>2014-03-31T14:34:20Z</time>
  </trkpt>
  <trkpt lat="33.395252" lon="-3.404945">
   <ele>1216.00</ele>
   <time>2014-03-31T14:34:24Z</time>
  </trkpt>
  <trkpt lat="33.395235" lon="-3.404669">
   <ele>1220.00</ele>
   <time>2014-03-31T14:34:28Z</time>
  </trkpt>
  <trkpt lat="33.395226" lon="-3.404400">
   <ele>1222.00</ele>
   <time>2014-03-31T14:34:32Z</time>
  </trkpt>
  <trkpt lat="33.395112" lon="-3.404179">
   <ele>1223.00</ele>
   <time>2014-03-31T14:34:36Z</time>
  </trkpt>
  <trkpt lat="33.394926" lon="-3.404093">
   <ele>1223.00</ele>
   <time>2014-03-31T14:34:40Z</time>
  </trkpt>
  <trkpt lat="33.394861" lon="-3.403901">
   <ele>1224.00</ele>
   <time>2014-03-31T14:34:45Z</time>
  </trkpt>
  <trkpt lat="33.395025" lon="-3.403810">
   <ele>1227.00</ele>
   <time>2014-03-31T14:34:49Z</time>
  </trkpt>
  <trkpt lat="33.395202" lon="-3.403833">
   <ele>1228.00</ele>
   <time>2014-03-31T14:34:53Z</time>
  </trkpt>
  <trkpt lat="33.395415" lon="-3.403942">
   <ele>1230.00</ele>
   <time>2014-03-31T14:34:58Z</time>
  </trkpt>
  <trkpt lat="33.395562" lon="-3.404144">
   <ele>1230.00</ele>
   <time>2014-03-31T14:35:02Z</time>
  </trkpt>
  <trkpt lat="33.395675" lon="-3.404360">
   <ele>1229.00</ele>
   <time>2014-03-31T14:35:06Z</time>
  </trkpt>
  <trkpt lat="33.395849" lon="-3.404324">
   <ele>1231.00</ele>
   <time>2014-03-31T14:35:10Z</time>
  </trkpt>
  <trkpt lat="33.396014" lon="-3.404185">
   <ele>1233.00</ele>
   <time>2014-03-31T14:35:14Z</time>
  </trkpt>
  <trkpt lat="33.396142" lon="-3.403992">
   <ele>1235.00</ele>
   <time>2014-03-31T14:35:19Z</time>
  </trkpt>
  <trkpt lat="33.396059" lon="-3.403789">
   <ele>1235.00</ele>
   <time>2014-03-31T14:35:23Z</time>
  </trkpt>
  <trkpt lat="33.395905" lon="-3.403629">
   <ele>1237.00</ele>
   <time>2014-03-31T14:35:27Z</time>
  </trkpt>
  <trkpt lat="33.395726" lon="-3.403462">
   <ele>1238.00</ele>
   <time>2014-03-31T14:35:32Z</time>
  </trkpt>
  <trkpt lat="33.395574" lon="-3.403324">
   <ele>1238.00</ele>
   <time>2014-03-31T14:35:36Z</time>
  </trkpt>
  <trkpt lat="33.395441" lon="-3.403179">
   <ele>1237.00</ele>
   <time>2014-03-31T14:35:40Z</time>
  </trkpt>
  <trkpt lat="33.395377" lon="-3.402977">
   <ele>1236.00</ele>
   <time>2014-03-31T14:35:44Z</time>
  </trkpt>
  <trkpt lat="33.395273" lon="-3.402772">
   <ele>1235.00</ele>
   <time>2014-03-31T14:35:48Z</time>
  </trkpt>
  <trkpt lat="33.395177" lon="-3.402532">
   <ele>1234.00</ele>
   <time>2014-03-31T14:35:52Z</time>
  </trkpt>
  <trkpt lat="33.395132" lon="-3.402321">
   <ele>1234.00</ele>
   <time>2014-03-31T14:35:55Z</time>
  </trkpt>
  <trkpt lat="33.395164" lon="-3.402099">
   <ele>1234.00</ele>
   <time>2014-03-31T14:35:58Z</time>
  </trkpt>
  <trkpt lat="33.395252" lon="-3.401894">
   <ele>1235.00</ele>
   <time>2014-03-31T14:36:01Z</time>
  </trkpt>
  <trkpt lat="33.395394" lon="-3.401667">
   <ele>1238.00</ele>
   <time>2014-03-31T14:36:05Z</time>
  </trkpt>
  <trkpt lat="33.395461" lon="-3.401463">
   <ele>1240.00</ele>
   <time>2014-03-31T14:36:09Z</time>
  </trkpt>
  <trkpt lat="33.395376" lon="-3.401252">
   <ele>1241.00</ele>
   <time>2014-03-31T14:36:13Z</time>
  </trkpt>
  <trkpt lat="33.395274" lon="-3.401027">
   <ele>1242.00</ele>
   <time>2014-03-31T14:36:17Z</time>
  </trkpt>
  <trkpt lat="33.395166" lon="-3.400800">
   <ele>1242.00</ele>
   <time>2014-03-31T14:36:21Z</time>
  </trkpt>
  <trkpt lat="33.395066" lon="-3.400571">
   <ele>1242.00</ele>
   <time>2014-03-31T14:36:25Z</time>
  </trkpt>
  <trkpt lat="33.394994" lon="-3.400364">
   <ele>1242.00</ele>
   <time>2014-03-31T14:36:28Z</time>
  </trkpt>
  <trkpt lat="33.394939" lon="-3.400142">
   <ele>1241.00</ele>
   <time>2014-03-31T14:36:31Z</time>
  </trkpt>
  <trkpt lat="33.394862" lon="-3.399933">
   <ele>1239.00</ele>
   <time>2014-03-31T14:36:34Z</time>
  </trkpt>
  <trkpt lat="33.394710" lon="-3.399718">
   <ele>1237.00</ele>
   <time>2014-03-31T14:36:38Z</time>
  </trkpt>
  <trkpt lat="33.394575" lon="-3.399507">
   <ele>1234.00</ele>
   <time>2014-03-31T14:36:42Z</time>
  </trkpt>
  <trkpt lat="33.394503" lon="-3.399237">
   <ele>1231.00</ele>
   <time>2014-03-31T14:36:46Z</time>
  </trkpt>
  <trkpt lat="33.394478" lon="-3.398978">
   <ele>1231.00</ele>
   <time>2014-03-31T14:36:50Z</time>
  </trkpt>
  <trkpt lat="33.394515" lon="-3.398729">
   <ele>1233.00</ele>
   <time>2014-03-31T14:36:54Z</time>
  </trkpt>
  <trkpt lat="33.394558" lon="-3.398499">
   <ele>1236.00</ele>
   <time>2014-03-31T14:36:58Z</time>
  </trkpt>
  <trkpt lat="33.394699" lon="-3.398312">
   <ele>1238.00</ele>
   <time>2014-03-31T14:37:03Z</time>
  </trkpt>
  <trkpt lat="33.394894" lon="-3.398271">
   <ele>1240.00</ele>
   <time>2014-03-31T14:37:07Z</time>
  </trkpt>
  <trkpt lat="33.395106" lon="-3.398289">
   <ele>1242.00</ele>
   <time>2014-03-31T14:37:11Z</time>
  </trkpt>
  <trkpt lat="33.395317" lon="-3.398300">
   <ele>1244.00</ele>
   <time>2014-03-31T14:37:15Z</time>
  </trkpt>
  <trkpt lat="33.395527" lon="-3.398188">
   <ele>1246.00</ele>
   <time>2014-03-31T14:37:19Z</time>
  </trkpt>
  <trkpt lat="33.395674" lon="-3.398049">
   <ele>1248.00</ele>
   <time>2014-03-31T14:37:22Z</time>
  </trkpt>
  <trkpt lat="33.395828" lon="-3.397835">
   <ele>1250.00</ele>
   <time>2014-03-31T14:37:26Z</time>
  </trkpt>
  <trkpt lat="33.395911" lon="-3.397632">
   <ele>1252.00</ele>
   <time>2014-03-31T14:37:29Z</time>
  </trkpt>
  <trkpt lat="33.395945" lon="-3.397414">
   <ele>1253.00</ele>
   <time>2014-03-31T14:37:32Z</time>
  </trkpt>
  <trkpt lat="33.395947" lon="-3.397133">
   <ele>1254.00</ele>
   <time>2014-03-31T14:37:36Z</time>
  </trkpt>
  <trkpt lat="33.395915" lon="-3.396905">
   <ele>1254.00</ele>
   <time>2014-03-31T14:37:41Z</time>
  </trkpt>
  <trkpt lat="33.395912" lon="-3.396801">
   <ele>1256.00</ele>
   <time>2014-03-31T14:37:49Z</time>
  </trkpt>
 </trkseg>
 <trkseg>
  <trkpt lat="33.395845" lon="-3.396828">
   <ele>1250.00</ele>
   <time>2014-03-31T15:01:41Z</time>
  </trkpt>
  <trkpt lat="33.395846" lon="-3.396828">
   <ele>1250.00</ele>
   <time>2014-03-31T15:01:56Z</time>
  </trkpt>
  <trkpt lat="33.395669" lon="-3.396716">
   <ele>1249.00</ele>
   <time>2014-03-31T15:02:11Z</time>
  </trkpt>
  <trkpt lat="33.395519" lon="-3.396588">
   <ele>1248.00</ele>
   <time>2014-03-31T15:02:16Z</time>
  </trkpt>
  <trkpt lat="33.395328" lon="-3.396437">
   <ele>1246.00</ele>
   <time>2014-03-31T15:02:21Z</time>
  </trkpt>
  <trkpt lat="33.395143" lon="-3.396374">
   <ele>1244.00</ele>
   <time>2014-03-31T15:02:25Z</time>
  </trkpt>
  <trkpt lat="33.394955" lon="-3.396314">
   <ele>1242.00</ele>
   <time>2014-03-31T15:02:29Z</time>
  </trkpt>
  <trkpt lat="33.394790" lon="-3.396174">
   <ele>1240.00</ele>
   <time>2014-03-31T15:02:33Z</time>
  </trkpt>
  <trkpt lat="33.394641" lon="-3.395998">
   <ele>1238.00</ele>
   <time>2014-03-31T15:02:37Z</time>
  </trkpt>
  <trkpt lat="33.394573" lon="-3.395778">
   <ele>1237.00</ele>
   <time>2014-03-31T15:02:41Z</time>
  </trkpt>
  <trkpt lat="33.394522" lon="-3.395514">
   <ele>1235.00</ele>
   <time>2014-03-31T15:02:45Z</time>
  </trkpt>
  <trkpt lat="33.394497" lon="-3.395233">
   <ele>1234.00</ele>
   <time>2014-03-31T15:02:49Z</time>
  </trkpt>
  <trkpt lat="33.394492" lon="-3.394976">
   <ele>1233.00</ele>
   <time>2014-03-31T15:02:53Z</time>
  </trkpt>
  <trkpt lat="33.394404" lon="-3.394281">
   <ele>1230.00</ele>
   <time>2014-03-31T15:03:03Z</time>
  </trkpt>
  <trkpt lat="33.394392" lon="-3.394053">
   <ele>1229.00</ele>
   <time>2014-03-31T15:03:06Z</time>
  </trkpt>
  <trkpt lat="33.394380" lon="-3.393832">
   <ele>1228.00</ele>
   <time>2014-03-31T15:03:09Z</time>
  </trkpt>
  <trkpt lat="33.394333" lon="-3.393617">
   <ele>1227.00</ele>
   <time>2014-03-31T15:03:12Z</time>
  </trkpt>
  <trkpt lat="33.394258" lon="-3.393404">
   <ele>1226.00</ele>
   <time>2014-03-31T15:03:15Z</time>
  </trkpt>
  <trkpt lat="33.394187" lon="-3.393191">
   <ele>1225.00</ele>
   <time>2014-03-31T15:03:18Z</time>
  </trkpt>
  <trkpt lat="33.394040" lon="-3.392746">
   <ele>1224.00</ele>
   <time>2014-03-31T15:03:24Z</time>
  </trkpt>
  <trkpt lat="33.393908" lon="-3.392245">
   <ele>1222.00</ele>
   <time>2014-03-31T15:03:30Z</time>
  </trkpt>
  <trkpt lat="33.393872" lon="-3.391981">
   <ele>1221.00</ele>
   <time>2014-03-31T15:03:33Z</time>
  </trkpt>
  <trkpt lat="33.393863" lon="-3.391734">
   <ele>1221.00</ele>
   <time>2014-03-31T15:03:36Z</time>
  </trkpt>
  <trkpt lat="33.393881" lon="-3.391492">
   <ele>1220.00</ele>
   <time>2014-03-31T15:03:39Z</time>
  </trkpt>
  <trkpt lat="33.393863" lon="-3.391236">
   <ele>1219.00</ele>
   <time>2014-03-31T15:03:42Z</time>
  </trkpt>
  <trkpt lat="33.393820" lon="-3.390986">
   <ele>1218.00</ele>
   <time>2014-03-31T15:03:45Z</time>
  </trkpt>
  <trkpt lat="33.393714" lon="-3.390569">
   <ele>1217.00</ele>
   <time>2014-03-31T15:03:50Z</time>
  </trkpt>
  <trkpt lat="33.393618" lon="-3.390247">
   <ele>1216.00</ele>
   <time>2014-03-31T15:03:54Z</time>
  </trkpt>
  <trkpt lat="33.393551" lon="-3.390012">
   <ele>1215.00</ele>
   <time>2014-03-31T15:03:57Z</time>
  </trkpt>
  <trkpt lat="33.393482" lon="-3.389772">
   <ele>1214.00</ele>
   <time>2014-03-31T15:04:00Z</time>
  </trkpt>
  <trkpt lat="33.393481" lon="-3.389509">
   <ele>1214.00</ele>
   <time>2014-03-31T15:04:03Z</time>
  </trkpt>
  <trkpt lat="33.393589" lon="-3.388814">
   <ele>1212.00</ele>
   <time>2014-03-31T15:04:11Z</time>
  </trkpt>
  <trkpt lat="33.393654" lon="-3.388608">
   <ele>1211.00</ele>
   <time>2014-03-31T15:04:14Z</time>
  </trkpt>
  <trkpt lat="33.393770" lon="-3.388431">
   <ele>1210.00</ele>
   <time>2014-03-31T15:04:19Z</time>
  </trkpt>
  <trkpt lat="33.393869" lon="-3.388251">
   <ele>1210.00</ele>
   <time>2014-03-31T15:04:25Z</time>
  </trkpt>
  <trkpt lat="33.393978" lon="-3.388040">
   <ele>1209.00</ele>
   <time>2014-03-31T15:04:31Z</time>
  </trkpt>
  <trkpt lat="33.394159" lon="-3.387970">
   <ele>1209.00</ele>
   <time>2014-03-31T15:04:35Z</time>
  </trkpt>
  <trkpt lat="33.394338" lon="-3.387917">
   <ele>1209.00</ele>
   <time>2014-03-31T15:04:39Z</time>
  </trkpt>
  <trkpt lat="33.394528" lon="-3.387831">
   <ele>1208.00</ele>
   <time>2014-03-31T15:04:44Z</time>
  </trkpt>
  <trkpt lat="33.394710" lon="-3.387798">
   <ele>1206.00</ele>
   <time>2014-03-31T15:04:48Z</time>
  </trkpt>
  <trkpt lat="33.394907" lon="-3.387741">
   <ele>1205.00</ele>
   <time>2014-03-31T15:04:52Z</time>
  </trkpt>
  <trkpt lat="33.395150" lon="-3.387703">
   <ele>1203.00</ele>
   <time>2014-03-31T15:04:57Z</time>
  </trkpt>
  <trkpt lat="33.395368" lon="-3.387630">
   <ele>1202.00</ele>
   <time>2014-03-31T15:05:01Z</time>
  </trkpt>
  <trkpt lat="33.395554" lon="-3.387615">
   <ele>1201.00</ele>
   <time>2014-03-31T15:05:04Z</time>
  </trkpt>
  <trkpt lat="33.395738" lon="-3.387645">
   <ele>1200.00</ele>
   <time>2014-03-31T15:05:07Z</time>
  </trkpt>
  <trkpt lat="33.395916" lon="-3.387811">
   <ele>1200.00</ele>
   <time>2014-03-31T15:05:11Z</time>
  </trkpt>
  <trkpt lat="33.396061" lon="-3.388042">
   <ele>1199.00</ele>
   <time>2014-03-31T15:05:15Z</time>
  </trkpt>
  <trkpt lat="33.396215" lon="-3.388199">
   <ele>1199.00</ele>
   <time>2014-03-31T15:05:18Z</time>
  </trkpt>
  <trkpt lat="33.396369" lon="-3.388319">
   <ele>1199.00</ele>
   <time>2014-03-31T15:05:21Z</time>
  </trkpt>
  <trkpt lat="33.396572" lon="-3.388383">
   <ele>1198.00</ele>
   <time>2014-03-31T15:05:25Z</time>
  </trkpt>
  <trkpt lat="33.396762" lon="-3.388429">
   <ele>1197.00</ele>
   <time>2014-03-31T15:05:29Z</time>
  </trkpt>
  <trkpt lat="33.396960" lon="-3.388477">
   <ele>1196.00</ele>
   <time>2014-03-31T15:05:33Z</time>
  </trkpt>
  <trkpt lat="33.397168" lon="-3.388426">
   <ele>1197.00</ele>
   <time>2014-03-31T15:05:38Z</time>
  </trkpt>
  <trkpt lat="33.397228" lon="-3.388215">
   <ele>1198.00</ele>
   <time>2014-03-31T15:05:42Z</time>
  </trkpt>
  <trkpt lat="33.397137" lon="-3.387976">
   <ele>1197.00</ele>
   <time>2014-03-31T15:05:46Z</time>
  </trkpt>
  <trkpt lat="33.396957" lon="-3.387789">
   <ele>1197.00</ele>
   <time>2014-03-31T15:05:50Z</time>
  </trkpt>
  <trkpt lat="33.396475" lon="-3.387352">
   <ele>1198.00</ele>
   <time>2014-03-31T15:06:00Z</time>
  </trkpt>
  <trkpt lat="33.396325" lon="-3.387148">
   <ele>1199.00</ele>
   <time>2014-03-31T15:06:04Z</time>
  </trkpt>
  <trkpt lat="33.396156" lon="-3.386946">
   <ele>1199.00</ele>
   <time>2014-03-31T15:06:08Z</time>
  </trkpt>
  <trkpt lat="33.395983" lon="-3.386750">
   <ele>1199.00</ele>
   <time>2014-03-31T15:06:12Z</time>
  </trkpt>
  <trkpt lat="33.395895" lon="-3.386504">
   <ele>1201.00</ele>
   <time>2014-03-31T15:06:16Z</time>
  </trkpt>
  <trkpt lat="33.395741" lon="-3.386293">
   <ele>1201.00</ele>
   <time>2014-03-31T15:06:20Z</time>
  </trkpt>
  <trkpt lat="33.395585" lon="-3.386133">
   <ele>1201.00</ele>
   <time>2014-03-31T15:06:23Z</time>
  </trkpt>
  <trkpt lat="33.395446" lon="-3.385935">
   <ele>1201.00</ele>
   <time>2014-03-31T15:06:26Z</time>
  </trkpt>
  <trkpt lat="33.395309" lon="-3.385770">
   <ele>1202.00</ele>
   <time>2014-03-31T15:06:29Z</time>
  </trkpt>
  <trkpt lat="33.395167" lon="-3.385565">
   <ele>1202.00</ele>
   <time>2014-03-31T15:06:33Z</time>
  </trkpt>
  <trkpt lat="33.395015" lon="-3.385341">
   <ele>1203.00</ele>
   <time>2014-03-31T15:06:37Z</time>
  </trkpt>
  <trkpt lat="33.394856" lon="-3.385186">
   <ele>1203.00</ele>
   <time>2014-03-31T15:06:40Z</time>
  </trkpt>
  <trkpt lat="33.394597" lon="-3.384891">
   <ele>1204.00</ele>
   <time>2014-03-31T15:06:45Z</time>
  </trkpt>
  <trkpt lat="33.394431" lon="-3.384731">
   <ele>1204.00</ele>
   <time>2014-03-31T15:06:48Z</time>
  </trkpt>
  <trkpt lat="33.394260" lon="-3.384595">
   <ele>1205.00</ele>
   <time>2014-03-31T15:06:51Z</time>
  </trkpt>
  <trkpt lat="33.394051" lon="-3.384504">
   <ele>1206.00</ele>
   <time>2014-03-31T15:06:54Z</time>
  </trkpt>
  <trkpt lat="33.393840" lon="-3.384442">
   <ele>1206.00</ele>
   <time>2014-03-31T15:06:57Z</time>
  </trkpt>
  <trkpt lat="33.393656" lon="-3.384330">
   <ele>1206.00</ele>
   <time>2014-03-31T15:07:00Z</time>
  </trkpt>
  <trkpt lat="33.393530" lon="-3.384162">
   <ele>1206.00</ele>
   <time>2014-03-31T15:07:03Z</time>
  </trkpt>
  <trkpt lat="33.393409" lon="-3.383911">
   <ele>1206.00</ele>
   <time>2014-03-31T15:07:07Z</time>
  </trkpt>
  <trkpt lat="33.393315" lon="-3.383705">
   <ele>1206.00</ele>
   <time>2014-03-31T15:07:10Z</time>
  </trkpt>
  <trkpt lat="33.393173" lon="-3.383534">
   <ele>1206.00</ele>
   <time>2014-03-31T15:07:13Z</time>
  </trkpt>
  <trkpt lat="33.392922" lon="-3.383350">
   <ele>1207.00</ele>
   <time>2014-03-31T15:07:18Z</time>
  </trkpt>
  <trkpt lat="33.392849" lon="-3.383148">
   <ele>1208.00</ele>
   <time>2014-03-31T15:07:21Z</time>
  </trkpt>
  <trkpt lat="33.392826" lon="-3.382919">
   <ele>1209.00</ele>
   <time>2014-03-31T15:07:24Z</time>
  </trkpt>
  <trkpt lat="33.392810" lon="-3.382704">
   <ele>1210.00</ele>
   <time>2014-03-31T15:07:27Z</time>
  </trkpt>
  <trkpt lat="33.392663" lon="-3.382492">
   <ele>1209.00</ele>
   <time>2014-03-31T15:07:31Z</time>
  </trkpt>
  <trkpt lat="33.392487" lon="-3.382389">
   <ele>1209.00</ele>
   <time>2014-03-31T15:07:34Z</time>
  </trkpt>
  <trkpt lat="33.392326" lon="-3.382235">
   <ele>1209.00</ele>
   <time>2014-03-31T15:07:37Z</time>
  </trkpt>
  <trkpt lat="33.392191" lon="-3.382044">
   <ele>1208.00</ele>
   <time>2014-03-31T15:07:40Z</time>
  </trkpt>
  <trkpt lat="33.392120" lon="-3.381817">
   <ele>1209.00</ele>
   <time>2014-03-31T15:07:43Z</time>
  </trkpt>
  <trkpt lat="33.392110" lon="-3.381578">
   <ele>1209.00</ele>
   <time>2014-03-31T15:07:46Z</time>
  </trkpt>
  <trkpt lat="33.392063" lon="-3.381364">
   <ele>1209.00</ele>
   <time>2014-03-31T15:07:49Z</time>
  </trkpt>
  <trkpt lat="33.392019" lon="-3.381140">
   <ele>1209.00</ele>
   <time>2014-03-31T15:07:52Z</time>
  </trkpt>
  <trkpt lat="33.391921" lon="-3.380941">
   <ele>1209.00</ele>
   <time>2014-03-31T15:07:55Z</time>
  </trkpt>
  <trkpt lat="33.391808" lon="-3.380724">
   <ele>1209.00</ele>
   <time>2014-03-31T15:07:58Z</time>
  </trkpt>
  <trkpt lat="33.391734" lon="-3.380481">
   <ele>1209.00</ele>
   <time>2014-03-31T15:08:01Z</time>
  </trkpt>
  <trkpt lat="33.391633" lon="-3.380281">
   <ele>1210.00</ele>
   <time>2014-03-31T15:08:04Z</time>
  </trkpt>
  <trkpt lat="33.391466" lon="-3.380058">
   <ele>1211.00</ele>
   <time>2014-03-31T15:08:08Z</time>
  </trkpt>
  <trkpt lat="33.391427" lon="-3.379798">
   <ele>1212.00</ele>
   <time>2014-03-31T15:08:12Z</time>
  </trkpt>
  <trkpt lat="33.391505" lon="-3.379487">
   <ele>1213.00</ele>
   <time>2014-03-31T15:08:16Z</time>
  </trkpt>
  <trkpt lat="33.391499" lon="-3.379248">
   <ele>1215.00</ele>
   <time>2014-03-31T15:08:19Z</time>
  </trkpt>
  <trkpt lat="33.391408" lon="-3.379044">
   <ele>1215.00</ele>
   <time>2014-03-31T15:08:22Z</time>
  </trkpt>
  <trkpt lat="33.391251" lon="-3.378890">
   <ele>1216.00</ele>
   <time>2014-03-31T15:08:25Z</time>
  </trkpt>
  <trkpt lat="33.391061" lon="-3.378773">
   <ele>1216.00</ele>
   <time>2014-03-31T15:08:28Z</time>
  </trkpt>
  <trkpt lat="33.390867" lon="-3.378657">
   <ele>1216.00</ele>
   <time>2014-03-31T15:08:31Z</time>
  </trkpt>
  <trkpt lat="33.390672" lon="-3.378551">
   <ele>1216.00</ele>
   <time>2014-03-31T15:08:34Z</time>
  </trkpt>
  <trkpt lat="33.390457" lon="-3.378463">
   <ele>1216.00</ele>
   <time>2014-03-31T15:08:37Z</time>
  </trkpt>
  <trkpt lat="33.390248" lon="-3.378365">
   <ele>1218.00</ele>
   <time>2014-03-31T15:08:40Z</time>
  </trkpt>
  <trkpt lat="33.390080" lon="-3.378223">
   <ele>1218.00</ele>
   <time>2014-03-31T15:08:43Z</time>
  </trkpt>
  <trkpt lat="33.389961" lon="-3.378040">
   <ele>1219.00</ele>
   <time>2014-03-31T15:08:46Z</time>
  </trkpt>
  <trkpt lat="33.389827" lon="-3.377836">
   <ele>1219.00</ele>
   <time>2014-03-31T15:08:50Z</time>
  </trkpt>
  <trkpt lat="33.389637" lon="-3.377806">
   <ele>1218.00</ele>
   <time>2014-03-31T15:08:54Z</time>
  </trkpt>
  <trkpt lat="33.389464" lon="-3.377638">
   <ele>1218.00</ele>
   <time>2014-03-31T15:08:58Z</time>
  </trkpt>
  <trkpt lat="33.389400" lon="-3.377399">
   <ele>1218.00</ele>
   <time>2014-03-31T15:09:01Z</time>
  </trkpt>
  <trkpt lat="33.389333" lon="-3.376957">
   <ele>1218.00</ele>
   <time>2014-03-31T15:09:06Z</time>
  </trkpt>
  <trkpt lat="33.389247" lon="-3.376603">
   <ele>1218.00</ele>
   <time>2014-03-31T15:09:10Z</time>
  </trkpt>
  <trkpt lat="33.389146" lon="-3.376341">
   <ele>1217.00</ele>
   <time>2014-03-31T15:09:13Z</time>
  </trkpt>
  <trkpt lat="33.389009" lon="-3.376091">
   <ele>1217.00</ele>
   <time>2014-03-31T15:09:16Z</time>
  </trkpt>
  <trkpt lat="33.388873" lon="-3.375827">
   <ele>1217.00</ele>
   <time>2014-03-31T15:09:19Z</time>
  </trkpt>
  <trkpt lat="33.388766" lon="-3.375536">
   <ele>1217.00</ele>
   <time>2014-03-31T15:09:22Z</time>
  </trkpt>
  <trkpt lat="33.388657" lon="-3.375249">
   <ele>1218.00</ele>
   <time>2014-03-31T15:09:25Z</time>
  </trkpt>
  <trkpt lat="33.388537" lon="-3.374975">
   <ele>1218.00</ele>
   <time>2014-03-31T15:09:28Z</time>
  </trkpt>
  <trkpt lat="33.388398" lon="-3.374732">
   <ele>1218.00</ele>
   <time>2014-03-31T15:09:31Z</time>
  </trkpt>
  <trkpt lat="33.388181" lon="-3.374415">
   <ele>1220.00</ele>
   <time>2014-03-31T15:09:35Z</time>
  </trkpt>
  <trkpt lat="33.387976" lon="-3.373997">
   <ele>1220.00</ele>
   <time>2014-03-31T15:09:40Z</time>
  </trkpt>
  <trkpt lat="33.387852" lon="-3.373776">
   <ele>1220.00</ele>
   <time>2014-03-31T15:09:43Z</time>
  </trkpt>
  <trkpt lat="33.387670" lon="-3.373599">
   <ele>1221.00</ele>
   <time>2014-03-31T15:09:46Z</time>
  </trkpt>
  <trkpt lat="33.387472" lon="-3.373456">
   <ele>1221.00</ele>
   <time>2014-03-31T15:09:49Z</time>
  </trkpt>
  <trkpt lat="33.387293" lon="-3.373307">
   <ele>1221.00</ele>
   <time>2014-03-31T15:09:52Z</time>
  </trkpt>
  <trkpt lat="33.387123" lon="-3.373105">
   <ele>1223.00</ele>
   <time>2014-03-31T15:09:55Z</time>
  </trkpt>
  <trkpt lat="33.386877" lon="-3.372870">
   <ele>1224.00</ele>
   <time>2014-03-31T15:09:59Z</time>
  </trkpt>
  <trkpt lat="33.386700" lon="-3.372688">
   <ele>1223.00</ele>
   <time>2014-03-31T15:10:02Z</time>
  </trkpt>
  <trkpt lat="33.386551" lon="-3.372468">
   <ele>1223.00</ele>
   <time>2014-03-31T15:10:05Z</time>
  </trkpt>
  <trkpt lat="33.386406" lon="-3.372228">
   <ele>1224.00</ele>
   <time>2014-03-31T15:10:08Z</time>
  </trkpt>
  <trkpt lat="33.386205" lon="-3.371928">
   <ele>1223.00</ele>
   <time>2014-03-31T15:10:12Z</time>
  </trkpt>
  <trkpt lat="33.386049" lon="-3.371618">
   <ele>1224.00</ele>
   <time>2014-03-31T15:10:16Z</time>
  </trkpt>
  <trkpt lat="33.385898" lon="-3.371428">
   <ele>1224.00</ele>
   <time>2014-03-31T15:10:19Z</time>
  </trkpt>
  <trkpt lat="33.385809" lon="-3.371203">
   <ele>1224.00</ele>
   <time>2014-03-31T15:10:22Z</time>
  </trkpt>
  <trkpt lat="33.385801" lon="-3.370957">
   <ele>1224.00</ele>
   <time>2014-03-31T15:10:26Z</time>
  </trkpt>
  <trkpt lat="33.385682" lon="-3.370770">
   <ele>1224.00</ele>
   <time>2014-03-31T15:10:32Z</time>
  </trkpt>
  <trkpt lat="33.385580" lon="-3.370523">
   <ele>1225.00</ele>
   <time>2014-03-31T15:10:36Z</time>
  </trkpt>
  <trkpt lat="33.385403" lon="-3.370007">
   <ele>1226.00</ele>
   <time>2014-03-31T15:10:43Z</time>
  </trkpt>
  <trkpt lat="33.385256" lon="-3.369814">
   <ele>1225.00</ele>
   <time>2014-03-31T15:10:47Z</time>
  </trkpt>
  <trkpt lat="33.385089" lon="-3.369663">
   <ele>1226.00</ele>
   <time>2014-03-31T15:10:51Z</time>
  </trkpt>
  <trkpt lat="33.385062" lon="-3.369450">
   <ele>1226.00</ele>
   <time>2014-03-31T15:10:55Z</time>
  </trkpt>
  <trkpt lat="33.385131" lon="-3.369214">
   <ele>1226.00</ele>
   <time>2014-03-31T15:10:59Z</time>
  </trkpt>
  <trkpt lat="33.385112" lon="-3.368994">
   <ele>1226.00</ele>
   <time>2014-03-31T15:11:02Z</time>
  </trkpt>
  <trkpt lat="33.385100" lon="-3.368745">
   <ele>1227.00</ele>
   <time>2014-03-31T15:11:05Z</time>
  </trkpt>
  <trkpt lat="33.385104" lon="-3.368409">
   <ele>1227.00</ele>
   <time>2014-03-31T15:11:09Z</time>
  </trkpt>
  <trkpt lat="33.385075" lon="-3.368143">
   <ele>1228.00</ele>
   <time>2014-03-31T15:11:12Z</time>
  </trkpt>
  <trkpt lat="33.385078" lon="-3.367875">
   <ele>1229.00</ele>
   <time>2014-03-31T15:11:15Z</time>
  </trkpt>
  <trkpt lat="33.385158" lon="-3.367640">
   <ele>1229.00</ele>
   <time>2014-03-31T15:11:18Z</time>
  </trkpt>
  <trkpt lat="33.385273" lon="-3.367453">
   <ele>1230.00</ele>
   <time>2014-03-31T15:11:21Z</time>
  </trkpt>
  <trkpt lat="33.385355" lon="-3.367221">
   <ele>1230.00</ele>
   <time>2014-03-31T15:11:25Z</time>
  </trkpt>
  <trkpt lat="33.385249" lon="-3.367039">
   <ele>1230.00</ele>
   <time>2014-03-31T15:11:34Z</time>
  </trkpt>
  <trkpt lat="33.385143" lon="-3.366831">
   <ele>1230.00</ele>
   <time>2014-03-31T15:11:39Z</time>
  </trkpt>
  <trkpt lat="33.385188" lon="-3.366620">
   <ele>1230.00</ele>
   <time>2014-03-31T15:11:42Z</time>
  </trkpt>
  <trkpt lat="33.385286" lon="-3.366395">
   <ele>1231.00</ele>
   <time>2014-03-31T15:11:45Z</time>
  </trkpt>
  <trkpt lat="33.385389" lon="-3.366140">
   <ele>1231.00</ele>
   <time>2014-03-31T15:11:48Z</time>
  </trkpt>
  <trkpt lat="33.385492" lon="-3.365880">
   <ele>1231.00</ele>
   <time>2014-03-31T15:11:51Z</time>
  </trkpt>
  <trkpt lat="33.385619" lon="-3.365630">
   <ele>1231.00</ele>
   <time>2014-03-31T15:11:54Z</time>
  </trkpt>
  <trkpt lat="33.385734" lon="-3.365459">
   <ele>1232.00</ele>
   <time>2014-03-31T15:11:56Z</time>
  </trkpt>
  <trkpt lat="33.385934" lon="-3.365194">
   <ele>1232.00</ele>
   <time>2014-03-31T15:11:59Z</time>
  </trkpt>
  <trkpt lat="33.386489" lon="-3.364512">
   <ele>1232.00</ele>
   <time>2014-03-31T15:12:08Z</time>
  </trkpt>
  <trkpt lat="33.386651" lon="-3.364332">
   <ele>1233.00</ele>
   <time>2014-03-31T15:12:11Z</time>
  </trkpt>
  <trkpt lat="33.386811" lon="-3.364218">
   <ele>1233.00</ele>
   <time>2014-03-31T15:12:14Z</time>
  </trkpt>
  <trkpt lat="33.387210" lon="-3.364024">
   <ele>1235.00</ele>
   <time>2014-03-31T15:12:22Z</time>
  </trkpt>
  <trkpt lat="33.387346" lon="-3.363846">
   <ele>1234.00</ele>
   <time>2014-03-31T15:12:26Z</time>
  </trkpt>
  <trkpt lat="33.387433" lon="-3.363623">
   <ele>1234.00</ele>
   <time>2014-03-31T15:12:31Z</time>
  </trkpt>
  <trkpt lat="33.387579" lon="-3.363454">
   <ele>1234.00</ele>
   <time>2014-03-31T15:12:46Z</time>
  </trkpt>
  <trkpt lat="33.387825" lon="-3.363191">
   <ele>1234.00</ele>
   <time>2014-03-31T15:12:53Z</time>
  </trkpt>
  <trkpt lat="33.387942" lon="-3.363003">
   <ele>1235.00</ele>
   <time>2014-03-31T15:12:56Z</time>
  </trkpt>
  <trkpt lat="33.388025" lon="-3.362799">
   <ele>1235.00</ele>
   <time>2014-03-31T15:12:59Z</time>
  </trkpt>
  <trkpt lat="33.388085" lon="-3.362569">
   <ele>1236.00</ele>
   <time>2014-03-31T15:13:02Z</time>
  </trkpt>
  <trkpt lat="33.388104" lon="-3.362349">
   <ele>1236.00</ele>
   <time>2014-03-31T15:13:05Z</time>
  </trkpt>
  <trkpt lat="33.388145" lon="-3.362112">
   <ele>1236.00</ele>
   <time>2014-03-31T15:13:09Z</time>
  </trkpt>
  <trkpt lat="33.388242" lon="-3.361931">
   <ele>1237.00</ele>
   <time>2014-03-31T15:13:14Z</time>
  </trkpt>
  <trkpt lat="33.388203" lon="-3.361700">
   <ele>1237.00</ele>
   <time>2014-03-31T15:13:24Z</time>
  </trkpt>
  <trkpt lat="33.388137" lon="-3.361476">
   <ele>1237.00</ele>
   <time>2014-03-31T15:13:29Z</time>
  </trkpt>
  <trkpt lat="33.388073" lon="-3.361249">
   <ele>1237.00</ele>
   <time>2014-03-31T15:13:35Z</time>
  </trkpt>
  <trkpt lat="33.388050" lon="-3.361007">
   <ele>1237.00</ele>
   <time>2014-03-31T15:13:42Z</time>
  </trkpt>
  <trkpt lat="33.388052" lon="-3.360703">
   <ele>1237.00</ele>
   <time>2014-03-31T15:13:46Z</time>
  </trkpt>
  <trkpt lat="33.388040" lon="-3.360339">
   <ele>1238.00</ele>
   <time>2014-03-31T15:13:50Z</time>
  </trkpt>
  <trkpt lat="33.388045" lon="-3.359878">
   <ele>1239.00</ele>
   <time>2014-03-31T15:13:55Z</time>
  </trkpt>
  <trkpt lat="33.388089" lon="-3.359620">
   <ele>1240.00</ele>
   <time>2014-03-31T15:13:58Z</time>
  </trkpt>
  <trkpt lat="33.388173" lon="-3.359311">
   <ele>1241.00</ele>
   <time>2014-03-31T15:14:02Z</time>
  </trkpt>
  <trkpt lat="33.388317" lon="-3.359105">
   <ele>1242.00</ele>
   <time>2014-03-31T15:14:06Z</time>
  </trkpt>
  <trkpt lat="33.388494" lon="-3.359065">
   <ele>1242.00</ele>
   <time>2014-03-31T15:14:10Z</time>
  </trkpt>
  <trkpt lat="33.388674" lon="-3.359040">
   <ele>1240.00</ele>
   <time>2014-03-31T15:14:20Z</time>
  </trkpt>
  <trkpt lat="33.388859" lon="-3.359038">
   <ele>1241.00</ele>
   <time>2014-03-31T15:14:28Z</time>
  </trkpt>
  <trkpt lat="33.389040" lon="-3.359023">
   <ele>1241.00</ele>
   <time>2014-03-31T15:14:34Z</time>
  </trkpt>
  <trkpt lat="33.389232" lon="-3.359045">
   <ele>1242.00</ele>
   <time>2014-03-31T15:14:40Z</time>
  </trkpt>
  <trkpt lat="33.389438" lon="-3.359071">
   <ele>1242.00</ele>
   <time>2014-03-31T15:14:47Z</time>
  </trkpt>
  <trkpt lat="33.389629" lon="-3.359123">
   <ele>1242.00</ele>
   <time>2014-03-31T15:14:53Z</time>
  </trkpt>
  <trkpt lat="33.389796" lon="-3.359032">
   <ele>1242.00</ele>
   <time>2014-03-31T15:14:58Z</time>
  </trkpt>
  <trkpt lat="33.389934" lon="-3.358884">
   <ele>1243.00</ele>
   <time>2014-03-31T15:15:02Z</time>
  </trkpt>
  <trkpt lat="33.390101" lon="-3.358709">
   <ele>1243.00</ele>
   <time>2014-03-31T15:15:06Z</time>
  </trkpt>
  <trkpt lat="33.390237" lon="-3.358549">
   <ele>1244.00</ele>
   <time>2014-03-31T15:15:09Z</time>
  </trkpt>
  <trkpt lat="33.390386" lon="-3.358374">
   <ele>1244.00</ele>
   <time>2014-03-31T15:15:12Z</time>
  </trkpt>
  <trkpt lat="33.390521" lon="-3.358203">
   <ele>1244.00</ele>
   <time>2014-03-31T15:15:15Z</time>
  </trkpt>
  <trkpt lat="33.390631" lon="-3.357958">
   <ele>1245.00</ele>
   <time>2014-03-31T15:15:19Z</time>
  </trkpt>
  <trkpt lat="33.390721" lon="-3.357762">
   <ele>1245.00</ele>
   <time>2014-03-31T15:15:22Z</time>
  </trkpt>
  <trkpt lat="33.390858" lon="-3.357483">
   <ele>1245.00</ele>
   <time>2014-03-31T15:15:26Z</time>
  </trkpt>
  <trkpt lat="33.390975" lon="-3.357297">
   <ele>1246.00</ele>
   <time>2014-03-31T15:15:29Z</time>
  </trkpt>
  <trkpt lat="33.391137" lon="-3.357188">
   <ele>1246.00</ele>
   <time>2014-03-31T15:15:32Z</time>
  </trkpt>
  <trkpt lat="33.391336" lon="-3.357134">
   <ele>1247.00</ele>
   <time>2014-03-31T15:15:36Z</time>
  </trkpt>
  <trkpt lat="33.391527" lon="-3.357127">
   <ele>1247.00</ele>
   <time>2014-03-31T15:15:41Z</time>
  </trkpt>
  <trkpt lat="33.391662" lon="-3.357241">
   <ele>1248.00</ele>
   <time>2014-03-31T15:15:50Z</time>
  </trkpt>
  <trkpt lat="33.391484" lon="-3.357283">
   <ele>1247.00</ele>
   <time>2014-03-31T15:15:56Z</time>
  </trkpt>
  <trkpt lat="33.391293" lon="-3.357291">
   <ele>1246.00</ele>
   <time>2014-03-31T15:16:01Z</time>
  </trkpt>
  <trkpt lat="33.391099" lon="-3.357329">
   <ele>1246.00</ele>
   <time>2014-03-31T15:16:05Z</time>
  </trkpt>
  <trkpt lat="33.390895" lon="-3.357442">
   <ele>1245.00</ele>
   <time>2014-03-31T15:16:09Z</time>
  </trkpt>
  <trkpt lat="33.390771" lon="-3.357630">
   <ele>1244.00</ele>
   <time>2014-03-31T15:16:12Z</time>
  </trkpt>
  <trkpt lat="33.390629" lon="-3.357927">
   <ele>1244.00</ele>
   <time>2014-03-31T15:16:16Z</time>
  </trkpt>
  <trkpt lat="33.390547" lon="-3.358124">
   <ele>1244.00</ele>
   <time>2014-03-31T15:16:19Z</time>
  </trkpt>
  <trkpt lat="33.390441" lon="-3.358301">
   <ele>1243.00</ele>
   <time>2014-03-31T15:16:22Z</time>
  </trkpt>
  <trkpt lat="33.390076" lon="-3.358732">
   <ele>1242.00</ele>
   <time>2014-03-31T15:16:28Z</time>
  </trkpt>
  <trkpt lat="33.389885" lon="-3.358933">
   <ele>1242.00</ele>
   <time>2014-03-31T15:16:31Z</time>
  </trkpt>
  <trkpt lat="33.389742" lon="-3.359088">
   <ele>1241.00</ele>
   <time>2014-03-31T15:16:34Z</time>
  </trkpt>
  <trkpt lat="33.389566" lon="-3.359142">
   <ele>1241.00</ele>
   <time>2014-03-31T15:16:38Z</time>
  </trkpt>
  <trkpt lat="33.389343" lon="-3.359086">
   <ele>1240.00</ele>
   <time>2014-03-31T15:16:43Z</time>
  </trkpt>
  <trkpt lat="33.389146" lon="-3.359049">
   <ele>1240.00</ele>
   <time>2014-03-31T15:16:47Z</time>
  </trkpt>
  <trkpt lat="33.388937" lon="-3.359054">
   <ele>1240.00</ele>
   <time>2014-03-31T15:16:51Z</time>
  </trkpt>
  <trkpt lat="33.388754" lon="-3.359061">
   <ele>1240.00</ele>
   <time>2014-03-31T15:16:55Z</time>
  </trkpt>
  <trkpt lat="33.388571" lon="-3.359088">
   <ele>1240.00</ele>
   <time>2014-03-31T15:17:01Z</time>
  </trkpt>
  <trkpt lat="33.388366" lon="-3.359122">
   <ele>1241.00</ele>
   <time>2014-03-31T15:17:07Z</time>
  </trkpt>
  <trkpt lat="33.388194" lon="-3.359266">
   <ele>1241.00</ele>
   <time>2014-03-31T15:17:11Z</time>
  </trkpt>
  <trkpt lat="33.388123" lon="-3.359472">
   <ele>1240.00</ele>
   <time>2014-03-31T15:17:14Z</time>
  </trkpt>
  <trkpt lat="33.388046" lon="-3.359817">
   <ele>1239.00</ele>
   <time>2014-03-31T15:17:18Z</time>
  </trkpt>
  <trkpt lat="33.388033" lon="-3.360149">
   <ele>1238.00</ele>
   <time>2014-03-31T15:17:21Z</time>
  </trkpt>
  <trkpt lat="33.388040" lon="-3.360652">
   <ele>1237.00</ele>
   <time>2014-03-31T15:17:25Z</time>
  </trkpt>
  <trkpt lat="33.388045" lon="-3.360896">
   <ele>1237.00</ele>
   <time>2014-03-31T15:17:27Z</time>
  </trkpt>
  <trkpt lat="33.388045" lon="-3.361175">
   <ele>1237.00</ele>
   <time>2014-03-31T15:17:30Z</time>
  </trkpt>
  <trkpt lat="33.388089" lon="-3.361387">
   <ele>1236.00</ele>
   <time>2014-03-31T15:17:37Z</time>
  </trkpt>
  <trkpt lat="33.388194" lon="-3.361724">
   <ele>1236.00</ele>
   <time>2014-03-31T15:17:42Z</time>
  </trkpt>
  <trkpt lat="33.388238" lon="-3.361957">
   <ele>1235.00</ele>
   <time>2014-03-31T15:17:49Z</time>
  </trkpt>
  <trkpt lat="33.388124" lon="-3.362182">
   <ele>1235.00</ele>
   <time>2014-03-31T15:17:53Z</time>
  </trkpt>
  <trkpt lat="33.388081" lon="-3.362439">
   <ele>1234.00</ele>
   <time>2014-03-31T15:17:56Z</time>
  </trkpt>
  <trkpt lat="33.388045" lon="-3.362721">
   <ele>1234.00</ele>
   <time>2014-03-31T15:17:59Z</time>
  </trkpt>
  <trkpt lat="33.387944" lon="-3.363002">
   <ele>1234.00</ele>
   <time>2014-03-31T15:18:02Z</time>
  </trkpt>
  <trkpt lat="33.387798" lon="-3.363245">
   <ele>1233.00</ele>
   <time>2014-03-31T15:18:05Z</time>
  </trkpt>
  <trkpt lat="33.387630" lon="-3.363427">
   <ele>1232.00</ele>
   <time>2014-03-31T15:18:08Z</time>
  </trkpt>
  <trkpt lat="33.387487" lon="-3.363577">
   <ele>1231.00</ele>
   <time>2014-03-31T15:18:15Z</time>
  </trkpt>
  <trkpt lat="33.387368" lon="-3.363739">
   <ele>1232.00</ele>
   <time>2014-03-31T15:18:21Z</time>
  </trkpt>
  <trkpt lat="33.387280" lon="-3.363974">
   <ele>1232.00</ele>
   <time>2014-03-31T15:18:27Z</time>
  </trkpt>
  <trkpt lat="33.387102" lon="-3.364127">
   <ele>1232.00</ele>
   <time>2014-03-31T15:18:32Z</time>
  </trkpt>
  <trkpt lat="33.386897" lon="-3.364228">
   <ele>1232.00</ele>
   <time>2014-03-31T15:18:36Z</time>
  </trkpt>
  <trkpt lat="33.386725" lon="-3.364307">
   <ele>1230.00</ele>
   <time>2014-03-31T15:18:40Z</time>
  </trkpt>
  <trkpt lat="33.386565" lon="-3.364435">
   <ele>1230.00</ele>
   <time>2014-03-31T15:18:47Z</time>
  </trkpt>
  <trkpt lat="33.386592" lon="-3.364258">
   <ele>1230.00</ele>
   <time>2014-03-31T15:18:56Z</time>
  </trkpt>
  <trkpt lat="33.386682" lon="-3.364022">
   <ele>1230.00</ele>
   <time>2014-03-31T15:19:01Z</time>
  </trkpt>
  <trkpt lat="33.386725" lon="-3.363802">
   <ele>1231.00</ele>
   <time>2014-03-31T15:19:05Z</time>
  </trkpt>
  <trkpt lat="33.386865" lon="-3.363600">
   <ele>1232.00</ele>
   <time>2014-03-31T15:19:09Z</time>
  </trkpt>
  <trkpt lat="33.386956" lon="-3.363412">
   <ele>1232.00</ele>
   <time>2014-03-31T15:19:12Z</time>
  </trkpt>
  <trkpt lat="33.387110" lon="-3.363068">
   <ele>1234.00</ele>
   <time>2014-03-31T15:19:17Z</time>
  </trkpt>
  <trkpt lat="33.387163" lon="-3.362822">
   <ele>1235.00</ele>
   <time>2014-03-31T15:19:20Z</time>
  </trkpt>
  <trkpt lat="33.387149" lon="-3.362577">
   <ele>1235.00</ele>
   <time>2014-03-31T15:19:23Z</time>
  </trkpt>
  <trkpt lat="33.387168" lon="-3.362329">
   <ele>1237.00</ele>
   <time>2014-03-31T15:19:26Z</time>
  </trkpt>
  <trkpt lat="33.387266" lon="-3.362120">
   <ele>1238.00</ele>
   <time>2014-03-31T15:19:29Z</time>
  </trkpt>
  <trkpt lat="33.387374" lon="-3.361905">
   <ele>1238.00</ele>
   <time>2014-03-31T15:19:32Z</time>
  </trkpt>
  <trkpt lat="33.387449" lon="-3.361659">
   <ele>1239.00</ele>
   <time>2014-03-31T15:19:35Z</time>
  </trkpt>
  <trkpt lat="33.387509" lon="-3.361413">
   <ele>1238.00</ele>
   <time>2014-03-31T15:19:38Z</time>
  </trkpt>
  <trkpt lat="33.387543" lon="-3.361138">
   <ele>1238.00</ele>
   <time>2014-03-31T15:19:41Z</time>
  </trkpt>
  <trkpt lat="33.387533" lon="-3.360850">
   <ele>1237.00</ele>
   <time>2014-03-31T15:19:44Z</time>
  </trkpt>
  <trkpt lat="33.387480" lon="-3.360557">
   <ele>1236.00</ele>
   <time>2014-03-31T15:19:47Z</time>
  </trkpt>
  <trkpt lat="33.387399" lon="-3.360260">
   <ele>1236.00</ele>
   <time>2014-03-31T15:19:50Z</time>
  </trkpt>
  <trkpt lat="33.387330" lon="-3.359959">
   <ele>1236.00</ele>
   <time>2014-03-31T15:19:53Z</time>
  </trkpt>
  <trkpt lat="33.387228" lon="-3.359583">
   <ele>1237.00</ele>
   <time>2014-03-31T15:19:57Z</time>
  </trkpt>
  <trkpt lat="33.387122" lon="-3.358932">
   <ele>1237.00</ele>
   <time>2014-03-31T15:20:05Z</time>
  </trkpt>
  <trkpt lat="33.387085" lon="-3.358698">
   <ele>1237.00</ele>
   <time>2014-03-31T15:20:10Z</time>
  </trkpt>
  <trkpt lat="33.387097" lon="-3.358380">
   <ele>1238.00</ele>
   <time>2014-03-31T15:20:15Z</time>
  </trkpt>
  <trkpt lat="33.387084" lon="-3.357984">
   <ele>1238.00</ele>
   <time>2014-03-31T15:20:20Z</time>
  </trkpt>
  <trkpt lat="33.387109" lon="-3.357710">
   <ele>1239.00</ele>
   <time>2014-03-31T15:20:23Z</time>
  </trkpt>
  <trkpt lat="33.387193" lon="-3.357431">
   <ele>1240.00</ele>
   <time>2014-03-31T15:20:26Z</time>
  </trkpt>
  <trkpt lat="33.387344" lon="-3.357195">
   <ele>1240.00</ele>
   <time>2014-03-31T15:20:29Z</time>
  </trkpt>
  <trkpt lat="33.387527" lon="-3.357002">
   <ele>1240.00</ele>
   <time>2014-03-31T15:20:32Z</time>
  </trkpt>
  <trkpt lat="33.387701" lon="-3.356821">
   <ele>1241.00</ele>
   <time>2014-03-31T15:20:35Z</time>
  </trkpt>
  <trkpt lat="33.387850" lon="-3.356585">
   <ele>1242.00</ele>
   <time>2014-03-31T15:20:38Z</time>
  </trkpt>
  <trkpt lat="33.388034" lon="-3.356254">
   <ele>1243.00</ele>
   <time>2014-03-31T15:20:42Z</time>
  </trkpt>
  <trkpt lat="33.388144" lon="-3.355989">
   <ele>1244.00</ele>
   <time>2014-03-31T15:20:45Z</time>
  </trkpt>
  <trkpt lat="33.388200" lon="-3.355705">
   <ele>1244.00</ele>
   <time>2014-03-31T15:20:48Z</time>
  </trkpt>
  <trkpt lat="33.388218" lon="-3.355441">
   <ele>1244.00</ele>
   <time>2014-03-31T15:20:51Z</time>
  </trkpt>
  <trkpt lat="33.388255" lon="-3.355203">
   <ele>1245.00</ele>
   <time>2014-03-31T15:20:54Z</time>
  </trkpt>
  <trkpt lat="33.388244" lon="-3.354974">
   <ele>1245.00</ele>
   <time>2014-03-31T15:20:57Z</time>
  </trkpt>
  <trkpt lat="33.388215" lon="-3.354752">
   <ele>1245.00</ele>
   <time>2014-03-31T15:21:00Z</time>
  </trkpt>
  <trkpt lat="33.388206" lon="-3.354523">
   <ele>1246.00</ele>
   <time>2014-03-31T15:21:03Z</time>
  </trkpt>
  <trkpt lat="33.388190" lon="-3.354295">
   <ele>1246.00</ele>
   <time>2014-03-31T15:21:06Z</time>
  </trkpt>
  <trkpt lat="33.388174" lon="-3.353988">
   <ele>1247.00</ele>
   <time>2014-03-31T15:21:10Z</time>
  </trkpt>
  <trkpt lat="33.388166" lon="-3.353444">
   <ele>1248.00</ele>
   <time>2014-03-31T15:21:17Z</time>
  </trkpt>
  <trkpt lat="33.388168" lon="-3.353222">
   <ele>1248.00</ele>
   <time>2014-03-31T15:21:20Z</time>
  </trkpt>
  <trkpt lat="33.388147" lon="-3.352999">
   <ele>1248.00</ele>
   <time>2014-03-31T15:21:23Z</time>
  </trkpt>
  <trkpt lat="33.388089" lon="-3.352652">
   <ele>1249.00</ele>
   <time>2014-03-31T15:21:28Z</time>
  </trkpt>
  <trkpt lat="33.388028" lon="-3.352440">
   <ele>1249.00</ele>
   <time>2014-03-31T15:21:33Z</time>
  </trkpt>
  <trkpt lat="33.388002" lon="-3.352445">
   <ele>1248.00</ele>
   <time>2014-03-31T15:21:49Z</time>
  </trkpt>
  <trkpt lat="33.388000" lon="-3.352455">
   <ele>1248.00</ele>
   <time>2014-03-31T15:22:04Z</time>
  </trkpt>
  <trkpt lat="33.387975" lon="-3.352248">
   <ele>1249.00</ele>
   <time>2014-03-31T15:22:19Z</time>
  </trkpt>
  <trkpt lat="33.387983" lon="-3.352026">
   <ele>1249.00</ele>
   <time>2014-03-31T15:22:25Z</time>
  </trkpt>
  <trkpt lat="33.388020" lon="-3.351781">
   <ele>1249.00</ele>
   <time>2014-03-31T15:22:30Z</time>
  </trkpt>
  <trkpt lat="33.388027" lon="-3.351528">
   <ele>1249.00</ele>
   <time>2014-03-31T15:22:34Z</time>
  </trkpt>
  <trkpt lat="33.388020" lon="-3.351232">
   <ele>1249.00</ele>
   <time>2014-03-31T15:22:38Z</time>
  </trkpt>
  <trkpt lat="33.387989" lon="-3.350986">
   <ele>1249.00</ele>
   <time>2014-03-31T15:22:41Z</time>
  </trkpt>
  <trkpt lat="33.387911" lon="-3.350732">
   <ele>1249.00</ele>
   <time>2014-03-31T15:22:44Z</time>
  </trkpt>
  <trkpt lat="33.387815" lon="-3.350473">
   <ele>1250.00</ele>
   <time>2014-03-31T15:22:47Z</time>
  </trkpt>
  <trkpt lat="33.387684" lon="-3.350251">
   <ele>1250.00</ele>
   <time>2014-03-31T15:22:50Z</time>
  </trkpt>
  <trkpt lat="33.387502" lon="-3.350075">
   <ele>1250.00</ele>
   <time>2014-03-31T15:22:53Z</time>
  </trkpt>
  <trkpt lat="33.387304" lon="-3.349923">
   <ele>1250.00</ele>
   <time>2014-03-31T15:22:56Z</time>
  </trkpt>
  <trkpt lat="33.387142" lon="-3.349742">
   <ele>1250.00</ele>
   <time>2014-03-31T15:22:59Z</time>
  </trkpt>
  <trkpt lat="33.386951" lon="-3.349490">
   <ele>1251.00</ele>
   <time>2014-03-31T15:23:03Z</time>
  </trkpt>
  <trkpt lat="33.386880" lon="-3.349245">
   <ele>1251.00</ele>
   <time>2014-03-31T15:23:06Z</time>
  </trkpt>
  <trkpt lat="33.386836" lon="-3.348970">
   <ele>1251.00</ele>
   <time>2014-03-31T15:23:09Z</time>
  </trkpt>
  <trkpt lat="33.386843" lon="-3.348687">
   <ele>1252.00</ele>
   <time>2014-03-31T15:23:12Z</time>
  </trkpt>
  <trkpt lat="33.386869" lon="-3.348402">
   <ele>1252.00</ele>
   <time>2014-03-31T15:23:15Z</time>
  </trkpt>
  <trkpt lat="33.386844" lon="-3.348110">
   <ele>1253.00</ele>
   <time>2014-03-31T15:23:18Z</time>
  </trkpt>
  <trkpt lat="33.386771" lon="-3.347821">
   <ele>1254.00</ele>
   <time>2014-03-31T15:23:21Z</time>
  </trkpt>
  <trkpt lat="33.386663" lon="-3.347553">
   <ele>1255.00</ele>
   <time>2014-03-31T15:23:24Z</time>
  </trkpt>
  <trkpt lat="33.386539" lon="-3.347313">
   <ele>1257.00</ele>
   <time>2014-03-31T15:23:27Z</time>
  </trkpt>
  <trkpt lat="33.386383" lon="-3.347028">
   <ele>1260.00</ele>
   <time>2014-03-31T15:23:31Z</time>
  </trkpt>
  <trkpt lat="33.386236" lon="-3.346896">
   <ele>1263.00</ele>
   <time>2014-03-31T15:23:34Z</time>
  </trkpt>
  <trkpt lat="33.386014" lon="-3.346762">
   <ele>1267.00</ele>
   <time>2014-03-31T15:23:39Z</time>
  </trkpt>
  <trkpt lat="33.385875" lon="-3.346595">
   <ele>1269.00</ele>
   <time>2014-03-31T15:23:43Z</time>
  </trkpt>
  <trkpt lat="33.385723" lon="-3.346464">
   <ele>1271.00</ele>
   <time>2014-03-31T15:23:47Z</time>
  </trkpt>
  <trkpt lat="33.385684" lon="-3.346218">
   <ele>1271.00</ele>
   <time>2014-03-31T15:23:52Z</time>
  </trkpt>
  <trkpt lat="33.385761" lon="-3.345723">
   <ele>1272.00</ele>
   <time>2014-03-31T15:24:00Z</time>
  </trkpt>
  <trkpt lat="33.385789" lon="-3.345421">
   <ele>1272.00</ele>
   <time>2014-03-31T15:24:04Z</time>
  </trkpt>
  <trkpt lat="33.385794" lon="-3.345193">
   <ele>1273.00</ele>
   <time>2014-03-31T15:24:07Z</time>
  </trkpt>
  <trkpt lat="33.385782" lon="-3.344847">
   <ele>1273.00</ele>
   <time>2014-03-31T15:24:11Z</time>
  </trkpt>
  <trkpt lat="33.385762" lon="-3.344561">
   <ele>1273.00</ele>
   <time>2014-03-31T15:24:14Z</time>
  </trkpt>
  <trkpt lat="33.385599" lon="-3.342856">
   <ele>1276.00</ele>
   <time>2014-03-31T15:24:30Z</time>
  </trkpt>
  <trkpt lat="33.385563" lon="-3.342516">
   <ele>1276.00</ele>
   <time>2014-03-31T15:24:33Z</time>
  </trkpt>
  <trkpt lat="33.385361" lon="-3.341045">
   <ele>1279.00</ele>
   <time>2014-03-31T15:24:46Z</time>
  </trkpt>
  <trkpt lat="33.385314" lon="-3.340828">
   <ele>1280.00</ele>
   <time>2014-03-31T15:24:48Z</time>
  </trkpt>
  <trkpt lat="33.385170" lon="-3.340301">
   <ele>1280.00</ele>
   <time>2014-03-31T15:24:53Z</time>
  </trkpt>
  <trkpt lat="33.385008" lon="-3.339774">
   <ele>1281.00</ele>
   <time>2014-03-31T15:24:58Z</time>
  </trkpt>
  <trkpt lat="33.384630" lon="-3.338521">
   <ele>1284.00</ele>
   <time>2014-03-31T15:25:09Z</time>
  </trkpt>
  <trkpt lat="33.384581" lon="-3.338313">
   <ele>1285.00</ele>
   <time>2014-03-31T15:25:11Z</time>
  </trkpt>
  <trkpt lat="33.384514" lon="-3.338016">
   <ele>1287.00</ele>
   <time>2014-03-31T15:25:14Z</time>
  </trkpt>
  <trkpt lat="33.384371" lon="-3.337775">
   <ele>1288.00</ele>
   <time>2014-03-31T15:25:17Z</time>
  </trkpt>
  <trkpt lat="33.384173" lon="-3.337579">
   <ele>1289.00</ele>
   <time>2014-03-31T15:25:20Z</time>
  </trkpt>
  <trkpt lat="33.384005" lon="-3.337336">
   <ele>1289.00</ele>
   <time>2014-03-31T15:25:23Z</time>
  </trkpt>
  <trkpt lat="33.383859" lon="-3.337069">
   <ele>1290.00</ele>
   <time>2014-03-31T15:25:26Z</time>
  </trkpt>
  <trkpt lat="33.383753" lon="-3.336772">
   <ele>1291.00</ele>
   <time>2014-03-31T15:25:29Z</time>
  </trkpt>
  <trkpt lat="33.383697" lon="-3.336560">
   <ele>1292.00</ele>
   <time>2014-03-31T15:25:31Z</time>
  </trkpt>
  <trkpt lat="33.383633" lon="-3.336344">
   <ele>1292.00</ele>
   <time>2014-03-31T15:25:33Z</time>
  </trkpt>
  <trkpt lat="33.383559" lon="-3.336134">
   <ele>1293.00</ele>
   <time>2014-03-31T15:25:35Z</time>
  </trkpt>
  <trkpt lat="33.383454" lon="-3.335836">
   <ele>1293.00</ele>
   <time>2014-03-31T15:25:38Z</time>
  </trkpt>
  <trkpt lat="33.383426" lon="-3.335546">
   <ele>1295.00</ele>
   <time>2014-03-31T15:25:41Z</time>
  </trkpt>
  <trkpt lat="33.383448" lon="-3.335201">
   <ele>1297.00</ele>
   <time>2014-03-31T15:25:45Z</time>
  </trkpt>
  <trkpt lat="33.383460" lon="-3.334845">
   <ele>1299.00</ele>
   <time>2014-03-31T15:25:49Z</time>
  </trkpt>
  <trkpt lat="33.383520" lon="-3.333970">
   <ele>1302.00</ele>
   <time>2014-03-31T15:25:58Z</time>
  </trkpt>
  <trkpt lat="33.383565" lon="-3.333495">
   <ele>1301.00</ele>
   <time>2014-03-31T15:26:03Z</time>
  </trkpt>
  <trkpt lat="33.383553" lon="-3.333225">
   <ele>1301.00</ele>
   <time>2014-03-31T15:26:06Z</time>
  </trkpt>
  <trkpt lat="33.383526" lon="-3.332982">
   <ele>1300.00</ele>
   <time>2014-03-31T15:26:09Z</time>
  </trkpt>
  <trkpt lat="33.383449" lon="-3.332446">
   <ele>1299.00</ele>
   <time>2014-03-31T15:26:19Z</time>
  </trkpt>
  <trkpt lat="33.383416" lon="-3.332217">
   <ele>1297.00</ele>
   <time>2014-03-31T15:26:33Z</time>
  </trkpt>
  <trkpt lat="33.383359" lon="-3.331763">
   <ele>1294.00</ele>
   <time>2014-03-31T15:26:41Z</time>
  </trkpt>
  <trkpt lat="33.383303" lon="-3.331228">
   <ele>1290.00</ele>
   <time>2014-03-31T15:26:52Z</time>
  </trkpt>
  <trkpt lat="33.383262" lon="-3.331055">
   <ele>1288.00</ele>
   <time>2014-03-31T15:27:07Z</time>
  </trkpt>
  <trkpt lat="33.383260" lon="-3.331066">
   <ele>1288.00</ele>
   <time>2014-03-31T15:27:23Z</time>
  </trkpt>
  <trkpt lat="33.383263" lon="-3.331063">
   <ele>1288.00</ele>
   <time>2014-03-31T15:27:38Z</time>
  </trkpt>
  <trkpt lat="33.383295" lon="-3.330942">
   <ele>1288.00</ele>
   <time>2014-03-31T15:27:54Z</time>
  </trkpt>
  <trkpt lat="33.383389" lon="-3.330754">
   <ele>1287.00</ele>
   <time>2014-03-31T15:28:10Z</time>
  </trkpt>
  <trkpt lat="33.383486" lon="-3.330589">
   <ele>1286.00</ele>
   <time>2014-03-31T15:28:23Z</time>
  </trkpt>
  <trkpt lat="33.383425" lon="-3.330380">
   <ele>1287.00</ele>
   <time>2014-03-31T15:28:31Z</time>
  </trkpt>
  <trkpt lat="33.383293" lon="-3.330233">
   <ele>1287.00</ele>
   <time>2014-03-31T15:28:39Z</time>
  </trkpt>
  <trkpt lat="33.383193" lon="-3.330052">
   <ele>1287.00</ele>
   <time>2014-03-31T15:28:45Z</time>
  </trkpt>
  <trkpt lat="33.383174" lon="-3.329779">
   <ele>1288.00</ele>
   <time>2014-03-31T15:28:50Z</time>
  </trkpt>
  <trkpt lat="33.383137" lon="-3.329252">
   <ele>1289.00</ele>
   <time>2014-03-31T15:28:57Z</time>
  </trkpt>
  <trkpt lat="33.383111" lon="-3.328921">
   <ele>1289.00</ele>
   <time>2014-03-31T15:29:01Z</time>
  </trkpt>
  <trkpt lat="33.383103" lon="-3.328678">
   <ele>1290.00</ele>
   <time>2014-03-31T15:29:04Z</time>
  </trkpt>
  <trkpt lat="33.383094" lon="-3.328438">
   <ele>1290.00</ele>
   <time>2014-03-31T15:29:07Z</time>
  </trkpt>
  <trkpt lat="33.383057" lon="-3.328031">
   <ele>1291.00</ele>
   <time>2014-03-31T15:29:12Z</time>
  </trkpt>
  <trkpt lat="33.383004" lon="-3.327520">
   <ele>1292.00</ele>
   <time>2014-03-31T15:29:18Z</time>
  </trkpt>
  <trkpt lat="33.382915" lon="-3.326568">
   <ele>1294.00</ele>
   <time>2014-03-31T15:29:28Z</time>
  </trkpt>
  <trkpt lat="33.382860" lon="-3.326149">
   <ele>1295.00</ele>
   <time>2014-03-31T15:29:33Z</time>
  </trkpt>
  <trkpt lat="33.382798" lon="-3.325871">
   <ele>1296.00</ele>
   <time>2014-03-31T15:29:37Z</time>
  </trkpt>
  <trkpt lat="33.382758" lon="-3.325616">
   <ele>1296.00</ele>
   <time>2014-03-31T15:29:41Z</time>
  </trkpt>
  <trkpt lat="33.382716" lon="-3.325373">
   <ele>1296.00</ele>
   <time>2014-03-31T15:29:46Z</time>
  </trkpt>
  <trkpt lat="33.382686" lon="-3.325285">
   <ele>1297.00</ele>
   <time>2014-03-31T15:30:01Z</time>
  </trkpt>
  <trkpt lat="33.382661" lon="-3.325056">
   <ele>1297.00</ele>
   <time>2014-03-31T15:30:14Z</time>
  </trkpt>
  <trkpt lat="33.382514" lon="-3.324395">
   <ele>1298.00</ele>
   <time>2014-03-31T15:30:27Z</time>
  </trkpt>
  <trkpt lat="33.382487" lon="-3.324122">
   <ele>1299.00</ele>
   <time>2014-03-31T15:30:31Z</time>
  </trkpt>
  <trkpt lat="33.382442" lon="-3.322973">
   <ele>1301.00</ele>
   <time>2014-03-31T15:30:46Z</time>
  </trkpt>
  <trkpt lat="33.382443" lon="-3.322755">
   <ele>1302.00</ele>
   <time>2014-03-31T15:30:49Z</time>
  </trkpt>
  <trkpt lat="33.382449" lon="-3.322506">
   <ele>1303.00</ele>
   <time>2014-03-31T15:30:53Z</time>
  </trkpt>
  <trkpt lat="33.382450" lon="-3.321313">
   <ele>1304.00</ele>
   <time>2014-03-31T15:31:09Z</time>
  </trkpt>
  <trkpt lat="33.382457" lon="-3.320758">
   <ele>1306.00</ele>
   <time>2014-03-31T15:31:15Z</time>
  </trkpt>
  <trkpt lat="33.382470" lon="-3.320356">
   <ele>1306.00</ele>
   <time>2014-03-31T15:31:19Z</time>
  </trkpt>
  <trkpt lat="33.382472" lon="-3.319727">
   <ele>1307.00</ele>
   <time>2014-03-31T15:31:25Z</time>
  </trkpt>
  <trkpt lat="33.382468" lon="-3.319230">
   <ele>1309.00</ele>
   <time>2014-03-31T15:31:30Z</time>
  </trkpt>
  <trkpt lat="33.382487" lon="-3.318977">
   <ele>1309.00</ele>
   <time>2014-03-31T15:31:33Z</time>
  </trkpt>
  <trkpt lat="33.382522" lon="-3.318759">
   <ele>1309.00</ele>
   <time>2014-03-31T15:31:36Z</time>
  </trkpt>
  <trkpt lat="33.382546" lon="-3.318589">
   <ele>1308.00</ele>
   <time>2014-03-31T15:31:51Z</time>
  </trkpt>
  <trkpt lat="33.382548" lon="-3.318441">
   <ele>1308.00</ele>
   <time>2014-03-31T15:32:07Z</time>
  </trkpt>
  <trkpt lat="33.382575" lon="-3.318215">
   <ele>1309.00</ele>
   <time>2014-03-31T15:32:20Z</time>
  </trkpt>
  <trkpt lat="33.382583" lon="-3.318208">
   <ele>1310.00</ele>
   <time>2014-03-31T15:32:35Z</time>
  </trkpt>
  <trkpt lat="33.382604" lon="-3.318203">
   <ele>1311.00</ele>
   <time>2014-03-31T15:32:51Z</time>
  </trkpt>
  <trkpt lat="33.382603" lon="-3.318208">
   <ele>1312.00</ele>
   <time>2014-03-31T15:33:06Z</time>
  </trkpt>
  <trkpt lat="33.382587" lon="-3.318210">
   <ele>1311.00</ele>
   <time>2014-03-31T15:33:22Z</time>
  </trkpt>
  <trkpt lat="33.382588" lon="-3.318209">
   <ele>1311.00</ele>
   <time>2014-03-31T15:33:37Z</time>
  </trkpt>
  <trkpt lat="33.382594" lon="-3.318208">
   <ele>1311.00</ele>
   <time>2014-03-31T15:33:52Z</time>
  </trkpt>
  <trkpt lat="33.382602" lon="-3.318206">
   <ele>1311.00</ele>
   <time>2014-03-31T15:34:08Z</time>
  </trkpt>
  <trkpt lat="33.382607" lon="-3.318206">
   <ele>1312.00</ele>
   <time>2014-03-31T15:34:23Z</time>
  </trkpt>
  <trkpt lat="33.382604" lon="-3.318207">
   <ele>1311.00</ele>
   <time>2014-03-31T15:34:39Z</time>
  </trkpt>
  <trkpt lat="33.382597" lon="-3.318205">
   <ele>1311.00</ele>
   <time>2014-03-31T15:34:54Z</time>
  </trkpt>
  <trkpt lat="33.382616" lon="-3.318035">
   <ele>1311.00</ele>
   <time>2014-03-31T15:35:09Z</time>
  </trkpt>
  <trkpt lat="33.382645" lon="-3.317752">
   <ele>1314.00</ele>
   <time>2014-03-31T15:35:15Z</time>
  </trkpt>
  <trkpt lat="33.382635" lon="-3.317501">
   <ele>1316.00</ele>
   <time>2014-03-31T15:35:20Z</time>
  </trkpt>
  <trkpt lat="33.382603" lon="-3.317252">
   <ele>1316.00</ele>
   <time>2014-03-31T15:35:24Z</time>
  </trkpt>
  <trkpt lat="33.382562" lon="-3.316970">
   <ele>1317.00</ele>
   <time>2014-03-31T15:35:28Z</time>
  </trkpt>
  <trkpt lat="33.382514" lon="-3.316454">
   <ele>1319.00</ele>
   <time>2014-03-31T15:35:35Z</time>
  </trkpt>
  <trkpt lat="33.382425" lon="-3.316188">
   <ele>1320.00</ele>
   <time>2014-03-31T15:35:39Z</time>
  </trkpt>
  <trkpt lat="33.382361" lon="-3.315986">
   <ele>1321.00</ele>
   <time>2014-03-31T15:35:42Z</time>
  </trkpt>
  <trkpt lat="33.382322" lon="-3.315771">
   <ele>1322.00</ele>
   <time>2014-03-31T15:35:45Z</time>
  </trkpt>
  <trkpt lat="33.382328" lon="-3.315542">
   <ele>1323.00</ele>
   <time>2014-03-31T15:35:48Z</time>
  </trkpt>
  <trkpt lat="33.382372" lon="-3.315160">
   <ele>1325.00</ele>
   <time>2014-03-31T15:35:53Z</time>
  </trkpt>
  <trkpt lat="33.382408" lon="-3.314944">
   <ele>1325.00</ele>
   <time>2014-03-31T15:35:56Z</time>
  </trkpt>
  <trkpt lat="33.382460" lon="-3.314682">
   <ele>1325.00</ele>
   <time>2014-03-31T15:36:00Z</time>
  </trkpt>
  <trkpt lat="33.382461" lon="-3.314467">
   <ele>1323.00</ele>
   <time>2014-03-31T15:36:04Z</time>
  </trkpt>
  <trkpt lat="33.382476" lon="-3.314225">
   <ele>1321.00</ele>
   <time>2014-03-31T15:36:09Z</time>
  </trkpt>
  <trkpt lat="33.382549" lon="-3.314015">
   <ele>1319.00</ele>
   <time>2014-03-31T15:36:13Z</time>
  </trkpt>
  <trkpt lat="33.382590" lon="-3.313906">
   <ele>1319.00</ele>
   <time>2014-03-31T15:36:28Z</time>
  </trkpt>
  <trkpt lat="33.382587" lon="-3.313917">
   <ele>1319.00</ele>
   <time>2014-03-31T15:36:44Z</time>
  </trkpt>
  <trkpt lat="33.382589" lon="-3.313924">
   <ele>1319.00</ele>
   <time>2014-03-31T15:36:59Z</time>
  </trkpt>
  <trkpt lat="33.382589" lon="-3.313919">
   <ele>1320.00</ele>
   <time>2014-03-31T15:37:15Z</time>
  </trkpt>
  <trkpt lat="33.382564" lon="-3.313945">
   <ele>1320.00</ele>
   <time>2014-03-31T15:37:30Z</time>
  </trkpt>
  <trkpt lat="33.382548" lon="-3.313794">
   <ele>1320.00</ele>
   <time>2014-03-31T15:37:45Z</time>
  </trkpt>
  <trkpt lat="33.382693" lon="-3.313670">
   <ele>1320.00</ele>
   <time>2014-03-31T15:37:58Z</time>
  </trkpt>
  <trkpt lat="33.382717" lon="-3.313606">
   <ele>1319.00</ele>
   <time>2014-03-31T15:38:14Z</time>
  </trkpt>
  <trkpt lat="33.382710" lon="-3.313618">
   <ele>1319.00</ele>
   <time>2014-03-31T15:38:29Z</time>
  </trkpt>
  <trkpt lat="33.382716" lon="-3.313610">
   <ele>1319.00</ele>
   <time>2014-03-31T15:38:44Z</time>
  </trkpt>
  <trkpt lat="33.382715" lon="-3.313609">
   <ele>1320.00</ele>
   <time>2014-03-31T15:39:00Z</time>
  </trkpt>
  <trkpt lat="33.382711" lon="-3.313609">
   <ele>1320.00</ele>
   <time>2014-03-31T15:39:15Z</time>
  </trkpt>
  <trkpt lat="33.382711" lon="-3.313606">
   <ele>1319.00</ele>
   <time>2014-03-31T15:39:31Z</time>
  </trkpt>
  <trkpt lat="33.382716" lon="-3.313603">
   <ele>1321.00</ele>
   <time>2014-03-31T15:39:46Z</time>
  </trkpt>
  <trkpt lat="33.382714" lon="-3.313601">
   <ele>1321.00</ele>
   <time>2014-03-31T15:40:02Z</time>
  </trkpt>
  <trkpt lat="33.382728" lon="-3.313563">
   <ele>1321.00</ele>
   <time>2014-03-31T15:40:17Z</time>
  </trkpt>
  <trkpt lat="33.382851" lon="-3.313265">
   <ele>1321.00</ele>
   <time>2014-03-31T15:40:29Z</time>
  </trkpt>
  <trkpt lat="33.382906" lon="-3.313148">
   <ele>1321.00</ele>
   <time>2014-03-31T15:40:44Z</time>
  </trkpt>
  <trkpt lat="33.382999" lon="-3.312926">
   <ele>1321.00</ele>
   <time>2014-03-31T15:40:57Z</time>
  </trkpt>
  <trkpt lat="33.383204" lon="-3.312455">
   <ele>1323.00</ele>
   <time>2014-03-31T15:41:12Z</time>
  </trkpt>
  <trkpt lat="33.383320" lon="-3.312179">
   <ele>1325.00</ele>
   <time>2014-03-31T15:41:17Z</time>
  </trkpt>
  <trkpt lat="33.383397" lon="-3.311972">
   <ele>1326.00</ele>
   <time>2014-03-31T15:41:30Z</time>
  </trkpt>
  <trkpt lat="33.383552" lon="-3.311791">
   <ele>1326.00</ele>
   <time>2014-03-31T15:41:37Z</time>
  </trkpt>
  <trkpt lat="33.383725" lon="-3.311614">
   <ele>1326.00</ele>
   <time>2014-03-31T15:41:42Z</time>
  </trkpt>
  <trkpt lat="33.383884" lon="-3.311459">
   <ele>1326.00</ele>
   <time>2014-03-31T15:41:46Z</time>
  </trkpt>
  <trkpt lat="33.384014" lon="-3.311277">
   <ele>1326.00</ele>
   <time>2014-03-31T15:41:50Z</time>
  </trkpt>
  <trkpt lat="33.384085" lon="-3.311033">
   <ele>1325.00</ele>
   <time>2014-03-31T15:41:55Z</time>
  </trkpt>
  <trkpt lat="33.384122" lon="-3.310811">
   <ele>1323.00</ele>
   <time>2014-03-31T15:42:00Z</time>
  </trkpt>
  <trkpt lat="33.384021" lon="-3.310579">
   <ele>1323.00</ele>
   <time>2014-03-31T15:42:05Z</time>
  </trkpt>
  <trkpt lat="33.383933" lon="-3.310375">
   <ele>1324.00</ele>
   <time>2014-03-31T15:42:09Z</time>
  </trkpt>
  <trkpt lat="33.383823" lon="-3.310162">
   <ele>1324.00</ele>
   <time>2014-03-31T15:42:13Z</time>
  </trkpt>
  <trkpt lat="33.383683" lon="-3.309973">
   <ele>1324.00</ele>
   <time>2014-03-31T15:42:17Z</time>
  </trkpt>
  <trkpt lat="33.383554" lon="-3.309821">
   <ele>1325.00</ele>
   <time>2014-03-31T15:42:22Z</time>
  </trkpt>
  <trkpt lat="33.383439" lon="-3.309622">
   <ele>1326.00</ele>
   <time>2014-03-31T15:42:27Z</time>
  </trkpt>
  <trkpt lat="33.383299" lon="-3.309464">
   <ele>1327.00</ele>
   <time>2014-03-31T15:42:30Z</time>
  </trkpt>
  <trkpt lat="33.383134" lon="-3.309306">
   <ele>1328.00</ele>
   <time>2014-03-31T15:42:33Z</time>
  </trkpt>
  <trkpt lat="33.382954" lon="-3.309139">
   <ele>1330.00</ele>
   <time>2014-03-31T15:42:37Z</time>
  </trkpt>
  <trkpt lat="33.382555" lon="-3.308725">
   <ele>1333.00</ele>
   <time>2014-03-31T15:42:47Z</time>
  </trkpt>
  <trkpt lat="33.382336" lon="-3.308456">
   <ele>1331.00</ele>
   <time>2014-03-31T15:42:52Z</time>
  </trkpt>
  <trkpt lat="33.381950" lon="-3.307973">
   <ele>1328.00</ele>
   <time>2014-03-31T15:43:00Z</time>
  </trkpt>
  <trkpt lat="33.381806" lon="-3.307786">
   <ele>1326.00</ele>
   <time>2014-03-31T15:43:03Z</time>
  </trkpt>
  <trkpt lat="33.381143" lon="-3.306950">
   <ele>1321.00</ele>
   <time>2014-03-31T15:43:17Z</time>
  </trkpt>
  <trkpt lat="33.381016" lon="-3.306777">
   <ele>1321.00</ele>
   <time>2014-03-31T15:43:25Z</time>
  </trkpt>
  <trkpt lat="33.380879" lon="-3.306612">
   <ele>1321.00</ele>
   <time>2014-03-31T15:43:35Z</time>
  </trkpt>
  <trkpt lat="33.380749" lon="-3.306432">
   <ele>1320.00</ele>
   <time>2014-03-31T15:43:43Z</time>
  </trkpt>
  <trkpt lat="33.380620" lon="-3.306266">
   <ele>1320.00</ele>
   <time>2014-03-31T15:43:50Z</time>
  </trkpt>
  <trkpt lat="33.380500" lon="-3.306067">
   <ele>1319.00</ele>
   <time>2014-03-31T15:43:58Z</time>
  </trkpt>
  <trkpt lat="33.380367" lon="-3.305899">
   <ele>1321.00</ele>
   <time>2014-03-31T15:44:04Z</time>
  </trkpt>
  <trkpt lat="33.380205" lon="-3.305764">
   <ele>1319.00</ele>
   <time>2014-03-31T15:44:09Z</time>
  </trkpt>
  <trkpt lat="33.380034" lon="-3.305645">
   <ele>1318.00</ele>
   <time>2014-03-31T15:44:13Z</time>
  </trkpt>
  <trkpt lat="33.379734" lon="-3.305465">
   <ele>1317.00</ele>
   <time>2014-03-31T15:44:20Z</time>
  </trkpt>
  <trkpt lat="33.379551" lon="-3.305380">
   <ele>1317.00</ele>
   <time>2014-03-31T15:44:26Z</time>
  </trkpt>
  <trkpt lat="33.379240" lon="-3.305445">
   <ele>1315.00</ele>
   <time>2014-03-31T15:44:34Z</time>
  </trkpt>
  <trkpt lat="33.379051" lon="-3.305498">
   <ele>1315.00</ele>
   <time>2014-03-31T15:44:39Z</time>
  </trkpt>
  <trkpt lat="33.378848" lon="-3.305422">
   <ele>1317.00</ele>
   <time>2014-03-31T15:44:44Z</time>
  </trkpt>
  <trkpt lat="33.378660" lon="-3.305431">
   <ele>1316.00</ele>
   <time>2014-03-31T15:44:49Z</time>
  </trkpt>
  <trkpt lat="33.378445" lon="-3.305424">
   <ele>1316.00</ele>
   <time>2014-03-31T15:44:54Z</time>
  </trkpt>
  <trkpt lat="33.378224" lon="-3.305428">
   <ele>1316.00</ele>
   <time>2014-03-31T15:44:59Z</time>
  </trkpt>
  <trkpt lat="33.378003" lon="-3.305397">
   <ele>1317.00</ele>
   <time>2014-03-31T15:45:04Z</time>
  </trkpt>
  <trkpt lat="33.377818" lon="-3.305360">
   <ele>1318.00</ele>
   <time>2014-03-31T15:45:08Z</time>
  </trkpt>
  <trkpt lat="33.377627" lon="-3.305332">
   <ele>1318.00</ele>
   <time>2014-03-31T15:45:12Z</time>
  </trkpt>
  <trkpt lat="33.377424" lon="-3.305355">
   <ele>1317.00</ele>
   <time>2014-03-31T15:45:17Z</time>
  </trkpt>
  <trkpt lat="33.377235" lon="-3.305287">
   <ele>1314.00</ele>
   <time>2014-03-31T15:45:27Z</time>
  </trkpt>
  <trkpt lat="33.377116" lon="-3.305109">
   <ele>1316.00</ele>
   <time>2014-03-31T15:45:36Z</time>
  </trkpt>
  <trkpt lat="33.377027" lon="-3.305005">
   <ele>1316.00</ele>
   <time>2014-03-31T15:45:52Z</time>
  </trkpt>
  <trkpt lat="33.377023" lon="-3.305011">
   <ele>1315.00</ele>
   <time>2014-03-31T15:46:07Z</time>
  </trkpt>
  <trkpt lat="33.377020" lon="-3.305013">
   <ele>1313.00</ele>
   <time>2014-03-31T15:46:23Z</time>
  </trkpt>
  <trkpt lat="33.377019" lon="-3.305023">
   <ele>1311.00</ele>
   <time>2014-03-31T15:46:38Z</time>
  </trkpt>
  <trkpt lat="33.377018" lon="-3.305028">
   <ele>1310.00</ele>
   <time>2014-03-31T15:46:53Z</time>
  </trkpt>
  <trkpt lat="33.376852" lon="-3.304891">
   <ele>1310.00</ele>
   <time>2014-03-31T15:47:02Z</time>
  </trkpt>
  <trkpt lat="33.376684" lon="-3.304775">
   <ele>1310.00</ele>
   <time>2014-03-31T15:47:06Z</time>
  </trkpt>
  <trkpt lat="33.376481" lon="-3.304615">
   <ele>1310.00</ele>
   <time>2014-03-31T15:47:11Z</time>
  </trkpt>
  <trkpt lat="33.376290" lon="-3.304523">
   <ele>1312.00</ele>
   <time>2014-03-31T15:47:15Z</time>
  </trkpt>
  <trkpt lat="33.376086" lon="-3.304499">
   <ele>1314.00</ele>
   <time>2014-03-31T15:47:19Z</time>
  </trkpt>
  <trkpt lat="33.375934" lon="-3.304627">
   <ele>1313.00</ele>
   <time>2014-03-31T15:47:23Z</time>
  </trkpt>
  <trkpt lat="33.375786" lon="-3.304785">
   <ele>1312.00</ele>
   <time>2014-03-31T15:47:27Z</time>
  </trkpt>
  <trkpt lat="33.375642" lon="-3.304954">
   <ele>1311.00</ele>
   <time>2014-03-31T15:47:31Z</time>
  </trkpt>
  <trkpt lat="33.375470" lon="-3.305128">
   <ele>1310.00</ele>
   <time>2014-03-31T15:47:35Z</time>
  </trkpt>
  <trkpt lat="33.375290" lon="-3.305303">
   <ele>1309.00</ele>
   <time>2014-03-31T15:47:39Z</time>
  </trkpt>
  <trkpt lat="33.375081" lon="-3.305397">
   <ele>1308.00</ele>
   <time>2014-03-31T15:47:43Z</time>
  </trkpt>
  <trkpt lat="33.374840" lon="-3.305377">
   <ele>1309.00</ele>
   <time>2014-03-31T15:47:47Z</time>
  </trkpt>
  <trkpt lat="33.374646" lon="-3.305385">
   <ele>1308.00</ele>
   <time>2014-03-31T15:47:50Z</time>
  </trkpt>
  <trkpt lat="33.374475" lon="-3.305321">
   <ele>1310.00</ele>
   <time>2014-03-31T15:47:53Z</time>
  </trkpt>
  <trkpt lat="33.374322" lon="-3.305205">
   <ele>1309.00</ele>
   <time>2014-03-31T15:47:56Z</time>
  </trkpt>
  <trkpt lat="33.374139" lon="-3.305111">
   <ele>1310.00</ele>
   <time>2014-03-31T15:47:59Z</time>
  </trkpt>
  <trkpt lat="33.373940" lon="-3.305016">
   <ele>1311.00</ele>
   <time>2014-03-31T15:48:02Z</time>
  </trkpt>
  <trkpt lat="33.373741" lon="-3.304894">
   <ele>1312.00</ele>
   <time>2014-03-31T15:48:05Z</time>
  </trkpt>
  <trkpt lat="33.373554" lon="-3.304764">
   <ele>1311.00</ele>
   <time>2014-03-31T15:48:08Z</time>
  </trkpt>
  <trkpt lat="33.373377" lon="-3.304666">
   <ele>1311.00</ele>
   <time>2014-03-31T15:48:11Z</time>
  </trkpt>
  <trkpt lat="33.373148" lon="-3.304593">
   <ele>1311.00</ele>
   <time>2014-03-31T15:48:15Z</time>
  </trkpt>
  <trkpt lat="33.372965" lon="-3.304620">
   <ele>1311.00</ele>
   <time>2014-03-31T15:48:18Z</time>
  </trkpt>
  <trkpt lat="33.372738" lon="-3.304641">
   <ele>1311.00</ele>
   <time>2014-03-31T15:48:22Z</time>
  </trkpt>
  <trkpt lat="33.372500" lon="-3.304646">
   <ele>1310.00</ele>
   <time>2014-03-31T15:48:26Z</time>
  </trkpt>
  <trkpt lat="33.372319" lon="-3.304621">
   <ele>1311.00</ele>
   <time>2014-03-31T15:48:29Z</time>
  </trkpt>
  <trkpt lat="33.372120" lon="-3.304655">
   <ele>1310.00</ele>
   <time>2014-03-31T15:48:32Z</time>
  </trkpt>
  <trkpt lat="33.371912" lon="-3.304686">
   <ele>1310.00</ele>
   <time>2014-03-31T15:48:35Z</time>
  </trkpt>
  <trkpt lat="33.371712" lon="-3.304690">
   <ele>1310.00</ele>
   <time>2014-03-31T15:48:38Z</time>
  </trkpt>
  <trkpt lat="33.371486" lon="-3.304710">
   <ele>1310.00</ele>
   <time>2014-03-31T15:48:42Z</time>
  </trkpt>
  <trkpt lat="33.371298" lon="-3.304758">
   <ele>1309.00</ele>
   <time>2014-03-31T15:48:49Z</time>
  </trkpt>
  <trkpt lat="33.371113" lon="-3.304739">
   <ele>1311.00</ele>
   <time>2014-03-31T15:48:56Z</time>
  </trkpt>
  <trkpt lat="33.370939" lon="-3.304581">
   <ele>1310.00</ele>
   <time>2014-03-31T15:49:01Z</time>
  </trkpt>
  <trkpt lat="33.370760" lon="-3.304454">
   <ele>1309.00</ele>
   <time>2014-03-31T15:49:05Z</time>
  </trkpt>
  <trkpt lat="33.370566" lon="-3.304303">
   <ele>1309.00</ele>
   <time>2014-03-31T15:49:09Z</time>
  </trkpt>
  <trkpt lat="33.370339" lon="-3.304237">
   <ele>1308.00</ele>
   <time>2014-03-31T15:49:13Z</time>
  </trkpt>
  <trkpt lat="33.370165" lon="-3.304133">
   <ele>1309.00</ele>
   <time>2014-03-31T15:49:17Z</time>
  </trkpt>
  <trkpt lat="33.369995" lon="-3.304000">
   <ele>1308.00</ele>
   <time>2014-03-31T15:49:23Z</time>
  </trkpt>
  <trkpt lat="33.369821" lon="-3.303843">
   <ele>1309.00</ele>
   <time>2014-03-31T15:49:29Z</time>
  </trkpt>
  <trkpt lat="33.369616" lon="-3.303757">
   <ele>1311.00</ele>
   <time>2014-03-31T15:49:33Z</time>
  </trkpt>
  <trkpt lat="33.369479" lon="-3.303611">
   <ele>1311.00</ele>
   <time>2014-03-31T15:49:36Z</time>
  </trkpt>
  <trkpt lat="33.369399" lon="-3.303409">
   <ele>1311.00</ele>
   <time>2014-03-31T15:49:39Z</time>
  </trkpt>
  <trkpt lat="33.369368" lon="-3.303195">
   <ele>1311.00</ele>
   <time>2014-03-31T15:49:43Z</time>
  </trkpt>
  <trkpt lat="33.369439" lon="-3.303325">
   <ele>1309.00</ele>
   <time>2014-03-31T15:49:50Z</time>
  </trkpt>
  <trkpt lat="33.369410" lon="-3.303553">
   <ele>1309.00</ele>
   <time>2014-03-31T15:49:55Z</time>
  </trkpt>
  <trkpt lat="33.369314" lon="-3.303725">
   <ele>1308.00</ele>
   <time>2014-03-31T15:50:01Z</time>
  </trkpt>
  <trkpt lat="33.369255" lon="-3.303530">
   <ele>1307.00</ele>
   <time>2014-03-31T15:50:10Z</time>
  </trkpt>
  <trkpt lat="33.369232" lon="-3.303285">
   <ele>1306.00</ele>
   <time>2014-03-31T15:50:16Z</time>
  </trkpt>
  <trkpt lat="33.369177" lon="-3.303058">
   <ele>1306.00</ele>
   <time>2014-03-31T15:50:20Z</time>
  </trkpt>
  <trkpt lat="33.369108" lon="-3.302802">
   <ele>1306.00</ele>
   <time>2014-03-31T15:50:24Z</time>
  </trkpt>
  <trkpt lat="33.369060" lon="-3.302581">
   <ele>1306.00</ele>
   <time>2014-03-31T15:50:27Z</time>
  </trkpt>
  <trkpt lat="33.368939" lon="-3.301985">
   <ele>1307.00</ele>
   <time>2014-03-31T15:50:34Z</time>
  </trkpt>
  <trkpt lat="33.368886" lon="-3.301738">
   <ele>1307.00</ele>
   <time>2014-03-31T15:50:37Z</time>
  </trkpt>
  <trkpt lat="33.368787" lon="-3.301227">
   <ele>1308.00</ele>
   <time>2014-03-31T15:50:43Z</time>
  </trkpt>
  <trkpt lat="33.368796" lon="-3.300976">
   <ele>1308.00</ele>
   <time>2014-03-31T15:50:46Z</time>
  </trkpt>
  <trkpt lat="33.368843" lon="-3.300738">
   <ele>1308.00</ele>
   <time>2014-03-31T15:50:49Z</time>
  </trkpt>
  <trkpt lat="33.368905" lon="-3.300511">
   <ele>1308.00</ele>
   <time>2014-03-31T15:50:52Z</time>
  </trkpt>
  <trkpt lat="33.369003" lon="-3.300254">
   <ele>1308.00</ele>
   <time>2014-03-31T15:50:56Z</time>
  </trkpt>
  <trkpt lat="33.369085" lon="-3.300030">
   <ele>1308.00</ele>
   <time>2014-03-31T15:51:00Z</time>
  </trkpt>
  <trkpt lat="33.369193" lon="-3.299765">
   <ele>1309.00</ele>
   <time>2014-03-31T15:51:05Z</time>
  </trkpt>
  <trkpt lat="33.369218" lon="-3.299511">
   <ele>1311.00</ele>
   <time>2014-03-31T15:51:09Z</time>
  </trkpt>
  <trkpt lat="33.369242" lon="-3.299274">
   <ele>1312.00</ele>
   <time>2014-03-31T15:51:14Z</time>
  </trkpt>
  <trkpt lat="33.369307" lon="-3.299063">
   <ele>1312.00</ele>
   <time>2014-03-31T15:51:20Z</time>
  </trkpt>
  <trkpt lat="33.369438" lon="-3.298883">
   <ele>1311.00</ele>
   <time>2014-03-31T15:51:26Z</time>
  </trkpt>
  <trkpt lat="33.369561" lon="-3.298690">
   <ele>1310.00</ele>
   <time>2014-03-31T15:51:32Z</time>
  </trkpt>
  <trkpt lat="33.369658" lon="-3.298505">
   <ele>1310.00</ele>
   <time>2014-03-31T15:51:37Z</time>
  </trkpt>
  <trkpt lat="33.369747" lon="-3.298312">
   <ele>1311.00</ele>
   <time>2014-03-31T15:51:42Z</time>
  </trkpt>
  <trkpt lat="33.369886" lon="-3.298172">
   <ele>1311.00</ele>
   <time>2014-03-31T15:51:47Z</time>
  </trkpt>
  <trkpt lat="33.370100" lon="-3.297890">
   <ele>1312.00</ele>
   <time>2014-03-31T15:51:58Z</time>
  </trkpt>
  <trkpt lat="33.370028" lon="-3.297744">
   <ele>1312.00</ele>
   <time>2014-03-31T15:52:05Z</time>
  </trkpt>
  <trkpt lat="33.369837" lon="-3.297795">
   <ele>1312.00</ele>
   <time>2014-03-31T15:52:11Z</time>
  </trkpt>
  <trkpt lat="33.369640" lon="-3.297880">
   <ele>1312.00</ele>
   <time>2014-03-31T15:52:17Z</time>
  </trkpt>
  <trkpt lat="33.369488" lon="-3.297973">
   <ele>1312.00</ele>
   <time>2014-03-31T15:52:28Z</time>
  </trkpt>
  <trkpt lat="33.369470" lon="-3.298004">
   <ele>1312.00</ele>
   <time>2014-03-31T15:52:44Z</time>
  </trkpt>
  <trkpt lat="33.369404" lon="-3.298010">
   <ele>1313.00</ele>
   <time>2014-03-31T15:52:59Z</time>
  </trkpt>
  <trkpt lat="33.369248" lon="-3.297992">
   <ele>1315.00</ele>
   <time>2014-03-31T15:53:15Z</time>
  </trkpt>
  <trkpt lat="33.369070" lon="-3.297923">
   <ele>1316.00</ele>
   <time>2014-03-31T15:53:24Z</time>
  </trkpt>
  <trkpt lat="33.368888" lon="-3.297833">
   <ele>1316.00</ele>
   <time>2014-03-31T15:53:30Z</time>
  </trkpt>
  <trkpt lat="33.368710" lon="-3.297752">
   <ele>1316.00</ele>
   <time>2014-03-31T15:53:35Z</time>
  </trkpt>
  <trkpt lat="33.368530" lon="-3.297678">
   <ele>1316.00</ele>
   <time>2014-03-31T15:53:48Z</time>
  </trkpt>
  <trkpt lat="33.368343" lon="-3.297679">
   <ele>1316.00</ele>
   <time>2014-03-31T15:53:52Z</time>
  </trkpt>
  <trkpt lat="33.368154" lon="-3.297779">
   <ele>1316.00</ele>
   <time>2014-03-31T15:53:56Z</time>
  </trkpt>
  <trkpt lat="33.367964" lon="-3.297882">
   <ele>1315.00</ele>
   <time>2014-03-31T15:54:00Z</time>
  </trkpt>
  <trkpt lat="33.367762" lon="-3.297833">
   <ele>1315.00</ele>
   <time>2014-03-31T15:54:04Z</time>
  </trkpt>
  <trkpt lat="33.367601" lon="-3.297645">
   <ele>1316.00</ele>
   <time>2014-03-31T15:54:08Z</time>
  </trkpt>
  <trkpt lat="33.367501" lon="-3.297464">
   <ele>1317.00</ele>
   <time>2014-03-31T15:54:11Z</time>
  </trkpt>
  <trkpt lat="33.367396" lon="-3.297245">
   <ele>1319.00</ele>
   <time>2014-03-31T15:54:15Z</time>
  </trkpt>
  <trkpt lat="33.367304" lon="-3.297023">
   <ele>1318.00</ele>
   <time>2014-03-31T15:54:19Z</time>
  </trkpt>
  <trkpt lat="33.367261" lon="-3.296800">
   <ele>1318.00</ele>
   <time>2014-03-31T15:54:23Z</time>
  </trkpt>
  <trkpt lat="33.367339" lon="-3.296573">
   <ele>1318.00</ele>
   <time>2014-03-31T15:54:28Z</time>
  </trkpt>
  <trkpt lat="33.367434" lon="-3.296359">
   <ele>1317.00</ele>
   <time>2014-03-31T15:54:33Z</time>
  </trkpt>
  <trkpt lat="33.367458" lon="-3.296127">
   <ele>1316.00</ele>
   <time>2014-03-31T15:54:37Z</time>
  </trkpt>
  <trkpt lat="33.367421" lon="-3.295895">
   <ele>1316.00</ele>
   <time>2014-03-31T15:54:41Z</time>
  </trkpt>
  <trkpt lat="33.367403" lon="-3.295622">
   <ele>1316.00</ele>
   <time>2014-03-31T15:54:46Z</time>
  </trkpt>
  <trkpt lat="33.367322" lon="-3.295423">
   <ele>1317.00</ele>
   <time>2014-03-31T15:54:50Z</time>
  </trkpt>
  <trkpt lat="33.367290" lon="-3.295163">
   <ele>1317.00</ele>
   <time>2014-03-31T15:54:55Z</time>
  </trkpt>
  <trkpt lat="33.367288" lon="-3.294758">
   <ele>1317.00</ele>
   <time>2014-03-31T15:55:02Z</time>
  </trkpt>
  <trkpt lat="33.367274" lon="-3.294523">
   <ele>1317.00</ele>
   <time>2014-03-31T15:55:06Z</time>
  </trkpt>
  <trkpt lat="33.367225" lon="-3.294273">
   <ele>1317.00</ele>
   <time>2014-03-31T15:55:11Z</time>
  </trkpt>
  <trkpt lat="33.367163" lon="-3.294111">
   <ele>1321.00</ele>
   <time>2014-03-31T15:55:27Z</time>
  </trkpt>
  <trkpt lat="33.367165" lon="-3.294110">
   <ele>1323.00</ele>
   <time>2014-03-31T15:55:43Z</time>
  </trkpt>
  <trkpt lat="33.367166" lon="-3.294112">
   <ele>1322.00</ele>
   <time>2014-03-31T15:55:58Z</time>
  </trkpt>
  <trkpt lat="33.367166" lon="-3.294114">
   <ele>1322.00</ele>
   <time>2014-03-31T15:56:13Z</time>
  </trkpt>
  <trkpt lat="33.367173" lon="-3.294166">
   <ele>1315.00</ele>
   <time>2014-03-31T15:56:29Z</time>
  </trkpt>
  <trkpt lat="33.367168" lon="-3.294160">
   <ele>1317.00</ele>
   <time>2014-03-31T15:56:44Z</time>
  </trkpt>
  <trkpt lat="33.367165" lon="-3.294140">
   <ele>1319.00</ele>
   <time>2014-03-31T15:57:00Z</time>
  </trkpt>
  <trkpt lat="33.367160" lon="-3.294128">
   <ele>1320.00</ele>
   <time>2014-03-31T15:57:15Z</time>
  </trkpt>
  <trkpt lat="33.367242" lon="-3.294316">
   <ele>1316.00</ele>
   <time>2014-03-31T15:57:30Z</time>
  </trkpt>
  <trkpt lat="33.367273" lon="-3.294559">
   <ele>1316.00</ele>
   <time>2014-03-31T15:57:34Z</time>
  </trkpt>
  <trkpt lat="33.367294" lon="-3.294813">
   <ele>1316.00</ele>
   <time>2014-03-31T15:57:37Z</time>
  </trkpt>
  <trkpt lat="33.367309" lon="-3.295399">
   <ele>1315.00</ele>
   <time>2014-03-31T15:57:45Z</time>
  </trkpt>
  <trkpt lat="33.367405" lon="-3.295631">
   <ele>1315.00</ele>
   <time>2014-03-31T15:57:49Z</time>
  </trkpt>
  <trkpt lat="33.367480" lon="-3.295583">
   <ele>1315.00</ele>
   <time>2014-03-31T15:57:55Z</time>
  </trkpt>
  <trkpt lat="33.367315" lon="-3.295425">
   <ele>1314.00</ele>
   <time>2014-03-31T15:58:00Z</time>
  </trkpt>
  <trkpt lat="33.367294" lon="-3.295162">
   <ele>1315.00</ele>
   <time>2014-03-31T15:58:04Z</time>
  </trkpt>
  <trkpt lat="33.367292" lon="-3.294790">
   <ele>1314.00</ele>
   <time>2014-03-31T15:58:09Z</time>
  </trkpt>
  <trkpt lat="33.367276" lon="-3.294555">
   <ele>1313.00</ele>
   <time>2014-03-31T15:58:12Z</time>
  </trkpt>
  <trkpt lat="33.367232" lon="-3.294300">
   <ele>1312.00</ele>
   <time>2014-03-31T15:58:16Z</time>
  </trkpt>
  <trkpt lat="33.367122" lon="-3.294085">
   <ele>1313.00</ele>
   <time>2014-03-31T15:58:20Z</time>
  </trkpt>
  <trkpt lat="33.366967" lon="-3.293885">
   <ele>1313.00</ele>
   <time>2014-03-31T15:58:24Z</time>
  </trkpt>
  <trkpt lat="33.366821" lon="-3.293682">
   <ele>1311.00</ele>
   <time>2014-03-31T15:58:28Z</time>
  </trkpt>
  <trkpt lat="33.366667" lon="-3.293515">
   <ele>1310.00</ele>
   <time>2014-03-31T15:58:32Z</time>
  </trkpt>
  <trkpt lat="33.366642" lon="-3.293288">
   <ele>1311.00</ele>
   <time>2014-03-31T15:58:36Z</time>
  </trkpt>
  <trkpt lat="33.366737" lon="-3.292956">
   <ele>1311.00</ele>
   <time>2014-03-31T15:58:40Z</time>
  </trkpt>
  <trkpt lat="33.366839" lon="-3.292676">
   <ele>1310.00</ele>
   <time>2014-03-31T15:58:43Z</time>
  </trkpt>
  <trkpt lat="33.366971" lon="-3.292409">
   <ele>1310.00</ele>
   <time>2014-03-31T15:58:46Z</time>
  </trkpt>
  <trkpt lat="33.367084" lon="-3.292225">
   <ele>1310.00</ele>
   <time>2014-03-31T15:58:48Z</time>
  </trkpt>
  <trkpt lat="33.367427" lon="-3.291703">
   <ele>1310.00</ele>
   <time>2014-03-31T15:58:54Z</time>
  </trkpt>
  <trkpt lat="33.367563" lon="-3.291488">
   <ele>1311.00</ele>
   <time>2014-03-31T15:58:57Z</time>
  </trkpt>
  <trkpt lat="33.367621" lon="-3.291243">
   <ele>1311.00</ele>
   <time>2014-03-31T15:59:00Z</time>
  </trkpt>
  <trkpt lat="33.367598" lon="-3.290950">
   <ele>1311.00</ele>
   <time>2014-03-31T15:59:03Z</time>
  </trkpt>
  <trkpt lat="33.367509" lon="-3.290346">
   <ele>1312.00</ele>
   <time>2014-03-31T15:59:09Z</time>
  </trkpt>
  <trkpt lat="33.367429" lon="-3.289973">
   <ele>1311.00</ele>
   <time>2014-03-31T15:59:13Z</time>
  </trkpt>
  <trkpt lat="33.367468" lon="-3.289700">
   <ele>1311.00</ele>
   <time>2014-03-31T15:59:16Z</time>
  </trkpt>
  <trkpt lat="33.367502" lon="-3.289374">
   <ele>1310.00</ele>
   <time>2014-03-31T15:59:19Z</time>
  </trkpt>
  <trkpt lat="33.367526" lon="-3.289143">
   <ele>1310.00</ele>
   <time>2014-03-31T15:59:21Z</time>
  </trkpt>
  <trkpt lat="33.367563" lon="-3.288906">
   <ele>1309.00</ele>
   <time>2014-03-31T15:59:23Z</time>
  </trkpt>
  <trkpt lat="33.367614" lon="-3.288680">
   <ele>1310.00</ele>
   <time>2014-03-31T15:59:25Z</time>
  </trkpt>
  <trkpt lat="33.367714" lon="-3.288283">
   <ele>1310.00</ele>
   <time>2014-03-31T15:59:29Z</time>
  </trkpt>
  <trkpt lat="33.367791" lon="-3.288043">
   <ele>1310.00</ele>
   <time>2014-03-31T15:59:32Z</time>
  </trkpt>
  <trkpt lat="33.367913" lon="-3.287878">
   <ele>1310.00</ele>
   <time>2014-03-31T15:59:35Z</time>
  </trkpt>
  <trkpt lat="33.368087" lon="-3.287713">
   <ele>1309.00</ele>
   <time>2014-03-31T15:59:40Z</time>
  </trkpt>
  <trkpt lat="33.368200" lon="-3.287476">
   <ele>1309.00</ele>
   <time>2014-03-31T15:59:44Z</time>
  </trkpt>
  <trkpt lat="33.368280" lon="-3.287272">
   <ele>1310.00</ele>
   <time>2014-03-31T15:59:47Z</time>
  </trkpt>
  <trkpt lat="33.368397" lon="-3.287016">
   <ele>1310.00</ele>
   <time>2014-03-31T15:59:51Z</time>
  </trkpt>
  <trkpt lat="33.368423" lon="-3.286797">
   <ele>1309.00</ele>
   <time>2014-03-31T15:59:54Z</time>
  </trkpt>
  <trkpt lat="33.368405" lon="-3.286560">
   <ele>1308.00</ele>
   <time>2014-03-31T15:59:57Z</time>
  </trkpt>
  <trkpt lat="33.368381" lon="-3.286299">
   <ele>1308.00</ele>
   <time>2014-03-31T16:00:00Z</time>
  </trkpt>
  <trkpt lat="33.368436" lon="-3.286049">
   <ele>1308.00</ele>
   <time>2014-03-31T16:00:03Z</time>
  </trkpt>
  <trkpt lat="33.368576" lon="-3.285815">
   <ele>1307.00</ele>
   <time>2014-03-31T16:00:06Z</time>
  </trkpt>
  <trkpt lat="33.368766" lon="-3.285614">
   <ele>1306.00</ele>
   <time>2014-03-31T16:00:09Z</time>
  </trkpt>
  <trkpt lat="33.368993" lon="-3.285456">
   <ele>1305.00</ele>
   <time>2014-03-31T16:00:12Z</time>
  </trkpt>
  <trkpt lat="33.369215" lon="-3.285354">
   <ele>1305.00</ele>
   <time>2014-03-31T16:00:15Z</time>
  </trkpt>
  <trkpt lat="33.369420" lon="-3.285268">
   <ele>1305.00</ele>
   <time>2014-03-31T16:00:19Z</time>
  </trkpt>
  <trkpt lat="33.369560" lon="-3.285101">
   <ele>1305.00</ele>
   <time>2014-03-31T16:00:24Z</time>
  </trkpt>
  <trkpt lat="33.369772" lon="-3.285075">
   <ele>1305.00</ele>
   <time>2014-03-31T16:00:29Z</time>
  </trkpt>
  <trkpt lat="33.369954" lon="-3.285018">
   <ele>1305.00</ele>
   <time>2014-03-31T16:00:33Z</time>
  </trkpt>
  <trkpt lat="33.370120" lon="-3.284904">
   <ele>1305.00</ele>
   <time>2014-03-31T16:00:37Z</time>
  </trkpt>
  <trkpt lat="33.370052" lon="-3.284760">
   <ele>1305.00</ele>
   <time>2014-03-31T16:00:43Z</time>
  </trkpt>
  <trkpt lat="33.369870" lon="-3.284660">
   <ele>1306.00</ele>
   <time>2014-03-31T16:00:48Z</time>
  </trkpt>
  <trkpt lat="33.369795" lon="-3.284421">
   <ele>1306.00</ele>
   <time>2014-03-31T16:00:53Z</time>
  </trkpt>
  <trkpt lat="33.369686" lon="-3.284172">
   <ele>1306.00</ele>
   <time>2014-03-31T16:00:57Z</time>
  </trkpt>
  <trkpt lat="33.369528" lon="-3.284019">
   <ele>1306.00</ele>
   <time>2014-03-31T16:01:00Z</time>
  </trkpt>
  <trkpt lat="33.369302" lon="-3.283842">
   <ele>1306.00</ele>
   <time>2014-03-31T16:01:04Z</time>
  </trkpt>
  <trkpt lat="33.369166" lon="-3.283677">
   <ele>1307.00</ele>
   <time>2014-03-31T16:01:07Z</time>
  </trkpt>
  <trkpt lat="33.369102" lon="-3.283466">
   <ele>1306.00</ele>
   <time>2014-03-31T16:01:10Z</time>
  </trkpt>
  <trkpt lat="33.369008" lon="-3.283248">
   <ele>1306.00</ele>
   <time>2014-03-31T16:01:13Z</time>
  </trkpt>
  <trkpt lat="33.368835" lon="-3.283071">
   <ele>1307.00</ele>
   <time>2014-03-31T16:01:16Z</time>
  </trkpt>
  <trkpt lat="33.368629" lon="-3.282936">
   <ele>1307.00</ele>
   <time>2014-03-31T16:01:19Z</time>
  </trkpt>
  <trkpt lat="33.368454" lon="-3.282788">
   <ele>1308.00</ele>
   <time>2014-03-31T16:01:22Z</time>
  </trkpt>
  <trkpt lat="33.368323" lon="-3.282622">
   <ele>1308.00</ele>
   <time>2014-03-31T16:01:25Z</time>
  </trkpt>
  <trkpt lat="33.368148" lon="-3.282510">
   <ele>1308.00</ele>
   <time>2014-03-31T16:01:28Z</time>
  </trkpt>
  <trkpt lat="33.367944" lon="-3.282444">
   <ele>1308.00</ele>
   <time>2014-03-31T16:01:31Z</time>
  </trkpt>
  <trkpt lat="33.367739" lon="-3.282316">
   <ele>1308.00</ele>
   <time>2014-03-31T16:01:34Z</time>
  </trkpt>
  <trkpt lat="33.367278" lon="-3.281944">
   <ele>1307.00</ele>
   <time>2014-03-31T16:01:40Z</time>
  </trkpt>
  <trkpt lat="33.367103" lon="-3.281830">
   <ele>1307.00</ele>
   <time>2014-03-31T16:01:42Z</time>
  </trkpt>
  <trkpt lat="33.366836" lon="-3.281660">
   <ele>1306.00</ele>
   <time>2014-03-31T16:01:45Z</time>
  </trkpt>
  <trkpt lat="33.366669" lon="-3.281526">
   <ele>1306.00</ele>
   <time>2014-03-31T16:01:47Z</time>
  </trkpt>
  <trkpt lat="33.366513" lon="-3.281367">
   <ele>1305.00</ele>
   <time>2014-03-31T16:01:49Z</time>
  </trkpt>
  <trkpt lat="33.366132" lon="-3.280953">
   <ele>1304.00</ele>
   <time>2014-03-31T16:01:54Z</time>
  </trkpt>
  <trkpt lat="33.365995" lon="-3.280782">
   <ele>1304.00</ele>
   <time>2014-03-31T16:01:56Z</time>
  </trkpt>
  <trkpt lat="33.365840" lon="-3.280640">
   <ele>1303.00</ele>
   <time>2014-03-31T16:01:58Z</time>
  </trkpt>
  <trkpt lat="33.365667" lon="-3.280534">
   <ele>1302.00</ele>
   <time>2014-03-31T16:02:00Z</time>
  </trkpt>
  <trkpt lat="33.365493" lon="-3.280457">
   <ele>1302.00</ele>
   <time>2014-03-31T16:02:02Z</time>
  </trkpt>
  <trkpt lat="33.365310" lon="-3.280417">
   <ele>1301.00</ele>
   <time>2014-03-31T16:02:04Z</time>
  </trkpt>
  <trkpt lat="33.365116" lon="-3.280433">
   <ele>1300.00</ele>
   <time>2014-03-31T16:02:06Z</time>
  </trkpt>
  <trkpt lat="33.364926" lon="-3.280477">
   <ele>1299.00</ele>
   <time>2014-03-31T16:02:08Z</time>
  </trkpt>
  <trkpt lat="33.364741" lon="-3.280479">
   <ele>1299.00</ele>
   <time>2014-03-31T16:02:10Z</time>
  </trkpt>
  <trkpt lat="33.364505" lon="-3.280407">
   <ele>1299.00</ele>
   <time>2014-03-31T16:02:13Z</time>
  </trkpt>
  <trkpt lat="33.364314" lon="-3.280281">
   <ele>1299.00</ele>
   <time>2014-03-31T16:02:16Z</time>
  </trkpt>
  <trkpt lat="33.364161" lon="-3.280139">
   <ele>1298.00</ele>
   <time>2014-03-31T16:02:19Z</time>
  </trkpt>
  <trkpt lat="33.364046" lon="-3.279950">
   <ele>1298.00</ele>
   <time>2014-03-31T16:02:23Z</time>
  </trkpt>
  <trkpt lat="33.363901" lon="-3.279778">
   <ele>1299.00</ele>
   <time>2014-03-31T16:02:28Z</time>
  </trkpt>
  <trkpt lat="33.363717" lon="-3.279874">
   <ele>1297.00</ele>
   <time>2014-03-31T16:02:32Z</time>
  </trkpt>
  <trkpt lat="33.363447" lon="-3.279953">
   <ele>1297.00</ele>
   <time>2014-03-31T16:02:38Z</time>
  </trkpt>
  <trkpt lat="33.363242" lon="-3.279994">
   <ele>1298.00</ele>
   <time>2014-03-31T16:02:45Z</time>
  </trkpt>
  <trkpt lat="33.363062" lon="-3.280023">
   <ele>1298.00</ele>
   <time>2014-03-31T16:02:50Z</time>
  </trkpt>
  <trkpt lat="33.362942" lon="-3.279835">
   <ele>1299.00</ele>
   <time>2014-03-31T16:02:54Z</time>
  </trkpt>
  <trkpt lat="33.362810" lon="-3.279504">
   <ele>1300.00</ele>
   <time>2014-03-31T16:02:59Z</time>
  </trkpt>
  <trkpt lat="33.362743" lon="-3.279253">
   <ele>1300.00</ele>
   <time>2014-03-31T16:03:02Z</time>
  </trkpt>
  <trkpt lat="33.362689" lon="-3.279000">
   <ele>1300.00</ele>
   <time>2014-03-31T16:03:05Z</time>
  </trkpt>
  <trkpt lat="33.362621" lon="-3.278736">
   <ele>1300.00</ele>
   <time>2014-03-31T16:03:08Z</time>
  </trkpt>
  <trkpt lat="33.362542" lon="-3.278499">
   <ele>1301.00</ele>
   <time>2014-03-31T16:03:11Z</time>
  </trkpt>
  <trkpt lat="33.362464" lon="-3.278278">
   <ele>1301.00</ele>
   <time>2014-03-31T16:03:14Z</time>
  </trkpt>
  <trkpt lat="33.362385" lon="-3.277943">
   <ele>1302.00</ele>
   <time>2014-03-31T16:03:18Z</time>
  </trkpt>
  <trkpt lat="33.362289" lon="-3.277637">
   <ele>1302.00</ele>
   <time>2014-03-31T16:03:22Z</time>
  </trkpt>
  <trkpt lat="33.362314" lon="-3.277400">
   <ele>1304.00</ele>
   <time>2014-03-31T16:03:25Z</time>
  </trkpt>
  <trkpt lat="33.362438" lon="-3.277217">
   <ele>1305.00</ele>
   <time>2014-03-31T16:03:28Z</time>
  </trkpt>
  <trkpt lat="33.362614" lon="-3.277082">
   <ele>1306.00</ele>
   <time>2014-03-31T16:03:31Z</time>
  </trkpt>
  <trkpt lat="33.362697" lon="-3.276867">
   <ele>1306.00</ele>
   <time>2014-03-31T16:03:34Z</time>
  </trkpt>
  <trkpt lat="33.362698" lon="-3.276614">
   <ele>1307.00</ele>
   <time>2014-03-31T16:03:37Z</time>
  </trkpt>
  <trkpt lat="33.362669" lon="-3.276367">
   <ele>1308.00</ele>
   <time>2014-03-31T16:03:41Z</time>
  </trkpt>
  <trkpt lat="33.362630" lon="-3.276124">
   <ele>1308.00</ele>
   <time>2014-03-31T16:03:48Z</time>
  </trkpt>
  <trkpt lat="33.362687" lon="-3.275860">
   <ele>1307.00</ele>
   <time>2014-03-31T16:03:53Z</time>
  </trkpt>
  <trkpt lat="33.362737" lon="-3.275651">
   <ele>1308.00</ele>
   <time>2014-03-31T16:03:56Z</time>
  </trkpt>
  <trkpt lat="33.362802" lon="-3.275450">
   <ele>1307.00</ele>
   <time>2014-03-31T16:03:59Z</time>
  </trkpt>
  <trkpt lat="33.362859" lon="-3.275242">
   <ele>1308.00</ele>
   <time>2014-03-31T16:04:02Z</time>
  </trkpt>
  <trkpt lat="33.362852" lon="-3.275027">
   <ele>1309.00</ele>
   <time>2014-03-31T16:04:05Z</time>
  </trkpt>
  <trkpt lat="33.362790" lon="-3.274806">
   <ele>1310.00</ele>
   <time>2014-03-31T16:04:08Z</time>
  </trkpt>
  <trkpt lat="33.362767" lon="-3.274569">
   <ele>1311.00</ele>
   <time>2014-03-31T16:04:11Z</time>
  </trkpt>
  <trkpt lat="33.362727" lon="-3.274350">
   <ele>1311.00</ele>
   <time>2014-03-31T16:04:14Z</time>
  </trkpt>
  <trkpt lat="33.362656" lon="-3.274127">
   <ele>1312.00</ele>
   <time>2014-03-31T16:04:17Z</time>
  </trkpt>
  <trkpt lat="33.362566" lon="-3.273888">
   <ele>1312.00</ele>
   <time>2014-03-31T16:04:20Z</time>
  </trkpt>
  <trkpt lat="33.362455" lon="-3.273661">
   <ele>1313.00</ele>
   <time>2014-03-31T16:04:23Z</time>
  </trkpt>
  <trkpt lat="33.362354" lon="-3.273444">
   <ele>1314.00</ele>
   <time>2014-03-31T16:04:26Z</time>
  </trkpt>
  <trkpt lat="33.362219" lon="-3.273263">
   <ele>1315.00</ele>
   <time>2014-03-31T16:04:29Z</time>
  </trkpt>
  <trkpt lat="33.362077" lon="-3.273079">
   <ele>1316.00</ele>
   <time>2014-03-31T16:04:32Z</time>
  </trkpt>
  <trkpt lat="33.361960" lon="-3.272893">
   <ele>1318.00</ele>
   <time>2014-03-31T16:04:35Z</time>
  </trkpt>
  <trkpt lat="33.361940" lon="-3.272679">
   <ele>1319.00</ele>
   <time>2014-03-31T16:04:38Z</time>
  </trkpt>
  <trkpt lat="33.362012" lon="-3.272468">
   <ele>1319.00</ele>
   <time>2014-03-31T16:04:41Z</time>
  </trkpt>
  <trkpt lat="33.362067" lon="-3.272224">
   <ele>1320.00</ele>
   <time>2014-03-31T16:04:44Z</time>
  </trkpt>
  <trkpt lat="33.362057" lon="-3.271965">
   <ele>1321.00</ele>
   <time>2014-03-31T16:04:47Z</time>
  </trkpt>
  <trkpt lat="33.362012" lon="-3.271615">
   <ele>1321.00</ele>
   <time>2014-03-31T16:04:51Z</time>
  </trkpt>
  <trkpt lat="33.362016" lon="-3.271351">
   <ele>1322.00</ele>
   <time>2014-03-31T16:04:54Z</time>
  </trkpt>
  <trkpt lat="33.362073" lon="-3.271105">
   <ele>1323.00</ele>
   <time>2014-03-31T16:04:57Z</time>
  </trkpt>
  <trkpt lat="33.362111" lon="-3.270853">
   <ele>1325.00</ele>
   <time>2014-03-31T16:05:00Z</time>
  </trkpt>
  <trkpt lat="33.362167" lon="-3.270605">
   <ele>1326.00</ele>
   <time>2014-03-31T16:05:03Z</time>
  </trkpt>
  <trkpt lat="33.362237" lon="-3.270356">
   <ele>1327.00</ele>
   <time>2014-03-31T16:05:06Z</time>
  </trkpt>
  <trkpt lat="33.362298" lon="-3.270105">
   <ele>1328.00</ele>
   <time>2014-03-31T16:05:09Z</time>
  </trkpt>
  <trkpt lat="33.362354" lon="-3.269882">
   <ele>1329.00</ele>
   <time>2014-03-31T16:05:12Z</time>
  </trkpt>
  <trkpt lat="33.362303" lon="-3.269633">
   <ele>1329.00</ele>
   <time>2014-03-31T16:05:16Z</time>
  </trkpt>
  <trkpt lat="33.362172" lon="-3.269404">
   <ele>1328.00</ele>
   <time>2014-03-31T16:05:20Z</time>
  </trkpt>
  <trkpt lat="33.361991" lon="-3.269023">
   <ele>1328.00</ele>
   <time>2014-03-31T16:05:25Z</time>
  </trkpt>
  <trkpt lat="33.361910" lon="-3.268755">
   <ele>1329.00</ele>
   <time>2014-03-31T16:05:28Z</time>
  </trkpt>
  <trkpt lat="33.361832" lon="-3.268486">
   <ele>1329.00</ele>
   <time>2014-03-31T16:05:31Z</time>
  </trkpt>
  <trkpt lat="33.361740" lon="-3.268115">
   <ele>1329.00</ele>
   <time>2014-03-31T16:05:35Z</time>
  </trkpt>
  <trkpt lat="33.361581" lon="-3.267545">
   <ele>1329.00</ele>
   <time>2014-03-31T16:05:41Z</time>
  </trkpt>
  <trkpt lat="33.361495" lon="-3.267254">
   <ele>1329.00</ele>
   <time>2014-03-31T16:05:44Z</time>
  </trkpt>
  <trkpt lat="33.361399" lon="-3.266993">
   <ele>1329.00</ele>
   <time>2014-03-31T16:05:47Z</time>
  </trkpt>
  <trkpt lat="33.361252" lon="-3.266773">
   <ele>1329.00</ele>
   <time>2014-03-31T16:05:50Z</time>
  </trkpt>
  <trkpt lat="33.361124" lon="-3.266519">
   <ele>1329.00</ele>
   <time>2014-03-31T16:05:53Z</time>
  </trkpt>
  <trkpt lat="33.360981" lon="-3.266165">
   <ele>1329.00</ele>
   <time>2014-03-31T16:05:57Z</time>
  </trkpt>
  <trkpt lat="33.360919" lon="-3.265876">
   <ele>1328.00</ele>
   <time>2014-03-31T16:06:00Z</time>
  </trkpt>
  <trkpt lat="33.360841" lon="-3.265487">
   <ele>1328.00</ele>
   <time>2014-03-31T16:06:04Z</time>
  </trkpt>
  <trkpt lat="33.360737" lon="-3.265251">
   <ele>1328.00</ele>
   <time>2014-03-31T16:06:07Z</time>
  </trkpt>
  <trkpt lat="33.360594" lon="-3.265113">
   <ele>1328.00</ele>
   <time>2014-03-31T16:06:10Z</time>
  </trkpt>
  <trkpt lat="33.360419" lon="-3.265032">
   <ele>1329.00</ele>
   <time>2014-03-31T16:06:13Z</time>
  </trkpt>
  <trkpt lat="33.360250" lon="-3.264889">
   <ele>1329.00</ele>
   <time>2014-03-31T16:06:16Z</time>
  </trkpt>
  <trkpt lat="33.360108" lon="-3.264701">
   <ele>1329.00</ele>
   <time>2014-03-31T16:06:19Z</time>
  </trkpt>
  <trkpt lat="33.359936" lon="-3.264541">
   <ele>1330.00</ele>
   <time>2014-03-31T16:06:22Z</time>
  </trkpt>
  <trkpt lat="33.359724" lon="-3.264398">
   <ele>1330.00</ele>
   <time>2014-03-31T16:06:25Z</time>
  </trkpt>
  <trkpt lat="33.359535" lon="-3.264229">
   <ele>1331.00</ele>
   <time>2014-03-31T16:06:28Z</time>
  </trkpt>
  <trkpt lat="33.359359" lon="-3.264042">
   <ele>1331.00</ele>
   <time>2014-03-31T16:06:31Z</time>
  </trkpt>
  <trkpt lat="33.359183" lon="-3.263885">
   <ele>1330.00</ele>
   <time>2014-03-31T16:06:34Z</time>
  </trkpt>
  <trkpt lat="33.359044" lon="-3.263742">
   <ele>1330.00</ele>
   <time>2014-03-31T16:06:37Z</time>
  </trkpt>
  <trkpt lat="33.358812" lon="-3.263738">
   <ele>1328.00</ele>
   <time>2014-03-31T16:06:41Z</time>
  </trkpt>
  <trkpt lat="33.358618" lon="-3.263684">
   <ele>1327.00</ele>
   <time>2014-03-31T16:06:47Z</time>
  </trkpt>
  <trkpt lat="33.358536" lon="-3.263484">
   <ele>1327.00</ele>
   <time>2014-03-31T16:06:51Z</time>
  </trkpt>
  <trkpt lat="33.358539" lon="-3.263262">
   <ele>1327.00</ele>
   <time>2014-03-31T16:06:54Z</time>
  </trkpt>
  <trkpt lat="33.358533" lon="-3.263034">
   <ele>1328.00</ele>
   <time>2014-03-31T16:06:57Z</time>
  </trkpt>
  <trkpt lat="33.358503" lon="-3.262733">
   <ele>1329.00</ele>
   <time>2014-03-31T16:07:01Z</time>
  </trkpt>
  <trkpt lat="33.358423" lon="-3.262540">
   <ele>1329.00</ele>
   <time>2014-03-31T16:07:05Z</time>
  </trkpt>
  <trkpt lat="33.358357" lon="-3.262318">
   <ele>1330.00</ele>
   <time>2014-03-31T16:07:11Z</time>
  </trkpt>
  <trkpt lat="33.358361" lon="-3.262072">
   <ele>1331.00</ele>
   <time>2014-03-31T16:07:16Z</time>
  </trkpt>
  <trkpt lat="33.358312" lon="-3.261863">
   <ele>1331.00</ele>
   <time>2014-03-31T16:07:20Z</time>
  </trkpt>
  <trkpt lat="33.358251" lon="-3.261649">
   <ele>1333.00</ele>
   <time>2014-03-31T16:07:24Z</time>
  </trkpt>
  <trkpt lat="33.358160" lon="-3.261338">
   <ele>1336.00</ele>
   <time>2014-03-31T16:07:29Z</time>
  </trkpt>
  <trkpt lat="33.358025" lon="-3.260995">
   <ele>1338.00</ele>
   <time>2014-03-31T16:07:34Z</time>
  </trkpt>
  <trkpt lat="33.357912" lon="-3.260800">
   <ele>1340.00</ele>
   <time>2014-03-31T16:07:37Z</time>
  </trkpt>
  <trkpt lat="33.357765" lon="-3.260648">
   <ele>1341.00</ele>
   <time>2014-03-31T16:07:40Z</time>
  </trkpt>
  <trkpt lat="33.357632" lon="-3.260483">
   <ele>1342.00</ele>
   <time>2014-03-31T16:07:43Z</time>
  </trkpt>
  <trkpt lat="33.357479" lon="-3.260233">
   <ele>1344.00</ele>
   <time>2014-03-31T16:07:47Z</time>
  </trkpt>
  <trkpt lat="33.357339" lon="-3.260093">
   <ele>1344.00</ele>
   <time>2014-03-31T16:07:50Z</time>
  </trkpt>
  <trkpt lat="33.357176" lon="-3.259988">
   <ele>1344.00</ele>
   <time>2014-03-31T16:07:53Z</time>
  </trkpt>
  <trkpt lat="33.357030" lon="-3.259826">
   <ele>1345.00</ele>
   <time>2014-03-31T16:07:56Z</time>
  </trkpt>
  <trkpt lat="33.356883" lon="-3.259645">
   <ele>1345.00</ele>
   <time>2014-03-31T16:07:59Z</time>
  </trkpt>
  <trkpt lat="33.356721" lon="-3.259475">
   <ele>1346.00</ele>
   <time>2014-03-31T16:08:02Z</time>
  </trkpt>
  <trkpt lat="33.356540" lon="-3.259310">
   <ele>1346.00</ele>
   <time>2014-03-31T16:08:05Z</time>
  </trkpt>
  <trkpt lat="33.356372" lon="-3.259122">
   <ele>1347.00</ele>
   <time>2014-03-31T16:08:08Z</time>
  </trkpt>
  <trkpt lat="33.356223" lon="-3.258917">
   <ele>1347.00</ele>
   <time>2014-03-31T16:08:11Z</time>
  </trkpt>
  <trkpt lat="33.356082" lon="-3.258722">
   <ele>1347.00</ele>
   <time>2014-03-31T16:08:14Z</time>
  </trkpt>
  <trkpt lat="33.355920" lon="-3.258545">
   <ele>1346.00</ele>
   <time>2014-03-31T16:08:17Z</time>
  </trkpt>
  <trkpt lat="33.355699" lon="-3.258326">
   <ele>1345.00</ele>
   <time>2014-03-31T16:08:21Z</time>
  </trkpt>
  <trkpt lat="33.355551" lon="-3.258177">
   <ele>1344.00</ele>
   <time>2014-03-31T16:08:25Z</time>
  </trkpt>
  <trkpt lat="33.355537" lon="-3.257964">
   <ele>1346.00</ele>
   <time>2014-03-31T16:08:32Z</time>
  </trkpt>
  <trkpt lat="33.355545" lon="-3.257661">
   <ele>1346.00</ele>
   <time>2014-03-31T16:08:39Z</time>
  </trkpt>
  <trkpt lat="33.355566" lon="-3.257441">
   <ele>1347.00</ele>
   <time>2014-03-31T16:08:44Z</time>
  </trkpt>
  <trkpt lat="33.355618" lon="-3.257175">
   <ele>1348.00</ele>
   <time>2014-03-31T16:08:49Z</time>
  </trkpt>
  <trkpt lat="33.355661" lon="-3.256915">
   <ele>1349.00</ele>
   <time>2014-03-31T16:08:53Z</time>
  </trkpt>
  <trkpt lat="33.355735" lon="-3.256660">
   <ele>1350.00</ele>
   <time>2014-03-31T16:08:57Z</time>
  </trkpt>
  <trkpt lat="33.355798" lon="-3.256457">
   <ele>1351.00</ele>
   <time>2014-03-31T16:09:00Z</time>
  </trkpt>
  <trkpt lat="33.355896" lon="-3.256263">
   <ele>1352.00</ele>
   <time>2014-03-31T16:09:03Z</time>
  </trkpt>
  <trkpt lat="33.355963" lon="-3.256049">
   <ele>1352.00</ele>
   <time>2014-03-31T16:09:06Z</time>
  </trkpt>
  <trkpt lat="33.356036" lon="-3.255836">
   <ele>1353.00</ele>
   <time>2014-03-31T16:09:09Z</time>
  </trkpt>
  <trkpt lat="33.356121" lon="-3.255642">
   <ele>1355.00</ele>
   <time>2014-03-31T16:09:12Z</time>
  </trkpt>
  <trkpt lat="33.356272" lon="-3.255448">
   <ele>1357.00</ele>
   <time>2014-03-31T16:09:16Z</time>
  </trkpt>
  <trkpt lat="33.356379" lon="-3.255240">
   <ele>1359.00</ele>
   <time>2014-03-31T16:09:20Z</time>
  </trkpt>
  <trkpt lat="33.356504" lon="-3.254966">
   <ele>1360.00</ele>
   <time>2014-03-31T16:09:25Z</time>
  </trkpt>
  <trkpt lat="33.356467" lon="-3.254696">
   <ele>1361.00</ele>
   <time>2014-03-31T16:09:29Z</time>
  </trkpt>
  <trkpt lat="33.356356" lon="-3.254407">
   <ele>1361.00</ele>
   <time>2014-03-31T16:09:33Z</time>
  </trkpt>
  <trkpt lat="33.356339" lon="-3.254151">
   <ele>1361.00</ele>
   <time>2014-03-31T16:09:36Z</time>
  </trkpt>
  <trkpt lat="33.356394" lon="-3.253548">
   <ele>1361.00</ele>
   <time>2014-03-31T16:09:42Z</time>
  </trkpt>
  <trkpt lat="33.356428" lon="-3.253329">
   <ele>1361.00</ele>
   <time>2014-03-31T16:09:44Z</time>
  </trkpt>
  <trkpt lat="33.356498" lon="-3.252885">
   <ele>1361.00</ele>
   <time>2014-03-31T16:09:48Z</time>
  </trkpt>
  <trkpt lat="33.356514" lon="-3.252657">
   <ele>1361.00</ele>
   <time>2014-03-31T16:09:50Z</time>
  </trkpt>
  <trkpt lat="33.356509" lon="-3.252423">
   <ele>1361.00</ele>
   <time>2014-03-31T16:09:52Z</time>
  </trkpt>
  <trkpt lat="33.356480" lon="-3.252191">
   <ele>1361.00</ele>
   <time>2014-03-31T16:09:54Z</time>
  </trkpt>
  <trkpt lat="33.356436" lon="-3.251972">
   <ele>1361.00</ele>
   <time>2014-03-31T16:09:56Z</time>
  </trkpt>
  <trkpt lat="33.356371" lon="-3.251769">
   <ele>1361.00</ele>
   <time>2014-03-31T16:09:58Z</time>
  </trkpt>
  <trkpt lat="33.356214" lon="-3.251512">
   <ele>1360.00</ele>
   <time>2014-03-31T16:10:01Z</time>
  </trkpt>
  <trkpt lat="33.356015" lon="-3.251323">
   <ele>1360.00</ele>
   <time>2014-03-31T16:10:04Z</time>
  </trkpt>
  <trkpt lat="33.355803" lon="-3.251177">
   <ele>1360.00</ele>
   <time>2014-03-31T16:10:07Z</time>
  </trkpt>
  <trkpt lat="33.355553" lon="-3.251091">
   <ele>1360.00</ele>
   <time>2014-03-31T16:10:10Z</time>
  </trkpt>
  <trkpt lat="33.354969" lon="-3.250908">
   <ele>1359.00</ele>
   <time>2014-03-31T16:10:17Z</time>
  </trkpt>
  <trkpt lat="33.354794" lon="-3.250832">
   <ele>1358.00</ele>
   <time>2014-03-31T16:10:19Z</time>
  </trkpt>
  <trkpt lat="33.354612" lon="-3.250745">
   <ele>1358.00</ele>
   <time>2014-03-31T16:10:21Z</time>
  </trkpt>
  <trkpt lat="33.354434" lon="-3.250648">
   <ele>1358.00</ele>
   <time>2014-03-31T16:10:23Z</time>
  </trkpt>
  <trkpt lat="33.353765" lon="-3.250238">
   <ele>1357.00</ele>
   <time>2014-03-31T16:10:31Z</time>
  </trkpt>
  <trkpt lat="33.353544" lon="-3.250083">
   <ele>1357.00</ele>
   <time>2014-03-31T16:10:34Z</time>
  </trkpt>
  <trkpt lat="33.353377" lon="-3.249879">
   <ele>1357.00</ele>
   <time>2014-03-31T16:10:37Z</time>
  </trkpt>
  <trkpt lat="33.353295" lon="-3.249649">
   <ele>1358.00</ele>
   <time>2014-03-31T16:10:40Z</time>
  </trkpt>
  <trkpt lat="33.353185" lon="-3.249470">
   <ele>1358.00</ele>
   <time>2014-03-31T16:10:43Z</time>
  </trkpt>
  <trkpt lat="33.353013" lon="-3.249465">
   <ele>1357.00</ele>
   <time>2014-03-31T16:10:46Z</time>
  </trkpt>
  <trkpt lat="33.352818" lon="-3.249591">
   <ele>1356.00</ele>
   <time>2014-03-31T16:10:49Z</time>
  </trkpt>
  <trkpt lat="33.352650" lon="-3.249750">
   <ele>1355.00</ele>
   <time>2014-03-31T16:10:52Z</time>
  </trkpt>
  <trkpt lat="33.352498" lon="-3.249977">
   <ele>1353.00</ele>
   <time>2014-03-31T16:10:55Z</time>
  </trkpt>
  <trkpt lat="33.352302" lon="-3.250156">
   <ele>1352.00</ele>
   <time>2014-03-31T16:10:58Z</time>
  </trkpt>
  <trkpt lat="33.352087" lon="-3.250203">
   <ele>1352.00</ele>
   <time>2014-03-31T16:11:01Z</time>
  </trkpt>
  <trkpt lat="33.351892" lon="-3.250117">
   <ele>1353.00</ele>
   <time>2014-03-31T16:11:04Z</time>
  </trkpt>
  <trkpt lat="33.351686" lon="-3.249990">
   <ele>1354.00</ele>
   <time>2014-03-31T16:11:08Z</time>
  </trkpt>
  <trkpt lat="33.351513" lon="-3.250024">
   <ele>1354.00</ele>
   <time>2014-03-31T16:11:13Z</time>
  </trkpt>
  <trkpt lat="33.351382" lon="-3.250183">
   <ele>1353.00</ele>
   <time>2014-03-31T16:11:16Z</time>
  </trkpt>
  <trkpt lat="33.351237" lon="-3.250388">
   <ele>1353.00</ele>
   <time>2014-03-31T16:11:19Z</time>
  </trkpt>
  <trkpt lat="33.350898" lon="-3.250791">
   <ele>1352.00</ele>
   <time>2014-03-31T16:11:25Z</time>
  </trkpt>
  <trkpt lat="33.350608" lon="-3.251112">
   <ele>1351.00</ele>
   <time>2014-03-31T16:11:30Z</time>
  </trkpt>
  <trkpt lat="33.350421" lon="-3.251223">
   <ele>1351.00</ele>
   <time>2014-03-31T16:11:34Z</time>
  </trkpt>
  <trkpt lat="33.350214" lon="-3.251170">
   <ele>1352.00</ele>
   <time>2014-03-31T16:11:39Z</time>
  </trkpt>
  <trkpt lat="33.350035" lon="-3.251019">
   <ele>1352.00</ele>
   <time>2014-03-31T16:11:43Z</time>
  </trkpt>
  <trkpt lat="33.349881" lon="-3.250894">
   <ele>1353.00</ele>
   <time>2014-03-31T16:11:46Z</time>
  </trkpt>
  <trkpt lat="33.349769" lon="-3.250671">
   <ele>1354.00</ele>
   <time>2014-03-31T16:11:51Z</time>
  </trkpt>
  <trkpt lat="33.349683" lon="-3.250339">
   <ele>1355.00</ele>
   <time>2014-03-31T16:11:55Z</time>
  </trkpt>
  <trkpt lat="33.349635" lon="-3.250111">
   <ele>1355.00</ele>
   <time>2014-03-31T16:11:58Z</time>
  </trkpt>
  <trkpt lat="33.349584" lon="-3.249900">
   <ele>1356.00</ele>
   <time>2014-03-31T16:12:01Z</time>
  </trkpt>
  <trkpt lat="33.349533" lon="-3.249681">
   <ele>1356.00</ele>
   <time>2014-03-31T16:12:04Z</time>
  </trkpt>
  <trkpt lat="33.349535" lon="-3.249434">
   <ele>1357.00</ele>
   <time>2014-03-31T16:12:07Z</time>
  </trkpt>
  <trkpt lat="33.349500" lon="-3.249168">
   <ele>1357.00</ele>
   <time>2014-03-31T16:12:10Z</time>
  </trkpt>
  <trkpt lat="33.349465" lon="-3.248904">
   <ele>1358.00</ele>
   <time>2014-03-31T16:12:13Z</time>
  </trkpt>
  <trkpt lat="33.349426" lon="-3.248653">
   <ele>1358.00</ele>
   <time>2014-03-31T16:12:16Z</time>
  </trkpt>
  <trkpt lat="33.349349" lon="-3.248391">
   <ele>1359.00</ele>
   <time>2014-03-31T16:12:19Z</time>
  </trkpt>
  <trkpt lat="33.349231" lon="-3.247892">
   <ele>1360.00</ele>
   <time>2014-03-31T16:12:24Z</time>
  </trkpt>
  <trkpt lat="33.349113" lon="-3.247473">
   <ele>1361.00</ele>
   <time>2014-03-31T16:12:28Z</time>
  </trkpt>
  <trkpt lat="33.349032" lon="-3.247266">
   <ele>1361.00</ele>
   <time>2014-03-31T16:12:30Z</time>
  </trkpt>
  <trkpt lat="33.348934" lon="-3.247072">
   <ele>1362.00</ele>
   <time>2014-03-31T16:12:32Z</time>
  </trkpt>
  <trkpt lat="33.348821" lon="-3.246897">
   <ele>1362.00</ele>
   <time>2014-03-31T16:12:34Z</time>
  </trkpt>
  <trkpt lat="33.348642" lon="-3.246677">
   <ele>1362.00</ele>
   <time>2014-03-31T16:12:37Z</time>
  </trkpt>
  <trkpt lat="33.348419" lon="-3.246533">
   <ele>1362.00</ele>
   <time>2014-03-31T16:12:40Z</time>
  </trkpt>
  <trkpt lat="33.348176" lon="-3.246446">
   <ele>1362.00</ele>
   <time>2014-03-31T16:12:43Z</time>
  </trkpt>
  <trkpt lat="33.347935" lon="-3.246391">
   <ele>1362.00</ele>
   <time>2014-03-31T16:12:46Z</time>
  </trkpt>
  <trkpt lat="33.347698" lon="-3.246355">
   <ele>1361.00</ele>
   <time>2014-03-31T16:12:49Z</time>
  </trkpt>
  <trkpt lat="33.347478" lon="-3.246229">
   <ele>1361.00</ele>
   <time>2014-03-31T16:12:52Z</time>
  </trkpt>
  <trkpt lat="33.347286" lon="-3.246050">
   <ele>1362.00</ele>
   <time>2014-03-31T16:12:55Z</time>
  </trkpt>
  <trkpt lat="33.347122" lon="-3.245842">
   <ele>1362.00</ele>
   <time>2014-03-31T16:12:58Z</time>
  </trkpt>
  <trkpt lat="33.346917" lon="-3.245590">
   <ele>1363.00</ele>
   <time>2014-03-31T16:13:02Z</time>
  </trkpt>
  <trkpt lat="33.346765" lon="-3.245461">
   <ele>1363.00</ele>
   <time>2014-03-31T16:13:05Z</time>
  </trkpt>
  <trkpt lat="33.346542" lon="-3.245352">
   <ele>1363.00</ele>
   <time>2014-03-31T16:13:09Z</time>
  </trkpt>
  <trkpt lat="33.346375" lon="-3.245186">
   <ele>1363.00</ele>
   <time>2014-03-31T16:13:13Z</time>
  </trkpt>
  <trkpt lat="33.346189" lon="-3.245127">
   <ele>1362.00</ele>
   <time>2014-03-31T16:13:16Z</time>
  </trkpt>
  <trkpt lat="33.345981" lon="-3.245070">
   <ele>1362.00</ele>
   <time>2014-03-31T16:13:19Z</time>
  </trkpt>
  <trkpt lat="33.344669" lon="-3.244634">
   <ele>1361.00</ele>
   <time>2014-03-31T16:13:35Z</time>
  </trkpt>
  <trkpt lat="33.344230" lon="-3.244484">
   <ele>1361.00</ele>
   <time>2014-03-31T16:13:40Z</time>
  </trkpt>
  <trkpt lat="33.343989" lon="-3.244399">
   <ele>1361.00</ele>
   <time>2014-03-31T16:13:43Z</time>
  </trkpt>
  <trkpt lat="33.343235" lon="-3.244139">
   <ele>1362.00</ele>
   <time>2014-03-31T16:13:52Z</time>
  </trkpt>
  <trkpt lat="33.343054" lon="-3.244075">
   <ele>1362.00</ele>
   <time>2014-03-31T16:13:54Z</time>
  </trkpt>
  <trkpt lat="33.342615" lon="-3.243908">
   <ele>1363.00</ele>
   <time>2014-03-31T16:13:59Z</time>
  </trkpt>
  <trkpt lat="33.342248" lon="-3.243754">
   <ele>1363.00</ele>
   <time>2014-03-31T16:14:04Z</time>
  </trkpt>
  <trkpt lat="33.342071" lon="-3.243645">
   <ele>1362.00</ele>
   <time>2014-03-31T16:14:07Z</time>
  </trkpt>
  <trkpt lat="33.341927" lon="-3.243476">
   <ele>1362.00</ele>
   <time>2014-03-31T16:14:10Z</time>
  </trkpt>
  <trkpt lat="33.341798" lon="-3.243271">
   <ele>1361.00</ele>
   <time>2014-03-31T16:14:13Z</time>
  </trkpt>
  <trkpt lat="33.341683" lon="-3.243059">
   <ele>1361.00</ele>
   <time>2014-03-31T16:14:16Z</time>
  </trkpt>
  <trkpt lat="33.341570" lon="-3.242867">
   <ele>1360.00</ele>
   <time>2014-03-31T16:14:19Z</time>
  </trkpt>
  <trkpt lat="33.341484" lon="-3.242666">
   <ele>1360.00</ele>
   <time>2014-03-31T16:14:22Z</time>
  </trkpt>
  <trkpt lat="33.341334" lon="-3.242269">
   <ele>1359.00</ele>
   <time>2014-03-31T16:14:28Z</time>
  </trkpt>
  <trkpt lat="33.341240" lon="-3.242056">
   <ele>1358.00</ele>
   <time>2014-03-31T16:14:32Z</time>
  </trkpt>
  <trkpt lat="33.341140" lon="-3.241814">
   <ele>1357.00</ele>
   <time>2014-03-31T16:14:36Z</time>
  </trkpt>
  <trkpt lat="33.341060" lon="-3.241600">
   <ele>1356.00</ele>
   <time>2014-03-31T16:14:39Z</time>
  </trkpt>
  <trkpt lat="33.340976" lon="-3.241379">
   <ele>1356.00</ele>
   <time>2014-03-31T16:14:42Z</time>
  </trkpt>
  <trkpt lat="33.340784" lon="-3.240858">
   <ele>1355.00</ele>
   <time>2014-03-31T16:14:49Z</time>
  </trkpt>
  <trkpt lat="33.340705" lon="-3.240656">
   <ele>1355.00</ele>
   <time>2014-03-31T16:14:52Z</time>
  </trkpt>
  <trkpt lat="33.340619" lon="-3.240454">
   <ele>1358.00</ele>
   <time>2014-03-31T16:15:01Z</time>
  </trkpt>
  <trkpt lat="33.340419" lon="-3.240363">
   <ele>1357.00</ele>
   <time>2014-03-31T16:15:07Z</time>
  </trkpt>
  <trkpt lat="33.340290" lon="-3.240151">
   <ele>1357.00</ele>
   <time>2014-03-31T16:15:11Z</time>
  </trkpt>
  <trkpt lat="33.340166" lon="-3.239949">
   <ele>1356.00</ele>
   <time>2014-03-31T16:15:15Z</time>
  </trkpt>
  <trkpt lat="33.339984" lon="-3.239970">
   <ele>1355.00</ele>
   <time>2014-03-31T16:15:20Z</time>
  </trkpt>
  <trkpt lat="33.339887" lon="-3.240163">
   <ele>1353.00</ele>
   <time>2014-03-31T16:15:24Z</time>
  </trkpt>
  <trkpt lat="33.339796" lon="-3.240358">
   <ele>1352.00</ele>
   <time>2014-03-31T16:15:28Z</time>
  </trkpt>
  <trkpt lat="33.339629" lon="-3.240478">
   <ele>1352.00</ele>
   <time>2014-03-31T16:15:33Z</time>
  </trkpt>
  <trkpt lat="33.339622" lon="-3.240300">
   <ele>1353.00</ele>
   <time>2014-03-31T16:15:39Z</time>
  </trkpt>
  <trkpt lat="33.339720" lon="-3.240085">
   <ele>1356.00</ele>
   <time>2014-03-31T16:15:43Z</time>
  </trkpt>
  <trkpt lat="33.339835" lon="-3.239913">
   <ele>1356.00</ele>
   <time>2014-03-31T16:15:46Z</time>
  </trkpt>
  <trkpt lat="33.339946" lon="-3.239728">
   <ele>1356.00</ele>
   <time>2014-03-31T16:15:49Z</time>
  </trkpt>
  <trkpt lat="33.340080" lon="-3.239394">
   <ele>1357.00</ele>
   <time>2014-03-31T16:15:54Z</time>
  </trkpt>
  <trkpt lat="33.340123" lon="-3.239159">
   <ele>1358.00</ele>
   <time>2014-03-31T16:15:58Z</time>
  </trkpt>
  <trkpt lat="33.340018" lon="-3.238933">
   <ele>1359.00</ele>
   <time>2014-03-31T16:16:03Z</time>
  </trkpt>
  <trkpt lat="33.339884" lon="-3.238687">
   <ele>1359.00</ele>
   <time>2014-03-31T16:16:07Z</time>
  </trkpt>
  <trkpt lat="33.339423" lon="-3.237628">
   <ele>1358.00</ele>
   <time>2014-03-31T16:16:21Z</time>
  </trkpt>
  <trkpt lat="33.339199" lon="-3.237079">
   <ele>1356.00</ele>
   <time>2014-03-31T16:16:29Z</time>
  </trkpt>
  <trkpt lat="33.339017" lon="-3.236657">
   <ele>1356.00</ele>
   <time>2014-03-31T16:16:38Z</time>
  </trkpt>
  <trkpt lat="33.338939" lon="-3.236429">
   <ele>1356.00</ele>
   <time>2014-03-31T16:16:43Z</time>
  </trkpt>
  <trkpt lat="33.338855" lon="-3.236226">
   <ele>1356.00</ele>
   <time>2014-03-31T16:16:47Z</time>
  </trkpt>
  <trkpt lat="33.338758" lon="-3.235987">
   <ele>1355.00</ele>
   <time>2014-03-31T16:16:51Z</time>
  </trkpt>
  <trkpt lat="33.338491" lon="-3.235344">
   <ele>1354.00</ele>
   <time>2014-03-31T16:17:01Z</time>
  </trkpt>
  <trkpt lat="33.338390" lon="-3.235077">
   <ele>1354.00</ele>
   <time>2014-03-31T16:17:05Z</time>
  </trkpt>
  <trkpt lat="33.338037" lon="-3.234205">
   <ele>1354.00</ele>
   <time>2014-03-31T16:17:16Z</time>
  </trkpt>
  <trkpt lat="33.337937" lon="-3.233965">
   <ele>1354.00</ele>
   <time>2014-03-31T16:17:19Z</time>
  </trkpt>
  <trkpt lat="33.337812" lon="-3.233637">
   <ele>1355.00</ele>
   <time>2014-03-31T16:17:23Z</time>
  </trkpt>
  <trkpt lat="33.337681" lon="-3.233300">
   <ele>1355.00</ele>
   <time>2014-03-31T16:17:27Z</time>
  </trkpt>
  <trkpt lat="33.337578" lon="-3.233045">
   <ele>1354.00</ele>
   <time>2014-03-31T16:17:30Z</time>
  </trkpt>
  <trkpt lat="33.337482" lon="-3.232844">
   <ele>1353.00</ele>
   <time>2014-03-31T16:17:33Z</time>
  </trkpt>
  <trkpt lat="33.337391" lon="-3.232632">
   <ele>1353.00</ele>
   <time>2014-03-31T16:17:37Z</time>
  </trkpt>
  <trkpt lat="33.337294" lon="-3.232347">
   <ele>1355.00</ele>
   <time>2014-03-31T16:17:41Z</time>
  </trkpt>
  <trkpt lat="33.337141" lon="-3.231969">
   <ele>1357.00</ele>
   <time>2014-03-31T16:17:46Z</time>
  </trkpt>
  <trkpt lat="33.337066" lon="-3.231744">
   <ele>1359.00</ele>
   <time>2014-03-31T16:17:49Z</time>
  </trkpt>
  <trkpt lat="33.336975" lon="-3.231505">
   <ele>1359.00</ele>
   <time>2014-03-31T16:17:52Z</time>
  </trkpt>
  <trkpt lat="33.336861" lon="-3.231257">
   <ele>1359.00</ele>
   <time>2014-03-31T16:17:55Z</time>
  </trkpt>
  <trkpt lat="33.336775" lon="-3.231009">
   <ele>1360.00</ele>
   <time>2014-03-31T16:17:58Z</time>
  </trkpt>
  <trkpt lat="33.336684" lon="-3.230711">
   <ele>1361.00</ele>
   <time>2014-03-31T16:18:02Z</time>
  </trkpt>
  <trkpt lat="33.336579" lon="-3.230522">
   <ele>1361.00</ele>
   <time>2014-03-31T16:18:05Z</time>
  </trkpt>
  <trkpt lat="33.336428" lon="-3.230161">
   <ele>1359.00</ele>
   <time>2014-03-31T16:18:10Z</time>
  </trkpt>
  <trkpt lat="33.336365" lon="-3.229954">
   <ele>1360.00</ele>
   <time>2014-03-31T16:18:13Z</time>
  </trkpt>
  <trkpt lat="33.336281" lon="-3.229761">
   <ele>1360.00</ele>
   <time>2014-03-31T16:18:16Z</time>
  </trkpt>
  <trkpt lat="33.336163" lon="-3.229498">
   <ele>1359.00</ele>
   <time>2014-03-31T16:18:20Z</time>
  </trkpt>
  <trkpt lat="33.336134" lon="-3.229286">
   <ele>1359.00</ele>
   <time>2014-03-31T16:18:23Z</time>
  </trkpt>
  <trkpt lat="33.336217" lon="-3.229071">
   <ele>1359.00</ele>
   <time>2014-03-31T16:18:26Z</time>
  </trkpt>
  <trkpt lat="33.336341" lon="-3.228885">
   <ele>1358.00</ele>
   <time>2014-03-31T16:18:29Z</time>
  </trkpt>
  <trkpt lat="33.336376" lon="-3.228676">
   <ele>1358.00</ele>
   <time>2014-03-31T16:18:32Z</time>
  </trkpt>
  <trkpt lat="33.336329" lon="-3.228454">
   <ele>1359.00</ele>
   <time>2014-03-31T16:18:35Z</time>
  </trkpt>
  <trkpt lat="33.336217" lon="-3.228265">
   <ele>1359.00</ele>
   <time>2014-03-31T16:18:38Z</time>
  </trkpt>
  <trkpt lat="33.336072" lon="-3.228136">
   <ele>1358.00</ele>
   <time>2014-03-31T16:18:41Z</time>
  </trkpt>
  <trkpt lat="33.335890" lon="-3.227974">
   <ele>1359.00</ele>
   <time>2014-03-31T16:18:45Z</time>
  </trkpt>
  <trkpt lat="33.335740" lon="-3.227846">
   <ele>1359.00</ele>
   <time>2014-03-31T16:18:48Z</time>
  </trkpt>
  <trkpt lat="33.335598" lon="-3.227684">
   <ele>1359.00</ele>
   <time>2014-03-31T16:18:51Z</time>
  </trkpt>
  <trkpt lat="33.335474" lon="-3.227477">
   <ele>1359.00</ele>
   <time>2014-03-31T16:18:54Z</time>
  </trkpt>
  <trkpt lat="33.335350" lon="-3.227228">
   <ele>1359.00</ele>
   <time>2014-03-31T16:18:57Z</time>
  </trkpt>
  <trkpt lat="33.334974" lon="-3.226429">
   <ele>1358.00</ele>
   <time>2014-03-31T16:19:06Z</time>
  </trkpt>
  <trkpt lat="33.334856" lon="-3.226154">
   <ele>1359.00</ele>
   <time>2014-03-31T16:19:09Z</time>
  </trkpt>
  <trkpt lat="33.334721" lon="-3.225876">
   <ele>1358.00</ele>
   <time>2014-03-31T16:19:12Z</time>
  </trkpt>
  <trkpt lat="33.334378" lon="-3.225199">
   <ele>1358.00</ele>
   <time>2014-03-31T16:19:19Z</time>
  </trkpt>
  <trkpt lat="33.334237" lon="-3.224897">
   <ele>1357.00</ele>
   <time>2014-03-31T16:19:22Z</time>
  </trkpt>
  <trkpt lat="33.334040" lon="-3.224473">
   <ele>1357.00</ele>
   <time>2014-03-31T16:19:26Z</time>
  </trkpt>
  <trkpt lat="33.333908" lon="-3.224139">
   <ele>1356.00</ele>
   <time>2014-03-31T16:19:29Z</time>
  </trkpt>
  <trkpt lat="33.333827" lon="-3.223907">
   <ele>1356.00</ele>
   <time>2014-03-31T16:19:31Z</time>
  </trkpt>
  <trkpt lat="33.333767" lon="-3.223662">
   <ele>1355.00</ele>
   <time>2014-03-31T16:19:33Z</time>
  </trkpt>
  <trkpt lat="33.333694" lon="-3.223274">
   <ele>1356.00</ele>
   <time>2014-03-31T16:19:36Z</time>
  </trkpt>
  <trkpt lat="33.333629" lon="-3.223019">
   <ele>1357.00</ele>
   <time>2014-03-31T16:19:38Z</time>
  </trkpt>
  <trkpt lat="33.333556" lon="-3.222784">
   <ele>1357.00</ele>
   <time>2014-03-31T16:19:40Z</time>
  </trkpt>
  <trkpt lat="33.333473" lon="-3.222571">
   <ele>1357.00</ele>
   <time>2014-03-31T16:19:42Z</time>
  </trkpt>
  <trkpt lat="33.333347" lon="-3.222266">
   <ele>1358.00</ele>
   <time>2014-03-31T16:19:45Z</time>
  </trkpt>
  <trkpt lat="33.332899" lon="-3.221008">
   <ele>1359.00</ele>
   <time>2014-03-31T16:19:56Z</time>
  </trkpt>
  <trkpt lat="33.332531" lon="-3.219850">
   <ele>1359.00</ele>
   <time>2014-03-31T16:20:05Z</time>
  </trkpt>
  <trkpt lat="33.332470" lon="-3.219595">
   <ele>1360.00</ele>
   <time>2014-03-31T16:20:07Z</time>
  </trkpt>
  <trkpt lat="33.332427" lon="-3.219334">
   <ele>1360.00</ele>
   <time>2014-03-31T16:20:09Z</time>
  </trkpt>
  <trkpt lat="33.332411" lon="-3.219073">
   <ele>1361.00</ele>
   <time>2014-03-31T16:20:11Z</time>
  </trkpt>
  <trkpt lat="33.332414" lon="-3.218807">
   <ele>1362.00</ele>
   <time>2014-03-31T16:20:13Z</time>
  </trkpt>
  <trkpt lat="33.332430" lon="-3.218530">
   <ele>1363.00</ele>
   <time>2014-03-31T16:20:15Z</time>
  </trkpt>
  <trkpt lat="33.332475" lon="-3.217946">
   <ele>1365.00</ele>
   <time>2014-03-31T16:20:19Z</time>
  </trkpt>
  <trkpt lat="33.332532" lon="-3.217352">
   <ele>1366.00</ele>
   <time>2014-03-31T16:20:23Z</time>
  </trkpt>
  <trkpt lat="33.332576" lon="-3.216270">
   <ele>1368.00</ele>
   <time>2014-03-31T16:20:30Z</time>
  </trkpt>
  <trkpt lat="33.332576" lon="-3.215969">
   <ele>1369.00</ele>
   <time>2014-03-31T16:20:32Z</time>
  </trkpt>
  <trkpt lat="33.332569" lon="-3.215556">
   <ele>1369.00</ele>
   <time>2014-03-31T16:20:35Z</time>
  </trkpt>
  <trkpt lat="33.332591" lon="-3.215296">
   <ele>1369.00</ele>
   <time>2014-03-31T16:20:37Z</time>
  </trkpt>
  <trkpt lat="33.332637" lon="-3.215037">
   <ele>1369.00</ele>
   <time>2014-03-31T16:20:39Z</time>
  </trkpt>
  <trkpt lat="33.332728" lon="-3.214494">
   <ele>1369.00</ele>
   <time>2014-03-31T16:20:43Z</time>
  </trkpt>
  <trkpt lat="33.332850" lon="-3.213590">
   <ele>1370.00</ele>
   <time>2014-03-31T16:20:50Z</time>
  </trkpt>
  <trkpt lat="33.332891" lon="-3.213302">
   <ele>1370.00</ele>
   <time>2014-03-31T16:20:53Z</time>
  </trkpt>
  <trkpt lat="33.332870" lon="-3.213048">
   <ele>1369.00</ele>
   <time>2014-03-31T16:20:56Z</time>
  </trkpt>
  <trkpt lat="33.332828" lon="-3.212794">
   <ele>1368.00</ele>
   <time>2014-03-31T16:20:59Z</time>
  </trkpt>
  <trkpt lat="33.332508" lon="-3.210995">
   <ele>1373.00</ele>
   <time>2014-03-31T16:21:15Z</time>
  </trkpt>
  <trkpt lat="33.332470" lon="-3.210745">
   <ele>1373.00</ele>
   <time>2014-03-31T16:21:17Z</time>
  </trkpt>
  <trkpt lat="33.332430" lon="-3.210366">
   <ele>1374.00</ele>
   <time>2014-03-31T16:21:20Z</time>
  </trkpt>
  <trkpt lat="33.332414" lon="-3.210114">
   <ele>1373.00</ele>
   <time>2014-03-31T16:21:22Z</time>
  </trkpt>
  <trkpt lat="33.332419" lon="-3.209877">
   <ele>1373.00</ele>
   <time>2014-03-31T16:21:24Z</time>
  </trkpt>
  <trkpt lat="33.332441" lon="-3.209654">
   <ele>1374.00</ele>
   <time>2014-03-31T16:21:26Z</time>
  </trkpt>
  <trkpt lat="33.332475" lon="-3.209441">
   <ele>1374.00</ele>
   <time>2014-03-31T16:21:28Z</time>
  </trkpt>
  <trkpt lat="33.332540" lon="-3.209148">
   <ele>1375.00</ele>
   <time>2014-03-31T16:21:31Z</time>
  </trkpt>
  <trkpt lat="33.332590" lon="-3.208886">
   <ele>1375.00</ele>
   <time>2014-03-31T16:21:34Z</time>
  </trkpt>
  <trkpt lat="33.332623" lon="-3.208628">
   <ele>1376.00</ele>
   <time>2014-03-31T16:21:37Z</time>
  </trkpt>
  <trkpt lat="33.332690" lon="-3.208378">
   <ele>1376.00</ele>
   <time>2014-03-31T16:21:40Z</time>
  </trkpt>
  <trkpt lat="33.332778" lon="-3.208138">
   <ele>1376.00</ele>
   <time>2014-03-31T16:21:43Z</time>
  </trkpt>
  <trkpt lat="33.332880" lon="-3.207920">
   <ele>1376.00</ele>
   <time>2014-03-31T16:21:46Z</time>
  </trkpt>
  <trkpt lat="33.332994" lon="-3.207738">
   <ele>1376.00</ele>
   <time>2014-03-31T16:21:49Z</time>
  </trkpt>
  <trkpt lat="33.333040" lon="-3.207512">
   <ele>1376.00</ele>
   <time>2014-03-31T16:21:53Z</time>
  </trkpt>
  <trkpt lat="33.333138" lon="-3.207317">
   <ele>1376.00</ele>
   <time>2014-03-31T16:21:57Z</time>
  </trkpt>
  <trkpt lat="33.333220" lon="-3.207074">
   <ele>1376.00</ele>
   <time>2014-03-31T16:22:02Z</time>
  </trkpt>
  <trkpt lat="33.333301" lon="-3.206859">
   <ele>1375.00</ele>
   <time>2014-03-31T16:22:06Z</time>
  </trkpt>
  <trkpt lat="33.333419" lon="-3.206626">
   <ele>1376.00</ele>
   <time>2014-03-31T16:22:10Z</time>
  </trkpt>
  <trkpt lat="33.333557" lon="-3.206377">
   <ele>1375.00</ele>
   <time>2014-03-31T16:22:14Z</time>
  </trkpt>
  <trkpt lat="33.333738" lon="-3.206033">
   <ele>1375.00</ele>
   <time>2014-03-31T16:22:19Z</time>
  </trkpt>
  <trkpt lat="33.333858" lon="-3.205820">
   <ele>1375.00</ele>
   <time>2014-03-31T16:22:22Z</time>
  </trkpt>
  <trkpt lat="33.333926" lon="-3.205558">
   <ele>1376.00</ele>
   <time>2014-03-31T16:22:25Z</time>
  </trkpt>
  <trkpt lat="33.333926" lon="-3.205259">
   <ele>1378.00</ele>
   <time>2014-03-31T16:22:28Z</time>
  </trkpt>
  <trkpt lat="33.333896" lon="-3.204954">
   <ele>1379.00</ele>
   <time>2014-03-31T16:22:31Z</time>
  </trkpt>
  <trkpt lat="33.333846" lon="-3.204645">
   <ele>1380.00</ele>
   <time>2014-03-31T16:22:34Z</time>
  </trkpt>
  <trkpt lat="33.333769" lon="-3.204348">
   <ele>1380.00</ele>
   <time>2014-03-31T16:22:37Z</time>
  </trkpt>
  <trkpt lat="33.333661" lon="-3.204067">
   <ele>1381.00</ele>
   <time>2014-03-31T16:22:40Z</time>
  </trkpt>
  <trkpt lat="33.333601" lon="-3.203784">
   <ele>1382.00</ele>
   <time>2014-03-31T16:22:43Z</time>
  </trkpt>
  <trkpt lat="33.333571" lon="-3.203122">
   <ele>1383.00</ele>
   <time>2014-03-31T16:22:49Z</time>
  </trkpt>
  <trkpt lat="33.333526" lon="-3.202767">
   <ele>1383.00</ele>
   <time>2014-03-31T16:22:52Z</time>
  </trkpt>
  <trkpt lat="33.333482" lon="-3.202528">
   <ele>1383.00</ele>
   <time>2014-03-31T16:22:54Z</time>
  </trkpt>
  <trkpt lat="33.333390" lon="-3.202082">
   <ele>1382.00</ele>
   <time>2014-03-31T16:22:58Z</time>
  </trkpt>
  <trkpt lat="33.333362" lon="-3.201778">
   <ele>1382.00</ele>
   <time>2014-03-31T16:23:01Z</time>
  </trkpt>
  <trkpt lat="33.333343" lon="-3.201496">
   <ele>1382.00</ele>
   <time>2014-03-31T16:23:04Z</time>
  </trkpt>
  <trkpt lat="33.333293" lon="-3.201239">
   <ele>1382.00</ele>
   <time>2014-03-31T16:23:07Z</time>
  </trkpt>
  <trkpt lat="33.333213" lon="-3.201020">
   <ele>1382.00</ele>
   <time>2014-03-31T16:23:10Z</time>
  </trkpt>
  <trkpt lat="33.333085" lon="-3.200813">
   <ele>1381.00</ele>
   <time>2014-03-31T16:23:14Z</time>
  </trkpt>
  <trkpt lat="33.332919" lon="-3.200695">
   <ele>1379.00</ele>
   <time>2014-03-31T16:23:18Z</time>
  </trkpt>
  <trkpt lat="33.332735" lon="-3.200683">
   <ele>1378.00</ele>
   <time>2014-03-31T16:23:22Z</time>
  </trkpt>
  <trkpt lat="33.332548" lon="-3.200692">
   <ele>1378.00</ele>
   <time>2014-03-31T16:23:27Z</time>
  </trkpt>
  <trkpt lat="33.332498" lon="-3.200703">
   <ele>1375.00</ele>
   <time>2014-03-31T16:23:43Z</time>
  </trkpt>
  <trkpt lat="33.332503" lon="-3.200699">
   <ele>1373.00</ele>
   <time>2014-03-31T16:23:58Z</time>
  </trkpt>
  <trkpt lat="33.332506" lon="-3.200696">
   <ele>1372.00</ele>
   <time>2014-03-31T16:24:13Z</time>
  </trkpt>
  <trkpt lat="33.332501" lon="-3.200692">
   <ele>1373.00</ele>
   <time>2014-03-31T16:24:29Z</time>
  </trkpt>
  <trkpt lat="33.332497" lon="-3.200692">
   <ele>1374.00</ele>
   <time>2014-03-31T16:24:44Z</time>
  </trkpt>
  <trkpt lat="33.332495" lon="-3.200692">
   <ele>1375.00</ele>
   <time>2014-03-31T16:24:59Z</time>
  </trkpt>
  <trkpt lat="33.332501" lon="-3.200687">
   <ele>1374.00</ele>
   <time>2014-03-31T16:25:15Z</time>
  </trkpt>
  <trkpt lat="33.332504" lon="-3.200685">
   <ele>1372.00</ele>
   <time>2014-03-31T16:25:30Z</time>
  </trkpt>
  <trkpt lat="33.332503" lon="-3.200683">
   <ele>1372.00</ele>
   <time>2014-03-31T16:25:46Z</time>
  </trkpt>
  <trkpt lat="33.332504" lon="-3.200683">
   <ele>1372.00</ele>
   <time>2014-03-31T16:26:01Z</time>
  </trkpt>
  <trkpt lat="33.332612" lon="-3.200701">
   <ele>1374.00</ele>
   <time>2014-03-31T16:26:16Z</time>
  </trkpt>
  <trkpt lat="33.332766" lon="-3.200628">
   <ele>1374.00</ele>
   <time>2014-03-31T16:26:26Z</time>
  </trkpt>
  <trkpt lat="33.332805" lon="-3.200634">
   <ele>1374.00</ele>
   <time>2014-03-31T16:26:42Z</time>
  </trkpt>
  <trkpt lat="33.332800" lon="-3.200629">
   <ele>1374.00</ele>
   <time>2014-03-31T16:26:57Z</time>
  </trkpt>
  <trkpt lat="33.332800" lon="-3.200628">
   <ele>1374.00</ele>
   <time>2014-03-31T16:27:13Z</time>
  </trkpt>
  <trkpt lat="33.332799" lon="-3.200626">
   <ele>1374.00</ele>
   <time>2014-03-31T16:27:29Z</time>
  </trkpt>
  <trkpt lat="33.332786" lon="-3.200613">
   <ele>1373.00</ele>
   <time>2014-03-31T16:27:45Z</time>
  </trkpt>
  <trkpt lat="33.332782" lon="-3.200607">
   <ele>1372.00</ele>
   <time>2014-03-31T16:28:00Z</time>
  </trkpt>
  <trkpt lat="33.332846" lon="-3.200635">
   <ele>1372.00</ele>
   <time>2014-03-31T16:28:16Z</time>
  </trkpt>
  <trkpt lat="33.333039" lon="-3.200751">
   <ele>1373.00</ele>
   <time>2014-03-31T16:28:26Z</time>
  </trkpt>
  <trkpt lat="33.333208" lon="-3.200920">
   <ele>1373.00</ele>
   <time>2014-03-31T16:28:31Z</time>
  </trkpt>
  <trkpt lat="33.333376" lon="-3.201086">
   <ele>1372.00</ele>
   <time>2014-03-31T16:28:35Z</time>
  </trkpt>
  <trkpt lat="33.333574" lon="-3.201247">
   <ele>1372.00</ele>
   <time>2014-03-31T16:28:39Z</time>
  </trkpt>
  <trkpt lat="33.333841" lon="-3.201455">
   <ele>1373.00</ele>
   <time>2014-03-31T16:28:44Z</time>
  </trkpt>
  <trkpt lat="33.333991" lon="-3.201587">
   <ele>1373.00</ele>
   <time>2014-03-31T16:28:47Z</time>
  </trkpt>
  <trkpt lat="33.334178" lon="-3.201757">
   <ele>1373.00</ele>
   <time>2014-03-31T16:28:51Z</time>
  </trkpt>
  <trkpt lat="33.334249" lon="-3.202001">
   <ele>1373.00</ele>
   <time>2014-03-31T16:28:55Z</time>
  </trkpt>
  <trkpt lat="33.334373" lon="-3.202156">
   <ele>1373.00</ele>
   <time>2014-03-31T16:28:58Z</time>
  </trkpt>
  <trkpt lat="33.334555" lon="-3.202263">
   <ele>1373.00</ele>
   <time>2014-03-31T16:29:01Z</time>
  </trkpt>
  <trkpt lat="33.334749" lon="-3.202328">
   <ele>1374.00</ele>
   <time>2014-03-31T16:29:04Z</time>
  </trkpt>
  <trkpt lat="33.334974" lon="-3.202291">
   <ele>1374.00</ele>
   <time>2014-03-31T16:29:08Z</time>
  </trkpt>
  <trkpt lat="33.335103" lon="-3.202093">
   <ele>1374.00</ele>
   <time>2014-03-31T16:29:12Z</time>
  </trkpt>
  <trkpt lat="33.335167" lon="-3.201826">
   <ele>1374.00</ele>
   <time>2014-03-31T16:29:16Z</time>
  </trkpt>
  <trkpt lat="33.335247" lon="-3.201365">
   <ele>1374.00</ele>
   <time>2014-03-31T16:29:22Z</time>
  </trkpt>
  <trkpt lat="33.335347" lon="-3.200795">
   <ele>1374.00</ele>
   <time>2014-03-31T16:29:29Z</time>
  </trkpt>
  <trkpt lat="33.335453" lon="-3.200309">
   <ele>1374.00</ele>
   <time>2014-03-31T16:29:35Z</time>
  </trkpt>
  <trkpt lat="33.335518" lon="-3.200081">
   <ele>1375.00</ele>
   <time>2014-03-31T16:29:38Z</time>
  </trkpt>
  <trkpt lat="33.335603" lon="-3.199838">
   <ele>1375.00</ele>
   <time>2014-03-31T16:29:41Z</time>
  </trkpt>
  <trkpt lat="33.335716" lon="-3.199587">
   <ele>1375.00</ele>
   <time>2014-03-31T16:29:44Z</time>
  </trkpt>
  <trkpt lat="33.335859" lon="-3.199329">
   <ele>1376.00</ele>
   <time>2014-03-31T16:29:47Z</time>
  </trkpt>
  <trkpt lat="33.336019" lon="-3.199085">
   <ele>1376.00</ele>
   <time>2014-03-31T16:29:50Z</time>
  </trkpt>
  <trkpt lat="33.336229" lon="-3.198788">
   <ele>1376.00</ele>
   <time>2014-03-31T16:29:54Z</time>
  </trkpt>
  <trkpt lat="33.336352" lon="-3.198547">
   <ele>1376.00</ele>
   <time>2014-03-31T16:29:57Z</time>
  </trkpt>
  <trkpt lat="33.336449" lon="-3.198275">
   <ele>1376.00</ele>
   <time>2014-03-31T16:30:00Z</time>
  </trkpt>
  <trkpt lat="33.336618" lon="-3.197717">
   <ele>1376.00</ele>
   <time>2014-03-31T16:30:06Z</time>
  </trkpt>
  <trkpt lat="33.336722" lon="-3.197358">
   <ele>1375.00</ele>
   <time>2014-03-31T16:30:11Z</time>
  </trkpt>
  <trkpt lat="33.336809" lon="-3.197159">
   <ele>1375.00</ele>
   <time>2014-03-31T16:30:16Z</time>
  </trkpt>
  <trkpt lat="33.336982" lon="-3.197051">
   <ele>1375.00</ele>
   <time>2014-03-31T16:30:22Z</time>
  </trkpt>
  <trkpt lat="33.337164" lon="-3.196962">
   <ele>1375.00</ele>
   <time>2014-03-31T16:30:27Z</time>
  </trkpt>
  <trkpt lat="33.337327" lon="-3.196845">
   <ele>1375.00</ele>
   <time>2014-03-31T16:30:32Z</time>
  </trkpt>
  <trkpt lat="33.337377" lon="-3.196613">
   <ele>1376.00</ele>
   <time>2014-03-31T16:30:38Z</time>
  </trkpt>
  <trkpt lat="33.337477" lon="-3.196410">
   <ele>1376.00</ele>
   <time>2014-03-31T16:30:44Z</time>
  </trkpt>
  <trkpt lat="33.337545" lon="-3.196209">
   <ele>1377.00</ele>
   <time>2014-03-31T16:30:49Z</time>
  </trkpt>
  <trkpt lat="33.337619" lon="-3.195888">
   <ele>1378.00</ele>
   <time>2014-03-31T16:30:56Z</time>
  </trkpt>
  <trkpt lat="33.337648" lon="-3.195675">
   <ele>1379.00</ele>
   <time>2014-03-31T16:31:00Z</time>
  </trkpt>
  <trkpt lat="33.337668" lon="-3.195416">
   <ele>1381.00</ele>
   <time>2014-03-31T16:31:05Z</time>
  </trkpt>
  <trkpt lat="33.337697" lon="-3.194704">
   <ele>1384.00</ele>
   <time>2014-03-31T16:31:19Z</time>
  </trkpt>
  <trkpt lat="33.337701" lon="-3.194333">
   <ele>1385.00</ele>
   <time>2014-03-31T16:31:26Z</time>
  </trkpt>
  <trkpt lat="33.337658" lon="-3.194095">
   <ele>1385.00</ele>
   <time>2014-03-31T16:31:31Z</time>
  </trkpt>
  <trkpt lat="33.337531" lon="-3.193942">
   <ele>1385.00</ele>
   <time>2014-03-31T16:31:35Z</time>
  </trkpt>
  <trkpt lat="33.337359" lon="-3.193804">
   <ele>1385.00</ele>
   <time>2014-03-31T16:31:40Z</time>
  </trkpt>
  <trkpt lat="33.337189" lon="-3.193784">
   <ele>1384.00</ele>
   <time>2014-03-31T16:31:52Z</time>
  </trkpt>
  <trkpt lat="33.337010" lon="-3.193849">
   <ele>1386.00</ele>
   <time>2014-03-31T16:32:04Z</time>
  </trkpt>
  <trkpt lat="33.336843" lon="-3.193969">
   <ele>1385.00</ele>
   <time>2014-03-31T16:32:09Z</time>
  </trkpt>
  <trkpt lat="33.336657" lon="-3.194138">
   <ele>1383.00</ele>
   <time>2014-03-31T16:32:13Z</time>
  </trkpt>
  <trkpt lat="33.335984" lon="-3.194774">
   <ele>1378.00</ele>
   <time>2014-03-31T16:32:25Z</time>
  </trkpt>
  <trkpt lat="33.335821" lon="-3.194985">
   <ele>1377.00</ele>
   <time>2014-03-31T16:32:28Z</time>
  </trkpt>
  <trkpt lat="33.335655" lon="-3.195199">
   <ele>1376.00</ele>
   <time>2014-03-31T16:32:31Z</time>
  </trkpt>
  <trkpt lat="33.335462" lon="-3.195363">
   <ele>1376.00</ele>
   <time>2014-03-31T16:32:34Z</time>
  </trkpt>
  <trkpt lat="33.335245" lon="-3.195444">
   <ele>1377.00</ele>
   <time>2014-03-31T16:32:37Z</time>
  </trkpt>
  <trkpt lat="33.335024" lon="-3.195477">
   <ele>1378.00</ele>
   <time>2014-03-31T16:32:40Z</time>
  </trkpt>
  <trkpt lat="33.334828" lon="-3.195514">
   <ele>1379.00</ele>
   <time>2014-03-31T16:32:43Z</time>
  </trkpt>
  <trkpt lat="33.334677" lon="-3.195639">
   <ele>1379.00</ele>
   <time>2014-03-31T16:32:46Z</time>
  </trkpt>
  <trkpt lat="33.334595" lon="-3.195866">
   <ele>1378.00</ele>
   <time>2014-03-31T16:32:49Z</time>
  </trkpt>
  <trkpt lat="33.334518" lon="-3.196116">
   <ele>1377.00</ele>
   <time>2014-03-31T16:32:52Z</time>
  </trkpt>
  <trkpt lat="33.334401" lon="-3.196360">
   <ele>1376.00</ele>
   <time>2014-03-31T16:32:55Z</time>
  </trkpt>
  <trkpt lat="33.334247" lon="-3.196606">
   <ele>1376.00</ele>
   <time>2014-03-31T16:32:58Z</time>
  </trkpt>
  <trkpt lat="33.334076" lon="-3.196851">
   <ele>1375.00</ele>
   <time>2014-03-31T16:33:01Z</time>
  </trkpt>
  <trkpt lat="33.333780" lon="-3.197220">
   <ele>1373.00</ele>
   <time>2014-03-31T16:33:06Z</time>
  </trkpt>
  <trkpt lat="33.333586" lon="-3.197417">
   <ele>1373.00</ele>
   <time>2014-03-31T16:33:09Z</time>
  </trkpt>
  <trkpt lat="33.333385" lon="-3.197574">
   <ele>1373.00</ele>
   <time>2014-03-31T16:33:12Z</time>
  </trkpt>
  <trkpt lat="33.333184" lon="-3.197702">
   <ele>1373.00</ele>
   <time>2014-03-31T16:33:15Z</time>
  </trkpt>
  <trkpt lat="33.332966" lon="-3.197797">
   <ele>1373.00</ele>
   <time>2014-03-31T16:33:18Z</time>
  </trkpt>
  <trkpt lat="33.332740" lon="-3.197844">
   <ele>1373.00</ele>
   <time>2014-03-31T16:33:21Z</time>
  </trkpt>
  <trkpt lat="33.332557" lon="-3.197910">
   <ele>1373.00</ele>
   <time>2014-03-31T16:33:24Z</time>
  </trkpt>
  <trkpt lat="33.332452" lon="-3.198109">
   <ele>1374.00</ele>
   <time>2014-03-31T16:33:28Z</time>
  </trkpt>
  <trkpt lat="33.332438" lon="-3.198339">
   <ele>1374.00</ele>
   <time>2014-03-31T16:33:32Z</time>
  </trkpt>
  <trkpt lat="33.332313" lon="-3.198557">
   <ele>1374.00</ele>
   <time>2014-03-31T16:33:36Z</time>
  </trkpt>
  <trkpt lat="33.332158" lon="-3.198701">
   <ele>1374.00</ele>
   <time>2014-03-31T16:33:39Z</time>
  </trkpt>
  <trkpt lat="33.331974" lon="-3.198837">
   <ele>1374.00</ele>
   <time>2014-03-31T16:33:42Z</time>
  </trkpt>
  <trkpt lat="33.331770" lon="-3.198966">
   <ele>1374.00</ele>
   <time>2014-03-31T16:33:45Z</time>
  </trkpt>
  <trkpt lat="33.331560" lon="-3.199088">
   <ele>1374.00</ele>
   <time>2014-03-31T16:33:48Z</time>
  </trkpt>
  <trkpt lat="33.331339" lon="-3.199197">
   <ele>1373.00</ele>
   <time>2014-03-31T16:33:51Z</time>
  </trkpt>
  <trkpt lat="33.331104" lon="-3.199254">
   <ele>1374.00</ele>
   <time>2014-03-31T16:33:54Z</time>
  </trkpt>
  <trkpt lat="33.330861" lon="-3.199261">
   <ele>1375.00</ele>
   <time>2014-03-31T16:33:57Z</time>
  </trkpt>
  <trkpt lat="33.330602" lon="-3.199236">
   <ele>1376.00</ele>
   <time>2014-03-31T16:34:00Z</time>
  </trkpt>
  <trkpt lat="33.330343" lon="-3.199222">
   <ele>1377.00</ele>
   <time>2014-03-31T16:34:03Z</time>
  </trkpt>
  <trkpt lat="33.330010" lon="-3.199216">
   <ele>1379.00</ele>
   <time>2014-03-31T16:34:07Z</time>
  </trkpt>
  <trkpt lat="33.329760" lon="-3.199285">
   <ele>1380.00</ele>
   <time>2014-03-31T16:34:10Z</time>
  </trkpt>
  <trkpt lat="33.329533" lon="-3.199398">
   <ele>1379.00</ele>
   <time>2014-03-31T16:34:13Z</time>
  </trkpt>
  <trkpt lat="33.329333" lon="-3.199561">
   <ele>1379.00</ele>
   <time>2014-03-31T16:34:16Z</time>
  </trkpt>
  <trkpt lat="33.329172" lon="-3.199766">
   <ele>1378.00</ele>
   <time>2014-03-31T16:34:19Z</time>
  </trkpt>
  <trkpt lat="33.329045" lon="-3.199961">
   <ele>1377.00</ele>
   <time>2014-03-31T16:34:22Z</time>
  </trkpt>
  <trkpt lat="33.328973" lon="-3.200192">
   <ele>1377.00</ele>
   <time>2014-03-31T16:34:25Z</time>
  </trkpt>
  <trkpt lat="33.328987" lon="-3.200445">
   <ele>1376.00</ele>
   <time>2014-03-31T16:34:28Z</time>
  </trkpt>
  <trkpt lat="33.328925" lon="-3.200682">
   <ele>1376.00</ele>
   <time>2014-03-31T16:34:31Z</time>
  </trkpt>
  <trkpt lat="33.328795" lon="-3.200909">
   <ele>1375.00</ele>
   <time>2014-03-31T16:34:34Z</time>
  </trkpt>
  <trkpt lat="33.328659" lon="-3.201133">
   <ele>1374.00</ele>
   <time>2014-03-31T16:34:37Z</time>
  </trkpt>
  <trkpt lat="33.328530" lon="-3.201336">
   <ele>1374.00</ele>
   <time>2014-03-31T16:34:40Z</time>
  </trkpt>
  <trkpt lat="33.328441" lon="-3.201585">
   <ele>1374.00</ele>
   <time>2014-03-31T16:34:43Z</time>
  </trkpt>
  <trkpt lat="33.328354" lon="-3.201855">
   <ele>1372.00</ele>
   <time>2014-03-31T16:34:46Z</time>
  </trkpt>
  <trkpt lat="33.328134" lon="-3.202477">
   <ele>1370.00</ele>
   <time>2014-03-31T16:34:53Z</time>
  </trkpt>
  <trkpt lat="33.328003" lon="-3.202658">
   <ele>1369.00</ele>
   <time>2014-03-31T16:34:56Z</time>
  </trkpt>
  <trkpt lat="33.327841" lon="-3.202781">
   <ele>1369.00</ele>
   <time>2014-03-31T16:34:59Z</time>
  </trkpt>
  <trkpt lat="33.327595" lon="-3.202937">
   <ele>1368.00</ele>
   <time>2014-03-31T16:35:03Z</time>
  </trkpt>
  <trkpt lat="33.327424" lon="-3.203088">
   <ele>1368.00</ele>
   <time>2014-03-31T16:35:06Z</time>
  </trkpt>
  <trkpt lat="33.327166" lon="-3.203325">
   <ele>1368.00</ele>
   <time>2014-03-31T16:35:11Z</time>
  </trkpt>
  <trkpt lat="33.326999" lon="-3.203424">
   <ele>1368.00</ele>
   <time>2014-03-31T16:35:15Z</time>
  </trkpt>
  <trkpt lat="33.326790" lon="-3.203455">
   <ele>1370.00</ele>
   <time>2014-03-31T16:35:21Z</time>
  </trkpt>
  <trkpt lat="33.326584" lon="-3.203378">
   <ele>1371.00</ele>
   <time>2014-03-31T16:35:27Z</time>
  </trkpt>
  <trkpt lat="33.326389" lon="-3.203332">
   <ele>1372.00</ele>
   <time>2014-03-31T16:35:31Z</time>
  </trkpt>
  <trkpt lat="33.326201" lon="-3.203323">
   <ele>1373.00</ele>
   <time>2014-03-31T16:35:34Z</time>
  </trkpt>
  <trkpt lat="33.326006" lon="-3.203310">
   <ele>1373.00</ele>
   <time>2014-03-31T16:35:37Z</time>
  </trkpt>
  <trkpt lat="33.325116" lon="-3.203213">
   <ele>1376.00</ele>
   <time>2014-03-31T16:35:48Z</time>
  </trkpt>
  <trkpt lat="33.324797" lon="-3.203166">
   <ele>1377.00</ele>
   <time>2014-03-31T16:35:52Z</time>
  </trkpt>
  <trkpt lat="33.324561" lon="-3.203188">
   <ele>1378.00</ele>
   <time>2014-03-31T16:35:55Z</time>
  </trkpt>
  <trkpt lat="33.324322" lon="-3.203277">
   <ele>1379.00</ele>
   <time>2014-03-31T16:35:58Z</time>
  </trkpt>
  <trkpt lat="33.323657" lon="-3.203604">
   <ele>1378.00</ele>
   <time>2014-03-31T16:36:06Z</time>
  </trkpt>
  <trkpt lat="33.322640" lon="-3.204172">
   <ele>1378.00</ele>
   <time>2014-03-31T16:36:19Z</time>
  </trkpt>
  <trkpt lat="33.322475" lon="-3.204310">
   <ele>1378.00</ele>
   <time>2014-03-31T16:36:24Z</time>
  </trkpt>
  <trkpt lat="33.322297" lon="-3.204435">
   <ele>1377.00</ele>
   <time>2014-03-31T16:36:34Z</time>
  </trkpt>
  <trkpt lat="33.322067" lon="-3.204463">
   <ele>1379.00</ele>
   <time>2014-03-31T16:36:39Z</time>
  </trkpt>
  <trkpt lat="33.321876" lon="-3.204427">
   <ele>1379.00</ele>
   <time>2014-03-31T16:36:42Z</time>
  </trkpt>
  <trkpt lat="33.321671" lon="-3.204354">
   <ele>1380.00</ele>
   <time>2014-03-31T16:36:45Z</time>
  </trkpt>
  <trkpt lat="33.321455" lon="-3.204296">
   <ele>1381.00</ele>
   <time>2014-03-31T16:36:48Z</time>
  </trkpt>
  <trkpt lat="33.321236" lon="-3.204240">
   <ele>1382.00</ele>
   <time>2014-03-31T16:36:51Z</time>
  </trkpt>
  <trkpt lat="33.321012" lon="-3.204155">
   <ele>1384.00</ele>
   <time>2014-03-31T16:36:54Z</time>
  </trkpt>
  <trkpt lat="33.320629" lon="-3.203981">
   <ele>1386.00</ele>
   <time>2014-03-31T16:36:59Z</time>
  </trkpt>
  <trkpt lat="33.320293" lon="-3.203865">
   <ele>1386.00</ele>
   <time>2014-03-31T16:37:04Z</time>
  </trkpt>
  <trkpt lat="33.320097" lon="-3.203832">
   <ele>1387.00</ele>
   <time>2014-03-31T16:37:08Z</time>
  </trkpt>
  <trkpt lat="33.319897" lon="-3.203799">
   <ele>1387.00</ele>
   <time>2014-03-31T16:37:13Z</time>
  </trkpt>
  <trkpt lat="33.319623" lon="-3.203796">
   <ele>1389.00</ele>
   <time>2014-03-31T16:37:21Z</time>
  </trkpt>
  <trkpt lat="33.319324" lon="-3.203758">
   <ele>1390.00</ele>
   <time>2014-03-31T16:37:29Z</time>
  </trkpt>
  <trkpt lat="33.319072" lon="-3.203716">
   <ele>1391.00</ele>
   <time>2014-03-31T16:37:35Z</time>
  </trkpt>
  <trkpt lat="33.318872" lon="-3.203713">
   <ele>1393.00</ele>
   <time>2014-03-31T16:37:39Z</time>
  </trkpt>
  <trkpt lat="33.318643" lon="-3.203697">
   <ele>1394.00</ele>
   <time>2014-03-31T16:37:43Z</time>
  </trkpt>
  <trkpt lat="33.318267" lon="-3.203674">
   <ele>1395.00</ele>
   <time>2014-03-31T16:37:49Z</time>
  </trkpt>
  <trkpt lat="33.318084" lon="-3.203686">
   <ele>1395.00</ele>
   <time>2014-03-31T16:37:52Z</time>
  </trkpt>
  <trkpt lat="33.317849" lon="-3.203686">
   <ele>1396.00</ele>
   <time>2014-03-31T16:37:56Z</time>
  </trkpt>
  <trkpt lat="33.317668" lon="-3.203663">
   <ele>1396.00</ele>
   <time>2014-03-31T16:37:59Z</time>
  </trkpt>
  <trkpt lat="33.317447" lon="-3.203649">
   <ele>1397.00</ele>
   <time>2014-03-31T16:38:03Z</time>
  </trkpt>
  <trkpt lat="33.317240" lon="-3.203621">
   <ele>1397.00</ele>
   <time>2014-03-31T16:38:07Z</time>
  </trkpt>
  <trkpt lat="33.317038" lon="-3.203635">
   <ele>1397.00</ele>
   <time>2014-03-31T16:38:11Z</time>
  </trkpt>
  <trkpt lat="33.316775" lon="-3.203678">
   <ele>1398.00</ele>
   <time>2014-03-31T16:38:16Z</time>
  </trkpt>
  <trkpt lat="33.316550" lon="-3.203642">
   <ele>1399.00</ele>
   <time>2014-03-31T16:38:20Z</time>
  </trkpt>
  <trkpt lat="33.316325" lon="-3.203584">
   <ele>1399.00</ele>
   <time>2014-03-31T16:38:24Z</time>
  </trkpt>
  <trkpt lat="33.316124" lon="-3.203505">
   <ele>1400.00</ele>
   <time>2014-03-31T16:38:28Z</time>
  </trkpt>
  <trkpt lat="33.315983" lon="-3.203370">
   <ele>1401.00</ele>
   <time>2014-03-31T16:38:32Z</time>
  </trkpt>
  <trkpt lat="33.315837" lon="-3.203237">
   <ele>1401.00</ele>
   <time>2014-03-31T16:38:36Z</time>
  </trkpt>
  <trkpt lat="33.315628" lon="-3.203239">
   <ele>1402.00</ele>
   <time>2014-03-31T16:38:41Z</time>
  </trkpt>
  <trkpt lat="33.315405" lon="-3.203242">
   <ele>1403.00</ele>
   <time>2014-03-31T16:38:46Z</time>
  </trkpt>
  <trkpt lat="33.315227" lon="-3.203185">
   <ele>1403.00</ele>
   <time>2014-03-31T16:38:50Z</time>
  </trkpt>
  <trkpt lat="33.315074" lon="-3.203014">
   <ele>1404.00</ele>
   <time>2014-03-31T16:38:54Z</time>
  </trkpt>
  <trkpt lat="33.314912" lon="-3.202852">
   <ele>1405.00</ele>
   <time>2014-03-31T16:38:58Z</time>
  </trkpt>
  <trkpt lat="33.314728" lon="-3.202705">
   <ele>1406.00</ele>
   <time>2014-03-31T16:39:02Z</time>
  </trkpt>
  <trkpt lat="33.314559" lon="-3.202538">
   <ele>1407.00</ele>
   <time>2014-03-31T16:39:06Z</time>
  </trkpt>
  <trkpt lat="33.314430" lon="-3.202363">
   <ele>1408.00</ele>
   <time>2014-03-31T16:39:10Z</time>
  </trkpt>
  <trkpt lat="33.314314" lon="-3.202191">
   <ele>1409.00</ele>
   <time>2014-03-31T16:39:14Z</time>
  </trkpt>
  <trkpt lat="33.314150" lon="-3.202058">
   <ele>1410.00</ele>
   <time>2014-03-31T16:39:18Z</time>
  </trkpt>
  <trkpt lat="33.313970" lon="-3.201910">
   <ele>1411.00</ele>
   <time>2014-03-31T16:39:22Z</time>
  </trkpt>
  <trkpt lat="33.313751" lon="-3.201831">
   <ele>1413.00</ele>
   <time>2014-03-31T16:39:26Z</time>
  </trkpt>
  <trkpt lat="33.313533" lon="-3.201817">
   <ele>1415.00</ele>
   <time>2014-03-31T16:39:30Z</time>
  </trkpt>
  <trkpt lat="33.313353" lon="-3.201841">
   <ele>1415.00</ele>
   <time>2014-03-31T16:39:34Z</time>
  </trkpt>
  <trkpt lat="33.313179" lon="-3.201955">
   <ele>1415.00</ele>
   <time>2014-03-31T16:39:39Z</time>
  </trkpt>
  <trkpt lat="33.312735" lon="-3.202407">
   <ele>1416.00</ele>
   <time>2014-03-31T16:39:51Z</time>
  </trkpt>
  <trkpt lat="33.312536" lon="-3.202461">
   <ele>1416.00</ele>
   <time>2014-03-31T16:39:55Z</time>
  </trkpt>
  <trkpt lat="33.312296" lon="-3.202484">
   <ele>1416.00</ele>
   <time>2014-03-31T16:39:59Z</time>
  </trkpt>
  <trkpt lat="33.312043" lon="-3.202490">
   <ele>1416.00</ele>
   <time>2014-03-31T16:40:03Z</time>
  </trkpt>
  <trkpt lat="33.311810" lon="-3.202538">
   <ele>1416.00</ele>
   <time>2014-03-31T16:40:07Z</time>
  </trkpt>
  <trkpt lat="33.311579" lon="-3.202566">
   <ele>1417.00</ele>
   <time>2014-03-31T16:40:11Z</time>
  </trkpt>
  <trkpt lat="33.311404" lon="-3.202477">
   <ele>1417.00</ele>
   <time>2014-03-31T16:40:14Z</time>
  </trkpt>
  <trkpt lat="33.310861" lon="-3.202068">
   <ele>1417.00</ele>
   <time>2014-03-31T16:40:23Z</time>
  </trkpt>
  <trkpt lat="33.310690" lon="-3.201926">
   <ele>1418.00</ele>
   <time>2014-03-31T16:40:26Z</time>
  </trkpt>
  <trkpt lat="33.310326" lon="-3.201677">
   <ele>1418.00</ele>
   <time>2014-03-31T16:40:32Z</time>
  </trkpt>
  <trkpt lat="33.309613" lon="-3.201133">
   <ele>1419.00</ele>
   <time>2014-03-31T16:40:43Z</time>
  </trkpt>
  <trkpt lat="33.309186" lon="-3.200822">
   <ele>1417.00</ele>
   <time>2014-03-31T16:40:50Z</time>
  </trkpt>
  <trkpt lat="33.308362" lon="-3.200203">
   <ele>1414.00</ele>
   <time>2014-03-31T16:41:05Z</time>
  </trkpt>
  <trkpt lat="33.308166" lon="-3.200058">
   <ele>1414.00</ele>
   <time>2014-03-31T16:41:09Z</time>
  </trkpt>
  <trkpt lat="33.307786" lon="-3.199784">
   <ele>1412.00</ele>
   <time>2014-03-31T16:41:17Z</time>
  </trkpt>
  <trkpt lat="33.307634" lon="-3.199624">
   <ele>1412.00</ele>
   <time>2014-03-31T16:41:21Z</time>
  </trkpt>
  <trkpt lat="33.307584" lon="-3.199379">
   <ele>1412.00</ele>
   <time>2014-03-31T16:41:25Z</time>
  </trkpt>
  <trkpt lat="33.307496" lon="-3.199160">
   <ele>1412.00</ele>
   <time>2014-03-31T16:41:29Z</time>
  </trkpt>
  <trkpt lat="33.307284" lon="-3.199026">
   <ele>1411.00</ele>
   <time>2014-03-31T16:41:33Z</time>
  </trkpt>
  <trkpt lat="33.307091" lon="-3.198934">
   <ele>1410.00</ele>
   <time>2014-03-31T16:41:36Z</time>
  </trkpt>
  <trkpt lat="33.306924" lon="-3.198842">
   <ele>1410.00</ele>
   <time>2014-03-31T16:41:42Z</time>
  </trkpt>
  <trkpt lat="33.306687" lon="-3.198727">
   <ele>1411.00</ele>
   <time>2014-03-31T16:41:51Z</time>
  </trkpt>
  <trkpt lat="33.306497" lon="-3.198638">
   <ele>1411.00</ele>
   <time>2014-03-31T16:41:55Z</time>
  </trkpt>
  <trkpt lat="33.306282" lon="-3.198531">
   <ele>1412.00</ele>
   <time>2014-03-31T16:41:59Z</time>
  </trkpt>
  <trkpt lat="33.306061" lon="-3.198411">
   <ele>1413.00</ele>
   <time>2014-03-31T16:42:03Z</time>
  </trkpt>
  <trkpt lat="33.305903" lon="-3.198294">
   <ele>1413.00</ele>
   <time>2014-03-31T16:42:06Z</time>
  </trkpt>
  <trkpt lat="33.305750" lon="-3.198094">
   <ele>1414.00</ele>
   <time>2014-03-31T16:42:10Z</time>
  </trkpt>
  <trkpt lat="33.305681" lon="-3.197889">
   <ele>1414.00</ele>
   <time>2014-03-31T16:42:13Z</time>
  </trkpt>
  <trkpt lat="33.305543" lon="-3.197696">
   <ele>1415.00</ele>
   <time>2014-03-31T16:42:16Z</time>
  </trkpt>
  <trkpt lat="33.305368" lon="-3.197542">
   <ele>1415.00</ele>
   <time>2014-03-31T16:42:19Z</time>
  </trkpt>
  <trkpt lat="33.305031" lon="-3.197295">
   <ele>1415.00</ele>
   <time>2014-03-31T16:42:24Z</time>
  </trkpt>
  <trkpt lat="33.304838" lon="-3.197170">
   <ele>1414.00</ele>
   <time>2014-03-31T16:42:27Z</time>
  </trkpt>
  <trkpt lat="33.304665" lon="-3.197047">
   <ele>1414.00</ele>
   <time>2014-03-31T16:42:30Z</time>
  </trkpt>
  <trkpt lat="33.304518" lon="-3.196905">
   <ele>1414.00</ele>
   <time>2014-03-31T16:42:33Z</time>
  </trkpt>
  <trkpt lat="33.304316" lon="-3.196759">
   <ele>1414.00</ele>
   <time>2014-03-31T16:42:37Z</time>
  </trkpt>
  <trkpt lat="33.304122" lon="-3.196625">
   <ele>1413.00</ele>
   <time>2014-03-31T16:42:41Z</time>
  </trkpt>
  <trkpt lat="33.303918" lon="-3.196564">
   <ele>1412.00</ele>
   <time>2014-03-31T16:42:45Z</time>
  </trkpt>
  <trkpt lat="33.303715" lon="-3.196477">
   <ele>1411.00</ele>
   <time>2014-03-31T16:42:50Z</time>
  </trkpt>
  <trkpt lat="33.303533" lon="-3.196423">
   <ele>1411.00</ele>
   <time>2014-03-31T16:42:54Z</time>
  </trkpt>
  <trkpt lat="33.303335" lon="-3.196312">
   <ele>1412.00</ele>
   <time>2014-03-31T16:42:58Z</time>
  </trkpt>
  <trkpt lat="33.303173" lon="-3.196170">
   <ele>1412.00</ele>
   <time>2014-03-31T16:43:02Z</time>
  </trkpt>
  <trkpt lat="33.302980" lon="-3.196170">
   <ele>1412.00</ele>
   <time>2014-03-31T16:43:06Z</time>
  </trkpt>
  <trkpt lat="33.302647" lon="-3.196225">
   <ele>1412.00</ele>
   <time>2014-03-31T16:43:12Z</time>
  </trkpt>
  <trkpt lat="33.302418" lon="-3.196222">
   <ele>1412.00</ele>
   <time>2014-03-31T16:43:16Z</time>
  </trkpt>
  <trkpt lat="33.302189" lon="-3.196159">
   <ele>1412.00</ele>
   <time>2014-03-31T16:43:20Z</time>
  </trkpt>
  <trkpt lat="33.301991" lon="-3.196076">
   <ele>1413.00</ele>
   <time>2014-03-31T16:43:24Z</time>
  </trkpt>
  <trkpt lat="33.301805" lon="-3.195984">
   <ele>1412.00</ele>
   <time>2014-03-31T16:43:28Z</time>
  </trkpt>
  <trkpt lat="33.301606" lon="-3.195896">
   <ele>1412.00</ele>
   <time>2014-03-31T16:43:32Z</time>
  </trkpt>
  <trkpt lat="33.301394" lon="-3.195783">
   <ele>1411.00</ele>
   <time>2014-03-31T16:43:36Z</time>
  </trkpt>
  <trkpt lat="33.301219" lon="-3.195693">
   <ele>1411.00</ele>
   <time>2014-03-31T16:43:39Z</time>
  </trkpt>
  <trkpt lat="33.301040" lon="-3.195600">
   <ele>1410.00</ele>
   <time>2014-03-31T16:43:42Z</time>
  </trkpt>
  <trkpt lat="33.300856" lon="-3.195513">
   <ele>1410.00</ele>
   <time>2014-03-31T16:43:45Z</time>
  </trkpt>
  <trkpt lat="33.300672" lon="-3.195437">
   <ele>1411.00</ele>
   <time>2014-03-31T16:43:48Z</time>
  </trkpt>
  <trkpt lat="33.300494" lon="-3.195380">
   <ele>1411.00</ele>
   <time>2014-03-31T16:43:51Z</time>
  </trkpt>
  <trkpt lat="33.300204" lon="-3.195297">
   <ele>1411.00</ele>
   <time>2014-03-31T16:43:55Z</time>
  </trkpt>
  <trkpt lat="33.299979" lon="-3.195210">
   <ele>1412.00</ele>
   <time>2014-03-31T16:43:58Z</time>
  </trkpt>
  <trkpt lat="33.299793" lon="-3.195127">
   <ele>1412.00</ele>
   <time>2014-03-31T16:44:01Z</time>
  </trkpt>
  <trkpt lat="33.299595" lon="-3.195039">
   <ele>1413.00</ele>
   <time>2014-03-31T16:44:11Z</time>
  </trkpt>
  <trkpt lat="33.299003" lon="-3.194786">
   <ele>1411.00</ele>
   <time>2014-03-31T16:44:24Z</time>
  </trkpt>
  <trkpt lat="33.298682" lon="-3.194668">
   <ele>1411.00</ele>
   <time>2014-03-31T16:44:30Z</time>
  </trkpt>
  <trkpt lat="33.298348" lon="-3.194521">
   <ele>1408.00</ele>
   <time>2014-03-31T16:44:37Z</time>
  </trkpt>
  <trkpt lat="33.298143" lon="-3.194448">
   <ele>1407.00</ele>
   <time>2014-03-31T16:44:42Z</time>
  </trkpt>
  <trkpt lat="33.297959" lon="-3.194364">
   <ele>1407.00</ele>
   <time>2014-03-31T16:44:47Z</time>
  </trkpt>
  <trkpt lat="33.297730" lon="-3.194259">
   <ele>1406.00</ele>
   <time>2014-03-31T16:44:52Z</time>
  </trkpt>
  <trkpt lat="33.297357" lon="-3.194089">
   <ele>1403.00</ele>
   <time>2014-03-31T16:44:59Z</time>
  </trkpt>
  <trkpt lat="33.297143" lon="-3.193992">
   <ele>1402.00</ele>
   <time>2014-03-31T16:45:05Z</time>
  </trkpt>
  <trkpt lat="33.296916" lon="-3.193899">
   <ele>1402.00</ele>
   <time>2014-03-31T16:45:11Z</time>
  </trkpt>
  <trkpt lat="33.296663" lon="-3.193766">
   <ele>1400.00</ele>
   <time>2014-03-31T16:45:17Z</time>
  </trkpt>
  <trkpt lat="33.296461" lon="-3.193700">
   <ele>1400.00</ele>
   <time>2014-03-31T16:45:21Z</time>
  </trkpt>
  <trkpt lat="33.296109" lon="-3.193472">
   <ele>1399.00</ele>
   <time>2014-03-31T16:45:28Z</time>
  </trkpt>
  <trkpt lat="33.295923" lon="-3.193389">
   <ele>1400.00</ele>
   <time>2014-03-31T16:45:31Z</time>
  </trkpt>
  <trkpt lat="33.295718" lon="-3.193313">
   <ele>1400.00</ele>
   <time>2014-03-31T16:45:35Z</time>
  </trkpt>
  <trkpt lat="33.295549" lon="-3.193437">
   <ele>1398.00</ele>
   <time>2014-03-31T16:45:39Z</time>
  </trkpt>
  <trkpt lat="33.295420" lon="-3.193650">
   <ele>1396.00</ele>
   <time>2014-03-31T16:45:43Z</time>
  </trkpt>
  <trkpt lat="33.295337" lon="-3.193903">
   <ele>1394.00</ele>
   <time>2014-03-31T16:45:47Z</time>
  </trkpt>
  <trkpt lat="33.295292" lon="-3.194171">
   <ele>1392.00</ele>
   <time>2014-03-31T16:45:51Z</time>
  </trkpt>
  <trkpt lat="33.295234" lon="-3.194608">
   <ele>1390.00</ele>
   <time>2014-03-31T16:45:59Z</time>
  </trkpt>
  <trkpt lat="33.295162" lon="-3.194841">
   <ele>1390.00</ele>
   <time>2014-03-31T16:46:04Z</time>
  </trkpt>
  <trkpt lat="33.295026" lon="-3.194999">
   <ele>1389.00</ele>
   <time>2014-03-31T16:46:09Z</time>
  </trkpt>
  <trkpt lat="33.294921" lon="-3.195206">
   <ele>1389.00</ele>
   <time>2014-03-31T16:46:14Z</time>
  </trkpt>
  <trkpt lat="33.294800" lon="-3.195470">
   <ele>1388.00</ele>
   <time>2014-03-31T16:46:21Z</time>
  </trkpt>
  <trkpt lat="33.294693" lon="-3.195644">
   <ele>1387.00</ele>
   <time>2014-03-31T16:46:26Z</time>
  </trkpt>
  <trkpt lat="33.294582" lon="-3.195835">
   <ele>1387.00</ele>
   <time>2014-03-31T16:46:31Z</time>
  </trkpt>
  <trkpt lat="33.294494" lon="-3.196036">
   <ele>1387.00</ele>
   <time>2014-03-31T16:46:36Z</time>
  </trkpt>
  <trkpt lat="33.294369" lon="-3.196284">
   <ele>1386.00</ele>
   <time>2014-03-31T16:46:43Z</time>
  </trkpt>
  <trkpt lat="33.294294" lon="-3.196514">
   <ele>1385.00</ele>
   <time>2014-03-31T16:46:49Z</time>
  </trkpt>
  <trkpt lat="33.294239" lon="-3.196722">
   <ele>1384.00</ele>
   <time>2014-03-31T16:46:54Z</time>
  </trkpt>
  <trkpt lat="33.294171" lon="-3.196963">
   <ele>1384.00</ele>
   <time>2014-03-31T16:47:02Z</time>
  </trkpt>
  <trkpt lat="33.294071" lon="-3.197137">
   <ele>1386.00</ele>
   <time>2014-03-31T16:47:13Z</time>
  </trkpt>
  <trkpt lat="33.294179" lon="-3.197212">
   <ele>1389.00</ele>
   <time>2014-03-31T16:47:29Z</time>
  </trkpt>
  <trkpt lat="33.294175" lon="-3.197217">
   <ele>1388.00</ele>
   <time>2014-03-31T16:47:40Z</time>
  </trkpt>
 </trkseg>
 <trkseg>
  <trkpt lat="33.294165" lon="-3.197044">
   <ele>1391.00</ele>
   <time>2014-03-31T16:53:26Z</time>
  </trkpt>
  <trkpt lat="33.294220" lon="-3.196826">
   <ele>1391.00</ele>
   <time>2014-03-31T16:53:32Z</time>
  </trkpt>
  <trkpt lat="33.294288" lon="-3.196579">
   <ele>1391.00</ele>
   <time>2014-03-31T16:53:38Z</time>
  </trkpt>
  <trkpt lat="33.294350" lon="-3.196353">
   <ele>1391.00</ele>
   <time>2014-03-31T16:53:43Z</time>
  </trkpt>
  <trkpt lat="33.294457" lon="-3.196121">
   <ele>1392.00</ele>
   <time>2014-03-31T16:53:48Z</time>
  </trkpt>
  <trkpt lat="33.294549" lon="-3.195918">
   <ele>1393.00</ele>
   <time>2014-03-31T16:53:52Z</time>
  </trkpt>
  <trkpt lat="33.294658" lon="-3.195709">
   <ele>1393.00</ele>
   <time>2014-03-31T16:53:56Z</time>
  </trkpt>
  <trkpt lat="33.294781" lon="-3.195519">
   <ele>1393.00</ele>
   <time>2014-03-31T16:54:00Z</time>
  </trkpt>
  <trkpt lat="33.294883" lon="-3.195309">
   <ele>1393.00</ele>
   <time>2014-03-31T16:54:04Z</time>
  </trkpt>
  <trkpt lat="33.294989" lon="-3.195095">
   <ele>1393.00</ele>
   <time>2014-03-31T16:54:08Z</time>
  </trkpt>
  <trkpt lat="33.295105" lon="-3.194930">
   <ele>1394.00</ele>
   <time>2014-03-31T16:54:12Z</time>
  </trkpt>
  <trkpt lat="33.295214" lon="-3.194762">
   <ele>1394.00</ele>
   <time>2014-03-31T16:54:16Z</time>
  </trkpt>
  <trkpt lat="33.295272" lon="-3.194524">
   <ele>1394.00</ele>
   <time>2014-03-31T16:54:20Z</time>
  </trkpt>
  <trkpt lat="33.295378" lon="-3.193838">
   <ele>1395.00</ele>
   <time>2014-03-31T16:54:30Z</time>
  </trkpt>
  <trkpt lat="33.295362" lon="-3.193616">
   <ele>1396.00</ele>
   <time>2014-03-31T16:54:33Z</time>
  </trkpt>
  <trkpt lat="33.295302" lon="-3.193399">
   <ele>1397.00</ele>
   <time>2014-03-31T16:54:36Z</time>
  </trkpt>
  <trkpt lat="33.295223" lon="-3.193198">
   <ele>1397.00</ele>
   <time>2014-03-31T16:54:39Z</time>
  </trkpt>
  <trkpt lat="33.295159" lon="-3.192929">
   <ele>1398.00</ele>
   <time>2014-03-31T16:54:43Z</time>
  </trkpt>
  <trkpt lat="33.295027" lon="-3.192719">
   <ele>1398.00</ele>
   <time>2014-03-31T16:54:47Z</time>
  </trkpt>
  <trkpt lat="33.294843" lon="-3.192576">
   <ele>1397.00</ele>
   <time>2014-03-31T16:54:51Z</time>
  </trkpt>
  <trkpt lat="33.294614" lon="-3.192528">
   <ele>1398.00</ele>
   <time>2014-03-31T16:54:55Z</time>
  </trkpt>
  <trkpt lat="33.294426" lon="-3.192514">
   <ele>1397.00</ele>
   <time>2014-03-31T16:54:58Z</time>
  </trkpt>
  <trkpt lat="33.294133" lon="-3.192477">
   <ele>1398.00</ele>
   <time>2014-03-31T16:55:03Z</time>
  </trkpt>
  <trkpt lat="33.293944" lon="-3.192574">
   <ele>1397.00</ele>
   <time>2014-03-31T16:55:08Z</time>
  </trkpt>
  <trkpt lat="33.293809" lon="-3.192747">
   <ele>1395.00</ele>
   <time>2014-03-31T16:55:17Z</time>
  </trkpt>
  <trkpt lat="33.293705" lon="-3.192924">
   <ele>1395.00</ele>
   <time>2014-03-31T16:55:25Z</time>
  </trkpt>
  <trkpt lat="33.293537" lon="-3.193003">
   <ele>1395.00</ele>
   <time>2014-03-31T16:55:31Z</time>
  </trkpt>
  <trkpt lat="33.293331" lon="-3.192941">
   <ele>1396.00</ele>
   <time>2014-03-31T16:55:36Z</time>
  </trkpt>
  <trkpt lat="33.293185" lon="-3.192796">
   <ele>1397.00</ele>
   <time>2014-03-31T16:55:40Z</time>
  </trkpt>
  <trkpt lat="33.293019" lon="-3.192609">
   <ele>1397.00</ele>
   <time>2014-03-31T16:55:44Z</time>
  </trkpt>
  <trkpt lat="33.292890" lon="-3.192427">
   <ele>1398.00</ele>
   <time>2014-03-31T16:55:47Z</time>
  </trkpt>
  <trkpt lat="33.292785" lon="-3.192215">
   <ele>1399.00</ele>
   <time>2014-03-31T16:55:50Z</time>
  </trkpt>
  <trkpt lat="33.292702" lon="-3.191992">
   <ele>1399.00</ele>
   <time>2014-03-31T16:55:53Z</time>
  </trkpt>
  <trkpt lat="33.292668" lon="-3.191763">
   <ele>1400.00</ele>
   <time>2014-03-31T16:55:56Z</time>
  </trkpt>
  <trkpt lat="33.292667" lon="-3.191546">
   <ele>1401.00</ele>
   <time>2014-03-31T16:55:59Z</time>
  </trkpt>
  <trkpt lat="33.292633" lon="-3.191295">
   <ele>1403.00</ele>
   <time>2014-03-31T16:56:03Z</time>
  </trkpt>
  <trkpt lat="33.292528" lon="-3.191100">
   <ele>1404.00</ele>
   <time>2014-03-31T16:56:08Z</time>
  </trkpt>
  <trkpt lat="33.292487" lon="-3.190865">
   <ele>1404.00</ele>
   <time>2014-03-31T16:56:15Z</time>
  </trkpt>
  <trkpt lat="33.292440" lon="-3.190631">
   <ele>1401.00</ele>
   <time>2014-03-31T16:56:24Z</time>
  </trkpt>
  <trkpt lat="33.292391" lon="-3.190417">
   <ele>1400.00</ele>
   <time>2014-03-31T16:56:29Z</time>
  </trkpt>
  <trkpt lat="33.292271" lon="-3.190224">
   <ele>1401.00</ele>
   <time>2014-03-31T16:56:34Z</time>
  </trkpt>
  <trkpt lat="33.292096" lon="-3.190076">
   <ele>1402.00</ele>
   <time>2014-03-31T16:56:38Z</time>
  </trkpt>
  <trkpt lat="33.291885" lon="-3.189958">
   <ele>1402.00</ele>
   <time>2014-03-31T16:56:42Z</time>
  </trkpt>
  <trkpt lat="33.291663" lon="-3.189920">
   <ele>1403.00</ele>
   <time>2014-03-31T16:56:46Z</time>
  </trkpt>
  <trkpt lat="33.291456" lon="-3.189885">
   <ele>1404.00</ele>
   <time>2014-03-31T16:56:50Z</time>
  </trkpt>
  <trkpt lat="33.291239" lon="-3.189788">
   <ele>1406.00</ele>
   <time>2014-03-31T16:56:54Z</time>
  </trkpt>
  <trkpt lat="33.291007" lon="-3.189653">
   <ele>1407.00</ele>
   <time>2014-03-31T16:56:59Z</time>
  </trkpt>
  <trkpt lat="33.290818" lon="-3.189529">
   <ele>1408.00</ele>
   <time>2014-03-31T16:57:03Z</time>
  </trkpt>
  <trkpt lat="33.290629" lon="-3.189429">
   <ele>1409.00</ele>
   <time>2014-03-31T16:57:07Z</time>
  </trkpt>
  <trkpt lat="33.290431" lon="-3.189323">
   <ele>1409.00</ele>
   <time>2014-03-31T16:57:12Z</time>
  </trkpt>
  <trkpt lat="33.290259" lon="-3.189212">
   <ele>1409.00</ele>
   <time>2014-03-31T16:57:18Z</time>
  </trkpt>
  <trkpt lat="33.290107" lon="-3.189081">
   <ele>1409.00</ele>
   <time>2014-03-31T16:57:26Z</time>
  </trkpt>
  <trkpt lat="33.289939" lon="-3.188920">
   <ele>1410.00</ele>
   <time>2014-03-31T16:57:31Z</time>
  </trkpt>
  <trkpt lat="33.289774" lon="-3.188757">
   <ele>1409.00</ele>
   <time>2014-03-31T16:57:35Z</time>
  </trkpt>
  <trkpt lat="33.289641" lon="-3.188595">
   <ele>1409.00</ele>
   <time>2014-03-31T16:57:38Z</time>
  </trkpt>
  <trkpt lat="33.289499" lon="-3.188431">
   <ele>1408.00</ele>
   <time>2014-03-31T16:57:41Z</time>
  </trkpt>
  <trkpt lat="33.289286" lon="-3.188303">
   <ele>1408.00</ele>
   <time>2014-03-31T16:57:45Z</time>
  </trkpt>
  <trkpt lat="33.289062" lon="-3.188200">
   <ele>1407.00</ele>
   <time>2014-03-31T16:57:49Z</time>
  </trkpt>
  <trkpt lat="33.288811" lon="-3.188118">
   <ele>1407.00</ele>
   <time>2014-03-31T16:57:53Z</time>
  </trkpt>
  <trkpt lat="33.288617" lon="-3.188091">
   <ele>1408.00</ele>
   <time>2014-03-31T16:57:56Z</time>
  </trkpt>
  <trkpt lat="33.288362" lon="-3.188082">
   <ele>1410.00</ele>
   <time>2014-03-31T16:58:00Z</time>
  </trkpt>
  <trkpt lat="33.288178" lon="-3.188009">
   <ele>1410.00</ele>
   <time>2014-03-31T16:58:03Z</time>
  </trkpt>
  <trkpt lat="33.287992" lon="-3.187919">
   <ele>1411.00</ele>
   <time>2014-03-31T16:58:06Z</time>
  </trkpt>
  <trkpt lat="33.287500" lon="-3.187775">
   <ele>1411.00</ele>
   <time>2014-03-31T16:58:13Z</time>
  </trkpt>
  <trkpt lat="33.287214" lon="-3.187700">
   <ele>1412.00</ele>
   <time>2014-03-31T16:58:20Z</time>
  </trkpt>
  <trkpt lat="33.287034" lon="-3.187641">
   <ele>1414.00</ele>
   <time>2014-03-31T16:58:24Z</time>
  </trkpt>
  <trkpt lat="33.286809" lon="-3.187640">
   <ele>1415.00</ele>
   <time>2014-03-31T16:58:28Z</time>
  </trkpt>
  <trkpt lat="33.286608" lon="-3.187662">
   <ele>1416.00</ele>
   <time>2014-03-31T16:58:32Z</time>
  </trkpt>
  <trkpt lat="33.286391" lon="-3.187606">
   <ele>1417.00</ele>
   <time>2014-03-31T16:58:36Z</time>
  </trkpt>
  <trkpt lat="33.286214" lon="-3.187556">
   <ele>1418.00</ele>
   <time>2014-03-31T16:58:39Z</time>
  </trkpt>
  <trkpt lat="33.286035" lon="-3.187502">
   <ele>1417.00</ele>
   <time>2014-03-31T16:58:42Z</time>
  </trkpt>
  <trkpt lat="33.285804" lon="-3.187465">
   <ele>1418.00</ele>
   <time>2014-03-31T16:58:46Z</time>
  </trkpt>
  <trkpt lat="33.285455" lon="-3.187440">
   <ele>1420.00</ele>
   <time>2014-03-31T16:58:52Z</time>
  </trkpt>
  <trkpt lat="33.285273" lon="-3.187402">
   <ele>1421.00</ele>
   <time>2014-03-31T16:58:55Z</time>
  </trkpt>
  <trkpt lat="33.285084" lon="-3.187351">
   <ele>1422.00</ele>
   <time>2014-03-31T16:58:58Z</time>
  </trkpt>
  <trkpt lat="33.284841" lon="-3.187300">
   <ele>1423.00</ele>
   <time>2014-03-31T16:59:02Z</time>
  </trkpt>
  <trkpt lat="33.284653" lon="-3.187282">
   <ele>1423.00</ele>
   <time>2014-03-31T16:59:05Z</time>
  </trkpt>
  <trkpt lat="33.284453" lon="-3.187291">
   <ele>1425.00</ele>
   <time>2014-03-31T16:59:08Z</time>
  </trkpt>
  <trkpt lat="33.284271" lon="-3.187325">
   <ele>1426.00</ele>
   <time>2014-03-31T16:59:11Z</time>
  </trkpt>
  <trkpt lat="33.284081" lon="-3.187412">
   <ele>1424.00</ele>
   <time>2014-03-31T16:59:15Z</time>
  </trkpt>
  <trkpt lat="33.283901" lon="-3.187296">
   <ele>1423.00</ele>
   <time>2014-03-31T16:59:19Z</time>
  </trkpt>
  <trkpt lat="33.283673" lon="-3.187245">
   <ele>1424.00</ele>
   <time>2014-03-31T16:59:23Z</time>
  </trkpt>
  <trkpt lat="33.283471" lon="-3.187222">
   <ele>1424.00</ele>
   <time>2014-03-31T16:59:26Z</time>
  </trkpt>
  <trkpt lat="33.283269" lon="-3.187178">
   <ele>1424.00</ele>
   <time>2014-03-31T16:59:29Z</time>
  </trkpt>
  <trkpt lat="33.283088" lon="-3.187124">
   <ele>1423.00</ele>
   <time>2014-03-31T16:59:32Z</time>
  </trkpt>
  <trkpt lat="33.282902" lon="-3.187080">
   <ele>1423.00</ele>
   <time>2014-03-31T16:59:35Z</time>
  </trkpt>
  <trkpt lat="33.282671" lon="-3.187018">
   <ele>1425.00</ele>
   <time>2014-03-31T16:59:39Z</time>
  </trkpt>
  <trkpt lat="33.282468" lon="-3.186905">
   <ele>1423.00</ele>
   <time>2014-03-31T16:59:43Z</time>
  </trkpt>
  <trkpt lat="33.282240" lon="-3.186857">
   <ele>1423.00</ele>
   <time>2014-03-31T16:59:47Z</time>
  </trkpt>
  <trkpt lat="33.282057" lon="-3.186819">
   <ele>1423.00</ele>
   <time>2014-03-31T16:59:50Z</time>
  </trkpt>
  <trkpt lat="33.281795" lon="-3.186739">
   <ele>1422.00</ele>
   <time>2014-03-31T16:59:54Z</time>
  </trkpt>
  <trkpt lat="33.281590" lon="-3.186691">
   <ele>1421.00</ele>
   <time>2014-03-31T16:59:57Z</time>
  </trkpt>
  <trkpt lat="33.281406" lon="-3.186679">
   <ele>1422.00</ele>
   <time>2014-03-31T17:00:00Z</time>
  </trkpt>
  <trkpt lat="33.281196" lon="-3.186720">
   <ele>1420.00</ele>
   <time>2014-03-31T17:00:04Z</time>
  </trkpt>
  <trkpt lat="33.280780" lon="-3.186690">
   <ele>1421.00</ele>
   <time>2014-03-31T17:00:11Z</time>
  </trkpt>
  <trkpt lat="33.280544" lon="-3.186679">
   <ele>1422.00</ele>
   <time>2014-03-31T17:00:15Z</time>
  </trkpt>
  <trkpt lat="33.280325" lon="-3.186652">
   <ele>1421.00</ele>
   <time>2014-03-31T17:00:19Z</time>
  </trkpt>
  <trkpt lat="33.280084" lon="-3.186636">
   <ele>1420.00</ele>
   <time>2014-03-31T17:00:23Z</time>
  </trkpt>
  <trkpt lat="33.279900" lon="-3.186587">
   <ele>1419.00</ele>
   <time>2014-03-31T17:00:26Z</time>
  </trkpt>
  <trkpt lat="33.279689" lon="-3.186483">
   <ele>1418.00</ele>
   <time>2014-03-31T17:00:30Z</time>
  </trkpt>
  <trkpt lat="33.279485" lon="-3.186414">
   <ele>1418.00</ele>
   <time>2014-03-31T17:00:34Z</time>
  </trkpt>
  <trkpt lat="33.279263" lon="-3.186397">
   <ele>1415.00</ele>
   <time>2014-03-31T17:00:38Z</time>
  </trkpt>
  <trkpt lat="33.279002" lon="-3.186426">
   <ele>1417.00</ele>
   <time>2014-03-31T17:00:42Z</time>
  </trkpt>
  <trkpt lat="33.278815" lon="-3.186395">
   <ele>1415.00</ele>
   <time>2014-03-31T17:00:45Z</time>
  </trkpt>
  <trkpt lat="33.278643" lon="-3.186318">
   <ele>1416.00</ele>
   <time>2014-03-31T17:00:48Z</time>
  </trkpt>
  <trkpt lat="33.278478" lon="-3.186195">
   <ele>1416.00</ele>
   <time>2014-03-31T17:00:52Z</time>
  </trkpt>
  <trkpt lat="33.278307" lon="-3.186012">
   <ele>1416.00</ele>
   <time>2014-03-31T17:00:59Z</time>
  </trkpt>
  <trkpt lat="33.278166" lon="-3.185872">
   <ele>1417.00</ele>
   <time>2014-03-31T17:01:04Z</time>
  </trkpt>
  <trkpt lat="33.278011" lon="-3.185691">
   <ele>1418.00</ele>
   <time>2014-03-31T17:01:08Z</time>
  </trkpt>
  <trkpt lat="33.277914" lon="-3.185503">
   <ele>1418.00</ele>
   <time>2014-03-31T17:01:11Z</time>
  </trkpt>
  <trkpt lat="33.277809" lon="-3.185242">
   <ele>1420.00</ele>
   <time>2014-03-31T17:01:15Z</time>
  </trkpt>
  <trkpt lat="33.277686" lon="-3.185057">
   <ele>1420.00</ele>
   <time>2014-03-31T17:01:18Z</time>
  </trkpt>
  <trkpt lat="33.277525" lon="-3.184913">
   <ele>1420.00</ele>
   <time>2014-03-31T17:01:21Z</time>
  </trkpt>
  <trkpt lat="33.276976" lon="-3.184554">
   <ele>1420.00</ele>
   <time>2014-03-31T17:01:29Z</time>
  </trkpt>
  <trkpt lat="33.276778" lon="-3.184401">
   <ele>1420.00</ele>
   <time>2014-03-31T17:01:32Z</time>
  </trkpt>
  <trkpt lat="33.276594" lon="-3.184298">
   <ele>1421.00</ele>
   <time>2014-03-31T17:01:35Z</time>
  </trkpt>
  <trkpt lat="33.276409" lon="-3.184310">
   <ele>1420.00</ele>
   <time>2014-03-31T17:01:38Z</time>
  </trkpt>
  <trkpt lat="33.276212" lon="-3.184421">
   <ele>1420.00</ele>
   <time>2014-03-31T17:01:41Z</time>
  </trkpt>
  <trkpt lat="33.275972" lon="-3.184504">
   <ele>1420.00</ele>
   <time>2014-03-31T17:01:44Z</time>
  </trkpt>
  <trkpt lat="33.275354" lon="-3.184635">
   <ele>1419.00</ele>
   <time>2014-03-31T17:01:51Z</time>
  </trkpt>
  <trkpt lat="33.275095" lon="-3.184640">
   <ele>1421.00</ele>
   <time>2014-03-31T17:01:54Z</time>
  </trkpt>
  <trkpt lat="33.274594" lon="-3.184637">
   <ele>1422.00</ele>
   <time>2014-03-31T17:01:59Z</time>
  </trkpt>
  <trkpt lat="33.273973" lon="-3.184674">
   <ele>1423.00</ele>
   <time>2014-03-31T17:02:05Z</time>
  </trkpt>
  <trkpt lat="33.273665" lon="-3.184711">
   <ele>1423.00</ele>
   <time>2014-03-31T17:02:08Z</time>
  </trkpt>
  <trkpt lat="33.273467" lon="-3.184734">
   <ele>1424.00</ele>
   <time>2014-03-31T17:02:10Z</time>
  </trkpt>
  <trkpt lat="33.273286" lon="-3.184732">
   <ele>1424.00</ele>
   <time>2014-03-31T17:02:12Z</time>
  </trkpt>
  <trkpt lat="33.273071" lon="-3.184759">
   <ele>1425.00</ele>
   <time>2014-03-31T17:02:15Z</time>
  </trkpt>
  <trkpt lat="33.272910" lon="-3.184951">
   <ele>1418.00</ele>
   <time>2014-03-31T17:02:19Z</time>
  </trkpt>
  <trkpt lat="33.272778" lon="-3.185166">
   <ele>1412.00</ele>
   <time>2014-03-31T17:02:23Z</time>
  </trkpt>
  <trkpt lat="33.272638" lon="-3.185327">
   <ele>1410.00</ele>
   <time>2014-03-31T17:02:27Z</time>
  </trkpt>
  <trkpt lat="33.272469" lon="-3.185467">
   <ele>1409.00</ele>
   <time>2014-03-31T17:02:31Z</time>
  </trkpt>
  <trkpt lat="33.272254" lon="-3.185500">
   <ele>1409.00</ele>
   <time>2014-03-31T17:02:35Z</time>
  </trkpt>
  <trkpt lat="33.272049" lon="-3.185523">
   <ele>1410.00</ele>
   <time>2014-03-31T17:02:39Z</time>
  </trkpt>
  <trkpt lat="33.271854" lon="-3.185446">
   <ele>1410.00</ele>
   <time>2014-03-31T17:02:43Z</time>
  </trkpt>
  <trkpt lat="33.271672" lon="-3.185412">
   <ele>1410.00</ele>
   <time>2014-03-31T17:02:46Z</time>
  </trkpt>
  <trkpt lat="33.271472" lon="-3.185426">
   <ele>1410.00</ele>
   <time>2014-03-31T17:02:49Z</time>
  </trkpt>
  <trkpt lat="33.271256" lon="-3.185482">
   <ele>1410.00</ele>
   <time>2014-03-31T17:02:52Z</time>
  </trkpt>
  <trkpt lat="33.271036" lon="-3.185546">
   <ele>1410.00</ele>
   <time>2014-03-31T17:02:55Z</time>
  </trkpt>
  <trkpt lat="33.270816" lon="-3.185545">
   <ele>1411.00</ele>
   <time>2014-03-31T17:02:58Z</time>
  </trkpt>
  <trkpt lat="33.270589" lon="-3.185573">
   <ele>1411.00</ele>
   <time>2014-03-31T17:03:01Z</time>
  </trkpt>
  <trkpt lat="33.270293" lon="-3.185613">
   <ele>1410.00</ele>
   <time>2014-03-31T17:03:05Z</time>
  </trkpt>
  <trkpt lat="33.270084" lon="-3.185699">
   <ele>1410.00</ele>
   <time>2014-03-31T17:03:08Z</time>
  </trkpt>
  <trkpt lat="33.269869" lon="-3.185814">
   <ele>1407.00</ele>
   <time>2014-03-31T17:03:11Z</time>
  </trkpt>
  <trkpt lat="33.269630" lon="-3.185876">
   <ele>1406.00</ele>
   <time>2014-03-31T17:03:14Z</time>
  </trkpt>
  <trkpt lat="33.269408" lon="-3.185963">
   <ele>1405.00</ele>
   <time>2014-03-31T17:03:17Z</time>
  </trkpt>
  <trkpt lat="33.269129" lon="-3.186146">
   <ele>1403.00</ele>
   <time>2014-03-31T17:03:21Z</time>
  </trkpt>
  <trkpt lat="33.268898" lon="-3.186214">
   <ele>1404.00</ele>
   <time>2014-03-31T17:03:24Z</time>
  </trkpt>
  <trkpt lat="33.268672" lon="-3.186258">
   <ele>1404.00</ele>
   <time>2014-03-31T17:03:27Z</time>
  </trkpt>
  <trkpt lat="33.268455" lon="-3.186357">
   <ele>1404.00</ele>
   <time>2014-03-31T17:03:30Z</time>
  </trkpt>
  <trkpt lat="33.268260" lon="-3.186516">
   <ele>1402.00</ele>
   <time>2014-03-31T17:03:33Z</time>
  </trkpt>
  <trkpt lat="33.268085" lon="-3.186722">
   <ele>1401.00</ele>
   <time>2014-03-31T17:03:36Z</time>
  </trkpt>
  <trkpt lat="33.267912" lon="-3.186936">
   <ele>1400.00</ele>
   <time>2014-03-31T17:03:39Z</time>
  </trkpt>
  <trkpt lat="33.267562" lon="-3.187350">
   <ele>1399.00</ele>
   <time>2014-03-31T17:03:45Z</time>
  </trkpt>
  <trkpt lat="33.267344" lon="-3.187535">
   <ele>1398.00</ele>
   <time>2014-03-31T17:03:48Z</time>
  </trkpt>
  <trkpt lat="33.267126" lon="-3.187704">
   <ele>1397.00</ele>
   <time>2014-03-31T17:03:51Z</time>
  </trkpt>
  <trkpt lat="33.266974" lon="-3.187891">
   <ele>1397.00</ele>
   <time>2014-03-31T17:03:54Z</time>
  </trkpt>
  <trkpt lat="33.266911" lon="-3.188117">
   <ele>1396.00</ele>
   <time>2014-03-31T17:03:57Z</time>
  </trkpt>
  <trkpt lat="33.266853" lon="-3.188353">
   <ele>1395.00</ele>
   <time>2014-03-31T17:04:00Z</time>
  </trkpt>
  <trkpt lat="33.266755" lon="-3.188571">
   <ele>1394.00</ele>
   <time>2014-03-31T17:04:03Z</time>
  </trkpt>
  <trkpt lat="33.266623" lon="-3.188771">
   <ele>1394.00</ele>
   <time>2014-03-31T17:04:06Z</time>
  </trkpt>
  <trkpt lat="33.266370" lon="-3.189099">
   <ele>1393.00</ele>
   <time>2014-03-31T17:04:11Z</time>
  </trkpt>
  <trkpt lat="33.266176" lon="-3.189373">
   <ele>1393.00</ele>
   <time>2014-03-31T17:04:15Z</time>
  </trkpt>
  <trkpt lat="33.266020" lon="-3.189553">
   <ele>1393.00</ele>
   <time>2014-03-31T17:04:18Z</time>
  </trkpt>
  <trkpt lat="33.265849" lon="-3.189688">
   <ele>1393.00</ele>
   <time>2014-03-31T17:04:21Z</time>
  </trkpt>
  <trkpt lat="33.265658" lon="-3.189776">
   <ele>1392.00</ele>
   <time>2014-03-31T17:04:25Z</time>
  </trkpt>
  <trkpt lat="33.265459" lon="-3.189755">
   <ele>1392.00</ele>
   <time>2014-03-31T17:04:30Z</time>
  </trkpt>
  <trkpt lat="33.265247" lon="-3.189694">
   <ele>1393.00</ele>
   <time>2014-03-31T17:04:36Z</time>
  </trkpt>
  <trkpt lat="33.265053" lon="-3.189658">
   <ele>1393.00</ele>
   <time>2014-03-31T17:04:40Z</time>
  </trkpt>
  <trkpt lat="33.264802" lon="-3.189643">
   <ele>1397.00</ele>
   <time>2014-03-31T17:04:45Z</time>
  </trkpt>
  <trkpt lat="33.264565" lon="-3.189696">
   <ele>1397.00</ele>
   <time>2014-03-31T17:04:49Z</time>
  </trkpt>
  <trkpt lat="33.264360" lon="-3.189700">
   <ele>1399.00</ele>
   <time>2014-03-31T17:04:52Z</time>
  </trkpt>
  <trkpt lat="33.264170" lon="-3.189610">
   <ele>1399.00</ele>
   <time>2014-03-31T17:04:55Z</time>
  </trkpt>
  <trkpt lat="33.263963" lon="-3.189500">
   <ele>1399.00</ele>
   <time>2014-03-31T17:04:58Z</time>
  </trkpt>
  <trkpt lat="33.263724" lon="-3.189419">
   <ele>1399.00</ele>
   <time>2014-03-31T17:05:01Z</time>
  </trkpt>
  <trkpt lat="33.263500" lon="-3.189367">
   <ele>1400.00</ele>
   <time>2014-03-31T17:05:04Z</time>
  </trkpt>
  <trkpt lat="33.263280" lon="-3.189357">
   <ele>1401.00</ele>
   <time>2014-03-31T17:05:07Z</time>
  </trkpt>
  <trkpt lat="33.263044" lon="-3.189414">
   <ele>1402.00</ele>
   <time>2014-03-31T17:05:10Z</time>
  </trkpt>
  <trkpt lat="33.262805" lon="-3.189532">
   <ele>1403.00</ele>
   <time>2014-03-31T17:05:13Z</time>
  </trkpt>
  <trkpt lat="33.262548" lon="-3.189661">
   <ele>1402.00</ele>
   <time>2014-03-31T17:05:17Z</time>
  </trkpt>
  <trkpt lat="33.262371" lon="-3.189632">
   <ele>1402.00</ele>
   <time>2014-03-31T17:05:21Z</time>
  </trkpt>
  <trkpt lat="33.262335" lon="-3.189415">
   <ele>1401.00</ele>
   <time>2014-03-31T17:05:24Z</time>
  </trkpt>
  <trkpt lat="33.262272" lon="-3.189177">
   <ele>1401.00</ele>
   <time>2014-03-31T17:05:27Z</time>
  </trkpt>
  <trkpt lat="33.262177" lon="-3.188930">
   <ele>1402.00</ele>
   <time>2014-03-31T17:05:30Z</time>
  </trkpt>
  <trkpt lat="33.262088" lon="-3.188661">
   <ele>1403.00</ele>
   <time>2014-03-31T17:05:33Z</time>
  </trkpt>
  <trkpt lat="33.261945" lon="-3.188292">
   <ele>1404.00</ele>
   <time>2014-03-31T17:05:37Z</time>
  </trkpt>
  <trkpt lat="33.261882" lon="-3.188024">
   <ele>1404.00</ele>
   <time>2014-03-31T17:05:40Z</time>
  </trkpt>
  <trkpt lat="33.261888" lon="-3.187760">
   <ele>1403.00</ele>
   <time>2014-03-31T17:05:43Z</time>
  </trkpt>
  <trkpt lat="33.261890" lon="-3.187506">
   <ele>1403.00</ele>
   <time>2014-03-31T17:05:46Z</time>
  </trkpt>
  <trkpt lat="33.261847" lon="-3.187271">
   <ele>1402.00</ele>
   <time>2014-03-31T17:05:49Z</time>
  </trkpt>
  <trkpt lat="33.261808" lon="-3.186951">
   <ele>1401.00</ele>
   <time>2014-03-31T17:05:54Z</time>
  </trkpt>
  <trkpt lat="33.261699" lon="-3.186777">
   <ele>1401.00</ele>
   <time>2014-03-31T17:05:58Z</time>
  </trkpt>
  <trkpt lat="33.261527" lon="-3.186637">
   <ele>1401.00</ele>
   <time>2014-03-31T17:06:02Z</time>
  </trkpt>
  <trkpt lat="33.261295" lon="-3.186482">
   <ele>1401.00</ele>
   <time>2014-03-31T17:06:06Z</time>
  </trkpt>
  <trkpt lat="33.261057" lon="-3.186334">
   <ele>1402.00</ele>
   <time>2014-03-31T17:06:10Z</time>
  </trkpt>
  <trkpt lat="33.260862" lon="-3.186274">
   <ele>1402.00</ele>
   <time>2014-03-31T17:06:13Z</time>
  </trkpt>
  <trkpt lat="33.260642" lon="-3.186288">
   <ele>1403.00</ele>
   <time>2014-03-31T17:06:16Z</time>
  </trkpt>
  <trkpt lat="33.260431" lon="-3.186355">
   <ele>1403.00</ele>
   <time>2014-03-31T17:06:19Z</time>
  </trkpt>
  <trkpt lat="33.260059" lon="-3.186484">
   <ele>1404.00</ele>
   <time>2014-03-31T17:06:24Z</time>
  </trkpt>
  <trkpt lat="33.259840" lon="-3.186600">
   <ele>1404.00</ele>
   <time>2014-03-31T17:06:27Z</time>
  </trkpt>
  <trkpt lat="33.259366" lon="-3.186875">
   <ele>1404.00</ele>
   <time>2014-03-31T17:06:34Z</time>
  </trkpt>
  <trkpt lat="33.259178" lon="-3.187006">
   <ele>1405.00</ele>
   <time>2014-03-31T17:06:37Z</time>
  </trkpt>
  <trkpt lat="33.258973" lon="-3.187110">
   <ele>1405.00</ele>
   <time>2014-03-31T17:06:40Z</time>
  </trkpt>
  <trkpt lat="33.258766" lon="-3.187089">
   <ele>1407.00</ele>
   <time>2014-03-31T17:06:43Z</time>
  </trkpt>
  <trkpt lat="33.258564" lon="-3.186981">
   <ele>1407.00</ele>
   <time>2014-03-31T17:06:46Z</time>
  </trkpt>
  <trkpt lat="33.258342" lon="-3.186892">
   <ele>1408.00</ele>
   <time>2014-03-31T17:06:49Z</time>
  </trkpt>
  <trkpt lat="33.258099" lon="-3.186846">
   <ele>1408.00</ele>
   <time>2014-03-31T17:06:52Z</time>
  </trkpt>
  <trkpt lat="33.256933" lon="-3.186681">
   <ele>1412.00</ele>
   <time>2014-03-31T17:07:07Z</time>
  </trkpt>
  <trkpt lat="33.256714" lon="-3.186637">
   <ele>1413.00</ele>
   <time>2014-03-31T17:07:11Z</time>
  </trkpt>
  <trkpt lat="33.256516" lon="-3.186604">
   <ele>1414.00</ele>
   <time>2014-03-31T17:07:15Z</time>
  </trkpt>
  <trkpt lat="33.256301" lon="-3.186570">
   <ele>1415.00</ele>
   <time>2014-03-31T17:07:19Z</time>
  </trkpt>
  <trkpt lat="33.256110" lon="-3.186520">
   <ele>1416.00</ele>
   <time>2014-03-31T17:07:23Z</time>
  </trkpt>
  <trkpt lat="33.255936" lon="-3.186456">
   <ele>1416.00</ele>
   <time>2014-03-31T17:07:27Z</time>
  </trkpt>
  <trkpt lat="33.255729" lon="-3.186368">
   <ele>1416.00</ele>
   <time>2014-03-31T17:07:32Z</time>
  </trkpt>
  <trkpt lat="33.255060" lon="-3.186047">
   <ele>1417.00</ele>
   <time>2014-03-31T17:07:47Z</time>
  </trkpt>
  <trkpt lat="33.254703" lon="-3.185852">
   <ele>1416.00</ele>
   <time>2014-03-31T17:07:55Z</time>
  </trkpt>
  <trkpt lat="33.254512" lon="-3.185758">
   <ele>1415.00</ele>
   <time>2014-03-31T17:07:59Z</time>
  </trkpt>
  <trkpt lat="33.254094" lon="-3.185523">
   <ele>1415.00</ele>
   <time>2014-03-31T17:08:08Z</time>
  </trkpt>
  <trkpt lat="33.253847" lon="-3.185352">
   <ele>1413.00</ele>
   <time>2014-03-31T17:08:13Z</time>
  </trkpt>
  <trkpt lat="33.253331" lon="-3.184975">
   <ele>1412.00</ele>
   <time>2014-03-31T17:08:24Z</time>
  </trkpt>
  <trkpt lat="33.253103" lon="-3.184795">
   <ele>1412.00</ele>
   <time>2014-03-31T17:08:29Z</time>
  </trkpt>
  <trkpt lat="33.252921" lon="-3.184632">
   <ele>1412.00</ele>
   <time>2014-03-31T17:08:33Z</time>
  </trkpt>
  <trkpt lat="33.252779" lon="-3.184489">
   <ele>1412.00</ele>
   <time>2014-03-31T17:08:37Z</time>
  </trkpt>
  <trkpt lat="33.252625" lon="-3.184333">
   <ele>1412.00</ele>
   <time>2014-03-31T17:08:44Z</time>
  </trkpt>
  <trkpt lat="33.252592" lon="-3.184291">
   <ele>1414.00</ele>
   <time>2014-03-31T17:08:59Z</time>
  </trkpt>
  <trkpt lat="33.252602" lon="-3.184294">
   <ele>1413.00</ele>
   <time>2014-03-31T17:09:15Z</time>
  </trkpt>
  <trkpt lat="33.252606" lon="-3.184294">
   <ele>1413.00</ele>
   <time>2014-03-31T17:09:30Z</time>
  </trkpt>
  <trkpt lat="33.252607" lon="-3.184294">
   <ele>1412.00</ele>
   <time>2014-03-31T17:09:45Z</time>
  </trkpt>
  <trkpt lat="33.252478" lon="-3.184144">
   <ele>1415.00</ele>
   <time>2014-03-31T17:09:57Z</time>
  </trkpt>
  <trkpt lat="33.252360" lon="-3.183977">
   <ele>1416.00</ele>
   <time>2014-03-31T17:10:01Z</time>
  </trkpt>
  <trkpt lat="33.252189" lon="-3.183782">
   <ele>1416.00</ele>
   <time>2014-03-31T17:10:05Z</time>
  </trkpt>
  <trkpt lat="33.252021" lon="-3.183663">
   <ele>1415.00</ele>
   <time>2014-03-31T17:10:08Z</time>
  </trkpt>
  <trkpt lat="33.251774" lon="-3.183525">
   <ele>1415.00</ele>
   <time>2014-03-31T17:10:12Z</time>
  </trkpt>
  <trkpt lat="33.251508" lon="-3.183381">
   <ele>1414.00</ele>
   <time>2014-03-31T17:10:16Z</time>
  </trkpt>
  <trkpt lat="33.251303" lon="-3.183238">
   <ele>1414.00</ele>
   <time>2014-03-31T17:10:19Z</time>
  </trkpt>
  <trkpt lat="33.251110" lon="-3.183060">
   <ele>1414.00</ele>
   <time>2014-03-31T17:10:22Z</time>
  </trkpt>
  <trkpt lat="33.250840" lon="-3.182800">
   <ele>1415.00</ele>
   <time>2014-03-31T17:10:26Z</time>
  </trkpt>
  <trkpt lat="33.250603" lon="-3.182603">
   <ele>1414.00</ele>
   <time>2014-03-31T17:10:29Z</time>
  </trkpt>
  <trkpt lat="33.250379" lon="-3.182417">
   <ele>1414.00</ele>
   <time>2014-03-31T17:10:32Z</time>
  </trkpt>
  <trkpt lat="33.250211" lon="-3.182257">
   <ele>1415.00</ele>
   <time>2014-03-31T17:10:35Z</time>
  </trkpt>
  <trkpt lat="33.250052" lon="-3.182107">
   <ele>1415.00</ele>
   <time>2014-03-31T17:10:41Z</time>
  </trkpt>
  <trkpt lat="33.249617" lon="-3.181755">
   <ele>1416.00</ele>
   <time>2014-03-31T17:10:51Z</time>
  </trkpt>
  <trkpt lat="33.249432" lon="-3.181695">
   <ele>1416.00</ele>
   <time>2014-03-31T17:10:55Z</time>
  </trkpt>
  <trkpt lat="33.249205" lon="-3.181627">
   <ele>1417.00</ele>
   <time>2014-03-31T17:11:00Z</time>
  </trkpt>
  <trkpt lat="33.249023" lon="-3.181516">
   <ele>1417.00</ele>
   <time>2014-03-31T17:11:03Z</time>
  </trkpt>
  <trkpt lat="33.248770" lon="-3.181346">
   <ele>1417.00</ele>
   <time>2014-03-31T17:11:07Z</time>
  </trkpt>
  <trkpt lat="33.248587" lon="-3.181175">
   <ele>1417.00</ele>
   <time>2014-03-31T17:11:10Z</time>
  </trkpt>
  <trkpt lat="33.248372" lon="-3.180919">
   <ele>1418.00</ele>
   <time>2014-03-31T17:11:14Z</time>
  </trkpt>
  <trkpt lat="33.248202" lon="-3.180786">
   <ele>1418.00</ele>
   <time>2014-03-31T17:11:17Z</time>
  </trkpt>
  <trkpt lat="33.248013" lon="-3.180697">
   <ele>1418.00</ele>
   <time>2014-03-31T17:11:20Z</time>
  </trkpt>
  <trkpt lat="33.247823" lon="-3.180602">
   <ele>1419.00</ele>
   <time>2014-03-31T17:11:23Z</time>
  </trkpt>
  <trkpt lat="33.247619" lon="-3.180459">
   <ele>1419.00</ele>
   <time>2014-03-31T17:11:27Z</time>
  </trkpt>
  <trkpt lat="33.247443" lon="-3.180358">
   <ele>1419.00</ele>
   <time>2014-03-31T17:11:30Z</time>
  </trkpt>
  <trkpt lat="33.247242" lon="-3.180275">
   <ele>1420.00</ele>
   <time>2014-03-31T17:11:33Z</time>
  </trkpt>
  <trkpt lat="33.247036" lon="-3.180145">
   <ele>1420.00</ele>
   <time>2014-03-31T17:11:36Z</time>
  </trkpt>
  <trkpt lat="33.246835" lon="-3.179980">
   <ele>1420.00</ele>
   <time>2014-03-31T17:11:39Z</time>
  </trkpt>
  <trkpt lat="33.246650" lon="-3.179791">
   <ele>1421.00</ele>
   <time>2014-03-31T17:11:42Z</time>
  </trkpt>
  <trkpt lat="33.246424" lon="-3.179536">
   <ele>1422.00</ele>
   <time>2014-03-31T17:11:46Z</time>
  </trkpt>
  <trkpt lat="33.246283" lon="-3.179329">
   <ele>1422.00</ele>
   <time>2014-03-31T17:11:49Z</time>
  </trkpt>
  <trkpt lat="33.246130" lon="-3.179140">
   <ele>1423.00</ele>
   <time>2014-03-31T17:11:52Z</time>
  </trkpt>
  <trkpt lat="33.245964" lon="-3.178930">
   <ele>1423.00</ele>
   <time>2014-03-31T17:11:55Z</time>
  </trkpt>
  <trkpt lat="33.245815" lon="-3.178672">
   <ele>1423.00</ele>
   <time>2014-03-31T17:11:58Z</time>
  </trkpt>
  <trkpt lat="33.245712" lon="-3.178493">
   <ele>1423.00</ele>
   <time>2014-03-31T17:12:00Z</time>
  </trkpt>
  <trkpt lat="33.245595" lon="-3.178324">
   <ele>1424.00</ele>
   <time>2014-03-31T17:12:02Z</time>
  </trkpt>
  <trkpt lat="33.245468" lon="-3.178163">
   <ele>1424.00</ele>
   <time>2014-03-31T17:12:04Z</time>
  </trkpt>
  <trkpt lat="33.245334" lon="-3.178010">
   <ele>1425.00</ele>
   <time>2014-03-31T17:12:06Z</time>
  </trkpt>
  <trkpt lat="33.245192" lon="-3.177864">
   <ele>1425.00</ele>
   <time>2014-03-31T17:12:08Z</time>
  </trkpt>
  <trkpt lat="33.245041" lon="-3.177734">
   <ele>1425.00</ele>
   <time>2014-03-31T17:12:10Z</time>
  </trkpt>
  <trkpt lat="33.244876" lon="-3.177619">
   <ele>1426.00</ele>
   <time>2014-03-31T17:12:12Z</time>
  </trkpt>
  <trkpt lat="33.244705" lon="-3.177519">
   <ele>1426.00</ele>
   <time>2014-03-31T17:12:14Z</time>
  </trkpt>
  <trkpt lat="33.244531" lon="-3.177436">
   <ele>1427.00</ele>
   <time>2014-03-31T17:12:16Z</time>
  </trkpt>
  <trkpt lat="33.244197" lon="-3.177301">
   <ele>1427.00</ele>
   <time>2014-03-31T17:12:20Z</time>
  </trkpt>
  <trkpt lat="33.243962" lon="-3.177185">
   <ele>1428.00</ele>
   <time>2014-03-31T17:12:23Z</time>
  </trkpt>
  <trkpt lat="33.243794" lon="-3.176990">
   <ele>1428.00</ele>
   <time>2014-03-31T17:12:26Z</time>
  </trkpt>
  <trkpt lat="33.243649" lon="-3.176815">
   <ele>1429.00</ele>
   <time>2014-03-31T17:12:29Z</time>
  </trkpt>
  <trkpt lat="33.243463" lon="-3.176688">
   <ele>1429.00</ele>
   <time>2014-03-31T17:12:35Z</time>
  </trkpt>
  <trkpt lat="33.243245" lon="-3.176580">
   <ele>1429.00</ele>
   <time>2014-03-31T17:12:39Z</time>
  </trkpt>
  <trkpt lat="33.242892" lon="-3.176416">
   <ele>1429.00</ele>
   <time>2014-03-31T17:12:44Z</time>
  </trkpt>
  <trkpt lat="33.242653" lon="-3.176333">
   <ele>1430.00</ele>
   <time>2014-03-31T17:12:47Z</time>
  </trkpt>
  <trkpt lat="33.242400" lon="-3.176288">
   <ele>1430.00</ele>
   <time>2014-03-31T17:12:50Z</time>
  </trkpt>
  <trkpt lat="33.242167" lon="-3.176297">
   <ele>1430.00</ele>
   <time>2014-03-31T17:12:53Z</time>
  </trkpt>
  <trkpt lat="33.241955" lon="-3.176388">
   <ele>1431.00</ele>
   <time>2014-03-31T17:12:56Z</time>
  </trkpt>
  <trkpt lat="33.241747" lon="-3.176465">
   <ele>1431.00</ele>
   <time>2014-03-31T17:12:59Z</time>
  </trkpt>
  <trkpt lat="33.241514" lon="-3.176455">
   <ele>1432.00</ele>
   <time>2014-03-31T17:13:02Z</time>
  </trkpt>
  <trkpt lat="33.241193" lon="-3.176401">
   <ele>1432.00</ele>
   <time>2014-03-31T17:13:06Z</time>
  </trkpt>
  <trkpt lat="33.240960" lon="-3.176320">
   <ele>1433.00</ele>
   <time>2014-03-31T17:13:09Z</time>
  </trkpt>
  <trkpt lat="33.240712" lon="-3.176247">
   <ele>1433.00</ele>
   <time>2014-03-31T17:13:12Z</time>
  </trkpt>
  <trkpt lat="33.240462" lon="-3.176208">
   <ele>1434.00</ele>
   <time>2014-03-31T17:13:15Z</time>
  </trkpt>
  <trkpt lat="33.240221" lon="-3.176190">
   <ele>1434.00</ele>
   <time>2014-03-31T17:13:18Z</time>
  </trkpt>
  <trkpt lat="33.239913" lon="-3.176177">
   <ele>1435.00</ele>
   <time>2014-03-31T17:13:22Z</time>
  </trkpt>
  <trkpt lat="33.239689" lon="-3.176121">
   <ele>1435.00</ele>
   <time>2014-03-31T17:13:25Z</time>
  </trkpt>
  <trkpt lat="33.239475" lon="-3.176015">
   <ele>1435.00</ele>
   <time>2014-03-31T17:13:28Z</time>
  </trkpt>
  <trkpt lat="33.239264" lon="-3.175886">
   <ele>1435.00</ele>
   <time>2014-03-31T17:13:31Z</time>
  </trkpt>
  <trkpt lat="33.239068" lon="-3.175816">
   <ele>1435.00</ele>
   <time>2014-03-31T17:13:34Z</time>
  </trkpt>
  <trkpt lat="33.238839" lon="-3.175832">
   <ele>1436.00</ele>
   <time>2014-03-31T17:13:38Z</time>
  </trkpt>
  <trkpt lat="33.238651" lon="-3.175815">
   <ele>1436.00</ele>
   <time>2014-03-31T17:13:41Z</time>
  </trkpt>
  <trkpt lat="33.238441" lon="-3.175722">
   <ele>1436.00</ele>
   <time>2014-03-31T17:13:44Z</time>
  </trkpt>
  <trkpt lat="33.237979" lon="-3.175497">
   <ele>1437.00</ele>
   <time>2014-03-31T17:13:50Z</time>
  </trkpt>
  <trkpt lat="33.237768" lon="-3.175359">
   <ele>1437.00</ele>
   <time>2014-03-31T17:13:53Z</time>
  </trkpt>
  <trkpt lat="33.237571" lon="-3.175242">
   <ele>1437.00</ele>
   <time>2014-03-31T17:13:56Z</time>
  </trkpt>
  <trkpt lat="33.237422" lon="-3.175119">
   <ele>1437.00</ele>
   <time>2014-03-31T17:14:00Z</time>
  </trkpt>
  <trkpt lat="33.237212" lon="-3.175015">
   <ele>1438.00</ele>
   <time>2014-03-31T17:14:04Z</time>
  </trkpt>
  <trkpt lat="33.237007" lon="-3.174955">
   <ele>1439.00</ele>
   <time>2014-03-31T17:14:07Z</time>
  </trkpt>
  <trkpt lat="33.236803" lon="-3.174907">
   <ele>1440.00</ele>
   <time>2014-03-31T17:14:10Z</time>
  </trkpt>
  <trkpt lat="33.236617" lon="-3.174805">
   <ele>1441.00</ele>
   <time>2014-03-31T17:14:15Z</time>
  </trkpt>
  <trkpt lat="33.236453" lon="-3.174710">
   <ele>1442.00</ele>
   <time>2014-03-31T17:14:19Z</time>
  </trkpt>
  <trkpt lat="33.236046" lon="-3.174520">
   <ele>1442.00</ele>
   <time>2014-03-31T17:14:26Z</time>
  </trkpt>
  <trkpt lat="33.235840" lon="-3.174420">
   <ele>1443.00</ele>
   <time>2014-03-31T17:14:30Z</time>
  </trkpt>
  <trkpt lat="33.235672" lon="-3.174340">
   <ele>1443.00</ele>
   <time>2014-03-31T17:14:33Z</time>
  </trkpt>
  <trkpt lat="33.235047" lon="-3.174002">
   <ele>1445.00</ele>
   <time>2014-03-31T17:14:44Z</time>
  </trkpt>
  <trkpt lat="33.234804" lon="-3.173848">
   <ele>1445.00</ele>
   <time>2014-03-31T17:14:49Z</time>
  </trkpt>
  <trkpt lat="33.234310" lon="-3.173596">
   <ele>1447.00</ele>
   <time>2014-03-31T17:14:58Z</time>
  </trkpt>
  <trkpt lat="33.233923" lon="-3.173402">
   <ele>1447.00</ele>
   <time>2014-03-31T17:15:06Z</time>
  </trkpt>
  <trkpt lat="33.233101" lon="-3.172988">
   <ele>1449.00</ele>
   <time>2014-03-31T17:15:21Z</time>
  </trkpt>
  <trkpt lat="33.232879" lon="-3.172876">
   <ele>1449.00</ele>
   <time>2014-03-31T17:15:25Z</time>
  </trkpt>
  <trkpt lat="33.232694" lon="-3.172798">
   <ele>1449.00</ele>
   <time>2014-03-31T17:15:28Z</time>
  </trkpt>
  <trkpt lat="33.232506" lon="-3.172697">
   <ele>1449.00</ele>
   <time>2014-03-31T17:15:31Z</time>
  </trkpt>
  <trkpt lat="33.232254" lon="-3.172550">
   <ele>1449.00</ele>
   <time>2014-03-31T17:15:35Z</time>
  </trkpt>
  <trkpt lat="33.231542" lon="-3.172172">
   <ele>1446.00</ele>
   <time>2014-03-31T17:15:49Z</time>
  </trkpt>
  <trkpt lat="33.231345" lon="-3.172048">
   <ele>1445.00</ele>
   <time>2014-03-31T17:15:56Z</time>
  </trkpt>
  <trkpt lat="33.231201" lon="-3.172085">
   <ele>1445.00</ele>
   <time>2014-03-31T17:16:05Z</time>
  </trkpt>
  <trkpt lat="33.231122" lon="-3.172308">
   <ele>1443.00</ele>
   <time>2014-03-31T17:16:13Z</time>
  </trkpt>
  <trkpt lat="33.231110" lon="-3.172540">
   <ele>1444.00</ele>
   <time>2014-03-31T17:16:19Z</time>
  </trkpt>
  <trkpt lat="33.231066" lon="-3.172770">
   <ele>1445.00</ele>
   <time>2014-03-31T17:16:25Z</time>
  </trkpt>
  <trkpt lat="33.231117" lon="-3.172991">
   <ele>1445.00</ele>
   <time>2014-03-31T17:16:33Z</time>
  </trkpt>
  <trkpt lat="33.231123" lon="-3.173210">
   <ele>1447.00</ele>
   <time>2014-03-31T17:16:39Z</time>
  </trkpt>
  <trkpt lat="33.231143" lon="-3.173556">
   <ele>1448.00</ele>
   <time>2014-03-31T17:16:49Z</time>
  </trkpt>
  <trkpt lat="33.231143" lon="-3.173801">
   <ele>1449.00</ele>
   <time>2014-03-31T17:16:56Z</time>
  </trkpt>
  <trkpt lat="33.231086" lon="-3.174045">
   <ele>1450.00</ele>
   <time>2014-03-31T17:17:03Z</time>
  </trkpt>
  <trkpt lat="33.231105" lon="-3.174283">
   <ele>1451.00</ele>
   <time>2014-03-31T17:17:09Z</time>
  </trkpt>
  <trkpt lat="33.231102" lon="-3.174524">
   <ele>1454.00</ele>
   <time>2014-03-31T17:17:15Z</time>
  </trkpt>
  <trkpt lat="33.231024" lon="-3.174736">
   <ele>1456.00</ele>
   <time>2014-03-31T17:17:21Z</time>
  </trkpt>
  <trkpt lat="33.230948" lon="-3.175000">
   <ele>1457.00</ele>
   <time>2014-03-31T17:17:29Z</time>
  </trkpt>
  <trkpt lat="33.230899" lon="-3.175218">
   <ele>1458.00</ele>
   <time>2014-03-31T17:17:37Z</time>
  </trkpt>
  <trkpt lat="33.231001" lon="-3.175117">
   <ele>1456.00</ele>
   <time>2014-03-31T17:17:46Z</time>
  </trkpt>
  <trkpt lat="33.231015" lon="-3.175082">
   <ele>1454.00</ele>
   <time>2014-03-31T17:18:01Z</time>
  </trkpt>
  <trkpt lat="33.231025" lon="-3.175078">
   <ele>1451.00</ele>
   <time>2014-03-31T17:18:17Z</time>
  </trkpt>
  <trkpt lat="33.231028" lon="-3.175078">
   <ele>1451.00</ele>
   <time>2014-03-31T17:18:32Z</time>
  </trkpt>
  <trkpt lat="33.231030" lon="-3.175077">
   <ele>1450.00</ele>
   <time>2014-03-31T17:18:47Z</time>
  </trkpt>
  <trkpt lat="33.231029" lon="-3.175077">
   <ele>1451.00</ele>
   <time>2014-03-31T17:19:03Z</time>
  </trkpt>
  <trkpt lat="33.231028" lon="-3.175077">
   <ele>1451.00</ele>
   <time>2014-03-31T17:19:04Z</time>
  </trkpt>
 </trkseg>
</trk>
<trk>
 <name>GPS_20140401</name>
 <trkseg>
  <trkpt lat="33.230817" lon="-3.175172">
   <ele>1445.00</ele>
   <time>2014-04-01T08:09:32Z</time>
  </trkpt>
  <trkpt lat="33.230818" lon="-3.175171">
   <ele>1445.00</ele>
   <time>2014-04-01T08:09:48Z</time>
  </trkpt>
  <trkpt lat="33.230918" lon="-3.175164">
   <ele>1445.00</ele>
   <time>2014-04-01T08:10:03Z</time>
  </trkpt>
  <trkpt lat="33.230899" lon="-3.174949">
   <ele>1445.00</ele>
   <time>2014-04-01T08:10:11Z</time>
  </trkpt>
  <trkpt lat="33.230917" lon="-3.174723">
   <ele>1444.00</ele>
   <time>2014-04-01T08:10:19Z</time>
  </trkpt>
  <trkpt lat="33.230992" lon="-3.174508">
   <ele>1443.00</ele>
   <time>2014-04-01T08:10:26Z</time>
  </trkpt>
  <trkpt lat="33.231003" lon="-3.174287">
   <ele>1442.00</ele>
   <time>2014-04-01T08:10:32Z</time>
  </trkpt>
  <trkpt lat="33.230991" lon="-3.174054">
   <ele>1441.00</ele>
   <time>2014-04-01T08:10:38Z</time>
  </trkpt>
  <trkpt lat="33.231020" lon="-3.173833">
   <ele>1440.00</ele>
   <time>2014-04-01T08:10:44Z</time>
  </trkpt>
  <trkpt lat="33.231027" lon="-3.173599">
   <ele>1439.00</ele>
   <time>2014-04-01T08:10:52Z</time>
  </trkpt>
  <trkpt lat="33.231039" lon="-3.173360">
   <ele>1438.00</ele>
   <time>2014-04-01T08:10:59Z</time>
  </trkpt>
  <trkpt lat="33.231028" lon="-3.173137">
   <ele>1437.00</ele>
   <time>2014-04-01T08:11:05Z</time>
  </trkpt>
  <trkpt lat="33.230976" lon="-3.172873">
   <ele>1436.00</ele>
   <time>2014-04-01T08:11:14Z</time>
  </trkpt>
  <trkpt lat="33.230975" lon="-3.172640">
   <ele>1436.00</ele>
   <time>2014-04-01T08:11:22Z</time>
  </trkpt>
  <trkpt lat="33.230999" lon="-3.172418">
   <ele>1435.00</ele>
   <time>2014-04-01T08:11:27Z</time>
  </trkpt>
  <trkpt lat="33.231072" lon="-3.172216">
   <ele>1435.00</ele>
   <time>2014-04-01T08:11:32Z</time>
  </trkpt>
  <trkpt lat="33.231070" lon="-3.172000">
   <ele>1435.00</ele>
   <time>2014-04-01T08:11:37Z</time>
  </trkpt>
  <trkpt lat="33.230901" lon="-3.171865">
   <ele>1435.00</ele>
   <time>2014-04-01T08:11:42Z</time>
  </trkpt>
  <trkpt lat="33.230727" lon="-3.171753">
   <ele>1435.00</ele>
   <time>2014-04-01T08:11:46Z</time>
  </trkpt>
  <trkpt lat="33.230545" lon="-3.171635">
   <ele>1435.00</ele>
   <time>2014-04-01T08:11:50Z</time>
  </trkpt>
  <trkpt lat="33.230273" lon="-3.171463">
   <ele>1435.00</ele>
   <time>2014-04-01T08:11:56Z</time>
  </trkpt>
  <trkpt lat="33.230075" lon="-3.171329">
   <ele>1435.00</ele>
   <time>2014-04-01T08:12:02Z</time>
  </trkpt>
  <trkpt lat="33.230063" lon="-3.171327">
   <ele>1435.00</ele>
   <time>2014-04-01T08:12:18Z</time>
  </trkpt>
  <trkpt lat="33.229896" lon="-3.171210">
   <ele>1434.00</ele>
   <time>2014-04-01T08:12:24Z</time>
  </trkpt>
  <trkpt lat="33.229729" lon="-3.171099">
   <ele>1434.00</ele>
   <time>2014-04-01T08:12:29Z</time>
  </trkpt>
  <trkpt lat="33.229536" lon="-3.170967">
   <ele>1433.00</ele>
   <time>2014-04-01T08:12:35Z</time>
  </trkpt>
  <trkpt lat="33.229364" lon="-3.170841">
   <ele>1432.00</ele>
   <time>2014-04-01T08:12:41Z</time>
  </trkpt>
  <trkpt lat="33.229229" lon="-3.170681">
   <ele>1432.00</ele>
   <time>2014-04-01T08:12:45Z</time>
  </trkpt>
  <trkpt lat="33.229117" lon="-3.170507">
   <ele>1433.00</ele>
   <time>2014-04-01T08:12:49Z</time>
  </trkpt>
  <trkpt lat="33.228951" lon="-3.170372">
   <ele>1433.00</ele>
   <time>2014-04-01T08:12:53Z</time>
  </trkpt>
  <trkpt lat="33.228762" lon="-3.170248">
   <ele>1433.00</ele>
   <time>2014-04-01T08:12:57Z</time>
  </trkpt>
  <trkpt lat="33.228449" lon="-3.170067">
   <ele>1433.00</ele>
   <time>2014-04-01T08:13:03Z</time>
  </trkpt>
  <trkpt lat="33.228218" lon="-3.170000">
   <ele>1433.00</ele>
   <time>2014-04-01T08:13:07Z</time>
  </trkpt>
  <trkpt lat="33.227994" lon="-3.169966">
   <ele>1433.00</ele>
   <time>2014-04-01T08:13:11Z</time>
  </trkpt>
  <trkpt lat="33.227775" lon="-3.169907">
   <ele>1432.00</ele>
   <time>2014-04-01T08:13:15Z</time>
  </trkpt>
  <trkpt lat="33.227587" lon="-3.169752">
   <ele>1432.00</ele>
   <time>2014-04-01T08:13:19Z</time>
  </trkpt>
  <trkpt lat="33.227461" lon="-3.169514">
   <ele>1432.00</ele>
   <time>2014-04-01T08:13:23Z</time>
  </trkpt>
  <trkpt lat="33.227366" lon="-3.169289">
   <ele>1431.00</ele>
   <time>2014-04-01T08:13:27Z</time>
  </trkpt>
  <trkpt lat="33.227380" lon="-3.169048">
   <ele>1430.00</ele>
   <time>2014-04-01T08:13:31Z</time>
  </trkpt>
  <trkpt lat="33.227506" lon="-3.168723">
   <ele>1429.00</ele>
   <time>2014-04-01T08:13:36Z</time>
  </trkpt>
  <trkpt lat="33.227533" lon="-3.168445">
   <ele>1428.00</ele>
   <time>2014-04-01T08:13:40Z</time>
  </trkpt>
  <trkpt lat="33.227434" lon="-3.168213">
   <ele>1427.00</ele>
   <time>2014-04-01T08:13:45Z</time>
  </trkpt>
  <trkpt lat="33.227365" lon="-3.167997">
   <ele>1428.00</ele>
   <time>2014-04-01T08:13:49Z</time>
  </trkpt>
  <trkpt lat="33.227368" lon="-3.167698">
   <ele>1427.00</ele>
   <time>2014-04-01T08:13:53Z</time>
  </trkpt>
  <trkpt lat="33.227345" lon="-3.167471">
   <ele>1427.00</ele>
   <time>2014-04-01T08:13:56Z</time>
  </trkpt>
  <trkpt lat="33.227316" lon="-3.167246">
   <ele>1427.00</ele>
   <time>2014-04-01T08:13:59Z</time>
  </trkpt>
  <trkpt lat="33.227222" lon="-3.166718">
   <ele>1426.00</ele>
   <time>2014-04-01T08:14:07Z</time>
  </trkpt>
  <trkpt lat="33.227163" lon="-3.166498">
   <ele>1426.00</ele>
   <time>2014-04-01T08:14:10Z</time>
  </trkpt>
  <trkpt lat="33.227088" lon="-3.166285">
   <ele>1426.00</ele>
   <time>2014-04-01T08:14:13Z</time>
  </trkpt>
  <trkpt lat="33.226971" lon="-3.165986">
   <ele>1425.00</ele>
   <time>2014-04-01T08:14:17Z</time>
  </trkpt>
  <trkpt lat="33.226880" lon="-3.165767">
   <ele>1426.00</ele>
   <time>2014-04-01T08:14:20Z</time>
  </trkpt>
  <trkpt lat="33.226703" lon="-3.165585">
   <ele>1426.00</ele>
   <time>2014-04-01T08:14:24Z</time>
  </trkpt>
  <trkpt lat="33.226496" lon="-3.165499">
   <ele>1425.00</ele>
   <time>2014-04-01T08:14:27Z</time>
  </trkpt>
  <trkpt lat="33.226038" lon="-3.165362">
   <ele>1425.00</ele>
   <time>2014-04-01T08:14:32Z</time>
  </trkpt>
  <trkpt lat="33.225280" lon="-3.165071">
   <ele>1426.00</ele>
   <time>2014-04-01T08:14:40Z</time>
  </trkpt>
  <trkpt lat="33.225096" lon="-3.165029">
   <ele>1427.00</ele>
   <time>2014-04-01T08:14:42Z</time>
  </trkpt>
  <trkpt lat="33.224720" lon="-3.164951">
   <ele>1428.00</ele>
   <time>2014-04-01T08:14:46Z</time>
  </trkpt>
  <trkpt lat="33.224540" lon="-3.164891">
   <ele>1428.00</ele>
   <time>2014-04-01T08:14:48Z</time>
  </trkpt>
  <trkpt lat="33.224297" lon="-3.164797">
   <ele>1428.00</ele>
   <time>2014-04-01T08:14:51Z</time>
  </trkpt>
  <trkpt lat="33.224113" lon="-3.164730">
   <ele>1427.00</ele>
   <time>2014-04-01T08:14:56Z</time>
  </trkpt>
  <trkpt lat="33.223910" lon="-3.164731">
   <ele>1428.00</ele>
   <time>2014-04-01T08:15:02Z</time>
  </trkpt>
  <trkpt lat="33.223706" lon="-3.164824">
   <ele>1429.00</ele>
   <time>2014-04-01T08:15:06Z</time>
  </trkpt>
  <trkpt lat="33.223517" lon="-3.164931">
   <ele>1429.00</ele>
   <time>2014-04-01T08:15:09Z</time>
  </trkpt>
  <trkpt lat="33.223319" lon="-3.165025">
   <ele>1430.00</ele>
   <time>2014-04-01T08:15:12Z</time>
  </trkpt>
  <trkpt lat="33.223109" lon="-3.165056">
   <ele>1431.00</ele>
   <time>2014-04-01T08:15:15Z</time>
  </trkpt>
  <trkpt lat="33.222900" lon="-3.165027">
   <ele>1431.00</ele>
   <time>2014-04-01T08:15:18Z</time>
  </trkpt>
  <trkpt lat="33.222713" lon="-3.164950">
   <ele>1430.00</ele>
   <time>2014-04-01T08:15:22Z</time>
  </trkpt>
  <trkpt lat="33.222514" lon="-3.164819">
   <ele>1430.00</ele>
   <time>2014-04-01T08:15:26Z</time>
  </trkpt>
  <trkpt lat="33.222260" lon="-3.164627">
   <ele>1430.00</ele>
   <time>2014-04-01T08:15:30Z</time>
  </trkpt>
  <trkpt lat="33.222044" lon="-3.164501">
   <ele>1430.00</ele>
   <time>2014-04-01T08:15:33Z</time>
  </trkpt>
  <trkpt lat="33.221818" lon="-3.164412">
   <ele>1430.00</ele>
   <time>2014-04-01T08:15:36Z</time>
  </trkpt>
  <trkpt lat="33.221352" lon="-3.164255">
   <ele>1430.00</ele>
   <time>2014-04-01T08:15:42Z</time>
  </trkpt>
  <trkpt lat="33.221106" lon="-3.164218">
   <ele>1431.00</ele>
   <time>2014-04-01T08:15:45Z</time>
  </trkpt>
  <trkpt lat="33.220817" lon="-3.164180">
   <ele>1432.00</ele>
   <time>2014-04-01T08:15:49Z</time>
  </trkpt>
  <trkpt lat="33.220434" lon="-3.164101">
   <ele>1433.00</ele>
   <time>2014-04-01T08:15:54Z</time>
  </trkpt>
  <trkpt lat="33.220049" lon="-3.164007">
   <ele>1433.00</ele>
   <time>2014-04-01T08:15:58Z</time>
  </trkpt>
  <trkpt lat="33.219597" lon="-3.163877">
   <ele>1433.00</ele>
   <time>2014-04-01T08:16:03Z</time>
  </trkpt>
  <trkpt lat="33.219416" lon="-3.163844">
   <ele>1433.00</ele>
   <time>2014-04-01T08:16:05Z</time>
  </trkpt>
  <trkpt lat="33.219020" lon="-3.163803">
   <ele>1434.00</ele>
   <time>2014-04-01T08:16:10Z</time>
  </trkpt>
  <trkpt lat="33.218780" lon="-3.163820">
   <ele>1434.00</ele>
   <time>2014-04-01T08:16:13Z</time>
  </trkpt>
  <trkpt lat="33.218538" lon="-3.163815">
   <ele>1435.00</ele>
   <time>2014-04-01T08:16:16Z</time>
  </trkpt>
  <trkpt lat="33.218314" lon="-3.163759">
   <ele>1435.00</ele>
   <time>2014-04-01T08:16:19Z</time>
  </trkpt>
  <trkpt lat="33.217856" lon="-3.163639">
   <ele>1435.00</ele>
   <time>2014-04-01T08:16:26Z</time>
  </trkpt>
  <trkpt lat="33.217634" lon="-3.163593">
   <ele>1436.00</ele>
   <time>2014-04-01T08:16:30Z</time>
  </trkpt>
  <trkpt lat="33.217438" lon="-3.163545">
   <ele>1435.00</ele>
   <time>2014-04-01T08:16:40Z</time>
  </trkpt>
  <trkpt lat="33.217195" lon="-3.163489">
   <ele>1436.00</ele>
   <time>2014-04-01T08:16:47Z</time>
  </trkpt>
  <trkpt lat="33.217004" lon="-3.163447">
   <ele>1435.00</ele>
   <time>2014-04-01T08:16:58Z</time>
  </trkpt>
  <trkpt lat="33.216789" lon="-3.163468">
   <ele>1435.00</ele>
   <time>2014-04-01T08:17:05Z</time>
  </trkpt>
  <trkpt lat="33.216440" lon="-3.163559">
   <ele>1435.00</ele>
   <time>2014-04-01T08:17:11Z</time>
  </trkpt>
  <trkpt lat="33.216217" lon="-3.163587">
   <ele>1435.00</ele>
   <time>2014-04-01T08:17:14Z</time>
  </trkpt>
  <trkpt lat="33.215566" lon="-3.163632">
   <ele>1436.00</ele>
   <time>2014-04-01T08:17:23Z</time>
  </trkpt>
  <trkpt lat="33.215340" lon="-3.163665">
   <ele>1437.00</ele>
   <time>2014-04-01T08:17:27Z</time>
  </trkpt>
  <trkpt lat="33.215116" lon="-3.163739">
   <ele>1437.00</ele>
   <time>2014-04-01T08:17:31Z</time>
  </trkpt>
  <trkpt lat="33.214869" lon="-3.163828">
   <ele>1437.00</ele>
   <time>2014-04-01T08:17:36Z</time>
  </trkpt>
  <trkpt lat="33.214699" lon="-3.163904">
   <ele>1437.00</ele>
   <time>2014-04-01T08:17:48Z</time>
  </trkpt>
  <trkpt lat="33.214513" lon="-3.163984">
   <ele>1437.00</ele>
   <time>2014-04-01T08:17:57Z</time>
  </trkpt>
  <trkpt lat="33.214337" lon="-3.164067">
   <ele>1438.00</ele>
   <time>2014-04-01T08:18:04Z</time>
  </trkpt>
  <trkpt lat="33.214169" lon="-3.164166">
   <ele>1438.00</ele>
   <time>2014-04-01T08:18:11Z</time>
  </trkpt>
  <trkpt lat="33.214099" lon="-3.164215">
   <ele>1437.00</ele>
   <time>2014-04-01T08:18:26Z</time>
  </trkpt>
  <trkpt lat="33.214104" lon="-3.164213">
   <ele>1437.00</ele>
   <time>2014-04-01T08:18:42Z</time>
  </trkpt>
  <trkpt lat="33.214106" lon="-3.164212">
   <ele>1437.00</ele>
   <time>2014-04-01T08:18:57Z</time>
  </trkpt>
  <trkpt lat="33.214107" lon="-3.164212">
   <ele>1436.00</ele>
   <time>2014-04-01T08:19:12Z</time>
  </trkpt>
  <trkpt lat="33.213932" lon="-3.164314">
   <ele>1438.00</ele>
   <time>2014-04-01T08:19:23Z</time>
  </trkpt>
  <trkpt lat="33.213758" lon="-3.164376">
   <ele>1438.00</ele>
   <time>2014-04-01T08:19:28Z</time>
  </trkpt>
  <trkpt lat="33.213596" lon="-3.164473">
   <ele>1438.00</ele>
   <time>2014-04-01T08:19:33Z</time>
  </trkpt>
  <trkpt lat="33.213415" lon="-3.164575">
   <ele>1438.00</ele>
   <time>2014-04-01T08:19:38Z</time>
  </trkpt>
  <trkpt lat="33.213174" lon="-3.164700">
   <ele>1438.00</ele>
   <time>2014-04-01T08:19:43Z</time>
  </trkpt>
  <trkpt lat="33.212948" lon="-3.164843">
   <ele>1439.00</ele>
   <time>2014-04-01T08:19:47Z</time>
  </trkpt>
  <trkpt lat="33.212712" lon="-3.164992">
   <ele>1439.00</ele>
   <time>2014-04-01T08:19:51Z</time>
  </trkpt>
  <trkpt lat="33.212536" lon="-3.165076">
   <ele>1439.00</ele>
   <time>2014-04-01T08:19:54Z</time>
  </trkpt>
  <trkpt lat="33.212333" lon="-3.165155">
   <ele>1440.00</ele>
   <time>2014-04-01T08:19:58Z</time>
  </trkpt>
  <trkpt lat="33.212297" lon="-3.165186">
   <ele>1440.00</ele>
   <time>2014-04-01T08:20:08Z</time>
  </trkpt>
  <trkpt lat="33.212115" lon="-3.165103">
   <ele>1438.00</ele>
   <time>2014-04-01T08:20:19Z</time>
  </trkpt>
  <trkpt lat="33.211995" lon="-3.165242">
   <ele>1439.00</ele>
   <time>2014-04-01T08:20:28Z</time>
  </trkpt>
  <trkpt lat="33.211847" lon="-3.165394">
   <ele>1439.00</ele>
   <time>2014-04-01T08:20:34Z</time>
  </trkpt>
  <trkpt lat="33.211653" lon="-3.165466">
   <ele>1440.00</ele>
   <time>2014-04-01T08:20:41Z</time>
  </trkpt>
  <trkpt lat="33.211466" lon="-3.165529">
   <ele>1441.00</ele>
   <time>2014-04-01T08:20:48Z</time>
  </trkpt>
  <trkpt lat="33.211159" lon="-3.165654">
   <ele>1442.00</ele>
   <time>2014-04-01T08:20:58Z</time>
  </trkpt>
  <trkpt lat="33.210960" lon="-3.165736">
   <ele>1442.00</ele>
   <time>2014-04-01T08:21:03Z</time>
  </trkpt>
  <trkpt lat="33.210781" lon="-3.165810">
   <ele>1443.00</ele>
   <time>2014-04-01T08:21:07Z</time>
  </trkpt>
  <trkpt lat="33.210593" lon="-3.165861">
   <ele>1443.00</ele>
   <time>2014-04-01T08:21:11Z</time>
  </trkpt>
  <trkpt lat="33.210405" lon="-3.165896">
   <ele>1443.00</ele>
   <time>2014-04-01T08:21:15Z</time>
  </trkpt>
  <trkpt lat="33.210219" lon="-3.165935">
   <ele>1442.00</ele>
   <time>2014-04-01T08:21:19Z</time>
  </trkpt>
  <trkpt lat="33.210023" lon="-3.165995">
   <ele>1442.00</ele>
   <time>2014-04-01T08:21:23Z</time>
  </trkpt>
  <trkpt lat="33.209824" lon="-3.166079">
   <ele>1442.00</ele>
   <time>2014-04-01T08:21:27Z</time>
  </trkpt>
  <trkpt lat="33.209653" lon="-3.166218">
   <ele>1443.00</ele>
   <time>2014-04-01T08:21:31Z</time>
  </trkpt>
  <trkpt lat="33.209563" lon="-3.166428">
   <ele>1443.00</ele>
   <time>2014-04-01T08:21:35Z</time>
  </trkpt>
  <trkpt lat="33.209565" lon="-3.166648">
   <ele>1443.00</ele>
   <time>2014-04-01T08:21:39Z</time>
  </trkpt>
  <trkpt lat="33.209499" lon="-3.166872">
   <ele>1443.00</ele>
   <time>2014-04-01T08:21:44Z</time>
  </trkpt>
  <trkpt lat="33.209336" lon="-3.166928">
   <ele>1443.00</ele>
   <time>2014-04-01T08:21:53Z</time>
  </trkpt>
  <trkpt lat="33.209151" lon="-3.166896">
   <ele>1444.00</ele>
   <time>2014-04-01T08:22:03Z</time>
  </trkpt>
  <trkpt lat="33.208934" lon="-3.166882">
   <ele>1444.00</ele>
   <time>2014-04-01T08:22:09Z</time>
  </trkpt>
  <trkpt lat="33.208761" lon="-3.166945">
   <ele>1445.00</ele>
   <time>2014-04-01T08:22:13Z</time>
  </trkpt>
  <trkpt lat="33.208593" lon="-3.167076">
   <ele>1445.00</ele>
   <time>2014-04-01T08:22:17Z</time>
  </trkpt>
  <trkpt lat="33.208222" lon="-3.167412">
   <ele>1446.00</ele>
   <time>2014-04-01T08:22:26Z</time>
  </trkpt>
  <trkpt lat="33.208065" lon="-3.167554">
   <ele>1446.00</ele>
   <time>2014-04-01T08:22:30Z</time>
  </trkpt>
  <trkpt lat="33.207894" lon="-3.167709">
   <ele>1446.00</ele>
   <time>2014-04-01T08:22:34Z</time>
  </trkpt>
  <trkpt lat="33.207703" lon="-3.167857">
   <ele>1447.00</ele>
   <time>2014-04-01T08:22:38Z</time>
  </trkpt>
  <trkpt lat="33.207503" lon="-3.167983">
   <ele>1447.00</ele>
   <time>2014-04-01T08:22:42Z</time>
  </trkpt>
  <trkpt lat="33.207311" lon="-3.168070">
   <ele>1447.00</ele>
   <time>2014-04-01T08:22:46Z</time>
  </trkpt>
  <trkpt lat="33.207117" lon="-3.168131">
   <ele>1448.00</ele>
   <time>2014-04-01T08:22:50Z</time>
  </trkpt>
  <trkpt lat="33.206923" lon="-3.168179">
   <ele>1448.00</ele>
   <time>2014-04-01T08:22:54Z</time>
  </trkpt>
  <trkpt lat="33.206724" lon="-3.168243">
   <ele>1448.00</ele>
   <time>2014-04-01T08:22:58Z</time>
  </trkpt>
  <trkpt lat="33.206386" lon="-3.168351">
   <ele>1447.00</ele>
   <time>2014-04-01T08:23:09Z</time>
  </trkpt>
  <trkpt lat="33.206197" lon="-3.168370">
   <ele>1447.00</ele>
   <time>2014-04-01T08:23:15Z</time>
  </trkpt>
  <trkpt lat="33.205998" lon="-3.168377">
   <ele>1447.00</ele>
   <time>2014-04-01T08:23:22Z</time>
  </trkpt>
  <trkpt lat="33.205836" lon="-3.168486">
   <ele>1447.00</ele>
   <time>2014-04-01T08:23:29Z</time>
  </trkpt>
  <trkpt lat="33.205675" lon="-3.168646">
   <ele>1448.00</ele>
   <time>2014-04-01T08:23:36Z</time>
  </trkpt>
  <trkpt lat="33.205519" lon="-3.168782">
   <ele>1449.00</ele>
   <time>2014-04-01T08:23:41Z</time>
  </trkpt>
  <trkpt lat="33.205369" lon="-3.168926">
   <ele>1449.00</ele>
   <time>2014-04-01T08:23:45Z</time>
  </trkpt>
  <trkpt lat="33.205196" lon="-3.169060">
   <ele>1449.00</ele>
   <time>2014-04-01T08:23:49Z</time>
  </trkpt>
  <trkpt lat="33.204987" lon="-3.169203">
   <ele>1449.00</ele>
   <time>2014-04-01T08:23:54Z</time>
  </trkpt>
  <trkpt lat="33.204816" lon="-3.169305">
   <ele>1449.00</ele>
   <time>2014-04-01T08:23:59Z</time>
  </trkpt>
  <trkpt lat="33.204626" lon="-3.169343">
   <ele>1449.00</ele>
   <time>2014-04-01T08:24:04Z</time>
  </trkpt>
  <trkpt lat="33.204457" lon="-3.169419">
   <ele>1449.00</ele>
   <time>2014-04-01T08:24:09Z</time>
  </trkpt>
  <trkpt lat="33.204331" lon="-3.169577">
   <ele>1449.00</ele>
   <time>2014-04-01T08:24:14Z</time>
  </trkpt>
  <trkpt lat="33.204195" lon="-3.169810">
   <ele>1449.00</ele>
   <time>2014-04-01T08:24:20Z</time>
  </trkpt>
  <trkpt lat="33.204051" lon="-3.169982">
   <ele>1449.00</ele>
   <time>2014-04-01T08:24:24Z</time>
  </trkpt>
  <trkpt lat="33.203891" lon="-3.170151">
   <ele>1450.00</ele>
   <time>2014-04-01T08:24:28Z</time>
  </trkpt>
  <trkpt lat="33.203706" lon="-3.170257">
   <ele>1451.00</ele>
   <time>2014-04-01T08:24:32Z</time>
  </trkpt>
  <trkpt lat="33.203498" lon="-3.170316">
   <ele>1451.00</ele>
   <time>2014-04-01T08:24:36Z</time>
  </trkpt>
  <trkpt lat="33.203265" lon="-3.170317">
   <ele>1452.00</ele>
   <time>2014-04-01T08:24:40Z</time>
  </trkpt>
  <trkpt lat="33.203081" lon="-3.170279">
   <ele>1452.00</ele>
   <time>2014-04-01T08:24:43Z</time>
  </trkpt>
  <trkpt lat="33.202898" lon="-3.170245">
   <ele>1453.00</ele>
   <time>2014-04-01T08:24:46Z</time>
  </trkpt>
  <trkpt lat="33.202712" lon="-3.170251">
   <ele>1453.00</ele>
   <time>2014-04-01T08:24:49Z</time>
  </trkpt>
  <trkpt lat="33.202518" lon="-3.170264">
   <ele>1454.00</ele>
   <time>2014-04-01T08:24:52Z</time>
  </trkpt>
  <trkpt lat="33.202322" lon="-3.170235">
   <ele>1454.00</ele>
   <time>2014-04-01T08:24:55Z</time>
  </trkpt>
  <trkpt lat="33.202125" lon="-3.170167">
   <ele>1454.00</ele>
   <time>2014-04-01T08:24:58Z</time>
  </trkpt>
  <trkpt lat="33.201938" lon="-3.170080">
   <ele>1454.00</ele>
   <time>2014-04-01T08:25:01Z</time>
  </trkpt>
  <trkpt lat="33.201669" lon="-3.169941">
   <ele>1454.00</ele>
   <time>2014-04-01T08:25:05Z</time>
  </trkpt>
  <trkpt lat="33.201460" lon="-3.169857">
   <ele>1454.00</ele>
   <time>2014-04-01T08:25:08Z</time>
  </trkpt>
  <trkpt lat="33.201247" lon="-3.169814">
   <ele>1455.00</ele>
   <time>2014-04-01T08:25:11Z</time>
  </trkpt>
  <trkpt lat="33.201036" lon="-3.169824">
   <ele>1456.00</ele>
   <time>2014-04-01T08:25:14Z</time>
  </trkpt>
  <trkpt lat="33.200854" lon="-3.169834">
   <ele>1456.00</ele>
   <time>2014-04-01T08:25:17Z</time>
  </trkpt>
  <trkpt lat="33.200679" lon="-3.169733">
   <ele>1456.00</ele>
   <time>2014-04-01T08:25:21Z</time>
  </trkpt>
  <trkpt lat="33.200513" lon="-3.169554">
   <ele>1456.00</ele>
   <time>2014-04-01T08:25:25Z</time>
  </trkpt>
  <trkpt lat="33.200343" lon="-3.169484">
   <ele>1456.00</ele>
   <time>2014-04-01T08:25:28Z</time>
  </trkpt>
  <trkpt lat="33.200160" lon="-3.169540">
   <ele>1456.00</ele>
   <time>2014-04-01T08:25:31Z</time>
  </trkpt>
  <trkpt lat="33.199957" lon="-3.169539">
   <ele>1457.00</ele>
   <time>2014-04-01T08:25:34Z</time>
  </trkpt>
  <trkpt lat="33.199737" lon="-3.169531">
   <ele>1457.00</ele>
   <time>2014-04-01T08:25:37Z</time>
  </trkpt>
  <trkpt lat="33.199506" lon="-3.169498">
   <ele>1457.00</ele>
   <time>2014-04-01T08:25:40Z</time>
  </trkpt>
  <trkpt lat="33.199275" lon="-3.169475">
   <ele>1458.00</ele>
   <time>2014-04-01T08:25:43Z</time>
  </trkpt>
  <trkpt lat="33.199053" lon="-3.169489">
   <ele>1458.00</ele>
   <time>2014-04-01T08:25:46Z</time>
  </trkpt>
  <trkpt lat="33.198850" lon="-3.169526">
   <ele>1459.00</ele>
   <time>2014-04-01T08:25:49Z</time>
  </trkpt>
  <trkpt lat="33.198670" lon="-3.169636">
   <ele>1458.00</ele>
   <time>2014-04-01T08:25:52Z</time>
  </trkpt>
  <trkpt lat="33.198525" lon="-3.169807">
   <ele>1458.00</ele>
   <time>2014-04-01T08:25:55Z</time>
  </trkpt>
  <trkpt lat="33.198401" lon="-3.169997">
   <ele>1458.00</ele>
   <time>2014-04-01T08:25:58Z</time>
  </trkpt>
  <trkpt lat="33.198242" lon="-3.170128">
   <ele>1458.00</ele>
   <time>2014-04-01T08:26:01Z</time>
  </trkpt>
  <trkpt lat="33.198016" lon="-3.170207">
   <ele>1458.00</ele>
   <time>2014-04-01T08:26:05Z</time>
  </trkpt>
  <trkpt lat="33.197787" lon="-3.170184">
   <ele>1459.00</ele>
   <time>2014-04-01T08:26:09Z</time>
  </trkpt>
  <trkpt lat="33.197600" lon="-3.170193">
   <ele>1460.00</ele>
   <time>2014-04-01T08:26:12Z</time>
  </trkpt>
  <trkpt lat="33.197405" lon="-3.170265">
   <ele>1461.00</ele>
   <time>2014-04-01T08:26:15Z</time>
  </trkpt>
  <trkpt lat="33.197167" lon="-3.170374">
   <ele>1461.00</ele>
   <time>2014-04-01T08:26:19Z</time>
  </trkpt>
  <trkpt lat="33.196973" lon="-3.170350">
   <ele>1462.00</ele>
   <time>2014-04-01T08:26:24Z</time>
  </trkpt>
  <trkpt lat="33.196760" lon="-3.170376">
   <ele>1463.00</ele>
   <time>2014-04-01T08:26:30Z</time>
  </trkpt>
  <trkpt lat="33.196571" lon="-3.170374">
   <ele>1464.00</ele>
   <time>2014-04-01T08:26:34Z</time>
  </trkpt>
  <trkpt lat="33.196351" lon="-3.170395">
   <ele>1463.00</ele>
   <time>2014-04-01T08:26:38Z</time>
  </trkpt>
  <trkpt lat="33.196142" lon="-3.170434">
   <ele>1462.00</ele>
   <time>2014-04-01T08:26:42Z</time>
  </trkpt>
  <trkpt lat="33.195655" lon="-3.170560">
   <ele>1461.00</ele>
   <time>2014-04-01T08:26:51Z</time>
  </trkpt>
  <trkpt lat="33.195416" lon="-3.170596">
   <ele>1461.00</ele>
   <time>2014-04-01T08:26:55Z</time>
  </trkpt>
  <trkpt lat="33.195231" lon="-3.170614">
   <ele>1461.00</ele>
   <time>2014-04-01T08:26:58Z</time>
  </trkpt>
  <trkpt lat="33.195044" lon="-3.170614">
   <ele>1461.00</ele>
   <time>2014-04-01T08:27:01Z</time>
  </trkpt>
  <trkpt lat="33.194859" lon="-3.170601">
   <ele>1461.00</ele>
   <time>2014-04-01T08:27:04Z</time>
  </trkpt>
  <trkpt lat="33.194558" lon="-3.170578">
   <ele>1461.00</ele>
   <time>2014-04-01T08:27:09Z</time>
  </trkpt>
  <trkpt lat="33.194368" lon="-3.170594">
   <ele>1461.00</ele>
   <time>2014-04-01T08:27:12Z</time>
  </trkpt>
  <trkpt lat="33.194160" lon="-3.170660">
   <ele>1461.00</ele>
   <time>2014-04-01T08:27:15Z</time>
  </trkpt>
  <trkpt lat="33.193988" lon="-3.170820">
   <ele>1461.00</ele>
   <time>2014-04-01T08:27:18Z</time>
  </trkpt>
  <trkpt lat="33.193874" lon="-3.171061">
   <ele>1460.00</ele>
   <time>2014-04-01T08:27:21Z</time>
  </trkpt>
  <trkpt lat="33.193809" lon="-3.171334">
   <ele>1459.00</ele>
   <time>2014-04-01T08:27:24Z</time>
  </trkpt>
  <trkpt lat="33.193734" lon="-3.171562">
   <ele>1460.00</ele>
   <time>2014-04-01T08:27:27Z</time>
  </trkpt>
  <trkpt lat="33.193554" lon="-3.171756">
   <ele>1460.00</ele>
   <time>2014-04-01T08:27:31Z</time>
  </trkpt>
  <trkpt lat="33.193367" lon="-3.171906">
   <ele>1461.00</ele>
   <time>2014-04-01T08:27:34Z</time>
  </trkpt>
  <trkpt lat="33.193201" lon="-3.172105">
   <ele>1461.00</ele>
   <time>2014-04-01T08:27:37Z</time>
  </trkpt>
  <trkpt lat="33.193072" lon="-3.172277">
   <ele>1462.00</ele>
   <time>2014-04-01T08:27:40Z</time>
  </trkpt>
  <trkpt lat="33.192916" lon="-3.172386">
   <ele>1462.00</ele>
   <time>2014-04-01T08:27:45Z</time>
  </trkpt>
  <trkpt lat="33.192720" lon="-3.172472">
   <ele>1462.00</ele>
   <time>2014-04-01T08:27:50Z</time>
  </trkpt>
  <trkpt lat="33.192532" lon="-3.172526">
   <ele>1462.00</ele>
   <time>2014-04-01T08:27:54Z</time>
  </trkpt>
  <trkpt lat="33.192356" lon="-3.172573">
   <ele>1462.00</ele>
   <time>2014-04-01T08:27:58Z</time>
  </trkpt>
  <trkpt lat="33.192152" lon="-3.172607">
   <ele>1463.00</ele>
   <time>2014-04-01T08:28:02Z</time>
  </trkpt>
  <trkpt lat="33.191942" lon="-3.172612">
   <ele>1463.00</ele>
   <time>2014-04-01T08:28:06Z</time>
  </trkpt>
  <trkpt lat="33.191731" lon="-3.172587">
   <ele>1463.00</ele>
   <time>2014-04-01T08:28:10Z</time>
  </trkpt>
  <trkpt lat="33.191520" lon="-3.172517">
   <ele>1464.00</ele>
   <time>2014-04-01T08:28:14Z</time>
  </trkpt>
  <trkpt lat="33.191219" lon="-3.172390">
   <ele>1464.00</ele>
   <time>2014-04-01T08:28:20Z</time>
  </trkpt>
  <trkpt lat="33.191038" lon="-3.172263">
   <ele>1464.00</ele>
   <time>2014-04-01T08:28:24Z</time>
  </trkpt>
  <trkpt lat="33.190870" lon="-3.172116">
   <ele>1464.00</ele>
   <time>2014-04-01T08:28:28Z</time>
  </trkpt>
  <trkpt lat="33.190634" lon="-3.171985">
   <ele>1463.00</ele>
   <time>2014-04-01T08:28:34Z</time>
  </trkpt>
  <trkpt lat="33.190463" lon="-3.171845">
   <ele>1462.00</ele>
   <time>2014-04-01T08:28:39Z</time>
  </trkpt>
  <trkpt lat="33.190259" lon="-3.171757">
   <ele>1463.00</ele>
   <time>2014-04-01T08:28:45Z</time>
  </trkpt>
  <trkpt lat="33.190090" lon="-3.171618">
   <ele>1463.00</ele>
   <time>2014-04-01T08:28:50Z</time>
  </trkpt>
  <trkpt lat="33.189903" lon="-3.171507">
   <ele>1464.00</ele>
   <time>2014-04-01T08:28:54Z</time>
  </trkpt>
  <trkpt lat="33.189694" lon="-3.171404">
   <ele>1465.00</ele>
   <time>2014-04-01T08:28:58Z</time>
  </trkpt>
  <trkpt lat="33.189516" lon="-3.171256">
   <ele>1465.00</ele>
   <time>2014-04-01T08:29:03Z</time>
  </trkpt>
  <trkpt lat="33.189477" lon="-3.171200">
   <ele>1465.00</ele>
   <time>2014-04-01T08:29:19Z</time>
  </trkpt>
  <trkpt lat="33.189483" lon="-3.171202">
   <ele>1465.00</ele>
   <time>2014-04-01T08:29:34Z</time>
  </trkpt>
  <trkpt lat="33.189487" lon="-3.171206">
   <ele>1465.00</ele>
   <time>2014-04-01T08:29:49Z</time>
  </trkpt>
  <trkpt lat="33.189490" lon="-3.171208">
   <ele>1465.00</ele>
   <time>2014-04-01T08:30:05Z</time>
  </trkpt>
  <trkpt lat="33.189491" lon="-3.171208">
   <ele>1465.00</ele>
   <time>2014-04-01T08:30:20Z</time>
  </trkpt>
  <trkpt lat="33.189491" lon="-3.171207">
   <ele>1466.00</ele>
   <time>2014-04-01T08:30:35Z</time>
  </trkpt>
  <trkpt lat="33.189493" lon="-3.171207">
   <ele>1466.00</ele>
   <time>2014-04-01T08:30:51Z</time>
  </trkpt>
  <trkpt lat="33.189457" lon="-3.171161">
   <ele>1466.00</ele>
   <time>2014-04-01T08:31:06Z</time>
  </trkpt>
  <trkpt lat="33.189293" lon="-3.171016">
   <ele>1465.00</ele>
   <time>2014-04-01T08:31:12Z</time>
  </trkpt>
  <trkpt lat="33.189133" lon="-3.170905">
   <ele>1465.00</ele>
   <time>2014-04-01T08:31:16Z</time>
  </trkpt>
  <trkpt lat="33.188804" lon="-3.170689">
   <ele>1466.00</ele>
   <time>2014-04-01T08:31:23Z</time>
  </trkpt>
  <trkpt lat="33.188593" lon="-3.170595">
   <ele>1466.00</ele>
   <time>2014-04-01T08:31:27Z</time>
  </trkpt>
  <trkpt lat="33.188364" lon="-3.170559">
   <ele>1467.00</ele>
   <time>2014-04-01T08:31:31Z</time>
  </trkpt>
  <trkpt lat="33.188183" lon="-3.170550">
   <ele>1467.00</ele>
   <time>2014-04-01T08:31:34Z</time>
  </trkpt>
  <trkpt lat="33.187957" lon="-3.170505">
   <ele>1467.00</ele>
   <time>2014-04-01T08:31:38Z</time>
  </trkpt>
  <trkpt lat="33.187745" lon="-3.170417">
   <ele>1468.00</ele>
   <time>2014-04-01T08:31:42Z</time>
  </trkpt>
  <trkpt lat="33.187585" lon="-3.170214">
   <ele>1470.00</ele>
   <time>2014-04-01T08:31:46Z</time>
  </trkpt>
  <trkpt lat="33.187390" lon="-3.170047">
   <ele>1470.00</ele>
   <time>2014-04-01T08:31:50Z</time>
  </trkpt>
  <trkpt lat="33.187208" lon="-3.169966">
   <ele>1471.00</ele>
   <time>2014-04-01T08:31:53Z</time>
  </trkpt>
  <trkpt lat="33.187023" lon="-3.169927">
   <ele>1471.00</ele>
   <time>2014-04-01T08:31:56Z</time>
  </trkpt>
  <trkpt lat="33.186837" lon="-3.169875">
   <ele>1471.00</ele>
   <time>2014-04-01T08:31:59Z</time>
  </trkpt>
  <trkpt lat="33.186659" lon="-3.169758">
   <ele>1471.00</ele>
   <time>2014-04-01T08:32:02Z</time>
  </trkpt>
  <trkpt lat="33.186487" lon="-3.169614">
   <ele>1471.00</ele>
   <time>2014-04-01T08:32:05Z</time>
  </trkpt>
  <trkpt lat="33.186337" lon="-3.169445">
   <ele>1471.00</ele>
   <time>2014-04-01T08:32:08Z</time>
  </trkpt>
  <trkpt lat="33.186203" lon="-3.169269">
   <ele>1472.00</ele>
   <time>2014-04-01T08:32:11Z</time>
  </trkpt>
  <trkpt lat="33.186053" lon="-3.169127">
   <ele>1472.00</ele>
   <time>2014-04-01T08:32:14Z</time>
  </trkpt>
  <trkpt lat="33.185868" lon="-3.169061">
   <ele>1472.00</ele>
   <time>2014-04-01T08:32:17Z</time>
  </trkpt>
  <trkpt lat="33.185688" lon="-3.168954">
   <ele>1472.00</ele>
   <time>2014-04-01T08:32:20Z</time>
  </trkpt>
  <trkpt lat="33.185534" lon="-3.168803">
   <ele>1472.00</ele>
   <time>2014-04-01T08:32:23Z</time>
  </trkpt>
  <trkpt lat="33.185416" lon="-3.168618">
   <ele>1473.00</ele>
   <time>2014-04-01T08:32:26Z</time>
  </trkpt>
  <trkpt lat="33.185265" lon="-3.168410">
   <ele>1474.00</ele>
   <time>2014-04-01T08:32:30Z</time>
  </trkpt>
  <trkpt lat="33.185056" lon="-3.168354">
   <ele>1474.00</ele>
   <time>2014-04-01T08:32:34Z</time>
  </trkpt>
  <trkpt lat="33.184860" lon="-3.168268">
   <ele>1474.00</ele>
   <time>2014-04-01T08:32:38Z</time>
  </trkpt>
  <trkpt lat="33.184680" lon="-3.168181">
   <ele>1475.00</ele>
   <time>2014-04-01T08:32:43Z</time>
  </trkpt>
  <trkpt lat="33.184506" lon="-3.168005">
   <ele>1475.00</ele>
   <time>2014-04-01T08:32:48Z</time>
  </trkpt>
  <trkpt lat="33.184356" lon="-3.167846">
   <ele>1475.00</ele>
   <time>2014-04-01T08:32:52Z</time>
  </trkpt>
  <trkpt lat="33.184219" lon="-3.167697">
   <ele>1475.00</ele>
   <time>2014-04-01T08:32:56Z</time>
  </trkpt>
  <trkpt lat="33.184089" lon="-3.167498">
   <ele>1475.00</ele>
   <time>2014-04-01T08:33:01Z</time>
  </trkpt>
  <trkpt lat="33.183911" lon="-3.167455">
   <ele>1476.00</ele>
   <time>2014-04-01T08:33:06Z</time>
  </trkpt>
  <trkpt lat="33.183705" lon="-3.167455">
   <ele>1477.00</ele>
   <time>2014-04-01T08:33:11Z</time>
  </trkpt>
  <trkpt lat="33.183518" lon="-3.167419">
   <ele>1477.00</ele>
   <time>2014-04-01T08:33:18Z</time>
  </trkpt>
  <trkpt lat="33.183318" lon="-3.167361">
   <ele>1479.00</ele>
   <time>2014-04-01T08:33:25Z</time>
  </trkpt>
  <trkpt lat="33.183129" lon="-3.167248">
   <ele>1480.00</ele>
   <time>2014-04-01T08:33:32Z</time>
  </trkpt>
  <trkpt lat="33.182949" lon="-3.167159">
   <ele>1481.00</ele>
   <time>2014-04-01T08:33:39Z</time>
  </trkpt>
  <trkpt lat="33.182757" lon="-3.167064">
   <ele>1482.00</ele>
   <time>2014-04-01T08:33:46Z</time>
  </trkpt>
  <trkpt lat="33.182487" lon="-3.166930">
   <ele>1483.00</ele>
   <time>2014-04-01T08:33:56Z</time>
  </trkpt>
  <trkpt lat="33.182300" lon="-3.166892">
   <ele>1485.00</ele>
   <time>2014-04-01T08:34:02Z</time>
  </trkpt>
  <trkpt lat="33.182115" lon="-3.166803">
   <ele>1486.00</ele>
   <time>2014-04-01T08:34:08Z</time>
  </trkpt>
  <trkpt lat="33.181984" lon="-3.166611">
   <ele>1487.00</ele>
   <time>2014-04-01T08:34:14Z</time>
  </trkpt>
  <trkpt lat="33.181909" lon="-3.166397">
   <ele>1488.00</ele>
   <time>2014-04-01T08:34:19Z</time>
  </trkpt>
  <trkpt lat="33.181734" lon="-3.165982">
   <ele>1491.00</ele>
   <time>2014-04-01T08:34:28Z</time>
  </trkpt>
  <trkpt lat="33.181625" lon="-3.165775">
   <ele>1493.00</ele>
   <time>2014-04-01T08:34:32Z</time>
  </trkpt>
  <trkpt lat="33.181486" lon="-3.165572">
   <ele>1494.00</ele>
   <time>2014-04-01T08:34:36Z</time>
  </trkpt>
  <trkpt lat="33.181372" lon="-3.165405">
   <ele>1494.00</ele>
   <time>2014-04-01T08:34:39Z</time>
  </trkpt>
  <trkpt lat="33.181204" lon="-3.165126">
   <ele>1494.00</ele>
   <time>2014-04-01T08:34:44Z</time>
  </trkpt>
  <trkpt lat="33.181061" lon="-3.164949">
   <ele>1494.00</ele>
   <time>2014-04-01T08:34:48Z</time>
  </trkpt>
  <trkpt lat="33.180972" lon="-3.164697">
   <ele>1494.00</ele>
   <time>2014-04-01T08:34:52Z</time>
  </trkpt>
  <trkpt lat="33.180868" lon="-3.164516">
   <ele>1494.00</ele>
   <time>2014-04-01T08:34:55Z</time>
  </trkpt>
  <trkpt lat="33.180723" lon="-3.164299">
   <ele>1493.00</ele>
   <time>2014-04-01T08:34:59Z</time>
  </trkpt>
  <trkpt lat="33.180584" lon="-3.164145">
   <ele>1493.00</ele>
   <time>2014-04-01T08:35:02Z</time>
  </trkpt>
  <trkpt lat="33.180416" lon="-3.164016">
   <ele>1492.00</ele>
   <time>2014-04-01T08:35:05Z</time>
  </trkpt>
  <trkpt lat="33.180227" lon="-3.163928">
   <ele>1492.00</ele>
   <time>2014-04-01T08:35:08Z</time>
  </trkpt>
  <trkpt lat="33.180021" lon="-3.163911">
   <ele>1491.00</ele>
   <time>2014-04-01T08:35:11Z</time>
  </trkpt>
  <trkpt lat="33.179808" lon="-3.163948">
   <ele>1490.00</ele>
   <time>2014-04-01T08:35:14Z</time>
  </trkpt>
  <trkpt lat="33.179614" lon="-3.164022">
   <ele>1490.00</ele>
   <time>2014-04-01T08:35:17Z</time>
  </trkpt>
  <trkpt lat="33.179453" lon="-3.164160">
   <ele>1489.00</ele>
   <time>2014-04-01T08:35:20Z</time>
  </trkpt>
  <trkpt lat="33.179288" lon="-3.164296">
   <ele>1489.00</ele>
   <time>2014-04-01T08:35:23Z</time>
  </trkpt>
  <trkpt lat="33.179100" lon="-3.164342">
   <ele>1489.00</ele>
   <time>2014-04-01T08:35:26Z</time>
  </trkpt>
  <trkpt lat="33.178927" lon="-3.164259">
   <ele>1489.00</ele>
   <time>2014-04-01T08:35:29Z</time>
  </trkpt>
  <trkpt lat="33.178797" lon="-3.164065">
   <ele>1489.00</ele>
   <time>2014-04-01T08:35:32Z</time>
  </trkpt>
  <trkpt lat="33.178653" lon="-3.163868">
   <ele>1489.00</ele>
   <time>2014-04-01T08:35:35Z</time>
  </trkpt>
  <trkpt lat="33.178485" lon="-3.163702">
   <ele>1490.00</ele>
   <time>2014-04-01T08:35:38Z</time>
  </trkpt>
  <trkpt lat="33.178304" lon="-3.163588">
   <ele>1490.00</ele>
   <time>2014-04-01T08:35:41Z</time>
  </trkpt>
  <trkpt lat="33.178078" lon="-3.163482">
   <ele>1491.00</ele>
   <time>2014-04-01T08:35:45Z</time>
  </trkpt>
  <trkpt lat="33.177776" lon="-3.163342">
   <ele>1492.00</ele>
   <time>2014-04-01T08:35:50Z</time>
  </trkpt>
  <trkpt lat="33.177571" lon="-3.163235">
   <ele>1492.00</ele>
   <time>2014-04-01T08:35:54Z</time>
  </trkpt>
  <trkpt lat="33.177367" lon="-3.163221">
   <ele>1493.00</ele>
   <time>2014-04-01T08:35:59Z</time>
  </trkpt>
  <trkpt lat="33.177169" lon="-3.163238">
   <ele>1493.00</ele>
   <time>2014-04-01T08:36:03Z</time>
  </trkpt>
  <trkpt lat="33.176958" lon="-3.163196">
   <ele>1495.00</ele>
   <time>2014-04-01T08:36:07Z</time>
  </trkpt>
  <trkpt lat="33.176774" lon="-3.163083">
   <ele>1496.00</ele>
   <time>2014-04-01T08:36:11Z</time>
  </trkpt>
  <trkpt lat="33.176639" lon="-3.162899">
   <ele>1497.00</ele>
   <time>2014-04-01T08:36:15Z</time>
  </trkpt>
  <trkpt lat="33.176523" lon="-3.162728">
   <ele>1498.00</ele>
   <time>2014-04-01T08:36:19Z</time>
  </trkpt>
  <trkpt lat="33.176354" lon="-3.162600">
   <ele>1499.00</ele>
   <time>2014-04-01T08:36:23Z</time>
  </trkpt>
  <trkpt lat="33.176204" lon="-3.162437">
   <ele>1500.00</ele>
   <time>2014-04-01T08:36:27Z</time>
  </trkpt>
  <trkpt lat="33.176088" lon="-3.162246">
   <ele>1501.00</ele>
   <time>2014-04-01T08:36:31Z</time>
  </trkpt>
  <trkpt lat="33.175891" lon="-3.162013">
   <ele>1502.00</ele>
   <time>2014-04-01T08:36:36Z</time>
  </trkpt>
  <trkpt lat="33.175798" lon="-3.161786">
   <ele>1503.00</ele>
   <time>2014-04-01T08:36:40Z</time>
  </trkpt>
  <trkpt lat="33.175716" lon="-3.161575">
   <ele>1503.00</ele>
   <time>2014-04-01T08:36:44Z</time>
  </trkpt>
  <trkpt lat="33.175571" lon="-3.161407">
   <ele>1504.00</ele>
   <time>2014-04-01T08:36:48Z</time>
  </trkpt>
  <trkpt lat="33.175362" lon="-3.161314">
   <ele>1505.00</ele>
   <time>2014-04-01T08:36:52Z</time>
  </trkpt>
  <trkpt lat="33.175144" lon="-3.161234">
   <ele>1506.00</ele>
   <time>2014-04-01T08:36:56Z</time>
  </trkpt>
  <trkpt lat="33.174946" lon="-3.161103">
   <ele>1506.00</ele>
   <time>2014-04-01T08:37:00Z</time>
  </trkpt>
  <trkpt lat="33.174770" lon="-3.160960">
   <ele>1507.00</ele>
   <time>2014-04-01T08:37:04Z</time>
  </trkpt>
  <trkpt lat="33.174619" lon="-3.160766">
   <ele>1507.00</ele>
   <time>2014-04-01T08:37:08Z</time>
  </trkpt>
  <trkpt lat="33.174433" lon="-3.160540">
   <ele>1508.00</ele>
   <time>2014-04-01T08:37:13Z</time>
  </trkpt>
  <trkpt lat="33.174289" lon="-3.160402">
   <ele>1509.00</ele>
   <time>2014-04-01T08:37:17Z</time>
  </trkpt>
  <trkpt lat="33.174133" lon="-3.160247">
   <ele>1510.00</ele>
   <time>2014-04-01T08:37:22Z</time>
  </trkpt>
  <trkpt lat="33.174047" lon="-3.160054">
   <ele>1510.00</ele>
   <time>2014-04-01T08:37:26Z</time>
  </trkpt>
  <trkpt lat="33.173964" lon="-3.159861">
   <ele>1511.00</ele>
   <time>2014-04-01T08:37:30Z</time>
  </trkpt>
  <trkpt lat="33.173831" lon="-3.159660">
   <ele>1512.00</ele>
   <time>2014-04-01T08:37:35Z</time>
  </trkpt>
  <trkpt lat="33.173650" lon="-3.159564">
   <ele>1513.00</ele>
   <time>2014-04-01T08:37:40Z</time>
  </trkpt>
  <trkpt lat="33.173350" lon="-3.159549">
   <ele>1514.00</ele>
   <time>2014-04-01T08:37:47Z</time>
  </trkpt>
  <trkpt lat="33.173136" lon="-3.159486">
   <ele>1515.00</ele>
   <time>2014-04-01T08:37:52Z</time>
  </trkpt>
  <trkpt lat="33.172964" lon="-3.159394">
   <ele>1516.00</ele>
   <time>2014-04-01T08:37:56Z</time>
  </trkpt>
  <trkpt lat="33.172789" lon="-3.159317">
   <ele>1516.00</ele>
   <time>2014-04-01T08:38:00Z</time>
  </trkpt>
  <trkpt lat="33.172619" lon="-3.159193">
   <ele>1517.00</ele>
   <time>2014-04-01T08:38:04Z</time>
  </trkpt>
  <trkpt lat="33.172318" lon="-3.158857">
   <ele>1517.00</ele>
   <time>2014-04-01T08:38:11Z</time>
  </trkpt>
  <trkpt lat="33.172134" lon="-3.158722">
   <ele>1518.00</ele>
   <time>2014-04-01T08:38:15Z</time>
  </trkpt>
  <trkpt lat="33.172039" lon="-3.158509">
   <ele>1518.00</ele>
   <time>2014-04-01T08:38:19Z</time>
  </trkpt>
  <trkpt lat="33.171953" lon="-3.158301">
   <ele>1518.00</ele>
   <time>2014-04-01T08:38:23Z</time>
  </trkpt>
  <trkpt lat="33.171831" lon="-3.158115">
   <ele>1519.00</ele>
   <time>2014-04-01T08:38:27Z</time>
  </trkpt>
  <trkpt lat="33.171657" lon="-3.157837">
   <ele>1519.00</ele>
   <time>2014-04-01T08:38:33Z</time>
  </trkpt>
  <trkpt lat="33.171483" lon="-3.157703">
   <ele>1520.00</ele>
   <time>2014-04-01T08:38:37Z</time>
  </trkpt>
  <trkpt lat="33.171236" lon="-3.157587">
   <ele>1521.00</ele>
   <time>2014-04-01T08:38:42Z</time>
  </trkpt>
  <trkpt lat="33.171035" lon="-3.157528">
   <ele>1521.00</ele>
   <time>2014-04-01T08:38:46Z</time>
  </trkpt>
  <trkpt lat="33.170753" lon="-3.157534">
   <ele>1523.00</ele>
   <time>2014-04-01T08:38:52Z</time>
  </trkpt>
  <trkpt lat="33.170562" lon="-3.157473">
   <ele>1523.00</ele>
   <time>2014-04-01T08:38:56Z</time>
  </trkpt>
  <trkpt lat="33.170380" lon="-3.157403">
   <ele>1524.00</ele>
   <time>2014-04-01T08:39:00Z</time>
  </trkpt>
  <trkpt lat="33.170208" lon="-3.157305">
   <ele>1524.00</ele>
   <time>2014-04-01T08:39:04Z</time>
  </trkpt>
  <trkpt lat="33.170037" lon="-3.157227">
   <ele>1525.00</ele>
   <time>2014-04-01T08:39:08Z</time>
  </trkpt>
  <trkpt lat="33.169863" lon="-3.157163">
   <ele>1526.00</ele>
   <time>2014-04-01T08:39:12Z</time>
  </trkpt>
  <trkpt lat="33.169655" lon="-3.157073">
   <ele>1527.00</ele>
   <time>2014-04-01T08:39:17Z</time>
  </trkpt>
  <trkpt lat="33.169466" lon="-3.157083">
   <ele>1527.00</ele>
   <time>2014-04-01T08:39:21Z</time>
  </trkpt>
  <trkpt lat="33.169272" lon="-3.157130">
   <ele>1528.00</ele>
   <time>2014-04-01T08:39:25Z</time>
  </trkpt>
  <trkpt lat="33.169076" lon="-3.157237">
   <ele>1529.00</ele>
   <time>2014-04-01T08:39:29Z</time>
  </trkpt>
  <trkpt lat="33.168880" lon="-3.157378">
   <ele>1528.00</ele>
   <time>2014-04-01T08:39:33Z</time>
  </trkpt>
  <trkpt lat="33.168691" lon="-3.157548">
   <ele>1528.00</ele>
   <time>2014-04-01T08:39:37Z</time>
  </trkpt>
  <trkpt lat="33.168520" lon="-3.157744">
   <ele>1527.00</ele>
   <time>2014-04-01T08:39:41Z</time>
  </trkpt>
  <trkpt lat="33.168331" lon="-3.157905">
   <ele>1528.00</ele>
   <time>2014-04-01T08:39:45Z</time>
  </trkpt>
  <trkpt lat="33.168101" lon="-3.158119">
   <ele>1528.00</ele>
   <time>2014-04-01T08:39:50Z</time>
  </trkpt>
  <trkpt lat="33.167931" lon="-3.158228">
   <ele>1529.00</ele>
   <time>2014-04-01T08:39:54Z</time>
  </trkpt>
  <trkpt lat="33.167721" lon="-3.158181">
   <ele>1529.00</ele>
   <time>2014-04-01T08:39:59Z</time>
  </trkpt>
  <trkpt lat="33.167533" lon="-3.158139">
   <ele>1529.00</ele>
   <time>2014-04-01T08:40:03Z</time>
  </trkpt>
  <trkpt lat="33.167191" lon="-3.158090">
   <ele>1529.00</ele>
   <time>2014-04-01T08:40:10Z</time>
  </trkpt>
  <trkpt lat="33.166991" lon="-3.158030">
   <ele>1530.00</ele>
   <time>2014-04-01T08:40:14Z</time>
  </trkpt>
  <trkpt lat="33.166811" lon="-3.157917">
   <ele>1530.00</ele>
   <time>2014-04-01T08:40:18Z</time>
  </trkpt>
  <trkpt lat="33.166644" lon="-3.157772">
   <ele>1530.00</ele>
   <time>2014-04-01T08:40:22Z</time>
  </trkpt>
  <trkpt lat="33.166469" lon="-3.157666">
   <ele>1530.00</ele>
   <time>2014-04-01T08:40:26Z</time>
  </trkpt>
  <trkpt lat="33.166259" lon="-3.157657">
   <ele>1530.00</ele>
   <time>2014-04-01T08:40:30Z</time>
  </trkpt>
  <trkpt lat="33.166046" lon="-3.157689">
   <ele>1531.00</ele>
   <time>2014-04-01T08:40:34Z</time>
  </trkpt>
  <trkpt lat="33.165661" lon="-3.157688">
   <ele>1531.00</ele>
   <time>2014-04-01T08:40:41Z</time>
  </trkpt>
  <trkpt lat="33.165272" lon="-3.157607">
   <ele>1532.00</ele>
   <time>2014-04-01T08:40:48Z</time>
  </trkpt>
  <trkpt lat="33.165042" lon="-3.157575">
   <ele>1532.00</ele>
   <time>2014-04-01T08:40:52Z</time>
  </trkpt>
  <trkpt lat="33.164863" lon="-3.157602">
   <ele>1532.00</ele>
   <time>2014-04-01T08:40:55Z</time>
  </trkpt>
  <trkpt lat="33.164669" lon="-3.157610">
   <ele>1531.00</ele>
   <time>2014-04-01T08:40:58Z</time>
  </trkpt>
  <trkpt lat="33.164474" lon="-3.157607">
   <ele>1531.00</ele>
   <time>2014-04-01T08:41:01Z</time>
  </trkpt>
  <trkpt lat="33.164291" lon="-3.157588">
   <ele>1531.00</ele>
   <time>2014-04-01T08:41:04Z</time>
  </trkpt>
  <trkpt lat="33.164069" lon="-3.157547">
   <ele>1531.00</ele>
   <time>2014-04-01T08:41:08Z</time>
  </trkpt>
  <trkpt lat="33.163862" lon="-3.157435">
   <ele>1531.00</ele>
   <time>2014-04-01T08:41:12Z</time>
  </trkpt>
  <trkpt lat="33.163665" lon="-3.157437">
   <ele>1531.00</ele>
   <time>2014-04-01T08:41:16Z</time>
  </trkpt>
  <trkpt lat="33.163354" lon="-3.157562">
   <ele>1529.00</ele>
   <time>2014-04-01T08:41:22Z</time>
  </trkpt>
  <trkpt lat="33.163176" lon="-3.157713">
   <ele>1528.00</ele>
   <time>2014-04-01T08:41:26Z</time>
  </trkpt>
  <trkpt lat="33.162966" lon="-3.157772">
   <ele>1528.00</ele>
   <time>2014-04-01T08:41:30Z</time>
  </trkpt>
  <trkpt lat="33.162745" lon="-3.157761">
   <ele>1527.00</ele>
   <time>2014-04-01T08:41:34Z</time>
  </trkpt>
  <trkpt lat="33.162528" lon="-3.157774">
   <ele>1527.00</ele>
   <time>2014-04-01T08:41:38Z</time>
  </trkpt>
  <trkpt lat="33.162326" lon="-3.157699">
   <ele>1527.00</ele>
   <time>2014-04-01T08:41:42Z</time>
  </trkpt>
  <trkpt lat="33.162121" lon="-3.157713">
   <ele>1527.00</ele>
   <time>2014-04-01T08:41:46Z</time>
  </trkpt>
  <trkpt lat="33.161915" lon="-3.157716">
   <ele>1528.00</ele>
   <time>2014-04-01T08:41:50Z</time>
  </trkpt>
  <trkpt lat="33.161709" lon="-3.157653">
   <ele>1528.00</ele>
   <time>2014-04-01T08:41:54Z</time>
  </trkpt>
  <trkpt lat="33.161495" lon="-3.157604">
   <ele>1528.00</ele>
   <time>2014-04-01T08:41:58Z</time>
  </trkpt>
  <trkpt lat="33.161318" lon="-3.157514">
   <ele>1528.00</ele>
   <time>2014-04-01T08:42:02Z</time>
  </trkpt>
  <trkpt lat="33.161141" lon="-3.157457">
   <ele>1528.00</ele>
   <time>2014-04-01T08:42:06Z</time>
  </trkpt>
  <trkpt lat="33.160902" lon="-3.157348">
   <ele>1528.00</ele>
   <time>2014-04-01T08:42:11Z</time>
  </trkpt>
  <trkpt lat="33.160686" lon="-3.157379">
   <ele>1528.00</ele>
   <time>2014-04-01T08:42:15Z</time>
  </trkpt>
  <trkpt lat="33.160452" lon="-3.157409">
   <ele>1528.00</ele>
   <time>2014-04-01T08:42:19Z</time>
  </trkpt>
  <trkpt lat="33.160266" lon="-3.157264">
   <ele>1527.00</ele>
   <time>2014-04-01T08:42:23Z</time>
  </trkpt>
  <trkpt lat="33.160105" lon="-3.157077">
   <ele>1527.00</ele>
   <time>2014-04-01T08:42:27Z</time>
  </trkpt>
  <trkpt lat="33.159908" lon="-3.156982">
   <ele>1527.00</ele>
   <time>2014-04-01T08:42:31Z</time>
  </trkpt>
  <trkpt lat="33.159696" lon="-3.156980">
   <ele>1527.00</ele>
   <time>2014-04-01T08:42:35Z</time>
  </trkpt>
  <trkpt lat="33.159470" lon="-3.156954">
   <ele>1526.00</ele>
   <time>2014-04-01T08:42:39Z</time>
  </trkpt>
  <trkpt lat="33.159246" lon="-3.156960">
   <ele>1526.00</ele>
   <time>2014-04-01T08:42:43Z</time>
  </trkpt>
  <trkpt lat="33.159028" lon="-3.156943">
   <ele>1525.00</ele>
   <time>2014-04-01T08:42:47Z</time>
  </trkpt>
  <trkpt lat="33.158826" lon="-3.156880">
   <ele>1525.00</ele>
   <time>2014-04-01T08:42:51Z</time>
  </trkpt>
  <trkpt lat="33.158624" lon="-3.156805">
   <ele>1524.00</ele>
   <time>2014-04-01T08:42:55Z</time>
  </trkpt>
  <trkpt lat="33.158408" lon="-3.156775">
   <ele>1523.00</ele>
   <time>2014-04-01T08:42:59Z</time>
  </trkpt>
  <trkpt lat="33.158199" lon="-3.156819">
   <ele>1522.00</ele>
   <time>2014-04-01T08:43:03Z</time>
  </trkpt>
  <trkpt lat="33.158041" lon="-3.156925">
   <ele>1521.00</ele>
   <time>2014-04-01T08:43:07Z</time>
  </trkpt>
  <trkpt lat="33.157861" lon="-3.157005">
   <ele>1520.00</ele>
   <time>2014-04-01T08:43:11Z</time>
  </trkpt>
  <trkpt lat="33.157666" lon="-3.157109">
   <ele>1520.00</ele>
   <time>2014-04-01T08:43:16Z</time>
  </trkpt>
  <trkpt lat="33.157467" lon="-3.157143">
   <ele>1520.00</ele>
   <time>2014-04-01T08:43:21Z</time>
  </trkpt>
  <trkpt lat="33.156927" lon="-3.157181">
   <ele>1520.00</ele>
   <time>2014-04-01T08:43:30Z</time>
  </trkpt>
  <trkpt lat="33.156736" lon="-3.157185">
   <ele>1520.00</ele>
   <time>2014-04-01T08:43:33Z</time>
  </trkpt>
  <trkpt lat="33.156544" lon="-3.157218">
   <ele>1519.00</ele>
   <time>2014-04-01T08:43:36Z</time>
  </trkpt>
  <trkpt lat="33.156344" lon="-3.157270">
   <ele>1519.00</ele>
   <time>2014-04-01T08:43:39Z</time>
  </trkpt>
  <trkpt lat="33.156152" lon="-3.157263">
   <ele>1519.00</ele>
   <time>2014-04-01T08:43:42Z</time>
  </trkpt>
  <trkpt lat="33.155953" lon="-3.157190">
   <ele>1518.00</ele>
   <time>2014-04-01T08:43:45Z</time>
  </trkpt>
  <trkpt lat="33.155754" lon="-3.157086">
   <ele>1518.00</ele>
   <time>2014-04-01T08:43:48Z</time>
  </trkpt>
  <trkpt lat="33.155565" lon="-3.156955">
   <ele>1518.00</ele>
   <time>2014-04-01T08:43:51Z</time>
  </trkpt>
  <trkpt lat="33.155395" lon="-3.156870">
   <ele>1517.00</ele>
   <time>2014-04-01T08:43:54Z</time>
  </trkpt>
  <trkpt lat="33.155216" lon="-3.156839">
   <ele>1517.00</ele>
   <time>2014-04-01T08:43:59Z</time>
  </trkpt>
  <trkpt lat="33.154992" lon="-3.156837">
   <ele>1517.00</ele>
   <time>2014-04-01T08:44:04Z</time>
  </trkpt>
  <trkpt lat="33.154791" lon="-3.156888">
   <ele>1517.00</ele>
   <time>2014-04-01T08:44:08Z</time>
  </trkpt>
  <trkpt lat="33.154610" lon="-3.157002">
   <ele>1517.00</ele>
   <time>2014-04-01T08:44:12Z</time>
  </trkpt>
  <trkpt lat="33.154430" lon="-3.157095">
   <ele>1517.00</ele>
   <time>2014-04-01T08:44:16Z</time>
  </trkpt>
  <trkpt lat="33.154221" lon="-3.157156">
   <ele>1516.00</ele>
   <time>2014-04-01T08:44:20Z</time>
  </trkpt>
  <trkpt lat="33.154035" lon="-3.157183">
   <ele>1516.00</ele>
   <time>2014-04-01T08:44:23Z</time>
  </trkpt>
  <trkpt lat="33.153846" lon="-3.157176">
   <ele>1516.00</ele>
   <time>2014-04-01T08:44:26Z</time>
  </trkpt>
  <trkpt lat="33.153623" lon="-3.157139">
   <ele>1516.00</ele>
   <time>2014-04-01T08:44:30Z</time>
  </trkpt>
  <trkpt lat="33.153375" lon="-3.157074">
   <ele>1516.00</ele>
   <time>2014-04-01T08:44:34Z</time>
  </trkpt>
  <trkpt lat="33.153145" lon="-3.157047">
   <ele>1516.00</ele>
   <time>2014-04-01T08:44:38Z</time>
  </trkpt>
  <trkpt lat="33.152953" lon="-3.157037">
   <ele>1516.00</ele>
   <time>2014-04-01T08:44:41Z</time>
  </trkpt>
  <trkpt lat="33.152751" lon="-3.157014">
   <ele>1516.00</ele>
   <time>2014-04-01T08:44:44Z</time>
  </trkpt>
  <trkpt lat="33.152490" lon="-3.156960">
   <ele>1516.00</ele>
   <time>2014-04-01T08:44:48Z</time>
  </trkpt>
  <trkpt lat="33.152304" lon="-3.156966">
   <ele>1516.00</ele>
   <time>2014-04-01T08:44:53Z</time>
  </trkpt>
  <trkpt lat="33.152163" lon="-3.156806">
   <ele>1516.00</ele>
   <time>2014-04-01T08:44:59Z</time>
  </trkpt>
  <trkpt lat="33.152047" lon="-3.156607">
   <ele>1516.00</ele>
   <time>2014-04-01T08:45:03Z</time>
  </trkpt>
  <trkpt lat="33.151894" lon="-3.156292">
   <ele>1516.00</ele>
   <time>2014-04-01T08:45:08Z</time>
  </trkpt>
  <trkpt lat="33.151764" lon="-3.156124">
   <ele>1517.00</ele>
   <time>2014-04-01T08:45:11Z</time>
  </trkpt>
  <trkpt lat="33.151602" lon="-3.155983">
   <ele>1517.00</ele>
   <time>2014-04-01T08:45:14Z</time>
  </trkpt>
  <trkpt lat="33.151467" lon="-3.155841">
   <ele>1518.00</ele>
   <time>2014-04-01T08:45:17Z</time>
  </trkpt>
  <trkpt lat="33.151277" lon="-3.155667">
   <ele>1519.00</ele>
   <time>2014-04-01T08:45:21Z</time>
  </trkpt>
  <trkpt lat="33.151121" lon="-3.155473">
   <ele>1519.00</ele>
   <time>2014-04-01T08:45:25Z</time>
  </trkpt>
  <trkpt lat="33.150919" lon="-3.155423">
   <ele>1519.00</ele>
   <time>2014-04-01T08:45:29Z</time>
  </trkpt>
  <trkpt lat="33.150627" lon="-3.155463">
   <ele>1519.00</ele>
   <time>2014-04-01T08:45:34Z</time>
  </trkpt>
  <trkpt lat="33.150407" lon="-3.155474">
   <ele>1519.00</ele>
   <time>2014-04-01T08:45:37Z</time>
  </trkpt>
  <trkpt lat="33.150194" lon="-3.155519">
   <ele>1519.00</ele>
   <time>2014-04-01T08:45:40Z</time>
  </trkpt>
  <trkpt lat="33.149991" lon="-3.155582">
   <ele>1519.00</ele>
   <time>2014-04-01T08:45:43Z</time>
  </trkpt>
  <trkpt lat="33.149787" lon="-3.155652">
   <ele>1520.00</ele>
   <time>2014-04-01T08:45:46Z</time>
  </trkpt>
  <trkpt lat="33.149575" lon="-3.155704">
   <ele>1520.00</ele>
   <time>2014-04-01T08:45:49Z</time>
  </trkpt>
  <trkpt lat="33.149294" lon="-3.155770">
   <ele>1520.00</ele>
   <time>2014-04-01T08:45:53Z</time>
  </trkpt>
  <trkpt lat="33.149089" lon="-3.155872">
   <ele>1520.00</ele>
   <time>2014-04-01T08:45:56Z</time>
  </trkpt>
  <trkpt lat="33.148876" lon="-3.156013">
   <ele>1521.00</ele>
   <time>2014-04-01T08:45:59Z</time>
  </trkpt>
  <trkpt lat="33.148408" lon="-3.156376">
   <ele>1520.00</ele>
   <time>2014-04-01T08:46:06Z</time>
  </trkpt>
  <trkpt lat="33.148245" lon="-3.156531">
   <ele>1520.00</ele>
   <time>2014-04-01T08:46:09Z</time>
  </trkpt>
  <trkpt lat="33.148073" lon="-3.156633">
   <ele>1520.00</ele>
   <time>2014-04-01T08:46:12Z</time>
  </trkpt>
  <trkpt lat="33.147900" lon="-3.156694">
   <ele>1521.00</ele>
   <time>2014-04-01T08:46:15Z</time>
  </trkpt>
  <trkpt lat="33.147688" lon="-3.156684">
   <ele>1521.00</ele>
   <time>2014-04-01T08:46:19Z</time>
  </trkpt>
  <trkpt lat="33.147496" lon="-3.156686">
   <ele>1521.00</ele>
   <time>2014-04-01T08:46:23Z</time>
  </trkpt>
  <trkpt lat="33.147255" lon="-3.156675">
   <ele>1522.00</ele>
   <time>2014-04-01T08:46:28Z</time>
  </trkpt>
  <trkpt lat="33.147007" lon="-3.156644">
   <ele>1523.00</ele>
   <time>2014-04-01T08:46:33Z</time>
  </trkpt>
  <trkpt lat="33.146799" lon="-3.156714">
   <ele>1523.00</ele>
   <time>2014-04-01T08:46:37Z</time>
  </trkpt>
  <trkpt lat="33.146585" lon="-3.156775">
   <ele>1523.00</ele>
   <time>2014-04-01T08:46:41Z</time>
  </trkpt>
  <trkpt lat="33.146282" lon="-3.156816">
   <ele>1524.00</ele>
   <time>2014-04-01T08:46:47Z</time>
  </trkpt>
  <trkpt lat="33.146097" lon="-3.156816">
   <ele>1524.00</ele>
   <time>2014-04-01T08:46:51Z</time>
  </trkpt>
  <trkpt lat="33.145915" lon="-3.156879">
   <ele>1525.00</ele>
   <time>2014-04-01T08:46:55Z</time>
  </trkpt>
  <trkpt lat="33.145469" lon="-3.157091">
   <ele>1525.00</ele>
   <time>2014-04-01T08:47:06Z</time>
  </trkpt>
  <trkpt lat="33.145302" lon="-3.157174">
   <ele>1525.00</ele>
   <time>2014-04-01T08:47:12Z</time>
  </trkpt>
  <trkpt lat="33.145046" lon="-3.157290">
   <ele>1526.00</ele>
   <time>2014-04-01T08:47:18Z</time>
  </trkpt>
  <trkpt lat="33.144877" lon="-3.157408">
   <ele>1526.00</ele>
   <time>2014-04-01T08:47:22Z</time>
  </trkpt>
  <trkpt lat="33.144744" lon="-3.157563">
   <ele>1526.00</ele>
   <time>2014-04-01T08:47:26Z</time>
  </trkpt>
  <trkpt lat="33.144656" lon="-3.157802">
   <ele>1526.00</ele>
   <time>2014-04-01T08:47:31Z</time>
  </trkpt>
  <trkpt lat="33.144517" lon="-3.157980">
   <ele>1527.00</ele>
   <time>2014-04-01T08:47:35Z</time>
  </trkpt>
  <trkpt lat="33.144302" lon="-3.158092">
   <ele>1527.00</ele>
   <time>2014-04-01T08:47:39Z</time>
  </trkpt>
  <trkpt lat="33.144099" lon="-3.158248">
   <ele>1528.00</ele>
   <time>2014-04-01T08:47:43Z</time>
  </trkpt>
  <trkpt lat="33.143734" lon="-3.158593">
   <ele>1529.00</ele>
   <time>2014-04-01T08:47:50Z</time>
  </trkpt>
  <trkpt lat="33.143586" lon="-3.158754">
   <ele>1529.00</ele>
   <time>2014-04-01T08:47:53Z</time>
  </trkpt>
  <trkpt lat="33.143451" lon="-3.158919">
   <ele>1530.00</ele>
   <time>2014-04-01T08:47:56Z</time>
  </trkpt>
  <trkpt lat="33.143311" lon="-3.159073">
   <ele>1530.00</ele>
   <time>2014-04-01T08:47:59Z</time>
  </trkpt>
  <trkpt lat="33.143167" lon="-3.159240">
   <ele>1530.00</ele>
   <time>2014-04-01T08:48:02Z</time>
  </trkpt>
  <trkpt lat="33.143010" lon="-3.159393">
   <ele>1531.00</ele>
   <time>2014-04-01T08:48:05Z</time>
  </trkpt>
  <trkpt lat="33.142807" lon="-3.159510">
   <ele>1531.00</ele>
   <time>2014-04-01T08:48:08Z</time>
  </trkpt>
  <trkpt lat="33.142605" lon="-3.159643">
   <ele>1532.00</ele>
   <time>2014-04-01T08:48:11Z</time>
  </trkpt>
  <trkpt lat="33.142414" lon="-3.159797">
   <ele>1532.00</ele>
   <time>2014-04-01T08:48:14Z</time>
  </trkpt>
  <trkpt lat="33.142170" lon="-3.160000">
   <ele>1533.00</ele>
   <time>2014-04-01T08:48:18Z</time>
  </trkpt>
  <trkpt lat="33.142019" lon="-3.160197">
   <ele>1533.00</ele>
   <time>2014-04-01T08:48:21Z</time>
  </trkpt>
  <trkpt lat="33.141844" lon="-3.160481">
   <ele>1533.00</ele>
   <time>2014-04-01T08:48:25Z</time>
  </trkpt>
  <trkpt lat="33.141695" lon="-3.160671">
   <ele>1533.00</ele>
   <time>2014-04-01T08:48:28Z</time>
  </trkpt>
  <trkpt lat="33.141517" lon="-3.160796">
   <ele>1534.00</ele>
   <time>2014-04-01T08:48:31Z</time>
  </trkpt>
  <trkpt lat="33.141340" lon="-3.160897">
   <ele>1534.00</ele>
   <time>2014-04-01T08:48:34Z</time>
  </trkpt>
  <trkpt lat="33.141191" lon="-3.161054">
   <ele>1534.00</ele>
   <time>2014-04-01T08:48:37Z</time>
  </trkpt>
  <trkpt lat="33.141034" lon="-3.161284">
   <ele>1534.00</ele>
   <time>2014-04-01T08:48:41Z</time>
  </trkpt>
  <trkpt lat="33.140839" lon="-3.161428">
   <ele>1535.00</ele>
   <time>2014-04-01T08:48:45Z</time>
  </trkpt>
  <trkpt lat="33.140516" lon="-3.161606">
   <ele>1535.00</ele>
   <time>2014-04-01T08:48:51Z</time>
  </trkpt>
  <trkpt lat="33.140326" lon="-3.161762">
   <ele>1536.00</ele>
   <time>2014-04-01T08:48:55Z</time>
  </trkpt>
  <trkpt lat="33.140107" lon="-3.161879">
   <ele>1536.00</ele>
   <time>2014-04-01T08:48:59Z</time>
  </trkpt>
  <trkpt lat="33.139924" lon="-3.161929">
   <ele>1537.00</ele>
   <time>2014-04-01T08:49:02Z</time>
  </trkpt>
  <trkpt lat="33.139765" lon="-3.162038">
   <ele>1537.00</ele>
   <time>2014-04-01T08:49:05Z</time>
  </trkpt>
  <trkpt lat="33.139624" lon="-3.162187">
   <ele>1537.00</ele>
   <time>2014-04-01T08:49:08Z</time>
  </trkpt>
  <trkpt lat="33.139436" lon="-3.162401">
   <ele>1538.00</ele>
   <time>2014-04-01T08:49:12Z</time>
  </trkpt>
  <trkpt lat="33.139257" lon="-3.162525">
   <ele>1538.00</ele>
   <time>2014-04-01T08:49:15Z</time>
  </trkpt>
  <trkpt lat="33.139042" lon="-3.162600">
   <ele>1539.00</ele>
   <time>2014-04-01T08:49:18Z</time>
  </trkpt>
  <trkpt lat="33.138827" lon="-3.162654">
   <ele>1540.00</ele>
   <time>2014-04-01T08:49:21Z</time>
  </trkpt>
  <trkpt lat="33.138605" lon="-3.162680">
   <ele>1540.00</ele>
   <time>2014-04-01T08:49:24Z</time>
  </trkpt>
  <trkpt lat="33.138373" lon="-3.162690">
   <ele>1541.00</ele>
   <time>2014-04-01T08:49:27Z</time>
  </trkpt>
  <trkpt lat="33.137968" lon="-3.162691">
   <ele>1541.00</ele>
   <time>2014-04-01T08:49:32Z</time>
  </trkpt>
  <trkpt lat="33.137720" lon="-3.162718">
   <ele>1541.00</ele>
   <time>2014-04-01T08:49:35Z</time>
  </trkpt>
  <trkpt lat="33.137473" lon="-3.162761">
   <ele>1542.00</ele>
   <time>2014-04-01T08:49:38Z</time>
  </trkpt>
  <trkpt lat="33.137244" lon="-3.162833">
   <ele>1542.00</ele>
   <time>2014-04-01T08:49:41Z</time>
  </trkpt>
  <trkpt lat="33.137026" lon="-3.162949">
   <ele>1543.00</ele>
   <time>2014-04-01T08:49:44Z</time>
  </trkpt>
  <trkpt lat="33.136582" lon="-3.163232">
   <ele>1544.00</ele>
   <time>2014-04-01T08:49:50Z</time>
  </trkpt>
  <trkpt lat="33.136346" lon="-3.163341">
   <ele>1544.00</ele>
   <time>2014-04-01T08:49:53Z</time>
  </trkpt>
  <trkpt lat="33.135836" lon="-3.163517">
   <ele>1544.00</ele>
   <time>2014-04-01T08:50:00Z</time>
  </trkpt>
  <trkpt lat="33.135652" lon="-3.163612">
   <ele>1545.00</ele>
   <time>2014-04-01T08:50:03Z</time>
  </trkpt>
  <trkpt lat="33.135466" lon="-3.163736">
   <ele>1545.00</ele>
   <time>2014-04-01T08:50:06Z</time>
  </trkpt>
  <trkpt lat="33.135208" lon="-3.163937">
   <ele>1546.00</ele>
   <time>2014-04-01T08:50:10Z</time>
  </trkpt>
  <trkpt lat="33.135003" lon="-3.164092">
   <ele>1546.00</ele>
   <time>2014-04-01T08:50:13Z</time>
  </trkpt>
  <trkpt lat="33.134780" lon="-3.164231">
   <ele>1547.00</ele>
   <time>2014-04-01T08:50:16Z</time>
  </trkpt>
  <trkpt lat="33.134390" lon="-3.164446">
   <ele>1548.00</ele>
   <time>2014-04-01T08:50:21Z</time>
  </trkpt>
  <trkpt lat="33.134171" lon="-3.164596">
   <ele>1548.00</ele>
   <time>2014-04-01T08:50:24Z</time>
  </trkpt>
  <trkpt lat="33.133980" lon="-3.164755">
   <ele>1549.00</ele>
   <time>2014-04-01T08:50:27Z</time>
  </trkpt>
  <trkpt lat="33.133821" lon="-3.164919">
   <ele>1549.00</ele>
   <time>2014-04-01T08:50:30Z</time>
  </trkpt>
  <trkpt lat="33.133628" lon="-3.165059">
   <ele>1550.00</ele>
   <time>2014-04-01T08:50:34Z</time>
  </trkpt>
  <trkpt lat="33.133430" lon="-3.165120">
   <ele>1550.00</ele>
   <time>2014-04-01T08:50:38Z</time>
  </trkpt>
  <trkpt lat="33.133259" lon="-3.165251">
   <ele>1551.00</ele>
   <time>2014-04-01T08:50:42Z</time>
  </trkpt>
  <trkpt lat="33.133111" lon="-3.165379">
   <ele>1551.00</ele>
   <time>2014-04-01T08:50:48Z</time>
  </trkpt>
  <trkpt lat="33.132924" lon="-3.165487">
   <ele>1551.00</ele>
   <time>2014-04-01T08:50:54Z</time>
  </trkpt>
  <trkpt lat="33.132752" lon="-3.165669">
   <ele>1552.00</ele>
   <time>2014-04-01T08:50:58Z</time>
  </trkpt>
  <trkpt lat="33.132581" lon="-3.165866">
   <ele>1552.00</ele>
   <time>2014-04-01T08:51:02Z</time>
  </trkpt>
  <trkpt lat="33.132423" lon="-3.166007">
   <ele>1552.00</ele>
   <time>2014-04-01T08:51:05Z</time>
  </trkpt>
  <trkpt lat="33.132238" lon="-3.166162">
   <ele>1552.00</ele>
   <time>2014-04-01T08:51:08Z</time>
  </trkpt>
  <trkpt lat="33.132030" lon="-3.166311">
   <ele>1553.00</ele>
   <time>2014-04-01T08:51:11Z</time>
  </trkpt>
  <trkpt lat="33.131811" lon="-3.166452">
   <ele>1553.00</ele>
   <time>2014-04-01T08:51:14Z</time>
  </trkpt>
  <trkpt lat="33.131593" lon="-3.166580">
   <ele>1554.00</ele>
   <time>2014-04-01T08:51:17Z</time>
  </trkpt>
  <trkpt lat="33.131369" lon="-3.166679">
   <ele>1555.00</ele>
   <time>2014-04-01T08:51:20Z</time>
  </trkpt>
  <trkpt lat="33.131163" lon="-3.166737">
   <ele>1555.00</ele>
   <time>2014-04-01T08:51:23Z</time>
  </trkpt>
  <trkpt lat="33.130957" lon="-3.166770">
   <ele>1556.00</ele>
   <time>2014-04-01T08:51:27Z</time>
  </trkpt>
  <trkpt lat="33.130742" lon="-3.166829">
   <ele>1556.00</ele>
   <time>2014-04-01T08:51:31Z</time>
  </trkpt>
  <trkpt lat="33.130573" lon="-3.166914">
   <ele>1556.00</ele>
   <time>2014-04-01T08:51:34Z</time>
  </trkpt>
  <trkpt lat="33.130423" lon="-3.167048">
   <ele>1557.00</ele>
   <time>2014-04-01T08:51:37Z</time>
  </trkpt>
  <trkpt lat="33.130315" lon="-3.167227">
   <ele>1557.00</ele>
   <time>2014-04-01T08:51:40Z</time>
  </trkpt>
  <trkpt lat="33.130246" lon="-3.167427">
   <ele>1559.00</ele>
   <time>2014-04-01T08:51:43Z</time>
  </trkpt>
  <trkpt lat="33.130203" lon="-3.167637">
   <ele>1560.00</ele>
   <time>2014-04-01T08:51:46Z</time>
  </trkpt>
  <trkpt lat="33.130199" lon="-3.167911">
   <ele>1562.00</ele>
   <time>2014-04-01T08:51:50Z</time>
  </trkpt>
  <trkpt lat="33.130194" lon="-3.168125">
   <ele>1563.00</ele>
   <time>2014-04-01T08:51:54Z</time>
  </trkpt>
  <trkpt lat="33.130058" lon="-3.168261">
   <ele>1563.00</ele>
   <time>2014-04-01T08:52:03Z</time>
  </trkpt>
  <trkpt lat="33.129872" lon="-3.168265">
   <ele>1563.00</ele>
   <time>2014-04-01T08:52:08Z</time>
  </trkpt>
  <trkpt lat="33.129662" lon="-3.168297">
   <ele>1562.00</ele>
   <time>2014-04-01T08:52:13Z</time>
  </trkpt>
  <trkpt lat="33.129458" lon="-3.168376">
   <ele>1561.00</ele>
   <time>2014-04-01T08:52:17Z</time>
  </trkpt>
  <trkpt lat="33.129243" lon="-3.168506">
   <ele>1560.00</ele>
   <time>2014-04-01T08:52:21Z</time>
  </trkpt>
  <trkpt lat="33.129093" lon="-3.168631">
   <ele>1560.00</ele>
   <time>2014-04-01T08:52:24Z</time>
  </trkpt>
  <trkpt lat="33.128966" lon="-3.168810">
   <ele>1560.00</ele>
   <time>2014-04-01T08:52:29Z</time>
  </trkpt>
  <trkpt lat="33.128803" lon="-3.168979">
   <ele>1560.00</ele>
   <time>2014-04-01T08:52:38Z</time>
  </trkpt>
  <trkpt lat="33.128662" lon="-3.169133">
   <ele>1559.00</ele>
   <time>2014-04-01T08:52:42Z</time>
  </trkpt>
  <trkpt lat="33.128359" lon="-3.169508">
   <ele>1559.00</ele>
   <time>2014-04-01T08:52:50Z</time>
  </trkpt>
  <trkpt lat="33.128210" lon="-3.169695">
   <ele>1560.00</ele>
   <time>2014-04-01T08:52:54Z</time>
  </trkpt>
  <trkpt lat="33.128012" lon="-3.169838">
   <ele>1560.00</ele>
   <time>2014-04-01T08:52:58Z</time>
  </trkpt>
  <trkpt lat="33.127837" lon="-3.169920">
   <ele>1560.00</ele>
   <time>2014-04-01T08:53:01Z</time>
  </trkpt>
  <trkpt lat="33.127647" lon="-3.169928">
   <ele>1560.00</ele>
   <time>2014-04-01T08:53:04Z</time>
  </trkpt>
  <trkpt lat="33.127447" lon="-3.169923">
   <ele>1560.00</ele>
   <time>2014-04-01T08:53:07Z</time>
  </trkpt>
  <trkpt lat="33.127243" lon="-3.169953">
   <ele>1561.00</ele>
   <time>2014-04-01T08:53:10Z</time>
  </trkpt>
  <trkpt lat="33.127050" lon="-3.169990">
   <ele>1562.00</ele>
   <time>2014-04-01T08:53:13Z</time>
  </trkpt>
  <trkpt lat="33.126872" lon="-3.170048">
   <ele>1562.00</ele>
   <time>2014-04-01T08:53:16Z</time>
  </trkpt>
  <trkpt lat="33.126651" lon="-3.170111">
   <ele>1562.00</ele>
   <time>2014-04-01T08:53:20Z</time>
  </trkpt>
  <trkpt lat="33.126440" lon="-3.170085">
   <ele>1562.00</ele>
   <time>2014-04-01T08:53:24Z</time>
  </trkpt>
  <trkpt lat="33.126232" lon="-3.170103">
   <ele>1562.00</ele>
   <time>2014-04-01T08:53:28Z</time>
  </trkpt>
  <trkpt lat="33.126048" lon="-3.170149">
   <ele>1562.00</ele>
   <time>2014-04-01T08:53:32Z</time>
  </trkpt>
  <trkpt lat="33.125865" lon="-3.170236">
   <ele>1562.00</ele>
   <time>2014-04-01T08:53:36Z</time>
  </trkpt>
  <trkpt lat="33.125688" lon="-3.170353">
   <ele>1563.00</ele>
   <time>2014-04-01T08:53:40Z</time>
  </trkpt>
  <trkpt lat="33.125562" lon="-3.170538">
   <ele>1563.00</ele>
   <time>2014-04-01T08:53:44Z</time>
  </trkpt>
  <trkpt lat="33.125455" lon="-3.170740">
   <ele>1563.00</ele>
   <time>2014-04-01T08:53:50Z</time>
  </trkpt>
  <trkpt lat="33.125295" lon="-3.170856">
   <ele>1564.00</ele>
   <time>2014-04-01T08:53:57Z</time>
  </trkpt>
  <trkpt lat="33.125154" lon="-3.171034">
   <ele>1564.00</ele>
   <time>2014-04-01T08:54:02Z</time>
  </trkpt>
  <trkpt lat="33.124938" lon="-3.171207">
   <ele>1564.00</ele>
   <time>2014-04-01T08:54:07Z</time>
  </trkpt>
  <trkpt lat="33.124711" lon="-3.171401">
   <ele>1564.00</ele>
   <time>2014-04-01T08:54:12Z</time>
  </trkpt>
  <trkpt lat="33.124509" lon="-3.171556">
   <ele>1564.00</ele>
   <time>2014-04-01T08:54:16Z</time>
  </trkpt>
  <trkpt lat="33.124318" lon="-3.171632">
   <ele>1564.00</ele>
   <time>2014-04-01T08:54:19Z</time>
  </trkpt>
  <trkpt lat="33.124115" lon="-3.171715">
   <ele>1565.00</ele>
   <time>2014-04-01T08:54:22Z</time>
  </trkpt>
  <trkpt lat="33.123912" lon="-3.171836">
   <ele>1566.00</ele>
   <time>2014-04-01T08:54:25Z</time>
  </trkpt>
  <trkpt lat="33.123707" lon="-3.171962">
   <ele>1566.00</ele>
   <time>2014-04-01T08:54:28Z</time>
  </trkpt>
  <trkpt lat="33.123481" lon="-3.172094">
   <ele>1567.00</ele>
   <time>2014-04-01T08:54:31Z</time>
  </trkpt>
  <trkpt lat="33.123259" lon="-3.172254">
   <ele>1567.00</ele>
   <time>2014-04-01T08:54:34Z</time>
  </trkpt>
  <trkpt lat="33.123053" lon="-3.172450">
   <ele>1568.00</ele>
   <time>2014-04-01T08:54:37Z</time>
  </trkpt>
  <trkpt lat="33.122478" lon="-3.173076">
   <ele>1571.00</ele>
   <time>2014-04-01T08:54:46Z</time>
  </trkpt>
  <trkpt lat="33.122312" lon="-3.173259">
   <ele>1572.00</ele>
   <time>2014-04-01T08:54:49Z</time>
  </trkpt>
  <trkpt lat="33.122164" lon="-3.173454">
   <ele>1573.00</ele>
   <time>2014-04-01T08:54:52Z</time>
  </trkpt>
  <trkpt lat="33.122006" lon="-3.173624">
   <ele>1574.00</ele>
   <time>2014-04-01T08:54:56Z</time>
  </trkpt>
  <trkpt lat="33.121816" lon="-3.173706">
   <ele>1574.00</ele>
   <time>2014-04-01T08:55:01Z</time>
  </trkpt>
  <trkpt lat="33.121663" lon="-3.173855">
   <ele>1575.00</ele>
   <time>2014-04-01T08:55:05Z</time>
  </trkpt>
  <trkpt lat="33.121534" lon="-3.174092">
   <ele>1576.00</ele>
   <time>2014-04-01T08:55:09Z</time>
  </trkpt>
  <trkpt lat="33.121470" lon="-3.174302">
   <ele>1577.00</ele>
   <time>2014-04-01T08:55:12Z</time>
  </trkpt>
  <trkpt lat="33.121425" lon="-3.174522">
   <ele>1578.00</ele>
   <time>2014-04-01T08:55:15Z</time>
  </trkpt>
  <trkpt lat="33.121362" lon="-3.174732">
   <ele>1579.00</ele>
   <time>2014-04-01T08:55:18Z</time>
  </trkpt>
  <trkpt lat="33.121254" lon="-3.174907">
   <ele>1580.00</ele>
   <time>2014-04-01T08:55:21Z</time>
  </trkpt>
  <trkpt lat="33.121102" lon="-3.175105">
   <ele>1582.00</ele>
   <time>2014-04-01T08:55:25Z</time>
  </trkpt>
  <trkpt lat="33.120967" lon="-3.175297">
   <ele>1583.00</ele>
   <time>2014-04-01T08:55:29Z</time>
  </trkpt>
  <trkpt lat="33.120811" lon="-3.175461">
   <ele>1585.00</ele>
   <time>2014-04-01T08:55:33Z</time>
  </trkpt>
  <trkpt lat="33.120647" lon="-3.175637">
   <ele>1586.00</ele>
   <time>2014-04-01T08:55:37Z</time>
  </trkpt>
  <trkpt lat="33.120531" lon="-3.175890">
   <ele>1587.00</ele>
   <time>2014-04-01T08:55:41Z</time>
  </trkpt>
  <trkpt lat="33.120449" lon="-3.176100">
   <ele>1588.00</ele>
   <time>2014-04-01T08:55:44Z</time>
  </trkpt>
  <trkpt lat="33.120324" lon="-3.176368">
   <ele>1589.00</ele>
   <time>2014-04-01T08:55:48Z</time>
  </trkpt>
  <trkpt lat="33.120250" lon="-3.176587">
   <ele>1589.00</ele>
   <time>2014-04-01T08:55:51Z</time>
  </trkpt>
  <trkpt lat="33.120119" lon="-3.177053">
   <ele>1588.00</ele>
   <time>2014-04-01T08:55:57Z</time>
  </trkpt>
  <trkpt lat="33.120010" lon="-3.177471">
   <ele>1587.00</ele>
   <time>2014-04-01T08:56:04Z</time>
  </trkpt>
  <trkpt lat="33.119967" lon="-3.177684">
   <ele>1586.00</ele>
   <time>2014-04-01T08:56:12Z</time>
  </trkpt>
  <trkpt lat="33.119909" lon="-3.177924">
   <ele>1586.00</ele>
   <time>2014-04-01T08:56:20Z</time>
  </trkpt>
  <trkpt lat="33.119876" lon="-3.178177">
   <ele>1586.00</ele>
   <time>2014-04-01T08:56:25Z</time>
  </trkpt>
  <trkpt lat="33.119822" lon="-3.178412">
   <ele>1587.00</ele>
   <time>2014-04-01T08:56:29Z</time>
  </trkpt>
  <trkpt lat="33.119759" lon="-3.178657">
   <ele>1588.00</ele>
   <time>2014-04-01T08:56:33Z</time>
  </trkpt>
  <trkpt lat="33.119673" lon="-3.179024">
   <ele>1589.00</ele>
   <time>2014-04-01T08:56:40Z</time>
  </trkpt>
  <trkpt lat="33.119572" lon="-3.179354">
   <ele>1590.00</ele>
   <time>2014-04-01T08:56:45Z</time>
  </trkpt>
  <trkpt lat="33.119465" lon="-3.179588">
   <ele>1591.00</ele>
   <time>2014-04-01T08:56:49Z</time>
  </trkpt>
  <trkpt lat="33.119268" lon="-3.179916">
   <ele>1592.00</ele>
   <time>2014-04-01T08:56:55Z</time>
  </trkpt>
  <trkpt lat="33.119171" lon="-3.180115">
   <ele>1593.00</ele>
   <time>2014-04-01T08:56:58Z</time>
  </trkpt>
  <trkpt lat="33.119099" lon="-3.180342">
   <ele>1594.00</ele>
   <time>2014-04-01T08:57:01Z</time>
  </trkpt>
  <trkpt lat="33.119011" lon="-3.180643">
   <ele>1595.00</ele>
   <time>2014-04-01T08:57:05Z</time>
  </trkpt>
  <trkpt lat="33.118952" lon="-3.180848">
   <ele>1596.00</ele>
   <time>2014-04-01T08:57:08Z</time>
  </trkpt>
  <trkpt lat="33.118842" lon="-3.181091">
   <ele>1597.00</ele>
   <time>2014-04-01T08:57:12Z</time>
  </trkpt>
  <trkpt lat="33.118710" lon="-3.181322">
   <ele>1598.00</ele>
   <time>2014-04-01T08:57:16Z</time>
  </trkpt>
  <trkpt lat="33.118589" lon="-3.181536">
   <ele>1599.00</ele>
   <time>2014-04-01T08:57:20Z</time>
  </trkpt>
  <trkpt lat="33.118480" lon="-3.181724">
   <ele>1599.00</ele>
   <time>2014-04-01T08:57:24Z</time>
  </trkpt>
  <trkpt lat="33.118393" lon="-3.181925">
   <ele>1599.00</ele>
   <time>2014-04-01T08:57:28Z</time>
  </trkpt>
  <trkpt lat="33.118226" lon="-3.181891">
   <ele>1599.00</ele>
   <time>2014-04-01T08:57:32Z</time>
  </trkpt>
  <trkpt lat="33.118055" lon="-3.181775">
   <ele>1598.00</ele>
   <time>2014-04-01T08:57:36Z</time>
  </trkpt>
  <trkpt lat="33.117878" lon="-3.181718">
   <ele>1598.00</ele>
   <time>2014-04-01T08:57:40Z</time>
  </trkpt>
  <trkpt lat="33.117696" lon="-3.181692">
   <ele>1598.00</ele>
   <time>2014-04-01T08:57:44Z</time>
  </trkpt>
  <trkpt lat="33.117511" lon="-3.181663">
   <ele>1598.00</ele>
   <time>2014-04-01T08:57:48Z</time>
  </trkpt>
  <trkpt lat="33.117232" lon="-3.181597">
   <ele>1598.00</ele>
   <time>2014-04-01T08:57:54Z</time>
  </trkpt>
  <trkpt lat="33.117032" lon="-3.181530">
   <ele>1597.00</ele>
   <time>2014-04-01T08:57:58Z</time>
  </trkpt>
  <trkpt lat="33.116813" lon="-3.181442">
   <ele>1597.00</ele>
   <time>2014-04-01T08:58:02Z</time>
  </trkpt>
  <trkpt lat="33.116404" lon="-3.181308">
   <ele>1596.00</ele>
   <time>2014-04-01T08:58:09Z</time>
  </trkpt>
  <trkpt lat="33.116226" lon="-3.181260">
   <ele>1596.00</ele>
   <time>2014-04-01T08:58:12Z</time>
  </trkpt>
  <trkpt lat="33.115349" lon="-3.181034">
   <ele>1595.00</ele>
   <time>2014-04-01T08:58:26Z</time>
  </trkpt>
  <trkpt lat="33.115165" lon="-3.180984">
   <ele>1594.00</ele>
   <time>2014-04-01T08:58:29Z</time>
  </trkpt>
  <trkpt lat="33.114868" lon="-3.180914">
   <ele>1594.00</ele>
   <time>2014-04-01T08:58:34Z</time>
  </trkpt>
  <trkpt lat="33.114653" lon="-3.180818">
   <ele>1594.00</ele>
   <time>2014-04-01T08:58:38Z</time>
  </trkpt>
  <trkpt lat="33.114436" lon="-3.180693">
   <ele>1593.00</ele>
   <time>2014-04-01T08:58:42Z</time>
  </trkpt>
  <trkpt lat="33.114220" lon="-3.180576">
   <ele>1593.00</ele>
   <time>2014-04-01T08:58:46Z</time>
  </trkpt>
  <trkpt lat="33.114013" lon="-3.180451">
   <ele>1592.00</ele>
   <time>2014-04-01T08:58:50Z</time>
  </trkpt>
  <trkpt lat="33.113846" lon="-3.180365">
   <ele>1592.00</ele>
   <time>2014-04-01T08:58:53Z</time>
  </trkpt>
  <trkpt lat="33.113663" lon="-3.180279">
   <ele>1592.00</ele>
   <time>2014-04-01T08:58:56Z</time>
  </trkpt>
  <trkpt lat="33.113464" lon="-3.180214">
   <ele>1592.00</ele>
   <time>2014-04-01T08:58:59Z</time>
  </trkpt>
  <trkpt lat="33.113257" lon="-3.180137">
   <ele>1591.00</ele>
   <time>2014-04-01T08:59:02Z</time>
  </trkpt>
  <trkpt lat="33.113056" lon="-3.180039">
   <ele>1591.00</ele>
   <time>2014-04-01T08:59:05Z</time>
  </trkpt>
  <trkpt lat="33.112741" lon="-3.179890">
   <ele>1591.00</ele>
   <time>2014-04-01T08:59:10Z</time>
  </trkpt>
  <trkpt lat="33.112558" lon="-3.179803">
   <ele>1591.00</ele>
   <time>2014-04-01T08:59:13Z</time>
  </trkpt>
  <trkpt lat="33.112331" lon="-3.179697">
   <ele>1590.00</ele>
   <time>2014-04-01T08:59:17Z</time>
  </trkpt>
  <trkpt lat="33.112145" lon="-3.179588">
   <ele>1590.00</ele>
   <time>2014-04-01T08:59:21Z</time>
  </trkpt>
  <trkpt lat="33.111963" lon="-3.179428">
   <ele>1590.00</ele>
   <time>2014-04-01T08:59:26Z</time>
  </trkpt>
  <trkpt lat="33.111894" lon="-3.179323">
   <ele>1590.00</ele>
   <time>2014-04-01T08:59:41Z</time>
  </trkpt>
  <trkpt lat="33.111898" lon="-3.179321">
   <ele>1591.00</ele>
   <time>2014-04-01T08:59:56Z</time>
  </trkpt>
  <trkpt lat="33.111899" lon="-3.179323">
   <ele>1592.00</ele>
   <time>2014-04-01T09:00:11Z</time>
  </trkpt>
  <trkpt lat="33.111898" lon="-3.179321">
   <ele>1593.00</ele>
   <time>2014-04-01T09:00:27Z</time>
  </trkpt>
  <trkpt lat="33.111898" lon="-3.179317">
   <ele>1594.00</ele>
   <time>2014-04-01T09:00:42Z</time>
  </trkpt>
  <trkpt lat="33.111899" lon="-3.179315">
   <ele>1595.00</ele>
   <time>2014-04-01T09:00:57Z</time>
  </trkpt>
  <trkpt lat="33.111899" lon="-3.179316">
   <ele>1595.00</ele>
   <time>2014-04-01T09:01:13Z</time>
  </trkpt>
  <trkpt lat="33.111899" lon="-3.179316">
   <ele>1594.00</ele>
   <time>2014-04-01T09:01:28Z</time>
  </trkpt>
  <trkpt lat="33.111899" lon="-3.179317">
   <ele>1594.00</ele>
   <time>2014-04-01T09:01:43Z</time>
  </trkpt>
  <trkpt lat="33.111900" lon="-3.179314">
   <ele>1594.00</ele>
   <time>2014-04-01T09:01:59Z</time>
  </trkpt>
  <trkpt lat="33.111900" lon="-3.179312">
   <ele>1594.00</ele>
   <time>2014-04-01T09:02:14Z</time>
  </trkpt>
  <trkpt lat="33.111900" lon="-3.179312">
   <ele>1594.00</ele>
   <time>2014-04-01T09:02:15Z</time>
  </trkpt>
 </trkseg>
 <trkseg>
  <trkpt lat="33.111901" lon="-3.179316">
   <ele>1592.00</ele>
   <time>2014-04-01T09:05:31Z</time>
  </trkpt>
  <trkpt lat="33.111827" lon="-3.179425">
   <ele>1591.00</ele>
   <time>2014-04-01T09:05:46Z</time>
  </trkpt>
  <trkpt lat="33.111920" lon="-3.179552">
   <ele>1591.00</ele>
   <time>2014-04-01T09:05:55Z</time>
  </trkpt>
  <trkpt lat="33.111885" lon="-3.179328">
   <ele>1590.00</ele>
   <time>2014-04-01T09:06:03Z</time>
  </trkpt>
  <trkpt lat="33.111828" lon="-3.179098">
   <ele>1590.00</ele>
   <time>2014-04-01T09:06:10Z</time>
  </trkpt>
  <trkpt lat="33.111826" lon="-3.178852">
   <ele>1590.00</ele>
   <time>2014-04-01T09:06:17Z</time>
  </trkpt>
  <trkpt lat="33.111713" lon="-3.178753">
   <ele>1590.00</ele>
   <time>2014-04-01T09:06:25Z</time>
  </trkpt>
  <trkpt lat="33.111607" lon="-3.178959">
   <ele>1589.00</ele>
   <time>2014-04-01T09:06:32Z</time>
  </trkpt>
  <trkpt lat="33.111646" lon="-3.179193">
   <ele>1589.00</ele>
   <time>2014-04-01T09:06:38Z</time>
  </trkpt>
  <trkpt lat="33.111736" lon="-3.179426">
   <ele>1589.00</ele>
   <time>2014-04-01T09:06:44Z</time>
  </trkpt>
  <trkpt lat="33.111804" lon="-3.179645">
   <ele>1589.00</ele>
   <time>2014-04-01T09:06:49Z</time>
  </trkpt>
  <trkpt lat="33.111833" lon="-3.179870">
   <ele>1589.00</ele>
   <time>2014-04-01T09:06:53Z</time>
  </trkpt>
  <trkpt lat="33.111847" lon="-3.180407">
   <ele>1589.00</ele>
   <time>2014-04-01T09:07:01Z</time>
  </trkpt>
  <trkpt lat="33.111851" lon="-3.180779">
   <ele>1589.00</ele>
   <time>2014-04-01T09:07:06Z</time>
  </trkpt>
  <trkpt lat="33.111827" lon="-3.181000">
   <ele>1589.00</ele>
   <time>2014-04-01T09:07:09Z</time>
  </trkpt>
  <trkpt lat="33.111767" lon="-3.181214">
   <ele>1588.00</ele>
   <time>2014-04-01T09:07:12Z</time>
  </trkpt>
  <trkpt lat="33.111692" lon="-3.181433">
   <ele>1588.00</ele>
   <time>2014-04-01T09:07:15Z</time>
  </trkpt>
  <trkpt lat="33.111587" lon="-3.181642">
   <ele>1588.00</ele>
   <time>2014-04-01T09:07:18Z</time>
  </trkpt>
  <trkpt lat="33.111462" lon="-3.181841">
   <ele>1587.00</ele>
   <time>2014-04-01T09:07:21Z</time>
  </trkpt>
  <trkpt lat="33.111246" lon="-3.182175">
   <ele>1587.00</ele>
   <time>2014-04-01T09:07:26Z</time>
  </trkpt>
  <trkpt lat="33.111144" lon="-3.182399">
   <ele>1587.00</ele>
   <time>2014-04-01T09:07:29Z</time>
  </trkpt>
  <trkpt lat="33.111045" lon="-3.182630">
   <ele>1587.00</ele>
   <time>2014-04-01T09:07:32Z</time>
  </trkpt>
  <trkpt lat="33.110870" lon="-3.182994">
   <ele>1587.00</ele>
   <time>2014-04-01T09:07:37Z</time>
  </trkpt>
  <trkpt lat="33.110805" lon="-3.183239">
   <ele>1587.00</ele>
   <time>2014-04-01T09:07:40Z</time>
  </trkpt>
  <trkpt lat="33.110771" lon="-3.183497">
   <ele>1587.00</ele>
   <time>2014-04-01T09:07:43Z</time>
  </trkpt>
  <trkpt lat="33.110754" lon="-3.183736">
   <ele>1587.00</ele>
   <time>2014-04-01T09:07:46Z</time>
  </trkpt>
  <trkpt lat="33.110626" lon="-3.183945">
   <ele>1587.00</ele>
   <time>2014-04-01T09:07:50Z</time>
  </trkpt>
  <trkpt lat="33.110441" lon="-3.184061">
   <ele>1586.00</ele>
   <time>2014-04-01T09:07:54Z</time>
  </trkpt>
  <trkpt lat="33.110255" lon="-3.184116">
   <ele>1586.00</ele>
   <time>2014-04-01T09:07:58Z</time>
  </trkpt>
  <trkpt lat="33.109933" lon="-3.184195">
   <ele>1586.00</ele>
   <time>2014-04-01T09:08:04Z</time>
  </trkpt>
  <trkpt lat="33.109586" lon="-3.184253">
   <ele>1585.00</ele>
   <time>2014-04-01T09:08:09Z</time>
  </trkpt>
  <trkpt lat="33.109025" lon="-3.184308">
   <ele>1584.00</ele>
   <time>2014-04-01T09:08:16Z</time>
  </trkpt>
  <trkpt lat="33.108788" lon="-3.184318">
   <ele>1584.00</ele>
   <time>2014-04-01T09:08:19Z</time>
  </trkpt>
  <trkpt lat="33.108480" lon="-3.184313">
   <ele>1583.00</ele>
   <time>2014-04-01T09:08:23Z</time>
  </trkpt>
  <trkpt lat="33.107935" lon="-3.184291">
   <ele>1583.00</ele>
   <time>2014-04-01T09:08:30Z</time>
  </trkpt>
  <trkpt lat="33.107692" lon="-3.184319">
   <ele>1583.00</ele>
   <time>2014-04-01T09:08:33Z</time>
  </trkpt>
  <trkpt lat="33.107451" lon="-3.184363">
   <ele>1582.00</ele>
   <time>2014-04-01T09:08:36Z</time>
  </trkpt>
  <trkpt lat="33.107223" lon="-3.184457">
   <ele>1582.00</ele>
   <time>2014-04-01T09:08:39Z</time>
  </trkpt>
  <trkpt lat="33.106927" lon="-3.184595">
   <ele>1582.00</ele>
   <time>2014-04-01T09:08:43Z</time>
  </trkpt>
  <trkpt lat="33.106709" lon="-3.184645">
   <ele>1582.00</ele>
   <time>2014-04-01T09:08:46Z</time>
  </trkpt>
  <trkpt lat="33.106333" lon="-3.184692">
   <ele>1582.00</ele>
   <time>2014-04-01T09:08:51Z</time>
  </trkpt>
  <trkpt lat="33.106101" lon="-3.184733">
   <ele>1582.00</ele>
   <time>2014-04-01T09:08:54Z</time>
  </trkpt>
  <trkpt lat="33.105794" lon="-3.184834">
   <ele>1582.00</ele>
   <time>2014-04-01T09:08:58Z</time>
  </trkpt>
  <trkpt lat="33.105554" lon="-3.184867">
   <ele>1583.00</ele>
   <time>2014-04-01T09:09:01Z</time>
  </trkpt>
  <trkpt lat="33.105296" lon="-3.184905">
   <ele>1583.00</ele>
   <time>2014-04-01T09:09:04Z</time>
  </trkpt>
  <trkpt lat="33.105037" lon="-3.184960">
   <ele>1583.00</ele>
   <time>2014-04-01T09:09:07Z</time>
  </trkpt>
  <trkpt lat="33.104781" lon="-3.185047">
   <ele>1583.00</ele>
   <time>2014-04-01T09:09:10Z</time>
  </trkpt>
  <trkpt lat="33.104439" lon="-3.185182">
   <ele>1584.00</ele>
   <time>2014-04-01T09:09:14Z</time>
  </trkpt>
  <trkpt lat="33.103925" lon="-3.185366">
   <ele>1583.00</ele>
   <time>2014-04-01T09:09:20Z</time>
  </trkpt>
  <trkpt lat="33.103759" lon="-3.185454">
   <ele>1583.00</ele>
   <time>2014-04-01T09:09:22Z</time>
  </trkpt>
  <trkpt lat="33.103335" lon="-3.185686">
   <ele>1583.00</ele>
   <time>2014-04-01T09:09:27Z</time>
  </trkpt>
  <trkpt lat="33.103157" lon="-3.185766">
   <ele>1583.00</ele>
   <time>2014-04-01T09:09:29Z</time>
  </trkpt>
  <trkpt lat="33.102893" lon="-3.185883">
   <ele>1584.00</ele>
   <time>2014-04-01T09:09:32Z</time>
  </trkpt>
  <trkpt lat="33.102619" lon="-3.186031">
   <ele>1584.00</ele>
   <time>2014-04-01T09:09:36Z</time>
  </trkpt>
  <trkpt lat="33.102503" lon="-3.186256">
   <ele>1584.00</ele>
   <time>2014-04-01T09:09:40Z</time>
  </trkpt>
  <trkpt lat="33.102443" lon="-3.186527">
   <ele>1583.00</ele>
   <time>2014-04-01T09:09:44Z</time>
  </trkpt>
  <trkpt lat="33.102270" lon="-3.186696">
   <ele>1584.00</ele>
   <time>2014-04-01T09:09:48Z</time>
  </trkpt>
  <trkpt lat="33.102093" lon="-3.186754">
   <ele>1584.00</ele>
   <time>2014-04-01T09:09:51Z</time>
  </trkpt>
  <trkpt lat="33.101894" lon="-3.186837">
   <ele>1584.00</ele>
   <time>2014-04-01T09:09:54Z</time>
  </trkpt>
  <trkpt lat="33.101681" lon="-3.186949">
   <ele>1584.00</ele>
   <time>2014-04-01T09:09:57Z</time>
  </trkpt>
  <trkpt lat="33.101446" lon="-3.187048">
   <ele>1583.00</ele>
   <time>2014-04-01T09:10:00Z</time>
  </trkpt>
  <trkpt lat="33.101111" lon="-3.187193">
   <ele>1583.00</ele>
   <time>2014-04-01T09:10:04Z</time>
  </trkpt>
  <trkpt lat="33.099890" lon="-3.187784">
   <ele>1580.00</ele>
   <time>2014-04-01T09:10:17Z</time>
  </trkpt>
  <trkpt lat="33.099707" lon="-3.187899">
   <ele>1580.00</ele>
   <time>2014-04-01T09:10:19Z</time>
  </trkpt>
  <trkpt lat="33.099521" lon="-3.188010">
   <ele>1579.00</ele>
   <time>2014-04-01T09:10:21Z</time>
  </trkpt>
  <trkpt lat="33.099324" lon="-3.188091">
   <ele>1579.00</ele>
   <time>2014-04-01T09:10:23Z</time>
  </trkpt>
  <trkpt lat="33.099124" lon="-3.188139">
   <ele>1579.00</ele>
   <time>2014-04-01T09:10:25Z</time>
  </trkpt>
  <trkpt lat="33.098841" lon="-3.188201">
   <ele>1578.00</ele>
   <time>2014-04-01T09:10:28Z</time>
  </trkpt>
  <trkpt lat="33.098661" lon="-3.188262">
   <ele>1578.00</ele>
   <time>2014-04-01T09:10:30Z</time>
  </trkpt>
  <trkpt lat="33.098311" lon="-3.188398">
   <ele>1578.00</ele>
   <time>2014-04-01T09:10:34Z</time>
  </trkpt>
  <trkpt lat="33.098137" lon="-3.188485">
   <ele>1577.00</ele>
   <time>2014-04-01T09:10:36Z</time>
  </trkpt>
  <trkpt lat="33.097966" lon="-3.188587">
   <ele>1577.00</ele>
   <time>2014-04-01T09:10:38Z</time>
  </trkpt>
  <trkpt lat="33.097805" lon="-3.188703">
   <ele>1576.00</ele>
   <time>2014-04-01T09:10:40Z</time>
  </trkpt>
  <trkpt lat="33.097604" lon="-3.188915">
   <ele>1575.00</ele>
   <time>2014-04-01T09:10:43Z</time>
  </trkpt>
  <trkpt lat="33.097375" lon="-3.189196">
   <ele>1574.00</ele>
   <time>2014-04-01T09:10:47Z</time>
  </trkpt>
  <trkpt lat="33.097232" lon="-3.189381">
   <ele>1574.00</ele>
   <time>2014-04-01T09:10:51Z</time>
  </trkpt>
  <trkpt lat="33.097119" lon="-3.189571">
   <ele>1574.00</ele>
   <time>2014-04-01T09:10:56Z</time>
  </trkpt>
  <trkpt lat="33.096968" lon="-3.189768">
   <ele>1574.00</ele>
   <time>2014-04-01T09:11:00Z</time>
  </trkpt>
  <trkpt lat="33.096837" lon="-3.189931">
   <ele>1574.00</ele>
   <time>2014-04-01T09:11:04Z</time>
  </trkpt>
  <trkpt lat="33.096719" lon="-3.190141">
   <ele>1574.00</ele>
   <time>2014-04-01T09:11:09Z</time>
  </trkpt>
  <trkpt lat="33.096598" lon="-3.190307">
   <ele>1575.00</ele>
   <time>2014-04-01T09:11:12Z</time>
  </trkpt>
  <trkpt lat="33.096349" lon="-3.190570">
   <ele>1576.00</ele>
   <time>2014-04-01T09:11:17Z</time>
  </trkpt>
  <trkpt lat="33.096168" lon="-3.190712">
   <ele>1576.00</ele>
   <time>2014-04-01T09:11:20Z</time>
  </trkpt>
  <trkpt lat="33.095961" lon="-3.190790">
   <ele>1577.00</ele>
   <time>2014-04-01T09:11:23Z</time>
  </trkpt>
  <trkpt lat="33.095100" lon="-3.190991">
   <ele>1577.00</ele>
   <time>2014-04-01T09:11:33Z</time>
  </trkpt>
  <trkpt lat="33.094912" lon="-3.191050">
   <ele>1577.00</ele>
   <time>2014-04-01T09:11:35Z</time>
  </trkpt>
  <trkpt lat="33.094314" lon="-3.191251">
   <ele>1577.00</ele>
   <time>2014-04-01T09:11:42Z</time>
  </trkpt>
  <trkpt lat="33.094065" lon="-3.191361">
   <ele>1578.00</ele>
   <time>2014-04-01T09:11:45Z</time>
  </trkpt>
  <trkpt lat="33.093715" lon="-3.191534">
   <ele>1578.00</ele>
   <time>2014-04-01T09:11:49Z</time>
  </trkpt>
  <trkpt lat="33.093548" lon="-3.191634">
   <ele>1578.00</ele>
   <time>2014-04-01T09:11:51Z</time>
  </trkpt>
  <trkpt lat="33.093239" lon="-3.191825">
   <ele>1578.00</ele>
   <time>2014-04-01T09:11:55Z</time>
  </trkpt>
  <trkpt lat="33.093036" lon="-3.191963">
   <ele>1578.00</ele>
   <time>2014-04-01T09:11:58Z</time>
  </trkpt>
  <trkpt lat="33.092821" lon="-3.192065">
   <ele>1578.00</ele>
   <time>2014-04-01T09:12:01Z</time>
  </trkpt>
  <trkpt lat="33.092595" lon="-3.192181">
   <ele>1578.00</ele>
   <time>2014-04-01T09:12:04Z</time>
  </trkpt>
  <trkpt lat="33.091890" lon="-3.192574">
   <ele>1577.00</ele>
   <time>2014-04-01T09:12:13Z</time>
  </trkpt>
  <trkpt lat="33.091304" lon="-3.192861">
   <ele>1577.00</ele>
   <time>2014-04-01T09:12:20Z</time>
  </trkpt>
  <trkpt lat="33.091080" lon="-3.193013">
   <ele>1576.00</ele>
   <time>2014-04-01T09:12:23Z</time>
  </trkpt>
  <trkpt lat="33.090894" lon="-3.193218">
   <ele>1575.00</ele>
   <time>2014-04-01T09:12:26Z</time>
  </trkpt>
  <trkpt lat="33.090755" lon="-3.193464">
   <ele>1575.00</ele>
   <time>2014-04-01T09:12:29Z</time>
  </trkpt>
  <trkpt lat="33.090595" lon="-3.193704">
   <ele>1574.00</ele>
   <time>2014-04-01T09:12:32Z</time>
  </trkpt>
  <trkpt lat="33.090452" lon="-3.193960">
   <ele>1574.00</ele>
   <time>2014-04-01T09:12:35Z</time>
  </trkpt>
  <trkpt lat="33.090278" lon="-3.194277">
   <ele>1574.00</ele>
   <time>2014-04-01T09:12:39Z</time>
  </trkpt>
  <trkpt lat="33.090129" lon="-3.194464">
   <ele>1573.00</ele>
   <time>2014-04-01T09:12:42Z</time>
  </trkpt>
  <trkpt lat="33.089977" lon="-3.194653">
   <ele>1573.00</ele>
   <time>2014-04-01T09:12:45Z</time>
  </trkpt>
  <trkpt lat="33.089822" lon="-3.194822">
   <ele>1573.00</ele>
   <time>2014-04-01T09:12:48Z</time>
  </trkpt>
  <trkpt lat="33.089393" lon="-3.195149">
   <ele>1573.00</ele>
   <time>2014-04-01T09:12:55Z</time>
  </trkpt>
  <trkpt lat="33.089230" lon="-3.195319">
   <ele>1573.00</ele>
   <time>2014-04-01T09:12:58Z</time>
  </trkpt>
  <trkpt lat="33.089035" lon="-3.195555">
   <ele>1573.00</ele>
   <time>2014-04-01T09:13:02Z</time>
  </trkpt>
  <trkpt lat="33.088910" lon="-3.195738">
   <ele>1573.00</ele>
   <time>2014-04-01T09:13:05Z</time>
  </trkpt>
  <trkpt lat="33.088767" lon="-3.195905">
   <ele>1574.00</ele>
   <time>2014-04-01T09:13:10Z</time>
  </trkpt>
  <trkpt lat="33.088622" lon="-3.196038">
   <ele>1574.00</ele>
   <time>2014-04-01T09:13:14Z</time>
  </trkpt>
  <trkpt lat="33.088460" lon="-3.196250">
   <ele>1575.00</ele>
   <time>2014-04-01T09:13:18Z</time>
  </trkpt>
  <trkpt lat="33.088266" lon="-3.196491">
   <ele>1575.00</ele>
   <time>2014-04-01T09:13:22Z</time>
  </trkpt>
  <trkpt lat="33.088134" lon="-3.196710">
   <ele>1576.00</ele>
   <time>2014-04-01T09:13:25Z</time>
  </trkpt>
  <trkpt lat="33.087982" lon="-3.196944">
   <ele>1576.00</ele>
   <time>2014-04-01T09:13:28Z</time>
  </trkpt>
  <trkpt lat="33.087788" lon="-3.197130">
   <ele>1577.00</ele>
   <time>2014-04-01T09:13:31Z</time>
  </trkpt>
  <trkpt lat="33.087559" lon="-3.197250">
   <ele>1577.00</ele>
   <time>2014-04-01T09:13:34Z</time>
  </trkpt>
  <trkpt lat="33.087313" lon="-3.197342">
   <ele>1577.00</ele>
   <time>2014-04-01T09:13:37Z</time>
  </trkpt>
  <trkpt lat="33.087071" lon="-3.197432">
   <ele>1577.00</ele>
   <time>2014-04-01T09:13:40Z</time>
  </trkpt>
  <trkpt lat="33.086836" lon="-3.197538">
   <ele>1577.00</ele>
   <time>2014-04-01T09:13:43Z</time>
  </trkpt>
  <trkpt lat="33.086531" lon="-3.197715">
   <ele>1576.00</ele>
   <time>2014-04-01T09:13:47Z</time>
  </trkpt>
  <trkpt lat="33.086280" lon="-3.197784">
   <ele>1575.00</ele>
   <time>2014-04-01T09:13:50Z</time>
  </trkpt>
  <trkpt lat="33.085937" lon="-3.197853">
   <ele>1575.00</ele>
   <time>2014-04-01T09:13:54Z</time>
  </trkpt>
  <trkpt lat="33.085698" lon="-3.197966">
   <ele>1575.00</ele>
   <time>2014-04-01T09:13:57Z</time>
  </trkpt>
  <trkpt lat="33.085500" lon="-3.198165">
   <ele>1575.00</ele>
   <time>2014-04-01T09:14:00Z</time>
  </trkpt>
  <trkpt lat="33.085302" lon="-3.198365">
   <ele>1575.00</ele>
   <time>2014-04-01T09:14:03Z</time>
  </trkpt>
  <trkpt lat="33.085110" lon="-3.198565">
   <ele>1576.00</ele>
   <time>2014-04-01T09:14:06Z</time>
  </trkpt>
  <trkpt lat="33.084925" lon="-3.198723">
   <ele>1576.00</ele>
   <time>2014-04-01T09:14:09Z</time>
  </trkpt>
  <trkpt lat="33.084758" lon="-3.198865">
   <ele>1576.00</ele>
   <time>2014-04-01T09:14:12Z</time>
  </trkpt>
  <trkpt lat="33.084599" lon="-3.199043">
   <ele>1576.00</ele>
   <time>2014-04-01T09:14:15Z</time>
  </trkpt>
  <trkpt lat="33.084391" lon="-3.199174">
   <ele>1575.00</ele>
   <time>2014-04-01T09:14:18Z</time>
  </trkpt>
  <trkpt lat="33.084079" lon="-3.199268">
   <ele>1574.00</ele>
   <time>2014-04-01T09:14:22Z</time>
  </trkpt>
  <trkpt lat="33.083765" lon="-3.199431">
   <ele>1573.00</ele>
   <time>2014-04-01T09:14:26Z</time>
  </trkpt>
  <trkpt lat="33.083514" lon="-3.199508">
   <ele>1573.00</ele>
   <time>2014-04-01T09:14:29Z</time>
  </trkpt>
  <trkpt lat="33.083267" lon="-3.199555">
   <ele>1573.00</ele>
   <time>2014-04-01T09:14:32Z</time>
  </trkpt>
  <trkpt lat="33.083017" lon="-3.199588">
   <ele>1572.00</ele>
   <time>2014-04-01T09:14:35Z</time>
  </trkpt>
  <trkpt lat="33.082787" lon="-3.199653">
   <ele>1573.00</ele>
   <time>2014-04-01T09:14:38Z</time>
  </trkpt>
  <trkpt lat="33.082580" lon="-3.199814">
   <ele>1573.00</ele>
   <time>2014-04-01T09:14:41Z</time>
  </trkpt>
  <trkpt lat="33.082416" lon="-3.200034">
   <ele>1573.00</ele>
   <time>2014-04-01T09:14:44Z</time>
  </trkpt>
  <trkpt lat="33.082232" lon="-3.200215">
   <ele>1573.00</ele>
   <time>2014-04-01T09:14:47Z</time>
  </trkpt>
  <trkpt lat="33.081997" lon="-3.200313">
   <ele>1573.00</ele>
   <time>2014-04-01T09:14:50Z</time>
  </trkpt>
  <trkpt lat="33.081679" lon="-3.200400">
   <ele>1573.00</ele>
   <time>2014-04-01T09:14:54Z</time>
  </trkpt>
  <trkpt lat="33.081460" lon="-3.200472">
   <ele>1573.00</ele>
   <time>2014-04-01T09:14:57Z</time>
  </trkpt>
  <trkpt lat="33.081174" lon="-3.200494">
   <ele>1573.00</ele>
   <time>2014-04-01T09:15:01Z</time>
  </trkpt>
  <trkpt lat="33.080975" lon="-3.200615">
   <ele>1572.00</ele>
   <time>2014-04-01T09:15:04Z</time>
  </trkpt>
  <trkpt lat="33.080775" lon="-3.200784">
   <ele>1572.00</ele>
   <time>2014-04-01T09:15:07Z</time>
  </trkpt>
  <trkpt lat="33.080551" lon="-3.200935">
   <ele>1571.00</ele>
   <time>2014-04-01T09:15:10Z</time>
  </trkpt>
  <trkpt lat="33.080345" lon="-3.201091">
   <ele>1571.00</ele>
   <time>2014-04-01T09:15:13Z</time>
  </trkpt>
  <trkpt lat="33.080146" lon="-3.201214">
   <ele>1570.00</ele>
   <time>2014-04-01T09:15:16Z</time>
  </trkpt>
  <trkpt lat="33.079947" lon="-3.201205">
   <ele>1570.00</ele>
   <time>2014-04-01T09:15:19Z</time>
  </trkpt>
  <trkpt lat="33.079780" lon="-3.201047">
   <ele>1570.00</ele>
   <time>2014-04-01T09:15:22Z</time>
  </trkpt>
  <trkpt lat="33.079611" lon="-3.200855">
   <ele>1569.00</ele>
   <time>2014-04-01T09:15:25Z</time>
  </trkpt>
  <trkpt lat="33.079385" lon="-3.200615">
   <ele>1569.00</ele>
   <time>2014-04-01T09:15:29Z</time>
  </trkpt>
  <trkpt lat="33.079207" lon="-3.200488">
   <ele>1569.00</ele>
   <time>2014-04-01T09:15:32Z</time>
  </trkpt>
  <trkpt lat="33.078955" lon="-3.200370">
   <ele>1569.00</ele>
   <time>2014-04-01T09:15:36Z</time>
  </trkpt>
  <trkpt lat="33.078807" lon="-3.200206">
   <ele>1569.00</ele>
   <time>2014-04-01T09:15:39Z</time>
  </trkpt>
  <trkpt lat="33.078645" lon="-3.200010">
   <ele>1569.00</ele>
   <time>2014-04-01T09:15:42Z</time>
  </trkpt>
  <trkpt lat="33.078436" lon="-3.199849">
   <ele>1568.00</ele>
   <time>2014-04-01T09:15:45Z</time>
  </trkpt>
  <trkpt lat="33.078252" lon="-3.199657">
   <ele>1568.00</ele>
   <time>2014-04-01T09:15:48Z</time>
  </trkpt>
  <trkpt lat="33.078071" lon="-3.199467">
   <ele>1568.00</ele>
   <time>2014-04-01T09:15:51Z</time>
  </trkpt>
  <trkpt lat="33.077844" lon="-3.199317">
   <ele>1568.00</ele>
   <time>2014-04-01T09:15:54Z</time>
  </trkpt>
  <trkpt lat="33.077624" lon="-3.199145">
   <ele>1568.00</ele>
   <time>2014-04-01T09:15:57Z</time>
  </trkpt>
  <trkpt lat="33.077460" lon="-3.198906">
   <ele>1567.00</ele>
   <time>2014-04-01T09:16:00Z</time>
  </trkpt>
  <trkpt lat="33.077348" lon="-3.198737">
   <ele>1567.00</ele>
   <time>2014-04-01T09:16:02Z</time>
  </trkpt>
  <trkpt lat="33.077166" lon="-3.198511">
   <ele>1567.00</ele>
   <time>2014-04-01T09:16:05Z</time>
  </trkpt>
  <trkpt lat="33.076959" lon="-3.198249">
   <ele>1566.00</ele>
   <time>2014-04-01T09:16:09Z</time>
  </trkpt>
  <trkpt lat="33.076775" lon="-3.198124">
   <ele>1566.00</ele>
   <time>2014-04-01T09:16:12Z</time>
  </trkpt>
  <trkpt lat="33.076571" lon="-3.198004">
   <ele>1566.00</ele>
   <time>2014-04-01T09:16:15Z</time>
  </trkpt>
  <trkpt lat="33.076359" lon="-3.197912">
   <ele>1566.00</ele>
   <time>2014-04-01T09:16:18Z</time>
  </trkpt>
  <trkpt lat="33.076142" lon="-3.197843">
   <ele>1565.00</ele>
   <time>2014-04-01T09:16:21Z</time>
  </trkpt>
  <trkpt lat="33.075921" lon="-3.197799">
   <ele>1565.00</ele>
   <time>2014-04-01T09:16:24Z</time>
  </trkpt>
  <trkpt lat="33.075694" lon="-3.197815">
   <ele>1565.00</ele>
   <time>2014-04-01T09:16:27Z</time>
  </trkpt>
  <trkpt lat="33.075463" lon="-3.197837">
   <ele>1565.00</ele>
   <time>2014-04-01T09:16:30Z</time>
  </trkpt>
  <trkpt lat="33.075156" lon="-3.197865">
   <ele>1564.00</ele>
   <time>2014-04-01T09:16:34Z</time>
  </trkpt>
  <trkpt lat="33.074950" lon="-3.197942">
   <ele>1563.00</ele>
   <time>2014-04-01T09:16:37Z</time>
  </trkpt>
  <trkpt lat="33.074780" lon="-3.198090">
   <ele>1563.00</ele>
   <time>2014-04-01T09:16:40Z</time>
  </trkpt>
  <trkpt lat="33.074575" lon="-3.198339">
   <ele>1562.00</ele>
   <time>2014-04-01T09:16:44Z</time>
  </trkpt>
  <trkpt lat="33.074390" lon="-3.198476">
   <ele>1562.00</ele>
   <time>2014-04-01T09:16:47Z</time>
  </trkpt>
  <trkpt lat="33.074205" lon="-3.198588">
   <ele>1563.00</ele>
   <time>2014-04-01T09:16:50Z</time>
  </trkpt>
  <trkpt lat="33.074064" lon="-3.198736">
   <ele>1564.00</ele>
   <time>2014-04-01T09:16:53Z</time>
  </trkpt>
  <trkpt lat="33.073892" lon="-3.198902">
   <ele>1565.00</ele>
   <time>2014-04-01T09:16:57Z</time>
  </trkpt>
  <trkpt lat="33.073763" lon="-3.199059">
   <ele>1566.00</ele>
   <time>2014-04-01T09:17:00Z</time>
  </trkpt>
  <trkpt lat="33.073626" lon="-3.199217">
   <ele>1567.00</ele>
   <time>2014-04-01T09:17:03Z</time>
  </trkpt>
  <trkpt lat="33.073422" lon="-3.199394">
   <ele>1567.00</ele>
   <time>2014-04-01T09:17:07Z</time>
  </trkpt>
  <trkpt lat="33.073236" lon="-3.199490">
   <ele>1566.00</ele>
   <time>2014-04-01T09:17:10Z</time>
  </trkpt>
  <trkpt lat="33.073025" lon="-3.199577">
   <ele>1565.00</ele>
   <time>2014-04-01T09:17:13Z</time>
  </trkpt>
  <trkpt lat="33.072819" lon="-3.199673">
   <ele>1565.00</ele>
   <time>2014-04-01T09:17:16Z</time>
  </trkpt>
  <trkpt lat="33.072613" lon="-3.199736">
   <ele>1563.00</ele>
   <time>2014-04-01T09:17:19Z</time>
  </trkpt>
  <trkpt lat="33.072405" lon="-3.199770">
   <ele>1563.00</ele>
   <time>2014-04-01T09:17:22Z</time>
  </trkpt>
  <trkpt lat="33.072195" lon="-3.199744">
   <ele>1562.00</ele>
   <time>2014-04-01T09:17:25Z</time>
  </trkpt>
  <trkpt lat="33.071985" lon="-3.199639">
   <ele>1561.00</ele>
   <time>2014-04-01T09:17:28Z</time>
  </trkpt>
  <trkpt lat="33.071773" lon="-3.199536">
   <ele>1560.00</ele>
   <time>2014-04-01T09:17:31Z</time>
  </trkpt>
  <trkpt lat="33.071545" lon="-3.199496">
   <ele>1560.00</ele>
   <time>2014-04-01T09:17:34Z</time>
  </trkpt>
  <trkpt lat="33.071280" lon="-3.199512">
   <ele>1559.00</ele>
   <time>2014-04-01T09:17:37Z</time>
  </trkpt>
  <trkpt lat="33.070928" lon="-3.199555">
   <ele>1558.00</ele>
   <time>2014-04-01T09:17:41Z</time>
  </trkpt>
  <trkpt lat="33.070681" lon="-3.199579">
   <ele>1558.00</ele>
   <time>2014-04-01T09:17:44Z</time>
  </trkpt>
  <trkpt lat="33.070474" lon="-3.199636">
   <ele>1557.00</ele>
   <time>2014-04-01T09:17:47Z</time>
  </trkpt>
  <trkpt lat="33.070275" lon="-3.199776">
   <ele>1556.00</ele>
   <time>2014-04-01T09:17:51Z</time>
  </trkpt>
  <trkpt lat="33.070111" lon="-3.199923">
   <ele>1556.00</ele>
   <time>2014-04-01T09:17:55Z</time>
  </trkpt>
  <trkpt lat="33.069905" lon="-3.199950">
   <ele>1558.00</ele>
   <time>2014-04-01T09:18:00Z</time>
  </trkpt>
  <trkpt lat="33.069657" lon="-3.199768">
   <ele>1559.00</ele>
   <time>2014-04-01T09:18:05Z</time>
  </trkpt>
  <trkpt lat="33.069462" lon="-3.199611">
   <ele>1560.00</ele>
   <time>2014-04-01T09:18:09Z</time>
  </trkpt>
  <trkpt lat="33.069350" lon="-3.199368">
   <ele>1561.00</ele>
   <time>2014-04-01T09:18:13Z</time>
  </trkpt>
  <trkpt lat="33.069249" lon="-3.199180">
   <ele>1562.00</ele>
   <time>2014-04-01T09:18:16Z</time>
  </trkpt>
  <trkpt lat="33.069110" lon="-3.199015">
   <ele>1562.00</ele>
   <time>2014-04-01T09:18:19Z</time>
  </trkpt>
  <trkpt lat="33.068950" lon="-3.198874">
   <ele>1562.00</ele>
   <time>2014-04-01T09:18:22Z</time>
  </trkpt>
  <trkpt lat="33.068784" lon="-3.198759">
   <ele>1562.00</ele>
   <time>2014-04-01T09:18:25Z</time>
  </trkpt>
  <trkpt lat="33.068625" lon="-3.198647">
   <ele>1561.00</ele>
   <time>2014-04-01T09:18:28Z</time>
  </trkpt>
  <trkpt lat="33.068485" lon="-3.198503">
   <ele>1560.00</ele>
   <time>2014-04-01T09:18:31Z</time>
  </trkpt>
  <trkpt lat="33.068362" lon="-3.198332">
   <ele>1560.00</ele>
   <time>2014-04-01T09:18:38Z</time>
  </trkpt>
  <trkpt lat="33.068142" lon="-3.198003">
   <ele>1560.00</ele>
   <time>2014-04-01T09:18:49Z</time>
  </trkpt>
  <trkpt lat="33.068005" lon="-3.197808">
   <ele>1561.00</ele>
   <time>2014-04-01T09:18:52Z</time>
  </trkpt>
  <trkpt lat="33.067756" lon="-3.197461">
   <ele>1562.00</ele>
   <time>2014-04-01T09:18:57Z</time>
  </trkpt>
  <trkpt lat="33.067617" lon="-3.197233">
   <ele>1562.00</ele>
   <time>2014-04-01T09:19:00Z</time>
  </trkpt>
  <trkpt lat="33.067495" lon="-3.196985">
   <ele>1562.00</ele>
   <time>2014-04-01T09:19:03Z</time>
  </trkpt>
  <trkpt lat="33.067366" lon="-3.196719">
   <ele>1563.00</ele>
   <time>2014-04-01T09:19:06Z</time>
  </trkpt>
  <trkpt lat="33.067211" lon="-3.196456">
   <ele>1563.00</ele>
   <time>2014-04-01T09:19:09Z</time>
  </trkpt>
  <trkpt lat="33.067087" lon="-3.196286">
   <ele>1564.00</ele>
   <time>2014-04-01T09:19:11Z</time>
  </trkpt>
  <trkpt lat="33.066949" lon="-3.196121">
   <ele>1564.00</ele>
   <time>2014-04-01T09:19:13Z</time>
  </trkpt>
  <trkpt lat="33.066741" lon="-3.195867">
   <ele>1564.00</ele>
   <time>2014-04-01T09:19:16Z</time>
  </trkpt>
  <trkpt lat="33.066613" lon="-3.195685">
   <ele>1565.00</ele>
   <time>2014-04-01T09:19:18Z</time>
  </trkpt>
  <trkpt lat="33.066434" lon="-3.195398">
   <ele>1565.00</ele>
   <time>2014-04-01T09:19:21Z</time>
  </trkpt>
  <trkpt lat="33.066258" lon="-3.195117">
   <ele>1566.00</ele>
   <time>2014-04-01T09:19:24Z</time>
  </trkpt>
  <trkpt lat="33.066132" lon="-3.194940">
   <ele>1566.00</ele>
   <time>2014-04-01T09:19:26Z</time>
  </trkpt>
  <trkpt lat="33.065997" lon="-3.194769">
   <ele>1566.00</ele>
   <time>2014-04-01T09:19:28Z</time>
  </trkpt>
  <trkpt lat="33.065648" lon="-3.194351">
   <ele>1567.00</ele>
   <time>2014-04-01T09:19:33Z</time>
  </trkpt>
  <trkpt lat="33.065522" lon="-3.194166">
   <ele>1567.00</ele>
   <time>2014-04-01T09:19:35Z</time>
  </trkpt>
  <trkpt lat="33.065417" lon="-3.193958">
   <ele>1567.00</ele>
   <time>2014-04-01T09:19:37Z</time>
  </trkpt>
  <trkpt lat="33.064926" lon="-3.192817">
   <ele>1568.00</ele>
   <time>2014-04-01T09:19:47Z</time>
  </trkpt>
  <trkpt lat="33.064593" lon="-3.192137">
   <ele>1569.00</ele>
   <time>2014-04-01T09:19:53Z</time>
  </trkpt>
  <trkpt lat="33.064334" lon="-3.191576">
   <ele>1570.00</ele>
   <time>2014-04-01T09:19:58Z</time>
  </trkpt>
  <trkpt lat="33.064231" lon="-3.191358">
   <ele>1570.00</ele>
   <time>2014-04-01T09:20:00Z</time>
  </trkpt>
  <trkpt lat="33.064142" lon="-3.191125">
   <ele>1571.00</ele>
   <time>2014-04-01T09:20:02Z</time>
  </trkpt>
  <trkpt lat="33.064064" lon="-3.190876">
   <ele>1571.00</ele>
   <time>2014-04-01T09:20:04Z</time>
  </trkpt>
  <trkpt lat="33.063996" lon="-3.190611">
   <ele>1571.00</ele>
   <time>2014-04-01T09:20:06Z</time>
  </trkpt>
  <trkpt lat="33.063938" lon="-3.190331">
   <ele>1571.00</ele>
   <time>2014-04-01T09:20:08Z</time>
  </trkpt>
  <trkpt lat="33.063898" lon="-3.190041">
   <ele>1570.00</ele>
   <time>2014-04-01T09:20:10Z</time>
  </trkpt>
  <trkpt lat="33.063783" lon="-3.188997">
   <ele>1570.00</ele>
   <time>2014-04-01T09:20:17Z</time>
  </trkpt>
  <trkpt lat="33.063734" lon="-3.188700">
   <ele>1570.00</ele>
   <time>2014-04-01T09:20:19Z</time>
  </trkpt>
  <trkpt lat="33.063604" lon="-3.187967">
   <ele>1570.00</ele>
   <time>2014-04-01T09:20:24Z</time>
  </trkpt>
  <trkpt lat="33.063517" lon="-3.187386">
   <ele>1570.00</ele>
   <time>2014-04-01T09:20:28Z</time>
  </trkpt>
  <trkpt lat="33.063456" lon="-3.187104">
   <ele>1570.00</ele>
   <time>2014-04-01T09:20:30Z</time>
  </trkpt>
  <trkpt lat="33.063386" lon="-3.186833">
   <ele>1570.00</ele>
   <time>2014-04-01T09:20:32Z</time>
  </trkpt>
  <trkpt lat="33.063309" lon="-3.186587">
   <ele>1570.00</ele>
   <time>2014-04-01T09:20:34Z</time>
  </trkpt>
  <trkpt lat="33.063218" lon="-3.186392">
   <ele>1570.00</ele>
   <time>2014-04-01T09:20:36Z</time>
  </trkpt>
  <trkpt lat="33.063025" lon="-3.186195">
   <ele>1570.00</ele>
   <time>2014-04-01T09:20:39Z</time>
  </trkpt>
  <trkpt lat="33.062802" lon="-3.186028">
   <ele>1569.00</ele>
   <time>2014-04-01T09:20:42Z</time>
  </trkpt>
  <trkpt lat="33.062571" lon="-3.185890">
   <ele>1569.00</ele>
   <time>2014-04-01T09:20:45Z</time>
  </trkpt>
  <trkpt lat="33.062316" lon="-3.185801">
   <ele>1569.00</ele>
   <time>2014-04-01T09:20:48Z</time>
  </trkpt>
  <trkpt lat="33.062068" lon="-3.185715">
   <ele>1569.00</ele>
   <time>2014-04-01T09:20:51Z</time>
  </trkpt>
  <trkpt lat="33.061872" lon="-3.185522">
   <ele>1568.00</ele>
   <time>2014-04-01T09:20:54Z</time>
  </trkpt>
  <trkpt lat="33.061696" lon="-3.185288">
   <ele>1569.00</ele>
   <time>2014-04-01T09:20:57Z</time>
  </trkpt>
  <trkpt lat="33.061537" lon="-3.185035">
   <ele>1569.00</ele>
   <time>2014-04-01T09:21:00Z</time>
  </trkpt>
  <trkpt lat="33.061363" lon="-3.184827">
   <ele>1568.00</ele>
   <time>2014-04-01T09:21:03Z</time>
  </trkpt>
  <trkpt lat="33.061234" lon="-3.184599">
   <ele>1568.00</ele>
   <time>2014-04-01T09:21:06Z</time>
  </trkpt>
  <trkpt lat="33.061140" lon="-3.184349">
   <ele>1568.00</ele>
   <time>2014-04-01T09:21:09Z</time>
  </trkpt>
  <trkpt lat="33.061066" lon="-3.184081">
   <ele>1569.00</ele>
   <time>2014-04-01T09:21:12Z</time>
  </trkpt>
  <trkpt lat="33.060997" lon="-3.183788">
   <ele>1568.00</ele>
   <time>2014-04-01T09:21:15Z</time>
  </trkpt>
  <trkpt lat="33.060937" lon="-3.183586">
   <ele>1569.00</ele>
   <time>2014-04-01T09:21:17Z</time>
  </trkpt>
  <trkpt lat="33.060894" lon="-3.183372">
   <ele>1569.00</ele>
   <time>2014-04-01T09:21:19Z</time>
  </trkpt>
  <trkpt lat="33.060846" lon="-3.183160">
   <ele>1569.00</ele>
   <time>2014-04-01T09:21:21Z</time>
  </trkpt>
  <trkpt lat="33.060763" lon="-3.182961">
   <ele>1569.00</ele>
   <time>2014-04-01T09:21:23Z</time>
  </trkpt>
  <trkpt lat="33.060658" lon="-3.182778">
   <ele>1569.00</ele>
   <time>2014-04-01T09:21:25Z</time>
  </trkpt>
  <trkpt lat="33.060564" lon="-3.182584">
   <ele>1569.00</ele>
   <time>2014-04-01T09:21:27Z</time>
  </trkpt>
  <trkpt lat="33.060499" lon="-3.182369">
   <ele>1569.00</ele>
   <time>2014-04-01T09:21:29Z</time>
  </trkpt>
  <trkpt lat="33.060467" lon="-3.182143">
   <ele>1569.00</ele>
   <time>2014-04-01T09:21:31Z</time>
  </trkpt>
  <trkpt lat="33.060435" lon="-3.181920">
   <ele>1569.00</ele>
   <time>2014-04-01T09:21:33Z</time>
  </trkpt>
  <trkpt lat="33.060387" lon="-3.181702">
   <ele>1569.00</ele>
   <time>2014-04-01T09:21:35Z</time>
  </trkpt>
  <trkpt lat="33.060306" lon="-3.181362">
   <ele>1569.00</ele>
   <time>2014-04-01T09:21:38Z</time>
  </trkpt>
  <trkpt lat="33.060225" lon="-3.180993">
   <ele>1569.00</ele>
   <time>2014-04-01T09:21:41Z</time>
  </trkpt>
  <trkpt lat="33.060010" lon="-3.180138">
   <ele>1570.00</ele>
   <time>2014-04-01T09:21:48Z</time>
  </trkpt>
  <trkpt lat="33.059925" lon="-3.179899">
   <ele>1570.00</ele>
   <time>2014-04-01T09:21:50Z</time>
  </trkpt>
  <trkpt lat="33.059600" lon="-3.179087">
   <ele>1571.00</ele>
   <time>2014-04-01T09:21:57Z</time>
  </trkpt>
  <trkpt lat="33.059484" lon="-3.178878">
   <ele>1571.00</ele>
   <time>2014-04-01T09:21:59Z</time>
  </trkpt>
  <trkpt lat="33.059346" lon="-3.178686">
   <ele>1571.00</ele>
   <time>2014-04-01T09:22:01Z</time>
  </trkpt>
  <trkpt lat="33.059206" lon="-3.178490">
   <ele>1572.00</ele>
   <time>2014-04-01T09:22:03Z</time>
  </trkpt>
  <trkpt lat="33.059075" lon="-3.178284">
   <ele>1572.00</ele>
   <time>2014-04-01T09:22:05Z</time>
  </trkpt>
  <trkpt lat="33.058941" lon="-3.178079">
   <ele>1572.00</ele>
   <time>2014-04-01T09:22:07Z</time>
  </trkpt>
  <trkpt lat="33.058791" lon="-3.177884">
   <ele>1573.00</ele>
   <time>2014-04-01T09:22:09Z</time>
  </trkpt>
  <trkpt lat="33.058173" lon="-3.177139">
   <ele>1573.00</ele>
   <time>2014-04-01T09:22:17Z</time>
  </trkpt>
  <trkpt lat="33.058008" lon="-3.176971">
   <ele>1573.00</ele>
   <time>2014-04-01T09:22:19Z</time>
  </trkpt>
  <trkpt lat="33.057830" lon="-3.176824">
   <ele>1573.00</ele>
   <time>2014-04-01T09:22:21Z</time>
  </trkpt>
  <trkpt lat="33.057644" lon="-3.176694">
   <ele>1573.00</ele>
   <time>2014-04-01T09:22:23Z</time>
  </trkpt>
  <trkpt lat="33.057374" lon="-3.176501">
   <ele>1573.00</ele>
   <time>2014-04-01T09:22:26Z</time>
  </trkpt>
  <trkpt lat="33.057197" lon="-3.176375">
   <ele>1573.00</ele>
   <time>2014-04-01T09:22:28Z</time>
  </trkpt>
  <trkpt lat="33.057033" lon="-3.176256">
   <ele>1573.00</ele>
   <time>2014-04-01T09:22:30Z</time>
  </trkpt>
  <trkpt lat="33.056857" lon="-3.176024">
   <ele>1573.00</ele>
   <time>2014-04-01T09:22:33Z</time>
  </trkpt>
  <trkpt lat="33.056737" lon="-3.175799">
   <ele>1572.00</ele>
   <time>2014-04-01T09:22:36Z</time>
  </trkpt>
  <trkpt lat="33.056689" lon="-3.175546">
   <ele>1572.00</ele>
   <time>2014-04-01T09:22:39Z</time>
  </trkpt>
  <trkpt lat="33.056644" lon="-3.175266">
   <ele>1572.00</ele>
   <time>2014-04-01T09:22:42Z</time>
  </trkpt>
  <trkpt lat="33.056598" lon="-3.174969">
   <ele>1572.00</ele>
   <time>2014-04-01T09:22:45Z</time>
  </trkpt>
  <trkpt lat="33.056528" lon="-3.174364">
   <ele>1572.00</ele>
   <time>2014-04-01T09:22:51Z</time>
  </trkpt>
  <trkpt lat="33.056486" lon="-3.174088">
   <ele>1573.00</ele>
   <time>2014-04-01T09:22:54Z</time>
  </trkpt>
  <trkpt lat="33.056381" lon="-3.173822">
   <ele>1573.00</ele>
   <time>2014-04-01T09:22:57Z</time>
  </trkpt>
  <trkpt lat="33.056082" lon="-3.173241">
   <ele>1574.00</ele>
   <time>2014-04-01T09:23:03Z</time>
  </trkpt>
  <trkpt lat="33.055972" lon="-3.173060">
   <ele>1574.00</ele>
   <time>2014-04-01T09:23:05Z</time>
  </trkpt>
  <trkpt lat="33.055577" lon="-3.172442">
   <ele>1575.00</ele>
   <time>2014-04-01T09:23:13Z</time>
  </trkpt>
  <trkpt lat="33.055324" lon="-3.172009">
   <ele>1576.00</ele>
   <time>2014-04-01T09:23:18Z</time>
  </trkpt>
  <trkpt lat="33.055072" lon="-3.171531">
   <ele>1577.00</ele>
   <time>2014-04-01T09:23:23Z</time>
  </trkpt>
  <trkpt lat="33.054959" lon="-3.171349">
   <ele>1577.00</ele>
   <time>2014-04-01T09:23:25Z</time>
  </trkpt>
  <trkpt lat="33.054842" lon="-3.171179">
   <ele>1578.00</ele>
   <time>2014-04-01T09:23:27Z</time>
  </trkpt>
  <trkpt lat="33.054743" lon="-3.170993">
   <ele>1578.00</ele>
   <time>2014-04-01T09:23:29Z</time>
  </trkpt>
  <trkpt lat="33.054642" lon="-3.170801">
   <ele>1579.00</ele>
   <time>2014-04-01T09:23:31Z</time>
  </trkpt>
  <trkpt lat="33.054528" lon="-3.170608">
   <ele>1579.00</ele>
   <time>2014-04-01T09:23:33Z</time>
  </trkpt>
  <trkpt lat="33.054401" lon="-3.170417">
   <ele>1580.00</ele>
   <time>2014-04-01T09:23:35Z</time>
  </trkpt>
  <trkpt lat="33.054270" lon="-3.170217">
   <ele>1580.00</ele>
   <time>2014-04-01T09:23:37Z</time>
  </trkpt>
  <trkpt lat="33.054018" lon="-3.169793">
   <ele>1581.00</ele>
   <time>2014-04-01T09:23:41Z</time>
  </trkpt>
  <trkpt lat="33.053902" lon="-3.169578">
   <ele>1581.00</ele>
   <time>2014-04-01T09:23:43Z</time>
  </trkpt>
  <trkpt lat="33.053466" lon="-3.168698">
   <ele>1582.00</ele>
   <time>2014-04-01T09:23:51Z</time>
  </trkpt>
  <trkpt lat="33.053379" lon="-3.168467">
   <ele>1582.00</ele>
   <time>2014-04-01T09:23:53Z</time>
  </trkpt>
  <trkpt lat="33.053314" lon="-3.168233">
   <ele>1583.00</ele>
   <time>2014-04-01T09:23:55Z</time>
  </trkpt>
  <trkpt lat="33.053267" lon="-3.167995">
   <ele>1583.00</ele>
   <time>2014-04-01T09:23:57Z</time>
  </trkpt>
  <trkpt lat="33.053194" lon="-3.167488">
   <ele>1583.00</ele>
   <time>2014-04-01T09:24:01Z</time>
  </trkpt>
  <trkpt lat="33.053149" lon="-3.167088">
   <ele>1583.00</ele>
   <time>2014-04-01T09:24:04Z</time>
  </trkpt>
  <trkpt lat="33.053132" lon="-3.166813">
   <ele>1584.00</ele>
   <time>2014-04-01T09:24:06Z</time>
  </trkpt>
  <trkpt lat="33.053128" lon="-3.166534">
   <ele>1584.00</ele>
   <time>2014-04-01T09:24:08Z</time>
  </trkpt>
  <trkpt lat="33.053138" lon="-3.165849">
   <ele>1585.00</ele>
   <time>2014-04-01T09:24:13Z</time>
  </trkpt>
  <trkpt lat="33.053134" lon="-3.165579">
   <ele>1585.00</ele>
   <time>2014-04-01T09:24:15Z</time>
  </trkpt>
  <trkpt lat="33.053154" lon="-3.165323">
   <ele>1586.00</ele>
   <time>2014-04-01T09:24:17Z</time>
  </trkpt>
  <trkpt lat="33.053203" lon="-3.164948">
   <ele>1587.00</ele>
   <time>2014-04-01T09:24:20Z</time>
  </trkpt>
  <trkpt lat="33.053307" lon="-3.163791">
   <ele>1588.00</ele>
   <time>2014-04-01T09:24:29Z</time>
  </trkpt>
  <trkpt lat="33.053351" lon="-3.163539">
   <ele>1589.00</ele>
   <time>2014-04-01T09:24:31Z</time>
  </trkpt>
  <trkpt lat="33.053407" lon="-3.163290">
   <ele>1589.00</ele>
   <time>2014-04-01T09:24:33Z</time>
  </trkpt>
  <trkpt lat="33.053478" lon="-3.163050">
   <ele>1589.00</ele>
   <time>2014-04-01T09:24:35Z</time>
  </trkpt>
  <trkpt lat="33.053575" lon="-3.162830">
   <ele>1589.00</ele>
   <time>2014-04-01T09:24:37Z</time>
  </trkpt>
  <trkpt lat="33.053701" lon="-3.162623">
   <ele>1588.00</ele>
   <time>2014-04-01T09:24:39Z</time>
  </trkpt>
  <trkpt lat="33.053849" lon="-3.162423">
   <ele>1588.00</ele>
   <time>2014-04-01T09:24:41Z</time>
  </trkpt>
  <trkpt lat="33.054078" lon="-3.162113">
   <ele>1587.00</ele>
   <time>2014-04-01T09:24:44Z</time>
  </trkpt>
  <trkpt lat="33.054364" lon="-3.161689">
   <ele>1587.00</ele>
   <time>2014-04-01T09:24:48Z</time>
  </trkpt>
  <trkpt lat="33.054493" lon="-3.161475">
   <ele>1587.00</ele>
   <time>2014-04-01T09:24:50Z</time>
  </trkpt>
  <trkpt lat="33.054992" lon="-3.160580">
   <ele>1586.00</ele>
   <time>2014-04-01T09:24:58Z</time>
  </trkpt>
  <trkpt lat="33.055326" lon="-3.159918">
   <ele>1587.00</ele>
   <time>2014-04-01T09:25:04Z</time>
  </trkpt>
  <trkpt lat="33.055538" lon="-3.159455">
   <ele>1586.00</ele>
   <time>2014-04-01T09:25:08Z</time>
  </trkpt>
  <trkpt lat="33.055995" lon="-3.158502">
   <ele>1586.00</ele>
   <time>2014-04-01T09:25:16Z</time>
  </trkpt>
  <trkpt lat="33.056275" lon="-3.157905">
   <ele>1586.00</ele>
   <time>2014-04-01T09:25:21Z</time>
  </trkpt>
  <trkpt lat="33.056390" lon="-3.157673">
   <ele>1586.00</ele>
   <time>2014-04-01T09:25:23Z</time>
  </trkpt>
  <trkpt lat="33.056491" lon="-3.157435">
   <ele>1586.00</ele>
   <time>2014-04-01T09:25:25Z</time>
  </trkpt>
  <trkpt lat="33.056687" lon="-3.156977">
   <ele>1586.00</ele>
   <time>2014-04-01T09:25:29Z</time>
  </trkpt>
  <trkpt lat="33.056786" lon="-3.156770">
   <ele>1586.00</ele>
   <time>2014-04-01T09:25:31Z</time>
  </trkpt>
  <trkpt lat="33.056854" lon="-3.156551">
   <ele>1586.00</ele>
   <time>2014-04-01T09:25:33Z</time>
  </trkpt>
  <trkpt lat="33.056885" lon="-3.156321">
   <ele>1587.00</ele>
   <time>2014-04-01T09:25:35Z</time>
  </trkpt>
  <trkpt lat="33.056886" lon="-3.156085">
   <ele>1587.00</ele>
   <time>2014-04-01T09:25:37Z</time>
  </trkpt>
  <trkpt lat="33.056889" lon="-3.155847">
   <ele>1587.00</ele>
   <time>2014-04-01T09:25:39Z</time>
  </trkpt>
  <trkpt lat="33.056904" lon="-3.155482">
   <ele>1588.00</ele>
   <time>2014-04-01T09:25:42Z</time>
  </trkpt>
  <trkpt lat="33.056891" lon="-3.155237">
   <ele>1589.00</ele>
   <time>2014-04-01T09:25:44Z</time>
  </trkpt>
  <trkpt lat="33.056854" lon="-3.154993">
   <ele>1589.00</ele>
   <time>2014-04-01T09:25:46Z</time>
  </trkpt>
  <trkpt lat="33.056823" lon="-3.154746">
   <ele>1590.00</ele>
   <time>2014-04-01T09:25:48Z</time>
  </trkpt>
  <trkpt lat="33.056807" lon="-3.154489">
   <ele>1590.00</ele>
   <time>2014-04-01T09:25:50Z</time>
  </trkpt>
  <trkpt lat="33.056775" lon="-3.154104">
   <ele>1591.00</ele>
   <time>2014-04-01T09:25:53Z</time>
  </trkpt>
  <trkpt lat="33.056760" lon="-3.153759">
   <ele>1592.00</ele>
   <time>2014-04-01T09:25:56Z</time>
  </trkpt>
  <trkpt lat="33.056714" lon="-3.153452">
   <ele>1592.00</ele>
   <time>2014-04-01T09:25:59Z</time>
  </trkpt>
  <trkpt lat="33.056554" lon="-3.152472">
   <ele>1592.00</ele>
   <time>2014-04-01T09:26:08Z</time>
  </trkpt>
  <trkpt lat="33.056461" lon="-3.151450">
   <ele>1592.00</ele>
   <time>2014-04-01T09:26:16Z</time>
  </trkpt>
  <trkpt lat="33.056476" lon="-3.151205">
   <ele>1592.00</ele>
   <time>2014-04-01T09:26:18Z</time>
  </trkpt>
  <trkpt lat="33.056477" lon="-3.150963">
   <ele>1591.00</ele>
   <time>2014-04-01T09:26:20Z</time>
  </trkpt>
  <trkpt lat="33.056473" lon="-3.150724">
   <ele>1592.00</ele>
   <time>2014-04-01T09:26:22Z</time>
  </trkpt>
  <trkpt lat="33.056448" lon="-3.150371">
   <ele>1591.00</ele>
   <time>2014-04-01T09:26:25Z</time>
  </trkpt>
  <trkpt lat="33.056426" lon="-3.150023">
   <ele>1591.00</ele>
   <time>2014-04-01T09:26:28Z</time>
  </trkpt>
  <trkpt lat="33.056450" lon="-3.149809">
   <ele>1591.00</ele>
   <time>2014-04-01T09:26:30Z</time>
  </trkpt>
  <trkpt lat="33.056479" lon="-3.149492">
   <ele>1591.00</ele>
   <time>2014-04-01T09:26:33Z</time>
  </trkpt>
  <trkpt lat="33.056474" lon="-3.149275">
   <ele>1591.00</ele>
   <time>2014-04-01T09:26:35Z</time>
  </trkpt>
  <trkpt lat="33.056441" lon="-3.148844">
   <ele>1590.00</ele>
   <time>2014-04-01T09:26:39Z</time>
  </trkpt>
  <trkpt lat="33.056371" lon="-3.148475">
   <ele>1590.00</ele>
   <time>2014-04-01T09:26:43Z</time>
  </trkpt>
  <trkpt lat="33.056413" lon="-3.148240">
   <ele>1589.00</ele>
   <time>2014-04-01T09:26:47Z</time>
  </trkpt>
  <trkpt lat="33.056508" lon="-3.148002">
   <ele>1588.00</ele>
   <time>2014-04-01T09:26:51Z</time>
  </trkpt>
  <trkpt lat="33.056578" lon="-3.147755">
   <ele>1588.00</ele>
   <time>2014-04-01T09:26:55Z</time>
  </trkpt>
  <trkpt lat="33.056703" lon="-3.147141">
   <ele>1589.00</ele>
   <time>2014-04-01T09:27:03Z</time>
  </trkpt>
  <trkpt lat="33.056802" lon="-3.146801">
   <ele>1589.00</ele>
   <time>2014-04-01T09:27:07Z</time>
  </trkpt>
  <trkpt lat="33.056862" lon="-3.146580">
   <ele>1589.00</ele>
   <time>2014-04-01T09:27:10Z</time>
  </trkpt>
  <trkpt lat="33.056963" lon="-3.146329">
   <ele>1588.00</ele>
   <time>2014-04-01T09:27:14Z</time>
  </trkpt>
  <trkpt lat="33.057056" lon="-3.146060">
   <ele>1589.00</ele>
   <time>2014-04-01T09:27:18Z</time>
  </trkpt>
  <trkpt lat="33.057119" lon="-3.145807">
   <ele>1589.00</ele>
   <time>2014-04-01T09:27:21Z</time>
  </trkpt>
  <trkpt lat="33.057185" lon="-3.145510">
   <ele>1590.00</ele>
   <time>2014-04-01T09:27:24Z</time>
  </trkpt>
  <trkpt lat="33.057293" lon="-3.145008">
   <ele>1591.00</ele>
   <time>2014-04-01T09:27:29Z</time>
  </trkpt>
  <trkpt lat="33.057347" lon="-3.144704">
   <ele>1593.00</ele>
   <time>2014-04-01T09:27:32Z</time>
  </trkpt>
  <trkpt lat="33.057439" lon="-3.144019">
   <ele>1594.00</ele>
   <time>2014-04-01T09:27:39Z</time>
  </trkpt>
  <trkpt lat="33.057494" lon="-3.143755">
   <ele>1595.00</ele>
   <time>2014-04-01T09:27:42Z</time>
  </trkpt>
  <trkpt lat="33.057556" lon="-3.143503">
   <ele>1595.00</ele>
   <time>2014-04-01T09:27:45Z</time>
  </trkpt>
  <trkpt lat="33.057699" lon="-3.142980">
   <ele>1594.00</ele>
   <time>2014-04-01T09:27:51Z</time>
  </trkpt>
  <trkpt lat="33.057741" lon="-3.142697">
   <ele>1594.00</ele>
   <time>2014-04-01T09:27:54Z</time>
  </trkpt>
  <trkpt lat="33.057767" lon="-3.142433">
   <ele>1594.00</ele>
   <time>2014-04-01T09:27:57Z</time>
  </trkpt>
  <trkpt lat="33.057814" lon="-3.142074">
   <ele>1594.00</ele>
   <time>2014-04-01T09:28:01Z</time>
  </trkpt>
  <trkpt lat="33.057923" lon="-3.140941">
   <ele>1592.00</ele>
   <time>2014-04-01T09:28:10Z</time>
  </trkpt>
  <trkpt lat="33.057962" lon="-3.140161">
   <ele>1592.00</ele>
   <time>2014-04-01T09:28:15Z</time>
  </trkpt>
  <trkpt lat="33.058047" lon="-3.138185">
   <ele>1592.00</ele>
   <time>2014-04-01T09:28:29Z</time>
  </trkpt>
  <trkpt lat="33.058074" lon="-3.137843">
   <ele>1592.00</ele>
   <time>2014-04-01T09:28:32Z</time>
  </trkpt>
  <trkpt lat="33.058101" lon="-3.137523">
   <ele>1592.00</ele>
   <time>2014-04-01T09:28:35Z</time>
  </trkpt>
  <trkpt lat="33.058109" lon="-3.137237">
   <ele>1592.00</ele>
   <time>2014-04-01T09:28:38Z</time>
  </trkpt>
  <trkpt lat="33.058023" lon="-3.136985">
   <ele>1592.00</ele>
   <time>2014-04-01T09:28:41Z</time>
  </trkpt>
  <trkpt lat="33.057826" lon="-3.136815">
   <ele>1592.00</ele>
   <time>2014-04-01T09:28:44Z</time>
  </trkpt>
  <trkpt lat="33.057597" lon="-3.136737">
   <ele>1593.00</ele>
   <time>2014-04-01T09:28:47Z</time>
  </trkpt>
  <trkpt lat="33.057366" lon="-3.136699">
   <ele>1593.00</ele>
   <time>2014-04-01T09:28:50Z</time>
  </trkpt>
  <trkpt lat="33.057186" lon="-3.136694">
   <ele>1594.00</ele>
   <time>2014-04-01T09:29:05Z</time>
  </trkpt>
  <trkpt lat="33.057190" lon="-3.136709">
   <ele>1595.00</ele>
   <time>2014-04-01T09:29:21Z</time>
  </trkpt>
  <trkpt lat="33.057192" lon="-3.136715">
   <ele>1595.00</ele>
   <time>2014-04-01T09:29:36Z</time>
  </trkpt>
  <trkpt lat="33.056591" lon="-3.136631">
   <ele>1595.00</ele>
   <time>2014-04-01T09:29:51Z</time>
  </trkpt>
  <trkpt lat="33.056363" lon="-3.136609">
   <ele>1596.00</ele>
   <time>2014-04-01T09:29:54Z</time>
  </trkpt>
  <trkpt lat="33.056014" lon="-3.136583">
   <ele>1596.00</ele>
   <time>2014-04-01T09:29:58Z</time>
  </trkpt>
  <trkpt lat="33.055832" lon="-3.136537">
   <ele>1597.00</ele>
   <time>2014-04-01T09:30:00Z</time>
  </trkpt>
  <trkpt lat="33.055642" lon="-3.136484">
   <ele>1597.00</ele>
   <time>2014-04-01T09:30:02Z</time>
  </trkpt>
  <trkpt lat="33.055434" lon="-3.136458">
   <ele>1598.00</ele>
   <time>2014-04-01T09:30:04Z</time>
  </trkpt>
  <trkpt lat="33.055197" lon="-3.136430">
   <ele>1598.00</ele>
   <time>2014-04-01T09:30:06Z</time>
  </trkpt>
  <trkpt lat="33.054211" lon="-3.136288">
   <ele>1600.00</ele>
   <time>2014-04-01T09:30:14Z</time>
  </trkpt>
  <trkpt lat="33.053830" lon="-3.136252">
   <ele>1601.00</ele>
   <time>2014-04-01T09:30:17Z</time>
  </trkpt>
  <trkpt lat="33.053574" lon="-3.136200">
   <ele>1602.00</ele>
   <time>2014-04-01T09:30:19Z</time>
  </trkpt>
  <trkpt lat="33.053318" lon="-3.136154">
   <ele>1602.00</ele>
   <time>2014-04-01T09:30:21Z</time>
  </trkpt>
  <trkpt lat="33.052495" lon="-3.136048">
   <ele>1604.00</ele>
   <time>2014-04-01T09:30:28Z</time>
  </trkpt>
  <trkpt lat="33.052308" lon="-3.135994">
   <ele>1604.00</ele>
   <time>2014-04-01T09:30:30Z</time>
  </trkpt>
  <trkpt lat="33.051834" lon="-3.135841">
   <ele>1605.00</ele>
   <time>2014-04-01T09:30:35Z</time>
  </trkpt>
  <trkpt lat="33.051215" lon="-3.135654">
   <ele>1605.00</ele>
   <time>2014-04-01T09:30:41Z</time>
  </trkpt>
  <trkpt lat="33.050920" lon="-3.135554">
   <ele>1605.00</ele>
   <time>2014-04-01T09:30:44Z</time>
  </trkpt>
  <trkpt lat="33.050501" lon="-3.135428">
   <ele>1604.00</ele>
   <time>2014-04-01T09:30:48Z</time>
  </trkpt>
  <trkpt lat="33.048951" lon="-3.134864">
   <ele>1603.00</ele>
   <time>2014-04-01T09:31:01Z</time>
  </trkpt>
  <trkpt lat="33.048718" lon="-3.134761">
   <ele>1604.00</ele>
   <time>2014-04-01T09:31:03Z</time>
  </trkpt>
  <trkpt lat="33.047792" lon="-3.134294">
   <ele>1604.00</ele>
   <time>2014-04-01T09:31:11Z</time>
  </trkpt>
  <trkpt lat="33.047555" lon="-3.134178">
   <ele>1604.00</ele>
   <time>2014-04-01T09:31:13Z</time>
  </trkpt>
  <trkpt lat="33.047308" lon="-3.134084">
   <ele>1604.00</ele>
   <time>2014-04-01T09:31:15Z</time>
  </trkpt>
  <trkpt lat="33.047061" lon="-3.134025">
   <ele>1604.00</ele>
   <time>2014-04-01T09:31:17Z</time>
  </trkpt>
  <trkpt lat="33.046816" lon="-3.133974">
   <ele>1604.00</ele>
   <time>2014-04-01T09:31:20Z</time>
  </trkpt>
  <trkpt lat="33.046602" lon="-3.133905">
   <ele>1604.00</ele>
   <time>2014-04-01T09:31:24Z</time>
  </trkpt>
  <trkpt lat="33.046319" lon="-3.133785">
   <ele>1605.00</ele>
   <time>2014-04-01T09:31:28Z</time>
  </trkpt>
  <trkpt lat="33.046056" lon="-3.133709">
   <ele>1605.00</ele>
   <time>2014-04-01T09:31:31Z</time>
  </trkpt>
  <trkpt lat="33.045096" lon="-3.133481">
   <ele>1607.00</ele>
   <time>2014-04-01T09:31:40Z</time>
  </trkpt>
  <trkpt lat="33.044653" lon="-3.133380">
   <ele>1607.00</ele>
   <time>2014-04-01T09:31:44Z</time>
  </trkpt>
  <trkpt lat="33.044210" lon="-3.133280">
   <ele>1608.00</ele>
   <time>2014-04-01T09:31:48Z</time>
  </trkpt>
  <trkpt lat="33.043985" lon="-3.133255">
   <ele>1609.00</ele>
   <time>2014-04-01T09:31:50Z</time>
  </trkpt>
  <trkpt lat="33.043758" lon="-3.133225">
   <ele>1609.00</ele>
   <time>2014-04-01T09:31:52Z</time>
  </trkpt>
  <trkpt lat="33.043530" lon="-3.133170">
   <ele>1610.00</ele>
   <time>2014-04-01T09:31:54Z</time>
  </trkpt>
  <trkpt lat="33.043308" lon="-3.133096">
   <ele>1610.00</ele>
   <time>2014-04-01T09:31:56Z</time>
  </trkpt>
  <trkpt lat="33.043091" lon="-3.132995">
   <ele>1610.00</ele>
   <time>2014-04-01T09:31:58Z</time>
  </trkpt>
  <trkpt lat="33.042865" lon="-3.132900">
   <ele>1610.00</ele>
   <time>2014-04-01T09:32:00Z</time>
  </trkpt>
  <trkpt lat="33.042626" lon="-3.132823">
   <ele>1610.00</ele>
   <time>2014-04-01T09:32:02Z</time>
  </trkpt>
  <trkpt lat="33.042380" lon="-3.132754">
   <ele>1610.00</ele>
   <time>2014-04-01T09:32:04Z</time>
  </trkpt>
  <trkpt lat="33.042133" lon="-3.132699">
   <ele>1610.00</ele>
   <time>2014-04-01T09:32:06Z</time>
  </trkpt>
  <trkpt lat="33.041888" lon="-3.132661">
   <ele>1611.00</ele>
   <time>2014-04-01T09:32:08Z</time>
  </trkpt>
  <trkpt lat="33.041528" lon="-3.132613">
   <ele>1611.00</ele>
   <time>2014-04-01T09:32:11Z</time>
  </trkpt>
  <trkpt lat="33.040692" lon="-3.132436">
   <ele>1613.00</ele>
   <time>2014-04-01T09:32:18Z</time>
  </trkpt>
  <trkpt lat="33.040460" lon="-3.132358">
   <ele>1613.00</ele>
   <time>2014-04-01T09:32:20Z</time>
  </trkpt>
  <trkpt lat="33.040231" lon="-3.132253">
   <ele>1614.00</ele>
   <time>2014-04-01T09:32:22Z</time>
  </trkpt>
  <trkpt lat="33.039579" lon="-3.131912">
   <ele>1616.00</ele>
   <time>2014-04-01T09:32:28Z</time>
  </trkpt>
  <trkpt lat="33.039349" lon="-3.131817">
   <ele>1617.00</ele>
   <time>2014-04-01T09:32:30Z</time>
  </trkpt>
  <trkpt lat="33.038735" lon="-3.131601">
   <ele>1619.00</ele>
   <time>2014-04-01T09:32:35Z</time>
  </trkpt>
  <trkpt lat="33.038487" lon="-3.131534">
   <ele>1619.00</ele>
   <time>2014-04-01T09:32:37Z</time>
  </trkpt>
  <trkpt lat="33.038227" lon="-3.131484">
   <ele>1620.00</ele>
   <time>2014-04-01T09:32:39Z</time>
  </trkpt>
  <trkpt lat="33.036085" lon="-3.131124">
   <ele>1623.00</ele>
   <time>2014-04-01T09:32:54Z</time>
  </trkpt>
  <trkpt lat="33.033600" lon="-3.130618">
   <ele>1623.00</ele>
   <time>2014-04-01T09:33:10Z</time>
  </trkpt>
  <trkpt lat="33.033292" lon="-3.130526">
   <ele>1623.00</ele>
   <time>2014-04-01T09:33:12Z</time>
  </trkpt>
  <trkpt lat="33.030984" lon="-3.129750">
   <ele>1624.00</ele>
   <time>2014-04-01T09:33:27Z</time>
  </trkpt>
  <trkpt lat="33.029408" lon="-3.129262">
   <ele>1625.00</ele>
   <time>2014-04-01T09:33:37Z</time>
  </trkpt>
  <trkpt lat="33.028967" lon="-3.129136">
   <ele>1626.00</ele>
   <time>2014-04-01T09:33:40Z</time>
  </trkpt>
  <trkpt lat="33.028683" lon="-3.129019">
   <ele>1626.00</ele>
   <time>2014-04-01T09:33:42Z</time>
  </trkpt>
  <trkpt lat="33.028404" lon="-3.128868">
   <ele>1627.00</ele>
   <time>2014-04-01T09:33:44Z</time>
  </trkpt>
  <trkpt lat="33.028127" lon="-3.128689">
   <ele>1627.00</ele>
   <time>2014-04-01T09:33:46Z</time>
  </trkpt>
  <trkpt lat="33.027850" lon="-3.128504">
   <ele>1628.00</ele>
   <time>2014-04-01T09:33:48Z</time>
  </trkpt>
  <trkpt lat="33.027576" lon="-3.128328">
   <ele>1628.00</ele>
   <time>2014-04-01T09:33:50Z</time>
  </trkpt>
  <trkpt lat="33.027304" lon="-3.128161">
   <ele>1629.00</ele>
   <time>2014-04-01T09:33:52Z</time>
  </trkpt>
  <trkpt lat="33.026866" lon="-3.127952">
   <ele>1628.00</ele>
   <time>2014-04-01T09:33:55Z</time>
  </trkpt>
  <trkpt lat="33.026555" lon="-3.127823">
   <ele>1628.00</ele>
   <time>2014-04-01T09:33:57Z</time>
  </trkpt>
  <trkpt lat="33.026227" lon="-3.127710">
   <ele>1628.00</ele>
   <time>2014-04-01T09:33:59Z</time>
  </trkpt>
  <trkpt lat="33.025887" lon="-3.127617">
   <ele>1628.00</ele>
   <time>2014-04-01T09:34:01Z</time>
  </trkpt>
  <trkpt lat="33.025550" lon="-3.127548">
   <ele>1627.00</ele>
   <time>2014-04-01T09:34:03Z</time>
  </trkpt>
  <trkpt lat="33.025217" lon="-3.127491">
   <ele>1627.00</ele>
   <time>2014-04-01T09:34:05Z</time>
  </trkpt>
  <trkpt lat="33.024886" lon="-3.127405">
   <ele>1627.00</ele>
   <time>2014-04-01T09:34:07Z</time>
  </trkpt>
  <trkpt lat="33.024561" lon="-3.127298">
   <ele>1626.00</ele>
   <time>2014-04-01T09:34:09Z</time>
  </trkpt>
  <trkpt lat="33.024248" lon="-3.127171">
   <ele>1626.00</ele>
   <time>2014-04-01T09:34:11Z</time>
  </trkpt>
  <trkpt lat="33.023801" lon="-3.126981">
   <ele>1625.00</ele>
   <time>2014-04-01T09:34:14Z</time>
  </trkpt>
  <trkpt lat="33.023233" lon="-3.126772">
   <ele>1625.00</ele>
   <time>2014-04-01T09:34:18Z</time>
  </trkpt>
  <trkpt lat="33.022868" lon="-3.126615">
   <ele>1625.00</ele>
   <time>2014-04-01T09:34:21Z</time>
  </trkpt>
  <trkpt lat="33.022650" lon="-3.126543">
   <ele>1625.00</ele>
   <time>2014-04-01T09:34:23Z</time>
  </trkpt>
  <trkpt lat="33.022358" lon="-3.126449">
   <ele>1624.00</ele>
   <time>2014-04-01T09:34:26Z</time>
  </trkpt>
  <trkpt lat="33.022169" lon="-3.126316">
   <ele>1625.00</ele>
   <time>2014-04-01T09:34:29Z</time>
  </trkpt>
  <trkpt lat="33.021984" lon="-3.126195">
   <ele>1625.00</ele>
   <time>2014-04-01T09:34:32Z</time>
  </trkpt>
  <trkpt lat="33.021780" lon="-3.126091">
   <ele>1626.00</ele>
   <time>2014-04-01T09:34:35Z</time>
  </trkpt>
  <trkpt lat="33.021562" lon="-3.125985">
   <ele>1626.00</ele>
   <time>2014-04-01T09:34:38Z</time>
  </trkpt>
  <trkpt lat="33.021350" lon="-3.125857">
   <ele>1627.00</ele>
   <time>2014-04-01T09:34:41Z</time>
  </trkpt>
  <trkpt lat="33.021128" lon="-3.125734">
   <ele>1627.00</ele>
   <time>2014-04-01T09:34:44Z</time>
  </trkpt>
  <trkpt lat="33.020842" lon="-3.125586">
   <ele>1628.00</ele>
   <time>2014-04-01T09:34:48Z</time>
  </trkpt>
  <trkpt lat="33.020698" lon="-3.125453">
   <ele>1628.00</ele>
   <time>2014-04-01T09:34:51Z</time>
  </trkpt>
  <trkpt lat="33.020752" lon="-3.125490">
   <ele>1629.00</ele>
   <time>2014-04-01T09:35:06Z</time>
  </trkpt>
  <trkpt lat="33.020741" lon="-3.125661">
   <ele>1627.00</ele>
   <time>2014-04-01T09:35:17Z</time>
  </trkpt>
  <trkpt lat="33.020709" lon="-3.125947">
   <ele>1627.00</ele>
   <time>2014-04-01T09:35:22Z</time>
  </trkpt>
  <trkpt lat="33.020632" lon="-3.126152">
   <ele>1627.00</ele>
   <time>2014-04-01T09:35:25Z</time>
  </trkpt>
  <trkpt lat="33.020510" lon="-3.126309">
   <ele>1627.00</ele>
   <time>2014-04-01T09:35:28Z</time>
  </trkpt>
  <trkpt lat="33.020361" lon="-3.126464">
   <ele>1627.00</ele>
   <time>2014-04-01T09:35:31Z</time>
  </trkpt>
  <trkpt lat="33.020207" lon="-3.126608">
   <ele>1627.00</ele>
   <time>2014-04-01T09:35:34Z</time>
  </trkpt>
  <trkpt lat="33.020017" lon="-3.126760">
   <ele>1627.00</ele>
   <time>2014-04-01T09:35:38Z</time>
  </trkpt>
  <trkpt lat="33.019844" lon="-3.126854">
   <ele>1626.00</ele>
   <time>2014-04-01T09:35:42Z</time>
  </trkpt>
  <trkpt lat="33.019669" lon="-3.126954">
   <ele>1625.00</ele>
   <time>2014-04-01T09:35:46Z</time>
  </trkpt>
  <trkpt lat="33.019220" lon="-3.127256">
   <ele>1623.00</ele>
   <time>2014-04-01T09:35:57Z</time>
  </trkpt>
  <trkpt lat="33.019037" lon="-3.127384">
   <ele>1623.00</ele>
   <time>2014-04-01T09:36:01Z</time>
  </trkpt>
  <trkpt lat="33.018484" lon="-3.127704">
   <ele>1622.00</ele>
   <time>2014-04-01T09:36:10Z</time>
  </trkpt>
  <trkpt lat="33.018252" lon="-3.127806">
   <ele>1622.00</ele>
   <time>2014-04-01T09:36:13Z</time>
  </trkpt>
  <trkpt lat="33.017456" lon="-3.128113">
   <ele>1621.00</ele>
   <time>2014-04-01T09:36:21Z</time>
  </trkpt>
  <trkpt lat="33.017068" lon="-3.128293">
   <ele>1622.00</ele>
   <time>2014-04-01T09:36:25Z</time>
  </trkpt>
  <trkpt lat="33.016885" lon="-3.128409">
   <ele>1622.00</ele>
   <time>2014-04-01T09:36:27Z</time>
  </trkpt>
  <trkpt lat="33.016521" lon="-3.128677">
   <ele>1622.00</ele>
   <time>2014-04-01T09:36:31Z</time>
  </trkpt>
  <trkpt lat="33.016320" lon="-3.128799">
   <ele>1622.00</ele>
   <time>2014-04-01T09:36:33Z</time>
  </trkpt>
  <trkpt lat="33.015122" lon="-3.129464">
   <ele>1623.00</ele>
   <time>2014-04-01T09:36:44Z</time>
  </trkpt>
  <trkpt lat="33.014917" lon="-3.129601">
   <ele>1624.00</ele>
   <time>2014-04-01T09:36:46Z</time>
  </trkpt>
  <trkpt lat="33.013798" lon="-3.130408">
   <ele>1624.00</ele>
   <time>2014-04-01T09:36:57Z</time>
  </trkpt>
  <trkpt lat="33.013579" lon="-3.130536">
   <ele>1625.00</ele>
   <time>2014-04-01T09:36:59Z</time>
  </trkpt>
  <trkpt lat="33.013348" lon="-3.130648">
   <ele>1625.00</ele>
   <time>2014-04-01T09:37:01Z</time>
  </trkpt>
  <trkpt lat="33.012415" lon="-3.131088">
   <ele>1625.00</ele>
   <time>2014-04-01T09:37:09Z</time>
  </trkpt>
  <trkpt lat="33.011954" lon="-3.131260">
   <ele>1626.00</ele>
   <time>2014-04-01T09:37:15Z</time>
  </trkpt>
  <trkpt lat="33.011691" lon="-3.131322">
   <ele>1627.00</ele>
   <time>2014-04-01T09:37:18Z</time>
  </trkpt>
  <trkpt lat="33.011494" lon="-3.131375">
   <ele>1628.00</ele>
   <time>2014-04-01T09:37:20Z</time>
  </trkpt>
  <trkpt lat="33.011092" lon="-3.131510">
   <ele>1629.00</ele>
   <time>2014-04-01T09:37:24Z</time>
  </trkpt>
  <trkpt lat="33.010702" lon="-3.131646">
   <ele>1629.00</ele>
   <time>2014-04-01T09:37:28Z</time>
  </trkpt>
  <trkpt lat="33.010428" lon="-3.131723">
   <ele>1629.00</ele>
   <time>2014-04-01T09:37:31Z</time>
  </trkpt>
  <trkpt lat="33.010252" lon="-3.131794">
   <ele>1629.00</ele>
   <time>2014-04-01T09:37:33Z</time>
  </trkpt>
  <trkpt lat="33.009677" lon="-3.131986">
   <ele>1629.00</ele>
   <time>2014-04-01T09:37:39Z</time>
  </trkpt>
  <trkpt lat="33.009298" lon="-3.132103">
   <ele>1630.00</ele>
   <time>2014-04-01T09:37:43Z</time>
  </trkpt>
  <trkpt lat="33.009124" lon="-3.132191">
   <ele>1630.00</ele>
   <time>2014-04-01T09:37:45Z</time>
  </trkpt>
  <trkpt lat="33.008945" lon="-3.132295">
   <ele>1630.00</ele>
   <time>2014-04-01T09:37:47Z</time>
  </trkpt>
  <trkpt lat="33.008752" lon="-3.132388">
   <ele>1630.00</ele>
   <time>2014-04-01T09:37:49Z</time>
  </trkpt>
  <trkpt lat="33.008555" lon="-3.132493">
   <ele>1630.00</ele>
   <time>2014-04-01T09:37:51Z</time>
  </trkpt>
  <trkpt lat="33.008358" lon="-3.132618">
   <ele>1630.00</ele>
   <time>2014-04-01T09:37:53Z</time>
  </trkpt>
  <trkpt lat="33.008152" lon="-3.132742">
   <ele>1630.00</ele>
   <time>2014-04-01T09:37:55Z</time>
  </trkpt>
  <trkpt lat="33.007936" lon="-3.132855">
   <ele>1631.00</ele>
   <time>2014-04-01T09:37:57Z</time>
  </trkpt>
  <trkpt lat="33.006911" lon="-3.133357">
   <ele>1632.00</ele>
   <time>2014-04-01T09:38:06Z</time>
  </trkpt>
  <trkpt lat="33.006674" lon="-3.133454">
   <ele>1632.00</ele>
   <time>2014-04-01T09:38:08Z</time>
  </trkpt>
  <trkpt lat="33.005992" lon="-3.133710">
   <ele>1633.00</ele>
   <time>2014-04-01T09:38:14Z</time>
  </trkpt>
  <trkpt lat="33.005657" lon="-3.133869">
   <ele>1633.00</ele>
   <time>2014-04-01T09:38:17Z</time>
  </trkpt>
  <trkpt lat="33.005197" lon="-3.134086">
   <ele>1634.00</ele>
   <time>2014-04-01T09:38:21Z</time>
  </trkpt>
  <trkpt lat="33.003468" lon="-3.134899">
   <ele>1636.00</ele>
   <time>2014-04-01T09:38:35Z</time>
  </trkpt>
  <trkpt lat="33.002178" lon="-3.135534">
   <ele>1640.00</ele>
   <time>2014-04-01T09:38:45Z</time>
  </trkpt>
  <trkpt lat="33.001943" lon="-3.135697">
   <ele>1641.00</ele>
   <time>2014-04-01T09:38:47Z</time>
  </trkpt>
  <trkpt lat="33.001724" lon="-3.135887">
   <ele>1642.00</ele>
   <time>2014-04-01T09:38:49Z</time>
  </trkpt>
  <trkpt lat="33.001526" lon="-3.136087">
   <ele>1643.00</ele>
   <time>2014-04-01T09:38:51Z</time>
  </trkpt>
  <trkpt lat="33.001261" lon="-3.136372">
   <ele>1644.00</ele>
   <time>2014-04-01T09:38:54Z</time>
  </trkpt>
  <trkpt lat="33.000922" lon="-3.136694">
   <ele>1646.00</ele>
   <time>2014-04-01T09:38:58Z</time>
  </trkpt>
  <trkpt lat="33.000767" lon="-3.136867">
   <ele>1647.00</ele>
   <time>2014-04-01T09:39:00Z</time>
  </trkpt>
  <trkpt lat="33.000591" lon="-3.136985">
   <ele>1647.00</ele>
   <time>2014-04-01T09:39:02Z</time>
  </trkpt>
  <trkpt lat="33.000406" lon="-3.137016">
   <ele>1648.00</ele>
   <time>2014-04-01T09:39:04Z</time>
  </trkpt>
  <trkpt lat="33.000028" lon="-3.137006">
   <ele>1648.00</ele>
   <time>2014-04-01T09:39:08Z</time>
  </trkpt>
  <trkpt lat="32.999751" lon="-3.137012">
   <ele>1649.00</ele>
   <time>2014-04-01T09:39:11Z</time>
  </trkpt>
  <trkpt lat="32.999320" lon="-3.136951">
   <ele>1651.00</ele>
   <time>2014-04-01T09:39:16Z</time>
  </trkpt>
  <trkpt lat="32.999130" lon="-3.136957">
   <ele>1651.00</ele>
   <time>2014-04-01T09:39:18Z</time>
  </trkpt>
  <trkpt lat="32.998922" lon="-3.136990">
   <ele>1652.00</ele>
   <time>2014-04-01T09:39:20Z</time>
  </trkpt>
  <trkpt lat="32.998603" lon="-3.137057">
   <ele>1653.00</ele>
   <time>2014-04-01T09:39:23Z</time>
  </trkpt>
  <trkpt lat="32.998405" lon="-3.137128">
   <ele>1653.00</ele>
   <time>2014-04-01T09:39:25Z</time>
  </trkpt>
  <trkpt lat="32.998226" lon="-3.137222">
   <ele>1653.00</ele>
   <time>2014-04-01T09:39:27Z</time>
  </trkpt>
  <trkpt lat="32.998051" lon="-3.137292">
   <ele>1653.00</ele>
   <time>2014-04-01T09:39:29Z</time>
  </trkpt>
  <trkpt lat="32.997730" lon="-3.137373">
   <ele>1653.00</ele>
   <time>2014-04-01T09:39:33Z</time>
  </trkpt>
  <trkpt lat="32.997475" lon="-3.137480">
   <ele>1652.00</ele>
   <time>2014-04-01T09:39:36Z</time>
  </trkpt>
  <trkpt lat="32.996581" lon="-3.137903">
   <ele>1648.00</ele>
   <time>2014-04-01T09:39:45Z</time>
  </trkpt>
  <trkpt lat="32.996298" lon="-3.138017">
   <ele>1647.00</ele>
   <time>2014-04-01T09:39:48Z</time>
  </trkpt>
  <trkpt lat="32.996021" lon="-3.138140">
   <ele>1646.00</ele>
   <time>2014-04-01T09:39:51Z</time>
  </trkpt>
  <trkpt lat="32.995817" lon="-3.138205">
   <ele>1645.00</ele>
   <time>2014-04-01T09:39:53Z</time>
  </trkpt>
  <trkpt lat="32.995504" lon="-3.138291">
   <ele>1644.00</ele>
   <time>2014-04-01T09:39:56Z</time>
  </trkpt>
  <trkpt lat="32.994940" lon="-3.138494">
   <ele>1643.00</ele>
   <time>2014-04-01T09:40:02Z</time>
  </trkpt>
  <trkpt lat="32.994765" lon="-3.138576">
   <ele>1643.00</ele>
   <time>2014-04-01T09:40:04Z</time>
  </trkpt>
  <trkpt lat="32.994491" lon="-3.138716">
   <ele>1643.00</ele>
   <time>2014-04-01T09:40:07Z</time>
  </trkpt>
  <trkpt lat="32.994297" lon="-3.138786">
   <ele>1644.00</ele>
   <time>2014-04-01T09:40:09Z</time>
  </trkpt>
  <trkpt lat="32.993992" lon="-3.138888">
   <ele>1645.00</ele>
   <time>2014-04-01T09:40:12Z</time>
  </trkpt>
  <trkpt lat="32.992510" lon="-3.139455">
   <ele>1648.00</ele>
   <time>2014-04-01T09:40:27Z</time>
  </trkpt>
  <trkpt lat="32.992116" lon="-3.139599">
   <ele>1649.00</ele>
   <time>2014-04-01T09:40:31Z</time>
  </trkpt>
  <trkpt lat="32.991920" lon="-3.139703">
   <ele>1649.00</ele>
   <time>2014-04-01T09:40:33Z</time>
  </trkpt>
  <trkpt lat="32.991734" lon="-3.139837">
   <ele>1650.00</ele>
   <time>2014-04-01T09:40:35Z</time>
  </trkpt>
  <trkpt lat="32.991459" lon="-3.140050">
   <ele>1651.00</ele>
   <time>2014-04-01T09:40:38Z</time>
  </trkpt>
  <trkpt lat="32.991079" lon="-3.140336">
   <ele>1652.00</ele>
   <time>2014-04-01T09:40:42Z</time>
  </trkpt>
  <trkpt lat="32.990897" lon="-3.140500">
   <ele>1652.00</ele>
   <time>2014-04-01T09:40:44Z</time>
  </trkpt>
  <trkpt lat="32.990712" lon="-3.140664">
   <ele>1653.00</ele>
   <time>2014-04-01T09:40:46Z</time>
  </trkpt>
  <trkpt lat="32.990518" lon="-3.140816">
   <ele>1653.00</ele>
   <time>2014-04-01T09:40:48Z</time>
  </trkpt>
  <trkpt lat="32.989931" lon="-3.141250">
   <ele>1655.00</ele>
   <time>2014-04-01T09:40:54Z</time>
  </trkpt>
  <trkpt lat="32.989622" lon="-3.141451">
   <ele>1655.00</ele>
   <time>2014-04-01T09:40:57Z</time>
  </trkpt>
  <trkpt lat="32.988370" lon="-3.142227">
   <ele>1658.00</ele>
   <time>2014-04-01T09:41:09Z</time>
  </trkpt>
  <trkpt lat="32.988178" lon="-3.142368">
   <ele>1659.00</ele>
   <time>2014-04-01T09:41:11Z</time>
  </trkpt>
  <trkpt lat="32.988006" lon="-3.142517">
   <ele>1660.00</ele>
   <time>2014-04-01T09:41:13Z</time>
  </trkpt>
  <trkpt lat="32.987827" lon="-3.142651">
   <ele>1661.00</ele>
   <time>2014-04-01T09:41:15Z</time>
  </trkpt>
  <trkpt lat="32.987632" lon="-3.142757">
   <ele>1661.00</ele>
   <time>2014-04-01T09:41:17Z</time>
  </trkpt>
  <trkpt lat="32.987433" lon="-3.142864">
   <ele>1662.00</ele>
   <time>2014-04-01T09:41:19Z</time>
  </trkpt>
  <trkpt lat="32.987135" lon="-3.143041">
   <ele>1663.00</ele>
   <time>2014-04-01T09:41:22Z</time>
  </trkpt>
  <trkpt lat="32.986923" lon="-3.143127">
   <ele>1663.00</ele>
   <time>2014-04-01T09:41:24Z</time>
  </trkpt>
  <trkpt lat="32.986701" lon="-3.143164">
   <ele>1664.00</ele>
   <time>2014-04-01T09:41:26Z</time>
  </trkpt>
  <trkpt lat="32.986355" lon="-3.143181">
   <ele>1664.00</ele>
   <time>2014-04-01T09:41:29Z</time>
  </trkpt>
  <trkpt lat="32.986119" lon="-3.143209">
   <ele>1664.00</ele>
   <time>2014-04-01T09:41:31Z</time>
  </trkpt>
  <trkpt lat="32.985878" lon="-3.143252">
   <ele>1664.00</ele>
   <time>2014-04-01T09:41:33Z</time>
  </trkpt>
  <trkpt lat="32.985637" lon="-3.143313">
   <ele>1664.00</ele>
   <time>2014-04-01T09:41:35Z</time>
  </trkpt>
  <trkpt lat="32.985410" lon="-3.143388">
   <ele>1664.00</ele>
   <time>2014-04-01T09:41:37Z</time>
  </trkpt>
  <trkpt lat="32.985190" lon="-3.143488">
   <ele>1664.00</ele>
   <time>2014-04-01T09:41:39Z</time>
  </trkpt>
  <trkpt lat="32.984987" lon="-3.143636">
   <ele>1665.00</ele>
   <time>2014-04-01T09:41:41Z</time>
  </trkpt>
  <trkpt lat="32.984806" lon="-3.143817">
   <ele>1665.00</ele>
   <time>2014-04-01T09:41:43Z</time>
  </trkpt>
  <trkpt lat="32.984382" lon="-3.144246">
   <ele>1665.00</ele>
   <time>2014-04-01T09:41:48Z</time>
  </trkpt>
  <trkpt lat="32.984180" lon="-3.144370">
   <ele>1665.00</ele>
   <time>2014-04-01T09:41:50Z</time>
  </trkpt>
  <trkpt lat="32.983848" lon="-3.144531">
   <ele>1664.00</ele>
   <time>2014-04-01T09:41:53Z</time>
  </trkpt>
  <trkpt lat="32.983156" lon="-3.144895">
   <ele>1663.00</ele>
   <time>2014-04-01T09:41:59Z</time>
  </trkpt>
  <trkpt lat="32.982908" lon="-3.144987">
   <ele>1662.00</ele>
   <time>2014-04-01T09:42:01Z</time>
  </trkpt>
  <trkpt lat="32.982532" lon="-3.145122">
   <ele>1661.00</ele>
   <time>2014-04-01T09:42:04Z</time>
  </trkpt>
  <trkpt lat="32.982288" lon="-3.145227">
   <ele>1660.00</ele>
   <time>2014-04-01T09:42:06Z</time>
  </trkpt>
  <trkpt lat="32.982051" lon="-3.145354">
   <ele>1659.00</ele>
   <time>2014-04-01T09:42:08Z</time>
  </trkpt>
  <trkpt lat="32.981691" lon="-3.145550">
   <ele>1658.00</ele>
   <time>2014-04-01T09:42:11Z</time>
  </trkpt>
  <trkpt lat="32.981460" lon="-3.145645">
   <ele>1657.00</ele>
   <time>2014-04-01T09:42:13Z</time>
  </trkpt>
  <trkpt lat="32.981247" lon="-3.145719">
   <ele>1657.00</ele>
   <time>2014-04-01T09:42:15Z</time>
  </trkpt>
  <trkpt lat="32.981053" lon="-3.145830">
   <ele>1656.00</ele>
   <time>2014-04-01T09:42:17Z</time>
  </trkpt>
  <trkpt lat="32.980758" lon="-3.146036">
   <ele>1657.00</ele>
   <time>2014-04-01T09:42:20Z</time>
  </trkpt>
  <trkpt lat="32.980333" lon="-3.146340">
   <ele>1658.00</ele>
   <time>2014-04-01T09:42:24Z</time>
  </trkpt>
  <trkpt lat="32.979678" lon="-3.146744">
   <ele>1659.00</ele>
   <time>2014-04-01T09:42:30Z</time>
  </trkpt>
  <trkpt lat="32.979478" lon="-3.146870">
   <ele>1659.00</ele>
   <time>2014-04-01T09:42:32Z</time>
  </trkpt>
  <trkpt lat="32.979291" lon="-3.147034">
   <ele>1659.00</ele>
   <time>2014-04-01T09:42:34Z</time>
  </trkpt>
  <trkpt lat="32.979103" lon="-3.147206">
   <ele>1660.00</ele>
   <time>2014-04-01T09:42:36Z</time>
  </trkpt>
  <trkpt lat="32.978900" lon="-3.147361">
   <ele>1660.00</ele>
   <time>2014-04-01T09:42:38Z</time>
  </trkpt>
  <trkpt lat="32.978682" lon="-3.147487">
   <ele>1661.00</ele>
   <time>2014-04-01T09:42:40Z</time>
  </trkpt>
  <trkpt lat="32.978461" lon="-3.147610">
   <ele>1661.00</ele>
   <time>2014-04-01T09:42:42Z</time>
  </trkpt>
  <trkpt lat="32.978253" lon="-3.147771">
   <ele>1662.00</ele>
   <time>2014-04-01T09:42:44Z</time>
  </trkpt>
  <trkpt lat="32.978041" lon="-3.147941">
   <ele>1662.00</ele>
   <time>2014-04-01T09:42:46Z</time>
  </trkpt>
  <trkpt lat="32.977715" lon="-3.148179">
   <ele>1662.00</ele>
   <time>2014-04-01T09:42:49Z</time>
  </trkpt>
  <trkpt lat="32.977509" lon="-3.148324">
   <ele>1662.00</ele>
   <time>2014-04-01T09:42:51Z</time>
  </trkpt>
  <trkpt lat="32.977323" lon="-3.148492">
   <ele>1663.00</ele>
   <time>2014-04-01T09:42:53Z</time>
  </trkpt>
  <trkpt lat="32.976996" lon="-3.148822">
   <ele>1663.00</ele>
   <time>2014-04-01T09:42:57Z</time>
  </trkpt>
  <trkpt lat="32.976835" lon="-3.148961">
   <ele>1663.00</ele>
   <time>2014-04-01T09:42:59Z</time>
  </trkpt>
  <trkpt lat="32.976662" lon="-3.149087">
   <ele>1663.00</ele>
   <time>2014-04-01T09:43:01Z</time>
  </trkpt>
  <trkpt lat="32.975605" lon="-3.149813">
   <ele>1663.00</ele>
   <time>2014-04-01T09:43:12Z</time>
  </trkpt>
  <trkpt lat="32.975414" lon="-3.149949">
   <ele>1663.00</ele>
   <time>2014-04-01T09:43:14Z</time>
  </trkpt>
  <trkpt lat="32.975161" lon="-3.150121">
   <ele>1663.00</ele>
   <time>2014-04-01T09:43:17Z</time>
  </trkpt>
  <trkpt lat="32.975007" lon="-3.150253">
   <ele>1663.00</ele>
   <time>2014-04-01T09:43:19Z</time>
  </trkpt>
  <trkpt lat="32.974857" lon="-3.150400">
   <ele>1664.00</ele>
   <time>2014-04-01T09:43:21Z</time>
  </trkpt>
  <trkpt lat="32.974707" lon="-3.150567">
   <ele>1664.00</ele>
   <time>2014-04-01T09:43:23Z</time>
  </trkpt>
  <trkpt lat="32.974546" lon="-3.150745">
   <ele>1664.00</ele>
   <time>2014-04-01T09:43:25Z</time>
  </trkpt>
  <trkpt lat="32.974360" lon="-3.150920">
   <ele>1664.00</ele>
   <time>2014-04-01T09:43:27Z</time>
  </trkpt>
  <trkpt lat="32.974055" lon="-3.151185">
   <ele>1665.00</ele>
   <time>2014-04-01T09:43:30Z</time>
  </trkpt>
  <trkpt lat="32.973757" lon="-3.151437">
   <ele>1665.00</ele>
   <time>2014-04-01T09:43:33Z</time>
  </trkpt>
  <trkpt lat="32.973577" lon="-3.151625">
   <ele>1666.00</ele>
   <time>2014-04-01T09:43:35Z</time>
  </trkpt>
  <trkpt lat="32.973413" lon="-3.151831">
   <ele>1666.00</ele>
   <time>2014-04-01T09:43:37Z</time>
  </trkpt>
  <trkpt lat="32.972374" lon="-3.153294">
   <ele>1667.00</ele>
   <time>2014-04-01T09:43:50Z</time>
  </trkpt>
  <trkpt lat="32.972082" lon="-3.153749">
   <ele>1667.00</ele>
   <time>2014-04-01T09:43:54Z</time>
  </trkpt>
  <trkpt lat="32.971917" lon="-3.153970">
   <ele>1667.00</ele>
   <time>2014-04-01T09:43:56Z</time>
  </trkpt>
  <trkpt lat="32.971597" lon="-3.154371">
   <ele>1669.00</ele>
   <time>2014-04-01T09:44:00Z</time>
  </trkpt>
  <trkpt lat="32.971434" lon="-3.154519">
   <ele>1669.00</ele>
   <time>2014-04-01T09:44:02Z</time>
  </trkpt>
  <trkpt lat="32.971260" lon="-3.154621">
   <ele>1670.00</ele>
   <time>2014-04-01T09:44:04Z</time>
  </trkpt>
  <trkpt lat="32.971036" lon="-3.154786">
   <ele>1671.00</ele>
   <time>2014-04-01T09:44:07Z</time>
  </trkpt>
  <trkpt lat="32.970828" lon="-3.154942">
   <ele>1671.00</ele>
   <time>2014-04-01T09:44:10Z</time>
  </trkpt>
  <trkpt lat="32.970388" lon="-3.155256">
   <ele>1673.00</ele>
   <time>2014-04-01T09:44:16Z</time>
  </trkpt>
  <trkpt lat="32.970227" lon="-3.155405">
   <ele>1673.00</ele>
   <time>2014-04-01T09:44:18Z</time>
  </trkpt>
  <trkpt lat="32.970064" lon="-3.155558">
   <ele>1673.00</ele>
   <time>2014-04-01T09:44:20Z</time>
  </trkpt>
  <trkpt lat="32.969877" lon="-3.155664">
   <ele>1674.00</ele>
   <time>2014-04-01T09:44:22Z</time>
  </trkpt>
  <trkpt lat="32.969671" lon="-3.155716">
   <ele>1674.00</ele>
   <time>2014-04-01T09:44:24Z</time>
  </trkpt>
  <trkpt lat="32.969358" lon="-3.155767">
   <ele>1676.00</ele>
   <time>2014-04-01T09:44:27Z</time>
  </trkpt>
  <trkpt lat="32.969177" lon="-3.155831">
   <ele>1677.00</ele>
   <time>2014-04-01T09:44:29Z</time>
  </trkpt>
  <trkpt lat="32.968936" lon="-3.155890">
   <ele>1678.00</ele>
   <time>2014-04-01T09:44:32Z</time>
  </trkpt>
  <trkpt lat="32.968715" lon="-3.155792">
   <ele>1679.00</ele>
   <time>2014-04-01T09:44:35Z</time>
  </trkpt>
  <trkpt lat="32.968525" lon="-3.155670">
   <ele>1680.00</ele>
   <time>2014-04-01T09:44:38Z</time>
  </trkpt>
  <trkpt lat="32.968314" lon="-3.155576">
   <ele>1681.00</ele>
   <time>2014-04-01T09:44:41Z</time>
  </trkpt>
  <trkpt lat="32.968036" lon="-3.155575">
   <ele>1681.00</ele>
   <time>2014-04-01T09:44:44Z</time>
  </trkpt>
  <trkpt lat="32.967823" lon="-3.155591">
   <ele>1681.00</ele>
   <time>2014-04-01T09:44:46Z</time>
  </trkpt>
  <trkpt lat="32.967604" lon="-3.155583">
   <ele>1681.00</ele>
   <time>2014-04-01T09:44:48Z</time>
  </trkpt>
  <trkpt lat="32.967385" lon="-3.155542">
   <ele>1682.00</ele>
   <time>2014-04-01T09:44:50Z</time>
  </trkpt>
  <trkpt lat="32.967167" lon="-3.155484">
   <ele>1682.00</ele>
   <time>2014-04-01T09:44:52Z</time>
  </trkpt>
  <trkpt lat="32.966850" lon="-3.155384">
   <ele>1684.00</ele>
   <time>2014-04-01T09:44:55Z</time>
  </trkpt>
  <trkpt lat="32.966658" lon="-3.155302">
   <ele>1685.00</ele>
   <time>2014-04-01T09:44:57Z</time>
  </trkpt>
  <trkpt lat="32.966397" lon="-3.155193">
   <ele>1687.00</ele>
   <time>2014-04-01T09:45:00Z</time>
  </trkpt>
  <trkpt lat="32.966142" lon="-3.155169">
   <ele>1687.00</ele>
   <time>2014-04-01T09:45:03Z</time>
  </trkpt>
  <trkpt lat="32.965959" lon="-3.155147">
   <ele>1687.00</ele>
   <time>2014-04-01T09:45:05Z</time>
  </trkpt>
  <trkpt lat="32.965771" lon="-3.155096">
   <ele>1687.00</ele>
   <time>2014-04-01T09:45:07Z</time>
  </trkpt>
  <trkpt lat="32.965577" lon="-3.155053">
   <ele>1687.00</ele>
   <time>2014-04-01T09:45:09Z</time>
  </trkpt>
  <trkpt lat="32.965278" lon="-3.154987">
   <ele>1688.00</ele>
   <time>2014-04-01T09:45:12Z</time>
  </trkpt>
  <trkpt lat="32.964978" lon="-3.154918">
   <ele>1688.00</ele>
   <time>2014-04-01T09:45:15Z</time>
  </trkpt>
  <trkpt lat="32.964262" lon="-3.154775">
   <ele>1689.00</ele>
   <time>2014-04-01T09:45:22Z</time>
  </trkpt>
  <trkpt lat="32.963619" lon="-3.154611">
   <ele>1691.00</ele>
   <time>2014-04-01T09:45:28Z</time>
  </trkpt>
  <trkpt lat="32.963400" lon="-3.154570">
   <ele>1692.00</ele>
   <time>2014-04-01T09:45:30Z</time>
  </trkpt>
  <trkpt lat="32.963186" lon="-3.154542">
   <ele>1692.00</ele>
   <time>2014-04-01T09:45:32Z</time>
  </trkpt>
  <trkpt lat="32.962995" lon="-3.154526">
   <ele>1693.00</ele>
   <time>2014-04-01T09:45:34Z</time>
  </trkpt>
  <trkpt lat="32.962743" lon="-3.154491">
   <ele>1694.00</ele>
   <time>2014-04-01T09:45:37Z</time>
  </trkpt>
  <trkpt lat="32.962511" lon="-3.154449">
   <ele>1694.00</ele>
   <time>2014-04-01T09:45:40Z</time>
  </trkpt>
  <trkpt lat="32.962283" lon="-3.154468">
   <ele>1694.00</ele>
   <time>2014-04-01T09:45:43Z</time>
  </trkpt>
  <trkpt lat="32.961980" lon="-3.154496">
   <ele>1694.00</ele>
   <time>2014-04-01T09:45:47Z</time>
  </trkpt>
  <trkpt lat="32.961778" lon="-3.154594">
   <ele>1694.00</ele>
   <time>2014-04-01T09:45:50Z</time>
  </trkpt>
  <trkpt lat="32.961596" lon="-3.154763">
   <ele>1695.00</ele>
   <time>2014-04-01T09:45:53Z</time>
  </trkpt>
  <trkpt lat="32.961449" lon="-3.154999">
   <ele>1695.00</ele>
   <time>2014-04-01T09:45:56Z</time>
  </trkpt>
  <trkpt lat="32.961295" lon="-3.155243">
   <ele>1695.00</ele>
   <time>2014-04-01T09:45:59Z</time>
  </trkpt>
  <trkpt lat="32.961140" lon="-3.155490">
   <ele>1694.00</ele>
   <time>2014-04-01T09:46:02Z</time>
  </trkpt>
  <trkpt lat="32.961038" lon="-3.155770">
   <ele>1695.00</ele>
   <time>2014-04-01T09:46:05Z</time>
  </trkpt>
  <trkpt lat="32.960917" lon="-3.156044">
   <ele>1695.00</ele>
   <time>2014-04-01T09:46:08Z</time>
  </trkpt>
  <trkpt lat="32.960831" lon="-3.156352">
   <ele>1695.00</ele>
   <time>2014-04-01T09:46:11Z</time>
  </trkpt>
  <trkpt lat="32.960797" lon="-3.156571">
   <ele>1696.00</ele>
   <time>2014-04-01T09:46:13Z</time>
  </trkpt>
  <trkpt lat="32.960743" lon="-3.156779">
   <ele>1697.00</ele>
   <time>2014-04-01T09:46:15Z</time>
  </trkpt>
  <trkpt lat="32.960575" lon="-3.157282">
   <ele>1697.00</ele>
   <time>2014-04-01T09:46:20Z</time>
  </trkpt>
  <trkpt lat="32.960532" lon="-3.157496">
   <ele>1697.00</ele>
   <time>2014-04-01T09:46:22Z</time>
  </trkpt>
  <trkpt lat="32.960491" lon="-3.157824">
   <ele>1698.00</ele>
   <time>2014-04-01T09:46:25Z</time>
  </trkpt>
  <trkpt lat="32.960427" lon="-3.158040">
   <ele>1698.00</ele>
   <time>2014-04-01T09:46:27Z</time>
  </trkpt>
  <trkpt lat="32.960344" lon="-3.158258">
   <ele>1698.00</ele>
   <time>2014-04-01T09:46:29Z</time>
  </trkpt>
  <trkpt lat="32.959784" lon="-3.159652">
   <ele>1700.00</ele>
   <time>2014-04-01T09:46:42Z</time>
  </trkpt>
  <trkpt lat="32.959673" lon="-3.159925">
   <ele>1701.00</ele>
   <time>2014-04-01T09:46:45Z</time>
  </trkpt>
  <trkpt lat="32.959588" lon="-3.160115">
   <ele>1701.00</ele>
   <time>2014-04-01T09:46:47Z</time>
  </trkpt>
  <trkpt lat="32.959513" lon="-3.160320">
   <ele>1701.00</ele>
   <time>2014-04-01T09:46:49Z</time>
  </trkpt>
  <trkpt lat="32.959407" lon="-3.160631">
   <ele>1702.00</ele>
   <time>2014-04-01T09:46:52Z</time>
  </trkpt>
  <trkpt lat="32.959324" lon="-3.160832">
   <ele>1702.00</ele>
   <time>2014-04-01T09:46:54Z</time>
  </trkpt>
  <trkpt lat="32.959220" lon="-3.161019">
   <ele>1702.00</ele>
   <time>2014-04-01T09:46:56Z</time>
  </trkpt>
  <trkpt lat="32.959052" lon="-3.161297">
   <ele>1702.00</ele>
   <time>2014-04-01T09:46:59Z</time>
  </trkpt>
  <trkpt lat="32.958781" lon="-3.161795">
   <ele>1703.00</ele>
   <time>2014-04-01T09:47:04Z</time>
  </trkpt>
  <trkpt lat="32.958654" lon="-3.161984">
   <ele>1704.00</ele>
   <time>2014-04-01T09:47:06Z</time>
  </trkpt>
  <trkpt lat="32.958448" lon="-3.162269">
   <ele>1704.00</ele>
   <time>2014-04-01T09:47:09Z</time>
  </trkpt>
  <trkpt lat="32.958299" lon="-3.162453">
   <ele>1705.00</ele>
   <time>2014-04-01T09:47:11Z</time>
  </trkpt>
  <trkpt lat="32.958146" lon="-3.162632">
   <ele>1705.00</ele>
   <time>2014-04-01T09:47:13Z</time>
  </trkpt>
  <trkpt lat="32.957988" lon="-3.162792">
   <ele>1706.00</ele>
   <time>2014-04-01T09:47:15Z</time>
  </trkpt>
  <trkpt lat="32.957836" lon="-3.162949">
   <ele>1706.00</ele>
   <time>2014-04-01T09:47:17Z</time>
  </trkpt>
  <trkpt lat="32.957614" lon="-3.163193">
   <ele>1707.00</ele>
   <time>2014-04-01T09:47:20Z</time>
  </trkpt>
  <trkpt lat="32.957136" lon="-3.163645">
   <ele>1708.00</ele>
   <time>2014-04-01T09:47:26Z</time>
  </trkpt>
  <trkpt lat="32.956975" lon="-3.163775">
   <ele>1708.00</ele>
   <time>2014-04-01T09:47:28Z</time>
  </trkpt>
  <trkpt lat="32.956820" lon="-3.163897">
   <ele>1709.00</ele>
   <time>2014-04-01T09:47:30Z</time>
  </trkpt>
  <trkpt lat="32.956689" lon="-3.164048">
   <ele>1709.00</ele>
   <time>2014-04-01T09:47:32Z</time>
  </trkpt>
  <trkpt lat="32.956525" lon="-3.164311">
   <ele>1709.00</ele>
   <time>2014-04-01T09:47:35Z</time>
  </trkpt>
  <trkpt lat="32.956301" lon="-3.164617">
   <ele>1710.00</ele>
   <time>2014-04-01T09:47:39Z</time>
  </trkpt>
  <trkpt lat="32.956142" lon="-3.164772">
   <ele>1710.00</ele>
   <time>2014-04-01T09:47:42Z</time>
  </trkpt>
  <trkpt lat="32.955959" lon="-3.164842">
   <ele>1710.00</ele>
   <time>2014-04-01T09:47:45Z</time>
  </trkpt>
  <trkpt lat="32.955757" lon="-3.164964">
   <ele>1709.00</ele>
   <time>2014-04-01T09:47:48Z</time>
  </trkpt>
  <trkpt lat="32.955533" lon="-3.165121">
   <ele>1708.00</ele>
   <time>2014-04-01T09:47:51Z</time>
  </trkpt>
  <trkpt lat="32.955292" lon="-3.165254">
   <ele>1707.00</ele>
   <time>2014-04-01T09:47:54Z</time>
  </trkpt>
  <trkpt lat="32.955041" lon="-3.165365">
   <ele>1706.00</ele>
   <time>2014-04-01T09:47:57Z</time>
  </trkpt>
  <trkpt lat="32.954854" lon="-3.165390">
   <ele>1706.00</ele>
   <time>2014-04-01T09:47:59Z</time>
  </trkpt>
  <trkpt lat="32.954662" lon="-3.165384">
   <ele>1705.00</ele>
   <time>2014-04-01T09:48:01Z</time>
  </trkpt>
  <trkpt lat="32.954381" lon="-3.165364">
   <ele>1704.00</ele>
   <time>2014-04-01T09:48:04Z</time>
  </trkpt>
  <trkpt lat="32.954130" lon="-3.165340">
   <ele>1703.00</ele>
   <time>2014-04-01T09:48:07Z</time>
  </trkpt>
  <trkpt lat="32.953899" lon="-3.165345">
   <ele>1703.00</ele>
   <time>2014-04-01T09:48:10Z</time>
  </trkpt>
  <trkpt lat="32.953671" lon="-3.165365">
   <ele>1702.00</ele>
   <time>2014-04-01T09:48:13Z</time>
  </trkpt>
  <trkpt lat="32.953443" lon="-3.165335">
   <ele>1701.00</ele>
   <time>2014-04-01T09:48:16Z</time>
  </trkpt>
  <trkpt lat="32.953218" lon="-3.165309">
   <ele>1700.00</ele>
   <time>2014-04-01T09:48:19Z</time>
  </trkpt>
  <trkpt lat="32.952975" lon="-3.165322">
   <ele>1699.00</ele>
   <time>2014-04-01T09:48:22Z</time>
  </trkpt>
  <trkpt lat="32.952464" lon="-3.165295">
   <ele>1697.00</ele>
   <time>2014-04-01T09:48:28Z</time>
  </trkpt>
  <trkpt lat="32.952230" lon="-3.165208">
   <ele>1696.00</ele>
   <time>2014-04-01T09:48:31Z</time>
  </trkpt>
  <trkpt lat="32.952021" lon="-3.165110">
   <ele>1695.00</ele>
   <time>2014-04-01T09:48:34Z</time>
  </trkpt>
  <trkpt lat="32.951779" lon="-3.165117">
   <ele>1694.00</ele>
   <time>2014-04-01T09:48:37Z</time>
  </trkpt>
  <trkpt lat="32.951593" lon="-3.165129">
   <ele>1693.00</ele>
   <time>2014-04-01T09:48:39Z</time>
  </trkpt>
  <trkpt lat="32.951390" lon="-3.165107">
   <ele>1692.00</ele>
   <time>2014-04-01T09:48:41Z</time>
  </trkpt>
  <trkpt lat="32.951185" lon="-3.165062">
   <ele>1691.00</ele>
   <time>2014-04-01T09:48:43Z</time>
  </trkpt>
  <trkpt lat="32.950980" lon="-3.165005">
   <ele>1690.00</ele>
   <time>2014-04-01T09:48:45Z</time>
  </trkpt>
  <trkpt lat="32.950781" lon="-3.164936">
   <ele>1690.00</ele>
   <time>2014-04-01T09:48:47Z</time>
  </trkpt>
  <trkpt lat="32.950595" lon="-3.164854">
   <ele>1689.00</ele>
   <time>2014-04-01T09:48:49Z</time>
  </trkpt>
  <trkpt lat="32.950415" lon="-3.164780">
   <ele>1689.00</ele>
   <time>2014-04-01T09:48:51Z</time>
  </trkpt>
  <trkpt lat="32.950228" lon="-3.164724">
   <ele>1688.00</ele>
   <time>2014-04-01T09:48:53Z</time>
  </trkpt>
  <trkpt lat="32.949939" lon="-3.164650">
   <ele>1688.00</ele>
   <time>2014-04-01T09:48:56Z</time>
  </trkpt>
  <trkpt lat="32.949757" lon="-3.164578">
   <ele>1688.00</ele>
   <time>2014-04-01T09:48:58Z</time>
  </trkpt>
  <trkpt lat="32.949502" lon="-3.164466">
   <ele>1687.00</ele>
   <time>2014-04-01T09:49:01Z</time>
  </trkpt>
  <trkpt lat="32.949255" lon="-3.164395">
   <ele>1687.00</ele>
   <time>2014-04-01T09:49:04Z</time>
  </trkpt>
  <trkpt lat="32.949032" lon="-3.164338">
   <ele>1686.00</ele>
   <time>2014-04-01T09:49:07Z</time>
  </trkpt>
  <trkpt lat="32.948848" lon="-3.164322">
   <ele>1686.00</ele>
   <time>2014-04-01T09:49:10Z</time>
  </trkpt>
  <trkpt lat="32.948656" lon="-3.164374">
   <ele>1684.00</ele>
   <time>2014-04-01T09:49:13Z</time>
  </trkpt>
  <trkpt lat="32.948447" lon="-3.164464">
   <ele>1682.00</ele>
   <time>2014-04-01T09:49:16Z</time>
  </trkpt>
  <trkpt lat="32.948236" lon="-3.164616">
   <ele>1681.00</ele>
   <time>2014-04-01T09:49:19Z</time>
  </trkpt>
  <trkpt lat="32.948044" lon="-3.164833">
   <ele>1680.00</ele>
   <time>2014-04-01T09:49:22Z</time>
  </trkpt>
  <trkpt lat="32.947893" lon="-3.165095">
   <ele>1679.00</ele>
   <time>2014-04-01T09:49:25Z</time>
  </trkpt>
  <trkpt lat="32.947787" lon="-3.165367">
   <ele>1678.00</ele>
   <time>2014-04-01T09:49:28Z</time>
  </trkpt>
  <trkpt lat="32.947681" lon="-3.165647">
   <ele>1678.00</ele>
   <time>2014-04-01T09:49:31Z</time>
  </trkpt>
  <trkpt lat="32.947519" lon="-3.166005">
   <ele>1678.00</ele>
   <time>2014-04-01T09:49:35Z</time>
  </trkpt>
  <trkpt lat="32.947382" lon="-3.166235">
   <ele>1679.00</ele>
   <time>2014-04-01T09:49:38Z</time>
  </trkpt>
  <trkpt lat="32.947316" lon="-3.166517">
   <ele>1680.00</ele>
   <time>2014-04-01T09:49:41Z</time>
  </trkpt>
  <trkpt lat="32.947305" lon="-3.166731">
   <ele>1681.00</ele>
   <time>2014-04-01T09:49:43Z</time>
  </trkpt>
  <trkpt lat="32.947292" lon="-3.166954">
   <ele>1681.00</ele>
   <time>2014-04-01T09:49:45Z</time>
  </trkpt>
  <trkpt lat="32.947266" lon="-3.167174">
   <ele>1681.00</ele>
   <time>2014-04-01T09:49:47Z</time>
  </trkpt>
  <trkpt lat="32.947240" lon="-3.167392">
   <ele>1680.00</ele>
   <time>2014-04-01T09:49:49Z</time>
  </trkpt>
  <trkpt lat="32.947221" lon="-3.167613">
   <ele>1680.00</ele>
   <time>2014-04-01T09:49:51Z</time>
  </trkpt>
  <trkpt lat="32.947204" lon="-3.167828">
   <ele>1680.00</ele>
   <time>2014-04-01T09:49:53Z</time>
  </trkpt>
  <trkpt lat="32.947175" lon="-3.168138">
   <ele>1679.00</ele>
   <time>2014-04-01T09:49:56Z</time>
  </trkpt>
  <trkpt lat="32.947158" lon="-3.168443">
   <ele>1678.00</ele>
   <time>2014-04-01T09:49:59Z</time>
  </trkpt>
  <trkpt lat="32.947077" lon="-3.168748">
   <ele>1677.00</ele>
   <time>2014-04-01T09:50:02Z</time>
  </trkpt>
  <trkpt lat="32.946914" lon="-3.169149">
   <ele>1676.00</ele>
   <time>2014-04-01T09:50:06Z</time>
  </trkpt>
  <trkpt lat="32.946837" lon="-3.169445">
   <ele>1675.00</ele>
   <time>2014-04-01T09:50:09Z</time>
  </trkpt>
  <trkpt lat="32.946733" lon="-3.169712">
   <ele>1674.00</ele>
   <time>2014-04-01T09:50:12Z</time>
  </trkpt>
  <trkpt lat="32.946580" lon="-3.169991">
   <ele>1673.00</ele>
   <time>2014-04-01T09:50:15Z</time>
  </trkpt>
  <trkpt lat="32.946487" lon="-3.170200">
   <ele>1673.00</ele>
   <time>2014-04-01T09:50:17Z</time>
  </trkpt>
  <trkpt lat="32.946414" lon="-3.170425">
   <ele>1672.00</ele>
   <time>2014-04-01T09:50:19Z</time>
  </trkpt>
  <trkpt lat="32.946361" lon="-3.170666">
   <ele>1671.00</ele>
   <time>2014-04-01T09:50:21Z</time>
  </trkpt>
  <trkpt lat="32.946327" lon="-3.170920">
   <ele>1671.00</ele>
   <time>2014-04-01T09:50:23Z</time>
  </trkpt>
  <trkpt lat="32.946291" lon="-3.171177">
   <ele>1671.00</ele>
   <time>2014-04-01T09:50:25Z</time>
  </trkpt>
  <trkpt lat="32.946240" lon="-3.171428">
   <ele>1670.00</ele>
   <time>2014-04-01T09:50:27Z</time>
  </trkpt>
  <trkpt lat="32.946177" lon="-3.171673">
   <ele>1670.00</ele>
   <time>2014-04-01T09:50:29Z</time>
  </trkpt>
  <trkpt lat="32.946105" lon="-3.171910">
   <ele>1670.00</ele>
   <time>2014-04-01T09:50:31Z</time>
  </trkpt>
  <trkpt lat="32.946006" lon="-3.172129">
   <ele>1669.00</ele>
   <time>2014-04-01T09:50:33Z</time>
  </trkpt>
  <trkpt lat="32.945878" lon="-3.172323">
   <ele>1669.00</ele>
   <time>2014-04-01T09:50:35Z</time>
  </trkpt>
  <trkpt lat="32.945734" lon="-3.172491">
   <ele>1668.00</ele>
   <time>2014-04-01T09:50:37Z</time>
  </trkpt>
  <trkpt lat="32.945581" lon="-3.172636">
   <ele>1668.00</ele>
   <time>2014-04-01T09:50:39Z</time>
  </trkpt>
  <trkpt lat="32.945057" lon="-3.173124">
   <ele>1667.00</ele>
   <time>2014-04-01T09:50:46Z</time>
  </trkpt>
  <trkpt lat="32.944880" lon="-3.173352">
   <ele>1666.00</ele>
   <time>2014-04-01T09:50:49Z</time>
  </trkpt>
  <trkpt lat="32.944768" lon="-3.173641">
   <ele>1666.00</ele>
   <time>2014-04-01T09:50:52Z</time>
  </trkpt>
  <trkpt lat="32.944705" lon="-3.173844">
   <ele>1667.00</ele>
   <time>2014-04-01T09:50:54Z</time>
  </trkpt>
  <trkpt lat="32.944684" lon="-3.174159">
   <ele>1667.00</ele>
   <time>2014-04-01T09:50:57Z</time>
  </trkpt>
  <trkpt lat="32.944737" lon="-3.174477">
   <ele>1668.00</ele>
   <time>2014-04-01T09:51:00Z</time>
  </trkpt>
  <trkpt lat="32.944736" lon="-3.174701">
   <ele>1667.00</ele>
   <time>2014-04-01T09:51:02Z</time>
  </trkpt>
  <trkpt lat="32.944696" lon="-3.175121">
   <ele>1667.00</ele>
   <time>2014-04-01T09:51:06Z</time>
  </trkpt>
  <trkpt lat="32.944596" lon="-3.175421">
   <ele>1667.00</ele>
   <time>2014-04-01T09:51:09Z</time>
  </trkpt>
  <trkpt lat="32.944536" lon="-3.175627">
   <ele>1666.00</ele>
   <time>2014-04-01T09:51:11Z</time>
  </trkpt>
  <trkpt lat="32.944516" lon="-3.175938">
   <ele>1665.00</ele>
   <time>2014-04-01T09:51:14Z</time>
  </trkpt>
  <trkpt lat="32.944547" lon="-3.176150">
   <ele>1665.00</ele>
   <time>2014-04-01T09:51:16Z</time>
  </trkpt>
  <trkpt lat="32.944559" lon="-3.176468">
   <ele>1665.00</ele>
   <time>2014-04-01T09:51:19Z</time>
  </trkpt>
  <trkpt lat="32.944513" lon="-3.176680">
   <ele>1665.00</ele>
   <time>2014-04-01T09:51:21Z</time>
  </trkpt>
  <trkpt lat="32.944415" lon="-3.176988">
   <ele>1664.00</ele>
   <time>2014-04-01T09:51:24Z</time>
  </trkpt>
  <trkpt lat="32.944301" lon="-3.177272">
   <ele>1663.00</ele>
   <time>2014-04-01T09:51:27Z</time>
  </trkpt>
  <trkpt lat="32.944146" lon="-3.177596">
   <ele>1662.00</ele>
   <time>2014-04-01T09:51:31Z</time>
  </trkpt>
  <trkpt lat="32.944033" lon="-3.177798">
   <ele>1662.00</ele>
   <time>2014-04-01T09:51:34Z</time>
  </trkpt>
  <trkpt lat="32.943840" lon="-3.178117">
   <ele>1661.00</ele>
   <time>2014-04-01T09:51:40Z</time>
  </trkpt>
  <trkpt lat="32.943637" lon="-3.178432">
   <ele>1661.00</ele>
   <time>2014-04-01T09:51:46Z</time>
  </trkpt>
  <trkpt lat="32.943436" lon="-3.178797">
   <ele>1661.00</ele>
   <time>2014-04-01T09:52:02Z</time>
  </trkpt>
  <trkpt lat="32.943445" lon="-3.178782">
   <ele>1660.00</ele>
   <time>2014-04-01T09:52:17Z</time>
  </trkpt>
  <trkpt lat="32.943283" lon="-3.179056">
   <ele>1659.00</ele>
   <time>2014-04-01T09:52:27Z</time>
  </trkpt>
  <trkpt lat="32.943106" lon="-3.179369">
   <ele>1659.00</ele>
   <time>2014-04-01T09:52:32Z</time>
  </trkpt>
  <trkpt lat="32.942992" lon="-3.179558">
   <ele>1659.00</ele>
   <time>2014-04-01T09:52:35Z</time>
  </trkpt>
  <trkpt lat="32.942888" lon="-3.179781">
   <ele>1658.00</ele>
   <time>2014-04-01T09:52:38Z</time>
  </trkpt>
  <trkpt lat="32.942786" lon="-3.180007">
   <ele>1658.00</ele>
   <time>2014-04-01T09:52:41Z</time>
  </trkpt>
  <trkpt lat="32.942692" lon="-3.180240">
   <ele>1658.00</ele>
   <time>2014-04-01T09:52:44Z</time>
  </trkpt>
  <trkpt lat="32.942620" lon="-3.180495">
   <ele>1659.00</ele>
   <time>2014-04-01T09:52:47Z</time>
  </trkpt>
  <trkpt lat="32.942587" lon="-3.180755">
   <ele>1659.00</ele>
   <time>2014-04-01T09:52:50Z</time>
  </trkpt>
  <trkpt lat="32.942546" lon="-3.181220">
   <ele>1660.00</ele>
   <time>2014-04-01T09:52:55Z</time>
  </trkpt>
  <trkpt lat="32.942472" lon="-3.181471">
   <ele>1659.00</ele>
   <time>2014-04-01T09:52:58Z</time>
  </trkpt>
  <trkpt lat="32.942322" lon="-3.181630">
   <ele>1658.00</ele>
   <time>2014-04-01T09:53:01Z</time>
  </trkpt>
  <trkpt lat="32.942169" lon="-3.181809">
   <ele>1657.00</ele>
   <time>2014-04-01T09:53:04Z</time>
  </trkpt>
  <trkpt lat="32.942088" lon="-3.182067">
   <ele>1655.00</ele>
   <time>2014-04-01T09:53:07Z</time>
  </trkpt>
  <trkpt lat="32.942060" lon="-3.182353">
   <ele>1654.00</ele>
   <time>2014-04-01T09:53:10Z</time>
  </trkpt>
  <trkpt lat="32.941976" lon="-3.183290">
   <ele>1652.00</ele>
   <time>2014-04-01T09:53:18Z</time>
  </trkpt>
  <trkpt lat="32.941848" lon="-3.184279">
   <ele>1650.00</ele>
   <time>2014-04-01T09:53:26Z</time>
  </trkpt>
  <trkpt lat="32.941776" lon="-3.184672">
   <ele>1649.00</ele>
   <time>2014-04-01T09:53:29Z</time>
  </trkpt>
  <trkpt lat="32.941560" lon="-3.185783">
   <ele>1647.00</ele>
   <time>2014-04-01T09:53:37Z</time>
  </trkpt>
  <trkpt lat="32.941450" lon="-3.186202">
   <ele>1647.00</ele>
   <time>2014-04-01T09:53:40Z</time>
  </trkpt>
  <trkpt lat="32.941398" lon="-3.186482">
   <ele>1647.00</ele>
   <time>2014-04-01T09:53:42Z</time>
  </trkpt>
  <trkpt lat="32.941305" lon="-3.187010">
   <ele>1647.00</ele>
   <time>2014-04-01T09:53:46Z</time>
  </trkpt>
  <trkpt lat="32.941232" lon="-3.187237">
   <ele>1647.00</ele>
   <time>2014-04-01T09:53:48Z</time>
  </trkpt>
  <trkpt lat="32.941134" lon="-3.187455">
   <ele>1647.00</ele>
   <time>2014-04-01T09:53:50Z</time>
  </trkpt>
  <trkpt lat="32.941046" lon="-3.187677">
   <ele>1647.00</ele>
   <time>2014-04-01T09:53:52Z</time>
  </trkpt>
  <trkpt lat="32.940986" lon="-3.187897">
   <ele>1647.00</ele>
   <time>2014-04-01T09:53:54Z</time>
  </trkpt>
  <trkpt lat="32.940914" lon="-3.188098">
   <ele>1646.00</ele>
   <time>2014-04-01T09:53:56Z</time>
  </trkpt>
  <trkpt lat="32.940823" lon="-3.188283">
   <ele>1646.00</ele>
   <time>2014-04-01T09:53:58Z</time>
  </trkpt>
  <trkpt lat="32.940462" lon="-3.188932">
   <ele>1646.00</ele>
   <time>2014-04-01T09:54:05Z</time>
  </trkpt>
  <trkpt lat="32.940352" lon="-3.189127">
   <ele>1646.00</ele>
   <time>2014-04-01T09:54:07Z</time>
  </trkpt>
  <trkpt lat="32.940254" lon="-3.189342">
   <ele>1645.00</ele>
   <time>2014-04-01T09:54:09Z</time>
  </trkpt>
  <trkpt lat="32.940174" lon="-3.189578">
   <ele>1645.00</ele>
   <time>2014-04-01T09:54:11Z</time>
  </trkpt>
  <trkpt lat="32.940095" lon="-3.189812">
   <ele>1644.00</ele>
   <time>2014-04-01T09:54:13Z</time>
  </trkpt>
  <trkpt lat="32.939990" lon="-3.190019">
   <ele>1644.00</ele>
   <time>2014-04-01T09:54:15Z</time>
  </trkpt>
  <trkpt lat="32.939864" lon="-3.190214">
   <ele>1644.00</ele>
   <time>2014-04-01T09:54:17Z</time>
  </trkpt>
  <trkpt lat="32.939721" lon="-3.190398">
   <ele>1645.00</ele>
   <time>2014-04-01T09:54:19Z</time>
  </trkpt>
  <trkpt lat="32.939563" lon="-3.190542">
   <ele>1645.00</ele>
   <time>2014-04-01T09:54:21Z</time>
  </trkpt>
  <trkpt lat="32.939400" lon="-3.190675">
   <ele>1644.00</ele>
   <time>2014-04-01T09:54:23Z</time>
  </trkpt>
  <trkpt lat="32.939248" lon="-3.190829">
   <ele>1644.00</ele>
   <time>2014-04-01T09:54:25Z</time>
  </trkpt>
  <trkpt lat="32.939117" lon="-3.190997">
   <ele>1643.00</ele>
   <time>2014-04-01T09:54:27Z</time>
  </trkpt>
  <trkpt lat="32.939024" lon="-3.191189">
   <ele>1642.00</ele>
   <time>2014-04-01T09:54:29Z</time>
  </trkpt>
  <trkpt lat="32.938976" lon="-3.191407">
   <ele>1641.00</ele>
   <time>2014-04-01T09:54:31Z</time>
  </trkpt>
  <trkpt lat="32.938930" lon="-3.191639">
   <ele>1641.00</ele>
   <time>2014-04-01T09:54:33Z</time>
  </trkpt>
  <trkpt lat="32.938857" lon="-3.192002">
   <ele>1641.00</ele>
   <time>2014-04-01T09:54:36Z</time>
  </trkpt>
  <trkpt lat="32.938836" lon="-3.192239">
   <ele>1641.00</ele>
   <time>2014-04-01T09:54:38Z</time>
  </trkpt>
  <trkpt lat="32.938817" lon="-3.192452">
   <ele>1640.00</ele>
   <time>2014-04-01T09:54:40Z</time>
  </trkpt>
  <trkpt lat="32.938756" lon="-3.192729">
   <ele>1639.00</ele>
   <time>2014-04-01T09:54:43Z</time>
  </trkpt>
  <trkpt lat="32.938784" lon="-3.193023">
   <ele>1639.00</ele>
   <time>2014-04-01T09:54:46Z</time>
  </trkpt>
  <trkpt lat="32.938847" lon="-3.193238">
   <ele>1638.00</ele>
   <time>2014-04-01T09:54:48Z</time>
  </trkpt>
  <trkpt lat="32.939063" lon="-3.193819">
   <ele>1638.00</ele>
   <time>2014-04-01T09:54:53Z</time>
  </trkpt>
  <trkpt lat="32.939151" lon="-3.194049">
   <ele>1638.00</ele>
   <time>2014-04-01T09:54:55Z</time>
  </trkpt>
  <trkpt lat="32.939203" lon="-3.194278">
   <ele>1637.00</ele>
   <time>2014-04-01T09:54:57Z</time>
  </trkpt>
  <trkpt lat="32.939253" lon="-3.194601">
   <ele>1636.00</ele>
   <time>2014-04-01T09:55:00Z</time>
  </trkpt>
  <trkpt lat="32.939345" lon="-3.194894">
   <ele>1636.00</ele>
   <time>2014-04-01T09:55:03Z</time>
  </trkpt>
  <trkpt lat="32.939425" lon="-3.195174">
   <ele>1636.00</ele>
   <time>2014-04-01T09:55:06Z</time>
  </trkpt>
  <trkpt lat="32.939378" lon="-3.195426">
   <ele>1635.00</ele>
   <time>2014-04-01T09:55:09Z</time>
  </trkpt>
  <trkpt lat="32.939286" lon="-3.195622">
   <ele>1636.00</ele>
   <time>2014-04-01T09:55:12Z</time>
  </trkpt>
  <trkpt lat="32.939132" lon="-3.195807">
   <ele>1637.00</ele>
   <time>2014-04-01T09:55:16Z</time>
  </trkpt>
  <trkpt lat="32.938848" lon="-3.196031">
   <ele>1637.00</ele>
   <time>2014-04-01T09:55:21Z</time>
  </trkpt>
  <trkpt lat="32.938651" lon="-3.196132">
   <ele>1636.00</ele>
   <time>2014-04-01T09:55:24Z</time>
  </trkpt>
  <trkpt lat="32.938327" lon="-3.196251">
   <ele>1634.00</ele>
   <time>2014-04-01T09:55:28Z</time>
  </trkpt>
  <trkpt lat="32.937980" lon="-3.196410">
   <ele>1633.00</ele>
   <time>2014-04-01T09:55:32Z</time>
  </trkpt>
  <trkpt lat="32.937801" lon="-3.196470">
   <ele>1632.00</ele>
   <time>2014-04-01T09:55:34Z</time>
  </trkpt>
  <trkpt lat="32.937558" lon="-3.196551">
   <ele>1632.00</ele>
   <time>2014-04-01T09:55:37Z</time>
  </trkpt>
  <trkpt lat="32.937346" lon="-3.196653">
   <ele>1631.00</ele>
   <time>2014-04-01T09:55:40Z</time>
  </trkpt>
  <trkpt lat="32.937130" lon="-3.196799">
   <ele>1630.00</ele>
   <time>2014-04-01T09:55:43Z</time>
  </trkpt>
  <trkpt lat="32.936911" lon="-3.196992">
   <ele>1630.00</ele>
   <time>2014-04-01T09:55:46Z</time>
  </trkpt>
  <trkpt lat="32.936770" lon="-3.197155">
   <ele>1630.00</ele>
   <time>2014-04-01T09:55:48Z</time>
  </trkpt>
  <trkpt lat="32.936636" lon="-3.197330">
   <ele>1630.00</ele>
   <time>2014-04-01T09:55:50Z</time>
  </trkpt>
  <trkpt lat="32.936513" lon="-3.197520">
   <ele>1630.00</ele>
   <time>2014-04-01T09:55:52Z</time>
  </trkpt>
  <trkpt lat="32.936405" lon="-3.197730">
   <ele>1629.00</ele>
   <time>2014-04-01T09:55:54Z</time>
  </trkpt>
  <trkpt lat="32.936307" lon="-3.197955">
   <ele>1629.00</ele>
   <time>2014-04-01T09:55:56Z</time>
  </trkpt>
  <trkpt lat="32.936218" lon="-3.198193">
   <ele>1629.00</ele>
   <time>2014-04-01T09:55:58Z</time>
  </trkpt>
  <trkpt lat="32.936147" lon="-3.198441">
   <ele>1629.00</ele>
   <time>2014-04-01T09:56:00Z</time>
  </trkpt>
  <trkpt lat="32.936096" lon="-3.198695">
   <ele>1629.00</ele>
   <time>2014-04-01T09:56:02Z</time>
  </trkpt>
  <trkpt lat="32.936063" lon="-3.198945">
   <ele>1628.00</ele>
   <time>2014-04-01T09:56:04Z</time>
  </trkpt>
  <trkpt lat="32.935997" lon="-3.199567">
   <ele>1628.00</ele>
   <time>2014-04-01T09:56:09Z</time>
  </trkpt>
  <trkpt lat="32.935993" lon="-3.199817">
   <ele>1628.00</ele>
   <time>2014-04-01T09:56:11Z</time>
  </trkpt>
  <trkpt lat="32.936000" lon="-3.200157">
   <ele>1628.00</ele>
   <time>2014-04-01T09:56:14Z</time>
  </trkpt>
  <trkpt lat="32.935921" lon="-3.200418">
   <ele>1627.00</ele>
   <time>2014-04-01T09:56:17Z</time>
  </trkpt>
  <trkpt lat="32.935726" lon="-3.200580">
   <ele>1626.00</ele>
   <time>2014-04-01T09:56:20Z</time>
  </trkpt>
  <trkpt lat="32.935502" lon="-3.200728">
   <ele>1627.00</ele>
   <time>2014-04-01T09:56:23Z</time>
  </trkpt>
  <trkpt lat="32.935342" lon="-3.200968">
   <ele>1627.00</ele>
   <time>2014-04-01T09:56:26Z</time>
  </trkpt>
  <trkpt lat="32.935210" lon="-3.201288">
   <ele>1627.00</ele>
   <time>2014-04-01T09:56:29Z</time>
  </trkpt>
  <trkpt lat="32.935096" lon="-3.201491">
   <ele>1627.00</ele>
   <time>2014-04-01T09:56:31Z</time>
  </trkpt>
  <trkpt lat="32.934961" lon="-3.201667">
   <ele>1626.00</ele>
   <time>2014-04-01T09:56:33Z</time>
  </trkpt>
  <trkpt lat="32.934819" lon="-3.201840">
   <ele>1626.00</ele>
   <time>2014-04-01T09:56:35Z</time>
  </trkpt>
  <trkpt lat="32.934685" lon="-3.202022">
   <ele>1626.00</ele>
   <time>2014-04-01T09:56:37Z</time>
  </trkpt>
  <trkpt lat="32.934365" lon="-3.202456">
   <ele>1625.00</ele>
   <time>2014-04-01T09:56:42Z</time>
  </trkpt>
  <trkpt lat="32.934166" lon="-3.202590">
   <ele>1625.00</ele>
   <time>2014-04-01T09:56:45Z</time>
  </trkpt>
  <trkpt lat="32.933942" lon="-3.202692">
   <ele>1624.00</ele>
   <time>2014-04-01T09:56:48Z</time>
  </trkpt>
  <trkpt lat="32.933754" lon="-3.202878">
   <ele>1624.00</ele>
   <time>2014-04-01T09:56:51Z</time>
  </trkpt>
  <trkpt lat="32.933553" lon="-3.203071">
   <ele>1623.00</ele>
   <time>2014-04-01T09:56:54Z</time>
  </trkpt>
  <trkpt lat="32.933338" lon="-3.203228">
   <ele>1623.00</ele>
   <time>2014-04-01T09:56:57Z</time>
  </trkpt>
  <trkpt lat="32.933134" lon="-3.203401">
   <ele>1623.00</ele>
   <time>2014-04-01T09:57:00Z</time>
  </trkpt>
  <trkpt lat="32.932946" lon="-3.203607">
   <ele>1622.00</ele>
   <time>2014-04-01T09:57:03Z</time>
  </trkpt>
  <trkpt lat="32.932805" lon="-3.203870">
   <ele>1622.00</ele>
   <time>2014-04-01T09:57:06Z</time>
  </trkpt>
  <trkpt lat="32.932732" lon="-3.204168">
   <ele>1622.00</ele>
   <time>2014-04-01T09:57:09Z</time>
  </trkpt>
  <trkpt lat="32.932625" lon="-3.204462">
   <ele>1623.00</ele>
   <time>2014-04-01T09:57:12Z</time>
  </trkpt>
  <trkpt lat="32.932476" lon="-3.204717">
   <ele>1624.00</ele>
   <time>2014-04-01T09:57:15Z</time>
  </trkpt>
  <trkpt lat="32.932294" lon="-3.204942">
   <ele>1624.00</ele>
   <time>2014-04-01T09:57:18Z</time>
  </trkpt>
  <trkpt lat="32.932150" lon="-3.205090">
   <ele>1624.00</ele>
   <time>2014-04-01T09:57:20Z</time>
  </trkpt>
  <trkpt lat="32.931909" lon="-3.205310">
   <ele>1623.00</ele>
   <time>2014-04-01T09:57:23Z</time>
  </trkpt>
  <trkpt lat="32.931745" lon="-3.205462">
   <ele>1622.00</ele>
   <time>2014-04-01T09:57:25Z</time>
  </trkpt>
  <trkpt lat="32.931585" lon="-3.205634">
   <ele>1621.00</ele>
   <time>2014-04-01T09:57:27Z</time>
  </trkpt>
  <trkpt lat="32.931431" lon="-3.205820">
   <ele>1620.00</ele>
   <time>2014-04-01T09:57:29Z</time>
  </trkpt>
  <trkpt lat="32.931289" lon="-3.206021">
   <ele>1620.00</ele>
   <time>2014-04-01T09:57:31Z</time>
  </trkpt>
  <trkpt lat="32.931086" lon="-3.206331">
   <ele>1619.00</ele>
   <time>2014-04-01T09:57:34Z</time>
  </trkpt>
  <trkpt lat="32.930441" lon="-3.207253">
   <ele>1617.00</ele>
   <time>2014-04-01T09:57:43Z</time>
  </trkpt>
  <trkpt lat="32.929346" lon="-3.208934">
   <ele>1618.00</ele>
   <time>2014-04-01T09:57:59Z</time>
  </trkpt>
  <trkpt lat="32.929189" lon="-3.209145">
   <ele>1618.00</ele>
   <time>2014-04-01T09:58:01Z</time>
  </trkpt>
  <trkpt lat="32.929024" lon="-3.209349">
   <ele>1618.00</ele>
   <time>2014-04-01T09:58:03Z</time>
  </trkpt>
  <trkpt lat="32.928612" lon="-3.209834">
   <ele>1618.00</ele>
   <time>2014-04-01T09:58:08Z</time>
  </trkpt>
  <trkpt lat="32.928108" lon="-3.210512">
   <ele>1619.00</ele>
   <time>2014-04-01T09:58:14Z</time>
  </trkpt>
  <trkpt lat="32.927940" lon="-3.210742">
   <ele>1619.00</ele>
   <time>2014-04-01T09:58:16Z</time>
  </trkpt>
  <trkpt lat="32.927756" lon="-3.210963">
   <ele>1620.00</ele>
   <time>2014-04-01T09:58:18Z</time>
  </trkpt>
  <trkpt lat="32.927567" lon="-3.211171">
   <ele>1620.00</ele>
   <time>2014-04-01T09:58:20Z</time>
  </trkpt>
  <trkpt lat="32.927375" lon="-3.211379">
   <ele>1620.00</ele>
   <time>2014-04-01T09:58:22Z</time>
  </trkpt>
  <trkpt lat="32.927192" lon="-3.211606">
   <ele>1620.00</ele>
   <time>2014-04-01T09:58:24Z</time>
  </trkpt>
  <trkpt lat="32.927009" lon="-3.211846">
   <ele>1619.00</ele>
   <time>2014-04-01T09:58:26Z</time>
  </trkpt>
  <trkpt lat="32.926535" lon="-3.212441">
   <ele>1618.00</ele>
   <time>2014-04-01T09:58:31Z</time>
  </trkpt>
  <trkpt lat="32.926362" lon="-3.212693">
   <ele>1618.00</ele>
   <time>2014-04-01T09:58:33Z</time>
  </trkpt>
  <trkpt lat="32.925964" lon="-3.213293">
   <ele>1617.00</ele>
   <time>2014-04-01T09:58:38Z</time>
  </trkpt>
  <trkpt lat="32.925800" lon="-3.213487">
   <ele>1616.00</ele>
   <time>2014-04-01T09:58:40Z</time>
  </trkpt>
  <trkpt lat="32.925628" lon="-3.213660">
   <ele>1616.00</ele>
   <time>2014-04-01T09:58:42Z</time>
  </trkpt>
  <trkpt lat="32.925448" lon="-3.213813">
   <ele>1615.00</ele>
   <time>2014-04-01T09:58:44Z</time>
  </trkpt>
  <trkpt lat="32.925256" lon="-3.213936">
   <ele>1615.00</ele>
   <time>2014-04-01T09:58:46Z</time>
  </trkpt>
  <trkpt lat="32.925064" lon="-3.214053">
   <ele>1614.00</ele>
   <time>2014-04-01T09:58:48Z</time>
  </trkpt>
  <trkpt lat="32.924876" lon="-3.214167">
   <ele>1614.00</ele>
   <time>2014-04-01T09:58:50Z</time>
  </trkpt>
  <trkpt lat="32.924683" lon="-3.214268">
   <ele>1613.00</ele>
   <time>2014-04-01T09:58:52Z</time>
  </trkpt>
  <trkpt lat="32.924386" lon="-3.214422">
   <ele>1612.00</ele>
   <time>2014-04-01T09:58:55Z</time>
  </trkpt>
  <trkpt lat="32.924198" lon="-3.214543">
   <ele>1611.00</ele>
   <time>2014-04-01T09:58:57Z</time>
  </trkpt>
  <trkpt lat="32.924037" lon="-3.214705">
   <ele>1610.00</ele>
   <time>2014-04-01T09:58:59Z</time>
  </trkpt>
  <trkpt lat="32.923909" lon="-3.214915">
   <ele>1610.00</ele>
   <time>2014-04-01T09:59:01Z</time>
  </trkpt>
  <trkpt lat="32.923782" lon="-3.215129">
   <ele>1609.00</ele>
   <time>2014-04-01T09:59:03Z</time>
  </trkpt>
  <trkpt lat="32.923619" lon="-3.215312">
   <ele>1609.00</ele>
   <time>2014-04-01T09:59:05Z</time>
  </trkpt>
  <trkpt lat="32.923368" lon="-3.215571">
   <ele>1608.00</ele>
   <time>2014-04-01T09:59:08Z</time>
  </trkpt>
  <trkpt lat="32.923208" lon="-3.215750">
   <ele>1607.00</ele>
   <time>2014-04-01T09:59:10Z</time>
  </trkpt>
  <trkpt lat="32.922954" lon="-3.216017">
   <ele>1606.00</ele>
   <time>2014-04-01T09:59:13Z</time>
  </trkpt>
  <trkpt lat="32.922786" lon="-3.216203">
   <ele>1606.00</ele>
   <time>2014-04-01T09:59:15Z</time>
  </trkpt>
  <trkpt lat="32.922608" lon="-3.216379">
   <ele>1605.00</ele>
   <time>2014-04-01T09:59:17Z</time>
  </trkpt>
  <trkpt lat="32.922333" lon="-3.216646">
   <ele>1605.00</ele>
   <time>2014-04-01T09:59:20Z</time>
  </trkpt>
  <trkpt lat="32.922162" lon="-3.216845">
   <ele>1604.00</ele>
   <time>2014-04-01T09:59:22Z</time>
  </trkpt>
  <trkpt lat="32.922001" lon="-3.217060">
   <ele>1604.00</ele>
   <time>2014-04-01T09:59:24Z</time>
  </trkpt>
  <trkpt lat="32.921850" lon="-3.217298">
   <ele>1603.00</ele>
   <time>2014-04-01T09:59:26Z</time>
  </trkpt>
  <trkpt lat="32.921694" lon="-3.217547">
   <ele>1603.00</ele>
   <time>2014-04-01T09:59:28Z</time>
  </trkpt>
  <trkpt lat="32.920925" lon="-3.218627">
   <ele>1601.00</ele>
   <time>2014-04-01T09:59:37Z</time>
  </trkpt>
  <trkpt lat="32.920746" lon="-3.218842">
   <ele>1601.00</ele>
   <time>2014-04-01T09:59:39Z</time>
  </trkpt>
  <trkpt lat="32.920486" lon="-3.219120">
   <ele>1600.00</ele>
   <time>2014-04-01T09:59:42Z</time>
  </trkpt>
  <trkpt lat="32.920338" lon="-3.219316">
   <ele>1600.00</ele>
   <time>2014-04-01T09:59:44Z</time>
  </trkpt>
  <trkpt lat="32.920188" lon="-3.219514">
   <ele>1599.00</ele>
   <time>2014-04-01T09:59:46Z</time>
  </trkpt>
  <trkpt lat="32.920014" lon="-3.219694">
   <ele>1599.00</ele>
   <time>2014-04-01T09:59:48Z</time>
  </trkpt>
  <trkpt lat="32.919821" lon="-3.219858">
   <ele>1598.00</ele>
   <time>2014-04-01T09:59:50Z</time>
  </trkpt>
  <trkpt lat="32.919639" lon="-3.219994">
   <ele>1598.00</ele>
   <time>2014-04-01T09:59:52Z</time>
  </trkpt>
  <trkpt lat="32.919480" lon="-3.220119">
   <ele>1598.00</ele>
   <time>2014-04-01T09:59:54Z</time>
  </trkpt>
  <trkpt lat="32.919337" lon="-3.220262">
   <ele>1598.00</ele>
   <time>2014-04-01T09:59:56Z</time>
  </trkpt>
  <trkpt lat="32.919139" lon="-3.220485">
   <ele>1598.00</ele>
   <time>2014-04-01T09:59:59Z</time>
  </trkpt>
  <trkpt lat="32.918981" lon="-3.220709">
   <ele>1597.00</ele>
   <time>2014-04-01T10:00:02Z</time>
  </trkpt>
  <trkpt lat="32.918827" lon="-3.220884">
   <ele>1597.00</ele>
   <time>2014-04-01T10:00:05Z</time>
  </trkpt>
  <trkpt lat="32.918647" lon="-3.220929">
   <ele>1597.00</ele>
   <time>2014-04-01T10:00:08Z</time>
  </trkpt>
  <trkpt lat="32.918455" lon="-3.220844">
   <ele>1597.00</ele>
   <time>2014-04-01T10:00:12Z</time>
  </trkpt>
  <trkpt lat="32.918281" lon="-3.220774">
   <ele>1598.00</ele>
   <time>2014-04-01T10:00:16Z</time>
  </trkpt>
  <trkpt lat="32.918104" lon="-3.220813">
   <ele>1599.00</ele>
   <time>2014-04-01T10:00:19Z</time>
  </trkpt>
  <trkpt lat="32.917886" lon="-3.220918">
   <ele>1599.00</ele>
   <time>2014-04-01T10:00:22Z</time>
  </trkpt>
  <trkpt lat="32.917656" lon="-3.221025">
   <ele>1598.00</ele>
   <time>2014-04-01T10:00:25Z</time>
  </trkpt>
  <trkpt lat="32.917486" lon="-3.221109">
   <ele>1597.00</ele>
   <time>2014-04-01T10:00:27Z</time>
  </trkpt>
  <trkpt lat="32.917315" lon="-3.221223">
   <ele>1596.00</ele>
   <time>2014-04-01T10:00:29Z</time>
  </trkpt>
  <trkpt lat="32.917140" lon="-3.221344">
   <ele>1595.00</ele>
   <time>2014-04-01T10:00:31Z</time>
  </trkpt>
  <trkpt lat="32.916687" lon="-3.221637">
   <ele>1595.00</ele>
   <time>2014-04-01T10:00:36Z</time>
  </trkpt>
  <trkpt lat="32.916513" lon="-3.221753">
   <ele>1594.00</ele>
   <time>2014-04-01T10:00:38Z</time>
  </trkpt>
  <trkpt lat="32.916333" lon="-3.221835">
   <ele>1594.00</ele>
   <time>2014-04-01T10:00:40Z</time>
  </trkpt>
  <trkpt lat="32.916071" lon="-3.221926">
   <ele>1594.00</ele>
   <time>2014-04-01T10:00:43Z</time>
  </trkpt>
  <trkpt lat="32.915895" lon="-3.222076">
   <ele>1593.00</ele>
   <time>2014-04-01T10:00:46Z</time>
  </trkpt>
  <trkpt lat="32.915794" lon="-3.222258">
   <ele>1593.00</ele>
   <time>2014-04-01T10:00:50Z</time>
  </trkpt>
  <trkpt lat="32.915669" lon="-3.222424">
   <ele>1592.00</ele>
   <time>2014-04-01T10:00:53Z</time>
  </trkpt>
  <trkpt lat="32.915499" lon="-3.222585">
   <ele>1592.00</ele>
   <time>2014-04-01T10:00:56Z</time>
  </trkpt>
  <trkpt lat="32.915319" lon="-3.222751">
   <ele>1592.00</ele>
   <time>2014-04-01T10:00:59Z</time>
  </trkpt>
  <trkpt lat="32.915173" lon="-3.222980">
   <ele>1592.00</ele>
   <time>2014-04-01T10:01:02Z</time>
  </trkpt>
  <trkpt lat="32.915045" lon="-3.223260">
   <ele>1592.00</ele>
   <time>2014-04-01T10:01:05Z</time>
  </trkpt>
  <trkpt lat="32.914969" lon="-3.223469">
   <ele>1592.00</ele>
   <time>2014-04-01T10:01:07Z</time>
  </trkpt>
  <trkpt lat="32.914909" lon="-3.223705">
   <ele>1592.00</ele>
   <time>2014-04-01T10:01:09Z</time>
  </trkpt>
  <trkpt lat="32.914859" lon="-3.223960">
   <ele>1591.00</ele>
   <time>2014-04-01T10:01:11Z</time>
  </trkpt>
  <trkpt lat="32.914782" lon="-3.224331">
   <ele>1591.00</ele>
   <time>2014-04-01T10:01:14Z</time>
  </trkpt>
  <trkpt lat="32.914716" lon="-3.224567">
   <ele>1591.00</ele>
   <time>2014-04-01T10:01:16Z</time>
  </trkpt>
  <trkpt lat="32.914629" lon="-3.224795">
   <ele>1591.00</ele>
   <time>2014-04-01T10:01:18Z</time>
  </trkpt>
  <trkpt lat="32.914518" lon="-3.225010">
   <ele>1591.00</ele>
   <time>2014-04-01T10:01:20Z</time>
  </trkpt>
  <trkpt lat="32.914392" lon="-3.225216">
   <ele>1591.00</ele>
   <time>2014-04-01T10:01:22Z</time>
  </trkpt>
  <trkpt lat="32.914147" lon="-3.225565">
   <ele>1592.00</ele>
   <time>2014-04-01T10:01:26Z</time>
  </trkpt>
  <trkpt lat="32.913983" lon="-3.225806">
   <ele>1592.00</ele>
   <time>2014-04-01T10:01:29Z</time>
  </trkpt>
  <trkpt lat="32.913792" lon="-3.226028">
   <ele>1593.00</ele>
   <time>2014-04-01T10:01:32Z</time>
  </trkpt>
  <trkpt lat="32.913642" lon="-3.226156">
   <ele>1593.00</ele>
   <time>2014-04-01T10:01:34Z</time>
  </trkpt>
  <trkpt lat="32.913472" lon="-3.226254">
   <ele>1592.00</ele>
   <time>2014-04-01T10:01:36Z</time>
  </trkpt>
  <trkpt lat="32.913280" lon="-3.226322">
   <ele>1591.00</ele>
   <time>2014-04-01T10:01:38Z</time>
  </trkpt>
  <trkpt lat="32.913078" lon="-3.226403">
   <ele>1591.00</ele>
   <time>2014-04-01T10:01:40Z</time>
  </trkpt>
  <trkpt lat="32.911553" lon="-3.227071">
   <ele>1592.00</ele>
   <time>2014-04-01T10:01:56Z</time>
  </trkpt>
  <trkpt lat="32.910501" lon="-3.227561">
   <ele>1590.00</ele>
   <time>2014-04-01T10:02:07Z</time>
  </trkpt>
  <trkpt lat="32.910324" lon="-3.227658">
   <ele>1589.00</ele>
   <time>2014-04-01T10:02:09Z</time>
  </trkpt>
  <trkpt lat="32.910063" lon="-3.227805">
   <ele>1589.00</ele>
   <time>2014-04-01T10:02:12Z</time>
  </trkpt>
  <trkpt lat="32.909793" lon="-3.227935">
   <ele>1589.00</ele>
   <time>2014-04-01T10:02:15Z</time>
  </trkpt>
  <trkpt lat="32.909608" lon="-3.228006">
   <ele>1589.00</ele>
   <time>2014-04-01T10:02:17Z</time>
  </trkpt>
  <trkpt lat="32.909415" lon="-3.228059">
   <ele>1589.00</ele>
   <time>2014-04-01T10:02:19Z</time>
  </trkpt>
  <trkpt lat="32.909221" lon="-3.228117">
   <ele>1590.00</ele>
   <time>2014-04-01T10:02:21Z</time>
  </trkpt>
  <trkpt lat="32.908772" lon="-3.228284">
   <ele>1591.00</ele>
   <time>2014-04-01T10:02:27Z</time>
  </trkpt>
  <trkpt lat="32.907659" lon="-3.228738">
   <ele>1592.00</ele>
   <time>2014-04-01T10:02:42Z</time>
  </trkpt>
  <trkpt lat="32.907170" lon="-3.228936">
   <ele>1591.00</ele>
   <time>2014-04-01T10:02:48Z</time>
  </trkpt>
  <trkpt lat="32.906950" lon="-3.229094">
   <ele>1591.00</ele>
   <time>2014-04-01T10:02:51Z</time>
  </trkpt>
  <trkpt lat="32.906721" lon="-3.229273">
   <ele>1590.00</ele>
   <time>2014-04-01T10:02:54Z</time>
  </trkpt>
  <trkpt lat="32.906542" lon="-3.229370">
   <ele>1590.00</ele>
   <time>2014-04-01T10:02:56Z</time>
  </trkpt>
  <trkpt lat="32.905882" lon="-3.229661">
   <ele>1592.00</ele>
   <time>2014-04-01T10:03:03Z</time>
  </trkpt>
  <trkpt lat="32.905680" lon="-3.229711">
   <ele>1592.00</ele>
   <time>2014-04-01T10:03:05Z</time>
  </trkpt>
  <trkpt lat="32.905158" lon="-3.229823">
   <ele>1592.00</ele>
   <time>2014-04-01T10:03:10Z</time>
  </trkpt>
  <trkpt lat="32.903831" lon="-3.230072">
   <ele>1593.00</ele>
   <time>2014-04-01T10:03:22Z</time>
  </trkpt>
  <trkpt lat="32.903479" lon="-3.230159">
   <ele>1592.00</ele>
   <time>2014-04-01T10:03:25Z</time>
  </trkpt>
  <trkpt lat="32.903252" lon="-3.230229">
   <ele>1592.00</ele>
   <time>2014-04-01T10:03:27Z</time>
  </trkpt>
  <trkpt lat="32.902651" lon="-3.230448">
   <ele>1592.00</ele>
   <time>2014-04-01T10:03:33Z</time>
  </trkpt>
  <trkpt lat="32.902485" lon="-3.230549">
   <ele>1592.00</ele>
   <time>2014-04-01T10:03:35Z</time>
  </trkpt>
  <trkpt lat="32.902330" lon="-3.230681">
   <ele>1592.00</ele>
   <time>2014-04-01T10:03:37Z</time>
  </trkpt>
  <trkpt lat="32.902050" lon="-3.230932">
   <ele>1591.00</ele>
   <time>2014-04-01T10:03:41Z</time>
  </trkpt>
  <trkpt lat="32.901871" lon="-3.231034">
   <ele>1591.00</ele>
   <time>2014-04-01T10:03:44Z</time>
  </trkpt>
  <trkpt lat="32.901651" lon="-3.231073">
   <ele>1591.00</ele>
   <time>2014-04-01T10:03:49Z</time>
  </trkpt>
  <trkpt lat="32.901416" lon="-3.231058">
   <ele>1591.00</ele>
   <time>2014-04-01T10:03:53Z</time>
  </trkpt>
  <trkpt lat="32.901215" lon="-3.231048">
   <ele>1592.00</ele>
   <time>2014-04-01T10:03:56Z</time>
  </trkpt>
  <trkpt lat="32.900992" lon="-3.231098">
   <ele>1592.00</ele>
   <time>2014-04-01T10:03:59Z</time>
  </trkpt>
  <trkpt lat="32.900553" lon="-3.231242">
   <ele>1595.00</ele>
   <time>2014-04-01T10:04:04Z</time>
  </trkpt>
  <trkpt lat="32.900287" lon="-3.231260">
   <ele>1596.00</ele>
   <time>2014-04-01T10:04:07Z</time>
  </trkpt>
  <trkpt lat="32.898707" lon="-3.231152">
   <ele>1598.00</ele>
   <time>2014-04-01T10:04:22Z</time>
  </trkpt>
  <trkpt lat="32.898513" lon="-3.231117">
   <ele>1598.00</ele>
   <time>2014-04-01T10:04:24Z</time>
  </trkpt>
  <trkpt lat="32.898335" lon="-3.231077">
   <ele>1599.00</ele>
   <time>2014-04-01T10:04:26Z</time>
  </trkpt>
  <trkpt lat="32.898155" lon="-3.231067">
   <ele>1599.00</ele>
   <time>2014-04-01T10:04:28Z</time>
  </trkpt>
  <trkpt lat="32.897884" lon="-3.231057">
   <ele>1600.00</ele>
   <time>2014-04-01T10:04:31Z</time>
  </trkpt>
  <trkpt lat="32.897704" lon="-3.231027">
   <ele>1601.00</ele>
   <time>2014-04-01T10:04:33Z</time>
  </trkpt>
  <trkpt lat="32.897030" lon="-3.230884">
   <ele>1603.00</ele>
   <time>2014-04-01T10:04:40Z</time>
  </trkpt>
  <trkpt lat="32.896396" lon="-3.230721">
   <ele>1606.00</ele>
   <time>2014-04-01T10:04:47Z</time>
  </trkpt>
  <trkpt lat="32.896201" lon="-3.230693">
   <ele>1607.00</ele>
   <time>2014-04-01T10:04:49Z</time>
  </trkpt>
  <trkpt lat="32.895932" lon="-3.230668">
   <ele>1610.00</ele>
   <time>2014-04-01T10:04:52Z</time>
  </trkpt>
  <trkpt lat="32.895691" lon="-3.230654">
   <ele>1612.00</ele>
   <time>2014-04-01T10:04:55Z</time>
  </trkpt>
  <trkpt lat="32.895472" lon="-3.230542">
   <ele>1614.00</ele>
   <time>2014-04-01T10:04:58Z</time>
  </trkpt>
  <trkpt lat="32.895288" lon="-3.230312">
   <ele>1616.00</ele>
   <time>2014-04-01T10:05:01Z</time>
  </trkpt>
  <trkpt lat="32.895185" lon="-3.230127">
   <ele>1617.00</ele>
   <time>2014-04-01T10:05:03Z</time>
  </trkpt>
  <trkpt lat="32.895077" lon="-3.229947">
   <ele>1618.00</ele>
   <time>2014-04-01T10:05:05Z</time>
  </trkpt>
  <trkpt lat="32.894898" lon="-3.229736">
   <ele>1618.00</ele>
   <time>2014-04-01T10:05:08Z</time>
  </trkpt>
  <trkpt lat="32.894673" lon="-3.229578">
   <ele>1617.00</ele>
   <time>2014-04-01T10:05:11Z</time>
  </trkpt>
  <trkpt lat="32.894503" lon="-3.229494">
   <ele>1617.00</ele>
   <time>2014-04-01T10:05:13Z</time>
  </trkpt>
  <trkpt lat="32.894334" lon="-3.229402">
   <ele>1616.00</ele>
   <time>2014-04-01T10:05:15Z</time>
  </trkpt>
  <trkpt lat="32.894129" lon="-3.229261">
   <ele>1615.00</ele>
   <time>2014-04-01T10:05:18Z</time>
  </trkpt>
  <trkpt lat="32.893891" lon="-3.229085">
   <ele>1615.00</ele>
   <time>2014-04-01T10:05:22Z</time>
  </trkpt>
  <trkpt lat="32.893693" lon="-3.228951">
   <ele>1615.00</ele>
   <time>2014-04-01T10:05:25Z</time>
  </trkpt>
  <trkpt lat="32.893500" lon="-3.228782">
   <ele>1614.00</ele>
   <time>2014-04-01T10:05:28Z</time>
  </trkpt>
  <trkpt lat="32.893286" lon="-3.228656">
   <ele>1613.00</ele>
   <time>2014-04-01T10:05:31Z</time>
  </trkpt>
  <trkpt lat="32.893037" lon="-3.228616">
   <ele>1612.00</ele>
   <time>2014-04-01T10:05:34Z</time>
  </trkpt>
  <trkpt lat="32.892778" lon="-3.228655">
   <ele>1611.00</ele>
   <time>2014-04-01T10:05:37Z</time>
  </trkpt>
  <trkpt lat="32.892516" lon="-3.228702">
   <ele>1610.00</ele>
   <time>2014-04-01T10:05:40Z</time>
  </trkpt>
  <trkpt lat="32.892162" lon="-3.228725">
   <ele>1608.00</ele>
   <time>2014-04-01T10:05:44Z</time>
  </trkpt>
  <trkpt lat="32.891892" lon="-3.228727">
   <ele>1607.00</ele>
   <time>2014-04-01T10:05:47Z</time>
  </trkpt>
  <trkpt lat="32.891711" lon="-3.228700">
   <ele>1607.00</ele>
   <time>2014-04-01T10:05:49Z</time>
  </trkpt>
  <trkpt lat="32.891527" lon="-3.228676">
   <ele>1606.00</ele>
   <time>2014-04-01T10:05:51Z</time>
  </trkpt>
  <trkpt lat="32.891338" lon="-3.228675">
   <ele>1605.00</ele>
   <time>2014-04-01T10:05:53Z</time>
  </trkpt>
  <trkpt lat="32.891150" lon="-3.228700">
   <ele>1605.00</ele>
   <time>2014-04-01T10:05:55Z</time>
  </trkpt>
  <trkpt lat="32.890884" lon="-3.228760">
   <ele>1605.00</ele>
   <time>2014-04-01T10:05:58Z</time>
  </trkpt>
  <trkpt lat="32.890702" lon="-3.228796">
   <ele>1604.00</ele>
   <time>2014-04-01T10:06:00Z</time>
  </trkpt>
  <trkpt lat="32.890501" lon="-3.228797">
   <ele>1603.00</ele>
   <time>2014-04-01T10:06:02Z</time>
  </trkpt>
  <trkpt lat="32.890291" lon="-3.228773">
   <ele>1603.00</ele>
   <time>2014-04-01T10:06:04Z</time>
  </trkpt>
  <trkpt lat="32.889463" lon="-3.228652">
   <ele>1601.00</ele>
   <time>2014-04-01T10:06:12Z</time>
  </trkpt>
  <trkpt lat="32.889272" lon="-3.228621">
   <ele>1601.00</ele>
   <time>2014-04-01T10:06:14Z</time>
  </trkpt>
  <trkpt lat="32.889084" lon="-3.228633">
   <ele>1600.00</ele>
   <time>2014-04-01T10:06:16Z</time>
  </trkpt>
  <trkpt lat="32.888895" lon="-3.228664">
   <ele>1598.00</ele>
   <time>2014-04-01T10:06:18Z</time>
  </trkpt>
  <trkpt lat="32.888701" lon="-3.228663">
   <ele>1598.00</ele>
   <time>2014-04-01T10:06:20Z</time>
  </trkpt>
  <trkpt lat="32.888063" lon="-3.228642">
   <ele>1598.00</ele>
   <time>2014-04-01T10:06:26Z</time>
  </trkpt>
  <trkpt lat="32.887409" lon="-3.228629">
   <ele>1598.00</ele>
   <time>2014-04-01T10:06:32Z</time>
  </trkpt>
  <trkpt lat="32.886579" lon="-3.228697">
   <ele>1600.00</ele>
   <time>2014-04-01T10:06:40Z</time>
  </trkpt>
  <trkpt lat="32.886376" lon="-3.228688">
   <ele>1600.00</ele>
   <time>2014-04-01T10:06:42Z</time>
  </trkpt>
  <trkpt lat="32.886170" lon="-3.228647">
   <ele>1601.00</ele>
   <time>2014-04-01T10:06:44Z</time>
  </trkpt>
  <trkpt lat="32.885854" lon="-3.228569">
   <ele>1602.00</ele>
   <time>2014-04-01T10:06:47Z</time>
  </trkpt>
  <trkpt lat="32.885638" lon="-3.228540">
   <ele>1603.00</ele>
   <time>2014-04-01T10:06:49Z</time>
  </trkpt>
  <trkpt lat="32.885314" lon="-3.228515">
   <ele>1605.00</ele>
   <time>2014-04-01T10:06:52Z</time>
  </trkpt>
  <trkpt lat="32.885109" lon="-3.228498">
   <ele>1606.00</ele>
   <time>2014-04-01T10:06:54Z</time>
  </trkpt>
  <trkpt lat="32.884736" lon="-3.228443">
   <ele>1607.00</ele>
   <time>2014-04-01T10:06:58Z</time>
  </trkpt>
  <trkpt lat="32.884550" lon="-3.228398">
   <ele>1608.00</ele>
   <time>2014-04-01T10:07:00Z</time>
  </trkpt>
  <trkpt lat="32.884177" lon="-3.228288">
   <ele>1612.00</ele>
   <time>2014-04-01T10:07:04Z</time>
  </trkpt>
  <trkpt lat="32.883836" lon="-3.228186">
   <ele>1614.00</ele>
   <time>2014-04-01T10:07:08Z</time>
  </trkpt>
  <trkpt lat="32.883626" lon="-3.228131">
   <ele>1614.00</ele>
   <time>2014-04-01T10:07:11Z</time>
  </trkpt>
  <trkpt lat="32.883413" lon="-3.228064">
   <ele>1613.00</ele>
   <time>2014-04-01T10:07:14Z</time>
  </trkpt>
  <trkpt lat="32.883187" lon="-3.227981">
   <ele>1612.00</ele>
   <time>2014-04-01T10:07:17Z</time>
  </trkpt>
  <trkpt lat="32.882951" lon="-3.227946">
   <ele>1613.00</ele>
   <time>2014-04-01T10:07:20Z</time>
  </trkpt>
  <trkpt lat="32.882769" lon="-3.227900">
   <ele>1612.00</ele>
   <time>2014-04-01T10:07:24Z</time>
  </trkpt>
  <trkpt lat="32.882780" lon="-3.227900">
   <ele>1612.00</ele>
   <time>2014-04-01T10:07:40Z</time>
  </trkpt>
  <trkpt lat="32.882789" lon="-3.227902">
   <ele>1611.00</ele>
   <time>2014-04-01T10:07:55Z</time>
  </trkpt>
  <trkpt lat="32.882795" lon="-3.227902">
   <ele>1610.00</ele>
   <time>2014-04-01T10:08:11Z</time>
  </trkpt>
  <trkpt lat="32.882800" lon="-3.227902">
   <ele>1610.00</ele>
   <time>2014-04-01T10:08:26Z</time>
  </trkpt>
  <trkpt lat="32.882804" lon="-3.227902">
   <ele>1609.00</ele>
   <time>2014-04-01T10:08:41Z</time>
  </trkpt>
  <trkpt lat="32.882633" lon="-3.227816">
   <ele>1609.00</ele>
   <time>2014-04-01T10:08:54Z</time>
  </trkpt>
  <trkpt lat="32.882451" lon="-3.227758">
   <ele>1609.00</ele>
   <time>2014-04-01T10:08:58Z</time>
  </trkpt>
  <trkpt lat="32.882271" lon="-3.227725">
   <ele>1609.00</ele>
   <time>2014-04-01T10:09:01Z</time>
  </trkpt>
  <trkpt lat="32.882081" lon="-3.227656">
   <ele>1609.00</ele>
   <time>2014-04-01T10:09:04Z</time>
  </trkpt>
  <trkpt lat="32.881886" lon="-3.227576">
   <ele>1609.00</ele>
   <time>2014-04-01T10:09:07Z</time>
  </trkpt>
  <trkpt lat="32.881670" lon="-3.227509">
   <ele>1609.00</ele>
   <time>2014-04-01T10:09:10Z</time>
  </trkpt>
  <trkpt lat="32.881435" lon="-3.227437">
   <ele>1608.00</ele>
   <time>2014-04-01T10:09:13Z</time>
  </trkpt>
  <trkpt lat="32.881105" lon="-3.227332">
   <ele>1607.00</ele>
   <time>2014-04-01T10:09:17Z</time>
  </trkpt>
  <trkpt lat="32.880781" lon="-3.227246">
   <ele>1607.00</ele>
   <time>2014-04-01T10:09:21Z</time>
  </trkpt>
  <trkpt lat="32.880544" lon="-3.227172">
   <ele>1607.00</ele>
   <time>2014-04-01T10:09:24Z</time>
  </trkpt>
  <trkpt lat="32.880340" lon="-3.227136">
   <ele>1607.00</ele>
   <time>2014-04-01T10:09:27Z</time>
  </trkpt>
  <trkpt lat="32.879967" lon="-3.227087">
   <ele>1606.00</ele>
   <time>2014-04-01T10:09:34Z</time>
  </trkpt>
  <trkpt lat="32.879754" lon="-3.227032">
   <ele>1605.00</ele>
   <time>2014-04-01T10:09:37Z</time>
  </trkpt>
  <trkpt lat="32.879153" lon="-3.226846">
   <ele>1605.00</ele>
   <time>2014-04-01T10:09:45Z</time>
  </trkpt>
  <trkpt lat="32.878919" lon="-3.226815">
   <ele>1604.00</ele>
   <time>2014-04-01T10:09:48Z</time>
  </trkpt>
  <trkpt lat="32.878689" lon="-3.226813">
   <ele>1604.00</ele>
   <time>2014-04-01T10:09:51Z</time>
  </trkpt>
  <trkpt lat="32.878469" lon="-3.226860">
   <ele>1604.00</ele>
   <time>2014-04-01T10:09:54Z</time>
  </trkpt>
  <trkpt lat="32.878229" lon="-3.226885">
   <ele>1605.00</ele>
   <time>2014-04-01T10:09:57Z</time>
  </trkpt>
  <trkpt lat="32.877962" lon="-3.226871">
   <ele>1606.00</ele>
   <time>2014-04-01T10:10:00Z</time>
  </trkpt>
  <trkpt lat="32.877765" lon="-3.226834">
   <ele>1606.00</ele>
   <time>2014-04-01T10:10:02Z</time>
  </trkpt>
  <trkpt lat="32.877555" lon="-3.226778">
   <ele>1607.00</ele>
   <time>2014-04-01T10:10:04Z</time>
  </trkpt>
  <trkpt lat="32.876569" lon="-3.226489">
   <ele>1608.00</ele>
   <time>2014-04-01T10:10:13Z</time>
  </trkpt>
  <trkpt lat="32.875883" lon="-3.226280">
   <ele>1608.00</ele>
   <time>2014-04-01T10:10:19Z</time>
  </trkpt>
  <trkpt lat="32.875663" lon="-3.226236">
   <ele>1608.00</ele>
   <time>2014-04-01T10:10:21Z</time>
  </trkpt>
  <trkpt lat="32.875472" lon="-3.226218">
   <ele>1608.00</ele>
   <time>2014-04-01T10:10:23Z</time>
  </trkpt>
  <trkpt lat="32.875217" lon="-3.226203">
   <ele>1608.00</ele>
   <time>2014-04-01T10:10:26Z</time>
  </trkpt>
  <trkpt lat="32.874849" lon="-3.226176">
   <ele>1609.00</ele>
   <time>2014-04-01T10:10:30Z</time>
  </trkpt>
  <trkpt lat="32.874647" lon="-3.226186">
   <ele>1609.00</ele>
   <time>2014-04-01T10:10:32Z</time>
  </trkpt>
  <trkpt lat="32.874439" lon="-3.226221">
   <ele>1609.00</ele>
   <time>2014-04-01T10:10:34Z</time>
  </trkpt>
  <trkpt lat="32.873595" lon="-3.226383">
   <ele>1610.00</ele>
   <time>2014-04-01T10:10:42Z</time>
  </trkpt>
  <trkpt lat="32.873196" lon="-3.226424">
   <ele>1610.00</ele>
   <time>2014-04-01T10:10:46Z</time>
  </trkpt>
  <trkpt lat="32.873003" lon="-3.226479">
   <ele>1610.00</ele>
   <time>2014-04-01T10:10:48Z</time>
  </trkpt>
  <trkpt lat="32.872400" lon="-3.226694">
   <ele>1609.00</ele>
   <time>2014-04-01T10:10:54Z</time>
  </trkpt>
  <trkpt lat="32.872209" lon="-3.226741">
   <ele>1609.00</ele>
   <time>2014-04-01T10:10:56Z</time>
  </trkpt>
  <trkpt lat="32.871953" lon="-3.226802">
   <ele>1608.00</ele>
   <time>2014-04-01T10:10:59Z</time>
  </trkpt>
  <trkpt lat="32.871391" lon="-3.226957">
   <ele>1608.00</ele>
   <time>2014-04-01T10:11:05Z</time>
  </trkpt>
  <trkpt lat="32.871115" lon="-3.227025">
   <ele>1608.00</ele>
   <time>2014-04-01T10:11:08Z</time>
  </trkpt>
  <trkpt lat="32.870941" lon="-3.227086">
   <ele>1608.00</ele>
   <time>2014-04-01T10:11:10Z</time>
  </trkpt>
  <trkpt lat="32.870699" lon="-3.227217">
   <ele>1608.00</ele>
   <time>2014-04-01T10:11:13Z</time>
  </trkpt>
  <trkpt lat="32.870484" lon="-3.227379">
   <ele>1608.00</ele>
   <time>2014-04-01T10:11:16Z</time>
  </trkpt>
  <trkpt lat="32.870284" lon="-3.227513">
   <ele>1607.00</ele>
   <time>2014-04-01T10:11:19Z</time>
  </trkpt>
  <trkpt lat="32.870088" lon="-3.227642">
   <ele>1606.00</ele>
   <time>2014-04-01T10:11:22Z</time>
  </trkpt>
  <trkpt lat="32.869866" lon="-3.227691">
   <ele>1605.00</ele>
   <time>2014-04-01T10:11:25Z</time>
  </trkpt>
  <trkpt lat="32.869657" lon="-3.227717">
   <ele>1604.00</ele>
   <time>2014-04-01T10:11:28Z</time>
  </trkpt>
  <trkpt lat="32.869458" lon="-3.227618">
   <ele>1604.00</ele>
   <time>2014-04-01T10:11:31Z</time>
  </trkpt>
  <trkpt lat="32.869240" lon="-3.227476">
   <ele>1603.00</ele>
   <time>2014-04-01T10:11:34Z</time>
  </trkpt>
  <trkpt lat="32.868933" lon="-3.227295">
   <ele>1602.00</ele>
   <time>2014-04-01T10:11:38Z</time>
  </trkpt>
  <trkpt lat="32.868685" lon="-3.227188">
   <ele>1601.00</ele>
   <time>2014-04-01T10:11:41Z</time>
  </trkpt>
  <trkpt lat="32.868424" lon="-3.227096">
   <ele>1601.00</ele>
   <time>2014-04-01T10:11:44Z</time>
  </trkpt>
  <trkpt lat="32.868246" lon="-3.227046">
   <ele>1600.00</ele>
   <time>2014-04-01T10:11:46Z</time>
  </trkpt>
  <trkpt lat="32.868063" lon="-3.227010">
   <ele>1600.00</ele>
   <time>2014-04-01T10:11:48Z</time>
  </trkpt>
  <trkpt lat="32.867876" lon="-3.226981">
   <ele>1600.00</ele>
   <time>2014-04-01T10:11:50Z</time>
  </trkpt>
  <trkpt lat="32.867687" lon="-3.226962">
   <ele>1599.00</ele>
   <time>2014-04-01T10:11:52Z</time>
  </trkpt>
  <trkpt lat="32.867225" lon="-3.226931">
   <ele>1598.00</ele>
   <time>2014-04-01T10:11:57Z</time>
  </trkpt>
  <trkpt lat="32.866966" lon="-3.226976">
   <ele>1597.00</ele>
   <time>2014-04-01T10:12:00Z</time>
  </trkpt>
  <trkpt lat="32.866788" lon="-3.227168">
   <ele>1596.00</ele>
   <time>2014-04-01T10:12:03Z</time>
  </trkpt>
  <trkpt lat="32.866603" lon="-3.227340">
   <ele>1595.00</ele>
   <time>2014-04-01T10:12:06Z</time>
  </trkpt>
  <trkpt lat="32.866378" lon="-3.227475">
   <ele>1595.00</ele>
   <time>2014-04-01T10:12:09Z</time>
  </trkpt>
  <trkpt lat="32.866156" lon="-3.227654">
   <ele>1594.00</ele>
   <time>2014-04-01T10:12:12Z</time>
  </trkpt>
  <trkpt lat="32.866003" lon="-3.227772">
   <ele>1594.00</ele>
   <time>2014-04-01T10:12:14Z</time>
  </trkpt>
  <trkpt lat="32.865331" lon="-3.228232">
   <ele>1591.00</ele>
   <time>2014-04-01T10:12:22Z</time>
  </trkpt>
  <trkpt lat="32.865150" lon="-3.228358">
   <ele>1590.00</ele>
   <time>2014-04-01T10:12:24Z</time>
  </trkpt>
  <trkpt lat="32.864995" lon="-3.228495">
   <ele>1590.00</ele>
   <time>2014-04-01T10:12:26Z</time>
  </trkpt>
  <trkpt lat="32.864836" lon="-3.228624">
   <ele>1589.00</ele>
   <time>2014-04-01T10:12:29Z</time>
  </trkpt>
  <trkpt lat="32.864633" lon="-3.228746">
   <ele>1590.00</ele>
   <time>2014-04-01T10:12:33Z</time>
  </trkpt>
  <trkpt lat="32.864480" lon="-3.228893">
   <ele>1589.00</ele>
   <time>2014-04-01T10:12:36Z</time>
  </trkpt>
  <trkpt lat="32.864342" lon="-3.229076">
   <ele>1589.00</ele>
   <time>2014-04-01T10:12:40Z</time>
  </trkpt>
  <trkpt lat="32.864207" lon="-3.229228">
   <ele>1589.00</ele>
   <time>2014-04-01T10:12:43Z</time>
  </trkpt>
  <trkpt lat="32.864010" lon="-3.229353">
   <ele>1589.00</ele>
   <time>2014-04-01T10:12:46Z</time>
  </trkpt>
  <trkpt lat="32.863804" lon="-3.229494">
   <ele>1588.00</ele>
   <time>2014-04-01T10:12:49Z</time>
  </trkpt>
  <trkpt lat="32.863653" lon="-3.229678">
   <ele>1588.00</ele>
   <time>2014-04-01T10:12:52Z</time>
  </trkpt>
  <trkpt lat="32.863473" lon="-3.229808">
   <ele>1588.00</ele>
   <time>2014-04-01T10:12:55Z</time>
  </trkpt>
  <trkpt lat="32.863239" lon="-3.229842">
   <ele>1586.00</ele>
   <time>2014-04-01T10:12:58Z</time>
  </trkpt>
  <trkpt lat="32.862979" lon="-3.229851">
   <ele>1586.00</ele>
   <time>2014-04-01T10:13:01Z</time>
  </trkpt>
  <trkpt lat="32.862718" lon="-3.229889">
   <ele>1587.00</ele>
   <time>2014-04-01T10:13:04Z</time>
  </trkpt>
  <trkpt lat="32.862199" lon="-3.229953">
   <ele>1587.00</ele>
   <time>2014-04-01T10:13:10Z</time>
  </trkpt>
  <trkpt lat="32.862017" lon="-3.229975">
   <ele>1586.00</ele>
   <time>2014-04-01T10:13:12Z</time>
  </trkpt>
  <trkpt lat="32.861836" lon="-3.229968">
   <ele>1586.00</ele>
   <time>2014-04-01T10:13:14Z</time>
  </trkpt>
  <trkpt lat="32.861585" lon="-3.229946">
   <ele>1585.00</ele>
   <time>2014-04-01T10:13:17Z</time>
  </trkpt>
  <trkpt lat="32.861368" lon="-3.229934">
   <ele>1585.00</ele>
   <time>2014-04-01T10:13:20Z</time>
  </trkpt>
  <trkpt lat="32.861138" lon="-3.229915">
   <ele>1584.00</ele>
   <time>2014-04-01T10:13:23Z</time>
  </trkpt>
  <trkpt lat="32.860880" lon="-3.229870">
   <ele>1584.00</ele>
   <time>2014-04-01T10:13:26Z</time>
  </trkpt>
  <trkpt lat="32.860614" lon="-3.229822">
   <ele>1584.00</ele>
   <time>2014-04-01T10:13:29Z</time>
  </trkpt>
  <trkpt lat="32.859861" lon="-3.229727">
   <ele>1585.00</ele>
   <time>2014-04-01T10:13:37Z</time>
  </trkpt>
  <trkpt lat="32.859602" lon="-3.229664">
   <ele>1585.00</ele>
   <time>2014-04-01T10:13:40Z</time>
  </trkpt>
  <trkpt lat="32.859362" lon="-3.229653">
   <ele>1584.00</ele>
   <time>2014-04-01T10:13:43Z</time>
  </trkpt>
  <trkpt lat="32.859178" lon="-3.229689">
   <ele>1583.00</ele>
   <time>2014-04-01T10:13:46Z</time>
  </trkpt>
  <trkpt lat="32.858996" lon="-3.229705">
   <ele>1583.00</ele>
   <time>2014-04-01T10:13:53Z</time>
  </trkpt>
  <trkpt lat="32.858893" lon="-3.229687">
   <ele>1583.00</ele>
   <time>2014-04-01T10:14:08Z</time>
  </trkpt>
  <trkpt lat="32.858673" lon="-3.229663">
   <ele>1582.00</ele>
   <time>2014-04-01T10:14:13Z</time>
  </trkpt>
  <trkpt lat="32.858453" lon="-3.229703">
   <ele>1582.00</ele>
   <time>2014-04-01T10:14:16Z</time>
  </trkpt>
  <trkpt lat="32.858218" lon="-3.229774">
   <ele>1581.00</ele>
   <time>2014-04-01T10:14:19Z</time>
  </trkpt>
  <trkpt lat="32.857985" lon="-3.229873">
   <ele>1580.00</ele>
   <time>2014-04-01T10:14:22Z</time>
  </trkpt>
  <trkpt lat="32.857809" lon="-3.229937">
   <ele>1580.00</ele>
   <time>2014-04-01T10:14:24Z</time>
  </trkpt>
  <trkpt lat="32.857529" lon="-3.230021">
   <ele>1580.00</ele>
   <time>2014-04-01T10:14:27Z</time>
  </trkpt>
  <trkpt lat="32.857337" lon="-3.230020">
   <ele>1580.00</ele>
   <time>2014-04-01T10:14:29Z</time>
  </trkpt>
  <trkpt lat="32.857146" lon="-3.229947">
   <ele>1580.00</ele>
   <time>2014-04-01T10:14:31Z</time>
  </trkpt>
  <trkpt lat="32.856969" lon="-3.229834">
   <ele>1579.00</ele>
   <time>2014-04-01T10:14:33Z</time>
  </trkpt>
  <trkpt lat="32.856812" lon="-3.229713">
   <ele>1579.00</ele>
   <time>2014-04-01T10:14:35Z</time>
  </trkpt>
  <trkpt lat="32.856676" lon="-3.229570">
   <ele>1579.00</ele>
   <time>2014-04-01T10:14:37Z</time>
  </trkpt>
  <trkpt lat="32.856543" lon="-3.229419">
   <ele>1579.00</ele>
   <time>2014-04-01T10:14:39Z</time>
  </trkpt>
  <trkpt lat="32.856387" lon="-3.229301">
   <ele>1578.00</ele>
   <time>2014-04-01T10:14:41Z</time>
  </trkpt>
  <trkpt lat="32.856214" lon="-3.229208">
   <ele>1578.00</ele>
   <time>2014-04-01T10:14:43Z</time>
  </trkpt>
  <trkpt lat="32.855850" lon="-3.229016">
   <ele>1578.00</ele>
   <time>2014-04-01T10:14:47Z</time>
  </trkpt>
  <trkpt lat="32.855565" lon="-3.228846">
   <ele>1577.00</ele>
   <time>2014-04-01T10:14:50Z</time>
  </trkpt>
  <trkpt lat="32.855374" lon="-3.228713">
   <ele>1577.00</ele>
   <time>2014-04-01T10:14:52Z</time>
  </trkpt>
  <trkpt lat="32.855088" lon="-3.228504">
   <ele>1576.00</ele>
   <time>2014-04-01T10:14:55Z</time>
  </trkpt>
  <trkpt lat="32.854891" lon="-3.228375">
   <ele>1576.00</ele>
   <time>2014-04-01T10:14:57Z</time>
  </trkpt>
  <trkpt lat="32.854596" lon="-3.228204">
   <ele>1575.00</ele>
   <time>2014-04-01T10:15:00Z</time>
  </trkpt>
  <trkpt lat="32.854301" lon="-3.228038">
   <ele>1576.00</ele>
   <time>2014-04-01T10:15:03Z</time>
  </trkpt>
  <trkpt lat="32.854118" lon="-3.227911">
   <ele>1576.00</ele>
   <time>2014-04-01T10:15:05Z</time>
  </trkpt>
  <trkpt lat="32.853853" lon="-3.227738">
   <ele>1576.00</ele>
   <time>2014-04-01T10:15:08Z</time>
  </trkpt>
  <trkpt lat="32.853576" lon="-3.227599">
   <ele>1575.00</ele>
   <time>2014-04-01T10:15:11Z</time>
  </trkpt>
  <trkpt lat="32.852882" lon="-3.227297">
   <ele>1574.00</ele>
   <time>2014-04-01T10:15:18Z</time>
  </trkpt>
  <trkpt lat="32.852701" lon="-3.227241">
   <ele>1574.00</ele>
   <time>2014-04-01T10:15:20Z</time>
  </trkpt>
  <trkpt lat="32.852435" lon="-3.227220">
   <ele>1574.00</ele>
   <time>2014-04-01T10:15:23Z</time>
  </trkpt>
  <trkpt lat="32.852237" lon="-3.227230">
   <ele>1574.00</ele>
   <time>2014-04-01T10:15:25Z</time>
  </trkpt>
  <trkpt lat="32.852033" lon="-3.227257">
   <ele>1573.00</ele>
   <time>2014-04-01T10:15:27Z</time>
  </trkpt>
  <trkpt lat="32.851844" lon="-3.227314">
   <ele>1573.00</ele>
   <time>2014-04-01T10:15:29Z</time>
  </trkpt>
  <trkpt lat="32.851568" lon="-3.227427">
   <ele>1572.00</ele>
   <time>2014-04-01T10:15:32Z</time>
  </trkpt>
  <trkpt lat="32.850886" lon="-3.227747">
   <ele>1570.00</ele>
   <time>2014-04-01T10:15:39Z</time>
  </trkpt>
  <trkpt lat="32.850383" lon="-3.227999">
   <ele>1569.00</ele>
   <time>2014-04-01T10:15:44Z</time>
  </trkpt>
  <trkpt lat="32.849795" lon="-3.228337">
   <ele>1568.00</ele>
   <time>2014-04-01T10:15:50Z</time>
  </trkpt>
  <trkpt lat="32.849598" lon="-3.228482">
   <ele>1567.00</ele>
   <time>2014-04-01T10:15:52Z</time>
  </trkpt>
  <trkpt lat="32.849399" lon="-3.228660">
   <ele>1567.00</ele>
   <time>2014-04-01T10:15:54Z</time>
  </trkpt>
  <trkpt lat="32.849198" lon="-3.228861">
   <ele>1567.00</ele>
   <time>2014-04-01T10:15:56Z</time>
  </trkpt>
  <trkpt lat="32.848721" lon="-3.229382">
   <ele>1567.00</ele>
   <time>2014-04-01T10:16:01Z</time>
  </trkpt>
  <trkpt lat="32.848556" lon="-3.229596">
   <ele>1567.00</ele>
   <time>2014-04-01T10:16:03Z</time>
  </trkpt>
  <trkpt lat="32.848380" lon="-3.229796">
   <ele>1566.00</ele>
   <time>2014-04-01T10:16:05Z</time>
  </trkpt>
  <trkpt lat="32.848197" lon="-3.229999">
   <ele>1566.00</ele>
   <time>2014-04-01T10:16:07Z</time>
  </trkpt>
  <trkpt lat="32.847926" lon="-3.230324">
   <ele>1565.00</ele>
   <time>2014-04-01T10:16:10Z</time>
  </trkpt>
  <trkpt lat="32.847670" lon="-3.230657">
   <ele>1564.00</ele>
   <time>2014-04-01T10:16:13Z</time>
  </trkpt>
  <trkpt lat="32.847518" lon="-3.230886">
   <ele>1564.00</ele>
   <time>2014-04-01T10:16:15Z</time>
  </trkpt>
  <trkpt lat="32.847356" lon="-3.231101">
   <ele>1564.00</ele>
   <time>2014-04-01T10:16:17Z</time>
  </trkpt>
  <trkpt lat="32.847168" lon="-3.231291">
   <ele>1563.00</ele>
   <time>2014-04-01T10:16:19Z</time>
  </trkpt>
  <trkpt lat="32.846964" lon="-3.231453">
   <ele>1563.00</ele>
   <time>2014-04-01T10:16:21Z</time>
  </trkpt>
  <trkpt lat="32.846753" lon="-3.231569">
   <ele>1563.00</ele>
   <time>2014-04-01T10:16:23Z</time>
  </trkpt>
  <trkpt lat="32.846543" lon="-3.231667">
   <ele>1562.00</ele>
   <time>2014-04-01T10:16:25Z</time>
  </trkpt>
  <trkpt lat="32.846347" lon="-3.231785">
   <ele>1562.00</ele>
   <time>2014-04-01T10:16:27Z</time>
  </trkpt>
  <trkpt lat="32.846167" lon="-3.231919">
   <ele>1562.00</ele>
   <time>2014-04-01T10:16:29Z</time>
  </trkpt>
  <trkpt lat="32.846001" lon="-3.232059">
   <ele>1562.00</ele>
   <time>2014-04-01T10:16:31Z</time>
  </trkpt>
  <trkpt lat="32.845742" lon="-3.232297">
   <ele>1561.00</ele>
   <time>2014-04-01T10:16:34Z</time>
  </trkpt>
  <trkpt lat="32.845294" lon="-3.232680">
   <ele>1561.00</ele>
   <time>2014-04-01T10:16:39Z</time>
  </trkpt>
  <trkpt lat="32.845116" lon="-3.232812">
   <ele>1561.00</ele>
   <time>2014-04-01T10:16:41Z</time>
  </trkpt>
  <trkpt lat="32.844948" lon="-3.232945">
   <ele>1562.00</ele>
   <time>2014-04-01T10:16:43Z</time>
  </trkpt>
  <trkpt lat="32.844417" lon="-3.233386">
   <ele>1560.00</ele>
   <time>2014-04-01T10:16:49Z</time>
  </trkpt>
  <trkpt lat="32.844145" lon="-3.233582">
   <ele>1559.00</ele>
   <time>2014-04-01T10:16:52Z</time>
  </trkpt>
  <trkpt lat="32.843997" lon="-3.233754">
   <ele>1558.00</ele>
   <time>2014-04-01T10:16:54Z</time>
  </trkpt>
  <trkpt lat="32.843879" lon="-3.233966">
   <ele>1558.00</ele>
   <time>2014-04-01T10:16:56Z</time>
  </trkpt>
  <trkpt lat="32.843777" lon="-3.234190">
   <ele>1557.00</ele>
   <time>2014-04-01T10:16:58Z</time>
  </trkpt>
  <trkpt lat="32.843650" lon="-3.234375">
   <ele>1557.00</ele>
   <time>2014-04-01T10:17:00Z</time>
  </trkpt>
  <trkpt lat="32.843488" lon="-3.234496">
   <ele>1556.00</ele>
   <time>2014-04-01T10:17:02Z</time>
  </trkpt>
  <trkpt lat="32.843310" lon="-3.234594">
   <ele>1556.00</ele>
   <time>2014-04-01T10:17:04Z</time>
  </trkpt>
  <trkpt lat="32.843140" lon="-3.234733">
   <ele>1555.00</ele>
   <time>2014-04-01T10:17:06Z</time>
  </trkpt>
  <trkpt lat="32.842984" lon="-3.234917">
   <ele>1555.00</ele>
   <time>2014-04-01T10:17:08Z</time>
  </trkpt>
  <trkpt lat="32.842662" lon="-3.235336">
   <ele>1555.00</ele>
   <time>2014-04-01T10:17:12Z</time>
  </trkpt>
  <trkpt lat="32.842320" lon="-3.235695">
   <ele>1554.00</ele>
   <time>2014-04-01T10:17:16Z</time>
  </trkpt>
  <trkpt lat="32.842197" lon="-3.235919">
   <ele>1554.00</ele>
   <time>2014-04-01T10:17:18Z</time>
  </trkpt>
  <trkpt lat="32.842124" lon="-3.236179">
   <ele>1554.00</ele>
   <time>2014-04-01T10:17:20Z</time>
  </trkpt>
  <trkpt lat="32.842070" lon="-3.236442">
   <ele>1554.00</ele>
   <time>2014-04-01T10:17:22Z</time>
  </trkpt>
  <trkpt lat="32.841994" lon="-3.236686">
   <ele>1554.00</ele>
   <time>2014-04-01T10:17:24Z</time>
  </trkpt>
  <trkpt lat="32.841882" lon="-3.236905">
   <ele>1554.00</ele>
   <time>2014-04-01T10:17:26Z</time>
  </trkpt>
  <trkpt lat="32.841741" lon="-3.237108">
   <ele>1554.00</ele>
   <time>2014-04-01T10:17:28Z</time>
  </trkpt>
  <trkpt lat="32.841596" lon="-3.237302">
   <ele>1554.00</ele>
   <time>2014-04-01T10:17:30Z</time>
  </trkpt>
  <trkpt lat="32.841441" lon="-3.237467">
   <ele>1553.00</ele>
   <time>2014-04-01T10:17:32Z</time>
  </trkpt>
  <trkpt lat="32.841289" lon="-3.237640">
   <ele>1553.00</ele>
   <time>2014-04-01T10:17:34Z</time>
  </trkpt>
  <trkpt lat="32.841151" lon="-3.237851">
   <ele>1553.00</ele>
   <time>2014-04-01T10:17:36Z</time>
  </trkpt>
  <trkpt lat="32.840926" lon="-3.238269">
   <ele>1553.00</ele>
   <time>2014-04-01T10:17:40Z</time>
  </trkpt>
  <trkpt lat="32.840717" lon="-3.238401">
   <ele>1552.00</ele>
   <time>2014-04-01T10:17:43Z</time>
  </trkpt>
  <trkpt lat="32.840478" lon="-3.238306">
   <ele>1551.00</ele>
   <time>2014-04-01T10:17:46Z</time>
  </trkpt>
  <trkpt lat="32.840124" lon="-3.238101">
   <ele>1551.00</ele>
   <time>2014-04-01T10:17:51Z</time>
  </trkpt>
  <trkpt lat="32.839943" lon="-3.238005">
   <ele>1551.00</ele>
   <time>2014-04-01T10:17:54Z</time>
  </trkpt>
  <trkpt lat="32.839670" lon="-3.237953">
   <ele>1552.00</ele>
   <time>2014-04-01T10:17:58Z</time>
  </trkpt>
  <trkpt lat="32.839447" lon="-3.237926">
   <ele>1553.00</ele>
   <time>2014-04-01T10:18:01Z</time>
  </trkpt>
  <trkpt lat="32.838755" lon="-3.237881">
   <ele>1553.00</ele>
   <time>2014-04-01T10:18:09Z</time>
  </trkpt>
  <trkpt lat="32.838557" lon="-3.237851">
   <ele>1553.00</ele>
   <time>2014-04-01T10:18:11Z</time>
  </trkpt>
  <trkpt lat="32.838263" lon="-3.237800">
   <ele>1553.00</ele>
   <time>2014-04-01T10:18:14Z</time>
  </trkpt>
  <trkpt lat="32.838002" lon="-3.237857">
   <ele>1552.00</ele>
   <time>2014-04-01T10:18:17Z</time>
  </trkpt>
  <trkpt lat="32.837757" lon="-3.238001">
   <ele>1551.00</ele>
   <time>2014-04-01T10:18:20Z</time>
  </trkpt>
  <trkpt lat="32.837321" lon="-3.238293">
   <ele>1550.00</ele>
   <time>2014-04-01T10:18:25Z</time>
  </trkpt>
  <trkpt lat="32.837158" lon="-3.238405">
   <ele>1549.00</ele>
   <time>2014-04-01T10:18:27Z</time>
  </trkpt>
  <trkpt lat="32.836997" lon="-3.238506">
   <ele>1548.00</ele>
   <time>2014-04-01T10:18:29Z</time>
  </trkpt>
  <trkpt lat="32.836825" lon="-3.238595">
   <ele>1548.00</ele>
   <time>2014-04-01T10:18:31Z</time>
  </trkpt>
  <trkpt lat="32.836556" lon="-3.238721">
   <ele>1548.00</ele>
   <time>2014-04-01T10:18:34Z</time>
  </trkpt>
  <trkpt lat="32.836377" lon="-3.238795">
   <ele>1548.00</ele>
   <time>2014-04-01T10:18:36Z</time>
  </trkpt>
  <trkpt lat="32.836201" lon="-3.238886">
   <ele>1548.00</ele>
   <time>2014-04-01T10:18:38Z</time>
  </trkpt>
  <trkpt lat="32.836016" lon="-3.238978">
   <ele>1547.00</ele>
   <time>2014-04-01T10:18:40Z</time>
  </trkpt>
  <trkpt lat="32.835825" lon="-3.239055">
   <ele>1547.00</ele>
   <time>2014-04-01T10:18:42Z</time>
  </trkpt>
  <trkpt lat="32.835639" lon="-3.239127">
   <ele>1546.00</ele>
   <time>2014-04-01T10:18:44Z</time>
  </trkpt>
  <trkpt lat="32.835376" lon="-3.239233">
   <ele>1546.00</ele>
   <time>2014-04-01T10:18:47Z</time>
  </trkpt>
  <trkpt lat="32.835190" lon="-3.239291">
   <ele>1546.00</ele>
   <time>2014-04-01T10:18:49Z</time>
  </trkpt>
  <trkpt lat="32.834998" lon="-3.239328">
   <ele>1545.00</ele>
   <time>2014-04-01T10:18:51Z</time>
  </trkpt>
  <trkpt lat="32.834740" lon="-3.239367">
   <ele>1545.00</ele>
   <time>2014-04-01T10:18:55Z</time>
  </trkpt>
  <trkpt lat="32.834555" lon="-3.239463">
   <ele>1546.00</ele>
   <time>2014-04-01T10:19:10Z</time>
  </trkpt>
  <trkpt lat="32.834568" lon="-3.239466">
   <ele>1548.00</ele>
   <time>2014-04-01T10:19:25Z</time>
  </trkpt>
  <trkpt lat="32.834580" lon="-3.239468">
   <ele>1549.00</ele>
   <time>2014-04-01T10:19:41Z</time>
  </trkpt>
  <trkpt lat="32.834575" lon="-3.239466">
   <ele>1549.00</ele>
   <time>2014-04-01T10:19:56Z</time>
  </trkpt>
  <trkpt lat="32.834357" lon="-3.239465">
   <ele>1549.00</ele>
   <time>2014-04-01T10:20:08Z</time>
  </trkpt>
  <trkpt lat="32.834151" lon="-3.239509">
   <ele>1548.00</ele>
   <time>2014-04-01T10:20:11Z</time>
  </trkpt>
  <trkpt lat="32.833920" lon="-3.239593">
   <ele>1548.00</ele>
   <time>2014-04-01T10:20:14Z</time>
  </trkpt>
  <trkpt lat="32.833699" lon="-3.239726">
   <ele>1547.00</ele>
   <time>2014-04-01T10:20:17Z</time>
  </trkpt>
  <trkpt lat="32.833521" lon="-3.239885">
   <ele>1546.00</ele>
   <time>2014-04-01T10:20:20Z</time>
  </trkpt>
  <trkpt lat="32.833347" lon="-3.240102">
   <ele>1546.00</ele>
   <time>2014-04-01T10:20:23Z</time>
  </trkpt>
  <trkpt lat="32.833237" lon="-3.240294">
   <ele>1545.00</ele>
   <time>2014-04-01T10:20:25Z</time>
  </trkpt>
  <trkpt lat="32.833120" lon="-3.240485">
   <ele>1545.00</ele>
   <time>2014-04-01T10:20:27Z</time>
  </trkpt>
  <trkpt lat="32.832999" lon="-3.240665">
   <ele>1545.00</ele>
   <time>2014-04-01T10:20:29Z</time>
  </trkpt>
  <trkpt lat="32.832650" lon="-3.241135">
   <ele>1545.00</ele>
   <time>2014-04-01T10:20:34Z</time>
  </trkpt>
  <trkpt lat="32.832489" lon="-3.241319">
   <ele>1544.00</ele>
   <time>2014-04-01T10:20:36Z</time>
  </trkpt>
  <trkpt lat="32.832308" lon="-3.241483">
   <ele>1543.00</ele>
   <time>2014-04-01T10:20:38Z</time>
  </trkpt>
  <trkpt lat="32.832114" lon="-3.241625">
   <ele>1542.00</ele>
   <time>2014-04-01T10:20:40Z</time>
  </trkpt>
  <trkpt lat="32.831082" lon="-3.242359">
   <ele>1539.00</ele>
   <time>2014-04-01T10:20:50Z</time>
  </trkpt>
  <trkpt lat="32.830890" lon="-3.242513">
   <ele>1539.00</ele>
   <time>2014-04-01T10:20:52Z</time>
  </trkpt>
  <trkpt lat="32.830736" lon="-3.242690">
   <ele>1538.00</ele>
   <time>2014-04-01T10:20:54Z</time>
  </trkpt>
  <trkpt lat="32.830602" lon="-3.242858">
   <ele>1538.00</ele>
   <time>2014-04-01T10:20:56Z</time>
  </trkpt>
  <trkpt lat="32.830368" lon="-3.242995">
   <ele>1538.00</ele>
   <time>2014-04-01T10:20:59Z</time>
  </trkpt>
  <trkpt lat="32.830193" lon="-3.243180">
   <ele>1537.00</ele>
   <time>2014-04-01T10:21:02Z</time>
  </trkpt>
  <trkpt lat="32.830006" lon="-3.243327">
   <ele>1537.00</ele>
   <time>2014-04-01T10:21:05Z</time>
  </trkpt>
  <trkpt lat="32.829747" lon="-3.243394">
   <ele>1536.00</ele>
   <time>2014-04-01T10:21:08Z</time>
  </trkpt>
  <trkpt lat="32.829554" lon="-3.243453">
   <ele>1536.00</ele>
   <time>2014-04-01T10:21:10Z</time>
  </trkpt>
  <trkpt lat="32.828915" lon="-3.243694">
   <ele>1534.00</ele>
   <time>2014-04-01T10:21:17Z</time>
  </trkpt>
  <trkpt lat="32.828738" lon="-3.243818">
   <ele>1532.00</ele>
   <time>2014-04-01T10:21:20Z</time>
  </trkpt>
  <trkpt lat="32.828568" lon="-3.243984">
   <ele>1532.00</ele>
   <time>2014-04-01T10:21:23Z</time>
  </trkpt>
  <trkpt lat="32.828348" lon="-3.244072">
   <ele>1532.00</ele>
   <time>2014-04-01T10:21:26Z</time>
  </trkpt>
  <trkpt lat="32.828078" lon="-3.244117">
   <ele>1533.00</ele>
   <time>2014-04-01T10:21:29Z</time>
  </trkpt>
  <trkpt lat="32.827885" lon="-3.244170">
   <ele>1533.00</ele>
   <time>2014-04-01T10:21:31Z</time>
  </trkpt>
  <trkpt lat="32.827689" lon="-3.244251">
   <ele>1533.00</ele>
   <time>2014-04-01T10:21:33Z</time>
  </trkpt>
  <trkpt lat="32.827491" lon="-3.244343">
   <ele>1533.00</ele>
   <time>2014-04-01T10:21:35Z</time>
  </trkpt>
  <trkpt lat="32.827066" lon="-3.244543">
   <ele>1532.00</ele>
   <time>2014-04-01T10:21:39Z</time>
  </trkpt>
  <trkpt lat="32.826709" lon="-3.244696">
   <ele>1532.00</ele>
   <time>2014-04-01T10:21:42Z</time>
  </trkpt>
  <trkpt lat="32.826333" lon="-3.244845">
   <ele>1531.00</ele>
   <time>2014-04-01T10:21:45Z</time>
  </trkpt>
  <trkpt lat="32.826100" lon="-3.244963">
   <ele>1530.00</ele>
   <time>2014-04-01T10:21:47Z</time>
  </trkpt>
  <trkpt lat="32.825804" lon="-3.245129">
   <ele>1530.00</ele>
   <time>2014-04-01T10:21:50Z</time>
  </trkpt>
  <trkpt lat="32.825603" lon="-3.245298">
   <ele>1530.00</ele>
   <time>2014-04-01T10:21:53Z</time>
  </trkpt>
  <trkpt lat="32.825419" lon="-3.245422">
   <ele>1530.00</ele>
   <time>2014-04-01T10:21:56Z</time>
  </trkpt>
  <trkpt lat="32.825184" lon="-3.245491">
   <ele>1530.00</ele>
   <time>2014-04-01T10:21:59Z</time>
  </trkpt>
  <trkpt lat="32.824884" lon="-3.245564">
   <ele>1530.00</ele>
   <time>2014-04-01T10:22:02Z</time>
  </trkpt>
  <trkpt lat="32.824679" lon="-3.245610">
   <ele>1531.00</ele>
   <time>2014-04-01T10:22:04Z</time>
  </trkpt>
  <trkpt lat="32.824001" lon="-3.245728">
   <ele>1531.00</ele>
   <time>2014-04-01T10:22:11Z</time>
  </trkpt>
  <trkpt lat="32.823607" lon="-3.245769">
   <ele>1531.00</ele>
   <time>2014-04-01T10:22:15Z</time>
  </trkpt>
  <trkpt lat="32.822944" lon="-3.245863">
   <ele>1530.00</ele>
   <time>2014-04-01T10:22:22Z</time>
  </trkpt>
  <trkpt lat="32.822496" lon="-3.245903">
   <ele>1531.00</ele>
   <time>2014-04-01T10:22:27Z</time>
  </trkpt>
  <trkpt lat="32.822306" lon="-3.245952">
   <ele>1530.00</ele>
   <time>2014-04-01T10:22:29Z</time>
  </trkpt>
  <trkpt lat="32.822122" lon="-3.246023">
   <ele>1529.00</ele>
   <time>2014-04-01T10:22:31Z</time>
  </trkpt>
  <trkpt lat="32.821950" lon="-3.246116">
   <ele>1529.00</ele>
   <time>2014-04-01T10:22:33Z</time>
  </trkpt>
  <trkpt lat="32.821764" lon="-3.246214">
   <ele>1529.00</ele>
   <time>2014-04-01T10:22:35Z</time>
  </trkpt>
  <trkpt lat="32.819970" lon="-3.247106">
   <ele>1523.00</ele>
   <time>2014-04-01T10:22:50Z</time>
  </trkpt>
  <trkpt lat="32.819028" lon="-3.247589">
   <ele>1521.00</ele>
   <time>2014-04-01T10:22:57Z</time>
  </trkpt>
  <trkpt lat="32.818774" lon="-3.247742">
   <ele>1521.00</ele>
   <time>2014-04-01T10:22:59Z</time>
  </trkpt>
  <trkpt lat="32.818508" lon="-3.247902">
   <ele>1520.00</ele>
   <time>2014-04-01T10:23:01Z</time>
  </trkpt>
  <trkpt lat="32.818222" lon="-3.248051">
   <ele>1520.00</ele>
   <time>2014-04-01T10:23:03Z</time>
  </trkpt>
  <trkpt lat="32.817933" lon="-3.248210">
   <ele>1520.00</ele>
   <time>2014-04-01T10:23:05Z</time>
  </trkpt>
  <trkpt lat="32.817649" lon="-3.248392">
   <ele>1519.00</ele>
   <time>2014-04-01T10:23:07Z</time>
  </trkpt>
  <trkpt lat="32.817212" lon="-3.248668">
   <ele>1519.00</ele>
   <time>2014-04-01T10:23:10Z</time>
  </trkpt>
  <trkpt lat="32.816898" lon="-3.248827">
   <ele>1518.00</ele>
   <time>2014-04-01T10:23:12Z</time>
  </trkpt>
  <trkpt lat="32.816275" lon="-3.249137">
   <ele>1518.00</ele>
   <time>2014-04-01T10:23:16Z</time>
  </trkpt>
  <trkpt lat="32.814888" lon="-3.249880">
   <ele>1516.00</ele>
   <time>2014-04-01T10:23:26Z</time>
  </trkpt>
  <trkpt lat="32.814618" lon="-3.249995">
   <ele>1516.00</ele>
   <time>2014-04-01T10:23:28Z</time>
  </trkpt>
  <trkpt lat="32.814343" lon="-3.250120">
   <ele>1516.00</ele>
   <time>2014-04-01T10:23:30Z</time>
  </trkpt>
  <trkpt lat="32.814077" lon="-3.250263">
   <ele>1516.00</ele>
   <time>2014-04-01T10:23:32Z</time>
  </trkpt>
  <trkpt lat="32.813831" lon="-3.250416">
   <ele>1516.00</ele>
   <time>2014-04-01T10:23:34Z</time>
  </trkpt>
  <trkpt lat="32.813582" lon="-3.250564">
   <ele>1516.00</ele>
   <time>2014-04-01T10:23:36Z</time>
  </trkpt>
  <trkpt lat="32.812732" lon="-3.250994">
   <ele>1516.00</ele>
   <time>2014-04-01T10:23:43Z</time>
  </trkpt>
  <trkpt lat="32.812529" lon="-3.251127">
   <ele>1517.00</ele>
   <time>2014-04-01T10:23:45Z</time>
  </trkpt>
  <trkpt lat="32.812315" lon="-3.251284">
   <ele>1517.00</ele>
   <time>2014-04-01T10:23:48Z</time>
  </trkpt>
  <trkpt lat="32.812117" lon="-3.251329">
   <ele>1518.00</ele>
   <time>2014-04-01T10:23:51Z</time>
  </trkpt>
  <trkpt lat="32.811880" lon="-3.251291">
   <ele>1519.00</ele>
   <time>2014-04-01T10:23:54Z</time>
  </trkpt>
  <trkpt lat="32.811625" lon="-3.251236">
   <ele>1519.00</ele>
   <time>2014-04-01T10:23:57Z</time>
  </trkpt>
  <trkpt lat="32.811437" lon="-3.251226">
   <ele>1519.00</ele>
   <time>2014-04-01T10:23:59Z</time>
  </trkpt>
  <trkpt lat="32.811244" lon="-3.251244">
   <ele>1520.00</ele>
   <time>2014-04-01T10:24:01Z</time>
  </trkpt>
  <trkpt lat="32.811055" lon="-3.251286">
   <ele>1521.00</ele>
   <time>2014-04-01T10:24:03Z</time>
  </trkpt>
  <trkpt lat="32.810759" lon="-3.251365">
   <ele>1521.00</ele>
   <time>2014-04-01T10:24:06Z</time>
  </trkpt>
  <trkpt lat="32.810436" lon="-3.251479">
   <ele>1520.00</ele>
   <time>2014-04-01T10:24:09Z</time>
  </trkpt>
  <trkpt lat="32.810116" lon="-3.251599">
   <ele>1520.00</ele>
   <time>2014-04-01T10:24:12Z</time>
  </trkpt>
  <trkpt lat="32.809911" lon="-3.251684">
   <ele>1519.00</ele>
   <time>2014-04-01T10:24:14Z</time>
  </trkpt>
  <trkpt lat="32.809722" lon="-3.251800">
   <ele>1519.00</ele>
   <time>2014-04-01T10:24:16Z</time>
  </trkpt>
  <trkpt lat="32.809272" lon="-3.252134">
   <ele>1517.00</ele>
   <time>2014-04-01T10:24:21Z</time>
  </trkpt>
  <trkpt lat="32.809071" lon="-3.252251">
   <ele>1516.00</ele>
   <time>2014-04-01T10:24:23Z</time>
  </trkpt>
  <trkpt lat="32.808868" lon="-3.252352">
   <ele>1516.00</ele>
   <time>2014-04-01T10:24:25Z</time>
  </trkpt>
  <trkpt lat="32.807884" lon="-3.252834">
   <ele>1512.00</ele>
   <time>2014-04-01T10:24:36Z</time>
  </trkpt>
  <trkpt lat="32.807701" lon="-3.252894">
   <ele>1511.00</ele>
   <time>2014-04-01T10:24:39Z</time>
  </trkpt>
  <trkpt lat="32.807349" lon="-3.253007">
   <ele>1511.00</ele>
   <time>2014-04-01T10:24:45Z</time>
  </trkpt>
  <trkpt lat="32.807144" lon="-3.253060">
   <ele>1513.00</ele>
   <time>2014-04-01T10:24:49Z</time>
  </trkpt>
  <trkpt lat="32.806921" lon="-3.253135">
   <ele>1513.00</ele>
   <time>2014-04-01T10:24:53Z</time>
  </trkpt>
  <trkpt lat="32.806734" lon="-3.253208">
   <ele>1513.00</ele>
   <time>2014-04-01T10:24:56Z</time>
  </trkpt>
  <trkpt lat="32.806548" lon="-3.253362">
   <ele>1513.00</ele>
   <time>2014-04-01T10:24:59Z</time>
  </trkpt>
  <trkpt lat="32.805540" lon="-3.254368">
   <ele>1512.00</ele>
   <time>2014-04-01T10:25:13Z</time>
  </trkpt>
  <trkpt lat="32.805032" lon="-3.254816">
   <ele>1512.00</ele>
   <time>2014-04-01T10:25:19Z</time>
  </trkpt>
  <trkpt lat="32.804793" lon="-3.254997">
   <ele>1511.00</ele>
   <time>2014-04-01T10:25:22Z</time>
  </trkpt>
  <trkpt lat="32.804627" lon="-3.255085">
   <ele>1510.00</ele>
   <time>2014-04-01T10:25:24Z</time>
  </trkpt>
  <trkpt lat="32.804445" lon="-3.255150">
   <ele>1510.00</ele>
   <time>2014-04-01T10:25:26Z</time>
  </trkpt>
  <trkpt lat="32.804045" lon="-3.255267">
   <ele>1509.00</ele>
   <time>2014-04-01T10:25:30Z</time>
  </trkpt>
  <trkpt lat="32.803838" lon="-3.255316">
   <ele>1508.00</ele>
   <time>2014-04-01T10:25:32Z</time>
  </trkpt>
  <trkpt lat="32.803635" lon="-3.255353">
   <ele>1508.00</ele>
   <time>2014-04-01T10:25:34Z</time>
  </trkpt>
  <trkpt lat="32.803439" lon="-3.255381">
   <ele>1509.00</ele>
   <time>2014-04-01T10:25:36Z</time>
  </trkpt>
  <trkpt lat="32.803241" lon="-3.255403">
   <ele>1509.00</ele>
   <time>2014-04-01T10:25:38Z</time>
  </trkpt>
  <trkpt lat="32.803046" lon="-3.255406">
   <ele>1510.00</ele>
   <time>2014-04-01T10:25:40Z</time>
  </trkpt>
  <trkpt lat="32.802860" lon="-3.255404">
   <ele>1510.00</ele>
   <time>2014-04-01T10:25:42Z</time>
  </trkpt>
  <trkpt lat="32.802601" lon="-3.255435">
   <ele>1510.00</ele>
   <time>2014-04-01T10:25:45Z</time>
  </trkpt>
  <trkpt lat="32.802357" lon="-3.255514">
   <ele>1510.00</ele>
   <time>2014-04-01T10:25:48Z</time>
  </trkpt>
  <trkpt lat="32.802090" lon="-3.255554">
   <ele>1509.00</ele>
   <time>2014-04-01T10:25:51Z</time>
  </trkpt>
  <trkpt lat="32.801910" lon="-3.255579">
   <ele>1509.00</ele>
   <time>2014-04-01T10:25:53Z</time>
  </trkpt>
  <trkpt lat="32.801571" lon="-3.255650">
   <ele>1508.00</ele>
   <time>2014-04-01T10:25:57Z</time>
  </trkpt>
  <trkpt lat="32.801308" lon="-3.255701">
   <ele>1508.00</ele>
   <time>2014-04-01T10:26:00Z</time>
  </trkpt>
  <trkpt lat="32.801052" lon="-3.255769">
   <ele>1508.00</ele>
   <time>2014-04-01T10:26:03Z</time>
  </trkpt>
  <trkpt lat="32.800750" lon="-3.255837">
   <ele>1508.00</ele>
   <time>2014-04-01T10:26:07Z</time>
  </trkpt>
  <trkpt lat="32.800540" lon="-3.255910">
   <ele>1507.00</ele>
   <time>2014-04-01T10:26:10Z</time>
  </trkpt>
  <trkpt lat="32.800339" lon="-3.255968">
   <ele>1508.00</ele>
   <time>2014-04-01T10:26:13Z</time>
  </trkpt>
  <trkpt lat="32.800146" lon="-3.256058">
   <ele>1508.00</ele>
   <time>2014-04-01T10:26:16Z</time>
  </trkpt>
  <trkpt lat="32.799901" lon="-3.256141">
   <ele>1507.00</ele>
   <time>2014-04-01T10:26:19Z</time>
  </trkpt>
  <trkpt lat="32.799706" lon="-3.256153">
   <ele>1507.00</ele>
   <time>2014-04-01T10:26:21Z</time>
  </trkpt>
  <trkpt lat="32.799292" lon="-3.256139">
   <ele>1508.00</ele>
   <time>2014-04-01T10:26:25Z</time>
  </trkpt>
  <trkpt lat="32.799087" lon="-3.256105">
   <ele>1508.00</ele>
   <time>2014-04-01T10:26:27Z</time>
  </trkpt>
  <trkpt lat="32.798886" lon="-3.256043">
   <ele>1509.00</ele>
   <time>2014-04-01T10:26:29Z</time>
  </trkpt>
  <trkpt lat="32.798427" lon="-3.255843">
   <ele>1510.00</ele>
   <time>2014-04-01T10:26:34Z</time>
  </trkpt>
  <trkpt lat="32.798235" lon="-3.255680">
   <ele>1512.00</ele>
   <time>2014-04-01T10:26:37Z</time>
  </trkpt>
  <trkpt lat="32.798087" lon="-3.255482">
   <ele>1513.00</ele>
   <time>2014-04-01T10:26:40Z</time>
  </trkpt>
  <trkpt lat="32.797897" lon="-3.255335">
   <ele>1513.00</ele>
   <time>2014-04-01T10:26:43Z</time>
  </trkpt>
  <trkpt lat="32.797678" lon="-3.255185">
   <ele>1513.00</ele>
   <time>2014-04-01T10:26:46Z</time>
  </trkpt>
  <trkpt lat="32.797456" lon="-3.255061">
   <ele>1512.00</ele>
   <time>2014-04-01T10:26:49Z</time>
  </trkpt>
  <trkpt lat="32.797219" lon="-3.254973">
   <ele>1511.00</ele>
   <time>2014-04-01T10:26:52Z</time>
  </trkpt>
  <trkpt lat="32.796974" lon="-3.254873">
   <ele>1510.00</ele>
   <time>2014-04-01T10:26:55Z</time>
  </trkpt>
  <trkpt lat="32.796729" lon="-3.254766">
   <ele>1508.00</ele>
   <time>2014-04-01T10:27:01Z</time>
  </trkpt>
  <trkpt lat="32.796553" lon="-3.254685">
   <ele>1508.00</ele>
   <time>2014-04-01T10:27:12Z</time>
  </trkpt>
  <trkpt lat="32.795587" lon="-3.254259">
   <ele>1504.00</ele>
   <time>2014-04-01T10:27:27Z</time>
  </trkpt>
  <trkpt lat="32.795405" lon="-3.254167">
   <ele>1504.00</ele>
   <time>2014-04-01T10:27:29Z</time>
  </trkpt>
  <trkpt lat="32.794946" lon="-3.253915">
   <ele>1502.00</ele>
   <time>2014-04-01T10:27:34Z</time>
  </trkpt>
  <trkpt lat="32.794748" lon="-3.253822">
   <ele>1501.00</ele>
   <time>2014-04-01T10:27:36Z</time>
  </trkpt>
  <trkpt lat="32.794451" lon="-3.253701">
   <ele>1500.00</ele>
   <time>2014-04-01T10:27:39Z</time>
  </trkpt>
  <trkpt lat="32.794279" lon="-3.253592">
   <ele>1499.00</ele>
   <time>2014-04-01T10:27:41Z</time>
  </trkpt>
  <trkpt lat="32.794122" lon="-3.253466">
   <ele>1498.00</ele>
   <time>2014-04-01T10:27:43Z</time>
  </trkpt>
  <trkpt lat="32.793973" lon="-3.253333">
   <ele>1498.00</ele>
   <time>2014-04-01T10:27:45Z</time>
  </trkpt>
  <trkpt lat="32.793763" lon="-3.253117">
   <ele>1499.00</ele>
   <time>2014-04-01T10:27:48Z</time>
  </trkpt>
  <trkpt lat="32.793582" lon="-3.252891">
   <ele>1499.00</ele>
   <time>2014-04-01T10:27:51Z</time>
  </trkpt>
  <trkpt lat="32.793330" lon="-3.252769">
   <ele>1499.00</ele>
   <time>2014-04-01T10:27:54Z</time>
  </trkpt>
  <trkpt lat="32.793122" lon="-3.252738">
   <ele>1499.00</ele>
   <time>2014-04-01T10:27:56Z</time>
  </trkpt>
  <trkpt lat="32.792801" lon="-3.252697">
   <ele>1499.00</ele>
   <time>2014-04-01T10:27:59Z</time>
  </trkpt>
  <trkpt lat="32.792419" lon="-3.252632">
   <ele>1498.00</ele>
   <time>2014-04-01T10:28:03Z</time>
  </trkpt>
  <trkpt lat="32.792161" lon="-3.252623">
   <ele>1497.00</ele>
   <time>2014-04-01T10:28:06Z</time>
  </trkpt>
  <trkpt lat="32.791908" lon="-3.252625">
   <ele>1497.00</ele>
   <time>2014-04-01T10:28:09Z</time>
  </trkpt>
  <trkpt lat="32.791652" lon="-3.252628">
   <ele>1497.00</ele>
   <time>2014-04-01T10:28:12Z</time>
  </trkpt>
  <trkpt lat="32.791302" lon="-3.252645">
   <ele>1497.00</ele>
   <time>2014-04-01T10:28:16Z</time>
  </trkpt>
  <trkpt lat="32.791040" lon="-3.252603">
   <ele>1496.00</ele>
   <time>2014-04-01T10:28:19Z</time>
  </trkpt>
  <trkpt lat="32.790802" lon="-3.252544">
   <ele>1495.00</ele>
   <time>2014-04-01T10:28:22Z</time>
  </trkpt>
  <trkpt lat="32.790577" lon="-3.252523">
   <ele>1494.00</ele>
   <time>2014-04-01T10:28:25Z</time>
  </trkpt>
  <trkpt lat="32.790264" lon="-3.252522">
   <ele>1494.00</ele>
   <time>2014-04-01T10:28:29Z</time>
  </trkpt>
  <trkpt lat="32.790008" lon="-3.252518">
   <ele>1494.00</ele>
   <time>2014-04-01T10:28:32Z</time>
  </trkpt>
  <trkpt lat="32.789739" lon="-3.252501">
   <ele>1494.00</ele>
   <time>2014-04-01T10:28:35Z</time>
  </trkpt>
  <trkpt lat="32.789469" lon="-3.252464">
   <ele>1493.00</ele>
   <time>2014-04-01T10:28:38Z</time>
  </trkpt>
  <trkpt lat="32.789203" lon="-3.252413">
   <ele>1493.00</ele>
   <time>2014-04-01T10:28:41Z</time>
  </trkpt>
  <trkpt lat="32.788614" lon="-3.252285">
   <ele>1492.00</ele>
   <time>2014-04-01T10:28:50Z</time>
  </trkpt>
  <trkpt lat="32.788621" lon="-3.252286">
   <ele>1491.00</ele>
   <time>2014-04-01T10:29:05Z</time>
  </trkpt>
  <trkpt lat="32.788629" lon="-3.252285">
   <ele>1491.00</ele>
   <time>2014-04-01T10:29:21Z</time>
  </trkpt>
  <trkpt lat="32.788630" lon="-3.252290">
   <ele>1492.00</ele>
   <time>2014-04-01T10:29:36Z</time>
  </trkpt>
  <trkpt lat="32.788630" lon="-3.252291">
   <ele>1492.00</ele>
   <time>2014-04-01T10:29:51Z</time>
  </trkpt>
  <trkpt lat="32.788630" lon="-3.252288">
   <ele>1491.00</ele>
   <time>2014-04-01T10:30:07Z</time>
  </trkpt>
  <trkpt lat="32.788439" lon="-3.252278">
   <ele>1490.00</ele>
   <time>2014-04-01T10:30:21Z</time>
  </trkpt>
  <trkpt lat="32.787919" lon="-3.252271">
   <ele>1491.00</ele>
   <time>2014-04-01T10:30:31Z</time>
  </trkpt>
  <trkpt lat="32.787735" lon="-3.252246">
   <ele>1492.00</ele>
   <time>2014-04-01T10:30:37Z</time>
  </trkpt>
  <trkpt lat="32.787536" lon="-3.252220">
   <ele>1492.00</ele>
   <time>2014-04-01T10:30:48Z</time>
  </trkpt>
  <trkpt lat="32.787483" lon="-3.252207">
   <ele>1491.00</ele>
   <time>2014-04-01T10:31:04Z</time>
  </trkpt>
  <trkpt lat="32.787494" lon="-3.252211">
   <ele>1489.00</ele>
   <time>2014-04-01T10:31:19Z</time>
  </trkpt>
  <trkpt lat="32.787494" lon="-3.252209">
   <ele>1490.00</ele>
   <time>2014-04-01T10:31:34Z</time>
  </trkpt>
  <trkpt lat="32.787494" lon="-3.252204">
   <ele>1491.00</ele>
   <time>2014-04-01T10:31:50Z</time>
  </trkpt>
  <trkpt lat="32.787404" lon="-3.252171">
   <ele>1491.00</ele>
   <time>2014-04-01T10:32:05Z</time>
  </trkpt>
  <trkpt lat="32.787201" lon="-3.252105">
   <ele>1491.00</ele>
   <time>2014-04-01T10:32:10Z</time>
  </trkpt>
  <trkpt lat="32.786668" lon="-3.251938">
   <ele>1491.00</ele>
   <time>2014-04-01T10:32:18Z</time>
  </trkpt>
  <trkpt lat="32.786421" lon="-3.251837">
   <ele>1490.00</ele>
   <time>2014-04-01T10:32:21Z</time>
  </trkpt>
  <trkpt lat="32.786196" lon="-3.251720">
   <ele>1490.00</ele>
   <time>2014-04-01T10:32:24Z</time>
  </trkpt>
  <trkpt lat="32.785982" lon="-3.251608">
   <ele>1489.00</ele>
   <time>2014-04-01T10:32:27Z</time>
  </trkpt>
  <trkpt lat="32.785649" lon="-3.251451">
   <ele>1489.00</ele>
   <time>2014-04-01T10:32:32Z</time>
  </trkpt>
  <trkpt lat="32.785456" lon="-3.251366">
   <ele>1488.00</ele>
   <time>2014-04-01T10:32:35Z</time>
  </trkpt>
  <trkpt lat="32.785251" lon="-3.251326">
   <ele>1488.00</ele>
   <time>2014-04-01T10:32:38Z</time>
  </trkpt>
  <trkpt lat="32.785033" lon="-3.251355">
   <ele>1489.00</ele>
   <time>2014-04-01T10:32:41Z</time>
  </trkpt>
  <trkpt lat="32.784637" lon="-3.251460">
   <ele>1491.00</ele>
   <time>2014-04-01T10:32:46Z</time>
  </trkpt>
  <trkpt lat="32.784374" lon="-3.251475">
   <ele>1490.00</ele>
   <time>2014-04-01T10:32:49Z</time>
  </trkpt>
  <trkpt lat="32.784192" lon="-3.251465">
   <ele>1490.00</ele>
   <time>2014-04-01T10:32:51Z</time>
  </trkpt>
  <trkpt lat="32.784007" lon="-3.251437">
   <ele>1489.00</ele>
   <time>2014-04-01T10:32:53Z</time>
  </trkpt>
  <trkpt lat="32.783722" lon="-3.251394">
   <ele>1489.00</ele>
   <time>2014-04-01T10:32:56Z</time>
  </trkpt>
  <trkpt lat="32.783535" lon="-3.251392">
   <ele>1489.00</ele>
   <time>2014-04-01T10:32:58Z</time>
  </trkpt>
  <trkpt lat="32.783345" lon="-3.251380">
   <ele>1489.00</ele>
   <time>2014-04-01T10:33:00Z</time>
  </trkpt>
  <trkpt lat="32.783061" lon="-3.251334">
   <ele>1489.00</ele>
   <time>2014-04-01T10:33:03Z</time>
  </trkpt>
  <trkpt lat="32.782871" lon="-3.251327">
   <ele>1489.00</ele>
   <time>2014-04-01T10:33:05Z</time>
  </trkpt>
  <trkpt lat="32.782681" lon="-3.251319">
   <ele>1489.00</ele>
   <time>2014-04-01T10:33:07Z</time>
  </trkpt>
  <trkpt lat="32.782395" lon="-3.251296">
   <ele>1489.00</ele>
   <time>2014-04-01T10:33:10Z</time>
  </trkpt>
  <trkpt lat="32.782208" lon="-3.251255">
   <ele>1488.00</ele>
   <time>2014-04-01T10:33:12Z</time>
  </trkpt>
  <trkpt lat="32.782035" lon="-3.251189">
   <ele>1488.00</ele>
   <time>2014-04-01T10:33:14Z</time>
  </trkpt>
  <trkpt lat="32.781740" lon="-3.251057">
   <ele>1486.00</ele>
   <time>2014-04-01T10:33:18Z</time>
  </trkpt>
  <trkpt lat="32.781272" lon="-3.250810">
   <ele>1484.00</ele>
   <time>2014-04-01T10:33:25Z</time>
  </trkpt>
  <trkpt lat="32.781076" lon="-3.250703">
   <ele>1484.00</ele>
   <time>2014-04-01T10:33:28Z</time>
  </trkpt>
  <trkpt lat="32.780863" lon="-3.250624">
   <ele>1485.00</ele>
   <time>2014-04-01T10:33:31Z</time>
  </trkpt>
  <trkpt lat="32.780654" lon="-3.250612">
   <ele>1486.00</ele>
   <time>2014-04-01T10:33:34Z</time>
  </trkpt>
  <trkpt lat="32.780427" lon="-3.250682">
   <ele>1486.00</ele>
   <time>2014-04-01T10:33:37Z</time>
  </trkpt>
  <trkpt lat="32.780259" lon="-3.250767">
   <ele>1486.00</ele>
   <time>2014-04-01T10:33:39Z</time>
  </trkpt>
  <trkpt lat="32.779148" lon="-3.251346">
   <ele>1483.00</ele>
   <time>2014-04-01T10:33:51Z</time>
  </trkpt>
  <trkpt lat="32.778907" lon="-3.251443">
   <ele>1483.00</ele>
   <time>2014-04-01T10:33:54Z</time>
  </trkpt>
  <trkpt lat="32.778680" lon="-3.251471">
   <ele>1482.00</ele>
   <time>2014-04-01T10:33:57Z</time>
  </trkpt>
  <trkpt lat="32.778495" lon="-3.251507">
   <ele>1482.00</ele>
   <time>2014-04-01T10:34:01Z</time>
  </trkpt>
  <trkpt lat="32.778293" lon="-3.251353">
   <ele>1481.00</ele>
   <time>2014-04-01T10:34:06Z</time>
  </trkpt>
  <trkpt lat="32.778115" lon="-3.251190">
   <ele>1481.00</ele>
   <time>2014-04-01T10:34:09Z</time>
  </trkpt>
  <trkpt lat="32.777936" lon="-3.250995">
   <ele>1481.00</ele>
   <time>2014-04-01T10:34:12Z</time>
  </trkpt>
  <trkpt lat="32.777763" lon="-3.250794">
   <ele>1480.00</ele>
   <time>2014-04-01T10:34:15Z</time>
  </trkpt>
  <trkpt lat="32.777623" lon="-3.250599">
   <ele>1480.00</ele>
   <time>2014-04-01T10:34:18Z</time>
  </trkpt>
  <trkpt lat="32.777469" lon="-3.250490">
   <ele>1479.00</ele>
   <time>2014-04-01T10:34:21Z</time>
  </trkpt>
  <trkpt lat="32.777281" lon="-3.250475">
   <ele>1478.00</ele>
   <time>2014-04-01T10:34:24Z</time>
  </trkpt>
  <trkpt lat="32.777088" lon="-3.250541">
   <ele>1477.00</ele>
   <time>2014-04-01T10:34:27Z</time>
  </trkpt>
  <trkpt lat="32.776926" lon="-3.250687">
   <ele>1476.00</ele>
   <time>2014-04-01T10:34:30Z</time>
  </trkpt>
  <trkpt lat="32.776798" lon="-3.250905">
   <ele>1475.00</ele>
   <time>2014-04-01T10:34:33Z</time>
  </trkpt>
  <trkpt lat="32.776682" lon="-3.251165">
   <ele>1475.00</ele>
   <time>2014-04-01T10:34:36Z</time>
  </trkpt>
  <trkpt lat="32.776591" lon="-3.251443">
   <ele>1474.00</ele>
   <time>2014-04-01T10:34:39Z</time>
  </trkpt>
  <trkpt lat="32.776528" lon="-3.251733">
   <ele>1472.00</ele>
   <time>2014-04-01T10:34:42Z</time>
  </trkpt>
  <trkpt lat="32.776453" lon="-3.251975">
   <ele>1471.00</ele>
   <time>2014-04-01T10:34:45Z</time>
  </trkpt>
  <trkpt lat="32.776308" lon="-3.252123">
   <ele>1470.00</ele>
   <time>2014-04-01T10:34:48Z</time>
  </trkpt>
  <trkpt lat="32.776024" lon="-3.252351">
   <ele>1470.00</ele>
   <time>2014-04-01T10:34:53Z</time>
  </trkpt>
  <trkpt lat="32.775899" lon="-3.252534">
   <ele>1470.00</ele>
   <time>2014-04-01T10:34:56Z</time>
  </trkpt>
  <trkpt lat="32.775809" lon="-3.252771">
   <ele>1470.00</ele>
   <time>2014-04-01T10:34:59Z</time>
  </trkpt>
  <trkpt lat="32.775722" lon="-3.253038">
   <ele>1470.00</ele>
   <time>2014-04-01T10:35:02Z</time>
  </trkpt>
  <trkpt lat="32.775621" lon="-3.253324">
   <ele>1470.00</ele>
   <time>2014-04-01T10:35:05Z</time>
  </trkpt>
  <trkpt lat="32.775429" lon="-3.253800">
   <ele>1471.00</ele>
   <time>2014-04-01T10:35:10Z</time>
  </trkpt>
  <trkpt lat="32.775323" lon="-3.254092">
   <ele>1471.00</ele>
   <time>2014-04-01T10:35:13Z</time>
  </trkpt>
  <trkpt lat="32.775180" lon="-3.254344">
   <ele>1471.00</ele>
   <time>2014-04-01T10:35:16Z</time>
  </trkpt>
  <trkpt lat="32.774997" lon="-3.254547">
   <ele>1472.00</ele>
   <time>2014-04-01T10:35:19Z</time>
  </trkpt>
  <trkpt lat="32.774782" lon="-3.254714">
   <ele>1472.00</ele>
   <time>2014-04-01T10:35:22Z</time>
  </trkpt>
  <trkpt lat="32.774542" lon="-3.254859">
   <ele>1473.00</ele>
   <time>2014-04-01T10:35:25Z</time>
  </trkpt>
  <trkpt lat="32.774046" lon="-3.255120">
   <ele>1473.00</ele>
   <time>2014-04-01T10:35:31Z</time>
  </trkpt>
  <trkpt lat="32.773800" lon="-3.255215">
   <ele>1473.00</ele>
   <time>2014-04-01T10:35:34Z</time>
  </trkpt>
  <trkpt lat="32.773599" lon="-3.255257">
   <ele>1473.00</ele>
   <time>2014-04-01T10:35:37Z</time>
  </trkpt>
  <trkpt lat="32.773414" lon="-3.255240">
   <ele>1474.00</ele>
   <time>2014-04-01T10:35:41Z</time>
  </trkpt>
  <trkpt lat="32.773166" lon="-3.255196">
   <ele>1473.00</ele>
   <time>2014-04-01T10:35:45Z</time>
  </trkpt>
  <trkpt lat="32.772995" lon="-3.255257">
   <ele>1473.00</ele>
   <time>2014-04-01T10:35:48Z</time>
  </trkpt>
  <trkpt lat="32.772916" lon="-3.255496">
   <ele>1471.00</ele>
   <time>2014-04-01T10:35:52Z</time>
  </trkpt>
  <trkpt lat="32.772815" lon="-3.255738">
   <ele>1470.00</ele>
   <time>2014-04-01T10:35:56Z</time>
  </trkpt>
  <trkpt lat="32.772675" lon="-3.255960">
   <ele>1471.00</ele>
   <time>2014-04-01T10:36:00Z</time>
  </trkpt>
  <trkpt lat="32.772465" lon="-3.256087">
   <ele>1473.00</ele>
   <time>2014-04-01T10:36:04Z</time>
  </trkpt>
  <trkpt lat="32.772198" lon="-3.256184">
   <ele>1474.00</ele>
   <time>2014-04-01T10:36:08Z</time>
  </trkpt>
  <trkpt lat="32.771971" lon="-3.256225">
   <ele>1475.00</ele>
   <time>2014-04-01T10:36:11Z</time>
  </trkpt>
  <trkpt lat="32.771717" lon="-3.256239">
   <ele>1475.00</ele>
   <time>2014-04-01T10:36:14Z</time>
  </trkpt>
  <trkpt lat="32.771467" lon="-3.256190">
   <ele>1475.00</ele>
   <time>2014-04-01T10:36:17Z</time>
  </trkpt>
  <trkpt lat="32.771133" lon="-3.256078">
   <ele>1475.00</ele>
   <time>2014-04-01T10:36:21Z</time>
  </trkpt>
  <trkpt lat="32.770956" lon="-3.256039">
   <ele>1475.00</ele>
   <time>2014-04-01T10:36:23Z</time>
  </trkpt>
  <trkpt lat="32.770777" lon="-3.256005">
   <ele>1475.00</ele>
   <time>2014-04-01T10:36:25Z</time>
  </trkpt>
  <trkpt lat="32.770529" lon="-3.255916">
   <ele>1474.00</ele>
   <time>2014-04-01T10:36:28Z</time>
  </trkpt>
  <trkpt lat="32.770306" lon="-3.255792">
   <ele>1474.00</ele>
   <time>2014-04-01T10:36:31Z</time>
  </trkpt>
  <trkpt lat="32.770083" lon="-3.255724">
   <ele>1474.00</ele>
   <time>2014-04-01T10:36:34Z</time>
  </trkpt>
  <trkpt lat="32.769852" lon="-3.255650">
   <ele>1474.00</ele>
   <time>2014-04-01T10:36:37Z</time>
  </trkpt>
  <trkpt lat="32.769613" lon="-3.255537">
   <ele>1474.00</ele>
   <time>2014-04-01T10:36:40Z</time>
  </trkpt>
  <trkpt lat="32.769344" lon="-3.255490">
   <ele>1475.00</ele>
   <time>2014-04-01T10:36:43Z</time>
  </trkpt>
  <trkpt lat="32.769159" lon="-3.255497">
   <ele>1476.00</ele>
   <time>2014-04-01T10:36:45Z</time>
  </trkpt>
  <trkpt lat="32.768977" lon="-3.255517">
   <ele>1477.00</ele>
   <time>2014-04-01T10:36:47Z</time>
  </trkpt>
  <trkpt lat="32.768801" lon="-3.255561">
   <ele>1478.00</ele>
   <time>2014-04-01T10:36:49Z</time>
  </trkpt>
  <trkpt lat="32.768549" lon="-3.255648">
   <ele>1478.00</ele>
   <time>2014-04-01T10:36:52Z</time>
  </trkpt>
  <trkpt lat="32.768312" lon="-3.255662">
   <ele>1480.00</ele>
   <time>2014-04-01T10:36:55Z</time>
  </trkpt>
  <trkpt lat="32.768085" lon="-3.255703">
   <ele>1481.00</ele>
   <time>2014-04-01T10:36:58Z</time>
  </trkpt>
  <trkpt lat="32.767890" lon="-3.255823">
   <ele>1481.00</ele>
   <time>2014-04-01T10:37:01Z</time>
  </trkpt>
  <trkpt lat="32.767680" lon="-3.255937">
   <ele>1482.00</ele>
   <time>2014-04-01T10:37:04Z</time>
  </trkpt>
  <trkpt lat="32.767463" lon="-3.256026">
   <ele>1483.00</ele>
   <time>2014-04-01T10:37:07Z</time>
  </trkpt>
  <trkpt lat="32.767247" lon="-3.256175">
   <ele>1482.00</ele>
   <time>2014-04-01T10:37:10Z</time>
  </trkpt>
  <trkpt lat="32.767044" lon="-3.256380">
   <ele>1481.00</ele>
   <time>2014-04-01T10:37:13Z</time>
  </trkpt>
  <trkpt lat="32.766856" lon="-3.256513">
   <ele>1481.00</ele>
   <time>2014-04-01T10:37:16Z</time>
  </trkpt>
  <trkpt lat="32.766648" lon="-3.256380">
   <ele>1481.00</ele>
   <time>2014-04-01T10:37:20Z</time>
  </trkpt>
  <trkpt lat="32.766516" lon="-3.256175">
   <ele>1481.00</ele>
   <time>2014-04-01T10:37:23Z</time>
  </trkpt>
  <trkpt lat="32.766384" lon="-3.255987">
   <ele>1482.00</ele>
   <time>2014-04-01T10:37:26Z</time>
  </trkpt>
  <trkpt lat="32.766321" lon="-3.255902">
   <ele>1482.00</ele>
   <time>2014-04-01T10:37:42Z</time>
  </trkpt>
  <trkpt lat="32.766324" lon="-3.255900">
   <ele>1482.00</ele>
   <time>2014-04-01T10:37:57Z</time>
  </trkpt>
  <trkpt lat="32.766326" lon="-3.255899">
   <ele>1482.00</ele>
   <time>2014-04-01T10:38:12Z</time>
  </trkpt>
  <trkpt lat="32.766328" lon="-3.255899">
   <ele>1482.00</ele>
   <time>2014-04-01T10:38:28Z</time>
  </trkpt>
  <trkpt lat="32.766282" lon="-3.255880">
   <ele>1482.00</ele>
   <time>2014-04-01T10:38:43Z</time>
  </trkpt>
  <trkpt lat="32.766099" lon="-3.255837">
   <ele>1481.00</ele>
   <time>2014-04-01T10:38:48Z</time>
  </trkpt>
  <trkpt lat="32.765889" lon="-3.255792">
   <ele>1479.00</ele>
   <time>2014-04-01T10:38:52Z</time>
  </trkpt>
  <trkpt lat="32.765709" lon="-3.255694">
   <ele>1478.00</ele>
   <time>2014-04-01T10:38:55Z</time>
  </trkpt>
  <trkpt lat="32.765543" lon="-3.255533">
   <ele>1477.00</ele>
   <time>2014-04-01T10:38:58Z</time>
  </trkpt>
  <trkpt lat="32.765382" lon="-3.255360">
   <ele>1477.00</ele>
   <time>2014-04-01T10:39:01Z</time>
  </trkpt>
  <trkpt lat="32.765230" lon="-3.255129">
   <ele>1475.00</ele>
   <time>2014-04-01T10:39:04Z</time>
  </trkpt>
  <trkpt lat="32.764979" lon="-3.254667">
   <ele>1473.00</ele>
   <time>2014-04-01T10:39:09Z</time>
  </trkpt>
  <trkpt lat="32.764857" lon="-3.254472">
   <ele>1471.00</ele>
   <time>2014-04-01T10:39:11Z</time>
  </trkpt>
  <trkpt lat="32.764724" lon="-3.254288">
   <ele>1470.00</ele>
   <time>2014-04-01T10:39:13Z</time>
  </trkpt>
  <trkpt lat="32.764592" lon="-3.254103">
   <ele>1469.00</ele>
   <time>2014-04-01T10:39:15Z</time>
  </trkpt>
  <trkpt lat="32.764484" lon="-3.253898">
   <ele>1468.00</ele>
   <time>2014-04-01T10:39:17Z</time>
  </trkpt>
  <trkpt lat="32.764394" lon="-3.253687">
   <ele>1467.00</ele>
   <time>2014-04-01T10:39:19Z</time>
  </trkpt>
  <trkpt lat="32.764278" lon="-3.253407">
   <ele>1466.00</ele>
   <time>2014-04-01T10:39:22Z</time>
  </trkpt>
  <trkpt lat="32.764187" lon="-3.253215">
   <ele>1466.00</ele>
   <time>2014-04-01T10:39:25Z</time>
  </trkpt>
  <trkpt lat="32.764141" lon="-3.253122">
   <ele>1466.00</ele>
   <time>2014-04-01T10:39:40Z</time>
  </trkpt>
  <trkpt lat="32.764008" lon="-3.252907">
   <ele>1465.00</ele>
   <time>2014-04-01T10:39:46Z</time>
  </trkpt>
  <trkpt lat="32.763894" lon="-3.252711">
   <ele>1465.00</ele>
   <time>2014-04-01T10:39:49Z</time>
  </trkpt>
  <trkpt lat="32.763806" lon="-3.252466">
   <ele>1464.00</ele>
   <time>2014-04-01T10:39:52Z</time>
  </trkpt>
  <trkpt lat="32.763682" lon="-3.252236">
   <ele>1463.00</ele>
   <time>2014-04-01T10:39:55Z</time>
  </trkpt>
  <trkpt lat="32.763462" lon="-3.251972">
   <ele>1462.00</ele>
   <time>2014-04-01T10:39:59Z</time>
  </trkpt>
  <trkpt lat="32.763280" lon="-3.251825">
   <ele>1461.00</ele>
   <time>2014-04-01T10:40:02Z</time>
  </trkpt>
  <trkpt lat="32.762992" lon="-3.251637">
   <ele>1458.00</ele>
   <time>2014-04-01T10:40:06Z</time>
  </trkpt>
  <trkpt lat="32.762559" lon="-3.251302">
   <ele>1459.00</ele>
   <time>2014-04-01T10:40:13Z</time>
  </trkpt>
  <trkpt lat="32.762336" lon="-3.251217">
   <ele>1459.00</ele>
   <time>2014-04-01T10:40:16Z</time>
  </trkpt>
  <trkpt lat="32.762075" lon="-3.251243">
   <ele>1460.00</ele>
   <time>2014-04-01T10:40:19Z</time>
  </trkpt>
  <trkpt lat="32.761283" lon="-3.251430">
   <ele>1459.00</ele>
   <time>2014-04-01T10:40:27Z</time>
  </trkpt>
  <trkpt lat="32.761034" lon="-3.251488">
   <ele>1458.00</ele>
   <time>2014-04-01T10:40:30Z</time>
  </trkpt>
  <trkpt lat="32.760796" lon="-3.251431">
   <ele>1459.00</ele>
   <time>2014-04-01T10:40:33Z</time>
  </trkpt>
  <trkpt lat="32.760600" lon="-3.251227">
   <ele>1460.00</ele>
   <time>2014-04-01T10:40:36Z</time>
  </trkpt>
  <trkpt lat="32.760414" lon="-3.251055">
   <ele>1460.00</ele>
   <time>2014-04-01T10:40:39Z</time>
  </trkpt>
  <trkpt lat="32.760202" lon="-3.250967">
   <ele>1460.00</ele>
   <time>2014-04-01T10:40:42Z</time>
  </trkpt>
  <trkpt lat="32.759969" lon="-3.250923">
   <ele>1461.00</ele>
   <time>2014-04-01T10:40:45Z</time>
  </trkpt>
  <trkpt lat="32.759751" lon="-3.250960">
   <ele>1462.00</ele>
   <time>2014-04-01T10:40:48Z</time>
  </trkpt>
  <trkpt lat="32.759550" lon="-3.251094">
   <ele>1461.00</ele>
   <time>2014-04-01T10:40:51Z</time>
  </trkpt>
  <trkpt lat="32.759345" lon="-3.251206">
   <ele>1461.00</ele>
   <time>2014-04-01T10:40:54Z</time>
  </trkpt>
  <trkpt lat="32.759172" lon="-3.251161">
   <ele>1462.00</ele>
   <time>2014-04-01T10:40:57Z</time>
  </trkpt>
  <trkpt lat="32.759085" lon="-3.250942">
   <ele>1463.00</ele>
   <time>2014-04-01T10:41:00Z</time>
  </trkpt>
  <trkpt lat="32.759016" lon="-3.250683">
   <ele>1464.00</ele>
   <time>2014-04-01T10:41:03Z</time>
  </trkpt>
  <trkpt lat="32.758912" lon="-3.250425">
   <ele>1466.00</ele>
   <time>2014-04-01T10:41:06Z</time>
  </trkpt>
  <trkpt lat="32.758504" lon="-3.249587">
   <ele>1472.00</ele>
   <time>2014-04-01T10:41:16Z</time>
  </trkpt>
  <trkpt lat="32.758397" lon="-3.249298">
   <ele>1474.00</ele>
   <time>2014-04-01T10:41:19Z</time>
  </trkpt>
  <trkpt lat="32.758368" lon="-3.249082">
   <ele>1475.00</ele>
   <time>2014-04-01T10:41:21Z</time>
  </trkpt>
  <trkpt lat="32.758341" lon="-3.248748">
   <ele>1477.00</ele>
   <time>2014-04-01T10:41:24Z</time>
  </trkpt>
  <trkpt lat="32.758320" lon="-3.248435">
   <ele>1479.00</ele>
   <time>2014-04-01T10:41:27Z</time>
  </trkpt>
  <trkpt lat="32.758223" lon="-3.248175">
   <ele>1481.00</ele>
   <time>2014-04-01T10:41:30Z</time>
  </trkpt>
  <trkpt lat="32.758012" lon="-3.248007">
   <ele>1482.00</ele>
   <time>2014-04-01T10:41:33Z</time>
  </trkpt>
  <trkpt lat="32.757795" lon="-3.247848">
   <ele>1484.00</ele>
   <time>2014-04-01T10:41:36Z</time>
  </trkpt>
  <trkpt lat="32.757691" lon="-3.247600">
   <ele>1486.00</ele>
   <time>2014-04-01T10:41:39Z</time>
  </trkpt>
  <trkpt lat="32.757593" lon="-3.247356">
   <ele>1487.00</ele>
   <time>2014-04-01T10:41:42Z</time>
  </trkpt>
  <trkpt lat="32.757406" lon="-3.247261">
   <ele>1488.00</ele>
   <time>2014-04-01T10:41:45Z</time>
  </trkpt>
  <trkpt lat="32.757205" lon="-3.247203">
   <ele>1489.00</ele>
   <time>2014-04-01T10:41:49Z</time>
  </trkpt>
  <trkpt lat="32.757041" lon="-3.247096">
   <ele>1490.00</ele>
   <time>2014-04-01T10:41:53Z</time>
  </trkpt>
  <trkpt lat="32.756887" lon="-3.246903">
   <ele>1488.00</ele>
   <time>2014-04-01T10:41:57Z</time>
  </trkpt>
  <trkpt lat="32.756876" lon="-3.246671">
   <ele>1486.00</ele>
   <time>2014-04-01T10:42:01Z</time>
  </trkpt>
  <trkpt lat="32.756845" lon="-3.246438">
   <ele>1485.00</ele>
   <time>2014-04-01T10:42:05Z</time>
  </trkpt>
  <trkpt lat="32.756698" lon="-3.246219">
   <ele>1483.00</ele>
   <time>2014-04-01T10:42:09Z</time>
  </trkpt>
  <trkpt lat="32.756543" lon="-3.246022">
   <ele>1483.00</ele>
   <time>2014-04-01T10:42:13Z</time>
  </trkpt>
  <trkpt lat="32.756532" lon="-3.245786">
   <ele>1484.00</ele>
   <time>2014-04-01T10:42:17Z</time>
  </trkpt>
  <trkpt lat="32.756596" lon="-3.245396">
   <ele>1487.00</ele>
   <time>2014-04-01T10:42:23Z</time>
  </trkpt>
  <trkpt lat="32.756612" lon="-3.245183">
   <ele>1488.00</ele>
   <time>2014-04-01T10:42:27Z</time>
  </trkpt>
  <trkpt lat="32.756503" lon="-3.244965">
   <ele>1487.00</ele>
   <time>2014-04-01T10:42:31Z</time>
  </trkpt>
  <trkpt lat="32.756367" lon="-3.244782">
   <ele>1486.00</ele>
   <time>2014-04-01T10:42:34Z</time>
  </trkpt>
  <trkpt lat="32.756194" lon="-3.244554">
   <ele>1485.00</ele>
   <time>2014-04-01T10:42:38Z</time>
  </trkpt>
  <trkpt lat="32.756088" lon="-3.244380">
   <ele>1484.00</ele>
   <time>2014-04-01T10:42:41Z</time>
  </trkpt>
  <trkpt lat="32.755950" lon="-3.244144">
   <ele>1483.00</ele>
   <time>2014-04-01T10:42:45Z</time>
  </trkpt>
  <trkpt lat="32.755794" lon="-3.244024">
   <ele>1480.00</ele>
   <time>2014-04-01T10:42:48Z</time>
  </trkpt>
  <trkpt lat="32.755606" lon="-3.243971">
   <ele>1478.00</ele>
   <time>2014-04-01T10:42:51Z</time>
  </trkpt>
  <trkpt lat="32.755463" lon="-3.243831">
   <ele>1478.00</ele>
   <time>2014-04-01T10:42:54Z</time>
  </trkpt>
  <trkpt lat="32.755338" lon="-3.243634">
   <ele>1479.00</ele>
   <time>2014-04-01T10:42:57Z</time>
  </trkpt>
  <trkpt lat="32.755229" lon="-3.243431">
   <ele>1479.00</ele>
   <time>2014-04-01T10:43:00Z</time>
  </trkpt>
  <trkpt lat="32.755111" lon="-3.243210">
   <ele>1477.00</ele>
   <time>2014-04-01T10:43:03Z</time>
  </trkpt>
  <trkpt lat="32.754992" lon="-3.242979">
   <ele>1476.00</ele>
   <time>2014-04-01T10:43:06Z</time>
  </trkpt>
  <trkpt lat="32.754836" lon="-3.242749">
   <ele>1474.00</ele>
   <time>2014-04-01T10:43:09Z</time>
  </trkpt>
  <trkpt lat="32.754629" lon="-3.242545">
   <ele>1473.00</ele>
   <time>2014-04-01T10:43:12Z</time>
  </trkpt>
  <trkpt lat="32.754486" lon="-3.242409">
   <ele>1472.00</ele>
   <time>2014-04-01T10:43:14Z</time>
  </trkpt>
  <trkpt lat="32.754278" lon="-3.242247">
   <ele>1471.00</ele>
   <time>2014-04-01T10:43:17Z</time>
  </trkpt>
  <trkpt lat="32.754035" lon="-3.242200">
   <ele>1470.00</ele>
   <time>2014-04-01T10:43:20Z</time>
  </trkpt>
  <trkpt lat="32.753791" lon="-3.242173">
   <ele>1469.00</ele>
   <time>2014-04-01T10:43:23Z</time>
  </trkpt>
  <trkpt lat="32.753557" lon="-3.242100">
   <ele>1468.00</ele>
   <time>2014-04-01T10:43:26Z</time>
  </trkpt>
  <trkpt lat="32.753329" lon="-3.241941">
   <ele>1466.00</ele>
   <time>2014-04-01T10:43:29Z</time>
  </trkpt>
  <trkpt lat="32.753114" lon="-3.241768">
   <ele>1465.00</ele>
   <time>2014-04-01T10:43:32Z</time>
  </trkpt>
  <trkpt lat="32.752806" lon="-3.241554">
   <ele>1464.00</ele>
   <time>2014-04-01T10:43:36Z</time>
  </trkpt>
  <trkpt lat="32.752634" lon="-3.241476">
   <ele>1463.00</ele>
   <time>2014-04-01T10:43:38Z</time>
  </trkpt>
  <trkpt lat="32.752388" lon="-3.241372">
   <ele>1463.00</ele>
   <time>2014-04-01T10:43:41Z</time>
  </trkpt>
  <trkpt lat="32.752107" lon="-3.241120">
   <ele>1459.00</ele>
   <time>2014-04-01T10:43:45Z</time>
  </trkpt>
  <trkpt lat="32.751945" lon="-3.241024">
   <ele>1458.00</ele>
   <time>2014-04-01T10:43:47Z</time>
  </trkpt>
  <trkpt lat="32.751684" lon="-3.240978">
   <ele>1457.00</ele>
   <time>2014-04-01T10:43:50Z</time>
  </trkpt>
  <trkpt lat="32.751492" lon="-3.240950">
   <ele>1457.00</ele>
   <time>2014-04-01T10:43:52Z</time>
  </trkpt>
  <trkpt lat="32.751190" lon="-3.240898">
   <ele>1456.00</ele>
   <time>2014-04-01T10:43:55Z</time>
  </trkpt>
  <trkpt lat="32.750987" lon="-3.240875">
   <ele>1456.00</ele>
   <time>2014-04-01T10:43:57Z</time>
  </trkpt>
  <trkpt lat="32.750787" lon="-3.240831">
   <ele>1455.00</ele>
   <time>2014-04-01T10:43:59Z</time>
  </trkpt>
  <trkpt lat="32.750585" lon="-3.240763">
   <ele>1454.00</ele>
   <time>2014-04-01T10:44:01Z</time>
  </trkpt>
  <trkpt lat="32.750375" lon="-3.240678">
   <ele>1453.00</ele>
   <time>2014-04-01T10:44:03Z</time>
  </trkpt>
  <trkpt lat="32.750161" lon="-3.240571">
   <ele>1452.00</ele>
   <time>2014-04-01T10:44:05Z</time>
  </trkpt>
  <trkpt lat="32.749953" lon="-3.240457">
   <ele>1451.00</ele>
   <time>2014-04-01T10:44:07Z</time>
  </trkpt>
  <trkpt lat="32.749763" lon="-3.240373">
   <ele>1451.00</ele>
   <time>2014-04-01T10:44:09Z</time>
  </trkpt>
  <trkpt lat="32.749561" lon="-3.240219">
   <ele>1449.00</ele>
   <time>2014-04-01T10:44:12Z</time>
  </trkpt>
  <trkpt lat="32.749379" lon="-3.240073">
   <ele>1448.00</ele>
   <time>2014-04-01T10:44:15Z</time>
  </trkpt>
  <trkpt lat="32.749166" lon="-3.240025">
   <ele>1447.00</ele>
   <time>2014-04-01T10:44:18Z</time>
  </trkpt>
  <trkpt lat="32.748961" lon="-3.240002">
   <ele>1447.00</ele>
   <time>2014-04-01T10:44:21Z</time>
  </trkpt>
  <trkpt lat="32.748771" lon="-3.239885">
   <ele>1447.00</ele>
   <time>2014-04-01T10:44:24Z</time>
  </trkpt>
  <trkpt lat="32.748647" lon="-3.239702">
   <ele>1447.00</ele>
   <time>2014-04-01T10:44:27Z</time>
  </trkpt>
  <trkpt lat="32.748554" lon="-3.239487">
   <ele>1447.00</ele>
   <time>2014-04-01T10:44:30Z</time>
  </trkpt>
  <trkpt lat="32.748381" lon="-3.239298">
   <ele>1445.00</ele>
   <time>2014-04-01T10:44:33Z</time>
  </trkpt>
  <trkpt lat="32.748215" lon="-3.239050">
   <ele>1444.00</ele>
   <time>2014-04-01T10:44:36Z</time>
  </trkpt>
  <trkpt lat="32.748120" lon="-3.238854">
   <ele>1443.00</ele>
   <time>2014-04-01T10:44:38Z</time>
  </trkpt>
  <trkpt lat="32.748036" lon="-3.238643">
   <ele>1443.00</ele>
   <time>2014-04-01T10:44:40Z</time>
  </trkpt>
  <trkpt lat="32.747969" lon="-3.238416">
   <ele>1443.00</ele>
   <time>2014-04-01T10:44:42Z</time>
  </trkpt>
  <trkpt lat="32.747908" lon="-3.238188">
   <ele>1442.00</ele>
   <time>2014-04-01T10:44:44Z</time>
  </trkpt>
  <trkpt lat="32.747825" lon="-3.237960">
   <ele>1442.00</ele>
   <time>2014-04-01T10:44:46Z</time>
  </trkpt>
  <trkpt lat="32.747725" lon="-3.237734">
   <ele>1442.00</ele>
   <time>2014-04-01T10:44:48Z</time>
  </trkpt>
  <trkpt lat="32.747608" lon="-3.237522">
   <ele>1442.00</ele>
   <time>2014-04-01T10:44:50Z</time>
  </trkpt>
  <trkpt lat="32.747309" lon="-3.237013">
   <ele>1442.00</ele>
   <time>2014-04-01T10:44:55Z</time>
  </trkpt>
  <trkpt lat="32.747268" lon="-3.236778">
   <ele>1440.00</ele>
   <time>2014-04-01T10:44:58Z</time>
  </trkpt>
  <trkpt lat="32.747250" lon="-3.236555">
   <ele>1438.00</ele>
   <time>2014-04-01T10:45:01Z</time>
  </trkpt>
  <trkpt lat="32.747131" lon="-3.236359">
   <ele>1437.00</ele>
   <time>2014-04-01T10:45:04Z</time>
  </trkpt>
  <trkpt lat="32.746944" lon="-3.236229">
   <ele>1437.00</ele>
   <time>2014-04-01T10:45:07Z</time>
  </trkpt>
  <trkpt lat="32.746759" lon="-3.236169">
   <ele>1438.00</ele>
   <time>2014-04-01T10:45:10Z</time>
  </trkpt>
  <trkpt lat="32.746579" lon="-3.236177">
   <ele>1440.00</ele>
   <time>2014-04-01T10:45:13Z</time>
  </trkpt>
  <trkpt lat="32.746367" lon="-3.236147">
   <ele>1442.00</ele>
   <time>2014-04-01T10:45:18Z</time>
  </trkpt>
  <trkpt lat="32.746214" lon="-3.235922">
   <ele>1442.00</ele>
   <time>2014-04-01T10:45:23Z</time>
  </trkpt>
  <trkpt lat="32.746130" lon="-3.235706">
   <ele>1443.00</ele>
   <time>2014-04-01T10:45:28Z</time>
  </trkpt>
  <trkpt lat="32.746132" lon="-3.235689">
   <ele>1442.00</ele>
   <time>2014-04-01T10:45:43Z</time>
  </trkpt>
  <trkpt lat="32.746136" lon="-3.235704">
   <ele>1443.00</ele>
   <time>2014-04-01T10:45:59Z</time>
  </trkpt>
  <trkpt lat="32.746137" lon="-3.235710">
   <ele>1444.00</ele>
   <time>2014-04-01T10:46:14Z</time>
  </trkpt>
  <trkpt lat="32.746134" lon="-3.235714">
   <ele>1445.00</ele>
   <time>2014-04-01T10:46:29Z</time>
  </trkpt>
  <trkpt lat="32.746134" lon="-3.235716">
   <ele>1446.00</ele>
   <time>2014-04-01T10:46:45Z</time>
  </trkpt>
  <trkpt lat="32.746113" lon="-3.235663">
   <ele>1445.00</ele>
   <time>2014-04-01T10:47:00Z</time>
  </trkpt>
  <trkpt lat="32.745877" lon="-3.235179">
   <ele>1442.00</ele>
   <time>2014-04-01T10:47:08Z</time>
  </trkpt>
  <trkpt lat="32.745650" lon="-3.234772">
   <ele>1440.00</ele>
   <time>2014-04-01T10:47:13Z</time>
  </trkpt>
  <trkpt lat="32.745548" lon="-3.234522">
   <ele>1439.00</ele>
   <time>2014-04-01T10:47:16Z</time>
  </trkpt>
  <trkpt lat="32.745476" lon="-3.234265">
   <ele>1438.00</ele>
   <time>2014-04-01T10:47:19Z</time>
  </trkpt>
  <trkpt lat="32.745403" lon="-3.234017">
   <ele>1436.00</ele>
   <time>2014-04-01T10:47:22Z</time>
  </trkpt>
  <trkpt lat="32.745320" lon="-3.233802">
   <ele>1435.00</ele>
   <time>2014-04-01T10:47:25Z</time>
  </trkpt>
  <trkpt lat="32.745204" lon="-3.233556">
   <ele>1433.00</ele>
   <time>2014-04-01T10:47:29Z</time>
  </trkpt>
  <trkpt lat="32.744894" lon="-3.232943">
   <ele>1429.00</ele>
   <time>2014-04-01T10:47:38Z</time>
  </trkpt>
  <trkpt lat="32.744830" lon="-3.232712">
   <ele>1427.00</ele>
   <time>2014-04-01T10:47:41Z</time>
  </trkpt>
  <trkpt lat="32.744737" lon="-3.232468">
   <ele>1425.00</ele>
   <time>2014-04-01T10:47:44Z</time>
  </trkpt>
  <trkpt lat="32.744593" lon="-3.232247">
   <ele>1424.00</ele>
   <time>2014-04-01T10:47:47Z</time>
  </trkpt>
  <trkpt lat="32.744457" lon="-3.232018">
   <ele>1424.00</ele>
   <time>2014-04-01T10:47:50Z</time>
  </trkpt>
  <trkpt lat="32.744325" lon="-3.231826">
   <ele>1424.00</ele>
   <time>2014-04-01T10:47:53Z</time>
  </trkpt>
  <trkpt lat="32.744295" lon="-3.231599">
   <ele>1424.00</ele>
   <time>2014-04-01T10:47:56Z</time>
  </trkpt>
  <trkpt lat="32.744268" lon="-3.231350">
   <ele>1424.00</ele>
   <time>2014-04-01T10:47:59Z</time>
  </trkpt>
  <trkpt lat="32.744177" lon="-3.231086">
   <ele>1422.00</ele>
   <time>2014-04-01T10:48:02Z</time>
  </trkpt>
  <trkpt lat="32.743999" lon="-3.230718">
   <ele>1420.00</ele>
   <time>2014-04-01T10:48:06Z</time>
  </trkpt>
  <trkpt lat="32.743825" lon="-3.230361">
   <ele>1417.00</ele>
   <time>2014-04-01T10:48:10Z</time>
  </trkpt>
  <trkpt lat="32.743757" lon="-3.230084">
   <ele>1416.00</ele>
   <time>2014-04-01T10:48:13Z</time>
  </trkpt>
  <trkpt lat="32.743693" lon="-3.229795">
   <ele>1414.00</ele>
   <time>2014-04-01T10:48:16Z</time>
  </trkpt>
  <trkpt lat="32.743605" lon="-3.229521">
   <ele>1414.00</ele>
   <time>2014-04-01T10:48:19Z</time>
  </trkpt>
  <trkpt lat="32.743500" lon="-3.229267">
   <ele>1414.00</ele>
   <time>2014-04-01T10:48:22Z</time>
  </trkpt>
  <trkpt lat="32.743383" lon="-3.229056">
   <ele>1414.00</ele>
   <time>2014-04-01T10:48:25Z</time>
  </trkpt>
  <trkpt lat="32.743278" lon="-3.228873">
   <ele>1413.00</ele>
   <time>2014-04-01T10:48:28Z</time>
  </trkpt>
  <trkpt lat="32.743151" lon="-3.228647">
   <ele>1411.00</ele>
   <time>2014-04-01T10:48:31Z</time>
  </trkpt>
  <trkpt lat="32.742996" lon="-3.228428">
   <ele>1411.00</ele>
   <time>2014-04-01T10:48:34Z</time>
  </trkpt>
  <trkpt lat="32.742731" lon="-3.228067">
   <ele>1410.00</ele>
   <time>2014-04-01T10:48:39Z</time>
  </trkpt>
  <trkpt lat="32.742604" lon="-3.227913">
   <ele>1410.00</ele>
   <time>2014-04-01T10:48:41Z</time>
  </trkpt>
  <trkpt lat="32.742475" lon="-3.227729">
   <ele>1409.00</ele>
   <time>2014-04-01T10:48:43Z</time>
  </trkpt>
  <trkpt lat="32.741843" lon="-3.226811">
   <ele>1404.00</ele>
   <time>2014-04-01T10:48:52Z</time>
  </trkpt>
  <trkpt lat="32.741683" lon="-3.226612">
   <ele>1403.00</ele>
   <time>2014-04-01T10:48:54Z</time>
  </trkpt>
  <trkpt lat="32.741514" lon="-3.226444">
   <ele>1403.00</ele>
   <time>2014-04-01T10:48:56Z</time>
  </trkpt>
  <trkpt lat="32.741323" lon="-3.226342">
   <ele>1403.00</ele>
   <time>2014-04-01T10:48:58Z</time>
  </trkpt>
  <trkpt lat="32.741128" lon="-3.226258">
   <ele>1402.00</ele>
   <time>2014-04-01T10:49:00Z</time>
  </trkpt>
  <trkpt lat="32.740943" lon="-3.226133">
   <ele>1402.00</ele>
   <time>2014-04-01T10:49:02Z</time>
  </trkpt>
  <trkpt lat="32.740783" lon="-3.225948">
   <ele>1401.00</ele>
   <time>2014-04-01T10:49:04Z</time>
  </trkpt>
  <trkpt lat="32.740541" lon="-3.225628">
   <ele>1400.00</ele>
   <time>2014-04-01T10:49:07Z</time>
  </trkpt>
  <trkpt lat="32.740359" lon="-3.225414">
   <ele>1400.00</ele>
   <time>2014-04-01T10:49:09Z</time>
  </trkpt>
  <trkpt lat="32.740164" lon="-3.225211">
   <ele>1399.00</ele>
   <time>2014-04-01T10:49:11Z</time>
  </trkpt>
  <trkpt lat="32.739958" lon="-3.225028">
   <ele>1399.00</ele>
   <time>2014-04-01T10:49:13Z</time>
  </trkpt>
  <trkpt lat="32.739186" lon="-3.224381">
   <ele>1395.00</ele>
   <time>2014-04-01T10:49:21Z</time>
  </trkpt>
  <trkpt lat="32.739016" lon="-3.224207">
   <ele>1393.00</ele>
   <time>2014-04-01T10:49:23Z</time>
  </trkpt>
  <trkpt lat="32.738858" lon="-3.224015">
   <ele>1392.00</ele>
   <time>2014-04-01T10:49:25Z</time>
  </trkpt>
  <trkpt lat="32.738561" lon="-3.223623">
   <ele>1390.00</ele>
   <time>2014-04-01T10:49:29Z</time>
  </trkpt>
  <trkpt lat="32.738405" lon="-3.223441">
   <ele>1390.00</ele>
   <time>2014-04-01T10:49:31Z</time>
  </trkpt>
  <trkpt lat="32.738282" lon="-3.223233">
   <ele>1389.00</ele>
   <time>2014-04-01T10:49:33Z</time>
  </trkpt>
  <trkpt lat="32.738133" lon="-3.222919">
   <ele>1388.00</ele>
   <time>2014-04-01T10:49:36Z</time>
  </trkpt>
  <trkpt lat="32.738009" lon="-3.222729">
   <ele>1387.00</ele>
   <time>2014-04-01T10:49:38Z</time>
  </trkpt>
  <trkpt lat="32.737861" lon="-3.222546">
   <ele>1385.00</ele>
   <time>2014-04-01T10:49:40Z</time>
  </trkpt>
  <trkpt lat="32.737691" lon="-3.222372">
   <ele>1384.00</ele>
   <time>2014-04-01T10:49:42Z</time>
  </trkpt>
  <trkpt lat="32.737525" lon="-3.222186">
   <ele>1383.00</ele>
   <time>2014-04-01T10:49:44Z</time>
  </trkpt>
  <trkpt lat="32.737382" lon="-3.221977">
   <ele>1383.00</ele>
   <time>2014-04-01T10:49:46Z</time>
  </trkpt>
  <trkpt lat="32.736814" lon="-3.221071">
   <ele>1383.00</ele>
   <time>2014-04-01T10:49:55Z</time>
  </trkpt>
  <trkpt lat="32.736578" lon="-3.220678">
   <ele>1383.00</ele>
   <time>2014-04-01T10:49:59Z</time>
  </trkpt>
  <trkpt lat="32.736470" lon="-3.220497">
   <ele>1384.00</ele>
   <time>2014-04-01T10:50:01Z</time>
  </trkpt>
  <trkpt lat="32.736304" lon="-3.220259">
   <ele>1386.00</ele>
   <time>2014-04-01T10:50:04Z</time>
  </trkpt>
  <trkpt lat="32.736144" lon="-3.220008">
   <ele>1387.00</ele>
   <time>2014-04-01T10:50:07Z</time>
  </trkpt>
  <trkpt lat="32.736028" lon="-3.219831">
   <ele>1386.00</ele>
   <time>2014-04-01T10:50:09Z</time>
  </trkpt>
  <trkpt lat="32.735875" lon="-3.219673">
   <ele>1385.00</ele>
   <time>2014-04-01T10:50:11Z</time>
  </trkpt>
  <trkpt lat="32.735702" lon="-3.219516">
   <ele>1384.00</ele>
   <time>2014-04-01T10:50:13Z</time>
  </trkpt>
  <trkpt lat="32.735548" lon="-3.219330">
   <ele>1383.00</ele>
   <time>2014-04-01T10:50:15Z</time>
  </trkpt>
  <trkpt lat="32.735412" lon="-3.219116">
   <ele>1382.00</ele>
   <time>2014-04-01T10:50:17Z</time>
  </trkpt>
  <trkpt lat="32.735293" lon="-3.218884">
   <ele>1381.00</ele>
   <time>2014-04-01T10:50:19Z</time>
  </trkpt>
  <trkpt lat="32.735203" lon="-3.218649">
   <ele>1380.00</ele>
   <time>2014-04-01T10:50:21Z</time>
  </trkpt>
  <trkpt lat="32.734919" lon="-3.217861">
   <ele>1376.00</ele>
   <time>2014-04-01T10:50:28Z</time>
  </trkpt>
  <trkpt lat="32.734839" lon="-3.217667">
   <ele>1375.00</ele>
   <time>2014-04-01T10:50:30Z</time>
  </trkpt>
  <trkpt lat="32.734772" lon="-3.217366">
   <ele>1374.00</ele>
   <time>2014-04-01T10:50:33Z</time>
  </trkpt>
  <trkpt lat="32.734797" lon="-3.217061">
   <ele>1374.00</ele>
   <time>2014-04-01T10:50:36Z</time>
  </trkpt>
  <trkpt lat="32.734769" lon="-3.216792">
   <ele>1373.00</ele>
   <time>2014-04-01T10:50:39Z</time>
  </trkpt>
  <trkpt lat="32.734609" lon="-3.216559">
   <ele>1373.00</ele>
   <time>2014-04-01T10:50:42Z</time>
  </trkpt>
  <trkpt lat="32.734361" lon="-3.216233">
   <ele>1372.00</ele>
   <time>2014-04-01T10:50:47Z</time>
  </trkpt>
  <trkpt lat="32.734144" lon="-3.216143">
   <ele>1370.00</ele>
   <time>2014-04-01T10:50:51Z</time>
  </trkpt>
  <trkpt lat="32.733889" lon="-3.216107">
   <ele>1368.00</ele>
   <time>2014-04-01T10:50:56Z</time>
  </trkpt>
  <trkpt lat="32.733747" lon="-3.215899">
   <ele>1368.00</ele>
   <time>2014-04-01T10:51:01Z</time>
  </trkpt>
  <trkpt lat="32.733626" lon="-3.215706">
   <ele>1369.00</ele>
   <time>2014-04-01T10:51:05Z</time>
  </trkpt>
  <trkpt lat="32.733541" lon="-3.215485">
   <ele>1369.00</ele>
   <time>2014-04-01T10:51:09Z</time>
  </trkpt>
  <trkpt lat="32.733500" lon="-3.215207">
   <ele>1368.00</ele>
   <time>2014-04-01T10:51:13Z</time>
  </trkpt>
  <trkpt lat="32.733456" lon="-3.214941">
   <ele>1367.00</ele>
   <time>2014-04-01T10:51:17Z</time>
  </trkpt>
  <trkpt lat="32.733377" lon="-3.214747">
   <ele>1367.00</ele>
   <time>2014-04-01T10:51:20Z</time>
  </trkpt>
  <trkpt lat="32.733259" lon="-3.214564">
   <ele>1367.00</ele>
   <time>2014-04-01T10:51:23Z</time>
  </trkpt>
  <trkpt lat="32.733143" lon="-3.214384">
   <ele>1367.00</ele>
   <time>2014-04-01T10:51:26Z</time>
  </trkpt>
  <trkpt lat="32.733074" lon="-3.214183">
   <ele>1367.00</ele>
   <time>2014-04-01T10:51:29Z</time>
  </trkpt>
  <trkpt lat="32.733040" lon="-3.213916">
   <ele>1365.00</ele>
   <time>2014-04-01T10:51:33Z</time>
  </trkpt>
  <trkpt lat="32.733011" lon="-3.213658">
   <ele>1362.00</ele>
   <time>2014-04-01T10:51:37Z</time>
  </trkpt>
  <trkpt lat="32.733088" lon="-3.213431">
   <ele>1362.00</ele>
   <time>2014-04-01T10:51:41Z</time>
  </trkpt>
  <trkpt lat="32.733207" lon="-3.213102">
   <ele>1365.00</ele>
   <time>2014-04-01T10:51:47Z</time>
  </trkpt>
  <trkpt lat="32.733207" lon="-3.212869">
   <ele>1366.00</ele>
   <time>2014-04-01T10:51:51Z</time>
  </trkpt>
  <trkpt lat="32.733126" lon="-3.212656">
   <ele>1366.00</ele>
   <time>2014-04-01T10:51:55Z</time>
  </trkpt>
  <trkpt lat="32.732967" lon="-3.212534">
   <ele>1367.00</ele>
   <time>2014-04-01T10:51:59Z</time>
  </trkpt>
  <trkpt lat="32.732815" lon="-3.212386">
   <ele>1366.00</ele>
   <time>2014-04-01T10:52:03Z</time>
  </trkpt>
  <trkpt lat="32.732702" lon="-3.212187">
   <ele>1366.00</ele>
   <time>2014-04-01T10:52:07Z</time>
  </trkpt>
  <trkpt lat="32.732591" lon="-3.211973">
   <ele>1366.00</ele>
   <time>2014-04-01T10:52:11Z</time>
  </trkpt>
  <trkpt lat="32.732346" lon="-3.211615">
   <ele>1364.00</ele>
   <time>2014-04-01T10:52:18Z</time>
  </trkpt>
  <trkpt lat="32.732156" lon="-3.211332">
   <ele>1365.00</ele>
   <time>2014-04-01T10:52:23Z</time>
  </trkpt>
  <trkpt lat="32.731970" lon="-3.211023">
   <ele>1365.00</ele>
   <time>2014-04-01T10:52:29Z</time>
  </trkpt>
  <trkpt lat="32.731823" lon="-3.210843">
   <ele>1366.00</ele>
   <time>2014-04-01T10:52:33Z</time>
  </trkpt>
  <trkpt lat="32.731678" lon="-3.210631">
   <ele>1367.00</ele>
   <time>2014-04-01T10:52:37Z</time>
  </trkpt>
  <trkpt lat="32.731471" lon="-3.210303">
   <ele>1368.00</ele>
   <time>2014-04-01T10:52:45Z</time>
  </trkpt>
  <trkpt lat="32.731465" lon="-3.210298">
   <ele>1368.00</ele>
   <time>2014-04-01T10:53:01Z</time>
  </trkpt>
  <trkpt lat="32.731470" lon="-3.210307">
   <ele>1369.00</ele>
   <time>2014-04-01T10:53:16Z</time>
  </trkpt>
  <trkpt lat="32.731421" lon="-3.210250">
   <ele>1369.00</ele>
   <time>2014-04-01T10:53:32Z</time>
  </trkpt>
  <trkpt lat="32.731266" lon="-3.210036">
   <ele>1368.00</ele>
   <time>2014-04-01T10:53:37Z</time>
  </trkpt>
  <trkpt lat="32.730862" lon="-3.209459">
   <ele>1367.00</ele>
   <time>2014-04-01T10:53:45Z</time>
  </trkpt>
  <trkpt lat="32.730670" lon="-3.209188">
   <ele>1366.00</ele>
   <time>2014-04-01T10:53:48Z</time>
  </trkpt>
  <trkpt lat="32.730479" lon="-3.208900">
   <ele>1366.00</ele>
   <time>2014-04-01T10:53:51Z</time>
  </trkpt>
  <trkpt lat="32.730367" lon="-3.208711">
   <ele>1366.00</ele>
   <time>2014-04-01T10:53:53Z</time>
  </trkpt>
  <trkpt lat="32.730266" lon="-3.208527">
   <ele>1365.00</ele>
   <time>2014-04-01T10:53:55Z</time>
  </trkpt>
  <trkpt lat="32.730128" lon="-3.208252">
   <ele>1365.00</ele>
   <time>2014-04-01T10:53:58Z</time>
  </trkpt>
  <trkpt lat="32.729953" lon="-3.208015">
   <ele>1364.00</ele>
   <time>2014-04-01T10:54:01Z</time>
  </trkpt>
  <trkpt lat="32.729805" lon="-3.207766">
   <ele>1363.00</ele>
   <time>2014-04-01T10:54:04Z</time>
  </trkpt>
  <trkpt lat="32.729656" lon="-3.207515">
   <ele>1364.00</ele>
   <time>2014-04-01T10:54:07Z</time>
  </trkpt>
  <trkpt lat="32.729473" lon="-3.207250">
   <ele>1364.00</ele>
   <time>2014-04-01T10:54:10Z</time>
  </trkpt>
  <trkpt lat="32.729276" lon="-3.206936">
   <ele>1363.00</ele>
   <time>2014-04-01T10:54:13Z</time>
  </trkpt>
  <trkpt lat="32.729067" lon="-3.206595">
   <ele>1363.00</ele>
   <time>2014-04-01T10:54:16Z</time>
  </trkpt>
  <trkpt lat="32.728724" lon="-3.206053">
   <ele>1362.00</ele>
   <time>2014-04-01T10:54:21Z</time>
  </trkpt>
  <trkpt lat="32.728623" lon="-3.205820">
   <ele>1362.00</ele>
   <time>2014-04-01T10:54:23Z</time>
  </trkpt>
  <trkpt lat="32.728499" lon="-3.205449">
   <ele>1362.00</ele>
   <time>2014-04-01T10:54:26Z</time>
  </trkpt>
  <trkpt lat="32.728379" lon="-3.205220">
   <ele>1361.00</ele>
   <time>2014-04-01T10:54:28Z</time>
  </trkpt>
  <trkpt lat="32.728262" lon="-3.204987">
   <ele>1361.00</ele>
   <time>2014-04-01T10:54:30Z</time>
  </trkpt>
  <trkpt lat="32.728169" lon="-3.204734">
   <ele>1360.00</ele>
   <time>2014-04-01T10:54:32Z</time>
  </trkpt>
  <trkpt lat="32.728099" lon="-3.204458">
   <ele>1360.00</ele>
   <time>2014-04-01T10:54:34Z</time>
  </trkpt>
  <trkpt lat="32.728042" lon="-3.204170">
   <ele>1360.00</ele>
   <time>2014-04-01T10:54:36Z</time>
  </trkpt>
  <trkpt lat="32.728002" lon="-3.203869">
   <ele>1359.00</ele>
   <time>2014-04-01T10:54:38Z</time>
  </trkpt>
  <trkpt lat="32.727939" lon="-3.203404">
   <ele>1359.00</ele>
   <time>2014-04-01T10:54:41Z</time>
  </trkpt>
  <trkpt lat="32.727862" lon="-3.203101">
   <ele>1358.00</ele>
   <time>2014-04-01T10:54:43Z</time>
  </trkpt>
  <trkpt lat="32.727737" lon="-3.202815">
   <ele>1358.00</ele>
   <time>2014-04-01T10:54:45Z</time>
  </trkpt>
  <trkpt lat="32.727601" lon="-3.202526">
   <ele>1358.00</ele>
   <time>2014-04-01T10:54:47Z</time>
  </trkpt>
  <trkpt lat="32.727475" lon="-3.202215">
   <ele>1357.00</ele>
   <time>2014-04-01T10:54:49Z</time>
  </trkpt>
  <trkpt lat="32.727343" lon="-3.201901">
   <ele>1357.00</ele>
   <time>2014-04-01T10:54:51Z</time>
  </trkpt>
  <trkpt lat="32.727080" lon="-3.201282">
   <ele>1355.00</ele>
   <time>2014-04-01T10:54:55Z</time>
  </trkpt>
  <trkpt lat="32.726974" lon="-3.200954">
   <ele>1355.00</ele>
   <time>2014-04-01T10:54:57Z</time>
  </trkpt>
  <trkpt lat="32.726880" lon="-3.200624">
   <ele>1354.00</ele>
   <time>2014-04-01T10:54:59Z</time>
  </trkpt>
  <trkpt lat="32.726812" lon="-3.200287">
   <ele>1354.00</ele>
   <time>2014-04-01T10:55:01Z</time>
  </trkpt>
  <trkpt lat="32.726721" lon="-3.199599">
   <ele>1352.00</ele>
   <time>2014-04-01T10:55:05Z</time>
  </trkpt>
  <trkpt lat="32.726671" lon="-3.199274">
   <ele>1352.00</ele>
   <time>2014-04-01T10:55:07Z</time>
  </trkpt>
  <trkpt lat="32.726579" lon="-3.198962">
   <ele>1351.00</ele>
   <time>2014-04-01T10:55:09Z</time>
  </trkpt>
  <trkpt lat="32.726452" lon="-3.198655">
   <ele>1351.00</ele>
   <time>2014-04-01T10:55:11Z</time>
  </trkpt>
  <trkpt lat="32.726308" lon="-3.198357">
   <ele>1350.00</ele>
   <time>2014-04-01T10:55:13Z</time>
  </trkpt>
  <trkpt lat="32.726094" lon="-3.197923">
   <ele>1350.00</ele>
   <time>2014-04-01T10:55:16Z</time>
  </trkpt>
  <trkpt lat="32.725921" lon="-3.197526">
   <ele>1349.00</ele>
   <time>2014-04-01T10:55:19Z</time>
  </trkpt>
  <trkpt lat="32.725824" lon="-3.197299">
   <ele>1348.00</ele>
   <time>2014-04-01T10:55:21Z</time>
  </trkpt>
  <trkpt lat="32.725721" lon="-3.197071">
   <ele>1348.00</ele>
   <time>2014-04-01T10:55:23Z</time>
  </trkpt>
  <trkpt lat="32.725300" lon="-3.196191">
   <ele>1347.00</ele>
   <time>2014-04-01T10:55:30Z</time>
  </trkpt>
  <trkpt lat="32.725115" lon="-3.195818">
   <ele>1346.00</ele>
   <time>2014-04-01T10:55:33Z</time>
  </trkpt>
  <trkpt lat="32.725021" lon="-3.195571">
   <ele>1346.00</ele>
   <time>2014-04-01T10:55:35Z</time>
  </trkpt>
  <trkpt lat="32.724958" lon="-3.195346">
   <ele>1346.00</ele>
   <time>2014-04-01T10:55:37Z</time>
  </trkpt>
  <trkpt lat="32.724934" lon="-3.195134">
   <ele>1345.00</ele>
   <time>2014-04-01T10:55:39Z</time>
  </trkpt>
  <trkpt lat="32.724855" lon="-3.194827">
   <ele>1344.00</ele>
   <time>2014-04-01T10:55:42Z</time>
  </trkpt>
  <trkpt lat="32.724762" lon="-3.194619">
   <ele>1344.00</ele>
   <time>2014-04-01T10:55:44Z</time>
  </trkpt>
  <trkpt lat="32.724656" lon="-3.194400">
   <ele>1344.00</ele>
   <time>2014-04-01T10:55:46Z</time>
  </trkpt>
  <trkpt lat="32.724490" lon="-3.194066">
   <ele>1343.00</ele>
   <time>2014-04-01T10:55:49Z</time>
  </trkpt>
  <trkpt lat="32.724392" lon="-3.193828">
   <ele>1343.00</ele>
   <time>2014-04-01T10:55:51Z</time>
  </trkpt>
  <trkpt lat="32.724322" lon="-3.193565">
   <ele>1343.00</ele>
   <time>2014-04-01T10:55:53Z</time>
  </trkpt>
  <trkpt lat="32.724286" lon="-3.193283">
   <ele>1343.00</ele>
   <time>2014-04-01T10:55:55Z</time>
  </trkpt>
  <trkpt lat="32.724286" lon="-3.193008">
   <ele>1343.00</ele>
   <time>2014-04-01T10:55:57Z</time>
  </trkpt>
  <trkpt lat="32.724286" lon="-3.192749">
   <ele>1343.00</ele>
   <time>2014-04-01T10:55:59Z</time>
  </trkpt>
  <trkpt lat="32.724238" lon="-3.192491">
   <ele>1343.00</ele>
   <time>2014-04-01T10:56:01Z</time>
  </trkpt>
  <trkpt lat="32.724141" lon="-3.192236">
   <ele>1343.00</ele>
   <time>2014-04-01T10:56:03Z</time>
  </trkpt>
  <trkpt lat="32.723874" lon="-3.191605">
   <ele>1342.00</ele>
   <time>2014-04-01T10:56:08Z</time>
  </trkpt>
  <trkpt lat="32.723799" lon="-3.191383">
   <ele>1342.00</ele>
   <time>2014-04-01T10:56:10Z</time>
  </trkpt>
  <trkpt lat="32.723750" lon="-3.191167">
   <ele>1342.00</ele>
   <time>2014-04-01T10:56:12Z</time>
  </trkpt>
  <trkpt lat="32.723683" lon="-3.190957">
   <ele>1342.00</ele>
   <time>2014-04-01T10:56:14Z</time>
  </trkpt>
  <trkpt lat="32.723568" lon="-3.190774">
   <ele>1341.00</ele>
   <time>2014-04-01T10:56:16Z</time>
  </trkpt>
  <trkpt lat="32.723412" lon="-3.190612">
   <ele>1339.00</ele>
   <time>2014-04-01T10:56:18Z</time>
  </trkpt>
  <trkpt lat="32.723248" lon="-3.190449">
   <ele>1338.00</ele>
   <time>2014-04-01T10:56:20Z</time>
  </trkpt>
  <trkpt lat="32.723081" lon="-3.190293">
   <ele>1337.00</ele>
   <time>2014-04-01T10:56:22Z</time>
  </trkpt>
  <trkpt lat="32.722891" lon="-3.190183">
   <ele>1336.00</ele>
   <time>2014-04-01T10:56:24Z</time>
  </trkpt>
  <trkpt lat="32.722688" lon="-3.190132">
   <ele>1336.00</ele>
   <time>2014-04-01T10:56:26Z</time>
  </trkpt>
  <trkpt lat="32.722500" lon="-3.190082">
   <ele>1336.00</ele>
   <time>2014-04-01T10:56:28Z</time>
  </trkpt>
  <trkpt lat="32.722336" lon="-3.189964">
   <ele>1336.00</ele>
   <time>2014-04-01T10:56:30Z</time>
  </trkpt>
  <trkpt lat="32.722189" lon="-3.189790">
   <ele>1335.00</ele>
   <time>2014-04-01T10:56:32Z</time>
  </trkpt>
  <trkpt lat="32.722028" lon="-3.189620">
   <ele>1335.00</ele>
   <time>2014-04-01T10:56:34Z</time>
  </trkpt>
  <trkpt lat="32.721858" lon="-3.189474">
   <ele>1335.00</ele>
   <time>2014-04-01T10:56:36Z</time>
  </trkpt>
  <trkpt lat="32.721409" lon="-3.189104">
   <ele>1333.00</ele>
   <time>2014-04-01T10:56:41Z</time>
  </trkpt>
  <trkpt lat="32.721253" lon="-3.188934">
   <ele>1332.00</ele>
   <time>2014-04-01T10:56:43Z</time>
  </trkpt>
  <trkpt lat="32.721098" lon="-3.188766">
   <ele>1331.00</ele>
   <time>2014-04-01T10:56:45Z</time>
  </trkpt>
  <trkpt lat="32.720925" lon="-3.188630">
   <ele>1331.00</ele>
   <time>2014-04-01T10:56:47Z</time>
  </trkpt>
  <trkpt lat="32.720646" lon="-3.188428">
   <ele>1330.00</ele>
   <time>2014-04-01T10:56:50Z</time>
  </trkpt>
  <trkpt lat="32.720475" lon="-3.188251">
   <ele>1330.00</ele>
   <time>2014-04-01T10:56:52Z</time>
  </trkpt>
  <trkpt lat="32.720315" lon="-3.188040">
   <ele>1330.00</ele>
   <time>2014-04-01T10:56:54Z</time>
  </trkpt>
  <trkpt lat="32.720081" lon="-3.187690">
   <ele>1329.00</ele>
   <time>2014-04-01T10:56:57Z</time>
  </trkpt>
  <trkpt lat="32.719842" lon="-3.187327">
   <ele>1329.00</ele>
   <time>2014-04-01T10:57:00Z</time>
  </trkpt>
  <trkpt lat="32.719207" lon="-3.186377">
   <ele>1328.00</ele>
   <time>2014-04-01T10:57:08Z</time>
  </trkpt>
  <trkpt lat="32.719073" lon="-3.186140">
   <ele>1328.00</ele>
   <time>2014-04-01T10:57:10Z</time>
  </trkpt>
  <trkpt lat="32.718959" lon="-3.185900">
   <ele>1327.00</ele>
   <time>2014-04-01T10:57:12Z</time>
  </trkpt>
  <trkpt lat="32.718872" lon="-3.185669">
   <ele>1327.00</ele>
   <time>2014-04-01T10:57:14Z</time>
  </trkpt>
  <trkpt lat="32.718753" lon="-3.185471">
   <ele>1327.00</ele>
   <time>2014-04-01T10:57:16Z</time>
  </trkpt>
  <trkpt lat="32.718637" lon="-3.185253">
   <ele>1326.00</ele>
   <time>2014-04-01T10:57:18Z</time>
  </trkpt>
  <trkpt lat="32.718531" lon="-3.185010">
   <ele>1326.00</ele>
   <time>2014-04-01T10:57:20Z</time>
  </trkpt>
  <trkpt lat="32.718424" lon="-3.184761">
   <ele>1326.00</ele>
   <time>2014-04-01T10:57:22Z</time>
  </trkpt>
  <trkpt lat="32.718301" lon="-3.184516">
   <ele>1326.00</ele>
   <time>2014-04-01T10:57:24Z</time>
  </trkpt>
  <trkpt lat="32.718153" lon="-3.184295">
   <ele>1326.00</ele>
   <time>2014-04-01T10:57:26Z</time>
  </trkpt>
  <trkpt lat="32.717977" lon="-3.184101">
   <ele>1326.00</ele>
   <time>2014-04-01T10:57:28Z</time>
  </trkpt>
  <trkpt lat="32.717799" lon="-3.183893">
   <ele>1325.00</ele>
   <time>2014-04-01T10:57:30Z</time>
  </trkpt>
  <trkpt lat="32.717615" lon="-3.183684">
   <ele>1324.00</ele>
   <time>2014-04-01T10:57:32Z</time>
  </trkpt>
  <trkpt lat="32.717244" lon="-3.183264">
   <ele>1323.00</ele>
   <time>2014-04-01T10:57:36Z</time>
  </trkpt>
  <trkpt lat="32.716936" lon="-3.182856">
   <ele>1322.00</ele>
   <time>2014-04-01T10:57:40Z</time>
  </trkpt>
  <trkpt lat="32.716806" lon="-3.182667">
   <ele>1321.00</ele>
   <time>2014-04-01T10:57:42Z</time>
  </trkpt>
  <trkpt lat="32.716714" lon="-3.182441">
   <ele>1320.00</ele>
   <time>2014-04-01T10:57:44Z</time>
  </trkpt>
  <trkpt lat="32.716580" lon="-3.182094">
   <ele>1319.00</ele>
   <time>2014-04-01T10:57:47Z</time>
  </trkpt>
  <trkpt lat="32.716483" lon="-3.181888">
   <ele>1318.00</ele>
   <time>2014-04-01T10:57:49Z</time>
  </trkpt>
  <trkpt lat="32.716430" lon="-3.181665">
   <ele>1318.00</ele>
   <time>2014-04-01T10:57:51Z</time>
  </trkpt>
  <trkpt lat="32.716397" lon="-3.181425">
   <ele>1318.00</ele>
   <time>2014-04-01T10:57:53Z</time>
  </trkpt>
  <trkpt lat="32.716352" lon="-3.181044">
   <ele>1317.00</ele>
   <time>2014-04-01T10:57:56Z</time>
  </trkpt>
  <trkpt lat="32.716291" lon="-3.180799">
   <ele>1317.00</ele>
   <time>2014-04-01T10:57:58Z</time>
  </trkpt>
  <trkpt lat="32.716236" lon="-3.180563">
   <ele>1316.00</ele>
   <time>2014-04-01T10:58:00Z</time>
  </trkpt>
  <trkpt lat="32.716208" lon="-3.180322">
   <ele>1316.00</ele>
   <time>2014-04-01T10:58:02Z</time>
  </trkpt>
  <trkpt lat="32.716173" lon="-3.180067">
   <ele>1316.00</ele>
   <time>2014-04-01T10:58:04Z</time>
  </trkpt>
  <trkpt lat="32.716107" lon="-3.179819">
   <ele>1316.00</ele>
   <time>2014-04-01T10:58:06Z</time>
  </trkpt>
  <trkpt lat="32.716037" lon="-3.179586">
   <ele>1316.00</ele>
   <time>2014-04-01T10:58:08Z</time>
  </trkpt>
  <trkpt lat="32.715997" lon="-3.179348">
   <ele>1315.00</ele>
   <time>2014-04-01T10:58:10Z</time>
  </trkpt>
  <trkpt lat="32.715982" lon="-3.179090">
   <ele>1315.00</ele>
   <time>2014-04-01T10:58:12Z</time>
  </trkpt>
  <trkpt lat="32.715943" lon="-3.178831">
   <ele>1315.00</ele>
   <time>2014-04-01T10:58:14Z</time>
  </trkpt>
  <trkpt lat="32.715857" lon="-3.178577">
   <ele>1314.00</ele>
   <time>2014-04-01T10:58:16Z</time>
  </trkpt>
  <trkpt lat="32.715773" lon="-3.178313">
   <ele>1314.00</ele>
   <time>2014-04-01T10:58:18Z</time>
  </trkpt>
  <trkpt lat="32.715717" lon="-3.178048">
   <ele>1314.00</ele>
   <time>2014-04-01T10:58:20Z</time>
  </trkpt>
  <trkpt lat="32.715660" lon="-3.177796">
   <ele>1313.00</ele>
   <time>2014-04-01T10:58:22Z</time>
  </trkpt>
  <trkpt lat="32.715540" lon="-3.177444">
   <ele>1313.00</ele>
   <time>2014-04-01T10:58:25Z</time>
  </trkpt>
  <trkpt lat="32.715399" lon="-3.177108">
   <ele>1313.00</ele>
   <time>2014-04-01T10:58:28Z</time>
  </trkpt>
  <trkpt lat="32.715282" lon="-3.176885">
   <ele>1312.00</ele>
   <time>2014-04-01T10:58:30Z</time>
  </trkpt>
  <trkpt lat="32.715138" lon="-3.176685">
   <ele>1312.00</ele>
   <time>2014-04-01T10:58:32Z</time>
  </trkpt>
  <trkpt lat="32.714933" lon="-3.176391">
   <ele>1312.00</ele>
   <time>2014-04-01T10:58:35Z</time>
  </trkpt>
  <trkpt lat="32.714842" lon="-3.176177">
   <ele>1312.00</ele>
   <time>2014-04-01T10:58:37Z</time>
  </trkpt>
  <trkpt lat="32.714804" lon="-3.175940">
   <ele>1312.00</ele>
   <time>2014-04-01T10:58:39Z</time>
  </trkpt>
  <trkpt lat="32.714817" lon="-3.175684">
   <ele>1311.00</ele>
   <time>2014-04-01T10:58:41Z</time>
  </trkpt>
  <trkpt lat="32.714862" lon="-3.175416">
   <ele>1311.00</ele>
   <time>2014-04-01T10:58:43Z</time>
  </trkpt>
  <trkpt lat="32.714902" lon="-3.175138">
   <ele>1311.00</ele>
   <time>2014-04-01T10:58:45Z</time>
  </trkpt>
  <trkpt lat="32.714926" lon="-3.174853">
   <ele>1310.00</ele>
   <time>2014-04-01T10:58:47Z</time>
  </trkpt>
  <trkpt lat="32.714923" lon="-3.174566">
   <ele>1310.00</ele>
   <time>2014-04-01T10:58:49Z</time>
  </trkpt>
  <trkpt lat="32.714918" lon="-3.174286">
   <ele>1310.00</ele>
   <time>2014-04-01T10:58:51Z</time>
  </trkpt>
  <trkpt lat="32.714933" lon="-3.173878">
   <ele>1310.00</ele>
   <time>2014-04-01T10:58:54Z</time>
  </trkpt>
  <trkpt lat="32.714923" lon="-3.173329">
   <ele>1309.00</ele>
   <time>2014-04-01T10:58:58Z</time>
  </trkpt>
  <trkpt lat="32.714900" lon="-3.173061">
   <ele>1309.00</ele>
   <time>2014-04-01T10:59:00Z</time>
  </trkpt>
  <trkpt lat="32.714834" lon="-3.172498">
   <ele>1308.00</ele>
   <time>2014-04-01T10:59:04Z</time>
  </trkpt>
  <trkpt lat="32.714775" lon="-3.172202">
   <ele>1307.00</ele>
   <time>2014-04-01T10:59:06Z</time>
  </trkpt>
  <trkpt lat="32.714405" lon="-3.170804">
   <ele>1305.00</ele>
   <time>2014-04-01T10:59:15Z</time>
  </trkpt>
  <trkpt lat="32.714264" lon="-3.170358">
   <ele>1305.00</ele>
   <time>2014-04-01T10:59:18Z</time>
  </trkpt>
  <trkpt lat="32.714160" lon="-3.170077">
   <ele>1305.00</ele>
   <time>2014-04-01T10:59:20Z</time>
  </trkpt>
  <trkpt lat="32.713887" lon="-3.169359">
   <ele>1304.00</ele>
   <time>2014-04-01T10:59:25Z</time>
  </trkpt>
  <trkpt lat="32.713522" lon="-3.168203">
   <ele>1302.00</ele>
   <time>2014-04-01T10:59:33Z</time>
  </trkpt>
  <trkpt lat="32.713375" lon="-3.167784">
   <ele>1302.00</ele>
   <time>2014-04-01T10:59:36Z</time>
  </trkpt>
  <trkpt lat="32.713190" lon="-3.167214">
   <ele>1301.00</ele>
   <time>2014-04-01T10:59:40Z</time>
  </trkpt>
  <trkpt lat="32.713060" lon="-3.166950">
   <ele>1301.00</ele>
   <time>2014-04-01T10:59:42Z</time>
  </trkpt>
  <trkpt lat="32.712901" lon="-3.166706">
   <ele>1300.00</ele>
   <time>2014-04-01T10:59:44Z</time>
  </trkpt>
  <trkpt lat="32.712654" lon="-3.166337">
   <ele>1300.00</ele>
   <time>2014-04-01T10:59:47Z</time>
  </trkpt>
  <trkpt lat="32.712509" lon="-3.166064">
   <ele>1299.00</ele>
   <time>2014-04-01T10:59:49Z</time>
  </trkpt>
  <trkpt lat="32.712362" lon="-3.165783">
   <ele>1299.00</ele>
   <time>2014-04-01T10:59:51Z</time>
  </trkpt>
  <trkpt lat="32.712058" lon="-3.165223">
   <ele>1298.00</ele>
   <time>2014-04-01T10:59:55Z</time>
  </trkpt>
  <trkpt lat="32.711923" lon="-3.164927">
   <ele>1298.00</ele>
   <time>2014-04-01T10:59:57Z</time>
  </trkpt>
  <trkpt lat="32.711786" lon="-3.164631">
   <ele>1298.00</ele>
   <time>2014-04-01T10:59:59Z</time>
  </trkpt>
  <trkpt lat="32.711516" lon="-3.164045">
   <ele>1297.00</ele>
   <time>2014-04-01T11:00:03Z</time>
  </trkpt>
  <trkpt lat="32.711399" lon="-3.163744">
   <ele>1297.00</ele>
   <time>2014-04-01T11:00:05Z</time>
  </trkpt>
  <trkpt lat="32.711309" lon="-3.163429">
   <ele>1296.00</ele>
   <time>2014-04-01T11:00:07Z</time>
  </trkpt>
  <trkpt lat="32.711221" lon="-3.163110">
   <ele>1296.00</ele>
   <time>2014-04-01T11:00:09Z</time>
  </trkpt>
  <trkpt lat="32.710936" lon="-3.162146">
   <ele>1294.00</ele>
   <time>2014-04-01T11:00:15Z</time>
  </trkpt>
  <trkpt lat="32.710847" lon="-3.161820">
   <ele>1294.00</ele>
   <time>2014-04-01T11:00:17Z</time>
  </trkpt>
  <trkpt lat="32.710741" lon="-3.161508">
   <ele>1294.00</ele>
   <time>2014-04-01T11:00:19Z</time>
  </trkpt>
  <trkpt lat="32.710579" lon="-3.161053">
   <ele>1293.00</ele>
   <time>2014-04-01T11:00:22Z</time>
  </trkpt>
  <trkpt lat="32.710444" lon="-3.160594">
   <ele>1293.00</ele>
   <time>2014-04-01T11:00:25Z</time>
  </trkpt>
  <trkpt lat="32.710345" lon="-3.160294">
   <ele>1293.00</ele>
   <time>2014-04-01T11:00:27Z</time>
  </trkpt>
  <trkpt lat="32.710279" lon="-3.159978">
   <ele>1292.00</ele>
   <time>2014-04-01T11:00:29Z</time>
  </trkpt>
  <trkpt lat="32.710104" lon="-3.158819">
   <ele>1291.00</ele>
   <time>2014-04-01T11:00:36Z</time>
  </trkpt>
  <trkpt lat="32.710084" lon="-3.158497">
   <ele>1291.00</ele>
   <time>2014-04-01T11:00:38Z</time>
  </trkpt>
  <trkpt lat="32.710041" lon="-3.157684">
   <ele>1290.00</ele>
   <time>2014-04-01T11:00:43Z</time>
  </trkpt>
  <trkpt lat="32.710042" lon="-3.157363">
   <ele>1290.00</ele>
   <time>2014-04-01T11:00:45Z</time>
  </trkpt>
  <trkpt lat="32.710061" lon="-3.156889">
   <ele>1289.00</ele>
   <time>2014-04-01T11:00:48Z</time>
  </trkpt>
  <trkpt lat="32.710110" lon="-3.156251">
   <ele>1289.00</ele>
   <time>2014-04-01T11:00:52Z</time>
  </trkpt>
  <trkpt lat="32.710148" lon="-3.155306">
   <ele>1289.00</ele>
   <time>2014-04-01T11:00:58Z</time>
  </trkpt>
  <trkpt lat="32.710173" lon="-3.154885">
   <ele>1289.00</ele>
   <time>2014-04-01T11:01:01Z</time>
  </trkpt>
  <trkpt lat="32.710184" lon="-3.154612">
   <ele>1289.00</ele>
   <time>2014-04-01T11:01:03Z</time>
  </trkpt>
  <trkpt lat="32.710207" lon="-3.154339">
   <ele>1288.00</ele>
   <time>2014-04-01T11:01:05Z</time>
  </trkpt>
  <trkpt lat="32.710231" lon="-3.154068">
   <ele>1288.00</ele>
   <time>2014-04-01T11:01:07Z</time>
  </trkpt>
  <trkpt lat="32.710243" lon="-3.153794">
   <ele>1288.00</ele>
   <time>2014-04-01T11:01:09Z</time>
  </trkpt>
  <trkpt lat="32.710234" lon="-3.153516">
   <ele>1287.00</ele>
   <time>2014-04-01T11:01:11Z</time>
  </trkpt>
  <trkpt lat="32.710211" lon="-3.153236">
   <ele>1287.00</ele>
   <time>2014-04-01T11:01:13Z</time>
  </trkpt>
  <trkpt lat="32.710161" lon="-3.152968">
   <ele>1287.00</ele>
   <time>2014-04-01T11:01:15Z</time>
  </trkpt>
  <trkpt lat="32.709928" lon="-3.152086">
   <ele>1286.00</ele>
   <time>2014-04-01T11:01:22Z</time>
  </trkpt>
  <trkpt lat="32.709812" lon="-3.151715">
   <ele>1286.00</ele>
   <time>2014-04-01T11:01:25Z</time>
  </trkpt>
  <trkpt lat="32.709715" lon="-3.151479">
   <ele>1285.00</ele>
   <time>2014-04-01T11:01:27Z</time>
  </trkpt>
  <trkpt lat="32.709427" lon="-3.150875">
   <ele>1285.00</ele>
   <time>2014-04-01T11:01:32Z</time>
  </trkpt>
  <trkpt lat="32.709289" lon="-3.150639">
   <ele>1284.00</ele>
   <time>2014-04-01T11:01:34Z</time>
  </trkpt>
  <trkpt lat="32.708681" lon="-3.149696">
   <ele>1283.00</ele>
   <time>2014-04-01T11:01:42Z</time>
  </trkpt>
  <trkpt lat="32.708344" lon="-3.149224">
   <ele>1283.00</ele>
   <time>2014-04-01T11:01:46Z</time>
  </trkpt>
  <trkpt lat="32.708007" lon="-3.148769">
   <ele>1282.00</ele>
   <time>2014-04-01T11:01:50Z</time>
  </trkpt>
  <trkpt lat="32.707767" lon="-3.148438">
   <ele>1282.00</ele>
   <time>2014-04-01T11:01:53Z</time>
  </trkpt>
  <trkpt lat="32.707602" lon="-3.148230">
   <ele>1282.00</ele>
   <time>2014-04-01T11:01:55Z</time>
  </trkpt>
  <trkpt lat="32.707431" lon="-3.148033">
   <ele>1282.00</ele>
   <time>2014-04-01T11:01:57Z</time>
  </trkpt>
  <trkpt lat="32.707173" lon="-3.147730">
   <ele>1281.00</ele>
   <time>2014-04-01T11:02:00Z</time>
  </trkpt>
  <trkpt lat="32.707009" lon="-3.147508">
   <ele>1281.00</ele>
   <time>2014-04-01T11:02:02Z</time>
  </trkpt>
  <trkpt lat="32.706862" lon="-3.147274">
   <ele>1280.00</ele>
   <time>2014-04-01T11:02:04Z</time>
  </trkpt>
  <trkpt lat="32.706466" lon="-3.146638">
   <ele>1279.00</ele>
   <time>2014-04-01T11:02:10Z</time>
  </trkpt>
  <trkpt lat="32.706286" lon="-3.146371">
   <ele>1279.00</ele>
   <time>2014-04-01T11:02:13Z</time>
  </trkpt>
  <trkpt lat="32.706058" lon="-3.146038">
   <ele>1279.00</ele>
   <time>2014-04-01T11:02:17Z</time>
  </trkpt>
  <trkpt lat="32.705891" lon="-3.145797">
   <ele>1279.00</ele>
   <time>2014-04-01T11:02:20Z</time>
  </trkpt>
  <trkpt lat="32.705648" lon="-3.145484">
   <ele>1279.00</ele>
   <time>2014-04-01T11:02:24Z</time>
  </trkpt>
  <trkpt lat="32.705544" lon="-3.145305">
   <ele>1278.00</ele>
   <time>2014-04-01T11:02:26Z</time>
  </trkpt>
  <trkpt lat="32.704789" lon="-3.143864">
   <ele>1275.00</ele>
   <time>2014-04-01T11:02:39Z</time>
  </trkpt>
  <trkpt lat="32.704144" lon="-3.142565">
   <ele>1272.00</ele>
   <time>2014-04-01T11:02:51Z</time>
  </trkpt>
  <trkpt lat="32.704031" lon="-3.142368">
   <ele>1272.00</ele>
   <time>2014-04-01T11:02:53Z</time>
  </trkpt>
  <trkpt lat="32.703928" lon="-3.142168">
   <ele>1272.00</ele>
   <time>2014-04-01T11:02:55Z</time>
  </trkpt>
  <trkpt lat="32.703837" lon="-3.141956">
   <ele>1272.00</ele>
   <time>2014-04-01T11:02:57Z</time>
  </trkpt>
  <trkpt lat="32.703744" lon="-3.141741">
   <ele>1272.00</ele>
   <time>2014-04-01T11:02:59Z</time>
  </trkpt>
  <trkpt lat="32.703626" lon="-3.141541">
   <ele>1272.00</ele>
   <time>2014-04-01T11:03:01Z</time>
  </trkpt>
  <trkpt lat="32.703511" lon="-3.141344">
   <ele>1272.00</ele>
   <time>2014-04-01T11:03:03Z</time>
  </trkpt>
  <trkpt lat="32.703429" lon="-3.141129">
   <ele>1271.00</ele>
   <time>2014-04-01T11:03:05Z</time>
  </trkpt>
  <trkpt lat="32.703375" lon="-3.140899">
   <ele>1271.00</ele>
   <time>2014-04-01T11:03:07Z</time>
  </trkpt>
  <trkpt lat="32.703312" lon="-3.140674">
   <ele>1271.00</ele>
   <time>2014-04-01T11:03:09Z</time>
  </trkpt>
  <trkpt lat="32.703207" lon="-3.140480">
   <ele>1270.00</ele>
   <time>2014-04-01T11:03:11Z</time>
  </trkpt>
  <trkpt lat="32.703010" lon="-3.140223">
   <ele>1269.00</ele>
   <time>2014-04-01T11:03:14Z</time>
  </trkpt>
  <trkpt lat="32.702894" lon="-3.140024">
   <ele>1269.00</ele>
   <time>2014-04-01T11:03:16Z</time>
  </trkpt>
  <trkpt lat="32.702768" lon="-3.139823">
   <ele>1269.00</ele>
   <time>2014-04-01T11:03:18Z</time>
  </trkpt>
  <trkpt lat="32.702636" lon="-3.139619">
   <ele>1268.00</ele>
   <time>2014-04-01T11:03:20Z</time>
  </trkpt>
  <trkpt lat="32.702503" lon="-3.139413">
   <ele>1268.00</ele>
   <time>2014-04-01T11:03:22Z</time>
  </trkpt>
  <trkpt lat="32.702359" lon="-3.139224">
   <ele>1268.00</ele>
   <time>2014-04-01T11:03:24Z</time>
  </trkpt>
  <trkpt lat="32.702156" lon="-3.138946">
   <ele>1268.00</ele>
   <time>2014-04-01T11:03:27Z</time>
  </trkpt>
  <trkpt lat="32.701957" lon="-3.138662">
   <ele>1267.00</ele>
   <time>2014-04-01T11:03:30Z</time>
  </trkpt>
  <trkpt lat="32.701801" lon="-3.138501">
   <ele>1267.00</ele>
   <time>2014-04-01T11:03:32Z</time>
  </trkpt>
  <trkpt lat="32.701668" lon="-3.138315">
   <ele>1267.00</ele>
   <time>2014-04-01T11:03:34Z</time>
  </trkpt>
  <trkpt lat="32.701556" lon="-3.138104">
   <ele>1267.00</ele>
   <time>2014-04-01T11:03:36Z</time>
  </trkpt>
  <trkpt lat="32.701418" lon="-3.137908">
   <ele>1267.00</ele>
   <time>2014-04-01T11:03:38Z</time>
  </trkpt>
  <trkpt lat="32.701189" lon="-3.137623">
   <ele>1267.00</ele>
   <time>2014-04-01T11:03:41Z</time>
  </trkpt>
  <trkpt lat="32.700833" lon="-3.137111">
   <ele>1266.00</ele>
   <time>2014-04-01T11:03:46Z</time>
  </trkpt>
  <trkpt lat="32.700513" lon="-3.136741">
   <ele>1265.00</ele>
   <time>2014-04-01T11:03:50Z</time>
  </trkpt>
  <trkpt lat="32.700365" lon="-3.136555">
   <ele>1265.00</ele>
   <time>2014-04-01T11:03:52Z</time>
  </trkpt>
  <trkpt lat="32.700222" lon="-3.136380">
   <ele>1264.00</ele>
   <time>2014-04-01T11:03:54Z</time>
  </trkpt>
  <trkpt lat="32.700117" lon="-3.136187">
   <ele>1264.00</ele>
   <time>2014-04-01T11:03:56Z</time>
  </trkpt>
  <trkpt lat="32.700053" lon="-3.135972">
   <ele>1264.00</ele>
   <time>2014-04-01T11:03:58Z</time>
  </trkpt>
  <trkpt lat="32.699989" lon="-3.135763">
   <ele>1264.00</ele>
   <time>2014-04-01T11:04:00Z</time>
  </trkpt>
  <trkpt lat="32.699821" lon="-3.135521">
   <ele>1263.00</ele>
   <time>2014-04-01T11:04:03Z</time>
  </trkpt>
  <trkpt lat="32.699597" lon="-3.135352">
   <ele>1262.00</ele>
   <time>2014-04-01T11:04:06Z</time>
  </trkpt>
  <trkpt lat="32.699417" lon="-3.135148">
   <ele>1262.00</ele>
   <time>2014-04-01T11:04:09Z</time>
  </trkpt>
  <trkpt lat="32.699305" lon="-3.134882">
   <ele>1262.00</ele>
   <time>2014-04-01T11:04:12Z</time>
  </trkpt>
  <trkpt lat="32.699152" lon="-3.134702">
   <ele>1261.00</ele>
   <time>2014-04-01T11:04:15Z</time>
  </trkpt>
  <trkpt lat="32.698981" lon="-3.134576">
   <ele>1260.00</ele>
   <time>2014-04-01T11:04:18Z</time>
  </trkpt>
  <trkpt lat="32.698849" lon="-3.134382">
   <ele>1259.00</ele>
   <time>2014-04-01T11:04:21Z</time>
  </trkpt>
  <trkpt lat="32.698639" lon="-3.133954">
   <ele>1257.00</ele>
   <time>2014-04-01T11:04:27Z</time>
  </trkpt>
  <trkpt lat="32.698508" lon="-3.133789">
   <ele>1257.00</ele>
   <time>2014-04-01T11:04:30Z</time>
  </trkpt>
  <trkpt lat="32.698395" lon="-3.133594">
   <ele>1256.00</ele>
   <time>2014-04-01T11:04:33Z</time>
  </trkpt>
  <trkpt lat="32.698340" lon="-3.133390">
   <ele>1257.00</ele>
   <time>2014-04-01T11:04:36Z</time>
  </trkpt>
  <trkpt lat="32.698330" lon="-3.133172">
   <ele>1256.00</ele>
   <time>2014-04-01T11:04:39Z</time>
  </trkpt>
  <trkpt lat="32.698305" lon="-3.132939">
   <ele>1256.00</ele>
   <time>2014-04-01T11:04:42Z</time>
  </trkpt>
  <trkpt lat="32.698275" lon="-3.132681">
   <ele>1256.00</ele>
   <time>2014-04-01T11:04:45Z</time>
  </trkpt>
  <trkpt lat="32.698249" lon="-3.132380">
   <ele>1256.00</ele>
   <time>2014-04-01T11:04:48Z</time>
  </trkpt>
  <trkpt lat="32.698208" lon="-3.132085">
   <ele>1256.00</ele>
   <time>2014-04-01T11:04:51Z</time>
  </trkpt>
  <trkpt lat="32.698134" lon="-3.131800">
   <ele>1256.00</ele>
   <time>2014-04-01T11:04:54Z</time>
  </trkpt>
  <trkpt lat="32.698012" lon="-3.131539">
   <ele>1256.00</ele>
   <time>2014-04-01T11:04:57Z</time>
  </trkpt>
  <trkpt lat="32.697893" lon="-3.131285">
   <ele>1256.00</ele>
   <time>2014-04-01T11:05:00Z</time>
  </trkpt>
  <trkpt lat="32.697788" lon="-3.131021">
   <ele>1257.00</ele>
   <time>2014-04-01T11:05:03Z</time>
  </trkpt>
  <trkpt lat="32.697614" lon="-3.130784">
   <ele>1257.00</ele>
   <time>2014-04-01T11:05:06Z</time>
  </trkpt>
  <trkpt lat="32.697221" lon="-3.130285">
   <ele>1257.00</ele>
   <time>2014-04-01T11:05:12Z</time>
  </trkpt>
  <trkpt lat="32.696975" lon="-3.129932">
   <ele>1258.00</ele>
   <time>2014-04-01T11:05:16Z</time>
  </trkpt>
  <trkpt lat="32.696854" lon="-3.129657">
   <ele>1259.00</ele>
   <time>2014-04-01T11:05:19Z</time>
  </trkpt>
  <trkpt lat="32.696728" lon="-3.129409">
   <ele>1259.00</ele>
   <time>2014-04-01T11:05:22Z</time>
  </trkpt>
  <trkpt lat="32.696655" lon="-3.129151">
   <ele>1260.00</ele>
   <time>2014-04-01T11:05:25Z</time>
  </trkpt>
  <trkpt lat="32.696591" lon="-3.128872">
   <ele>1260.00</ele>
   <time>2014-04-01T11:05:28Z</time>
  </trkpt>
  <trkpt lat="32.696511" lon="-3.128573">
   <ele>1261.00</ele>
   <time>2014-04-01T11:05:31Z</time>
  </trkpt>
  <trkpt lat="32.696496" lon="-3.128352">
   <ele>1261.00</ele>
   <time>2014-04-01T11:05:33Z</time>
  </trkpt>
  <trkpt lat="32.696480" lon="-3.126723">
   <ele>1258.00</ele>
   <time>2014-04-01T11:05:48Z</time>
  </trkpt>
  <trkpt lat="32.696482" lon="-3.126450">
   <ele>1258.00</ele>
   <time>2014-04-01T11:05:51Z</time>
  </trkpt>
  <trkpt lat="32.696472" lon="-3.126211">
   <ele>1258.00</ele>
   <time>2014-04-01T11:05:54Z</time>
  </trkpt>
  <trkpt lat="32.696293" lon="-3.126036">
   <ele>1257.00</ele>
   <time>2014-04-01T11:05:58Z</time>
  </trkpt>
  <trkpt lat="32.696121" lon="-3.125944">
   <ele>1256.00</ele>
   <time>2014-04-01T11:06:01Z</time>
  </trkpt>
  <trkpt lat="32.695793" lon="-3.125759">
   <ele>1255.00</ele>
   <time>2014-04-01T11:06:07Z</time>
  </trkpt>
  <trkpt lat="32.695593" lon="-3.125746">
   <ele>1254.00</ele>
   <time>2014-04-01T11:06:11Z</time>
  </trkpt>
  <trkpt lat="32.695410" lon="-3.125762">
   <ele>1254.00</ele>
   <time>2014-04-01T11:06:15Z</time>
  </trkpt>
  <trkpt lat="32.695229" lon="-3.125771">
   <ele>1253.00</ele>
   <time>2014-04-01T11:06:19Z</time>
  </trkpt>
  <trkpt lat="32.695031" lon="-3.125812">
   <ele>1252.00</ele>
   <time>2014-04-01T11:06:23Z</time>
  </trkpt>
  <trkpt lat="32.694762" lon="-3.125881">
   <ele>1252.00</ele>
   <time>2014-04-01T11:06:28Z</time>
  </trkpt>
  <trkpt lat="32.694574" lon="-3.125823">
   <ele>1251.00</ele>
   <time>2014-04-01T11:06:32Z</time>
  </trkpt>
  <trkpt lat="32.694445" lon="-3.125662">
   <ele>1251.00</ele>
   <time>2014-04-01T11:06:35Z</time>
  </trkpt>
  <trkpt lat="32.694326" lon="-3.125427">
   <ele>1250.00</ele>
   <time>2014-04-01T11:06:38Z</time>
  </trkpt>
  <trkpt lat="32.694163" lon="-3.125088">
   <ele>1250.00</ele>
   <time>2014-04-01T11:06:42Z</time>
  </trkpt>
  <trkpt lat="32.694071" lon="-3.124785">
   <ele>1249.00</ele>
   <time>2014-04-01T11:06:45Z</time>
  </trkpt>
  <trkpt lat="32.694046" lon="-3.124569">
   <ele>1249.00</ele>
   <time>2014-04-01T11:06:47Z</time>
  </trkpt>
  <trkpt lat="32.694087" lon="-3.124273">
   <ele>1248.00</ele>
   <time>2014-04-01T11:06:50Z</time>
  </trkpt>
  <trkpt lat="32.694125" lon="-3.123987">
   <ele>1248.00</ele>
   <time>2014-04-01T11:06:53Z</time>
  </trkpt>
  <trkpt lat="32.694098" lon="-3.123422">
   <ele>1248.00</ele>
   <time>2014-04-01T11:06:58Z</time>
  </trkpt>
  <trkpt lat="32.694060" lon="-3.123191">
   <ele>1248.00</ele>
   <time>2014-04-01T11:07:00Z</time>
  </trkpt>
  <trkpt lat="32.693989" lon="-3.122966">
   <ele>1248.00</ele>
   <time>2014-04-01T11:07:02Z</time>
  </trkpt>
  <trkpt lat="32.693895" lon="-3.122753">
   <ele>1248.00</ele>
   <time>2014-04-01T11:07:04Z</time>
  </trkpt>
  <trkpt lat="32.693773" lon="-3.122571">
   <ele>1248.00</ele>
   <time>2014-04-01T11:07:06Z</time>
  </trkpt>
  <trkpt lat="32.693613" lon="-3.122417">
   <ele>1247.00</ele>
   <time>2014-04-01T11:07:08Z</time>
  </trkpt>
  <trkpt lat="32.693444" lon="-3.122267">
   <ele>1246.00</ele>
   <time>2014-04-01T11:07:10Z</time>
  </trkpt>
  <trkpt lat="32.693098" lon="-3.121962">
   <ele>1245.00</ele>
   <time>2014-04-01T11:07:14Z</time>
  </trkpt>
  <trkpt lat="32.692731" lon="-3.121568">
   <ele>1243.00</ele>
   <time>2014-04-01T11:07:19Z</time>
  </trkpt>
  <trkpt lat="32.692623" lon="-3.121390">
   <ele>1243.00</ele>
   <time>2014-04-01T11:07:21Z</time>
  </trkpt>
  <trkpt lat="32.692460" lon="-3.121147">
   <ele>1243.00</ele>
   <time>2014-04-01T11:07:24Z</time>
  </trkpt>
  <trkpt lat="32.692327" lon="-3.120866">
   <ele>1243.00</ele>
   <time>2014-04-01T11:07:27Z</time>
  </trkpt>
  <trkpt lat="32.692139" lon="-3.120446">
   <ele>1243.00</ele>
   <time>2014-04-01T11:07:31Z</time>
  </trkpt>
  <trkpt lat="32.692058" lon="-3.120223">
   <ele>1243.00</ele>
   <time>2014-04-01T11:07:33Z</time>
  </trkpt>
  <trkpt lat="32.691990" lon="-3.120004">
   <ele>1243.00</ele>
   <time>2014-04-01T11:07:35Z</time>
  </trkpt>
  <trkpt lat="32.691949" lon="-3.119788">
   <ele>1243.00</ele>
   <time>2014-04-01T11:07:37Z</time>
  </trkpt>
  <trkpt lat="32.691892" lon="-3.119483">
   <ele>1242.00</ele>
   <time>2014-04-01T11:07:40Z</time>
  </trkpt>
  <trkpt lat="32.691706" lon="-3.119304">
   <ele>1243.00</ele>
   <time>2014-04-01T11:07:43Z</time>
  </trkpt>
  <trkpt lat="32.691507" lon="-3.119113">
   <ele>1242.00</ele>
   <time>2014-04-01T11:07:46Z</time>
  </trkpt>
  <trkpt lat="32.691340" lon="-3.118838">
   <ele>1242.00</ele>
   <time>2014-04-01T11:07:49Z</time>
  </trkpt>
  <trkpt lat="32.691205" lon="-3.118673">
   <ele>1242.00</ele>
   <time>2014-04-01T11:07:51Z</time>
  </trkpt>
  <trkpt lat="32.690983" lon="-3.118504">
   <ele>1241.00</ele>
   <time>2014-04-01T11:07:54Z</time>
  </trkpt>
  <trkpt lat="32.690811" lon="-3.118344">
   <ele>1240.00</ele>
   <time>2014-04-01T11:07:57Z</time>
  </trkpt>
  <trkpt lat="32.690645" lon="-3.118131">
   <ele>1239.00</ele>
   <time>2014-04-01T11:08:01Z</time>
  </trkpt>
  <trkpt lat="32.690516" lon="-3.117902">
   <ele>1240.00</ele>
   <time>2014-04-01T11:08:04Z</time>
  </trkpt>
  <trkpt lat="32.690387" lon="-3.117649">
   <ele>1240.00</ele>
   <time>2014-04-01T11:08:07Z</time>
  </trkpt>
  <trkpt lat="32.690305" lon="-3.117390">
   <ele>1241.00</ele>
   <time>2014-04-01T11:08:10Z</time>
  </trkpt>
  <trkpt lat="32.690231" lon="-3.117127">
   <ele>1241.00</ele>
   <time>2014-04-01T11:08:13Z</time>
  </trkpt>
  <trkpt lat="32.690137" lon="-3.116896">
   <ele>1241.00</ele>
   <time>2014-04-01T11:08:16Z</time>
  </trkpt>
  <trkpt lat="32.690048" lon="-3.116649">
   <ele>1242.00</ele>
   <time>2014-04-01T11:08:19Z</time>
  </trkpt>
  <trkpt lat="32.689930" lon="-3.116400">
   <ele>1241.00</ele>
   <time>2014-04-01T11:08:22Z</time>
  </trkpt>
  <trkpt lat="32.689901" lon="-3.116110">
   <ele>1241.00</ele>
   <time>2014-04-01T11:08:25Z</time>
  </trkpt>
  <trkpt lat="32.689857" lon="-3.115797">
   <ele>1241.00</ele>
   <time>2014-04-01T11:08:28Z</time>
  </trkpt>
  <trkpt lat="32.689796" lon="-3.115580">
   <ele>1241.00</ele>
   <time>2014-04-01T11:08:30Z</time>
  </trkpt>
  <trkpt lat="32.689712" lon="-3.115366">
   <ele>1241.00</ele>
   <time>2014-04-01T11:08:32Z</time>
  </trkpt>
  <trkpt lat="32.689603" lon="-3.115159">
   <ele>1241.00</ele>
   <time>2014-04-01T11:08:34Z</time>
  </trkpt>
  <trkpt lat="32.689422" lon="-3.114866">
   <ele>1241.00</ele>
   <time>2014-04-01T11:08:37Z</time>
  </trkpt>
  <trkpt lat="32.689081" lon="-3.114330">
   <ele>1240.00</ele>
   <time>2014-04-01T11:08:43Z</time>
  </trkpt>
  <trkpt lat="32.688815" lon="-3.113858">
   <ele>1239.00</ele>
   <time>2014-04-01T11:08:49Z</time>
  </trkpt>
  <trkpt lat="32.688647" lon="-3.113664">
   <ele>1238.00</ele>
   <time>2014-04-01T11:08:52Z</time>
  </trkpt>
  <trkpt lat="32.688436" lon="-3.113517">
   <ele>1238.00</ele>
   <time>2014-04-01T11:08:55Z</time>
  </trkpt>
  <trkpt lat="32.688212" lon="-3.113351">
   <ele>1237.00</ele>
   <time>2014-04-01T11:08:58Z</time>
  </trkpt>
  <trkpt lat="32.688074" lon="-3.113205">
   <ele>1236.00</ele>
   <time>2014-04-01T11:09:00Z</time>
  </trkpt>
  <trkpt lat="32.687871" lon="-3.112959">
   <ele>1235.00</ele>
   <time>2014-04-01T11:09:03Z</time>
  </trkpt>
  <trkpt lat="32.687730" lon="-3.112794">
   <ele>1235.00</ele>
   <time>2014-04-01T11:09:05Z</time>
  </trkpt>
  <trkpt lat="32.687604" lon="-3.112609">
   <ele>1234.00</ele>
   <time>2014-04-01T11:09:07Z</time>
  </trkpt>
  <trkpt lat="32.687473" lon="-3.112430">
   <ele>1234.00</ele>
   <time>2014-04-01T11:09:09Z</time>
  </trkpt>
  <trkpt lat="32.687324" lon="-3.112265">
   <ele>1234.00</ele>
   <time>2014-04-01T11:09:11Z</time>
  </trkpt>
  <trkpt lat="32.687110" lon="-3.112030">
   <ele>1233.00</ele>
   <time>2014-04-01T11:09:14Z</time>
  </trkpt>
  <trkpt lat="32.686893" lon="-3.111735">
   <ele>1232.00</ele>
   <time>2014-04-01T11:09:18Z</time>
  </trkpt>
  <trkpt lat="32.686720" lon="-3.111544">
   <ele>1232.00</ele>
   <time>2014-04-01T11:09:21Z</time>
  </trkpt>
  <trkpt lat="32.686606" lon="-3.111327">
   <ele>1232.00</ele>
   <time>2014-04-01T11:09:24Z</time>
  </trkpt>
  <trkpt lat="32.686511" lon="-3.111110">
   <ele>1232.00</ele>
   <time>2014-04-01T11:09:27Z</time>
  </trkpt>
  <trkpt lat="32.686374" lon="-3.110943">
   <ele>1233.00</ele>
   <time>2014-04-01T11:09:30Z</time>
  </trkpt>
  <trkpt lat="32.686119" lon="-3.110731">
   <ele>1233.00</ele>
   <time>2014-04-01T11:09:34Z</time>
  </trkpt>
  <trkpt lat="32.685817" lon="-3.110444">
   <ele>1232.00</ele>
   <time>2014-04-01T11:09:38Z</time>
  </trkpt>
  <trkpt lat="32.685583" lon="-3.110187">
   <ele>1232.00</ele>
   <time>2014-04-01T11:09:41Z</time>
  </trkpt>
  <trkpt lat="32.685431" lon="-3.110004">
   <ele>1232.00</ele>
   <time>2014-04-01T11:09:43Z</time>
  </trkpt>
  <trkpt lat="32.685206" lon="-3.109723">
   <ele>1231.00</ele>
   <time>2014-04-01T11:09:46Z</time>
  </trkpt>
  <trkpt lat="32.685042" lon="-3.109543">
   <ele>1231.00</ele>
   <time>2014-04-01T11:09:48Z</time>
  </trkpt>
  <trkpt lat="32.684654" lon="-3.109120">
   <ele>1230.00</ele>
   <time>2014-04-01T11:09:53Z</time>
  </trkpt>
  <trkpt lat="32.684478" lon="-3.108903">
   <ele>1230.00</ele>
   <time>2014-04-01T11:09:56Z</time>
  </trkpt>
  <trkpt lat="32.684301" lon="-3.108723">
   <ele>1229.00</ele>
   <time>2014-04-01T11:09:59Z</time>
  </trkpt>
  <trkpt lat="32.684204" lon="-3.108498">
   <ele>1229.00</ele>
   <time>2014-04-01T11:10:02Z</time>
  </trkpt>
  <trkpt lat="32.684131" lon="-3.108246">
   <ele>1229.00</ele>
   <time>2014-04-01T11:10:06Z</time>
  </trkpt>
  <trkpt lat="32.684071" lon="-3.108030">
   <ele>1230.00</ele>
   <time>2014-04-01T11:10:10Z</time>
  </trkpt>
  <trkpt lat="32.683910" lon="-3.107856">
   <ele>1231.00</ele>
   <time>2014-04-01T11:10:14Z</time>
  </trkpt>
  <trkpt lat="32.683777" lon="-3.107630">
   <ele>1233.00</ele>
   <time>2014-04-01T11:10:18Z</time>
  </trkpt>
  <trkpt lat="32.683614" lon="-3.107463">
   <ele>1233.00</ele>
   <time>2014-04-01T11:10:22Z</time>
  </trkpt>
  <trkpt lat="32.683447" lon="-3.107347">
   <ele>1233.00</ele>
   <time>2014-04-01T11:10:27Z</time>
  </trkpt>
  <trkpt lat="32.683372" lon="-3.107121">
   <ele>1231.00</ele>
   <time>2014-04-01T11:10:33Z</time>
  </trkpt>
  <trkpt lat="32.683315" lon="-3.106870">
   <ele>1228.00</ele>
   <time>2014-04-01T11:10:37Z</time>
  </trkpt>
  <trkpt lat="32.683253" lon="-3.106657">
   <ele>1226.00</ele>
   <time>2014-04-01T11:10:40Z</time>
  </trkpt>
  <trkpt lat="32.683200" lon="-3.106439">
   <ele>1224.00</ele>
   <time>2014-04-01T11:10:43Z</time>
  </trkpt>
  <trkpt lat="32.683167" lon="-3.106227">
   <ele>1223.00</ele>
   <time>2014-04-01T11:10:46Z</time>
  </trkpt>
  <trkpt lat="32.683140" lon="-3.105973">
   <ele>1221.00</ele>
   <time>2014-04-01T11:10:50Z</time>
  </trkpt>
  <trkpt lat="32.683124" lon="-3.105733">
   <ele>1220.00</ele>
   <time>2014-04-01T11:10:54Z</time>
  </trkpt>
  <trkpt lat="32.683071" lon="-3.105312">
   <ele>1219.00</ele>
   <time>2014-04-01T11:11:01Z</time>
  </trkpt>
  <trkpt lat="32.683051" lon="-3.105181">
   <ele>1220.00</ele>
   <time>2014-04-01T11:11:16Z</time>
  </trkpt>
  <trkpt lat="32.683051" lon="-3.105181">
   <ele>1221.00</ele>
   <time>2014-04-01T11:11:32Z</time>
  </trkpt>
  <trkpt lat="32.682969" lon="-3.104976">
   <ele>1221.00</ele>
   <time>2014-04-01T11:11:38Z</time>
  </trkpt>
  <trkpt lat="32.682871" lon="-3.104747">
   <ele>1220.00</ele>
   <time>2014-04-01T11:11:42Z</time>
  </trkpt>
  <trkpt lat="32.682768" lon="-3.104539">
   <ele>1220.00</ele>
   <time>2014-04-01T11:11:45Z</time>
  </trkpt>
  <trkpt lat="32.682607" lon="-3.104237">
   <ele>1219.00</ele>
   <time>2014-04-01T11:11:49Z</time>
  </trkpt>
  <trkpt lat="32.682499" lon="-3.103976">
   <ele>1219.00</ele>
   <time>2014-04-01T11:11:52Z</time>
  </trkpt>
  <trkpt lat="32.682389" lon="-3.103712">
   <ele>1218.00</ele>
   <time>2014-04-01T11:11:55Z</time>
  </trkpt>
  <trkpt lat="32.682187" lon="-3.103298">
   <ele>1217.00</ele>
   <time>2014-04-01T11:12:00Z</time>
  </trkpt>
  <trkpt lat="32.682125" lon="-3.103052">
   <ele>1216.00</ele>
   <time>2014-04-01T11:12:03Z</time>
  </trkpt>
  <trkpt lat="32.682073" lon="-3.102822">
   <ele>1215.00</ele>
   <time>2014-04-01T11:12:06Z</time>
  </trkpt>
  <trkpt lat="32.681927" lon="-3.102623">
   <ele>1214.00</ele>
   <time>2014-04-01T11:12:10Z</time>
  </trkpt>
  <trkpt lat="32.681731" lon="-3.102519">
   <ele>1212.00</ele>
   <time>2014-04-01T11:12:14Z</time>
  </trkpt>
  <trkpt lat="32.681527" lon="-3.102476">
   <ele>1211.00</ele>
   <time>2014-04-01T11:12:18Z</time>
  </trkpt>
  <trkpt lat="32.681154" lon="-3.102410">
   <ele>1209.00</ele>
   <time>2014-04-01T11:12:26Z</time>
  </trkpt>
  <trkpt lat="32.681042" lon="-3.102294">
   <ele>1209.00</ele>
   <time>2014-04-01T11:12:42Z</time>
  </trkpt>
  <trkpt lat="32.681096" lon="-3.102039">
   <ele>1209.00</ele>
   <time>2014-04-01T11:12:47Z</time>
  </trkpt>
  <trkpt lat="32.681290" lon="-3.101296">
   <ele>1209.00</ele>
   <time>2014-04-01T11:12:56Z</time>
  </trkpt>
  <trkpt lat="32.681404" lon="-3.100887">
   <ele>1209.00</ele>
   <time>2014-04-01T11:13:01Z</time>
  </trkpt>
  <trkpt lat="32.681442" lon="-3.100648">
   <ele>1209.00</ele>
   <time>2014-04-01T11:13:05Z</time>
  </trkpt>
  <trkpt lat="32.681463" lon="-3.100541">
   <ele>1209.00</ele>
   <time>2014-04-01T11:13:11Z</time>
  </trkpt>
 </trkseg>
 <trkseg>
  <trkpt lat="32.681461" lon="-3.100567">
   <ele>1208.00</ele>
   <time>2014-04-01T11:14:40Z</time>
  </trkpt>
  <trkpt lat="32.681460" lon="-3.100566">
   <ele>1209.00</ele>
   <time>2014-04-01T11:14:56Z</time>
  </trkpt>
  <trkpt lat="32.681455" lon="-3.100567">
   <ele>1209.00</ele>
   <time>2014-04-01T11:15:11Z</time>
  </trkpt>
  <trkpt lat="32.681454" lon="-3.100568">
   <ele>1210.00</ele>
   <time>2014-04-01T11:15:26Z</time>
  </trkpt>
  <trkpt lat="32.681463" lon="-3.100547">
   <ele>1210.00</ele>
   <time>2014-04-01T11:15:42Z</time>
  </trkpt>
  <trkpt lat="32.681565" lon="-3.100333">
   <ele>1209.00</ele>
   <time>2014-04-01T11:15:48Z</time>
  </trkpt>
  <trkpt lat="32.681619" lon="-3.100121">
   <ele>1210.00</ele>
   <time>2014-04-01T11:15:51Z</time>
  </trkpt>
  <trkpt lat="32.681745" lon="-3.099608">
   <ele>1210.00</ele>
   <time>2014-04-01T11:15:57Z</time>
  </trkpt>
  <trkpt lat="32.681804" lon="-3.099405">
   <ele>1210.00</ele>
   <time>2014-04-01T11:15:59Z</time>
  </trkpt>
  <trkpt lat="32.682074" lon="-3.098517">
   <ele>1210.00</ele>
   <time>2014-04-01T11:16:07Z</time>
  </trkpt>
  <trkpt lat="32.682121" lon="-3.098286">
   <ele>1209.00</ele>
   <time>2014-04-01T11:16:09Z</time>
  </trkpt>
  <trkpt lat="32.682138" lon="-3.098046">
   <ele>1209.00</ele>
   <time>2014-04-01T11:16:11Z</time>
  </trkpt>
  <trkpt lat="32.682127" lon="-3.097806">
   <ele>1208.00</ele>
   <time>2014-04-01T11:16:13Z</time>
  </trkpt>
  <trkpt lat="32.682089" lon="-3.097570">
   <ele>1208.00</ele>
   <time>2014-04-01T11:16:15Z</time>
  </trkpt>
  <trkpt lat="32.682037" lon="-3.097334">
   <ele>1208.00</ele>
   <time>2014-04-01T11:16:17Z</time>
  </trkpt>
  <trkpt lat="32.681942" lon="-3.096977">
   <ele>1208.00</ele>
   <time>2014-04-01T11:16:20Z</time>
  </trkpt>
  <trkpt lat="32.681855" lon="-3.096734">
   <ele>1208.00</ele>
   <time>2014-04-01T11:16:22Z</time>
  </trkpt>
  <trkpt lat="32.681747" lon="-3.096498">
   <ele>1208.00</ele>
   <time>2014-04-01T11:16:24Z</time>
  </trkpt>
  <trkpt lat="32.681625" lon="-3.096273">
   <ele>1209.00</ele>
   <time>2014-04-01T11:16:26Z</time>
  </trkpt>
  <trkpt lat="32.681368" lon="-3.095822">
   <ele>1210.00</ele>
   <time>2014-04-01T11:16:30Z</time>
  </trkpt>
  <trkpt lat="32.681224" lon="-3.095602">
   <ele>1211.00</ele>
   <time>2014-04-01T11:16:32Z</time>
  </trkpt>
  <trkpt lat="32.681065" lon="-3.095399">
   <ele>1211.00</ele>
   <time>2014-04-01T11:16:34Z</time>
  </trkpt>
  <trkpt lat="32.680885" lon="-3.095226">
   <ele>1211.00</ele>
   <time>2014-04-01T11:16:36Z</time>
  </trkpt>
  <trkpt lat="32.680683" lon="-3.095077">
   <ele>1210.00</ele>
   <time>2014-04-01T11:16:38Z</time>
  </trkpt>
  <trkpt lat="32.680063" lon="-3.094682">
   <ele>1209.00</ele>
   <time>2014-04-01T11:16:44Z</time>
  </trkpt>
  <trkpt lat="32.678977" lon="-3.093979">
   <ele>1207.00</ele>
   <time>2014-04-01T11:16:55Z</time>
  </trkpt>
  <trkpt lat="32.678813" lon="-3.093846">
   <ele>1206.00</ele>
   <time>2014-04-01T11:16:57Z</time>
  </trkpt>
  <trkpt lat="32.678662" lon="-3.093686">
   <ele>1206.00</ele>
   <time>2014-04-01T11:16:59Z</time>
  </trkpt>
  <trkpt lat="32.678528" lon="-3.093494">
   <ele>1206.00</ele>
   <time>2014-04-01T11:17:01Z</time>
  </trkpt>
  <trkpt lat="32.678417" lon="-3.093272">
   <ele>1206.00</ele>
   <time>2014-04-01T11:17:03Z</time>
  </trkpt>
  <trkpt lat="32.678333" lon="-3.093027">
   <ele>1206.00</ele>
   <time>2014-04-01T11:17:05Z</time>
  </trkpt>
  <trkpt lat="32.678267" lon="-3.092771">
   <ele>1206.00</ele>
   <time>2014-04-01T11:17:07Z</time>
  </trkpt>
  <trkpt lat="32.678120" lon="-3.092115">
   <ele>1205.00</ele>
   <time>2014-04-01T11:17:12Z</time>
  </trkpt>
  <trkpt lat="32.677641" lon="-3.089961">
   <ele>1207.00</ele>
   <time>2014-04-01T11:17:28Z</time>
  </trkpt>
  <trkpt lat="32.677213" lon="-3.088109">
   <ele>1206.00</ele>
   <time>2014-04-01T11:17:43Z</time>
  </trkpt>
  <trkpt lat="32.676891" lon="-3.086695">
   <ele>1205.00</ele>
   <time>2014-04-01T11:17:58Z</time>
  </trkpt>
  <trkpt lat="32.676518" lon="-3.085068">
   <ele>1207.00</ele>
   <time>2014-04-01T11:18:13Z</time>
  </trkpt>
  <trkpt lat="32.676294" lon="-3.084103">
   <ele>1208.00</ele>
   <time>2014-04-01T11:18:21Z</time>
  </trkpt>
  <trkpt lat="32.676225" lon="-3.083868">
   <ele>1208.00</ele>
   <time>2014-04-01T11:18:23Z</time>
  </trkpt>
  <trkpt lat="32.676151" lon="-3.083666">
   <ele>1208.00</ele>
   <time>2014-04-01T11:18:25Z</time>
  </trkpt>
  <trkpt lat="32.676002" lon="-3.083483">
   <ele>1208.00</ele>
   <time>2014-04-01T11:18:29Z</time>
  </trkpt>
  <trkpt lat="32.675880" lon="-3.083295">
   <ele>1209.00</ele>
   <time>2014-04-01T11:18:35Z</time>
  </trkpt>
  <trkpt lat="32.675781" lon="-3.083108">
   <ele>1209.00</ele>
   <time>2014-04-01T11:18:44Z</time>
  </trkpt>
  <trkpt lat="32.675886" lon="-3.083084">
   <ele>1208.00</ele>
   <time>2014-04-01T11:18:53Z</time>
  </trkpt>
  <trkpt lat="32.675985" lon="-3.083268">
   <ele>1207.00</ele>
   <time>2014-04-01T11:18:57Z</time>
  </trkpt>
  <trkpt lat="32.676077" lon="-3.083467">
   <ele>1206.00</ele>
   <time>2014-04-01T11:19:00Z</time>
  </trkpt>
  <trkpt lat="32.676179" lon="-3.083707">
   <ele>1206.00</ele>
   <time>2014-04-01T11:19:03Z</time>
  </trkpt>
  <trkpt lat="32.676280" lon="-3.083994">
   <ele>1205.00</ele>
   <time>2014-04-01T11:19:06Z</time>
  </trkpt>
  <trkpt lat="32.676345" lon="-3.084220">
   <ele>1205.00</ele>
   <time>2014-04-01T11:19:08Z</time>
  </trkpt>
  <trkpt lat="32.676437" lon="-3.084598">
   <ele>1204.00</ele>
   <time>2014-04-01T11:19:11Z</time>
  </trkpt>
  <trkpt lat="32.676953" lon="-3.086884">
   <ele>1202.00</ele>
   <time>2014-04-01T11:19:27Z</time>
  </trkpt>
  <trkpt lat="32.677494" lon="-3.089213">
   <ele>1204.00</ele>
   <time>2014-04-01T11:19:42Z</time>
  </trkpt>
  <trkpt lat="32.678042" lon="-3.091662">
   <ele>1204.00</ele>
   <time>2014-04-01T11:19:57Z</time>
  </trkpt>
  <trkpt lat="32.678359" lon="-3.093006">
   <ele>1202.00</ele>
   <time>2014-04-01T11:20:06Z</time>
  </trkpt>
  <trkpt lat="32.678443" lon="-3.093283">
   <ele>1202.00</ele>
   <time>2014-04-01T11:20:08Z</time>
  </trkpt>
  <trkpt lat="32.678559" lon="-3.093534">
   <ele>1202.00</ele>
   <time>2014-04-01T11:20:10Z</time>
  </trkpt>
  <trkpt lat="32.678711" lon="-3.093753">
   <ele>1203.00</ele>
   <time>2014-04-01T11:20:12Z</time>
  </trkpt>
  <trkpt lat="32.678894" lon="-3.093945">
   <ele>1203.00</ele>
   <time>2014-04-01T11:20:14Z</time>
  </trkpt>
  <trkpt lat="32.679110" lon="-3.094103">
   <ele>1203.00</ele>
   <time>2014-04-01T11:20:16Z</time>
  </trkpt>
  <trkpt lat="32.680045" lon="-3.094680">
   <ele>1205.00</ele>
   <time>2014-04-01T11:20:26Z</time>
  </trkpt>
  <trkpt lat="32.680241" lon="-3.094763">
   <ele>1205.00</ele>
   <time>2014-04-01T11:20:31Z</time>
  </trkpt>
  <trkpt lat="32.680281" lon="-3.094776">
   <ele>1206.00</ele>
   <time>2014-04-01T11:20:47Z</time>
  </trkpt>
  <trkpt lat="32.680273" lon="-3.094764">
   <ele>1206.00</ele>
   <time>2014-04-01T11:21:02Z</time>
  </trkpt>
  <trkpt lat="32.680268" lon="-3.094757">
   <ele>1205.00</ele>
   <time>2014-04-01T11:21:17Z</time>
  </trkpt>
  <trkpt lat="32.680265" lon="-3.094752">
   <ele>1205.00</ele>
   <time>2014-04-01T11:21:33Z</time>
  </trkpt>
  <trkpt lat="32.680262" lon="-3.094749">
   <ele>1205.00</ele>
   <time>2014-04-01T11:21:48Z</time>
  </trkpt>
  <trkpt lat="32.680260" lon="-3.094747">
   <ele>1205.00</ele>
   <time>2014-04-01T11:22:03Z</time>
  </trkpt>
  <trkpt lat="32.680259" lon="-3.094745">
   <ele>1205.00</ele>
   <time>2014-04-01T11:22:18Z</time>
  </trkpt>
  <trkpt lat="32.680258" lon="-3.094744">
   <ele>1205.00</ele>
   <time>2014-04-01T11:22:33Z</time>
  </trkpt>
  <trkpt lat="32.680266" lon="-3.094750">
   <ele>1206.00</ele>
   <time>2014-04-01T11:22:49Z</time>
  </trkpt>
  <trkpt lat="32.680267" lon="-3.094753">
   <ele>1206.00</ele>
   <time>2014-04-01T11:23:04Z</time>
  </trkpt>
  <trkpt lat="32.680269" lon="-3.094754">
   <ele>1206.00</ele>
   <time>2014-04-01T11:23:19Z</time>
  </trkpt>
  <trkpt lat="32.680270" lon="-3.094755">
   <ele>1206.00</ele>
   <time>2014-04-01T11:23:34Z</time>
  </trkpt>
  <trkpt lat="32.680270" lon="-3.094756">
   <ele>1206.00</ele>
   <time>2014-04-01T11:23:50Z</time>
  </trkpt>
  <trkpt lat="32.680271" lon="-3.094756">
   <ele>1206.00</ele>
   <time>2014-04-01T11:24:05Z</time>
  </trkpt>
  <trkpt lat="32.680272" lon="-3.094755">
   <ele>1206.00</ele>
   <time>2014-04-01T11:24:20Z</time>
  </trkpt>
  <trkpt lat="32.680271" lon="-3.094755">
   <ele>1206.00</ele>
   <time>2014-04-01T11:24:35Z</time>
  </trkpt>
  <trkpt lat="32.680435" lon="-3.094879">
   <ele>1206.00</ele>
   <time>2014-04-01T11:24:49Z</time>
  </trkpt>
  <trkpt lat="32.680676" lon="-3.095070">
   <ele>1206.00</ele>
   <time>2014-04-01T11:24:53Z</time>
  </trkpt>
  <trkpt lat="32.680933" lon="-3.095264">
   <ele>1206.00</ele>
   <time>2014-04-01T11:24:57Z</time>
  </trkpt>
  <trkpt lat="32.681106" lon="-3.095434">
   <ele>1206.00</ele>
   <time>2014-04-01T11:25:00Z</time>
  </trkpt>
  <trkpt lat="32.681239" lon="-3.095602">
   <ele>1207.00</ele>
   <time>2014-04-01T11:25:03Z</time>
  </trkpt>
  <trkpt lat="32.681364" lon="-3.095797">
   <ele>1207.00</ele>
   <time>2014-04-01T11:25:11Z</time>
  </trkpt>
  <trkpt lat="32.681695" lon="-3.096374">
   <ele>1206.00</ele>
   <time>2014-04-01T11:25:21Z</time>
  </trkpt>
  <trkpt lat="32.681792" lon="-3.096562">
   <ele>1205.00</ele>
   <time>2014-04-01T11:25:23Z</time>
  </trkpt>
  <trkpt lat="32.681887" lon="-3.096773">
   <ele>1204.00</ele>
   <time>2014-04-01T11:25:25Z</time>
  </trkpt>
  <trkpt lat="32.681968" lon="-3.096996">
   <ele>1204.00</ele>
   <time>2014-04-01T11:25:27Z</time>
  </trkpt>
  <trkpt lat="32.682036" lon="-3.097231">
   <ele>1204.00</ele>
   <time>2014-04-01T11:25:29Z</time>
  </trkpt>
  <trkpt lat="32.682090" lon="-3.097475">
   <ele>1204.00</ele>
   <time>2014-04-01T11:25:31Z</time>
  </trkpt>
  <trkpt lat="32.682153" lon="-3.097840">
   <ele>1204.00</ele>
   <time>2014-04-01T11:25:34Z</time>
  </trkpt>
  <trkpt lat="32.682173" lon="-3.098086">
   <ele>1203.00</ele>
   <time>2014-04-01T11:25:36Z</time>
  </trkpt>
  <trkpt lat="32.682156" lon="-3.098339">
   <ele>1203.00</ele>
   <time>2014-04-01T11:25:38Z</time>
  </trkpt>
  <trkpt lat="32.682099" lon="-3.098595">
   <ele>1203.00</ele>
   <time>2014-04-01T11:25:40Z</time>
  </trkpt>
  <trkpt lat="32.681593" lon="-3.100391">
   <ele>1204.00</ele>
   <time>2014-04-01T11:25:55Z</time>
  </trkpt>
  <trkpt lat="32.681090" lon="-3.102234">
   <ele>1205.00</ele>
   <time>2014-04-01T11:26:10Z</time>
  </trkpt>
  <trkpt lat="32.680436" lon="-3.104612">
   <ele>1204.00</ele>
   <time>2014-04-01T11:26:26Z</time>
  </trkpt>
  <trkpt lat="32.679685" lon="-3.107348">
   <ele>1204.00</ele>
   <time>2014-04-01T11:26:41Z</time>
  </trkpt>
  <trkpt lat="32.678876" lon="-3.110322">
   <ele>1207.00</ele>
   <time>2014-04-01T11:26:56Z</time>
  </trkpt>
  <trkpt lat="32.678356" lon="-3.112134">
   <ele>1207.00</ele>
   <time>2014-04-01T11:27:05Z</time>
  </trkpt>
  <trkpt lat="32.678216" lon="-3.112533">
   <ele>1207.00</ele>
   <time>2014-04-01T11:27:07Z</time>
  </trkpt>
  <trkpt lat="32.678060" lon="-3.112926">
   <ele>1206.00</ele>
   <time>2014-04-01T11:27:09Z</time>
  </trkpt>
  <trkpt lat="32.677880" lon="-3.113309">
   <ele>1206.00</ele>
   <time>2014-04-01T11:27:11Z</time>
  </trkpt>
  <trkpt lat="32.676444" lon="-3.116101">
   <ele>1214.00</ele>
   <time>2014-04-01T11:27:26Z</time>
  </trkpt>
  <trkpt lat="32.675995" lon="-3.116994">
   <ele>1216.00</ele>
   <time>2014-04-01T11:27:31Z</time>
  </trkpt>
  <trkpt lat="32.675827" lon="-3.117362">
   <ele>1217.00</ele>
   <time>2014-04-01T11:27:33Z</time>
  </trkpt>
  <trkpt lat="32.675681" lon="-3.117748">
   <ele>1218.00</ele>
   <time>2014-04-01T11:27:35Z</time>
  </trkpt>
  <trkpt lat="32.675555" lon="-3.118149">
   <ele>1218.00</ele>
   <time>2014-04-01T11:27:37Z</time>
  </trkpt>
  <trkpt lat="32.675445" lon="-3.118559">
   <ele>1219.00</ele>
   <time>2014-04-01T11:27:39Z</time>
  </trkpt>
  <trkpt lat="32.674655" lon="-3.121865">
   <ele>1222.00</ele>
   <time>2014-04-01T11:27:55Z</time>
  </trkpt>
  <trkpt lat="32.674324" lon="-3.123308">
   <ele>1224.00</ele>
   <time>2014-04-01T11:28:02Z</time>
  </trkpt>
  <trkpt lat="32.674212" lon="-3.123945">
   <ele>1224.00</ele>
   <time>2014-04-01T11:28:05Z</time>
  </trkpt>
  <trkpt lat="32.673701" lon="-3.127404">
   <ele>1227.00</ele>
   <time>2014-04-01T11:28:21Z</time>
  </trkpt>
  <trkpt lat="32.673224" lon="-3.130673">
   <ele>1232.00</ele>
   <time>2014-04-01T11:28:36Z</time>
  </trkpt>
  <trkpt lat="32.673043" lon="-3.131757">
   <ele>1235.00</ele>
   <time>2014-04-01T11:28:41Z</time>
  </trkpt>
  <trkpt lat="32.672949" lon="-3.132180">
   <ele>1236.00</ele>
   <time>2014-04-01T11:28:43Z</time>
  </trkpt>
  <trkpt lat="32.672836" lon="-3.132596">
   <ele>1237.00</ele>
   <time>2014-04-01T11:28:45Z</time>
  </trkpt>
  <trkpt lat="32.671866" lon="-3.135685">
   <ele>1242.00</ele>
   <time>2014-04-01T11:29:00Z</time>
  </trkpt>
  <trkpt lat="32.671731" lon="-3.136086">
   <ele>1243.00</ele>
   <time>2014-04-01T11:29:02Z</time>
  </trkpt>
  <trkpt lat="32.671600" lon="-3.136488">
   <ele>1243.00</ele>
   <time>2014-04-01T11:29:04Z</time>
  </trkpt>
  <trkpt lat="32.670825" lon="-3.138932">
   <ele>1242.00</ele>
   <time>2014-04-01T11:29:16Z</time>
  </trkpt>
  <trkpt lat="32.670724" lon="-3.139368">
   <ele>1242.00</ele>
   <time>2014-04-01T11:29:18Z</time>
  </trkpt>
  <trkpt lat="32.670648" lon="-3.139813">
   <ele>1242.00</ele>
   <time>2014-04-01T11:29:20Z</time>
  </trkpt>
  <trkpt lat="32.670595" lon="-3.140265">
   <ele>1242.00</ele>
   <time>2014-04-01T11:29:22Z</time>
  </trkpt>
  <trkpt lat="32.670227" lon="-3.143697">
   <ele>1244.00</ele>
   <time>2014-04-01T11:29:37Z</time>
  </trkpt>
  <trkpt lat="32.669815" lon="-3.147388">
   <ele>1251.00</ele>
   <time>2014-04-01T11:29:53Z</time>
  </trkpt>
  <trkpt lat="32.669570" lon="-3.149619">
   <ele>1256.00</ele>
   <time>2014-04-01T11:30:03Z</time>
  </trkpt>
  <trkpt lat="32.669532" lon="-3.149837">
   <ele>1256.00</ele>
   <time>2014-04-01T11:30:04Z</time>
  </trkpt>
  <trkpt lat="32.669436" lon="-3.150272">
   <ele>1256.00</ele>
   <time>2014-04-01T11:30:06Z</time>
  </trkpt>
  <trkpt lat="32.669319" lon="-3.150708">
   <ele>1257.00</ele>
   <time>2014-04-01T11:30:08Z</time>
  </trkpt>
  <trkpt lat="32.668402" lon="-3.154010">
   <ele>1257.00</ele>
   <time>2014-04-01T11:30:23Z</time>
  </trkpt>
  <trkpt lat="32.667554" lon="-3.157089">
   <ele>1250.00</ele>
   <time>2014-04-01T11:30:38Z</time>
  </trkpt>
  <trkpt lat="32.667436" lon="-3.157479">
   <ele>1250.00</ele>
   <time>2014-04-01T11:30:40Z</time>
  </trkpt>
  <trkpt lat="32.667291" lon="-3.157860">
   <ele>1249.00</ele>
   <time>2014-04-01T11:30:42Z</time>
  </trkpt>
  <trkpt lat="32.667116" lon="-3.158230">
   <ele>1248.00</ele>
   <time>2014-04-01T11:30:44Z</time>
  </trkpt>
  <trkpt lat="32.666921" lon="-3.158590">
   <ele>1247.00</ele>
   <time>2014-04-01T11:30:46Z</time>
  </trkpt>
  <trkpt lat="32.666303" lon="-3.159615">
   <ele>1246.00</ele>
   <time>2014-04-01T11:30:52Z</time>
  </trkpt>
  <trkpt lat="32.666085" lon="-3.159906">
   <ele>1246.00</ele>
   <time>2014-04-01T11:30:54Z</time>
  </trkpt>
  <trkpt lat="32.665837" lon="-3.160132">
   <ele>1247.00</ele>
   <time>2014-04-01T11:30:56Z</time>
  </trkpt>
  <trkpt lat="32.665561" lon="-3.160304">
   <ele>1247.00</ele>
   <time>2014-04-01T11:30:58Z</time>
  </trkpt>
  <trkpt lat="32.664425" lon="-3.160891">
   <ele>1248.00</ele>
   <time>2014-04-01T11:31:06Z</time>
  </trkpt>
  <trkpt lat="32.664175" lon="-3.161085">
   <ele>1247.00</ele>
   <time>2014-04-01T11:31:08Z</time>
  </trkpt>
  <trkpt lat="32.663978" lon="-3.161350">
   <ele>1247.00</ele>
   <time>2014-04-01T11:31:10Z</time>
  </trkpt>
  <trkpt lat="32.663845" lon="-3.161678">
   <ele>1246.00</ele>
   <time>2014-04-01T11:31:12Z</time>
  </trkpt>
  <trkpt lat="32.663748" lon="-3.162044">
   <ele>1245.00</ele>
   <time>2014-04-01T11:31:14Z</time>
  </trkpt>
  <trkpt lat="32.662983" lon="-3.165051">
   <ele>1242.00</ele>
   <time>2014-04-01T11:31:29Z</time>
  </trkpt>
  <trkpt lat="32.662782" lon="-3.165867">
   <ele>1243.00</ele>
   <time>2014-04-01T11:31:33Z</time>
  </trkpt>
  <trkpt lat="32.662709" lon="-3.166281">
   <ele>1243.00</ele>
   <time>2014-04-01T11:31:35Z</time>
  </trkpt>
  <trkpt lat="32.662686" lon="-3.166704">
   <ele>1244.00</ele>
   <time>2014-04-01T11:31:37Z</time>
  </trkpt>
  <trkpt lat="32.662717" lon="-3.167132">
   <ele>1244.00</ele>
   <time>2014-04-01T11:31:39Z</time>
  </trkpt>
  <trkpt lat="32.662745" lon="-3.167347">
   <ele>1244.00</ele>
   <time>2014-04-01T11:31:40Z</time>
  </trkpt>
  <trkpt lat="32.663068" lon="-3.169540">
   <ele>1243.00</ele>
   <time>2014-04-01T11:31:50Z</time>
  </trkpt>
  <trkpt lat="32.663080" lon="-3.169762">
   <ele>1243.00</ele>
   <time>2014-04-01T11:31:51Z</time>
  </trkpt>
  <trkpt lat="32.663083" lon="-3.169984">
   <ele>1243.00</ele>
   <time>2014-04-01T11:31:52Z</time>
  </trkpt>
  <trkpt lat="32.663078" lon="-3.170205">
   <ele>1243.00</ele>
   <time>2014-04-01T11:31:53Z</time>
  </trkpt>
  <trkpt lat="32.663064" lon="-3.170425">
   <ele>1243.00</ele>
   <time>2014-04-01T11:31:54Z</time>
  </trkpt>
  <trkpt lat="32.663039" lon="-3.170644">
   <ele>1243.00</ele>
   <time>2014-04-01T11:31:55Z</time>
  </trkpt>
  <trkpt lat="32.663005" lon="-3.170860">
   <ele>1243.00</ele>
   <time>2014-04-01T11:31:56Z</time>
  </trkpt>
  <trkpt lat="32.662963" lon="-3.171075">
   <ele>1243.00</ele>
   <time>2014-04-01T11:31:57Z</time>
  </trkpt>
  <trkpt lat="32.662715" lon="-3.172143">
   <ele>1244.00</ele>
   <time>2014-04-01T11:32:02Z</time>
  </trkpt>
  <trkpt lat="32.662300" lon="-3.173841">
   <ele>1245.00</ele>
   <time>2014-04-01T11:32:10Z</time>
  </trkpt>
  <trkpt lat="32.662263" lon="-3.174056">
   <ele>1245.00</ele>
   <time>2014-04-01T11:32:11Z</time>
  </trkpt>
  <trkpt lat="32.662236" lon="-3.174273">
   <ele>1246.00</ele>
   <time>2014-04-01T11:32:12Z</time>
  </trkpt>
  <trkpt lat="32.662217" lon="-3.174491">
   <ele>1246.00</ele>
   <time>2014-04-01T11:32:13Z</time>
  </trkpt>
  <trkpt lat="32.662206" lon="-3.174709">
   <ele>1246.00</ele>
   <time>2014-04-01T11:32:14Z</time>
  </trkpt>
  <trkpt lat="32.662202" lon="-3.174930">
   <ele>1246.00</ele>
   <time>2014-04-01T11:32:15Z</time>
  </trkpt>
  <trkpt lat="32.662205" lon="-3.175150">
   <ele>1246.00</ele>
   <time>2014-04-01T11:32:16Z</time>
  </trkpt>
  <trkpt lat="32.662216" lon="-3.175368">
   <ele>1247.00</ele>
   <time>2014-04-01T11:32:17Z</time>
  </trkpt>
  <trkpt lat="32.662234" lon="-3.175585">
   <ele>1247.00</ele>
   <time>2014-04-01T11:32:18Z</time>
  </trkpt>
  <trkpt lat="32.662340" lon="-3.176448">
   <ele>1248.00</ele>
   <time>2014-04-01T11:32:22Z</time>
  </trkpt>
  <trkpt lat="32.662765" lon="-3.179727">
   <ele>1249.00</ele>
   <time>2014-04-01T11:32:37Z</time>
  </trkpt>
  <trkpt lat="32.662899" lon="-3.180843">
   <ele>1248.00</ele>
   <time>2014-04-01T11:32:42Z</time>
  </trkpt>
  <trkpt lat="32.662926" lon="-3.181295">
   <ele>1248.00</ele>
   <time>2014-04-01T11:32:44Z</time>
  </trkpt>
  <trkpt lat="32.662927" lon="-3.181752">
   <ele>1249.00</ele>
   <time>2014-04-01T11:32:46Z</time>
  </trkpt>
  <trkpt lat="32.662910" lon="-3.182207">
   <ele>1249.00</ele>
   <time>2014-04-01T11:32:48Z</time>
  </trkpt>
  <trkpt lat="32.662877" lon="-3.182661">
   <ele>1249.00</ele>
   <time>2014-04-01T11:32:50Z</time>
  </trkpt>
  <trkpt lat="32.662530" lon="-3.186256">
   <ele>1255.00</ele>
   <time>2014-04-01T11:33:06Z</time>
  </trkpt>
  <trkpt lat="32.662203" lon="-3.189687">
   <ele>1255.00</ele>
   <time>2014-04-01T11:33:21Z</time>
  </trkpt>
  <trkpt lat="32.661872" lon="-3.193177">
   <ele>1256.00</ele>
   <time>2014-04-01T11:33:36Z</time>
  </trkpt>
  <trkpt lat="32.661546" lon="-3.196603">
   <ele>1258.00</ele>
   <time>2014-04-01T11:33:51Z</time>
  </trkpt>
  <trkpt lat="32.661377" lon="-3.198395">
   <ele>1260.00</ele>
   <time>2014-04-01T11:33:59Z</time>
  </trkpt>
  <trkpt lat="32.661190" lon="-3.200415">
   <ele>1263.00</ele>
   <time>2014-04-01T11:34:08Z</time>
  </trkpt>
  <trkpt lat="32.661130" lon="-3.200848">
   <ele>1264.00</ele>
   <time>2014-04-01T11:34:10Z</time>
  </trkpt>
  <trkpt lat="32.661090" lon="-3.201058">
   <ele>1264.00</ele>
   <time>2014-04-01T11:34:11Z</time>
  </trkpt>
  <trkpt lat="32.660975" lon="-3.201460">
   <ele>1264.00</ele>
   <time>2014-04-01T11:34:13Z</time>
  </trkpt>
  <trkpt lat="32.660805" lon="-3.201829">
   <ele>1264.00</ele>
   <time>2014-04-01T11:34:15Z</time>
  </trkpt>
  <trkpt lat="32.660593" lon="-3.202159">
   <ele>1264.00</ele>
   <time>2014-04-01T11:34:17Z</time>
  </trkpt>
  <trkpt lat="32.660340" lon="-3.202446">
   <ele>1264.00</ele>
   <time>2014-04-01T11:34:19Z</time>
  </trkpt>
  <trkpt lat="32.660047" lon="-3.202686">
   <ele>1264.00</ele>
   <time>2014-04-01T11:34:21Z</time>
  </trkpt>
  <trkpt lat="32.659887" lon="-3.202787">
   <ele>1264.00</ele>
   <time>2014-04-01T11:34:22Z</time>
  </trkpt>
  <trkpt lat="32.659719" lon="-3.202873">
   <ele>1264.00</ele>
   <time>2014-04-01T11:34:23Z</time>
  </trkpt>
  <trkpt lat="32.659545" lon="-3.202945">
   <ele>1264.00</ele>
   <time>2014-04-01T11:34:24Z</time>
  </trkpt>
  <trkpt lat="32.659368" lon="-3.203009">
   <ele>1264.00</ele>
   <time>2014-04-01T11:34:25Z</time>
  </trkpt>
  <trkpt lat="32.659005" lon="-3.203120">
   <ele>1264.00</ele>
   <time>2014-04-01T11:34:27Z</time>
  </trkpt>
  <trkpt lat="32.656286" lon="-3.203844">
   <ele>1264.00</ele>
   <time>2014-04-01T11:34:42Z</time>
  </trkpt>
  <trkpt lat="32.653402" lon="-3.204631">
   <ele>1266.00</ele>
   <time>2014-04-01T11:34:58Z</time>
  </trkpt>
  <trkpt lat="32.652014" lon="-3.205027">
   <ele>1270.00</ele>
   <time>2014-04-01T11:35:06Z</time>
  </trkpt>
  <trkpt lat="32.651669" lon="-3.205146">
   <ele>1271.00</ele>
   <time>2014-04-01T11:35:08Z</time>
  </trkpt>
  <trkpt lat="32.651324" lon="-3.205285">
   <ele>1272.00</ele>
   <time>2014-04-01T11:35:10Z</time>
  </trkpt>
  <trkpt lat="32.650631" lon="-3.205605">
   <ele>1273.00</ele>
   <time>2014-04-01T11:35:14Z</time>
  </trkpt>
  <trkpt lat="32.647848" lon="-3.207084">
   <ele>1279.00</ele>
   <time>2014-04-01T11:35:30Z</time>
  </trkpt>
  <trkpt lat="32.646829" lon="-3.207646">
   <ele>1282.00</ele>
   <time>2014-04-01T11:35:36Z</time>
  </trkpt>
  <trkpt lat="32.646671" lon="-3.207756">
   <ele>1283.00</ele>
   <time>2014-04-01T11:35:37Z</time>
  </trkpt>
  <trkpt lat="32.646520" lon="-3.207880">
   <ele>1283.00</ele>
   <time>2014-04-01T11:35:38Z</time>
  </trkpt>
  <trkpt lat="32.646379" lon="-3.208020">
   <ele>1283.00</ele>
   <time>2014-04-01T11:35:39Z</time>
  </trkpt>
  <trkpt lat="32.646244" lon="-3.208173">
   <ele>1284.00</ele>
   <time>2014-04-01T11:35:40Z</time>
  </trkpt>
  <trkpt lat="32.646116" lon="-3.208335">
   <ele>1285.00</ele>
   <time>2014-04-01T11:35:41Z</time>
  </trkpt>
  <trkpt lat="32.645995" lon="-3.208507">
   <ele>1285.00</ele>
   <time>2014-04-01T11:35:42Z</time>
  </trkpt>
  <trkpt lat="32.645881" lon="-3.208685">
   <ele>1286.00</ele>
   <time>2014-04-01T11:35:43Z</time>
  </trkpt>
  <trkpt lat="32.645664" lon="-3.209056">
   <ele>1287.00</ele>
   <time>2014-04-01T11:35:45Z</time>
  </trkpt>
  <trkpt lat="32.644537" lon="-3.211071">
   <ele>1296.00</ele>
   <time>2014-04-01T11:35:56Z</time>
  </trkpt>
  <trkpt lat="32.644383" lon="-3.211449">
   <ele>1298.00</ele>
   <time>2014-04-01T11:35:58Z</time>
  </trkpt>
  <trkpt lat="32.644277" lon="-3.211848">
   <ele>1299.00</ele>
   <time>2014-04-01T11:36:00Z</time>
  </trkpt>
  <trkpt lat="32.644201" lon="-3.212259">
   <ele>1302.00</ele>
   <time>2014-04-01T11:36:02Z</time>
  </trkpt>
  <trkpt lat="32.644173" lon="-3.212679">
   <ele>1304.00</ele>
   <time>2014-04-01T11:36:04Z</time>
  </trkpt>
  <trkpt lat="32.644194" lon="-3.213101">
   <ele>1307.00</ele>
   <time>2014-04-01T11:36:06Z</time>
  </trkpt>
  <trkpt lat="32.644242" lon="-3.213522">
   <ele>1309.00</ele>
   <time>2014-04-01T11:36:08Z</time>
  </trkpt>
  <trkpt lat="32.644638" lon="-3.216493">
   <ele>1308.00</ele>
   <time>2014-04-01T11:36:22Z</time>
  </trkpt>
  <trkpt lat="32.644645" lon="-3.216904">
   <ele>1306.00</ele>
   <time>2014-04-01T11:36:24Z</time>
  </trkpt>
  <trkpt lat="32.644602" lon="-3.217311">
   <ele>1305.00</ele>
   <time>2014-04-01T11:36:26Z</time>
  </trkpt>
  <trkpt lat="32.644461" lon="-3.218115">
   <ele>1303.00</ele>
   <time>2014-04-01T11:36:30Z</time>
  </trkpt>
  <trkpt lat="32.644141" lon="-3.219864">
   <ele>1303.00</ele>
   <time>2014-04-01T11:36:39Z</time>
  </trkpt>
  <trkpt lat="32.644100" lon="-3.220250">
   <ele>1303.00</ele>
   <time>2014-04-01T11:36:41Z</time>
  </trkpt>
  <trkpt lat="32.644094" lon="-3.220637">
   <ele>1304.00</ele>
   <time>2014-04-01T11:36:43Z</time>
  </trkpt>
  <trkpt lat="32.644120" lon="-3.221025">
   <ele>1305.00</ele>
   <time>2014-04-01T11:36:45Z</time>
  </trkpt>
  <trkpt lat="32.644178" lon="-3.221417">
   <ele>1305.00</ele>
   <time>2014-04-01T11:36:47Z</time>
  </trkpt>
  <trkpt lat="32.644651" lon="-3.223841">
   <ele>1304.00</ele>
   <time>2014-04-01T11:36:59Z</time>
  </trkpt>
  <trkpt lat="32.644681" lon="-3.224251">
   <ele>1303.00</ele>
   <time>2014-04-01T11:37:01Z</time>
  </trkpt>
  <trkpt lat="32.644660" lon="-3.224646">
   <ele>1302.00</ele>
   <time>2014-04-01T11:37:03Z</time>
  </trkpt>
  <trkpt lat="32.644605" lon="-3.225026">
   <ele>1301.00</ele>
   <time>2014-04-01T11:37:05Z</time>
  </trkpt>
  <trkpt lat="32.644412" lon="-3.226110">
   <ele>1304.00</ele>
   <time>2014-04-01T11:37:11Z</time>
  </trkpt>
  <trkpt lat="32.644395" lon="-3.226469">
   <ele>1305.00</ele>
   <time>2014-04-01T11:37:13Z</time>
  </trkpt>
  <trkpt lat="32.644427" lon="-3.226833">
   <ele>1306.00</ele>
   <time>2014-04-01T11:37:15Z</time>
  </trkpt>
  <trkpt lat="32.644496" lon="-3.227201">
   <ele>1307.00</ele>
   <time>2014-04-01T11:37:17Z</time>
  </trkpt>
  <trkpt lat="32.644590" lon="-3.227574">
   <ele>1308.00</ele>
   <time>2014-04-01T11:37:19Z</time>
  </trkpt>
  <trkpt lat="32.645115" lon="-3.229448">
   <ele>1309.00</ele>
   <time>2014-04-01T11:37:29Z</time>
  </trkpt>
  <trkpt lat="32.645198" lon="-3.229838">
   <ele>1310.00</ele>
   <time>2014-04-01T11:37:31Z</time>
  </trkpt>
  <trkpt lat="32.645300" lon="-3.230424">
   <ele>1310.00</ele>
   <time>2014-04-01T11:37:34Z</time>
  </trkpt>
  <trkpt lat="32.645354" lon="-3.230816">
   <ele>1310.00</ele>
   <time>2014-04-01T11:37:36Z</time>
  </trkpt>
  <trkpt lat="32.645392" lon="-3.231212">
   <ele>1311.00</ele>
   <time>2014-04-01T11:37:38Z</time>
  </trkpt>
  <trkpt lat="32.645405" lon="-3.231613">
   <ele>1311.00</ele>
   <time>2014-04-01T11:37:40Z</time>
  </trkpt>
  <trkpt lat="32.645385" lon="-3.232013">
   <ele>1311.00</ele>
   <time>2014-04-01T11:37:42Z</time>
  </trkpt>
  <trkpt lat="32.645330" lon="-3.232410">
   <ele>1312.00</ele>
   <time>2014-04-01T11:37:44Z</time>
  </trkpt>
  <trkpt lat="32.645245" lon="-3.232803">
   <ele>1312.00</ele>
   <time>2014-04-01T11:37:46Z</time>
  </trkpt>
  <trkpt lat="32.645132" lon="-3.233190">
   <ele>1313.00</ele>
   <time>2014-04-01T11:37:48Z</time>
  </trkpt>
  <trkpt lat="32.644741" lon="-3.234313">
   <ele>1315.00</ele>
   <time>2014-04-01T11:37:54Z</time>
  </trkpt>
  <trkpt lat="32.644478" lon="-3.235059">
   <ele>1316.00</ele>
   <time>2014-04-01T11:37:58Z</time>
  </trkpt>
  <trkpt lat="32.644360" lon="-3.235448">
   <ele>1316.00</ele>
   <time>2014-04-01T11:38:00Z</time>
  </trkpt>
  <trkpt lat="32.644261" lon="-3.235853">
   <ele>1316.00</ele>
   <time>2014-04-01T11:38:02Z</time>
  </trkpt>
  <trkpt lat="32.644192" lon="-3.236271">
   <ele>1316.00</ele>
   <time>2014-04-01T11:38:04Z</time>
  </trkpt>
  <trkpt lat="32.644170" lon="-3.236485">
   <ele>1316.00</ele>
   <time>2014-04-01T11:38:05Z</time>
  </trkpt>
  <trkpt lat="32.644140" lon="-3.236920">
   <ele>1316.00</ele>
   <time>2014-04-01T11:38:07Z</time>
  </trkpt>
  <trkpt lat="32.643934" lon="-3.240194">
   <ele>1319.00</ele>
   <time>2014-04-01T11:38:22Z</time>
  </trkpt>
  <trkpt lat="32.643876" lon="-3.241013">
   <ele>1321.00</ele>
   <time>2014-04-01T11:38:26Z</time>
  </trkpt>
  <trkpt lat="32.643822" lon="-3.241410">
   <ele>1322.00</ele>
   <time>2014-04-01T11:38:28Z</time>
  </trkpt>
  <trkpt lat="32.643750" lon="-3.241808">
   <ele>1323.00</ele>
   <time>2014-04-01T11:38:30Z</time>
  </trkpt>
  <trkpt lat="32.643660" lon="-3.242207">
   <ele>1323.00</ele>
   <time>2014-04-01T11:38:32Z</time>
  </trkpt>
  <trkpt lat="32.643548" lon="-3.242607">
   <ele>1324.00</ele>
   <time>2014-04-01T11:38:34Z</time>
  </trkpt>
  <trkpt lat="32.643417" lon="-3.243003">
   <ele>1324.00</ele>
   <time>2014-04-01T11:38:36Z</time>
  </trkpt>
  <trkpt lat="32.643267" lon="-3.243393">
   <ele>1324.00</ele>
   <time>2014-04-01T11:38:38Z</time>
  </trkpt>
  <trkpt lat="32.642035" lon="-3.246533">
   <ele>1328.00</ele>
   <time>2014-04-01T11:38:54Z</time>
  </trkpt>
  <trkpt lat="32.640871" lon="-3.249519">
   <ele>1330.00</ele>
   <time>2014-04-01T11:39:09Z</time>
  </trkpt>
  <trkpt lat="32.639704" lon="-3.252518">
   <ele>1332.00</ele>
   <time>2014-04-01T11:39:24Z</time>
  </trkpt>
  <trkpt lat="32.638426" lon="-3.255778">
   <ele>1333.00</ele>
   <time>2014-04-01T11:39:40Z</time>
  </trkpt>
  <trkpt lat="32.637879" lon="-3.257231">
   <ele>1334.00</ele>
   <time>2014-04-01T11:39:47Z</time>
  </trkpt>
  <trkpt lat="32.637672" lon="-3.257869">
   <ele>1334.00</ele>
   <time>2014-04-01T11:39:50Z</time>
  </trkpt>
  <trkpt lat="32.636704" lon="-3.260987">
   <ele>1337.00</ele>
   <time>2014-04-01T11:40:05Z</time>
  </trkpt>
  <trkpt lat="32.635664" lon="-3.264263">
   <ele>1343.00</ele>
   <time>2014-04-01T11:40:21Z</time>
  </trkpt>
  <trkpt lat="32.634678" lon="-3.267392">
   <ele>1346.00</ele>
   <time>2014-04-01T11:40:36Z</time>
  </trkpt>
  <trkpt lat="32.634174" lon="-3.269070">
   <ele>1346.00</ele>
   <time>2014-04-01T11:40:44Z</time>
  </trkpt>
  <trkpt lat="32.634065" lon="-3.269486">
   <ele>1346.00</ele>
   <time>2014-04-01T11:40:46Z</time>
  </trkpt>
  <trkpt lat="32.633929" lon="-3.270086">
   <ele>1347.00</ele>
   <time>2014-04-01T11:40:49Z</time>
  </trkpt>
  <trkpt lat="32.633264" lon="-3.273331">
   <ele>1344.00</ele>
   <time>2014-04-01T11:41:05Z</time>
  </trkpt>
  <trkpt lat="32.632601" lon="-3.276559">
   <ele>1339.00</ele>
   <time>2014-04-01T11:41:20Z</time>
  </trkpt>
  <trkpt lat="32.632137" lon="-3.278697">
   <ele>1341.00</ele>
   <time>2014-04-01T11:41:30Z</time>
  </trkpt>
  <trkpt lat="32.631968" lon="-3.279330">
   <ele>1341.00</ele>
   <time>2014-04-01T11:41:33Z</time>
  </trkpt>
  <trkpt lat="32.630972" lon="-3.282727">
   <ele>1342.00</ele>
   <time>2014-04-01T11:41:49Z</time>
  </trkpt>
  <trkpt lat="32.630050" lon="-3.285891">
   <ele>1348.00</ele>
   <time>2014-04-01T11:42:04Z</time>
  </trkpt>
  <trkpt lat="32.629729" lon="-3.286944">
   <ele>1351.00</ele>
   <time>2014-04-01T11:42:09Z</time>
  </trkpt>
  <trkpt lat="32.629587" lon="-3.287353">
   <ele>1352.00</ele>
   <time>2014-04-01T11:42:11Z</time>
  </trkpt>
  <trkpt lat="32.629426" lon="-3.287754">
   <ele>1353.00</ele>
   <time>2014-04-01T11:42:13Z</time>
  </trkpt>
  <trkpt lat="32.629068" lon="-3.288554">
   <ele>1354.00</ele>
   <time>2014-04-01T11:42:17Z</time>
  </trkpt>
  <trkpt lat="32.627594" lon="-3.291545">
   <ele>1357.00</ele>
   <time>2014-04-01T11:42:32Z</time>
  </trkpt>
  <trkpt lat="32.626164" lon="-3.294451">
   <ele>1361.00</ele>
   <time>2014-04-01T11:42:47Z</time>
  </trkpt>
  <trkpt lat="32.624580" lon="-3.297669">
   <ele>1364.00</ele>
   <time>2014-04-01T11:43:03Z</time>
  </trkpt>
  <trkpt lat="32.623109" lon="-3.300673">
   <ele>1361.00</ele>
   <time>2014-04-01T11:43:18Z</time>
  </trkpt>
  <trkpt lat="32.621558" lon="-3.303827">
   <ele>1357.00</ele>
   <time>2014-04-01T11:43:33Z</time>
  </trkpt>
  <trkpt lat="32.620025" lon="-3.306949">
   <ele>1356.00</ele>
   <time>2014-04-01T11:43:48Z</time>
  </trkpt>
  <trkpt lat="32.618586" lon="-3.309853">
   <ele>1355.00</ele>
   <time>2014-04-01T11:44:02Z</time>
  </trkpt>
  <trkpt lat="32.618248" lon="-3.310446">
   <ele>1354.00</ele>
   <time>2014-04-01T11:44:05Z</time>
  </trkpt>
  <trkpt lat="32.618000" lon="-3.310823">
   <ele>1354.00</ele>
   <time>2014-04-01T11:44:07Z</time>
  </trkpt>
  <trkpt lat="32.616051" lon="-3.313593">
   <ele>1354.00</ele>
   <time>2014-04-01T11:44:22Z</time>
  </trkpt>
  <trkpt lat="32.614370" lon="-3.315980">
   <ele>1354.00</ele>
   <time>2014-04-01T11:44:35Z</time>
  </trkpt>
  <trkpt lat="32.614015" lon="-3.316541">
   <ele>1353.00</ele>
   <time>2014-04-01T11:44:38Z</time>
  </trkpt>
  <trkpt lat="32.613797" lon="-3.316933">
   <ele>1353.00</ele>
   <time>2014-04-01T11:44:40Z</time>
  </trkpt>
  <trkpt lat="32.613591" lon="-3.317335">
   <ele>1353.00</ele>
   <time>2014-04-01T11:44:42Z</time>
  </trkpt>
  <trkpt lat="32.612003" lon="-3.320752">
   <ele>1353.00</ele>
   <time>2014-04-01T11:44:58Z</time>
  </trkpt>
  <trkpt lat="32.610522" lon="-3.323969">
   <ele>1356.00</ele>
   <time>2014-04-01T11:45:13Z</time>
  </trkpt>
  <trkpt lat="32.609753" lon="-3.325665">
   <ele>1358.00</ele>
   <time>2014-04-01T11:45:21Z</time>
  </trkpt>
  <trkpt lat="32.608324" lon="-3.329156">
   <ele>1359.00</ele>
   <time>2014-04-01T11:45:37Z</time>
  </trkpt>
  <trkpt lat="32.606999" lon="-3.332423">
   <ele>1363.00</ele>
   <time>2014-04-01T11:45:52Z</time>
  </trkpt>
  <trkpt lat="32.605739" lon="-3.335553">
   <ele>1369.00</ele>
   <time>2014-04-01T11:46:06Z</time>
  </trkpt>
  <trkpt lat="32.605593" lon="-3.335984">
   <ele>1372.00</ele>
   <time>2014-04-01T11:46:08Z</time>
  </trkpt>
  <trkpt lat="32.605468" lon="-3.336417">
   <ele>1373.00</ele>
   <time>2014-04-01T11:46:10Z</time>
  </trkpt>
  <trkpt lat="32.605357" lon="-3.336862">
   <ele>1374.00</ele>
   <time>2014-04-01T11:46:12Z</time>
  </trkpt>
  <trkpt lat="32.604783" lon="-3.339357">
   <ele>1375.00</ele>
   <time>2014-04-01T11:46:23Z</time>
  </trkpt>
  <trkpt lat="32.604221" lon="-3.341333">
   <ele>1376.00</ele>
   <time>2014-04-01T11:46:32Z</time>
  </trkpt>
  <trkpt lat="32.604149" lon="-3.341538">
   <ele>1376.00</ele>
   <time>2014-04-01T11:46:33Z</time>
  </trkpt>
  <trkpt lat="32.604067" lon="-3.341736">
   <ele>1377.00</ele>
   <time>2014-04-01T11:46:34Z</time>
  </trkpt>
  <trkpt lat="32.603975" lon="-3.341928">
   <ele>1377.00</ele>
   <time>2014-04-01T11:46:35Z</time>
  </trkpt>
  <trkpt lat="32.603874" lon="-3.342115">
   <ele>1377.00</ele>
   <time>2014-04-01T11:46:36Z</time>
  </trkpt>
  <trkpt lat="32.603765" lon="-3.342295">
   <ele>1378.00</ele>
   <time>2014-04-01T11:46:37Z</time>
  </trkpt>
  <trkpt lat="32.603648" lon="-3.342468">
   <ele>1378.00</ele>
   <time>2014-04-01T11:46:38Z</time>
  </trkpt>
  <trkpt lat="32.603522" lon="-3.342636">
   <ele>1378.00</ele>
   <time>2014-04-01T11:46:39Z</time>
  </trkpt>
  <trkpt lat="32.603389" lon="-3.342798">
   <ele>1377.00</ele>
   <time>2014-04-01T11:46:40Z</time>
  </trkpt>
  <trkpt lat="32.603249" lon="-3.342954">
   <ele>1377.00</ele>
   <time>2014-04-01T11:46:41Z</time>
  </trkpt>
  <trkpt lat="32.603103" lon="-3.343105">
   <ele>1377.00</ele>
   <time>2014-04-01T11:46:42Z</time>
  </trkpt>
  <trkpt lat="32.602799" lon="-3.343388">
   <ele>1377.00</ele>
   <time>2014-04-01T11:46:44Z</time>
  </trkpt>
  <trkpt lat="32.600926" lon="-3.345000">
   <ele>1381.00</ele>
   <time>2014-04-01T11:46:56Z</time>
  </trkpt>
  <trkpt lat="32.600635" lon="-3.345310">
   <ele>1381.00</ele>
   <time>2014-04-01T11:46:58Z</time>
  </trkpt>
  <trkpt lat="32.600497" lon="-3.345477">
   <ele>1381.00</ele>
   <time>2014-04-01T11:46:59Z</time>
  </trkpt>
  <trkpt lat="32.600233" lon="-3.345829">
   <ele>1381.00</ele>
   <time>2014-04-01T11:47:01Z</time>
  </trkpt>
  <trkpt lat="32.600109" lon="-3.346015">
   <ele>1382.00</ele>
   <time>2014-04-01T11:47:02Z</time>
  </trkpt>
  <trkpt lat="32.599990" lon="-3.346208">
   <ele>1382.00</ele>
   <time>2014-04-01T11:47:03Z</time>
  </trkpt>
  <trkpt lat="32.598185" lon="-3.349440">
   <ele>1384.00</ele>
   <time>2014-04-01T11:47:19Z</time>
  </trkpt>
  <trkpt lat="32.596474" lon="-3.352478">
   <ele>1384.00</ele>
   <time>2014-04-01T11:47:34Z</time>
  </trkpt>
  <trkpt lat="32.594749" lon="-3.355538">
   <ele>1386.00</ele>
   <time>2014-04-01T11:47:49Z</time>
  </trkpt>
  <trkpt lat="32.593039" lon="-3.358601">
   <ele>1388.00</ele>
   <time>2014-04-01T11:48:04Z</time>
  </trkpt>
  <trkpt lat="32.591238" lon="-3.361833">
   <ele>1391.00</ele>
   <time>2014-04-01T11:48:20Z</time>
  </trkpt>
  <trkpt lat="32.590879" lon="-3.362440">
   <ele>1390.00</ele>
   <time>2014-04-01T11:48:23Z</time>
  </trkpt>
  <trkpt lat="32.588971" lon="-3.365451">
   <ele>1383.00</ele>
   <time>2014-04-01T11:48:38Z</time>
  </trkpt>
  <trkpt lat="32.587275" lon="-3.368101">
   <ele>1381.00</ele>
   <time>2014-04-01T11:48:52Z</time>
  </trkpt>
  <trkpt lat="32.586891" lon="-3.368639">
   <ele>1381.00</ele>
   <time>2014-04-01T11:48:55Z</time>
  </trkpt>
  <trkpt lat="32.586619" lon="-3.368987">
   <ele>1380.00</ele>
   <time>2014-04-01T11:48:57Z</time>
  </trkpt>
  <trkpt lat="32.585489" lon="-3.370365">
   <ele>1379.00</ele>
   <time>2014-04-01T11:49:05Z</time>
  </trkpt>
  <trkpt lat="32.585229" lon="-3.370739">
   <ele>1378.00</ele>
   <time>2014-04-01T11:49:07Z</time>
  </trkpt>
  <trkpt lat="32.584987" lon="-3.371133">
   <ele>1377.00</ele>
   <time>2014-04-01T11:49:09Z</time>
  </trkpt>
  <trkpt lat="32.584086" lon="-3.372775">
   <ele>1376.00</ele>
   <time>2014-04-01T11:49:17Z</time>
  </trkpt>
  <trkpt lat="32.582855" lon="-3.375057">
   <ele>1377.00</ele>
   <time>2014-04-01T11:49:28Z</time>
  </trkpt>
  <trkpt lat="32.582652" lon="-3.375486">
   <ele>1377.00</ele>
   <time>2014-04-01T11:49:30Z</time>
  </trkpt>
  <trkpt lat="32.582460" lon="-3.375931">
   <ele>1377.00</ele>
   <time>2014-04-01T11:49:32Z</time>
  </trkpt>
  <trkpt lat="32.581909" lon="-3.377355">
   <ele>1373.00</ele>
   <time>2014-04-01T11:49:38Z</time>
  </trkpt>
  <trkpt lat="32.580423" lon="-3.381212">
   <ele>1370.00</ele>
   <time>2014-04-01T11:49:54Z</time>
  </trkpt>
  <trkpt lat="32.580162" lon="-3.381941">
   <ele>1369.00</ele>
   <time>2014-04-01T11:49:57Z</time>
  </trkpt>
  <trkpt lat="32.578966" lon="-3.385543">
   <ele>1371.00</ele>
   <time>2014-04-01T11:50:12Z</time>
  </trkpt>
  <trkpt lat="32.577833" lon="-3.388971">
   <ele>1374.00</ele>
   <time>2014-04-01T11:50:27Z</time>
  </trkpt>
  <trkpt lat="32.577711" lon="-3.389448">
   <ele>1373.00</ele>
   <time>2014-04-01T11:50:29Z</time>
  </trkpt>
  <trkpt lat="32.577175" lon="-3.391636">
   <ele>1369.00</ele>
   <time>2014-04-01T11:50:38Z</time>
  </trkpt>
  <trkpt lat="32.577021" lon="-3.392111">
   <ele>1368.00</ele>
   <time>2014-04-01T11:50:40Z</time>
  </trkpt>
  <trkpt lat="32.576842" lon="-3.392575">
   <ele>1367.00</ele>
   <time>2014-04-01T11:50:42Z</time>
  </trkpt>
  <trkpt lat="32.575984" lon="-3.394553">
   <ele>1367.00</ele>
   <time>2014-04-01T11:50:51Z</time>
  </trkpt>
  <trkpt lat="32.575448" lon="-3.395805">
   <ele>1368.00</ele>
   <time>2014-04-01T11:50:57Z</time>
  </trkpt>
  <trkpt lat="32.575131" lon="-3.396665">
   <ele>1367.00</ele>
   <time>2014-04-01T11:51:01Z</time>
  </trkpt>
  <trkpt lat="32.574513" lon="-3.398398">
   <ele>1368.00</ele>
   <time>2014-04-01T11:51:09Z</time>
  </trkpt>
  <trkpt lat="32.574423" lon="-3.398590">
   <ele>1369.00</ele>
   <time>2014-04-01T11:51:10Z</time>
  </trkpt>
  <trkpt lat="32.574325" lon="-3.398772">
   <ele>1370.00</ele>
   <time>2014-04-01T11:51:11Z</time>
  </trkpt>
  <trkpt lat="32.574119" lon="-3.399115">
   <ele>1373.00</ele>
   <time>2014-04-01T11:51:13Z</time>
  </trkpt>
  <trkpt lat="32.573915" lon="-3.399455">
   <ele>1374.00</ele>
   <time>2014-04-01T11:51:15Z</time>
  </trkpt>
  <trkpt lat="32.573725" lon="-3.399817">
   <ele>1375.00</ele>
   <time>2014-04-01T11:51:17Z</time>
  </trkpt>
  <trkpt lat="32.573525" lon="-3.400176">
   <ele>1376.00</ele>
   <time>2014-04-01T11:51:19Z</time>
  </trkpt>
  <trkpt lat="32.573416" lon="-3.400349">
   <ele>1376.00</ele>
   <time>2014-04-01T11:51:20Z</time>
  </trkpt>
  <trkpt lat="32.573182" lon="-3.400684">
   <ele>1377.00</ele>
   <time>2014-04-01T11:51:22Z</time>
  </trkpt>
  <trkpt lat="32.573057" lon="-3.400844">
   <ele>1377.00</ele>
   <time>2014-04-01T11:51:23Z</time>
  </trkpt>
  <trkpt lat="32.572793" lon="-3.401152">
   <ele>1377.00</ele>
   <time>2014-04-01T11:51:25Z</time>
  </trkpt>
  <trkpt lat="32.572118" lon="-3.401911">
   <ele>1378.00</ele>
   <time>2014-04-01T11:51:30Z</time>
  </trkpt>
  <trkpt lat="32.571975" lon="-3.402052">
   <ele>1378.00</ele>
   <time>2014-04-01T11:51:31Z</time>
  </trkpt>
  <trkpt lat="32.571829" lon="-3.402180">
   <ele>1378.00</ele>
   <time>2014-04-01T11:51:32Z</time>
  </trkpt>
  <trkpt lat="32.571676" lon="-3.402297">
   <ele>1379.00</ele>
   <time>2014-04-01T11:51:33Z</time>
  </trkpt>
  <trkpt lat="32.571519" lon="-3.402404">
   <ele>1379.00</ele>
   <time>2014-04-01T11:51:34Z</time>
  </trkpt>
  <trkpt lat="32.570564" lon="-3.403047">
   <ele>1380.00</ele>
   <time>2014-04-01T11:51:40Z</time>
  </trkpt>
  <trkpt lat="32.570408" lon="-3.403172">
   <ele>1380.00</ele>
   <time>2014-04-01T11:51:41Z</time>
  </trkpt>
  <trkpt lat="32.570257" lon="-3.403304">
   <ele>1380.00</ele>
   <time>2014-04-01T11:51:42Z</time>
  </trkpt>
  <trkpt lat="32.569965" lon="-3.403587">
   <ele>1380.00</ele>
   <time>2014-04-01T11:51:44Z</time>
  </trkpt>
  <trkpt lat="32.567974" lon="-3.405709">
   <ele>1376.00</ele>
   <time>2014-04-01T11:51:58Z</time>
  </trkpt>
  <trkpt lat="32.567700" lon="-3.406029">
   <ele>1375.00</ele>
   <time>2014-04-01T11:52:00Z</time>
  </trkpt>
  <trkpt lat="32.567572" lon="-3.406199">
   <ele>1375.00</ele>
   <time>2014-04-01T11:52:01Z</time>
  </trkpt>
  <trkpt lat="32.567453" lon="-3.406377">
   <ele>1374.00</ele>
   <time>2014-04-01T11:52:02Z</time>
  </trkpt>
  <trkpt lat="32.567340" lon="-3.406562">
   <ele>1374.00</ele>
   <time>2014-04-01T11:52:03Z</time>
  </trkpt>
  <trkpt lat="32.567131" lon="-3.406944">
   <ele>1373.00</ele>
   <time>2014-04-01T11:52:05Z</time>
  </trkpt>
  <trkpt lat="32.566231" lon="-3.408618">
   <ele>1373.00</ele>
   <time>2014-04-01T11:52:14Z</time>
  </trkpt>
  <trkpt lat="32.566118" lon="-3.408796">
   <ele>1373.00</ele>
   <time>2014-04-01T11:52:15Z</time>
  </trkpt>
  <trkpt lat="32.565996" lon="-3.408969">
   <ele>1372.00</ele>
   <time>2014-04-01T11:52:16Z</time>
  </trkpt>
  <trkpt lat="32.565734" lon="-3.409307">
   <ele>1371.00</ele>
   <time>2014-04-01T11:52:18Z</time>
  </trkpt>
  <trkpt lat="32.563547" lon="-3.412003">
   <ele>1365.00</ele>
   <time>2014-04-01T11:52:34Z</time>
  </trkpt>
  <trkpt lat="32.563306" lon="-3.412353">
   <ele>1365.00</ele>
   <time>2014-04-01T11:52:36Z</time>
  </trkpt>
  <trkpt lat="32.563194" lon="-3.412537">
   <ele>1364.00</ele>
   <time>2014-04-01T11:52:37Z</time>
  </trkpt>
  <trkpt lat="32.563090" lon="-3.412729">
   <ele>1364.00</ele>
   <time>2014-04-01T11:52:38Z</time>
  </trkpt>
  <trkpt lat="32.562993" lon="-3.412928">
   <ele>1363.00</ele>
   <time>2014-04-01T11:52:39Z</time>
  </trkpt>
  <trkpt lat="32.562811" lon="-3.413336">
   <ele>1362.00</ele>
   <time>2014-04-01T11:52:41Z</time>
  </trkpt>
  <trkpt lat="32.561751" lon="-3.415788">
   <ele>1359.00</ele>
   <time>2014-04-01T11:52:53Z</time>
  </trkpt>
  <trkpt lat="32.561564" lon="-3.416163">
   <ele>1359.00</ele>
   <time>2014-04-01T11:52:55Z</time>
  </trkpt>
  <trkpt lat="32.561360" lon="-3.416507">
   <ele>1358.00</ele>
   <time>2014-04-01T11:52:57Z</time>
  </trkpt>
  <trkpt lat="32.561134" lon="-3.416828">
   <ele>1358.00</ele>
   <time>2014-04-01T11:52:59Z</time>
  </trkpt>
  <trkpt lat="32.560881" lon="-3.417127">
   <ele>1357.00</ele>
   <time>2014-04-01T11:53:01Z</time>
  </trkpt>
  <trkpt lat="32.560743" lon="-3.417270">
   <ele>1357.00</ele>
   <time>2014-04-01T11:53:02Z</time>
  </trkpt>
  <trkpt lat="32.560600" lon="-3.417407">
   <ele>1357.00</ele>
   <time>2014-04-01T11:53:03Z</time>
  </trkpt>
  <trkpt lat="32.560299" lon="-3.417672">
   <ele>1356.00</ele>
   <time>2014-04-01T11:53:05Z</time>
  </trkpt>
  <trkpt lat="32.557743" lon="-3.419804">
   <ele>1351.00</ele>
   <time>2014-04-01T11:53:21Z</time>
  </trkpt>
  <trkpt lat="32.556475" lon="-3.420840">
   <ele>1350.00</ele>
   <time>2014-04-01T11:53:29Z</time>
  </trkpt>
  <trkpt lat="32.556140" lon="-3.421074">
   <ele>1350.00</ele>
   <time>2014-04-01T11:53:31Z</time>
  </trkpt>
  <trkpt lat="32.555797" lon="-3.421295">
   <ele>1350.00</ele>
   <time>2014-04-01T11:53:33Z</time>
  </trkpt>
  <trkpt lat="32.554787" lon="-3.421922">
   <ele>1348.00</ele>
   <time>2014-04-01T11:53:39Z</time>
  </trkpt>
  <trkpt lat="32.554628" lon="-3.422040">
   <ele>1347.00</ele>
   <time>2014-04-01T11:53:40Z</time>
  </trkpt>
  <trkpt lat="32.554472" lon="-3.422165">
   <ele>1347.00</ele>
   <time>2014-04-01T11:53:41Z</time>
  </trkpt>
  <trkpt lat="32.554321" lon="-3.422301">
   <ele>1347.00</ele>
   <time>2014-04-01T11:53:42Z</time>
  </trkpt>
  <trkpt lat="32.554175" lon="-3.422445">
   <ele>1347.00</ele>
   <time>2014-04-01T11:53:43Z</time>
  </trkpt>
  <trkpt lat="32.553895" lon="-3.422756">
   <ele>1346.00</ele>
   <time>2014-04-01T11:53:45Z</time>
  </trkpt>
  <trkpt lat="32.553760" lon="-3.422922">
   <ele>1346.00</ele>
   <time>2014-04-01T11:53:46Z</time>
  </trkpt>
  <trkpt lat="32.553503" lon="-3.423273">
   <ele>1346.00</ele>
   <time>2014-04-01T11:53:48Z</time>
  </trkpt>
  <trkpt lat="32.552095" lon="-3.425285">
   <ele>1347.00</ele>
   <time>2014-04-01T11:53:59Z</time>
  </trkpt>
  <trkpt lat="32.551823" lon="-3.425625">
   <ele>1347.00</ele>
   <time>2014-04-01T11:54:01Z</time>
  </trkpt>
  <trkpt lat="32.551537" lon="-3.425950">
   <ele>1348.00</ele>
   <time>2014-04-01T11:54:03Z</time>
  </trkpt>
  <trkpt lat="32.551234" lon="-3.426259">
   <ele>1348.00</ele>
   <time>2014-04-01T11:54:05Z</time>
  </trkpt>
  <trkpt lat="32.550913" lon="-3.426550">
   <ele>1348.00</ele>
   <time>2014-04-01T11:54:07Z</time>
  </trkpt>
  <trkpt lat="32.550246" lon="-3.427103">
   <ele>1347.00</ele>
   <time>2014-04-01T11:54:11Z</time>
  </trkpt>
  <trkpt lat="32.549440" lon="-3.427767">
   <ele>1345.00</ele>
   <time>2014-04-01T11:54:16Z</time>
  </trkpt>
  <trkpt lat="32.548301" lon="-3.428716">
   <ele>1342.00</ele>
   <time>2014-04-01T11:54:24Z</time>
  </trkpt>
  <trkpt lat="32.547424" lon="-3.429447">
   <ele>1341.00</ele>
   <time>2014-04-01T11:54:31Z</time>
  </trkpt>
  <trkpt lat="32.547195" lon="-3.429654">
   <ele>1341.00</ele>
   <time>2014-04-01T11:54:33Z</time>
  </trkpt>
  <trkpt lat="32.546983" lon="-3.429882">
   <ele>1341.00</ele>
   <time>2014-04-01T11:54:35Z</time>
  </trkpt>
  <trkpt lat="32.546788" lon="-3.430138">
   <ele>1342.00</ele>
   <time>2014-04-01T11:54:37Z</time>
  </trkpt>
  <trkpt lat="32.546603" lon="-3.430409">
   <ele>1342.00</ele>
   <time>2014-04-01T11:54:39Z</time>
  </trkpt>
  <trkpt lat="32.545978" lon="-3.431369">
   <ele>1344.00</ele>
   <time>2014-04-01T11:54:46Z</time>
  </trkpt>
  <trkpt lat="32.545824" lon="-3.431655">
   <ele>1344.00</ele>
   <time>2014-04-01T11:54:48Z</time>
  </trkpt>
  <trkpt lat="32.545686" lon="-3.431953">
   <ele>1345.00</ele>
   <time>2014-04-01T11:54:50Z</time>
  </trkpt>
  <trkpt lat="32.545565" lon="-3.432257">
   <ele>1346.00</ele>
   <time>2014-04-01T11:54:52Z</time>
  </trkpt>
  <trkpt lat="32.545255" lon="-3.433163">
   <ele>1348.00</ele>
   <time>2014-04-01T11:54:58Z</time>
  </trkpt>
  <trkpt lat="32.544834" lon="-3.434400">
   <ele>1352.00</ele>
   <time>2014-04-01T11:55:07Z</time>
  </trkpt>
  <trkpt lat="32.544721" lon="-3.434608">
   <ele>1353.00</ele>
   <time>2014-04-01T11:55:09Z</time>
  </trkpt>
  <trkpt lat="32.544572" lon="-3.434768">
   <ele>1353.00</ele>
   <time>2014-04-01T11:55:11Z</time>
  </trkpt>
  <trkpt lat="32.544389" lon="-3.434873">
   <ele>1353.00</ele>
   <time>2014-04-01T11:55:13Z</time>
  </trkpt>
  <trkpt lat="32.543900" lon="-3.435071">
   <ele>1352.00</ele>
   <time>2014-04-01T11:55:18Z</time>
  </trkpt>
  <trkpt lat="32.542321" lon="-3.435695">
   <ele>1349.00</ele>
   <time>2014-04-01T11:55:34Z</time>
  </trkpt>
  <trkpt lat="32.541408" lon="-3.436057">
   <ele>1348.00</ele>
   <time>2014-04-01T11:55:44Z</time>
  </trkpt>
  <trkpt lat="32.540980" lon="-3.436224">
   <ele>1348.00</ele>
   <time>2014-04-01T11:55:49Z</time>
  </trkpt>
  <trkpt lat="32.540433" lon="-3.436455">
   <ele>1348.00</ele>
   <time>2014-04-01T11:55:56Z</time>
  </trkpt>
  <trkpt lat="32.539491" lon="-3.436828">
   <ele>1347.00</ele>
   <time>2014-04-01T11:56:08Z</time>
  </trkpt>
  <trkpt lat="32.539046" lon="-3.437018">
   <ele>1346.00</ele>
   <time>2014-04-01T11:56:14Z</time>
  </trkpt>
  <trkpt lat="32.538818" lon="-3.437086">
   <ele>1346.00</ele>
   <time>2014-04-01T11:56:17Z</time>
  </trkpt>
  <trkpt lat="32.538512" lon="-3.437137">
   <ele>1345.00</ele>
   <time>2014-04-01T11:56:21Z</time>
  </trkpt>
  <trkpt lat="32.538286" lon="-3.437162">
   <ele>1345.00</ele>
   <time>2014-04-01T11:56:24Z</time>
  </trkpt>
  <trkpt lat="32.537755" lon="-3.437212">
   <ele>1343.00</ele>
   <time>2014-04-01T11:56:31Z</time>
  </trkpt>
  <trkpt lat="32.537318" lon="-3.437274">
   <ele>1341.00</ele>
   <time>2014-04-01T11:56:37Z</time>
  </trkpt>
  <trkpt lat="32.537136" lon="-3.437342">
   <ele>1340.00</ele>
   <time>2014-04-01T11:56:40Z</time>
  </trkpt>
  <trkpt lat="32.536563" lon="-3.437609">
   <ele>1336.00</ele>
   <time>2014-04-01T11:56:51Z</time>
  </trkpt>
  <trkpt lat="32.536389" lon="-3.437683">
   <ele>1335.00</ele>
   <time>2014-04-01T11:56:57Z</time>
  </trkpt>
  <trkpt lat="32.536267" lon="-3.437839">
   <ele>1335.00</ele>
   <time>2014-04-01T11:57:02Z</time>
  </trkpt>
  <trkpt lat="32.536157" lon="-3.438055">
   <ele>1335.00</ele>
   <time>2014-04-01T11:57:08Z</time>
  </trkpt>
  <trkpt lat="32.536159" lon="-3.438310">
   <ele>1335.00</ele>
   <time>2014-04-01T11:57:13Z</time>
  </trkpt>
  <trkpt lat="32.536253" lon="-3.438524">
   <ele>1336.00</ele>
   <time>2014-04-01T11:57:17Z</time>
  </trkpt>
  <trkpt lat="32.536464" lon="-3.438923">
   <ele>1338.00</ele>
   <time>2014-04-01T11:57:24Z</time>
  </trkpt>
  <trkpt lat="32.536528" lon="-3.439148">
   <ele>1339.00</ele>
   <time>2014-04-01T11:57:28Z</time>
  </trkpt>
  <trkpt lat="32.536498" lon="-3.439386">
   <ele>1340.00</ele>
   <time>2014-04-01T11:57:32Z</time>
  </trkpt>
  <trkpt lat="32.536427" lon="-3.439607">
   <ele>1341.00</ele>
   <time>2014-04-01T11:57:36Z</time>
  </trkpt>
  <trkpt lat="32.536214" lon="-3.439639">
   <ele>1344.00</ele>
   <time>2014-04-01T11:57:41Z</time>
  </trkpt>
  <trkpt lat="32.535896" lon="-3.439657">
   <ele>1346.00</ele>
   <time>2014-04-01T11:57:48Z</time>
  </trkpt>
  <trkpt lat="32.535683" lon="-3.439693">
   <ele>1346.00</ele>
   <time>2014-04-01T11:57:53Z</time>
  </trkpt>
  <trkpt lat="32.535476" lon="-3.439725">
   <ele>1345.00</ele>
   <time>2014-04-01T11:57:59Z</time>
  </trkpt>
  <trkpt lat="32.535349" lon="-3.439853">
   <ele>1345.00</ele>
   <time>2014-04-01T11:58:05Z</time>
  </trkpt>
  <trkpt lat="32.535370" lon="-3.440114">
   <ele>1345.00</ele>
   <time>2014-04-01T11:58:10Z</time>
  </trkpt>
  <trkpt lat="32.535365" lon="-3.440351">
   <ele>1345.00</ele>
   <time>2014-04-01T11:58:14Z</time>
  </trkpt>
  <trkpt lat="32.535384" lon="-3.441234">
   <ele>1347.00</ele>
   <time>2014-04-01T11:58:29Z</time>
  </trkpt>
  <trkpt lat="32.535389" lon="-3.441477">
   <ele>1347.00</ele>
   <time>2014-04-01T11:58:34Z</time>
  </trkpt>
  <trkpt lat="32.535396" lon="-3.441716">
   <ele>1348.00</ele>
   <time>2014-04-01T11:58:39Z</time>
  </trkpt>
  <trkpt lat="32.535397" lon="-3.441972">
   <ele>1349.00</ele>
   <time>2014-04-01T11:58:44Z</time>
  </trkpt>
  <trkpt lat="32.535406" lon="-3.442210">
   <ele>1349.00</ele>
   <time>2014-04-01T11:58:49Z</time>
  </trkpt>
  <trkpt lat="32.535410" lon="-3.442436">
   <ele>1349.00</ele>
   <time>2014-04-01T11:58:54Z</time>
  </trkpt>
  <trkpt lat="32.535414" lon="-3.442650">
   <ele>1349.00</ele>
   <time>2014-04-01T11:58:59Z</time>
  </trkpt>
  <trkpt lat="32.535425" lon="-3.442868">
   <ele>1349.00</ele>
   <time>2014-04-01T11:59:10Z</time>
  </trkpt>
  <trkpt lat="32.535389" lon="-3.443089">
   <ele>1349.00</ele>
   <time>2014-04-01T11:59:23Z</time>
  </trkpt>
  <trkpt lat="32.535314" lon="-3.443287">
   <ele>1350.00</ele>
   <time>2014-04-01T11:59:34Z</time>
  </trkpt>
  <trkpt lat="32.535305" lon="-3.443462">
   <ele>1351.00</ele>
   <time>2014-04-01T11:59:49Z</time>
  </trkpt>
  <trkpt lat="32.535320" lon="-3.443471">
   <ele>1354.00</ele>
   <time>2014-04-01T12:00:05Z</time>
  </trkpt>
  <trkpt lat="32.535298" lon="-3.443463">
   <ele>1350.00</ele>
   <time>2014-04-01T12:00:20Z</time>
  </trkpt>
  <trkpt lat="32.535294" lon="-3.443450">
   <ele>1344.00</ele>
   <time>2014-04-01T12:00:35Z</time>
  </trkpt>
  <trkpt lat="32.535283" lon="-3.443413">
   <ele>1343.00</ele>
   <time>2014-04-01T12:00:51Z</time>
  </trkpt>
  <trkpt lat="32.535283" lon="-3.443404">
   <ele>1345.00</ele>
   <time>2014-04-01T12:01:06Z</time>
  </trkpt>
  <trkpt lat="32.535289" lon="-3.443406">
   <ele>1346.00</ele>
   <time>2014-04-01T12:01:21Z</time>
  </trkpt>
  <trkpt lat="32.535289" lon="-3.443414">
   <ele>1341.00</ele>
   <time>2014-04-01T12:01:36Z</time>
  </trkpt>
  <trkpt lat="32.535298" lon="-3.443415">
   <ele>1337.00</ele>
   <time>2014-04-01T12:01:52Z</time>
  </trkpt>
  <trkpt lat="32.535321" lon="-3.443441">
   <ele>1339.00</ele>
   <time>2014-04-01T12:02:07Z</time>
  </trkpt>
  <trkpt lat="32.535326" lon="-3.443494">
   <ele>1339.00</ele>
   <time>2014-04-01T12:02:23Z</time>
  </trkpt>
  <trkpt lat="32.535317" lon="-3.443478">
   <ele>1340.00</ele>
   <time>2014-04-01T12:02:38Z</time>
  </trkpt>
  <trkpt lat="32.535269" lon="-3.443429">
   <ele>1337.00</ele>
   <time>2014-04-01T12:02:53Z</time>
  </trkpt>
  <trkpt lat="32.535308" lon="-3.443487">
   <ele>1338.00</ele>
   <time>2014-04-01T12:03:09Z</time>
  </trkpt>
  <trkpt lat="32.535385" lon="-3.443505">
   <ele>1351.00</ele>
   <time>2014-04-01T12:03:24Z</time>
  </trkpt>
  <trkpt lat="32.535403" lon="-3.443495">
   <ele>1357.00</ele>
   <time>2014-04-01T12:03:31Z</time>
  </trkpt>
 </trkseg>
 <trkseg>
  <trkpt lat="32.535350" lon="-3.443634">
   <ele>1352.00</ele>
   <time>2014-04-01T12:12:47Z</time>
  </trkpt>
  <trkpt lat="32.535349" lon="-3.443632">
   <ele>1353.00</ele>
   <time>2014-04-01T12:13:02Z</time>
  </trkpt>
  <trkpt lat="32.535321" lon="-3.443608">
   <ele>1350.00</ele>
   <time>2014-04-01T12:13:18Z</time>
  </trkpt>
  <trkpt lat="32.535274" lon="-3.443563">
   <ele>1350.00</ele>
   <time>2014-04-01T12:13:34Z</time>
  </trkpt>
  <trkpt lat="32.535274" lon="-3.443345">
   <ele>1352.00</ele>
   <time>2014-04-01T12:13:44Z</time>
  </trkpt>
  <trkpt lat="32.535371" lon="-3.443089">
   <ele>1353.00</ele>
   <time>2014-04-01T12:13:56Z</time>
  </trkpt>
  <trkpt lat="32.535392" lon="-3.442852">
   <ele>1352.00</ele>
   <time>2014-04-01T12:14:04Z</time>
  </trkpt>
  <trkpt lat="32.535395" lon="-3.442617">
   <ele>1352.00</ele>
   <time>2014-04-01T12:14:11Z</time>
  </trkpt>
  <trkpt lat="32.535382" lon="-3.442367">
   <ele>1350.00</ele>
   <time>2014-04-01T12:14:18Z</time>
  </trkpt>
  <trkpt lat="32.535369" lon="-3.442118">
   <ele>1349.00</ele>
   <time>2014-04-01T12:14:24Z</time>
  </trkpt>
  <trkpt lat="32.535370" lon="-3.441894">
   <ele>1350.00</ele>
   <time>2014-04-01T12:14:28Z</time>
  </trkpt>
  <trkpt lat="32.535354" lon="-3.440840">
   <ele>1346.00</ele>
   <time>2014-04-01T12:14:43Z</time>
  </trkpt>
  <trkpt lat="32.535352" lon="-3.440604">
   <ele>1345.00</ele>
   <time>2014-04-01T12:14:46Z</time>
  </trkpt>
  <trkpt lat="32.535352" lon="-3.440360">
   <ele>1345.00</ele>
   <time>2014-04-01T12:14:49Z</time>
  </trkpt>
  <trkpt lat="32.535340" lon="-3.439886">
   <ele>1344.00</ele>
   <time>2014-04-01T12:14:55Z</time>
  </trkpt>
  <trkpt lat="32.535333" lon="-3.439623">
   <ele>1344.00</ele>
   <time>2014-04-01T12:14:59Z</time>
  </trkpt>
  <trkpt lat="32.535298" lon="-3.438475">
   <ele>1344.00</ele>
   <time>2014-04-01T12:15:14Z</time>
  </trkpt>
  <trkpt lat="32.535286" lon="-3.438246">
   <ele>1345.00</ele>
   <time>2014-04-01T12:15:17Z</time>
  </trkpt>
  <trkpt lat="32.535232" lon="-3.438037">
   <ele>1345.00</ele>
   <time>2014-04-01T12:15:20Z</time>
  </trkpt>
  <trkpt lat="32.535120" lon="-3.437842">
   <ele>1345.00</ele>
   <time>2014-04-01T12:15:23Z</time>
  </trkpt>
  <trkpt lat="32.534979" lon="-3.437656">
   <ele>1344.00</ele>
   <time>2014-04-01T12:15:26Z</time>
  </trkpt>
  <trkpt lat="32.534841" lon="-3.437452">
   <ele>1344.00</ele>
   <time>2014-04-01T12:15:29Z</time>
  </trkpt>
  <trkpt lat="32.534720" lon="-3.437223">
   <ele>1343.00</ele>
   <time>2014-04-01T12:15:32Z</time>
  </trkpt>
  <trkpt lat="32.534621" lon="-3.436983">
   <ele>1342.00</ele>
   <time>2014-04-01T12:15:35Z</time>
  </trkpt>
  <trkpt lat="32.534504" lon="-3.436739">
   <ele>1342.00</ele>
   <time>2014-04-01T12:15:38Z</time>
  </trkpt>
  <trkpt lat="32.534357" lon="-3.436520">
   <ele>1342.00</ele>
   <time>2014-04-01T12:15:41Z</time>
  </trkpt>
  <trkpt lat="32.534132" lon="-3.436364">
   <ele>1342.00</ele>
   <time>2014-04-01T12:15:44Z</time>
  </trkpt>
  <trkpt lat="32.533947" lon="-3.436320">
   <ele>1342.00</ele>
   <time>2014-04-01T12:15:46Z</time>
  </trkpt>
  <trkpt lat="32.533242" lon="-3.436205">
   <ele>1344.00</ele>
   <time>2014-04-01T12:15:53Z</time>
  </trkpt>
  <trkpt lat="32.533041" lon="-3.436145">
   <ele>1345.00</ele>
   <time>2014-04-01T12:15:55Z</time>
  </trkpt>
  <trkpt lat="32.532852" lon="-3.436052">
   <ele>1345.00</ele>
   <time>2014-04-01T12:15:57Z</time>
  </trkpt>
  <trkpt lat="32.532682" lon="-3.435936">
   <ele>1345.00</ele>
   <time>2014-04-01T12:15:59Z</time>
  </trkpt>
  <trkpt lat="32.532535" lon="-3.435810">
   <ele>1345.00</ele>
   <time>2014-04-01T12:16:01Z</time>
  </trkpt>
  <trkpt lat="32.531880" lon="-3.435153">
   <ele>1345.00</ele>
   <time>2014-04-01T12:16:11Z</time>
  </trkpt>
  <trkpt lat="32.531751" lon="-3.434998">
   <ele>1344.00</ele>
   <time>2014-04-01T12:16:13Z</time>
  </trkpt>
  <trkpt lat="32.531639" lon="-3.434819">
   <ele>1344.00</ele>
   <time>2014-04-01T12:16:15Z</time>
  </trkpt>
  <trkpt lat="32.531541" lon="-3.434625">
   <ele>1343.00</ele>
   <time>2014-04-01T12:16:17Z</time>
  </trkpt>
  <trkpt lat="32.531457" lon="-3.434416">
   <ele>1342.00</ele>
   <time>2014-04-01T12:16:19Z</time>
  </trkpt>
  <trkpt lat="32.531385" lon="-3.434190">
   <ele>1341.00</ele>
   <time>2014-04-01T12:16:21Z</time>
  </trkpt>
  <trkpt lat="32.531243" lon="-3.433691">
   <ele>1340.00</ele>
   <time>2014-04-01T12:16:25Z</time>
  </trkpt>
  <trkpt lat="32.530750" lon="-3.431965">
   <ele>1337.00</ele>
   <time>2014-04-01T12:16:37Z</time>
  </trkpt>
  <trkpt lat="32.530479" lon="-3.431050">
   <ele>1336.00</ele>
   <time>2014-04-01T12:16:43Z</time>
  </trkpt>
  <trkpt lat="32.530276" lon="-3.430296">
   <ele>1336.00</ele>
   <time>2014-04-01T12:16:48Z</time>
  </trkpt>
  <trkpt lat="32.530232" lon="-3.429984">
   <ele>1336.00</ele>
   <time>2014-04-01T12:16:50Z</time>
  </trkpt>
  <trkpt lat="32.530227" lon="-3.429658">
   <ele>1336.00</ele>
   <time>2014-04-01T12:16:52Z</time>
  </trkpt>
  <trkpt lat="32.530268" lon="-3.428977">
   <ele>1335.00</ele>
   <time>2014-04-01T12:16:56Z</time>
  </trkpt>
  <trkpt lat="32.530454" lon="-3.425999">
   <ele>1333.00</ele>
   <time>2014-04-01T12:17:12Z</time>
  </trkpt>
  <trkpt lat="32.530536" lon="-3.424213">
   <ele>1330.00</ele>
   <time>2014-04-01T12:17:21Z</time>
  </trkpt>
  <trkpt lat="32.530493" lon="-3.423834">
   <ele>1330.00</ele>
   <time>2014-04-01T12:17:23Z</time>
  </trkpt>
  <trkpt lat="32.530383" lon="-3.423480">
   <ele>1329.00</ele>
   <time>2014-04-01T12:17:25Z</time>
  </trkpt>
  <trkpt lat="32.530221" lon="-3.423158">
   <ele>1329.00</ele>
   <time>2014-04-01T12:17:27Z</time>
  </trkpt>
  <trkpt lat="32.530015" lon="-3.422873">
   <ele>1330.00</ele>
   <time>2014-04-01T12:17:29Z</time>
  </trkpt>
  <trkpt lat="32.528566" lon="-3.421136">
   <ele>1332.00</ele>
   <time>2014-04-01T12:17:42Z</time>
  </trkpt>
  <trkpt lat="32.528361" lon="-3.420837">
   <ele>1332.00</ele>
   <time>2014-04-01T12:17:44Z</time>
  </trkpt>
  <trkpt lat="32.528174" lon="-3.420519">
   <ele>1332.00</ele>
   <time>2014-04-01T12:17:46Z</time>
  </trkpt>
  <trkpt lat="32.527653" lon="-3.419552">
   <ele>1331.00</ele>
   <time>2014-04-01T12:17:52Z</time>
  </trkpt>
  <trkpt lat="32.527468" lon="-3.419267">
   <ele>1331.00</ele>
   <time>2014-04-01T12:17:54Z</time>
  </trkpt>
  <trkpt lat="32.527265" lon="-3.419008">
   <ele>1331.00</ele>
   <time>2014-04-01T12:17:56Z</time>
  </trkpt>
  <trkpt lat="32.526714" lon="-3.418387">
   <ele>1330.00</ele>
   <time>2014-04-01T12:18:01Z</time>
  </trkpt>
  <trkpt lat="32.525087" lon="-3.416622">
   <ele>1330.00</ele>
   <time>2014-04-01T12:18:15Z</time>
  </trkpt>
  <trkpt lat="32.524850" lon="-3.416402">
   <ele>1330.00</ele>
   <time>2014-04-01T12:18:17Z</time>
  </trkpt>
  <trkpt lat="32.522780" lon="-3.414708">
   <ele>1328.00</ele>
   <time>2014-04-01T12:18:33Z</time>
  </trkpt>
  <trkpt lat="32.521351" lon="-3.413599">
   <ele>1325.00</ele>
   <time>2014-04-01T12:18:46Z</time>
  </trkpt>
  <trkpt lat="32.521138" lon="-3.413450">
   <ele>1325.00</ele>
   <time>2014-04-01T12:18:48Z</time>
  </trkpt>
  <trkpt lat="32.519117" lon="-3.412193">
   <ele>1325.00</ele>
   <time>2014-04-01T12:19:04Z</time>
  </trkpt>
  <trkpt lat="32.518604" lon="-3.411874">
   <ele>1325.00</ele>
   <time>2014-04-01T12:19:08Z</time>
  </trkpt>
  <trkpt lat="32.516860" lon="-3.410660">
   <ele>1323.00</ele>
   <time>2014-04-01T12:19:21Z</time>
  </trkpt>
  <trkpt lat="32.514797" lon="-3.409152">
   <ele>1316.00</ele>
   <time>2014-04-01T12:19:36Z</time>
  </trkpt>
  <trkpt lat="32.513460" lon="-3.408180">
   <ele>1313.00</ele>
   <time>2014-04-01T12:19:46Z</time>
  </trkpt>
  <trkpt lat="32.513199" lon="-3.408024">
   <ele>1313.00</ele>
   <time>2014-04-01T12:19:48Z</time>
  </trkpt>
  <trkpt lat="32.512785" lon="-3.407812">
   <ele>1312.00</ele>
   <time>2014-04-01T12:19:51Z</time>
  </trkpt>
  <trkpt lat="32.512204" lon="-3.407548">
   <ele>1311.00</ele>
   <time>2014-04-01T12:19:55Z</time>
  </trkpt>
  <trkpt lat="32.511766" lon="-3.407378">
   <ele>1310.00</ele>
   <time>2014-04-01T12:19:58Z</time>
  </trkpt>
  <trkpt lat="32.511334" lon="-3.407238">
   <ele>1310.00</ele>
   <time>2014-04-01T12:20:01Z</time>
  </trkpt>
  <trkpt lat="32.511036" lon="-3.407164">
   <ele>1309.00</ele>
   <time>2014-04-01T12:20:03Z</time>
  </trkpt>
  <trkpt lat="32.510265" lon="-3.407015">
   <ele>1307.00</ele>
   <time>2014-04-01T12:20:08Z</time>
  </trkpt>
  <trkpt lat="32.509962" lon="-3.406983">
   <ele>1306.00</ele>
   <time>2014-04-01T12:20:10Z</time>
  </trkpt>
  <trkpt lat="32.509668" lon="-3.406977">
   <ele>1305.00</ele>
   <time>2014-04-01T12:20:12Z</time>
  </trkpt>
  <trkpt lat="32.509382" lon="-3.407018">
   <ele>1304.00</ele>
   <time>2014-04-01T12:20:14Z</time>
  </trkpt>
  <trkpt lat="32.509106" lon="-3.407128">
   <ele>1302.00</ele>
   <time>2014-04-01T12:20:16Z</time>
  </trkpt>
  <trkpt lat="32.508841" lon="-3.407292">
   <ele>1300.00</ele>
   <time>2014-04-01T12:20:18Z</time>
  </trkpt>
  <trkpt lat="32.508581" lon="-3.407485">
   <ele>1300.00</ele>
   <time>2014-04-01T12:20:20Z</time>
  </trkpt>
  <trkpt lat="32.508051" lon="-3.407878">
   <ele>1298.00</ele>
   <time>2014-04-01T12:20:24Z</time>
  </trkpt>
  <trkpt lat="32.507772" lon="-3.408030">
   <ele>1297.00</ele>
   <time>2014-04-01T12:20:26Z</time>
  </trkpt>
  <trkpt lat="32.507483" lon="-3.408095">
   <ele>1296.00</ele>
   <time>2014-04-01T12:20:28Z</time>
  </trkpt>
  <trkpt lat="32.507193" lon="-3.408068">
   <ele>1296.00</ele>
   <time>2014-04-01T12:20:30Z</time>
  </trkpt>
  <trkpt lat="32.506910" lon="-3.407991">
   <ele>1296.00</ele>
   <time>2014-04-01T12:20:32Z</time>
  </trkpt>
  <trkpt lat="32.506636" lon="-3.407894">
   <ele>1294.00</ele>
   <time>2014-04-01T12:20:34Z</time>
  </trkpt>
  <trkpt lat="32.506356" lon="-3.407803">
   <ele>1293.00</ele>
   <time>2014-04-01T12:20:36Z</time>
  </trkpt>
  <trkpt lat="32.506062" lon="-3.407741">
   <ele>1291.00</ele>
   <time>2014-04-01T12:20:38Z</time>
  </trkpt>
  <trkpt lat="32.505759" lon="-3.407718">
   <ele>1290.00</ele>
   <time>2014-04-01T12:20:40Z</time>
  </trkpt>
  <trkpt lat="32.505451" lon="-3.407728">
   <ele>1289.00</ele>
   <time>2014-04-01T12:20:42Z</time>
  </trkpt>
  <trkpt lat="32.504199" lon="-3.407791">
   <ele>1290.00</ele>
   <time>2014-04-01T12:20:50Z</time>
  </trkpt>
  <trkpt lat="32.503894" lon="-3.407854">
   <ele>1290.00</ele>
   <time>2014-04-01T12:20:52Z</time>
  </trkpt>
  <trkpt lat="32.503604" lon="-3.407965">
   <ele>1291.00</ele>
   <time>2014-04-01T12:20:54Z</time>
  </trkpt>
  <trkpt lat="32.503332" lon="-3.408126">
   <ele>1291.00</ele>
   <time>2014-04-01T12:20:56Z</time>
  </trkpt>
  <trkpt lat="32.503083" lon="-3.408334">
   <ele>1292.00</ele>
   <time>2014-04-01T12:20:58Z</time>
  </trkpt>
  <trkpt lat="32.502865" lon="-3.408581">
   <ele>1293.00</ele>
   <time>2014-04-01T12:21:00Z</time>
  </trkpt>
  <trkpt lat="32.502471" lon="-3.409067">
   <ele>1296.00</ele>
   <time>2014-04-01T12:21:04Z</time>
  </trkpt>
  <trkpt lat="32.502247" lon="-3.409263">
   <ele>1297.00</ele>
   <time>2014-04-01T12:21:06Z</time>
  </trkpt>
  <trkpt lat="32.502001" lon="-3.409419">
   <ele>1298.00</ele>
   <time>2014-04-01T12:21:08Z</time>
  </trkpt>
  <trkpt lat="32.501127" lon="-3.409964">
   <ele>1296.00</ele>
   <time>2014-04-01T12:21:15Z</time>
  </trkpt>
  <trkpt lat="32.500831" lon="-3.410070">
   <ele>1294.00</ele>
   <time>2014-04-01T12:21:17Z</time>
  </trkpt>
  <trkpt lat="32.500520" lon="-3.410145">
   <ele>1293.00</ele>
   <time>2014-04-01T12:21:19Z</time>
  </trkpt>
  <trkpt lat="32.498649" lon="-3.410487">
   <ele>1284.00</ele>
   <time>2014-04-01T12:21:31Z</time>
  </trkpt>
  <trkpt lat="32.498344" lon="-3.410484">
   <ele>1283.00</ele>
   <time>2014-04-01T12:21:33Z</time>
  </trkpt>
  <trkpt lat="32.498034" lon="-3.410441">
   <ele>1282.00</ele>
   <time>2014-04-01T12:21:35Z</time>
  </trkpt>
  <trkpt lat="32.496101" lon="-3.410136">
   <ele>1278.00</ele>
   <time>2014-04-01T12:21:47Z</time>
  </trkpt>
  <trkpt lat="32.495790" lon="-3.410058">
   <ele>1278.00</ele>
   <time>2014-04-01T12:21:49Z</time>
  </trkpt>
  <trkpt lat="32.495488" lon="-3.409948">
   <ele>1278.00</ele>
   <time>2014-04-01T12:21:51Z</time>
  </trkpt>
  <trkpt lat="32.495044" lon="-3.409742">
   <ele>1277.00</ele>
   <time>2014-04-01T12:21:54Z</time>
  </trkpt>
  <trkpt lat="32.493857" lon="-3.409187">
   <ele>1277.00</ele>
   <time>2014-04-01T12:22:02Z</time>
  </trkpt>
  <trkpt lat="32.493408" lon="-3.409010">
   <ele>1277.00</ele>
   <time>2014-04-01T12:22:05Z</time>
  </trkpt>
  <trkpt lat="32.493109" lon="-3.408920">
   <ele>1277.00</ele>
   <time>2014-04-01T12:22:07Z</time>
  </trkpt>
  <trkpt lat="32.492812" lon="-3.408860">
   <ele>1277.00</ele>
   <time>2014-04-01T12:22:09Z</time>
  </trkpt>
  <trkpt lat="32.492514" lon="-3.408843">
   <ele>1277.00</ele>
   <time>2014-04-01T12:22:11Z</time>
  </trkpt>
  <trkpt lat="32.492213" lon="-3.408870">
   <ele>1276.00</ele>
   <time>2014-04-01T12:22:13Z</time>
  </trkpt>
  <trkpt lat="32.491909" lon="-3.408918">
   <ele>1275.00</ele>
   <time>2014-04-01T12:22:15Z</time>
  </trkpt>
  <trkpt lat="32.491605" lon="-3.408990">
   <ele>1274.00</ele>
   <time>2014-04-01T12:22:17Z</time>
  </trkpt>
  <trkpt lat="32.490200" lon="-3.409356">
   <ele>1275.00</ele>
   <time>2014-04-01T12:22:26Z</time>
  </trkpt>
  <trkpt lat="32.488183" lon="-3.409695">
   <ele>1276.00</ele>
   <time>2014-04-01T12:22:38Z</time>
  </trkpt>
  <trkpt lat="32.487841" lon="-3.409739">
   <ele>1276.00</ele>
   <time>2014-04-01T12:22:40Z</time>
  </trkpt>
  <trkpt lat="32.485396" lon="-3.409922">
   <ele>1271.00</ele>
   <time>2014-04-01T12:22:54Z</time>
  </trkpt>
  <trkpt lat="32.483877" lon="-3.410038">
   <ele>1271.00</ele>
   <time>2014-04-01T12:23:03Z</time>
  </trkpt>
  <trkpt lat="32.483550" lon="-3.410094">
   <ele>1270.00</ele>
   <time>2014-04-01T12:23:05Z</time>
  </trkpt>
  <trkpt lat="32.482880" lon="-3.410234">
   <ele>1268.00</ele>
   <time>2014-04-01T12:23:09Z</time>
  </trkpt>
  <trkpt lat="32.480192" lon="-3.410839">
   <ele>1263.00</ele>
   <time>2014-04-01T12:23:25Z</time>
  </trkpt>
  <trkpt lat="32.478588" lon="-3.411215">
   <ele>1265.00</ele>
   <time>2014-04-01T12:23:36Z</time>
  </trkpt>
  <trkpt lat="32.478302" lon="-3.411304">
   <ele>1265.00</ele>
   <time>2014-04-01T12:23:40Z</time>
  </trkpt>
  <trkpt lat="32.478248" lon="-3.411315">
   <ele>1264.00</ele>
   <time>2014-04-01T12:23:56Z</time>
  </trkpt>
  <trkpt lat="32.478263" lon="-3.411312">
   <ele>1263.00</ele>
   <time>2014-04-01T12:24:12Z</time>
  </trkpt>
  <trkpt lat="32.477870" lon="-3.411365">
   <ele>1264.00</ele>
   <time>2014-04-01T12:24:27Z</time>
  </trkpt>
  <trkpt lat="32.476993" lon="-3.411463">
   <ele>1264.00</ele>
   <time>2014-04-01T12:24:36Z</time>
  </trkpt>
  <trkpt lat="32.475772" lon="-3.411524">
   <ele>1263.00</ele>
   <time>2014-04-01T12:24:45Z</time>
  </trkpt>
  <trkpt lat="32.473745" lon="-3.411619">
   <ele>1260.00</ele>
   <time>2014-04-01T12:24:57Z</time>
  </trkpt>
  <trkpt lat="32.473403" lon="-3.411659">
   <ele>1260.00</ele>
   <time>2014-04-01T12:24:59Z</time>
  </trkpt>
  <trkpt lat="32.473061" lon="-3.411718">
   <ele>1260.00</ele>
   <time>2014-04-01T12:25:01Z</time>
  </trkpt>
  <trkpt lat="32.472724" lon="-3.411799">
   <ele>1260.00</ele>
   <time>2014-04-01T12:25:03Z</time>
  </trkpt>
  <trkpt lat="32.472384" lon="-3.411903">
   <ele>1260.00</ele>
   <time>2014-04-01T12:25:05Z</time>
  </trkpt>
  <trkpt lat="32.471507" lon="-3.412177">
   <ele>1260.00</ele>
   <time>2014-04-01T12:25:10Z</time>
  </trkpt>
  <trkpt lat="32.470956" lon="-3.412303">
   <ele>1261.00</ele>
   <time>2014-04-01T12:25:13Z</time>
  </trkpt>
  <trkpt lat="32.469094" lon="-3.412659">
   <ele>1261.00</ele>
   <time>2014-04-01T12:25:23Z</time>
  </trkpt>
  <trkpt lat="32.466318" lon="-3.413391">
   <ele>1256.00</ele>
   <time>2014-04-01T12:25:38Z</time>
  </trkpt>
  <trkpt lat="32.463545" lon="-3.414118">
   <ele>1254.00</ele>
   <time>2014-04-01T12:25:53Z</time>
  </trkpt>
  <trkpt lat="32.462365" lon="-3.414416">
   <ele>1252.00</ele>
   <time>2014-04-01T12:26:01Z</time>
  </trkpt>
  <trkpt lat="32.462078" lon="-3.414471">
   <ele>1252.00</ele>
   <time>2014-04-01T12:26:04Z</time>
  </trkpt>
  <trkpt lat="32.461820" lon="-3.414496">
   <ele>1251.00</ele>
   <time>2014-04-01T12:26:07Z</time>
  </trkpt>
  <trkpt lat="32.461570" lon="-3.414498">
   <ele>1251.00</ele>
   <time>2014-04-01T12:26:10Z</time>
  </trkpt>
  <trkpt lat="32.461332" lon="-3.414477">
   <ele>1251.00</ele>
   <time>2014-04-01T12:26:13Z</time>
  </trkpt>
  <trkpt lat="32.461090" lon="-3.414440">
   <ele>1251.00</ele>
   <time>2014-04-01T12:26:16Z</time>
  </trkpt>
  <trkpt lat="32.459863" lon="-3.414239">
   <ele>1251.00</ele>
   <time>2014-04-01T12:26:32Z</time>
  </trkpt>
  <trkpt lat="32.458663" lon="-3.414054">
   <ele>1251.00</ele>
   <time>2014-04-01T12:26:47Z</time>
  </trkpt>
  <trkpt lat="32.457376" lon="-3.413849">
   <ele>1250.00</ele>
   <time>2014-04-01T12:27:02Z</time>
  </trkpt>
  <trkpt lat="32.455417" lon="-3.413535">
   <ele>1247.00</ele>
   <time>2014-04-01T12:27:17Z</time>
  </trkpt>
  <trkpt lat="32.454565" lon="-3.413417">
   <ele>1246.00</ele>
   <time>2014-04-01T12:27:22Z</time>
  </trkpt>
  <trkpt lat="32.454231" lon="-3.413404">
   <ele>1246.00</ele>
   <time>2014-04-01T12:27:24Z</time>
  </trkpt>
  <trkpt lat="32.453901" lon="-3.413429">
   <ele>1245.00</ele>
   <time>2014-04-01T12:27:26Z</time>
  </trkpt>
  <trkpt lat="32.453563" lon="-3.413482">
   <ele>1244.00</ele>
   <time>2014-04-01T12:27:28Z</time>
  </trkpt>
  <trkpt lat="32.453216" lon="-3.413566">
   <ele>1244.00</ele>
   <time>2014-04-01T12:27:30Z</time>
  </trkpt>
  <trkpt lat="32.452864" lon="-3.413681">
   <ele>1243.00</ele>
   <time>2014-04-01T12:27:32Z</time>
  </trkpt>
  <trkpt lat="32.452509" lon="-3.413820">
   <ele>1243.00</ele>
   <time>2014-04-01T12:27:34Z</time>
  </trkpt>
  <trkpt lat="32.449605" lon="-3.414953">
   <ele>1241.00</ele>
   <time>2014-04-01T12:27:50Z</time>
  </trkpt>
  <trkpt lat="32.449232" lon="-3.415065">
   <ele>1241.00</ele>
   <time>2014-04-01T12:27:52Z</time>
  </trkpt>
  <trkpt lat="32.446338" lon="-3.415754">
   <ele>1238.00</ele>
   <time>2014-04-01T12:28:07Z</time>
  </trkpt>
  <trkpt lat="32.443255" lon="-3.416486">
   <ele>1234.00</ele>
   <time>2014-04-01T12:28:23Z</time>
  </trkpt>
  <trkpt lat="32.440406" lon="-3.417163">
   <ele>1231.00</ele>
   <time>2014-04-01T12:28:38Z</time>
  </trkpt>
  <trkpt lat="32.437675" lon="-3.417813">
   <ele>1230.00</ele>
   <time>2014-04-01T12:28:53Z</time>
  </trkpt>
  <trkpt lat="32.436227" lon="-3.418198">
   <ele>1235.00</ele>
   <time>2014-04-01T12:29:02Z</time>
  </trkpt>
  <trkpt lat="32.433687" lon="-3.418961">
   <ele>1228.00</ele>
   <time>2014-04-01T12:29:17Z</time>
  </trkpt>
  <trkpt lat="32.430783" lon="-3.419827">
   <ele>1223.00</ele>
   <time>2014-04-01T12:29:33Z</time>
  </trkpt>
  <trkpt lat="32.429927" lon="-3.420080">
   <ele>1224.00</ele>
   <time>2014-04-01T12:29:38Z</time>
  </trkpt>
  <trkpt lat="32.429622" lon="-3.420107">
   <ele>1225.00</ele>
   <time>2014-04-01T12:29:40Z</time>
  </trkpt>
  <trkpt lat="32.429337" lon="-3.420052">
   <ele>1226.00</ele>
   <time>2014-04-01T12:29:42Z</time>
  </trkpt>
  <trkpt lat="32.428932" lon="-3.419933">
   <ele>1228.00</ele>
   <time>2014-04-01T12:29:45Z</time>
  </trkpt>
  <trkpt lat="32.428649" lon="-3.419925">
   <ele>1228.00</ele>
   <time>2014-04-01T12:29:47Z</time>
  </trkpt>
  <trkpt lat="32.428357" lon="-3.419995">
   <ele>1228.00</ele>
   <time>2014-04-01T12:29:49Z</time>
  </trkpt>
  <trkpt lat="32.428057" lon="-3.420107">
   <ele>1228.00</ele>
   <time>2014-04-01T12:29:51Z</time>
  </trkpt>
  <trkpt lat="32.425557" lon="-3.421093">
   <ele>1228.00</ele>
   <time>2014-04-01T12:30:06Z</time>
  </trkpt>
  <trkpt lat="32.422881" lon="-3.422134">
   <ele>1225.00</ele>
   <time>2014-04-01T12:30:21Z</time>
  </trkpt>
  <trkpt lat="32.419979" lon="-3.423261">
   <ele>1224.00</ele>
   <time>2014-04-01T12:30:37Z</time>
  </trkpt>
  <trkpt lat="32.418818" lon="-3.423743">
   <ele>1220.00</ele>
   <time>2014-04-01T12:30:44Z</time>
  </trkpt>
  <trkpt lat="32.417179" lon="-3.424461">
   <ele>1213.00</ele>
   <time>2014-04-01T12:30:54Z</time>
  </trkpt>
  <trkpt lat="32.416862" lon="-3.424573">
   <ele>1212.00</ele>
   <time>2014-04-01T12:30:56Z</time>
  </trkpt>
  <trkpt lat="32.416546" lon="-3.424647">
   <ele>1211.00</ele>
   <time>2014-04-01T12:30:58Z</time>
  </trkpt>
  <trkpt lat="32.416229" lon="-3.424681">
   <ele>1210.00</ele>
   <time>2014-04-01T12:31:00Z</time>
  </trkpt>
  <trkpt lat="32.415590" lon="-3.424718">
   <ele>1210.00</ele>
   <time>2014-04-01T12:31:04Z</time>
  </trkpt>
  <trkpt lat="32.415289" lon="-3.424787">
   <ele>1211.00</ele>
   <time>2014-04-01T12:31:06Z</time>
  </trkpt>
  <trkpt lat="32.415023" lon="-3.424927">
   <ele>1212.00</ele>
   <time>2014-04-01T12:31:08Z</time>
  </trkpt>
  <trkpt lat="32.414798" lon="-3.425134">
   <ele>1212.00</ele>
   <time>2014-04-01T12:31:10Z</time>
  </trkpt>
  <trkpt lat="32.414625" lon="-3.425398">
   <ele>1211.00</ele>
   <time>2014-04-01T12:31:12Z</time>
  </trkpt>
  <trkpt lat="32.414491" lon="-3.425714">
   <ele>1210.00</ele>
   <time>2014-04-01T12:31:14Z</time>
  </trkpt>
  <trkpt lat="32.414177" lon="-3.426581">
   <ele>1206.00</ele>
   <time>2014-04-01T12:31:19Z</time>
  </trkpt>
  <trkpt lat="32.413991" lon="-3.426885">
   <ele>1205.00</ele>
   <time>2014-04-01T12:31:21Z</time>
  </trkpt>
  <trkpt lat="32.413747" lon="-3.427123">
   <ele>1205.00</ele>
   <time>2014-04-01T12:31:23Z</time>
  </trkpt>
  <trkpt lat="32.413461" lon="-3.427293">
   <ele>1204.00</ele>
   <time>2014-04-01T12:31:25Z</time>
  </trkpt>
  <trkpt lat="32.413141" lon="-3.427389">
   <ele>1204.00</ele>
   <time>2014-04-01T12:31:27Z</time>
  </trkpt>
  <trkpt lat="32.412803" lon="-3.427428">
   <ele>1203.00</ele>
   <time>2014-04-01T12:31:29Z</time>
  </trkpt>
  <trkpt lat="32.410071" lon="-3.427701">
   <ele>1202.00</ele>
   <time>2014-04-01T12:31:44Z</time>
  </trkpt>
  <trkpt lat="32.407062" lon="-3.428018">
   <ele>1199.00</ele>
   <time>2014-04-01T12:32:00Z</time>
  </trkpt>
  <trkpt lat="32.404296" lon="-3.428322">
   <ele>1197.00</ele>
   <time>2014-04-01T12:32:15Z</time>
  </trkpt>
  <trkpt lat="32.401483" lon="-3.428625">
   <ele>1194.00</ele>
   <time>2014-04-01T12:32:30Z</time>
  </trkpt>
  <trkpt lat="32.398475" lon="-3.428955">
   <ele>1192.00</ele>
   <time>2014-04-01T12:32:46Z</time>
  </trkpt>
  <trkpt lat="32.397729" lon="-3.429023">
   <ele>1192.00</ele>
   <time>2014-04-01T12:32:50Z</time>
  </trkpt>
  <trkpt lat="32.397543" lon="-3.429022">
   <ele>1192.00</ele>
   <time>2014-04-01T12:32:51Z</time>
  </trkpt>
  <trkpt lat="32.397357" lon="-3.429009">
   <ele>1192.00</ele>
   <time>2014-04-01T12:32:52Z</time>
  </trkpt>
  <trkpt lat="32.394548" lon="-3.428717">
   <ele>1191.00</ele>
   <time>2014-04-01T12:33:07Z</time>
  </trkpt>
  <trkpt lat="32.394019" lon="-3.428655">
   <ele>1191.00</ele>
   <time>2014-04-01T12:33:10Z</time>
  </trkpt>
  <trkpt lat="32.393480" lon="-3.428590">
   <ele>1192.00</ele>
   <time>2014-04-01T12:33:13Z</time>
  </trkpt>
  <trkpt lat="32.393112" lon="-3.428561">
   <ele>1192.00</ele>
   <time>2014-04-01T12:33:15Z</time>
  </trkpt>
  <trkpt lat="32.392546" lon="-3.428543">
   <ele>1191.00</ele>
   <time>2014-04-01T12:33:18Z</time>
  </trkpt>
  <trkpt lat="32.389467" lon="-3.428568">
   <ele>1190.00</ele>
   <time>2014-04-01T12:33:34Z</time>
  </trkpt>
  <trkpt lat="32.387036" lon="-3.428584">
   <ele>1187.00</ele>
   <time>2014-04-01T12:33:47Z</time>
  </trkpt>
  <trkpt lat="32.386852" lon="-3.428602">
   <ele>1187.00</ele>
   <time>2014-04-01T12:33:48Z</time>
  </trkpt>
  <trkpt lat="32.386669" lon="-3.428630">
   <ele>1186.00</ele>
   <time>2014-04-01T12:33:49Z</time>
  </trkpt>
  <trkpt lat="32.386301" lon="-3.428709">
   <ele>1185.00</ele>
   <time>2014-04-01T12:33:51Z</time>
  </trkpt>
  <trkpt lat="32.385381" lon="-3.428964">
   <ele>1183.00</ele>
   <time>2014-04-01T12:33:56Z</time>
  </trkpt>
  <trkpt lat="32.382294" lon="-3.429844">
   <ele>1180.00</ele>
   <time>2014-04-01T12:34:12Z</time>
  </trkpt>
  <trkpt lat="32.379343" lon="-3.430680">
   <ele>1178.00</ele>
   <time>2014-04-01T12:34:27Z</time>
  </trkpt>
  <trkpt lat="32.376512" lon="-3.431479">
   <ele>1176.00</ele>
   <time>2014-04-01T12:34:42Z</time>
  </trkpt>
  <trkpt lat="32.375795" lon="-3.431700">
   <ele>1175.00</ele>
   <time>2014-04-01T12:34:46Z</time>
  </trkpt>
  <trkpt lat="32.375619" lon="-3.431768">
   <ele>1175.00</ele>
   <time>2014-04-01T12:34:47Z</time>
  </trkpt>
  <trkpt lat="32.375447" lon="-3.431845">
   <ele>1175.00</ele>
   <time>2014-04-01T12:34:48Z</time>
  </trkpt>
  <trkpt lat="32.375279" lon="-3.431931">
   <ele>1175.00</ele>
   <time>2014-04-01T12:34:49Z</time>
  </trkpt>
  <trkpt lat="32.375116" lon="-3.432026">
   <ele>1174.00</ele>
   <time>2014-04-01T12:34:50Z</time>
  </trkpt>
  <trkpt lat="32.374804" lon="-3.432231">
   <ele>1174.00</ele>
   <time>2014-04-01T12:34:52Z</time>
  </trkpt>
  <trkpt lat="32.374507" lon="-3.432460">
   <ele>1173.00</ele>
   <time>2014-04-01T12:34:54Z</time>
  </trkpt>
  <trkpt lat="32.374223" lon="-3.432717">
   <ele>1173.00</ele>
   <time>2014-04-01T12:34:56Z</time>
  </trkpt>
  <trkpt lat="32.373803" lon="-3.433134">
   <ele>1173.00</ele>
   <time>2014-04-01T12:34:59Z</time>
  </trkpt>
  <trkpt lat="32.373385" lon="-3.433556">
   <ele>1173.00</ele>
   <time>2014-04-01T12:35:02Z</time>
  </trkpt>
  <trkpt lat="32.373099" lon="-3.433818">
   <ele>1173.00</ele>
   <time>2014-04-01T12:35:04Z</time>
  </trkpt>
  <trkpt lat="32.372806" lon="-3.434057">
   <ele>1174.00</ele>
   <time>2014-04-01T12:35:06Z</time>
  </trkpt>
  <trkpt lat="32.372508" lon="-3.434268">
   <ele>1176.00</ele>
   <time>2014-04-01T12:35:08Z</time>
  </trkpt>
  <trkpt lat="32.372203" lon="-3.434447">
   <ele>1177.00</ele>
   <time>2014-04-01T12:35:10Z</time>
  </trkpt>
  <trkpt lat="32.371883" lon="-3.434603">
   <ele>1177.00</ele>
   <time>2014-04-01T12:35:12Z</time>
  </trkpt>
  <trkpt lat="32.371545" lon="-3.434738">
   <ele>1176.00</ele>
   <time>2014-04-01T12:35:14Z</time>
  </trkpt>
  <trkpt lat="32.371192" lon="-3.434852">
   <ele>1176.00</ele>
   <time>2014-04-01T12:35:16Z</time>
  </trkpt>
  <trkpt lat="32.370828" lon="-3.434943">
   <ele>1175.00</ele>
   <time>2014-04-01T12:35:18Z</time>
  </trkpt>
  <trkpt lat="32.367818" lon="-3.435557">
   <ele>1172.00</ele>
   <time>2014-04-01T12:35:34Z</time>
  </trkpt>
  <trkpt lat="32.364964" lon="-3.436148">
   <ele>1167.00</ele>
   <time>2014-04-01T12:35:49Z</time>
  </trkpt>
  <trkpt lat="32.361948" lon="-3.436776">
   <ele>1168.00</ele>
   <time>2014-04-01T12:36:05Z</time>
  </trkpt>
  <trkpt lat="32.359202" lon="-3.437353">
   <ele>1167.00</ele>
   <time>2014-04-01T12:36:20Z</time>
  </trkpt>
  <trkpt lat="32.357367" lon="-3.437715">
   <ele>1164.00</ele>
   <time>2014-04-01T12:36:30Z</time>
  </trkpt>
  <trkpt lat="32.354379" lon="-3.438099">
   <ele>1159.00</ele>
   <time>2014-04-01T12:36:45Z</time>
  </trkpt>
  <trkpt lat="32.351206" lon="-3.438510">
   <ele>1157.00</ele>
   <time>2014-04-01T12:37:01Z</time>
  </trkpt>
  <trkpt lat="32.348316" lon="-3.438876">
   <ele>1155.00</ele>
   <time>2014-04-01T12:37:16Z</time>
  </trkpt>
  <trkpt lat="32.346631" lon="-3.439080">
   <ele>1154.00</ele>
   <time>2014-04-01T12:37:25Z</time>
  </trkpt>
  <trkpt lat="32.343587" lon="-3.439271">
   <ele>1153.00</ele>
   <time>2014-04-01T12:37:41Z</time>
  </trkpt>
  <trkpt lat="32.340690" lon="-3.439444">
   <ele>1151.00</ele>
   <time>2014-04-01T12:37:56Z</time>
  </trkpt>
  <trkpt lat="32.337771" lon="-3.439603">
   <ele>1149.00</ele>
   <time>2014-04-01T12:38:11Z</time>
  </trkpt>
  <trkpt lat="32.335663" lon="-3.439726">
   <ele>1148.00</ele>
   <time>2014-04-01T12:38:22Z</time>
  </trkpt>
  <trkpt lat="32.334149" lon="-3.439700">
   <ele>1146.00</ele>
   <time>2014-04-01T12:38:30Z</time>
  </trkpt>
  <trkpt lat="32.331158" lon="-3.439627">
   <ele>1143.00</ele>
   <time>2014-04-01T12:38:46Z</time>
  </trkpt>
  <trkpt lat="32.328381" lon="-3.439581">
   <ele>1142.00</ele>
   <time>2014-04-01T12:39:01Z</time>
  </trkpt>
  <trkpt lat="32.325765" lon="-3.439511">
   <ele>1141.00</ele>
   <time>2014-04-01T12:39:16Z</time>
  </trkpt>
  <trkpt lat="32.323436" lon="-3.439454">
   <ele>1141.00</ele>
   <time>2014-04-01T12:39:31Z</time>
  </trkpt>
  <trkpt lat="32.323193" lon="-3.439475">
   <ele>1141.00</ele>
   <time>2014-04-01T12:39:33Z</time>
  </trkpt>
  <trkpt lat="32.322974" lon="-3.439549">
   <ele>1141.00</ele>
   <time>2014-04-01T12:39:35Z</time>
  </trkpt>
  <trkpt lat="32.322780" lon="-3.439666">
   <ele>1140.00</ele>
   <time>2014-04-01T12:39:37Z</time>
  </trkpt>
  <trkpt lat="32.322597" lon="-3.439825">
   <ele>1140.00</ele>
   <time>2014-04-01T12:39:39Z</time>
  </trkpt>
  <trkpt lat="32.320853" lon="-3.441417">
   <ele>1140.00</ele>
   <time>2014-04-01T12:39:55Z</time>
  </trkpt>
  <trkpt lat="32.320113" lon="-3.442112">
   <ele>1140.00</ele>
   <time>2014-04-01T12:40:01Z</time>
  </trkpt>
  <trkpt lat="32.318253" lon="-3.443908">
   <ele>1139.00</ele>
   <time>2014-04-01T12:40:16Z</time>
  </trkpt>
  <trkpt lat="32.316407" lon="-3.445694">
   <ele>1136.00</ele>
   <time>2014-04-01T12:40:32Z</time>
  </trkpt>
  <trkpt lat="32.314625" lon="-3.447401">
   <ele>1135.00</ele>
   <time>2014-04-01T12:40:47Z</time>
  </trkpt>
  <trkpt lat="32.312769" lon="-3.449187">
   <ele>1135.00</ele>
   <time>2014-04-01T12:41:02Z</time>
  </trkpt>
  <trkpt lat="32.311054" lon="-3.450815">
   <ele>1132.00</ele>
   <time>2014-04-01T12:41:17Z</time>
  </trkpt>
  <trkpt lat="32.309060" lon="-3.452547">
   <ele>1130.00</ele>
   <time>2014-04-01T12:41:33Z</time>
  </trkpt>
  <trkpt lat="32.307187" lon="-3.454164">
   <ele>1130.00</ele>
   <time>2014-04-01T12:41:48Z</time>
  </trkpt>
  <trkpt lat="32.305620" lon="-3.455538">
   <ele>1130.00</ele>
   <time>2014-04-01T12:42:03Z</time>
  </trkpt>
  <trkpt lat="32.305241" lon="-3.455873">
   <ele>1130.00</ele>
   <time>2014-04-01T12:42:07Z</time>
  </trkpt>
  <trkpt lat="32.304030" lon="-3.456912">
   <ele>1129.00</ele>
   <time>2014-04-01T12:42:20Z</time>
  </trkpt>
  <trkpt lat="32.302751" lon="-3.458025">
   <ele>1128.00</ele>
   <time>2014-04-01T12:42:35Z</time>
  </trkpt>
  <trkpt lat="32.301383" lon="-3.459199">
   <ele>1128.00</ele>
   <time>2014-04-01T12:42:50Z</time>
  </trkpt>
  <trkpt lat="32.300295" lon="-3.460158">
   <ele>1128.00</ele>
   <time>2014-04-01T12:43:02Z</time>
  </trkpt>
  <trkpt lat="32.300028" lon="-3.460380">
   <ele>1128.00</ele>
   <time>2014-04-01T12:43:05Z</time>
  </trkpt>
  <trkpt lat="32.298561" lon="-3.461647">
   <ele>1130.00</ele>
   <time>2014-04-01T12:43:20Z</time>
  </trkpt>
  <trkpt lat="32.297863" lon="-3.462230">
   <ele>1130.00</ele>
   <time>2014-04-01T12:43:28Z</time>
  </trkpt>
  <trkpt lat="32.297544" lon="-3.462462">
   <ele>1128.00</ele>
   <time>2014-04-01T12:43:34Z</time>
  </trkpt>
  <trkpt lat="32.297371" lon="-3.462568">
   <ele>1123.00</ele>
   <time>2014-04-01T12:43:48Z</time>
  </trkpt>
  <trkpt lat="32.297197" lon="-3.462719">
   <ele>1127.00</ele>
   <time>2014-04-01T12:43:58Z</time>
  </trkpt>
  <trkpt lat="32.297155" lon="-3.462731">
   <ele>1124.00</ele>
   <time>2014-04-01T12:44:14Z</time>
  </trkpt>
  <trkpt lat="32.297124" lon="-3.462739">
   <ele>1123.00</ele>
   <time>2014-04-01T12:44:29Z</time>
  </trkpt>
  <trkpt lat="32.296948" lon="-3.462843">
   <ele>1124.00</ele>
   <time>2014-04-01T12:44:34Z</time>
  </trkpt>
  <trkpt lat="32.296724" lon="-3.463000">
   <ele>1124.00</ele>
   <time>2014-04-01T12:44:38Z</time>
  </trkpt>
  <trkpt lat="32.296227" lon="-3.463346">
   <ele>1124.00</ele>
   <time>2014-04-01T12:44:45Z</time>
  </trkpt>
  <trkpt lat="32.295731" lon="-3.463684">
   <ele>1125.00</ele>
   <time>2014-04-01T12:44:52Z</time>
  </trkpt>
  <trkpt lat="32.294627" lon="-3.464427">
   <ele>1125.00</ele>
   <time>2014-04-01T12:45:07Z</time>
  </trkpt>
  <trkpt lat="32.294412" lon="-3.464564">
   <ele>1125.00</ele>
   <time>2014-04-01T12:45:10Z</time>
  </trkpt>
  <trkpt lat="32.293529" lon="-3.465094">
   <ele>1126.00</ele>
   <time>2014-04-01T12:45:23Z</time>
  </trkpt>
  <trkpt lat="32.293312" lon="-3.465152">
   <ele>1125.00</ele>
   <time>2014-04-01T12:45:26Z</time>
  </trkpt>
  <trkpt lat="32.292712" lon="-3.465303">
   <ele>1126.00</ele>
   <time>2014-04-01T12:45:33Z</time>
  </trkpt>
  <trkpt lat="32.292259" lon="-3.465431">
   <ele>1126.00</ele>
   <time>2014-04-01T12:45:39Z</time>
  </trkpt>
  <trkpt lat="32.292081" lon="-3.465410">
   <ele>1125.00</ele>
   <time>2014-04-01T12:45:44Z</time>
  </trkpt>
  <trkpt lat="32.292028" lon="-3.465175">
   <ele>1123.00</ele>
   <time>2014-04-01T12:45:49Z</time>
  </trkpt>
  <trkpt lat="32.292005" lon="-3.464909">
   <ele>1122.00</ele>
   <time>2014-04-01T12:45:53Z</time>
  </trkpt>
  <trkpt lat="32.291902" lon="-3.464658">
   <ele>1121.00</ele>
   <time>2014-04-01T12:45:57Z</time>
  </trkpt>
  <trkpt lat="32.291554" lon="-3.464117">
   <ele>1120.00</ele>
   <time>2014-04-01T12:46:05Z</time>
  </trkpt>
  <trkpt lat="32.291198" lon="-3.463624">
   <ele>1120.00</ele>
   <time>2014-04-01T12:46:12Z</time>
  </trkpt>
  <trkpt lat="32.291061" lon="-3.463386">
   <ele>1120.00</ele>
   <time>2014-04-01T12:46:15Z</time>
  </trkpt>
  <trkpt lat="32.290938" lon="-3.463135">
   <ele>1120.00</ele>
   <time>2014-04-01T12:46:18Z</time>
  </trkpt>
  <trkpt lat="32.290828" lon="-3.462878">
   <ele>1119.00</ele>
   <time>2014-04-01T12:46:21Z</time>
  </trkpt>
  <trkpt lat="32.290731" lon="-3.462618">
   <ele>1119.00</ele>
   <time>2014-04-01T12:46:24Z</time>
  </trkpt>
  <trkpt lat="32.290664" lon="-3.462352">
   <ele>1118.00</ele>
   <time>2014-04-01T12:46:27Z</time>
  </trkpt>
  <trkpt lat="32.290452" lon="-3.461189">
   <ele>1114.00</ele>
   <time>2014-04-01T12:46:39Z</time>
  </trkpt>
  <trkpt lat="32.290335" lon="-3.460652">
   <ele>1113.00</ele>
   <time>2014-04-01T12:46:45Z</time>
  </trkpt>
  <trkpt lat="32.290301" lon="-3.460434">
   <ele>1113.00</ele>
   <time>2014-04-01T12:46:47Z</time>
  </trkpt>
  <trkpt lat="32.290057" lon="-3.458272">
   <ele>1119.00</ele>
   <time>2014-04-01T12:47:04Z</time>
  </trkpt>
  <trkpt lat="32.289995" lon="-3.458014">
   <ele>1118.00</ele>
   <time>2014-04-01T12:47:06Z</time>
  </trkpt>
  <trkpt lat="32.289910" lon="-3.457758">
   <ele>1118.00</ele>
   <time>2014-04-01T12:47:08Z</time>
  </trkpt>
  <trkpt lat="32.289801" lon="-3.457503">
   <ele>1116.00</ele>
   <time>2014-04-01T12:47:10Z</time>
  </trkpt>
  <trkpt lat="32.289672" lon="-3.457256">
   <ele>1116.00</ele>
   <time>2014-04-01T12:47:12Z</time>
  </trkpt>
  <trkpt lat="32.289472" lon="-3.456904">
   <ele>1116.00</ele>
   <time>2014-04-01T12:47:15Z</time>
  </trkpt>
  <trkpt lat="32.289317" lon="-3.456693">
   <ele>1116.00</ele>
   <time>2014-04-01T12:47:17Z</time>
  </trkpt>
  <trkpt lat="32.289136" lon="-3.456509">
   <ele>1115.00</ele>
   <time>2014-04-01T12:47:19Z</time>
  </trkpt>
  <trkpt lat="32.288944" lon="-3.456345">
   <ele>1116.00</ele>
   <time>2014-04-01T12:47:21Z</time>
  </trkpt>
  <trkpt lat="32.288113" lon="-3.455674">
   <ele>1117.00</ele>
   <time>2014-04-01T12:47:30Z</time>
  </trkpt>
  <trkpt lat="32.287908" lon="-3.455562">
   <ele>1117.00</ele>
   <time>2014-04-01T12:47:32Z</time>
  </trkpt>
  <trkpt lat="32.287681" lon="-3.455479">
   <ele>1117.00</ele>
   <time>2014-04-01T12:47:34Z</time>
  </trkpt>
  <trkpt lat="32.287456" lon="-3.455400">
   <ele>1117.00</ele>
   <time>2014-04-01T12:47:36Z</time>
  </trkpt>
  <trkpt lat="32.287232" lon="-3.455299">
   <ele>1116.00</ele>
   <time>2014-04-01T12:47:38Z</time>
  </trkpt>
  <trkpt lat="32.287012" lon="-3.455161">
   <ele>1116.00</ele>
   <time>2014-04-01T12:47:40Z</time>
  </trkpt>
  <trkpt lat="32.286801" lon="-3.454984">
   <ele>1116.00</ele>
   <time>2014-04-01T12:47:42Z</time>
  </trkpt>
  <trkpt lat="32.286602" lon="-3.454781">
   <ele>1115.00</ele>
   <time>2014-04-01T12:47:44Z</time>
  </trkpt>
  <trkpt lat="32.286313" lon="-3.454447">
   <ele>1114.00</ele>
   <time>2014-04-01T12:47:47Z</time>
  </trkpt>
  <trkpt lat="32.286035" lon="-3.454083">
   <ele>1113.00</ele>
   <time>2014-04-01T12:47:50Z</time>
  </trkpt>
  <trkpt lat="32.285862" lon="-3.453829">
   <ele>1112.00</ele>
   <time>2014-04-01T12:47:52Z</time>
  </trkpt>
  <trkpt lat="32.285435" lon="-3.453190">
   <ele>1111.00</ele>
   <time>2014-04-01T12:47:57Z</time>
  </trkpt>
  <trkpt lat="32.285238" lon="-3.452978">
   <ele>1111.00</ele>
   <time>2014-04-01T12:47:59Z</time>
  </trkpt>
  <trkpt lat="32.285014" lon="-3.452806">
   <ele>1110.00</ele>
   <time>2014-04-01T12:48:01Z</time>
  </trkpt>
  <trkpt lat="32.284783" lon="-3.452670">
   <ele>1111.00</ele>
   <time>2014-04-01T12:48:03Z</time>
  </trkpt>
  <trkpt lat="32.284566" lon="-3.452525">
   <ele>1112.00</ele>
   <time>2014-04-01T12:48:05Z</time>
  </trkpt>
  <trkpt lat="32.284377" lon="-3.452331">
   <ele>1111.00</ele>
   <time>2014-04-01T12:48:07Z</time>
  </trkpt>
  <trkpt lat="32.283539" lon="-3.451283">
   <ele>1109.00</ele>
   <time>2014-04-01T12:48:17Z</time>
  </trkpt>
  <trkpt lat="32.283382" lon="-3.451069">
   <ele>1110.00</ele>
   <time>2014-04-01T12:48:19Z</time>
  </trkpt>
  <trkpt lat="32.283272" lon="-3.450818">
   <ele>1110.00</ele>
   <time>2014-04-01T12:48:21Z</time>
  </trkpt>
  <trkpt lat="32.283225" lon="-3.450544">
   <ele>1112.00</ele>
   <time>2014-04-01T12:48:23Z</time>
  </trkpt>
  <trkpt lat="32.283206" lon="-3.450262">
   <ele>1114.00</ele>
   <time>2014-04-01T12:48:25Z</time>
  </trkpt>
  <trkpt lat="32.283209" lon="-3.449977">
   <ele>1116.00</ele>
   <time>2014-04-01T12:48:27Z</time>
  </trkpt>
  <trkpt lat="32.283202" lon="-3.449685">
   <ele>1118.00</ele>
   <time>2014-04-01T12:48:29Z</time>
  </trkpt>
  <trkpt lat="32.283095" lon="-3.447069">
   <ele>1130.00</ele>
   <time>2014-04-01T12:48:45Z</time>
  </trkpt>
  <trkpt lat="32.283055" lon="-3.446719">
   <ele>1131.00</ele>
   <time>2014-04-01T12:48:47Z</time>
  </trkpt>
  <trkpt lat="32.282977" lon="-3.446377">
   <ele>1131.00</ele>
   <time>2014-04-01T12:48:49Z</time>
  </trkpt>
  <trkpt lat="32.282871" lon="-3.446036">
   <ele>1131.00</ele>
   <time>2014-04-01T12:48:51Z</time>
  </trkpt>
  <trkpt lat="32.282691" lon="-3.445512">
   <ele>1131.00</ele>
   <time>2014-04-01T12:48:54Z</time>
  </trkpt>
  <trkpt lat="32.281624" lon="-3.442610">
   <ele>1128.00</ele>
   <time>2014-04-01T12:49:10Z</time>
  </trkpt>
  <trkpt lat="32.280765" lon="-3.440259">
   <ele>1126.00</ele>
   <time>2014-04-01T12:49:22Z</time>
  </trkpt>
  <trkpt lat="32.280639" lon="-3.439846">
   <ele>1125.00</ele>
   <time>2014-04-01T12:49:24Z</time>
  </trkpt>
  <trkpt lat="32.279764" lon="-3.436545">
   <ele>1117.00</ele>
   <time>2014-04-01T12:49:39Z</time>
  </trkpt>
  <trkpt lat="32.279311" lon="-3.434952">
   <ele>1112.00</ele>
   <time>2014-04-01T12:49:46Z</time>
  </trkpt>
  <trkpt lat="32.278216" lon="-3.431542">
   <ele>1108.00</ele>
   <time>2014-04-01T12:50:01Z</time>
  </trkpt>
  <trkpt lat="32.277665" lon="-3.429729">
   <ele>1106.00</ele>
   <time>2014-04-01T12:50:09Z</time>
  </trkpt>
  <trkpt lat="32.277547" lon="-3.429265">
   <ele>1106.00</ele>
   <time>2014-04-01T12:50:11Z</time>
  </trkpt>
  <trkpt lat="32.277445" lon="-3.428794">
   <ele>1106.00</ele>
   <time>2014-04-01T12:50:13Z</time>
  </trkpt>
  <trkpt lat="32.277361" lon="-3.428315">
   <ele>1105.00</ele>
   <time>2014-04-01T12:50:15Z</time>
  </trkpt>
  <trkpt lat="32.277295" lon="-3.427828">
   <ele>1105.00</ele>
   <time>2014-04-01T12:50:17Z</time>
  </trkpt>
  <trkpt lat="32.277273" lon="-3.427334">
   <ele>1109.00</ele>
   <time>2014-04-01T12:50:19Z</time>
  </trkpt>
  <trkpt lat="32.277261" lon="-3.426838">
   <ele>1112.00</ele>
   <time>2014-04-01T12:50:21Z</time>
  </trkpt>
  <trkpt lat="32.277262" lon="-3.426342">
   <ele>1113.00</ele>
   <time>2014-04-01T12:50:23Z</time>
  </trkpt>
  <trkpt lat="32.277280" lon="-3.425850">
   <ele>1114.00</ele>
   <time>2014-04-01T12:50:25Z</time>
  </trkpt>
  <trkpt lat="32.277317" lon="-3.425358">
   <ele>1115.00</ele>
   <time>2014-04-01T12:50:27Z</time>
  </trkpt>
  <trkpt lat="32.277524" lon="-3.423621">
   <ele>1116.00</ele>
   <time>2014-04-01T12:50:34Z</time>
  </trkpt>
  <trkpt lat="32.277965" lon="-3.419857">
   <ele>1117.00</ele>
   <time>2014-04-01T12:50:49Z</time>
  </trkpt>
  <trkpt lat="32.278409" lon="-3.415912">
   <ele>1116.00</ele>
   <time>2014-04-01T12:51:05Z</time>
  </trkpt>
  <trkpt lat="32.278827" lon="-3.412234">
   <ele>1114.00</ele>
   <time>2014-04-01T12:51:20Z</time>
  </trkpt>
  <trkpt lat="32.278981" lon="-3.410760">
   <ele>1113.00</ele>
   <time>2014-04-01T12:51:26Z</time>
  </trkpt>
  <trkpt lat="32.279052" lon="-3.409542">
   <ele>1112.00</ele>
   <time>2014-04-01T12:51:31Z</time>
  </trkpt>
  <trkpt lat="32.279146" lon="-3.405921">
   <ele>1109.00</ele>
   <time>2014-04-01T12:51:46Z</time>
  </trkpt>
  <trkpt lat="32.279246" lon="-3.402130">
   <ele>1108.00</ele>
   <time>2014-04-01T12:52:01Z</time>
  </trkpt>
  <trkpt lat="32.279358" lon="-3.398026">
   <ele>1105.00</ele>
   <time>2014-04-01T12:52:17Z</time>
  </trkpt>
  <trkpt lat="32.279397" lon="-3.396996">
   <ele>1104.00</ele>
   <time>2014-04-01T12:52:21Z</time>
  </trkpt>
  <trkpt lat="32.279442" lon="-3.396482">
   <ele>1104.00</ele>
   <time>2014-04-01T12:52:23Z</time>
  </trkpt>
  <trkpt lat="32.279508" lon="-3.395975">
   <ele>1103.00</ele>
   <time>2014-04-01T12:52:25Z</time>
  </trkpt>
  <trkpt lat="32.279592" lon="-3.395474">
   <ele>1103.00</ele>
   <time>2014-04-01T12:52:27Z</time>
  </trkpt>
  <trkpt lat="32.279696" lon="-3.394983">
   <ele>1101.00</ele>
   <time>2014-04-01T12:52:29Z</time>
  </trkpt>
  <trkpt lat="32.279887" lon="-3.394265">
   <ele>1100.00</ele>
   <time>2014-04-01T12:52:32Z</time>
  </trkpt>
  <trkpt lat="32.280934" lon="-3.390470">
   <ele>1093.00</ele>
   <time>2014-04-01T12:52:48Z</time>
  </trkpt>
  <trkpt lat="32.281914" lon="-3.386987">
   <ele>1094.00</ele>
   <time>2014-04-01T12:53:03Z</time>
  </trkpt>
  <trkpt lat="32.282806" lon="-3.383602">
   <ele>1089.00</ele>
   <time>2014-04-01T12:53:18Z</time>
  </trkpt>
  <trkpt lat="32.282902" lon="-3.383141">
   <ele>1090.00</ele>
   <time>2014-04-01T12:53:20Z</time>
  </trkpt>
  <trkpt lat="32.282941" lon="-3.382905">
   <ele>1090.00</ele>
   <time>2014-04-01T12:53:21Z</time>
  </trkpt>
  <trkpt lat="32.282970" lon="-3.382666">
   <ele>1091.00</ele>
   <time>2014-04-01T12:53:22Z</time>
  </trkpt>
  <trkpt lat="32.283006" lon="-3.382185">
   <ele>1091.00</ele>
   <time>2014-04-01T12:53:24Z</time>
  </trkpt>
  <trkpt lat="32.283016" lon="-3.381699">
   <ele>1092.00</ele>
   <time>2014-04-01T12:53:26Z</time>
  </trkpt>
  <trkpt lat="32.282968" lon="-3.379981">
   <ele>1093.00</ele>
   <time>2014-04-01T12:53:33Z</time>
  </trkpt>
  <trkpt lat="32.282820" lon="-3.375973">
   <ele>1093.00</ele>
   <time>2014-04-01T12:53:49Z</time>
  </trkpt>
  <trkpt lat="32.282682" lon="-3.372208">
   <ele>1093.00</ele>
   <time>2014-04-01T12:54:04Z</time>
  </trkpt>
  <trkpt lat="32.282544" lon="-3.368491">
   <ele>1092.00</ele>
   <time>2014-04-01T12:54:19Z</time>
  </trkpt>
  <trkpt lat="32.282415" lon="-3.364764">
   <ele>1091.00</ele>
   <time>2014-04-01T12:54:34Z</time>
  </trkpt>
  <trkpt lat="32.282365" lon="-3.362780">
   <ele>1090.00</ele>
   <time>2014-04-01T12:54:42Z</time>
  </trkpt>
  <trkpt lat="32.282391" lon="-3.361048">
   <ele>1089.00</ele>
   <time>2014-04-01T12:54:49Z</time>
  </trkpt>
  <trkpt lat="32.282563" lon="-3.357395">
   <ele>1087.00</ele>
   <time>2014-04-01T12:55:04Z</time>
  </trkpt>
  <trkpt lat="32.282603" lon="-3.356191">
   <ele>1088.00</ele>
   <time>2014-04-01T12:55:09Z</time>
  </trkpt>
  <trkpt lat="32.282599" lon="-3.355708">
   <ele>1088.00</ele>
   <time>2014-04-01T12:55:11Z</time>
  </trkpt>
  <trkpt lat="32.282576" lon="-3.355221">
   <ele>1088.00</ele>
   <time>2014-04-01T12:55:13Z</time>
  </trkpt>
  <trkpt lat="32.282535" lon="-3.354730">
   <ele>1087.00</ele>
   <time>2014-04-01T12:55:15Z</time>
  </trkpt>
  <trkpt lat="32.282073" lon="-3.350811">
   <ele>1083.00</ele>
   <time>2014-04-01T12:55:31Z</time>
  </trkpt>
  <trkpt lat="32.281858" lon="-3.348895">
   <ele>1082.00</ele>
   <time>2014-04-01T12:55:39Z</time>
  </trkpt>
  <trkpt lat="32.281848" lon="-3.348661">
   <ele>1082.00</ele>
   <time>2014-04-01T12:55:40Z</time>
  </trkpt>
  <trkpt lat="32.281847" lon="-3.348194">
   <ele>1082.00</ele>
   <time>2014-04-01T12:55:42Z</time>
  </trkpt>
  <trkpt lat="32.281857" lon="-3.347963">
   <ele>1081.00</ele>
   <time>2014-04-01T12:55:43Z</time>
  </trkpt>
  <trkpt lat="32.281897" lon="-3.347501">
   <ele>1081.00</ele>
   <time>2014-04-01T12:55:45Z</time>
  </trkpt>
  <trkpt lat="32.282339" lon="-3.343919">
   <ele>1079.00</ele>
   <time>2014-04-01T12:56:00Z</time>
  </trkpt>
  <trkpt lat="32.282595" lon="-3.341768">
   <ele>1081.00</ele>
   <time>2014-04-01T12:56:09Z</time>
  </trkpt>
  <trkpt lat="32.282611" lon="-3.341540">
   <ele>1081.00</ele>
   <time>2014-04-01T12:56:10Z</time>
  </trkpt>
  <trkpt lat="32.282619" lon="-3.341312">
   <ele>1081.00</ele>
   <time>2014-04-01T12:56:11Z</time>
  </trkpt>
  <trkpt lat="32.282618" lon="-3.341083">
   <ele>1081.00</ele>
   <time>2014-04-01T12:56:12Z</time>
  </trkpt>
  <trkpt lat="32.282592" lon="-3.340625">
   <ele>1082.00</ele>
   <time>2014-04-01T12:56:14Z</time>
  </trkpt>
  <trkpt lat="32.282566" lon="-3.340397">
   <ele>1082.00</ele>
   <time>2014-04-01T12:56:15Z</time>
  </trkpt>
  <trkpt lat="32.282495" lon="-3.339940">
   <ele>1082.00</ele>
   <time>2014-04-01T12:56:17Z</time>
  </trkpt>
  <trkpt lat="32.282100" lon="-3.337859">
   <ele>1082.00</ele>
   <time>2014-04-01T12:56:26Z</time>
  </trkpt>
  <trkpt lat="32.281878" lon="-3.336688">
   <ele>1083.00</ele>
   <time>2014-04-01T12:56:31Z</time>
  </trkpt>
  <trkpt lat="32.281813" lon="-3.336211">
   <ele>1083.00</ele>
   <time>2014-04-01T12:56:33Z</time>
  </trkpt>
  <trkpt lat="32.281774" lon="-3.335728">
   <ele>1083.00</ele>
   <time>2014-04-01T12:56:35Z</time>
  </trkpt>
  <trkpt lat="32.281565" lon="-3.332036">
   <ele>1084.00</ele>
   <time>2014-04-01T12:56:50Z</time>
  </trkpt>
  <trkpt lat="32.281322" lon="-3.328011">
   <ele>1077.00</ele>
   <time>2014-04-01T12:57:06Z</time>
  </trkpt>
  <trkpt lat="32.281245" lon="-3.326999">
   <ele>1077.00</ele>
   <time>2014-04-01T12:57:10Z</time>
  </trkpt>
  <trkpt lat="32.281156" lon="-3.326250">
   <ele>1077.00</ele>
   <time>2014-04-01T12:57:13Z</time>
  </trkpt>
  <trkpt lat="32.280638" lon="-3.322513">
   <ele>1076.00</ele>
   <time>2014-04-01T12:57:28Z</time>
  </trkpt>
  <trkpt lat="32.280133" lon="-3.318781">
   <ele>1076.00</ele>
   <time>2014-04-01T12:57:43Z</time>
  </trkpt>
  <trkpt lat="32.279597" lon="-3.314944">
   <ele>1076.00</ele>
   <time>2014-04-01T12:57:59Z</time>
  </trkpt>
  <trkpt lat="32.279080" lon="-3.311177">
   <ele>1074.00</ele>
   <time>2014-04-01T12:58:14Z</time>
  </trkpt>
  <trkpt lat="32.278564" lon="-3.307431">
   <ele>1075.00</ele>
   <time>2014-04-01T12:58:29Z</time>
  </trkpt>
  <trkpt lat="32.278047" lon="-3.303648">
   <ele>1075.00</ele>
   <time>2014-04-01T12:58:44Z</time>
  </trkpt>
  <trkpt lat="32.277654" lon="-3.300662">
   <ele>1076.00</ele>
   <time>2014-04-01T12:58:56Z</time>
  </trkpt>
  <trkpt lat="32.277616" lon="-3.300164">
   <ele>1076.00</ele>
   <time>2014-04-01T12:58:58Z</time>
  </trkpt>
  <trkpt lat="32.277599" lon="-3.299664">
   <ele>1076.00</ele>
   <time>2014-04-01T12:59:00Z</time>
  </trkpt>
  <trkpt lat="32.277602" lon="-3.299161">
   <ele>1075.00</ele>
   <time>2014-04-01T12:59:02Z</time>
  </trkpt>
  <trkpt lat="32.277628" lon="-3.298658">
   <ele>1074.00</ele>
   <time>2014-04-01T12:59:04Z</time>
  </trkpt>
  <trkpt lat="32.277674" lon="-3.298158">
   <ele>1074.00</ele>
   <time>2014-04-01T12:59:06Z</time>
  </trkpt>
  <trkpt lat="32.278075" lon="-3.294220">
   <ele>1069.00</ele>
   <time>2014-04-01T12:59:22Z</time>
  </trkpt>
  <trkpt lat="32.278455" lon="-3.290545">
   <ele>1068.00</ele>
   <time>2014-04-01T12:59:37Z</time>
  </trkpt>
  <trkpt lat="32.278774" lon="-3.287107">
   <ele>1069.00</ele>
   <time>2014-04-01T12:59:51Z</time>
  </trkpt>
  <trkpt lat="32.278807" lon="-3.286370">
   <ele>1069.00</ele>
   <time>2014-04-01T12:59:54Z</time>
  </trkpt>
  <trkpt lat="32.278810" lon="-3.285633">
   <ele>1069.00</ele>
   <time>2014-04-01T12:59:57Z</time>
  </trkpt>
  <trkpt lat="32.278787" lon="-3.284403">
   <ele>1071.00</ele>
   <time>2014-04-01T13:00:02Z</time>
  </trkpt>
  <trkpt lat="32.278623" lon="-3.280450">
   <ele>1072.00</ele>
   <time>2014-04-01T13:00:18Z</time>
  </trkpt>
  <trkpt lat="32.278500" lon="-3.276839">
   <ele>1071.00</ele>
   <time>2014-04-01T13:00:33Z</time>
  </trkpt>
  <trkpt lat="32.278503" lon="-3.276352">
   <ele>1071.00</ele>
   <time>2014-04-01T13:00:35Z</time>
  </trkpt>
  <trkpt lat="32.278529" lon="-3.275863">
   <ele>1071.00</ele>
   <time>2014-04-01T13:00:37Z</time>
  </trkpt>
  <trkpt lat="32.278579" lon="-3.275372">
   <ele>1071.00</ele>
   <time>2014-04-01T13:00:39Z</time>
  </trkpt>
  <trkpt lat="32.279098" lon="-3.271589">
   <ele>1069.00</ele>
   <time>2014-04-01T13:00:54Z</time>
  </trkpt>
  <trkpt lat="32.279672" lon="-3.267457">
   <ele>1066.00</ele>
   <time>2014-04-01T13:01:10Z</time>
  </trkpt>
  <trkpt lat="32.280203" lon="-3.263668">
   <ele>1063.00</ele>
   <time>2014-04-01T13:01:25Z</time>
  </trkpt>
  <trkpt lat="32.280744" lon="-3.259791">
   <ele>1059.00</ele>
   <time>2014-04-01T13:01:40Z</time>
  </trkpt>
  <trkpt lat="32.281279" lon="-3.255939">
   <ele>1058.00</ele>
   <time>2014-04-01T13:01:55Z</time>
  </trkpt>
  <trkpt lat="32.281828" lon="-3.252027">
   <ele>1061.00</ele>
   <time>2014-04-01T13:02:11Z</time>
  </trkpt>
  <trkpt lat="32.282338" lon="-3.248359">
   <ele>1060.00</ele>
   <time>2014-04-01T13:02:26Z</time>
  </trkpt>
  <trkpt lat="32.282713" lon="-3.245679">
   <ele>1057.00</ele>
   <time>2014-04-01T13:02:41Z</time>
  </trkpt>
  <trkpt lat="32.283021" lon="-3.243502">
   <ele>1057.00</ele>
   <time>2014-04-01T13:02:56Z</time>
  </trkpt>
  <trkpt lat="32.283496" lon="-3.240075">
   <ele>1058.00</ele>
   <time>2014-04-01T13:03:12Z</time>
  </trkpt>
  <trkpt lat="32.283986" lon="-3.236592">
   <ele>1062.00</ele>
   <time>2014-04-01T13:03:27Z</time>
  </trkpt>
  <trkpt lat="32.284099" lon="-3.235648">
   <ele>1062.00</ele>
   <time>2014-04-01T13:03:31Z</time>
  </trkpt>
  <trkpt lat="32.284141" lon="-3.235169">
   <ele>1063.00</ele>
   <time>2014-04-01T13:03:33Z</time>
  </trkpt>
  <trkpt lat="32.284163" lon="-3.234689">
   <ele>1063.00</ele>
   <time>2014-04-01T13:03:35Z</time>
  </trkpt>
  <trkpt lat="32.284163" lon="-3.234213">
   <ele>1063.00</ele>
   <time>2014-04-01T13:03:37Z</time>
  </trkpt>
  <trkpt lat="32.284146" lon="-3.233746">
   <ele>1063.00</ele>
   <time>2014-04-01T13:03:39Z</time>
  </trkpt>
  <trkpt lat="32.284078" lon="-3.232858">
   <ele>1062.00</ele>
   <time>2014-04-01T13:03:43Z</time>
  </trkpt>
  <trkpt lat="32.283774" lon="-3.229490">
   <ele>1061.00</ele>
   <time>2014-04-01T13:03:59Z</time>
  </trkpt>
  <trkpt lat="32.283537" lon="-3.226985">
   <ele>1063.00</ele>
   <time>2014-04-01T13:04:11Z</time>
  </trkpt>
  <trkpt lat="32.283461" lon="-3.226584">
   <ele>1064.00</ele>
   <time>2014-04-01T13:04:13Z</time>
  </trkpt>
  <trkpt lat="32.283332" lon="-3.226210">
   <ele>1064.00</ele>
   <time>2014-04-01T13:04:15Z</time>
  </trkpt>
  <trkpt lat="32.283160" lon="-3.225861">
   <ele>1064.00</ele>
   <time>2014-04-01T13:04:17Z</time>
  </trkpt>
  <trkpt lat="32.282944" lon="-3.225548">
   <ele>1063.00</ele>
   <time>2014-04-01T13:04:19Z</time>
  </trkpt>
  <trkpt lat="32.282680" lon="-3.225283">
   <ele>1062.00</ele>
   <time>2014-04-01T13:04:21Z</time>
  </trkpt>
  <trkpt lat="32.282375" lon="-3.225061">
   <ele>1060.00</ele>
   <time>2014-04-01T13:04:23Z</time>
  </trkpt>
  <trkpt lat="32.279748" lon="-3.223330">
   <ele>1051.00</ele>
   <time>2014-04-01T13:04:39Z</time>
  </trkpt>
  <trkpt lat="32.277378" lon="-3.221729">
   <ele>1045.00</ele>
   <time>2014-04-01T13:04:54Z</time>
  </trkpt>
  <trkpt lat="32.276781" lon="-3.221345">
   <ele>1044.00</ele>
   <time>2014-04-01T13:04:58Z</time>
  </trkpt>
  <trkpt lat="32.276473" lon="-3.221180">
   <ele>1043.00</ele>
   <time>2014-04-01T13:05:00Z</time>
  </trkpt>
  <trkpt lat="32.276145" lon="-3.221052">
   <ele>1042.00</ele>
   <time>2014-04-01T13:05:02Z</time>
  </trkpt>
  <trkpt lat="32.275800" lon="-3.220964">
   <ele>1042.00</ele>
   <time>2014-04-01T13:05:04Z</time>
  </trkpt>
  <trkpt lat="32.275447" lon="-3.220918">
   <ele>1041.00</ele>
   <time>2014-04-01T13:05:06Z</time>
  </trkpt>
  <trkpt lat="32.275094" lon="-3.220913">
   <ele>1040.00</ele>
   <time>2014-04-01T13:05:08Z</time>
  </trkpt>
  <trkpt lat="32.274745" lon="-3.220934">
   <ele>1039.00</ele>
   <time>2014-04-01T13:05:10Z</time>
  </trkpt>
  <trkpt lat="32.274398" lon="-3.220979">
   <ele>1038.00</ele>
   <time>2014-04-01T13:05:12Z</time>
  </trkpt>
  <trkpt lat="32.273695" lon="-3.221067">
   <ele>1036.00</ele>
   <time>2014-04-01T13:05:16Z</time>
  </trkpt>
  <trkpt lat="32.273341" lon="-3.221089">
   <ele>1035.00</ele>
   <time>2014-04-01T13:05:18Z</time>
  </trkpt>
  <trkpt lat="32.272987" lon="-3.221078">
   <ele>1035.00</ele>
   <time>2014-04-01T13:05:20Z</time>
  </trkpt>
  <trkpt lat="32.272637" lon="-3.221045">
   <ele>1034.00</ele>
   <time>2014-04-01T13:05:22Z</time>
  </trkpt>
  <trkpt lat="32.271277" lon="-3.220842">
   <ele>1032.00</ele>
   <time>2014-04-01T13:05:30Z</time>
  </trkpt>
  <trkpt lat="32.270946" lon="-3.220779">
   <ele>1032.00</ele>
   <time>2014-04-01T13:05:32Z</time>
  </trkpt>
  <trkpt lat="32.270623" lon="-3.220666">
   <ele>1032.00</ele>
   <time>2014-04-01T13:05:34Z</time>
  </trkpt>
  <trkpt lat="32.270314" lon="-3.220495">
   <ele>1032.00</ele>
   <time>2014-04-01T13:05:36Z</time>
  </trkpt>
  <trkpt lat="32.270026" lon="-3.220279">
   <ele>1032.00</ele>
   <time>2014-04-01T13:05:38Z</time>
  </trkpt>
  <trkpt lat="32.269771" lon="-3.220012">
   <ele>1032.00</ele>
   <time>2014-04-01T13:05:40Z</time>
  </trkpt>
  <trkpt lat="32.269546" lon="-3.219699">
   <ele>1031.00</ele>
   <time>2014-04-01T13:05:42Z</time>
  </trkpt>
  <trkpt lat="32.269354" lon="-3.219353">
   <ele>1031.00</ele>
   <time>2014-04-01T13:05:44Z</time>
  </trkpt>
  <trkpt lat="32.267911" lon="-3.216573">
   <ele>1028.00</ele>
   <time>2014-04-01T13:05:59Z</time>
  </trkpt>
  <trkpt lat="32.266438" lon="-3.213763">
   <ele>1028.00</ele>
   <time>2014-04-01T13:06:14Z</time>
  </trkpt>
  <trkpt lat="32.266231" lon="-3.213407">
   <ele>1029.00</ele>
   <time>2014-04-01T13:06:16Z</time>
  </trkpt>
  <trkpt lat="32.266008" lon="-3.213064">
   <ele>1029.00</ele>
   <time>2014-04-01T13:06:18Z</time>
  </trkpt>
  <trkpt lat="32.265771" lon="-3.212729">
   <ele>1029.00</ele>
   <time>2014-04-01T13:06:20Z</time>
  </trkpt>
  <trkpt lat="32.265391" lon="-3.212241">
   <ele>1029.00</ele>
   <time>2014-04-01T13:06:23Z</time>
  </trkpt>
  <trkpt lat="32.264725" lon="-3.211452">
   <ele>1029.00</ele>
   <time>2014-04-01T13:06:28Z</time>
  </trkpt>
  <trkpt lat="32.262624" lon="-3.209041">
   <ele>1030.00</ele>
   <time>2014-04-01T13:06:44Z</time>
  </trkpt>
  <trkpt lat="32.260688" lon="-3.206783">
   <ele>1027.00</ele>
   <time>2014-04-01T13:06:59Z</time>
  </trkpt>
  <trkpt lat="32.260476" lon="-3.206467">
   <ele>1027.00</ele>
   <time>2014-04-01T13:07:01Z</time>
  </trkpt>
  <trkpt lat="32.260300" lon="-3.206117">
   <ele>1026.00</ele>
   <time>2014-04-01T13:07:03Z</time>
  </trkpt>
  <trkpt lat="32.260169" lon="-3.205734">
   <ele>1025.00</ele>
   <time>2014-04-01T13:07:05Z</time>
  </trkpt>
  <trkpt lat="32.260072" lon="-3.205332">
   <ele>1025.00</ele>
   <time>2014-04-01T13:07:07Z</time>
  </trkpt>
  <trkpt lat="32.260023" lon="-3.204926">
   <ele>1024.00</ele>
   <time>2014-04-01T13:07:09Z</time>
  </trkpt>
  <trkpt lat="32.260031" lon="-3.204520">
   <ele>1024.00</ele>
   <time>2014-04-01T13:07:11Z</time>
  </trkpt>
  <trkpt lat="32.260077" lon="-3.204119">
   <ele>1024.00</ele>
   <time>2014-04-01T13:07:13Z</time>
  </trkpt>
  <trkpt lat="32.260156" lon="-3.203722">
   <ele>1024.00</ele>
   <time>2014-04-01T13:07:15Z</time>
  </trkpt>
  <trkpt lat="32.260349" lon="-3.202952">
   <ele>1024.00</ele>
   <time>2014-04-01T13:07:19Z</time>
  </trkpt>
  <trkpt lat="32.260974" lon="-3.200577">
   <ele>1020.00</ele>
   <time>2014-04-01T13:07:34Z</time>
  </trkpt>
  <trkpt lat="32.261437" lon="-3.198798">
   <ele>1014.00</ele>
   <time>2014-04-01T13:07:49Z</time>
  </trkpt>
  <trkpt lat="32.261563" lon="-3.198624">
   <ele>1013.00</ele>
   <time>2014-04-01T13:07:53Z</time>
  </trkpt>
  <trkpt lat="32.261727" lon="-3.198507">
   <ele>1012.00</ele>
   <time>2014-04-01T13:07:57Z</time>
  </trkpt>
  <trkpt lat="32.261938" lon="-3.198413">
   <ele>1012.00</ele>
   <time>2014-04-01T13:08:01Z</time>
  </trkpt>
  <trkpt lat="32.262133" lon="-3.198248">
   <ele>1011.00</ele>
   <time>2014-04-01T13:08:05Z</time>
  </trkpt>
  <trkpt lat="32.262253" lon="-3.198053">
   <ele>1011.00</ele>
   <time>2014-04-01T13:08:08Z</time>
  </trkpt>
  <trkpt lat="32.262400" lon="-3.197788">
   <ele>1011.00</ele>
   <time>2014-04-01T13:08:12Z</time>
  </trkpt>
  <trkpt lat="32.262563" lon="-3.197535">
   <ele>1011.00</ele>
   <time>2014-04-01T13:08:16Z</time>
  </trkpt>
  <trkpt lat="32.262745" lon="-3.197285">
   <ele>1010.00</ele>
   <time>2014-04-01T13:08:20Z</time>
  </trkpt>
  <trkpt lat="32.262877" lon="-3.197117">
   <ele>1010.00</ele>
   <time>2014-04-01T13:08:23Z</time>
  </trkpt>
  <trkpt lat="32.263047" lon="-3.196989">
   <ele>1009.00</ele>
   <time>2014-04-01T13:08:26Z</time>
  </trkpt>
  <trkpt lat="32.263240" lon="-3.196882">
   <ele>1010.00</ele>
   <time>2014-04-01T13:08:29Z</time>
  </trkpt>
  <trkpt lat="32.263424" lon="-3.196768">
   <ele>1010.00</ele>
   <time>2014-04-01T13:08:32Z</time>
  </trkpt>
  <trkpt lat="32.263605" lon="-3.196625">
   <ele>1010.00</ele>
   <time>2014-04-01T13:08:35Z</time>
  </trkpt>
  <trkpt lat="32.264239" lon="-3.196084">
   <ele>1011.00</ele>
   <time>2014-04-01T13:08:44Z</time>
  </trkpt>
  <trkpt lat="32.264542" lon="-3.195812">
   <ele>1011.00</ele>
   <time>2014-04-01T13:08:48Z</time>
  </trkpt>
  <trkpt lat="32.264719" lon="-3.195698">
   <ele>1011.00</ele>
   <time>2014-04-01T13:08:50Z</time>
  </trkpt>
  <trkpt lat="32.264912" lon="-3.195588">
   <ele>1011.00</ele>
   <time>2014-04-01T13:08:52Z</time>
  </trkpt>
  <trkpt lat="32.265473" lon="-3.195249">
   <ele>1012.00</ele>
   <time>2014-04-01T13:08:58Z</time>
  </trkpt>
  <trkpt lat="32.265929" lon="-3.194933">
   <ele>1013.00</ele>
   <time>2014-04-01T13:09:03Z</time>
  </trkpt>
  <trkpt lat="32.266115" lon="-3.194825">
   <ele>1014.00</ele>
   <time>2014-04-01T13:09:05Z</time>
  </trkpt>
  <trkpt lat="32.266404" lon="-3.194688">
   <ele>1014.00</ele>
   <time>2014-04-01T13:09:09Z</time>
  </trkpt>
  <trkpt lat="32.266524" lon="-3.194502">
   <ele>1014.00</ele>
   <time>2014-04-01T13:09:12Z</time>
  </trkpt>
  <trkpt lat="32.266649" lon="-3.194272">
   <ele>1014.00</ele>
   <time>2014-04-01T13:09:16Z</time>
  </trkpt>
  <trkpt lat="32.266808" lon="-3.194161">
   <ele>1015.00</ele>
   <time>2014-04-01T13:09:19Z</time>
  </trkpt>
  <trkpt lat="32.267019" lon="-3.194075">
   <ele>1015.00</ele>
   <time>2014-04-01T13:09:22Z</time>
  </trkpt>
  <trkpt lat="32.267806" lon="-3.193759">
   <ele>1016.00</ele>
   <time>2014-04-01T13:09:32Z</time>
  </trkpt>
  <trkpt lat="32.268115" lon="-3.193610">
   <ele>1017.00</ele>
   <time>2014-04-01T13:09:36Z</time>
  </trkpt>
  <trkpt lat="32.268357" lon="-3.193619">
   <ele>1017.00</ele>
   <time>2014-04-01T13:09:39Z</time>
  </trkpt>
  <trkpt lat="32.268573" lon="-3.193595">
   <ele>1018.00</ele>
   <time>2014-04-01T13:09:42Z</time>
  </trkpt>
  <trkpt lat="32.268736" lon="-3.193416">
   <ele>1019.00</ele>
   <time>2014-04-01T13:09:45Z</time>
  </trkpt>
  <trkpt lat="32.268819" lon="-3.193177">
   <ele>1020.00</ele>
   <time>2014-04-01T13:09:48Z</time>
  </trkpt>
  <trkpt lat="32.268857" lon="-3.192931">
   <ele>1021.00</ele>
   <time>2014-04-01T13:09:51Z</time>
  </trkpt>
  <trkpt lat="32.268973" lon="-3.192710">
   <ele>1021.00</ele>
   <time>2014-04-01T13:09:54Z</time>
  </trkpt>
  <trkpt lat="32.269131" lon="-3.192499">
   <ele>1021.00</ele>
   <time>2014-04-01T13:09:57Z</time>
  </trkpt>
  <trkpt lat="32.269306" lon="-3.192290">
   <ele>1021.00</ele>
   <time>2014-04-01T13:10:00Z</time>
  </trkpt>
  <trkpt lat="32.269452" lon="-3.192039">
   <ele>1021.00</ele>
   <time>2014-04-01T13:10:03Z</time>
  </trkpt>
  <trkpt lat="32.269673" lon="-3.191614">
   <ele>1020.00</ele>
   <time>2014-04-01T13:10:08Z</time>
  </trkpt>
  <trkpt lat="32.269726" lon="-3.191379">
   <ele>1020.00</ele>
   <time>2014-04-01T13:10:11Z</time>
  </trkpt>
  <trkpt lat="32.269689" lon="-3.191157">
   <ele>1020.00</ele>
   <time>2014-04-01T13:10:14Z</time>
  </trkpt>
  <trkpt lat="32.269614" lon="-3.190948">
   <ele>1020.00</ele>
   <time>2014-04-01T13:10:17Z</time>
  </trkpt>
  <trkpt lat="32.269514" lon="-3.190739">
   <ele>1020.00</ele>
   <time>2014-04-01T13:10:20Z</time>
  </trkpt>
  <trkpt lat="32.269462" lon="-3.190488">
   <ele>1020.00</ele>
   <time>2014-04-01T13:10:23Z</time>
  </trkpt>
  <trkpt lat="32.269475" lon="-3.190231">
   <ele>1020.00</ele>
   <time>2014-04-01T13:10:26Z</time>
  </trkpt>
  <trkpt lat="32.269569" lon="-3.190020">
   <ele>1018.00</ele>
   <time>2014-04-01T13:10:29Z</time>
  </trkpt>
  <trkpt lat="32.269712" lon="-3.189836">
   <ele>1018.00</ele>
   <time>2014-04-01T13:10:32Z</time>
  </trkpt>
  <trkpt lat="32.269831" lon="-3.189588">
   <ele>1019.00</ele>
   <time>2014-04-01T13:10:35Z</time>
  </trkpt>
  <trkpt lat="32.269962" lon="-3.189332">
   <ele>1020.00</ele>
   <time>2014-04-01T13:10:38Z</time>
  </trkpt>
  <trkpt lat="32.270074" lon="-3.189116">
   <ele>1020.00</ele>
   <time>2014-04-01T13:10:41Z</time>
  </trkpt>
  <trkpt lat="32.270178" lon="-3.188903">
   <ele>1020.00</ele>
   <time>2014-04-01T13:10:44Z</time>
  </trkpt>
  <trkpt lat="32.270311" lon="-3.188727">
   <ele>1020.00</ele>
   <time>2014-04-01T13:10:47Z</time>
  </trkpt>
  <trkpt lat="32.270477" lon="-3.188531">
   <ele>1020.00</ele>
   <time>2014-04-01T13:10:51Z</time>
  </trkpt>
  <trkpt lat="32.270563" lon="-3.188317">
   <ele>1021.00</ele>
   <time>2014-04-01T13:10:55Z</time>
  </trkpt>
  <trkpt lat="32.270555" lon="-3.188105">
   <ele>1021.00</ele>
   <time>2014-04-01T13:11:00Z</time>
  </trkpt>
  <trkpt lat="32.270462" lon="-3.187927">
   <ele>1021.00</ele>
   <time>2014-04-01T13:11:04Z</time>
  </trkpt>
  <trkpt lat="32.270267" lon="-3.187764">
   <ele>1020.00</ele>
   <time>2014-04-01T13:11:08Z</time>
  </trkpt>
  <trkpt lat="32.270094" lon="-3.187651">
   <ele>1019.00</ele>
   <time>2014-04-01T13:11:11Z</time>
  </trkpt>
  <trkpt lat="32.269934" lon="-3.187519">
   <ele>1018.00</ele>
   <time>2014-04-01T13:11:14Z</time>
  </trkpt>
  <trkpt lat="32.269794" lon="-3.187378">
   <ele>1018.00</ele>
   <time>2014-04-01T13:11:17Z</time>
  </trkpt>
  <trkpt lat="32.269605" lon="-3.187277">
   <ele>1018.00</ele>
   <time>2014-04-01T13:11:20Z</time>
  </trkpt>
  <trkpt lat="32.269382" lon="-3.187196">
   <ele>1018.00</ele>
   <time>2014-04-01T13:11:23Z</time>
  </trkpt>
  <trkpt lat="32.269167" lon="-3.187102">
   <ele>1018.00</ele>
   <time>2014-04-01T13:11:26Z</time>
  </trkpt>
  <trkpt lat="32.268985" lon="-3.186942">
   <ele>1016.00</ele>
   <time>2014-04-01T13:11:29Z</time>
  </trkpt>
  <trkpt lat="32.268836" lon="-3.186743">
   <ele>1016.00</ele>
   <time>2014-04-01T13:11:32Z</time>
  </trkpt>
  <trkpt lat="32.268687" lon="-3.186548">
   <ele>1015.00</ele>
   <time>2014-04-01T13:11:35Z</time>
  </trkpt>
  <trkpt lat="32.268505" lon="-3.186377">
   <ele>1014.00</ele>
   <time>2014-04-01T13:11:38Z</time>
  </trkpt>
  <trkpt lat="32.268281" lon="-3.186237">
   <ele>1014.00</ele>
   <time>2014-04-01T13:11:41Z</time>
  </trkpt>
  <trkpt lat="32.267965" lon="-3.186032">
   <ele>1013.00</ele>
   <time>2014-04-01T13:11:45Z</time>
  </trkpt>
  <trkpt lat="32.267754" lon="-3.185850">
   <ele>1013.00</ele>
   <time>2014-04-01T13:11:48Z</time>
  </trkpt>
  <trkpt lat="32.267557" lon="-3.185652">
   <ele>1012.00</ele>
   <time>2014-04-01T13:11:51Z</time>
  </trkpt>
  <trkpt lat="32.267369" lon="-3.185424">
   <ele>1012.00</ele>
   <time>2014-04-01T13:11:54Z</time>
  </trkpt>
  <trkpt lat="32.267164" lon="-3.185191">
   <ele>1012.00</ele>
   <time>2014-04-01T13:11:57Z</time>
  </trkpt>
  <trkpt lat="32.267040" lon="-3.185023">
   <ele>1013.00</ele>
   <time>2014-04-01T13:11:59Z</time>
  </trkpt>
  <trkpt lat="32.266860" lon="-3.184778">
   <ele>1013.00</ele>
   <time>2014-04-01T13:12:02Z</time>
  </trkpt>
  <trkpt lat="32.266671" lon="-3.184557">
   <ele>1013.00</ele>
   <time>2014-04-01T13:12:05Z</time>
  </trkpt>
  <trkpt lat="32.266520" lon="-3.184298">
   <ele>1013.00</ele>
   <time>2014-04-01T13:12:08Z</time>
  </trkpt>
  <trkpt lat="32.266326" lon="-3.183947">
   <ele>1014.00</ele>
   <time>2014-04-01T13:12:12Z</time>
  </trkpt>
  <trkpt lat="32.266174" lon="-3.183721">
   <ele>1014.00</ele>
   <time>2014-04-01T13:12:15Z</time>
  </trkpt>
  <trkpt lat="32.266013" lon="-3.183526">
   <ele>1013.00</ele>
   <time>2014-04-01T13:12:18Z</time>
  </trkpt>
  <trkpt lat="32.265868" lon="-3.183312">
   <ele>1013.00</ele>
   <time>2014-04-01T13:12:21Z</time>
  </trkpt>
  <trkpt lat="32.265730" lon="-3.183078">
   <ele>1012.00</ele>
   <time>2014-04-01T13:12:24Z</time>
  </trkpt>
  <trkpt lat="32.265569" lon="-3.182840">
   <ele>1012.00</ele>
   <time>2014-04-01T13:12:27Z</time>
  </trkpt>
  <trkpt lat="32.265386" lon="-3.182624">
   <ele>1011.00</ele>
   <time>2014-04-01T13:12:30Z</time>
  </trkpt>
  <trkpt lat="32.265196" lon="-3.182425">
   <ele>1012.00</ele>
   <time>2014-04-01T13:12:33Z</time>
  </trkpt>
  <trkpt lat="32.264979" lon="-3.182252">
   <ele>1012.00</ele>
   <time>2014-04-01T13:12:36Z</time>
  </trkpt>
  <trkpt lat="32.264755" lon="-3.182073">
   <ele>1012.00</ele>
   <time>2014-04-01T13:12:39Z</time>
  </trkpt>
  <trkpt lat="32.264614" lon="-3.181939">
   <ele>1012.00</ele>
   <time>2014-04-01T13:12:41Z</time>
  </trkpt>
  <trkpt lat="32.264404" lon="-3.181723">
   <ele>1012.00</ele>
   <time>2014-04-01T13:12:44Z</time>
  </trkpt>
  <trkpt lat="32.264271" lon="-3.181558">
   <ele>1012.00</ele>
   <time>2014-04-01T13:12:46Z</time>
  </trkpt>
  <trkpt lat="32.263950" lon="-3.181144">
   <ele>1012.00</ele>
   <time>2014-04-01T13:12:51Z</time>
  </trkpt>
  <trkpt lat="32.263692" lon="-3.180829">
   <ele>1011.00</ele>
   <time>2014-04-01T13:12:55Z</time>
  </trkpt>
  <trkpt lat="32.263585" lon="-3.180654">
   <ele>1011.00</ele>
   <time>2014-04-01T13:12:57Z</time>
  </trkpt>
  <trkpt lat="32.263381" lon="-3.180304">
   <ele>1011.00</ele>
   <time>2014-04-01T13:13:01Z</time>
  </trkpt>
  <trkpt lat="32.263317" lon="-3.180092">
   <ele>1011.00</ele>
   <time>2014-04-01T13:13:03Z</time>
  </trkpt>
  <trkpt lat="32.263275" lon="-3.179866">
   <ele>1010.00</ele>
   <time>2014-04-01T13:13:05Z</time>
  </trkpt>
  <trkpt lat="32.263218" lon="-3.179515">
   <ele>1010.00</ele>
   <time>2014-04-01T13:13:08Z</time>
  </trkpt>
  <trkpt lat="32.263157" lon="-3.179280">
   <ele>1010.00</ele>
   <time>2014-04-01T13:13:10Z</time>
  </trkpt>
  <trkpt lat="32.263066" lon="-3.178922">
   <ele>1010.00</ele>
   <time>2014-04-01T13:13:13Z</time>
  </trkpt>
  <trkpt lat="32.262943" lon="-3.178311">
   <ele>1010.00</ele>
   <time>2014-04-01T13:13:18Z</time>
  </trkpt>
  <trkpt lat="32.262832" lon="-3.177833">
   <ele>1010.00</ele>
   <time>2014-04-01T13:13:22Z</time>
  </trkpt>
  <trkpt lat="32.262777" lon="-3.177608">
   <ele>1010.00</ele>
   <time>2014-04-01T13:13:24Z</time>
  </trkpt>
  <trkpt lat="32.262680" lon="-3.177406">
   <ele>1010.00</ele>
   <time>2014-04-01T13:13:26Z</time>
  </trkpt>
  <trkpt lat="32.262559" lon="-3.177214">
   <ele>1011.00</ele>
   <time>2014-04-01T13:13:28Z</time>
  </trkpt>
  <trkpt lat="32.262427" lon="-3.177028">
   <ele>1011.00</ele>
   <time>2014-04-01T13:13:30Z</time>
  </trkpt>
  <trkpt lat="32.262283" lon="-3.176872">
   <ele>1009.00</ele>
   <time>2014-04-01T13:13:32Z</time>
  </trkpt>
  <trkpt lat="32.262153" lon="-3.176703">
   <ele>1009.00</ele>
   <time>2014-04-01T13:13:34Z</time>
  </trkpt>
  <trkpt lat="32.262053" lon="-3.176503">
   <ele>1009.00</ele>
   <time>2014-04-01T13:13:36Z</time>
  </trkpt>
  <trkpt lat="32.261664" lon="-3.175639">
   <ele>1008.00</ele>
   <time>2014-04-01T13:13:44Z</time>
  </trkpt>
  <trkpt lat="32.261551" lon="-3.175422">
   <ele>1008.00</ele>
   <time>2014-04-01T13:13:46Z</time>
  </trkpt>
  <trkpt lat="32.261267" lon="-3.174886">
   <ele>1008.00</ele>
   <time>2014-04-01T13:13:51Z</time>
  </trkpt>
  <trkpt lat="32.261199" lon="-3.174653">
   <ele>1008.00</ele>
   <time>2014-04-01T13:13:53Z</time>
  </trkpt>
  <trkpt lat="32.261162" lon="-3.174413">
   <ele>1007.00</ele>
   <time>2014-04-01T13:13:55Z</time>
  </trkpt>
  <trkpt lat="32.261125" lon="-3.174180">
   <ele>1007.00</ele>
   <time>2014-04-01T13:13:57Z</time>
  </trkpt>
  <trkpt lat="32.261058" lon="-3.173968">
   <ele>1007.00</ele>
   <time>2014-04-01T13:13:59Z</time>
  </trkpt>
  <trkpt lat="32.260944" lon="-3.173794">
   <ele>1007.00</ele>
   <time>2014-04-01T13:14:01Z</time>
  </trkpt>
  <trkpt lat="32.260816" lon="-3.173635">
   <ele>1007.00</ele>
   <time>2014-04-01T13:14:03Z</time>
  </trkpt>
  <trkpt lat="32.260724" lon="-3.173451">
   <ele>1006.00</ele>
   <time>2014-04-01T13:14:05Z</time>
  </trkpt>
  <trkpt lat="32.260669" lon="-3.173243">
   <ele>1006.00</ele>
   <time>2014-04-01T13:14:07Z</time>
  </trkpt>
  <trkpt lat="32.260628" lon="-3.173019">
   <ele>1006.00</ele>
   <time>2014-04-01T13:14:09Z</time>
  </trkpt>
  <trkpt lat="32.260587" lon="-3.172799">
   <ele>1005.00</ele>
   <time>2014-04-01T13:14:11Z</time>
  </trkpt>
  <trkpt lat="32.260552" lon="-3.172590">
   <ele>1005.00</ele>
   <time>2014-04-01T13:14:13Z</time>
  </trkpt>
  <trkpt lat="32.260512" lon="-3.172179">
   <ele>1004.00</ele>
   <time>2014-04-01T13:14:17Z</time>
  </trkpt>
  <trkpt lat="32.260452" lon="-3.171888">
   <ele>1003.00</ele>
   <time>2014-04-01T13:14:20Z</time>
  </trkpt>
  <trkpt lat="32.260432" lon="-3.171607">
   <ele>1003.00</ele>
   <time>2014-04-01T13:14:23Z</time>
  </trkpt>
  <trkpt lat="32.260439" lon="-3.171327">
   <ele>1003.00</ele>
   <time>2014-04-01T13:14:26Z</time>
  </trkpt>
  <trkpt lat="32.260368" lon="-3.171031">
   <ele>1002.00</ele>
   <time>2014-04-01T13:14:29Z</time>
  </trkpt>
  <trkpt lat="32.260310" lon="-3.170731">
   <ele>1002.00</ele>
   <time>2014-04-01T13:14:32Z</time>
  </trkpt>
  <trkpt lat="32.260254" lon="-3.170462">
   <ele>1002.00</ele>
   <time>2014-04-01T13:14:35Z</time>
  </trkpt>
  <trkpt lat="32.260225" lon="-3.170194">
   <ele>1002.00</ele>
   <time>2014-04-01T13:14:38Z</time>
  </trkpt>
  <trkpt lat="32.260210" lon="-3.169906">
   <ele>1002.00</ele>
   <time>2014-04-01T13:14:41Z</time>
  </trkpt>
  <trkpt lat="32.260200" lon="-3.169622">
   <ele>1003.00</ele>
   <time>2014-04-01T13:14:44Z</time>
  </trkpt>
  <trkpt lat="32.260185" lon="-3.169341">
   <ele>1003.00</ele>
   <time>2014-04-01T13:14:47Z</time>
  </trkpt>
  <trkpt lat="32.260084" lon="-3.169068">
   <ele>1003.00</ele>
   <time>2014-04-01T13:14:50Z</time>
  </trkpt>
  <trkpt lat="32.259988" lon="-3.168792">
   <ele>1003.00</ele>
   <time>2014-04-01T13:14:53Z</time>
  </trkpt>
  <trkpt lat="32.259911" lon="-3.168510">
   <ele>1003.00</ele>
   <time>2014-04-01T13:14:56Z</time>
  </trkpt>
  <trkpt lat="32.259870" lon="-3.168226">
   <ele>1002.00</ele>
   <time>2014-04-01T13:14:59Z</time>
  </trkpt>
  <trkpt lat="32.259886" lon="-3.167947">
   <ele>1001.00</ele>
   <time>2014-04-01T13:15:02Z</time>
  </trkpt>
  <trkpt lat="32.259895" lon="-3.167669">
   <ele>1001.00</ele>
   <time>2014-04-01T13:15:05Z</time>
  </trkpt>
  <trkpt lat="32.259843" lon="-3.167371">
   <ele>1001.00</ele>
   <time>2014-04-01T13:15:08Z</time>
  </trkpt>
  <trkpt lat="32.259812" lon="-3.167071">
   <ele>1002.00</ele>
   <time>2014-04-01T13:15:11Z</time>
  </trkpt>
  <trkpt lat="32.259787" lon="-3.166784">
   <ele>1002.00</ele>
   <time>2014-04-01T13:15:14Z</time>
  </trkpt>
  <trkpt lat="32.259764" lon="-3.166504">
   <ele>1002.00</ele>
   <time>2014-04-01T13:15:17Z</time>
  </trkpt>
  <trkpt lat="32.259758" lon="-3.166213">
   <ele>1002.00</ele>
   <time>2014-04-01T13:15:20Z</time>
  </trkpt>
  <trkpt lat="32.259772" lon="-3.165757">
   <ele>1002.00</ele>
   <time>2014-04-01T13:15:25Z</time>
  </trkpt>
  <trkpt lat="32.259850" lon="-3.165529">
   <ele>1002.00</ele>
   <time>2014-04-01T13:15:28Z</time>
  </trkpt>
  <trkpt lat="32.260033" lon="-3.165160">
   <ele>1001.00</ele>
   <time>2014-04-01T13:15:33Z</time>
  </trkpt>
  <trkpt lat="32.260115" lon="-3.164946">
   <ele>1001.00</ele>
   <time>2014-04-01T13:15:36Z</time>
  </trkpt>
  <trkpt lat="32.260192" lon="-3.164738">
   <ele>1000.00</ele>
   <time>2014-04-01T13:15:39Z</time>
  </trkpt>
  <trkpt lat="32.260220" lon="-3.164426">
   <ele>999.00</ele>
   <time>2014-04-01T13:15:43Z</time>
  </trkpt>
  <trkpt lat="32.260321" lon="-3.164001">
   <ele>999.00</ele>
   <time>2014-04-01T13:15:49Z</time>
  </trkpt>
  <trkpt lat="32.260324" lon="-3.163754">
   <ele>999.00</ele>
   <time>2014-04-01T13:15:53Z</time>
  </trkpt>
  <trkpt lat="32.260286" lon="-3.163520">
   <ele>999.00</ele>
   <time>2014-04-01T13:15:57Z</time>
  </trkpt>
  <trkpt lat="32.260186" lon="-3.163279">
   <ele>999.00</ele>
   <time>2014-04-01T13:16:01Z</time>
  </trkpt>
  <trkpt lat="32.260052" lon="-3.163064">
   <ele>999.00</ele>
   <time>2014-04-01T13:16:05Z</time>
  </trkpt>
  <trkpt lat="32.259849" lon="-3.162918">
   <ele>998.00</ele>
   <time>2014-04-01T13:16:09Z</time>
  </trkpt>
  <trkpt lat="32.259654" lon="-3.162807">
   <ele>997.00</ele>
   <time>2014-04-01T13:16:13Z</time>
  </trkpt>
  <trkpt lat="32.259555" lon="-3.162551">
   <ele>996.00</ele>
   <time>2014-04-01T13:16:17Z</time>
  </trkpt>
  <trkpt lat="32.259452" lon="-3.162343">
   <ele>996.00</ele>
   <time>2014-04-01T13:16:20Z</time>
  </trkpt>
  <trkpt lat="32.259240" lon="-3.161920">
   <ele>997.00</ele>
   <time>2014-04-01T13:16:27Z</time>
  </trkpt>
  <trkpt lat="32.259182" lon="-3.161718">
   <ele>998.00</ele>
   <time>2014-04-01T13:16:32Z</time>
  </trkpt>
  <trkpt lat="32.259049" lon="-3.161751">
   <ele>997.00</ele>
   <time>2014-04-01T13:16:45Z</time>
  </trkpt>
  <trkpt lat="32.258862" lon="-3.161724">
   <ele>996.00</ele>
   <time>2014-04-01T13:16:50Z</time>
  </trkpt>
  <trkpt lat="32.258736" lon="-3.161589">
   <ele>995.00</ele>
   <time>2014-04-01T13:16:55Z</time>
  </trkpt>
  <trkpt lat="32.258656" lon="-3.161370">
   <ele>995.00</ele>
   <time>2014-04-01T13:17:00Z</time>
  </trkpt>
  <trkpt lat="32.258565" lon="-3.161171">
   <ele>996.00</ele>
   <time>2014-04-01T13:17:04Z</time>
  </trkpt>
  <trkpt lat="32.258482" lon="-3.160941">
   <ele>996.00</ele>
   <time>2014-04-01T13:17:08Z</time>
  </trkpt>
  <trkpt lat="32.258434" lon="-3.160700">
   <ele>996.00</ele>
   <time>2014-04-01T13:17:12Z</time>
  </trkpt>
  <trkpt lat="32.258320" lon="-3.160502">
   <ele>996.00</ele>
   <time>2014-04-01T13:17:16Z</time>
  </trkpt>
  <trkpt lat="32.258134" lon="-3.160380">
   <ele>995.00</ele>
   <time>2014-04-01T13:17:20Z</time>
  </trkpt>
  <trkpt lat="32.257961" lon="-3.160240">
   <ele>994.00</ele>
   <time>2014-04-01T13:17:24Z</time>
  </trkpt>
  <trkpt lat="32.257837" lon="-3.160030">
   <ele>993.00</ele>
   <time>2014-04-01T13:17:28Z</time>
  </trkpt>
  <trkpt lat="32.257818" lon="-3.159765">
   <ele>993.00</ele>
   <time>2014-04-01T13:17:32Z</time>
  </trkpt>
  <trkpt lat="32.257863" lon="-3.159525">
   <ele>994.00</ele>
   <time>2014-04-01T13:17:36Z</time>
  </trkpt>
  <trkpt lat="32.257935" lon="-3.159307">
   <ele>995.00</ele>
   <time>2014-04-01T13:17:40Z</time>
  </trkpt>
  <trkpt lat="32.257986" lon="-3.159075">
   <ele>996.00</ele>
   <time>2014-04-01T13:17:44Z</time>
  </trkpt>
  <trkpt lat="32.257972" lon="-3.158832">
   <ele>995.00</ele>
   <time>2014-04-01T13:17:48Z</time>
  </trkpt>
  <trkpt lat="32.257887" lon="-3.158643">
   <ele>995.00</ele>
   <time>2014-04-01T13:17:51Z</time>
  </trkpt>
  <trkpt lat="32.257800" lon="-3.158440">
   <ele>996.00</ele>
   <time>2014-04-01T13:17:54Z</time>
  </trkpt>
  <trkpt lat="32.257707" lon="-3.158220">
   <ele>997.00</ele>
   <time>2014-04-01T13:17:57Z</time>
  </trkpt>
  <trkpt lat="32.257588" lon="-3.158016">
   <ele>997.00</ele>
   <time>2014-04-01T13:18:00Z</time>
  </trkpt>
  <trkpt lat="32.257477" lon="-3.157812">
   <ele>996.00</ele>
   <time>2014-04-01T13:18:03Z</time>
  </trkpt>
  <trkpt lat="32.257408" lon="-3.157582">
   <ele>996.00</ele>
   <time>2014-04-01T13:18:06Z</time>
  </trkpt>
  <trkpt lat="32.257299" lon="-3.156914">
   <ele>996.00</ele>
   <time>2014-04-01T13:18:15Z</time>
  </trkpt>
  <trkpt lat="32.257216" lon="-3.156708">
   <ele>996.00</ele>
   <time>2014-04-01T13:18:18Z</time>
  </trkpt>
  <trkpt lat="32.257104" lon="-3.156516">
   <ele>996.00</ele>
   <time>2014-04-01T13:18:21Z</time>
  </trkpt>
  <trkpt lat="32.256945" lon="-3.156276">
   <ele>996.00</ele>
   <time>2014-04-01T13:18:25Z</time>
  </trkpt>
  <trkpt lat="32.256860" lon="-3.156057">
   <ele>996.00</ele>
   <time>2014-04-01T13:18:28Z</time>
  </trkpt>
  <trkpt lat="32.256775" lon="-3.155838">
   <ele>996.00</ele>
   <time>2014-04-01T13:18:31Z</time>
  </trkpt>
  <trkpt lat="32.256571" lon="-3.155319">
   <ele>996.00</ele>
   <time>2014-04-01T13:18:38Z</time>
  </trkpt>
  <trkpt lat="32.256502" lon="-3.155060">
   <ele>996.00</ele>
   <time>2014-04-01T13:18:41Z</time>
  </trkpt>
  <trkpt lat="32.256462" lon="-3.154795">
   <ele>996.00</ele>
   <time>2014-04-01T13:18:44Z</time>
  </trkpt>
  <trkpt lat="32.256454" lon="-3.154526">
   <ele>996.00</ele>
   <time>2014-04-01T13:18:47Z</time>
  </trkpt>
  <trkpt lat="32.256456" lon="-3.154252">
   <ele>996.00</ele>
   <time>2014-04-01T13:18:50Z</time>
  </trkpt>
  <trkpt lat="32.256501" lon="-3.153985">
   <ele>996.00</ele>
   <time>2014-04-01T13:18:53Z</time>
  </trkpt>
  <trkpt lat="32.256586" lon="-3.153738">
   <ele>995.00</ele>
   <time>2014-04-01T13:18:56Z</time>
  </trkpt>
  <trkpt lat="32.256656" lon="-3.153508">
   <ele>995.00</ele>
   <time>2014-04-01T13:18:59Z</time>
  </trkpt>
  <trkpt lat="32.256628" lon="-3.153293">
   <ele>995.00</ele>
   <time>2014-04-01T13:19:02Z</time>
  </trkpt>
  <trkpt lat="32.256561" lon="-3.153084">
   <ele>995.00</ele>
   <time>2014-04-01T13:19:05Z</time>
  </trkpt>
  <trkpt lat="32.256519" lon="-3.152867">
   <ele>994.00</ele>
   <time>2014-04-01T13:19:08Z</time>
  </trkpt>
  <trkpt lat="32.256480" lon="-3.152637">
   <ele>994.00</ele>
   <time>2014-04-01T13:19:11Z</time>
  </trkpt>
  <trkpt lat="32.256417" lon="-3.152406">
   <ele>994.00</ele>
   <time>2014-04-01T13:19:14Z</time>
  </trkpt>
  <trkpt lat="32.256348" lon="-3.152099">
   <ele>993.00</ele>
   <time>2014-04-01T13:19:18Z</time>
  </trkpt>
  <trkpt lat="32.256310" lon="-3.151724">
   <ele>993.00</ele>
   <time>2014-04-01T13:19:23Z</time>
  </trkpt>
  <trkpt lat="32.256275" lon="-3.151355">
   <ele>992.00</ele>
   <time>2014-04-01T13:19:28Z</time>
  </trkpt>
  <trkpt lat="32.256304" lon="-3.151094">
   <ele>992.00</ele>
   <time>2014-04-01T13:19:32Z</time>
  </trkpt>
  <trkpt lat="32.256382" lon="-3.150851">
   <ele>993.00</ele>
   <time>2014-04-01T13:19:36Z</time>
  </trkpt>
  <trkpt lat="32.256373" lon="-3.150630">
   <ele>992.00</ele>
   <time>2014-04-01T13:19:39Z</time>
  </trkpt>
  <trkpt lat="32.256340" lon="-3.150386">
   <ele>992.00</ele>
   <time>2014-04-01T13:19:42Z</time>
  </trkpt>
  <trkpt lat="32.256291" lon="-3.150137">
   <ele>992.00</ele>
   <time>2014-04-01T13:19:45Z</time>
  </trkpt>
  <trkpt lat="32.256243" lon="-3.149810">
   <ele>994.00</ele>
   <time>2014-04-01T13:19:49Z</time>
  </trkpt>
  <trkpt lat="32.256230" lon="-3.149587">
   <ele>994.00</ele>
   <time>2014-04-01T13:19:52Z</time>
  </trkpt>
  <trkpt lat="32.256183" lon="-3.149369">
   <ele>995.00</ele>
   <time>2014-04-01T13:19:55Z</time>
  </trkpt>
  <trkpt lat="32.256075" lon="-3.149079">
   <ele>995.00</ele>
   <time>2014-04-01T13:19:59Z</time>
  </trkpt>
  <trkpt lat="32.256050" lon="-3.148849">
   <ele>995.00</ele>
   <time>2014-04-01T13:20:02Z</time>
  </trkpt>
  <trkpt lat="32.256059" lon="-3.148627">
   <ele>995.00</ele>
   <time>2014-04-01T13:20:05Z</time>
  </trkpt>
  <trkpt lat="32.255968" lon="-3.148367">
   <ele>995.00</ele>
   <time>2014-04-01T13:20:09Z</time>
  </trkpt>
  <trkpt lat="32.255909" lon="-3.148168">
   <ele>994.00</ele>
   <time>2014-04-01T13:20:12Z</time>
  </trkpt>
  <trkpt lat="32.255936" lon="-3.147956">
   <ele>994.00</ele>
   <time>2014-04-01T13:20:15Z</time>
  </trkpt>
  <trkpt lat="32.255931" lon="-3.147726">
   <ele>994.00</ele>
   <time>2014-04-01T13:20:18Z</time>
  </trkpt>
  <trkpt lat="32.255912" lon="-3.147408">
   <ele>994.00</ele>
   <time>2014-04-01T13:20:22Z</time>
  </trkpt>
  <trkpt lat="32.255909" lon="-3.147174">
   <ele>993.00</ele>
   <time>2014-04-01T13:20:25Z</time>
  </trkpt>
  <trkpt lat="32.255936" lon="-3.146934">
   <ele>994.00</ele>
   <time>2014-04-01T13:20:28Z</time>
  </trkpt>
  <trkpt lat="32.255934" lon="-3.146688">
   <ele>994.00</ele>
   <time>2014-04-01T13:20:31Z</time>
  </trkpt>
  <trkpt lat="32.255927" lon="-3.146372">
   <ele>994.00</ele>
   <time>2014-04-01T13:20:35Z</time>
  </trkpt>
  <trkpt lat="32.256017" lon="-3.146152">
   <ele>994.00</ele>
   <time>2014-04-01T13:20:39Z</time>
  </trkpt>
  <trkpt lat="32.256087" lon="-3.145952">
   <ele>994.00</ele>
   <time>2014-04-01T13:20:43Z</time>
  </trkpt>
  <trkpt lat="32.256164" lon="-3.145737">
   <ele>994.00</ele>
   <time>2014-04-01T13:20:47Z</time>
  </trkpt>
  <trkpt lat="32.256162" lon="-3.145501">
   <ele>995.00</ele>
   <time>2014-04-01T13:20:52Z</time>
  </trkpt>
  <trkpt lat="32.256194" lon="-3.145240">
   <ele>996.00</ele>
   <time>2014-04-01T13:20:56Z</time>
  </trkpt>
  <trkpt lat="32.256189" lon="-3.144960">
   <ele>997.00</ele>
   <time>2014-04-01T13:21:00Z</time>
  </trkpt>
  <trkpt lat="32.256171" lon="-3.144662">
   <ele>996.00</ele>
   <time>2014-04-01T13:21:04Z</time>
  </trkpt>
  <trkpt lat="32.256168" lon="-3.144440">
   <ele>996.00</ele>
   <time>2014-04-01T13:21:07Z</time>
  </trkpt>
  <trkpt lat="32.256195" lon="-3.144181">
   <ele>996.00</ele>
   <time>2014-04-01T13:21:11Z</time>
  </trkpt>
  <trkpt lat="32.256181" lon="-3.143946">
   <ele>997.00</ele>
   <time>2014-04-01T13:21:15Z</time>
  </trkpt>
  <trkpt lat="32.256065" lon="-3.143778">
   <ele>997.00</ele>
   <time>2014-04-01T13:21:19Z</time>
  </trkpt>
  <trkpt lat="32.255946" lon="-3.143611">
   <ele>996.00</ele>
   <time>2014-04-01T13:21:24Z</time>
  </trkpt>
  <trkpt lat="32.256109" lon="-3.143507">
   <ele>993.00</ele>
   <time>2014-04-01T13:21:30Z</time>
  </trkpt>
  <trkpt lat="32.256212" lon="-3.143355">
   <ele>993.00</ele>
   <time>2014-04-01T13:21:36Z</time>
  </trkpt>
  <trkpt lat="32.256169" lon="-3.143133">
   <ele>993.00</ele>
   <time>2014-04-01T13:21:40Z</time>
  </trkpt>
  <trkpt lat="32.256152" lon="-3.142887">
   <ele>994.00</ele>
   <time>2014-04-01T13:21:44Z</time>
  </trkpt>
  <trkpt lat="32.256123" lon="-3.142581">
   <ele>995.00</ele>
   <time>2014-04-01T13:21:49Z</time>
  </trkpt>
  <trkpt lat="32.256097" lon="-3.142322">
   <ele>996.00</ele>
   <time>2014-04-01T13:21:53Z</time>
  </trkpt>
  <trkpt lat="32.256066" lon="-3.142055">
   <ele>997.00</ele>
   <time>2014-04-01T13:21:57Z</time>
  </trkpt>
  <trkpt lat="32.256043" lon="-3.141703">
   <ele>998.00</ele>
   <time>2014-04-01T13:22:02Z</time>
  </trkpt>
  <trkpt lat="32.256045" lon="-3.141482">
   <ele>998.00</ele>
   <time>2014-04-01T13:22:06Z</time>
  </trkpt>
  <trkpt lat="32.256065" lon="-3.141232">
   <ele>997.00</ele>
   <time>2014-04-01T13:22:13Z</time>
  </trkpt>
  <trkpt lat="32.256084" lon="-3.140990">
   <ele>996.00</ele>
   <time>2014-04-01T13:22:17Z</time>
  </trkpt>
  <trkpt lat="32.256109" lon="-3.140748">
   <ele>996.00</ele>
   <time>2014-04-01T13:22:20Z</time>
  </trkpt>
  <trkpt lat="32.256148" lon="-3.140466">
   <ele>995.00</ele>
   <time>2014-04-01T13:22:23Z</time>
  </trkpt>
  <trkpt lat="32.256250" lon="-3.139848">
   <ele>995.00</ele>
   <time>2014-04-01T13:22:29Z</time>
  </trkpt>
  <trkpt lat="32.256286" lon="-3.139540">
   <ele>995.00</ele>
   <time>2014-04-01T13:22:32Z</time>
  </trkpt>
  <trkpt lat="32.256339" lon="-3.139234">
   <ele>996.00</ele>
   <time>2014-04-01T13:22:35Z</time>
  </trkpt>
  <trkpt lat="32.256392" lon="-3.139026">
   <ele>995.00</ele>
   <time>2014-04-01T13:22:37Z</time>
  </trkpt>
  <trkpt lat="32.256459" lon="-3.138824">
   <ele>995.00</ele>
   <time>2014-04-01T13:22:39Z</time>
  </trkpt>
  <trkpt lat="32.256587" lon="-3.138551">
   <ele>994.00</ele>
   <time>2014-04-01T13:22:42Z</time>
  </trkpt>
  <trkpt lat="32.256729" lon="-3.138305">
   <ele>994.00</ele>
   <time>2014-04-01T13:22:45Z</time>
  </trkpt>
  <trkpt lat="32.256832" lon="-3.138008">
   <ele>994.00</ele>
   <time>2014-04-01T13:22:48Z</time>
  </trkpt>
  <trkpt lat="32.256902" lon="-3.137805">
   <ele>995.00</ele>
   <time>2014-04-01T13:22:50Z</time>
  </trkpt>
  <trkpt lat="32.257119" lon="-3.137258">
   <ele>995.00</ele>
   <time>2014-04-01T13:22:56Z</time>
  </trkpt>
  <trkpt lat="32.257180" lon="-3.137034">
   <ele>995.00</ele>
   <time>2014-04-01T13:22:59Z</time>
  </trkpt>
  <trkpt lat="32.257282" lon="-3.136823">
   <ele>994.00</ele>
   <time>2014-04-01T13:23:02Z</time>
  </trkpt>
  <trkpt lat="32.257398" lon="-3.136600">
   <ele>994.00</ele>
   <time>2014-04-01T13:23:05Z</time>
  </trkpt>
  <trkpt lat="32.258026" lon="-3.135324">
   <ele>996.00</ele>
   <time>2014-04-01T13:23:20Z</time>
  </trkpt>
  <trkpt lat="32.258165" lon="-3.135078">
   <ele>996.00</ele>
   <time>2014-04-01T13:23:23Z</time>
  </trkpt>
  <trkpt lat="32.258310" lon="-3.134826">
   <ele>996.00</ele>
   <time>2014-04-01T13:23:26Z</time>
  </trkpt>
  <trkpt lat="32.258482" lon="-3.134570">
   <ele>995.00</ele>
   <time>2014-04-01T13:23:29Z</time>
  </trkpt>
  <trkpt lat="32.259000" lon="-3.133904">
   <ele>994.00</ele>
   <time>2014-04-01T13:23:37Z</time>
  </trkpt>
  <trkpt lat="32.259492" lon="-3.133317">
   <ele>992.00</ele>
   <time>2014-04-01T13:23:45Z</time>
  </trkpt>
  <trkpt lat="32.259698" lon="-3.133106">
   <ele>992.00</ele>
   <time>2014-04-01T13:23:48Z</time>
  </trkpt>
  <trkpt lat="32.259846" lon="-3.132956">
   <ele>992.00</ele>
   <time>2014-04-01T13:23:50Z</time>
  </trkpt>
  <trkpt lat="32.260057" lon="-3.132730">
   <ele>991.00</ele>
   <time>2014-04-01T13:23:53Z</time>
  </trkpt>
  <trkpt lat="32.260268" lon="-3.132546">
   <ele>991.00</ele>
   <time>2014-04-01T13:23:56Z</time>
  </trkpt>
  <trkpt lat="32.260472" lon="-3.132422">
   <ele>990.00</ele>
   <time>2014-04-01T13:23:59Z</time>
  </trkpt>
  <trkpt lat="32.260670" lon="-3.132376">
   <ele>988.00</ele>
   <time>2014-04-01T13:24:02Z</time>
  </trkpt>
  <trkpt lat="32.260827" lon="-3.132269">
   <ele>988.00</ele>
   <time>2014-04-01T13:24:05Z</time>
  </trkpt>
  <trkpt lat="32.260982" lon="-3.132151">
   <ele>987.00</ele>
   <time>2014-04-01T13:24:08Z</time>
  </trkpt>
  <trkpt lat="32.261133" lon="-3.132022">
   <ele>987.00</ele>
   <time>2014-04-01T13:24:11Z</time>
  </trkpt>
  <trkpt lat="32.261287" lon="-3.131856">
   <ele>986.00</ele>
   <time>2014-04-01T13:24:15Z</time>
  </trkpt>
  <trkpt lat="32.261359" lon="-3.131645">
   <ele>987.00</ele>
   <time>2014-04-01T13:24:20Z</time>
  </trkpt>
  <trkpt lat="32.261483" lon="-3.131472">
   <ele>988.00</ele>
   <time>2014-04-01T13:24:25Z</time>
  </trkpt>
  <trkpt lat="32.261663" lon="-3.131345">
   <ele>988.00</ele>
   <time>2014-04-01T13:24:29Z</time>
  </trkpt>
  <trkpt lat="32.261851" lon="-3.131309">
   <ele>986.00</ele>
   <time>2014-04-01T13:24:32Z</time>
  </trkpt>
  <trkpt lat="32.262128" lon="-3.131266">
   <ele>986.00</ele>
   <time>2014-04-01T13:24:36Z</time>
  </trkpt>
  <trkpt lat="32.262338" lon="-3.131273">
   <ele>986.00</ele>
   <time>2014-04-01T13:24:39Z</time>
  </trkpt>
  <trkpt lat="32.262553" lon="-3.131268">
   <ele>985.00</ele>
   <time>2014-04-01T13:24:42Z</time>
  </trkpt>
  <trkpt lat="32.262785" lon="-3.131185">
   <ele>986.00</ele>
   <time>2014-04-01T13:24:45Z</time>
  </trkpt>
  <trkpt lat="32.263009" lon="-3.131043">
   <ele>986.00</ele>
   <time>2014-04-01T13:24:48Z</time>
  </trkpt>
  <trkpt lat="32.263234" lon="-3.130898">
   <ele>985.00</ele>
   <time>2014-04-01T13:24:51Z</time>
  </trkpt>
  <trkpt lat="32.263478" lon="-3.130799">
   <ele>985.00</ele>
   <time>2014-04-01T13:24:54Z</time>
  </trkpt>
  <trkpt lat="32.263713" lon="-3.130670">
   <ele>985.00</ele>
   <time>2014-04-01T13:24:57Z</time>
  </trkpt>
  <trkpt lat="32.264028" lon="-3.130468">
   <ele>985.00</ele>
   <time>2014-04-01T13:25:01Z</time>
  </trkpt>
  <trkpt lat="32.264200" lon="-3.130392">
   <ele>985.00</ele>
   <time>2014-04-01T13:25:03Z</time>
  </trkpt>
  <trkpt lat="32.264748" lon="-3.130194">
   <ele>985.00</ele>
   <time>2014-04-01T13:25:09Z</time>
  </trkpt>
  <trkpt lat="32.264934" lon="-3.130093">
   <ele>985.00</ele>
   <time>2014-04-01T13:25:11Z</time>
  </trkpt>
  <trkpt lat="32.265196" lon="-3.129937">
   <ele>986.00</ele>
   <time>2014-04-01T13:25:14Z</time>
  </trkpt>
  <trkpt lat="32.265603" lon="-3.129660">
   <ele>986.00</ele>
   <time>2014-04-01T13:25:19Z</time>
  </trkpt>
  <trkpt lat="32.265967" lon="-3.129473">
   <ele>986.00</ele>
   <time>2014-04-01T13:25:23Z</time>
  </trkpt>
  <trkpt lat="32.266158" lon="-3.129390">
   <ele>986.00</ele>
   <time>2014-04-01T13:25:25Z</time>
  </trkpt>
  <trkpt lat="32.266360" lon="-3.129331">
   <ele>986.00</ele>
   <time>2014-04-01T13:25:27Z</time>
  </trkpt>
  <trkpt lat="32.266565" lon="-3.129296">
   <ele>986.00</ele>
   <time>2014-04-01T13:25:29Z</time>
  </trkpt>
  <trkpt lat="32.266863" lon="-3.129256">
   <ele>986.00</ele>
   <time>2014-04-01T13:25:32Z</time>
  </trkpt>
  <trkpt lat="32.267148" lon="-3.129191">
   <ele>985.00</ele>
   <time>2014-04-01T13:25:35Z</time>
  </trkpt>
  <trkpt lat="32.267330" lon="-3.129127">
   <ele>985.00</ele>
   <time>2014-04-01T13:25:37Z</time>
  </trkpt>
  <trkpt lat="32.267513" lon="-3.129068">
   <ele>986.00</ele>
   <time>2014-04-01T13:25:39Z</time>
  </trkpt>
  <trkpt lat="32.267702" lon="-3.129030">
   <ele>986.00</ele>
   <time>2014-04-01T13:25:41Z</time>
  </trkpt>
  <trkpt lat="32.267886" lon="-3.129013">
   <ele>985.00</ele>
   <time>2014-04-01T13:25:43Z</time>
  </trkpt>
  <trkpt lat="32.268137" lon="-3.129073">
   <ele>986.00</ele>
   <time>2014-04-01T13:25:46Z</time>
  </trkpt>
  <trkpt lat="32.268349" lon="-3.129243">
   <ele>986.00</ele>
   <time>2014-04-01T13:25:49Z</time>
  </trkpt>
  <trkpt lat="32.268525" lon="-3.129475">
   <ele>986.00</ele>
   <time>2014-04-01T13:25:52Z</time>
  </trkpt>
  <trkpt lat="32.268696" lon="-3.129718">
   <ele>986.00</ele>
   <time>2014-04-01T13:25:55Z</time>
  </trkpt>
  <trkpt lat="32.268837" lon="-3.129866">
   <ele>986.00</ele>
   <time>2014-04-01T13:25:57Z</time>
  </trkpt>
  <trkpt lat="32.268991" lon="-3.129988">
   <ele>986.00</ele>
   <time>2014-04-01T13:25:59Z</time>
  </trkpt>
  <trkpt lat="32.269224" lon="-3.130101">
   <ele>987.00</ele>
   <time>2014-04-01T13:26:02Z</time>
  </trkpt>
  <trkpt lat="32.269423" lon="-3.130177">
   <ele>987.00</ele>
   <time>2014-04-01T13:26:06Z</time>
  </trkpt>
  <trkpt lat="32.269631" lon="-3.130151">
   <ele>987.00</ele>
   <time>2014-04-01T13:26:10Z</time>
  </trkpt>
  <trkpt lat="32.269820" lon="-3.130116">
   <ele>986.00</ele>
   <time>2014-04-01T13:26:13Z</time>
  </trkpt>
  <trkpt lat="32.270046" lon="-3.130136">
   <ele>986.00</ele>
   <time>2014-04-01T13:26:17Z</time>
  </trkpt>
  <trkpt lat="32.270254" lon="-3.130162">
   <ele>986.00</ele>
   <time>2014-04-01T13:26:21Z</time>
  </trkpt>
  <trkpt lat="32.270437" lon="-3.130196">
   <ele>987.00</ele>
   <time>2014-04-01T13:26:24Z</time>
  </trkpt>
  <trkpt lat="32.270711" lon="-3.130263">
   <ele>987.00</ele>
   <time>2014-04-01T13:26:28Z</time>
  </trkpt>
  <trkpt lat="32.270917" lon="-3.130361">
   <ele>988.00</ele>
   <time>2014-04-01T13:26:31Z</time>
  </trkpt>
  <trkpt lat="32.271129" lon="-3.130469">
   <ele>988.00</ele>
   <time>2014-04-01T13:26:34Z</time>
  </trkpt>
  <trkpt lat="32.271349" lon="-3.130486">
   <ele>988.00</ele>
   <time>2014-04-01T13:26:37Z</time>
  </trkpt>
  <trkpt lat="32.271551" lon="-3.130346">
   <ele>988.00</ele>
   <time>2014-04-01T13:26:40Z</time>
  </trkpt>
  <trkpt lat="32.271744" lon="-3.130162">
   <ele>988.00</ele>
   <time>2014-04-01T13:26:43Z</time>
  </trkpt>
  <trkpt lat="32.271964" lon="-3.129989">
   <ele>988.00</ele>
   <time>2014-04-01T13:26:46Z</time>
  </trkpt>
  <trkpt lat="32.272105" lon="-3.129831">
   <ele>988.00</ele>
   <time>2014-04-01T13:26:48Z</time>
  </trkpt>
  <trkpt lat="32.272255" lon="-3.129661">
   <ele>988.00</ele>
   <time>2014-04-01T13:26:50Z</time>
  </trkpt>
  <trkpt lat="32.272409" lon="-3.129500">
   <ele>988.00</ele>
   <time>2014-04-01T13:26:52Z</time>
  </trkpt>
  <trkpt lat="32.272573" lon="-3.129364">
   <ele>988.00</ele>
   <time>2014-04-01T13:26:54Z</time>
  </trkpt>
  <trkpt lat="32.272757" lon="-3.129262">
   <ele>988.00</ele>
   <time>2014-04-01T13:26:56Z</time>
  </trkpt>
  <trkpt lat="32.272962" lon="-3.129195">
   <ele>988.00</ele>
   <time>2014-04-01T13:26:58Z</time>
  </trkpt>
  <trkpt lat="32.273274" lon="-3.129098">
   <ele>989.00</ele>
   <time>2014-04-01T13:27:01Z</time>
  </trkpt>
  <trkpt lat="32.273466" lon="-3.129028">
   <ele>989.00</ele>
   <time>2014-04-01T13:27:03Z</time>
  </trkpt>
  <trkpt lat="32.273737" lon="-3.128934">
   <ele>990.00</ele>
   <time>2014-04-01T13:27:06Z</time>
  </trkpt>
  <trkpt lat="32.273993" lon="-3.128923">
   <ele>989.00</ele>
   <time>2014-04-01T13:27:09Z</time>
  </trkpt>
  <trkpt lat="32.274239" lon="-3.128957">
   <ele>989.00</ele>
   <time>2014-04-01T13:27:12Z</time>
  </trkpt>
  <trkpt lat="32.274542" lon="-3.129091">
   <ele>989.00</ele>
   <time>2014-04-01T13:27:16Z</time>
  </trkpt>
  <trkpt lat="32.274816" lon="-3.129231">
   <ele>990.00</ele>
   <time>2014-04-01T13:27:20Z</time>
  </trkpt>
  <trkpt lat="32.275027" lon="-3.129248">
   <ele>990.00</ele>
   <time>2014-04-01T13:27:23Z</time>
  </trkpt>
  <trkpt lat="32.275213" lon="-3.129176">
   <ele>989.00</ele>
   <time>2014-04-01T13:27:27Z</time>
  </trkpt>
  <trkpt lat="32.275351" lon="-3.129025">
   <ele>989.00</ele>
   <time>2014-04-01T13:27:31Z</time>
  </trkpt>
  <trkpt lat="32.275489" lon="-3.128803">
   <ele>989.00</ele>
   <time>2014-04-01T13:27:35Z</time>
  </trkpt>
  <trkpt lat="32.275583" lon="-3.128620">
   <ele>990.00</ele>
   <time>2014-04-01T13:27:38Z</time>
  </trkpt>
  <trkpt lat="32.275712" lon="-3.128450">
   <ele>989.00</ele>
   <time>2014-04-01T13:27:41Z</time>
  </trkpt>
  <trkpt lat="32.275852" lon="-3.128221">
   <ele>989.00</ele>
   <time>2014-04-01T13:27:45Z</time>
  </trkpt>
  <trkpt lat="32.275995" lon="-3.127977">
   <ele>989.00</ele>
   <time>2014-04-01T13:27:49Z</time>
  </trkpt>
  <trkpt lat="32.276128" lon="-3.127730">
   <ele>990.00</ele>
   <time>2014-04-01T13:27:53Z</time>
  </trkpt>
  <trkpt lat="32.276289" lon="-3.127587">
   <ele>990.00</ele>
   <time>2014-04-01T13:27:56Z</time>
  </trkpt>
  <trkpt lat="32.276450" lon="-3.127441">
   <ele>991.00</ele>
   <time>2014-04-01T13:27:59Z</time>
  </trkpt>
  <trkpt lat="32.276607" lon="-3.127288">
   <ele>991.00</ele>
   <time>2014-04-01T13:28:02Z</time>
  </trkpt>
  <trkpt lat="32.276756" lon="-3.127117">
   <ele>991.00</ele>
   <time>2014-04-01T13:28:05Z</time>
  </trkpt>
  <trkpt lat="32.276900" lon="-3.126954">
   <ele>991.00</ele>
   <time>2014-04-01T13:28:08Z</time>
  </trkpt>
  <trkpt lat="32.277074" lon="-3.126840">
   <ele>991.00</ele>
   <time>2014-04-01T13:28:11Z</time>
  </trkpt>
  <trkpt lat="32.277248" lon="-3.126715">
   <ele>990.00</ele>
   <time>2014-04-01T13:28:14Z</time>
  </trkpt>
  <trkpt lat="32.277708" lon="-3.126347">
   <ele>989.00</ele>
   <time>2014-04-01T13:28:22Z</time>
  </trkpt>
  <trkpt lat="32.277900" lon="-3.126284">
   <ele>988.00</ele>
   <time>2014-04-01T13:28:25Z</time>
  </trkpt>
  <trkpt lat="32.278104" lon="-3.126264">
   <ele>988.00</ele>
   <time>2014-04-01T13:28:28Z</time>
  </trkpt>
  <trkpt lat="32.278302" lon="-3.126204">
   <ele>987.00</ele>
   <time>2014-04-01T13:28:31Z</time>
  </trkpt>
  <trkpt lat="32.278510" lon="-3.126214">
   <ele>987.00</ele>
   <time>2014-04-01T13:28:34Z</time>
  </trkpt>
  <trkpt lat="32.278707" lon="-3.126250">
   <ele>988.00</ele>
   <time>2014-04-01T13:28:37Z</time>
  </trkpt>
  <trkpt lat="32.278937" lon="-3.126177">
   <ele>988.00</ele>
   <time>2014-04-01T13:28:41Z</time>
  </trkpt>
  <trkpt lat="32.279120" lon="-3.126013">
   <ele>988.00</ele>
   <time>2014-04-01T13:28:45Z</time>
  </trkpt>
  <trkpt lat="32.279201" lon="-3.125801">
   <ele>989.00</ele>
   <time>2014-04-01T13:28:48Z</time>
  </trkpt>
  <trkpt lat="32.279345" lon="-3.125633">
   <ele>990.00</ele>
   <time>2014-04-01T13:28:51Z</time>
  </trkpt>
  <trkpt lat="32.279570" lon="-3.125624">
   <ele>990.00</ele>
   <time>2014-04-01T13:28:54Z</time>
  </trkpt>
  <trkpt lat="32.279809" lon="-3.125642">
   <ele>990.00</ele>
   <time>2014-04-01T13:28:57Z</time>
  </trkpt>
  <trkpt lat="32.280037" lon="-3.125645">
   <ele>990.00</ele>
   <time>2014-04-01T13:29:00Z</time>
  </trkpt>
  <trkpt lat="32.280257" lon="-3.125697">
   <ele>990.00</ele>
   <time>2014-04-01T13:29:03Z</time>
  </trkpt>
  <trkpt lat="32.280861" lon="-3.125971">
   <ele>990.00</ele>
   <time>2014-04-01T13:29:11Z</time>
  </trkpt>
  <trkpt lat="32.281081" lon="-3.126096">
   <ele>990.00</ele>
   <time>2014-04-01T13:29:14Z</time>
  </trkpt>
  <trkpt lat="32.281384" lon="-3.126281">
   <ele>991.00</ele>
   <time>2014-04-01T13:29:18Z</time>
  </trkpt>
  <trkpt lat="32.281589" lon="-3.126463">
   <ele>991.00</ele>
   <time>2014-04-01T13:29:21Z</time>
  </trkpt>
  <trkpt lat="32.281807" lon="-3.126625">
   <ele>991.00</ele>
   <time>2014-04-01T13:29:24Z</time>
  </trkpt>
  <trkpt lat="32.282059" lon="-3.126695">
   <ele>991.00</ele>
   <time>2014-04-01T13:29:27Z</time>
  </trkpt>
  <trkpt lat="32.282664" lon="-3.126764">
   <ele>990.00</ele>
   <time>2014-04-01T13:29:34Z</time>
  </trkpt>
  <trkpt lat="32.282845" lon="-3.126776">
   <ele>991.00</ele>
   <time>2014-04-01T13:29:37Z</time>
  </trkpt>
  <trkpt lat="32.283067" lon="-3.126813">
   <ele>991.00</ele>
   <time>2014-04-01T13:29:41Z</time>
  </trkpt>
  <trkpt lat="32.283274" lon="-3.126913">
   <ele>991.00</ele>
   <time>2014-04-01T13:29:44Z</time>
  </trkpt>
  <trkpt lat="32.283511" lon="-3.126973">
   <ele>991.00</ele>
   <time>2014-04-01T13:29:47Z</time>
  </trkpt>
  <trkpt lat="32.283750" lon="-3.127041">
   <ele>992.00</ele>
   <time>2014-04-01T13:29:50Z</time>
  </trkpt>
  <trkpt lat="32.283940" lon="-3.127093">
   <ele>992.00</ele>
   <time>2014-04-01T13:29:53Z</time>
  </trkpt>
  <trkpt lat="32.284116" lon="-3.127019">
   <ele>991.00</ele>
   <time>2014-04-01T13:29:58Z</time>
  </trkpt>
  <trkpt lat="32.284326" lon="-3.126982">
   <ele>992.00</ele>
   <time>2014-04-01T13:30:06Z</time>
  </trkpt>
  <trkpt lat="32.284580" lon="-3.126969">
   <ele>993.00</ele>
   <time>2014-04-01T13:30:11Z</time>
  </trkpt>
  <trkpt lat="32.284760" lon="-3.126993">
   <ele>993.00</ele>
   <time>2014-04-01T13:30:14Z</time>
  </trkpt>
  <trkpt lat="32.284998" lon="-3.127003">
   <ele>992.00</ele>
   <time>2014-04-01T13:30:18Z</time>
  </trkpt>
  <trkpt lat="32.285177" lon="-3.126926">
   <ele>992.00</ele>
   <time>2014-04-01T13:30:21Z</time>
  </trkpt>
  <trkpt lat="32.285343" lon="-3.126793">
   <ele>992.00</ele>
   <time>2014-04-01T13:30:24Z</time>
  </trkpt>
  <trkpt lat="32.285540" lon="-3.126715">
   <ele>992.00</ele>
   <time>2014-04-01T13:30:27Z</time>
  </trkpt>
  <trkpt lat="32.285736" lon="-3.126644">
   <ele>992.00</ele>
   <time>2014-04-01T13:30:30Z</time>
  </trkpt>
  <trkpt lat="32.285882" lon="-3.126490">
   <ele>992.00</ele>
   <time>2014-04-01T13:30:33Z</time>
  </trkpt>
  <trkpt lat="32.286013" lon="-3.126306">
   <ele>993.00</ele>
   <time>2014-04-01T13:30:36Z</time>
  </trkpt>
  <trkpt lat="32.286193" lon="-3.126261">
   <ele>994.00</ele>
   <time>2014-04-01T13:30:39Z</time>
  </trkpt>
  <trkpt lat="32.286382" lon="-3.126203">
   <ele>994.00</ele>
   <time>2014-04-01T13:30:42Z</time>
  </trkpt>
  <trkpt lat="32.286721" lon="-3.125949">
   <ele>993.00</ele>
   <time>2014-04-01T13:30:47Z</time>
  </trkpt>
  <trkpt lat="32.286965" lon="-3.125845">
   <ele>993.00</ele>
   <time>2014-04-01T13:30:50Z</time>
  </trkpt>
  <trkpt lat="32.287224" lon="-3.125765">
   <ele>993.00</ele>
   <time>2014-04-01T13:30:53Z</time>
  </trkpt>
  <trkpt lat="32.287401" lon="-3.125712">
   <ele>993.00</ele>
   <time>2014-04-01T13:30:55Z</time>
  </trkpt>
  <trkpt lat="32.287666" lon="-3.125668">
   <ele>993.00</ele>
   <time>2014-04-01T13:30:58Z</time>
  </trkpt>
  <trkpt lat="32.287916" lon="-3.125586">
   <ele>992.00</ele>
   <time>2014-04-01T13:31:01Z</time>
  </trkpt>
  <trkpt lat="32.288272" lon="-3.125413">
   <ele>992.00</ele>
   <time>2014-04-01T13:31:05Z</time>
  </trkpt>
  <trkpt lat="32.288617" lon="-3.125254">
   <ele>992.00</ele>
   <time>2014-04-01T13:31:09Z</time>
  </trkpt>
  <trkpt lat="32.288839" lon="-3.125137">
   <ele>991.00</ele>
   <time>2014-04-01T13:31:12Z</time>
  </trkpt>
  <trkpt lat="32.289041" lon="-3.125104">
   <ele>991.00</ele>
   <time>2014-04-01T13:31:15Z</time>
  </trkpt>
  <trkpt lat="32.289251" lon="-3.125109">
   <ele>990.00</ele>
   <time>2014-04-01T13:31:19Z</time>
  </trkpt>
  <trkpt lat="32.289468" lon="-3.125014">
   <ele>990.00</ele>
   <time>2014-04-01T13:31:23Z</time>
  </trkpt>
  <trkpt lat="32.289680" lon="-3.124924">
   <ele>991.00</ele>
   <time>2014-04-01T13:31:26Z</time>
  </trkpt>
  <trkpt lat="32.289916" lon="-3.124876">
   <ele>991.00</ele>
   <time>2014-04-01T13:31:29Z</time>
  </trkpt>
  <trkpt lat="32.290161" lon="-3.124854">
   <ele>992.00</ele>
   <time>2014-04-01T13:31:32Z</time>
  </trkpt>
  <trkpt lat="32.290411" lon="-3.124798">
   <ele>993.00</ele>
   <time>2014-04-01T13:31:35Z</time>
  </trkpt>
  <trkpt lat="32.290617" lon="-3.124664">
   <ele>993.00</ele>
   <time>2014-04-01T13:31:38Z</time>
  </trkpt>
  <trkpt lat="32.291119" lon="-3.124335">
   <ele>992.00</ele>
   <time>2014-04-01T13:31:45Z</time>
  </trkpt>
  <trkpt lat="32.291421" lon="-3.124121">
   <ele>993.00</ele>
   <time>2014-04-01T13:31:50Z</time>
  </trkpt>
  <trkpt lat="32.291604" lon="-3.124029">
   <ele>994.00</ele>
   <time>2014-04-01T13:31:53Z</time>
  </trkpt>
  <trkpt lat="32.291833" lon="-3.123984">
   <ele>995.00</ele>
   <time>2014-04-01T13:31:56Z</time>
  </trkpt>
  <trkpt lat="32.292094" lon="-3.123930">
   <ele>996.00</ele>
   <time>2014-04-01T13:31:59Z</time>
  </trkpt>
  <trkpt lat="32.292270" lon="-3.123873">
   <ele>996.00</ele>
   <time>2014-04-01T13:32:01Z</time>
  </trkpt>
  <trkpt lat="32.292523" lon="-3.123788">
   <ele>996.00</ele>
   <time>2014-04-01T13:32:04Z</time>
  </trkpt>
  <trkpt lat="32.292830" lon="-3.123697">
   <ele>996.00</ele>
   <time>2014-04-01T13:32:08Z</time>
  </trkpt>
  <trkpt lat="32.293057" lon="-3.123606">
   <ele>995.00</ele>
   <time>2014-04-01T13:32:11Z</time>
  </trkpt>
  <trkpt lat="32.293271" lon="-3.123523">
   <ele>995.00</ele>
   <time>2014-04-01T13:32:14Z</time>
  </trkpt>
  <trkpt lat="32.293458" lon="-3.123457">
   <ele>996.00</ele>
   <time>2014-04-01T13:32:17Z</time>
  </trkpt>
  <trkpt lat="32.293617" lon="-3.123351">
   <ele>995.00</ele>
   <time>2014-04-01T13:32:20Z</time>
  </trkpt>
  <trkpt lat="32.293791" lon="-3.123261">
   <ele>995.00</ele>
   <time>2014-04-01T13:32:23Z</time>
  </trkpt>
  <trkpt lat="32.293988" lon="-3.123212">
   <ele>996.00</ele>
   <time>2014-04-01T13:32:26Z</time>
  </trkpt>
  <trkpt lat="32.294241" lon="-3.123171">
   <ele>995.00</ele>
   <time>2014-04-01T13:32:30Z</time>
  </trkpt>
  <trkpt lat="32.294453" lon="-3.123174">
   <ele>996.00</ele>
   <time>2014-04-01T13:32:34Z</time>
  </trkpt>
  <trkpt lat="32.294644" lon="-3.123128">
   <ele>996.00</ele>
   <time>2014-04-01T13:32:39Z</time>
  </trkpt>
  <trkpt lat="32.294852" lon="-3.123029">
   <ele>997.00</ele>
   <time>2014-04-01T13:32:44Z</time>
  </trkpt>
  <trkpt lat="32.295022" lon="-3.122885">
   <ele>996.00</ele>
   <time>2014-04-01T13:32:49Z</time>
  </trkpt>
  <trkpt lat="32.295242" lon="-3.122530">
   <ele>999.00</ele>
   <time>2014-04-01T13:32:57Z</time>
  </trkpt>
  <trkpt lat="32.295406" lon="-3.122239">
   <ele>1001.00</ele>
   <time>2014-04-01T13:33:02Z</time>
  </trkpt>
  <trkpt lat="32.295534" lon="-3.122055">
   <ele>1001.00</ele>
   <time>2014-04-01T13:33:05Z</time>
  </trkpt>
  <trkpt lat="32.295745" lon="-3.121791">
   <ele>1001.00</ele>
   <time>2014-04-01T13:33:09Z</time>
  </trkpt>
  <trkpt lat="32.296142" lon="-3.121339">
   <ele>1000.00</ele>
   <time>2014-04-01T13:33:16Z</time>
  </trkpt>
  <trkpt lat="32.296314" lon="-3.121187">
   <ele>999.00</ele>
   <time>2014-04-01T13:33:19Z</time>
  </trkpt>
  <trkpt lat="32.296492" lon="-3.121061">
   <ele>997.00</ele>
   <time>2014-04-01T13:33:22Z</time>
  </trkpt>
  <trkpt lat="32.296654" lon="-3.120916">
   <ele>996.00</ele>
   <time>2014-04-01T13:33:26Z</time>
  </trkpt>
  <trkpt lat="32.296712" lon="-3.120726">
   <ele>995.00</ele>
   <time>2014-04-01T13:33:31Z</time>
  </trkpt>
  <trkpt lat="32.296850" lon="-3.120571">
   <ele>995.00</ele>
   <time>2014-04-01T13:33:36Z</time>
  </trkpt>
  <trkpt lat="32.297033" lon="-3.120461">
   <ele>995.00</ele>
   <time>2014-04-01T13:33:41Z</time>
  </trkpt>
  <trkpt lat="32.297160" lon="-3.120254">
   <ele>996.00</ele>
   <time>2014-04-01T13:33:45Z</time>
  </trkpt>
  <trkpt lat="32.297292" lon="-3.120077">
   <ele>996.00</ele>
   <time>2014-04-01T13:33:48Z</time>
  </trkpt>
  <trkpt lat="32.297457" lon="-3.119914">
   <ele>995.00</ele>
   <time>2014-04-01T13:33:51Z</time>
  </trkpt>
  <trkpt lat="32.297769" lon="-3.119615">
   <ele>995.00</ele>
   <time>2014-04-01T13:33:57Z</time>
  </trkpt>
  <trkpt lat="32.297914" lon="-3.119475">
   <ele>994.00</ele>
   <time>2014-04-01T13:34:00Z</time>
  </trkpt>
  <trkpt lat="32.298088" lon="-3.119362">
   <ele>994.00</ele>
   <time>2014-04-01T13:34:03Z</time>
  </trkpt>
  <trkpt lat="32.298284" lon="-3.119296">
   <ele>994.00</ele>
   <time>2014-04-01T13:34:06Z</time>
  </trkpt>
  <trkpt lat="32.298963" lon="-3.119143">
   <ele>995.00</ele>
   <time>2014-04-01T13:34:15Z</time>
  </trkpt>
  <trkpt lat="32.299169" lon="-3.119153">
   <ele>995.00</ele>
   <time>2014-04-01T13:34:18Z</time>
  </trkpt>
  <trkpt lat="32.299377" lon="-3.119174">
   <ele>995.00</ele>
   <time>2014-04-01T13:34:21Z</time>
  </trkpt>
  <trkpt lat="32.299581" lon="-3.119189">
   <ele>996.00</ele>
   <time>2014-04-01T13:34:24Z</time>
  </trkpt>
  <trkpt lat="32.299762" lon="-3.119238">
   <ele>996.00</ele>
   <time>2014-04-01T13:34:27Z</time>
  </trkpt>
  <trkpt lat="32.299985" lon="-3.119297">
   <ele>996.00</ele>
   <time>2014-04-01T13:34:31Z</time>
  </trkpt>
  <trkpt lat="32.300191" lon="-3.119260">
   <ele>997.00</ele>
   <time>2014-04-01T13:34:35Z</time>
  </trkpt>
  <trkpt lat="32.300413" lon="-3.119270">
   <ele>998.00</ele>
   <time>2014-04-01T13:34:39Z</time>
  </trkpt>
  <trkpt lat="32.300622" lon="-3.119320">
   <ele>1000.00</ele>
   <time>2014-04-01T13:34:43Z</time>
  </trkpt>
  <trkpt lat="32.300815" lon="-3.119348">
   <ele>1001.00</ele>
   <time>2014-04-01T13:34:47Z</time>
  </trkpt>
  <trkpt lat="32.301006" lon="-3.119419">
   <ele>1002.00</ele>
   <time>2014-04-01T13:34:51Z</time>
  </trkpt>
  <trkpt lat="32.301249" lon="-3.119515">
   <ele>1002.00</ele>
   <time>2014-04-01T13:34:56Z</time>
  </trkpt>
  <trkpt lat="32.301417" lon="-3.119629">
   <ele>1002.00</ele>
   <time>2014-04-01T13:35:00Z</time>
  </trkpt>
  <trkpt lat="32.301546" lon="-3.119822">
   <ele>1001.00</ele>
   <time>2014-04-01T13:35:05Z</time>
  </trkpt>
  <trkpt lat="32.301676" lon="-3.119961">
   <ele>1001.00</ele>
   <time>2014-04-01T13:35:10Z</time>
  </trkpt>
  <trkpt lat="32.301859" lon="-3.120052">
   <ele>1002.00</ele>
   <time>2014-04-01T13:35:15Z</time>
  </trkpt>
  <trkpt lat="32.301949" lon="-3.120275">
   <ele>1003.00</ele>
   <time>2014-04-01T13:35:20Z</time>
  </trkpt>
  <trkpt lat="32.302005" lon="-3.120527">
   <ele>1003.00</ele>
   <time>2014-04-01T13:35:25Z</time>
  </trkpt>
  <trkpt lat="32.302081" lon="-3.120777">
   <ele>1003.00</ele>
   <time>2014-04-01T13:35:30Z</time>
  </trkpt>
  <trkpt lat="32.302153" lon="-3.120972">
   <ele>1004.00</ele>
   <time>2014-04-01T13:35:34Z</time>
  </trkpt>
  <trkpt lat="32.302234" lon="-3.121219">
   <ele>1004.00</ele>
   <time>2014-04-01T13:35:39Z</time>
  </trkpt>
  <trkpt lat="32.302345" lon="-3.121416">
   <ele>1005.00</ele>
   <time>2014-04-01T13:35:44Z</time>
  </trkpt>
  <trkpt lat="32.302207" lon="-3.121502">
   <ele>1007.00</ele>
   <time>2014-04-01T13:35:51Z</time>
  </trkpt>
  <trkpt lat="32.302029" lon="-3.121563">
   <ele>1006.00</ele>
   <time>2014-04-01T13:35:56Z</time>
  </trkpt>
  <trkpt lat="32.301859" lon="-3.121583">
   <ele>1006.00</ele>
   <time>2014-04-01T13:36:02Z</time>
  </trkpt>
  <trkpt lat="32.301879" lon="-3.121357">
   <ele>1007.00</ele>
   <time>2014-04-01T13:36:08Z</time>
  </trkpt>
  <trkpt lat="32.301894" lon="-3.121106">
   <ele>1007.00</ele>
   <time>2014-04-01T13:36:13Z</time>
  </trkpt>
  <trkpt lat="32.301950" lon="-3.120858">
   <ele>1008.00</ele>
   <time>2014-04-01T13:36:18Z</time>
  </trkpt>
  <trkpt lat="32.302041" lon="-3.120602">
   <ele>1007.00</ele>
   <time>2014-04-01T13:36:24Z</time>
  </trkpt>
  <trkpt lat="32.302098" lon="-3.120388">
   <ele>1007.00</ele>
   <time>2014-04-01T13:36:29Z</time>
  </trkpt>
  <trkpt lat="32.302209" lon="-3.120187">
   <ele>1006.00</ele>
   <time>2014-04-01T13:36:34Z</time>
  </trkpt>
  <trkpt lat="32.302365" lon="-3.120010">
   <ele>1006.00</ele>
   <time>2014-04-01T13:36:40Z</time>
  </trkpt>
  <trkpt lat="32.302311" lon="-3.119823">
   <ele>1006.00</ele>
   <time>2014-04-01T13:36:55Z</time>
  </trkpt>
  <trkpt lat="32.302311" lon="-3.119823">
   <ele>1007.00</ele>
   <time>2014-04-01T13:36:57Z</time>
  </trkpt>
 </trkseg>
 <trkseg>
  <trkpt lat="32.302594" lon="-3.119694">
   <ele>1005.00</ele>
   <time>2014-04-01T14:28:21Z</time>
  </trkpt>
  <trkpt lat="32.302415" lon="-3.119624">
   <ele>1004.00</ele>
   <time>2014-04-01T14:28:35Z</time>
  </trkpt>
  <trkpt lat="32.302247" lon="-3.119469">
   <ele>1004.00</ele>
   <time>2014-04-01T14:28:41Z</time>
  </trkpt>
  <trkpt lat="32.302092" lon="-3.119298">
   <ele>1004.00</ele>
   <time>2014-04-01T14:28:46Z</time>
  </trkpt>
  <trkpt lat="32.301909" lon="-3.119207">
   <ele>1003.00</ele>
   <time>2014-04-01T14:28:50Z</time>
  </trkpt>
  <trkpt lat="32.301703" lon="-3.119163">
   <ele>1003.00</ele>
   <time>2014-04-01T14:28:54Z</time>
  </trkpt>
  <trkpt lat="32.301487" lon="-3.119139">
   <ele>1002.00</ele>
   <time>2014-04-01T14:28:58Z</time>
  </trkpt>
  <trkpt lat="32.301266" lon="-3.119180">
   <ele>1002.00</ele>
   <time>2014-04-01T14:29:02Z</time>
  </trkpt>
  <trkpt lat="32.300936" lon="-3.119267">
   <ele>1001.00</ele>
   <time>2014-04-01T14:29:08Z</time>
  </trkpt>
  <trkpt lat="32.300708" lon="-3.119302">
   <ele>1000.00</ele>
   <time>2014-04-01T14:29:12Z</time>
  </trkpt>
  <trkpt lat="32.300484" lon="-3.119256">
   <ele>998.00</ele>
   <time>2014-04-01T14:29:16Z</time>
  </trkpt>
  <trkpt lat="32.300260" lon="-3.119236">
   <ele>996.00</ele>
   <time>2014-04-01T14:29:20Z</time>
  </trkpt>
  <trkpt lat="32.300058" lon="-3.119282">
   <ele>995.00</ele>
   <time>2014-04-01T14:29:24Z</time>
  </trkpt>
  <trkpt lat="32.299868" lon="-3.119235">
   <ele>994.00</ele>
   <time>2014-04-01T14:29:28Z</time>
  </trkpt>
  <trkpt lat="32.299613" lon="-3.119175">
   <ele>994.00</ele>
   <time>2014-04-01T14:29:33Z</time>
  </trkpt>
  <trkpt lat="32.299377" lon="-3.119162">
   <ele>994.00</ele>
   <time>2014-04-01T14:29:37Z</time>
  </trkpt>
  <trkpt lat="32.299144" lon="-3.119136">
   <ele>994.00</ele>
   <time>2014-04-01T14:29:41Z</time>
  </trkpt>
  <trkpt lat="32.298958" lon="-3.119139">
   <ele>993.00</ele>
   <time>2014-04-01T14:29:44Z</time>
  </trkpt>
  <trkpt lat="32.298756" lon="-3.119185">
   <ele>993.00</ele>
   <time>2014-04-01T14:29:47Z</time>
  </trkpt>
  <trkpt lat="32.298316" lon="-3.119296">
   <ele>993.00</ele>
   <time>2014-04-01T14:29:54Z</time>
  </trkpt>
  <trkpt lat="32.298093" lon="-3.119386">
   <ele>992.00</ele>
   <time>2014-04-01T14:29:58Z</time>
  </trkpt>
  <trkpt lat="32.297929" lon="-3.119496">
   <ele>992.00</ele>
   <time>2014-04-01T14:30:01Z</time>
  </trkpt>
  <trkpt lat="32.297756" lon="-3.119681">
   <ele>993.00</ele>
   <time>2014-04-01T14:30:05Z</time>
  </trkpt>
  <trkpt lat="32.297545" lon="-3.119882">
   <ele>993.00</ele>
   <time>2014-04-01T14:30:10Z</time>
  </trkpt>
  <trkpt lat="32.297363" lon="-3.120053">
   <ele>994.00</ele>
   <time>2014-04-01T14:30:14Z</time>
  </trkpt>
  <trkpt lat="32.297207" lon="-3.120263">
   <ele>994.00</ele>
   <time>2014-04-01T14:30:18Z</time>
  </trkpt>
  <trkpt lat="32.297034" lon="-3.120528">
   <ele>994.00</ele>
   <time>2014-04-01T14:30:23Z</time>
  </trkpt>
  <trkpt lat="32.296847" lon="-3.120609">
   <ele>993.00</ele>
   <time>2014-04-01T14:30:28Z</time>
  </trkpt>
  <trkpt lat="32.296747" lon="-3.120794">
   <ele>993.00</ele>
   <time>2014-04-01T14:30:33Z</time>
  </trkpt>
  <trkpt lat="32.296649" lon="-3.120975">
   <ele>993.00</ele>
   <time>2014-04-01T14:30:38Z</time>
  </trkpt>
  <trkpt lat="32.296501" lon="-3.121101">
   <ele>995.00</ele>
   <time>2014-04-01T14:30:42Z</time>
  </trkpt>
  <trkpt lat="32.296265" lon="-3.121271">
   <ele>997.00</ele>
   <time>2014-04-01T14:30:47Z</time>
  </trkpt>
  <trkpt lat="32.296101" lon="-3.121439">
   <ele>998.00</ele>
   <time>2014-04-01T14:30:51Z</time>
  </trkpt>
  <trkpt lat="32.295754" lon="-3.121837">
   <ele>998.00</ele>
   <time>2014-04-01T14:30:59Z</time>
  </trkpt>
  <trkpt lat="32.295527" lon="-3.122122">
   <ele>997.00</ele>
   <time>2014-04-01T14:31:04Z</time>
  </trkpt>
  <trkpt lat="32.295399" lon="-3.122306">
   <ele>997.00</ele>
   <time>2014-04-01T14:31:07Z</time>
  </trkpt>
  <trkpt lat="32.295088" lon="-3.122838">
   <ele>994.00</ele>
   <time>2014-04-01T14:31:16Z</time>
  </trkpt>
  <trkpt lat="32.294967" lon="-3.122995">
   <ele>994.00</ele>
   <time>2014-04-01T14:31:20Z</time>
  </trkpt>
  <trkpt lat="32.294776" lon="-3.123085">
   <ele>994.00</ele>
   <time>2014-04-01T14:31:25Z</time>
  </trkpt>
  <trkpt lat="32.294570" lon="-3.123172">
   <ele>994.00</ele>
   <time>2014-04-01T14:31:30Z</time>
  </trkpt>
  <trkpt lat="32.294366" lon="-3.123178">
   <ele>994.00</ele>
   <time>2014-04-01T14:31:35Z</time>
  </trkpt>
  <trkpt lat="32.294181" lon="-3.123190">
   <ele>994.00</ele>
   <time>2014-04-01T14:31:39Z</time>
  </trkpt>
  <trkpt lat="32.293900" lon="-3.123242">
   <ele>993.00</ele>
   <time>2014-04-01T14:31:45Z</time>
  </trkpt>
  <trkpt lat="32.293693" lon="-3.123320">
   <ele>993.00</ele>
   <time>2014-04-01T14:31:50Z</time>
  </trkpt>
  <trkpt lat="32.293485" lon="-3.123459">
   <ele>994.00</ele>
   <time>2014-04-01T14:31:56Z</time>
  </trkpt>
  <trkpt lat="32.293276" lon="-3.123537">
   <ele>995.00</ele>
   <time>2014-04-01T14:32:01Z</time>
  </trkpt>
  <trkpt lat="32.293091" lon="-3.123607">
   <ele>995.00</ele>
   <time>2014-04-01T14:32:05Z</time>
  </trkpt>
  <trkpt lat="32.292892" lon="-3.123686">
   <ele>995.00</ele>
   <time>2014-04-01T14:32:09Z</time>
  </trkpt>
  <trkpt lat="32.292683" lon="-3.123755">
   <ele>996.00</ele>
   <time>2014-04-01T14:32:13Z</time>
  </trkpt>
  <trkpt lat="32.292475" lon="-3.123814">
   <ele>996.00</ele>
   <time>2014-04-01T14:32:17Z</time>
  </trkpt>
  <trkpt lat="32.292195" lon="-3.123907">
   <ele>996.00</ele>
   <time>2014-04-01T14:32:22Z</time>
  </trkpt>
  <trkpt lat="32.292005" lon="-3.123959">
   <ele>995.00</ele>
   <time>2014-04-01T14:32:25Z</time>
  </trkpt>
  <trkpt lat="32.291806" lon="-3.123993">
   <ele>994.00</ele>
   <time>2014-04-01T14:32:28Z</time>
  </trkpt>
  <trkpt lat="32.291618" lon="-3.124033">
   <ele>994.00</ele>
   <time>2014-04-01T14:32:31Z</time>
  </trkpt>
  <trkpt lat="32.291406" lon="-3.124145">
   <ele>993.00</ele>
   <time>2014-04-01T14:32:35Z</time>
  </trkpt>
  <trkpt lat="32.291249" lon="-3.124256">
   <ele>992.00</ele>
   <time>2014-04-01T14:32:38Z</time>
  </trkpt>
  <trkpt lat="32.291092" lon="-3.124373">
   <ele>992.00</ele>
   <time>2014-04-01T14:32:41Z</time>
  </trkpt>
  <trkpt lat="32.290859" lon="-3.124533">
   <ele>993.00</ele>
   <time>2014-04-01T14:32:45Z</time>
  </trkpt>
  <trkpt lat="32.290576" lon="-3.124707">
   <ele>994.00</ele>
   <time>2014-04-01T14:32:50Z</time>
  </trkpt>
  <trkpt lat="32.290408" lon="-3.124810">
   <ele>993.00</ele>
   <time>2014-04-01T14:32:53Z</time>
  </trkpt>
  <trkpt lat="32.290194" lon="-3.124856">
   <ele>993.00</ele>
   <time>2014-04-01T14:32:56Z</time>
  </trkpt>
  <trkpt lat="32.289808" lon="-3.124898">
   <ele>992.00</ele>
   <time>2014-04-01T14:33:01Z</time>
  </trkpt>
  <trkpt lat="32.289574" lon="-3.124967">
   <ele>991.00</ele>
   <time>2014-04-01T14:33:04Z</time>
  </trkpt>
  <trkpt lat="32.289360" lon="-3.125073">
   <ele>991.00</ele>
   <time>2014-04-01T14:33:07Z</time>
  </trkpt>
  <trkpt lat="32.289167" lon="-3.125119">
   <ele>990.00</ele>
   <time>2014-04-01T14:33:10Z</time>
  </trkpt>
  <trkpt lat="32.288968" lon="-3.125107">
   <ele>990.00</ele>
   <time>2014-04-01T14:33:13Z</time>
  </trkpt>
  <trkpt lat="32.288755" lon="-3.125177">
   <ele>991.00</ele>
   <time>2014-04-01T14:33:16Z</time>
  </trkpt>
  <trkpt lat="32.288444" lon="-3.125340">
   <ele>991.00</ele>
   <time>2014-04-01T14:33:20Z</time>
  </trkpt>
  <trkpt lat="32.288026" lon="-3.125528">
   <ele>991.00</ele>
   <time>2014-04-01T14:33:25Z</time>
  </trkpt>
  <trkpt lat="32.287790" lon="-3.125637">
   <ele>991.00</ele>
   <time>2014-04-01T14:33:28Z</time>
  </trkpt>
  <trkpt lat="32.287534" lon="-3.125688">
   <ele>991.00</ele>
   <time>2014-04-01T14:33:31Z</time>
  </trkpt>
  <trkpt lat="32.287271" lon="-3.125753">
   <ele>992.00</ele>
   <time>2014-04-01T14:33:34Z</time>
  </trkpt>
  <trkpt lat="32.287096" lon="-3.125811">
   <ele>992.00</ele>
   <time>2014-04-01T14:33:36Z</time>
  </trkpt>
  <trkpt lat="32.286835" lon="-3.125893">
   <ele>992.00</ele>
   <time>2014-04-01T14:33:39Z</time>
  </trkpt>
  <trkpt lat="32.286666" lon="-3.125985">
   <ele>992.00</ele>
   <time>2014-04-01T14:33:41Z</time>
  </trkpt>
  <trkpt lat="32.286513" lon="-3.126102">
   <ele>993.00</ele>
   <time>2014-04-01T14:33:43Z</time>
  </trkpt>
  <trkpt lat="32.286317" lon="-3.126245">
   <ele>993.00</ele>
   <time>2014-04-01T14:33:46Z</time>
  </trkpt>
  <trkpt lat="32.286134" lon="-3.126263">
   <ele>993.00</ele>
   <time>2014-04-01T14:33:49Z</time>
  </trkpt>
  <trkpt lat="32.285941" lon="-3.126403">
   <ele>992.00</ele>
   <time>2014-04-01T14:33:53Z</time>
  </trkpt>
  <trkpt lat="32.285801" lon="-3.126591">
   <ele>991.00</ele>
   <time>2014-04-01T14:33:56Z</time>
  </trkpt>
  <trkpt lat="32.285597" lon="-3.126698">
   <ele>991.00</ele>
   <time>2014-04-01T14:33:59Z</time>
  </trkpt>
  <trkpt lat="32.285378" lon="-3.126771">
   <ele>991.00</ele>
   <time>2014-04-01T14:34:02Z</time>
  </trkpt>
  <trkpt lat="32.285184" lon="-3.126918">
   <ele>992.00</ele>
   <time>2014-04-01T14:34:05Z</time>
  </trkpt>
  <trkpt lat="32.284970" lon="-3.127003">
   <ele>992.00</ele>
   <time>2014-04-01T14:34:08Z</time>
  </trkpt>
  <trkpt lat="32.284737" lon="-3.126983">
   <ele>992.00</ele>
   <time>2014-04-01T14:34:11Z</time>
  </trkpt>
  <trkpt lat="32.284500" lon="-3.126962">
   <ele>992.00</ele>
   <time>2014-04-01T14:34:14Z</time>
  </trkpt>
  <trkpt lat="32.284292" lon="-3.126970">
   <ele>992.00</ele>
   <time>2014-04-01T14:34:17Z</time>
  </trkpt>
  <trkpt lat="32.284113" lon="-3.127005">
   <ele>990.00</ele>
   <time>2014-04-01T14:34:21Z</time>
  </trkpt>
  <trkpt lat="32.283928" lon="-3.127077">
   <ele>990.00</ele>
   <time>2014-04-01T14:34:26Z</time>
  </trkpt>
  <trkpt lat="32.283712" lon="-3.127010">
   <ele>990.00</ele>
   <time>2014-04-01T14:34:30Z</time>
  </trkpt>
  <trkpt lat="32.283505" lon="-3.126947">
   <ele>990.00</ele>
   <time>2014-04-01T14:34:33Z</time>
  </trkpt>
  <trkpt lat="32.283287" lon="-3.126886">
   <ele>990.00</ele>
   <time>2014-04-01T14:34:36Z</time>
  </trkpt>
  <trkpt lat="32.283076" lon="-3.126786">
   <ele>990.00</ele>
   <time>2014-04-01T14:34:39Z</time>
  </trkpt>
  <trkpt lat="32.282870" lon="-3.126744">
   <ele>990.00</ele>
   <time>2014-04-01T14:34:42Z</time>
  </trkpt>
  <trkpt lat="32.282667" lon="-3.126735">
   <ele>990.00</ele>
   <time>2014-04-01T14:34:46Z</time>
  </trkpt>
  <trkpt lat="32.282431" lon="-3.126705">
   <ele>990.00</ele>
   <time>2014-04-01T14:34:50Z</time>
  </trkpt>
  <trkpt lat="32.281985" lon="-3.126654">
   <ele>991.00</ele>
   <time>2014-04-01T14:34:56Z</time>
  </trkpt>
  <trkpt lat="32.281758" lon="-3.126569">
   <ele>991.00</ele>
   <time>2014-04-01T14:34:59Z</time>
  </trkpt>
  <trkpt lat="32.281548" lon="-3.126396">
   <ele>991.00</ele>
   <time>2014-04-01T14:35:02Z</time>
  </trkpt>
  <trkpt lat="32.281330" lon="-3.126215">
   <ele>991.00</ele>
   <time>2014-04-01T14:35:05Z</time>
  </trkpt>
  <trkpt lat="32.280920" lon="-3.125966">
   <ele>990.00</ele>
   <time>2014-04-01T14:35:10Z</time>
  </trkpt>
  <trkpt lat="32.280738" lon="-3.125883">
   <ele>990.00</ele>
   <time>2014-04-01T14:35:12Z</time>
  </trkpt>
  <trkpt lat="32.280374" lon="-3.125730">
   <ele>990.00</ele>
   <time>2014-04-01T14:35:16Z</time>
  </trkpt>
  <trkpt lat="32.280207" lon="-3.125651">
   <ele>990.00</ele>
   <time>2014-04-01T14:35:18Z</time>
  </trkpt>
  <trkpt lat="32.279941" lon="-3.125608">
   <ele>989.00</ele>
   <time>2014-04-01T14:35:21Z</time>
  </trkpt>
  <trkpt lat="32.279672" lon="-3.125602">
   <ele>990.00</ele>
   <time>2014-04-01T14:35:24Z</time>
  </trkpt>
  <trkpt lat="32.279437" lon="-3.125583">
   <ele>989.00</ele>
   <time>2014-04-01T14:35:27Z</time>
  </trkpt>
  <trkpt lat="32.279259" lon="-3.125671">
   <ele>988.00</ele>
   <time>2014-04-01T14:35:30Z</time>
  </trkpt>
  <trkpt lat="32.279096" lon="-3.125821">
   <ele>986.00</ele>
   <time>2014-04-01T14:35:33Z</time>
  </trkpt>
  <trkpt lat="32.278903" lon="-3.125935">
   <ele>986.00</ele>
   <time>2014-04-01T14:35:36Z</time>
  </trkpt>
  <trkpt lat="32.278675" lon="-3.125969">
   <ele>986.00</ele>
   <time>2014-04-01T14:35:40Z</time>
  </trkpt>
  <trkpt lat="32.278477" lon="-3.125976">
   <ele>986.00</ele>
   <time>2014-04-01T14:35:44Z</time>
  </trkpt>
  <trkpt lat="32.278305" lon="-3.126060">
   <ele>986.00</ele>
   <time>2014-04-01T14:35:50Z</time>
  </trkpt>
  <trkpt lat="32.278118" lon="-3.126171">
   <ele>986.00</ele>
   <time>2014-04-01T14:35:56Z</time>
  </trkpt>
  <trkpt lat="32.277734" lon="-3.126353">
   <ele>986.00</ele>
   <time>2014-04-01T14:36:03Z</time>
  </trkpt>
  <trkpt lat="32.277573" lon="-3.126475">
   <ele>987.00</ele>
   <time>2014-04-01T14:36:06Z</time>
  </trkpt>
  <trkpt lat="32.277350" lon="-3.126664">
   <ele>987.00</ele>
   <time>2014-04-01T14:36:10Z</time>
  </trkpt>
  <trkpt lat="32.277120" lon="-3.126838">
   <ele>988.00</ele>
   <time>2014-04-01T14:36:14Z</time>
  </trkpt>
  <trkpt lat="32.276900" lon="-3.126993">
   <ele>987.00</ele>
   <time>2014-04-01T14:36:18Z</time>
  </trkpt>
  <trkpt lat="32.276749" lon="-3.127172">
   <ele>988.00</ele>
   <time>2014-04-01T14:36:21Z</time>
  </trkpt>
  <trkpt lat="32.276608" lon="-3.127329">
   <ele>988.00</ele>
   <time>2014-04-01T14:36:24Z</time>
  </trkpt>
  <trkpt lat="32.276365" lon="-3.127559">
   <ele>988.00</ele>
   <time>2014-04-01T14:36:29Z</time>
  </trkpt>
  <trkpt lat="32.276194" lon="-3.127707">
   <ele>987.00</ele>
   <time>2014-04-01T14:36:32Z</time>
  </trkpt>
  <trkpt lat="32.276070" lon="-3.127904">
   <ele>987.00</ele>
   <time>2014-04-01T14:36:35Z</time>
  </trkpt>
  <trkpt lat="32.275961" lon="-3.128112">
   <ele>987.00</ele>
   <time>2014-04-01T14:36:38Z</time>
  </trkpt>
  <trkpt lat="32.275845" lon="-3.128301">
   <ele>987.00</ele>
   <time>2014-04-01T14:36:41Z</time>
  </trkpt>
  <trkpt lat="32.275734" lon="-3.128475">
   <ele>987.00</ele>
   <time>2014-04-01T14:36:44Z</time>
  </trkpt>
  <trkpt lat="32.275608" lon="-3.128644">
   <ele>988.00</ele>
   <time>2014-04-01T14:36:47Z</time>
  </trkpt>
  <trkpt lat="32.275498" lon="-3.128857">
   <ele>988.00</ele>
   <time>2014-04-01T14:36:50Z</time>
  </trkpt>
  <trkpt lat="32.275370" lon="-3.129047">
   <ele>988.00</ele>
   <time>2014-04-01T14:36:53Z</time>
  </trkpt>
  <trkpt lat="32.275208" lon="-3.129206">
   <ele>988.00</ele>
   <time>2014-04-01T14:36:57Z</time>
  </trkpt>
  <trkpt lat="32.274982" lon="-3.129264">
   <ele>988.00</ele>
   <time>2014-04-01T14:37:01Z</time>
  </trkpt>
  <trkpt lat="32.274791" lon="-3.129227">
   <ele>987.00</ele>
   <time>2014-04-01T14:37:04Z</time>
  </trkpt>
  <trkpt lat="32.274602" lon="-3.129124">
   <ele>986.00</ele>
   <time>2014-04-01T14:37:07Z</time>
  </trkpt>
  <trkpt lat="32.274400" lon="-3.129027">
   <ele>986.00</ele>
   <time>2014-04-01T14:37:10Z</time>
  </trkpt>
  <trkpt lat="32.274195" lon="-3.128939">
   <ele>985.00</ele>
   <time>2014-04-01T14:37:13Z</time>
  </trkpt>
  <trkpt lat="32.273971" lon="-3.128914">
   <ele>985.00</ele>
   <time>2014-04-01T14:37:16Z</time>
  </trkpt>
  <trkpt lat="32.273738" lon="-3.128922">
   <ele>985.00</ele>
   <time>2014-04-01T14:37:19Z</time>
  </trkpt>
  <trkpt lat="32.273506" lon="-3.129000">
   <ele>985.00</ele>
   <time>2014-04-01T14:37:22Z</time>
  </trkpt>
  <trkpt lat="32.273240" lon="-3.129103">
   <ele>985.00</ele>
   <time>2014-04-01T14:37:25Z</time>
  </trkpt>
  <trkpt lat="32.272956" lon="-3.129194">
   <ele>985.00</ele>
   <time>2014-04-01T14:37:28Z</time>
  </trkpt>
  <trkpt lat="32.272771" lon="-3.129258">
   <ele>985.00</ele>
   <time>2014-04-01T14:37:30Z</time>
  </trkpt>
  <trkpt lat="32.272593" lon="-3.129350">
   <ele>985.00</ele>
   <time>2014-04-01T14:37:32Z</time>
  </trkpt>
  <trkpt lat="32.272430" lon="-3.129479">
   <ele>985.00</ele>
   <time>2014-04-01T14:37:34Z</time>
  </trkpt>
  <trkpt lat="32.272277" lon="-3.129637">
   <ele>985.00</ele>
   <time>2014-04-01T14:37:36Z</time>
  </trkpt>
  <trkpt lat="32.272129" lon="-3.129802">
   <ele>985.00</ele>
   <time>2014-04-01T14:37:38Z</time>
  </trkpt>
  <trkpt lat="32.271989" lon="-3.129961">
   <ele>985.00</ele>
   <time>2014-04-01T14:37:40Z</time>
  </trkpt>
  <trkpt lat="32.271843" lon="-3.130091">
   <ele>984.00</ele>
   <time>2014-04-01T14:37:42Z</time>
  </trkpt>
  <trkpt lat="32.271638" lon="-3.130246">
   <ele>984.00</ele>
   <time>2014-04-01T14:37:45Z</time>
  </trkpt>
  <trkpt lat="32.271465" lon="-3.130421">
   <ele>984.00</ele>
   <time>2014-04-01T14:37:48Z</time>
  </trkpt>
  <trkpt lat="32.271247" lon="-3.130493">
   <ele>984.00</ele>
   <time>2014-04-01T14:37:51Z</time>
  </trkpt>
  <trkpt lat="32.271030" lon="-3.130413">
   <ele>983.00</ele>
   <time>2014-04-01T14:37:54Z</time>
  </trkpt>
  <trkpt lat="32.270755" lon="-3.130267">
   <ele>983.00</ele>
   <time>2014-04-01T14:37:58Z</time>
  </trkpt>
  <trkpt lat="32.270528" lon="-3.130201">
   <ele>983.00</ele>
   <time>2014-04-01T14:38:01Z</time>
  </trkpt>
  <trkpt lat="32.270300" lon="-3.130150">
   <ele>983.00</ele>
   <time>2014-04-01T14:38:04Z</time>
  </trkpt>
  <trkpt lat="32.269898" lon="-3.130097">
   <ele>983.00</ele>
   <time>2014-04-01T14:38:10Z</time>
  </trkpt>
  <trkpt lat="32.269652" lon="-3.130124">
   <ele>983.00</ele>
   <time>2014-04-01T14:38:14Z</time>
  </trkpt>
  <trkpt lat="32.269451" lon="-3.130161">
   <ele>983.00</ele>
   <time>2014-04-01T14:38:17Z</time>
  </trkpt>
  <trkpt lat="32.269239" lon="-3.130086">
   <ele>983.00</ele>
   <time>2014-04-01T14:38:21Z</time>
  </trkpt>
  <trkpt lat="32.269030" lon="-3.129999">
   <ele>983.00</ele>
   <time>2014-04-01T14:38:24Z</time>
  </trkpt>
  <trkpt lat="32.268829" lon="-3.129842">
   <ele>983.00</ele>
   <time>2014-04-01T14:38:27Z</time>
  </trkpt>
  <trkpt lat="32.268653" lon="-3.129651">
   <ele>983.00</ele>
   <time>2014-04-01T14:38:30Z</time>
  </trkpt>
  <trkpt lat="32.268346" lon="-3.129234">
   <ele>983.00</ele>
   <time>2014-04-01T14:38:36Z</time>
  </trkpt>
  <trkpt lat="32.268161" lon="-3.129070">
   <ele>983.00</ele>
   <time>2014-04-01T14:38:39Z</time>
  </trkpt>
  <trkpt lat="32.267932" lon="-3.128992">
   <ele>983.00</ele>
   <time>2014-04-01T14:38:42Z</time>
  </trkpt>
  <trkpt lat="32.267679" lon="-3.129010">
   <ele>982.00</ele>
   <time>2014-04-01T14:38:45Z</time>
  </trkpt>
  <trkpt lat="32.267421" lon="-3.129068">
   <ele>982.00</ele>
   <time>2014-04-01T14:38:48Z</time>
  </trkpt>
  <trkpt lat="32.267179" lon="-3.129158">
   <ele>982.00</ele>
   <time>2014-04-01T14:38:51Z</time>
  </trkpt>
  <trkpt lat="32.266939" lon="-3.129225">
   <ele>983.00</ele>
   <time>2014-04-01T14:38:54Z</time>
  </trkpt>
  <trkpt lat="32.266694" lon="-3.129277">
   <ele>983.00</ele>
   <time>2014-04-01T14:38:57Z</time>
  </trkpt>
  <trkpt lat="32.266347" lon="-3.129330">
   <ele>983.00</ele>
   <time>2014-04-01T14:39:01Z</time>
  </trkpt>
  <trkpt lat="32.266168" lon="-3.129382">
   <ele>983.00</ele>
   <time>2014-04-01T14:39:03Z</time>
  </trkpt>
  <trkpt lat="32.265990" lon="-3.129461">
   <ele>983.00</ele>
   <time>2014-04-01T14:39:05Z</time>
  </trkpt>
  <trkpt lat="32.265572" lon="-3.129673">
   <ele>982.00</ele>
   <time>2014-04-01T14:39:10Z</time>
  </trkpt>
  <trkpt lat="32.265348" lon="-3.129824">
   <ele>981.00</ele>
   <time>2014-04-01T14:39:13Z</time>
  </trkpt>
  <trkpt lat="32.265125" lon="-3.129980">
   <ele>981.00</ele>
   <time>2014-04-01T14:39:16Z</time>
  </trkpt>
  <trkpt lat="32.264800" lon="-3.130163">
   <ele>980.00</ele>
   <time>2014-04-01T14:39:20Z</time>
  </trkpt>
  <trkpt lat="32.264624" lon="-3.130247">
   <ele>979.00</ele>
   <time>2014-04-01T14:39:22Z</time>
  </trkpt>
  <trkpt lat="32.264438" lon="-3.130318">
   <ele>979.00</ele>
   <time>2014-04-01T14:39:24Z</time>
  </trkpt>
  <trkpt lat="32.264061" lon="-3.130455">
   <ele>979.00</ele>
   <time>2014-04-01T14:39:28Z</time>
  </trkpt>
  <trkpt lat="32.263894" lon="-3.130546">
   <ele>980.00</ele>
   <time>2014-04-01T14:39:30Z</time>
  </trkpt>
  <trkpt lat="32.263530" lon="-3.130775">
   <ele>979.00</ele>
   <time>2014-04-01T14:39:35Z</time>
  </trkpt>
  <trkpt lat="32.263295" lon="-3.130872">
   <ele>979.00</ele>
   <time>2014-04-01T14:39:38Z</time>
  </trkpt>
  <trkpt lat="32.263057" lon="-3.131005">
   <ele>979.00</ele>
   <time>2014-04-01T14:39:41Z</time>
  </trkpt>
  <trkpt lat="32.262834" lon="-3.131158">
   <ele>979.00</ele>
   <time>2014-04-01T14:39:44Z</time>
  </trkpt>
  <trkpt lat="32.262609" lon="-3.131257">
   <ele>979.00</ele>
   <time>2014-04-01T14:39:47Z</time>
  </trkpt>
  <trkpt lat="32.262380" lon="-3.131281">
   <ele>979.00</ele>
   <time>2014-04-01T14:39:50Z</time>
  </trkpt>
  <trkpt lat="32.262143" lon="-3.131269">
   <ele>979.00</ele>
   <time>2014-04-01T14:39:53Z</time>
  </trkpt>
  <trkpt lat="32.261825" lon="-3.131325">
   <ele>979.00</ele>
   <time>2014-04-01T14:39:57Z</time>
  </trkpt>
  <trkpt lat="32.261618" lon="-3.131383">
   <ele>979.00</ele>
   <time>2014-04-01T14:40:00Z</time>
  </trkpt>
  <trkpt lat="32.261465" lon="-3.131512">
   <ele>978.00</ele>
   <time>2014-04-01T14:40:03Z</time>
  </trkpt>
  <trkpt lat="32.261352" lon="-3.131695">
   <ele>977.00</ele>
   <time>2014-04-01T14:40:08Z</time>
  </trkpt>
  <trkpt lat="32.261266" lon="-3.131958">
   <ele>978.00</ele>
   <time>2014-04-01T14:40:14Z</time>
  </trkpt>
  <trkpt lat="32.261080" lon="-3.132107">
   <ele>979.00</ele>
   <time>2014-04-01T14:40:18Z</time>
  </trkpt>
  <trkpt lat="32.260928" lon="-3.132242">
   <ele>979.00</ele>
   <time>2014-04-01T14:40:21Z</time>
  </trkpt>
  <trkpt lat="32.260757" lon="-3.132356">
   <ele>978.00</ele>
   <time>2014-04-01T14:40:24Z</time>
  </trkpt>
  <trkpt lat="32.260579" lon="-3.132440">
   <ele>978.00</ele>
   <time>2014-04-01T14:40:27Z</time>
  </trkpt>
  <trkpt lat="32.260386" lon="-3.132510">
   <ele>979.00</ele>
   <time>2014-04-01T14:40:30Z</time>
  </trkpt>
  <trkpt lat="32.260205" lon="-3.132626">
   <ele>979.00</ele>
   <time>2014-04-01T14:40:33Z</time>
  </trkpt>
  <trkpt lat="32.259995" lon="-3.132616">
   <ele>979.00</ele>
   <time>2014-04-01T14:40:36Z</time>
  </trkpt>
  <trkpt lat="32.259776" lon="-3.132521">
   <ele>979.00</ele>
   <time>2014-04-01T14:40:39Z</time>
  </trkpt>
  <trkpt lat="32.259501" lon="-3.132375">
   <ele>979.00</ele>
   <time>2014-04-01T14:40:43Z</time>
  </trkpt>
  <trkpt lat="32.259286" lon="-3.132231">
   <ele>978.00</ele>
   <time>2014-04-01T14:40:46Z</time>
  </trkpt>
  <trkpt lat="32.258531" lon="-3.131813">
   <ele>978.00</ele>
   <time>2014-04-01T14:40:55Z</time>
  </trkpt>
  <trkpt lat="32.258170" lon="-3.131599">
   <ele>978.00</ele>
   <time>2014-04-01T14:40:59Z</time>
  </trkpt>
  <trkpt lat="32.257609" lon="-3.131279">
   <ele>978.00</ele>
   <time>2014-04-01T14:41:06Z</time>
  </trkpt>
  <trkpt lat="32.257438" lon="-3.131147">
   <ele>978.00</ele>
   <time>2014-04-01T14:41:09Z</time>
  </trkpt>
  <trkpt lat="32.257274" lon="-3.130979">
   <ele>978.00</ele>
   <time>2014-04-01T14:41:12Z</time>
  </trkpt>
  <trkpt lat="32.256581" lon="-3.130229">
   <ele>977.00</ele>
   <time>2014-04-01T14:41:24Z</time>
  </trkpt>
  <trkpt lat="32.256471" lon="-3.130006">
   <ele>977.00</ele>
   <time>2014-04-01T14:41:27Z</time>
  </trkpt>
  <trkpt lat="32.256377" lon="-3.129760">
   <ele>978.00</ele>
   <time>2014-04-01T14:41:30Z</time>
  </trkpt>
  <trkpt lat="32.256294" lon="-3.129402">
   <ele>978.00</ele>
   <time>2014-04-01T14:41:34Z</time>
  </trkpt>
  <trkpt lat="32.256205" lon="-3.129174">
   <ele>978.00</ele>
   <time>2014-04-01T14:41:37Z</time>
  </trkpt>
  <trkpt lat="32.256106" lon="-3.128946">
   <ele>978.00</ele>
   <time>2014-04-01T14:41:40Z</time>
  </trkpt>
  <trkpt lat="32.255998" lon="-3.128737">
   <ele>978.00</ele>
   <time>2014-04-01T14:41:43Z</time>
  </trkpt>
  <trkpt lat="32.255902" lon="-3.128555">
   <ele>978.00</ele>
   <time>2014-04-01T14:41:46Z</time>
  </trkpt>
  <trkpt lat="32.255843" lon="-3.128312">
   <ele>978.00</ele>
   <time>2014-04-01T14:41:50Z</time>
  </trkpt>
  <trkpt lat="32.255846" lon="-3.128117">
   <ele>977.00</ele>
   <time>2014-04-01T14:42:05Z</time>
  </trkpt>
  <trkpt lat="32.255846" lon="-3.128119">
   <ele>978.00</ele>
   <time>2014-04-01T14:42:20Z</time>
  </trkpt>
  <trkpt lat="32.255864" lon="-3.128345">
   <ele>977.00</ele>
   <time>2014-04-01T14:42:26Z</time>
  </trkpt>
  <trkpt lat="32.255922" lon="-3.128609">
   <ele>977.00</ele>
   <time>2014-04-01T14:42:30Z</time>
  </trkpt>
  <trkpt lat="32.255971" lon="-3.128842">
   <ele>977.00</ele>
   <time>2014-04-01T14:42:33Z</time>
  </trkpt>
  <trkpt lat="32.256005" lon="-3.129088">
   <ele>976.00</ele>
   <time>2014-04-01T14:42:36Z</time>
  </trkpt>
  <trkpt lat="32.256061" lon="-3.129321">
   <ele>976.00</ele>
   <time>2014-04-01T14:42:39Z</time>
  </trkpt>
  <trkpt lat="32.256175" lon="-3.129531">
   <ele>976.00</ele>
   <time>2014-04-01T14:42:42Z</time>
  </trkpt>
  <trkpt lat="32.256308" lon="-3.129753">
   <ele>976.00</ele>
   <time>2014-04-01T14:42:46Z</time>
  </trkpt>
  <trkpt lat="32.256437" lon="-3.129941">
   <ele>976.00</ele>
   <time>2014-04-01T14:42:51Z</time>
  </trkpt>
  <trkpt lat="32.256541" lon="-3.130113">
   <ele>976.00</ele>
   <time>2014-04-01T14:42:55Z</time>
  </trkpt>
  <trkpt lat="32.256598" lon="-3.130365">
   <ele>976.00</ele>
   <time>2014-04-01T14:42:59Z</time>
  </trkpt>
  <trkpt lat="32.256641" lon="-3.130580">
   <ele>975.00</ele>
   <time>2014-04-01T14:43:02Z</time>
  </trkpt>
  <trkpt lat="32.256727" lon="-3.130795">
   <ele>976.00</ele>
   <time>2014-04-01T14:43:05Z</time>
  </trkpt>
  <trkpt lat="32.256814" lon="-3.131018">
   <ele>976.00</ele>
   <time>2014-04-01T14:43:08Z</time>
  </trkpt>
  <trkpt lat="32.256852" lon="-3.131252">
   <ele>977.00</ele>
   <time>2014-04-01T14:43:11Z</time>
  </trkpt>
  <trkpt lat="32.256888" lon="-3.131518">
   <ele>977.00</ele>
   <time>2014-04-01T14:43:14Z</time>
  </trkpt>
  <trkpt lat="32.256983" lon="-3.131787">
   <ele>977.00</ele>
   <time>2014-04-01T14:43:17Z</time>
  </trkpt>
  <trkpt lat="32.257120" lon="-3.132061">
   <ele>978.00</ele>
   <time>2014-04-01T14:43:20Z</time>
  </trkpt>
  <trkpt lat="32.257263" lon="-3.132329">
   <ele>978.00</ele>
   <time>2014-04-01T14:43:23Z</time>
  </trkpt>
  <trkpt lat="32.257291" lon="-3.132600">
   <ele>979.00</ele>
   <time>2014-04-01T14:43:26Z</time>
  </trkpt>
  <trkpt lat="32.257199" lon="-3.132844">
   <ele>979.00</ele>
   <time>2014-04-01T14:43:29Z</time>
  </trkpt>
  <trkpt lat="32.257196" lon="-3.133082">
   <ele>979.00</ele>
   <time>2014-04-01T14:43:32Z</time>
  </trkpt>
  <trkpt lat="32.257299" lon="-3.133276">
   <ele>978.00</ele>
   <time>2014-04-01T14:43:35Z</time>
  </trkpt>
  <trkpt lat="32.257413" lon="-3.133463">
   <ele>978.00</ele>
   <time>2014-04-01T14:43:38Z</time>
  </trkpt>
  <trkpt lat="32.257370" lon="-3.133737">
   <ele>978.00</ele>
   <time>2014-04-01T14:43:42Z</time>
  </trkpt>
  <trkpt lat="32.257290" lon="-3.133982">
   <ele>978.00</ele>
   <time>2014-04-01T14:43:45Z</time>
  </trkpt>
  <trkpt lat="32.257231" lon="-3.134270">
   <ele>977.00</ele>
   <time>2014-04-01T14:43:48Z</time>
  </trkpt>
  <trkpt lat="32.257215" lon="-3.134487">
   <ele>977.00</ele>
   <time>2014-04-01T14:43:50Z</time>
  </trkpt>
  <trkpt lat="32.257200" lon="-3.134705">
   <ele>977.00</ele>
   <time>2014-04-01T14:43:52Z</time>
  </trkpt>
  <trkpt lat="32.257161" lon="-3.135119">
   <ele>977.00</ele>
   <time>2014-04-01T14:43:56Z</time>
  </trkpt>
  <trkpt lat="32.257124" lon="-3.135337">
   <ele>977.00</ele>
   <time>2014-04-01T14:43:58Z</time>
  </trkpt>
  <trkpt lat="32.257066" lon="-3.135569">
   <ele>977.00</ele>
   <time>2014-04-01T14:44:00Z</time>
  </trkpt>
  <trkpt lat="32.257006" lon="-3.135817">
   <ele>977.00</ele>
   <time>2014-04-01T14:44:02Z</time>
  </trkpt>
  <trkpt lat="32.256818" lon="-3.136749">
   <ele>978.00</ele>
   <time>2014-04-01T14:44:09Z</time>
  </trkpt>
  <trkpt lat="32.256739" lon="-3.137276">
   <ele>977.00</ele>
   <time>2014-04-01T14:44:13Z</time>
  </trkpt>
  <trkpt lat="32.256724" lon="-3.137543">
   <ele>978.00</ele>
   <time>2014-04-01T14:44:15Z</time>
  </trkpt>
  <trkpt lat="32.256728" lon="-3.137807">
   <ele>978.00</ele>
   <time>2014-04-01T14:44:17Z</time>
  </trkpt>
  <trkpt lat="32.256732" lon="-3.138061">
   <ele>978.00</ele>
   <time>2014-04-01T14:44:19Z</time>
  </trkpt>
  <trkpt lat="32.256691" lon="-3.138312">
   <ele>978.00</ele>
   <time>2014-04-01T14:44:21Z</time>
  </trkpt>
  <trkpt lat="32.256596" lon="-3.138563">
   <ele>978.00</ele>
   <time>2014-04-01T14:44:23Z</time>
  </trkpt>
  <trkpt lat="32.256505" lon="-3.138830">
   <ele>978.00</ele>
   <time>2014-04-01T14:44:25Z</time>
  </trkpt>
  <trkpt lat="32.256382" lon="-3.139233">
   <ele>979.00</ele>
   <time>2014-04-01T14:44:28Z</time>
  </trkpt>
  <trkpt lat="32.256329" lon="-3.139510">
   <ele>980.00</ele>
   <time>2014-04-01T14:44:30Z</time>
  </trkpt>
  <trkpt lat="32.256290" lon="-3.139793">
   <ele>980.00</ele>
   <time>2014-04-01T14:44:32Z</time>
  </trkpt>
  <trkpt lat="32.256251" lon="-3.140076">
   <ele>980.00</ele>
   <time>2014-04-01T14:44:34Z</time>
  </trkpt>
  <trkpt lat="32.256200" lon="-3.140357">
   <ele>980.00</ele>
   <time>2014-04-01T14:44:36Z</time>
  </trkpt>
  <trkpt lat="32.256152" lon="-3.140646">
   <ele>980.00</ele>
   <time>2014-04-01T14:44:38Z</time>
  </trkpt>
  <trkpt lat="32.256121" lon="-3.140930">
   <ele>981.00</ele>
   <time>2014-04-01T14:44:40Z</time>
  </trkpt>
  <trkpt lat="32.256075" lon="-3.141595">
   <ele>982.00</ele>
   <time>2014-04-01T14:44:45Z</time>
  </trkpt>
  <trkpt lat="32.256085" lon="-3.141867">
   <ele>982.00</ele>
   <time>2014-04-01T14:44:47Z</time>
  </trkpt>
  <trkpt lat="32.256133" lon="-3.142360">
   <ele>982.00</ele>
   <time>2014-04-01T14:44:51Z</time>
  </trkpt>
  <trkpt lat="32.256151" lon="-3.142607">
   <ele>982.00</ele>
   <time>2014-04-01T14:44:55Z</time>
  </trkpt>
  <trkpt lat="32.255972" lon="-3.142667">
   <ele>982.00</ele>
   <time>2014-04-01T14:45:00Z</time>
  </trkpt>
  <trkpt lat="32.255782" lon="-3.142712">
   <ele>983.00</ele>
   <time>2014-04-01T14:45:04Z</time>
  </trkpt>
  <trkpt lat="32.255601" lon="-3.142779">
   <ele>983.00</ele>
   <time>2014-04-01T14:45:08Z</time>
  </trkpt>
  <trkpt lat="32.255372" lon="-3.142798">
   <ele>984.00</ele>
   <time>2014-04-01T14:45:12Z</time>
  </trkpt>
  <trkpt lat="32.255171" lon="-3.142815">
   <ele>985.00</ele>
   <time>2014-04-01T14:45:16Z</time>
  </trkpt>
  <trkpt lat="32.254981" lon="-3.142773">
   <ele>985.00</ele>
   <time>2014-04-01T14:45:20Z</time>
  </trkpt>
  <trkpt lat="32.254771" lon="-3.142657">
   <ele>985.00</ele>
   <time>2014-04-01T14:45:24Z</time>
  </trkpt>
  <trkpt lat="32.254533" lon="-3.142631">
   <ele>986.00</ele>
   <time>2014-04-01T14:45:28Z</time>
  </trkpt>
  <trkpt lat="32.254297" lon="-3.142597">
   <ele>986.00</ele>
   <time>2014-04-01T14:45:32Z</time>
  </trkpt>
  <trkpt lat="32.254119" lon="-3.142429">
   <ele>987.00</ele>
   <time>2014-04-01T14:45:36Z</time>
  </trkpt>
  <trkpt lat="32.254050" lon="-3.142211">
   <ele>987.00</ele>
   <time>2014-04-01T14:45:39Z</time>
  </trkpt>
  <trkpt lat="32.253831" lon="-3.141503">
   <ele>988.00</ele>
   <time>2014-04-01T14:45:48Z</time>
  </trkpt>
  <trkpt lat="32.253703" lon="-3.141375">
   <ele>987.00</ele>
   <time>2014-04-01T14:45:54Z</time>
  </trkpt>
  <trkpt lat="32.253536" lon="-3.141455">
   <ele>986.00</ele>
   <time>2014-04-01T14:46:05Z</time>
  </trkpt>
  <trkpt lat="32.253347" lon="-3.141453">
   <ele>986.00</ele>
   <time>2014-04-01T14:46:10Z</time>
  </trkpt>
  <trkpt lat="32.253230" lon="-3.141274">
   <ele>986.00</ele>
   <time>2014-04-01T14:46:24Z</time>
  </trkpt>
  <trkpt lat="32.253065" lon="-3.141234">
   <ele>986.00</ele>
   <time>2014-04-01T14:46:30Z</time>
  </trkpt>
  <trkpt lat="32.252889" lon="-3.141352">
   <ele>986.00</ele>
   <time>2014-04-01T14:46:35Z</time>
  </trkpt>
  <trkpt lat="32.252720" lon="-3.141477">
   <ele>985.00</ele>
   <time>2014-04-01T14:46:40Z</time>
  </trkpt>
  <trkpt lat="32.252528" lon="-3.141589">
   <ele>985.00</ele>
   <time>2014-04-01T14:46:45Z</time>
  </trkpt>
  <trkpt lat="32.252338" lon="-3.141714">
   <ele>983.00</ele>
   <time>2014-04-01T14:46:50Z</time>
  </trkpt>
  <trkpt lat="32.252202" lon="-3.141603">
   <ele>984.00</ele>
   <time>2014-04-01T14:46:55Z</time>
  </trkpt>
  <trkpt lat="32.252109" lon="-3.141406">
   <ele>984.00</ele>
   <time>2014-04-01T14:46:59Z</time>
  </trkpt>
  <trkpt lat="32.252019" lon="-3.141202">
   <ele>984.00</ele>
   <time>2014-04-01T14:47:03Z</time>
  </trkpt>
  <trkpt lat="32.251944" lon="-3.140965">
   <ele>984.00</ele>
   <time>2014-04-01T14:47:07Z</time>
  </trkpt>
  <trkpt lat="32.251843" lon="-3.140777">
   <ele>984.00</ele>
   <time>2014-04-01T14:47:11Z</time>
  </trkpt>
  <trkpt lat="32.251765" lon="-3.140536">
   <ele>985.00</ele>
   <time>2014-04-01T14:47:16Z</time>
  </trkpt>
  <trkpt lat="32.251721" lon="-3.140308">
   <ele>985.00</ele>
   <time>2014-04-01T14:47:20Z</time>
  </trkpt>
  <trkpt lat="32.251616" lon="-3.140082">
   <ele>985.00</ele>
   <time>2014-04-01T14:47:24Z</time>
  </trkpt>
  <trkpt lat="32.251473" lon="-3.139876">
   <ele>985.00</ele>
   <time>2014-04-01T14:47:28Z</time>
  </trkpt>
  <trkpt lat="32.251330" lon="-3.139700">
   <ele>985.00</ele>
   <time>2014-04-01T14:47:32Z</time>
  </trkpt>
  <trkpt lat="32.251153" lon="-3.139787">
   <ele>984.00</ele>
   <time>2014-04-01T14:47:37Z</time>
  </trkpt>
  <trkpt lat="32.251008" lon="-3.139940">
   <ele>982.00</ele>
   <time>2014-04-01T14:47:41Z</time>
  </trkpt>
  <trkpt lat="32.250879" lon="-3.140109">
   <ele>982.00</ele>
   <time>2014-04-01T14:47:45Z</time>
  </trkpt>
  <trkpt lat="32.250802" lon="-3.140307">
   <ele>981.00</ele>
   <time>2014-04-01T14:47:49Z</time>
  </trkpt>
  <trkpt lat="32.250742" lon="-3.140508">
   <ele>981.00</ele>
   <time>2014-04-01T14:47:54Z</time>
  </trkpt>
  <trkpt lat="32.250559" lon="-3.140531">
   <ele>981.00</ele>
   <time>2014-04-01T14:47:59Z</time>
  </trkpt>
  <trkpt lat="32.250373" lon="-3.140399">
   <ele>981.00</ele>
   <time>2014-04-01T14:48:03Z</time>
  </trkpt>
  <trkpt lat="32.250204" lon="-3.140220">
   <ele>981.00</ele>
   <time>2014-04-01T14:48:07Z</time>
  </trkpt>
  <trkpt lat="32.250093" lon="-3.140017">
   <ele>983.00</ele>
   <time>2014-04-01T14:48:22Z</time>
  </trkpt>
  <trkpt lat="32.249860" lon="-3.139565">
   <ele>984.00</ele>
   <time>2014-04-01T14:48:33Z</time>
  </trkpt>
  <trkpt lat="32.249707" lon="-3.139421">
   <ele>984.00</ele>
   <time>2014-04-01T14:48:37Z</time>
  </trkpt>
  <trkpt lat="32.249549" lon="-3.139250">
   <ele>984.00</ele>
   <time>2014-04-01T14:48:41Z</time>
  </trkpt>
  <trkpt lat="32.249449" lon="-3.139066">
   <ele>984.00</ele>
   <time>2014-04-01T14:48:44Z</time>
  </trkpt>
  <trkpt lat="32.249281" lon="-3.138795">
   <ele>984.00</ele>
   <time>2014-04-01T14:48:49Z</time>
  </trkpt>
  <trkpt lat="32.249128" lon="-3.138576">
   <ele>984.00</ele>
   <time>2014-04-01T14:48:53Z</time>
  </trkpt>
  <trkpt lat="32.248993" lon="-3.138382">
   <ele>983.00</ele>
   <time>2014-04-01T14:48:56Z</time>
  </trkpt>
  <trkpt lat="32.248854" lon="-3.138183">
   <ele>983.00</ele>
   <time>2014-04-01T14:48:59Z</time>
  </trkpt>
  <trkpt lat="32.248708" lon="-3.138006">
   <ele>983.00</ele>
   <time>2014-04-01T14:49:02Z</time>
  </trkpt>
  <trkpt lat="32.248583" lon="-3.137811">
   <ele>982.00</ele>
   <time>2014-04-01T14:49:05Z</time>
  </trkpt>
  <trkpt lat="32.248454" lon="-3.137629">
   <ele>982.00</ele>
   <time>2014-04-01T14:49:08Z</time>
  </trkpt>
  <trkpt lat="32.248099" lon="-3.137163">
   <ele>982.00</ele>
   <time>2014-04-01T14:49:16Z</time>
  </trkpt>
  <trkpt lat="32.247766" lon="-3.136798">
   <ele>981.00</ele>
   <time>2014-04-01T14:49:23Z</time>
  </trkpt>
  <trkpt lat="32.247630" lon="-3.136658">
   <ele>981.00</ele>
   <time>2014-04-01T14:49:26Z</time>
  </trkpt>
  <trkpt lat="32.247445" lon="-3.136489">
   <ele>980.00</ele>
   <time>2014-04-01T14:49:30Z</time>
  </trkpt>
  <trkpt lat="32.247290" lon="-3.136369">
   <ele>980.00</ele>
   <time>2014-04-01T14:49:35Z</time>
  </trkpt>
  <trkpt lat="32.247350" lon="-3.136382">
   <ele>980.00</ele>
   <time>2014-04-01T14:49:50Z</time>
  </trkpt>
  <trkpt lat="32.247532" lon="-3.136423">
   <ele>979.00</ele>
   <time>2014-04-01T14:49:55Z</time>
  </trkpt>
  <trkpt lat="32.247730" lon="-3.136454">
   <ele>979.00</ele>
   <time>2014-04-01T14:49:59Z</time>
  </trkpt>
  <trkpt lat="32.247956" lon="-3.136486">
   <ele>979.00</ele>
   <time>2014-04-01T14:50:03Z</time>
  </trkpt>
  <trkpt lat="32.248183" lon="-3.136520">
   <ele>979.00</ele>
   <time>2014-04-01T14:50:07Z</time>
  </trkpt>
  <trkpt lat="32.248410" lon="-3.136489">
   <ele>978.00</ele>
   <time>2014-04-01T14:50:11Z</time>
  </trkpt>
  <trkpt lat="32.248592" lon="-3.136453">
   <ele>978.00</ele>
   <time>2014-04-01T14:50:14Z</time>
  </trkpt>
  <trkpt lat="32.248783" lon="-3.136453">
   <ele>978.00</ele>
   <time>2014-04-01T14:50:17Z</time>
  </trkpt>
  <trkpt lat="32.249040" lon="-3.136475">
   <ele>978.00</ele>
   <time>2014-04-01T14:50:21Z</time>
  </trkpt>
  <trkpt lat="32.249218" lon="-3.136511">
   <ele>978.00</ele>
   <time>2014-04-01T14:50:24Z</time>
  </trkpt>
  <trkpt lat="32.249440" lon="-3.136488">
   <ele>979.00</ele>
   <time>2014-04-01T14:50:28Z</time>
  </trkpt>
  <trkpt lat="32.249558" lon="-3.136270">
   <ele>978.00</ele>
   <time>2014-04-01T14:50:32Z</time>
  </trkpt>
  <trkpt lat="32.249584" lon="-3.136022">
   <ele>978.00</ele>
   <time>2014-04-01T14:50:35Z</time>
  </trkpt>
  <trkpt lat="32.249593" lon="-3.135777">
   <ele>977.00</ele>
   <time>2014-04-01T14:50:38Z</time>
  </trkpt>
  <trkpt lat="32.249539" lon="-3.135542">
   <ele>977.00</ele>
   <time>2014-04-01T14:50:41Z</time>
  </trkpt>
  <trkpt lat="32.249439" lon="-3.135294">
   <ele>977.00</ele>
   <time>2014-04-01T14:50:44Z</time>
  </trkpt>
  <trkpt lat="32.249347" lon="-3.135030">
   <ele>976.00</ele>
   <time>2014-04-01T14:50:47Z</time>
  </trkpt>
  <trkpt lat="32.249274" lon="-3.134773">
   <ele>976.00</ele>
   <time>2014-04-01T14:50:50Z</time>
  </trkpt>
  <trkpt lat="32.249163" lon="-3.134439">
   <ele>976.00</ele>
   <time>2014-04-01T14:50:54Z</time>
  </trkpt>
  <trkpt lat="32.249037" lon="-3.134206">
   <ele>976.00</ele>
   <time>2014-04-01T14:50:57Z</time>
  </trkpt>
  <trkpt lat="32.248898" lon="-3.133987">
   <ele>977.00</ele>
   <time>2014-04-01T14:51:00Z</time>
  </trkpt>
  <trkpt lat="32.248806" lon="-3.133757">
   <ele>977.00</ele>
   <time>2014-04-01T14:51:03Z</time>
  </trkpt>
  <trkpt lat="32.248660" lon="-3.133579">
   <ele>976.00</ele>
   <time>2014-04-01T14:51:06Z</time>
  </trkpt>
  <trkpt lat="32.248509" lon="-3.133424">
   <ele>977.00</ele>
   <time>2014-04-01T14:51:09Z</time>
  </trkpt>
  <trkpt lat="32.248416" lon="-3.133215">
   <ele>977.00</ele>
   <time>2014-04-01T14:51:12Z</time>
  </trkpt>
  <trkpt lat="32.248307" lon="-3.132998">
   <ele>977.00</ele>
   <time>2014-04-01T14:51:15Z</time>
  </trkpt>
  <trkpt lat="32.248181" lon="-3.132794">
   <ele>977.00</ele>
   <time>2014-04-01T14:51:18Z</time>
  </trkpt>
  <trkpt lat="32.248091" lon="-3.132567">
   <ele>977.00</ele>
   <time>2014-04-01T14:51:21Z</time>
  </trkpt>
  <trkpt lat="32.247974" lon="-3.132364">
   <ele>977.00</ele>
   <time>2014-04-01T14:51:24Z</time>
  </trkpt>
  <trkpt lat="32.247789" lon="-3.132251">
   <ele>976.00</ele>
   <time>2014-04-01T14:51:27Z</time>
  </trkpt>
  <trkpt lat="32.247584" lon="-3.132179">
   <ele>976.00</ele>
   <time>2014-04-01T14:51:30Z</time>
  </trkpt>
  <trkpt lat="32.247408" lon="-3.132038">
   <ele>976.00</ele>
   <time>2014-04-01T14:51:33Z</time>
  </trkpt>
  <trkpt lat="32.247240" lon="-3.131883">
   <ele>976.00</ele>
   <time>2014-04-01T14:51:36Z</time>
  </trkpt>
  <trkpt lat="32.246991" lon="-3.131698">
   <ele>975.00</ele>
   <time>2014-04-01T14:51:40Z</time>
  </trkpt>
  <trkpt lat="32.246851" lon="-3.131512">
   <ele>975.00</ele>
   <time>2014-04-01T14:51:43Z</time>
  </trkpt>
  <trkpt lat="32.246759" lon="-3.131299">
   <ele>975.00</ele>
   <time>2014-04-01T14:51:46Z</time>
  </trkpt>
  <trkpt lat="32.246656" lon="-3.131052">
   <ele>975.00</ele>
   <time>2014-04-01T14:51:50Z</time>
  </trkpt>
  <trkpt lat="32.246558" lon="-3.130837">
   <ele>976.00</ele>
   <time>2014-04-01T14:51:54Z</time>
  </trkpt>
  <trkpt lat="32.246516" lon="-3.130582">
   <ele>976.00</ele>
   <time>2014-04-01T14:51:58Z</time>
  </trkpt>
  <trkpt lat="32.246460" lon="-3.130375">
   <ele>975.00</ele>
   <time>2014-04-01T14:52:02Z</time>
  </trkpt>
  <trkpt lat="32.246402" lon="-3.130158">
   <ele>975.00</ele>
   <time>2014-04-01T14:52:06Z</time>
  </trkpt>
  <trkpt lat="32.246318" lon="-3.129783">
   <ele>974.00</ele>
   <time>2014-04-01T14:52:12Z</time>
  </trkpt>
  <trkpt lat="32.246255" lon="-3.129510">
   <ele>973.00</ele>
   <time>2014-04-01T14:52:16Z</time>
  </trkpt>
  <trkpt lat="32.246081" lon="-3.128543">
   <ele>973.00</ele>
   <time>2014-04-01T14:52:29Z</time>
  </trkpt>
  <trkpt lat="32.246029" lon="-3.128273">
   <ele>973.00</ele>
   <time>2014-04-01T14:52:33Z</time>
  </trkpt>
  <trkpt lat="32.245994" lon="-3.128023">
   <ele>973.00</ele>
   <time>2014-04-01T14:52:37Z</time>
  </trkpt>
  <trkpt lat="32.245937" lon="-3.127196">
   <ele>972.00</ele>
   <time>2014-04-01T14:52:51Z</time>
  </trkpt>
  <trkpt lat="32.245906" lon="-3.126955">
   <ele>972.00</ele>
   <time>2014-04-01T14:52:55Z</time>
  </trkpt>
  <trkpt lat="32.245765" lon="-3.126771">
   <ele>972.00</ele>
   <time>2014-04-01T14:53:00Z</time>
  </trkpt>
  <trkpt lat="32.245601" lon="-3.126619">
   <ele>971.00</ele>
   <time>2014-04-01T14:53:05Z</time>
  </trkpt>
  <trkpt lat="32.245409" lon="-3.126488">
   <ele>971.00</ele>
   <time>2014-04-01T14:53:10Z</time>
  </trkpt>
  <trkpt lat="32.245221" lon="-3.126346">
   <ele>971.00</ele>
   <time>2014-04-01T14:53:15Z</time>
  </trkpt>
  <trkpt lat="32.245048" lon="-3.126272">
   <ele>972.00</ele>
   <time>2014-04-01T14:53:19Z</time>
  </trkpt>
  <trkpt lat="32.244870" lon="-3.126183">
   <ele>972.00</ele>
   <time>2014-04-01T14:53:24Z</time>
  </trkpt>
  <trkpt lat="32.244568" lon="-3.125972">
   <ele>972.00</ele>
   <time>2014-04-01T14:53:32Z</time>
  </trkpt>
  <trkpt lat="32.244413" lon="-3.125788">
   <ele>972.00</ele>
   <time>2014-04-01T14:53:37Z</time>
  </trkpt>
  <trkpt lat="32.244233" lon="-3.125821">
   <ele>971.00</ele>
   <time>2014-04-01T14:53:43Z</time>
  </trkpt>
  <trkpt lat="32.243910" lon="-3.126211">
   <ele>971.00</ele>
   <time>2014-04-01T14:53:52Z</time>
  </trkpt>
  <trkpt lat="32.243574" lon="-3.126615">
   <ele>971.00</ele>
   <time>2014-04-01T14:54:00Z</time>
  </trkpt>
  <trkpt lat="32.243447" lon="-3.126766">
   <ele>970.00</ele>
   <time>2014-04-01T14:54:03Z</time>
  </trkpt>
  <trkpt lat="32.243255" lon="-3.126994">
   <ele>970.00</ele>
   <time>2014-04-01T14:54:08Z</time>
  </trkpt>
  <trkpt lat="32.243068" lon="-3.127114">
   <ele>971.00</ele>
   <time>2014-04-01T14:54:13Z</time>
  </trkpt>
  <trkpt lat="32.242845" lon="-3.127251">
   <ele>971.00</ele>
   <time>2014-04-01T14:54:18Z</time>
  </trkpt>
  <trkpt lat="32.242656" lon="-3.127380">
   <ele>971.00</ele>
   <time>2014-04-01T14:54:22Z</time>
  </trkpt>
  <trkpt lat="32.242466" lon="-3.127491">
   <ele>971.00</ele>
   <time>2014-04-01T14:54:27Z</time>
  </trkpt>
  <trkpt lat="32.242030" lon="-3.127721">
   <ele>970.00</ele>
   <time>2014-04-01T14:54:40Z</time>
  </trkpt>
  <trkpt lat="32.241069" lon="-3.128220">
   <ele>968.00</ele>
   <time>2014-04-01T14:54:56Z</time>
  </trkpt>
  <trkpt lat="32.240435" lon="-3.128548">
   <ele>969.00</ele>
   <time>2014-04-01T14:55:06Z</time>
  </trkpt>
  <trkpt lat="32.240016" lon="-3.128794">
   <ele>969.00</ele>
   <time>2014-04-01T14:55:15Z</time>
  </trkpt>
  <trkpt lat="32.239874" lon="-3.128940">
   <ele>970.00</ele>
   <time>2014-04-01T14:55:22Z</time>
  </trkpt>
  <trkpt lat="32.239813" lon="-3.128981">
   <ele>970.00</ele>
   <time>2014-04-01T14:55:37Z</time>
  </trkpt>
  <trkpt lat="32.239924" lon="-3.128878">
   <ele>971.00</ele>
   <time>2014-04-01T14:55:52Z</time>
  </trkpt>
  <trkpt lat="32.240051" lon="-3.128777">
   <ele>971.00</ele>
   <time>2014-04-01T14:56:07Z</time>
  </trkpt>
  <trkpt lat="32.240304" lon="-3.128623">
   <ele>971.00</ele>
   <time>2014-04-01T14:56:13Z</time>
  </trkpt>
  <trkpt lat="32.240532" lon="-3.128497">
   <ele>971.00</ele>
   <time>2014-04-01T14:56:17Z</time>
  </trkpt>
  <trkpt lat="32.241310" lon="-3.128097">
   <ele>972.00</ele>
   <time>2014-04-01T14:56:28Z</time>
  </trkpt>
  <trkpt lat="32.241626" lon="-3.127932">
   <ele>972.00</ele>
   <time>2014-04-01T14:56:32Z</time>
  </trkpt>
  <trkpt lat="32.241864" lon="-3.127806">
   <ele>972.00</ele>
   <time>2014-04-01T14:56:35Z</time>
  </trkpt>
  <trkpt lat="32.242430" lon="-3.127509">
   <ele>973.00</ele>
   <time>2014-04-01T14:56:44Z</time>
  </trkpt>
  <trkpt lat="32.242746" lon="-3.127326">
   <ele>972.00</ele>
   <time>2014-04-01T14:56:56Z</time>
  </trkpt>
  <trkpt lat="32.242993" lon="-3.127152">
   <ele>972.00</ele>
   <time>2014-04-01T14:57:01Z</time>
  </trkpt>
  <trkpt lat="32.243234" lon="-3.127011">
   <ele>971.00</ele>
   <time>2014-04-01T14:57:07Z</time>
  </trkpt>
  <trkpt lat="32.243399" lon="-3.126829">
   <ele>971.00</ele>
   <time>2014-04-01T14:57:11Z</time>
  </trkpt>
  <trkpt lat="32.244174" lon="-3.125900">
   <ele>970.00</ele>
   <time>2014-04-01T14:57:26Z</time>
  </trkpt>
  <trkpt lat="32.244316" lon="-3.125748">
   <ele>969.00</ele>
   <time>2014-04-01T14:57:30Z</time>
  </trkpt>
  <trkpt lat="32.244483" lon="-3.125839">
   <ele>969.00</ele>
   <time>2014-04-01T14:57:36Z</time>
  </trkpt>
  <trkpt lat="32.244617" lon="-3.125996">
   <ele>969.00</ele>
   <time>2014-04-01T14:57:40Z</time>
  </trkpt>
  <trkpt lat="32.244787" lon="-3.126123">
   <ele>970.00</ele>
   <time>2014-04-01T14:57:44Z</time>
  </trkpt>
  <trkpt lat="32.244951" lon="-3.126236">
   <ele>970.00</ele>
   <time>2014-04-01T14:57:48Z</time>
  </trkpt>
  <trkpt lat="32.245160" lon="-3.126319">
   <ele>970.00</ele>
   <time>2014-04-01T14:57:53Z</time>
  </trkpt>
  <trkpt lat="32.245332" lon="-3.126436">
   <ele>969.00</ele>
   <time>2014-04-01T14:57:57Z</time>
  </trkpt>
  <trkpt lat="32.245506" lon="-3.126559">
   <ele>969.00</ele>
   <time>2014-04-01T14:58:01Z</time>
  </trkpt>
  <trkpt lat="32.245661" lon="-3.126690">
   <ele>970.00</ele>
   <time>2014-04-01T14:58:05Z</time>
  </trkpt>
  <trkpt lat="32.245844" lon="-3.126847">
   <ele>970.00</ele>
   <time>2014-04-01T14:58:10Z</time>
  </trkpt>
  <trkpt lat="32.245946" lon="-3.127042">
   <ele>970.00</ele>
   <time>2014-04-01T14:58:14Z</time>
  </trkpt>
  <trkpt lat="32.245973" lon="-3.127324">
   <ele>971.00</ele>
   <time>2014-04-01T14:58:18Z</time>
  </trkpt>
  <trkpt lat="32.245990" lon="-3.127677">
   <ele>972.00</ele>
   <time>2014-04-01T14:58:23Z</time>
  </trkpt>
  <trkpt lat="32.246008" lon="-3.127960">
   <ele>972.00</ele>
   <time>2014-04-01T14:58:27Z</time>
  </trkpt>
  <trkpt lat="32.246039" lon="-3.128222">
   <ele>973.00</ele>
   <time>2014-04-01T14:58:31Z</time>
  </trkpt>
  <trkpt lat="32.246075" lon="-3.128471">
   <ele>973.00</ele>
   <time>2014-04-01T14:58:35Z</time>
  </trkpt>
  <trkpt lat="32.246150" lon="-3.128873">
   <ele>973.00</ele>
   <time>2014-04-01T14:58:41Z</time>
  </trkpt>
  <trkpt lat="32.246216" lon="-3.129273">
   <ele>973.00</ele>
   <time>2014-04-01T14:58:47Z</time>
  </trkpt>
  <trkpt lat="32.246296" lon="-3.129683">
   <ele>972.00</ele>
   <time>2014-04-01T14:58:54Z</time>
  </trkpt>
  <trkpt lat="32.246344" lon="-3.129892">
   <ele>972.00</ele>
   <time>2014-04-01T14:58:58Z</time>
  </trkpt>
  <trkpt lat="32.246397" lon="-3.130114">
   <ele>972.00</ele>
   <time>2014-04-01T14:59:02Z</time>
  </trkpt>
  <trkpt lat="32.246459" lon="-3.130360">
   <ele>972.00</ele>
   <time>2014-04-01T14:59:06Z</time>
  </trkpt>
  <trkpt lat="32.246521" lon="-3.130599">
   <ele>973.00</ele>
   <time>2014-04-01T14:59:11Z</time>
  </trkpt>
  <trkpt lat="32.246555" lon="-3.130828">
   <ele>973.00</ele>
   <time>2014-04-01T14:59:15Z</time>
  </trkpt>
  <trkpt lat="32.246636" lon="-3.131049">
   <ele>973.00</ele>
   <time>2014-04-01T14:59:19Z</time>
  </trkpt>
  <trkpt lat="32.246743" lon="-3.131243">
   <ele>973.00</ele>
   <time>2014-04-01T14:59:23Z</time>
  </trkpt>
  <trkpt lat="32.246832" lon="-3.131511">
   <ele>974.00</ele>
   <time>2014-04-01T14:59:28Z</time>
  </trkpt>
  <trkpt lat="32.246967" lon="-3.131716">
   <ele>974.00</ele>
   <time>2014-04-01T14:59:32Z</time>
  </trkpt>
  <trkpt lat="32.247156" lon="-3.131861">
   <ele>974.00</ele>
   <time>2014-04-01T14:59:36Z</time>
  </trkpt>
  <trkpt lat="32.247342" lon="-3.131999">
   <ele>975.00</ele>
   <time>2014-04-01T14:59:40Z</time>
  </trkpt>
  <trkpt lat="32.247566" lon="-3.132212">
   <ele>975.00</ele>
   <time>2014-04-01T14:59:45Z</time>
  </trkpt>
  <trkpt lat="32.247792" lon="-3.132299">
   <ele>974.00</ele>
   <time>2014-04-01T14:59:49Z</time>
  </trkpt>
  <trkpt lat="32.247965" lon="-3.132397">
   <ele>975.00</ele>
   <time>2014-04-01T14:59:52Z</time>
  </trkpt>
  <trkpt lat="32.248092" lon="-3.132574">
   <ele>975.00</ele>
   <time>2014-04-01T14:59:55Z</time>
  </trkpt>
  <trkpt lat="32.248178" lon="-3.132809">
   <ele>975.00</ele>
   <time>2014-04-01T14:59:58Z</time>
  </trkpt>
  <trkpt lat="32.248299" lon="-3.133009">
   <ele>976.00</ele>
   <time>2014-04-01T15:00:01Z</time>
  </trkpt>
  <trkpt lat="32.248401" lon="-3.133192">
   <ele>976.00</ele>
   <time>2014-04-01T15:00:04Z</time>
  </trkpt>
  <trkpt lat="32.248525" lon="-3.133481">
   <ele>976.00</ele>
   <time>2014-04-01T15:00:09Z</time>
  </trkpt>
  <trkpt lat="32.248679" lon="-3.133640">
   <ele>976.00</ele>
   <time>2014-04-01T15:00:13Z</time>
  </trkpt>
  <trkpt lat="32.248825" lon="-3.133832">
   <ele>976.00</ele>
   <time>2014-04-01T15:00:17Z</time>
  </trkpt>
  <trkpt lat="32.248902" lon="-3.134026">
   <ele>976.00</ele>
   <time>2014-04-01T15:00:20Z</time>
  </trkpt>
  <trkpt lat="32.249010" lon="-3.134206">
   <ele>977.00</ele>
   <time>2014-04-01T15:00:23Z</time>
  </trkpt>
  <trkpt lat="32.249125" lon="-3.134381">
   <ele>977.00</ele>
   <time>2014-04-01T15:00:26Z</time>
  </trkpt>
  <trkpt lat="32.249203" lon="-3.134582">
   <ele>977.00</ele>
   <time>2014-04-01T15:00:29Z</time>
  </trkpt>
  <trkpt lat="32.249330" lon="-3.134972">
   <ele>978.00</ele>
   <time>2014-04-01T15:00:35Z</time>
  </trkpt>
  <trkpt lat="32.249408" lon="-3.135231">
   <ele>978.00</ele>
   <time>2014-04-01T15:00:39Z</time>
  </trkpt>
  <trkpt lat="32.249564" lon="-3.135670">
   <ele>979.00</ele>
   <time>2014-04-01T15:00:46Z</time>
  </trkpt>
  <trkpt lat="32.249605" lon="-3.135914">
   <ele>978.00</ele>
   <time>2014-04-01T15:00:50Z</time>
  </trkpt>
  <trkpt lat="32.249632" lon="-3.136174">
   <ele>979.00</ele>
   <time>2014-04-01T15:00:54Z</time>
  </trkpt>
  <trkpt lat="32.249666" lon="-3.136426">
   <ele>979.00</ele>
   <time>2014-04-01T15:00:58Z</time>
  </trkpt>
  <trkpt lat="32.249691" lon="-3.136658">
   <ele>979.00</ele>
   <time>2014-04-01T15:01:02Z</time>
  </trkpt>
  <trkpt lat="32.249710" lon="-3.136884">
   <ele>979.00</ele>
   <time>2014-04-01T15:01:06Z</time>
  </trkpt>
  <trkpt lat="32.249755" lon="-3.137098">
   <ele>979.00</ele>
   <time>2014-04-01T15:01:10Z</time>
  </trkpt>
  <trkpt lat="32.249780" lon="-3.137213">
   <ele>980.00</ele>
   <time>2014-04-01T15:01:25Z</time>
  </trkpt>
  <trkpt lat="32.249630" lon="-3.137189">
   <ele>980.00</ele>
   <time>2014-04-01T15:01:38Z</time>
  </trkpt>
  <trkpt lat="32.249435" lon="-3.137093">
   <ele>979.00</ele>
   <time>2014-04-01T15:01:46Z</time>
  </trkpt>
  <trkpt lat="32.249301" lon="-3.136935">
   <ele>979.00</ele>
   <time>2014-04-01T15:01:51Z</time>
  </trkpt>
  <trkpt lat="32.249155" lon="-3.136743">
   <ele>978.00</ele>
   <time>2014-04-01T15:01:56Z</time>
  </trkpt>
  <trkpt lat="32.248962" lon="-3.136531">
   <ele>977.00</ele>
   <time>2014-04-01T15:02:02Z</time>
  </trkpt>
  <trkpt lat="32.248777" lon="-3.136453">
   <ele>977.00</ele>
   <time>2014-04-01T15:02:07Z</time>
  </trkpt>
  <trkpt lat="32.248593" lon="-3.136456">
   <ele>977.00</ele>
   <time>2014-04-01T15:02:11Z</time>
  </trkpt>
  <trkpt lat="32.248410" lon="-3.136492">
   <ele>978.00</ele>
   <time>2014-04-01T15:02:15Z</time>
  </trkpt>
  <trkpt lat="32.248215" lon="-3.136520">
   <ele>978.00</ele>
   <time>2014-04-01T15:02:19Z</time>
  </trkpt>
  <trkpt lat="32.247991" lon="-3.136503">
   <ele>978.00</ele>
   <time>2014-04-01T15:02:23Z</time>
  </trkpt>
  <trkpt lat="32.247502" lon="-3.136438">
   <ele>978.00</ele>
   <time>2014-04-01T15:02:32Z</time>
  </trkpt>
  <trkpt lat="32.247301" lon="-3.136408">
   <ele>978.00</ele>
   <time>2014-04-01T15:02:36Z</time>
  </trkpt>
  <trkpt lat="32.247096" lon="-3.136421">
   <ele>979.00</ele>
   <time>2014-04-01T15:02:40Z</time>
  </trkpt>
  <trkpt lat="32.246882" lon="-3.136423">
   <ele>980.00</ele>
   <time>2014-04-01T15:02:45Z</time>
  </trkpt>
  <trkpt lat="32.246691" lon="-3.136461">
   <ele>979.00</ele>
   <time>2014-04-01T15:02:51Z</time>
  </trkpt>
  <trkpt lat="32.246767" lon="-3.136335">
   <ele>979.00</ele>
   <time>2014-04-01T15:03:02Z</time>
  </trkpt>
  <trkpt lat="32.246944" lon="-3.136366">
   <ele>978.00</ele>
   <time>2014-04-01T15:03:07Z</time>
  </trkpt>
  <trkpt lat="32.247155" lon="-3.136416">
   <ele>978.00</ele>
   <time>2014-04-01T15:03:13Z</time>
  </trkpt>
  <trkpt lat="32.247344" lon="-3.136474">
   <ele>978.00</ele>
   <time>2014-04-01T15:03:17Z</time>
  </trkpt>
  <trkpt lat="32.247509" lon="-3.136599">
   <ele>979.00</ele>
   <time>2014-04-01T15:03:21Z</time>
  </trkpt>
  <trkpt lat="32.247747" lon="-3.136794">
   <ele>979.00</ele>
   <time>2014-04-01T15:03:27Z</time>
  </trkpt>
  <trkpt lat="32.247794" lon="-3.137007">
   <ele>979.00</ele>
   <time>2014-04-01T15:03:32Z</time>
  </trkpt>
  <trkpt lat="32.247634" lon="-3.137144">
   <ele>978.00</ele>
   <time>2014-04-01T15:03:36Z</time>
  </trkpt>
  <trkpt lat="32.247491" lon="-3.137308">
   <ele>979.00</ele>
   <time>2014-04-01T15:03:40Z</time>
  </trkpt>
  <trkpt lat="32.247380" lon="-3.137498">
   <ele>979.00</ele>
   <time>2014-04-01T15:03:44Z</time>
  </trkpt>
  <trkpt lat="32.247262" lon="-3.137702">
   <ele>980.00</ele>
   <time>2014-04-01T15:03:48Z</time>
  </trkpt>
  <trkpt lat="32.247121" lon="-3.137892">
   <ele>980.00</ele>
   <time>2014-04-01T15:03:52Z</time>
  </trkpt>
  <trkpt lat="32.247050" lon="-3.138120">
   <ele>980.00</ele>
   <time>2014-04-01T15:03:57Z</time>
  </trkpt>
  <trkpt lat="32.247097" lon="-3.138325">
   <ele>980.00</ele>
   <time>2014-04-01T15:04:01Z</time>
  </trkpt>
  <trkpt lat="32.247177" lon="-3.138544">
   <ele>980.00</ele>
   <time>2014-04-01T15:04:05Z</time>
  </trkpt>
  <trkpt lat="32.247285" lon="-3.138748">
   <ele>980.00</ele>
   <time>2014-04-01T15:04:09Z</time>
  </trkpt>
  <trkpt lat="32.247299" lon="-3.138995">
   <ele>980.00</ele>
   <time>2014-04-01T15:04:13Z</time>
  </trkpt>
  <trkpt lat="32.247218" lon="-3.139229">
   <ele>980.00</ele>
   <time>2014-04-01T15:04:18Z</time>
  </trkpt>
  <trkpt lat="32.247003" lon="-3.139277">
   <ele>979.00</ele>
   <time>2014-04-01T15:04:23Z</time>
  </trkpt>
  <trkpt lat="32.246804" lon="-3.139224">
   <ele>979.00</ele>
   <time>2014-04-01T15:04:28Z</time>
  </trkpt>
  <trkpt lat="32.246616" lon="-3.139290">
   <ele>979.00</ele>
   <time>2014-04-01T15:04:34Z</time>
  </trkpt>
  <trkpt lat="32.246347" lon="-3.139404">
   <ele>978.00</ele>
   <time>2014-04-01T15:04:40Z</time>
  </trkpt>
  <trkpt lat="32.246145" lon="-3.139496">
   <ele>978.00</ele>
   <time>2014-04-01T15:04:44Z</time>
  </trkpt>
  <trkpt lat="32.245975" lon="-3.139578">
   <ele>977.00</ele>
   <time>2014-04-01T15:04:47Z</time>
  </trkpt>
  <trkpt lat="32.245551" lon="-3.139772">
   <ele>976.00</ele>
   <time>2014-04-01T15:04:54Z</time>
  </trkpt>
  <trkpt lat="32.245363" lon="-3.139856">
   <ele>976.00</ele>
   <time>2014-04-01T15:04:57Z</time>
  </trkpt>
  <trkpt lat="32.245173" lon="-3.139936">
   <ele>976.00</ele>
   <time>2014-04-01T15:05:00Z</time>
  </trkpt>
  <trkpt lat="32.244979" lon="-3.140016">
   <ele>976.00</ele>
   <time>2014-04-01T15:05:03Z</time>
  </trkpt>
  <trkpt lat="32.244527" lon="-3.140228">
   <ele>976.00</ele>
   <time>2014-04-01T15:05:10Z</time>
  </trkpt>
  <trkpt lat="32.244176" lon="-3.140417">
   <ele>975.00</ele>
   <time>2014-04-01T15:05:16Z</time>
  </trkpt>
  <trkpt lat="32.243964" lon="-3.140509">
   <ele>974.00</ele>
   <time>2014-04-01T15:05:20Z</time>
  </trkpt>
  <trkpt lat="32.243778" lon="-3.140641">
   <ele>973.00</ele>
   <time>2014-04-01T15:05:24Z</time>
  </trkpt>
  <trkpt lat="32.243572" lon="-3.140782">
   <ele>973.00</ele>
   <time>2014-04-01T15:05:28Z</time>
  </trkpt>
  <trkpt lat="32.243405" lon="-3.140887">
   <ele>973.00</ele>
   <time>2014-04-01T15:05:31Z</time>
  </trkpt>
  <trkpt lat="32.243243" lon="-3.140988">
   <ele>973.00</ele>
   <time>2014-04-01T15:05:34Z</time>
  </trkpt>
  <trkpt lat="32.243082" lon="-3.141090">
   <ele>972.00</ele>
   <time>2014-04-01T15:05:38Z</time>
  </trkpt>
  <trkpt lat="32.242979" lon="-3.141281">
   <ele>972.00</ele>
   <time>2014-04-01T15:05:44Z</time>
  </trkpt>
  <trkpt lat="32.242848" lon="-3.141449">
   <ele>974.00</ele>
   <time>2014-04-01T15:05:50Z</time>
  </trkpt>
  <trkpt lat="32.242716" lon="-3.141613">
   <ele>975.00</ele>
   <time>2014-04-01T15:05:55Z</time>
  </trkpt>
  <trkpt lat="32.242518" lon="-3.141747">
   <ele>976.00</ele>
   <time>2014-04-01T15:06:00Z</time>
  </trkpt>
  <trkpt lat="32.242323" lon="-3.141831">
   <ele>977.00</ele>
   <time>2014-04-01T15:06:04Z</time>
  </trkpt>
  <trkpt lat="32.242125" lon="-3.141944">
   <ele>977.00</ele>
   <time>2014-04-01T15:06:08Z</time>
  </trkpt>
  <trkpt lat="32.241875" lon="-3.142136">
   <ele>978.00</ele>
   <time>2014-04-01T15:06:14Z</time>
  </trkpt>
  <trkpt lat="32.241712" lon="-3.142313">
   <ele>977.00</ele>
   <time>2014-04-01T15:06:18Z</time>
  </trkpt>
  <trkpt lat="32.241546" lon="-3.142502">
   <ele>978.00</ele>
   <time>2014-04-01T15:06:22Z</time>
  </trkpt>
  <trkpt lat="32.241356" lon="-3.142660">
   <ele>979.00</ele>
   <time>2014-04-01T15:06:26Z</time>
  </trkpt>
  <trkpt lat="32.241265" lon="-3.142863">
   <ele>979.00</ele>
   <time>2014-04-01T15:06:29Z</time>
  </trkpt>
  <trkpt lat="32.241228" lon="-3.143094">
   <ele>979.00</ele>
   <time>2014-04-01T15:06:32Z</time>
  </trkpt>
  <trkpt lat="32.241174" lon="-3.143298">
   <ele>979.00</ele>
   <time>2014-04-01T15:06:35Z</time>
  </trkpt>
  <trkpt lat="32.241042" lon="-3.143480">
   <ele>979.00</ele>
   <time>2014-04-01T15:06:38Z</time>
  </trkpt>
  <trkpt lat="32.240891" lon="-3.143667">
   <ele>980.00</ele>
   <time>2014-04-01T15:06:41Z</time>
  </trkpt>
  <trkpt lat="32.240708" lon="-3.143852">
   <ele>981.00</ele>
   <time>2014-04-01T15:06:44Z</time>
  </trkpt>
  <trkpt lat="32.240456" lon="-3.144053">
   <ele>982.00</ele>
   <time>2014-04-01T15:06:48Z</time>
  </trkpt>
  <trkpt lat="32.240303" lon="-3.144223">
   <ele>982.00</ele>
   <time>2014-04-01T15:06:51Z</time>
  </trkpt>
  <trkpt lat="32.240144" lon="-3.144380">
   <ele>983.00</ele>
   <time>2014-04-01T15:06:54Z</time>
  </trkpt>
  <trkpt lat="32.239983" lon="-3.144482">
   <ele>983.00</ele>
   <time>2014-04-01T15:06:57Z</time>
  </trkpt>
  <trkpt lat="32.239804" lon="-3.144510">
   <ele>983.00</ele>
   <time>2014-04-01T15:07:00Z</time>
  </trkpt>
  <trkpt lat="32.239594" lon="-3.144520">
   <ele>983.00</ele>
   <time>2014-04-01T15:07:03Z</time>
  </trkpt>
  <trkpt lat="32.239372" lon="-3.144513">
   <ele>983.00</ele>
   <time>2014-04-01T15:07:06Z</time>
  </trkpt>
  <trkpt lat="32.239168" lon="-3.144406">
   <ele>982.00</ele>
   <time>2014-04-01T15:07:09Z</time>
  </trkpt>
  <trkpt lat="32.238793" lon="-3.144133">
   <ele>981.00</ele>
   <time>2014-04-01T15:07:14Z</time>
  </trkpt>
  <trkpt lat="32.238262" lon="-3.143805">
   <ele>981.00</ele>
   <time>2014-04-01T15:07:20Z</time>
  </trkpt>
  <trkpt lat="32.238083" lon="-3.143714">
   <ele>981.00</ele>
   <time>2014-04-01T15:07:22Z</time>
  </trkpt>
  <trkpt lat="32.237911" lon="-3.143618">
   <ele>981.00</ele>
   <time>2014-04-01T15:07:24Z</time>
  </trkpt>
  <trkpt lat="32.237661" lon="-3.143455">
   <ele>981.00</ele>
   <time>2014-04-01T15:07:27Z</time>
  </trkpt>
  <trkpt lat="32.237493" lon="-3.143357">
   <ele>982.00</ele>
   <time>2014-04-01T15:07:29Z</time>
  </trkpt>
  <trkpt lat="32.236624" lon="-3.142880">
   <ele>982.00</ele>
   <time>2014-04-01T15:07:40Z</time>
  </trkpt>
  <trkpt lat="32.236404" lon="-3.142790">
   <ele>982.00</ele>
   <time>2014-04-01T15:07:43Z</time>
  </trkpt>
  <trkpt lat="32.236182" lon="-3.142755">
   <ele>982.00</ele>
   <time>2014-04-01T15:07:46Z</time>
  </trkpt>
  <trkpt lat="32.235962" lon="-3.142725">
   <ele>982.00</ele>
   <time>2014-04-01T15:07:50Z</time>
  </trkpt>
  <trkpt lat="32.235827" lon="-3.142574">
   <ele>981.00</ele>
   <time>2014-04-01T15:07:56Z</time>
  </trkpt>
  <trkpt lat="32.235652" lon="-3.142535">
   <ele>982.00</ele>
   <time>2014-04-01T15:08:01Z</time>
  </trkpt>
  <trkpt lat="32.235444" lon="-3.142522">
   <ele>983.00</ele>
   <time>2014-04-01T15:08:05Z</time>
  </trkpt>
  <trkpt lat="32.235172" lon="-3.142526">
   <ele>983.00</ele>
   <time>2014-04-01T15:08:09Z</time>
  </trkpt>
  <trkpt lat="32.234618" lon="-3.142559">
   <ele>984.00</ele>
   <time>2014-04-01T15:08:17Z</time>
  </trkpt>
  <trkpt lat="32.234388" lon="-3.142631">
   <ele>984.00</ele>
   <time>2014-04-01T15:08:20Z</time>
  </trkpt>
  <trkpt lat="32.233979" lon="-3.142820">
   <ele>984.00</ele>
   <time>2014-04-01T15:08:25Z</time>
  </trkpt>
  <trkpt lat="32.233720" lon="-3.142884">
   <ele>984.00</ele>
   <time>2014-04-01T15:08:28Z</time>
  </trkpt>
  <trkpt lat="32.233459" lon="-3.142895">
   <ele>983.00</ele>
   <time>2014-04-01T15:08:31Z</time>
  </trkpt>
  <trkpt lat="32.233188" lon="-3.142888">
   <ele>983.00</ele>
   <time>2014-04-01T15:08:34Z</time>
  </trkpt>
  <trkpt lat="32.232939" lon="-3.142817">
   <ele>984.00</ele>
   <time>2014-04-01T15:08:37Z</time>
  </trkpt>
  <trkpt lat="32.232638" lon="-3.142640">
   <ele>984.00</ele>
   <time>2014-04-01T15:08:41Z</time>
  </trkpt>
  <trkpt lat="32.232432" lon="-3.142466">
   <ele>984.00</ele>
   <time>2014-04-01T15:08:44Z</time>
  </trkpt>
  <trkpt lat="32.232242" lon="-3.142291">
   <ele>984.00</ele>
   <time>2014-04-01T15:08:47Z</time>
  </trkpt>
  <trkpt lat="32.232084" lon="-3.142121">
   <ele>984.00</ele>
   <time>2014-04-01T15:08:50Z</time>
  </trkpt>
  <trkpt lat="32.231953" lon="-3.141923">
   <ele>984.00</ele>
   <time>2014-04-01T15:08:53Z</time>
  </trkpt>
  <trkpt lat="32.231810" lon="-3.141713">
   <ele>985.00</ele>
   <time>2014-04-01T15:08:56Z</time>
  </trkpt>
  <trkpt lat="32.231657" lon="-3.141515">
   <ele>985.00</ele>
   <time>2014-04-01T15:08:59Z</time>
  </trkpt>
  <trkpt lat="32.231477" lon="-3.141390">
   <ele>985.00</ele>
   <time>2014-04-01T15:09:02Z</time>
  </trkpt>
  <trkpt lat="32.231252" lon="-3.141400">
   <ele>983.00</ele>
   <time>2014-04-01T15:09:06Z</time>
  </trkpt>
  <trkpt lat="32.231029" lon="-3.141410">
   <ele>984.00</ele>
   <time>2014-04-01T15:09:10Z</time>
  </trkpt>
  <trkpt lat="32.230801" lon="-3.141336">
   <ele>985.00</ele>
   <time>2014-04-01T15:09:14Z</time>
  </trkpt>
  <trkpt lat="32.230658" lon="-3.141151">
   <ele>985.00</ele>
   <time>2014-04-01T15:09:17Z</time>
  </trkpt>
  <trkpt lat="32.230544" lon="-3.140879">
   <ele>985.00</ele>
   <time>2014-04-01T15:09:20Z</time>
  </trkpt>
  <trkpt lat="32.230482" lon="-3.140676">
   <ele>985.00</ele>
   <time>2014-04-01T15:09:22Z</time>
  </trkpt>
  <trkpt lat="32.230389" lon="-3.140384">
   <ele>985.00</ele>
   <time>2014-04-01T15:09:25Z</time>
  </trkpt>
  <trkpt lat="32.230290" lon="-3.140125">
   <ele>985.00</ele>
   <time>2014-04-01T15:09:28Z</time>
  </trkpt>
  <trkpt lat="32.230208" lon="-3.139899">
   <ele>984.00</ele>
   <time>2014-04-01T15:09:31Z</time>
  </trkpt>
  <trkpt lat="32.230075" lon="-3.139683">
   <ele>984.00</ele>
   <time>2014-04-01T15:09:35Z</time>
  </trkpt>
  <trkpt lat="32.230004" lon="-3.139454">
   <ele>984.00</ele>
   <time>2014-04-01T15:09:38Z</time>
  </trkpt>
  <trkpt lat="32.229959" lon="-3.139145">
   <ele>984.00</ele>
   <time>2014-04-01T15:09:41Z</time>
  </trkpt>
  <trkpt lat="32.229943" lon="-3.138925">
   <ele>984.00</ele>
   <time>2014-04-01T15:09:43Z</time>
  </trkpt>
  <trkpt lat="32.229919" lon="-3.138708">
   <ele>984.00</ele>
   <time>2014-04-01T15:09:45Z</time>
  </trkpt>
  <trkpt lat="32.229863" lon="-3.138484">
   <ele>983.00</ele>
   <time>2014-04-01T15:09:47Z</time>
  </trkpt>
  <trkpt lat="32.229780" lon="-3.138254">
   <ele>983.00</ele>
   <time>2014-04-01T15:09:49Z</time>
  </trkpt>
  <trkpt lat="32.229584" lon="-3.137773">
   <ele>983.00</ele>
   <time>2014-04-01T15:09:53Z</time>
  </trkpt>
  <trkpt lat="32.229379" lon="-3.137257">
   <ele>983.00</ele>
   <time>2014-04-01T15:09:57Z</time>
  </trkpt>
  <trkpt lat="32.229263" lon="-3.136990">
   <ele>983.00</ele>
   <time>2014-04-01T15:09:59Z</time>
  </trkpt>
  <trkpt lat="32.229132" lon="-3.136729">
   <ele>983.00</ele>
   <time>2014-04-01T15:10:01Z</time>
  </trkpt>
  <trkpt lat="32.229011" lon="-3.136463">
   <ele>983.00</ele>
   <time>2014-04-01T15:10:03Z</time>
  </trkpt>
  <trkpt lat="32.228539" lon="-3.135183">
   <ele>982.00</ele>
   <time>2014-04-01T15:10:12Z</time>
  </trkpt>
  <trkpt lat="32.228428" lon="-3.134935">
   <ele>982.00</ele>
   <time>2014-04-01T15:10:14Z</time>
  </trkpt>
  <trkpt lat="32.228336" lon="-3.134673">
   <ele>982.00</ele>
   <time>2014-04-01T15:10:16Z</time>
  </trkpt>
  <trkpt lat="32.228198" lon="-3.134265">
   <ele>981.00</ele>
   <time>2014-04-01T15:10:19Z</time>
  </trkpt>
  <trkpt lat="32.227953" lon="-3.133591">
   <ele>981.00</ele>
   <time>2014-04-01T15:10:24Z</time>
  </trkpt>
  <trkpt lat="32.227837" lon="-3.133350">
   <ele>981.00</ele>
   <time>2014-04-01T15:10:26Z</time>
  </trkpt>
  <trkpt lat="32.227549" lon="-3.132812">
   <ele>983.00</ele>
   <time>2014-04-01T15:10:31Z</time>
  </trkpt>
  <trkpt lat="32.227372" lon="-3.132506">
   <ele>984.00</ele>
   <time>2014-04-01T15:10:34Z</time>
  </trkpt>
  <trkpt lat="32.227281" lon="-3.132313">
   <ele>985.00</ele>
   <time>2014-04-01T15:10:36Z</time>
  </trkpt>
  <trkpt lat="32.227202" lon="-3.132043">
   <ele>985.00</ele>
   <time>2014-04-01T15:10:39Z</time>
  </trkpt>
  <trkpt lat="32.227181" lon="-3.131736">
   <ele>984.00</ele>
   <time>2014-04-01T15:10:42Z</time>
  </trkpt>
  <trkpt lat="32.227241" lon="-3.131435">
   <ele>984.00</ele>
   <time>2014-04-01T15:10:45Z</time>
  </trkpt>
  <trkpt lat="32.227311" lon="-3.131232">
   <ele>984.00</ele>
   <time>2014-04-01T15:10:47Z</time>
  </trkpt>
  <trkpt lat="32.227403" lon="-3.131041">
   <ele>984.00</ele>
   <time>2014-04-01T15:10:49Z</time>
  </trkpt>
  <trkpt lat="32.227499" lon="-3.130855">
   <ele>984.00</ele>
   <time>2014-04-01T15:10:51Z</time>
  </trkpt>
  <trkpt lat="32.227641" lon="-3.130579">
   <ele>983.00</ele>
   <time>2014-04-01T15:10:54Z</time>
  </trkpt>
  <trkpt lat="32.227800" lon="-3.130328">
   <ele>983.00</ele>
   <time>2014-04-01T15:10:57Z</time>
  </trkpt>
  <trkpt lat="32.227961" lon="-3.130101">
   <ele>982.00</ele>
   <time>2014-04-01T15:11:00Z</time>
  </trkpt>
  <trkpt lat="32.228348" lon="-3.129654">
   <ele>981.00</ele>
   <time>2014-04-01T15:11:06Z</time>
  </trkpt>
  <trkpt lat="32.228551" lon="-3.129447">
   <ele>981.00</ele>
   <time>2014-04-01T15:11:09Z</time>
  </trkpt>
  <trkpt lat="32.228793" lon="-3.129152">
   <ele>981.00</ele>
   <time>2014-04-01T15:11:13Z</time>
  </trkpt>
  <trkpt lat="32.228925" lon="-3.128999">
   <ele>980.00</ele>
   <time>2014-04-01T15:11:15Z</time>
  </trkpt>
  <trkpt lat="32.229042" lon="-3.128831">
   <ele>980.00</ele>
   <time>2014-04-01T15:11:17Z</time>
  </trkpt>
  <trkpt lat="32.229212" lon="-3.128595">
   <ele>979.00</ele>
   <time>2014-04-01T15:11:20Z</time>
  </trkpt>
  <trkpt lat="32.229381" lon="-3.128391">
   <ele>979.00</ele>
   <time>2014-04-01T15:11:23Z</time>
  </trkpt>
  <trkpt lat="32.229540" lon="-3.128178">
   <ele>978.00</ele>
   <time>2014-04-01T15:11:26Z</time>
  </trkpt>
  <trkpt lat="32.229675" lon="-3.127969">
   <ele>977.00</ele>
   <time>2014-04-01T15:11:29Z</time>
  </trkpt>
  <trkpt lat="32.229699" lon="-3.127758">
   <ele>977.00</ele>
   <time>2014-04-01T15:11:32Z</time>
  </trkpt>
  <trkpt lat="32.229613" lon="-3.127527">
   <ele>976.00</ele>
   <time>2014-04-01T15:11:36Z</time>
  </trkpt>
  <trkpt lat="32.229470" lon="-3.127416">
   <ele>976.00</ele>
   <time>2014-04-01T15:11:41Z</time>
  </trkpt>
  <trkpt lat="32.229281" lon="-3.127440">
   <ele>976.00</ele>
   <time>2014-04-01T15:11:49Z</time>
  </trkpt>
  <trkpt lat="32.229093" lon="-3.127444">
   <ele>976.00</ele>
   <time>2014-04-01T15:11:55Z</time>
  </trkpt>
  <trkpt lat="32.228937" lon="-3.127577">
   <ele>976.00</ele>
   <time>2014-04-01T15:12:00Z</time>
  </trkpt>
  <trkpt lat="32.228750" lon="-3.127542">
   <ele>976.00</ele>
   <time>2014-04-01T15:12:05Z</time>
  </trkpt>
  <trkpt lat="32.228589" lon="-3.127378">
   <ele>977.00</ele>
   <time>2014-04-01T15:12:12Z</time>
  </trkpt>
  <trkpt lat="32.228410" lon="-3.127400">
   <ele>978.00</ele>
   <time>2014-04-01T15:12:17Z</time>
  </trkpt>
  <trkpt lat="32.228181" lon="-3.127344">
   <ele>980.00</ele>
   <time>2014-04-01T15:12:22Z</time>
  </trkpt>
  <trkpt lat="32.228008" lon="-3.127279">
   <ele>982.00</ele>
   <time>2014-04-01T15:12:25Z</time>
  </trkpt>
  <trkpt lat="32.227694" lon="-3.127136">
   <ele>982.00</ele>
   <time>2014-04-01T15:12:30Z</time>
  </trkpt>
  <trkpt lat="32.227292" lon="-3.126944">
   <ele>982.00</ele>
   <time>2014-04-01T15:12:36Z</time>
  </trkpt>
  <trkpt lat="32.226917" lon="-3.126722">
   <ele>982.00</ele>
   <time>2014-04-01T15:12:41Z</time>
  </trkpt>
  <trkpt lat="32.226670" lon="-3.126613">
   <ele>981.00</ele>
   <time>2014-04-01T15:12:44Z</time>
  </trkpt>
  <trkpt lat="32.226419" lon="-3.126532">
   <ele>982.00</ele>
   <time>2014-04-01T15:12:47Z</time>
  </trkpt>
  <trkpt lat="32.225815" lon="-3.126336">
   <ele>983.00</ele>
   <time>2014-04-01T15:12:54Z</time>
  </trkpt>
  <trkpt lat="32.225564" lon="-3.126259">
   <ele>983.00</ele>
   <time>2014-04-01T15:12:57Z</time>
  </trkpt>
  <trkpt lat="32.225350" lon="-3.126111">
   <ele>983.00</ele>
   <time>2014-04-01T15:13:00Z</time>
  </trkpt>
  <trkpt lat="32.225213" lon="-3.125927">
   <ele>983.00</ele>
   <time>2014-04-01T15:13:03Z</time>
  </trkpt>
  <trkpt lat="32.225097" lon="-3.125727">
   <ele>983.00</ele>
   <time>2014-04-01T15:13:07Z</time>
  </trkpt>
  <trkpt lat="32.224991" lon="-3.125490">
   <ele>985.00</ele>
   <time>2014-04-01T15:13:11Z</time>
  </trkpt>
  <trkpt lat="32.224838" lon="-3.125208">
   <ele>986.00</ele>
   <time>2014-04-01T15:13:16Z</time>
  </trkpt>
  <trkpt lat="32.224748" lon="-3.124985">
   <ele>986.00</ele>
   <time>2014-04-01T15:13:20Z</time>
  </trkpt>
  <trkpt lat="32.224667" lon="-3.124787">
   <ele>986.00</ele>
   <time>2014-04-01T15:13:35Z</time>
  </trkpt>
  <trkpt lat="32.224670" lon="-3.124792">
   <ele>986.00</ele>
   <time>2014-04-01T15:13:50Z</time>
  </trkpt>
  <trkpt lat="32.224576" lon="-3.124562">
   <ele>987.00</ele>
   <time>2014-04-01T15:14:01Z</time>
  </trkpt>
  <trkpt lat="32.224458" lon="-3.124346">
   <ele>987.00</ele>
   <time>2014-04-01T15:14:05Z</time>
  </trkpt>
  <trkpt lat="32.223885" lon="-3.123372">
   <ele>985.00</ele>
   <time>2014-04-01T15:14:19Z</time>
  </trkpt>
  <trkpt lat="32.223579" lon="-3.122799">
   <ele>985.00</ele>
   <time>2014-04-01T15:14:26Z</time>
  </trkpt>
  <trkpt lat="32.223407" lon="-3.122433">
   <ele>985.00</ele>
   <time>2014-04-01T15:14:30Z</time>
  </trkpt>
  <trkpt lat="32.223107" lon="-3.121758">
   <ele>984.00</ele>
   <time>2014-04-01T15:14:37Z</time>
  </trkpt>
  <trkpt lat="32.222826" lon="-3.121173">
   <ele>983.00</ele>
   <time>2014-04-01T15:14:43Z</time>
  </trkpt>
  <trkpt lat="32.222750" lon="-3.120970">
   <ele>983.00</ele>
   <time>2014-04-01T15:14:45Z</time>
  </trkpt>
  <trkpt lat="32.222252" lon="-3.119565">
   <ele>982.00</ele>
   <time>2014-04-01T15:14:58Z</time>
  </trkpt>
  <trkpt lat="32.222149" lon="-3.119256">
   <ele>981.00</ele>
   <time>2014-04-01T15:15:01Z</time>
  </trkpt>
  <trkpt lat="32.222053" lon="-3.118960">
   <ele>981.00</ele>
   <time>2014-04-01T15:15:04Z</time>
  </trkpt>
  <trkpt lat="32.222008" lon="-3.118747">
   <ele>981.00</ele>
   <time>2014-04-01T15:15:06Z</time>
  </trkpt>
  <trkpt lat="32.221955" lon="-3.118442">
   <ele>981.00</ele>
   <time>2014-04-01T15:15:09Z</time>
  </trkpt>
  <trkpt lat="32.221855" lon="-3.118054">
   <ele>980.00</ele>
   <time>2014-04-01T15:15:13Z</time>
  </trkpt>
  <trkpt lat="32.221792" lon="-3.117754">
   <ele>980.00</ele>
   <time>2014-04-01T15:15:16Z</time>
  </trkpt>
  <trkpt lat="32.221702" lon="-3.117458">
   <ele>979.00</ele>
   <time>2014-04-01T15:15:19Z</time>
  </trkpt>
  <trkpt lat="32.221537" lon="-3.116947">
   <ele>979.00</ele>
   <time>2014-04-01T15:15:24Z</time>
  </trkpt>
  <trkpt lat="32.221477" lon="-3.116671">
   <ele>978.00</ele>
   <time>2014-04-01T15:15:27Z</time>
  </trkpt>
  <trkpt lat="32.221327" lon="-3.115767">
   <ele>977.00</ele>
   <time>2014-04-01T15:15:37Z</time>
  </trkpt>
  <trkpt lat="32.221307" lon="-3.115530">
   <ele>977.00</ele>
   <time>2014-04-01T15:15:39Z</time>
  </trkpt>
  <trkpt lat="32.221291" lon="-3.115280">
   <ele>977.00</ele>
   <time>2014-04-01T15:15:41Z</time>
  </trkpt>
  <trkpt lat="32.221289" lon="-3.115022">
   <ele>976.00</ele>
   <time>2014-04-01T15:15:43Z</time>
  </trkpt>
  <trkpt lat="32.221300" lon="-3.114762">
   <ele>976.00</ele>
   <time>2014-04-01T15:15:45Z</time>
  </trkpt>
  <trkpt lat="32.221328" lon="-3.114275">
   <ele>975.00</ele>
   <time>2014-04-01T15:15:49Z</time>
  </trkpt>
  <trkpt lat="32.221345" lon="-3.113570">
   <ele>974.00</ele>
   <time>2014-04-01T15:15:55Z</time>
  </trkpt>
  <trkpt lat="32.221365" lon="-3.113350">
   <ele>974.00</ele>
   <time>2014-04-01T15:15:57Z</time>
  </trkpt>
  <trkpt lat="32.221376" lon="-3.113136">
   <ele>974.00</ele>
   <time>2014-04-01T15:15:59Z</time>
  </trkpt>
  <trkpt lat="32.221387" lon="-3.112914">
   <ele>973.00</ele>
   <time>2014-04-01T15:16:01Z</time>
  </trkpt>
  <trkpt lat="32.221420" lon="-3.112679">
   <ele>973.00</ele>
   <time>2014-04-01T15:16:03Z</time>
  </trkpt>
  <trkpt lat="32.221468" lon="-3.112433">
   <ele>972.00</ele>
   <time>2014-04-01T15:16:05Z</time>
  </trkpt>
  <trkpt lat="32.221582" lon="-3.111936">
   <ele>972.00</ele>
   <time>2014-04-01T15:16:09Z</time>
  </trkpt>
  <trkpt lat="32.221704" lon="-3.111472">
   <ele>971.00</ele>
   <time>2014-04-01T15:16:13Z</time>
  </trkpt>
  <trkpt lat="32.221802" lon="-3.111140">
   <ele>970.00</ele>
   <time>2014-04-01T15:16:16Z</time>
  </trkpt>
  <trkpt lat="32.221983" lon="-3.110617">
   <ele>969.00</ele>
   <time>2014-04-01T15:16:21Z</time>
  </trkpt>
  <trkpt lat="32.222127" lon="-3.110250">
   <ele>969.00</ele>
   <time>2014-04-01T15:16:25Z</time>
  </trkpt>
  <trkpt lat="32.222247" lon="-3.110010">
   <ele>968.00</ele>
   <time>2014-04-01T15:16:28Z</time>
  </trkpt>
  <trkpt lat="32.222301" lon="-3.109765">
   <ele>968.00</ele>
   <time>2014-04-01T15:16:31Z</time>
  </trkpt>
  <trkpt lat="32.222254" lon="-3.109504">
   <ele>966.00</ele>
   <time>2014-04-01T15:16:35Z</time>
  </trkpt>
  <trkpt lat="32.222113" lon="-3.109231">
   <ele>965.00</ele>
   <time>2014-04-01T15:16:40Z</time>
  </trkpt>
  <trkpt lat="32.222034" lon="-3.109037">
   <ele>964.00</ele>
   <time>2014-04-01T15:16:44Z</time>
  </trkpt>
  <trkpt lat="32.221987" lon="-3.108805">
   <ele>965.00</ele>
   <time>2014-04-01T15:16:49Z</time>
  </trkpt>
  <trkpt lat="32.221892" lon="-3.108629">
   <ele>966.00</ele>
   <time>2014-04-01T15:16:56Z</time>
  </trkpt>
  <trkpt lat="32.221850" lon="-3.108704">
   <ele>967.00</ele>
   <time>2014-04-01T15:17:09Z</time>
  </trkpt>
  <trkpt lat="32.221593" lon="-3.108641">
   <ele>968.00</ele>
   <time>2014-04-01T15:17:15Z</time>
  </trkpt>
  <trkpt lat="32.221383" lon="-3.108613">
   <ele>969.00</ele>
   <time>2014-04-01T15:17:20Z</time>
  </trkpt>
  <trkpt lat="32.221152" lon="-3.108594">
   <ele>970.00</ele>
   <time>2014-04-01T15:17:25Z</time>
  </trkpt>
  <trkpt lat="32.220954" lon="-3.108512">
   <ele>970.00</ele>
   <time>2014-04-01T15:17:29Z</time>
  </trkpt>
  <trkpt lat="32.220783" lon="-3.108496">
   <ele>970.00</ele>
   <time>2014-04-01T15:17:34Z</time>
  </trkpt>
  <trkpt lat="32.220697" lon="-3.108681">
   <ele>970.00</ele>
   <time>2014-04-01T15:17:39Z</time>
  </trkpt>
  <trkpt lat="32.220773" lon="-3.108899">
   <ele>970.00</ele>
   <time>2014-04-01T15:17:45Z</time>
  </trkpt>
  <trkpt lat="32.220594" lon="-3.108894">
   <ele>969.00</ele>
   <time>2014-04-01T15:17:53Z</time>
  </trkpt>
  <trkpt lat="32.220432" lon="-3.108799">
   <ele>969.00</ele>
   <time>2014-04-01T15:18:00Z</time>
  </trkpt>
  <trkpt lat="32.220262" lon="-3.108656">
   <ele>968.00</ele>
   <time>2014-04-01T15:18:06Z</time>
  </trkpt>
  <trkpt lat="32.220122" lon="-3.108485">
   <ele>969.00</ele>
   <time>2014-04-01T15:18:12Z</time>
  </trkpt>
  <trkpt lat="32.219955" lon="-3.108350">
   <ele>971.00</ele>
   <time>2014-04-01T15:18:18Z</time>
  </trkpt>
  <trkpt lat="32.219724" lon="-3.108312">
   <ele>973.00</ele>
   <time>2014-04-01T15:18:23Z</time>
  </trkpt>
  <trkpt lat="32.219500" lon="-3.108299">
   <ele>973.00</ele>
   <time>2014-04-01T15:18:27Z</time>
  </trkpt>
  <trkpt lat="32.219292" lon="-3.108234">
   <ele>973.00</ele>
   <time>2014-04-01T15:18:31Z</time>
  </trkpt>
  <trkpt lat="32.219093" lon="-3.108099">
   <ele>973.00</ele>
   <time>2014-04-01T15:18:35Z</time>
  </trkpt>
  <trkpt lat="32.218948" lon="-3.107953">
   <ele>973.00</ele>
   <time>2014-04-01T15:18:38Z</time>
  </trkpt>
  <trkpt lat="32.218788" lon="-3.107801">
   <ele>973.00</ele>
   <time>2014-04-01T15:18:41Z</time>
  </trkpt>
  <trkpt lat="32.218612" lon="-3.107645">
   <ele>973.00</ele>
   <time>2014-04-01T15:18:44Z</time>
  </trkpt>
  <trkpt lat="32.218415" lon="-3.107531">
   <ele>973.00</ele>
   <time>2014-04-01T15:18:47Z</time>
  </trkpt>
  <trkpt lat="32.218126" lon="-3.107390">
   <ele>974.00</ele>
   <time>2014-04-01T15:18:51Z</time>
  </trkpt>
  <trkpt lat="32.217887" lon="-3.107254">
   <ele>974.00</ele>
   <time>2014-04-01T15:18:54Z</time>
  </trkpt>
  <trkpt lat="32.217726" lon="-3.107139">
   <ele>974.00</ele>
   <time>2014-04-01T15:18:56Z</time>
  </trkpt>
  <trkpt lat="32.217568" lon="-3.107011">
   <ele>974.00</ele>
   <time>2014-04-01T15:18:58Z</time>
  </trkpt>
  <trkpt lat="32.217421" lon="-3.106875">
   <ele>974.00</ele>
   <time>2014-04-01T15:19:00Z</time>
  </trkpt>
  <trkpt lat="32.217246" lon="-3.106696">
   <ele>974.00</ele>
   <time>2014-04-01T15:19:03Z</time>
  </trkpt>
  <trkpt lat="32.217068" lon="-3.106681">
   <ele>974.00</ele>
   <time>2014-04-01T15:19:06Z</time>
  </trkpt>
  <trkpt lat="32.216870" lon="-3.106781">
   <ele>974.00</ele>
   <time>2014-04-01T15:19:10Z</time>
  </trkpt>
  <trkpt lat="32.216667" lon="-3.106856">
   <ele>974.00</ele>
   <time>2014-04-01T15:19:14Z</time>
  </trkpt>
  <trkpt lat="32.216477" lon="-3.106822">
   <ele>975.00</ele>
   <time>2014-04-01T15:19:17Z</time>
  </trkpt>
  <trkpt lat="32.216291" lon="-3.106654">
   <ele>975.00</ele>
   <time>2014-04-01T15:19:20Z</time>
  </trkpt>
  <trkpt lat="32.216064" lon="-3.106386">
   <ele>975.00</ele>
   <time>2014-04-01T15:19:24Z</time>
  </trkpt>
  <trkpt lat="32.215904" lon="-3.106211">
   <ele>975.00</ele>
   <time>2014-04-01T15:19:27Z</time>
  </trkpt>
  <trkpt lat="32.215822" lon="-3.105955">
   <ele>974.00</ele>
   <time>2014-04-01T15:19:31Z</time>
  </trkpt>
  <trkpt lat="32.215766" lon="-3.105713">
   <ele>974.00</ele>
   <time>2014-04-01T15:19:34Z</time>
  </trkpt>
  <trkpt lat="32.215693" lon="-3.105457">
   <ele>974.00</ele>
   <time>2014-04-01T15:19:37Z</time>
  </trkpt>
  <trkpt lat="32.215669" lon="-3.105171">
   <ele>974.00</ele>
   <time>2014-04-01T15:19:40Z</time>
  </trkpt>
  <trkpt lat="32.215672" lon="-3.104885">
   <ele>974.00</ele>
   <time>2014-04-01T15:19:43Z</time>
  </trkpt>
  <trkpt lat="32.215675" lon="-3.104620">
   <ele>974.00</ele>
   <time>2014-04-01T15:19:46Z</time>
  </trkpt>
  <trkpt lat="32.215645" lon="-3.104330">
   <ele>974.00</ele>
   <time>2014-04-01T15:19:49Z</time>
  </trkpt>
  <trkpt lat="32.215657" lon="-3.104014">
   <ele>974.00</ele>
   <time>2014-04-01T15:19:52Z</time>
  </trkpt>
  <trkpt lat="32.215705" lon="-3.103715">
   <ele>974.00</ele>
   <time>2014-04-01T15:19:55Z</time>
  </trkpt>
  <trkpt lat="32.215766" lon="-3.103445">
   <ele>974.00</ele>
   <time>2014-04-01T15:19:58Z</time>
  </trkpt>
  <trkpt lat="32.215878" lon="-3.103229">
   <ele>974.00</ele>
   <time>2014-04-01T15:20:01Z</time>
  </trkpt>
  <trkpt lat="32.215928" lon="-3.102953">
   <ele>974.00</ele>
   <time>2014-04-01T15:20:04Z</time>
  </trkpt>
  <trkpt lat="32.215966" lon="-3.102142">
   <ele>974.00</ele>
   <time>2014-04-01T15:20:11Z</time>
  </trkpt>
  <trkpt lat="32.216004" lon="-3.101922">
   <ele>974.00</ele>
   <time>2014-04-01T15:20:13Z</time>
  </trkpt>
  <trkpt lat="32.216062" lon="-3.101602">
   <ele>974.00</ele>
   <time>2014-04-01T15:20:16Z</time>
  </trkpt>
  <trkpt lat="32.216092" lon="-3.101325">
   <ele>974.00</ele>
   <time>2014-04-01T15:20:19Z</time>
  </trkpt>
  <trkpt lat="32.216142" lon="-3.101090">
   <ele>974.00</ele>
   <time>2014-04-01T15:20:22Z</time>
  </trkpt>
  <trkpt lat="32.216163" lon="-3.100836">
   <ele>974.00</ele>
   <time>2014-04-01T15:20:25Z</time>
  </trkpt>
  <trkpt lat="32.216208" lon="-3.100560">
   <ele>974.00</ele>
   <time>2014-04-01T15:20:28Z</time>
  </trkpt>
  <trkpt lat="32.216242" lon="-3.100266">
   <ele>973.00</ele>
   <time>2014-04-01T15:20:31Z</time>
  </trkpt>
  <trkpt lat="32.216324" lon="-3.099979">
   <ele>973.00</ele>
   <time>2014-04-01T15:20:34Z</time>
  </trkpt>
  <trkpt lat="32.216416" lon="-3.099682">
   <ele>973.00</ele>
   <time>2014-04-01T15:20:37Z</time>
  </trkpt>
  <trkpt lat="32.216459" lon="-3.099470">
   <ele>973.00</ele>
   <time>2014-04-01T15:20:39Z</time>
  </trkpt>
  <trkpt lat="32.216481" lon="-3.099250">
   <ele>973.00</ele>
   <time>2014-04-01T15:20:41Z</time>
  </trkpt>
  <trkpt lat="32.216507" lon="-3.098811">
   <ele>972.00</ele>
   <time>2014-04-01T15:20:45Z</time>
  </trkpt>
  <trkpt lat="32.216505" lon="-3.098595">
   <ele>972.00</ele>
   <time>2014-04-01T15:20:47Z</time>
  </trkpt>
  <trkpt lat="32.216521" lon="-3.098290">
   <ele>972.00</ele>
   <time>2014-04-01T15:20:50Z</time>
  </trkpt>
  <trkpt lat="32.216556" lon="-3.098009">
   <ele>972.00</ele>
   <time>2014-04-01T15:20:53Z</time>
  </trkpt>
  <trkpt lat="32.216588" lon="-3.097705">
   <ele>971.00</ele>
   <time>2014-04-01T15:20:56Z</time>
  </trkpt>
  <trkpt lat="32.216633" lon="-3.097498">
   <ele>971.00</ele>
   <time>2014-04-01T15:20:58Z</time>
  </trkpt>
  <trkpt lat="32.216756" lon="-3.096962">
   <ele>971.00</ele>
   <time>2014-04-01T15:21:03Z</time>
  </trkpt>
  <trkpt lat="32.216937" lon="-3.095971">
   <ele>970.00</ele>
   <time>2014-04-01T15:21:13Z</time>
  </trkpt>
  <trkpt lat="32.216902" lon="-3.095679">
   <ele>970.00</ele>
   <time>2014-04-01T15:21:16Z</time>
  </trkpt>
  <trkpt lat="32.216739" lon="-3.095090">
   <ele>969.00</ele>
   <time>2014-04-01T15:21:22Z</time>
  </trkpt>
  <trkpt lat="32.216665" lon="-3.094842">
   <ele>970.00</ele>
   <time>2014-04-01T15:21:25Z</time>
  </trkpt>
  <trkpt lat="32.216661" lon="-3.094591">
   <ele>969.00</ele>
   <time>2014-04-01T15:21:28Z</time>
  </trkpt>
  <trkpt lat="32.216616" lon="-3.094320">
   <ele>969.00</ele>
   <time>2014-04-01T15:21:31Z</time>
  </trkpt>
  <trkpt lat="32.216502" lon="-3.094048">
   <ele>969.00</ele>
   <time>2014-04-01T15:21:34Z</time>
  </trkpt>
  <trkpt lat="32.216365" lon="-3.093723">
   <ele>969.00</ele>
   <time>2014-04-01T15:21:38Z</time>
  </trkpt>
  <trkpt lat="32.216226" lon="-3.093495">
   <ele>969.00</ele>
   <time>2014-04-01T15:21:42Z</time>
  </trkpt>
  <trkpt lat="32.216123" lon="-3.093254">
   <ele>969.00</ele>
   <time>2014-04-01T15:21:45Z</time>
  </trkpt>
  <trkpt lat="32.216011" lon="-3.092978">
   <ele>969.00</ele>
   <time>2014-04-01T15:21:48Z</time>
  </trkpt>
  <trkpt lat="32.215921" lon="-3.092683">
   <ele>969.00</ele>
   <time>2014-04-01T15:21:51Z</time>
  </trkpt>
  <trkpt lat="32.215845" lon="-3.092400">
   <ele>970.00</ele>
   <time>2014-04-01T15:21:54Z</time>
  </trkpt>
  <trkpt lat="32.215737" lon="-3.092129">
   <ele>970.00</ele>
   <time>2014-04-01T15:21:57Z</time>
  </trkpt>
  <trkpt lat="32.215611" lon="-3.091864">
   <ele>970.00</ele>
   <time>2014-04-01T15:22:00Z</time>
  </trkpt>
  <trkpt lat="32.215328" lon="-3.091337">
   <ele>971.00</ele>
   <time>2014-04-01T15:22:07Z</time>
  </trkpt>
  <trkpt lat="32.215157" lon="-3.091147">
   <ele>971.00</ele>
   <time>2014-04-01T15:22:10Z</time>
  </trkpt>
  <trkpt lat="32.214986" lon="-3.090937">
   <ele>971.00</ele>
   <time>2014-04-01T15:22:13Z</time>
  </trkpt>
  <trkpt lat="32.214855" lon="-3.090665">
   <ele>970.00</ele>
   <time>2014-04-01T15:22:16Z</time>
  </trkpt>
  <trkpt lat="32.214764" lon="-3.090479">
   <ele>970.00</ele>
   <time>2014-04-01T15:22:18Z</time>
  </trkpt>
  <trkpt lat="32.214518" lon="-3.090006">
   <ele>968.00</ele>
   <time>2014-04-01T15:22:23Z</time>
  </trkpt>
  <trkpt lat="32.214411" lon="-3.089827">
   <ele>968.00</ele>
   <time>2014-04-01T15:22:25Z</time>
  </trkpt>
  <trkpt lat="32.214274" lon="-3.089555">
   <ele>967.00</ele>
   <time>2014-04-01T15:22:28Z</time>
  </trkpt>
  <trkpt lat="32.214182" lon="-3.089262">
   <ele>967.00</ele>
   <time>2014-04-01T15:22:31Z</time>
  </trkpt>
  <trkpt lat="32.214146" lon="-3.088955">
   <ele>966.00</ele>
   <time>2014-04-01T15:22:34Z</time>
  </trkpt>
  <trkpt lat="32.214127" lon="-3.088742">
   <ele>966.00</ele>
   <time>2014-04-01T15:22:36Z</time>
  </trkpt>
  <trkpt lat="32.214077" lon="-3.088526">
   <ele>965.00</ele>
   <time>2014-04-01T15:22:38Z</time>
  </trkpt>
  <trkpt lat="32.214017" lon="-3.088307">
   <ele>965.00</ele>
   <time>2014-04-01T15:22:40Z</time>
  </trkpt>
  <trkpt lat="32.213975" lon="-3.088083">
   <ele>964.00</ele>
   <time>2014-04-01T15:22:42Z</time>
  </trkpt>
  <trkpt lat="32.213925" lon="-3.087861">
   <ele>964.00</ele>
   <time>2014-04-01T15:22:44Z</time>
  </trkpt>
  <trkpt lat="32.213609" lon="-3.086706">
   <ele>962.00</ele>
   <time>2014-04-01T15:22:55Z</time>
  </trkpt>
  <trkpt lat="32.213492" lon="-3.086360">
   <ele>962.00</ele>
   <time>2014-04-01T15:22:59Z</time>
  </trkpt>
  <trkpt lat="32.213436" lon="-3.086106">
   <ele>962.00</ele>
   <time>2014-04-01T15:23:02Z</time>
  </trkpt>
  <trkpt lat="32.213348" lon="-3.085871">
   <ele>962.00</ele>
   <time>2014-04-01T15:23:05Z</time>
  </trkpt>
  <trkpt lat="32.213237" lon="-3.085646">
   <ele>961.00</ele>
   <time>2014-04-01T15:23:08Z</time>
  </trkpt>
  <trkpt lat="32.213131" lon="-3.085417">
   <ele>961.00</ele>
   <time>2014-04-01T15:23:11Z</time>
  </trkpt>
  <trkpt lat="32.212901" lon="-3.085034">
   <ele>961.00</ele>
   <time>2014-04-01T15:23:16Z</time>
  </trkpt>
  <trkpt lat="32.212810" lon="-3.084793">
   <ele>960.00</ele>
   <time>2014-04-01T15:23:19Z</time>
  </trkpt>
  <trkpt lat="32.212718" lon="-3.084587">
   <ele>960.00</ele>
   <time>2014-04-01T15:23:22Z</time>
  </trkpt>
  <trkpt lat="32.212624" lon="-3.084404">
   <ele>959.00</ele>
   <time>2014-04-01T15:23:25Z</time>
  </trkpt>
  <trkpt lat="32.212557" lon="-3.084161">
   <ele>958.00</ele>
   <time>2014-04-01T15:23:29Z</time>
  </trkpt>
  <trkpt lat="32.212487" lon="-3.083918">
   <ele>957.00</ele>
   <time>2014-04-01T15:23:34Z</time>
  </trkpt>
  <trkpt lat="32.212390" lon="-3.083702">
   <ele>958.00</ele>
   <time>2014-04-01T15:23:39Z</time>
  </trkpt>
  <trkpt lat="32.212214" lon="-3.083397">
   <ele>958.00</ele>
   <time>2014-04-01T15:23:46Z</time>
  </trkpt>
  <trkpt lat="32.212180" lon="-3.083153">
   <ele>958.00</ele>
   <time>2014-04-01T15:23:52Z</time>
  </trkpt>
  <trkpt lat="32.212164" lon="-3.082908">
   <ele>958.00</ele>
   <time>2014-04-01T15:23:58Z</time>
  </trkpt>
  <trkpt lat="32.212184" lon="-3.082693">
   <ele>957.00</ele>
   <time>2014-04-01T15:24:04Z</time>
  </trkpt>
  <trkpt lat="32.212093" lon="-3.082517">
   <ele>956.00</ele>
   <time>2014-04-01T15:24:11Z</time>
  </trkpt>
  <trkpt lat="32.212008" lon="-3.082318">
   <ele>956.00</ele>
   <time>2014-04-01T15:24:15Z</time>
  </trkpt>
  <trkpt lat="32.211895" lon="-3.082096">
   <ele>955.00</ele>
   <time>2014-04-01T15:24:19Z</time>
  </trkpt>
  <trkpt lat="32.211711" lon="-3.081916">
   <ele>954.00</ele>
   <time>2014-04-01T15:24:23Z</time>
  </trkpt>
  <trkpt lat="32.211558" lon="-3.081785">
   <ele>954.00</ele>
   <time>2014-04-01T15:24:26Z</time>
  </trkpt>
  <trkpt lat="32.211356" lon="-3.081637">
   <ele>954.00</ele>
   <time>2014-04-01T15:24:30Z</time>
  </trkpt>
  <trkpt lat="32.211114" lon="-3.081461">
   <ele>954.00</ele>
   <time>2014-04-01T15:24:35Z</time>
  </trkpt>
  <trkpt lat="32.210902" lon="-3.081379">
   <ele>954.00</ele>
   <time>2014-04-01T15:24:39Z</time>
  </trkpt>
  <trkpt lat="32.210692" lon="-3.081379">
   <ele>955.00</ele>
   <time>2014-04-01T15:24:43Z</time>
  </trkpt>
  <trkpt lat="32.210524" lon="-3.081263">
   <ele>954.00</ele>
   <time>2014-04-01T15:24:47Z</time>
  </trkpt>
  <trkpt lat="32.210363" lon="-3.081127">
   <ele>954.00</ele>
   <time>2014-04-01T15:24:52Z</time>
  </trkpt>
  <trkpt lat="32.210249" lon="-3.081272">
   <ele>956.00</ele>
   <time>2014-04-01T15:24:59Z</time>
  </trkpt>
  <trkpt lat="32.210156" lon="-3.081458">
   <ele>958.00</ele>
   <time>2014-04-01T15:25:06Z</time>
  </trkpt>
  <trkpt lat="32.210055" lon="-3.081664">
   <ele>959.00</ele>
   <time>2014-04-01T15:25:13Z</time>
  </trkpt>
  <trkpt lat="32.209888" lon="-3.081623">
   <ele>957.00</ele>
   <time>2014-04-01T15:25:21Z</time>
  </trkpt>
  <trkpt lat="32.209710" lon="-3.081533">
   <ele>956.00</ele>
   <time>2014-04-01T15:25:28Z</time>
  </trkpt>
  <trkpt lat="32.209573" lon="-3.081370">
   <ele>954.00</ele>
   <time>2014-04-01T15:25:34Z</time>
  </trkpt>
  <trkpt lat="32.209439" lon="-3.081221">
   <ele>953.00</ele>
   <time>2014-04-01T15:25:40Z</time>
  </trkpt>
  <trkpt lat="32.209269" lon="-3.081116">
   <ele>954.00</ele>
   <time>2014-04-01T15:25:47Z</time>
  </trkpt>
  <trkpt lat="32.209117" lon="-3.080982">
   <ele>955.00</ele>
   <time>2014-04-01T15:25:52Z</time>
  </trkpt>
  <trkpt lat="32.208897" lon="-3.080872">
   <ele>954.00</ele>
   <time>2014-04-01T15:25:58Z</time>
  </trkpt>
  <trkpt lat="32.208627" lon="-3.080686">
   <ele>953.00</ele>
   <time>2014-04-01T15:26:05Z</time>
  </trkpt>
  <trkpt lat="32.208416" lon="-3.080528">
   <ele>954.00</ele>
   <time>2014-04-01T15:26:10Z</time>
  </trkpt>
  <trkpt lat="32.208216" lon="-3.080433">
   <ele>954.00</ele>
   <time>2014-04-01T15:26:14Z</time>
  </trkpt>
  <trkpt lat="32.207980" lon="-3.080312">
   <ele>954.00</ele>
   <time>2014-04-01T15:26:19Z</time>
  </trkpt>
  <trkpt lat="32.207872" lon="-3.080103">
   <ele>953.00</ele>
   <time>2014-04-01T15:26:24Z</time>
  </trkpt>
  <trkpt lat="32.207898" lon="-3.079870">
   <ele>953.00</ele>
   <time>2014-04-01T15:26:29Z</time>
  </trkpt>
  <trkpt lat="32.207933" lon="-3.079729">
   <ele>953.00</ele>
   <time>2014-04-01T15:26:43Z</time>
  </trkpt>
  <trkpt lat="32.207896" lon="-3.079879">
   <ele>953.00</ele>
   <time>2014-04-01T15:26:55Z</time>
  </trkpt>
  <trkpt lat="32.207894" lon="-3.080098">
   <ele>954.00</ele>
   <time>2014-04-01T15:27:01Z</time>
  </trkpt>
  <trkpt lat="32.207779" lon="-3.080211">
   <ele>954.00</ele>
   <time>2014-04-01T15:27:08Z</time>
  </trkpt>
  <trkpt lat="32.207612" lon="-3.080127">
   <ele>954.00</ele>
   <time>2014-04-01T15:27:13Z</time>
  </trkpt>
  <trkpt lat="32.207443" lon="-3.080035">
   <ele>953.00</ele>
   <time>2014-04-01T15:27:18Z</time>
  </trkpt>
  <trkpt lat="32.207279" lon="-3.079910">
   <ele>953.00</ele>
   <time>2014-04-01T15:27:24Z</time>
  </trkpt>
  <trkpt lat="32.207126" lon="-3.079780">
   <ele>953.00</ele>
   <time>2014-04-01T15:27:31Z</time>
  </trkpt>
  <trkpt lat="32.207032" lon="-3.079700">
   <ele>953.00</ele>
   <time>2014-04-01T15:27:47Z</time>
  </trkpt>
  <trkpt lat="32.207167" lon="-3.079780">
   <ele>953.00</ele>
   <time>2014-04-01T15:28:03Z</time>
  </trkpt>
  <trkpt lat="32.207293" lon="-3.079893">
   <ele>953.00</ele>
   <time>2014-04-01T15:28:14Z</time>
  </trkpt>
  <trkpt lat="32.207443" lon="-3.080025">
   <ele>954.00</ele>
   <time>2014-04-01T15:28:20Z</time>
  </trkpt>
  <trkpt lat="32.207629" lon="-3.080112">
   <ele>954.00</ele>
   <time>2014-04-01T15:28:26Z</time>
  </trkpt>
  <trkpt lat="32.207795" lon="-3.080227">
   <ele>954.00</ele>
   <time>2014-04-01T15:28:33Z</time>
  </trkpt>
  <trkpt lat="32.207780" lon="-3.080306">
   <ele>954.00</ele>
   <time>2014-04-01T15:28:36Z</time>
  </trkpt>
  <trkpt lat="32.207654" lon="-3.080094">
   <ele>951.00</ele>
   <time>2014-04-01T15:29:49Z</time>
  </trkpt>
 </trkseg>
 <trkseg>
  <trkpt lat="32.207653" lon="-3.080096">
   <ele>951.00</ele>
   <time>2014-04-01T15:29:51Z</time>
  </trkpt>
  <trkpt lat="32.207724" lon="-3.079881">
   <ele>950.00</ele>
   <time>2014-04-01T15:30:05Z</time>
  </trkpt>
  <trkpt lat="32.207812" lon="-3.079763">
   <ele>951.00</ele>
   <time>2014-04-01T15:30:21Z</time>
  </trkpt>
  <trkpt lat="32.207812" lon="-3.079757">
   <ele>951.00</ele>
   <time>2014-04-01T15:30:36Z</time>
  </trkpt>
  <trkpt lat="32.207812" lon="-3.079755">
   <ele>951.00</ele>
   <time>2014-04-01T15:30:51Z</time>
  </trkpt>
  <trkpt lat="32.207812" lon="-3.079752">
   <ele>951.00</ele>
   <time>2014-04-01T15:31:07Z</time>
  </trkpt>
  <trkpt lat="32.207814" lon="-3.079750">
   <ele>951.00</ele>
   <time>2014-04-01T15:31:22Z</time>
  </trkpt>
  <trkpt lat="32.207820" lon="-3.079760">
   <ele>952.00</ele>
   <time>2014-04-01T15:31:37Z</time>
  </trkpt>
  <trkpt lat="32.207829" lon="-3.079764">
   <ele>953.00</ele>
   <time>2014-04-01T15:31:52Z</time>
  </trkpt>
  <trkpt lat="32.207836" lon="-3.079753">
   <ele>950.00</ele>
   <time>2014-04-01T15:32:08Z</time>
  </trkpt>
  <trkpt lat="32.207830" lon="-3.079746">
   <ele>948.00</ele>
   <time>2014-04-01T15:32:23Z</time>
  </trkpt>
  <trkpt lat="32.207835" lon="-3.079752">
   <ele>949.00</ele>
   <time>2014-04-01T15:32:38Z</time>
  </trkpt>
  <trkpt lat="32.207832" lon="-3.079750">
   <ele>948.00</ele>
   <time>2014-04-01T15:32:53Z</time>
  </trkpt>
  <trkpt lat="32.207828" lon="-3.079748">
   <ele>948.00</ele>
   <time>2014-04-01T15:33:09Z</time>
  </trkpt>
  <trkpt lat="32.207825" lon="-3.079746">
   <ele>948.00</ele>
   <time>2014-04-01T15:33:24Z</time>
  </trkpt>
  <trkpt lat="32.207824" lon="-3.079745">
   <ele>948.00</ele>
   <time>2014-04-01T15:33:39Z</time>
  </trkpt>
  <trkpt lat="32.207825" lon="-3.079745">
   <ele>949.00</ele>
   <time>2014-04-01T15:33:54Z</time>
  </trkpt>
  <trkpt lat="32.207826" lon="-3.079746">
   <ele>949.00</ele>
   <time>2014-04-01T15:34:09Z</time>
  </trkpt>
  <trkpt lat="32.207828" lon="-3.079747">
   <ele>950.00</ele>
   <time>2014-04-01T15:34:25Z</time>
  </trkpt>
  <trkpt lat="32.207828" lon="-3.079749">
   <ele>950.00</ele>
   <time>2014-04-01T15:34:40Z</time>
  </trkpt>
  <trkpt lat="32.207826" lon="-3.079747">
   <ele>951.00</ele>
   <time>2014-04-01T15:34:55Z</time>
  </trkpt>
  <trkpt lat="32.207824" lon="-3.079745">
   <ele>951.00</ele>
   <time>2014-04-01T15:35:11Z</time>
  </trkpt>
  <trkpt lat="32.207822" lon="-3.079744">
   <ele>951.00</ele>
   <time>2014-04-01T15:35:26Z</time>
  </trkpt>
  <trkpt lat="32.207820" lon="-3.079745">
   <ele>951.00</ele>
   <time>2014-04-01T15:35:42Z</time>
  </trkpt>
  <trkpt lat="32.207820" lon="-3.079746">
   <ele>951.00</ele>
   <time>2014-04-01T15:35:57Z</time>
  </trkpt>
  <trkpt lat="32.207821" lon="-3.079747">
   <ele>951.00</ele>
   <time>2014-04-01T15:36:12Z</time>
  </trkpt>
  <trkpt lat="32.207821" lon="-3.079748">
   <ele>952.00</ele>
   <time>2014-04-01T15:36:27Z</time>
  </trkpt>
  <trkpt lat="32.207821" lon="-3.079749">
   <ele>952.00</ele>
   <time>2014-04-01T15:36:42Z</time>
  </trkpt>
  <trkpt lat="32.207860" lon="-3.079731">
   <ele>952.00</ele>
   <time>2014-04-01T15:36:58Z</time>
  </trkpt>
  <trkpt lat="32.208003" lon="-3.079590">
   <ele>951.00</ele>
   <time>2014-04-01T15:37:09Z</time>
  </trkpt>
  <trkpt lat="32.208176" lon="-3.079473">
   <ele>950.00</ele>
   <time>2014-04-01T15:37:19Z</time>
  </trkpt>
  <trkpt lat="32.208367" lon="-3.079410">
   <ele>950.00</ele>
   <time>2014-04-01T15:37:26Z</time>
  </trkpt>
  <trkpt lat="32.208547" lon="-3.079365">
   <ele>950.00</ele>
   <time>2014-04-01T15:37:31Z</time>
  </trkpt>
  <trkpt lat="32.208731" lon="-3.079297">
   <ele>951.00</ele>
   <time>2014-04-01T15:37:36Z</time>
  </trkpt>
  <trkpt lat="32.208905" lon="-3.079246">
   <ele>950.00</ele>
   <time>2014-04-01T15:37:41Z</time>
  </trkpt>
  <trkpt lat="32.208991" lon="-3.079027">
   <ele>948.00</ele>
   <time>2014-04-01T15:37:47Z</time>
  </trkpt>
  <trkpt lat="32.208914" lon="-3.078793">
   <ele>947.00</ele>
   <time>2014-04-01T15:37:53Z</time>
  </trkpt>
  <trkpt lat="32.208897" lon="-3.078566">
   <ele>947.00</ele>
   <time>2014-04-01T15:38:00Z</time>
  </trkpt>
  <trkpt lat="32.208815" lon="-3.078361">
   <ele>947.00</ele>
   <time>2014-04-01T15:38:09Z</time>
  </trkpt>
  <trkpt lat="32.208658" lon="-3.078257">
   <ele>948.00</ele>
   <time>2014-04-01T15:38:16Z</time>
  </trkpt>
  <trkpt lat="32.208487" lon="-3.078185">
   <ele>950.00</ele>
   <time>2014-04-01T15:38:23Z</time>
  </trkpt>
  <trkpt lat="32.208416" lon="-3.078192">
   <ele>949.00</ele>
   <time>2014-04-01T15:38:39Z</time>
  </trkpt>
  <trkpt lat="32.208414" lon="-3.078191">
   <ele>948.00</ele>
   <time>2014-04-01T15:38:54Z</time>
  </trkpt>
  <trkpt lat="32.208424" lon="-3.078193">
   <ele>949.00</ele>
   <time>2014-04-01T15:39:10Z</time>
  </trkpt>
  <trkpt lat="32.208428" lon="-3.078195">
   <ele>950.00</ele>
   <time>2014-04-01T15:39:25Z</time>
  </trkpt>
  <trkpt lat="32.208428" lon="-3.078198">
   <ele>950.00</ele>
   <time>2014-04-01T15:39:41Z</time>
  </trkpt>
  <trkpt lat="32.208363" lon="-3.078192">
   <ele>952.00</ele>
   <time>2014-04-01T15:39:57Z</time>
  </trkpt>
  <trkpt lat="32.208129" lon="-3.078148">
   <ele>953.00</ele>
   <time>2014-04-01T15:40:06Z</time>
  </trkpt>
  <trkpt lat="32.207674" lon="-3.078089">
   <ele>953.00</ele>
   <time>2014-04-01T15:40:18Z</time>
  </trkpt>
  <trkpt lat="32.207237" lon="-3.077998">
   <ele>953.00</ele>
   <time>2014-04-01T15:40:27Z</time>
  </trkpt>
  <trkpt lat="32.207012" lon="-3.077922">
   <ele>954.00</ele>
   <time>2014-04-01T15:40:31Z</time>
  </trkpt>
  <trkpt lat="32.206830" lon="-3.077855">
   <ele>954.00</ele>
   <time>2014-04-01T15:40:34Z</time>
  </trkpt>
  <trkpt lat="32.206340" lon="-3.077695">
   <ele>954.00</ele>
   <time>2014-04-01T15:40:42Z</time>
  </trkpt>
  <trkpt lat="32.206172" lon="-3.077613">
   <ele>954.00</ele>
   <time>2014-04-01T15:40:45Z</time>
  </trkpt>
  <trkpt lat="32.205966" lon="-3.077474">
   <ele>954.00</ele>
   <time>2014-04-01T15:40:49Z</time>
  </trkpt>
  <trkpt lat="32.205821" lon="-3.077347">
   <ele>954.00</ele>
   <time>2014-04-01T15:40:52Z</time>
  </trkpt>
  <trkpt lat="32.205655" lon="-3.077262">
   <ele>954.00</ele>
   <time>2014-04-01T15:40:55Z</time>
  </trkpt>
  <trkpt lat="32.205431" lon="-3.077215">
   <ele>954.00</ele>
   <time>2014-04-01T15:40:59Z</time>
  </trkpt>
  <trkpt lat="32.205134" lon="-3.077192">
   <ele>955.00</ele>
   <time>2014-04-01T15:41:04Z</time>
  </trkpt>
  <trkpt lat="32.204959" lon="-3.077135">
   <ele>955.00</ele>
   <time>2014-04-01T15:41:07Z</time>
  </trkpt>
  <trkpt lat="32.204770" lon="-3.076977">
   <ele>954.00</ele>
   <time>2014-04-01T15:41:11Z</time>
  </trkpt>
  <trkpt lat="32.204598" lon="-3.076820">
   <ele>954.00</ele>
   <time>2014-04-01T15:41:15Z</time>
  </trkpt>
  <trkpt lat="32.204376" lon="-3.076761">
   <ele>955.00</ele>
   <time>2014-04-01T15:41:19Z</time>
  </trkpt>
  <trkpt lat="32.204157" lon="-3.076725">
   <ele>955.00</ele>
   <time>2014-04-01T15:41:23Z</time>
  </trkpt>
  <trkpt lat="32.203936" lon="-3.076661">
   <ele>955.00</ele>
   <time>2014-04-01T15:41:27Z</time>
  </trkpt>
  <trkpt lat="32.203734" lon="-3.076536">
   <ele>954.00</ele>
   <time>2014-04-01T15:41:31Z</time>
  </trkpt>
  <trkpt lat="32.203498" lon="-3.076325">
   <ele>953.00</ele>
   <time>2014-04-01T15:41:36Z</time>
  </trkpt>
  <trkpt lat="32.203341" lon="-3.076218">
   <ele>953.00</ele>
   <time>2014-04-01T15:41:39Z</time>
  </trkpt>
  <trkpt lat="32.203178" lon="-3.076124">
   <ele>954.00</ele>
   <time>2014-04-01T15:41:42Z</time>
  </trkpt>
  <trkpt lat="32.202832" lon="-3.075986">
   <ele>954.00</ele>
   <time>2014-04-01T15:41:48Z</time>
  </trkpt>
  <trkpt lat="32.202598" lon="-3.075858">
   <ele>954.00</ele>
   <time>2014-04-01T15:41:52Z</time>
  </trkpt>
  <trkpt lat="32.202426" lon="-3.075749">
   <ele>954.00</ele>
   <time>2014-04-01T15:41:55Z</time>
  </trkpt>
  <trkpt lat="32.202271" lon="-3.075620">
   <ele>953.00</ele>
   <time>2014-04-01T15:41:58Z</time>
  </trkpt>
  <trkpt lat="32.202081" lon="-3.075425">
   <ele>953.00</ele>
   <time>2014-04-01T15:42:02Z</time>
  </trkpt>
  <trkpt lat="32.201966" lon="-3.075256">
   <ele>953.00</ele>
   <time>2014-04-01T15:42:05Z</time>
  </trkpt>
  <trkpt lat="32.201861" lon="-3.075045">
   <ele>953.00</ele>
   <time>2014-04-01T15:42:09Z</time>
  </trkpt>
  <trkpt lat="32.201822" lon="-3.074832">
   <ele>953.00</ele>
   <time>2014-04-01T15:42:14Z</time>
  </trkpt>
  <trkpt lat="32.201788" lon="-3.074525">
   <ele>953.00</ele>
   <time>2014-04-01T15:42:22Z</time>
  </trkpt>
  <trkpt lat="32.201798" lon="-3.074294">
   <ele>953.00</ele>
   <time>2014-04-01T15:42:27Z</time>
  </trkpt>
  <trkpt lat="32.201765" lon="-3.074035">
   <ele>954.00</ele>
   <time>2014-04-01T15:42:34Z</time>
  </trkpt>
  <trkpt lat="32.201789" lon="-3.073807">
   <ele>954.00</ele>
   <time>2014-04-01T15:42:40Z</time>
  </trkpt>
  <trkpt lat="32.201827" lon="-3.073526">
   <ele>955.00</ele>
   <time>2014-04-01T15:42:46Z</time>
  </trkpt>
  <trkpt lat="32.201908" lon="-3.073293">
   <ele>955.00</ele>
   <time>2014-04-01T15:42:51Z</time>
  </trkpt>
  <trkpt lat="32.201966" lon="-3.073080">
   <ele>955.00</ele>
   <time>2014-04-01T15:42:55Z</time>
  </trkpt>
  <trkpt lat="32.202010" lon="-3.072822">
   <ele>954.00</ele>
   <time>2014-04-01T15:43:00Z</time>
  </trkpt>
  <trkpt lat="32.202042" lon="-3.072561">
   <ele>954.00</ele>
   <time>2014-04-01T15:43:05Z</time>
  </trkpt>
  <trkpt lat="32.202056" lon="-3.072320">
   <ele>953.00</ele>
   <time>2014-04-01T15:43:10Z</time>
  </trkpt>
  <trkpt lat="32.202049" lon="-3.072176">
   <ele>955.00</ele>
   <time>2014-04-01T15:43:23Z</time>
  </trkpt>
  <trkpt lat="32.202120" lon="-3.072306">
   <ele>956.00</ele>
   <time>2014-04-01T15:43:38Z</time>
  </trkpt>
  <trkpt lat="32.202127" lon="-3.072305">
   <ele>955.00</ele>
   <time>2014-04-01T15:43:54Z</time>
  </trkpt>
  <trkpt lat="32.202130" lon="-3.072306">
   <ele>955.00</ele>
   <time>2014-04-01T15:44:09Z</time>
  </trkpt>
  <trkpt lat="32.202133" lon="-3.072308">
   <ele>955.00</ele>
   <time>2014-04-01T15:44:25Z</time>
  </trkpt>
  <trkpt lat="32.202133" lon="-3.072310">
   <ele>955.00</ele>
   <time>2014-04-01T15:44:40Z</time>
  </trkpt>
  <trkpt lat="32.202082" lon="-3.072373">
   <ele>954.00</ele>
   <time>2014-04-01T15:44:55Z</time>
  </trkpt>
  <trkpt lat="32.202051" lon="-3.072606">
   <ele>954.00</ele>
   <time>2014-04-01T15:45:01Z</time>
  </trkpt>
  <trkpt lat="32.202019" lon="-3.072867">
   <ele>954.00</ele>
   <time>2014-04-01T15:45:06Z</time>
  </trkpt>
  <trkpt lat="32.201988" lon="-3.073096">
   <ele>954.00</ele>
   <time>2014-04-01T15:45:10Z</time>
  </trkpt>
  <trkpt lat="32.201929" lon="-3.073324">
   <ele>954.00</ele>
   <time>2014-04-01T15:45:14Z</time>
  </trkpt>
  <trkpt lat="32.201852" lon="-3.073537">
   <ele>953.00</ele>
   <time>2014-04-01T15:45:18Z</time>
  </trkpt>
  <trkpt lat="32.201816" lon="-3.073767">
   <ele>953.00</ele>
   <time>2014-04-01T15:45:22Z</time>
  </trkpt>
  <trkpt lat="32.201757" lon="-3.074005">
   <ele>953.00</ele>
   <time>2014-04-01T15:45:27Z</time>
  </trkpt>
  <trkpt lat="32.201638" lon="-3.074210">
   <ele>952.00</ele>
   <time>2014-04-01T15:45:33Z</time>
  </trkpt>
  <trkpt lat="32.201598" lon="-3.074448">
   <ele>952.00</ele>
   <time>2014-04-01T15:45:38Z</time>
  </trkpt>
  <trkpt lat="32.201561" lon="-3.074677">
   <ele>952.00</ele>
   <time>2014-04-01T15:45:43Z</time>
  </trkpt>
  <trkpt lat="32.201516" lon="-3.074918">
   <ele>951.00</ele>
   <time>2014-04-01T15:45:48Z</time>
  </trkpt>
  <trkpt lat="32.201389" lon="-3.075065">
   <ele>951.00</ele>
   <time>2014-04-01T15:45:53Z</time>
  </trkpt>
  <trkpt lat="32.201262" lon="-3.074870">
   <ele>949.00</ele>
   <time>2014-04-01T15:45:59Z</time>
  </trkpt>
  <trkpt lat="32.201141" lon="-3.074684">
   <ele>948.00</ele>
   <time>2014-04-01T15:46:04Z</time>
  </trkpt>
  <trkpt lat="32.201055" lon="-3.074471">
   <ele>948.00</ele>
   <time>2014-04-01T15:46:09Z</time>
  </trkpt>
  <trkpt lat="32.201008" lon="-3.074231">
   <ele>949.00</ele>
   <time>2014-04-01T15:46:14Z</time>
  </trkpt>
  <trkpt lat="32.200854" lon="-3.073692">
   <ele>949.00</ele>
   <time>2014-04-01T15:46:24Z</time>
  </trkpt>
  <trkpt lat="32.200805" lon="-3.073453">
   <ele>949.00</ele>
   <time>2014-04-01T15:46:28Z</time>
  </trkpt>
  <trkpt lat="32.200765" lon="-3.073218">
   <ele>949.00</ele>
   <time>2014-04-01T15:46:32Z</time>
  </trkpt>
  <trkpt lat="32.200693" lon="-3.072989">
   <ele>949.00</ele>
   <time>2014-04-01T15:46:36Z</time>
  </trkpt>
  <trkpt lat="32.200578" lon="-3.072790">
   <ele>950.00</ele>
   <time>2014-04-01T15:46:40Z</time>
  </trkpt>
  <trkpt lat="32.200441" lon="-3.072609">
   <ele>950.00</ele>
   <time>2014-04-01T15:46:44Z</time>
  </trkpt>
  <trkpt lat="32.200342" lon="-3.072355">
   <ele>951.00</ele>
   <time>2014-04-01T15:46:48Z</time>
  </trkpt>
  <trkpt lat="32.200244" lon="-3.072089">
   <ele>951.00</ele>
   <time>2014-04-01T15:46:52Z</time>
  </trkpt>
  <trkpt lat="32.200130" lon="-3.071860">
   <ele>951.00</ele>
   <time>2014-04-01T15:46:56Z</time>
  </trkpt>
  <trkpt lat="32.200057" lon="-3.071623">
   <ele>951.00</ele>
   <time>2014-04-01T15:47:00Z</time>
  </trkpt>
  <trkpt lat="32.200049" lon="-3.071253">
   <ele>952.00</ele>
   <time>2014-04-01T15:47:06Z</time>
  </trkpt>
  <trkpt lat="32.199920" lon="-3.071058">
   <ele>953.00</ele>
   <time>2014-04-01T15:47:11Z</time>
  </trkpt>
  <trkpt lat="32.199719" lon="-3.071029">
   <ele>953.00</ele>
   <time>2014-04-01T15:47:16Z</time>
  </trkpt>
  <trkpt lat="32.199541" lon="-3.070987">
   <ele>954.00</ele>
   <time>2014-04-01T15:47:20Z</time>
  </trkpt>
  <trkpt lat="32.199354" lon="-3.070883">
   <ele>955.00</ele>
   <time>2014-04-01T15:47:24Z</time>
  </trkpt>
  <trkpt lat="32.199166" lon="-3.070776">
   <ele>956.00</ele>
   <time>2014-04-01T15:47:28Z</time>
  </trkpt>
  <trkpt lat="32.199022" lon="-3.070578">
   <ele>955.00</ele>
   <time>2014-04-01T15:47:32Z</time>
  </trkpt>
  <trkpt lat="32.198891" lon="-3.070344">
   <ele>955.00</ele>
   <time>2014-04-01T15:47:36Z</time>
  </trkpt>
  <trkpt lat="32.198712" lon="-3.070177">
   <ele>954.00</ele>
   <time>2014-04-01T15:47:40Z</time>
  </trkpt>
  <trkpt lat="32.198519" lon="-3.070055">
   <ele>954.00</ele>
   <time>2014-04-01T15:47:44Z</time>
  </trkpt>
  <trkpt lat="32.198358" lon="-3.069856">
   <ele>954.00</ele>
   <time>2014-04-01T15:47:48Z</time>
  </trkpt>
  <trkpt lat="32.198208" lon="-3.069635">
   <ele>954.00</ele>
   <time>2014-04-01T15:47:52Z</time>
  </trkpt>
  <trkpt lat="32.198038" lon="-3.069450">
   <ele>955.00</ele>
   <time>2014-04-01T15:47:56Z</time>
  </trkpt>
  <trkpt lat="32.197757" lon="-3.069212">
   <ele>954.00</ele>
   <time>2014-04-01T15:48:02Z</time>
  </trkpt>
  <trkpt lat="32.197600" lon="-3.069047">
   <ele>954.00</ele>
   <time>2014-04-01T15:48:06Z</time>
  </trkpt>
  <trkpt lat="32.197412" lon="-3.068950">
   <ele>953.00</ele>
   <time>2014-04-01T15:48:10Z</time>
  </trkpt>
  <trkpt lat="32.197229" lon="-3.068859">
   <ele>953.00</ele>
   <time>2014-04-01T15:48:14Z</time>
  </trkpt>
  <trkpt lat="32.197052" lon="-3.068747">
   <ele>953.00</ele>
   <time>2014-04-01T15:48:18Z</time>
  </trkpt>
  <trkpt lat="32.196816" lon="-3.068644">
   <ele>952.00</ele>
   <time>2014-04-01T15:48:23Z</time>
  </trkpt>
  <trkpt lat="32.196651" lon="-3.068476">
   <ele>952.00</ele>
   <time>2014-04-01T15:48:28Z</time>
  </trkpt>
  <trkpt lat="32.196532" lon="-3.068288">
   <ele>952.00</ele>
   <time>2014-04-01T15:48:34Z</time>
  </trkpt>
  <trkpt lat="32.196406" lon="-3.068119">
   <ele>949.00</ele>
   <time>2014-04-01T15:48:40Z</time>
  </trkpt>
  <trkpt lat="32.196225" lon="-3.068077">
   <ele>949.00</ele>
   <time>2014-04-01T15:48:44Z</time>
  </trkpt>
  <trkpt lat="32.196077" lon="-3.067936">
   <ele>949.00</ele>
   <time>2014-04-01T15:48:48Z</time>
  </trkpt>
  <trkpt lat="32.195937" lon="-3.067687">
   <ele>949.00</ele>
   <time>2014-04-01T15:48:53Z</time>
  </trkpt>
  <trkpt lat="32.195865" lon="-3.067450">
   <ele>949.00</ele>
   <time>2014-04-01T15:48:58Z</time>
  </trkpt>
  <trkpt lat="32.195910" lon="-3.067220">
   <ele>949.00</ele>
   <time>2014-04-01T15:49:04Z</time>
  </trkpt>
  <trkpt lat="32.195932" lon="-3.067000">
   <ele>950.00</ele>
   <time>2014-04-01T15:49:13Z</time>
  </trkpt>
  <trkpt lat="32.195885" lon="-3.066771">
   <ele>951.00</ele>
   <time>2014-04-01T15:49:21Z</time>
  </trkpt>
  <trkpt lat="32.195812" lon="-3.066559">
   <ele>950.00</ele>
   <time>2014-04-01T15:49:28Z</time>
  </trkpt>
  <trkpt lat="32.195750" lon="-3.066309">
   <ele>951.00</ele>
   <time>2014-04-01T15:49:36Z</time>
  </trkpt>
  <trkpt lat="32.195732" lon="-3.066095">
   <ele>952.00</ele>
   <time>2014-04-01T15:49:42Z</time>
  </trkpt>
  <trkpt lat="32.195719" lon="-3.065873">
   <ele>953.00</ele>
   <time>2014-04-01T15:49:47Z</time>
  </trkpt>
  <trkpt lat="32.195693" lon="-3.065664">
   <ele>953.00</ele>
   <time>2014-04-01T15:49:51Z</time>
  </trkpt>
  <trkpt lat="32.195581" lon="-3.065439">
   <ele>953.00</ele>
   <time>2014-04-01T15:49:56Z</time>
  </trkpt>
  <trkpt lat="32.195432" lon="-3.065213">
   <ele>953.00</ele>
   <time>2014-04-01T15:50:01Z</time>
  </trkpt>
  <trkpt lat="32.195342" lon="-3.065010">
   <ele>953.00</ele>
   <time>2014-04-01T15:50:05Z</time>
  </trkpt>
  <trkpt lat="32.195227" lon="-3.064776">
   <ele>953.00</ele>
   <time>2014-04-01T15:50:10Z</time>
  </trkpt>
  <trkpt lat="32.195150" lon="-3.064564">
   <ele>953.00</ele>
   <time>2014-04-01T15:50:14Z</time>
  </trkpt>
  <trkpt lat="32.195045" lon="-3.064335">
   <ele>953.00</ele>
   <time>2014-04-01T15:50:18Z</time>
  </trkpt>
  <trkpt lat="32.194868" lon="-3.063988">
   <ele>955.00</ele>
   <time>2014-04-01T15:50:25Z</time>
  </trkpt>
  <trkpt lat="32.194780" lon="-3.063749">
   <ele>956.00</ele>
   <time>2014-04-01T15:50:30Z</time>
  </trkpt>
  <trkpt lat="32.194662" lon="-3.063426">
   <ele>956.00</ele>
   <time>2014-04-01T15:50:37Z</time>
  </trkpt>
  <trkpt lat="32.194616" lon="-3.063175">
   <ele>956.00</ele>
   <time>2014-04-01T15:50:42Z</time>
  </trkpt>
  <trkpt lat="32.194532" lon="-3.062950">
   <ele>956.00</ele>
   <time>2014-04-01T15:50:47Z</time>
  </trkpt>
  <trkpt lat="32.194364" lon="-3.062851">
   <ele>956.00</ele>
   <time>2014-04-01T15:50:52Z</time>
  </trkpt>
  <trkpt lat="32.194389" lon="-3.062935">
   <ele>956.00</ele>
   <time>2014-04-01T15:51:07Z</time>
  </trkpt>
  <trkpt lat="32.194321" lon="-3.063019">
   <ele>956.00</ele>
   <time>2014-04-01T15:51:23Z</time>
  </trkpt>
  <trkpt lat="32.194266" lon="-3.062807">
   <ele>955.00</ele>
   <time>2014-04-01T15:51:30Z</time>
  </trkpt>
  <trkpt lat="32.194209" lon="-3.062612">
   <ele>953.00</ele>
   <time>2014-04-01T15:51:37Z</time>
  </trkpt>
  <trkpt lat="32.194032" lon="-3.062527">
   <ele>950.00</ele>
   <time>2014-04-01T15:51:45Z</time>
  </trkpt>
  <trkpt lat="32.193950" lon="-3.062315">
   <ele>947.00</ele>
   <time>2014-04-01T15:51:52Z</time>
  </trkpt>
  <trkpt lat="32.193806" lon="-3.062139">
   <ele>947.00</ele>
   <time>2014-04-01T15:51:59Z</time>
  </trkpt>
  <trkpt lat="32.193714" lon="-3.061975">
   <ele>945.00</ele>
   <time>2014-04-01T15:52:15Z</time>
  </trkpt>
  <trkpt lat="32.193724" lon="-3.061982">
   <ele>946.00</ele>
   <time>2014-04-01T15:52:30Z</time>
  </trkpt>
  <trkpt lat="32.193725" lon="-3.061980">
   <ele>947.00</ele>
   <time>2014-04-01T15:52:46Z</time>
  </trkpt>
  <trkpt lat="32.193728" lon="-3.061977">
   <ele>948.00</ele>
   <time>2014-04-01T15:53:01Z</time>
  </trkpt>
  <trkpt lat="32.193722" lon="-3.061967">
   <ele>948.00</ele>
   <time>2014-04-01T15:53:17Z</time>
  </trkpt>
  <trkpt lat="32.193713" lon="-3.061956">
   <ele>947.00</ele>
   <time>2014-04-01T15:53:32Z</time>
  </trkpt>
  <trkpt lat="32.193721" lon="-3.061963">
   <ele>948.00</ele>
   <time>2014-04-01T15:53:48Z</time>
  </trkpt>
  <trkpt lat="32.193713" lon="-3.061956">
   <ele>947.00</ele>
   <time>2014-04-01T15:54:03Z</time>
  </trkpt>
  <trkpt lat="32.193712" lon="-3.061955">
   <ele>946.00</ele>
   <time>2014-04-01T15:54:19Z</time>
  </trkpt>
  <trkpt lat="32.193715" lon="-3.061957">
   <ele>946.00</ele>
   <time>2014-04-01T15:54:34Z</time>
  </trkpt>
  <trkpt lat="32.193710" lon="-3.061957">
   <ele>945.00</ele>
   <time>2014-04-01T15:54:50Z</time>
  </trkpt>
  <trkpt lat="32.193710" lon="-3.061966">
   <ele>944.00</ele>
   <time>2014-04-01T15:55:06Z</time>
  </trkpt>
  <trkpt lat="32.193712" lon="-3.061971">
   <ele>943.00</ele>
   <time>2014-04-01T15:55:21Z</time>
  </trkpt>
  <trkpt lat="32.193708" lon="-3.061962">
   <ele>944.00</ele>
   <time>2014-04-01T15:55:37Z</time>
  </trkpt>
  <trkpt lat="32.193639" lon="-3.061862">
   <ele>945.00</ele>
   <time>2014-04-01T15:55:52Z</time>
  </trkpt>
  <trkpt lat="32.193507" lon="-3.061669">
   <ele>945.00</ele>
   <time>2014-04-01T15:56:02Z</time>
  </trkpt>
  <trkpt lat="32.193405" lon="-3.061460">
   <ele>945.00</ele>
   <time>2014-04-01T15:56:11Z</time>
  </trkpt>
  <trkpt lat="32.193348" lon="-3.061238">
   <ele>944.00</ele>
   <time>2014-04-01T15:56:18Z</time>
  </trkpt>
  <trkpt lat="32.193267" lon="-3.061043">
   <ele>943.00</ele>
   <time>2014-04-01T15:56:24Z</time>
  </trkpt>
  <trkpt lat="32.193140" lon="-3.060859">
   <ele>943.00</ele>
   <time>2014-04-01T15:56:30Z</time>
  </trkpt>
  <trkpt lat="32.193093" lon="-3.060651">
   <ele>943.00</ele>
   <time>2014-04-01T15:56:35Z</time>
  </trkpt>
  <trkpt lat="32.193064" lon="-3.060411">
   <ele>942.00</ele>
   <time>2014-04-01T15:56:40Z</time>
  </trkpt>
  <trkpt lat="32.193055" lon="-3.060165">
   <ele>941.00</ele>
   <time>2014-04-01T15:56:45Z</time>
  </trkpt>
  <trkpt lat="32.193071" lon="-3.059952">
   <ele>941.00</ele>
   <time>2014-04-01T15:56:49Z</time>
  </trkpt>
  <trkpt lat="32.193151" lon="-3.059720">
   <ele>941.00</ele>
   <time>2014-04-01T15:56:54Z</time>
  </trkpt>
  <trkpt lat="32.193215" lon="-3.059429">
   <ele>940.00</ele>
   <time>2014-04-01T15:57:01Z</time>
  </trkpt>
  <trkpt lat="32.193286" lon="-3.059231">
   <ele>939.00</ele>
   <time>2014-04-01T15:57:07Z</time>
  </trkpt>
  <trkpt lat="32.193410" lon="-3.059069">
   <ele>940.00</ele>
   <time>2014-04-01T15:57:13Z</time>
  </trkpt>
  <trkpt lat="32.193539" lon="-3.058913">
   <ele>940.00</ele>
   <time>2014-04-01T15:57:19Z</time>
  </trkpt>
  <trkpt lat="32.193531" lon="-3.058664">
   <ele>941.00</ele>
   <time>2014-04-01T15:57:25Z</time>
  </trkpt>
  <trkpt lat="32.193562" lon="-3.058440">
   <ele>943.00</ele>
   <time>2014-04-01T15:57:30Z</time>
  </trkpt>
  <trkpt lat="32.193718" lon="-3.058126">
   <ele>944.00</ele>
   <time>2014-04-01T15:57:37Z</time>
  </trkpt>
  <trkpt lat="32.193779" lon="-3.057865">
   <ele>945.00</ele>
   <time>2014-04-01T15:57:42Z</time>
  </trkpt>
  <trkpt lat="32.193808" lon="-3.057634">
   <ele>949.00</ele>
   <time>2014-04-01T15:57:46Z</time>
  </trkpt>
  <trkpt lat="32.193843" lon="-3.057312">
   <ele>952.00</ele>
   <time>2014-04-01T15:57:51Z</time>
  </trkpt>
  <trkpt lat="32.193844" lon="-3.057041">
   <ele>953.00</ele>
   <time>2014-04-01T15:57:55Z</time>
  </trkpt>
  <trkpt lat="32.193818" lon="-3.056772">
   <ele>954.00</ele>
   <time>2014-04-01T15:57:59Z</time>
  </trkpt>
  <trkpt lat="32.193785" lon="-3.056557">
   <ele>954.00</ele>
   <time>2014-04-01T15:58:02Z</time>
  </trkpt>
  <trkpt lat="32.193715" lon="-3.056201">
   <ele>952.00</ele>
   <time>2014-04-01T15:58:07Z</time>
  </trkpt>
  <trkpt lat="32.193652" lon="-3.055956">
   <ele>951.00</ele>
   <time>2014-04-01T15:58:11Z</time>
  </trkpt>
  <trkpt lat="32.193529" lon="-3.055784">
   <ele>953.00</ele>
   <time>2014-04-01T15:58:15Z</time>
  </trkpt>
  <trkpt lat="32.193460" lon="-3.055568">
   <ele>953.00</ele>
   <time>2014-04-01T15:58:19Z</time>
  </trkpt>
  <trkpt lat="32.193396" lon="-3.055357">
   <ele>952.00</ele>
   <time>2014-04-01T15:58:23Z</time>
  </trkpt>
  <trkpt lat="32.193300" lon="-3.055151">
   <ele>952.00</ele>
   <time>2014-04-01T15:58:28Z</time>
  </trkpt>
  <trkpt lat="32.193214" lon="-3.054943">
   <ele>951.00</ele>
   <time>2014-04-01T15:58:34Z</time>
  </trkpt>
  <trkpt lat="32.193059" lon="-3.054811">
   <ele>950.00</ele>
   <time>2014-04-01T15:58:42Z</time>
  </trkpt>
  <trkpt lat="32.192885" lon="-3.054732">
   <ele>947.00</ele>
   <time>2014-04-01T15:58:51Z</time>
  </trkpt>
  <trkpt lat="32.192724" lon="-3.054626">
   <ele>944.00</ele>
   <time>2014-04-01T15:58:59Z</time>
  </trkpt>
  <trkpt lat="32.192515" lon="-3.054474">
   <ele>944.00</ele>
   <time>2014-04-01T15:59:07Z</time>
  </trkpt>
  <trkpt lat="32.192360" lon="-3.054302">
   <ele>943.00</ele>
   <time>2014-04-01T15:59:13Z</time>
  </trkpt>
  <trkpt lat="32.192238" lon="-3.054114">
   <ele>942.00</ele>
   <time>2014-04-01T15:59:18Z</time>
  </trkpt>
  <trkpt lat="32.192084" lon="-3.053957">
   <ele>943.00</ele>
   <time>2014-04-01T15:59:22Z</time>
  </trkpt>
  <trkpt lat="32.191909" lon="-3.053814">
   <ele>944.00</ele>
   <time>2014-04-01T15:59:26Z</time>
  </trkpt>
  <trkpt lat="32.191713" lon="-3.053700">
   <ele>945.00</ele>
   <time>2014-04-01T15:59:30Z</time>
  </trkpt>
  <trkpt lat="32.191526" lon="-3.053600">
   <ele>947.00</ele>
   <time>2014-04-01T15:59:34Z</time>
  </trkpt>
  <trkpt lat="32.191324" lon="-3.053559">
   <ele>949.00</ele>
   <time>2014-04-01T15:59:38Z</time>
  </trkpt>
  <trkpt lat="32.191117" lon="-3.053506">
   <ele>951.00</ele>
   <time>2014-04-01T15:59:42Z</time>
  </trkpt>
  <trkpt lat="32.190902" lon="-3.053450">
   <ele>954.00</ele>
   <time>2014-04-01T15:59:46Z</time>
  </trkpt>
  <trkpt lat="32.190664" lon="-3.053446">
   <ele>955.00</ele>
   <time>2014-04-01T15:59:50Z</time>
  </trkpt>
  <trkpt lat="32.190485" lon="-3.053485">
   <ele>954.00</ele>
   <time>2014-04-01T15:59:53Z</time>
  </trkpt>
  <trkpt lat="32.190242" lon="-3.053541">
   <ele>952.00</ele>
   <time>2014-04-01T15:59:57Z</time>
  </trkpt>
  <trkpt lat="32.189939" lon="-3.053629">
   <ele>951.00</ele>
   <time>2014-04-01T16:00:02Z</time>
  </trkpt>
  <trkpt lat="32.189755" lon="-3.053694">
   <ele>951.00</ele>
   <time>2014-04-01T16:00:05Z</time>
  </trkpt>
  <trkpt lat="32.189348" lon="-3.053854">
   <ele>951.00</ele>
   <time>2014-04-01T16:00:12Z</time>
  </trkpt>
  <trkpt lat="32.189151" lon="-3.053991">
   <ele>951.00</ele>
   <time>2014-04-01T16:00:16Z</time>
  </trkpt>
  <trkpt lat="32.188996" lon="-3.054193">
   <ele>951.00</ele>
   <time>2014-04-01T16:00:20Z</time>
  </trkpt>
  <trkpt lat="32.188854" lon="-3.054357">
   <ele>950.00</ele>
   <time>2014-04-01T16:00:24Z</time>
  </trkpt>
  <trkpt lat="32.188726" lon="-3.054517">
   <ele>949.00</ele>
   <time>2014-04-01T16:00:29Z</time>
  </trkpt>
  <trkpt lat="32.188543" lon="-3.054617">
   <ele>948.00</ele>
   <time>2014-04-01T16:00:34Z</time>
  </trkpt>
  <trkpt lat="32.188372" lon="-3.054750">
   <ele>947.00</ele>
   <time>2014-04-01T16:00:39Z</time>
  </trkpt>
  <trkpt lat="32.188253" lon="-3.054919">
   <ele>946.00</ele>
   <time>2014-04-01T16:00:43Z</time>
  </trkpt>
  <trkpt lat="32.188122" lon="-3.055097">
   <ele>945.00</ele>
   <time>2014-04-01T16:00:48Z</time>
  </trkpt>
  <trkpt lat="32.187945" lon="-3.055236">
   <ele>944.00</ele>
   <time>2014-04-01T16:00:54Z</time>
  </trkpt>
  <trkpt lat="32.187754" lon="-3.055379">
   <ele>944.00</ele>
   <time>2014-04-01T16:00:59Z</time>
  </trkpt>
  <trkpt lat="32.187510" lon="-3.055496">
   <ele>944.00</ele>
   <time>2014-04-01T16:01:04Z</time>
  </trkpt>
  <trkpt lat="32.187317" lon="-3.055615">
   <ele>943.00</ele>
   <time>2014-04-01T16:01:08Z</time>
  </trkpt>
  <trkpt lat="32.186709" lon="-3.056039">
   <ele>941.00</ele>
   <time>2014-04-01T16:01:21Z</time>
  </trkpt>
  <trkpt lat="32.186071" lon="-3.056441">
   <ele>940.00</ele>
   <time>2014-04-01T16:01:34Z</time>
  </trkpt>
  <trkpt lat="32.185898" lon="-3.056579">
   <ele>940.00</ele>
   <time>2014-04-01T16:01:38Z</time>
  </trkpt>
  <trkpt lat="32.185658" lon="-3.056773">
   <ele>940.00</ele>
   <time>2014-04-01T16:01:44Z</time>
  </trkpt>
  <trkpt lat="32.185463" lon="-3.056819">
   <ele>940.00</ele>
   <time>2014-04-01T16:01:49Z</time>
  </trkpt>
  <trkpt lat="32.185267" lon="-3.056791">
   <ele>940.00</ele>
   <time>2014-04-01T16:01:56Z</time>
  </trkpt>
  <trkpt lat="32.185068" lon="-3.056844">
   <ele>940.00</ele>
   <time>2014-04-01T16:02:04Z</time>
  </trkpt>
  <trkpt lat="32.184893" lon="-3.056795">
   <ele>940.00</ele>
   <time>2014-04-01T16:02:09Z</time>
  </trkpt>
  <trkpt lat="32.184707" lon="-3.056731">
   <ele>940.00</ele>
   <time>2014-04-01T16:02:14Z</time>
  </trkpt>
  <trkpt lat="32.184526" lon="-3.056661">
   <ele>941.00</ele>
   <time>2014-04-01T16:02:19Z</time>
  </trkpt>
  <trkpt lat="32.184352" lon="-3.056569">
   <ele>940.00</ele>
   <time>2014-04-01T16:02:24Z</time>
  </trkpt>
  <trkpt lat="32.184164" lon="-3.056519">
   <ele>941.00</ele>
   <time>2014-04-01T16:02:29Z</time>
  </trkpt>
  <trkpt lat="32.183969" lon="-3.056500">
   <ele>941.00</ele>
   <time>2014-04-01T16:02:34Z</time>
  </trkpt>
  <trkpt lat="32.183755" lon="-3.056472">
   <ele>942.00</ele>
   <time>2014-04-01T16:02:39Z</time>
  </trkpt>
  <trkpt lat="32.183574" lon="-3.056461">
   <ele>943.00</ele>
   <time>2014-04-01T16:02:43Z</time>
  </trkpt>
  <trkpt lat="32.183355" lon="-3.056475">
   <ele>943.00</ele>
   <time>2014-04-01T16:02:48Z</time>
  </trkpt>
  <trkpt lat="32.183157" lon="-3.056577">
   <ele>943.00</ele>
   <time>2014-04-01T16:02:53Z</time>
  </trkpt>
  <trkpt lat="32.182960" lon="-3.056672">
   <ele>943.00</ele>
   <time>2014-04-01T16:02:58Z</time>
  </trkpt>
  <trkpt lat="32.182736" lon="-3.056673">
   <ele>943.00</ele>
   <time>2014-04-01T16:03:03Z</time>
  </trkpt>
  <trkpt lat="32.182465" lon="-3.056673">
   <ele>944.00</ele>
   <time>2014-04-01T16:03:09Z</time>
  </trkpt>
  <trkpt lat="32.182253" lon="-3.056726">
   <ele>943.00</ele>
   <time>2014-04-01T16:03:14Z</time>
  </trkpt>
  <trkpt lat="32.182072" lon="-3.056731">
   <ele>943.00</ele>
   <time>2014-04-01T16:03:20Z</time>
  </trkpt>
  <trkpt lat="32.181857" lon="-3.056736">
   <ele>942.00</ele>
   <time>2014-04-01T16:03:26Z</time>
  </trkpt>
  <trkpt lat="32.181679" lon="-3.056691">
   <ele>942.00</ele>
   <time>2014-04-01T16:03:31Z</time>
  </trkpt>
  <trkpt lat="32.181664" lon="-3.056494">
   <ele>942.00</ele>
   <time>2014-04-01T16:03:37Z</time>
  </trkpt>
  <trkpt lat="32.181838" lon="-3.056439">
   <ele>943.00</ele>
   <time>2014-04-01T16:03:44Z</time>
  </trkpt>
  <trkpt lat="32.181968" lon="-3.056339">
   <ele>943.00</ele>
   <time>2014-04-01T16:03:56Z</time>
  </trkpt>
  <trkpt lat="32.181861" lon="-3.056164">
   <ele>942.00</ele>
   <time>2014-04-01T16:04:04Z</time>
  </trkpt>
  <trkpt lat="32.181835" lon="-3.056153">
   <ele>939.00</ele>
   <time>2014-04-01T16:04:19Z</time>
  </trkpt>
  <trkpt lat="32.181850" lon="-3.056155">
   <ele>939.00</ele>
   <time>2014-04-01T16:04:25Z</time>
  </trkpt>
 </trkseg>
 <trkseg>
  <trkpt lat="32.181836" lon="-3.056467">
   <ele>941.00</ele>
   <time>2014-04-01T16:08:47Z</time>
  </trkpt>
  <trkpt lat="32.181835" lon="-3.056466">
   <ele>941.00</ele>
   <time>2014-04-01T16:08:57Z</time>
  </trkpt>
 </trkseg>
</trk>
<trk>
 <name>GPS_20140402</name>
 <trkseg>
  <trkpt lat="32.181823" lon="-3.056497">
   <ele>939.00</ele>
   <time>2014-04-02T08:11:09Z</time>
  </trkpt>
  <trkpt lat="32.181825" lon="-3.056499">
   <ele>939.00</ele>
   <time>2014-04-02T08:11:25Z</time>
  </trkpt>
  <trkpt lat="32.181824" lon="-3.056497">
   <ele>939.00</ele>
   <time>2014-04-02T08:11:40Z</time>
  </trkpt>
  <trkpt lat="32.181825" lon="-3.056496">
   <ele>938.00</ele>
   <time>2014-04-02T08:11:55Z</time>
  </trkpt>
  <trkpt lat="32.181778" lon="-3.056456">
   <ele>937.00</ele>
   <time>2014-04-02T08:12:11Z</time>
  </trkpt>
  <trkpt lat="32.181632" lon="-3.056321">
   <ele>938.00</ele>
   <time>2014-04-02T08:12:19Z</time>
  </trkpt>
  <trkpt lat="32.181513" lon="-3.056135">
   <ele>937.00</ele>
   <time>2014-04-02T08:12:26Z</time>
  </trkpt>
  <trkpt lat="32.181375" lon="-3.055983">
   <ele>936.00</ele>
   <time>2014-04-02T08:12:33Z</time>
  </trkpt>
  <trkpt lat="32.181248" lon="-3.055856">
   <ele>936.00</ele>
   <time>2014-04-02T08:12:41Z</time>
  </trkpt>
  <trkpt lat="32.181071" lon="-3.055788">
   <ele>936.00</ele>
   <time>2014-04-02T08:12:48Z</time>
  </trkpt>
  <trkpt lat="32.180742" lon="-3.055573">
   <ele>936.00</ele>
   <time>2014-04-02T08:12:58Z</time>
  </trkpt>
  <trkpt lat="32.180601" lon="-3.055427">
   <ele>936.00</ele>
   <time>2014-04-02T08:13:03Z</time>
  </trkpt>
  <trkpt lat="32.180458" lon="-3.055238">
   <ele>935.00</ele>
   <time>2014-04-02T08:13:08Z</time>
  </trkpt>
  <trkpt lat="32.180314" lon="-3.055027">
   <ele>935.00</ele>
   <time>2014-04-02T08:13:13Z</time>
  </trkpt>
  <trkpt lat="32.180176" lon="-3.054866">
   <ele>935.00</ele>
   <time>2014-04-02T08:13:17Z</time>
  </trkpt>
  <trkpt lat="32.180030" lon="-3.054707">
   <ele>935.00</ele>
   <time>2014-04-02T08:13:21Z</time>
  </trkpt>
  <trkpt lat="32.179887" lon="-3.054544">
   <ele>935.00</ele>
   <time>2014-04-02T08:13:25Z</time>
  </trkpt>
  <trkpt lat="32.179742" lon="-3.054367">
   <ele>935.00</ele>
   <time>2014-04-02T08:13:30Z</time>
  </trkpt>
  <trkpt lat="32.179601" lon="-3.054231">
   <ele>934.00</ele>
   <time>2014-04-02T08:13:35Z</time>
  </trkpt>
  <trkpt lat="32.179544" lon="-3.053991">
   <ele>933.00</ele>
   <time>2014-04-02T08:13:40Z</time>
  </trkpt>
  <trkpt lat="32.179514" lon="-3.053691">
   <ele>932.00</ele>
   <time>2014-04-02T08:13:46Z</time>
  </trkpt>
  <trkpt lat="32.179463" lon="-3.053452">
   <ele>931.00</ele>
   <time>2014-04-02T08:13:51Z</time>
  </trkpt>
  <trkpt lat="32.179442" lon="-3.053209">
   <ele>931.00</ele>
   <time>2014-04-02T08:13:56Z</time>
  </trkpt>
  <trkpt lat="32.179496" lon="-3.052958">
   <ele>931.00</ele>
   <time>2014-04-02T08:14:01Z</time>
  </trkpt>
  <trkpt lat="32.179538" lon="-3.052741">
   <ele>930.00</ele>
   <time>2014-04-02T08:14:05Z</time>
  </trkpt>
  <trkpt lat="32.179569" lon="-3.052391">
   <ele>930.00</ele>
   <time>2014-04-02T08:14:11Z</time>
  </trkpt>
  <trkpt lat="32.179588" lon="-3.052140">
   <ele>930.00</ele>
   <time>2014-04-02T08:14:16Z</time>
  </trkpt>
  <trkpt lat="32.179591" lon="-3.052073">
   <ele>930.00</ele>
   <time>2014-04-02T08:14:31Z</time>
  </trkpt>
  <trkpt lat="32.179593" lon="-3.052080">
   <ele>929.00</ele>
   <time>2014-04-02T08:14:46Z</time>
  </trkpt>
  <trkpt lat="32.179594" lon="-3.052082">
   <ele>929.00</ele>
   <time>2014-04-02T08:15:02Z</time>
  </trkpt>
  <trkpt lat="32.179596" lon="-3.052084">
   <ele>929.00</ele>
   <time>2014-04-02T08:15:17Z</time>
  </trkpt>
  <trkpt lat="32.179600" lon="-3.051821">
   <ele>930.00</ele>
   <time>2014-04-02T08:15:30Z</time>
  </trkpt>
  <trkpt lat="32.179609" lon="-3.051605">
   <ele>930.00</ele>
   <time>2014-04-02T08:15:35Z</time>
  </trkpt>
  <trkpt lat="32.179636" lon="-3.051346">
   <ele>930.00</ele>
   <time>2014-04-02T08:15:40Z</time>
  </trkpt>
  <trkpt lat="32.179701" lon="-3.050897">
   <ele>930.00</ele>
   <time>2014-04-02T08:15:47Z</time>
  </trkpt>
  <trkpt lat="32.179753" lon="-3.050635">
   <ele>931.00</ele>
   <time>2014-04-02T08:15:51Z</time>
  </trkpt>
  <trkpt lat="32.179834" lon="-3.050376">
   <ele>931.00</ele>
   <time>2014-04-02T08:15:55Z</time>
  </trkpt>
  <trkpt lat="32.179943" lon="-3.050075">
   <ele>930.00</ele>
   <time>2014-04-02T08:16:00Z</time>
  </trkpt>
  <trkpt lat="32.180022" lon="-3.049871">
   <ele>930.00</ele>
   <time>2014-04-02T08:16:04Z</time>
  </trkpt>
  <trkpt lat="32.180115" lon="-3.049683">
   <ele>930.00</ele>
   <time>2014-04-02T08:16:08Z</time>
  </trkpt>
  <trkpt lat="32.180195" lon="-3.049466">
   <ele>930.00</ele>
   <time>2014-04-02T08:16:12Z</time>
  </trkpt>
  <trkpt lat="32.180316" lon="-3.049269">
   <ele>931.00</ele>
   <time>2014-04-02T08:16:16Z</time>
  </trkpt>
  <trkpt lat="32.180442" lon="-3.049055">
   <ele>931.00</ele>
   <time>2014-04-02T08:16:20Z</time>
  </trkpt>
  <trkpt lat="32.180627" lon="-3.048710">
   <ele>930.00</ele>
   <time>2014-04-02T08:16:26Z</time>
  </trkpt>
  <trkpt lat="32.180890" lon="-3.048272">
   <ele>930.00</ele>
   <time>2014-04-02T08:16:34Z</time>
  </trkpt>
  <trkpt lat="32.181114" lon="-3.047941">
   <ele>930.00</ele>
   <time>2014-04-02T08:16:41Z</time>
  </trkpt>
  <trkpt lat="32.181195" lon="-3.047702">
   <ele>929.00</ele>
   <time>2014-04-02T08:16:46Z</time>
  </trkpt>
  <trkpt lat="32.181236" lon="-3.047491">
   <ele>930.00</ele>
   <time>2014-04-02T08:16:51Z</time>
  </trkpt>
  <trkpt lat="32.181274" lon="-3.047252">
   <ele>930.00</ele>
   <time>2014-04-02T08:16:58Z</time>
  </trkpt>
  <trkpt lat="32.181296" lon="-3.047037">
   <ele>929.00</ele>
   <time>2014-04-02T08:17:05Z</time>
  </trkpt>
  <trkpt lat="32.181368" lon="-3.046706">
   <ele>930.00</ele>
   <time>2014-04-02T08:17:14Z</time>
  </trkpt>
  <trkpt lat="32.181386" lon="-3.046471">
   <ele>929.00</ele>
   <time>2014-04-02T08:17:20Z</time>
  </trkpt>
  <trkpt lat="32.181464" lon="-3.046253">
   <ele>929.00</ele>
   <time>2014-04-02T08:17:26Z</time>
  </trkpt>
  <trkpt lat="32.181572" lon="-3.046039">
   <ele>929.00</ele>
   <time>2014-04-02T08:17:32Z</time>
  </trkpt>
  <trkpt lat="32.181693" lon="-3.045833">
   <ele>929.00</ele>
   <time>2014-04-02T08:17:38Z</time>
  </trkpt>
  <trkpt lat="32.181831" lon="-3.045678">
   <ele>928.00</ele>
   <time>2014-04-02T08:17:43Z</time>
  </trkpt>
  <trkpt lat="32.181980" lon="-3.045489">
   <ele>928.00</ele>
   <time>2014-04-02T08:17:48Z</time>
  </trkpt>
  <trkpt lat="32.182095" lon="-3.045310">
   <ele>928.00</ele>
   <time>2014-04-02T08:17:52Z</time>
  </trkpt>
  <trkpt lat="32.182199" lon="-3.045101">
   <ele>928.00</ele>
   <time>2014-04-02T08:17:56Z</time>
  </trkpt>
  <trkpt lat="32.182265" lon="-3.044881">
   <ele>927.00</ele>
   <time>2014-04-02T08:18:00Z</time>
  </trkpt>
  <trkpt lat="32.182339" lon="-3.044487">
   <ele>927.00</ele>
   <time>2014-04-02T08:18:07Z</time>
  </trkpt>
  <trkpt lat="32.182414" lon="-3.044269">
   <ele>927.00</ele>
   <time>2014-04-02T08:18:11Z</time>
  </trkpt>
  <trkpt lat="32.182538" lon="-3.043970">
   <ele>927.00</ele>
   <time>2014-04-02T08:18:17Z</time>
  </trkpt>
  <trkpt lat="32.182640" lon="-3.043718">
   <ele>927.00</ele>
   <time>2014-04-02T08:18:23Z</time>
  </trkpt>
  <trkpt lat="32.182707" lon="-3.043506">
   <ele>928.00</ele>
   <time>2014-04-02T08:18:28Z</time>
  </trkpt>
  <trkpt lat="32.182813" lon="-3.043283">
   <ele>928.00</ele>
   <time>2014-04-02T08:18:33Z</time>
  </trkpt>
  <trkpt lat="32.182999" lon="-3.042834">
   <ele>928.00</ele>
   <time>2014-04-02T08:18:42Z</time>
  </trkpt>
  <trkpt lat="32.183072" lon="-3.042620">
   <ele>928.00</ele>
   <time>2014-04-02T08:18:46Z</time>
  </trkpt>
  <trkpt lat="32.183134" lon="-3.042400">
   <ele>928.00</ele>
   <time>2014-04-02T08:18:50Z</time>
  </trkpt>
  <trkpt lat="32.183255" lon="-3.041941">
   <ele>928.00</ele>
   <time>2014-04-02T08:18:58Z</time>
  </trkpt>
  <trkpt lat="32.183298" lon="-3.041706">
   <ele>928.00</ele>
   <time>2014-04-02T08:19:02Z</time>
  </trkpt>
  <trkpt lat="32.183358" lon="-3.041342">
   <ele>929.00</ele>
   <time>2014-04-02T08:19:08Z</time>
  </trkpt>
  <trkpt lat="32.183494" lon="-3.040703">
   <ele>929.00</ele>
   <time>2014-04-02T08:19:18Z</time>
  </trkpt>
  <trkpt lat="32.183624" lon="-3.039833">
   <ele>929.00</ele>
   <time>2014-04-02T08:19:31Z</time>
  </trkpt>
  <trkpt lat="32.183643" lon="-3.039554">
   <ele>929.00</ele>
   <time>2014-04-02T08:19:35Z</time>
  </trkpt>
  <trkpt lat="32.183635" lon="-3.039274">
   <ele>929.00</ele>
   <time>2014-04-02T08:19:39Z</time>
  </trkpt>
  <trkpt lat="32.183604" lon="-3.038929">
   <ele>928.00</ele>
   <time>2014-04-02T08:19:44Z</time>
  </trkpt>
  <trkpt lat="32.183561" lon="-3.038656">
   <ele>928.00</ele>
   <time>2014-04-02T08:19:48Z</time>
  </trkpt>
  <trkpt lat="32.183493" lon="-3.038386">
   <ele>928.00</ele>
   <time>2014-04-02T08:19:52Z</time>
  </trkpt>
  <trkpt lat="32.183425" lon="-3.038189">
   <ele>927.00</ele>
   <time>2014-04-02T08:19:55Z</time>
  </trkpt>
  <trkpt lat="32.183299" lon="-3.037882">
   <ele>927.00</ele>
   <time>2014-04-02T08:20:00Z</time>
  </trkpt>
  <trkpt lat="32.183193" lon="-3.037680">
   <ele>927.00</ele>
   <time>2014-04-02T08:20:04Z</time>
  </trkpt>
  <trkpt lat="32.183059" lon="-3.037504">
   <ele>927.00</ele>
   <time>2014-04-02T08:20:08Z</time>
  </trkpt>
  <trkpt lat="32.182917" lon="-3.037343">
   <ele>927.00</ele>
   <time>2014-04-02T08:20:12Z</time>
  </trkpt>
  <trkpt lat="32.182821" lon="-3.037211">
   <ele>927.00</ele>
   <time>2014-04-02T08:20:27Z</time>
  </trkpt>
  <trkpt lat="32.182825" lon="-3.037222">
   <ele>927.00</ele>
   <time>2014-04-02T08:20:42Z</time>
  </trkpt>
  <trkpt lat="32.182829" lon="-3.037234">
   <ele>926.00</ele>
   <time>2014-04-02T08:20:58Z</time>
  </trkpt>
  <trkpt lat="32.182824" lon="-3.037234">
   <ele>927.00</ele>
   <time>2014-04-02T08:21:14Z</time>
  </trkpt>
  <trkpt lat="32.182822" lon="-3.037234">
   <ele>928.00</ele>
   <time>2014-04-02T08:21:29Z</time>
  </trkpt>
  <trkpt lat="32.182820" lon="-3.037235">
   <ele>928.00</ele>
   <time>2014-04-02T08:21:44Z</time>
  </trkpt>
  <trkpt lat="32.182819" lon="-3.037239">
   <ele>929.00</ele>
   <time>2014-04-02T08:21:59Z</time>
  </trkpt>
  <trkpt lat="32.182818" lon="-3.037243">
   <ele>928.00</ele>
   <time>2014-04-02T08:22:15Z</time>
  </trkpt>
  <trkpt lat="32.182818" lon="-3.037243">
   <ele>929.00</ele>
   <time>2014-04-02T08:22:30Z</time>
  </trkpt>
  <trkpt lat="32.182814" lon="-3.037242">
   <ele>930.00</ele>
   <time>2014-04-02T08:22:45Z</time>
  </trkpt>
  <trkpt lat="32.182814" lon="-3.037241">
   <ele>930.00</ele>
   <time>2014-04-02T08:23:01Z</time>
  </trkpt>
  <trkpt lat="32.182815" lon="-3.037240">
   <ele>930.00</ele>
   <time>2014-04-02T08:23:16Z</time>
  </trkpt>
  <trkpt lat="32.182813" lon="-3.037237">
   <ele>931.00</ele>
   <time>2014-04-02T08:23:31Z</time>
  </trkpt>
  <trkpt lat="32.182815" lon="-3.037238">
   <ele>931.00</ele>
   <time>2014-04-02T08:23:47Z</time>
  </trkpt>
  <trkpt lat="32.182759" lon="-3.037005">
   <ele>930.00</ele>
   <time>2014-04-02T08:23:58Z</time>
  </trkpt>
  <trkpt lat="32.182669" lon="-3.036809">
   <ele>930.00</ele>
   <time>2014-04-02T08:24:03Z</time>
  </trkpt>
  <trkpt lat="32.182543" lon="-3.036599">
   <ele>930.00</ele>
   <time>2014-04-02T08:24:08Z</time>
  </trkpt>
  <trkpt lat="32.182427" lon="-3.036425">
   <ele>929.00</ele>
   <time>2014-04-02T08:24:12Z</time>
  </trkpt>
  <trkpt lat="32.182277" lon="-3.036229">
   <ele>929.00</ele>
   <time>2014-04-02T08:24:16Z</time>
  </trkpt>
  <trkpt lat="32.182102" lon="-3.036038">
   <ele>929.00</ele>
   <time>2014-04-02T08:24:20Z</time>
  </trkpt>
  <trkpt lat="32.181925" lon="-3.035867">
   <ele>929.00</ele>
   <time>2014-04-02T08:24:24Z</time>
  </trkpt>
  <trkpt lat="32.181741" lon="-3.035718">
   <ele>929.00</ele>
   <time>2014-04-02T08:24:28Z</time>
  </trkpt>
  <trkpt lat="32.181544" lon="-3.035575">
   <ele>929.00</ele>
   <time>2014-04-02T08:24:32Z</time>
  </trkpt>
  <trkpt lat="32.181339" lon="-3.035464">
   <ele>929.00</ele>
   <time>2014-04-02T08:24:36Z</time>
  </trkpt>
  <trkpt lat="32.181169" lon="-3.035315">
   <ele>930.00</ele>
   <time>2014-04-02T08:24:40Z</time>
  </trkpt>
  <trkpt lat="32.180942" lon="-3.035145">
   <ele>930.00</ele>
   <time>2014-04-02T08:24:45Z</time>
  </trkpt>
  <trkpt lat="32.180742" lon="-3.035022">
   <ele>929.00</ele>
   <time>2014-04-02T08:24:49Z</time>
  </trkpt>
  <trkpt lat="32.180515" lon="-3.034955">
   <ele>929.00</ele>
   <time>2014-04-02T08:24:53Z</time>
  </trkpt>
  <trkpt lat="32.180277" lon="-3.034935">
   <ele>930.00</ele>
   <time>2014-04-02T08:24:57Z</time>
  </trkpt>
  <trkpt lat="32.180097" lon="-3.034958">
   <ele>930.00</ele>
   <time>2014-04-02T08:25:00Z</time>
  </trkpt>
  <trkpt lat="32.179867" lon="-3.034970">
   <ele>930.00</ele>
   <time>2014-04-02T08:25:04Z</time>
  </trkpt>
  <trkpt lat="32.179638" lon="-3.034920">
   <ele>930.00</ele>
   <time>2014-04-02T08:25:08Z</time>
  </trkpt>
  <trkpt lat="32.179456" lon="-3.034888">
   <ele>930.00</ele>
   <time>2014-04-02T08:25:11Z</time>
  </trkpt>
  <trkpt lat="32.179210" lon="-3.034862">
   <ele>930.00</ele>
   <time>2014-04-02T08:25:15Z</time>
  </trkpt>
  <trkpt lat="32.178993" lon="-3.034861">
   <ele>930.00</ele>
   <time>2014-04-02T08:25:19Z</time>
  </trkpt>
  <trkpt lat="32.178816" lon="-3.034945">
   <ele>929.00</ele>
   <time>2014-04-02T08:25:23Z</time>
  </trkpt>
  <trkpt lat="32.178708" lon="-3.035026">
   <ele>929.00</ele>
   <time>2014-04-02T08:25:39Z</time>
  </trkpt>
  <trkpt lat="32.178715" lon="-3.035028">
   <ele>929.00</ele>
   <time>2014-04-02T08:25:54Z</time>
  </trkpt>
  <trkpt lat="32.178717" lon="-3.035028">
   <ele>928.00</ele>
   <time>2014-04-02T08:26:09Z</time>
  </trkpt>
  <trkpt lat="32.178712" lon="-3.035025">
   <ele>931.00</ele>
   <time>2014-04-02T08:26:25Z</time>
  </trkpt>
  <trkpt lat="32.178727" lon="-3.035003">
   <ele>929.00</ele>
   <time>2014-04-02T08:26:40Z</time>
  </trkpt>
  <trkpt lat="32.178731" lon="-3.035000">
   <ele>930.00</ele>
   <time>2014-04-02T08:26:55Z</time>
  </trkpt>
  <trkpt lat="32.178566" lon="-3.035111">
   <ele>930.00</ele>
   <time>2014-04-02T08:27:08Z</time>
  </trkpt>
  <trkpt lat="32.178397" lon="-3.035241">
   <ele>930.00</ele>
   <time>2014-04-02T08:27:13Z</time>
  </trkpt>
  <trkpt lat="32.178233" lon="-3.035393">
   <ele>930.00</ele>
   <time>2014-04-02T08:27:17Z</time>
  </trkpt>
  <trkpt lat="32.177956" lon="-3.035669">
   <ele>930.00</ele>
   <time>2014-04-02T08:27:23Z</time>
  </trkpt>
  <trkpt lat="32.177819" lon="-3.035820">
   <ele>930.00</ele>
   <time>2014-04-02T08:27:26Z</time>
  </trkpt>
  <trkpt lat="32.177698" lon="-3.035993">
   <ele>930.00</ele>
   <time>2014-04-02T08:27:29Z</time>
  </trkpt>
  <trkpt lat="32.177539" lon="-3.036231">
   <ele>930.00</ele>
   <time>2014-04-02T08:27:33Z</time>
  </trkpt>
  <trkpt lat="32.177427" lon="-3.036423">
   <ele>930.00</ele>
   <time>2014-04-02T08:27:36Z</time>
  </trkpt>
  <trkpt lat="32.177332" lon="-3.036636">
   <ele>930.00</ele>
   <time>2014-04-02T08:27:39Z</time>
  </trkpt>
  <trkpt lat="32.177227" lon="-3.036903">
   <ele>930.00</ele>
   <time>2014-04-02T08:27:43Z</time>
  </trkpt>
  <trkpt lat="32.177135" lon="-3.037090">
   <ele>931.00</ele>
   <time>2014-04-02T08:27:46Z</time>
  </trkpt>
  <trkpt lat="32.177019" lon="-3.037331">
   <ele>931.00</ele>
   <time>2014-04-02T08:27:50Z</time>
  </trkpt>
  <trkpt lat="32.176903" lon="-3.037517">
   <ele>931.00</ele>
   <time>2014-04-02T08:27:54Z</time>
  </trkpt>
  <trkpt lat="32.176753" lon="-3.037714">
   <ele>930.00</ele>
   <time>2014-04-02T08:27:59Z</time>
  </trkpt>
  <trkpt lat="32.176682" lon="-3.037947">
   <ele>929.00</ele>
   <time>2014-04-02T08:28:04Z</time>
  </trkpt>
  <trkpt lat="32.176506" lon="-3.038023">
   <ele>927.00</ele>
   <time>2014-04-02T08:28:11Z</time>
  </trkpt>
  <trkpt lat="32.176401" lon="-3.038220">
   <ele>927.00</ele>
   <time>2014-04-02T08:28:16Z</time>
  </trkpt>
  <trkpt lat="32.176294" lon="-3.038524">
   <ele>926.00</ele>
   <time>2014-04-02T08:28:22Z</time>
  </trkpt>
  <trkpt lat="32.176219" lon="-3.038720">
   <ele>925.00</ele>
   <time>2014-04-02T08:28:26Z</time>
  </trkpt>
  <trkpt lat="32.176109" lon="-3.038945">
   <ele>925.00</ele>
   <time>2014-04-02T08:28:31Z</time>
  </trkpt>
  <trkpt lat="32.175950" lon="-3.039180">
   <ele>924.00</ele>
   <time>2014-04-02T08:28:37Z</time>
  </trkpt>
  <trkpt lat="32.175788" lon="-3.039443">
   <ele>924.00</ele>
   <time>2014-04-02T08:28:44Z</time>
  </trkpt>
  <trkpt lat="32.175662" lon="-3.039606">
   <ele>924.00</ele>
   <time>2014-04-02T08:28:49Z</time>
  </trkpt>
  <trkpt lat="32.175497" lon="-3.039788">
   <ele>924.00</ele>
   <time>2014-04-02T08:28:55Z</time>
  </trkpt>
  <trkpt lat="32.175158" lon="-3.040160">
   <ele>925.00</ele>
   <time>2014-04-02T08:29:07Z</time>
  </trkpt>
  <trkpt lat="32.175022" lon="-3.040333">
   <ele>925.00</ele>
   <time>2014-04-02T08:29:12Z</time>
  </trkpt>
  <trkpt lat="32.174883" lon="-3.040490">
   <ele>925.00</ele>
   <time>2014-04-02T08:29:17Z</time>
  </trkpt>
  <trkpt lat="32.174732" lon="-3.040652">
   <ele>926.00</ele>
   <time>2014-04-02T08:29:22Z</time>
  </trkpt>
  <trkpt lat="32.174393" lon="-3.041036">
   <ele>927.00</ele>
   <time>2014-04-02T08:29:33Z</time>
  </trkpt>
  <trkpt lat="32.174279" lon="-3.041200">
   <ele>927.00</ele>
   <time>2014-04-02T08:29:37Z</time>
  </trkpt>
  <trkpt lat="32.174113" lon="-3.041377">
   <ele>928.00</ele>
   <time>2014-04-02T08:29:42Z</time>
  </trkpt>
  <trkpt lat="32.173891" lon="-3.041618">
   <ele>928.00</ele>
   <time>2014-04-02T08:29:48Z</time>
  </trkpt>
  <trkpt lat="32.173749" lon="-3.041783">
   <ele>928.00</ele>
   <time>2014-04-02T08:29:52Z</time>
  </trkpt>
  <trkpt lat="32.173650" lon="-3.041989">
   <ele>929.00</ele>
   <time>2014-04-02T08:29:56Z</time>
  </trkpt>
  <trkpt lat="32.173554" lon="-3.042214">
   <ele>929.00</ele>
   <time>2014-04-02T08:30:00Z</time>
  </trkpt>
  <trkpt lat="32.173425" lon="-3.042476">
   <ele>929.00</ele>
   <time>2014-04-02T08:30:05Z</time>
  </trkpt>
  <trkpt lat="32.173326" lon="-3.042671">
   <ele>929.00</ele>
   <time>2014-04-02T08:30:09Z</time>
  </trkpt>
  <trkpt lat="32.173146" lon="-3.042762">
   <ele>929.00</ele>
   <time>2014-04-02T08:30:14Z</time>
  </trkpt>
  <trkpt lat="32.172960" lon="-3.042836">
   <ele>930.00</ele>
   <time>2014-04-02T08:30:19Z</time>
  </trkpt>
  <trkpt lat="32.172789" lon="-3.042908">
   <ele>929.00</ele>
   <time>2014-04-02T08:30:23Z</time>
  </trkpt>
  <trkpt lat="32.172584" lon="-3.043019">
   <ele>929.00</ele>
   <time>2014-04-02T08:30:28Z</time>
  </trkpt>
  <trkpt lat="32.172427" lon="-3.043138">
   <ele>928.00</ele>
   <time>2014-04-02T08:30:32Z</time>
  </trkpt>
  <trkpt lat="32.172267" lon="-3.043261">
   <ele>928.00</ele>
   <time>2014-04-02T08:30:36Z</time>
  </trkpt>
  <trkpt lat="32.172095" lon="-3.043346">
   <ele>928.00</ele>
   <time>2014-04-02T08:30:40Z</time>
  </trkpt>
  <trkpt lat="32.171882" lon="-3.043402">
   <ele>929.00</ele>
   <time>2014-04-02T08:30:45Z</time>
  </trkpt>
  <trkpt lat="32.171675" lon="-3.043455">
   <ele>929.00</ele>
   <time>2014-04-02T08:30:50Z</time>
  </trkpt>
  <trkpt lat="32.171476" lon="-3.043456">
   <ele>929.00</ele>
   <time>2014-04-02T08:30:55Z</time>
  </trkpt>
  <trkpt lat="32.171319" lon="-3.043598">
   <ele>929.00</ele>
   <time>2014-04-02T08:31:01Z</time>
  </trkpt>
  <trkpt lat="32.171126" lon="-3.043576">
   <ele>929.00</ele>
   <time>2014-04-02T08:31:07Z</time>
  </trkpt>
  <trkpt lat="32.171028" lon="-3.043499">
   <ele>928.00</ele>
   <time>2014-04-02T08:31:23Z</time>
  </trkpt>
  <trkpt lat="32.171196" lon="-3.043460">
   <ele>928.00</ele>
   <time>2014-04-02T08:31:31Z</time>
  </trkpt>
  <trkpt lat="32.171389" lon="-3.043438">
   <ele>928.00</ele>
   <time>2014-04-02T08:31:38Z</time>
  </trkpt>
  <trkpt lat="32.171577" lon="-3.043425">
   <ele>928.00</ele>
   <time>2014-04-02T08:31:43Z</time>
  </trkpt>
  <trkpt lat="32.171784" lon="-3.043448">
   <ele>928.00</ele>
   <time>2014-04-02T08:31:49Z</time>
  </trkpt>
  <trkpt lat="32.171978" lon="-3.043518">
   <ele>928.00</ele>
   <time>2014-04-02T08:31:58Z</time>
  </trkpt>
  <trkpt lat="32.172040" lon="-3.043636">
   <ele>928.00</ele>
   <time>2014-04-02T08:32:13Z</time>
  </trkpt>
  <trkpt lat="32.172039" lon="-3.043635">
   <ele>928.00</ele>
   <time>2014-04-02T08:32:28Z</time>
  </trkpt>
  <trkpt lat="32.172039" lon="-3.043635">
   <ele>928.00</ele>
   <time>2014-04-02T08:32:44Z</time>
  </trkpt>
  <trkpt lat="32.172040" lon="-3.043633">
   <ele>928.00</ele>
   <time>2014-04-02T08:32:59Z</time>
  </trkpt>
  <trkpt lat="32.172040" lon="-3.043634">
   <ele>928.00</ele>
   <time>2014-04-02T08:33:14Z</time>
  </trkpt>
  <trkpt lat="32.172042" lon="-3.043636">
   <ele>928.00</ele>
   <time>2014-04-02T08:33:30Z</time>
  </trkpt>
  <trkpt lat="32.172042" lon="-3.043636">
   <ele>928.00</ele>
   <time>2014-04-02T08:33:45Z</time>
  </trkpt>
  <trkpt lat="32.172043" lon="-3.043636">
   <ele>928.00</ele>
   <time>2014-04-02T08:34:00Z</time>
  </trkpt>
  <trkpt lat="32.172043" lon="-3.043638">
   <ele>928.00</ele>
   <time>2014-04-02T08:34:16Z</time>
  </trkpt>
  <trkpt lat="32.172043" lon="-3.043637">
   <ele>928.00</ele>
   <time>2014-04-02T08:34:31Z</time>
  </trkpt>
  <trkpt lat="32.172042" lon="-3.043636">
   <ele>927.00</ele>
   <time>2014-04-02T08:34:47Z</time>
  </trkpt>
  <trkpt lat="32.172041" lon="-3.043636">
   <ele>927.00</ele>
   <time>2014-04-02T08:35:02Z</time>
  </trkpt>
  <trkpt lat="32.172039" lon="-3.043636">
   <ele>927.00</ele>
   <time>2014-04-02T08:35:17Z</time>
  </trkpt>
  <trkpt lat="32.172036" lon="-3.043637">
   <ele>928.00</ele>
   <time>2014-04-02T08:35:33Z</time>
  </trkpt>
  <trkpt lat="32.172035" lon="-3.043639">
   <ele>927.00</ele>
   <time>2014-04-02T08:35:48Z</time>
  </trkpt>
  <trkpt lat="32.172034" lon="-3.043640">
   <ele>928.00</ele>
   <time>2014-04-02T08:36:04Z</time>
  </trkpt>
  <trkpt lat="32.172033" lon="-3.043640">
   <ele>929.00</ele>
   <time>2014-04-02T08:36:19Z</time>
  </trkpt>
  <trkpt lat="32.172032" lon="-3.043640">
   <ele>928.00</ele>
   <time>2014-04-02T08:36:34Z</time>
  </trkpt>
  <trkpt lat="32.172033" lon="-3.043641">
   <ele>927.00</ele>
   <time>2014-04-02T08:36:50Z</time>
  </trkpt>
  <trkpt lat="32.172032" lon="-3.043642">
   <ele>927.00</ele>
   <time>2014-04-02T08:37:05Z</time>
  </trkpt>
  <trkpt lat="32.172032" lon="-3.043643">
   <ele>927.00</ele>
   <time>2014-04-02T08:37:20Z</time>
  </trkpt>
  <trkpt lat="32.172032" lon="-3.043646">
   <ele>927.00</ele>
   <time>2014-04-02T08:37:36Z</time>
  </trkpt>
  <trkpt lat="32.172031" lon="-3.043649">
   <ele>928.00</ele>
   <time>2014-04-02T08:37:51Z</time>
  </trkpt>
  <trkpt lat="32.172031" lon="-3.043651">
   <ele>928.00</ele>
   <time>2014-04-02T08:38:06Z</time>
  </trkpt>
  <trkpt lat="32.172032" lon="-3.043654">
   <ele>928.00</ele>
   <time>2014-04-02T08:38:22Z</time>
  </trkpt>
  <trkpt lat="32.172032" lon="-3.043654">
   <ele>929.00</ele>
   <time>2014-04-02T08:38:37Z</time>
  </trkpt>
  <trkpt lat="32.172032" lon="-3.043654">
   <ele>929.00</ele>
   <time>2014-04-02T08:38:52Z</time>
  </trkpt>
  <trkpt lat="32.172030" lon="-3.043654">
   <ele>929.00</ele>
   <time>2014-04-02T08:39:08Z</time>
  </trkpt>
  <trkpt lat="32.172029" lon="-3.043653">
   <ele>930.00</ele>
   <time>2014-04-02T08:39:23Z</time>
  </trkpt>
  <trkpt lat="32.172030" lon="-3.043652">
   <ele>929.00</ele>
   <time>2014-04-02T08:39:38Z</time>
  </trkpt>
  <trkpt lat="32.172031" lon="-3.043614">
   <ele>930.00</ele>
   <time>2014-04-02T08:39:54Z</time>
  </trkpt>
  <trkpt lat="32.171961" lon="-3.043534">
   <ele>930.00</ele>
   <time>2014-04-02T08:40:09Z</time>
  </trkpt>
  <trkpt lat="32.171762" lon="-3.043455">
   <ele>930.00</ele>
   <time>2014-04-02T08:40:18Z</time>
  </trkpt>
  <trkpt lat="32.171578" lon="-3.043429">
   <ele>929.00</ele>
   <time>2014-04-02T08:40:24Z</time>
  </trkpt>
  <trkpt lat="32.171390" lon="-3.043443">
   <ele>929.00</ele>
   <time>2014-04-02T08:40:30Z</time>
  </trkpt>
  <trkpt lat="32.171076" lon="-3.043489">
   <ele>930.00</ele>
   <time>2014-04-02T08:40:40Z</time>
  </trkpt>
  <trkpt lat="32.171017" lon="-3.043506">
   <ele>930.00</ele>
   <time>2014-04-02T08:40:55Z</time>
  </trkpt>
  <trkpt lat="32.171019" lon="-3.043507">
   <ele>930.00</ele>
   <time>2014-04-02T08:41:10Z</time>
  </trkpt>
  <trkpt lat="32.171021" lon="-3.043508">
   <ele>929.00</ele>
   <time>2014-04-02T08:41:26Z</time>
  </trkpt>
  <trkpt lat="32.171021" lon="-3.043507">
   <ele>929.00</ele>
   <time>2014-04-02T08:41:41Z</time>
  </trkpt>
  <trkpt lat="32.171020" lon="-3.043507">
   <ele>929.00</ele>
   <time>2014-04-02T08:41:56Z</time>
  </trkpt>
  <trkpt lat="32.171019" lon="-3.043507">
   <ele>929.00</ele>
   <time>2014-04-02T08:42:12Z</time>
  </trkpt>
  <trkpt lat="32.171020" lon="-3.043506">
   <ele>928.00</ele>
   <time>2014-04-02T08:42:27Z</time>
  </trkpt>
  <trkpt lat="32.171021" lon="-3.043502">
   <ele>926.00</ele>
   <time>2014-04-02T08:42:42Z</time>
  </trkpt>
  <trkpt lat="32.171022" lon="-3.043499">
   <ele>925.00</ele>
   <time>2014-04-02T08:42:58Z</time>
  </trkpt>
  <trkpt lat="32.171021" lon="-3.043503">
   <ele>924.00</ele>
   <time>2014-04-02T08:43:13Z</time>
  </trkpt>
  <trkpt lat="32.171024" lon="-3.043503">
   <ele>925.00</ele>
   <time>2014-04-02T08:43:28Z</time>
  </trkpt>
  <trkpt lat="32.171025" lon="-3.043509">
   <ele>926.00</ele>
   <time>2014-04-02T08:43:44Z</time>
  </trkpt>
  <trkpt lat="32.170878" lon="-3.043583">
   <ele>927.00</ele>
   <time>2014-04-02T08:43:59Z</time>
  </trkpt>
  <trkpt lat="32.170778" lon="-3.043728">
   <ele>925.00</ele>
   <time>2014-04-02T08:44:12Z</time>
  </trkpt>
  <trkpt lat="32.170683" lon="-3.043724">
   <ele>925.00</ele>
   <time>2014-04-02T08:44:27Z</time>
  </trkpt>
  <trkpt lat="32.170711" lon="-3.043713">
   <ele>926.00</ele>
   <time>2014-04-02T08:44:43Z</time>
  </trkpt>
  <trkpt lat="32.170726" lon="-3.043731">
   <ele>925.00</ele>
   <time>2014-04-02T08:44:59Z</time>
  </trkpt>
  <trkpt lat="32.170724" lon="-3.043761">
   <ele>924.00</ele>
   <time>2014-04-02T08:45:14Z</time>
  </trkpt>
  <trkpt lat="32.170668" lon="-3.043844">
   <ele>922.00</ele>
   <time>2014-04-02T08:45:30Z</time>
  </trkpt>
  <trkpt lat="32.170501" lon="-3.043932">
   <ele>921.00</ele>
   <time>2014-04-02T08:45:39Z</time>
  </trkpt>
  <trkpt lat="32.170322" lon="-3.044002">
   <ele>921.00</ele>
   <time>2014-04-02T08:45:50Z</time>
  </trkpt>
  <trkpt lat="32.170155" lon="-3.044110">
   <ele>921.00</ele>
   <time>2014-04-02T08:46:00Z</time>
  </trkpt>
  <trkpt lat="32.170147" lon="-3.044118">
   <ele>921.00</ele>
   <time>2014-04-02T08:46:15Z</time>
  </trkpt>
  <trkpt lat="32.170148" lon="-3.044118">
   <ele>921.00</ele>
   <time>2014-04-02T08:46:31Z</time>
  </trkpt>
  <trkpt lat="32.170147" lon="-3.044119">
   <ele>920.00</ele>
   <time>2014-04-02T08:46:46Z</time>
  </trkpt>
  <trkpt lat="32.170149" lon="-3.044119">
   <ele>920.00</ele>
   <time>2014-04-02T08:47:01Z</time>
  </trkpt>
  <trkpt lat="32.170148" lon="-3.044120">
   <ele>920.00</ele>
   <time>2014-04-02T08:47:17Z</time>
  </trkpt>
  <trkpt lat="32.170147" lon="-3.044120">
   <ele>919.00</ele>
   <time>2014-04-02T08:47:32Z</time>
  </trkpt>
  <trkpt lat="32.170147" lon="-3.044120">
   <ele>919.00</ele>
   <time>2014-04-02T08:47:47Z</time>
  </trkpt>
  <trkpt lat="32.170147" lon="-3.044119">
   <ele>919.00</ele>
   <time>2014-04-02T08:48:03Z</time>
  </trkpt>
  <trkpt lat="32.170146" lon="-3.044118">
   <ele>919.00</ele>
   <time>2014-04-02T08:48:18Z</time>
  </trkpt>
  <trkpt lat="32.170146" lon="-3.044116">
   <ele>919.00</ele>
   <time>2014-04-02T08:48:34Z</time>
  </trkpt>
  <trkpt lat="32.170146" lon="-3.044115">
   <ele>919.00</ele>
   <time>2014-04-02T08:48:49Z</time>
  </trkpt>
  <trkpt lat="32.170145" lon="-3.044116">
   <ele>919.00</ele>
   <time>2014-04-02T08:49:04Z</time>
  </trkpt>
  <trkpt lat="32.170145" lon="-3.044116">
   <ele>920.00</ele>
   <time>2014-04-02T08:49:20Z</time>
  </trkpt>
  <trkpt lat="32.170145" lon="-3.044116">
   <ele>920.00</ele>
   <time>2014-04-02T08:49:35Z</time>
  </trkpt>
  <trkpt lat="32.170146" lon="-3.044114">
   <ele>920.00</ele>
   <time>2014-04-02T08:49:50Z</time>
  </trkpt>
  <trkpt lat="32.170147" lon="-3.044114">
   <ele>921.00</ele>
   <time>2014-04-02T08:50:06Z</time>
  </trkpt>
  <trkpt lat="32.170147" lon="-3.044113">
   <ele>921.00</ele>
   <time>2014-04-02T08:50:21Z</time>
  </trkpt>
  <trkpt lat="32.170147" lon="-3.044114">
   <ele>921.00</ele>
   <time>2014-04-02T08:50:36Z</time>
  </trkpt>
  <trkpt lat="32.170149" lon="-3.044115">
   <ele>921.00</ele>
   <time>2014-04-02T08:50:52Z</time>
  </trkpt>
  <trkpt lat="32.170149" lon="-3.044117">
   <ele>921.00</ele>
   <time>2014-04-02T08:51:07Z</time>
  </trkpt>
  <trkpt lat="32.170150" lon="-3.044116">
   <ele>922.00</ele>
   <time>2014-04-02T08:51:22Z</time>
  </trkpt>
  <trkpt lat="32.170148" lon="-3.044114">
   <ele>921.00</ele>
   <time>2014-04-02T08:51:38Z</time>
  </trkpt>
  <trkpt lat="32.170147" lon="-3.044113">
   <ele>921.00</ele>
   <time>2014-04-02T08:51:53Z</time>
  </trkpt>
  <trkpt lat="32.170147" lon="-3.044112">
   <ele>920.00</ele>
   <time>2014-04-02T08:52:08Z</time>
  </trkpt>
  <trkpt lat="32.170148" lon="-3.044109">
   <ele>920.00</ele>
   <time>2014-04-02T08:52:24Z</time>
  </trkpt>
  <trkpt lat="32.170149" lon="-3.044109">
   <ele>920.00</ele>
   <time>2014-04-02T08:52:39Z</time>
  </trkpt>
  <trkpt lat="32.170150" lon="-3.044108">
   <ele>920.00</ele>
   <time>2014-04-02T08:52:54Z</time>
  </trkpt>
  <trkpt lat="32.170152" lon="-3.044106">
   <ele>920.00</ele>
   <time>2014-04-02T08:53:10Z</time>
  </trkpt>
  <trkpt lat="32.170153" lon="-3.044106">
   <ele>919.00</ele>
   <time>2014-04-02T08:53:25Z</time>
  </trkpt>
  <trkpt lat="32.170153" lon="-3.044106">
   <ele>920.00</ele>
   <time>2014-04-02T08:53:40Z</time>
  </trkpt>
  <trkpt lat="32.170154" lon="-3.044107">
   <ele>920.00</ele>
   <time>2014-04-02T08:53:56Z</time>
  </trkpt>
  <trkpt lat="32.170155" lon="-3.044109">
   <ele>920.00</ele>
   <time>2014-04-02T08:54:11Z</time>
  </trkpt>
  <trkpt lat="32.170156" lon="-3.044108">
   <ele>921.00</ele>
   <time>2014-04-02T08:54:27Z</time>
  </trkpt>
  <trkpt lat="32.170114" lon="-3.044118">
   <ele>922.00</ele>
   <time>2014-04-02T08:54:42Z</time>
  </trkpt>
  <trkpt lat="32.169932" lon="-3.044194">
   <ele>923.00</ele>
   <time>2014-04-02T08:54:52Z</time>
  </trkpt>
  <trkpt lat="32.169738" lon="-3.044239">
   <ele>923.00</ele>
   <time>2014-04-02T08:55:01Z</time>
  </trkpt>
  <trkpt lat="32.169547" lon="-3.044287">
   <ele>924.00</ele>
   <time>2014-04-02T08:55:09Z</time>
  </trkpt>
  <trkpt lat="32.169376" lon="-3.044384">
   <ele>924.00</ele>
   <time>2014-04-02T08:55:17Z</time>
  </trkpt>
  <trkpt lat="32.169101" lon="-3.044416">
   <ele>925.00</ele>
   <time>2014-04-02T08:55:27Z</time>
  </trkpt>
  <trkpt lat="32.168920" lon="-3.044406">
   <ele>925.00</ele>
   <time>2014-04-02T08:55:33Z</time>
  </trkpt>
  <trkpt lat="32.168727" lon="-3.044433">
   <ele>924.00</ele>
   <time>2014-04-02T08:55:39Z</time>
  </trkpt>
  <trkpt lat="32.168528" lon="-3.044456">
   <ele>925.00</ele>
   <time>2014-04-02T08:55:45Z</time>
  </trkpt>
  <trkpt lat="32.168326" lon="-3.044490">
   <ele>925.00</ele>
   <time>2014-04-02T08:55:51Z</time>
  </trkpt>
  <trkpt lat="32.168026" lon="-3.044549">
   <ele>925.00</ele>
   <time>2014-04-02T08:56:00Z</time>
  </trkpt>
  <trkpt lat="32.167835" lon="-3.044630">
   <ele>924.00</ele>
   <time>2014-04-02T08:56:06Z</time>
  </trkpt>
  <trkpt lat="32.167650" lon="-3.044708">
   <ele>924.00</ele>
   <time>2014-04-02T08:56:12Z</time>
  </trkpt>
  <trkpt lat="32.167477" lon="-3.044766">
   <ele>924.00</ele>
   <time>2014-04-02T08:56:17Z</time>
  </trkpt>
  <trkpt lat="32.167298" lon="-3.044830">
   <ele>924.00</ele>
   <time>2014-04-02T08:56:22Z</time>
  </trkpt>
  <trkpt lat="32.166816" lon="-3.045033">
   <ele>923.00</ele>
   <time>2014-04-02T08:56:34Z</time>
  </trkpt>
  <trkpt lat="32.166629" lon="-3.045112">
   <ele>923.00</ele>
   <time>2014-04-02T08:56:38Z</time>
  </trkpt>
  <trkpt lat="32.166443" lon="-3.045165">
   <ele>922.00</ele>
   <time>2014-04-02T08:56:42Z</time>
  </trkpt>
  <trkpt lat="32.166243" lon="-3.045173">
   <ele>922.00</ele>
   <time>2014-04-02T08:56:47Z</time>
  </trkpt>
  <trkpt lat="32.166053" lon="-3.045178">
   <ele>921.00</ele>
   <time>2014-04-02T08:56:52Z</time>
  </trkpt>
  <trkpt lat="32.165788" lon="-3.045190">
   <ele>921.00</ele>
   <time>2014-04-02T08:56:59Z</time>
  </trkpt>
  <trkpt lat="32.165603" lon="-3.045178">
   <ele>921.00</ele>
   <time>2014-04-02T08:57:04Z</time>
  </trkpt>
  <trkpt lat="32.165408" lon="-3.045159">
   <ele>921.00</ele>
   <time>2014-04-02T08:57:09Z</time>
  </trkpt>
  <trkpt lat="32.165153" lon="-3.045140">
   <ele>921.00</ele>
   <time>2014-04-02T08:57:15Z</time>
  </trkpt>
  <trkpt lat="32.164970" lon="-3.045158">
   <ele>922.00</ele>
   <time>2014-04-02T08:57:19Z</time>
  </trkpt>
  <trkpt lat="32.164608" lon="-3.045255">
   <ele>922.00</ele>
   <time>2014-04-02T08:57:26Z</time>
  </trkpt>
  <trkpt lat="32.164368" lon="-3.045285">
   <ele>923.00</ele>
   <time>2014-04-02T08:57:30Z</time>
  </trkpt>
  <trkpt lat="32.163707" lon="-3.045354">
   <ele>922.00</ele>
   <time>2014-04-02T08:57:41Z</time>
  </trkpt>
  <trkpt lat="32.163485" lon="-3.045432">
   <ele>922.00</ele>
   <time>2014-04-02T08:57:45Z</time>
  </trkpt>
  <trkpt lat="32.163265" lon="-3.045517">
   <ele>922.00</ele>
   <time>2014-04-02T08:57:49Z</time>
  </trkpt>
  <trkpt lat="32.163045" lon="-3.045600">
   <ele>922.00</ele>
   <time>2014-04-02T08:57:53Z</time>
  </trkpt>
  <trkpt lat="32.162809" lon="-3.045617">
   <ele>922.00</ele>
   <time>2014-04-02T08:57:57Z</time>
  </trkpt>
  <trkpt lat="32.162582" lon="-3.045619">
   <ele>922.00</ele>
   <time>2014-04-02T08:58:01Z</time>
  </trkpt>
  <trkpt lat="32.162374" lon="-3.045598">
   <ele>922.00</ele>
   <time>2014-04-02T08:58:05Z</time>
  </trkpt>
  <trkpt lat="32.162214" lon="-3.045499">
   <ele>922.00</ele>
   <time>2014-04-02T08:58:09Z</time>
  </trkpt>
  <trkpt lat="32.162032" lon="-3.045503">
   <ele>922.00</ele>
   <time>2014-04-02T08:58:13Z</time>
  </trkpt>
  <trkpt lat="32.161838" lon="-3.045526">
   <ele>922.00</ele>
   <time>2014-04-02T08:58:17Z</time>
  </trkpt>
  <trkpt lat="32.161602" lon="-3.045468">
   <ele>922.00</ele>
   <time>2014-04-02T08:58:22Z</time>
  </trkpt>
  <trkpt lat="32.161410" lon="-3.045456">
   <ele>922.00</ele>
   <time>2014-04-02T08:58:26Z</time>
  </trkpt>
  <trkpt lat="32.161222" lon="-3.045410">
   <ele>922.00</ele>
   <time>2014-04-02T08:58:30Z</time>
  </trkpt>
  <trkpt lat="32.161023" lon="-3.045401">
   <ele>922.00</ele>
   <time>2014-04-02T08:58:34Z</time>
  </trkpt>
  <trkpt lat="32.160493" lon="-3.045384">
   <ele>922.00</ele>
   <time>2014-04-02T08:58:44Z</time>
  </trkpt>
  <trkpt lat="32.160167" lon="-3.045387">
   <ele>922.00</ele>
   <time>2014-04-02T08:58:50Z</time>
  </trkpt>
  <trkpt lat="32.159981" lon="-3.045363">
   <ele>922.00</ele>
   <time>2014-04-02T08:58:54Z</time>
  </trkpt>
  <trkpt lat="32.159787" lon="-3.045331">
   <ele>922.00</ele>
   <time>2014-04-02T08:58:58Z</time>
  </trkpt>
  <trkpt lat="32.159583" lon="-3.045328">
   <ele>921.00</ele>
   <time>2014-04-02T08:59:02Z</time>
  </trkpt>
  <trkpt lat="32.159324" lon="-3.045343">
   <ele>921.00</ele>
   <time>2014-04-02T08:59:07Z</time>
  </trkpt>
  <trkpt lat="32.158777" lon="-3.045393">
   <ele>921.00</ele>
   <time>2014-04-02T08:59:17Z</time>
  </trkpt>
  <trkpt lat="32.158591" lon="-3.045317">
   <ele>921.00</ele>
   <time>2014-04-02T08:59:21Z</time>
  </trkpt>
  <trkpt lat="32.158394" lon="-3.045205">
   <ele>922.00</ele>
   <time>2014-04-02T08:59:26Z</time>
  </trkpt>
  <trkpt lat="32.158202" lon="-3.045198">
   <ele>922.00</ele>
   <time>2014-04-02T08:59:30Z</time>
  </trkpt>
  <trkpt lat="32.158019" lon="-3.045148">
   <ele>922.00</ele>
   <time>2014-04-02T08:59:34Z</time>
  </trkpt>
  <trkpt lat="32.157840" lon="-3.045070">
   <ele>922.00</ele>
   <time>2014-04-02T08:59:38Z</time>
  </trkpt>
  <trkpt lat="32.157669" lon="-3.044958">
   <ele>922.00</ele>
   <time>2014-04-02T08:59:43Z</time>
  </trkpt>
  <trkpt lat="32.157535" lon="-3.044784">
   <ele>923.00</ele>
   <time>2014-04-02T08:59:51Z</time>
  </trkpt>
  <trkpt lat="32.157365" lon="-3.044677">
   <ele>924.00</ele>
   <time>2014-04-02T08:59:56Z</time>
  </trkpt>
  <trkpt lat="32.157164" lon="-3.044603">
   <ele>924.00</ele>
   <time>2014-04-02T09:00:01Z</time>
  </trkpt>
  <trkpt lat="32.156965" lon="-3.044510">
   <ele>924.00</ele>
   <time>2014-04-02T09:00:06Z</time>
  </trkpt>
  <trkpt lat="32.156756" lon="-3.044439">
   <ele>924.00</ele>
   <time>2014-04-02T09:00:11Z</time>
  </trkpt>
  <trkpt lat="32.156548" lon="-3.044372">
   <ele>924.00</ele>
   <time>2014-04-02T09:00:16Z</time>
  </trkpt>
  <trkpt lat="32.156342" lon="-3.044327">
   <ele>923.00</ele>
   <time>2014-04-02T09:00:21Z</time>
  </trkpt>
  <trkpt lat="32.156165" lon="-3.044278">
   <ele>923.00</ele>
   <time>2014-04-02T09:00:25Z</time>
  </trkpt>
  <trkpt lat="32.155935" lon="-3.044225">
   <ele>922.00</ele>
   <time>2014-04-02T09:00:30Z</time>
  </trkpt>
  <trkpt lat="32.155713" lon="-3.044209">
   <ele>922.00</ele>
   <time>2014-04-02T09:00:35Z</time>
  </trkpt>
  <trkpt lat="32.155491" lon="-3.044227">
   <ele>922.00</ele>
   <time>2014-04-02T09:00:40Z</time>
  </trkpt>
  <trkpt lat="32.155268" lon="-3.044216">
   <ele>922.00</ele>
   <time>2014-04-02T09:00:45Z</time>
  </trkpt>
  <trkpt lat="32.155064" lon="-3.044154">
   <ele>921.00</ele>
   <time>2014-04-02T09:00:50Z</time>
  </trkpt>
  <trkpt lat="32.154869" lon="-3.044136">
   <ele>921.00</ele>
   <time>2014-04-02T09:00:55Z</time>
  </trkpt>
  <trkpt lat="32.154681" lon="-3.044071">
   <ele>921.00</ele>
   <time>2014-04-02T09:01:00Z</time>
  </trkpt>
  <trkpt lat="32.154526" lon="-3.043935">
   <ele>921.00</ele>
   <time>2014-04-02T09:01:05Z</time>
  </trkpt>
  <trkpt lat="32.154343" lon="-3.043789">
   <ele>920.00</ele>
   <time>2014-04-02T09:01:11Z</time>
  </trkpt>
  <trkpt lat="32.154178" lon="-3.043685">
   <ele>919.00</ele>
   <time>2014-04-02T09:01:15Z</time>
  </trkpt>
  <trkpt lat="32.153997" lon="-3.043583">
   <ele>919.00</ele>
   <time>2014-04-02T09:01:19Z</time>
  </trkpt>
  <trkpt lat="32.153810" lon="-3.043466">
   <ele>919.00</ele>
   <time>2014-04-02T09:01:23Z</time>
  </trkpt>
  <trkpt lat="32.153642" lon="-3.043312">
   <ele>919.00</ele>
   <time>2014-04-02T09:01:27Z</time>
  </trkpt>
  <trkpt lat="32.153473" lon="-3.043149">
   <ele>919.00</ele>
   <time>2014-04-02T09:01:31Z</time>
  </trkpt>
  <trkpt lat="32.153302" lon="-3.042998">
   <ele>919.00</ele>
   <time>2014-04-02T09:01:35Z</time>
  </trkpt>
  <trkpt lat="32.153115" lon="-3.042837">
   <ele>919.00</ele>
   <time>2014-04-02T09:01:39Z</time>
  </trkpt>
  <trkpt lat="32.152938" lon="-3.042670">
   <ele>919.00</ele>
   <time>2014-04-02T09:01:43Z</time>
  </trkpt>
  <trkpt lat="32.152381" lon="-3.042118">
   <ele>919.00</ele>
   <time>2014-04-02T09:01:59Z</time>
  </trkpt>
  <trkpt lat="32.152247" lon="-3.041971">
   <ele>919.00</ele>
   <time>2014-04-02T09:02:03Z</time>
  </trkpt>
  <trkpt lat="32.152091" lon="-3.041803">
   <ele>919.00</ele>
   <time>2014-04-02T09:02:08Z</time>
  </trkpt>
  <trkpt lat="32.151925" lon="-3.041628">
   <ele>919.00</ele>
   <time>2014-04-02T09:02:13Z</time>
  </trkpt>
  <trkpt lat="32.151810" lon="-3.041460">
   <ele>920.00</ele>
   <time>2014-04-02T09:02:17Z</time>
  </trkpt>
  <trkpt lat="32.151631" lon="-3.041197">
   <ele>920.00</ele>
   <time>2014-04-02T09:02:23Z</time>
  </trkpt>
  <trkpt lat="32.151502" lon="-3.041032">
   <ele>920.00</ele>
   <time>2014-04-02T09:02:27Z</time>
  </trkpt>
  <trkpt lat="32.151316" lon="-3.040778">
   <ele>919.00</ele>
   <time>2014-04-02T09:02:33Z</time>
  </trkpt>
  <trkpt lat="32.151205" lon="-3.040602">
   <ele>919.00</ele>
   <time>2014-04-02T09:02:37Z</time>
  </trkpt>
  <trkpt lat="32.150950" lon="-3.040162">
   <ele>919.00</ele>
   <time>2014-04-02T09:02:48Z</time>
  </trkpt>
  <trkpt lat="32.150828" lon="-3.039920">
   <ele>919.00</ele>
   <time>2014-04-02T09:02:54Z</time>
  </trkpt>
  <trkpt lat="32.150754" lon="-3.039722">
   <ele>919.00</ele>
   <time>2014-04-02T09:02:59Z</time>
  </trkpt>
  <trkpt lat="32.150699" lon="-3.039463">
   <ele>919.00</ele>
   <time>2014-04-02T09:03:05Z</time>
  </trkpt>
  <trkpt lat="32.150660" lon="-3.039235">
   <ele>919.00</ele>
   <time>2014-04-02T09:03:10Z</time>
  </trkpt>
  <trkpt lat="32.150650" lon="-3.038994">
   <ele>920.00</ele>
   <time>2014-04-02T09:03:15Z</time>
  </trkpt>
  <trkpt lat="32.150654" lon="-3.038702">
   <ele>920.00</ele>
   <time>2014-04-02T09:03:21Z</time>
  </trkpt>
  <trkpt lat="32.150719" lon="-3.038454">
   <ele>920.00</ele>
   <time>2014-04-02T09:03:26Z</time>
  </trkpt>
  <trkpt lat="32.150775" lon="-3.038237">
   <ele>921.00</ele>
   <time>2014-04-02T09:03:30Z</time>
  </trkpt>
  <trkpt lat="32.150802" lon="-3.038002">
   <ele>920.00</ele>
   <time>2014-04-02T09:03:34Z</time>
  </trkpt>
  <trkpt lat="32.150812" lon="-3.037763">
   <ele>920.00</ele>
   <time>2014-04-02T09:03:38Z</time>
  </trkpt>
  <trkpt lat="32.150864" lon="-3.037314">
   <ele>920.00</ele>
   <time>2014-04-02T09:03:46Z</time>
  </trkpt>
  <trkpt lat="32.150903" lon="-3.037085">
   <ele>920.00</ele>
   <time>2014-04-02T09:03:50Z</time>
  </trkpt>
  <trkpt lat="32.150942" lon="-3.036864">
   <ele>920.00</ele>
   <time>2014-04-02T09:03:54Z</time>
  </trkpt>
  <trkpt lat="32.151003" lon="-3.036362">
   <ele>920.00</ele>
   <time>2014-04-02T09:04:03Z</time>
  </trkpt>
  <trkpt lat="32.151019" lon="-3.036105">
   <ele>919.00</ele>
   <time>2014-04-02T09:04:08Z</time>
  </trkpt>
  <trkpt lat="32.151027" lon="-3.035874">
   <ele>919.00</ele>
   <time>2014-04-02T09:04:13Z</time>
  </trkpt>
  <trkpt lat="32.151023" lon="-3.035645">
   <ele>919.00</ele>
   <time>2014-04-02T09:04:19Z</time>
  </trkpt>
  <trkpt lat="32.151077" lon="-3.035382">
   <ele>919.00</ele>
   <time>2014-04-02T09:04:24Z</time>
  </trkpt>
  <trkpt lat="32.151181" lon="-3.035184">
   <ele>919.00</ele>
   <time>2014-04-02T09:04:28Z</time>
  </trkpt>
  <trkpt lat="32.151293" lon="-3.035015">
   <ele>920.00</ele>
   <time>2014-04-02T09:04:32Z</time>
  </trkpt>
  <trkpt lat="32.151389" lon="-3.034782">
   <ele>920.00</ele>
   <time>2014-04-02T09:04:37Z</time>
  </trkpt>
  <trkpt lat="32.151460" lon="-3.034564">
   <ele>920.00</ele>
   <time>2014-04-02T09:04:41Z</time>
  </trkpt>
  <trkpt lat="32.151571" lon="-3.034364">
   <ele>921.00</ele>
   <time>2014-04-02T09:04:45Z</time>
  </trkpt>
  <trkpt lat="32.152005" lon="-3.033657">
   <ele>919.00</ele>
   <time>2014-04-02T09:05:00Z</time>
  </trkpt>
  <trkpt lat="32.152073" lon="-3.033436">
   <ele>919.00</ele>
   <time>2014-04-02T09:05:04Z</time>
  </trkpt>
  <trkpt lat="32.152121" lon="-3.033189">
   <ele>918.00</ele>
   <time>2014-04-02T09:05:09Z</time>
  </trkpt>
  <trkpt lat="32.152108" lon="-3.032974">
   <ele>918.00</ele>
   <time>2014-04-02T09:05:14Z</time>
  </trkpt>
  <trkpt lat="32.152056" lon="-3.032751">
   <ele>917.00</ele>
   <time>2014-04-02T09:05:19Z</time>
  </trkpt>
  <trkpt lat="32.152028" lon="-3.032513">
   <ele>917.00</ele>
   <time>2014-04-02T09:05:24Z</time>
  </trkpt>
  <trkpt lat="32.152043" lon="-3.032254">
   <ele>918.00</ele>
   <time>2014-04-02T09:05:29Z</time>
  </trkpt>
  <trkpt lat="32.152094" lon="-3.031833">
   <ele>918.00</ele>
   <time>2014-04-02T09:05:36Z</time>
  </trkpt>
  <trkpt lat="32.152167" lon="-3.031608">
   <ele>918.00</ele>
   <time>2014-04-02T09:05:40Z</time>
  </trkpt>
  <trkpt lat="32.152274" lon="-3.031394">
   <ele>918.00</ele>
   <time>2014-04-02T09:05:44Z</time>
  </trkpt>
  <trkpt lat="32.152366" lon="-3.031147">
   <ele>919.00</ele>
   <time>2014-04-02T09:05:48Z</time>
  </trkpt>
  <trkpt lat="32.152468" lon="-3.030808">
   <ele>919.00</ele>
   <time>2014-04-02T09:05:53Z</time>
  </trkpt>
  <trkpt lat="32.152544" lon="-3.030610">
   <ele>920.00</ele>
   <time>2014-04-02T09:05:56Z</time>
  </trkpt>
  <trkpt lat="32.152638" lon="-3.030422">
   <ele>920.00</ele>
   <time>2014-04-02T09:05:59Z</time>
  </trkpt>
  <trkpt lat="32.152741" lon="-3.030170">
   <ele>920.00</ele>
   <time>2014-04-02T09:06:03Z</time>
  </trkpt>
  <trkpt lat="32.152847" lon="-3.029945">
   <ele>920.00</ele>
   <time>2014-04-02T09:06:07Z</time>
  </trkpt>
  <trkpt lat="32.152987" lon="-3.029749">
   <ele>920.00</ele>
   <time>2014-04-02T09:06:11Z</time>
  </trkpt>
  <trkpt lat="32.153098" lon="-3.029503">
   <ele>920.00</ele>
   <time>2014-04-02T09:06:15Z</time>
  </trkpt>
  <trkpt lat="32.153152" lon="-3.029251">
   <ele>920.00</ele>
   <time>2014-04-02T09:06:19Z</time>
  </trkpt>
  <trkpt lat="32.153151" lon="-3.028892">
   <ele>919.00</ele>
   <time>2014-04-02T09:06:25Z</time>
  </trkpt>
  <trkpt lat="32.153255" lon="-3.028639">
   <ele>919.00</ele>
   <time>2014-04-02T09:06:29Z</time>
  </trkpt>
  <trkpt lat="32.153310" lon="-3.028430">
   <ele>920.00</ele>
   <time>2014-04-02T09:06:32Z</time>
  </trkpt>
  <trkpt lat="32.153421" lon="-3.028185">
   <ele>920.00</ele>
   <time>2014-04-02T09:06:36Z</time>
  </trkpt>
  <trkpt lat="32.153533" lon="-3.027962">
   <ele>919.00</ele>
   <time>2014-04-02T09:06:40Z</time>
  </trkpt>
  <trkpt lat="32.153614" lon="-3.027764">
   <ele>919.00</ele>
   <time>2014-04-02T09:06:44Z</time>
  </trkpt>
  <trkpt lat="32.153777" lon="-3.027388">
   <ele>919.00</ele>
   <time>2014-04-02T09:06:51Z</time>
  </trkpt>
  <trkpt lat="32.153829" lon="-3.027162">
   <ele>919.00</ele>
   <time>2014-04-02T09:06:55Z</time>
  </trkpt>
  <trkpt lat="32.153733" lon="-3.026957">
   <ele>918.00</ele>
   <time>2014-04-02T09:07:00Z</time>
  </trkpt>
  <trkpt lat="32.153738" lon="-3.026694">
   <ele>919.00</ele>
   <time>2014-04-02T09:07:05Z</time>
  </trkpt>
  <trkpt lat="32.153755" lon="-3.026442">
   <ele>919.00</ele>
   <time>2014-04-02T09:07:09Z</time>
  </trkpt>
  <trkpt lat="32.153750" lon="-3.026083">
   <ele>919.00</ele>
   <time>2014-04-02T09:07:14Z</time>
  </trkpt>
  <trkpt lat="32.153779" lon="-3.025872">
   <ele>919.00</ele>
   <time>2014-04-02T09:07:17Z</time>
  </trkpt>
  <trkpt lat="32.153902" lon="-3.025154">
   <ele>920.00</ele>
   <time>2014-04-02T09:07:27Z</time>
  </trkpt>
  <trkpt lat="32.153954" lon="-3.024750">
   <ele>919.00</ele>
   <time>2014-04-02T09:07:38Z</time>
  </trkpt>
  <trkpt lat="32.154015" lon="-3.024384">
   <ele>919.00</ele>
   <time>2014-04-02T09:07:46Z</time>
  </trkpt>
  <trkpt lat="32.154067" lon="-3.024019">
   <ele>919.00</ele>
   <time>2014-04-02T09:07:53Z</time>
  </trkpt>
  <trkpt lat="32.154078" lon="-3.023744">
   <ele>919.00</ele>
   <time>2014-04-02T09:07:57Z</time>
  </trkpt>
  <trkpt lat="32.154089" lon="-3.023315">
   <ele>918.00</ele>
   <time>2014-04-02T09:08:03Z</time>
  </trkpt>
  <trkpt lat="32.154001" lon="-3.023093">
   <ele>918.00</ele>
   <time>2014-04-02T09:08:07Z</time>
  </trkpt>
  <trkpt lat="32.153931" lon="-3.022862">
   <ele>918.00</ele>
   <time>2014-04-02T09:08:11Z</time>
  </trkpt>
  <trkpt lat="32.153927" lon="-3.022604">
   <ele>918.00</ele>
   <time>2014-04-02T09:08:15Z</time>
  </trkpt>
  <trkpt lat="32.153927" lon="-3.022329">
   <ele>918.00</ele>
   <time>2014-04-02T09:08:19Z</time>
  </trkpt>
  <trkpt lat="32.153920" lon="-3.022046">
   <ele>917.00</ele>
   <time>2014-04-02T09:08:23Z</time>
  </trkpt>
  <trkpt lat="32.153917" lon="-3.021833">
   <ele>917.00</ele>
   <time>2014-04-02T09:08:26Z</time>
  </trkpt>
  <trkpt lat="32.153987" lon="-3.021601">
   <ele>917.00</ele>
   <time>2014-04-02T09:08:30Z</time>
  </trkpt>
  <trkpt lat="32.154067" lon="-3.021366">
   <ele>917.00</ele>
   <time>2014-04-02T09:08:35Z</time>
  </trkpt>
  <trkpt lat="32.154040" lon="-3.021127">
   <ele>917.00</ele>
   <time>2014-04-02T09:08:39Z</time>
  </trkpt>
  <trkpt lat="32.153998" lon="-3.020914">
   <ele>917.00</ele>
   <time>2014-04-02T09:08:42Z</time>
  </trkpt>
  <trkpt lat="32.153924" lon="-3.020691">
   <ele>917.00</ele>
   <time>2014-04-02T09:08:45Z</time>
  </trkpt>
  <trkpt lat="32.153765" lon="-3.020251">
   <ele>918.00</ele>
   <time>2014-04-02T09:08:51Z</time>
  </trkpt>
  <trkpt lat="32.153676" lon="-3.020058">
   <ele>918.00</ele>
   <time>2014-04-02T09:08:54Z</time>
  </trkpt>
  <trkpt lat="32.153524" lon="-3.019865">
   <ele>918.00</ele>
   <time>2014-04-02T09:08:58Z</time>
  </trkpt>
  <trkpt lat="32.153378" lon="-3.019638">
   <ele>919.00</ele>
   <time>2014-04-02T09:09:02Z</time>
  </trkpt>
  <trkpt lat="32.153232" lon="-3.019474">
   <ele>919.00</ele>
   <time>2014-04-02T09:09:05Z</time>
  </trkpt>
  <trkpt lat="32.153086" lon="-3.019336">
   <ele>919.00</ele>
   <time>2014-04-02T09:09:08Z</time>
  </trkpt>
  <trkpt lat="32.152935" lon="-3.019147">
   <ele>919.00</ele>
   <time>2014-04-02T09:09:12Z</time>
  </trkpt>
  <trkpt lat="32.152790" lon="-3.018969">
   <ele>919.00</ele>
   <time>2014-04-02T09:09:16Z</time>
  </trkpt>
  <trkpt lat="32.152636" lon="-3.018790">
   <ele>919.00</ele>
   <time>2014-04-02T09:09:20Z</time>
  </trkpt>
  <trkpt lat="32.152288" lon="-3.018367">
   <ele>918.00</ele>
   <time>2014-04-02T09:09:29Z</time>
  </trkpt>
  <trkpt lat="32.152107" lon="-3.018104">
   <ele>917.00</ele>
   <time>2014-04-02T09:09:34Z</time>
  </trkpt>
  <trkpt lat="32.151975" lon="-3.017949">
   <ele>917.00</ele>
   <time>2014-04-02T09:09:37Z</time>
  </trkpt>
  <trkpt lat="32.151792" lon="-3.017740">
   <ele>916.00</ele>
   <time>2014-04-02T09:09:41Z</time>
  </trkpt>
  <trkpt lat="32.151650" lon="-3.017599">
   <ele>915.00</ele>
   <time>2014-04-02T09:09:44Z</time>
  </trkpt>
  <trkpt lat="32.151471" lon="-3.017509">
   <ele>915.00</ele>
   <time>2014-04-02T09:09:47Z</time>
  </trkpt>
  <trkpt lat="32.151230" lon="-3.017418">
   <ele>915.00</ele>
   <time>2014-04-02T09:09:51Z</time>
  </trkpt>
  <trkpt lat="32.151063" lon="-3.017312">
   <ele>915.00</ele>
   <time>2014-04-02T09:09:54Z</time>
  </trkpt>
  <trkpt lat="32.150895" lon="-3.017220">
   <ele>915.00</ele>
   <time>2014-04-02T09:09:57Z</time>
  </trkpt>
  <trkpt lat="32.150584" lon="-3.017058">
   <ele>915.00</ele>
   <time>2014-04-02T09:10:03Z</time>
  </trkpt>
  <trkpt lat="32.150390" lon="-3.016952">
   <ele>915.00</ele>
   <time>2014-04-02T09:10:07Z</time>
  </trkpt>
  <trkpt lat="32.150216" lon="-3.016837">
   <ele>914.00</ele>
   <time>2014-04-02T09:10:11Z</time>
  </trkpt>
  <trkpt lat="32.150018" lon="-3.016819">
   <ele>914.00</ele>
   <time>2014-04-02T09:10:15Z</time>
  </trkpt>
  <trkpt lat="32.149806" lon="-3.016845">
   <ele>914.00</ele>
   <time>2014-04-02T09:10:19Z</time>
  </trkpt>
  <trkpt lat="32.149610" lon="-3.016892">
   <ele>913.00</ele>
   <time>2014-04-02T09:10:23Z</time>
  </trkpt>
  <trkpt lat="32.149469" lon="-3.017038">
   <ele>913.00</ele>
   <time>2014-04-02T09:10:27Z</time>
  </trkpt>
  <trkpt lat="32.149354" lon="-3.017240">
   <ele>914.00</ele>
   <time>2014-04-02T09:10:32Z</time>
  </trkpt>
  <trkpt lat="32.149259" lon="-3.017415">
   <ele>914.00</ele>
   <time>2014-04-02T09:10:37Z</time>
  </trkpt>
  <trkpt lat="32.149051" lon="-3.017416">
   <ele>913.00</ele>
   <time>2014-04-02T09:10:42Z</time>
  </trkpt>
  <trkpt lat="32.148851" lon="-3.017413">
   <ele>914.00</ele>
   <time>2014-04-02T09:10:46Z</time>
  </trkpt>
  <trkpt lat="32.148629" lon="-3.017440">
   <ele>914.00</ele>
   <time>2014-04-02T09:10:50Z</time>
  </trkpt>
  <trkpt lat="32.148220" lon="-3.017578">
   <ele>915.00</ele>
   <time>2014-04-02T09:10:58Z</time>
  </trkpt>
  <trkpt lat="32.148033" lon="-3.017535">
   <ele>915.00</ele>
   <time>2014-04-02T09:11:02Z</time>
  </trkpt>
  <trkpt lat="32.147859" lon="-3.017474">
   <ele>915.00</ele>
   <time>2014-04-02T09:11:06Z</time>
  </trkpt>
  <trkpt lat="32.147668" lon="-3.017526">
   <ele>916.00</ele>
   <time>2014-04-02T09:11:12Z</time>
  </trkpt>
  <trkpt lat="32.147476" lon="-3.017561">
   <ele>915.00</ele>
   <time>2014-04-02T09:11:18Z</time>
  </trkpt>
  <trkpt lat="32.147281" lon="-3.017536">
   <ele>914.00</ele>
   <time>2014-04-02T09:11:24Z</time>
  </trkpt>
  <trkpt lat="32.147111" lon="-3.017605">
   <ele>913.00</ele>
   <time>2014-04-02T09:11:29Z</time>
  </trkpt>
  <trkpt lat="32.146953" lon="-3.017736">
   <ele>912.00</ele>
   <time>2014-04-02T09:11:34Z</time>
  </trkpt>
  <trkpt lat="32.146752" lon="-3.017838">
   <ele>911.00</ele>
   <time>2014-04-02T09:11:39Z</time>
  </trkpt>
  <trkpt lat="32.146550" lon="-3.017941">
   <ele>911.00</ele>
   <time>2014-04-02T09:11:44Z</time>
  </trkpt>
  <trkpt lat="32.146382" lon="-3.018024">
   <ele>910.00</ele>
   <time>2014-04-02T09:11:48Z</time>
  </trkpt>
  <trkpt lat="32.146206" lon="-3.018090">
   <ele>910.00</ele>
   <time>2014-04-02T09:11:52Z</time>
  </trkpt>
  <trkpt lat="32.146028" lon="-3.018159">
   <ele>910.00</ele>
   <time>2014-04-02T09:11:57Z</time>
  </trkpt>
  <trkpt lat="32.145843" lon="-3.018137">
   <ele>909.00</ele>
   <time>2014-04-02T09:12:02Z</time>
  </trkpt>
  <trkpt lat="32.145665" lon="-3.018179">
   <ele>909.00</ele>
   <time>2014-04-02T09:12:06Z</time>
  </trkpt>
  <trkpt lat="32.145469" lon="-3.018242">
   <ele>910.00</ele>
   <time>2014-04-02T09:12:10Z</time>
  </trkpt>
  <trkpt lat="32.145054" lon="-3.018415">
   <ele>910.00</ele>
   <time>2014-04-02T09:12:18Z</time>
  </trkpt>
  <trkpt lat="32.144827" lon="-3.018484">
   <ele>910.00</ele>
   <time>2014-04-02T09:12:22Z</time>
  </trkpt>
  <trkpt lat="32.144651" lon="-3.018549">
   <ele>910.00</ele>
   <time>2014-04-02T09:12:25Z</time>
  </trkpt>
  <trkpt lat="32.144467" lon="-3.018625">
   <ele>910.00</ele>
   <time>2014-04-02T09:12:28Z</time>
  </trkpt>
  <trkpt lat="32.144288" lon="-3.018726">
   <ele>910.00</ele>
   <time>2014-04-02T09:12:31Z</time>
  </trkpt>
  <trkpt lat="32.144117" lon="-3.018845">
   <ele>910.00</ele>
   <time>2014-04-02T09:12:34Z</time>
  </trkpt>
  <trkpt lat="32.143830" lon="-3.019062">
   <ele>911.00</ele>
   <time>2014-04-02T09:12:39Z</time>
  </trkpt>
  <trkpt lat="32.143559" lon="-3.019209">
   <ele>911.00</ele>
   <time>2014-04-02T09:12:44Z</time>
  </trkpt>
  <trkpt lat="32.143277" lon="-3.019357">
   <ele>911.00</ele>
   <time>2014-04-02T09:12:51Z</time>
  </trkpt>
  <trkpt lat="32.143090" lon="-3.019421">
   <ele>911.00</ele>
   <time>2014-04-02T09:12:58Z</time>
  </trkpt>
  <trkpt lat="32.143012" lon="-3.019387">
   <ele>910.00</ele>
   <time>2014-04-02T09:13:14Z</time>
  </trkpt>
  <trkpt lat="32.142875" lon="-3.019281">
   <ele>910.00</ele>
   <time>2014-04-02T09:13:30Z</time>
  </trkpt>
  <trkpt lat="32.142874" lon="-3.019273">
   <ele>910.00</ele>
   <time>2014-04-02T09:13:45Z</time>
  </trkpt>
  <trkpt lat="32.142876" lon="-3.019271">
   <ele>910.00</ele>
   <time>2014-04-02T09:14:01Z</time>
  </trkpt>
  <trkpt lat="32.142877" lon="-3.019272">
   <ele>911.00</ele>
   <time>2014-04-02T09:14:16Z</time>
  </trkpt>
  <trkpt lat="32.142878" lon="-3.019272">
   <ele>911.00</ele>
   <time>2014-04-02T09:14:31Z</time>
  </trkpt>
  <trkpt lat="32.142879" lon="-3.019271">
   <ele>910.00</ele>
   <time>2014-04-02T09:14:47Z</time>
  </trkpt>
  <trkpt lat="32.142878" lon="-3.019271">
   <ele>909.00</ele>
   <time>2014-04-02T09:15:02Z</time>
  </trkpt>
  <trkpt lat="32.142879" lon="-3.019275">
   <ele>909.00</ele>
   <time>2014-04-02T09:15:17Z</time>
  </trkpt>
  <trkpt lat="32.142878" lon="-3.019277">
   <ele>909.00</ele>
   <time>2014-04-02T09:15:33Z</time>
  </trkpt>
  <trkpt lat="32.142879" lon="-3.019280">
   <ele>910.00</ele>
   <time>2014-04-02T09:15:48Z</time>
  </trkpt>
  <trkpt lat="32.142879" lon="-3.019281">
   <ele>910.00</ele>
   <time>2014-04-02T09:16:04Z</time>
  </trkpt>
  <trkpt lat="32.142878" lon="-3.019281">
   <ele>910.00</ele>
   <time>2014-04-02T09:16:19Z</time>
  </trkpt>
  <trkpt lat="32.142878" lon="-3.019281">
   <ele>910.00</ele>
   <time>2014-04-02T09:16:34Z</time>
  </trkpt>
  <trkpt lat="32.142879" lon="-3.019280">
   <ele>910.00</ele>
   <time>2014-04-02T09:16:50Z</time>
  </trkpt>
  <trkpt lat="32.142879" lon="-3.019279">
   <ele>910.00</ele>
   <time>2014-04-02T09:17:05Z</time>
  </trkpt>
  <trkpt lat="32.142879" lon="-3.019279">
   <ele>910.00</ele>
   <time>2014-04-02T09:17:20Z</time>
  </trkpt>
  <trkpt lat="32.142879" lon="-3.019278">
   <ele>910.00</ele>
   <time>2014-04-02T09:17:36Z</time>
  </trkpt>
  <trkpt lat="32.142879" lon="-3.019278">
   <ele>909.00</ele>
   <time>2014-04-02T09:17:51Z</time>
  </trkpt>
  <trkpt lat="32.142879" lon="-3.019279">
   <ele>909.00</ele>
   <time>2014-04-02T09:18:06Z</time>
  </trkpt>
  <trkpt lat="32.142878" lon="-3.019279">
   <ele>908.00</ele>
   <time>2014-04-02T09:18:22Z</time>
  </trkpt>
  <trkpt lat="32.142805" lon="-3.019232">
   <ele>908.00</ele>
   <time>2014-04-02T09:18:37Z</time>
  </trkpt>
  <trkpt lat="32.142612" lon="-3.019152">
   <ele>909.00</ele>
   <time>2014-04-02T09:18:44Z</time>
  </trkpt>
  <trkpt lat="32.142413" lon="-3.019125">
   <ele>909.00</ele>
   <time>2014-04-02T09:18:50Z</time>
  </trkpt>
  <trkpt lat="32.142222" lon="-3.019210">
   <ele>909.00</ele>
   <time>2014-04-02T09:18:56Z</time>
  </trkpt>
  <trkpt lat="32.142036" lon="-3.019213">
   <ele>909.00</ele>
   <time>2014-04-02T09:19:01Z</time>
  </trkpt>
  <trkpt lat="32.141836" lon="-3.019230">
   <ele>909.00</ele>
   <time>2014-04-02T09:19:06Z</time>
  </trkpt>
  <trkpt lat="32.141609" lon="-3.019247">
   <ele>909.00</ele>
   <time>2014-04-02T09:19:11Z</time>
  </trkpt>
  <trkpt lat="32.141307" lon="-3.019288">
   <ele>909.00</ele>
   <time>2014-04-02T09:19:17Z</time>
  </trkpt>
  <trkpt lat="32.141099" lon="-3.019376">
   <ele>910.00</ele>
   <time>2014-04-02T09:19:21Z</time>
  </trkpt>
  <trkpt lat="32.140842" lon="-3.019513">
   <ele>910.00</ele>
   <time>2014-04-02T09:19:26Z</time>
  </trkpt>
  <trkpt lat="32.140623" lon="-3.019603">
   <ele>910.00</ele>
   <time>2014-04-02T09:19:30Z</time>
  </trkpt>
  <trkpt lat="32.140395" lon="-3.019660">
   <ele>910.00</ele>
   <time>2014-04-02T09:19:34Z</time>
  </trkpt>
  <trkpt lat="32.140174" lon="-3.019740">
   <ele>910.00</ele>
   <time>2014-04-02T09:19:38Z</time>
  </trkpt>
  <trkpt lat="32.139982" lon="-3.019864">
   <ele>910.00</ele>
   <time>2014-04-02T09:19:42Z</time>
  </trkpt>
  <trkpt lat="32.139768" lon="-3.020034">
   <ele>909.00</ele>
   <time>2014-04-02T09:19:47Z</time>
  </trkpt>
  <trkpt lat="32.139563" lon="-3.020099">
   <ele>909.00</ele>
   <time>2014-04-02T09:19:51Z</time>
  </trkpt>
  <trkpt lat="32.139310" lon="-3.020150">
   <ele>908.00</ele>
   <time>2014-04-02T09:19:56Z</time>
  </trkpt>
  <trkpt lat="32.139125" lon="-3.020234">
   <ele>909.00</ele>
   <time>2014-04-02T09:20:00Z</time>
  </trkpt>
  <trkpt lat="32.138959" lon="-3.020341">
   <ele>909.00</ele>
   <time>2014-04-02T09:20:04Z</time>
  </trkpt>
  <trkpt lat="32.138798" lon="-3.020456">
   <ele>910.00</ele>
   <time>2014-04-02T09:20:08Z</time>
  </trkpt>
  <trkpt lat="32.138608" lon="-3.020528">
   <ele>910.00</ele>
   <time>2014-04-02T09:20:12Z</time>
  </trkpt>
  <trkpt lat="32.138418" lon="-3.020606">
   <ele>910.00</ele>
   <time>2014-04-02T09:20:16Z</time>
  </trkpt>
  <trkpt lat="32.138223" lon="-3.020705">
   <ele>910.00</ele>
   <time>2014-04-02T09:20:20Z</time>
  </trkpt>
  <trkpt lat="32.137944" lon="-3.020946">
   <ele>911.00</ele>
   <time>2014-04-02T09:20:26Z</time>
  </trkpt>
  <trkpt lat="32.137733" lon="-3.021026">
   <ele>912.00</ele>
   <time>2014-04-02T09:20:30Z</time>
  </trkpt>
  <trkpt lat="32.137374" lon="-3.021042">
   <ele>911.00</ele>
   <time>2014-04-02T09:20:36Z</time>
  </trkpt>
  <trkpt lat="32.137193" lon="-3.021098">
   <ele>911.00</ele>
   <time>2014-04-02T09:20:39Z</time>
  </trkpt>
  <trkpt lat="32.136887" lon="-3.021250">
   <ele>910.00</ele>
   <time>2014-04-02T09:20:44Z</time>
  </trkpt>
  <trkpt lat="32.136718" lon="-3.021364">
   <ele>910.00</ele>
   <time>2014-04-02T09:20:47Z</time>
  </trkpt>
  <trkpt lat="32.136548" lon="-3.021467">
   <ele>910.00</ele>
   <time>2014-04-02T09:20:50Z</time>
  </trkpt>
  <trkpt lat="32.136277" lon="-3.021630">
   <ele>910.00</ele>
   <time>2014-04-02T09:20:55Z</time>
  </trkpt>
  <trkpt lat="32.136096" lon="-3.021802">
   <ele>910.00</ele>
   <time>2014-04-02T09:20:59Z</time>
  </trkpt>
  <trkpt lat="32.135859" lon="-3.021941">
   <ele>910.00</ele>
   <time>2014-04-02T09:21:04Z</time>
  </trkpt>
  <trkpt lat="32.135681" lon="-3.022094">
   <ele>911.00</ele>
   <time>2014-04-02T09:21:08Z</time>
  </trkpt>
  <trkpt lat="32.135518" lon="-3.022191">
   <ele>911.00</ele>
   <time>2014-04-02T09:21:11Z</time>
  </trkpt>
  <trkpt lat="32.135334" lon="-3.022234">
   <ele>911.00</ele>
   <time>2014-04-02T09:21:14Z</time>
  </trkpt>
  <trkpt lat="32.135146" lon="-3.022274">
   <ele>911.00</ele>
   <time>2014-04-02T09:21:17Z</time>
  </trkpt>
  <trkpt lat="32.134670" lon="-3.022439">
   <ele>910.00</ele>
   <time>2014-04-02T09:21:25Z</time>
  </trkpt>
  <trkpt lat="32.134402" lon="-3.022510">
   <ele>909.00</ele>
   <time>2014-04-02T09:21:30Z</time>
  </trkpt>
  <trkpt lat="32.134217" lon="-3.022615">
   <ele>909.00</ele>
   <time>2014-04-02T09:21:34Z</time>
  </trkpt>
  <trkpt lat="32.134051" lon="-3.022696">
   <ele>909.00</ele>
   <time>2014-04-02T09:21:38Z</time>
  </trkpt>
  <trkpt lat="32.133878" lon="-3.022805">
   <ele>909.00</ele>
   <time>2014-04-02T09:21:43Z</time>
  </trkpt>
  <trkpt lat="32.133724" lon="-3.022984">
   <ele>909.00</ele>
   <time>2014-04-02T09:21:48Z</time>
  </trkpt>
  <trkpt lat="32.133602" lon="-3.023156">
   <ele>910.00</ele>
   <time>2014-04-02T09:21:52Z</time>
  </trkpt>
  <trkpt lat="32.133362" lon="-3.023474">
   <ele>911.00</ele>
   <time>2014-04-02T09:21:59Z</time>
  </trkpt>
  <trkpt lat="32.133175" lon="-3.023649">
   <ele>911.00</ele>
   <time>2014-04-02T09:22:03Z</time>
  </trkpt>
  <trkpt lat="32.133001" lon="-3.023762">
   <ele>911.00</ele>
   <time>2014-04-02T09:22:06Z</time>
  </trkpt>
  <trkpt lat="32.132629" lon="-3.023992">
   <ele>912.00</ele>
   <time>2014-04-02T09:22:12Z</time>
  </trkpt>
  <trkpt lat="32.132322" lon="-3.024174">
   <ele>912.00</ele>
   <time>2014-04-02T09:22:17Z</time>
  </trkpt>
  <trkpt lat="32.132135" lon="-3.024285">
   <ele>912.00</ele>
   <time>2014-04-02T09:22:20Z</time>
  </trkpt>
  <trkpt lat="32.131939" lon="-3.024375">
   <ele>912.00</ele>
   <time>2014-04-02T09:22:23Z</time>
  </trkpt>
  <trkpt lat="32.131733" lon="-3.024448">
   <ele>912.00</ele>
   <time>2014-04-02T09:22:26Z</time>
  </trkpt>
  <trkpt lat="32.131352" lon="-3.024567">
   <ele>910.00</ele>
   <time>2014-04-02T09:22:31Z</time>
  </trkpt>
  <trkpt lat="32.131123" lon="-3.024673">
   <ele>910.00</ele>
   <time>2014-04-02T09:22:34Z</time>
  </trkpt>
  <trkpt lat="32.130912" lon="-3.024807">
   <ele>910.00</ele>
   <time>2014-04-02T09:22:37Z</time>
  </trkpt>
  <trkpt lat="32.130742" lon="-3.024997">
   <ele>910.00</ele>
   <time>2014-04-02T09:22:40Z</time>
  </trkpt>
  <trkpt lat="32.130612" lon="-3.025214">
   <ele>909.00</ele>
   <time>2014-04-02T09:22:43Z</time>
  </trkpt>
  <trkpt lat="32.130450" lon="-3.025424">
   <ele>910.00</ele>
   <time>2014-04-02T09:22:46Z</time>
  </trkpt>
  <trkpt lat="32.130233" lon="-3.025584">
   <ele>910.00</ele>
   <time>2014-04-02T09:22:49Z</time>
  </trkpt>
  <trkpt lat="32.130003" lon="-3.025726">
   <ele>911.00</ele>
   <time>2014-04-02T09:22:52Z</time>
  </trkpt>
  <trkpt lat="32.129789" lon="-3.025910">
   <ele>911.00</ele>
   <time>2014-04-02T09:22:55Z</time>
  </trkpt>
  <trkpt lat="32.129630" lon="-3.026147">
   <ele>912.00</ele>
   <time>2014-04-02T09:22:58Z</time>
  </trkpt>
  <trkpt lat="32.129520" lon="-3.026412">
   <ele>912.00</ele>
   <time>2014-04-02T09:23:01Z</time>
  </trkpt>
  <trkpt lat="32.129403" lon="-3.026665">
   <ele>913.00</ele>
   <time>2014-04-02T09:23:04Z</time>
  </trkpt>
  <trkpt lat="32.129242" lon="-3.026921">
   <ele>913.00</ele>
   <time>2014-04-02T09:23:08Z</time>
  </trkpt>
  <trkpt lat="32.129108" lon="-3.027091">
   <ele>913.00</ele>
   <time>2014-04-02T09:23:14Z</time>
  </trkpt>
  <trkpt lat="32.128949" lon="-3.027194">
   <ele>914.00</ele>
   <time>2014-04-02T09:23:18Z</time>
  </trkpt>
  <trkpt lat="32.128264" lon="-3.027661">
   <ele>915.00</ele>
   <time>2014-04-02T09:23:31Z</time>
  </trkpt>
  <trkpt lat="32.128076" lon="-3.027795">
   <ele>916.00</ele>
   <time>2014-04-02T09:23:35Z</time>
  </trkpt>
  <trkpt lat="32.127924" lon="-3.027982">
   <ele>916.00</ele>
   <time>2014-04-02T09:23:39Z</time>
  </trkpt>
  <trkpt lat="32.127798" lon="-3.028209">
   <ele>916.00</ele>
   <time>2014-04-02T09:23:43Z</time>
  </trkpt>
  <trkpt lat="32.127702" lon="-3.028400">
   <ele>916.00</ele>
   <time>2014-04-02T09:23:47Z</time>
  </trkpt>
  <trkpt lat="32.127552" lon="-3.028671">
   <ele>916.00</ele>
   <time>2014-04-02T09:23:53Z</time>
  </trkpt>
  <trkpt lat="32.127381" lon="-3.028927">
   <ele>915.00</ele>
   <time>2014-04-02T09:23:58Z</time>
  </trkpt>
  <trkpt lat="32.127251" lon="-3.029157">
   <ele>915.00</ele>
   <time>2014-04-02T09:24:02Z</time>
  </trkpt>
  <trkpt lat="32.127146" lon="-3.029388">
   <ele>915.00</ele>
   <time>2014-04-02T09:24:06Z</time>
  </trkpt>
  <trkpt lat="32.127024" lon="-3.029590">
   <ele>915.00</ele>
   <time>2014-04-02T09:24:11Z</time>
  </trkpt>
  <trkpt lat="32.126930" lon="-3.029795">
   <ele>914.00</ele>
   <time>2014-04-02T09:24:16Z</time>
  </trkpt>
  <trkpt lat="32.126859" lon="-3.030032">
   <ele>910.00</ele>
   <time>2014-04-02T09:24:21Z</time>
  </trkpt>
  <trkpt lat="32.126774" lon="-3.030228">
   <ele>908.00</ele>
   <time>2014-04-02T09:24:25Z</time>
  </trkpt>
  <trkpt lat="32.126628" lon="-3.030406">
   <ele>908.00</ele>
   <time>2014-04-02T09:24:29Z</time>
  </trkpt>
  <trkpt lat="32.126486" lon="-3.030590">
   <ele>908.00</ele>
   <time>2014-04-02T09:24:33Z</time>
  </trkpt>
  <trkpt lat="32.126354" lon="-3.030781">
   <ele>908.00</ele>
   <time>2014-04-02T09:24:37Z</time>
  </trkpt>
  <trkpt lat="32.126206" lon="-3.030978">
   <ele>908.00</ele>
   <time>2014-04-02T09:24:41Z</time>
  </trkpt>
  <trkpt lat="32.126070" lon="-3.031203">
   <ele>908.00</ele>
   <time>2014-04-02T09:24:45Z</time>
  </trkpt>
  <trkpt lat="32.125853" lon="-3.031615">
   <ele>908.00</ele>
   <time>2014-04-02T09:24:52Z</time>
  </trkpt>
  <trkpt lat="32.125714" lon="-3.031804">
   <ele>908.00</ele>
   <time>2014-04-02T09:24:56Z</time>
  </trkpt>
  <trkpt lat="32.125581" lon="-3.031998">
   <ele>908.00</ele>
   <time>2014-04-02T09:25:00Z</time>
  </trkpt>
  <trkpt lat="32.125464" lon="-3.032196">
   <ele>907.00</ele>
   <time>2014-04-02T09:25:04Z</time>
  </trkpt>
  <trkpt lat="32.125356" lon="-3.032394">
   <ele>906.00</ele>
   <time>2014-04-02T09:25:08Z</time>
  </trkpt>
  <trkpt lat="32.125225" lon="-3.032581">
   <ele>905.00</ele>
   <time>2014-04-02T09:25:12Z</time>
  </trkpt>
  <trkpt lat="32.124980" lon="-3.032801">
   <ele>906.00</ele>
   <time>2014-04-02T09:25:19Z</time>
  </trkpt>
  <trkpt lat="32.124778" lon="-3.032978">
   <ele>905.00</ele>
   <time>2014-04-02T09:25:25Z</time>
  </trkpt>
  <trkpt lat="32.124654" lon="-3.033092">
   <ele>905.00</ele>
   <time>2014-04-02T09:25:40Z</time>
  </trkpt>
  <trkpt lat="32.124659" lon="-3.033088">
   <ele>905.00</ele>
   <time>2014-04-02T09:25:55Z</time>
  </trkpt>
  <trkpt lat="32.124663" lon="-3.033084">
   <ele>904.00</ele>
   <time>2014-04-02T09:26:10Z</time>
  </trkpt>
  <trkpt lat="32.124664" lon="-3.033080">
   <ele>904.00</ele>
   <time>2014-04-02T09:26:26Z</time>
  </trkpt>
  <trkpt lat="32.124667" lon="-3.033080">
   <ele>904.00</ele>
   <time>2014-04-02T09:26:41Z</time>
  </trkpt>
  <trkpt lat="32.124668" lon="-3.033078">
   <ele>903.00</ele>
   <time>2014-04-02T09:26:56Z</time>
  </trkpt>
  <trkpt lat="32.124669" lon="-3.033076">
   <ele>903.00</ele>
   <time>2014-04-02T09:27:12Z</time>
  </trkpt>
  <trkpt lat="32.124669" lon="-3.033074">
   <ele>903.00</ele>
   <time>2014-04-02T09:27:27Z</time>
  </trkpt>
  <trkpt lat="32.124669" lon="-3.033071">
   <ele>902.00</ele>
   <time>2014-04-02T09:27:42Z</time>
  </trkpt>
  <trkpt lat="32.124670" lon="-3.033071">
   <ele>904.00</ele>
   <time>2014-04-02T09:27:58Z</time>
  </trkpt>
  <trkpt lat="32.124669" lon="-3.033075">
   <ele>904.00</ele>
   <time>2014-04-02T09:28:13Z</time>
  </trkpt>
  <trkpt lat="32.124666" lon="-3.033080">
   <ele>905.00</ele>
   <time>2014-04-02T09:28:28Z</time>
  </trkpt>
  <trkpt lat="32.124664" lon="-3.033080">
   <ele>907.00</ele>
   <time>2014-04-02T09:28:44Z</time>
  </trkpt>
  <trkpt lat="32.124664" lon="-3.033082">
   <ele>906.00</ele>
   <time>2014-04-02T09:28:59Z</time>
  </trkpt>
  <trkpt lat="32.124663" lon="-3.033082">
   <ele>906.00</ele>
   <time>2014-04-02T09:29:14Z</time>
  </trkpt>
  <trkpt lat="32.124661" lon="-3.033084">
   <ele>907.00</ele>
   <time>2014-04-02T09:29:30Z</time>
  </trkpt>
  <trkpt lat="32.124661" lon="-3.033084">
   <ele>909.00</ele>
   <time>2014-04-02T09:29:45Z</time>
  </trkpt>
  <trkpt lat="32.124660" lon="-3.033086">
   <ele>909.00</ele>
   <time>2014-04-02T09:30:01Z</time>
  </trkpt>
  <trkpt lat="32.124624" lon="-3.033118">
   <ele>908.00</ele>
   <time>2014-04-02T09:30:16Z</time>
  </trkpt>
  <trkpt lat="32.124499" lon="-3.033279">
   <ele>908.00</ele>
   <time>2014-04-02T09:30:23Z</time>
  </trkpt>
  <trkpt lat="32.124387" lon="-3.033467">
   <ele>909.00</ele>
   <time>2014-04-02T09:30:29Z</time>
  </trkpt>
  <trkpt lat="32.124242" lon="-3.033721">
   <ele>909.00</ele>
   <time>2014-04-02T09:30:36Z</time>
  </trkpt>
  <trkpt lat="32.124102" lon="-3.033908">
   <ele>909.00</ele>
   <time>2014-04-02T09:30:41Z</time>
  </trkpt>
  <trkpt lat="32.123956" lon="-3.034089">
   <ele>909.00</ele>
   <time>2014-04-02T09:30:46Z</time>
  </trkpt>
  <trkpt lat="32.123787" lon="-3.034256">
   <ele>908.00</ele>
   <time>2014-04-02T09:30:51Z</time>
  </trkpt>
  <trkpt lat="32.123604" lon="-3.034408">
   <ele>906.00</ele>
   <time>2014-04-02T09:30:56Z</time>
  </trkpt>
  <trkpt lat="32.123464" lon="-3.034557">
   <ele>906.00</ele>
   <time>2014-04-02T09:31:02Z</time>
  </trkpt>
  <trkpt lat="32.123327" lon="-3.034750">
   <ele>907.00</ele>
   <time>2014-04-02T09:31:09Z</time>
  </trkpt>
  <trkpt lat="32.123270" lon="-3.034980">
   <ele>907.00</ele>
   <time>2014-04-02T09:31:14Z</time>
  </trkpt>
  <trkpt lat="32.123290" lon="-3.035245">
   <ele>908.00</ele>
   <time>2014-04-02T09:31:21Z</time>
  </trkpt>
  <trkpt lat="32.123293" lon="-3.035485">
   <ele>908.00</ele>
   <time>2014-04-02T09:31:27Z</time>
  </trkpt>
  <trkpt lat="32.123306" lon="-3.035702">
   <ele>908.00</ele>
   <time>2014-04-02T09:31:32Z</time>
  </trkpt>
  <trkpt lat="32.123296" lon="-3.035879">
   <ele>910.00</ele>
   <time>2014-04-02T09:31:48Z</time>
  </trkpt>
  <trkpt lat="32.123294" lon="-3.035880">
   <ele>912.00</ele>
   <time>2014-04-02T09:32:03Z</time>
  </trkpt>
  <trkpt lat="32.123293" lon="-3.035882">
   <ele>914.00</ele>
   <time>2014-04-02T09:32:18Z</time>
  </trkpt>
  <trkpt lat="32.123301" lon="-3.036124">
   <ele>916.00</ele>
   <time>2014-04-02T09:32:29Z</time>
  </trkpt>
  <trkpt lat="32.123321" lon="-3.036590">
   <ele>918.00</ele>
   <time>2014-04-02T09:32:38Z</time>
  </trkpt>
  <trkpt lat="32.123348" lon="-3.036834">
   <ele>919.00</ele>
   <time>2014-04-02T09:32:42Z</time>
  </trkpt>
  <trkpt lat="32.123372" lon="-3.037065">
   <ele>919.00</ele>
   <time>2014-04-02T09:32:46Z</time>
  </trkpt>
  <trkpt lat="32.123381" lon="-3.037298">
   <ele>920.00</ele>
   <time>2014-04-02T09:32:50Z</time>
  </trkpt>
  <trkpt lat="32.123373" lon="-3.037556">
   <ele>920.00</ele>
   <time>2014-04-02T09:32:54Z</time>
  </trkpt>
  <trkpt lat="32.123339" lon="-3.038362">
   <ele>920.00</ele>
   <time>2014-04-02T09:33:06Z</time>
  </trkpt>
  <trkpt lat="32.123345" lon="-3.038733">
   <ele>921.00</ele>
   <time>2014-04-02T09:33:12Z</time>
  </trkpt>
  <trkpt lat="32.123362" lon="-3.038962">
   <ele>922.00</ele>
   <time>2014-04-02T09:33:16Z</time>
  </trkpt>
  <trkpt lat="32.123390" lon="-3.039235">
   <ele>922.00</ele>
   <time>2014-04-02T09:33:21Z</time>
  </trkpt>
  <trkpt lat="32.123389" lon="-3.039463">
   <ele>922.00</ele>
   <time>2014-04-02T09:33:25Z</time>
  </trkpt>
  <trkpt lat="32.123414" lon="-3.039687">
   <ele>922.00</ele>
   <time>2014-04-02T09:33:29Z</time>
  </trkpt>
  <trkpt lat="32.123459" lon="-3.039922">
   <ele>923.00</ele>
   <time>2014-04-02T09:33:33Z</time>
  </trkpt>
  <trkpt lat="32.123466" lon="-3.040172">
   <ele>923.00</ele>
   <time>2014-04-02T09:33:37Z</time>
  </trkpt>
  <trkpt lat="32.123455" lon="-3.040411">
   <ele>923.00</ele>
   <time>2014-04-02T09:33:41Z</time>
  </trkpt>
  <trkpt lat="32.123433" lon="-3.040624">
   <ele>923.00</ele>
   <time>2014-04-02T09:33:45Z</time>
  </trkpt>
  <trkpt lat="32.123346" lon="-3.041076">
   <ele>921.00</ele>
   <time>2014-04-02T09:33:54Z</time>
  </trkpt>
  <trkpt lat="32.123282" lon="-3.041313">
   <ele>913.00</ele>
   <time>2014-04-02T09:33:59Z</time>
  </trkpt>
  <trkpt lat="32.123210" lon="-3.041544">
   <ele>909.00</ele>
   <time>2014-04-02T09:34:04Z</time>
  </trkpt>
  <trkpt lat="32.122991" lon="-3.042093">
   <ele>906.00</ele>
   <time>2014-04-02T09:34:17Z</time>
  </trkpt>
  <trkpt lat="32.122862" lon="-3.042361">
   <ele>905.00</ele>
   <time>2014-04-02T09:34:23Z</time>
  </trkpt>
  <trkpt lat="32.122752" lon="-3.042565">
   <ele>904.00</ele>
   <time>2014-04-02T09:34:28Z</time>
  </trkpt>
  <trkpt lat="32.122602" lon="-3.042714">
   <ele>904.00</ele>
   <time>2014-04-02T09:34:32Z</time>
  </trkpt>
  <trkpt lat="32.122459" lon="-3.042871">
   <ele>904.00</ele>
   <time>2014-04-02T09:34:36Z</time>
  </trkpt>
  <trkpt lat="32.122320" lon="-3.043030">
   <ele>905.00</ele>
   <time>2014-04-02T09:34:40Z</time>
  </trkpt>
  <trkpt lat="32.122125" lon="-3.043268">
   <ele>905.00</ele>
   <time>2014-04-02T09:34:47Z</time>
  </trkpt>
  <trkpt lat="32.122010" lon="-3.043447">
   <ele>905.00</ele>
   <time>2014-04-02T09:34:52Z</time>
  </trkpt>
  <trkpt lat="32.121870" lon="-3.043584">
   <ele>907.00</ele>
   <time>2014-04-02T09:35:05Z</time>
  </trkpt>
  <trkpt lat="32.121705" lon="-3.043710">
   <ele>907.00</ele>
   <time>2014-04-02T09:35:11Z</time>
  </trkpt>
  <trkpt lat="32.121692" lon="-3.043927">
   <ele>907.00</ele>
   <time>2014-04-02T09:35:17Z</time>
  </trkpt>
  <trkpt lat="32.121780" lon="-3.044140">
   <ele>905.00</ele>
   <time>2014-04-02T09:35:24Z</time>
  </trkpt>
  <trkpt lat="32.121746" lon="-3.044369">
   <ele>903.00</ele>
   <time>2014-04-02T09:35:32Z</time>
  </trkpt>
  <trkpt lat="32.121819" lon="-3.044498">
   <ele>902.00</ele>
   <time>2014-04-02T09:35:40Z</time>
  </trkpt>
  <trkpt lat="32.122014" lon="-3.044501">
   <ele>901.00</ele>
   <time>2014-04-02T09:35:46Z</time>
  </trkpt>
  <trkpt lat="32.122216" lon="-3.044524">
   <ele>901.00</ele>
   <time>2014-04-02T09:35:51Z</time>
  </trkpt>
  <trkpt lat="32.122413" lon="-3.044524">
   <ele>902.00</ele>
   <time>2014-04-02T09:35:55Z</time>
  </trkpt>
  <trkpt lat="32.122624" lon="-3.044501">
   <ele>902.00</ele>
   <time>2014-04-02T09:35:59Z</time>
  </trkpt>
  <trkpt lat="32.122833" lon="-3.044439">
   <ele>902.00</ele>
   <time>2014-04-02T09:36:03Z</time>
  </trkpt>
  <trkpt lat="32.123025" lon="-3.044349">
   <ele>902.00</ele>
   <time>2014-04-02T09:36:07Z</time>
  </trkpt>
  <trkpt lat="32.123360" lon="-3.044158">
   <ele>901.00</ele>
   <time>2014-04-02T09:36:14Z</time>
  </trkpt>
  <trkpt lat="32.123511" lon="-3.043980">
   <ele>901.00</ele>
   <time>2014-04-02T09:36:18Z</time>
  </trkpt>
  <trkpt lat="32.123622" lon="-3.043764">
   <ele>902.00</ele>
   <time>2014-04-02T09:36:22Z</time>
  </trkpt>
  <trkpt lat="32.123813" lon="-3.043404">
   <ele>902.00</ele>
   <time>2014-04-02T09:36:29Z</time>
  </trkpt>
  <trkpt lat="32.123854" lon="-3.043192">
   <ele>902.00</ele>
   <time>2014-04-02T09:36:33Z</time>
  </trkpt>
  <trkpt lat="32.123860" lon="-3.042976">
   <ele>900.00</ele>
   <time>2014-04-02T09:36:39Z</time>
  </trkpt>
  <trkpt lat="32.123833" lon="-3.042754">
   <ele>901.00</ele>
   <time>2014-04-02T09:36:47Z</time>
  </trkpt>
  <trkpt lat="32.124004" lon="-3.042751">
   <ele>902.00</ele>
   <time>2014-04-02T09:36:52Z</time>
  </trkpt>
  <trkpt lat="32.124199" lon="-3.042828">
   <ele>902.00</ele>
   <time>2014-04-02T09:36:56Z</time>
  </trkpt>
  <trkpt lat="32.124401" lon="-3.042909">
   <ele>903.00</ele>
   <time>2014-04-02T09:37:00Z</time>
  </trkpt>
  <trkpt lat="32.124603" lon="-3.043011">
   <ele>903.00</ele>
   <time>2014-04-02T09:37:04Z</time>
  </trkpt>
  <trkpt lat="32.124794" lon="-3.043162">
   <ele>904.00</ele>
   <time>2014-04-02T09:37:08Z</time>
  </trkpt>
  <trkpt lat="32.124928" lon="-3.043389">
   <ele>905.00</ele>
   <time>2014-04-02T09:37:12Z</time>
  </trkpt>
  <trkpt lat="32.125083" lon="-3.043597">
   <ele>905.00</ele>
   <time>2014-04-02T09:37:16Z</time>
  </trkpt>
  <trkpt lat="32.125275" lon="-3.043731">
   <ele>906.00</ele>
   <time>2014-04-02T09:37:20Z</time>
  </trkpt>
  <trkpt lat="32.125467" lon="-3.043822">
   <ele>906.00</ele>
   <time>2014-04-02T09:37:24Z</time>
  </trkpt>
  <trkpt lat="32.125685" lon="-3.043923">
   <ele>907.00</ele>
   <time>2014-04-02T09:37:28Z</time>
  </trkpt>
  <trkpt lat="32.125858" lon="-3.044028">
   <ele>907.00</ele>
   <time>2014-04-02T09:37:31Z</time>
  </trkpt>
  <trkpt lat="32.126039" lon="-3.044140">
   <ele>908.00</ele>
   <time>2014-04-02T09:37:34Z</time>
  </trkpt>
  <trkpt lat="32.126233" lon="-3.044229">
   <ele>908.00</ele>
   <time>2014-04-02T09:37:37Z</time>
  </trkpt>
  <trkpt lat="32.126498" lon="-3.044328">
   <ele>909.00</ele>
   <time>2014-04-02T09:37:41Z</time>
  </trkpt>
  <trkpt lat="32.126693" lon="-3.044427">
   <ele>909.00</ele>
   <time>2014-04-02T09:37:44Z</time>
  </trkpt>
  <trkpt lat="32.127222" lon="-3.044724">
   <ele>911.00</ele>
   <time>2014-04-02T09:37:52Z</time>
  </trkpt>
  <trkpt lat="32.127420" lon="-3.044868">
   <ele>911.00</ele>
   <time>2014-04-02T09:37:55Z</time>
  </trkpt>
  <trkpt lat="32.127875" lon="-3.045235">
   <ele>912.00</ele>
   <time>2014-04-02T09:38:03Z</time>
  </trkpt>
  <trkpt lat="32.127969" lon="-3.045427">
   <ele>913.00</ele>
   <time>2014-04-02T09:38:08Z</time>
  </trkpt>
  <trkpt lat="32.127929" lon="-3.045681">
   <ele>912.00</ele>
   <time>2014-04-02T09:38:12Z</time>
  </trkpt>
  <trkpt lat="32.127907" lon="-3.045755">
   <ele>912.00</ele>
   <time>2014-04-02T09:38:27Z</time>
  </trkpt>
  <trkpt lat="32.127900" lon="-3.045752">
   <ele>913.00</ele>
   <time>2014-04-02T09:38:43Z</time>
  </trkpt>
  <trkpt lat="32.127896" lon="-3.045752">
   <ele>914.00</ele>
   <time>2014-04-02T09:38:58Z</time>
  </trkpt>
  <trkpt lat="32.127893" lon="-3.045754">
   <ele>914.00</ele>
   <time>2014-04-02T09:39:13Z</time>
  </trkpt>
  <trkpt lat="32.127893" lon="-3.045750">
   <ele>913.00</ele>
   <time>2014-04-02T09:39:29Z</time>
  </trkpt>
  <trkpt lat="32.127881" lon="-3.045869">
   <ele>914.00</ele>
   <time>2014-04-02T09:39:44Z</time>
  </trkpt>
  <trkpt lat="32.127800" lon="-3.046563">
   <ele>916.00</ele>
   <time>2014-04-02T09:39:53Z</time>
  </trkpt>
  <trkpt lat="32.127710" lon="-3.047153">
   <ele>916.00</ele>
   <time>2014-04-02T09:39:59Z</time>
  </trkpt>
  <trkpt lat="32.127629" lon="-3.047566">
   <ele>916.00</ele>
   <time>2014-04-02T09:40:03Z</time>
  </trkpt>
  <trkpt lat="32.127579" lon="-3.047771">
   <ele>916.00</ele>
   <time>2014-04-02T09:40:05Z</time>
  </trkpt>
  <trkpt lat="32.127514" lon="-3.047975">
   <ele>916.00</ele>
   <time>2014-04-02T09:40:07Z</time>
  </trkpt>
  <trkpt lat="32.127430" lon="-3.048192">
   <ele>915.00</ele>
   <time>2014-04-02T09:40:09Z</time>
  </trkpt>
  <trkpt lat="32.127322" lon="-3.048435">
   <ele>915.00</ele>
   <time>2014-04-02T09:40:11Z</time>
  </trkpt>
  <trkpt lat="32.127075" lon="-3.048916">
   <ele>916.00</ele>
   <time>2014-04-02T09:40:15Z</time>
  </trkpt>
  <trkpt lat="32.126444" lon="-3.050096">
   <ele>916.00</ele>
   <time>2014-04-02T09:40:25Z</time>
  </trkpt>
  <trkpt lat="32.126336" lon="-3.050346">
   <ele>916.00</ele>
   <time>2014-04-02T09:40:27Z</time>
  </trkpt>
  <trkpt lat="32.126240" lon="-3.050597">
   <ele>916.00</ele>
   <time>2014-04-02T09:40:29Z</time>
  </trkpt>
  <trkpt lat="32.126153" lon="-3.050854">
   <ele>917.00</ele>
   <time>2014-04-02T09:40:31Z</time>
  </trkpt>
  <trkpt lat="32.125849" lon="-3.051821">
   <ele>920.00</ele>
   <time>2014-04-02T09:40:39Z</time>
  </trkpt>
  <trkpt lat="32.125271" lon="-3.053985">
   <ele>921.00</ele>
   <time>2014-04-02T09:40:54Z</time>
  </trkpt>
  <trkpt lat="32.124557" lon="-3.056502">
   <ele>925.00</ele>
   <time>2014-04-02T09:41:09Z</time>
  </trkpt>
  <trkpt lat="32.124489" lon="-3.056840">
   <ele>925.00</ele>
   <time>2014-04-02T09:41:11Z</time>
  </trkpt>
  <trkpt lat="32.124441" lon="-3.057192">
   <ele>926.00</ele>
   <time>2014-04-02T09:41:13Z</time>
  </trkpt>
  <trkpt lat="32.124357" lon="-3.058109">
   <ele>927.00</ele>
   <time>2014-04-02T09:41:18Z</time>
  </trkpt>
  <trkpt lat="32.124287" lon="-3.058845">
   <ele>928.00</ele>
   <time>2014-04-02T09:41:22Z</time>
  </trkpt>
  <trkpt lat="32.124229" lon="-3.059199">
   <ele>929.00</ele>
   <time>2014-04-02T09:41:24Z</time>
  </trkpt>
  <trkpt lat="32.124144" lon="-3.059547">
   <ele>929.00</ele>
   <time>2014-04-02T09:41:26Z</time>
  </trkpt>
  <trkpt lat="32.124037" lon="-3.059897">
   <ele>928.00</ele>
   <time>2014-04-02T09:41:28Z</time>
  </trkpt>
  <trkpt lat="32.123648" lon="-3.061138">
   <ele>927.00</ele>
   <time>2014-04-02T09:41:35Z</time>
  </trkpt>
  <trkpt lat="32.123553" lon="-3.061498">
   <ele>927.00</ele>
   <time>2014-04-02T09:41:37Z</time>
  </trkpt>
  <trkpt lat="32.123471" lon="-3.061865">
   <ele>926.00</ele>
   <time>2014-04-02T09:41:39Z</time>
  </trkpt>
  <trkpt lat="32.123361" lon="-3.062432">
   <ele>925.00</ele>
   <time>2014-04-02T09:41:42Z</time>
  </trkpt>
  <trkpt lat="32.123304" lon="-3.062820">
   <ele>925.00</ele>
   <time>2014-04-02T09:41:44Z</time>
  </trkpt>
  <trkpt lat="32.123263" lon="-3.063210">
   <ele>925.00</ele>
   <time>2014-04-02T09:41:46Z</time>
  </trkpt>
  <trkpt lat="32.123079" lon="-3.065138">
   <ele>929.00</ele>
   <time>2014-04-02T09:41:56Z</time>
  </trkpt>
  <trkpt lat="32.123018" lon="-3.065503">
   <ele>930.00</ele>
   <time>2014-04-02T09:41:58Z</time>
  </trkpt>
  <trkpt lat="32.122687" lon="-3.067087">
   <ele>930.00</ele>
   <time>2014-04-02T09:42:07Z</time>
  </trkpt>
  <trkpt lat="32.122138" lon="-3.069437">
   <ele>933.00</ele>
   <time>2014-04-02T09:42:21Z</time>
  </trkpt>
  <trkpt lat="32.122047" lon="-3.069721">
   <ele>933.00</ele>
   <time>2014-04-02T09:42:23Z</time>
  </trkpt>
  <trkpt lat="32.121933" lon="-3.069972">
   <ele>933.00</ele>
   <time>2014-04-02T09:42:25Z</time>
  </trkpt>
  <trkpt lat="32.121785" lon="-3.070196">
   <ele>932.00</ele>
   <time>2014-04-02T09:42:27Z</time>
  </trkpt>
  <trkpt lat="32.121608" lon="-3.070404">
   <ele>931.00</ele>
   <time>2014-04-02T09:42:29Z</time>
  </trkpt>
  <trkpt lat="32.120243" lon="-3.071926">
   <ele>931.00</ele>
   <time>2014-04-02T09:42:43Z</time>
  </trkpt>
  <trkpt lat="32.120107" lon="-3.072153">
   <ele>931.00</ele>
   <time>2014-04-02T09:42:45Z</time>
  </trkpt>
  <trkpt lat="32.120023" lon="-3.072420">
   <ele>932.00</ele>
   <time>2014-04-02T09:42:47Z</time>
  </trkpt>
  <trkpt lat="32.119915" lon="-3.072839">
   <ele>933.00</ele>
   <time>2014-04-02T09:42:50Z</time>
  </trkpt>
  <trkpt lat="32.119817" lon="-3.073091">
   <ele>934.00</ele>
   <time>2014-04-02T09:42:52Z</time>
  </trkpt>
  <trkpt lat="32.119678" lon="-3.073290">
   <ele>935.00</ele>
   <time>2014-04-02T09:42:54Z</time>
  </trkpt>
  <trkpt lat="32.119496" lon="-3.073426">
   <ele>936.00</ele>
   <time>2014-04-02T09:42:56Z</time>
  </trkpt>
  <trkpt lat="32.119304" lon="-3.073509">
   <ele>937.00</ele>
   <time>2014-04-02T09:42:58Z</time>
  </trkpt>
  <trkpt lat="32.119101" lon="-3.073570">
   <ele>938.00</ele>
   <time>2014-04-02T09:43:00Z</time>
  </trkpt>
  <trkpt lat="32.118888" lon="-3.073620">
   <ele>939.00</ele>
   <time>2014-04-02T09:43:02Z</time>
  </trkpt>
  <trkpt lat="32.117153" lon="-3.074034">
   <ele>947.00</ele>
   <time>2014-04-02T09:43:17Z</time>
  </trkpt>
  <trkpt lat="32.116442" lon="-3.074223">
   <ele>950.00</ele>
   <time>2014-04-02T09:43:23Z</time>
  </trkpt>
  <trkpt lat="32.116208" lon="-3.074287">
   <ele>952.00</ele>
   <time>2014-04-02T09:43:25Z</time>
  </trkpt>
  <trkpt lat="32.115970" lon="-3.074328">
   <ele>953.00</ele>
   <time>2014-04-02T09:43:27Z</time>
  </trkpt>
  <trkpt lat="32.115727" lon="-3.074339">
   <ele>953.00</ele>
   <time>2014-04-02T09:43:29Z</time>
  </trkpt>
  <trkpt lat="32.115480" lon="-3.074320">
   <ele>954.00</ele>
   <time>2014-04-02T09:43:31Z</time>
  </trkpt>
  <trkpt lat="32.115233" lon="-3.074276">
   <ele>956.00</ele>
   <time>2014-04-02T09:43:33Z</time>
  </trkpt>
  <trkpt lat="32.114993" lon="-3.074218">
   <ele>957.00</ele>
   <time>2014-04-02T09:43:35Z</time>
  </trkpt>
  <trkpt lat="32.114759" lon="-3.074146">
   <ele>958.00</ele>
   <time>2014-04-02T09:43:37Z</time>
  </trkpt>
  <trkpt lat="32.114070" lon="-3.073929">
   <ele>963.00</ele>
   <time>2014-04-02T09:43:43Z</time>
  </trkpt>
  <trkpt lat="32.113245" lon="-3.073710">
   <ele>963.00</ele>
   <time>2014-04-02T09:43:51Z</time>
  </trkpt>
  <trkpt lat="32.113034" lon="-3.073707">
   <ele>962.00</ele>
   <time>2014-04-02T09:43:53Z</time>
  </trkpt>
  <trkpt lat="32.112826" lon="-3.073765">
   <ele>960.00</ele>
   <time>2014-04-02T09:43:55Z</time>
  </trkpt>
  <trkpt lat="32.112630" lon="-3.073874">
   <ele>958.00</ele>
   <time>2014-04-02T09:43:57Z</time>
  </trkpt>
  <trkpt lat="32.112448" lon="-3.074009">
   <ele>956.00</ele>
   <time>2014-04-02T09:43:59Z</time>
  </trkpt>
  <trkpt lat="32.112259" lon="-3.074129">
   <ele>954.00</ele>
   <time>2014-04-02T09:44:01Z</time>
  </trkpt>
  <trkpt lat="32.112055" lon="-3.074193">
   <ele>952.00</ele>
   <time>2014-04-02T09:44:03Z</time>
  </trkpt>
  <trkpt lat="32.111839" lon="-3.074195">
   <ele>951.00</ele>
   <time>2014-04-02T09:44:05Z</time>
  </trkpt>
  <trkpt lat="32.111618" lon="-3.074162">
   <ele>949.00</ele>
   <time>2014-04-02T09:44:07Z</time>
  </trkpt>
  <trkpt lat="32.111175" lon="-3.074087">
   <ele>945.00</ele>
   <time>2014-04-02T09:44:11Z</time>
  </trkpt>
  <trkpt lat="32.110949" lon="-3.074093">
   <ele>944.00</ele>
   <time>2014-04-02T09:44:13Z</time>
  </trkpt>
  <trkpt lat="32.110727" lon="-3.074149">
   <ele>942.00</ele>
   <time>2014-04-02T09:44:15Z</time>
  </trkpt>
  <trkpt lat="32.110514" lon="-3.074239">
   <ele>941.00</ele>
   <time>2014-04-02T09:44:17Z</time>
  </trkpt>
  <trkpt lat="32.109656" lon="-3.074612">
   <ele>934.00</ele>
   <time>2014-04-02T09:44:25Z</time>
  </trkpt>
  <trkpt lat="32.109319" lon="-3.074737">
   <ele>931.00</ele>
   <time>2014-04-02T09:44:28Z</time>
  </trkpt>
  <trkpt lat="32.109089" lon="-3.074802">
   <ele>929.00</ele>
   <time>2014-04-02T09:44:30Z</time>
  </trkpt>
  <trkpt lat="32.108855" lon="-3.074849">
   <ele>927.00</ele>
   <time>2014-04-02T09:44:32Z</time>
  </trkpt>
  <trkpt lat="32.108164" lon="-3.074984">
   <ele>924.00</ele>
   <time>2014-04-02T09:44:38Z</time>
  </trkpt>
  <trkpt lat="32.107954" lon="-3.075050">
   <ele>923.00</ele>
   <time>2014-04-02T09:44:40Z</time>
  </trkpt>
  <trkpt lat="32.107763" lon="-3.075162">
   <ele>922.00</ele>
   <time>2014-04-02T09:44:42Z</time>
  </trkpt>
  <trkpt lat="32.107603" lon="-3.075334">
   <ele>922.00</ele>
   <time>2014-04-02T09:44:44Z</time>
  </trkpt>
  <trkpt lat="32.107497" lon="-3.075559">
   <ele>922.00</ele>
   <time>2014-04-02T09:44:46Z</time>
  </trkpt>
  <trkpt lat="32.107454" lon="-3.075820">
   <ele>922.00</ele>
   <time>2014-04-02T09:44:48Z</time>
  </trkpt>
  <trkpt lat="32.107451" lon="-3.076101">
   <ele>923.00</ele>
   <time>2014-04-02T09:44:50Z</time>
  </trkpt>
  <trkpt lat="32.107485" lon="-3.077893">
   <ele>927.00</ele>
   <time>2014-04-02T09:45:02Z</time>
  </trkpt>
  <trkpt lat="32.107472" lon="-3.078216">
   <ele>927.00</ele>
   <time>2014-04-02T09:45:04Z</time>
  </trkpt>
  <trkpt lat="32.107400" lon="-3.079042">
   <ele>928.00</ele>
   <time>2014-04-02T09:45:09Z</time>
  </trkpt>
  <trkpt lat="32.107130" lon="-3.081710">
   <ele>931.00</ele>
   <time>2014-04-02T09:45:25Z</time>
  </trkpt>
  <trkpt lat="32.106989" lon="-3.083102">
   <ele>931.00</ele>
   <time>2014-04-02T09:45:33Z</time>
  </trkpt>
  <trkpt lat="32.106963" lon="-3.083636">
   <ele>931.00</ele>
   <time>2014-04-02T09:45:36Z</time>
  </trkpt>
  <trkpt lat="32.106965" lon="-3.084171">
   <ele>931.00</ele>
   <time>2014-04-02T09:45:39Z</time>
  </trkpt>
  <trkpt lat="32.106991" lon="-3.084883">
   <ele>932.00</ele>
   <time>2014-04-02T09:45:43Z</time>
  </trkpt>
  <trkpt lat="32.107121" lon="-3.087576">
   <ele>934.00</ele>
   <time>2014-04-02T09:45:58Z</time>
  </trkpt>
  <trkpt lat="32.107128" lon="-3.088093">
   <ele>934.00</ele>
   <time>2014-04-02T09:46:01Z</time>
  </trkpt>
  <trkpt lat="32.107110" lon="-3.088435">
   <ele>934.00</ele>
   <time>2014-04-02T09:46:03Z</time>
  </trkpt>
  <trkpt lat="32.107072" lon="-3.088780">
   <ele>934.00</ele>
   <time>2014-04-02T09:46:05Z</time>
  </trkpt>
  <trkpt lat="32.106848" lon="-3.090541">
   <ele>933.00</ele>
   <time>2014-04-02T09:46:15Z</time>
  </trkpt>
  <trkpt lat="32.106833" lon="-3.090912">
   <ele>932.00</ele>
   <time>2014-04-02T09:46:17Z</time>
  </trkpt>
  <trkpt lat="32.106838" lon="-3.091278">
   <ele>932.00</ele>
   <time>2014-04-02T09:46:19Z</time>
  </trkpt>
  <trkpt lat="32.106875" lon="-3.091641">
   <ele>933.00</ele>
   <time>2014-04-02T09:46:21Z</time>
  </trkpt>
  <trkpt lat="32.106995" lon="-3.092362">
   <ele>933.00</ele>
   <time>2014-04-02T09:46:25Z</time>
  </trkpt>
  <trkpt lat="32.107513" lon="-3.095328">
   <ele>935.00</ele>
   <time>2014-04-02T09:46:41Z</time>
  </trkpt>
  <trkpt lat="32.108025" lon="-3.098273">
   <ele>937.00</ele>
   <time>2014-04-02T09:46:56Z</time>
  </trkpt>
  <trkpt lat="32.108101" lon="-3.098642">
   <ele>938.00</ele>
   <time>2014-04-02T09:46:58Z</time>
  </trkpt>
  <trkpt lat="32.108201" lon="-3.099003">
   <ele>938.00</ele>
   <time>2014-04-02T09:47:00Z</time>
  </trkpt>
  <trkpt lat="32.108326" lon="-3.099359">
   <ele>938.00</ele>
   <time>2014-04-02T09:47:02Z</time>
  </trkpt>
  <trkpt lat="32.109412" lon="-3.102096">
   <ele>941.00</ele>
   <time>2014-04-02T09:47:17Z</time>
  </trkpt>
  <trkpt lat="32.109760" lon="-3.102983">
   <ele>942.00</ele>
   <time>2014-04-02T09:47:22Z</time>
  </trkpt>
  <trkpt lat="32.109865" lon="-3.103338">
   <ele>943.00</ele>
   <time>2014-04-02T09:47:24Z</time>
  </trkpt>
  <trkpt lat="32.109939" lon="-3.103709">
   <ele>943.00</ele>
   <time>2014-04-02T09:47:26Z</time>
  </trkpt>
  <trkpt lat="32.109997" lon="-3.104095">
   <ele>943.00</ele>
   <time>2014-04-02T09:47:28Z</time>
  </trkpt>
  <trkpt lat="32.110456" lon="-3.107211">
   <ele>943.00</ele>
   <time>2014-04-02T09:47:43Z</time>
  </trkpt>
  <trkpt lat="32.110842" lon="-3.109728">
   <ele>946.00</ele>
   <time>2014-04-02T09:47:55Z</time>
  </trkpt>
  <trkpt lat="32.111068" lon="-3.110825">
   <ele>947.00</ele>
   <time>2014-04-02T09:48:00Z</time>
  </trkpt>
  <trkpt lat="32.111836" lon="-3.114191">
   <ele>948.00</ele>
   <time>2014-04-02T09:48:15Z</time>
  </trkpt>
  <trkpt lat="32.112554" lon="-3.117405">
   <ele>953.00</ele>
   <time>2014-04-02T09:48:30Z</time>
  </trkpt>
  <trkpt lat="32.113360" lon="-3.120960">
   <ele>956.00</ele>
   <time>2014-04-02T09:48:46Z</time>
  </trkpt>
  <trkpt lat="32.113679" lon="-3.122051">
   <ele>955.00</ele>
   <time>2014-04-02T09:48:51Z</time>
  </trkpt>
  <trkpt lat="32.114647" lon="-3.125297">
   <ele>957.00</ele>
   <time>2014-04-02T09:49:06Z</time>
  </trkpt>
  <trkpt lat="32.115673" lon="-3.128759">
   <ele>960.00</ele>
   <time>2014-04-02T09:49:22Z</time>
  </trkpt>
  <trkpt lat="32.116606" lon="-3.131927">
   <ele>964.00</ele>
   <time>2014-04-02T09:49:37Z</time>
  </trkpt>
  <trkpt lat="32.117567" lon="-3.135160">
   <ele>966.00</ele>
   <time>2014-04-02T09:49:52Z</time>
  </trkpt>
  <trkpt lat="32.118493" lon="-3.138211">
   <ele>969.00</ele>
   <time>2014-04-02T09:50:08Z</time>
  </trkpt>
  <trkpt lat="32.118574" lon="-3.138499">
   <ele>969.00</ele>
   <time>2014-04-02T09:50:10Z</time>
  </trkpt>
  <trkpt lat="32.118624" lon="-3.138768">
   <ele>969.00</ele>
   <time>2014-04-02T09:50:12Z</time>
  </trkpt>
  <trkpt lat="32.118613" lon="-3.139034">
   <ele>969.00</ele>
   <time>2014-04-02T09:50:14Z</time>
  </trkpt>
  <trkpt lat="32.118529" lon="-3.139295">
   <ele>970.00</ele>
   <time>2014-04-02T09:50:16Z</time>
  </trkpt>
  <trkpt lat="32.118409" lon="-3.139555">
   <ele>970.00</ele>
   <time>2014-04-02T09:50:18Z</time>
  </trkpt>
  <trkpt lat="32.118042" lon="-3.140251">
   <ele>969.00</ele>
   <time>2014-04-02T09:50:23Z</time>
  </trkpt>
  <trkpt lat="32.117392" lon="-3.141410">
   <ele>970.00</ele>
   <time>2014-04-02T09:50:31Z</time>
  </trkpt>
  <trkpt lat="32.117134" lon="-3.141837">
   <ele>970.00</ele>
   <time>2014-04-02T09:50:34Z</time>
  </trkpt>
  <trkpt lat="32.116935" lon="-3.142100">
   <ele>970.00</ele>
   <time>2014-04-02T09:50:36Z</time>
  </trkpt>
  <trkpt lat="32.116716" lon="-3.142341">
   <ele>969.00</ele>
   <time>2014-04-02T09:50:38Z</time>
  </trkpt>
  <trkpt lat="32.115648" lon="-3.143448">
   <ele>968.00</ele>
   <time>2014-04-02T09:50:49Z</time>
  </trkpt>
  <trkpt lat="32.115516" lon="-3.143650">
   <ele>969.00</ele>
   <time>2014-04-02T09:50:52Z</time>
  </trkpt>
  <trkpt lat="32.115400" lon="-3.143834">
   <ele>970.00</ele>
   <time>2014-04-02T09:50:56Z</time>
  </trkpt>
  <trkpt lat="32.115247" lon="-3.143969">
   <ele>969.00</ele>
   <time>2014-04-02T09:50:59Z</time>
  </trkpt>
  <trkpt lat="32.114976" lon="-3.144165">
   <ele>969.00</ele>
   <time>2014-04-02T09:51:03Z</time>
  </trkpt>
  <trkpt lat="32.113283" lon="-3.145363">
   <ele>966.00</ele>
   <time>2014-04-02T09:51:18Z</time>
  </trkpt>
  <trkpt lat="32.112419" lon="-3.145983">
   <ele>970.00</ele>
   <time>2014-04-02T09:51:25Z</time>
  </trkpt>
  <trkpt lat="32.112219" lon="-3.146172">
   <ele>971.00</ele>
   <time>2014-04-02T09:51:27Z</time>
  </trkpt>
  <trkpt lat="32.112086" lon="-3.146405">
   <ele>974.00</ele>
   <time>2014-04-02T09:51:29Z</time>
  </trkpt>
  <trkpt lat="32.112043" lon="-3.146679">
   <ele>976.00</ele>
   <time>2014-04-02T09:51:31Z</time>
  </trkpt>
  <trkpt lat="32.112048" lon="-3.146972">
   <ele>978.00</ele>
   <time>2014-04-02T09:51:33Z</time>
  </trkpt>
  <trkpt lat="32.112055" lon="-3.148685">
   <ele>988.00</ele>
   <time>2014-04-02T09:51:43Z</time>
  </trkpt>
  <trkpt lat="32.111980" lon="-3.150779">
   <ele>1000.00</ele>
   <time>2014-04-02T09:51:54Z</time>
  </trkpt>
  <trkpt lat="32.111883" lon="-3.152131">
   <ele>1008.00</ele>
   <time>2014-04-02T09:52:01Z</time>
  </trkpt>
  <trkpt lat="32.111692" lon="-3.154250">
   <ele>1023.00</ele>
   <time>2014-04-02T09:52:13Z</time>
  </trkpt>
  <trkpt lat="32.111640" lon="-3.154518">
   <ele>1025.00</ele>
   <time>2014-04-02T09:52:15Z</time>
  </trkpt>
  <trkpt lat="32.111538" lon="-3.154722">
   <ele>1027.00</ele>
   <time>2014-04-02T09:52:17Z</time>
  </trkpt>
  <trkpt lat="32.111370" lon="-3.154854">
   <ele>1028.00</ele>
   <time>2014-04-02T09:52:19Z</time>
  </trkpt>
  <trkpt lat="32.111167" lon="-3.154889">
   <ele>1029.00</ele>
   <time>2014-04-02T09:52:21Z</time>
  </trkpt>
  <trkpt lat="32.110972" lon="-3.154831">
   <ele>1029.00</ele>
   <time>2014-04-02T09:52:23Z</time>
  </trkpt>
  <trkpt lat="32.110823" lon="-3.154691">
   <ele>1030.00</ele>
   <time>2014-04-02T09:52:25Z</time>
  </trkpt>
  <trkpt lat="32.110748" lon="-3.154487">
   <ele>1029.00</ele>
   <time>2014-04-02T09:52:27Z</time>
  </trkpt>
  <trkpt lat="32.110746" lon="-3.154241">
   <ele>1029.00</ele>
   <time>2014-04-02T09:52:29Z</time>
  </trkpt>
  <trkpt lat="32.110775" lon="-3.153599">
   <ele>1029.00</ele>
   <time>2014-04-02T09:52:34Z</time>
  </trkpt>
  <trkpt lat="32.110776" lon="-3.153052">
   <ele>1029.00</ele>
   <time>2014-04-02T09:52:38Z</time>
  </trkpt>
  <trkpt lat="32.110749" lon="-3.152491">
   <ele>1028.00</ele>
   <time>2014-04-02T09:52:42Z</time>
  </trkpt>
  <trkpt lat="32.110609" lon="-3.150331">
   <ele>1016.00</ele>
   <time>2014-04-02T09:52:57Z</time>
  </trkpt>
  <trkpt lat="32.110432" lon="-3.147458">
   <ele>1001.00</ele>
   <time>2014-04-02T09:53:13Z</time>
  </trkpt>
  <trkpt lat="32.110308" lon="-3.146074">
   <ele>994.00</ele>
   <time>2014-04-02T09:53:20Z</time>
  </trkpt>
  <trkpt lat="32.110009" lon="-3.143258">
   <ele>986.00</ele>
   <time>2014-04-02T09:53:35Z</time>
  </trkpt>
  <trkpt lat="32.109890" lon="-3.142179">
   <ele>982.00</ele>
   <time>2014-04-02T09:53:41Z</time>
  </trkpt>
  <trkpt lat="32.109808" lon="-3.141850">
   <ele>981.00</ele>
   <time>2014-04-02T09:53:43Z</time>
  </trkpt>
  <trkpt lat="32.109624" lon="-3.141590">
   <ele>980.00</ele>
   <time>2014-04-02T09:53:45Z</time>
  </trkpt>
  <trkpt lat="32.109351" lon="-3.141449">
   <ele>979.00</ele>
   <time>2014-04-02T09:53:47Z</time>
  </trkpt>
  <trkpt lat="32.109039" lon="-3.141386">
   <ele>976.00</ele>
   <time>2014-04-02T09:53:49Z</time>
  </trkpt>
  <trkpt lat="32.107631" lon="-3.141108">
   <ele>965.00</ele>
   <time>2014-04-02T09:53:57Z</time>
  </trkpt>
  <trkpt lat="32.105204" lon="-3.140609">
   <ele>952.00</ele>
   <time>2014-04-02T09:54:11Z</time>
  </trkpt>
  <trkpt lat="32.104951" lon="-3.140473">
   <ele>951.00</ele>
   <time>2014-04-02T09:54:13Z</time>
  </trkpt>
  <trkpt lat="32.104765" lon="-3.140239">
   <ele>950.00</ele>
   <time>2014-04-02T09:54:15Z</time>
  </trkpt>
  <trkpt lat="32.104662" lon="-3.139924">
   <ele>949.00</ele>
   <time>2014-04-02T09:54:17Z</time>
  </trkpt>
  <trkpt lat="32.104597" lon="-3.139584">
   <ele>948.00</ele>
   <time>2014-04-02T09:54:19Z</time>
  </trkpt>
  <trkpt lat="32.104053" lon="-3.136686">
   <ele>951.00</ele>
   <time>2014-04-02T09:54:35Z</time>
  </trkpt>
  <trkpt lat="32.103838" lon="-3.135596">
   <ele>953.00</ele>
   <time>2014-04-02T09:54:41Z</time>
  </trkpt>
  <trkpt lat="32.103734" lon="-3.135283">
   <ele>953.00</ele>
   <time>2014-04-02T09:54:43Z</time>
  </trkpt>
  <trkpt lat="32.103568" lon="-3.134997">
   <ele>953.00</ele>
   <time>2014-04-02T09:54:45Z</time>
  </trkpt>
  <trkpt lat="32.103343" lon="-3.134709">
   <ele>952.00</ele>
   <time>2014-04-02T09:54:47Z</time>
  </trkpt>
  <trkpt lat="32.101591" lon="-3.132469">
   <ele>946.00</ele>
   <time>2014-04-02T09:55:02Z</time>
  </trkpt>
  <trkpt lat="32.100245" lon="-3.130706">
   <ele>944.00</ele>
   <time>2014-04-02T09:55:13Z</time>
  </trkpt>
  <trkpt lat="32.100028" lon="-3.130373">
   <ele>944.00</ele>
   <time>2014-04-02T09:55:15Z</time>
  </trkpt>
  <trkpt lat="32.099839" lon="-3.130022">
   <ele>945.00</ele>
   <time>2014-04-02T09:55:17Z</time>
  </trkpt>
  <trkpt lat="32.099678" lon="-3.129651">
   <ele>946.00</ele>
   <time>2014-04-02T09:55:19Z</time>
  </trkpt>
  <trkpt lat="32.099538" lon="-3.129257">
   <ele>947.00</ele>
   <time>2014-04-02T09:55:21Z</time>
  </trkpt>
  <trkpt lat="32.098958" lon="-3.127434">
   <ele>950.00</ele>
   <time>2014-04-02T09:55:30Z</time>
  </trkpt>
  <trkpt lat="32.098782" lon="-3.126809">
   <ele>952.00</ele>
   <time>2014-04-02T09:55:33Z</time>
  </trkpt>
  <trkpt lat="32.098340" lon="-3.125162">
   <ele>956.00</ele>
   <time>2014-04-02T09:55:41Z</time>
  </trkpt>
  <trkpt lat="32.098209" lon="-3.124768">
   <ele>958.00</ele>
   <time>2014-04-02T09:55:43Z</time>
  </trkpt>
  <trkpt lat="32.098135" lon="-3.124575">
   <ele>959.00</ele>
   <time>2014-04-02T09:55:44Z</time>
  </trkpt>
  <trkpt lat="32.098053" lon="-3.124385">
   <ele>959.00</ele>
   <time>2014-04-02T09:55:45Z</time>
  </trkpt>
  <trkpt lat="32.097873" lon="-3.124019">
   <ele>961.00</ele>
   <time>2014-04-02T09:55:47Z</time>
  </trkpt>
  <trkpt lat="32.097677" lon="-3.123669">
   <ele>963.00</ele>
   <time>2014-04-02T09:55:49Z</time>
  </trkpt>
  <trkpt lat="32.097460" lon="-3.123333">
   <ele>964.00</ele>
   <time>2014-04-02T09:55:51Z</time>
  </trkpt>
  <trkpt lat="32.097342" lon="-3.123169">
   <ele>965.00</ele>
   <time>2014-04-02T09:55:52Z</time>
  </trkpt>
  <trkpt lat="32.097089" lon="-3.122850">
   <ele>966.00</ele>
   <time>2014-04-02T09:55:54Z</time>
  </trkpt>
  <trkpt lat="32.095208" lon="-3.120717">
   <ele>974.00</ele>
   <time>2014-04-02T09:56:09Z</time>
  </trkpt>
  <trkpt lat="32.094980" lon="-3.120430">
   <ele>975.00</ele>
   <time>2014-04-02T09:56:11Z</time>
  </trkpt>
  <trkpt lat="32.094783" lon="-3.120117">
   <ele>977.00</ele>
   <time>2014-04-02T09:56:13Z</time>
  </trkpt>
  <trkpt lat="32.094618" lon="-3.119780">
   <ele>979.00</ele>
   <time>2014-04-02T09:56:15Z</time>
  </trkpt>
  <trkpt lat="32.094479" lon="-3.119427">
   <ele>981.00</ele>
   <time>2014-04-02T09:56:17Z</time>
  </trkpt>
  <trkpt lat="32.094363" lon="-3.119065">
   <ele>983.00</ele>
   <time>2014-04-02T09:56:19Z</time>
  </trkpt>
  <trkpt lat="32.094292" lon="-3.118689">
   <ele>986.00</ele>
   <time>2014-04-02T09:56:21Z</time>
  </trkpt>
  <trkpt lat="32.094257" lon="-3.118308">
   <ele>988.00</ele>
   <time>2014-04-02T09:56:23Z</time>
  </trkpt>
  <trkpt lat="32.094037" lon="-3.115306">
   <ele>988.00</ele>
   <time>2014-04-02T09:56:38Z</time>
  </trkpt>
  <trkpt lat="32.093770" lon="-3.111856">
   <ele>984.00</ele>
   <time>2014-04-02T09:56:54Z</time>
  </trkpt>
  <trkpt lat="32.093612" lon="-3.110097">
   <ele>986.00</ele>
   <time>2014-04-02T09:57:02Z</time>
  </trkpt>
  <trkpt lat="32.093556" lon="-3.109666">
   <ele>987.00</ele>
   <time>2014-04-02T09:57:04Z</time>
  </trkpt>
  <trkpt lat="32.092993" lon="-3.106471">
   <ele>998.00</ele>
   <time>2014-04-02T09:57:19Z</time>
  </trkpt>
  <trkpt lat="32.092400" lon="-3.103071">
   <ele>998.00</ele>
   <time>2014-04-02T09:57:35Z</time>
  </trkpt>
  <trkpt lat="32.091938" lon="-3.100520">
   <ele>1002.00</ele>
   <time>2014-04-02T09:57:48Z</time>
  </trkpt>
  <trkpt lat="32.091829" lon="-3.100230">
   <ele>1002.00</ele>
   <time>2014-04-02T09:57:50Z</time>
  </trkpt>
  <trkpt lat="32.091661" lon="-3.099977">
   <ele>1002.00</ele>
   <time>2014-04-02T09:57:52Z</time>
  </trkpt>
  <trkpt lat="32.091437" lon="-3.099786">
   <ele>1001.00</ele>
   <time>2014-04-02T09:57:54Z</time>
  </trkpt>
  <trkpt lat="32.091182" lon="-3.099660">
   <ele>999.00</ele>
   <time>2014-04-02T09:57:56Z</time>
  </trkpt>
  <trkpt lat="32.090912" lon="-3.099602">
   <ele>996.00</ele>
   <time>2014-04-02T09:57:58Z</time>
  </trkpt>
  <trkpt lat="32.090630" lon="-3.099616">
   <ele>994.00</ele>
   <time>2014-04-02T09:58:00Z</time>
  </trkpt>
  <trkpt lat="32.090343" lon="-3.099647">
   <ele>992.00</ele>
   <time>2014-04-02T09:58:02Z</time>
  </trkpt>
  <trkpt lat="32.090061" lon="-3.099623">
   <ele>989.00</ele>
   <time>2014-04-02T09:58:04Z</time>
  </trkpt>
  <trkpt lat="32.089801" lon="-3.099520">
   <ele>989.00</ele>
   <time>2014-04-02T09:58:06Z</time>
  </trkpt>
  <trkpt lat="32.089582" lon="-3.099349">
   <ele>989.00</ele>
   <time>2014-04-02T09:58:08Z</time>
  </trkpt>
  <trkpt lat="32.089380" lon="-3.099169">
   <ele>988.00</ele>
   <time>2014-04-02T09:58:10Z</time>
  </trkpt>
  <trkpt lat="32.089162" lon="-3.099022">
   <ele>987.00</ele>
   <time>2014-04-02T09:58:12Z</time>
  </trkpt>
  <trkpt lat="32.088911" lon="-3.098936">
   <ele>986.00</ele>
   <time>2014-04-02T09:58:14Z</time>
  </trkpt>
  <trkpt lat="32.088381" lon="-3.098799">
   <ele>984.00</ele>
   <time>2014-04-02T09:58:18Z</time>
  </trkpt>
  <trkpt lat="32.088128" lon="-3.098691">
   <ele>984.00</ele>
   <time>2014-04-02T09:58:20Z</time>
  </trkpt>
  <trkpt lat="32.087905" lon="-3.098526">
   <ele>984.00</ele>
   <time>2014-04-02T09:58:22Z</time>
  </trkpt>
  <trkpt lat="32.087722" lon="-3.098296">
   <ele>984.00</ele>
   <time>2014-04-02T09:58:24Z</time>
  </trkpt>
  <trkpt lat="32.087571" lon="-3.098016">
   <ele>983.00</ele>
   <time>2014-04-02T09:58:26Z</time>
  </trkpt>
  <trkpt lat="32.087441" lon="-3.097722">
   <ele>983.00</ele>
   <time>2014-04-02T09:58:28Z</time>
  </trkpt>
  <trkpt lat="32.087266" lon="-3.097275">
   <ele>983.00</ele>
   <time>2014-04-02T09:58:31Z</time>
  </trkpt>
  <trkpt lat="32.087080" lon="-3.096806">
   <ele>981.00</ele>
   <time>2014-04-02T09:58:34Z</time>
  </trkpt>
  <trkpt lat="32.086943" lon="-3.096502">
   <ele>979.00</ele>
   <time>2014-04-02T09:58:36Z</time>
  </trkpt>
  <trkpt lat="32.086784" lon="-3.096224">
   <ele>978.00</ele>
   <time>2014-04-02T09:58:38Z</time>
  </trkpt>
  <trkpt lat="32.086580" lon="-3.095992">
   <ele>976.00</ele>
   <time>2014-04-02T09:58:40Z</time>
  </trkpt>
  <trkpt lat="32.086341" lon="-3.095795">
   <ele>973.00</ele>
   <time>2014-04-02T09:58:42Z</time>
  </trkpt>
  <trkpt lat="32.086064" lon="-3.095644">
   <ele>972.00</ele>
   <time>2014-04-02T09:58:44Z</time>
  </trkpt>
  <trkpt lat="32.085755" lon="-3.095535">
   <ele>970.00</ele>
   <time>2014-04-02T09:58:46Z</time>
  </trkpt>
  <trkpt lat="32.085432" lon="-3.095449">
   <ele>967.00</ele>
   <time>2014-04-02T09:58:48Z</time>
  </trkpt>
  <trkpt lat="32.083357" lon="-3.094919">
   <ele>954.00</ele>
   <time>2014-04-02T09:59:01Z</time>
  </trkpt>
  <trkpt lat="32.083083" lon="-3.094801">
   <ele>953.00</ele>
   <time>2014-04-02T09:59:03Z</time>
  </trkpt>
  <trkpt lat="32.082835" lon="-3.094640">
   <ele>952.00</ele>
   <time>2014-04-02T09:59:05Z</time>
  </trkpt>
  <trkpt lat="32.082615" lon="-3.094430">
   <ele>951.00</ele>
   <time>2014-04-02T09:59:07Z</time>
  </trkpt>
  <trkpt lat="32.082422" lon="-3.094169">
   <ele>949.00</ele>
   <time>2014-04-02T09:59:09Z</time>
  </trkpt>
  <trkpt lat="32.082258" lon="-3.093859">
   <ele>947.00</ele>
   <time>2014-04-02T09:59:11Z</time>
  </trkpt>
  <trkpt lat="32.082117" lon="-3.093514">
   <ele>945.00</ele>
   <time>2014-04-02T09:59:13Z</time>
  </trkpt>
  <trkpt lat="32.081797" lon="-3.092622">
   <ele>940.00</ele>
   <time>2014-04-02T09:59:18Z</time>
  </trkpt>
  <trkpt lat="32.081641" lon="-3.092287">
   <ele>939.00</ele>
   <time>2014-04-02T09:59:20Z</time>
  </trkpt>
  <trkpt lat="32.081450" lon="-3.091981">
   <ele>937.00</ele>
   <time>2014-04-02T09:59:22Z</time>
  </trkpt>
  <trkpt lat="32.081215" lon="-3.091727">
   <ele>935.00</ele>
   <time>2014-04-02T09:59:24Z</time>
  </trkpt>
  <trkpt lat="32.080940" lon="-3.091532">
   <ele>934.00</ele>
   <time>2014-04-02T09:59:26Z</time>
  </trkpt>
  <trkpt lat="32.080645" lon="-3.091389">
   <ele>933.00</ele>
   <time>2014-04-02T09:59:28Z</time>
  </trkpt>
  <trkpt lat="32.080338" lon="-3.091307">
   <ele>931.00</ele>
   <time>2014-04-02T09:59:30Z</time>
  </trkpt>
  <trkpt lat="32.080017" lon="-3.091277">
   <ele>930.00</ele>
   <time>2014-04-02T09:59:32Z</time>
  </trkpt>
  <trkpt lat="32.077421" lon="-3.091100">
   <ele>921.00</ele>
   <time>2014-04-02T09:59:47Z</time>
  </trkpt>
  <trkpt lat="32.074712" lon="-3.090908">
   <ele>914.00</ele>
   <time>2014-04-02T10:00:02Z</time>
  </trkpt>
  <trkpt lat="32.071660" lon="-3.090692">
   <ele>905.00</ele>
   <time>2014-04-02T10:00:18Z</time>
  </trkpt>
  <trkpt lat="32.070350" lon="-3.090577">
   <ele>903.00</ele>
   <time>2014-04-02T10:00:25Z</time>
  </trkpt>
  <trkpt lat="32.070161" lon="-3.090548">
   <ele>903.00</ele>
   <time>2014-04-02T10:00:26Z</time>
  </trkpt>
  <trkpt lat="32.069974" lon="-3.090510">
   <ele>902.00</ele>
   <time>2014-04-02T10:00:27Z</time>
  </trkpt>
  <trkpt lat="32.069789" lon="-3.090462">
   <ele>902.00</ele>
   <time>2014-04-02T10:00:28Z</time>
  </trkpt>
  <trkpt lat="32.069608" lon="-3.090404">
   <ele>902.00</ele>
   <time>2014-04-02T10:00:29Z</time>
  </trkpt>
  <trkpt lat="32.069431" lon="-3.090338">
   <ele>902.00</ele>
   <time>2014-04-02T10:00:30Z</time>
  </trkpt>
  <trkpt lat="32.069083" lon="-3.090186">
   <ele>902.00</ele>
   <time>2014-04-02T10:00:32Z</time>
  </trkpt>
  <trkpt lat="32.068744" lon="-3.090007">
   <ele>902.00</ele>
   <time>2014-04-02T10:00:34Z</time>
  </trkpt>
  <trkpt lat="32.068579" lon="-3.089901">
   <ele>902.00</ele>
   <time>2014-04-02T10:00:35Z</time>
  </trkpt>
  <trkpt lat="32.068417" lon="-3.089784">
   <ele>901.00</ele>
   <time>2014-04-02T10:00:36Z</time>
  </trkpt>
  <trkpt lat="32.068258" lon="-3.089657">
   <ele>901.00</ele>
   <time>2014-04-02T10:00:37Z</time>
  </trkpt>
  <trkpt lat="32.068102" lon="-3.089521">
   <ele>901.00</ele>
   <time>2014-04-02T10:00:38Z</time>
  </trkpt>
  <trkpt lat="32.067951" lon="-3.089379">
   <ele>901.00</ele>
   <time>2014-04-02T10:00:39Z</time>
  </trkpt>
  <trkpt lat="32.067808" lon="-3.089231">
   <ele>900.00</ele>
   <time>2014-04-02T10:00:40Z</time>
  </trkpt>
  <trkpt lat="32.067670" lon="-3.089076">
   <ele>900.00</ele>
   <time>2014-04-02T10:00:41Z</time>
  </trkpt>
  <trkpt lat="32.067538" lon="-3.088914">
   <ele>900.00</ele>
   <time>2014-04-02T10:00:42Z</time>
  </trkpt>
  <trkpt lat="32.067414" lon="-3.088742">
   <ele>900.00</ele>
   <time>2014-04-02T10:00:43Z</time>
  </trkpt>
  <trkpt lat="32.067295" lon="-3.088563">
   <ele>900.00</ele>
   <time>2014-04-02T10:00:44Z</time>
  </trkpt>
  <trkpt lat="32.067182" lon="-3.088376">
   <ele>900.00</ele>
   <time>2014-04-02T10:00:45Z</time>
  </trkpt>
  <trkpt lat="32.065586" lon="-3.085555">
   <ele>898.00</ele>
   <time>2014-04-02T10:01:00Z</time>
  </trkpt>
  <trkpt lat="32.065345" lon="-3.085213">
   <ele>898.00</ele>
   <time>2014-04-02T10:01:02Z</time>
  </trkpt>
  <trkpt lat="32.065092" lon="-3.084893">
   <ele>897.00</ele>
   <time>2014-04-02T10:01:04Z</time>
  </trkpt>
  <trkpt lat="32.064829" lon="-3.084587">
   <ele>897.00</ele>
   <time>2014-04-02T10:01:06Z</time>
  </trkpt>
  <trkpt lat="32.064554" lon="-3.084298">
   <ele>896.00</ele>
   <time>2014-04-02T10:01:08Z</time>
  </trkpt>
  <trkpt lat="32.063574" lon="-3.083332">
   <ele>894.00</ele>
   <time>2014-04-02T10:01:16Z</time>
  </trkpt>
  <trkpt lat="32.063323" lon="-3.083095">
   <ele>893.00</ele>
   <time>2014-04-02T10:01:19Z</time>
  </trkpt>
  <trkpt lat="32.061688" lon="-3.081468">
   <ele>890.00</ele>
   <time>2014-04-02T10:01:35Z</time>
  </trkpt>
  <trkpt lat="32.059924" lon="-3.079723">
   <ele>887.00</ele>
   <time>2014-04-02T10:01:50Z</time>
  </trkpt>
  <trkpt lat="32.058091" lon="-3.077917">
   <ele>885.00</ele>
   <time>2014-04-02T10:02:05Z</time>
  </trkpt>
  <trkpt lat="32.057376" lon="-3.077197">
   <ele>884.00</ele>
   <time>2014-04-02T10:02:13Z</time>
  </trkpt>
  <trkpt lat="32.057221" lon="-3.077130">
   <ele>884.00</ele>
   <time>2014-04-02T10:02:19Z</time>
  </trkpt>
  <trkpt lat="32.057162" lon="-3.077093">
   <ele>884.00</ele>
   <time>2014-04-02T10:02:35Z</time>
  </trkpt>
  <trkpt lat="32.057174" lon="-3.077109">
   <ele>885.00</ele>
   <time>2014-04-02T10:02:50Z</time>
  </trkpt>
  <trkpt lat="32.057176" lon="-3.077110">
   <ele>886.00</ele>
   <time>2014-04-02T10:03:06Z</time>
  </trkpt>
  <trkpt lat="32.057181" lon="-3.077115">
   <ele>886.00</ele>
   <time>2014-04-02T10:03:21Z</time>
  </trkpt>
  <trkpt lat="32.057182" lon="-3.077116">
   <ele>886.00</ele>
   <time>2014-04-02T10:03:36Z</time>
  </trkpt>
  <trkpt lat="32.057180" lon="-3.077112">
   <ele>886.00</ele>
   <time>2014-04-02T10:03:52Z</time>
  </trkpt>
  <trkpt lat="32.057183" lon="-3.077116">
   <ele>885.00</ele>
   <time>2014-04-02T10:04:07Z</time>
  </trkpt>
  <trkpt lat="32.057107" lon="-3.077037">
   <ele>885.00</ele>
   <time>2014-04-02T10:04:22Z</time>
  </trkpt>
  <trkpt lat="32.057001" lon="-3.076925">
   <ele>884.00</ele>
   <time>2014-04-02T10:04:38Z</time>
  </trkpt>
  <trkpt lat="32.056858" lon="-3.076757">
   <ele>884.00</ele>
   <time>2014-04-02T10:04:43Z</time>
  </trkpt>
  <trkpt lat="32.056625" lon="-3.076465">
   <ele>883.00</ele>
   <time>2014-04-02T10:04:48Z</time>
  </trkpt>
  <trkpt lat="32.056428" lon="-3.076272">
   <ele>884.00</ele>
   <time>2014-04-02T10:04:51Z</time>
  </trkpt>
  <trkpt lat="32.056176" lon="-3.076022">
   <ele>883.00</ele>
   <time>2014-04-02T10:04:54Z</time>
  </trkpt>
  <trkpt lat="32.054454" lon="-3.074304">
   <ele>882.00</ele>
   <time>2014-04-02T10:05:09Z</time>
  </trkpt>
  <trkpt lat="32.053662" lon="-3.073548">
   <ele>881.00</ele>
   <time>2014-04-02T10:05:15Z</time>
  </trkpt>
  <trkpt lat="32.053396" lon="-3.073313">
   <ele>881.00</ele>
   <time>2014-04-02T10:05:17Z</time>
  </trkpt>
  <trkpt lat="32.052983" lon="-3.072985">
   <ele>880.00</ele>
   <time>2014-04-02T10:05:20Z</time>
  </trkpt>
  <trkpt lat="32.052551" lon="-3.072668">
   <ele>880.00</ele>
   <time>2014-04-02T10:05:23Z</time>
  </trkpt>
  <trkpt lat="32.052239" lon="-3.072472">
   <ele>879.00</ele>
   <time>2014-04-02T10:05:25Z</time>
  </trkpt>
  <trkpt lat="32.051908" lon="-3.072291">
   <ele>879.00</ele>
   <time>2014-04-02T10:05:27Z</time>
  </trkpt>
  <trkpt lat="32.049226" lon="-3.070991">
   <ele>878.00</ele>
   <time>2014-04-02T10:05:42Z</time>
  </trkpt>
  <trkpt lat="32.046313" lon="-3.069588">
   <ele>875.00</ele>
   <time>2014-04-02T10:05:58Z</time>
  </trkpt>
  <trkpt lat="32.044371" lon="-3.068660">
   <ele>873.00</ele>
   <time>2014-04-02T10:06:09Z</time>
  </trkpt>
  <trkpt lat="32.043094" lon="-3.068138">
   <ele>872.00</ele>
   <time>2014-04-02T10:06:16Z</time>
  </trkpt>
  <trkpt lat="32.040401" lon="-3.067064">
   <ele>869.00</ele>
   <time>2014-04-02T10:06:31Z</time>
  </trkpt>
  <trkpt lat="32.038614" lon="-3.066337">
   <ele>866.00</ele>
   <time>2014-04-02T10:06:45Z</time>
  </trkpt>
  <trkpt lat="32.038433" lon="-3.066208">
   <ele>866.00</ele>
   <time>2014-04-02T10:06:48Z</time>
  </trkpt>
  <trkpt lat="32.038300" lon="-3.066036">
   <ele>866.00</ele>
   <time>2014-04-02T10:06:52Z</time>
  </trkpt>
  <trkpt lat="32.038250" lon="-3.065943">
   <ele>865.00</ele>
   <time>2014-04-02T10:07:07Z</time>
  </trkpt>
  <trkpt lat="32.038266" lon="-3.065947">
   <ele>864.00</ele>
   <time>2014-04-02T10:07:22Z</time>
  </trkpt>
  <trkpt lat="32.038269" lon="-3.065948">
   <ele>864.00</ele>
   <time>2014-04-02T10:07:38Z</time>
  </trkpt>
  <trkpt lat="32.038273" lon="-3.065950">
   <ele>864.00</ele>
   <time>2014-04-02T10:07:53Z</time>
  </trkpt>
  <trkpt lat="32.038275" lon="-3.065952">
   <ele>865.00</ele>
   <time>2014-04-02T10:08:08Z</time>
  </trkpt>
  <trkpt lat="32.038285" lon="-3.065795">
   <ele>865.00</ele>
   <time>2014-04-02T10:08:24Z</time>
  </trkpt>
  <trkpt lat="32.038269" lon="-3.065504">
   <ele>866.00</ele>
   <time>2014-04-02T10:08:33Z</time>
  </trkpt>
  <trkpt lat="32.038321" lon="-3.065300">
   <ele>866.00</ele>
   <time>2014-04-02T10:08:36Z</time>
  </trkpt>
  <trkpt lat="32.038631" lon="-3.064302">
   <ele>865.00</ele>
   <time>2014-04-02T10:08:45Z</time>
  </trkpt>
  <trkpt lat="32.038696" lon="-3.064017">
   <ele>865.00</ele>
   <time>2014-04-02T10:08:47Z</time>
  </trkpt>
  <trkpt lat="32.038755" lon="-3.063710">
   <ele>865.00</ele>
   <time>2014-04-02T10:08:49Z</time>
  </trkpt>
  <trkpt lat="32.038800" lon="-3.063377">
   <ele>864.00</ele>
   <time>2014-04-02T10:08:51Z</time>
  </trkpt>
  <trkpt lat="32.038822" lon="-3.063027">
   <ele>863.00</ele>
   <time>2014-04-02T10:08:53Z</time>
  </trkpt>
  <trkpt lat="32.038823" lon="-3.062674">
   <ele>863.00</ele>
   <time>2014-04-02T10:08:55Z</time>
  </trkpt>
  <trkpt lat="32.038798" lon="-3.062310">
   <ele>863.00</ele>
   <time>2014-04-02T10:08:57Z</time>
  </trkpt>
  <trkpt lat="32.038736" lon="-3.061763">
   <ele>862.00</ele>
   <time>2014-04-02T10:09:00Z</time>
  </trkpt>
  <trkpt lat="32.038629" lon="-3.061023">
   <ele>862.00</ele>
   <time>2014-04-02T10:09:04Z</time>
  </trkpt>
  <trkpt lat="32.038154" lon="-3.057923">
   <ele>862.00</ele>
   <time>2014-04-02T10:09:20Z</time>
  </trkpt>
  <trkpt lat="32.037737" lon="-3.055156">
   <ele>864.00</ele>
   <time>2014-04-02T10:09:35Z</time>
  </trkpt>
  <trkpt lat="32.037356" lon="-3.052668">
   <ele>867.00</ele>
   <time>2014-04-02T10:09:50Z</time>
  </trkpt>
  <trkpt lat="32.037065" lon="-3.051092">
   <ele>871.00</ele>
   <time>2014-04-02T10:10:03Z</time>
  </trkpt>
  <trkpt lat="32.037016" lon="-3.050861">
   <ele>871.00</ele>
   <time>2014-04-02T10:10:05Z</time>
  </trkpt>
  <trkpt lat="32.036955" lon="-3.050648">
   <ele>871.00</ele>
   <time>2014-04-02T10:10:07Z</time>
  </trkpt>
  <trkpt lat="32.036884" lon="-3.050448">
   <ele>871.00</ele>
   <time>2014-04-02T10:10:09Z</time>
  </trkpt>
  <trkpt lat="32.036517" lon="-3.049470">
   <ele>871.00</ele>
   <time>2014-04-02T10:10:21Z</time>
  </trkpt>
  <trkpt lat="32.036199" lon="-3.048711">
   <ele>870.00</ele>
   <time>2014-04-02T10:10:30Z</time>
  </trkpt>
  <trkpt lat="32.035803" lon="-3.047680">
   <ele>868.00</ele>
   <time>2014-04-02T10:10:42Z</time>
  </trkpt>
  <trkpt lat="32.035230" lon="-3.046283">
   <ele>868.00</ele>
   <time>2014-04-02T10:10:57Z</time>
  </trkpt>
  <trkpt lat="32.034725" lon="-3.045029">
   <ele>869.00</ele>
   <time>2014-04-02T10:11:10Z</time>
  </trkpt>
  <trkpt lat="32.034618" lon="-3.044719">
   <ele>869.00</ele>
   <time>2014-04-02T10:11:13Z</time>
  </trkpt>
  <trkpt lat="32.034560" lon="-3.044501">
   <ele>869.00</ele>
   <time>2014-04-02T10:11:15Z</time>
  </trkpt>
  <trkpt lat="32.034511" lon="-3.044272">
   <ele>869.00</ele>
   <time>2014-04-02T10:11:17Z</time>
  </trkpt>
  <trkpt lat="32.034474" lon="-3.044039">
   <ele>869.00</ele>
   <time>2014-04-02T10:11:19Z</time>
  </trkpt>
  <trkpt lat="32.034416" lon="-3.043572">
   <ele>868.00</ele>
   <time>2014-04-02T10:11:23Z</time>
  </trkpt>
  <trkpt lat="32.034387" lon="-3.043229">
   <ele>868.00</ele>
   <time>2014-04-02T10:11:26Z</time>
  </trkpt>
  <trkpt lat="32.034374" lon="-3.042898">
   <ele>869.00</ele>
   <time>2014-04-02T10:11:29Z</time>
  </trkpt>
  <trkpt lat="32.034374" lon="-3.042682">
   <ele>868.00</ele>
   <time>2014-04-02T10:11:31Z</time>
  </trkpt>
  <trkpt lat="32.034392" lon="-3.042370">
   <ele>867.00</ele>
   <time>2014-04-02T10:11:34Z</time>
  </trkpt>
  <trkpt lat="32.034426" lon="-3.042082">
   <ele>866.00</ele>
   <time>2014-04-02T10:11:37Z</time>
  </trkpt>
  <trkpt lat="32.034658" lon="-3.040443">
   <ele>863.00</ele>
   <time>2014-04-02T10:11:53Z</time>
  </trkpt>
  <trkpt lat="32.034870" lon="-3.038865">
   <ele>863.00</ele>
   <time>2014-04-02T10:12:08Z</time>
  </trkpt>
  <trkpt lat="32.034889" lon="-3.038600">
   <ele>864.00</ele>
   <time>2014-04-02T10:12:12Z</time>
  </trkpt>
  <trkpt lat="32.034916" lon="-3.038380">
   <ele>864.00</ele>
   <time>2014-04-02T10:12:19Z</time>
  </trkpt>
  <trkpt lat="32.034966" lon="-3.038171">
   <ele>863.00</ele>
   <time>2014-04-02T10:12:25Z</time>
  </trkpt>
  <trkpt lat="32.035106" lon="-3.037427">
   <ele>863.00</ele>
   <time>2014-04-02T10:12:34Z</time>
  </trkpt>
  <trkpt lat="32.035434" lon="-3.035055">
   <ele>864.00</ele>
   <time>2014-04-02T10:12:50Z</time>
  </trkpt>
  <trkpt lat="32.035821" lon="-3.032064">
   <ele>864.00</ele>
   <time>2014-04-02T10:13:05Z</time>
  </trkpt>
  <trkpt lat="32.036276" lon="-3.028655">
   <ele>862.00</ele>
   <time>2014-04-02T10:13:20Z</time>
  </trkpt>
  <trkpt lat="32.036778" lon="-3.024879">
   <ele>861.00</ele>
   <time>2014-04-02T10:13:36Z</time>
  </trkpt>
  <trkpt lat="32.037232" lon="-3.021409">
   <ele>863.00</ele>
   <time>2014-04-02T10:13:51Z</time>
  </trkpt>
  <trkpt lat="32.037705" lon="-3.017954">
   <ele>864.00</ele>
   <time>2014-04-02T10:14:06Z</time>
  </trkpt>
  <trkpt lat="32.038199" lon="-3.014233">
   <ele>866.00</ele>
   <time>2014-04-02T10:14:22Z</time>
  </trkpt>
  <trkpt lat="32.038665" lon="-3.010737">
   <ele>867.00</ele>
   <time>2014-04-02T10:14:37Z</time>
  </trkpt>
  <trkpt lat="32.039128" lon="-3.007133">
   <ele>869.00</ele>
   <time>2014-04-02T10:14:52Z</time>
  </trkpt>
  <trkpt lat="32.039610" lon="-3.003235">
   <ele>873.00</ele>
   <time>2014-04-02T10:15:08Z</time>
  </trkpt>
  <trkpt lat="32.040073" lon="-2.999520">
   <ele>874.00</ele>
   <time>2014-04-02T10:15:23Z</time>
  </trkpt>
  <trkpt lat="32.040534" lon="-2.995948">
   <ele>873.00</ele>
   <time>2014-04-02T10:15:38Z</time>
  </trkpt>
  <trkpt lat="32.040997" lon="-2.992129">
   <ele>877.00</ele>
   <time>2014-04-02T10:15:54Z</time>
  </trkpt>
  <trkpt lat="32.041450" lon="-2.988500">
   <ele>878.00</ele>
   <time>2014-04-02T10:16:09Z</time>
  </trkpt>
  <trkpt lat="32.041913" lon="-2.984826">
   <ele>873.00</ele>
   <time>2014-04-02T10:16:24Z</time>
  </trkpt>
  <trkpt lat="32.042204" lon="-2.982635">
   <ele>875.00</ele>
   <time>2014-04-02T10:16:33Z</time>
  </trkpt>
  <trkpt lat="32.042254" lon="-2.982404">
   <ele>875.00</ele>
   <time>2014-04-02T10:16:34Z</time>
  </trkpt>
  <trkpt lat="32.042314" lon="-2.982176">
   <ele>876.00</ele>
   <time>2014-04-02T10:16:35Z</time>
  </trkpt>
  <trkpt lat="32.042384" lon="-2.981951">
   <ele>876.00</ele>
   <time>2014-04-02T10:16:36Z</time>
  </trkpt>
  <trkpt lat="32.042462" lon="-2.981731">
   <ele>876.00</ele>
   <time>2014-04-02T10:16:37Z</time>
  </trkpt>
  <trkpt lat="32.042548" lon="-2.981513">
   <ele>876.00</ele>
   <time>2014-04-02T10:16:38Z</time>
  </trkpt>
  <trkpt lat="32.042643" lon="-2.981300">
   <ele>877.00</ele>
   <time>2014-04-02T10:16:39Z</time>
  </trkpt>
  <trkpt lat="32.042746" lon="-2.981092">
   <ele>877.00</ele>
   <time>2014-04-02T10:16:40Z</time>
  </trkpt>
  <trkpt lat="32.042859" lon="-2.980890">
   <ele>877.00</ele>
   <time>2014-04-02T10:16:41Z</time>
  </trkpt>
  <trkpt lat="32.042978" lon="-2.980693">
   <ele>878.00</ele>
   <time>2014-04-02T10:16:42Z</time>
  </trkpt>
  <trkpt lat="32.043230" lon="-2.980308">
   <ele>879.00</ele>
   <time>2014-04-02T10:16:44Z</time>
  </trkpt>
  <trkpt lat="32.045184" lon="-2.977387">
   <ele>886.00</ele>
   <time>2014-04-02T10:16:59Z</time>
  </trkpt>
  <trkpt lat="32.047164" lon="-2.974398">
   <ele>889.00</ele>
   <time>2014-04-02T10:17:14Z</time>
  </trkpt>
  <trkpt lat="32.048711" lon="-2.972043">
   <ele>891.00</ele>
   <time>2014-04-02T10:17:26Z</time>
  </trkpt>
  <trkpt lat="32.049054" lon="-2.971454">
   <ele>892.00</ele>
   <time>2014-04-02T10:17:29Z</time>
  </trkpt>
  <trkpt lat="32.049262" lon="-2.971048">
   <ele>892.00</ele>
   <time>2014-04-02T10:17:31Z</time>
  </trkpt>
  <trkpt lat="32.049453" lon="-2.970636">
   <ele>893.00</ele>
   <time>2014-04-02T10:17:33Z</time>
  </trkpt>
  <trkpt lat="32.049621" lon="-2.970215">
   <ele>893.00</ele>
   <time>2014-04-02T10:17:35Z</time>
  </trkpt>
  <trkpt lat="32.049850" lon="-2.969566">
   <ele>893.00</ele>
   <time>2014-04-02T10:17:38Z</time>
  </trkpt>
  <trkpt lat="32.051087" lon="-2.965870">
   <ele>890.00</ele>
   <time>2014-04-02T10:17:54Z</time>
  </trkpt>
  <trkpt lat="32.052240" lon="-2.962418">
   <ele>891.00</ele>
   <time>2014-04-02T10:18:09Z</time>
  </trkpt>
  <trkpt lat="32.053065" lon="-2.959953">
   <ele>890.00</ele>
   <time>2014-04-02T10:18:20Z</time>
  </trkpt>
  <trkpt lat="32.053127" lon="-2.959728">
   <ele>890.00</ele>
   <time>2014-04-02T10:18:21Z</time>
  </trkpt>
  <trkpt lat="32.053180" lon="-2.959499">
   <ele>891.00</ele>
   <time>2014-04-02T10:18:22Z</time>
  </trkpt>
  <trkpt lat="32.053224" lon="-2.959269">
   <ele>891.00</ele>
   <time>2014-04-02T10:18:23Z</time>
  </trkpt>
  <trkpt lat="32.053291" lon="-2.958803">
   <ele>891.00</ele>
   <time>2014-04-02T10:18:25Z</time>
  </trkpt>
  <trkpt lat="32.053330" lon="-2.958330">
   <ele>890.00</ele>
   <time>2014-04-02T10:18:27Z</time>
  </trkpt>
  <trkpt lat="32.053603" lon="-2.954522">
   <ele>881.00</ele>
   <time>2014-04-02T10:18:43Z</time>
  </trkpt>
  <trkpt lat="32.053917" lon="-2.950836">
   <ele>868.00</ele>
   <time>2014-04-02T10:18:58Z</time>
  </trkpt>
  <trkpt lat="32.054157" lon="-2.947981">
   <ele>867.00</ele>
   <time>2014-04-02T10:19:10Z</time>
  </trkpt>
  <trkpt lat="32.054223" lon="-2.947517">
   <ele>867.00</ele>
   <time>2014-04-02T10:19:12Z</time>
  </trkpt>
  <trkpt lat="32.054884" lon="-2.943701">
   <ele>870.00</ele>
   <time>2014-04-02T10:19:28Z</time>
  </trkpt>
  <trkpt lat="32.055510" lon="-2.940094">
   <ele>869.00</ele>
   <time>2014-04-02T10:19:43Z</time>
  </trkpt>
  <trkpt lat="32.056134" lon="-2.936476">
   <ele>866.00</ele>
   <time>2014-04-02T10:19:58Z</time>
  </trkpt>
  <trkpt lat="32.056672" lon="-2.933399">
   <ele>863.00</ele>
   <time>2014-04-02T10:20:11Z</time>
  </trkpt>
  <trkpt lat="32.056725" lon="-2.933175">
   <ele>863.00</ele>
   <time>2014-04-02T10:20:12Z</time>
  </trkpt>
  <trkpt lat="32.056786" lon="-2.932958">
   <ele>863.00</ele>
   <time>2014-04-02T10:20:13Z</time>
  </trkpt>
  <trkpt lat="32.056857" lon="-2.932747">
   <ele>862.00</ele>
   <time>2014-04-02T10:20:14Z</time>
  </trkpt>
  <trkpt lat="32.056937" lon="-2.932540">
   <ele>862.00</ele>
   <time>2014-04-02T10:20:15Z</time>
  </trkpt>
  <trkpt lat="32.057024" lon="-2.932338">
   <ele>861.00</ele>
   <time>2014-04-02T10:20:16Z</time>
  </trkpt>
  <trkpt lat="32.057118" lon="-2.932139">
   <ele>860.00</ele>
   <time>2014-04-02T10:20:17Z</time>
  </trkpt>
  <trkpt lat="32.057221" lon="-2.931945">
   <ele>859.00</ele>
   <time>2014-04-02T10:20:18Z</time>
  </trkpt>
  <trkpt lat="32.057330" lon="-2.931755">
   <ele>858.00</ele>
   <time>2014-04-02T10:20:19Z</time>
  </trkpt>
  <trkpt lat="32.057447" lon="-2.931569">
   <ele>857.00</ele>
   <time>2014-04-02T10:20:20Z</time>
  </trkpt>
  <trkpt lat="32.057700" lon="-2.931208">
   <ele>856.00</ele>
   <time>2014-04-02T10:20:22Z</time>
  </trkpt>
  <trkpt lat="32.057838" lon="-2.931036">
   <ele>855.00</ele>
   <time>2014-04-02T10:20:23Z</time>
  </trkpt>
  <trkpt lat="32.058131" lon="-2.930707">
   <ele>854.00</ele>
   <time>2014-04-02T10:20:25Z</time>
  </trkpt>
  <trkpt lat="32.058288" lon="-2.930555">
   <ele>854.00</ele>
   <time>2014-04-02T10:20:26Z</time>
  </trkpt>
  <trkpt lat="32.058453" lon="-2.930414">
   <ele>854.00</ele>
   <time>2014-04-02T10:20:27Z</time>
  </trkpt>
  <trkpt lat="32.058625" lon="-2.930284">
   <ele>853.00</ele>
   <time>2014-04-02T10:20:28Z</time>
  </trkpt>
  <trkpt lat="32.058804" lon="-2.930166">
   <ele>854.00</ele>
   <time>2014-04-02T10:20:29Z</time>
  </trkpt>
  <trkpt lat="32.058987" lon="-2.930055">
   <ele>854.00</ele>
   <time>2014-04-02T10:20:30Z</time>
  </trkpt>
  <trkpt lat="32.059175" lon="-2.929951">
   <ele>853.00</ele>
   <time>2014-04-02T10:20:31Z</time>
  </trkpt>
  <trkpt lat="32.059563" lon="-2.929764">
   <ele>853.00</ele>
   <time>2014-04-02T10:20:33Z</time>
  </trkpt>
  <trkpt lat="32.062752" lon="-2.928332">
   <ele>848.00</ele>
   <time>2014-04-02T10:20:49Z</time>
  </trkpt>
  <trkpt lat="32.064652" lon="-2.927482">
   <ele>849.00</ele>
   <time>2014-04-02T10:20:59Z</time>
  </trkpt>
  <trkpt lat="32.064844" lon="-2.927416">
   <ele>849.00</ele>
   <time>2014-04-02T10:21:00Z</time>
  </trkpt>
  <trkpt lat="32.065039" lon="-2.927359">
   <ele>849.00</ele>
   <time>2014-04-02T10:21:01Z</time>
  </trkpt>
  <trkpt lat="32.065236" lon="-2.927312">
   <ele>849.00</ele>
   <time>2014-04-02T10:21:02Z</time>
  </trkpt>
  <trkpt lat="32.065636" lon="-2.927240">
   <ele>849.00</ele>
   <time>2014-04-02T10:21:04Z</time>
  </trkpt>
  <trkpt lat="32.068794" lon="-2.926783">
   <ele>852.00</ele>
   <time>2014-04-02T10:21:19Z</time>
  </trkpt>
  <trkpt lat="32.072050" lon="-2.926303">
   <ele>854.00</ele>
   <time>2014-04-02T10:21:34Z</time>
  </trkpt>
  <trkpt lat="32.075443" lon="-2.925800">
   <ele>853.00</ele>
   <time>2014-04-02T10:21:50Z</time>
  </trkpt>
  <trkpt lat="32.076265" lon="-2.925667">
   <ele>853.00</ele>
   <time>2014-04-02T10:21:54Z</time>
  </trkpt>
  <trkpt lat="32.076668" lon="-2.925564">
   <ele>853.00</ele>
   <time>2014-04-02T10:21:56Z</time>
  </trkpt>
  <trkpt lat="32.076868" lon="-2.925496">
   <ele>853.00</ele>
   <time>2014-04-02T10:21:57Z</time>
  </trkpt>
  <trkpt lat="32.077065" lon="-2.925419">
   <ele>853.00</ele>
   <time>2014-04-02T10:21:58Z</time>
  </trkpt>
  <trkpt lat="32.077259" lon="-2.925329">
   <ele>853.00</ele>
   <time>2014-04-02T10:21:59Z</time>
  </trkpt>
  <trkpt lat="32.077451" lon="-2.925228">
   <ele>853.00</ele>
   <time>2014-04-02T10:22:00Z</time>
  </trkpt>
  <trkpt lat="32.077639" lon="-2.925117">
   <ele>853.00</ele>
   <time>2014-04-02T10:22:01Z</time>
  </trkpt>
  <trkpt lat="32.077823" lon="-2.924996">
   <ele>853.00</ele>
   <time>2014-04-02T10:22:02Z</time>
  </trkpt>
  <trkpt lat="32.078002" lon="-2.924864">
   <ele>853.00</ele>
   <time>2014-04-02T10:22:03Z</time>
  </trkpt>
  <trkpt lat="32.078176" lon="-2.924723">
   <ele>854.00</ele>
   <time>2014-04-02T10:22:04Z</time>
  </trkpt>
  <trkpt lat="32.078345" lon="-2.924573">
   <ele>854.00</ele>
   <time>2014-04-02T10:22:05Z</time>
  </trkpt>
  <trkpt lat="32.078667" lon="-2.924251">
   <ele>854.00</ele>
   <time>2014-04-02T10:22:07Z</time>
  </trkpt>
  <trkpt lat="32.081144" lon="-2.921750">
   <ele>853.00</ele>
   <time>2014-04-02T10:22:22Z</time>
  </trkpt>
  <trkpt lat="32.083685" lon="-2.919219">
   <ele>854.00</ele>
   <time>2014-04-02T10:22:38Z</time>
  </trkpt>
  <trkpt lat="32.085756" lon="-2.917150">
   <ele>841.00</ele>
   <time>2014-04-02T10:22:53Z</time>
  </trkpt>
  <trkpt lat="32.087794" lon="-2.915125">
   <ele>848.00</ele>
   <time>2014-04-02T10:23:08Z</time>
  </trkpt>
  <trkpt lat="32.090157" lon="-2.912783">
   <ele>855.00</ele>
   <time>2014-04-02T10:23:24Z</time>
  </trkpt>
  <trkpt lat="32.092505" lon="-2.910452">
   <ele>861.00</ele>
   <time>2014-04-02T10:23:39Z</time>
  </trkpt>
  <trkpt lat="32.092974" lon="-2.909958">
   <ele>862.00</ele>
   <time>2014-04-02T10:23:42Z</time>
  </trkpt>
  <trkpt lat="32.093266" lon="-2.909602">
   <ele>862.00</ele>
   <time>2014-04-02T10:23:44Z</time>
  </trkpt>
  <trkpt lat="32.095551" lon="-2.906567">
   <ele>865.00</ele>
   <time>2014-04-02T10:24:00Z</time>
  </trkpt>
  <trkpt lat="32.097755" lon="-2.903629">
   <ele>868.00</ele>
   <time>2014-04-02T10:24:15Z</time>
  </trkpt>
  <trkpt lat="32.100150" lon="-2.900443">
   <ele>869.00</ele>
   <time>2014-04-02T10:24:31Z</time>
  </trkpt>
  <trkpt lat="32.102363" lon="-2.897500">
   <ele>873.00</ele>
   <time>2014-04-02T10:24:46Z</time>
  </trkpt>
  <trkpt lat="32.104535" lon="-2.894614">
   <ele>876.00</ele>
   <time>2014-04-02T10:25:01Z</time>
  </trkpt>
  <trkpt lat="32.106832" lon="-2.891556">
   <ele>882.00</ele>
   <time>2014-04-02T10:25:17Z</time>
  </trkpt>
  <trkpt lat="32.108983" lon="-2.888679">
   <ele>890.00</ele>
   <time>2014-04-02T10:25:32Z</time>
  </trkpt>
  <trkpt lat="32.111140" lon="-2.885813">
   <ele>902.00</ele>
   <time>2014-04-02T10:25:47Z</time>
  </trkpt>
  <trkpt lat="32.111841" lon="-2.884912">
   <ele>906.00</ele>
   <time>2014-04-02T10:25:52Z</time>
  </trkpt>
  <trkpt lat="32.111986" lon="-2.884751">
   <ele>906.00</ele>
   <time>2014-04-02T10:25:53Z</time>
  </trkpt>
  <trkpt lat="32.112135" lon="-2.884600">
   <ele>907.00</ele>
   <time>2014-04-02T10:25:54Z</time>
  </trkpt>
  <trkpt lat="32.112286" lon="-2.884458">
   <ele>908.00</ele>
   <time>2014-04-02T10:25:55Z</time>
  </trkpt>
  <trkpt lat="32.112443" lon="-2.884324">
   <ele>908.00</ele>
   <time>2014-04-02T10:25:56Z</time>
  </trkpt>
  <trkpt lat="32.112606" lon="-2.884196">
   <ele>909.00</ele>
   <time>2014-04-02T10:25:57Z</time>
  </trkpt>
  <trkpt lat="32.112775" lon="-2.884077">
   <ele>909.00</ele>
   <time>2014-04-02T10:25:58Z</time>
  </trkpt>
  <trkpt lat="32.112949" lon="-2.883966">
   <ele>909.00</ele>
   <time>2014-04-02T10:25:59Z</time>
  </trkpt>
  <trkpt lat="32.113129" lon="-2.883865">
   <ele>909.00</ele>
   <time>2014-04-02T10:26:00Z</time>
  </trkpt>
  <trkpt lat="32.113495" lon="-2.883687">
   <ele>909.00</ele>
   <time>2014-04-02T10:26:02Z</time>
  </trkpt>
  <trkpt lat="32.113677" lon="-2.883616">
   <ele>909.00</ele>
   <time>2014-04-02T10:26:03Z</time>
  </trkpt>
  <trkpt lat="32.113857" lon="-2.883556">
   <ele>909.00</ele>
   <time>2014-04-02T10:26:04Z</time>
  </trkpt>
  <trkpt lat="32.114214" lon="-2.883456">
   <ele>909.00</ele>
   <time>2014-04-02T10:26:06Z</time>
  </trkpt>
  <trkpt lat="32.116866" lon="-2.882780">
   <ele>897.00</ele>
   <time>2014-04-02T10:26:20Z</time>
  </trkpt>
  <trkpt lat="32.117059" lon="-2.882707">
   <ele>896.00</ele>
   <time>2014-04-02T10:26:21Z</time>
  </trkpt>
  <trkpt lat="32.117246" lon="-2.882621">
   <ele>896.00</ele>
   <time>2014-04-02T10:26:22Z</time>
  </trkpt>
  <trkpt lat="32.117427" lon="-2.882522">
   <ele>896.00</ele>
   <time>2014-04-02T10:26:23Z</time>
  </trkpt>
  <trkpt lat="32.117603" lon="-2.882413">
   <ele>895.00</ele>
   <time>2014-04-02T10:26:24Z</time>
  </trkpt>
  <trkpt lat="32.117948" lon="-2.882171">
   <ele>894.00</ele>
   <time>2014-04-02T10:26:26Z</time>
  </trkpt>
  <trkpt lat="32.118113" lon="-2.882040">
   <ele>894.00</ele>
   <time>2014-04-02T10:26:27Z</time>
  </trkpt>
  <trkpt lat="32.118272" lon="-2.881901">
   <ele>893.00</ele>
   <time>2014-04-02T10:26:28Z</time>
  </trkpt>
  <trkpt lat="32.118425" lon="-2.881753">
   <ele>893.00</ele>
   <time>2014-04-02T10:26:29Z</time>
  </trkpt>
  <trkpt lat="32.118569" lon="-2.881599">
   <ele>893.00</ele>
   <time>2014-04-02T10:26:30Z</time>
  </trkpt>
  <trkpt lat="32.118706" lon="-2.881438">
   <ele>892.00</ele>
   <time>2014-04-02T10:26:31Z</time>
  </trkpt>
  <trkpt lat="32.118836" lon="-2.881273">
   <ele>892.00</ele>
   <time>2014-04-02T10:26:32Z</time>
  </trkpt>
  <trkpt lat="32.119208" lon="-2.880761">
   <ele>892.00</ele>
   <time>2014-04-02T10:26:35Z</time>
  </trkpt>
  <trkpt lat="32.121219" lon="-2.877916">
   <ele>890.00</ele>
   <time>2014-04-02T10:26:51Z</time>
  </trkpt>
  <trkpt lat="32.122659" lon="-2.875882">
   <ele>886.00</ele>
   <time>2014-04-02T10:27:02Z</time>
  </trkpt>
  <trkpt lat="32.122903" lon="-2.875494">
   <ele>886.00</ele>
   <time>2014-04-02T10:27:04Z</time>
  </trkpt>
  <trkpt lat="32.123239" lon="-2.874901">
   <ele>885.00</ele>
   <time>2014-04-02T10:27:07Z</time>
  </trkpt>
  <trkpt lat="32.123438" lon="-2.874493">
   <ele>885.00</ele>
   <time>2014-04-02T10:27:09Z</time>
  </trkpt>
  <trkpt lat="32.123620" lon="-2.874070">
   <ele>885.00</ele>
   <time>2014-04-02T10:27:11Z</time>
  </trkpt>
  <trkpt lat="32.123874" lon="-2.873415">
   <ele>885.00</ele>
   <time>2014-04-02T10:27:14Z</time>
  </trkpt>
  <trkpt lat="32.124027" lon="-2.872969">
   <ele>886.00</ele>
   <time>2014-04-02T10:27:16Z</time>
  </trkpt>
  <trkpt lat="32.124158" lon="-2.872516">
   <ele>887.00</ele>
   <time>2014-04-02T10:27:18Z</time>
  </trkpt>
  <trkpt lat="32.124266" lon="-2.872052">
   <ele>887.00</ele>
   <time>2014-04-02T10:27:20Z</time>
  </trkpt>
  <trkpt lat="32.125114" lon="-2.868258">
   <ele>900.00</ele>
   <time>2014-04-02T10:27:36Z</time>
  </trkpt>
  <trkpt lat="32.125897" lon="-2.864744">
   <ele>903.00</ele>
   <time>2014-04-02T10:27:51Z</time>
  </trkpt>
  <trkpt lat="32.126686" lon="-2.861219">
   <ele>904.00</ele>
   <time>2014-04-02T10:28:06Z</time>
  </trkpt>
  <trkpt lat="32.127029" lon="-2.859643">
   <ele>906.00</ele>
   <time>2014-04-02T10:28:13Z</time>
  </trkpt>
  <trkpt lat="32.127176" lon="-2.858734">
   <ele>905.00</ele>
   <time>2014-04-02T10:28:17Z</time>
  </trkpt>
  <trkpt lat="32.127358" lon="-2.856889">
   <ele>903.00</ele>
   <time>2014-04-02T10:28:25Z</time>
  </trkpt>
  <trkpt lat="32.127402" lon="-2.856203">
   <ele>903.00</ele>
   <time>2014-04-02T10:28:28Z</time>
  </trkpt>
  <trkpt lat="32.127596" lon="-2.852694">
   <ele>904.00</ele>
   <time>2014-04-02T10:28:43Z</time>
  </trkpt>
  <trkpt lat="32.127813" lon="-2.849150">
   <ele>906.00</ele>
   <time>2014-04-02T10:28:58Z</time>
  </trkpt>
  <trkpt lat="32.128050" lon="-2.845257">
   <ele>908.00</ele>
   <time>2014-04-02T10:29:14Z</time>
  </trkpt>
  <trkpt lat="32.128280" lon="-2.841445">
   <ele>909.00</ele>
   <time>2014-04-02T10:29:29Z</time>
  </trkpt>
  <trkpt lat="32.128507" lon="-2.837603">
   <ele>913.00</ele>
   <time>2014-04-02T10:29:44Z</time>
  </trkpt>
  <trkpt lat="32.128764" lon="-2.833508">
   <ele>915.00</ele>
   <time>2014-04-02T10:30:00Z</time>
  </trkpt>
  <trkpt lat="32.129173" lon="-2.829779">
   <ele>917.00</ele>
   <time>2014-04-02T10:30:15Z</time>
  </trkpt>
  <trkpt lat="32.129678" lon="-2.825668">
   <ele>912.00</ele>
   <time>2014-04-02T10:30:31Z</time>
  </trkpt>
  <trkpt lat="32.130119" lon="-2.821732">
   <ele>916.00</ele>
   <time>2014-04-02T10:30:46Z</time>
  </trkpt>
  <trkpt lat="32.130455" lon="-2.818956">
   <ele>916.00</ele>
   <time>2014-04-02T10:30:57Z</time>
  </trkpt>
  <trkpt lat="32.130578" lon="-2.818328">
   <ele>916.00</ele>
   <time>2014-04-02T10:31:00Z</time>
  </trkpt>
  <trkpt lat="32.130715" lon="-2.817758">
   <ele>916.00</ele>
   <time>2014-04-02T10:31:03Z</time>
  </trkpt>
  <trkpt lat="32.130808" lon="-2.817427">
   <ele>916.00</ele>
   <time>2014-04-02T10:31:05Z</time>
  </trkpt>
  <trkpt lat="32.130901" lon="-2.817143">
   <ele>916.00</ele>
   <time>2014-04-02T10:31:07Z</time>
  </trkpt>
  <trkpt lat="32.131041" lon="-2.816769">
   <ele>916.00</ele>
   <time>2014-04-02T10:31:10Z</time>
  </trkpt>
  <trkpt lat="32.131286" lon="-2.816156">
   <ele>916.00</ele>
   <time>2014-04-02T10:31:16Z</time>
  </trkpt>
  <trkpt lat="32.131891" lon="-2.814722">
   <ele>914.00</ele>
   <time>2014-04-02T10:31:32Z</time>
  </trkpt>
  <trkpt lat="32.132814" lon="-2.812572">
   <ele>913.00</ele>
   <time>2014-04-02T10:31:47Z</time>
  </trkpt>
  <trkpt lat="32.134146" lon="-2.809498">
   <ele>912.00</ele>
   <time>2014-04-02T10:32:02Z</time>
  </trkpt>
  <trkpt lat="32.135632" lon="-2.806089">
   <ele>913.00</ele>
   <time>2014-04-02T10:32:18Z</time>
  </trkpt>
  <trkpt lat="32.137061" lon="-2.802787">
   <ele>914.00</ele>
   <time>2014-04-02T10:32:33Z</time>
  </trkpt>
  <trkpt lat="32.138527" lon="-2.799387">
   <ele>914.00</ele>
   <time>2014-04-02T10:32:48Z</time>
  </trkpt>
  <trkpt lat="32.139064" lon="-2.798025">
   <ele>915.00</ele>
   <time>2014-04-02T10:32:54Z</time>
  </trkpt>
  <trkpt lat="32.139221" lon="-2.797566">
   <ele>915.00</ele>
   <time>2014-04-02T10:32:56Z</time>
  </trkpt>
  <trkpt lat="32.139435" lon="-2.796865">
   <ele>915.00</ele>
   <time>2014-04-02T10:32:59Z</time>
  </trkpt>
  <trkpt lat="32.140420" lon="-2.793324">
   <ele>916.00</ele>
   <time>2014-04-02T10:33:14Z</time>
  </trkpt>
  <trkpt lat="32.141459" lon="-2.789521">
   <ele>915.00</ele>
   <time>2014-04-02T10:33:30Z</time>
  </trkpt>
  <trkpt lat="32.142444" lon="-2.785970">
   <ele>915.00</ele>
   <time>2014-04-02T10:33:45Z</time>
  </trkpt>
  <trkpt lat="32.143424" lon="-2.782435">
   <ele>916.00</ele>
   <time>2014-04-02T10:34:00Z</time>
  </trkpt>
  <trkpt lat="32.144482" lon="-2.778638">
   <ele>918.00</ele>
   <time>2014-04-02T10:34:16Z</time>
  </trkpt>
  <trkpt lat="32.145468" lon="-2.775119">
   <ele>920.00</ele>
   <time>2014-04-02T10:34:31Z</time>
  </trkpt>
  <trkpt lat="32.146478" lon="-2.771537">
   <ele>922.00</ele>
   <time>2014-04-02T10:34:46Z</time>
  </trkpt>
  <trkpt lat="32.147553" lon="-2.767692">
   <ele>923.00</ele>
   <time>2014-04-02T10:35:02Z</time>
  </trkpt>
  <trkpt lat="32.148549" lon="-2.764112">
   <ele>924.00</ele>
   <time>2014-04-02T10:35:17Z</time>
  </trkpt>
  <trkpt lat="32.149532" lon="-2.760602">
   <ele>925.00</ele>
   <time>2014-04-02T10:35:32Z</time>
  </trkpt>
  <trkpt lat="32.150557" lon="-2.756952">
   <ele>926.00</ele>
   <time>2014-04-02T10:35:48Z</time>
  </trkpt>
  <trkpt lat="32.151558" lon="-2.753452">
   <ele>929.00</ele>
   <time>2014-04-02T10:36:03Z</time>
  </trkpt>
  <trkpt lat="32.152661" lon="-2.749890">
   <ele>933.00</ele>
   <time>2014-04-02T10:36:18Z</time>
  </trkpt>
  <trkpt lat="32.153829" lon="-2.746119">
   <ele>938.00</ele>
   <time>2014-04-02T10:36:34Z</time>
  </trkpt>
  <trkpt lat="32.154931" lon="-2.742560">
   <ele>942.00</ele>
   <time>2014-04-02T10:36:49Z</time>
  </trkpt>
  <trkpt lat="32.156061" lon="-2.738888">
   <ele>948.00</ele>
   <time>2014-04-02T10:37:05Z</time>
  </trkpt>
  <trkpt lat="32.157107" lon="-2.735491">
   <ele>949.00</ele>
   <time>2014-04-02T10:37:20Z</time>
  </trkpt>
  <trkpt lat="32.158175" lon="-2.732058">
   <ele>946.00</ele>
   <time>2014-04-02T10:37:35Z</time>
  </trkpt>
  <trkpt lat="32.159268" lon="-2.728515">
   <ele>947.00</ele>
   <time>2014-04-02T10:37:51Z</time>
  </trkpt>
  <trkpt lat="32.160315" lon="-2.725134">
   <ele>941.00</ele>
   <time>2014-04-02T10:38:06Z</time>
  </trkpt>
  <trkpt lat="32.161386" lon="-2.721673">
   <ele>936.00</ele>
   <time>2014-04-02T10:38:21Z</time>
  </trkpt>
  <trkpt lat="32.162524" lon="-2.717988">
   <ele>937.00</ele>
   <time>2014-04-02T10:38:37Z</time>
  </trkpt>
  <trkpt lat="32.163367" lon="-2.715167">
   <ele>945.00</ele>
   <time>2014-04-02T10:38:50Z</time>
  </trkpt>
  <trkpt lat="32.163961" lon="-2.712838">
   <ele>950.00</ele>
   <time>2014-04-02T10:39:01Z</time>
  </trkpt>
  <trkpt lat="32.164779" lon="-2.709430">
   <ele>954.00</ele>
   <time>2014-04-02T10:39:17Z</time>
  </trkpt>
  <trkpt lat="32.165592" lon="-2.706128">
   <ele>958.00</ele>
   <time>2014-04-02T10:39:32Z</time>
  </trkpt>
  <trkpt lat="32.166415" lon="-2.702773">
   <ele>962.00</ele>
   <time>2014-04-02T10:39:47Z</time>
  </trkpt>
  <trkpt lat="32.167347" lon="-2.699054">
   <ele>958.00</ele>
   <time>2014-04-02T10:40:03Z</time>
  </trkpt>
  <trkpt lat="32.168204" lon="-2.695609">
   <ele>954.00</ele>
   <time>2014-04-02T10:40:18Z</time>
  </trkpt>
  <trkpt lat="32.169079" lon="-2.692098">
   <ele>949.00</ele>
   <time>2014-04-02T10:40:33Z</time>
  </trkpt>
  <trkpt lat="32.169961" lon="-2.688508">
   <ele>955.00</ele>
   <time>2014-04-02T10:40:49Z</time>
  </trkpt>
  <trkpt lat="32.170741" lon="-2.685305">
   <ele>962.00</ele>
   <time>2014-04-02T10:41:04Z</time>
  </trkpt>
  <trkpt lat="32.171545" lon="-2.682037">
   <ele>963.00</ele>
   <time>2014-04-02T10:41:19Z</time>
  </trkpt>
  <trkpt lat="32.172529" lon="-2.678440">
   <ele>958.00</ele>
   <time>2014-04-02T10:41:35Z</time>
  </trkpt>
  <trkpt lat="32.173473" lon="-2.675126">
   <ele>953.00</ele>
   <time>2014-04-02T10:41:50Z</time>
  </trkpt>
  <trkpt lat="32.174375" lon="-2.671897">
   <ele>957.00</ele>
   <time>2014-04-02T10:42:05Z</time>
  </trkpt>
  <trkpt lat="32.175342" lon="-2.668424">
   <ele>964.00</ele>
   <time>2014-04-02T10:42:21Z</time>
  </trkpt>
  <trkpt lat="32.176305" lon="-2.664988">
   <ele>956.00</ele>
   <time>2014-04-02T10:42:36Z</time>
  </trkpt>
  <trkpt lat="32.177230" lon="-2.661649">
   <ele>958.00</ele>
   <time>2014-04-02T10:42:51Z</time>
  </trkpt>
  <trkpt lat="32.178214" lon="-2.658145">
   <ele>964.00</ele>
   <time>2014-04-02T10:43:07Z</time>
  </trkpt>
  <trkpt lat="32.179115" lon="-2.654861">
   <ele>967.00</ele>
   <time>2014-04-02T10:43:22Z</time>
  </trkpt>
  <trkpt lat="32.180007" lon="-2.651616">
   <ele>964.00</ele>
   <time>2014-04-02T10:43:37Z</time>
  </trkpt>
  <trkpt lat="32.181007" lon="-2.648068">
   <ele>957.00</ele>
   <time>2014-04-02T10:43:53Z</time>
  </trkpt>
  <trkpt lat="32.181939" lon="-2.644692">
   <ele>964.00</ele>
   <time>2014-04-02T10:44:08Z</time>
  </trkpt>
  <trkpt lat="32.182972" lon="-2.640965">
   <ele>958.00</ele>
   <time>2014-04-02T10:44:24Z</time>
  </trkpt>
  <trkpt lat="32.183471" lon="-2.639142">
   <ele>955.00</ele>
   <time>2014-04-02T10:44:32Z</time>
  </trkpt>
  <trkpt lat="32.183562" lon="-2.638701">
   <ele>956.00</ele>
   <time>2014-04-02T10:44:34Z</time>
  </trkpt>
  <trkpt lat="32.183597" lon="-2.638480">
   <ele>956.00</ele>
   <time>2014-04-02T10:44:35Z</time>
  </trkpt>
  <trkpt lat="32.183622" lon="-2.638259">
   <ele>956.00</ele>
   <time>2014-04-02T10:44:36Z</time>
  </trkpt>
  <trkpt lat="32.183642" lon="-2.638035">
   <ele>956.00</ele>
   <time>2014-04-02T10:44:37Z</time>
  </trkpt>
  <trkpt lat="32.183651" lon="-2.637809">
   <ele>956.00</ele>
   <time>2014-04-02T10:44:38Z</time>
  </trkpt>
  <trkpt lat="32.183651" lon="-2.637582">
   <ele>956.00</ele>
   <time>2014-04-02T10:44:39Z</time>
  </trkpt>
  <trkpt lat="32.183642" lon="-2.637354">
   <ele>956.00</ele>
   <time>2014-04-02T10:44:40Z</time>
  </trkpt>
  <trkpt lat="32.183625" lon="-2.637127">
   <ele>956.00</ele>
   <time>2014-04-02T10:44:41Z</time>
  </trkpt>
  <trkpt lat="32.183265" lon="-2.633686">
   <ele>958.00</ele>
   <time>2014-04-02T10:44:56Z</time>
  </trkpt>
  <trkpt lat="32.182923" lon="-2.630331">
   <ele>964.00</ele>
   <time>2014-04-02T10:45:11Z</time>
  </trkpt>
  <trkpt lat="32.182563" lon="-2.626738">
   <ele>964.00</ele>
   <time>2014-04-02T10:45:27Z</time>
  </trkpt>
  <trkpt lat="32.182388" lon="-2.624926">
   <ele>963.00</ele>
   <time>2014-04-02T10:45:35Z</time>
  </trkpt>
  <trkpt lat="32.182381" lon="-2.624702">
   <ele>963.00</ele>
   <time>2014-04-02T10:45:36Z</time>
  </trkpt>
  <trkpt lat="32.182384" lon="-2.624481">
   <ele>962.00</ele>
   <time>2014-04-02T10:45:37Z</time>
  </trkpt>
  <trkpt lat="32.182414" lon="-2.624043">
   <ele>962.00</ele>
   <time>2014-04-02T10:45:39Z</time>
  </trkpt>
  <trkpt lat="32.182472" lon="-2.623608">
   <ele>963.00</ele>
   <time>2014-04-02T10:45:41Z</time>
  </trkpt>
  <trkpt lat="32.182512" lon="-2.623393">
   <ele>963.00</ele>
   <time>2014-04-02T10:45:42Z</time>
  </trkpt>
  <trkpt lat="32.182562" lon="-2.623180">
   <ele>964.00</ele>
   <time>2014-04-02T10:45:43Z</time>
  </trkpt>
  <trkpt lat="32.182622" lon="-2.622968">
   <ele>964.00</ele>
   <time>2014-04-02T10:45:44Z</time>
  </trkpt>
  <trkpt lat="32.182689" lon="-2.622758">
   <ele>964.00</ele>
   <time>2014-04-02T10:45:45Z</time>
  </trkpt>
  <trkpt lat="32.182763" lon="-2.622550">
   <ele>964.00</ele>
   <time>2014-04-02T10:45:46Z</time>
  </trkpt>
  <trkpt lat="32.182927" lon="-2.622144">
   <ele>964.00</ele>
   <time>2014-04-02T10:45:48Z</time>
  </trkpt>
  <trkpt lat="32.183019" lon="-2.621948">
   <ele>964.00</ele>
   <time>2014-04-02T10:45:49Z</time>
  </trkpt>
  <trkpt lat="32.183122" lon="-2.621758">
   <ele>963.00</ele>
   <time>2014-04-02T10:45:50Z</time>
  </trkpt>
  <trkpt lat="32.183234" lon="-2.621574">
   <ele>962.00</ele>
   <time>2014-04-02T10:45:51Z</time>
  </trkpt>
  <trkpt lat="32.183479" lon="-2.621218">
   <ele>961.00</ele>
   <time>2014-04-02T10:45:53Z</time>
  </trkpt>
  <trkpt lat="32.183612" lon="-2.621043">
   <ele>960.00</ele>
   <time>2014-04-02T10:45:54Z</time>
  </trkpt>
  <trkpt lat="32.183750" lon="-2.620880">
   <ele>959.00</ele>
   <time>2014-04-02T10:45:55Z</time>
  </trkpt>
  <trkpt lat="32.183894" lon="-2.620727">
   <ele>959.00</ele>
   <time>2014-04-02T10:45:56Z</time>
  </trkpt>
  <trkpt lat="32.184046" lon="-2.620582">
   <ele>958.00</ele>
   <time>2014-04-02T10:45:57Z</time>
  </trkpt>
  <trkpt lat="32.184205" lon="-2.620447">
   <ele>957.00</ele>
   <time>2014-04-02T10:45:58Z</time>
  </trkpt>
  <trkpt lat="32.184535" lon="-2.620192">
   <ele>955.00</ele>
   <time>2014-04-02T10:46:00Z</time>
  </trkpt>
  <trkpt lat="32.184705" lon="-2.620073">
   <ele>954.00</ele>
   <time>2014-04-02T10:46:01Z</time>
  </trkpt>
  <trkpt lat="32.184879" lon="-2.619960">
   <ele>954.00</ele>
   <time>2014-04-02T10:46:02Z</time>
  </trkpt>
  <trkpt lat="32.185056" lon="-2.619857">
   <ele>953.00</ele>
   <time>2014-04-02T10:46:03Z</time>
  </trkpt>
  <trkpt lat="32.185236" lon="-2.619762">
   <ele>953.00</ele>
   <time>2014-04-02T10:46:04Z</time>
  </trkpt>
  <trkpt lat="32.186157" lon="-2.619330">
   <ele>952.00</ele>
   <time>2014-04-02T10:46:09Z</time>
  </trkpt>
  <trkpt lat="32.188800" lon="-2.618094">
   <ele>948.00</ele>
   <time>2014-04-02T10:46:24Z</time>
  </trkpt>
  <trkpt lat="32.191406" lon="-2.616863">
   <ele>946.00</ele>
   <time>2014-04-02T10:46:39Z</time>
  </trkpt>
  <trkpt lat="32.191753" lon="-2.616690">
   <ele>945.00</ele>
   <time>2014-04-02T10:46:41Z</time>
  </trkpt>
  <trkpt lat="32.191920" lon="-2.616595">
   <ele>946.00</ele>
   <time>2014-04-02T10:46:42Z</time>
  </trkpt>
  <trkpt lat="32.192079" lon="-2.616487">
   <ele>946.00</ele>
   <time>2014-04-02T10:46:43Z</time>
  </trkpt>
  <trkpt lat="32.192232" lon="-2.616367">
   <ele>946.00</ele>
   <time>2014-04-02T10:46:44Z</time>
  </trkpt>
  <trkpt lat="32.192528" lon="-2.616111">
   <ele>947.00</ele>
   <time>2014-04-02T10:46:46Z</time>
  </trkpt>
  <trkpt lat="32.192666" lon="-2.615971">
   <ele>947.00</ele>
   <time>2014-04-02T10:46:47Z</time>
  </trkpt>
  <trkpt lat="32.192796" lon="-2.615823">
   <ele>948.00</ele>
   <time>2014-04-02T10:46:48Z</time>
  </trkpt>
  <trkpt lat="32.193033" lon="-2.615507">
   <ele>950.00</ele>
   <time>2014-04-02T10:46:50Z</time>
  </trkpt>
  <trkpt lat="32.193240" lon="-2.615158">
   <ele>953.00</ele>
   <time>2014-04-02T10:46:52Z</time>
  </trkpt>
  <trkpt lat="32.193335" lon="-2.614974">
   <ele>954.00</ele>
   <time>2014-04-02T10:46:53Z</time>
  </trkpt>
  <trkpt lat="32.193425" lon="-2.614785">
   <ele>954.00</ele>
   <time>2014-04-02T10:46:54Z</time>
  </trkpt>
  <trkpt lat="32.193508" lon="-2.614591">
   <ele>955.00</ele>
   <time>2014-04-02T10:46:55Z</time>
  </trkpt>
  <trkpt lat="32.193583" lon="-2.614391">
   <ele>955.00</ele>
   <time>2014-04-02T10:46:56Z</time>
  </trkpt>
  <trkpt lat="32.193648" lon="-2.614183">
   <ele>956.00</ele>
   <time>2014-04-02T10:46:57Z</time>
  </trkpt>
  <trkpt lat="32.193701" lon="-2.613972">
   <ele>956.00</ele>
   <time>2014-04-02T10:46:58Z</time>
  </trkpt>
  <trkpt lat="32.193743" lon="-2.613756">
   <ele>956.00</ele>
   <time>2014-04-02T10:46:59Z</time>
  </trkpt>
  <trkpt lat="32.193773" lon="-2.613536">
   <ele>957.00</ele>
   <time>2014-04-02T10:47:00Z</time>
  </trkpt>
  <trkpt lat="32.193792" lon="-2.613313">
   <ele>957.00</ele>
   <time>2014-04-02T10:47:01Z</time>
  </trkpt>
  <trkpt lat="32.193802" lon="-2.613090">
   <ele>957.00</ele>
   <time>2014-04-02T10:47:02Z</time>
  </trkpt>
  <trkpt lat="32.193803" lon="-2.612867">
   <ele>958.00</ele>
   <time>2014-04-02T10:47:03Z</time>
  </trkpt>
  <trkpt lat="32.193797" lon="-2.612644">
   <ele>958.00</ele>
   <time>2014-04-02T10:47:04Z</time>
  </trkpt>
  <trkpt lat="32.193738" lon="-2.611771">
   <ele>960.00</ele>
   <time>2014-04-02T10:47:08Z</time>
  </trkpt>
  <trkpt lat="32.193466" lon="-2.608106">
   <ele>960.00</ele>
   <time>2014-04-02T10:47:24Z</time>
  </trkpt>
  <trkpt lat="32.193263" lon="-2.604955">
   <ele>960.00</ele>
   <time>2014-04-02T10:47:38Z</time>
  </trkpt>
  <trkpt lat="32.193265" lon="-2.604514">
   <ele>960.00</ele>
   <time>2014-04-02T10:47:40Z</time>
  </trkpt>
  <trkpt lat="32.193278" lon="-2.604296">
   <ele>961.00</ele>
   <time>2014-04-02T10:47:41Z</time>
  </trkpt>
  <trkpt lat="32.193300" lon="-2.604079">
   <ele>961.00</ele>
   <time>2014-04-02T10:47:42Z</time>
  </trkpt>
  <trkpt lat="32.193329" lon="-2.603866">
   <ele>962.00</ele>
   <time>2014-04-02T10:47:43Z</time>
  </trkpt>
  <trkpt lat="32.193405" lon="-2.603454">
   <ele>963.00</ele>
   <time>2014-04-02T10:47:45Z</time>
  </trkpt>
  <trkpt lat="32.193501" lon="-2.603046">
   <ele>964.00</ele>
   <time>2014-04-02T10:47:47Z</time>
  </trkpt>
  <trkpt lat="32.194351" lon="-2.599997">
   <ele>965.00</ele>
   <time>2014-04-02T10:48:02Z</time>
  </trkpt>
  <trkpt lat="32.194833" lon="-2.598270">
   <ele>967.00</ele>
   <time>2014-04-02T10:48:12Z</time>
  </trkpt>
  <trkpt lat="32.194864" lon="-2.598056">
   <ele>967.00</ele>
   <time>2014-04-02T10:48:15Z</time>
  </trkpt>
  <trkpt lat="32.194894" lon="-2.597986">
   <ele>969.00</ele>
   <time>2014-04-02T10:48:31Z</time>
  </trkpt>
  <trkpt lat="32.194898" lon="-2.597999">
   <ele>970.00</ele>
   <time>2014-04-02T10:48:46Z</time>
  </trkpt>
  <trkpt lat="32.194896" lon="-2.598008">
   <ele>970.00</ele>
   <time>2014-04-02T10:49:02Z</time>
  </trkpt>
  <trkpt lat="32.195036" lon="-2.597669">
   <ele>969.00</ele>
   <time>2014-04-02T10:49:11Z</time>
  </trkpt>
  <trkpt lat="32.195580" lon="-2.595656">
   <ele>969.00</ele>
   <time>2014-04-02T10:49:27Z</time>
  </trkpt>
  <trkpt lat="32.196443" lon="-2.592539">
   <ele>969.00</ele>
   <time>2014-04-02T10:49:42Z</time>
  </trkpt>
  <trkpt lat="32.197455" lon="-2.588888">
   <ele>970.00</ele>
   <time>2014-04-02T10:49:58Z</time>
  </trkpt>
  <trkpt lat="32.198429" lon="-2.585384">
   <ele>970.00</ele>
   <time>2014-04-02T10:50:13Z</time>
  </trkpt>
  <trkpt lat="32.199400" lon="-2.581887">
   <ele>970.00</ele>
   <time>2014-04-02T10:50:28Z</time>
  </trkpt>
  <trkpt lat="32.200429" lon="-2.578184">
   <ele>970.00</ele>
   <time>2014-04-02T10:50:44Z</time>
  </trkpt>
  <trkpt lat="32.201398" lon="-2.574675">
   <ele>974.00</ele>
   <time>2014-04-02T10:50:59Z</time>
  </trkpt>
  <trkpt lat="32.202404" lon="-2.571047">
   <ele>977.00</ele>
   <time>2014-04-02T10:51:14Z</time>
  </trkpt>
  <trkpt lat="32.203470" lon="-2.567333">
   <ele>981.00</ele>
   <time>2014-04-02T10:51:30Z</time>
  </trkpt>
  <trkpt lat="32.204526" lon="-2.563962">
   <ele>983.00</ele>
   <time>2014-04-02T10:51:45Z</time>
  </trkpt>
  <trkpt lat="32.205595" lon="-2.560540">
   <ele>983.00</ele>
   <time>2014-04-02T10:52:00Z</time>
  </trkpt>
  <trkpt lat="32.206781" lon="-2.556757">
   <ele>983.00</ele>
   <time>2014-04-02T10:52:16Z</time>
  </trkpt>
  <trkpt lat="32.207863" lon="-2.553259">
   <ele>987.00</ele>
   <time>2014-04-02T10:52:31Z</time>
  </trkpt>
  <trkpt lat="32.208940" lon="-2.549834">
   <ele>995.00</ele>
   <time>2014-04-02T10:52:46Z</time>
  </trkpt>
  <trkpt lat="32.210054" lon="-2.546203">
   <ele>995.00</ele>
   <time>2014-04-02T10:53:02Z</time>
  </trkpt>
  <trkpt lat="32.210249" lon="-2.545467">
   <ele>995.00</ele>
   <time>2014-04-02T10:53:05Z</time>
  </trkpt>
  <trkpt lat="32.211088" lon="-2.541950">
   <ele>1001.00</ele>
   <time>2014-04-02T10:53:20Z</time>
  </trkpt>
  <trkpt lat="32.211992" lon="-2.538078">
   <ele>1005.00</ele>
   <time>2014-04-02T10:53:36Z</time>
  </trkpt>
  <trkpt lat="32.212897" lon="-2.534270">
   <ele>999.00</ele>
   <time>2014-04-02T10:53:51Z</time>
  </trkpt>
  <trkpt lat="32.213765" lon="-2.530591">
   <ele>1003.00</ele>
   <time>2014-04-02T10:54:06Z</time>
  </trkpt>
  <trkpt lat="32.214452" lon="-2.527844">
   <ele>1007.00</ele>
   <time>2014-04-02T10:54:17Z</time>
  </trkpt>
  <trkpt lat="32.215420" lon="-2.524297">
   <ele>1013.00</ele>
   <time>2014-04-02T10:54:32Z</time>
  </trkpt>
  <trkpt lat="32.216197" lon="-2.521411">
   <ele>1016.00</ele>
   <time>2014-04-02T10:54:47Z</time>
  </trkpt>
  <trkpt lat="32.217045" lon="-2.518286">
   <ele>1019.00</ele>
   <time>2014-04-02T10:55:03Z</time>
  </trkpt>
  <trkpt lat="32.217957" lon="-2.514953">
   <ele>1022.00</ele>
   <time>2014-04-02T10:55:18Z</time>
  </trkpt>
  <trkpt lat="32.218930" lon="-2.511406">
   <ele>1024.00</ele>
   <time>2014-04-02T10:55:33Z</time>
  </trkpt>
  <trkpt lat="32.219963" lon="-2.507592">
   <ele>1024.00</ele>
   <time>2014-04-02T10:55:48Z</time>
  </trkpt>
  <trkpt lat="32.220504" lon="-2.505534">
   <ele>1024.00</ele>
   <time>2014-04-02T10:55:56Z</time>
  </trkpt>
  <trkpt lat="32.220613" lon="-2.505002">
   <ele>1023.00</ele>
   <time>2014-04-02T10:55:58Z</time>
  </trkpt>
  <trkpt lat="32.221362" lon="-2.500895">
   <ele>1017.00</ele>
   <time>2014-04-02T10:56:13Z</time>
  </trkpt>
  <trkpt lat="32.222100" lon="-2.496777">
   <ele>1013.00</ele>
   <time>2014-04-02T10:56:28Z</time>
  </trkpt>
  <trkpt lat="32.222882" lon="-2.492348">
   <ele>1013.00</ele>
   <time>2014-04-02T10:56:44Z</time>
  </trkpt>
  <trkpt lat="32.223635" lon="-2.488187">
   <ele>1010.00</ele>
   <time>2014-04-02T10:56:59Z</time>
  </trkpt>
  <trkpt lat="32.224389" lon="-2.484065">
   <ele>1007.00</ele>
   <time>2014-04-02T10:57:14Z</time>
  </trkpt>
  <trkpt lat="32.225129" lon="-2.479838">
   <ele>1009.00</ele>
   <time>2014-04-02T10:57:30Z</time>
  </trkpt>
  <trkpt lat="32.225541" lon="-2.477545">
   <ele>1009.00</ele>
   <time>2014-04-02T10:57:39Z</time>
  </trkpt>
  <trkpt lat="32.225601" lon="-2.477304">
   <ele>1008.00</ele>
   <time>2014-04-02T10:57:40Z</time>
  </trkpt>
  <trkpt lat="32.225670" lon="-2.477065">
   <ele>1009.00</ele>
   <time>2014-04-02T10:57:41Z</time>
  </trkpt>
  <trkpt lat="32.225747" lon="-2.476830">
   <ele>1008.00</ele>
   <time>2014-04-02T10:57:42Z</time>
  </trkpt>
  <trkpt lat="32.225844" lon="-2.476597">
   <ele>1008.00</ele>
   <time>2014-04-02T10:57:43Z</time>
  </trkpt>
  <trkpt lat="32.225949" lon="-2.476367">
   <ele>1008.00</ele>
   <time>2014-04-02T10:57:44Z</time>
  </trkpt>
  <trkpt lat="32.226061" lon="-2.476145">
   <ele>1008.00</ele>
   <time>2014-04-02T10:57:45Z</time>
  </trkpt>
  <trkpt lat="32.226306" lon="-2.475715">
   <ele>1009.00</ele>
   <time>2014-04-02T10:57:47Z</time>
  </trkpt>
  <trkpt lat="32.228263" lon="-2.472461">
   <ele>1013.00</ele>
   <time>2014-04-02T10:58:02Z</time>
  </trkpt>
  <trkpt lat="32.230338" lon="-2.468947">
   <ele>1018.00</ele>
   <time>2014-04-02T10:58:18Z</time>
  </trkpt>
  <trkpt lat="32.232277" lon="-2.465639">
   <ele>1019.00</ele>
   <time>2014-04-02T10:58:33Z</time>
  </trkpt>
  <trkpt lat="32.234274" lon="-2.462284">
   <ele>1017.00</ele>
   <time>2014-04-02T10:58:48Z</time>
  </trkpt>
  <trkpt lat="32.236418" lon="-2.458652">
   <ele>1016.00</ele>
   <time>2014-04-02T10:59:04Z</time>
  </trkpt>
  <trkpt lat="32.238465" lon="-2.455176">
   <ele>1013.00</ele>
   <time>2014-04-02T10:59:19Z</time>
  </trkpt>
  <trkpt lat="32.240500" lon="-2.451720">
   <ele>1010.00</ele>
   <time>2014-04-02T10:59:34Z</time>
  </trkpt>
  <trkpt lat="32.241796" lon="-2.449554">
   <ele>1009.00</ele>
   <time>2014-04-02T10:59:44Z</time>
  </trkpt>
  <trkpt lat="32.241938" lon="-2.449360">
   <ele>1009.00</ele>
   <time>2014-04-02T10:59:45Z</time>
  </trkpt>
  <trkpt lat="32.242087" lon="-2.449175">
   <ele>1009.00</ele>
   <time>2014-04-02T10:59:46Z</time>
  </trkpt>
  <trkpt lat="32.242241" lon="-2.449002">
   <ele>1008.00</ele>
   <time>2014-04-02T10:59:47Z</time>
  </trkpt>
  <trkpt lat="32.242401" lon="-2.448837">
   <ele>1008.00</ele>
   <time>2014-04-02T10:59:48Z</time>
  </trkpt>
  <trkpt lat="32.242566" lon="-2.448680">
   <ele>1007.00</ele>
   <time>2014-04-02T10:59:49Z</time>
  </trkpt>
  <trkpt lat="32.242737" lon="-2.448532">
   <ele>1007.00</ele>
   <time>2014-04-02T10:59:50Z</time>
  </trkpt>
  <trkpt lat="32.242912" lon="-2.448390">
   <ele>1007.00</ele>
   <time>2014-04-02T10:59:51Z</time>
  </trkpt>
  <trkpt lat="32.243094" lon="-2.448259">
   <ele>1006.00</ele>
   <time>2014-04-02T10:59:52Z</time>
  </trkpt>
  <trkpt lat="32.243280" lon="-2.448139">
   <ele>1006.00</ele>
   <time>2014-04-02T10:59:53Z</time>
  </trkpt>
  <trkpt lat="32.243473" lon="-2.448030">
   <ele>1005.00</ele>
   <time>2014-04-02T10:59:54Z</time>
  </trkpt>
  <trkpt lat="32.243871" lon="-2.447832">
   <ele>1005.00</ele>
   <time>2014-04-02T10:59:56Z</time>
  </trkpt>
  <trkpt lat="32.246895" lon="-2.446370">
   <ele>1003.00</ele>
   <time>2014-04-02T11:00:11Z</time>
  </trkpt>
  <trkpt lat="32.249934" lon="-2.444878">
   <ele>1002.00</ele>
   <time>2014-04-02T11:00:26Z</time>
  </trkpt>
  <trkpt lat="32.253150" lon="-2.443299">
   <ele>1002.00</ele>
   <time>2014-04-02T11:00:42Z</time>
  </trkpt>
  <trkpt lat="32.255992" lon="-2.441893">
   <ele>1002.00</ele>
   <time>2014-04-02T11:00:57Z</time>
  </trkpt>
  <trkpt lat="32.257071" lon="-2.441351">
   <ele>1002.00</ele>
   <time>2014-04-02T11:01:03Z</time>
  </trkpt>
  <trkpt lat="32.257243" lon="-2.441246">
   <ele>1002.00</ele>
   <time>2014-04-02T11:01:04Z</time>
  </trkpt>
  <trkpt lat="32.257412" lon="-2.441131">
   <ele>1002.00</ele>
   <time>2014-04-02T11:01:05Z</time>
  </trkpt>
  <trkpt lat="32.257578" lon="-2.441008">
   <ele>1002.00</ele>
   <time>2014-04-02T11:01:06Z</time>
  </trkpt>
  <trkpt lat="32.257900" lon="-2.440738">
   <ele>1002.00</ele>
   <time>2014-04-02T11:01:08Z</time>
  </trkpt>
  <trkpt lat="32.258054" lon="-2.440589">
   <ele>1002.00</ele>
   <time>2014-04-02T11:01:09Z</time>
  </trkpt>
  <trkpt lat="32.258203" lon="-2.440430">
   <ele>1002.00</ele>
   <time>2014-04-02T11:01:10Z</time>
  </trkpt>
  <trkpt lat="32.258346" lon="-2.440262">
   <ele>1002.00</ele>
   <time>2014-04-02T11:01:11Z</time>
  </trkpt>
  <trkpt lat="32.258482" lon="-2.440085">
   <ele>1002.00</ele>
   <time>2014-04-02T11:01:12Z</time>
  </trkpt>
  <trkpt lat="32.258613" lon="-2.439901">
   <ele>1002.00</ele>
   <time>2014-04-02T11:01:13Z</time>
  </trkpt>
  <trkpt lat="32.258738" lon="-2.439711">
   <ele>1002.00</ele>
   <time>2014-04-02T11:01:14Z</time>
  </trkpt>
  <trkpt lat="32.258857" lon="-2.439515">
   <ele>1002.00</ele>
   <time>2014-04-02T11:01:15Z</time>
  </trkpt>
  <trkpt lat="32.258968" lon="-2.439312">
   <ele>1002.00</ele>
   <time>2014-04-02T11:01:16Z</time>
  </trkpt>
  <trkpt lat="32.259071" lon="-2.439103">
   <ele>1002.00</ele>
   <time>2014-04-02T11:01:17Z</time>
  </trkpt>
  <trkpt lat="32.259165" lon="-2.438888">
   <ele>1002.00</ele>
   <time>2014-04-02T11:01:18Z</time>
  </trkpt>
  <trkpt lat="32.259248" lon="-2.438669">
   <ele>1002.00</ele>
   <time>2014-04-02T11:01:19Z</time>
  </trkpt>
  <trkpt lat="32.259321" lon="-2.438445">
   <ele>1002.00</ele>
   <time>2014-04-02T11:01:20Z</time>
  </trkpt>
  <trkpt lat="32.259386" lon="-2.438217">
   <ele>1002.00</ele>
   <time>2014-04-02T11:01:21Z</time>
  </trkpt>
  <trkpt lat="32.259443" lon="-2.437988">
   <ele>1002.00</ele>
   <time>2014-04-02T11:01:22Z</time>
  </trkpt>
  <trkpt lat="32.259493" lon="-2.437757">
   <ele>1002.00</ele>
   <time>2014-04-02T11:01:23Z</time>
  </trkpt>
  <trkpt lat="32.259533" lon="-2.437527">
   <ele>1003.00</ele>
   <time>2014-04-02T11:01:24Z</time>
  </trkpt>
  <trkpt lat="32.259563" lon="-2.437295">
   <ele>1003.00</ele>
   <time>2014-04-02T11:01:25Z</time>
  </trkpt>
  <trkpt lat="32.259583" lon="-2.437063">
   <ele>1003.00</ele>
   <time>2014-04-02T11:01:26Z</time>
  </trkpt>
  <trkpt lat="32.259592" lon="-2.436829">
   <ele>1003.00</ele>
   <time>2014-04-02T11:01:27Z</time>
  </trkpt>
  <trkpt lat="32.259603" lon="-2.435417">
   <ele>1003.00</ele>
   <time>2014-04-02T11:01:33Z</time>
  </trkpt>
  <trkpt lat="32.259618" lon="-2.432078">
   <ele>1005.00</ele>
   <time>2014-04-02T11:01:48Z</time>
  </trkpt>
  <trkpt lat="32.259640" lon="-2.428769">
   <ele>1005.00</ele>
   <time>2014-04-02T11:02:04Z</time>
  </trkpt>
  <trkpt lat="32.259656" lon="-2.427164">
   <ele>1005.00</ele>
   <time>2014-04-02T11:02:19Z</time>
  </trkpt>
  <trkpt lat="32.259656" lon="-2.425912">
   <ele>1003.00</ele>
   <time>2014-04-02T11:02:34Z</time>
  </trkpt>
  <trkpt lat="32.259669" lon="-2.424677">
   <ele>1002.00</ele>
   <time>2014-04-02T11:02:50Z</time>
  </trkpt>
  <trkpt lat="32.259684" lon="-2.423353">
   <ele>1002.00</ele>
   <time>2014-04-02T11:03:05Z</time>
  </trkpt>
  <trkpt lat="32.259690" lon="-2.421176">
   <ele>1003.00</ele>
   <time>2014-04-02T11:03:21Z</time>
  </trkpt>
  <trkpt lat="32.259716" lon="-2.420109">
   <ele>1004.00</ele>
   <time>2014-04-02T11:03:27Z</time>
  </trkpt>
  <trkpt lat="32.259758" lon="-2.419708">
   <ele>1003.00</ele>
   <time>2014-04-02T11:03:29Z</time>
  </trkpt>
  <trkpt lat="32.259827" lon="-2.419291">
   <ele>1003.00</ele>
   <time>2014-04-02T11:03:31Z</time>
  </trkpt>
  <trkpt lat="32.259924" lon="-2.418863">
   <ele>1003.00</ele>
   <time>2014-04-02T11:03:33Z</time>
  </trkpt>
  <trkpt lat="32.260809" lon="-2.415150">
   <ele>1004.00</ele>
   <time>2014-04-02T11:03:49Z</time>
  </trkpt>
  <trkpt lat="32.261654" lon="-2.411650">
   <ele>1004.00</ele>
   <time>2014-04-02T11:04:04Z</time>
  </trkpt>
  <trkpt lat="32.262563" lon="-2.407847">
   <ele>1004.00</ele>
   <time>2014-04-02T11:04:19Z</time>
  </trkpt>
  <trkpt lat="32.263549" lon="-2.403715">
   <ele>1004.00</ele>
   <time>2014-04-02T11:04:35Z</time>
  </trkpt>
  <trkpt lat="32.264441" lon="-2.399978">
   <ele>1005.00</ele>
   <time>2014-04-02T11:04:50Z</time>
  </trkpt>
  <trkpt lat="32.265332" lon="-2.396255">
   <ele>1005.00</ele>
   <time>2014-04-02T11:05:05Z</time>
  </trkpt>
  <trkpt lat="32.266266" lon="-2.392375">
   <ele>1005.00</ele>
   <time>2014-04-02T11:05:21Z</time>
  </trkpt>
  <trkpt lat="32.267105" lon="-2.388827">
   <ele>1006.00</ele>
   <time>2014-04-02T11:05:36Z</time>
  </trkpt>
  <trkpt lat="32.267921" lon="-2.385424">
   <ele>1006.00</ele>
   <time>2014-04-02T11:05:51Z</time>
  </trkpt>
  <trkpt lat="32.268784" lon="-2.381824">
   <ele>1006.00</ele>
   <time>2014-04-02T11:06:07Z</time>
  </trkpt>
  <trkpt lat="32.269592" lon="-2.378460">
   <ele>1007.00</ele>
   <time>2014-04-02T11:06:22Z</time>
  </trkpt>
  <trkpt lat="32.269992" lon="-2.376712">
   <ele>1007.00</ele>
   <time>2014-04-02T11:06:30Z</time>
  </trkpt>
  <trkpt lat="32.270069" lon="-2.376264">
   <ele>1007.00</ele>
   <time>2014-04-02T11:06:32Z</time>
  </trkpt>
  <trkpt lat="32.270098" lon="-2.376037">
   <ele>1007.00</ele>
   <time>2014-04-02T11:06:33Z</time>
  </trkpt>
  <trkpt lat="32.270118" lon="-2.375809">
   <ele>1007.00</ele>
   <time>2014-04-02T11:06:34Z</time>
  </trkpt>
  <trkpt lat="32.270130" lon="-2.375581">
   <ele>1007.00</ele>
   <time>2014-04-02T11:06:35Z</time>
  </trkpt>
  <trkpt lat="32.270132" lon="-2.375127">
   <ele>1007.00</ele>
   <time>2014-04-02T11:06:37Z</time>
  </trkpt>
  <trkpt lat="32.270108" lon="-2.374676">
   <ele>1007.00</ele>
   <time>2014-04-02T11:06:39Z</time>
  </trkpt>
  <trkpt lat="32.270062" lon="-2.374230">
   <ele>1007.00</ele>
   <time>2014-04-02T11:06:41Z</time>
  </trkpt>
  <trkpt lat="32.269997" lon="-2.373793">
   <ele>1007.00</ele>
   <time>2014-04-02T11:06:43Z</time>
  </trkpt>
  <trkpt lat="32.269432" lon="-2.370402">
   <ele>1007.00</ele>
   <time>2014-04-02T11:06:59Z</time>
  </trkpt>
  <trkpt lat="32.268884" lon="-2.367120">
   <ele>1008.00</ele>
   <time>2014-04-02T11:07:14Z</time>
  </trkpt>
  <trkpt lat="32.268338" lon="-2.363768">
   <ele>1008.00</ele>
   <time>2014-04-02T11:07:29Z</time>
  </trkpt>
  <trkpt lat="32.267735" lon="-2.360210">
   <ele>1009.00</ele>
   <time>2014-04-02T11:07:45Z</time>
  </trkpt>
  <trkpt lat="32.267529" lon="-2.358922">
   <ele>1009.00</ele>
   <time>2014-04-02T11:07:51Z</time>
  </trkpt>
  <trkpt lat="32.267482" lon="-2.358485">
   <ele>1009.00</ele>
   <time>2014-04-02T11:07:53Z</time>
  </trkpt>
  <trkpt lat="32.267459" lon="-2.358040">
   <ele>1009.00</ele>
   <time>2014-04-02T11:07:55Z</time>
  </trkpt>
  <trkpt lat="32.267453" lon="-2.357132">
   <ele>1009.00</ele>
   <time>2014-04-02T11:07:59Z</time>
  </trkpt>
  <trkpt lat="32.267471" lon="-2.356673">
   <ele>1009.00</ele>
   <time>2014-04-02T11:08:01Z</time>
  </trkpt>
  <trkpt lat="32.267504" lon="-2.356215">
   <ele>1009.00</ele>
   <time>2014-04-02T11:08:03Z</time>
  </trkpt>
  <trkpt lat="32.267558" lon="-2.355757">
   <ele>1009.00</ele>
   <time>2014-04-02T11:08:05Z</time>
  </trkpt>
  <trkpt lat="32.267635" lon="-2.355306">
   <ele>1009.00</ele>
   <time>2014-04-02T11:08:07Z</time>
  </trkpt>
  <trkpt lat="32.267768" lon="-2.354645">
   <ele>1009.00</ele>
   <time>2014-04-02T11:08:10Z</time>
  </trkpt>
  <trkpt lat="32.267880" lon="-2.354210">
   <ele>1010.00</ele>
   <time>2014-04-02T11:08:12Z</time>
  </trkpt>
  <trkpt lat="32.268011" lon="-2.353783">
   <ele>1010.00</ele>
   <time>2014-04-02T11:08:14Z</time>
  </trkpt>
  <trkpt lat="32.268375" lon="-2.352747">
   <ele>1009.00</ele>
   <time>2014-04-02T11:08:19Z</time>
  </trkpt>
  <trkpt lat="32.269516" lon="-2.349656">
   <ele>1010.00</ele>
   <time>2014-04-02T11:08:34Z</time>
  </trkpt>
  <trkpt lat="32.270513" lon="-2.346980">
   <ele>1011.00</ele>
   <time>2014-04-02T11:08:47Z</time>
  </trkpt>
  <trkpt lat="32.270598" lon="-2.346788">
   <ele>1011.00</ele>
   <time>2014-04-02T11:08:48Z</time>
  </trkpt>
  <trkpt lat="32.270690" lon="-2.346602">
   <ele>1011.00</ele>
   <time>2014-04-02T11:08:49Z</time>
  </trkpt>
  <trkpt lat="32.270791" lon="-2.346421">
   <ele>1011.00</ele>
   <time>2014-04-02T11:08:50Z</time>
  </trkpt>
  <trkpt lat="32.270902" lon="-2.346246">
   <ele>1011.00</ele>
   <time>2014-04-02T11:08:51Z</time>
  </trkpt>
  <trkpt lat="32.271021" lon="-2.346080">
   <ele>1011.00</ele>
   <time>2014-04-02T11:08:52Z</time>
  </trkpt>
  <trkpt lat="32.271145" lon="-2.345923">
   <ele>1011.00</ele>
   <time>2014-04-02T11:08:53Z</time>
  </trkpt>
  <trkpt lat="32.271391" lon="-2.345639">
   <ele>1011.00</ele>
   <time>2014-04-02T11:08:55Z</time>
  </trkpt>
  <trkpt lat="32.271614" lon="-2.345410">
   <ele>1009.00</ele>
   <time>2014-04-02T11:08:57Z</time>
  </trkpt>
  <trkpt lat="32.271831" lon="-2.345213">
   <ele>1008.00</ele>
   <time>2014-04-02T11:08:59Z</time>
  </trkpt>
  <trkpt lat="32.272065" lon="-2.345045">
   <ele>1008.00</ele>
   <time>2014-04-02T11:09:01Z</time>
  </trkpt>
  <trkpt lat="32.272322" lon="-2.344904">
   <ele>1007.00</ele>
   <time>2014-04-02T11:09:03Z</time>
  </trkpt>
  <trkpt lat="32.272739" lon="-2.344711">
   <ele>1006.00</ele>
   <time>2014-04-02T11:09:06Z</time>
  </trkpt>
  <trkpt lat="32.275189" lon="-2.343588">
   <ele>1007.00</ele>
   <time>2014-04-02T11:09:21Z</time>
  </trkpt>
  <trkpt lat="32.278002" lon="-2.342280">
   <ele>1010.00</ele>
   <time>2014-04-02T11:09:37Z</time>
  </trkpt>
  <trkpt lat="32.280714" lon="-2.341008">
   <ele>1011.00</ele>
   <time>2014-04-02T11:09:52Z</time>
  </trkpt>
  <trkpt lat="32.281989" lon="-2.340384">
   <ele>1012.00</ele>
   <time>2014-04-02T11:09:59Z</time>
  </trkpt>
  <trkpt lat="32.282352" lon="-2.340173">
   <ele>1012.00</ele>
   <time>2014-04-02T11:10:01Z</time>
  </trkpt>
  <trkpt lat="32.282899" lon="-2.339817">
   <ele>1012.00</ele>
   <time>2014-04-02T11:10:04Z</time>
  </trkpt>
  <trkpt lat="32.285771" lon="-2.337822">
   <ele>1012.00</ele>
   <time>2014-04-02T11:10:19Z</time>
  </trkpt>
  <trkpt lat="32.288556" lon="-2.335896">
   <ele>1012.00</ele>
   <time>2014-04-02T11:10:34Z</time>
  </trkpt>
  <trkpt lat="32.289627" lon="-2.335138">
   <ele>1011.00</ele>
   <time>2014-04-02T11:10:40Z</time>
  </trkpt>
  <trkpt lat="32.289975" lon="-2.334852">
   <ele>1012.00</ele>
   <time>2014-04-02T11:10:42Z</time>
  </trkpt>
  <trkpt lat="32.290313" lon="-2.334546">
   <ele>1012.00</ele>
   <time>2014-04-02T11:10:44Z</time>
  </trkpt>
  <trkpt lat="32.290641" lon="-2.334219">
   <ele>1012.00</ele>
   <time>2014-04-02T11:10:46Z</time>
  </trkpt>
  <trkpt lat="32.290958" lon="-2.333874">
   <ele>1012.00</ele>
   <time>2014-04-02T11:10:48Z</time>
  </trkpt>
  <trkpt lat="32.292036" lon="-2.332588">
   <ele>1013.00</ele>
   <time>2014-04-02T11:10:55Z</time>
  </trkpt>
  <trkpt lat="32.294482" lon="-2.329675">
   <ele>1014.00</ele>
   <time>2014-04-02T11:11:11Z</time>
  </trkpt>
  <trkpt lat="32.296683" lon="-2.327072">
   <ele>1015.00</ele>
   <time>2014-04-02T11:11:26Z</time>
  </trkpt>
  <trkpt lat="32.298639" lon="-2.324758">
   <ele>1017.00</ele>
   <time>2014-04-02T11:11:39Z</time>
  </trkpt>
  <trkpt lat="32.299039" lon="-2.324231">
   <ele>1017.00</ele>
   <time>2014-04-02T11:11:42Z</time>
  </trkpt>
  <trkpt lat="32.299529" lon="-2.323521">
   <ele>1018.00</ele>
   <time>2014-04-02T11:11:46Z</time>
  </trkpt>
  <trkpt lat="32.301434" lon="-2.320676">
   <ele>1019.00</ele>
   <time>2014-04-02T11:12:01Z</time>
  </trkpt>
  <trkpt lat="32.303421" lon="-2.317702">
   <ele>1019.00</ele>
   <time>2014-04-02T11:12:16Z</time>
  </trkpt>
  <trkpt lat="32.305564" lon="-2.314508">
   <ele>1020.00</ele>
   <time>2014-04-02T11:12:32Z</time>
  </trkpt>
  <trkpt lat="32.307507" lon="-2.311596">
   <ele>1020.00</ele>
   <time>2014-04-02T11:12:47Z</time>
  </trkpt>
  <trkpt lat="32.309490" lon="-2.308634">
   <ele>1021.00</ele>
   <time>2014-04-02T11:13:02Z</time>
  </trkpt>
  <trkpt lat="32.311506" lon="-2.305600">
   <ele>1022.00</ele>
   <time>2014-04-02T11:13:18Z</time>
  </trkpt>
  <trkpt lat="32.313159" lon="-2.303124">
   <ele>1023.00</ele>
   <time>2014-04-02T11:13:33Z</time>
  </trkpt>
  <trkpt lat="32.314720" lon="-2.300801">
   <ele>1025.00</ele>
   <time>2014-04-02T11:13:49Z</time>
  </trkpt>
  <trkpt lat="32.316233" lon="-2.298725">
   <ele>1024.00</ele>
   <time>2014-04-02T11:14:04Z</time>
  </trkpt>
  <trkpt lat="32.318043" lon="-2.296245">
   <ele>1024.00</ele>
   <time>2014-04-02T11:14:19Z</time>
  </trkpt>
  <trkpt lat="32.319970" lon="-2.293608">
   <ele>1026.00</ele>
   <time>2014-04-02T11:14:35Z</time>
  </trkpt>
  <trkpt lat="32.321764" lon="-2.291154">
   <ele>1027.00</ele>
   <time>2014-04-02T11:14:50Z</time>
  </trkpt>
  <trkpt lat="32.323603" lon="-2.288634">
   <ele>1027.00</ele>
   <time>2014-04-02T11:15:05Z</time>
  </trkpt>
  <trkpt lat="32.324198" lon="-2.287765">
   <ele>1027.00</ele>
   <time>2014-04-02T11:15:10Z</time>
  </trkpt>
  <trkpt lat="32.324638" lon="-2.287059">
   <ele>1027.00</ele>
   <time>2014-04-02T11:15:14Z</time>
  </trkpt>
  <trkpt lat="32.326076" lon="-2.284665">
   <ele>1027.00</ele>
   <time>2014-04-02T11:15:29Z</time>
  </trkpt>
  <trkpt lat="32.327331" lon="-2.282586">
   <ele>1028.00</ele>
   <time>2014-04-02T11:15:44Z</time>
  </trkpt>
  <trkpt lat="32.328450" lon="-2.280734">
   <ele>1029.00</ele>
   <time>2014-04-02T11:16:00Z</time>
  </trkpt>
  <trkpt lat="32.329563" lon="-2.278886">
   <ele>1031.00</ele>
   <time>2014-04-02T11:16:13Z</time>
  </trkpt>
  <trkpt lat="32.330710" lon="-2.277030">
   <ele>1030.00</ele>
   <time>2014-04-02T11:16:26Z</time>
  </trkpt>
  <trkpt lat="32.332154" lon="-2.274914">
   <ele>1029.00</ele>
   <time>2014-04-02T11:16:41Z</time>
  </trkpt>
  <trkpt lat="32.333630" lon="-2.272762">
   <ele>1029.00</ele>
   <time>2014-04-02T11:16:56Z</time>
  </trkpt>
  <trkpt lat="32.335269" lon="-2.270366">
   <ele>1030.00</ele>
   <time>2014-04-02T11:17:12Z</time>
  </trkpt>
  <trkpt lat="32.336730" lon="-2.268230">
   <ele>1031.00</ele>
   <time>2014-04-02T11:17:27Z</time>
  </trkpt>
  <trkpt lat="32.338147" lon="-2.266155">
   <ele>1031.00</ele>
   <time>2014-04-02T11:17:42Z</time>
  </trkpt>
  <trkpt lat="32.339716" lon="-2.263868">
   <ele>1032.00</ele>
   <time>2014-04-02T11:17:58Z</time>
  </trkpt>
  <trkpt lat="32.340450" lon="-2.262760">
   <ele>1032.00</ele>
   <time>2014-04-02T11:18:06Z</time>
  </trkpt>
  <trkpt lat="32.341712" lon="-2.260718">
   <ele>1033.00</ele>
   <time>2014-04-02T11:18:21Z</time>
  </trkpt>
  <trkpt lat="32.343054" lon="-2.258558">
   <ele>1035.00</ele>
   <time>2014-04-02T11:18:37Z</time>
  </trkpt>
  <trkpt lat="32.344291" lon="-2.256557">
   <ele>1036.00</ele>
   <time>2014-04-02T11:18:52Z</time>
  </trkpt>
  <trkpt lat="32.345613" lon="-2.254419">
   <ele>1037.00</ele>
   <time>2014-04-02T11:19:07Z</time>
  </trkpt>
  <trkpt lat="32.347030" lon="-2.252114">
   <ele>1039.00</ele>
   <time>2014-04-02T11:19:23Z</time>
  </trkpt>
  <trkpt lat="32.348384" lon="-2.249920">
   <ele>1041.00</ele>
   <time>2014-04-02T11:19:38Z</time>
  </trkpt>
  <trkpt lat="32.349560" lon="-2.248049">
   <ele>1041.00</ele>
   <time>2014-04-02T11:19:51Z</time>
  </trkpt>
  <trkpt lat="32.351094" lon="-2.245842">
   <ele>1043.00</ele>
   <time>2014-04-02T11:20:07Z</time>
  </trkpt>
  <trkpt lat="32.352602" lon="-2.243690">
   <ele>1039.00</ele>
   <time>2014-04-02T11:20:22Z</time>
  </trkpt>
  <trkpt lat="32.354070" lon="-2.241572">
   <ele>1039.00</ele>
   <time>2014-04-02T11:20:37Z</time>
  </trkpt>
  <trkpt lat="32.355610" lon="-2.239347">
   <ele>1042.00</ele>
   <time>2014-04-02T11:20:53Z</time>
  </trkpt>
  <trkpt lat="32.356660" lon="-2.237842">
   <ele>1040.00</ele>
   <time>2014-04-02T11:21:08Z</time>
  </trkpt>
  <trkpt lat="32.357745" lon="-2.236259">
   <ele>1042.00</ele>
   <time>2014-04-02T11:21:23Z</time>
  </trkpt>
  <trkpt lat="32.358656" lon="-2.234855">
   <ele>1044.00</ele>
   <time>2014-04-02T11:21:35Z</time>
  </trkpt>
  <trkpt lat="32.359580" lon="-2.233387">
   <ele>1045.00</ele>
   <time>2014-04-02T11:21:50Z</time>
  </trkpt>
  <trkpt lat="32.360227" lon="-2.232360">
   <ele>1045.00</ele>
   <time>2014-04-02T11:22:05Z</time>
  </trkpt>
  <trkpt lat="32.361088" lon="-2.231007">
   <ele>1043.00</ele>
   <time>2014-04-02T11:22:21Z</time>
  </trkpt>
  <trkpt lat="32.361243" lon="-2.230762">
   <ele>1043.00</ele>
   <time>2014-04-02T11:22:24Z</time>
  </trkpt>
  <trkpt lat="32.361405" lon="-2.230508">
   <ele>1043.00</ele>
   <time>2014-04-02T11:22:27Z</time>
  </trkpt>
  <trkpt lat="32.362273" lon="-2.229128">
   <ele>1042.00</ele>
   <time>2014-04-02T11:22:42Z</time>
  </trkpt>
  <trkpt lat="32.363160" lon="-2.227713">
   <ele>1044.00</ele>
   <time>2014-04-02T11:22:58Z</time>
  </trkpt>
  <trkpt lat="32.364008" lon="-2.226359">
   <ele>1046.00</ele>
   <time>2014-04-02T11:23:13Z</time>
  </trkpt>
  <trkpt lat="32.364887" lon="-2.224961">
   <ele>1049.00</ele>
   <time>2014-04-02T11:23:28Z</time>
  </trkpt>
  <trkpt lat="32.365516" lon="-2.223964">
   <ele>1046.00</ele>
   <time>2014-04-02T11:23:43Z</time>
  </trkpt>
  <trkpt lat="32.365673" lon="-2.223713">
   <ele>1047.00</ele>
   <time>2014-04-02T11:23:47Z</time>
  </trkpt>
  <trkpt lat="32.366056" lon="-2.223113">
   <ele>1048.00</ele>
   <time>2014-04-02T11:23:56Z</time>
  </trkpt>
  <trkpt lat="32.366326" lon="-2.222698">
   <ele>1048.00</ele>
   <time>2014-04-02T11:24:02Z</time>
  </trkpt>
  <trkpt lat="32.367089" lon="-2.221587">
   <ele>1046.00</ele>
   <time>2014-04-02T11:24:17Z</time>
  </trkpt>
  <trkpt lat="32.367923" lon="-2.220375">
   <ele>1046.00</ele>
   <time>2014-04-02T11:24:33Z</time>
  </trkpt>
  <trkpt lat="32.368708" lon="-2.219221">
   <ele>1048.00</ele>
   <time>2014-04-02T11:24:48Z</time>
  </trkpt>
  <trkpt lat="32.369526" lon="-2.218025">
   <ele>1050.00</ele>
   <time>2014-04-02T11:25:03Z</time>
  </trkpt>
  <trkpt lat="32.370339" lon="-2.216838">
   <ele>1052.00</ele>
   <time>2014-04-02T11:25:19Z</time>
  </trkpt>
  <trkpt lat="32.371120" lon="-2.215706">
   <ele>1050.00</ele>
   <time>2014-04-02T11:25:34Z</time>
  </trkpt>
  <trkpt lat="32.371920" lon="-2.214561">
   <ele>1046.00</ele>
   <time>2014-04-02T11:25:49Z</time>
  </trkpt>
  <trkpt lat="32.372764" lon="-2.213335">
   <ele>1046.00</ele>
   <time>2014-04-02T11:26:05Z</time>
  </trkpt>
  <trkpt lat="32.373599" lon="-2.212122">
   <ele>1046.00</ele>
   <time>2014-04-02T11:26:20Z</time>
  </trkpt>
  <trkpt lat="32.374466" lon="-2.210857">
   <ele>1048.00</ele>
   <time>2014-04-02T11:26:35Z</time>
  </trkpt>
  <trkpt lat="32.375492" lon="-2.209371">
   <ele>1048.00</ele>
   <time>2014-04-02T11:26:51Z</time>
  </trkpt>
  <trkpt lat="32.376473" lon="-2.207933">
   <ele>1051.00</ele>
   <time>2014-04-02T11:27:06Z</time>
  </trkpt>
  <trkpt lat="32.377424" lon="-2.206540">
   <ele>1053.00</ele>
   <time>2014-04-02T11:27:21Z</time>
  </trkpt>
  <trkpt lat="32.378459" lon="-2.205027">
   <ele>1056.00</ele>
   <time>2014-04-02T11:27:37Z</time>
  </trkpt>
  <trkpt lat="32.378812" lon="-2.204546">
   <ele>1056.00</ele>
   <time>2014-04-02T11:27:42Z</time>
  </trkpt>
  <trkpt lat="32.378967" lon="-2.204353">
   <ele>1056.00</ele>
   <time>2014-04-02T11:27:44Z</time>
  </trkpt>
  <trkpt lat="32.379129" lon="-2.204165">
   <ele>1056.00</ele>
   <time>2014-04-02T11:27:46Z</time>
  </trkpt>
  <trkpt lat="32.379376" lon="-2.203903">
   <ele>1057.00</ele>
   <time>2014-04-02T11:27:49Z</time>
  </trkpt>
  <trkpt lat="32.379800" lon="-2.203491">
   <ele>1054.00</ele>
   <time>2014-04-02T11:27:54Z</time>
  </trkpt>
  <trkpt lat="32.381110" lon="-2.202268">
   <ele>1050.00</ele>
   <time>2014-04-02T11:28:09Z</time>
  </trkpt>
  <trkpt lat="32.382409" lon="-2.201046">
   <ele>1049.00</ele>
   <time>2014-04-02T11:28:24Z</time>
  </trkpt>
  <trkpt lat="32.382827" lon="-2.200643">
   <ele>1050.00</ele>
   <time>2014-04-02T11:28:29Z</time>
  </trkpt>
  <trkpt lat="32.383059" lon="-2.200388">
   <ele>1050.00</ele>
   <time>2014-04-02T11:28:32Z</time>
  </trkpt>
  <trkpt lat="32.383431" lon="-2.199936">
   <ele>1051.00</ele>
   <time>2014-04-02T11:28:37Z</time>
  </trkpt>
  <trkpt lat="32.383573" lon="-2.199745">
   <ele>1052.00</ele>
   <time>2014-04-02T11:28:39Z</time>
  </trkpt>
  <trkpt lat="32.383707" lon="-2.199544">
   <ele>1052.00</ele>
   <time>2014-04-02T11:28:41Z</time>
  </trkpt>
  <trkpt lat="32.384021" lon="-2.199025">
   <ele>1053.00</ele>
   <time>2014-04-02T11:28:46Z</time>
  </trkpt>
  <trkpt lat="32.385026" lon="-2.197244">
   <ele>1056.00</ele>
   <time>2014-04-02T11:29:02Z</time>
  </trkpt>
  <trkpt lat="32.385895" lon="-2.195709">
   <ele>1059.00</ele>
   <time>2014-04-02T11:29:17Z</time>
  </trkpt>
  <trkpt lat="32.386830" lon="-2.194074">
   <ele>1060.00</ele>
   <time>2014-04-02T11:29:33Z</time>
  </trkpt>
  <trkpt lat="32.387702" lon="-2.192550">
   <ele>1062.00</ele>
   <time>2014-04-02T11:29:48Z</time>
  </trkpt>
  <trkpt lat="32.388591" lon="-2.190982">
   <ele>1063.00</ele>
   <time>2014-04-02T11:30:03Z</time>
  </trkpt>
  <trkpt lat="32.389626" lon="-2.189169">
   <ele>1064.00</ele>
   <time>2014-04-02T11:30:19Z</time>
  </trkpt>
  <trkpt lat="32.390601" lon="-2.187464">
   <ele>1064.00</ele>
   <time>2014-04-02T11:30:34Z</time>
  </trkpt>
  <trkpt lat="32.391634" lon="-2.185663">
   <ele>1064.00</ele>
   <time>2014-04-02T11:30:50Z</time>
  </trkpt>
  <trkpt lat="32.392380" lon="-2.184379">
   <ele>1065.00</ele>
   <time>2014-04-02T11:31:02Z</time>
  </trkpt>
  <trkpt lat="32.393456" lon="-2.182753">
   <ele>1065.00</ele>
   <time>2014-04-02T11:31:17Z</time>
  </trkpt>
  <trkpt lat="32.394672" lon="-2.180931">
   <ele>1066.00</ele>
   <time>2014-04-02T11:31:33Z</time>
  </trkpt>
  <trkpt lat="32.395807" lon="-2.179223">
   <ele>1067.00</ele>
   <time>2014-04-02T11:31:48Z</time>
  </trkpt>
  <trkpt lat="32.397069" lon="-2.177317">
   <ele>1068.00</ele>
   <time>2014-04-02T11:32:04Z</time>
  </trkpt>
  <trkpt lat="32.398261" lon="-2.175528">
   <ele>1069.00</ele>
   <time>2014-04-02T11:32:19Z</time>
  </trkpt>
  <trkpt lat="32.398889" lon="-2.174599">
   <ele>1069.00</ele>
   <time>2014-04-02T11:32:27Z</time>
  </trkpt>
  <trkpt lat="32.399055" lon="-2.174374">
   <ele>1069.00</ele>
   <time>2014-04-02T11:32:29Z</time>
  </trkpt>
  <trkpt lat="32.399409" lon="-2.173934">
   <ele>1069.00</ele>
   <time>2014-04-02T11:32:33Z</time>
  </trkpt>
  <trkpt lat="32.400935" lon="-2.172178">
   <ele>1069.00</ele>
   <time>2014-04-02T11:32:49Z</time>
  </trkpt>
  <trkpt lat="32.402343" lon="-2.170561">
   <ele>1068.00</ele>
   <time>2014-04-02T11:33:04Z</time>
  </trkpt>
  <trkpt lat="32.403876" lon="-2.168796">
   <ele>1070.00</ele>
   <time>2014-04-02T11:33:20Z</time>
  </trkpt>
  <trkpt lat="32.405479" lon="-2.166956">
   <ele>1070.00</ele>
   <time>2014-04-02T11:33:35Z</time>
  </trkpt>
  <trkpt lat="32.407063" lon="-2.165129">
   <ele>1071.00</ele>
   <time>2014-04-02T11:33:50Z</time>
  </trkpt>
  <trkpt lat="32.408200" lon="-2.163816">
   <ele>1071.00</ele>
   <time>2014-04-02T11:34:03Z</time>
  </trkpt>
  <trkpt lat="32.408357" lon="-2.163602">
   <ele>1071.00</ele>
   <time>2014-04-02T11:34:05Z</time>
  </trkpt>
  <trkpt lat="32.408507" lon="-2.163374">
   <ele>1071.00</ele>
   <time>2014-04-02T11:34:07Z</time>
  </trkpt>
  <trkpt lat="32.409644" lon="-2.161545">
   <ele>1071.00</ele>
   <time>2014-04-02T11:34:22Z</time>
  </trkpt>
  <trkpt lat="32.410775" lon="-2.159741">
   <ele>1072.00</ele>
   <time>2014-04-02T11:34:38Z</time>
  </trkpt>
  <trkpt lat="32.411793" lon="-2.158117">
   <ele>1072.00</ele>
   <time>2014-04-02T11:34:53Z</time>
  </trkpt>
  <trkpt lat="32.412757" lon="-2.156584">
   <ele>1073.00</ele>
   <time>2014-04-02T11:35:08Z</time>
  </trkpt>
  <trkpt lat="32.413772" lon="-2.154962">
   <ele>1073.00</ele>
   <time>2014-04-02T11:35:24Z</time>
  </trkpt>
  <trkpt lat="32.414805" lon="-2.153316">
   <ele>1074.00</ele>
   <time>2014-04-02T11:35:39Z</time>
  </trkpt>
  <trkpt lat="32.415953" lon="-2.151498">
   <ele>1075.00</ele>
   <time>2014-04-02T11:35:54Z</time>
  </trkpt>
  <trkpt lat="32.417188" lon="-2.149521">
   <ele>1076.00</ele>
   <time>2014-04-02T11:36:10Z</time>
  </trkpt>
  <trkpt lat="32.418384" lon="-2.147616">
   <ele>1077.00</ele>
   <time>2014-04-02T11:36:25Z</time>
  </trkpt>
  <trkpt lat="32.418848" lon="-2.146853">
   <ele>1078.00</ele>
   <time>2014-04-02T11:36:31Z</time>
  </trkpt>
  <trkpt lat="32.419661" lon="-2.145352">
   <ele>1078.00</ele>
   <time>2014-04-02T11:36:42Z</time>
  </trkpt>
  <trkpt lat="32.420799" lon="-2.143217">
   <ele>1079.00</ele>
   <time>2014-04-02T11:36:57Z</time>
  </trkpt>
  <trkpt lat="32.421947" lon="-2.141067">
   <ele>1077.00</ele>
   <time>2014-04-02T11:37:12Z</time>
  </trkpt>
  <trkpt lat="32.423336" lon="-2.138462">
   <ele>1076.00</ele>
   <time>2014-04-02T11:37:28Z</time>
  </trkpt>
  <trkpt lat="32.424613" lon="-2.136069">
   <ele>1078.00</ele>
   <time>2014-04-02T11:37:42Z</time>
  </trkpt>
  <trkpt lat="32.424816" lon="-2.135739">
   <ele>1078.00</ele>
   <time>2014-04-02T11:37:44Z</time>
  </trkpt>
  <trkpt lat="32.425144" lon="-2.135259">
   <ele>1078.00</ele>
   <time>2014-04-02T11:37:47Z</time>
  </trkpt>
  <trkpt lat="32.425377" lon="-2.134949">
   <ele>1079.00</ele>
   <time>2014-04-02T11:37:49Z</time>
  </trkpt>
  <trkpt lat="32.425966" lon="-2.134227">
   <ele>1079.00</ele>
   <time>2014-04-02T11:37:54Z</time>
  </trkpt>
  <trkpt lat="32.427777" lon="-2.132088">
   <ele>1080.00</ele>
   <time>2014-04-02T11:38:09Z</time>
  </trkpt>
  <trkpt lat="32.429744" lon="-2.129749">
   <ele>1081.00</ele>
   <time>2014-04-02T11:38:25Z</time>
  </trkpt>
  <trkpt lat="32.430738" lon="-2.128539">
   <ele>1082.00</ele>
   <time>2014-04-02T11:38:33Z</time>
  </trkpt>
  <trkpt lat="32.431213" lon="-2.127909">
   <ele>1082.00</ele>
   <time>2014-04-02T11:38:37Z</time>
  </trkpt>
  <trkpt lat="32.433155" lon="-2.125073">
   <ele>1083.00</ele>
   <time>2014-04-02T11:38:53Z</time>
  </trkpt>
  <trkpt lat="32.435048" lon="-2.122304">
   <ele>1083.00</ele>
   <time>2014-04-02T11:39:08Z</time>
  </trkpt>
  <trkpt lat="32.436922" lon="-2.119568">
   <ele>1084.00</ele>
   <time>2014-04-02T11:39:23Z</time>
  </trkpt>
  <trkpt lat="32.439006" lon="-2.116540">
   <ele>1085.00</ele>
   <time>2014-04-02T11:39:39Z</time>
  </trkpt>
  <trkpt lat="32.440977" lon="-2.113674">
   <ele>1087.00</ele>
   <time>2014-04-02T11:39:54Z</time>
  </trkpt>
  <trkpt lat="32.442091" lon="-2.112013">
   <ele>1087.00</ele>
   <time>2014-04-02T11:40:03Z</time>
  </trkpt>
  <trkpt lat="32.443990" lon="-2.108900">
   <ele>1089.00</ele>
   <time>2014-04-02T11:40:19Z</time>
  </trkpt>
  <trkpt lat="32.445779" lon="-2.105957">
   <ele>1090.00</ele>
   <time>2014-04-02T11:40:34Z</time>
  </trkpt>
  <trkpt lat="32.447561" lon="-2.103031">
   <ele>1091.00</ele>
   <time>2014-04-02T11:40:49Z</time>
  </trkpt>
  <trkpt lat="32.449482" lon="-2.099866">
   <ele>1092.00</ele>
   <time>2014-04-02T11:41:05Z</time>
  </trkpt>
  <trkpt lat="32.451290" lon="-2.096890">
   <ele>1092.00</ele>
   <time>2014-04-02T11:41:20Z</time>
  </trkpt>
  <trkpt lat="32.453123" lon="-2.093897">
   <ele>1093.00</ele>
   <time>2014-04-02T11:41:35Z</time>
  </trkpt>
  <trkpt lat="32.453377" lon="-2.093523">
   <ele>1093.00</ele>
   <time>2014-04-02T11:41:37Z</time>
  </trkpt>
  <trkpt lat="32.453782" lon="-2.092979">
   <ele>1093.00</ele>
   <time>2014-04-02T11:41:40Z</time>
  </trkpt>
  <trkpt lat="32.454071" lon="-2.092632">
   <ele>1093.00</ele>
   <time>2014-04-02T11:41:42Z</time>
  </trkpt>
  <trkpt lat="32.454377" lon="-2.092302">
   <ele>1093.00</ele>
   <time>2014-04-02T11:41:44Z</time>
  </trkpt>
  <trkpt lat="32.456746" lon="-2.089945">
   <ele>1094.00</ele>
   <time>2014-04-02T11:41:59Z</time>
  </trkpt>
  <trkpt lat="32.459261" lon="-2.087444">
   <ele>1095.00</ele>
   <time>2014-04-02T11:42:15Z</time>
  </trkpt>
  <trkpt lat="32.461577" lon="-2.085132">
   <ele>1095.00</ele>
   <time>2014-04-02T11:42:30Z</time>
  </trkpt>
  <trkpt lat="32.463943" lon="-2.082769">
   <ele>1093.00</ele>
   <time>2014-04-02T11:42:45Z</time>
  </trkpt>
  <trkpt lat="32.466518" lon="-2.080200">
   <ele>1092.00</ele>
   <time>2014-04-02T11:43:01Z</time>
  </trkpt>
  <trkpt lat="32.469037" lon="-2.077694">
   <ele>1092.00</ele>
   <time>2014-04-02T11:43:16Z</time>
  </trkpt>
  <trkpt lat="32.469689" lon="-2.077014">
   <ele>1093.00</ele>
   <time>2014-04-02T11:43:20Z</time>
  </trkpt>
  <trkpt lat="32.469842" lon="-2.076830">
   <ele>1093.00</ele>
   <time>2014-04-02T11:43:21Z</time>
  </trkpt>
  <trkpt lat="32.469987" lon="-2.076636">
   <ele>1093.00</ele>
   <time>2014-04-02T11:43:22Z</time>
  </trkpt>
  <trkpt lat="32.470125" lon="-2.076432">
   <ele>1093.00</ele>
   <time>2014-04-02T11:43:23Z</time>
  </trkpt>
  <trkpt lat="32.470253" lon="-2.076218">
   <ele>1094.00</ele>
   <time>2014-04-02T11:43:24Z</time>
  </trkpt>
  <trkpt lat="32.470370" lon="-2.075995">
   <ele>1094.00</ele>
   <time>2014-04-02T11:43:25Z</time>
  </trkpt>
  <trkpt lat="32.470477" lon="-2.075765">
   <ele>1094.00</ele>
   <time>2014-04-02T11:43:26Z</time>
  </trkpt>
  <trkpt lat="32.471876" lon="-2.072364">
   <ele>1096.00</ele>
   <time>2014-04-02T11:43:41Z</time>
  </trkpt>
  <trkpt lat="32.473084" lon="-2.069501">
   <ele>1098.00</ele>
   <time>2014-04-02T11:43:54Z</time>
  </trkpt>
  <trkpt lat="32.473714" lon="-2.068204">
   <ele>1098.00</ele>
   <time>2014-04-02T11:44:00Z</time>
  </trkpt>
  <trkpt lat="32.475401" lon="-2.064855">
   <ele>1101.00</ele>
   <time>2014-04-02T11:44:15Z</time>
  </trkpt>
  <trkpt lat="32.477181" lon="-2.061320">
   <ele>1103.00</ele>
   <time>2014-04-02T11:44:31Z</time>
  </trkpt>
  <trkpt lat="32.477473" lon="-2.060783">
   <ele>1104.00</ele>
   <time>2014-04-02T11:44:35Z</time>
  </trkpt>
  <trkpt lat="32.477603" lon="-2.060578">
   <ele>1104.00</ele>
   <time>2014-04-02T11:44:37Z</time>
  </trkpt>
  <trkpt lat="32.477730" lon="-2.060406">
   <ele>1104.00</ele>
   <time>2014-04-02T11:44:39Z</time>
  </trkpt>
  <trkpt lat="32.477864" lon="-2.060245">
   <ele>1105.00</ele>
   <time>2014-04-02T11:44:41Z</time>
  </trkpt>
  <trkpt lat="32.478073" lon="-2.060014">
   <ele>1105.00</ele>
   <time>2014-04-02T11:44:44Z</time>
  </trkpt>
  <trkpt lat="32.478230" lon="-2.059852">
   <ele>1105.00</ele>
   <time>2014-04-02T11:44:46Z</time>
  </trkpt>
  <trkpt lat="32.478492" lon="-2.059602">
   <ele>1106.00</ele>
   <time>2014-04-02T11:44:49Z</time>
  </trkpt>
  <trkpt lat="32.480338" lon="-2.057986">
   <ele>1103.00</ele>
   <time>2014-04-02T11:45:05Z</time>
  </trkpt>
  <trkpt lat="32.482531" lon="-2.056050">
   <ele>1104.00</ele>
   <time>2014-04-02T11:45:20Z</time>
  </trkpt>
  <trkpt lat="32.485082" lon="-2.053791">
   <ele>1103.00</ele>
   <time>2014-04-02T11:45:36Z</time>
  </trkpt>
  <trkpt lat="32.487157" lon="-2.051971">
   <ele>1103.00</ele>
   <time>2014-04-02T11:45:49Z</time>
  </trkpt>
  <trkpt lat="32.487487" lon="-2.051720">
   <ele>1102.00</ele>
   <time>2014-04-02T11:45:51Z</time>
  </trkpt>
  <trkpt lat="32.487835" lon="-2.051486">
   <ele>1102.00</ele>
   <time>2014-04-02T11:45:53Z</time>
  </trkpt>
  <trkpt lat="32.488374" lon="-2.051153">
   <ele>1102.00</ele>
   <time>2014-04-02T11:45:56Z</time>
  </trkpt>
  <trkpt lat="32.491238" lon="-2.049494">
   <ele>1100.00</ele>
   <time>2014-04-02T11:46:12Z</time>
  </trkpt>
  <trkpt lat="32.493948" lon="-2.047937">
   <ele>1100.00</ele>
   <time>2014-04-02T11:46:27Z</time>
  </trkpt>
  <trkpt lat="32.496994" lon="-2.046170">
   <ele>1100.00</ele>
   <time>2014-04-02T11:46:43Z</time>
  </trkpt>
  <trkpt lat="32.497531" lon="-2.045808">
   <ele>1100.00</ele>
   <time>2014-04-02T11:46:46Z</time>
  </trkpt>
  <trkpt lat="32.497702" lon="-2.045676">
   <ele>1100.00</ele>
   <time>2014-04-02T11:46:47Z</time>
  </trkpt>
  <trkpt lat="32.497865" lon="-2.045538">
   <ele>1100.00</ele>
   <time>2014-04-02T11:46:48Z</time>
  </trkpt>
  <trkpt lat="32.498021" lon="-2.045391">
   <ele>1100.00</ele>
   <time>2014-04-02T11:46:49Z</time>
  </trkpt>
  <trkpt lat="32.498165" lon="-2.045231">
   <ele>1100.00</ele>
   <time>2014-04-02T11:46:50Z</time>
  </trkpt>
  <trkpt lat="32.498300" lon="-2.045060">
   <ele>1099.00</ele>
   <time>2014-04-02T11:46:51Z</time>
  </trkpt>
  <trkpt lat="32.498557" lon="-2.044702">
   <ele>1099.00</ele>
   <time>2014-04-02T11:46:53Z</time>
  </trkpt>
  <trkpt lat="32.500550" lon="-2.041987">
   <ele>1099.00</ele>
   <time>2014-04-02T11:47:08Z</time>
  </trkpt>
  <trkpt lat="32.502620" lon="-2.039201">
   <ele>1101.00</ele>
   <time>2014-04-02T11:47:23Z</time>
  </trkpt>
  <trkpt lat="32.504635" lon="-2.036478">
   <ele>1103.00</ele>
   <time>2014-04-02T11:47:38Z</time>
  </trkpt>
  <trkpt lat="32.505054" lon="-2.035932">
   <ele>1104.00</ele>
   <time>2014-04-02T11:47:41Z</time>
  </trkpt>
  <trkpt lat="32.505204" lon="-2.035758">
   <ele>1104.00</ele>
   <time>2014-04-02T11:47:42Z</time>
  </trkpt>
  <trkpt lat="32.505361" lon="-2.035591">
   <ele>1105.00</ele>
   <time>2014-04-02T11:47:43Z</time>
  </trkpt>
  <trkpt lat="32.505524" lon="-2.035433">
   <ele>1105.00</ele>
   <time>2014-04-02T11:47:44Z</time>
  </trkpt>
  <trkpt lat="32.505695" lon="-2.035286">
   <ele>1105.00</ele>
   <time>2014-04-02T11:47:45Z</time>
  </trkpt>
  <trkpt lat="32.505872" lon="-2.035150">
   <ele>1106.00</ele>
   <time>2014-04-02T11:47:46Z</time>
  </trkpt>
  <trkpt lat="32.506239" lon="-2.034900">
   <ele>1106.00</ele>
   <time>2014-04-02T11:47:48Z</time>
  </trkpt>
  <trkpt lat="32.507343" lon="-2.034166">
   <ele>1108.00</ele>
   <time>2014-04-02T11:47:54Z</time>
  </trkpt>
  <trkpt lat="32.507515" lon="-2.034025">
   <ele>1108.00</ele>
   <time>2014-04-02T11:47:55Z</time>
  </trkpt>
  <trkpt lat="32.507677" lon="-2.033867">
   <ele>1108.00</ele>
   <time>2014-04-02T11:47:56Z</time>
  </trkpt>
  <trkpt lat="32.507827" lon="-2.033695">
   <ele>1109.00</ele>
   <time>2014-04-02T11:47:57Z</time>
  </trkpt>
  <trkpt lat="32.507964" lon="-2.033508">
   <ele>1109.00</ele>
   <time>2014-04-02T11:47:58Z</time>
  </trkpt>
  <trkpt lat="32.508089" lon="-2.033310">
   <ele>1109.00</ele>
   <time>2014-04-02T11:47:59Z</time>
  </trkpt>
  <trkpt lat="32.508201" lon="-2.033101">
   <ele>1109.00</ele>
   <time>2014-04-02T11:48:00Z</time>
  </trkpt>
  <trkpt lat="32.508303" lon="-2.032885">
   <ele>1109.00</ele>
   <time>2014-04-02T11:48:01Z</time>
  </trkpt>
  <trkpt lat="32.509751" lon="-2.029515">
   <ele>1111.00</ele>
   <time>2014-04-02T11:48:16Z</time>
  </trkpt>
  <trkpt lat="32.511313" lon="-2.025909">
   <ele>1114.00</ele>
   <time>2014-04-02T11:48:32Z</time>
  </trkpt>
  <trkpt lat="32.512832" lon="-2.022431">
   <ele>1118.00</ele>
   <time>2014-04-02T11:48:47Z</time>
  </trkpt>
  <trkpt lat="32.514404" lon="-2.018828">
   <ele>1119.00</ele>
   <time>2014-04-02T11:49:02Z</time>
  </trkpt>
  <trkpt lat="32.516117" lon="-2.014928">
   <ele>1120.00</ele>
   <time>2014-04-02T11:49:18Z</time>
  </trkpt>
  <trkpt lat="32.517706" lon="-2.011291">
   <ele>1122.00</ele>
   <time>2014-04-02T11:49:33Z</time>
  </trkpt>
  <trkpt lat="32.518925" lon="-2.008497">
   <ele>1124.00</ele>
   <time>2014-04-02T11:49:45Z</time>
  </trkpt>
  <trkpt lat="32.519153" lon="-2.008069">
   <ele>1125.00</ele>
   <time>2014-04-02T11:49:47Z</time>
  </trkpt>
  <trkpt lat="32.519279" lon="-2.007866">
   <ele>1125.00</ele>
   <time>2014-04-02T11:49:48Z</time>
  </trkpt>
  <trkpt lat="32.519413" lon="-2.007671">
   <ele>1125.00</ele>
   <time>2014-04-02T11:49:49Z</time>
  </trkpt>
  <trkpt lat="32.519696" lon="-2.007294">
   <ele>1126.00</ele>
   <time>2014-04-02T11:49:51Z</time>
  </trkpt>
  <trkpt lat="32.521902" lon="-2.004388">
   <ele>1129.00</ele>
   <time>2014-04-02T11:50:06Z</time>
  </trkpt>
  <trkpt lat="32.522661" lon="-2.003420">
   <ele>1129.00</ele>
   <time>2014-04-02T11:50:11Z</time>
  </trkpt>
  <trkpt lat="32.524964" lon="-2.000720">
   <ele>1131.00</ele>
   <time>2014-04-02T11:50:26Z</time>
  </trkpt>
  <trkpt lat="32.526438" lon="-1.999000">
   <ele>1132.00</ele>
   <time>2014-04-02T11:50:36Z</time>
  </trkpt>
  <trkpt lat="32.526564" lon="-1.998815">
   <ele>1132.00</ele>
   <time>2014-04-02T11:50:37Z</time>
  </trkpt>
  <trkpt lat="32.526678" lon="-1.998617">
   <ele>1131.00</ele>
   <time>2014-04-02T11:50:38Z</time>
  </trkpt>
  <trkpt lat="32.526777" lon="-1.998408">
   <ele>1131.00</ele>
   <time>2014-04-02T11:50:39Z</time>
  </trkpt>
  <trkpt lat="32.526864" lon="-1.998189">
   <ele>1131.00</ele>
   <time>2014-04-02T11:50:40Z</time>
  </trkpt>
  <trkpt lat="32.526938" lon="-1.997961">
   <ele>1131.00</ele>
   <time>2014-04-02T11:50:41Z</time>
  </trkpt>
  <trkpt lat="32.526998" lon="-1.997725">
   <ele>1131.00</ele>
   <time>2014-04-02T11:50:42Z</time>
  </trkpt>
  <trkpt lat="32.527043" lon="-1.997482">
   <ele>1131.00</ele>
   <time>2014-04-02T11:50:43Z</time>
  </trkpt>
  <trkpt lat="32.527076" lon="-1.997233">
   <ele>1131.00</ele>
   <time>2014-04-02T11:50:44Z</time>
  </trkpt>
  <trkpt lat="32.527464" lon="-1.993435">
   <ele>1130.00</ele>
   <time>2014-04-02T11:50:59Z</time>
  </trkpt>
  <trkpt lat="32.527879" lon="-1.989474">
   <ele>1134.00</ele>
   <time>2014-04-02T11:51:15Z</time>
  </trkpt>
  <trkpt lat="32.528051" lon="-1.987786">
   <ele>1135.00</ele>
   <time>2014-04-02T11:51:22Z</time>
  </trkpt>
  <trkpt lat="32.528062" lon="-1.987544">
   <ele>1135.00</ele>
   <time>2014-04-02T11:51:23Z</time>
  </trkpt>
  <trkpt lat="32.528062" lon="-1.987304">
   <ele>1135.00</ele>
   <time>2014-04-02T11:51:24Z</time>
  </trkpt>
  <trkpt lat="32.528051" lon="-1.987068">
   <ele>1135.00</ele>
   <time>2014-04-02T11:51:25Z</time>
  </trkpt>
  <trkpt lat="32.528030" lon="-1.986834">
   <ele>1135.00</ele>
   <time>2014-04-02T11:51:26Z</time>
  </trkpt>
  <trkpt lat="32.527998" lon="-1.986603">
   <ele>1135.00</ele>
   <time>2014-04-02T11:51:27Z</time>
  </trkpt>
  <trkpt lat="32.527919" lon="-1.986147">
   <ele>1135.00</ele>
   <time>2014-04-02T11:51:29Z</time>
  </trkpt>
  <trkpt lat="32.527294" lon="-1.982787">
   <ele>1140.00</ele>
   <time>2014-04-02T11:51:44Z</time>
  </trkpt>
  <trkpt lat="32.526719" lon="-1.979767">
   <ele>1144.00</ele>
   <time>2014-04-02T11:52:00Z</time>
  </trkpt>
  <trkpt lat="32.526644" lon="-1.979499">
   <ele>1144.00</ele>
   <time>2014-04-02T11:52:02Z</time>
  </trkpt>
  <trkpt lat="32.526529" lon="-1.979160">
   <ele>1144.00</ele>
   <time>2014-04-02T11:52:05Z</time>
  </trkpt>
  <trkpt lat="32.526426" lon="-1.978899">
   <ele>1144.00</ele>
   <time>2014-04-02T11:52:08Z</time>
  </trkpt>
  <trkpt lat="32.526350" lon="-1.978668">
   <ele>1145.00</ele>
   <time>2014-04-02T11:52:11Z</time>
  </trkpt>
  <trkpt lat="32.526385" lon="-1.978437">
   <ele>1145.00</ele>
   <time>2014-04-02T11:52:14Z</time>
  </trkpt>
  <trkpt lat="32.526544" lon="-1.978260">
   <ele>1145.00</ele>
   <time>2014-04-02T11:52:17Z</time>
  </trkpt>
  <trkpt lat="32.526715" lon="-1.978056">
   <ele>1146.00</ele>
   <time>2014-04-02T11:52:20Z</time>
  </trkpt>
  <trkpt lat="32.526853" lon="-1.977796">
   <ele>1147.00</ele>
   <time>2014-04-02T11:52:23Z</time>
  </trkpt>
  <trkpt lat="32.527024" lon="-1.977398">
   <ele>1147.00</ele>
   <time>2014-04-02T11:52:27Z</time>
  </trkpt>
  <trkpt lat="32.527739" lon="-1.975620">
   <ele>1151.00</ele>
   <time>2014-04-02T11:52:42Z</time>
  </trkpt>
  <trkpt lat="32.528139" lon="-1.974621">
   <ele>1153.00</ele>
   <time>2014-04-02T11:52:50Z</time>
  </trkpt>
  <trkpt lat="32.528200" lon="-1.974415">
   <ele>1153.00</ele>
   <time>2014-04-02T11:52:52Z</time>
  </trkpt>
  <trkpt lat="32.528278" lon="-1.974222">
   <ele>1154.00</ele>
   <time>2014-04-02T11:52:54Z</time>
  </trkpt>
  <trkpt lat="32.528488" lon="-1.973816">
   <ele>1155.00</ele>
   <time>2014-04-02T11:52:58Z</time>
  </trkpt>
  <trkpt lat="32.528571" lon="-1.973584">
   <ele>1155.00</ele>
   <time>2014-04-02T11:53:00Z</time>
  </trkpt>
  <trkpt lat="32.528638" lon="-1.973338">
   <ele>1156.00</ele>
   <time>2014-04-02T11:53:02Z</time>
  </trkpt>
  <trkpt lat="32.529169" lon="-1.971287">
   <ele>1158.00</ele>
   <time>2014-04-02T11:53:17Z</time>
  </trkpt>
  <trkpt lat="32.529771" lon="-1.969072">
   <ele>1163.00</ele>
   <time>2014-04-02T11:53:32Z</time>
  </trkpt>
  <trkpt lat="32.530424" lon="-1.966707">
   <ele>1168.00</ele>
   <time>2014-04-02T11:53:48Z</time>
  </trkpt>
  <trkpt lat="32.531025" lon="-1.964456">
   <ele>1172.00</ele>
   <time>2014-04-02T11:54:03Z</time>
  </trkpt>
  <trkpt lat="32.531451" lon="-1.962955">
   <ele>1175.00</ele>
   <time>2014-04-02T11:54:18Z</time>
  </trkpt>
  <trkpt lat="32.531334" lon="-1.962832">
   <ele>1176.00</ele>
   <time>2014-04-02T11:54:29Z</time>
  </trkpt>
  <trkpt lat="32.531128" lon="-1.962930">
   <ele>1175.00</ele>
   <time>2014-04-02T11:54:34Z</time>
  </trkpt>
  <trkpt lat="32.530967" lon="-1.963030">
   <ele>1174.00</ele>
   <time>2014-04-02T11:54:38Z</time>
  </trkpt>
  <trkpt lat="32.531038" lon="-1.963217">
   <ele>1175.00</ele>
   <time>2014-04-02T11:54:43Z</time>
  </trkpt>
  <trkpt lat="32.531223" lon="-1.963231">
   <ele>1175.00</ele>
   <time>2014-04-02T11:54:48Z</time>
  </trkpt>
  <trkpt lat="32.531255" lon="-1.963229">
   <ele>1176.00</ele>
   <time>2014-04-02T11:54:56Z</time>
  </trkpt>
 </trkseg>
 <trkseg>
  <trkpt lat="32.531281" lon="-1.963235">
   <ele>1181.00</ele>
   <time>2014-04-02T12:26:42Z</time>
  </trkpt>
  <trkpt lat="32.531207" lon="-1.963197">
   <ele>1180.00</ele>
   <time>2014-04-02T12:26:57Z</time>
  </trkpt>
  <trkpt lat="32.531063" lon="-1.963245">
   <ele>1183.00</ele>
   <time>2014-04-02T12:27:08Z</time>
  </trkpt>
  <trkpt lat="32.530999" lon="-1.963070">
   <ele>1184.00</ele>
   <time>2014-04-02T12:27:15Z</time>
  </trkpt>
  <trkpt lat="32.531177" lon="-1.962958">
   <ele>1183.00</ele>
   <time>2014-04-02T12:27:21Z</time>
  </trkpt>
  <trkpt lat="32.531363" lon="-1.962876">
   <ele>1181.00</ele>
   <time>2014-04-02T12:27:26Z</time>
  </trkpt>
  <trkpt lat="32.531520" lon="-1.962749">
   <ele>1181.00</ele>
   <time>2014-04-02T12:27:31Z</time>
  </trkpt>
  <trkpt lat="32.531584" lon="-1.962536">
   <ele>1183.00</ele>
   <time>2014-04-02T12:27:35Z</time>
  </trkpt>
  <trkpt lat="32.531616" lon="-1.962294">
   <ele>1185.00</ele>
   <time>2014-04-02T12:27:39Z</time>
  </trkpt>
  <trkpt lat="32.531673" lon="-1.961567">
   <ele>1187.00</ele>
   <time>2014-04-02T12:27:54Z</time>
  </trkpt>
  <trkpt lat="32.531682" lon="-1.961211">
   <ele>1187.00</ele>
   <time>2014-04-02T12:27:59Z</time>
  </trkpt>
  <trkpt lat="32.531674" lon="-1.960977">
   <ele>1187.00</ele>
   <time>2014-04-02T12:28:02Z</time>
  </trkpt>
  <trkpt lat="32.531567" lon="-1.959614">
   <ele>1188.00</ele>
   <time>2014-04-02T12:28:18Z</time>
  </trkpt>
  <trkpt lat="32.531524" lon="-1.959385">
   <ele>1188.00</ele>
   <time>2014-04-02T12:28:21Z</time>
  </trkpt>
  <trkpt lat="32.531503" lon="-1.959157">
   <ele>1188.00</ele>
   <time>2014-04-02T12:28:24Z</time>
  </trkpt>
  <trkpt lat="32.531531" lon="-1.958910">
   <ele>1188.00</ele>
   <time>2014-04-02T12:28:27Z</time>
  </trkpt>
  <trkpt lat="32.531516" lon="-1.958642">
   <ele>1188.00</ele>
   <time>2014-04-02T12:28:30Z</time>
  </trkpt>
  <trkpt lat="32.531399" lon="-1.956870">
   <ele>1189.00</ele>
   <time>2014-04-02T12:28:47Z</time>
  </trkpt>
  <trkpt lat="32.531271" lon="-1.955033">
   <ele>1190.00</ele>
   <time>2014-04-02T12:29:03Z</time>
  </trkpt>
  <trkpt lat="32.531229" lon="-1.954557">
   <ele>1191.00</ele>
   <time>2014-04-02T12:29:07Z</time>
  </trkpt>
  <trkpt lat="32.531185" lon="-1.954318">
   <ele>1191.00</ele>
   <time>2014-04-02T12:29:09Z</time>
  </trkpt>
  <trkpt lat="32.531100" lon="-1.954087">
   <ele>1191.00</ele>
   <time>2014-04-02T12:29:11Z</time>
  </trkpt>
  <trkpt lat="32.530985" lon="-1.953861">
   <ele>1191.00</ele>
   <time>2014-04-02T12:29:13Z</time>
  </trkpt>
  <trkpt lat="32.530853" lon="-1.953643">
   <ele>1192.00</ele>
   <time>2014-04-02T12:29:15Z</time>
  </trkpt>
  <trkpt lat="32.530491" lon="-1.953095">
   <ele>1191.00</ele>
   <time>2014-04-02T12:29:20Z</time>
  </trkpt>
  <trkpt lat="32.529251" lon="-1.951317">
   <ele>1189.00</ele>
   <time>2014-04-02T12:29:35Z</time>
  </trkpt>
  <trkpt lat="32.527784" lon="-1.949221">
   <ele>1184.00</ele>
   <time>2014-04-02T12:29:51Z</time>
  </trkpt>
  <trkpt lat="32.526255" lon="-1.947037">
   <ele>1180.00</ele>
   <time>2014-04-02T12:30:07Z</time>
  </trkpt>
  <trkpt lat="32.524846" lon="-1.944921">
   <ele>1181.00</ele>
   <time>2014-04-02T12:30:22Z</time>
  </trkpt>
  <trkpt lat="32.523248" lon="-1.942627">
   <ele>1178.00</ele>
   <time>2014-04-02T12:30:38Z</time>
  </trkpt>
  <trkpt lat="32.521619" lon="-1.940299">
   <ele>1172.00</ele>
   <time>2014-04-02T12:30:53Z</time>
  </trkpt>
  <trkpt lat="32.520508" lon="-1.938721">
   <ele>1168.00</ele>
   <time>2014-04-02T12:31:03Z</time>
  </trkpt>
  <trkpt lat="32.520264" lon="-1.938430">
   <ele>1167.00</ele>
   <time>2014-04-02T12:31:05Z</time>
  </trkpt>
  <trkpt lat="32.519997" lon="-1.938161">
   <ele>1166.00</ele>
   <time>2014-04-02T12:31:07Z</time>
  </trkpt>
  <trkpt lat="32.519715" lon="-1.937916">
   <ele>1165.00</ele>
   <time>2014-04-02T12:31:09Z</time>
  </trkpt>
  <trkpt lat="32.519268" lon="-1.937569">
   <ele>1164.00</ele>
   <time>2014-04-02T12:31:12Z</time>
  </trkpt>
  <trkpt lat="32.518526" lon="-1.937002">
   <ele>1162.00</ele>
   <time>2014-04-02T12:31:17Z</time>
  </trkpt>
  <trkpt lat="32.518256" lon="-1.936753">
   <ele>1161.00</ele>
   <time>2014-04-02T12:31:19Z</time>
  </trkpt>
  <trkpt lat="32.518022" lon="-1.936456">
   <ele>1160.00</ele>
   <time>2014-04-02T12:31:21Z</time>
  </trkpt>
  <trkpt lat="32.517845" lon="-1.936099">
   <ele>1160.00</ele>
   <time>2014-04-02T12:31:23Z</time>
  </trkpt>
  <trkpt lat="32.517291" lon="-1.934686">
   <ele>1156.00</ele>
   <time>2014-04-02T12:31:30Z</time>
  </trkpt>
  <trkpt lat="32.515949" lon="-1.931205">
   <ele>1153.00</ele>
   <time>2014-04-02T12:31:46Z</time>
  </trkpt>
  <trkpt lat="32.514688" lon="-1.927964">
   <ele>1155.00</ele>
   <time>2014-04-02T12:32:01Z</time>
  </trkpt>
  <trkpt lat="32.514196" lon="-1.926681">
   <ele>1156.00</ele>
   <time>2014-04-02T12:32:07Z</time>
  </trkpt>
  <trkpt lat="32.514045" lon="-1.926237">
   <ele>1156.00</ele>
   <time>2014-04-02T12:32:09Z</time>
  </trkpt>
  <trkpt lat="32.512920" lon="-1.922476">
   <ele>1153.00</ele>
   <time>2014-04-02T12:32:25Z</time>
  </trkpt>
  <trkpt lat="32.511773" lon="-1.918611">
   <ele>1157.00</ele>
   <time>2014-04-02T12:32:41Z</time>
  </trkpt>
  <trkpt lat="32.510680" lon="-1.914922">
   <ele>1161.00</ele>
   <time>2014-04-02T12:32:56Z</time>
  </trkpt>
  <trkpt lat="32.509493" lon="-1.910943">
   <ele>1165.00</ele>
   <time>2014-04-02T12:33:12Z</time>
  </trkpt>
  <trkpt lat="32.508402" lon="-1.907304">
   <ele>1164.00</ele>
   <time>2014-04-02T12:33:27Z</time>
  </trkpt>
  <trkpt lat="32.507195" lon="-1.903258">
   <ele>1164.00</ele>
   <time>2014-04-02T12:33:43Z</time>
  </trkpt>
  <trkpt lat="32.505987" lon="-1.899269">
   <ele>1153.00</ele>
   <time>2014-04-02T12:33:59Z</time>
  </trkpt>
  <trkpt lat="32.504914" lon="-1.895683">
   <ele>1149.00</ele>
   <time>2014-04-02T12:34:14Z</time>
  </trkpt>
  <trkpt lat="32.503772" lon="-1.891945">
   <ele>1147.00</ele>
   <time>2014-04-02T12:34:30Z</time>
  </trkpt>
  <trkpt lat="32.502673" lon="-1.888309">
   <ele>1145.00</ele>
   <time>2014-04-02T12:34:45Z</time>
  </trkpt>
  <trkpt lat="32.501518" lon="-1.884452">
   <ele>1147.00</ele>
   <time>2014-04-02T12:35:01Z</time>
  </trkpt>
  <trkpt lat="32.500374" lon="-1.880598">
   <ele>1150.00</ele>
   <time>2014-04-02T12:35:17Z</time>
  </trkpt>
  <trkpt lat="32.499930" lon="-1.879171">
   <ele>1151.00</ele>
   <time>2014-04-02T12:35:23Z</time>
  </trkpt>
  <trkpt lat="32.499843" lon="-1.878943">
   <ele>1151.00</ele>
   <time>2014-04-02T12:35:24Z</time>
  </trkpt>
  <trkpt lat="32.499749" lon="-1.878719">
   <ele>1152.00</ele>
   <time>2014-04-02T12:35:25Z</time>
  </trkpt>
  <trkpt lat="32.499541" lon="-1.878283">
   <ele>1153.00</ele>
   <time>2014-04-02T12:35:27Z</time>
  </trkpt>
  <trkpt lat="32.497789" lon="-1.874895">
   <ele>1158.00</ele>
   <time>2014-04-02T12:35:43Z</time>
  </trkpt>
  <trkpt lat="32.496384" lon="-1.872130">
   <ele>1162.00</ele>
   <time>2014-04-02T12:35:56Z</time>
  </trkpt>
  <trkpt lat="32.496194" lon="-1.871684">
   <ele>1162.00</ele>
   <time>2014-04-02T12:35:58Z</time>
  </trkpt>
  <trkpt lat="32.496028" lon="-1.871225">
   <ele>1162.00</ele>
   <time>2014-04-02T12:36:00Z</time>
  </trkpt>
  <trkpt lat="32.495886" lon="-1.870754">
   <ele>1163.00</ele>
   <time>2014-04-02T12:36:02Z</time>
  </trkpt>
  <trkpt lat="32.495766" lon="-1.870276">
   <ele>1161.00</ele>
   <time>2014-04-02T12:36:04Z</time>
  </trkpt>
  <trkpt lat="32.495669" lon="-1.869787">
   <ele>1160.00</ele>
   <time>2014-04-02T12:36:06Z</time>
  </trkpt>
  <trkpt lat="32.495596" lon="-1.869287">
   <ele>1161.00</ele>
   <time>2014-04-02T12:36:08Z</time>
  </trkpt>
  <trkpt lat="32.495401" lon="-1.867484">
   <ele>1161.00</ele>
   <time>2014-04-02T12:36:15Z</time>
  </trkpt>
  <trkpt lat="32.494954" lon="-1.863328">
   <ele>1164.00</ele>
   <time>2014-04-02T12:36:31Z</time>
  </trkpt>
  <trkpt lat="32.494487" lon="-1.859097">
   <ele>1167.00</ele>
   <time>2014-04-02T12:36:47Z</time>
  </trkpt>
  <trkpt lat="32.494044" lon="-1.855085">
   <ele>1169.00</ele>
   <time>2014-04-02T12:37:02Z</time>
  </trkpt>
  <trkpt lat="32.493581" lon="-1.850905">
   <ele>1171.00</ele>
   <time>2014-04-02T12:37:18Z</time>
  </trkpt>
  <trkpt lat="32.493159" lon="-1.847031">
   <ele>1172.00</ele>
   <time>2014-04-02T12:37:33Z</time>
  </trkpt>
  <trkpt lat="32.492723" lon="-1.843163">
   <ele>1174.00</ele>
   <time>2014-04-02T12:37:49Z</time>
  </trkpt>
  <trkpt lat="32.492335" lon="-1.839623">
   <ele>1176.00</ele>
   <time>2014-04-02T12:38:05Z</time>
  </trkpt>
  <trkpt lat="32.491951" lon="-1.836135">
   <ele>1176.00</ele>
   <time>2014-04-02T12:38:20Z</time>
  </trkpt>
  <trkpt lat="32.491532" lon="-1.832354">
   <ele>1176.00</ele>
   <time>2014-04-02T12:38:36Z</time>
  </trkpt>
  <trkpt lat="32.491132" lon="-1.828724">
   <ele>1176.00</ele>
   <time>2014-04-02T12:38:51Z</time>
  </trkpt>
  <trkpt lat="32.490687" lon="-1.824710">
   <ele>1176.00</ele>
   <time>2014-04-02T12:39:07Z</time>
  </trkpt>
  <trkpt lat="32.490237" lon="-1.820635">
   <ele>1175.00</ele>
   <time>2014-04-02T12:39:23Z</time>
  </trkpt>
  <trkpt lat="32.489822" lon="-1.816872">
   <ele>1175.00</ele>
   <time>2014-04-02T12:39:38Z</time>
  </trkpt>
  <trkpt lat="32.489399" lon="-1.813138">
   <ele>1175.00</ele>
   <time>2014-04-02T12:39:54Z</time>
  </trkpt>
  <trkpt lat="32.489066" lon="-1.810131">
   <ele>1175.00</ele>
   <time>2014-04-02T12:40:09Z</time>
  </trkpt>
  <trkpt lat="32.488756" lon="-1.807334">
   <ele>1175.00</ele>
   <time>2014-04-02T12:40:25Z</time>
  </trkpt>
  <trkpt lat="32.488421" lon="-1.804298">
   <ele>1174.00</ele>
   <time>2014-04-02T12:40:41Z</time>
  </trkpt>
  <trkpt lat="32.488092" lon="-1.801261">
   <ele>1173.00</ele>
   <time>2014-04-02T12:40:56Z</time>
  </trkpt>
  <trkpt lat="32.487703" lon="-1.797807">
   <ele>1173.00</ele>
   <time>2014-04-02T12:41:12Z</time>
  </trkpt>
  <trkpt lat="32.487375" lon="-1.794883">
   <ele>1173.00</ele>
   <time>2014-04-02T12:41:25Z</time>
  </trkpt>
  <trkpt lat="32.487325" lon="-1.794211">
   <ele>1173.00</ele>
   <time>2014-04-02T12:41:28Z</time>
  </trkpt>
  <trkpt lat="32.487318" lon="-1.793758">
   <ele>1173.00</ele>
   <time>2014-04-02T12:41:30Z</time>
  </trkpt>
  <trkpt lat="32.487405" lon="-1.789950">
   <ele>1176.00</ele>
   <time>2014-04-02T12:41:46Z</time>
  </trkpt>
  <trkpt lat="32.487500" lon="-1.785839">
   <ele>1177.00</ele>
   <time>2014-04-02T12:42:02Z</time>
  </trkpt>
  <trkpt lat="32.487585" lon="-1.782123">
   <ele>1177.00</ele>
   <time>2014-04-02T12:42:17Z</time>
  </trkpt>
  <trkpt lat="32.487577" lon="-1.781668">
   <ele>1176.00</ele>
   <time>2014-04-02T12:42:19Z</time>
  </trkpt>
  <trkpt lat="32.487563" lon="-1.781441">
   <ele>1176.00</ele>
   <time>2014-04-02T12:42:20Z</time>
  </trkpt>
  <trkpt lat="32.487543" lon="-1.781219">
   <ele>1175.00</ele>
   <time>2014-04-02T12:42:21Z</time>
  </trkpt>
  <trkpt lat="32.487514" lon="-1.780990">
   <ele>1175.00</ele>
   <time>2014-04-02T12:42:22Z</time>
  </trkpt>
  <trkpt lat="32.487477" lon="-1.780766">
   <ele>1174.00</ele>
   <time>2014-04-02T12:42:23Z</time>
  </trkpt>
  <trkpt lat="32.487430" lon="-1.780543">
   <ele>1174.00</ele>
   <time>2014-04-02T12:42:24Z</time>
  </trkpt>
  <trkpt lat="32.487373" lon="-1.780324">
   <ele>1174.00</ele>
   <time>2014-04-02T12:42:25Z</time>
  </trkpt>
  <trkpt lat="32.487307" lon="-1.780109">
   <ele>1174.00</ele>
   <time>2014-04-02T12:42:26Z</time>
  </trkpt>
  <trkpt lat="32.487234" lon="-1.779901">
   <ele>1174.00</ele>
   <time>2014-04-02T12:42:27Z</time>
  </trkpt>
  <trkpt lat="32.487156" lon="-1.779700">
   <ele>1173.00</ele>
   <time>2014-04-02T12:42:28Z</time>
  </trkpt>
  <trkpt lat="32.486981" lon="-1.779309">
   <ele>1173.00</ele>
   <time>2014-04-02T12:42:30Z</time>
  </trkpt>
  <trkpt lat="32.486590" lon="-1.778541">
   <ele>1173.00</ele>
   <time>2014-04-02T12:42:34Z</time>
  </trkpt>
  <trkpt lat="32.484922" lon="-1.775288">
   <ele>1170.00</ele>
   <time>2014-04-02T12:42:50Z</time>
  </trkpt>
  <trkpt lat="32.483176" lon="-1.771854">
   <ele>1170.00</ele>
   <time>2014-04-02T12:43:06Z</time>
  </trkpt>
  <trkpt lat="32.481915" lon="-1.769339">
   <ele>1171.00</ele>
   <time>2014-04-02T12:43:18Z</time>
  </trkpt>
  <trkpt lat="32.481738" lon="-1.768905">
   <ele>1171.00</ele>
   <time>2014-04-02T12:43:20Z</time>
  </trkpt>
  <trkpt lat="32.481589" lon="-1.768453">
   <ele>1171.00</ele>
   <time>2014-04-02T12:43:22Z</time>
  </trkpt>
  <trkpt lat="32.481525" lon="-1.768219">
   <ele>1171.00</ele>
   <time>2014-04-02T12:43:23Z</time>
  </trkpt>
  <trkpt lat="32.481469" lon="-1.767980">
   <ele>1170.00</ele>
   <time>2014-04-02T12:43:24Z</time>
  </trkpt>
  <trkpt lat="32.481423" lon="-1.767734">
   <ele>1170.00</ele>
   <time>2014-04-02T12:43:25Z</time>
  </trkpt>
  <trkpt lat="32.481390" lon="-1.767484">
   <ele>1171.00</ele>
   <time>2014-04-02T12:43:26Z</time>
  </trkpt>
  <trkpt lat="32.481365" lon="-1.767230">
   <ele>1171.00</ele>
   <time>2014-04-02T12:43:27Z</time>
  </trkpt>
  <trkpt lat="32.481334" lon="-1.766713">
   <ele>1172.00</ele>
   <time>2014-04-02T12:43:29Z</time>
  </trkpt>
  <trkpt lat="32.481233" lon="-1.762537">
   <ele>1175.00</ele>
   <time>2014-04-02T12:43:45Z</time>
  </trkpt>
  <trkpt lat="32.481133" lon="-1.758542">
   <ele>1177.00</ele>
   <time>2014-04-02T12:44:00Z</time>
  </trkpt>
  <trkpt lat="32.481013" lon="-1.754240">
   <ele>1181.00</ele>
   <time>2014-04-02T12:44:16Z</time>
  </trkpt>
  <trkpt lat="32.480898" lon="-1.750238">
   <ele>1184.00</ele>
   <time>2014-04-02T12:44:31Z</time>
  </trkpt>
  <trkpt lat="32.480772" lon="-1.745847">
   <ele>1184.00</ele>
   <time>2014-04-02T12:44:47Z</time>
  </trkpt>
  <trkpt lat="32.480648" lon="-1.742193">
   <ele>1184.00</ele>
   <time>2014-04-02T12:45:01Z</time>
  </trkpt>
  <trkpt lat="32.480594" lon="-1.741670">
   <ele>1185.00</ele>
   <time>2014-04-02T12:45:03Z</time>
  </trkpt>
  <trkpt lat="32.480519" lon="-1.741149">
   <ele>1185.00</ele>
   <time>2014-04-02T12:45:05Z</time>
  </trkpt>
  <trkpt lat="32.480087" lon="-1.738832">
   <ele>1184.00</ele>
   <time>2014-04-02T12:45:14Z</time>
  </trkpt>
  <trkpt lat="32.479381" lon="-1.735082">
   <ele>1183.00</ele>
   <time>2014-04-02T12:45:29Z</time>
  </trkpt>
  <trkpt lat="32.478630" lon="-1.731033">
   <ele>1182.00</ele>
   <time>2014-04-02T12:45:45Z</time>
  </trkpt>
  <trkpt lat="32.477943" lon="-1.727359">
   <ele>1188.00</ele>
   <time>2014-04-02T12:46:00Z</time>
  </trkpt>
  <trkpt lat="32.477791" lon="-1.726653">
   <ele>1189.00</ele>
   <time>2014-04-02T12:46:03Z</time>
  </trkpt>
  <trkpt lat="32.477668" lon="-1.726201">
   <ele>1190.00</ele>
   <time>2014-04-02T12:46:05Z</time>
  </trkpt>
  <trkpt lat="32.477380" lon="-1.725292">
   <ele>1190.00</ele>
   <time>2014-04-02T12:46:09Z</time>
  </trkpt>
  <trkpt lat="32.476119" lon="-1.721486">
   <ele>1192.00</ele>
   <time>2014-04-02T12:46:25Z</time>
  </trkpt>
  <trkpt lat="32.475811" lon="-1.720503">
   <ele>1192.00</ele>
   <time>2014-04-02T12:46:29Z</time>
  </trkpt>
  <trkpt lat="32.475688" lon="-1.720004">
   <ele>1193.00</ele>
   <time>2014-04-02T12:46:31Z</time>
  </trkpt>
  <trkpt lat="32.475592" lon="-1.719497">
   <ele>1193.00</ele>
   <time>2014-04-02T12:46:33Z</time>
  </trkpt>
  <trkpt lat="32.475526" lon="-1.718979">
   <ele>1194.00</ele>
   <time>2014-04-02T12:46:35Z</time>
  </trkpt>
  <trkpt lat="32.475504" lon="-1.718718">
   <ele>1194.00</ele>
   <time>2014-04-02T12:46:36Z</time>
  </trkpt>
  <trkpt lat="32.475491" lon="-1.718455">
   <ele>1195.00</ele>
   <time>2014-04-02T12:46:37Z</time>
  </trkpt>
  <trkpt lat="32.475485" lon="-1.717925">
   <ele>1195.00</ele>
   <time>2014-04-02T12:46:39Z</time>
  </trkpt>
  <trkpt lat="32.475539" lon="-1.713578">
   <ele>1197.00</ele>
   <time>2014-04-02T12:46:55Z</time>
  </trkpt>
  <trkpt lat="32.475575" lon="-1.709583">
   <ele>1200.00</ele>
   <time>2014-04-02T12:47:10Z</time>
  </trkpt>
  <trkpt lat="32.475596" lon="-1.707022">
   <ele>1203.00</ele>
   <time>2014-04-02T12:47:20Z</time>
  </trkpt>
  <trkpt lat="32.475565" lon="-1.706520">
   <ele>1203.00</ele>
   <time>2014-04-02T12:47:22Z</time>
  </trkpt>
  <trkpt lat="32.475536" lon="-1.706269">
   <ele>1203.00</ele>
   <time>2014-04-02T12:47:23Z</time>
  </trkpt>
  <trkpt lat="32.475498" lon="-1.706020">
   <ele>1203.00</ele>
   <time>2014-04-02T12:47:24Z</time>
  </trkpt>
  <trkpt lat="32.475401" lon="-1.705534">
   <ele>1202.00</ele>
   <time>2014-04-02T12:47:26Z</time>
  </trkpt>
  <trkpt lat="32.475342" lon="-1.705298">
   <ele>1201.00</ele>
   <time>2014-04-02T12:47:27Z</time>
  </trkpt>
  <trkpt lat="32.475275" lon="-1.705065">
   <ele>1201.00</ele>
   <time>2014-04-02T12:47:28Z</time>
  </trkpt>
  <trkpt lat="32.475199" lon="-1.704837">
   <ele>1201.00</ele>
   <time>2014-04-02T12:47:29Z</time>
  </trkpt>
  <trkpt lat="32.475024" lon="-1.704397">
   <ele>1201.00</ele>
   <time>2014-04-02T12:47:31Z</time>
  </trkpt>
  <trkpt lat="32.474924" lon="-1.704183">
   <ele>1201.00</ele>
   <time>2014-04-02T12:47:32Z</time>
  </trkpt>
  <trkpt lat="32.474817" lon="-1.703973">
   <ele>1201.00</ele>
   <time>2014-04-02T12:47:33Z</time>
  </trkpt>
  <trkpt lat="32.474581" lon="-1.703564">
   <ele>1200.00</ele>
   <time>2014-04-02T12:47:35Z</time>
  </trkpt>
  <trkpt lat="32.474453" lon="-1.703365">
   <ele>1200.00</ele>
   <time>2014-04-02T12:47:36Z</time>
  </trkpt>
  <trkpt lat="32.474180" lon="-1.702980">
   <ele>1199.00</ele>
   <time>2014-04-02T12:47:38Z</time>
  </trkpt>
  <trkpt lat="32.471872" lon="-1.699789">
   <ele>1190.00</ele>
   <time>2014-04-02T12:47:54Z</time>
  </trkpt>
  <trkpt lat="32.469681" lon="-1.696717">
   <ele>1187.00</ele>
   <time>2014-04-02T12:48:09Z</time>
  </trkpt>
  <trkpt lat="32.467364" lon="-1.693476">
   <ele>1188.00</ele>
   <time>2014-04-02T12:48:25Z</time>
  </trkpt>
  <trkpt lat="32.465545" lon="-1.690948">
   <ele>1191.00</ele>
   <time>2014-04-02T12:48:38Z</time>
  </trkpt>
  <trkpt lat="32.465110" lon="-1.690407">
   <ele>1191.00</ele>
   <time>2014-04-02T12:48:41Z</time>
  </trkpt>
  <trkpt lat="32.464182" lon="-1.689379">
   <ele>1191.00</ele>
   <time>2014-04-02T12:48:47Z</time>
  </trkpt>
  <trkpt lat="32.461701" lon="-1.686678">
   <ele>1192.00</ele>
   <time>2014-04-02T12:49:03Z</time>
  </trkpt>
  <trkpt lat="32.459385" lon="-1.684150">
   <ele>1194.00</ele>
   <time>2014-04-02T12:49:18Z</time>
  </trkpt>
  <trkpt lat="32.456986" lon="-1.681532">
   <ele>1192.00</ele>
   <time>2014-04-02T12:49:34Z</time>
  </trkpt>
  <trkpt lat="32.454769" lon="-1.679125">
   <ele>1194.00</ele>
   <time>2014-04-02T12:49:49Z</time>
  </trkpt>
  <trkpt lat="32.454462" lon="-1.678825">
   <ele>1194.00</ele>
   <time>2014-04-02T12:49:51Z</time>
  </trkpt>
  <trkpt lat="32.452164" lon="-1.676769">
   <ele>1197.00</ele>
   <time>2014-04-02T12:50:05Z</time>
  </trkpt>
  <trkpt lat="32.449498" lon="-1.674408">
   <ele>1201.00</ele>
   <time>2014-04-02T12:50:21Z</time>
  </trkpt>
  <trkpt lat="32.449160" lon="-1.674135">
   <ele>1201.00</ele>
   <time>2014-04-02T12:50:23Z</time>
  </trkpt>
  <trkpt lat="32.448810" lon="-1.673882">
   <ele>1201.00</ele>
   <time>2014-04-02T12:50:25Z</time>
  </trkpt>
  <trkpt lat="32.448446" lon="-1.673657">
   <ele>1202.00</ele>
   <time>2014-04-02T12:50:27Z</time>
  </trkpt>
  <trkpt lat="32.448070" lon="-1.673456">
   <ele>1202.00</ele>
   <time>2014-04-02T12:50:29Z</time>
  </trkpt>
  <trkpt lat="32.447688" lon="-1.673281">
   <ele>1202.00</ele>
   <time>2014-04-02T12:50:31Z</time>
  </trkpt>
  <trkpt lat="32.447300" lon="-1.673137">
   <ele>1202.00</ele>
   <time>2014-04-02T12:50:33Z</time>
  </trkpt>
  <trkpt lat="32.446906" lon="-1.673021">
   <ele>1202.00</ele>
   <time>2014-04-02T12:50:35Z</time>
  </trkpt>
  <trkpt lat="32.446507" lon="-1.672932">
   <ele>1202.00</ele>
   <time>2014-04-02T12:50:37Z</time>
  </trkpt>
  <trkpt lat="32.445909" lon="-1.672839">
   <ele>1202.00</ele>
   <time>2014-04-02T12:50:40Z</time>
  </trkpt>
  <trkpt lat="32.445708" lon="-1.672822">
   <ele>1202.00</ele>
   <time>2014-04-02T12:50:41Z</time>
  </trkpt>
  <trkpt lat="32.445304" lon="-1.672808">
   <ele>1202.00</ele>
   <time>2014-04-02T12:50:43Z</time>
  </trkpt>
  <trkpt lat="32.444899" lon="-1.672821">
   <ele>1202.00</ele>
   <time>2014-04-02T12:50:45Z</time>
  </trkpt>
  <trkpt lat="32.444495" lon="-1.672860">
   <ele>1202.00</ele>
   <time>2014-04-02T12:50:47Z</time>
  </trkpt>
  <trkpt lat="32.444093" lon="-1.672924">
   <ele>1202.00</ele>
   <time>2014-04-02T12:50:49Z</time>
  </trkpt>
  <trkpt lat="32.443694" lon="-1.673016">
   <ele>1202.00</ele>
   <time>2014-04-02T12:50:51Z</time>
  </trkpt>
  <trkpt lat="32.443298" lon="-1.673137">
   <ele>1202.00</ele>
   <time>2014-04-02T12:50:53Z</time>
  </trkpt>
  <trkpt lat="32.442906" lon="-1.673284">
   <ele>1203.00</ele>
   <time>2014-04-02T12:50:55Z</time>
  </trkpt>
  <trkpt lat="32.442528" lon="-1.673465">
   <ele>1204.00</ele>
   <time>2014-04-02T12:50:57Z</time>
  </trkpt>
  <trkpt lat="32.442155" lon="-1.673671">
   <ele>1204.00</ele>
   <time>2014-04-02T12:50:59Z</time>
  </trkpt>
  <trkpt lat="32.441785" lon="-1.673896">
   <ele>1204.00</ele>
   <time>2014-04-02T12:51:01Z</time>
  </trkpt>
  <trkpt lat="32.441425" lon="-1.674153">
   <ele>1204.00</ele>
   <time>2014-04-02T12:51:03Z</time>
  </trkpt>
  <trkpt lat="32.438725" lon="-1.676189">
   <ele>1201.00</ele>
   <time>2014-04-02T12:51:18Z</time>
  </trkpt>
  <trkpt lat="32.435862" lon="-1.678344">
   <ele>1195.00</ele>
   <time>2014-04-02T12:51:34Z</time>
  </trkpt>
  <trkpt lat="32.434793" lon="-1.679200">
   <ele>1194.00</ele>
   <time>2014-04-02T12:51:40Z</time>
  </trkpt>
  <trkpt lat="32.432390" lon="-1.681188">
   <ele>1195.00</ele>
   <time>2014-04-02T12:51:55Z</time>
  </trkpt>
  <trkpt lat="32.432075" lon="-1.681405">
   <ele>1196.00</ele>
   <time>2014-04-02T12:51:57Z</time>
  </trkpt>
  <trkpt lat="32.431585" lon="-1.681711">
   <ele>1196.00</ele>
   <time>2014-04-02T12:52:00Z</time>
  </trkpt>
  <trkpt lat="32.431239" lon="-1.681895">
   <ele>1197.00</ele>
   <time>2014-04-02T12:52:02Z</time>
  </trkpt>
  <trkpt lat="32.430705" lon="-1.682142">
   <ele>1200.00</ele>
   <time>2014-04-02T12:52:05Z</time>
  </trkpt>
  <trkpt lat="32.430346" lon="-1.682284">
   <ele>1201.00</ele>
   <time>2014-04-02T12:52:07Z</time>
  </trkpt>
  <trkpt lat="32.429983" lon="-1.682409">
   <ele>1202.00</ele>
   <time>2014-04-02T12:52:09Z</time>
  </trkpt>
  <trkpt lat="32.429613" lon="-1.682514">
   <ele>1203.00</ele>
   <time>2014-04-02T12:52:11Z</time>
  </trkpt>
  <trkpt lat="32.429236" lon="-1.682599">
   <ele>1204.00</ele>
   <time>2014-04-02T12:52:13Z</time>
  </trkpt>
  <trkpt lat="32.428663" lon="-1.682696">
   <ele>1205.00</ele>
   <time>2014-04-02T12:52:16Z</time>
  </trkpt>
  <trkpt lat="32.425664" lon="-1.683158">
   <ele>1211.00</ele>
   <time>2014-04-02T12:52:32Z</time>
  </trkpt>
  <trkpt lat="32.424932" lon="-1.683243">
   <ele>1213.00</ele>
   <time>2014-04-02T12:52:36Z</time>
  </trkpt>
  <trkpt lat="32.423787" lon="-1.683323">
   <ele>1214.00</ele>
   <time>2014-04-02T12:52:42Z</time>
  </trkpt>
  <trkpt lat="32.422621" lon="-1.683330">
   <ele>1214.00</ele>
   <time>2014-04-02T12:52:48Z</time>
  </trkpt>
  <trkpt lat="32.419741" lon="-1.683290">
   <ele>1216.00</ele>
   <time>2014-04-02T12:53:04Z</time>
  </trkpt>
  <trkpt lat="32.416671" lon="-1.683250">
   <ele>1216.00</ele>
   <time>2014-04-02T12:53:20Z</time>
  </trkpt>
  <trkpt lat="32.413973" lon="-1.683241">
   <ele>1216.00</ele>
   <time>2014-04-02T12:53:34Z</time>
  </trkpt>
  <trkpt lat="32.413011" lon="-1.683312">
   <ele>1215.00</ele>
   <time>2014-04-02T12:53:39Z</time>
  </trkpt>
  <trkpt lat="32.412261" lon="-1.683418">
   <ele>1215.00</ele>
   <time>2014-04-02T12:53:43Z</time>
  </trkpt>
  <trkpt lat="32.409540" lon="-1.683912">
   <ele>1216.00</ele>
   <time>2014-04-02T12:53:58Z</time>
  </trkpt>
  <trkpt lat="32.406801" lon="-1.684411">
   <ele>1216.00</ele>
   <time>2014-04-02T12:54:14Z</time>
  </trkpt>
  <trkpt lat="32.403874" lon="-1.684945">
   <ele>1217.00</ele>
   <time>2014-04-02T12:54:30Z</time>
  </trkpt>
  <trkpt lat="32.401153" lon="-1.685437">
   <ele>1218.00</ele>
   <time>2014-04-02T12:54:45Z</time>
  </trkpt>
  <trkpt lat="32.399135" lon="-1.685718">
   <ele>1219.00</ele>
   <time>2014-04-02T12:54:57Z</time>
  </trkpt>
  <trkpt lat="32.396428" lon="-1.686026">
   <ele>1220.00</ele>
   <time>2014-04-02T12:55:12Z</time>
  </trkpt>
  <trkpt lat="32.393510" lon="-1.686361">
   <ele>1220.00</ele>
   <time>2014-04-02T12:55:27Z</time>
  </trkpt>
  <trkpt lat="32.390011" lon="-1.686765">
   <ele>1222.00</ele>
   <time>2014-04-02T12:55:45Z</time>
  </trkpt>
  <trkpt lat="32.386795" lon="-1.687132">
   <ele>1224.00</ele>
   <time>2014-04-02T12:56:01Z</time>
  </trkpt>
  <trkpt lat="32.383878" lon="-1.687470">
   <ele>1224.00</ele>
   <time>2014-04-02T12:56:16Z</time>
  </trkpt>
  <trkpt lat="32.380855" lon="-1.687820">
   <ele>1224.00</ele>
   <time>2014-04-02T12:56:32Z</time>
  </trkpt>
  <trkpt lat="32.378161" lon="-1.688147">
   <ele>1221.00</ele>
   <time>2014-04-02T12:56:48Z</time>
  </trkpt>
  <trkpt lat="32.376347" lon="-1.688471">
   <ele>1221.00</ele>
   <time>2014-04-02T12:57:03Z</time>
  </trkpt>
  <trkpt lat="32.374324" lon="-1.688836">
   <ele>1220.00</ele>
   <time>2014-04-02T12:57:19Z</time>
  </trkpt>
  <trkpt lat="32.372265" lon="-1.689209">
   <ele>1223.00</ele>
   <time>2014-04-02T12:57:35Z</time>
  </trkpt>
  <trkpt lat="32.370257" lon="-1.689577">
   <ele>1224.00</ele>
   <time>2014-04-02T12:57:50Z</time>
  </trkpt>
  <trkpt lat="32.368423" lon="-1.689903">
   <ele>1224.00</ele>
   <time>2014-04-02T12:58:06Z</time>
  </trkpt>
  <trkpt lat="32.366561" lon="-1.690242">
   <ele>1224.00</ele>
   <time>2014-04-02T12:58:21Z</time>
  </trkpt>
  <trkpt lat="32.364357" lon="-1.690645">
   <ele>1224.00</ele>
   <time>2014-04-02T12:58:37Z</time>
  </trkpt>
  <trkpt lat="32.362039" lon="-1.691064">
   <ele>1225.00</ele>
   <time>2014-04-02T12:58:53Z</time>
  </trkpt>
  <trkpt lat="32.359931" lon="-1.691449">
   <ele>1225.00</ele>
   <time>2014-04-02T12:59:08Z</time>
  </trkpt>
  <trkpt lat="32.357860" lon="-1.691817">
   <ele>1225.00</ele>
   <time>2014-04-02T12:59:24Z</time>
  </trkpt>
  <trkpt lat="32.355917" lon="-1.692169">
   <ele>1227.00</ele>
   <time>2014-04-02T12:59:39Z</time>
  </trkpt>
  <trkpt lat="32.354957" lon="-1.692315">
   <ele>1228.00</ele>
   <time>2014-04-02T12:59:46Z</time>
  </trkpt>
  <trkpt lat="32.354406" lon="-1.692359">
   <ele>1228.00</ele>
   <time>2014-04-02T12:59:50Z</time>
  </trkpt>
  <trkpt lat="32.352062" lon="-1.692476">
   <ele>1228.00</ele>
   <time>2014-04-02T13:00:06Z</time>
  </trkpt>
  <trkpt lat="32.349613" lon="-1.692573">
   <ele>1228.00</ele>
   <time>2014-04-02T13:00:22Z</time>
  </trkpt>
  <trkpt lat="32.349308" lon="-1.692564">
   <ele>1228.00</ele>
   <time>2014-04-02T13:00:24Z</time>
  </trkpt>
  <trkpt lat="32.348867" lon="-1.692527">
   <ele>1229.00</ele>
   <time>2014-04-02T13:00:27Z</time>
  </trkpt>
  <trkpt lat="32.348335" lon="-1.692448">
   <ele>1229.00</ele>
   <time>2014-04-02T13:00:31Z</time>
  </trkpt>
  <trkpt lat="32.348103" lon="-1.692405">
   <ele>1228.00</ele>
   <time>2014-04-02T13:00:33Z</time>
  </trkpt>
  <trkpt lat="32.347574" lon="-1.692280">
   <ele>1227.00</ele>
   <time>2014-04-02T13:00:38Z</time>
  </trkpt>
  <trkpt lat="32.345749" lon="-1.691776">
   <ele>1226.00</ele>
   <time>2014-04-02T13:00:53Z</time>
  </trkpt>
  <trkpt lat="32.343776" lon="-1.691229">
   <ele>1230.00</ele>
   <time>2014-04-02T13:01:09Z</time>
  </trkpt>
  <trkpt lat="32.341827" lon="-1.690689">
   <ele>1232.00</ele>
   <time>2014-04-02T13:01:24Z</time>
  </trkpt>
  <trkpt lat="32.339739" lon="-1.690123">
   <ele>1236.00</ele>
   <time>2014-04-02T13:01:39Z</time>
  </trkpt>
  <trkpt lat="32.339450" lon="-1.690070">
   <ele>1236.00</ele>
   <time>2014-04-02T13:01:41Z</time>
  </trkpt>
  <trkpt lat="32.339158" lon="-1.690032">
   <ele>1236.00</ele>
   <time>2014-04-02T13:01:43Z</time>
  </trkpt>
  <trkpt lat="32.338862" lon="-1.690012">
   <ele>1236.00</ele>
   <time>2014-04-02T13:01:45Z</time>
  </trkpt>
  <trkpt lat="32.338557" lon="-1.690019">
   <ele>1235.00</ele>
   <time>2014-04-02T13:01:47Z</time>
  </trkpt>
  <trkpt lat="32.338250" lon="-1.690052">
   <ele>1235.00</ele>
   <time>2014-04-02T13:01:49Z</time>
  </trkpt>
  <trkpt lat="32.337943" lon="-1.690101">
   <ele>1235.00</ele>
   <time>2014-04-02T13:01:51Z</time>
  </trkpt>
  <trkpt lat="32.337638" lon="-1.690173">
   <ele>1236.00</ele>
   <time>2014-04-02T13:01:53Z</time>
  </trkpt>
  <trkpt lat="32.337331" lon="-1.690265">
   <ele>1236.00</ele>
   <time>2014-04-02T13:01:55Z</time>
  </trkpt>
  <trkpt lat="32.337024" lon="-1.690375">
   <ele>1236.00</ele>
   <time>2014-04-02T13:01:57Z</time>
  </trkpt>
  <trkpt lat="32.334690" lon="-1.691307">
   <ele>1238.00</ele>
   <time>2014-04-02T13:02:12Z</time>
  </trkpt>
  <trkpt lat="32.332258" lon="-1.692271">
   <ele>1238.00</ele>
   <time>2014-04-02T13:02:28Z</time>
  </trkpt>
  <trkpt lat="32.329713" lon="-1.693275">
   <ele>1236.00</ele>
   <time>2014-04-02T13:02:44Z</time>
  </trkpt>
  <trkpt lat="32.327442" lon="-1.694165">
   <ele>1234.00</ele>
   <time>2014-04-02T13:02:59Z</time>
  </trkpt>
  <trkpt lat="32.325284" lon="-1.695010">
   <ele>1233.00</ele>
   <time>2014-04-02T13:03:15Z</time>
  </trkpt>
  <trkpt lat="32.323033" lon="-1.695897">
   <ele>1231.00</ele>
   <time>2014-04-02T13:03:30Z</time>
  </trkpt>
  <trkpt lat="32.320980" lon="-1.696720">
   <ele>1231.00</ele>
   <time>2014-04-02T13:03:44Z</time>
  </trkpt>
  <trkpt lat="32.320267" lon="-1.697064">
   <ele>1230.00</ele>
   <time>2014-04-02T13:03:49Z</time>
  </trkpt>
  <trkpt lat="32.319702" lon="-1.697364">
   <ele>1231.00</ele>
   <time>2014-04-02T13:03:53Z</time>
  </trkpt>
  <trkpt lat="32.318284" lon="-1.698219">
   <ele>1232.00</ele>
   <time>2014-04-02T13:04:03Z</time>
  </trkpt>
  <trkpt lat="32.316199" lon="-1.699473">
   <ele>1232.00</ele>
   <time>2014-04-02T13:04:19Z</time>
  </trkpt>
  <trkpt lat="32.314178" lon="-1.700700">
   <ele>1234.00</ele>
   <time>2014-04-02T13:04:35Z</time>
  </trkpt>
  <trkpt lat="32.312629" lon="-1.701616">
   <ele>1235.00</ele>
   <time>2014-04-02T13:04:46Z</time>
  </trkpt>
  <trkpt lat="32.312090" lon="-1.701919">
   <ele>1236.00</ele>
   <time>2014-04-02T13:04:49Z</time>
  </trkpt>
  <trkpt lat="32.309840" lon="-1.703285">
   <ele>1238.00</ele>
   <time>2014-04-02T13:05:02Z</time>
  </trkpt>
  <trkpt lat="32.309483" lon="-1.703462">
   <ele>1239.00</ele>
   <time>2014-04-02T13:05:04Z</time>
  </trkpt>
  <trkpt lat="32.309117" lon="-1.703615">
   <ele>1239.00</ele>
   <time>2014-04-02T13:05:06Z</time>
  </trkpt>
  <trkpt lat="32.308561" lon="-1.703811">
   <ele>1240.00</ele>
   <time>2014-04-02T13:05:09Z</time>
  </trkpt>
  <trkpt lat="32.307999" lon="-1.703966">
   <ele>1241.00</ele>
   <time>2014-04-02T13:05:12Z</time>
  </trkpt>
  <trkpt lat="32.304958" lon="-1.704664">
   <ele>1244.00</ele>
   <time>2014-04-02T13:05:28Z</time>
  </trkpt>
  <trkpt lat="32.302139" lon="-1.705311">
   <ele>1247.00</ele>
   <time>2014-04-02T13:05:43Z</time>
  </trkpt>
  <trkpt lat="32.299777" lon="-1.705848">
   <ele>1249.00</ele>
   <time>2014-04-02T13:05:59Z</time>
  </trkpt>
  <trkpt lat="32.297490" lon="-1.706371">
   <ele>1250.00</ele>
   <time>2014-04-02T13:06:14Z</time>
  </trkpt>
  <trkpt lat="32.296670" lon="-1.706577">
   <ele>1251.00</ele>
   <time>2014-04-02T13:06:19Z</time>
  </trkpt>
  <trkpt lat="32.296342" lon="-1.706679">
   <ele>1251.00</ele>
   <time>2014-04-02T13:06:21Z</time>
  </trkpt>
  <trkpt lat="32.295853" lon="-1.706864">
   <ele>1251.00</ele>
   <time>2014-04-02T13:06:24Z</time>
  </trkpt>
  <trkpt lat="32.295532" lon="-1.707007">
   <ele>1251.00</ele>
   <time>2014-04-02T13:06:26Z</time>
  </trkpt>
  <trkpt lat="32.292738" lon="-1.708376">
   <ele>1254.00</ele>
   <time>2014-04-02T13:06:44Z</time>
  </trkpt>
  <trkpt lat="32.292415" lon="-1.708524">
   <ele>1254.00</ele>
   <time>2014-04-02T13:06:46Z</time>
  </trkpt>
  <trkpt lat="32.292080" lon="-1.708642">
   <ele>1254.00</ele>
   <time>2014-04-02T13:06:48Z</time>
  </trkpt>
  <trkpt lat="32.291734" lon="-1.708724">
   <ele>1254.00</ele>
   <time>2014-04-02T13:06:50Z</time>
  </trkpt>
  <trkpt lat="32.291383" lon="-1.708774">
   <ele>1255.00</ele>
   <time>2014-04-02T13:06:52Z</time>
  </trkpt>
  <trkpt lat="32.291034" lon="-1.708791">
   <ele>1255.00</ele>
   <time>2014-04-02T13:06:54Z</time>
  </trkpt>
  <trkpt lat="32.288436" lon="-1.708783">
   <ele>1258.00</ele>
   <time>2014-04-02T13:07:09Z</time>
  </trkpt>
  <trkpt lat="32.285593" lon="-1.708782">
   <ele>1261.00</ele>
   <time>2014-04-02T13:07:25Z</time>
  </trkpt>
  <trkpt lat="32.282528" lon="-1.708779">
   <ele>1267.00</ele>
   <time>2014-04-02T13:07:41Z</time>
  </trkpt>
  <trkpt lat="32.279424" lon="-1.708778">
   <ele>1276.00</ele>
   <time>2014-04-02T13:07:56Z</time>
  </trkpt>
  <trkpt lat="32.278476" lon="-1.708762">
   <ele>1278.00</ele>
   <time>2014-04-02T13:08:01Z</time>
  </trkpt>
  <trkpt lat="32.278101" lon="-1.708745">
   <ele>1279.00</ele>
   <time>2014-04-02T13:08:03Z</time>
  </trkpt>
  <trkpt lat="32.277717" lon="-1.708749">
   <ele>1279.00</ele>
   <time>2014-04-02T13:08:05Z</time>
  </trkpt>
  <trkpt lat="32.274685" lon="-1.708781">
   <ele>1282.00</ele>
   <time>2014-04-02T13:08:20Z</time>
  </trkpt>
  <trkpt lat="32.271313" lon="-1.708786">
   <ele>1284.00</ele>
   <time>2014-04-02T13:08:36Z</time>
  </trkpt>
  <trkpt lat="32.268148" lon="-1.708789">
   <ele>1284.00</ele>
   <time>2014-04-02T13:08:51Z</time>
  </trkpt>
  <trkpt lat="32.265483" lon="-1.708819">
   <ele>1285.00</ele>
   <time>2014-04-02T13:09:04Z</time>
  </trkpt>
  <trkpt lat="32.265061" lon="-1.708860">
   <ele>1285.00</ele>
   <time>2014-04-02T13:09:06Z</time>
  </trkpt>
  <trkpt lat="32.264640" lon="-1.708930">
   <ele>1285.00</ele>
   <time>2014-04-02T13:09:08Z</time>
  </trkpt>
  <trkpt lat="32.264214" lon="-1.709020">
   <ele>1285.00</ele>
   <time>2014-04-02T13:09:10Z</time>
  </trkpt>
  <trkpt lat="32.264002" lon="-1.709077">
   <ele>1285.00</ele>
   <time>2014-04-02T13:09:11Z</time>
  </trkpt>
  <trkpt lat="32.260891" lon="-1.710068">
   <ele>1284.00</ele>
   <time>2014-04-02T13:09:26Z</time>
  </trkpt>
  <trkpt lat="32.257504" lon="-1.711140">
   <ele>1282.00</ele>
   <time>2014-04-02T13:09:42Z</time>
  </trkpt>
  <trkpt lat="32.254302" lon="-1.712156">
   <ele>1284.00</ele>
   <time>2014-04-02T13:09:57Z</time>
  </trkpt>
  <trkpt lat="32.251064" lon="-1.713175">
   <ele>1287.00</ele>
   <time>2014-04-02T13:10:12Z</time>
  </trkpt>
  <trkpt lat="32.247631" lon="-1.714262">
   <ele>1287.00</ele>
   <time>2014-04-02T13:10:28Z</time>
  </trkpt>
  <trkpt lat="32.245342" lon="-1.715002">
   <ele>1289.00</ele>
   <time>2014-04-02T13:10:39Z</time>
  </trkpt>
  <trkpt lat="32.244937" lon="-1.715164">
   <ele>1290.00</ele>
   <time>2014-04-02T13:10:41Z</time>
  </trkpt>
  <trkpt lat="32.244341" lon="-1.715437">
   <ele>1291.00</ele>
   <time>2014-04-02T13:10:44Z</time>
  </trkpt>
  <trkpt lat="32.243953" lon="-1.715649">
   <ele>1292.00</ele>
   <time>2014-04-02T13:10:46Z</time>
  </trkpt>
  <trkpt lat="32.240344" lon="-1.717750">
   <ele>1297.00</ele>
   <time>2014-04-02T13:11:04Z</time>
  </trkpt>
  <trkpt lat="32.239414" lon="-1.718273">
   <ele>1301.00</ele>
   <time>2014-04-02T13:11:09Z</time>
  </trkpt>
  <trkpt lat="32.239232" lon="-1.718339">
   <ele>1301.00</ele>
   <time>2014-04-02T13:11:10Z</time>
  </trkpt>
  <trkpt lat="32.239046" lon="-1.718383">
   <ele>1302.00</ele>
   <time>2014-04-02T13:11:11Z</time>
  </trkpt>
  <trkpt lat="32.238856" lon="-1.718407">
   <ele>1303.00</ele>
   <time>2014-04-02T13:11:12Z</time>
  </trkpt>
  <trkpt lat="32.238663" lon="-1.718419">
   <ele>1303.00</ele>
   <time>2014-04-02T13:11:13Z</time>
  </trkpt>
  <trkpt lat="32.236643" lon="-1.718461">
   <ele>1307.00</ele>
   <time>2014-04-02T13:11:23Z</time>
  </trkpt>
  <trkpt lat="32.236438" lon="-1.718456">
   <ele>1308.00</ele>
   <time>2014-04-02T13:11:24Z</time>
  </trkpt>
  <trkpt lat="32.236234" lon="-1.718435">
   <ele>1309.00</ele>
   <time>2014-04-02T13:11:25Z</time>
  </trkpt>
  <trkpt lat="32.236031" lon="-1.718397">
   <ele>1310.00</ele>
   <time>2014-04-02T13:11:26Z</time>
  </trkpt>
  <trkpt lat="32.235827" lon="-1.718346">
   <ele>1310.00</ele>
   <time>2014-04-02T13:11:27Z</time>
  </trkpt>
  <trkpt lat="32.232692" lon="-1.717515">
   <ele>1319.00</ele>
   <time>2014-04-02T13:11:42Z</time>
  </trkpt>
  <trkpt lat="32.229297" lon="-1.716615">
   <ele>1329.00</ele>
   <time>2014-04-02T13:11:58Z</time>
  </trkpt>
  <trkpt lat="32.226134" lon="-1.715781">
   <ele>1331.00</ele>
   <time>2014-04-02T13:12:13Z</time>
  </trkpt>
  <trkpt lat="32.223146" lon="-1.714996">
   <ele>1339.00</ele>
   <time>2014-04-02T13:12:28Z</time>
  </trkpt>
  <trkpt lat="32.222955" lon="-1.714934">
   <ele>1340.00</ele>
   <time>2014-04-02T13:12:29Z</time>
  </trkpt>
  <trkpt lat="32.222768" lon="-1.714857">
   <ele>1340.00</ele>
   <time>2014-04-02T13:12:30Z</time>
  </trkpt>
  <trkpt lat="32.222588" lon="-1.714761">
   <ele>1341.00</ele>
   <time>2014-04-02T13:12:31Z</time>
  </trkpt>
  <trkpt lat="32.222415" lon="-1.714652">
   <ele>1341.00</ele>
   <time>2014-04-02T13:12:32Z</time>
  </trkpt>
  <trkpt lat="32.222245" lon="-1.714529">
   <ele>1342.00</ele>
   <time>2014-04-02T13:12:33Z</time>
  </trkpt>
  <trkpt lat="32.221912" lon="-1.714263">
   <ele>1343.00</ele>
   <time>2014-04-02T13:12:35Z</time>
  </trkpt>
  <trkpt lat="32.220628" lon="-1.713195">
   <ele>1349.00</ele>
   <time>2014-04-02T13:12:43Z</time>
  </trkpt>
  <trkpt lat="32.220481" lon="-1.713057">
   <ele>1350.00</ele>
   <time>2014-04-02T13:12:44Z</time>
  </trkpt>
  <trkpt lat="32.220345" lon="-1.712906">
   <ele>1350.00</ele>
   <time>2014-04-02T13:12:45Z</time>
  </trkpt>
  <trkpt lat="32.220225" lon="-1.712739">
   <ele>1351.00</ele>
   <time>2014-04-02T13:12:46Z</time>
  </trkpt>
  <trkpt lat="32.220122" lon="-1.712555">
   <ele>1351.00</ele>
   <time>2014-04-02T13:12:47Z</time>
  </trkpt>
  <trkpt lat="32.220036" lon="-1.712358">
   <ele>1352.00</ele>
   <time>2014-04-02T13:12:48Z</time>
  </trkpt>
  <trkpt lat="32.219964" lon="-1.712151">
   <ele>1352.00</ele>
   <time>2014-04-02T13:12:49Z</time>
  </trkpt>
  <trkpt lat="32.219908" lon="-1.711938">
   <ele>1353.00</ele>
   <time>2014-04-02T13:12:50Z</time>
  </trkpt>
  <trkpt lat="32.219863" lon="-1.711724">
   <ele>1353.00</ele>
   <time>2014-04-02T13:12:51Z</time>
  </trkpt>
  <trkpt lat="32.219125" lon="-1.707823">
   <ele>1355.00</ele>
   <time>2014-04-02T13:13:07Z</time>
  </trkpt>
  <trkpt lat="32.218902" lon="-1.706800">
   <ele>1356.00</ele>
   <time>2014-04-02T13:13:11Z</time>
  </trkpt>
  <trkpt lat="32.217929" lon="-1.702928">
   <ele>1353.00</ele>
   <time>2014-04-02T13:13:26Z</time>
  </trkpt>
  <trkpt lat="32.216902" lon="-1.698839">
   <ele>1352.00</ele>
   <time>2014-04-02T13:13:42Z</time>
  </trkpt>
  <trkpt lat="32.216505" lon="-1.697279">
   <ele>1350.00</ele>
   <time>2014-04-02T13:13:48Z</time>
  </trkpt>
  <trkpt lat="32.216348" lon="-1.696782">
   <ele>1350.00</ele>
   <time>2014-04-02T13:13:50Z</time>
  </trkpt>
  <trkpt lat="32.216255" lon="-1.696541">
   <ele>1349.00</ele>
   <time>2014-04-02T13:13:51Z</time>
  </trkpt>
  <trkpt lat="32.216047" lon="-1.696064">
   <ele>1349.00</ele>
   <time>2014-04-02T13:13:53Z</time>
  </trkpt>
  <trkpt lat="32.214372" lon="-1.692531">
   <ele>1342.00</ele>
   <time>2014-04-02T13:14:08Z</time>
  </trkpt>
  <trkpt lat="32.213473" lon="-1.690650">
   <ele>1340.00</ele>
   <time>2014-04-02T13:14:16Z</time>
  </trkpt>
  <trkpt lat="32.213355" lon="-1.690440">
   <ele>1340.00</ele>
   <time>2014-04-02T13:14:17Z</time>
  </trkpt>
  <trkpt lat="32.213227" lon="-1.690241">
   <ele>1340.00</ele>
   <time>2014-04-02T13:14:18Z</time>
  </trkpt>
  <trkpt lat="32.213082" lon="-1.690062">
   <ele>1339.00</ele>
   <time>2014-04-02T13:14:19Z</time>
  </trkpt>
  <trkpt lat="32.212922" lon="-1.689901">
   <ele>1339.00</ele>
   <time>2014-04-02T13:14:20Z</time>
  </trkpt>
  <trkpt lat="32.212750" lon="-1.689754">
   <ele>1338.00</ele>
   <time>2014-04-02T13:14:21Z</time>
  </trkpt>
  <trkpt lat="32.209762" lon="-1.687395">
   <ele>1322.00</ele>
   <time>2014-04-02T13:14:37Z</time>
  </trkpt>
  <trkpt lat="32.207069" lon="-1.685202">
   <ele>1316.00</ele>
   <time>2014-04-02T13:14:52Z</time>
  </trkpt>
  <trkpt lat="32.204374" lon="-1.683045">
   <ele>1308.00</ele>
   <time>2014-04-02T13:15:07Z</time>
  </trkpt>
  <trkpt lat="32.203021" lon="-1.681924">
   <ele>1306.00</ele>
   <time>2014-04-02T13:15:15Z</time>
  </trkpt>
  <trkpt lat="32.202881" lon="-1.681767">
   <ele>1306.00</ele>
   <time>2014-04-02T13:15:16Z</time>
  </trkpt>
  <trkpt lat="32.202761" lon="-1.681596">
   <ele>1306.00</ele>
   <time>2014-04-02T13:15:17Z</time>
  </trkpt>
  <trkpt lat="32.202657" lon="-1.681409">
   <ele>1306.00</ele>
   <time>2014-04-02T13:15:18Z</time>
  </trkpt>
  <trkpt lat="32.202564" lon="-1.681213">
   <ele>1306.00</ele>
   <time>2014-04-02T13:15:19Z</time>
  </trkpt>
  <trkpt lat="32.202480" lon="-1.681013">
   <ele>1306.00</ele>
   <time>2014-04-02T13:15:20Z</time>
  </trkpt>
  <trkpt lat="32.202184" lon="-1.680237">
   <ele>1305.00</ele>
   <time>2014-04-02T13:15:24Z</time>
  </trkpt>
  <trkpt lat="32.202083" lon="-1.679825">
   <ele>1303.00</ele>
   <time>2014-04-02T13:15:26Z</time>
  </trkpt>
  <trkpt lat="32.202057" lon="-1.679606">
   <ele>1303.00</ele>
   <time>2014-04-02T13:15:27Z</time>
  </trkpt>
  <trkpt lat="32.202048" lon="-1.679379">
   <ele>1301.00</ele>
   <time>2014-04-02T13:15:28Z</time>
  </trkpt>
  <trkpt lat="32.202050" lon="-1.679148">
   <ele>1300.00</ele>
   <time>2014-04-02T13:15:29Z</time>
  </trkpt>
  <trkpt lat="32.202077" lon="-1.678672">
   <ele>1298.00</ele>
   <time>2014-04-02T13:15:31Z</time>
  </trkpt>
  <trkpt lat="32.202303" lon="-1.675201">
   <ele>1295.00</ele>
   <time>2014-04-02T13:15:46Z</time>
  </trkpt>
  <trkpt lat="32.202263" lon="-1.674783">
   <ele>1295.00</ele>
   <time>2014-04-02T13:15:48Z</time>
  </trkpt>
  <trkpt lat="32.202165" lon="-1.674380">
   <ele>1295.00</ele>
   <time>2014-04-02T13:15:50Z</time>
  </trkpt>
  <trkpt lat="32.202004" lon="-1.674001">
   <ele>1295.00</ele>
   <time>2014-04-02T13:15:52Z</time>
  </trkpt>
  <trkpt lat="32.201901" lon="-1.673823">
   <ele>1295.00</ele>
   <time>2014-04-02T13:15:53Z</time>
  </trkpt>
  <trkpt lat="32.201784" lon="-1.673656">
   <ele>1295.00</ele>
   <time>2014-04-02T13:15:54Z</time>
  </trkpt>
  <trkpt lat="32.201652" lon="-1.673503">
   <ele>1295.00</ele>
   <time>2014-04-02T13:15:55Z</time>
  </trkpt>
  <trkpt lat="32.201511" lon="-1.673361">
   <ele>1295.00</ele>
   <time>2014-04-02T13:15:56Z</time>
  </trkpt>
  <trkpt lat="32.200296" lon="-1.672196">
   <ele>1293.00</ele>
   <time>2014-04-02T13:16:05Z</time>
  </trkpt>
  <trkpt lat="32.200080" lon="-1.671896">
   <ele>1293.00</ele>
   <time>2014-04-02T13:16:07Z</time>
  </trkpt>
  <trkpt lat="32.199918" lon="-1.671550">
   <ele>1293.00</ele>
   <time>2014-04-02T13:16:09Z</time>
  </trkpt>
  <trkpt lat="32.199815" lon="-1.671169">
   <ele>1292.00</ele>
   <time>2014-04-02T13:16:11Z</time>
  </trkpt>
  <trkpt lat="32.199772" lon="-1.670765">
   <ele>1292.00</ele>
   <time>2014-04-02T13:16:13Z</time>
  </trkpt>
  <trkpt lat="32.199764" lon="-1.670364">
   <ele>1291.00</ele>
   <time>2014-04-02T13:16:15Z</time>
  </trkpt>
  <trkpt lat="32.199725" lon="-1.668554">
   <ele>1291.00</ele>
   <time>2014-04-02T13:16:24Z</time>
  </trkpt>
  <trkpt lat="32.199700" lon="-1.668137">
   <ele>1290.00</ele>
   <time>2014-04-02T13:16:26Z</time>
  </trkpt>
  <trkpt lat="32.199672" lon="-1.667925">
   <ele>1289.00</ele>
   <time>2014-04-02T13:16:27Z</time>
  </trkpt>
  <trkpt lat="32.199631" lon="-1.667712">
   <ele>1289.00</ele>
   <time>2014-04-02T13:16:28Z</time>
  </trkpt>
  <trkpt lat="32.199578" lon="-1.667501">
   <ele>1289.00</ele>
   <time>2014-04-02T13:16:29Z</time>
  </trkpt>
  <trkpt lat="32.199514" lon="-1.667295">
   <ele>1288.00</ele>
   <time>2014-04-02T13:16:30Z</time>
  </trkpt>
  <trkpt lat="32.199438" lon="-1.667094">
   <ele>1288.00</ele>
   <time>2014-04-02T13:16:31Z</time>
  </trkpt>
  <trkpt lat="32.199188" lon="-1.666507">
   <ele>1288.00</ele>
   <time>2014-04-02T13:16:34Z</time>
  </trkpt>
  <trkpt lat="32.198939" lon="-1.665929">
   <ele>1288.00</ele>
   <time>2014-04-02T13:16:37Z</time>
  </trkpt>
  <trkpt lat="32.198869" lon="-1.665731">
   <ele>1288.00</ele>
   <time>2014-04-02T13:16:38Z</time>
  </trkpt>
  <trkpt lat="32.198806" lon="-1.665528">
   <ele>1288.00</ele>
   <time>2014-04-02T13:16:39Z</time>
  </trkpt>
  <trkpt lat="32.198751" lon="-1.665320">
   <ele>1288.00</ele>
   <time>2014-04-02T13:16:40Z</time>
  </trkpt>
  <trkpt lat="32.198705" lon="-1.665106">
   <ele>1287.00</ele>
   <time>2014-04-02T13:16:41Z</time>
  </trkpt>
  <trkpt lat="32.198669" lon="-1.664891">
   <ele>1287.00</ele>
   <time>2014-04-02T13:16:42Z</time>
  </trkpt>
  <trkpt lat="32.198618" lon="-1.664460">
   <ele>1287.00</ele>
   <time>2014-04-02T13:16:44Z</time>
  </trkpt>
  <trkpt lat="32.198275" lon="-1.661051">
   <ele>1285.00</ele>
   <time>2014-04-02T13:16:59Z</time>
  </trkpt>
  <trkpt lat="32.198165" lon="-1.659897">
   <ele>1286.00</ele>
   <time>2014-04-02T13:17:04Z</time>
  </trkpt>
  <trkpt lat="32.198159" lon="-1.659670">
   <ele>1286.00</ele>
   <time>2014-04-02T13:17:05Z</time>
  </trkpt>
  <trkpt lat="32.198165" lon="-1.659442">
   <ele>1285.00</ele>
   <time>2014-04-02T13:17:06Z</time>
  </trkpt>
  <trkpt lat="32.198184" lon="-1.659215">
   <ele>1286.00</ele>
   <time>2014-04-02T13:17:07Z</time>
  </trkpt>
  <trkpt lat="32.198242" lon="-1.658762">
   <ele>1287.00</ele>
   <time>2014-04-02T13:17:09Z</time>
  </trkpt>
  <trkpt lat="32.198690" lon="-1.655433">
   <ele>1286.00</ele>
   <time>2014-04-02T13:17:24Z</time>
  </trkpt>
  <trkpt lat="32.198761" lon="-1.654789">
   <ele>1284.00</ele>
   <time>2014-04-02T13:17:27Z</time>
  </trkpt>
  <trkpt lat="32.198773" lon="-1.654402">
   <ele>1283.00</ele>
   <time>2014-04-02T13:17:29Z</time>
  </trkpt>
  <trkpt lat="32.198767" lon="-1.654050">
   <ele>1281.00</ele>
   <time>2014-04-02T13:17:31Z</time>
  </trkpt>
  <trkpt lat="32.198743" lon="-1.653597">
   <ele>1279.00</ele>
   <time>2014-04-02T13:17:34Z</time>
  </trkpt>
  <trkpt lat="32.198653" lon="-1.652378">
   <ele>1274.00</ele>
   <time>2014-04-02T13:17:49Z</time>
  </trkpt>
  <trkpt lat="32.198641" lon="-1.652011">
   <ele>1274.00</ele>
   <time>2014-04-02T13:17:57Z</time>
  </trkpt>
  <trkpt lat="32.198646" lon="-1.651733">
   <ele>1275.00</ele>
   <time>2014-04-02T13:18:01Z</time>
  </trkpt>
  <trkpt lat="32.198662" lon="-1.651504">
   <ele>1275.00</ele>
   <time>2014-04-02T13:18:04Z</time>
  </trkpt>
  <trkpt lat="32.198695" lon="-1.651238">
   <ele>1275.00</ele>
   <time>2014-04-02T13:18:07Z</time>
  </trkpt>
  <trkpt lat="32.198742" lon="-1.650961">
   <ele>1275.00</ele>
   <time>2014-04-02T13:18:10Z</time>
  </trkpt>
  <trkpt lat="32.198802" lon="-1.650690">
   <ele>1275.00</ele>
   <time>2014-04-02T13:18:13Z</time>
  </trkpt>
  <trkpt lat="32.198868" lon="-1.650437">
   <ele>1273.00</ele>
   <time>2014-04-02T13:18:16Z</time>
  </trkpt>
  <trkpt lat="32.198941" lon="-1.650210">
   <ele>1273.00</ele>
   <time>2014-04-02T13:18:19Z</time>
  </trkpt>
  <trkpt lat="32.199394" lon="-1.648950">
   <ele>1270.00</ele>
   <time>2014-04-02T13:18:35Z</time>
  </trkpt>
  <trkpt lat="32.199477" lon="-1.648745">
   <ele>1270.00</ele>
   <time>2014-04-02T13:18:39Z</time>
  </trkpt>
  <trkpt lat="32.199458" lon="-1.648762">
   <ele>1266.00</ele>
   <time>2014-04-02T13:18:54Z</time>
  </trkpt>
  <trkpt lat="32.199426" lon="-1.648967">
   <ele>1264.00</ele>
   <time>2014-04-02T13:19:02Z</time>
  </trkpt>
  <trkpt lat="32.199333" lon="-1.649216">
   <ele>1263.00</ele>
   <time>2014-04-02T13:19:06Z</time>
  </trkpt>
  <trkpt lat="32.198894" lon="-1.650449">
   <ele>1265.00</ele>
   <time>2014-04-02T13:19:20Z</time>
  </trkpt>
  <trkpt lat="32.198832" lon="-1.650665">
   <ele>1264.00</ele>
   <time>2014-04-02T13:19:22Z</time>
  </trkpt>
  <trkpt lat="32.198778" lon="-1.650888">
   <ele>1264.00</ele>
   <time>2014-04-02T13:19:24Z</time>
  </trkpt>
  <trkpt lat="32.198734" lon="-1.651112">
   <ele>1265.00</ele>
   <time>2014-04-02T13:19:26Z</time>
  </trkpt>
  <trkpt lat="32.198696" lon="-1.651347">
   <ele>1265.00</ele>
   <time>2014-04-02T13:19:28Z</time>
  </trkpt>
  <trkpt lat="32.198665" lon="-1.651593">
   <ele>1265.00</ele>
   <time>2014-04-02T13:19:30Z</time>
  </trkpt>
  <trkpt lat="32.198647" lon="-1.651852">
   <ele>1266.00</ele>
   <time>2014-04-02T13:19:32Z</time>
  </trkpt>
  <trkpt lat="32.198648" lon="-1.652124">
   <ele>1266.00</ele>
   <time>2014-04-02T13:19:34Z</time>
  </trkpt>
  <trkpt lat="32.198682" lon="-1.652688">
   <ele>1266.00</ele>
   <time>2014-04-02T13:19:38Z</time>
  </trkpt>
  <trkpt lat="32.198734" lon="-1.653520">
   <ele>1267.00</ele>
   <time>2014-04-02T13:19:44Z</time>
  </trkpt>
  <trkpt lat="32.198735" lon="-1.653761">
   <ele>1268.00</ele>
   <time>2014-04-02T13:19:46Z</time>
  </trkpt>
  <trkpt lat="32.198745" lon="-1.653983">
   <ele>1268.00</ele>
   <time>2014-04-02T13:19:49Z</time>
  </trkpt>
  <trkpt lat="32.198872" lon="-1.653905">
   <ele>1269.00</ele>
   <time>2014-04-02T13:19:54Z</time>
  </trkpt>
  <trkpt lat="32.198906" lon="-1.653660">
   <ele>1270.00</ele>
   <time>2014-04-02T13:19:57Z</time>
  </trkpt>
  <trkpt lat="32.198947" lon="-1.653265">
   <ele>1273.00</ele>
   <time>2014-04-02T13:20:01Z</time>
  </trkpt>
  <trkpt lat="32.199151" lon="-1.651554">
   <ele>1278.00</ele>
   <time>2014-04-02T13:20:13Z</time>
  </trkpt>
  <trkpt lat="32.199224" lon="-1.651221">
   <ele>1277.00</ele>
   <time>2014-04-02T13:20:15Z</time>
  </trkpt>
  <trkpt lat="32.199329" lon="-1.650887">
   <ele>1276.00</ele>
   <time>2014-04-02T13:20:17Z</time>
  </trkpt>
  <trkpt lat="32.199478" lon="-1.650566">
   <ele>1276.00</ele>
   <time>2014-04-02T13:20:19Z</time>
  </trkpt>
  <trkpt lat="32.199667" lon="-1.650244">
   <ele>1276.00</ele>
   <time>2014-04-02T13:20:21Z</time>
  </trkpt>
  <trkpt lat="32.200392" lon="-1.649111">
   <ele>1273.00</ele>
   <time>2014-04-02T13:20:28Z</time>
  </trkpt>
  <trkpt lat="32.201795" lon="-1.647009">
   <ele>1269.00</ele>
   <time>2014-04-02T13:20:41Z</time>
  </trkpt>
  <trkpt lat="32.202041" lon="-1.646693">
   <ele>1269.00</ele>
   <time>2014-04-02T13:20:43Z</time>
  </trkpt>
  <trkpt lat="32.202441" lon="-1.646235">
   <ele>1269.00</ele>
   <time>2014-04-02T13:20:46Z</time>
  </trkpt>
  <trkpt lat="32.204664" lon="-1.643757">
   <ele>1267.00</ele>
   <time>2014-04-02T13:21:02Z</time>
  </trkpt>
  <trkpt lat="32.205065" lon="-1.643269">
   <ele>1268.00</ele>
   <time>2014-04-02T13:21:05Z</time>
  </trkpt>
  <trkpt lat="32.205180" lon="-1.643096">
   <ele>1269.00</ele>
   <time>2014-04-02T13:21:06Z</time>
  </trkpt>
  <trkpt lat="32.205278" lon="-1.642913">
   <ele>1269.00</ele>
   <time>2014-04-02T13:21:07Z</time>
  </trkpt>
  <trkpt lat="32.205366" lon="-1.642720">
   <ele>1269.00</ele>
   <time>2014-04-02T13:21:08Z</time>
  </trkpt>
  <trkpt lat="32.205698" lon="-1.641907">
   <ele>1271.00</ele>
   <time>2014-04-02T13:21:12Z</time>
  </trkpt>
  <trkpt lat="32.206849" lon="-1.638808">
   <ele>1285.00</ele>
   <time>2014-04-02T13:21:27Z</time>
  </trkpt>
  <trkpt lat="32.207065" lon="-1.638180">
   <ele>1286.00</ele>
   <time>2014-04-02T13:21:30Z</time>
  </trkpt>
  <trkpt lat="32.207125" lon="-1.637962">
   <ele>1286.00</ele>
   <time>2014-04-02T13:21:31Z</time>
  </trkpt>
  <trkpt lat="32.207175" lon="-1.637740">
   <ele>1286.00</ele>
   <time>2014-04-02T13:21:32Z</time>
  </trkpt>
  <trkpt lat="32.207216" lon="-1.637513">
   <ele>1286.00</ele>
   <time>2014-04-02T13:21:33Z</time>
  </trkpt>
  <trkpt lat="32.207242" lon="-1.637284">
   <ele>1286.00</ele>
   <time>2014-04-02T13:21:34Z</time>
  </trkpt>
  <trkpt lat="32.207250" lon="-1.637051">
   <ele>1286.00</ele>
   <time>2014-04-02T13:21:35Z</time>
  </trkpt>
  <trkpt lat="32.207239" lon="-1.636819">
   <ele>1286.00</ele>
   <time>2014-04-02T13:21:36Z</time>
  </trkpt>
  <trkpt lat="32.207211" lon="-1.636588">
   <ele>1286.00</ele>
   <time>2014-04-02T13:21:37Z</time>
  </trkpt>
  <trkpt lat="32.207165" lon="-1.636363">
   <ele>1286.00</ele>
   <time>2014-04-02T13:21:38Z</time>
  </trkpt>
  <trkpt lat="32.207099" lon="-1.636149">
   <ele>1286.00</ele>
   <time>2014-04-02T13:21:39Z</time>
  </trkpt>
  <trkpt lat="32.207017" lon="-1.635944">
   <ele>1286.00</ele>
   <time>2014-04-02T13:21:40Z</time>
  </trkpt>
  <trkpt lat="32.206920" lon="-1.635749">
   <ele>1285.00</ele>
   <time>2014-04-02T13:21:41Z</time>
  </trkpt>
  <trkpt lat="32.206809" lon="-1.635561">
   <ele>1284.00</ele>
   <time>2014-04-02T13:21:42Z</time>
  </trkpt>
  <trkpt lat="32.206686" lon="-1.635381">
   <ele>1283.00</ele>
   <time>2014-04-02T13:21:43Z</time>
  </trkpt>
  <trkpt lat="32.206418" lon="-1.635029">
   <ele>1281.00</ele>
   <time>2014-04-02T13:21:45Z</time>
  </trkpt>
  <trkpt lat="32.205224" lon="-1.633504">
   <ele>1275.00</ele>
   <time>2014-04-02T13:21:54Z</time>
  </trkpt>
  <trkpt lat="32.205034" lon="-1.633163">
   <ele>1275.00</ele>
   <time>2014-04-02T13:21:56Z</time>
  </trkpt>
  <trkpt lat="32.204912" lon="-1.632795">
   <ele>1275.00</ele>
   <time>2014-04-02T13:21:58Z</time>
  </trkpt>
  <trkpt lat="32.204854" lon="-1.632392">
   <ele>1275.00</ele>
   <time>2014-04-02T13:22:00Z</time>
  </trkpt>
  <trkpt lat="32.204797" lon="-1.631755">
   <ele>1274.00</ele>
   <time>2014-04-02T13:22:03Z</time>
  </trkpt>
  <trkpt lat="32.204737" lon="-1.631100">
   <ele>1273.00</ele>
   <time>2014-04-02T13:22:06Z</time>
  </trkpt>
  <trkpt lat="32.204702" lon="-1.630880">
   <ele>1273.00</ele>
   <time>2014-04-02T13:22:07Z</time>
  </trkpt>
  <trkpt lat="32.204657" lon="-1.630660">
   <ele>1272.00</ele>
   <time>2014-04-02T13:22:08Z</time>
  </trkpt>
  <trkpt lat="32.204605" lon="-1.630441">
   <ele>1272.00</ele>
   <time>2014-04-02T13:22:09Z</time>
  </trkpt>
  <trkpt lat="32.204542" lon="-1.630225">
   <ele>1271.00</ele>
   <time>2014-04-02T13:22:10Z</time>
  </trkpt>
  <trkpt lat="32.204463" lon="-1.630014">
   <ele>1270.00</ele>
   <time>2014-04-02T13:22:11Z</time>
  </trkpt>
  <trkpt lat="32.204369" lon="-1.629809">
   <ele>1270.00</ele>
   <time>2014-04-02T13:22:12Z</time>
  </trkpt>
  <trkpt lat="32.204262" lon="-1.629611">
   <ele>1270.00</ele>
   <time>2014-04-02T13:22:13Z</time>
  </trkpt>
  <trkpt lat="32.202490" lon="-1.626458">
   <ele>1267.00</ele>
   <time>2014-04-02T13:22:29Z</time>
  </trkpt>
  <trkpt lat="32.200797" lon="-1.623466">
   <ele>1266.00</ele>
   <time>2014-04-02T13:22:44Z</time>
  </trkpt>
  <trkpt lat="32.200598" lon="-1.623086">
   <ele>1268.00</ele>
   <time>2014-04-02T13:22:46Z</time>
  </trkpt>
  <trkpt lat="32.200513" lon="-1.622894">
   <ele>1268.00</ele>
   <time>2014-04-02T13:22:47Z</time>
  </trkpt>
  <trkpt lat="32.200396" lon="-1.622499">
   <ele>1270.00</ele>
   <time>2014-04-02T13:22:49Z</time>
  </trkpt>
  <trkpt lat="32.200344" lon="-1.622080">
   <ele>1270.00</ele>
   <time>2014-04-02T13:22:51Z</time>
  </trkpt>
  <trkpt lat="32.200080" lon="-1.618576">
   <ele>1273.00</ele>
   <time>2014-04-02T13:23:07Z</time>
  </trkpt>
  <trkpt lat="32.199829" lon="-1.615236">
   <ele>1277.00</ele>
   <time>2014-04-02T13:23:22Z</time>
  </trkpt>
  <trkpt lat="32.199733" lon="-1.614585">
   <ele>1278.00</ele>
   <time>2014-04-02T13:23:25Z</time>
  </trkpt>
  <trkpt lat="32.199568" lon="-1.613678">
   <ele>1277.00</ele>
   <time>2014-04-02T13:23:29Z</time>
  </trkpt>
  <trkpt lat="32.198860" lon="-1.610172">
   <ele>1279.00</ele>
   <time>2014-04-02T13:23:44Z</time>
  </trkpt>
  <trkpt lat="32.198707" lon="-1.609491">
   <ele>1282.00</ele>
   <time>2014-04-02T13:23:47Z</time>
  </trkpt>
  <trkpt lat="32.198648" lon="-1.609276">
   <ele>1283.00</ele>
   <time>2014-04-02T13:23:48Z</time>
  </trkpt>
  <trkpt lat="32.198517" lon="-1.608860">
   <ele>1284.00</ele>
   <time>2014-04-02T13:23:50Z</time>
  </trkpt>
  <trkpt lat="32.198209" lon="-1.608034">
   <ele>1285.00</ele>
   <time>2014-04-02T13:23:54Z</time>
  </trkpt>
  <trkpt lat="32.197939" lon="-1.607405">
   <ele>1285.00</ele>
   <time>2014-04-02T13:23:57Z</time>
  </trkpt>
  <trkpt lat="32.196523" lon="-1.604232">
   <ele>1281.00</ele>
   <time>2014-04-02T13:24:12Z</time>
  </trkpt>
  <trkpt lat="32.196314" lon="-1.603818">
   <ele>1280.00</ele>
   <time>2014-04-02T13:24:14Z</time>
  </trkpt>
  <trkpt lat="32.196084" lon="-1.603416">
   <ele>1279.00</ele>
   <time>2014-04-02T13:24:16Z</time>
  </trkpt>
  <trkpt lat="32.194546" lon="-1.600820">
   <ele>1270.00</ele>
   <time>2014-04-02T13:24:29Z</time>
  </trkpt>
  <trkpt lat="32.194420" lon="-1.600633">
   <ele>1270.00</ele>
   <time>2014-04-02T13:24:30Z</time>
  </trkpt>
  <trkpt lat="32.194153" lon="-1.600275">
   <ele>1269.00</ele>
   <time>2014-04-02T13:24:32Z</time>
  </trkpt>
  <trkpt lat="32.193731" lon="-1.599765">
   <ele>1268.00</ele>
   <time>2014-04-02T13:24:35Z</time>
  </trkpt>
  <trkpt lat="32.193436" lon="-1.599437">
   <ele>1266.00</ele>
   <time>2014-04-02T13:24:37Z</time>
  </trkpt>
  <trkpt lat="32.193127" lon="-1.599126">
   <ele>1265.00</ele>
   <time>2014-04-02T13:24:39Z</time>
  </trkpt>
  <trkpt lat="32.192969" lon="-1.598979">
   <ele>1264.00</ele>
   <time>2014-04-02T13:24:40Z</time>
  </trkpt>
  <trkpt lat="32.192807" lon="-1.598842">
   <ele>1263.00</ele>
   <time>2014-04-02T13:24:41Z</time>
  </trkpt>
  <trkpt lat="32.192480" lon="-1.598589">
   <ele>1261.00</ele>
   <time>2014-04-02T13:24:43Z</time>
  </trkpt>
  <trkpt lat="32.191177" lon="-1.597678">
   <ele>1257.00</ele>
   <time>2014-04-02T13:24:51Z</time>
  </trkpt>
  <trkpt lat="32.188505" lon="-1.595847">
   <ele>1249.00</ele>
   <time>2014-04-02T13:25:07Z</time>
  </trkpt>
  <trkpt lat="32.185990" lon="-1.594111">
   <ele>1250.00</ele>
   <time>2014-04-02T13:25:22Z</time>
  </trkpt>
  <trkpt lat="32.183451" lon="-1.592326">
   <ele>1246.00</ele>
   <time>2014-04-02T13:25:37Z</time>
  </trkpt>
  <trkpt lat="32.180767" lon="-1.590433">
   <ele>1244.00</ele>
   <time>2014-04-02T13:25:53Z</time>
  </trkpt>
  <trkpt lat="32.180268" lon="-1.590100">
   <ele>1244.00</ele>
   <time>2014-04-02T13:25:56Z</time>
  </trkpt>
  <trkpt lat="32.179922" lon="-1.589900">
   <ele>1244.00</ele>
   <time>2014-04-02T13:25:58Z</time>
  </trkpt>
  <trkpt lat="32.179568" lon="-1.589719">
   <ele>1244.00</ele>
   <time>2014-04-02T13:26:00Z</time>
  </trkpt>
  <trkpt lat="32.177033" lon="-1.588550">
   <ele>1240.00</ele>
   <time>2014-04-02T13:26:14Z</time>
  </trkpt>
  <trkpt lat="32.176667" lon="-1.588400">
   <ele>1240.00</ele>
   <time>2014-04-02T13:26:16Z</time>
  </trkpt>
  <trkpt lat="32.176102" lon="-1.588202">
   <ele>1239.00</ele>
   <time>2014-04-02T13:26:19Z</time>
  </trkpt>
  <trkpt lat="32.175714" lon="-1.588090">
   <ele>1238.00</ele>
   <time>2014-04-02T13:26:21Z</time>
  </trkpt>
  <trkpt lat="32.174929" lon="-1.587900">
   <ele>1236.00</ele>
   <time>2014-04-02T13:26:25Z</time>
  </trkpt>
  <trkpt lat="32.172945" lon="-1.587490">
   <ele>1232.00</ele>
   <time>2014-04-02T13:26:35Z</time>
  </trkpt>
  <trkpt lat="32.172754" lon="-1.587431">
   <ele>1232.00</ele>
   <time>2014-04-02T13:26:36Z</time>
  </trkpt>
  <trkpt lat="32.172568" lon="-1.587358">
   <ele>1232.00</ele>
   <time>2014-04-02T13:26:37Z</time>
  </trkpt>
  <trkpt lat="32.172388" lon="-1.587270">
   <ele>1232.00</ele>
   <time>2014-04-02T13:26:38Z</time>
  </trkpt>
  <trkpt lat="32.172212" lon="-1.587172">
   <ele>1232.00</ele>
   <time>2014-04-02T13:26:39Z</time>
  </trkpt>
  <trkpt lat="32.172040" lon="-1.587061">
   <ele>1232.00</ele>
   <time>2014-04-02T13:26:40Z</time>
  </trkpt>
  <trkpt lat="32.171873" lon="-1.586937">
   <ele>1232.00</ele>
   <time>2014-04-02T13:26:41Z</time>
  </trkpt>
  <trkpt lat="32.171710" lon="-1.586802">
   <ele>1232.00</ele>
   <time>2014-04-02T13:26:42Z</time>
  </trkpt>
  <trkpt lat="32.171550" lon="-1.586658">
   <ele>1232.00</ele>
   <time>2014-04-02T13:26:43Z</time>
  </trkpt>
  <trkpt lat="32.169589" lon="-1.584800">
   <ele>1227.00</ele>
   <time>2014-04-02T13:26:56Z</time>
  </trkpt>
  <trkpt lat="32.169433" lon="-1.584677">
   <ele>1226.00</ele>
   <time>2014-04-02T13:26:57Z</time>
  </trkpt>
  <trkpt lat="32.169271" lon="-1.584566">
   <ele>1226.00</ele>
   <time>2014-04-02T13:26:58Z</time>
  </trkpt>
  <trkpt lat="32.169103" lon="-1.584468">
   <ele>1225.00</ele>
   <time>2014-04-02T13:26:59Z</time>
  </trkpt>
  <trkpt lat="32.168928" lon="-1.584381">
   <ele>1224.00</ele>
   <time>2014-04-02T13:27:00Z</time>
  </trkpt>
  <trkpt lat="32.168747" lon="-1.584306">
   <ele>1224.00</ele>
   <time>2014-04-02T13:27:01Z</time>
  </trkpt>
  <trkpt lat="32.168371" lon="-1.584178">
   <ele>1222.00</ele>
   <time>2014-04-02T13:27:03Z</time>
  </trkpt>
  <trkpt lat="32.165373" lon="-1.583289">
   <ele>1210.00</ele>
   <time>2014-04-02T13:27:18Z</time>
  </trkpt>
  <trkpt lat="32.164774" lon="-1.583106">
   <ele>1209.00</ele>
   <time>2014-04-02T13:27:21Z</time>
  </trkpt>
  <trkpt lat="32.164579" lon="-1.583027">
   <ele>1208.00</ele>
   <time>2014-04-02T13:27:22Z</time>
  </trkpt>
  <trkpt lat="32.164391" lon="-1.582938">
   <ele>1208.00</ele>
   <time>2014-04-02T13:27:23Z</time>
  </trkpt>
  <trkpt lat="32.164209" lon="-1.582840">
   <ele>1208.00</ele>
   <time>2014-04-02T13:27:24Z</time>
  </trkpt>
  <trkpt lat="32.164032" lon="-1.582734">
   <ele>1208.00</ele>
   <time>2014-04-02T13:27:25Z</time>
  </trkpt>
  <trkpt lat="32.163861" lon="-1.582615">
   <ele>1207.00</ele>
   <time>2014-04-02T13:27:26Z</time>
  </trkpt>
  <trkpt lat="32.163697" lon="-1.582482">
   <ele>1207.00</ele>
   <time>2014-04-02T13:27:27Z</time>
  </trkpt>
  <trkpt lat="32.163540" lon="-1.582337">
   <ele>1206.00</ele>
   <time>2014-04-02T13:27:28Z</time>
  </trkpt>
  <trkpt lat="32.163387" lon="-1.582183">
   <ele>1205.00</ele>
   <time>2014-04-02T13:27:29Z</time>
  </trkpt>
  <trkpt lat="32.163089" lon="-1.581859">
   <ele>1203.00</ele>
   <time>2014-04-02T13:27:31Z</time>
  </trkpt>
  <trkpt lat="32.161422" lon="-1.580033">
   <ele>1184.00</ele>
   <time>2014-04-02T13:27:42Z</time>
  </trkpt>
  <trkpt lat="32.161283" lon="-1.579850">
   <ele>1182.00</ele>
   <time>2014-04-02T13:27:43Z</time>
  </trkpt>
  <trkpt lat="32.161154" lon="-1.579659">
   <ele>1181.00</ele>
   <time>2014-04-02T13:27:44Z</time>
  </trkpt>
  <trkpt lat="32.160914" lon="-1.579254">
   <ele>1178.00</ele>
   <time>2014-04-02T13:27:46Z</time>
  </trkpt>
  <trkpt lat="32.160696" lon="-1.578825">
   <ele>1176.00</ele>
   <time>2014-04-02T13:27:48Z</time>
  </trkpt>
  <trkpt lat="32.160501" lon="-1.578377">
   <ele>1173.00</ele>
   <time>2014-04-02T13:27:50Z</time>
  </trkpt>
  <trkpt lat="32.159060" lon="-1.574715">
   <ele>1159.00</ele>
   <time>2014-04-02T13:28:06Z</time>
  </trkpt>
  <trkpt lat="32.157687" lon="-1.571227">
   <ele>1152.00</ele>
   <time>2014-04-02T13:28:21Z</time>
  </trkpt>
  <trkpt lat="32.156299" lon="-1.567732">
   <ele>1144.00</ele>
   <time>2014-04-02T13:28:36Z</time>
  </trkpt>
  <trkpt lat="32.155037" lon="-1.564519">
   <ele>1138.00</ele>
   <time>2014-04-02T13:28:50Z</time>
  </trkpt>
  <trkpt lat="32.154966" lon="-1.564284">
   <ele>1138.00</ele>
   <time>2014-04-02T13:28:51Z</time>
  </trkpt>
  <trkpt lat="32.154909" lon="-1.564044">
   <ele>1137.00</ele>
   <time>2014-04-02T13:28:52Z</time>
  </trkpt>
  <trkpt lat="32.154865" lon="-1.563798">
   <ele>1137.00</ele>
   <time>2014-04-02T13:28:53Z</time>
  </trkpt>
  <trkpt lat="32.154836" lon="-1.563549">
   <ele>1136.00</ele>
   <time>2014-04-02T13:28:54Z</time>
  </trkpt>
  <trkpt lat="32.154820" lon="-1.563296">
   <ele>1136.00</ele>
   <time>2014-04-02T13:28:55Z</time>
  </trkpt>
  <trkpt lat="32.154816" lon="-1.563042">
   <ele>1135.00</ele>
   <time>2014-04-02T13:28:56Z</time>
  </trkpt>
  <trkpt lat="32.154846" lon="-1.561509">
   <ele>1131.00</ele>
   <time>2014-04-02T13:29:02Z</time>
  </trkpt>
  <trkpt lat="32.154965" lon="-1.557370">
   <ele>1126.00</ele>
   <time>2014-04-02T13:29:18Z</time>
  </trkpt>
  <trkpt lat="32.155047" lon="-1.553779">
   <ele>1126.00</ele>
   <time>2014-04-02T13:29:33Z</time>
  </trkpt>
  <trkpt lat="32.155146" lon="-1.549775">
   <ele>1127.00</ele>
   <time>2014-04-02T13:29:49Z</time>
  </trkpt>
  <trkpt lat="32.155234" lon="-1.546069">
   <ele>1127.00</ele>
   <time>2014-04-02T13:30:04Z</time>
  </trkpt>
  <trkpt lat="32.155317" lon="-1.542293">
   <ele>1123.00</ele>
   <time>2014-04-02T13:30:19Z</time>
  </trkpt>
  <trkpt lat="32.155410" lon="-1.538311">
   <ele>1122.00</ele>
   <time>2014-04-02T13:30:35Z</time>
  </trkpt>
  <trkpt lat="32.155449" lon="-1.536036">
   <ele>1114.00</ele>
   <time>2014-04-02T13:30:44Z</time>
  </trkpt>
  <trkpt lat="32.155427" lon="-1.535535">
   <ele>1112.00</ele>
   <time>2014-04-02T13:30:46Z</time>
  </trkpt>
  <trkpt lat="32.155404" lon="-1.535289">
   <ele>1112.00</ele>
   <time>2014-04-02T13:30:47Z</time>
  </trkpt>
  <trkpt lat="32.155373" lon="-1.535048">
   <ele>1112.00</ele>
   <time>2014-04-02T13:30:48Z</time>
  </trkpt>
  <trkpt lat="32.155332" lon="-1.534812">
   <ele>1112.00</ele>
   <time>2014-04-02T13:30:49Z</time>
  </trkpt>
  <trkpt lat="32.155280" lon="-1.534581">
   <ele>1111.00</ele>
   <time>2014-04-02T13:30:50Z</time>
  </trkpt>
  <trkpt lat="32.155220" lon="-1.534355">
   <ele>1112.00</ele>
   <time>2014-04-02T13:30:51Z</time>
  </trkpt>
  <trkpt lat="32.155150" lon="-1.534134">
   <ele>1112.00</ele>
   <time>2014-04-02T13:30:52Z</time>
  </trkpt>
  <trkpt lat="32.155072" lon="-1.533918">
   <ele>1112.00</ele>
   <time>2014-04-02T13:30:53Z</time>
  </trkpt>
  <trkpt lat="32.154987" lon="-1.533706">
   <ele>1112.00</ele>
   <time>2014-04-02T13:30:54Z</time>
  </trkpt>
  <trkpt lat="32.154378" lon="-1.532277">
   <ele>1113.00</ele>
   <time>2014-04-02T13:31:01Z</time>
  </trkpt>
  <trkpt lat="32.154317" lon="-1.532072">
   <ele>1112.00</ele>
   <time>2014-04-02T13:31:02Z</time>
  </trkpt>
  <trkpt lat="32.154264" lon="-1.531863">
   <ele>1111.00</ele>
   <time>2014-04-02T13:31:03Z</time>
  </trkpt>
  <trkpt lat="32.154219" lon="-1.531650">
   <ele>1110.00</ele>
   <time>2014-04-02T13:31:04Z</time>
  </trkpt>
  <trkpt lat="32.154180" lon="-1.531431">
   <ele>1109.00</ele>
   <time>2014-04-02T13:31:05Z</time>
  </trkpt>
  <trkpt lat="32.154150" lon="-1.531207">
   <ele>1108.00</ele>
   <time>2014-04-02T13:31:06Z</time>
  </trkpt>
  <trkpt lat="32.154128" lon="-1.530980">
   <ele>1106.00</ele>
   <time>2014-04-02T13:31:07Z</time>
  </trkpt>
  <trkpt lat="32.154113" lon="-1.530748">
   <ele>1105.00</ele>
   <time>2014-04-02T13:31:08Z</time>
  </trkpt>
  <trkpt lat="32.154106" lon="-1.530513">
   <ele>1103.00</ele>
   <time>2014-04-02T13:31:09Z</time>
  </trkpt>
  <trkpt lat="32.154107" lon="-1.530274">
   <ele>1102.00</ele>
   <time>2014-04-02T13:31:10Z</time>
  </trkpt>
  <trkpt lat="32.154118" lon="-1.530032">
   <ele>1101.00</ele>
   <time>2014-04-02T13:31:11Z</time>
  </trkpt>
  <trkpt lat="32.154138" lon="-1.529787">
   <ele>1100.00</ele>
   <time>2014-04-02T13:31:12Z</time>
  </trkpt>
  <trkpt lat="32.154170" lon="-1.529541">
   <ele>1099.00</ele>
   <time>2014-04-02T13:31:13Z</time>
  </trkpt>
  <trkpt lat="32.154211" lon="-1.529294">
   <ele>1099.00</ele>
   <time>2014-04-02T13:31:14Z</time>
  </trkpt>
  <trkpt lat="32.154262" lon="-1.529048">
   <ele>1098.00</ele>
   <time>2014-04-02T13:31:15Z</time>
  </trkpt>
  <trkpt lat="32.154324" lon="-1.528802">
   <ele>1097.00</ele>
   <time>2014-04-02T13:31:16Z</time>
  </trkpt>
  <trkpt lat="32.155350" lon="-1.525110">
   <ele>1089.00</ele>
   <time>2014-04-02T13:31:31Z</time>
  </trkpt>
  <trkpt lat="32.156378" lon="-1.521387">
   <ele>1082.00</ele>
   <time>2014-04-02T13:31:47Z</time>
  </trkpt>
  <trkpt lat="32.156903" lon="-1.519420">
   <ele>1079.00</ele>
   <time>2014-04-02T13:31:57Z</time>
  </trkpt>
  <trkpt lat="32.157062" lon="-1.518700">
   <ele>1077.00</ele>
   <time>2014-04-02T13:32:01Z</time>
  </trkpt>
  <trkpt lat="32.157126" lon="-1.518344">
   <ele>1077.00</ele>
   <time>2014-04-02T13:32:03Z</time>
  </trkpt>
  <trkpt lat="32.157534" lon="-1.515546">
   <ele>1077.00</ele>
   <time>2014-04-02T13:32:19Z</time>
  </trkpt>
  <trkpt lat="32.157912" lon="-1.512961">
   <ele>1076.00</ele>
   <time>2014-04-02T13:32:34Z</time>
  </trkpt>
  <trkpt lat="32.158353" lon="-1.509928">
   <ele>1076.00</ele>
   <time>2014-04-02T13:32:50Z</time>
  </trkpt>
  <trkpt lat="32.158816" lon="-1.506692">
   <ele>1074.00</ele>
   <time>2014-04-02T13:33:05Z</time>
  </trkpt>
  <trkpt lat="32.159326" lon="-1.503177">
   <ele>1073.00</ele>
   <time>2014-04-02T13:33:20Z</time>
  </trkpt>
  <trkpt lat="32.159900" lon="-1.499224">
   <ele>1069.00</ele>
   <time>2014-04-02T13:33:36Z</time>
  </trkpt>
  <trkpt lat="32.160445" lon="-1.495437">
   <ele>1065.00</ele>
   <time>2014-04-02T13:33:51Z</time>
  </trkpt>
  <trkpt lat="32.160857" lon="-1.492570">
   <ele>1063.00</ele>
   <time>2014-04-02T13:34:03Z</time>
  </trkpt>
  <trkpt lat="32.160878" lon="-1.492339">
   <ele>1062.00</ele>
   <time>2014-04-02T13:34:04Z</time>
  </trkpt>
  <trkpt lat="32.160891" lon="-1.492109">
   <ele>1062.00</ele>
   <time>2014-04-02T13:34:05Z</time>
  </trkpt>
  <trkpt lat="32.160894" lon="-1.491880">
   <ele>1061.00</ele>
   <time>2014-04-02T13:34:06Z</time>
  </trkpt>
  <trkpt lat="32.160888" lon="-1.491651">
   <ele>1060.00</ele>
   <time>2014-04-02T13:34:07Z</time>
  </trkpt>
  <trkpt lat="32.160873" lon="-1.491421">
   <ele>1059.00</ele>
   <time>2014-04-02T13:34:08Z</time>
  </trkpt>
  <trkpt lat="32.160849" lon="-1.491194">
   <ele>1058.00</ele>
   <time>2014-04-02T13:34:09Z</time>
  </trkpt>
  <trkpt lat="32.160782" lon="-1.490747">
   <ele>1057.00</ele>
   <time>2014-04-02T13:34:11Z</time>
  </trkpt>
  <trkpt lat="32.160740" lon="-1.490533">
   <ele>1057.00</ele>
   <time>2014-04-02T13:34:12Z</time>
  </trkpt>
  <trkpt lat="32.160689" lon="-1.490325">
   <ele>1057.00</ele>
   <time>2014-04-02T13:34:13Z</time>
  </trkpt>
  <trkpt lat="32.160628" lon="-1.490122">
   <ele>1056.00</ele>
   <time>2014-04-02T13:34:14Z</time>
  </trkpt>
  <trkpt lat="32.160559" lon="-1.489921">
   <ele>1056.00</ele>
   <time>2014-04-02T13:34:15Z</time>
  </trkpt>
  <trkpt lat="32.160403" lon="-1.489527">
   <ele>1055.00</ele>
   <time>2014-04-02T13:34:17Z</time>
  </trkpt>
  <trkpt lat="32.160317" lon="-1.489336">
   <ele>1055.00</ele>
   <time>2014-04-02T13:34:18Z</time>
  </trkpt>
  <trkpt lat="32.160225" lon="-1.489150">
   <ele>1055.00</ele>
   <time>2014-04-02T13:34:19Z</time>
  </trkpt>
  <trkpt lat="32.160127" lon="-1.488970">
   <ele>1054.00</ele>
   <time>2014-04-02T13:34:20Z</time>
  </trkpt>
  <trkpt lat="32.160022" lon="-1.488796">
   <ele>1054.00</ele>
   <time>2014-04-02T13:34:21Z</time>
  </trkpt>
  <trkpt lat="32.159910" lon="-1.488626">
   <ele>1054.00</ele>
   <time>2014-04-02T13:34:22Z</time>
  </trkpt>
  <trkpt lat="32.159791" lon="-1.488462">
   <ele>1054.00</ele>
   <time>2014-04-02T13:34:23Z</time>
  </trkpt>
  <trkpt lat="32.159664" lon="-1.488306">
   <ele>1054.00</ele>
   <time>2014-04-02T13:34:24Z</time>
  </trkpt>
  <trkpt lat="32.159531" lon="-1.488158">
   <ele>1053.00</ele>
   <time>2014-04-02T13:34:25Z</time>
  </trkpt>
  <trkpt lat="32.158155" lon="-1.486716">
   <ele>1052.00</ele>
   <time>2014-04-02T13:34:35Z</time>
  </trkpt>
  <trkpt lat="32.158035" lon="-1.486554">
   <ele>1052.00</ele>
   <time>2014-04-02T13:34:36Z</time>
  </trkpt>
  <trkpt lat="32.157927" lon="-1.486382">
   <ele>1052.00</ele>
   <time>2014-04-02T13:34:37Z</time>
  </trkpt>
  <trkpt lat="32.157829" lon="-1.486200">
   <ele>1052.00</ele>
   <time>2014-04-02T13:34:38Z</time>
  </trkpt>
  <trkpt lat="32.157648" lon="-1.485816">
   <ele>1052.00</ele>
   <time>2014-04-02T13:34:40Z</time>
  </trkpt>
  <trkpt lat="32.157395" lon="-1.485232">
   <ele>1053.00</ele>
   <time>2014-04-02T13:34:43Z</time>
  </trkpt>
  <trkpt lat="32.157324" lon="-1.485031">
   <ele>1053.00</ele>
   <time>2014-04-02T13:34:44Z</time>
  </trkpt>
  <trkpt lat="32.157262" lon="-1.484825">
   <ele>1054.00</ele>
   <time>2014-04-02T13:34:45Z</time>
  </trkpt>
  <trkpt lat="32.157206" lon="-1.484614">
   <ele>1054.00</ele>
   <time>2014-04-02T13:34:46Z</time>
  </trkpt>
  <trkpt lat="32.157158" lon="-1.484399">
   <ele>1054.00</ele>
   <time>2014-04-02T13:34:47Z</time>
  </trkpt>
  <trkpt lat="32.157118" lon="-1.484181">
   <ele>1054.00</ele>
   <time>2014-04-02T13:34:48Z</time>
  </trkpt>
  <trkpt lat="32.157088" lon="-1.483960">
   <ele>1054.00</ele>
   <time>2014-04-02T13:34:49Z</time>
  </trkpt>
  <trkpt lat="32.157066" lon="-1.483736">
   <ele>1054.00</ele>
   <time>2014-04-02T13:34:50Z</time>
  </trkpt>
  <trkpt lat="32.157052" lon="-1.483510">
   <ele>1053.00</ele>
   <time>2014-04-02T13:34:51Z</time>
  </trkpt>
  <trkpt lat="32.157044" lon="-1.483281">
   <ele>1053.00</ele>
   <time>2014-04-02T13:34:52Z</time>
  </trkpt>
  <trkpt lat="32.157049" lon="-1.482813">
   <ele>1052.00</ele>
   <time>2014-04-02T13:34:54Z</time>
  </trkpt>
  <trkpt lat="32.157083" lon="-1.482097">
   <ele>1051.00</ele>
   <time>2014-04-02T13:34:57Z</time>
  </trkpt>
  <trkpt lat="32.157355" lon="-1.478208">
   <ele>1045.00</ele>
   <time>2014-04-02T13:35:13Z</time>
  </trkpt>
  <trkpt lat="32.157578" lon="-1.474681">
   <ele>1041.00</ele>
   <time>2014-04-02T13:35:28Z</time>
  </trkpt>
  <trkpt lat="32.157805" lon="-1.471026">
   <ele>1037.00</ele>
   <time>2014-04-02T13:35:43Z</time>
  </trkpt>
  <trkpt lat="32.158050" lon="-1.467086">
   <ele>1037.00</ele>
   <time>2014-04-02T13:35:59Z</time>
  </trkpt>
  <trkpt lat="32.158284" lon="-1.463392">
   <ele>1035.00</ele>
   <time>2014-04-02T13:36:14Z</time>
  </trkpt>
  <trkpt lat="32.158509" lon="-1.459796">
   <ele>1034.00</ele>
   <time>2014-04-02T13:36:29Z</time>
  </trkpt>
  <trkpt lat="32.158724" lon="-1.456647">
   <ele>1033.00</ele>
   <time>2014-04-02T13:36:43Z</time>
  </trkpt>
  <trkpt lat="32.158786" lon="-1.456193">
   <ele>1033.00</ele>
   <time>2014-04-02T13:36:45Z</time>
  </trkpt>
  <trkpt lat="32.158870" lon="-1.455740">
   <ele>1033.00</ele>
   <time>2014-04-02T13:36:47Z</time>
  </trkpt>
  <trkpt lat="32.159028" lon="-1.455082">
   <ele>1033.00</ele>
   <time>2014-04-02T13:36:50Z</time>
  </trkpt>
  <trkpt lat="32.159149" lon="-1.454657">
   <ele>1033.00</ele>
   <time>2014-04-02T13:36:52Z</time>
  </trkpt>
  <trkpt lat="32.159349" lon="-1.454038">
   <ele>1032.00</ele>
   <time>2014-04-02T13:36:55Z</time>
  </trkpt>
  <trkpt lat="32.159498" lon="-1.453640">
   <ele>1031.00</ele>
   <time>2014-04-02T13:36:57Z</time>
  </trkpt>
  <trkpt lat="32.159663" lon="-1.453248">
   <ele>1031.00</ele>
   <time>2014-04-02T13:36:59Z</time>
  </trkpt>
  <trkpt lat="32.160197" lon="-1.452137">
   <ele>1029.00</ele>
   <time>2014-04-02T13:37:05Z</time>
  </trkpt>
  <trkpt lat="32.161572" lon="-1.449354">
   <ele>1025.00</ele>
   <time>2014-04-02T13:37:20Z</time>
  </trkpt>
  <trkpt lat="32.162987" lon="-1.446466">
   <ele>1020.00</ele>
   <time>2014-04-02T13:37:35Z</time>
  </trkpt>
  <trkpt lat="32.164072" lon="-1.444202">
   <ele>1016.00</ele>
   <time>2014-04-02T13:37:47Z</time>
  </trkpt>
  <trkpt lat="32.164229" lon="-1.443811">
   <ele>1015.00</ele>
   <time>2014-04-02T13:37:49Z</time>
  </trkpt>
  <trkpt lat="32.164435" lon="-1.443202">
   <ele>1015.00</ele>
   <time>2014-04-02T13:37:52Z</time>
  </trkpt>
  <trkpt lat="32.164549" lon="-1.442785">
   <ele>1014.00</ele>
   <time>2014-04-02T13:37:54Z</time>
  </trkpt>
  <trkpt lat="32.164642" lon="-1.442362">
   <ele>1013.00</ele>
   <time>2014-04-02T13:37:56Z</time>
  </trkpt>
  <trkpt lat="32.164715" lon="-1.441936">
   <ele>1013.00</ele>
   <time>2014-04-02T13:37:58Z</time>
  </trkpt>
  <trkpt lat="32.164770" lon="-1.441507">
   <ele>1013.00</ele>
   <time>2014-04-02T13:38:00Z</time>
  </trkpt>
  <trkpt lat="32.164805" lon="-1.441072">
   <ele>1012.00</ele>
   <time>2014-04-02T13:38:02Z</time>
  </trkpt>
  <trkpt lat="32.164834" lon="-1.440409">
   <ele>1012.00</ele>
   <time>2014-04-02T13:38:05Z</time>
  </trkpt>
  <trkpt lat="32.164922" lon="-1.437221">
   <ele>1007.00</ele>
   <time>2014-04-02T13:38:20Z</time>
  </trkpt>
  <trkpt lat="32.165047" lon="-1.433080">
   <ele>1004.00</ele>
   <time>2014-04-02T13:38:36Z</time>
  </trkpt>
  <trkpt lat="32.165166" lon="-1.429053">
   <ele>999.00</ele>
   <time>2014-04-02T13:38:51Z</time>
  </trkpt>
  <trkpt lat="32.165286" lon="-1.424992">
   <ele>995.00</ele>
   <time>2014-04-02T13:39:06Z</time>
  </trkpt>
  <trkpt lat="32.165421" lon="-1.420707">
   <ele>993.00</ele>
   <time>2014-04-02T13:39:22Z</time>
  </trkpt>
  <trkpt lat="32.165550" lon="-1.416715">
   <ele>990.00</ele>
   <time>2014-04-02T13:39:37Z</time>
  </trkpt>
  <trkpt lat="32.165669" lon="-1.412741">
   <ele>989.00</ele>
   <time>2014-04-02T13:39:52Z</time>
  </trkpt>
  <trkpt lat="32.165675" lon="-1.412218">
   <ele>989.00</ele>
   <time>2014-04-02T13:39:54Z</time>
  </trkpt>
  <trkpt lat="32.165660" lon="-1.411702">
   <ele>989.00</ele>
   <time>2014-04-02T13:39:56Z</time>
  </trkpt>
  <trkpt lat="32.165620" lon="-1.411193">
   <ele>989.00</ele>
   <time>2014-04-02T13:39:58Z</time>
  </trkpt>
  <trkpt lat="32.165503" lon="-1.410204">
   <ele>989.00</ele>
   <time>2014-04-02T13:40:02Z</time>
  </trkpt>
  <trkpt lat="32.165030" lon="-1.406561">
   <ele>987.00</ele>
   <time>2014-04-02T13:40:17Z</time>
  </trkpt>
  <trkpt lat="32.164562" lon="-1.402876">
   <ele>985.00</ele>
   <time>2014-04-02T13:40:32Z</time>
  </trkpt>
  <trkpt lat="32.164049" lon="-1.398808">
   <ele>983.00</ele>
   <time>2014-04-02T13:40:48Z</time>
  </trkpt>
  <trkpt lat="32.163552" lon="-1.394908">
   <ele>982.00</ele>
   <time>2014-04-02T13:41:03Z</time>
  </trkpt>
  <trkpt lat="32.163046" lon="-1.390933">
   <ele>981.00</ele>
   <time>2014-04-02T13:41:18Z</time>
  </trkpt>
  <trkpt lat="32.162505" lon="-1.386673">
   <ele>979.00</ele>
   <time>2014-04-02T13:41:34Z</time>
  </trkpt>
  <trkpt lat="32.161994" lon="-1.382633">
   <ele>977.00</ele>
   <time>2014-04-02T13:41:49Z</time>
  </trkpt>
  <trkpt lat="32.161476" lon="-1.378562">
   <ele>975.00</ele>
   <time>2014-04-02T13:42:04Z</time>
  </trkpt>
  <trkpt lat="32.160923" lon="-1.374281">
   <ele>975.00</ele>
   <time>2014-04-02T13:42:20Z</time>
  </trkpt>
  <trkpt lat="32.160409" lon="-1.370275">
   <ele>972.00</ele>
   <time>2014-04-02T13:42:35Z</time>
  </trkpt>
  <trkpt lat="32.159851" lon="-1.365947">
   <ele>970.00</ele>
   <time>2014-04-02T13:42:51Z</time>
  </trkpt>
  <trkpt lat="32.159338" lon="-1.361797">
   <ele>969.00</ele>
   <time>2014-04-02T13:43:06Z</time>
  </trkpt>
  <trkpt lat="32.158984" lon="-1.357648">
   <ele>969.00</ele>
   <time>2014-04-02T13:43:21Z</time>
  </trkpt>
  <trkpt lat="32.158618" lon="-1.353220">
   <ele>968.00</ele>
   <time>2014-04-02T13:43:37Z</time>
  </trkpt>
  <trkpt lat="32.158272" lon="-1.349097">
   <ele>963.00</ele>
   <time>2014-04-02T13:43:52Z</time>
  </trkpt>
  <trkpt lat="32.157934" lon="-1.345167">
   <ele>959.00</ele>
   <time>2014-04-02T13:44:07Z</time>
  </trkpt>
  <trkpt lat="32.157592" lon="-1.341133">
   <ele>953.00</ele>
   <time>2014-04-02T13:44:22Z</time>
  </trkpt>
  <trkpt lat="32.157246" lon="-1.336995">
   <ele>947.00</ele>
   <time>2014-04-02T13:44:37Z</time>
  </trkpt>
  <trkpt lat="32.156870" lon="-1.332651">
   <ele>943.00</ele>
   <time>2014-04-02T13:44:53Z</time>
  </trkpt>
  <trkpt lat="32.156532" lon="-1.328718">
   <ele>940.00</ele>
   <time>2014-04-02T13:45:08Z</time>
  </trkpt>
  <trkpt lat="32.156222" lon="-1.325126">
   <ele>938.00</ele>
   <time>2014-04-02T13:45:23Z</time>
  </trkpt>
  <trkpt lat="32.155937" lon="-1.322012">
   <ele>936.00</ele>
   <time>2014-04-02T13:45:37Z</time>
  </trkpt>
  <trkpt lat="32.155863" lon="-1.321558">
   <ele>936.00</ele>
   <time>2014-04-02T13:45:39Z</time>
  </trkpt>
  <trkpt lat="32.155768" lon="-1.321111">
   <ele>935.00</ele>
   <time>2014-04-02T13:45:41Z</time>
  </trkpt>
  <trkpt lat="32.155017" lon="-1.318026">
   <ele>934.00</ele>
   <time>2014-04-02T13:45:56Z</time>
  </trkpt>
  <trkpt lat="32.154407" lon="-1.315507">
   <ele>933.00</ele>
   <time>2014-04-02T13:46:08Z</time>
  </trkpt>
  <trkpt lat="32.154334" lon="-1.315094">
   <ele>933.00</ele>
   <time>2014-04-02T13:46:10Z</time>
  </trkpt>
  <trkpt lat="32.153902" lon="-1.312134">
   <ele>929.00</ele>
   <time>2014-04-02T13:46:25Z</time>
  </trkpt>
  <trkpt lat="32.153507" lon="-1.309297">
   <ele>926.00</ele>
   <time>2014-04-02T13:46:38Z</time>
  </trkpt>
  <trkpt lat="32.153338" lon="-1.308020">
   <ele>924.00</ele>
   <time>2014-04-02T13:46:43Z</time>
  </trkpt>
  <trkpt lat="32.152691" lon="-1.303768">
   <ele>919.00</ele>
   <time>2014-04-02T13:46:58Z</time>
  </trkpt>
  <trkpt lat="32.152117" lon="-1.299846">
   <ele>915.00</ele>
   <time>2014-04-02T13:47:13Z</time>
  </trkpt>
  <trkpt lat="32.151602" lon="-1.296369">
   <ele>916.00</ele>
   <time>2014-04-02T13:47:28Z</time>
  </trkpt>
  <trkpt lat="32.151097" lon="-1.292919">
   <ele>918.00</ele>
   <time>2014-04-02T13:47:43Z</time>
  </trkpt>
  <trkpt lat="32.150618" lon="-1.289641">
   <ele>920.00</ele>
   <time>2014-04-02T13:47:59Z</time>
  </trkpt>
  <trkpt lat="32.150142" lon="-1.286358">
   <ele>921.00</ele>
   <time>2014-04-02T13:48:14Z</time>
  </trkpt>
  <trkpt lat="32.149648" lon="-1.282977">
   <ele>919.00</ele>
   <time>2014-04-02T13:48:29Z</time>
  </trkpt>
  <trkpt lat="32.149056" lon="-1.279018">
   <ele>917.00</ele>
   <time>2014-04-02T13:48:44Z</time>
  </trkpt>
  <trkpt lat="32.148954" lon="-1.278391">
   <ele>917.00</ele>
   <time>2014-04-02T13:48:47Z</time>
  </trkpt>
  <trkpt lat="32.148894" lon="-1.278019">
   <ele>918.00</ele>
   <time>2014-04-02T13:48:51Z</time>
  </trkpt>
  <trkpt lat="32.148860" lon="-1.277759">
   <ele>918.00</ele>
   <time>2014-04-02T13:49:00Z</time>
  </trkpt>
  <trkpt lat="32.148613" lon="-1.275998">
   <ele>919.00</ele>
   <time>2014-04-02T13:49:15Z</time>
  </trkpt>
  <trkpt lat="32.148141" lon="-1.272792">
   <ele>923.00</ele>
   <time>2014-04-02T13:49:31Z</time>
  </trkpt>
  <trkpt lat="32.147623" lon="-1.269310">
   <ele>922.00</ele>
   <time>2014-04-02T13:49:46Z</time>
  </trkpt>
  <trkpt lat="32.147313" lon="-1.267156">
   <ele>922.00</ele>
   <time>2014-04-02T13:49:56Z</time>
  </trkpt>
  <trkpt lat="32.147268" lon="-1.266789">
   <ele>922.00</ele>
   <time>2014-04-02T13:49:58Z</time>
  </trkpt>
  <trkpt lat="32.146823" lon="-1.263953">
   <ele>928.00</ele>
   <time>2014-04-02T13:50:13Z</time>
  </trkpt>
  <trkpt lat="32.146714" lon="-1.263251">
   <ele>929.00</ele>
   <time>2014-04-02T13:50:18Z</time>
  </trkpt>
  <trkpt lat="32.146678" lon="-1.263001">
   <ele>930.00</ele>
   <time>2014-04-02T13:50:23Z</time>
  </trkpt>
  <trkpt lat="32.146436" lon="-1.261282">
   <ele>931.00</ele>
   <time>2014-04-02T13:50:37Z</time>
  </trkpt>
  <trkpt lat="32.146347" lon="-1.260736">
   <ele>932.00</ele>
   <time>2014-04-02T13:50:40Z</time>
  </trkpt>
  <trkpt lat="32.146261" lon="-1.260349">
   <ele>932.00</ele>
   <time>2014-04-02T13:50:42Z</time>
  </trkpt>
  <trkpt lat="32.146152" lon="-1.259956">
   <ele>933.00</ele>
   <time>2014-04-02T13:50:44Z</time>
  </trkpt>
  <trkpt lat="32.145215" lon="-1.256828">
   <ele>944.00</ele>
   <time>2014-04-02T13:50:59Z</time>
  </trkpt>
  <trkpt lat="32.145078" lon="-1.256426">
   <ele>945.00</ele>
   <time>2014-04-02T13:51:01Z</time>
  </trkpt>
  <trkpt lat="32.145001" lon="-1.256230">
   <ele>946.00</ele>
   <time>2014-04-02T13:51:02Z</time>
  </trkpt>
  <trkpt lat="32.144917" lon="-1.256037">
   <ele>947.00</ele>
   <time>2014-04-02T13:51:03Z</time>
  </trkpt>
  <trkpt lat="32.144727" lon="-1.255649">
   <ele>947.00</ele>
   <time>2014-04-02T13:51:05Z</time>
  </trkpt>
  <trkpt lat="32.143102" lon="-1.252653">
   <ele>947.00</ele>
   <time>2014-04-02T13:51:20Z</time>
  </trkpt>
  <trkpt lat="32.142885" lon="-1.252264">
   <ele>948.00</ele>
   <time>2014-04-02T13:51:22Z</time>
  </trkpt>
  <trkpt lat="32.142648" lon="-1.251890">
   <ele>948.00</ele>
   <time>2014-04-02T13:51:24Z</time>
  </trkpt>
  <trkpt lat="32.142519" lon="-1.251711">
   <ele>948.00</ele>
   <time>2014-04-02T13:51:25Z</time>
  </trkpt>
  <trkpt lat="32.142382" lon="-1.251537">
   <ele>949.00</ele>
   <time>2014-04-02T13:51:26Z</time>
  </trkpt>
  <trkpt lat="32.142238" lon="-1.251371">
   <ele>949.00</ele>
   <time>2014-04-02T13:51:27Z</time>
  </trkpt>
  <trkpt lat="32.141933" lon="-1.251050">
   <ele>949.00</ele>
   <time>2014-04-02T13:51:29Z</time>
  </trkpt>
  <trkpt lat="32.139966" lon="-1.249095">
   <ele>954.00</ele>
   <time>2014-04-02T13:51:42Z</time>
  </trkpt>
  <trkpt lat="32.139645" lon="-1.248826">
   <ele>955.00</ele>
   <time>2014-04-02T13:51:44Z</time>
  </trkpt>
  <trkpt lat="32.137101" lon="-1.246836">
   <ele>961.00</ele>
   <time>2014-04-02T13:52:00Z</time>
  </trkpt>
  <trkpt lat="32.136784" lon="-1.246609">
   <ele>962.00</ele>
   <time>2014-04-02T13:52:02Z</time>
  </trkpt>
  <trkpt lat="32.136452" lon="-1.246400">
   <ele>961.00</ele>
   <time>2014-04-02T13:52:04Z</time>
  </trkpt>
  <trkpt lat="32.135942" lon="-1.246107">
   <ele>959.00</ele>
   <time>2014-04-02T13:52:07Z</time>
  </trkpt>
  <trkpt lat="32.133395" lon="-1.244702">
   <ele>956.00</ele>
   <time>2014-04-02T13:52:22Z</time>
  </trkpt>
  <trkpt lat="32.131575" lon="-1.243671">
   <ele>956.00</ele>
   <time>2014-04-02T13:52:33Z</time>
  </trkpt>
  <trkpt lat="32.131274" lon="-1.243458">
   <ele>956.00</ele>
   <time>2014-04-02T13:52:35Z</time>
  </trkpt>
  <trkpt lat="32.131008" lon="-1.243223">
   <ele>956.00</ele>
   <time>2014-04-02T13:52:37Z</time>
  </trkpt>
  <trkpt lat="32.130809" lon="-1.242930">
   <ele>956.00</ele>
   <time>2014-04-02T13:52:39Z</time>
  </trkpt>
  <trkpt lat="32.130671" lon="-1.242608">
   <ele>954.00</ele>
   <time>2014-04-02T13:52:41Z</time>
  </trkpt>
  <trkpt lat="32.130482" lon="-1.242184">
   <ele>952.00</ele>
   <time>2014-04-02T13:52:44Z</time>
  </trkpt>
  <trkpt lat="32.130322" lon="-1.241934">
   <ele>951.00</ele>
   <time>2014-04-02T13:52:46Z</time>
  </trkpt>
  <trkpt lat="32.130134" lon="-1.241706">
   <ele>949.00</ele>
   <time>2014-04-02T13:52:48Z</time>
  </trkpt>
  <trkpt lat="32.129937" lon="-1.241501">
   <ele>947.00</ele>
   <time>2014-04-02T13:52:50Z</time>
  </trkpt>
  <trkpt lat="32.128771" lon="-1.240312">
   <ele>942.00</ele>
   <time>2014-04-02T13:53:05Z</time>
  </trkpt>
  <trkpt lat="32.128172" lon="-1.239749">
   <ele>938.00</ele>
   <time>2014-04-02T13:53:17Z</time>
  </trkpt>
  <trkpt lat="32.127001" lon="-1.238700">
   <ele>937.00</ele>
   <time>2014-04-02T13:53:32Z</time>
  </trkpt>
  <trkpt lat="32.125845" lon="-1.237602">
   <ele>937.00</ele>
   <time>2014-04-02T13:53:46Z</time>
  </trkpt>
  <trkpt lat="32.124399" lon="-1.236239">
   <ele>934.00</ele>
   <time>2014-04-02T13:54:01Z</time>
  </trkpt>
  <trkpt lat="32.122981" lon="-1.234886">
   <ele>931.00</ele>
   <time>2014-04-02T13:54:16Z</time>
  </trkpt>
  <trkpt lat="32.121695" lon="-1.233646">
   <ele>928.00</ele>
   <time>2014-04-02T13:54:31Z</time>
  </trkpt>
  <trkpt lat="32.121010" lon="-1.233027">
   <ele>928.00</ele>
   <time>2014-04-02T13:54:40Z</time>
  </trkpt>
  <trkpt lat="32.119900" lon="-1.231989">
   <ele>925.00</ele>
   <time>2014-04-02T13:54:55Z</time>
  </trkpt>
  <trkpt lat="32.119741" lon="-1.231864">
   <ele>924.00</ele>
   <time>2014-04-02T13:54:57Z</time>
  </trkpt>
  <trkpt lat="32.119575" lon="-1.231763">
   <ele>924.00</ele>
   <time>2014-04-02T13:54:59Z</time>
  </trkpt>
  <trkpt lat="32.119406" lon="-1.231682">
   <ele>924.00</ele>
   <time>2014-04-02T13:55:01Z</time>
  </trkpt>
  <trkpt lat="32.119161" lon="-1.231589">
   <ele>924.00</ele>
   <time>2014-04-02T13:55:04Z</time>
  </trkpt>
  <trkpt lat="32.118917" lon="-1.231532">
   <ele>924.00</ele>
   <time>2014-04-02T13:55:07Z</time>
  </trkpt>
  <trkpt lat="32.118591" lon="-1.231484">
   <ele>924.00</ele>
   <time>2014-04-02T13:55:11Z</time>
  </trkpt>
  <trkpt lat="32.118355" lon="-1.231471">
   <ele>923.00</ele>
   <time>2014-04-02T13:55:14Z</time>
  </trkpt>
  <trkpt lat="32.118114" lon="-1.231476">
   <ele>921.00</ele>
   <time>2014-04-02T13:55:17Z</time>
  </trkpt>
  <trkpt lat="32.117870" lon="-1.231472">
   <ele>923.00</ele>
   <time>2014-04-02T13:55:20Z</time>
  </trkpt>
  <trkpt lat="32.116808" lon="-1.231456">
   <ele>922.00</ele>
   <time>2014-04-02T13:55:35Z</time>
  </trkpt>
  <trkpt lat="32.116558" lon="-1.231454">
   <ele>921.00</ele>
   <time>2014-04-02T13:55:40Z</time>
  </trkpt>
  <trkpt lat="32.116371" lon="-1.231511">
   <ele>921.00</ele>
   <time>2014-04-02T13:55:44Z</time>
  </trkpt>
  <trkpt lat="32.116182" lon="-1.231448">
   <ele>920.00</ele>
   <time>2014-04-02T13:55:48Z</time>
  </trkpt>
  <trkpt lat="32.115960" lon="-1.231417">
   <ele>920.00</ele>
   <time>2014-04-02T13:55:52Z</time>
  </trkpt>
  <trkpt lat="32.115227" lon="-1.231410">
   <ele>922.00</ele>
   <time>2014-04-02T13:56:03Z</time>
  </trkpt>
  <trkpt lat="32.114990" lon="-1.231369">
   <ele>922.00</ele>
   <time>2014-04-02T13:56:06Z</time>
  </trkpt>
  <trkpt lat="32.114737" lon="-1.231291">
   <ele>922.00</ele>
   <time>2014-04-02T13:56:09Z</time>
  </trkpt>
  <trkpt lat="32.114308" lon="-1.231134">
   <ele>920.00</ele>
   <time>2014-04-02T13:56:14Z</time>
  </trkpt>
  <trkpt lat="32.113551" lon="-1.230832">
   <ele>918.00</ele>
   <time>2014-04-02T13:56:25Z</time>
  </trkpt>
  <trkpt lat="32.113361" lon="-1.230758">
   <ele>918.00</ele>
   <time>2014-04-02T13:56:28Z</time>
  </trkpt>
  <trkpt lat="32.112284" lon="-1.230440">
   <ele>917.00</ele>
   <time>2014-04-02T13:56:44Z</time>
  </trkpt>
  <trkpt lat="32.111812" lon="-1.230291">
   <ele>917.00</ele>
   <time>2014-04-02T13:56:51Z</time>
  </trkpt>
  <trkpt lat="32.111612" lon="-1.230208">
   <ele>917.00</ele>
   <time>2014-04-02T13:56:54Z</time>
  </trkpt>
  <trkpt lat="32.111417" lon="-1.230102">
   <ele>917.00</ele>
   <time>2014-04-02T13:56:57Z</time>
  </trkpt>
  <trkpt lat="32.111228" lon="-1.229982">
   <ele>917.00</ele>
   <time>2014-04-02T13:57:00Z</time>
  </trkpt>
  <trkpt lat="32.111044" lon="-1.229870">
   <ele>917.00</ele>
   <time>2014-04-02T13:57:03Z</time>
  </trkpt>
  <trkpt lat="32.110847" lon="-1.229809">
   <ele>917.00</ele>
   <time>2014-04-02T13:57:06Z</time>
  </trkpt>
  <trkpt lat="32.110360" lon="-1.229674">
   <ele>916.00</ele>
   <time>2014-04-02T13:57:13Z</time>
  </trkpt>
  <trkpt lat="32.109332" lon="-1.229384">
   <ele>913.00</ele>
   <time>2014-04-02T13:57:28Z</time>
  </trkpt>
  <trkpt lat="32.108957" lon="-1.229274">
   <ele>913.00</ele>
   <time>2014-04-02T13:57:38Z</time>
  </trkpt>
  <trkpt lat="32.108962" lon="-1.229275">
   <ele>914.00</ele>
   <time>2014-04-02T13:57:53Z</time>
  </trkpt>
  <trkpt lat="32.108819" lon="-1.229383">
   <ele>912.00</ele>
   <time>2014-04-02T13:58:05Z</time>
  </trkpt>
  <trkpt lat="32.108770" lon="-1.229641">
   <ele>911.00</ele>
   <time>2014-04-02T13:58:09Z</time>
  </trkpt>
  <trkpt lat="32.108728" lon="-1.229848">
   <ele>911.00</ele>
   <time>2014-04-02T13:58:12Z</time>
  </trkpt>
  <trkpt lat="32.108642" lon="-1.230100">
   <ele>910.00</ele>
   <time>2014-04-02T13:58:16Z</time>
  </trkpt>
  <trkpt lat="32.108523" lon="-1.230407">
   <ele>910.00</ele>
   <time>2014-04-02T13:58:21Z</time>
  </trkpt>
  <trkpt lat="32.108499" lon="-1.230645">
   <ele>910.00</ele>
   <time>2014-04-02T13:58:26Z</time>
  </trkpt>
  <trkpt lat="32.108654" lon="-1.230741">
   <ele>911.00</ele>
   <time>2014-04-02T13:58:31Z</time>
  </trkpt>
  <trkpt lat="32.108731" lon="-1.230935">
   <ele>911.00</ele>
   <time>2014-04-02T13:58:38Z</time>
  </trkpt>
  <trkpt lat="32.108913" lon="-1.230998">
   <ele>915.00</ele>
   <time>2014-04-02T13:58:44Z</time>
  </trkpt>
  <trkpt lat="32.109114" lon="-1.231054">
   <ele>916.00</ele>
   <time>2014-04-02T13:58:51Z</time>
  </trkpt>
  <trkpt lat="32.109304" lon="-1.231111">
   <ele>915.00</ele>
   <time>2014-04-02T13:58:57Z</time>
  </trkpt>
  <trkpt lat="32.109512" lon="-1.231153">
   <ele>915.00</ele>
   <time>2014-04-02T13:59:02Z</time>
  </trkpt>
  <trkpt lat="32.109731" lon="-1.231209">
   <ele>915.00</ele>
   <time>2014-04-02T13:59:07Z</time>
  </trkpt>
  <trkpt lat="32.110093" lon="-1.231292">
   <ele>916.00</ele>
   <time>2014-04-02T13:59:15Z</time>
  </trkpt>
  <trkpt lat="32.110267" lon="-1.231349">
   <ele>916.00</ele>
   <time>2014-04-02T13:59:19Z</time>
  </trkpt>
  <trkpt lat="32.110434" lon="-1.231258">
   <ele>916.00</ele>
   <time>2014-04-02T13:59:24Z</time>
  </trkpt>
  <trkpt lat="32.110646" lon="-1.231263">
   <ele>916.00</ele>
   <time>2014-04-02T13:59:29Z</time>
  </trkpt>
  <trkpt lat="32.111324" lon="-1.231425">
   <ele>916.00</ele>
   <time>2014-04-02T13:59:41Z</time>
  </trkpt>
  <trkpt lat="32.111479" lon="-1.231358">
   <ele>917.00</ele>
   <time>2014-04-02T13:59:45Z</time>
  </trkpt>
  <trkpt lat="32.111546" lon="-1.231088">
   <ele>916.00</ele>
   <time>2014-04-02T13:59:49Z</time>
  </trkpt>
  <trkpt lat="32.111639" lon="-1.230902">
   <ele>916.00</ele>
   <time>2014-04-02T13:59:52Z</time>
  </trkpt>
  <trkpt lat="32.111712" lon="-1.230657">
   <ele>916.00</ele>
   <time>2014-04-02T13:59:56Z</time>
  </trkpt>
  <trkpt lat="32.111772" lon="-1.230373">
   <ele>915.00</ele>
   <time>2014-04-02T14:00:01Z</time>
  </trkpt>
  <trkpt lat="32.111644" lon="-1.230204">
   <ele>914.00</ele>
   <time>2014-04-02T14:00:07Z</time>
  </trkpt>
  <trkpt lat="32.111460" lon="-1.230103">
   <ele>914.00</ele>
   <time>2014-04-02T14:00:11Z</time>
  </trkpt>
  <trkpt lat="32.111208" lon="-1.229951">
   <ele>914.00</ele>
   <time>2014-04-02T14:00:16Z</time>
  </trkpt>
  <trkpt lat="32.111019" lon="-1.229844">
   <ele>914.00</ele>
   <time>2014-04-02T14:00:20Z</time>
  </trkpt>
  <trkpt lat="32.110809" lon="-1.229790">
   <ele>915.00</ele>
   <time>2014-04-02T14:00:24Z</time>
  </trkpt>
  <trkpt lat="32.110332" lon="-1.229662">
   <ele>914.00</ele>
   <time>2014-04-02T14:00:32Z</time>
  </trkpt>
  <trkpt lat="32.109953" lon="-1.229551">
   <ele>912.00</ele>
   <time>2014-04-02T14:00:38Z</time>
  </trkpt>
  <trkpt lat="32.109767" lon="-1.229498">
   <ele>910.00</ele>
   <time>2014-04-02T14:00:41Z</time>
  </trkpt>
  <trkpt lat="32.109580" lon="-1.229449">
   <ele>909.00</ele>
   <time>2014-04-02T14:00:44Z</time>
  </trkpt>
  <trkpt lat="32.108967" lon="-1.229273">
   <ele>908.00</ele>
   <time>2014-04-02T14:00:55Z</time>
  </trkpt>
  <trkpt lat="32.108890" lon="-1.229069">
   <ele>908.00</ele>
   <time>2014-04-02T14:01:00Z</time>
  </trkpt>
  <trkpt lat="32.108960" lon="-1.228734">
   <ele>910.00</ele>
   <time>2014-04-02T14:01:05Z</time>
  </trkpt>
  <trkpt lat="32.109063" lon="-1.228170">
   <ele>911.00</ele>
   <time>2014-04-02T14:01:13Z</time>
  </trkpt>
  <trkpt lat="32.109065" lon="-1.227947">
   <ele>910.00</ele>
   <time>2014-04-02T14:01:16Z</time>
  </trkpt>
  <trkpt lat="32.109010" lon="-1.227734">
   <ele>910.00</ele>
   <time>2014-04-02T14:01:19Z</time>
  </trkpt>
  <trkpt lat="32.108885" lon="-1.227547">
   <ele>910.00</ele>
   <time>2014-04-02T14:01:22Z</time>
  </trkpt>
  <trkpt lat="32.108735" lon="-1.227372">
   <ele>909.00</ele>
   <time>2014-04-02T14:01:25Z</time>
  </trkpt>
  <trkpt lat="32.108570" lon="-1.227194">
   <ele>908.00</ele>
   <time>2014-04-02T14:01:28Z</time>
  </trkpt>
  <trkpt lat="32.108386" lon="-1.227022">
   <ele>907.00</ele>
   <time>2014-04-02T14:01:31Z</time>
  </trkpt>
  <trkpt lat="32.108186" lon="-1.226851">
   <ele>907.00</ele>
   <time>2014-04-02T14:01:34Z</time>
  </trkpt>
  <trkpt lat="32.107973" lon="-1.226710">
   <ele>906.00</ele>
   <time>2014-04-02T14:01:37Z</time>
  </trkpt>
  <trkpt lat="32.107743" lon="-1.226660">
   <ele>906.00</ele>
   <time>2014-04-02T14:01:40Z</time>
  </trkpt>
  <trkpt lat="32.107512" lon="-1.226610">
   <ele>905.00</ele>
   <time>2014-04-02T14:01:43Z</time>
  </trkpt>
  <trkpt lat="32.107282" lon="-1.226505">
   <ele>905.00</ele>
   <time>2014-04-02T14:01:46Z</time>
  </trkpt>
  <trkpt lat="32.107076" lon="-1.226343">
   <ele>905.00</ele>
   <time>2014-04-02T14:01:49Z</time>
  </trkpt>
  <trkpt lat="32.106925" lon="-1.226132">
   <ele>905.00</ele>
   <time>2014-04-02T14:01:52Z</time>
  </trkpt>
  <trkpt lat="32.106808" lon="-1.225919">
   <ele>905.00</ele>
   <time>2014-04-02T14:01:56Z</time>
  </trkpt>
  <trkpt lat="32.106611" lon="-1.225840">
   <ele>905.00</ele>
   <time>2014-04-02T14:02:01Z</time>
  </trkpt>
  <trkpt lat="32.106417" lon="-1.225793">
   <ele>905.00</ele>
   <time>2014-04-02T14:02:06Z</time>
  </trkpt>
  <trkpt lat="32.106251" lon="-1.225735">
   <ele>905.00</ele>
   <time>2014-04-02T14:02:12Z</time>
  </trkpt>
  <trkpt lat="32.106261" lon="-1.225727">
   <ele>905.00</ele>
   <time>2014-04-02T14:02:23Z</time>
  </trkpt>
 </trkseg>
</trk>
<trk>
 <name>GPS_20140404</name>
 <trkseg>
  <trkpt lat="32.106016" lon="-1.225388">
   <ele>907.00</ele>
   <time>2014-04-04T08:54:36Z</time>
  </trkpt>
  <trkpt lat="32.106018" lon="-1.225383">
   <ele>908.00</ele>
   <time>2014-04-04T08:54:51Z</time>
  </trkpt>
  <trkpt lat="32.106021" lon="-1.225381">
   <ele>908.00</ele>
   <time>2014-04-04T08:55:06Z</time>
  </trkpt>
  <trkpt lat="32.106022" lon="-1.225374">
   <ele>908.00</ele>
   <time>2014-04-04T08:55:22Z</time>
  </trkpt>
  <trkpt lat="32.106023" lon="-1.225371">
   <ele>908.00</ele>
   <time>2014-04-04T08:55:37Z</time>
  </trkpt>
  <trkpt lat="32.106021" lon="-1.225371">
   <ele>908.00</ele>
   <time>2014-04-04T08:55:52Z</time>
  </trkpt>
  <trkpt lat="32.106018" lon="-1.225371">
   <ele>909.00</ele>
   <time>2014-04-04T08:56:08Z</time>
  </trkpt>
  <trkpt lat="32.106021" lon="-1.225369">
   <ele>910.00</ele>
   <time>2014-04-04T08:56:23Z</time>
  </trkpt>
  <trkpt lat="32.106023" lon="-1.225368">
   <ele>909.00</ele>
   <time>2014-04-04T08:56:38Z</time>
  </trkpt>
  <trkpt lat="32.106028" lon="-1.225365">
   <ele>909.00</ele>
   <time>2014-04-04T08:56:54Z</time>
  </trkpt>
  <trkpt lat="32.106029" lon="-1.225364">
   <ele>909.00</ele>
   <time>2014-04-04T08:57:09Z</time>
  </trkpt>
  <trkpt lat="32.106030" lon="-1.225363">
   <ele>908.00</ele>
   <time>2014-04-04T08:57:24Z</time>
  </trkpt>
  <trkpt lat="32.106029" lon="-1.225360">
   <ele>906.00</ele>
   <time>2014-04-04T08:57:40Z</time>
  </trkpt>
  <trkpt lat="32.106027" lon="-1.225363">
   <ele>904.00</ele>
   <time>2014-04-04T08:57:55Z</time>
  </trkpt>
  <trkpt lat="32.106025" lon="-1.225368">
   <ele>902.00</ele>
   <time>2014-04-04T08:58:10Z</time>
  </trkpt>
  <trkpt lat="32.106027" lon="-1.225378">
   <ele>901.00</ele>
   <time>2014-04-04T08:58:25Z</time>
  </trkpt>
  <trkpt lat="32.106027" lon="-1.225384">
   <ele>901.00</ele>
   <time>2014-04-04T08:58:41Z</time>
  </trkpt>
  <trkpt lat="32.106027" lon="-1.225389">
   <ele>903.00</ele>
   <time>2014-04-04T08:58:56Z</time>
  </trkpt>
  <trkpt lat="32.106028" lon="-1.225388">
   <ele>903.00</ele>
   <time>2014-04-04T08:59:11Z</time>
  </trkpt>
  <trkpt lat="32.106131" lon="-1.225505">
   <ele>901.00</ele>
   <time>2014-04-04T08:59:27Z</time>
  </trkpt>
  <trkpt lat="32.106132" lon="-1.225503">
   <ele>900.00</ele>
   <time>2014-04-04T08:59:42Z</time>
  </trkpt>
  <trkpt lat="32.106209" lon="-1.225583">
   <ele>901.00</ele>
   <time>2014-04-04T08:59:58Z</time>
  </trkpt>
  <trkpt lat="32.106220" lon="-1.225789">
   <ele>901.00</ele>
   <time>2014-04-04T09:00:12Z</time>
  </trkpt>
  <trkpt lat="32.106315" lon="-1.225829">
   <ele>900.00</ele>
   <time>2014-04-04T09:00:28Z</time>
  </trkpt>
  <trkpt lat="32.106313" lon="-1.225827">
   <ele>900.00</ele>
   <time>2014-04-04T09:00:43Z</time>
  </trkpt>
  <trkpt lat="32.106313" lon="-1.225826">
   <ele>901.00</ele>
   <time>2014-04-04T09:00:58Z</time>
  </trkpt>
  <trkpt lat="32.106313" lon="-1.225825">
   <ele>901.00</ele>
   <time>2014-04-04T09:01:14Z</time>
  </trkpt>
  <trkpt lat="32.106348" lon="-1.225836">
   <ele>901.00</ele>
   <time>2014-04-04T09:01:29Z</time>
  </trkpt>
  <trkpt lat="32.106532" lon="-1.225890">
   <ele>902.00</ele>
   <time>2014-04-04T09:01:39Z</time>
  </trkpt>
  <trkpt lat="32.106666" lon="-1.225778">
   <ele>902.00</ele>
   <time>2014-04-04T09:01:49Z</time>
  </trkpt>
  <trkpt lat="32.106566" lon="-1.225589">
   <ele>901.00</ele>
   <time>2014-04-04T09:01:53Z</time>
  </trkpt>
  <trkpt lat="32.106361" lon="-1.225258">
   <ele>899.00</ele>
   <time>2014-04-04T09:01:58Z</time>
  </trkpt>
  <trkpt lat="32.106203" lon="-1.225095">
   <ele>897.00</ele>
   <time>2014-04-04T09:02:01Z</time>
  </trkpt>
  <trkpt lat="32.105941" lon="-1.224896">
   <ele>895.00</ele>
   <time>2014-04-04T09:02:05Z</time>
  </trkpt>
  <trkpt lat="32.105503" lon="-1.224515">
   <ele>890.00</ele>
   <time>2014-04-04T09:02:11Z</time>
  </trkpt>
  <trkpt lat="32.105285" lon="-1.224312">
   <ele>889.00</ele>
   <time>2014-04-04T09:02:14Z</time>
  </trkpt>
  <trkpt lat="32.105144" lon="-1.224157">
   <ele>887.00</ele>
   <time>2014-04-04T09:02:16Z</time>
  </trkpt>
  <trkpt lat="32.104760" lon="-1.223699">
   <ele>884.00</ele>
   <time>2014-04-04T09:02:21Z</time>
  </trkpt>
  <trkpt lat="32.104525" lon="-1.223386">
   <ele>882.00</ele>
   <time>2014-04-04T09:02:24Z</time>
  </trkpt>
  <trkpt lat="32.103371" lon="-1.221719">
   <ele>877.00</ele>
   <time>2014-04-04T09:02:40Z</time>
  </trkpt>
  <trkpt lat="32.103090" lon="-1.221293">
   <ele>877.00</ele>
   <time>2014-04-04T09:02:45Z</time>
  </trkpt>
  <trkpt lat="32.102984" lon="-1.221021">
   <ele>877.00</ele>
   <time>2014-04-04T09:02:48Z</time>
  </trkpt>
  <trkpt lat="32.102815" lon="-1.220532">
   <ele>877.00</ele>
   <time>2014-04-04T09:02:53Z</time>
  </trkpt>
  <trkpt lat="32.102644" lon="-1.220057">
   <ele>877.00</ele>
   <time>2014-04-04T09:02:58Z</time>
  </trkpt>
  <trkpt lat="32.102576" lon="-1.219772">
   <ele>877.00</ele>
   <time>2014-04-04T09:03:01Z</time>
  </trkpt>
  <trkpt lat="32.102609" lon="-1.219469">
   <ele>877.00</ele>
   <time>2014-04-04T09:03:04Z</time>
  </trkpt>
  <trkpt lat="32.102698" lon="-1.219169">
   <ele>877.00</ele>
   <time>2014-04-04T09:03:07Z</time>
  </trkpt>
  <trkpt lat="32.103287" lon="-1.217391">
   <ele>876.00</ele>
   <time>2014-04-04T09:03:24Z</time>
  </trkpt>
  <trkpt lat="32.103372" lon="-1.217119">
   <ele>876.00</ele>
   <time>2014-04-04T09:03:27Z</time>
  </trkpt>
  <trkpt lat="32.103469" lon="-1.216798">
   <ele>875.00</ele>
   <time>2014-04-04T09:03:31Z</time>
  </trkpt>
  <trkpt lat="32.103764" lon="-1.215885">
   <ele>875.00</ele>
   <time>2014-04-04T09:03:45Z</time>
  </trkpt>
  <trkpt lat="32.103833" lon="-1.216005">
   <ele>875.00</ele>
   <time>2014-04-04T09:03:51Z</time>
  </trkpt>
  <trkpt lat="32.103391" lon="-1.217391">
   <ele>873.00</ele>
   <time>2014-04-04T09:04:07Z</time>
  </trkpt>
  <trkpt lat="32.102863" lon="-1.219025">
   <ele>874.00</ele>
   <time>2014-04-04T09:04:22Z</time>
  </trkpt>
  <trkpt lat="32.102724" lon="-1.219462">
   <ele>875.00</ele>
   <time>2014-04-04T09:04:26Z</time>
  </trkpt>
  <trkpt lat="32.102687" lon="-1.219672">
   <ele>875.00</ele>
   <time>2014-04-04T09:04:28Z</time>
  </trkpt>
  <trkpt lat="32.102735" lon="-1.219983">
   <ele>876.00</ele>
   <time>2014-04-04T09:04:31Z</time>
  </trkpt>
  <trkpt lat="32.102804" lon="-1.220189">
   <ele>876.00</ele>
   <time>2014-04-04T09:04:33Z</time>
  </trkpt>
  <trkpt lat="32.102905" lon="-1.220505">
   <ele>876.00</ele>
   <time>2014-04-04T09:04:36Z</time>
  </trkpt>
  <trkpt lat="32.103043" lon="-1.220953">
   <ele>877.00</ele>
   <time>2014-04-04T09:04:41Z</time>
  </trkpt>
  <trkpt lat="32.103087" lon="-1.221161">
   <ele>877.00</ele>
   <time>2014-04-04T09:04:45Z</time>
  </trkpt>
  <trkpt lat="32.102895" lon="-1.221195">
   <ele>876.00</ele>
   <time>2014-04-04T09:04:51Z</time>
  </trkpt>
  <trkpt lat="32.102704" lon="-1.221070">
   <ele>876.00</ele>
   <time>2014-04-04T09:04:54Z</time>
  </trkpt>
  <trkpt lat="32.102189" lon="-1.220727">
   <ele>875.00</ele>
   <time>2014-04-04T09:05:01Z</time>
  </trkpt>
  <trkpt lat="32.101939" lon="-1.220612">
   <ele>875.00</ele>
   <time>2014-04-04T09:05:04Z</time>
  </trkpt>
  <trkpt lat="32.101761" lon="-1.220572">
   <ele>876.00</ele>
   <time>2014-04-04T09:05:06Z</time>
  </trkpt>
  <trkpt lat="32.101581" lon="-1.220554">
   <ele>876.00</ele>
   <time>2014-04-04T09:05:08Z</time>
  </trkpt>
  <trkpt lat="32.101398" lon="-1.220576">
   <ele>876.00</ele>
   <time>2014-04-04T09:05:10Z</time>
  </trkpt>
  <trkpt lat="32.099689" lon="-1.220953">
   <ele>875.00</ele>
   <time>2014-04-04T09:05:26Z</time>
  </trkpt>
  <trkpt lat="32.098104" lon="-1.221313">
   <ele>872.00</ele>
   <time>2014-04-04T09:05:40Z</time>
  </trkpt>
  <trkpt lat="32.097523" lon="-1.221494">
   <ele>872.00</ele>
   <time>2014-04-04T09:05:45Z</time>
  </trkpt>
  <trkpt lat="32.096601" lon="-1.221819">
   <ele>870.00</ele>
   <time>2014-04-04T09:05:53Z</time>
  </trkpt>
  <trkpt lat="32.096379" lon="-1.221917">
   <ele>870.00</ele>
   <time>2014-04-04T09:05:55Z</time>
  </trkpt>
  <trkpt lat="32.095952" lon="-1.222139">
   <ele>869.00</ele>
   <time>2014-04-04T09:05:59Z</time>
  </trkpt>
  <trkpt lat="32.095741" lon="-1.222263">
   <ele>869.00</ele>
   <time>2014-04-04T09:06:01Z</time>
  </trkpt>
  <trkpt lat="32.094673" lon="-1.222970">
   <ele>869.00</ele>
   <time>2014-04-04T09:06:11Z</time>
  </trkpt>
  <trkpt lat="32.093616" lon="-1.223697">
   <ele>869.00</ele>
   <time>2014-04-04T09:06:22Z</time>
  </trkpt>
  <trkpt lat="32.093432" lon="-1.223866">
   <ele>870.00</ele>
   <time>2014-04-04T09:06:25Z</time>
  </trkpt>
  <trkpt lat="32.093259" lon="-1.224004">
   <ele>871.00</ele>
   <time>2014-04-04T09:06:28Z</time>
  </trkpt>
  <trkpt lat="32.093044" lon="-1.224092">
   <ele>871.00</ele>
   <time>2014-04-04T09:06:31Z</time>
  </trkpt>
  <trkpt lat="32.092818" lon="-1.224239">
   <ele>871.00</ele>
   <time>2014-04-04T09:06:34Z</time>
  </trkpt>
  <trkpt lat="32.091259" lon="-1.225271">
   <ele>869.00</ele>
   <time>2014-04-04T09:06:50Z</time>
  </trkpt>
  <trkpt lat="32.090700" lon="-1.225659">
   <ele>869.00</ele>
   <time>2014-04-04T09:06:55Z</time>
  </trkpt>
  <trkpt lat="32.089411" lon="-1.226644">
   <ele>869.00</ele>
   <time>2014-04-04T09:07:06Z</time>
  </trkpt>
  <trkpt lat="32.087676" lon="-1.228009">
   <ele>870.00</ele>
   <time>2014-04-04T09:07:20Z</time>
  </trkpt>
  <trkpt lat="32.087409" lon="-1.228191">
   <ele>870.00</ele>
   <time>2014-04-04T09:07:22Z</time>
  </trkpt>
  <trkpt lat="32.087129" lon="-1.228352">
   <ele>870.00</ele>
   <time>2014-04-04T09:07:24Z</time>
  </trkpt>
  <trkpt lat="32.086835" lon="-1.228493">
   <ele>870.00</ele>
   <time>2014-04-04T09:07:26Z</time>
  </trkpt>
  <trkpt lat="32.084456" lon="-1.229573">
   <ele>871.00</ele>
   <time>2014-04-04T09:07:41Z</time>
  </trkpt>
  <trkpt lat="32.083531" lon="-1.229991">
   <ele>870.00</ele>
   <time>2014-04-04T09:07:47Z</time>
  </trkpt>
  <trkpt lat="32.082093" lon="-1.230582">
   <ele>865.00</ele>
   <time>2014-04-04T09:07:58Z</time>
  </trkpt>
  <trkpt lat="32.081876" lon="-1.230624">
   <ele>864.00</ele>
   <time>2014-04-04T09:08:00Z</time>
  </trkpt>
  <trkpt lat="32.081583" lon="-1.230639">
   <ele>862.00</ele>
   <time>2014-04-04T09:08:03Z</time>
  </trkpt>
  <trkpt lat="32.081402" lon="-1.230689">
   <ele>862.00</ele>
   <time>2014-04-04T09:08:05Z</time>
  </trkpt>
  <trkpt lat="32.081136" lon="-1.230788">
   <ele>861.00</ele>
   <time>2014-04-04T09:08:08Z</time>
  </trkpt>
  <trkpt lat="32.080910" lon="-1.230932">
   <ele>861.00</ele>
   <time>2014-04-04T09:08:11Z</time>
  </trkpt>
  <trkpt lat="32.080770" lon="-1.231181">
   <ele>861.00</ele>
   <time>2014-04-04T09:08:14Z</time>
  </trkpt>
  <trkpt lat="32.080674" lon="-1.231432">
   <ele>862.00</ele>
   <time>2014-04-04T09:08:17Z</time>
  </trkpt>
  <trkpt lat="32.080523" lon="-1.231580">
   <ele>862.00</ele>
   <time>2014-04-04T09:08:20Z</time>
  </trkpt>
  <trkpt lat="32.080328" lon="-1.231626">
   <ele>861.00</ele>
   <time>2014-04-04T09:08:23Z</time>
  </trkpt>
  <trkpt lat="32.080120" lon="-1.231587">
   <ele>860.00</ele>
   <time>2014-04-04T09:08:26Z</time>
  </trkpt>
  <trkpt lat="32.079790" lon="-1.231487">
   <ele>859.00</ele>
   <time>2014-04-04T09:08:31Z</time>
  </trkpt>
  <trkpt lat="32.079586" lon="-1.231512">
   <ele>858.00</ele>
   <time>2014-04-04T09:08:35Z</time>
  </trkpt>
  <trkpt lat="32.079445" lon="-1.231567">
   <ele>857.00</ele>
   <time>2014-04-04T09:08:50Z</time>
  </trkpt>
  <trkpt lat="32.079409" lon="-1.231582">
   <ele>857.00</ele>
   <time>2014-04-04T09:09:06Z</time>
  </trkpt>
  <trkpt lat="32.079261" lon="-1.231594">
   <ele>855.00</ele>
   <time>2014-04-04T09:09:22Z</time>
  </trkpt>
  <trkpt lat="32.079266" lon="-1.231595">
   <ele>857.00</ele>
   <time>2014-04-04T09:09:37Z</time>
  </trkpt>
  <trkpt lat="32.079266" lon="-1.231595">
   <ele>859.00</ele>
   <time>2014-04-04T09:09:53Z</time>
  </trkpt>
  <trkpt lat="32.079207" lon="-1.231681">
   <ele>859.00</ele>
   <time>2014-04-04T09:10:08Z</time>
  </trkpt>
  <trkpt lat="32.079331" lon="-1.231601">
   <ele>858.00</ele>
   <time>2014-04-04T09:10:23Z</time>
  </trkpt>
  <trkpt lat="32.079532" lon="-1.231502">
   <ele>858.00</ele>
   <time>2014-04-04T09:10:28Z</time>
  </trkpt>
  <trkpt lat="32.079730" lon="-1.231441">
   <ele>858.00</ele>
   <time>2014-04-04T09:10:32Z</time>
  </trkpt>
  <trkpt lat="32.079958" lon="-1.231468">
   <ele>857.00</ele>
   <time>2014-04-04T09:10:36Z</time>
  </trkpt>
  <trkpt lat="32.080230" lon="-1.231549">
   <ele>858.00</ele>
   <time>2014-04-04T09:10:40Z</time>
  </trkpt>
  <trkpt lat="32.080465" lon="-1.231562">
   <ele>858.00</ele>
   <time>2014-04-04T09:10:43Z</time>
  </trkpt>
  <trkpt lat="32.080675" lon="-1.231462">
   <ele>859.00</ele>
   <time>2014-04-04T09:10:46Z</time>
  </trkpt>
  <trkpt lat="32.080797" lon="-1.231246">
   <ele>858.00</ele>
   <time>2014-04-04T09:10:49Z</time>
  </trkpt>
  <trkpt lat="32.080900" lon="-1.230981">
   <ele>858.00</ele>
   <time>2014-04-04T09:10:52Z</time>
  </trkpt>
  <trkpt lat="32.081099" lon="-1.230788">
   <ele>857.00</ele>
   <time>2014-04-04T09:10:55Z</time>
  </trkpt>
  <trkpt lat="32.081270" lon="-1.230706">
   <ele>856.00</ele>
   <time>2014-04-04T09:10:57Z</time>
  </trkpt>
  <trkpt lat="32.081536" lon="-1.230607">
   <ele>856.00</ele>
   <time>2014-04-04T09:11:00Z</time>
  </trkpt>
  <trkpt lat="32.081719" lon="-1.230577">
   <ele>855.00</ele>
   <time>2014-04-04T09:11:02Z</time>
  </trkpt>
  <trkpt lat="32.081997" lon="-1.230566">
   <ele>855.00</ele>
   <time>2014-04-04T09:11:05Z</time>
  </trkpt>
  <trkpt lat="32.082193" lon="-1.230508">
   <ele>855.00</ele>
   <time>2014-04-04T09:11:07Z</time>
  </trkpt>
  <trkpt lat="32.083655" lon="-1.229891">
   <ele>859.00</ele>
   <time>2014-04-04T09:11:19Z</time>
  </trkpt>
  <trkpt lat="32.085878" lon="-1.228884">
   <ele>862.00</ele>
   <time>2014-04-04T09:11:34Z</time>
  </trkpt>
  <trkpt lat="32.087353" lon="-1.228198">
   <ele>862.00</ele>
   <time>2014-04-04T09:11:44Z</time>
  </trkpt>
  <trkpt lat="32.087645" lon="-1.228017">
   <ele>862.00</ele>
   <time>2014-04-04T09:11:46Z</time>
  </trkpt>
  <trkpt lat="32.087928" lon="-1.227810">
   <ele>862.00</ele>
   <time>2014-04-04T09:11:48Z</time>
  </trkpt>
  <trkpt lat="32.090027" lon="-1.226150">
   <ele>862.00</ele>
   <time>2014-04-04T09:12:03Z</time>
  </trkpt>
  <trkpt lat="32.090948" lon="-1.225458">
   <ele>862.00</ele>
   <time>2014-04-04T09:12:10Z</time>
  </trkpt>
  <trkpt lat="32.091856" lon="-1.224835">
   <ele>863.00</ele>
   <time>2014-04-04T09:12:17Z</time>
  </trkpt>
  <trkpt lat="32.093781" lon="-1.223541">
   <ele>864.00</ele>
   <time>2014-04-04T09:12:33Z</time>
  </trkpt>
  <trkpt lat="32.095573" lon="-1.222345">
   <ele>865.00</ele>
   <time>2014-04-04T09:12:48Z</time>
  </trkpt>
  <trkpt lat="32.096198" lon="-1.221976">
   <ele>865.00</ele>
   <time>2014-04-04T09:12:53Z</time>
  </trkpt>
  <trkpt lat="32.096460" lon="-1.221843">
   <ele>866.00</ele>
   <time>2014-04-04T09:12:55Z</time>
  </trkpt>
  <trkpt lat="32.096726" lon="-1.221723">
   <ele>866.00</ele>
   <time>2014-04-04T09:12:57Z</time>
  </trkpt>
  <trkpt lat="32.096992" lon="-1.221619">
   <ele>867.00</ele>
   <time>2014-04-04T09:12:59Z</time>
  </trkpt>
  <trkpt lat="32.097913" lon="-1.221303">
   <ele>869.00</ele>
   <time>2014-04-04T09:13:06Z</time>
  </trkpt>
  <trkpt lat="32.098170" lon="-1.221235">
   <ele>869.00</ele>
   <time>2014-04-04T09:13:08Z</time>
  </trkpt>
  <trkpt lat="32.098426" lon="-1.221181">
   <ele>870.00</ele>
   <time>2014-04-04T09:13:10Z</time>
  </trkpt>
  <trkpt lat="32.100536" lon="-1.220721">
   <ele>872.00</ele>
   <time>2014-04-04T09:13:26Z</time>
  </trkpt>
  <trkpt lat="32.101469" lon="-1.220519">
   <ele>872.00</ele>
   <time>2014-04-04T09:13:33Z</time>
  </trkpt>
  <trkpt lat="32.101730" lon="-1.220498">
   <ele>873.00</ele>
   <time>2014-04-04T09:13:35Z</time>
  </trkpt>
  <trkpt lat="32.101991" lon="-1.220543">
   <ele>872.00</ele>
   <time>2014-04-04T09:13:37Z</time>
  </trkpt>
  <trkpt lat="32.102245" lon="-1.220646">
   <ele>873.00</ele>
   <time>2014-04-04T09:13:39Z</time>
  </trkpt>
  <trkpt lat="32.102479" lon="-1.220783">
   <ele>872.00</ele>
   <time>2014-04-04T09:13:41Z</time>
  </trkpt>
  <trkpt lat="32.102699" lon="-1.220926">
   <ele>872.00</ele>
   <time>2014-04-04T09:13:43Z</time>
  </trkpt>
  <trkpt lat="32.102905" lon="-1.221073">
   <ele>872.00</ele>
   <time>2014-04-04T09:13:45Z</time>
  </trkpt>
  <trkpt lat="32.103098" lon="-1.221246">
   <ele>872.00</ele>
   <time>2014-04-04T09:13:47Z</time>
  </trkpt>
  <trkpt lat="32.103283" lon="-1.221466">
   <ele>872.00</ele>
   <time>2014-04-04T09:13:49Z</time>
  </trkpt>
  <trkpt lat="32.103463" lon="-1.221742">
   <ele>872.00</ele>
   <time>2014-04-04T09:13:51Z</time>
  </trkpt>
  <trkpt lat="32.103652" lon="-1.222031">
   <ele>872.00</ele>
   <time>2014-04-04T09:13:53Z</time>
  </trkpt>
  <trkpt lat="32.104030" lon="-1.222571">
   <ele>873.00</ele>
   <time>2014-04-04T09:13:57Z</time>
  </trkpt>
  <trkpt lat="32.104385" lon="-1.223127">
   <ele>874.00</ele>
   <time>2014-04-04T09:14:01Z</time>
  </trkpt>
  <trkpt lat="32.104985" lon="-1.223950">
   <ele>878.00</ele>
   <time>2014-04-04T09:14:07Z</time>
  </trkpt>
  <trkpt lat="32.105208" lon="-1.224203">
   <ele>880.00</ele>
   <time>2014-04-04T09:14:09Z</time>
  </trkpt>
  <trkpt lat="32.105550" lon="-1.224542">
   <ele>883.00</ele>
   <time>2014-04-04T09:14:12Z</time>
  </trkpt>
  <trkpt lat="32.105971" lon="-1.224922">
   <ele>887.00</ele>
   <time>2014-04-04T09:14:16Z</time>
  </trkpt>
  <trkpt lat="32.106308" lon="-1.225185">
   <ele>890.00</ele>
   <time>2014-04-04T09:14:20Z</time>
  </trkpt>
  <trkpt lat="32.106438" lon="-1.225339">
   <ele>892.00</ele>
   <time>2014-04-04T09:14:22Z</time>
  </trkpt>
  <trkpt lat="32.106545" lon="-1.225511">
   <ele>894.00</ele>
   <time>2014-04-04T09:14:24Z</time>
  </trkpt>
  <trkpt lat="32.106641" lon="-1.225693">
   <ele>895.00</ele>
   <time>2014-04-04T09:14:26Z</time>
  </trkpt>
  <trkpt lat="32.106917" lon="-1.226237">
   <ele>898.00</ele>
   <time>2014-04-04T09:14:32Z</time>
  </trkpt>
  <trkpt lat="32.107047" lon="-1.226398">
   <ele>899.00</ele>
   <time>2014-04-04T09:14:34Z</time>
  </trkpt>
  <trkpt lat="32.107212" lon="-1.226530">
   <ele>899.00</ele>
   <time>2014-04-04T09:14:36Z</time>
  </trkpt>
  <trkpt lat="32.107395" lon="-1.226628">
   <ele>900.00</ele>
   <time>2014-04-04T09:14:38Z</time>
  </trkpt>
  <trkpt lat="32.107586" lon="-1.226687">
   <ele>900.00</ele>
   <time>2014-04-04T09:14:40Z</time>
  </trkpt>
  <trkpt lat="32.107870" lon="-1.226758">
   <ele>901.00</ele>
   <time>2014-04-04T09:14:43Z</time>
  </trkpt>
  <trkpt lat="32.108050" lon="-1.226843">
   <ele>901.00</ele>
   <time>2014-04-04T09:14:45Z</time>
  </trkpt>
  <trkpt lat="32.108219" lon="-1.226952">
   <ele>901.00</ele>
   <time>2014-04-04T09:14:47Z</time>
  </trkpt>
  <trkpt lat="32.108368" lon="-1.227079">
   <ele>902.00</ele>
   <time>2014-04-04T09:14:49Z</time>
  </trkpt>
  <trkpt lat="32.108566" lon="-1.227284">
   <ele>902.00</ele>
   <time>2014-04-04T09:14:52Z</time>
  </trkpt>
  <trkpt lat="32.108935" lon="-1.227696">
   <ele>903.00</ele>
   <time>2014-04-04T09:14:58Z</time>
  </trkpt>
  <trkpt lat="32.109034" lon="-1.227921">
   <ele>903.00</ele>
   <time>2014-04-04T09:15:01Z</time>
  </trkpt>
  <trkpt lat="32.109043" lon="-1.228140">
   <ele>903.00</ele>
   <time>2014-04-04T09:15:04Z</time>
  </trkpt>
  <trkpt lat="32.109003" lon="-1.228362">
   <ele>903.00</ele>
   <time>2014-04-04T09:15:08Z</time>
  </trkpt>
  <trkpt lat="32.108936" lon="-1.228639">
   <ele>905.00</ele>
   <time>2014-04-04T09:15:15Z</time>
  </trkpt>
  <trkpt lat="32.108891" lon="-1.228867">
   <ele>906.00</ele>
   <time>2014-04-04T09:15:20Z</time>
  </trkpt>
  <trkpt lat="32.108840" lon="-1.229104">
   <ele>906.00</ele>
   <time>2014-04-04T09:15:28Z</time>
  </trkpt>
  <trkpt lat="32.108921" lon="-1.229307">
   <ele>907.00</ele>
   <time>2014-04-04T09:15:33Z</time>
  </trkpt>
  <trkpt lat="32.109136" lon="-1.229364">
   <ele>907.00</ele>
   <time>2014-04-04T09:15:36Z</time>
  </trkpt>
  <trkpt lat="32.110134" lon="-1.229659">
   <ele>909.00</ele>
   <time>2014-04-04T09:15:48Z</time>
  </trkpt>
  <trkpt lat="32.110848" lon="-1.229857">
   <ele>910.00</ele>
   <time>2014-04-04T09:15:57Z</time>
  </trkpt>
  <trkpt lat="32.111057" lon="-1.229917">
   <ele>910.00</ele>
   <time>2014-04-04T09:16:00Z</time>
  </trkpt>
  <trkpt lat="32.111264" lon="-1.230035">
   <ele>909.00</ele>
   <time>2014-04-04T09:16:03Z</time>
  </trkpt>
  <trkpt lat="32.111528" lon="-1.230196">
   <ele>908.00</ele>
   <time>2014-04-04T09:16:07Z</time>
  </trkpt>
  <trkpt lat="32.111744" lon="-1.230290">
   <ele>908.00</ele>
   <time>2014-04-04T09:16:10Z</time>
  </trkpt>
  <trkpt lat="32.112899" lon="-1.230664">
   <ele>908.00</ele>
   <time>2014-04-04T09:16:25Z</time>
  </trkpt>
  <trkpt lat="32.113284" lon="-1.230784">
   <ele>908.00</ele>
   <time>2014-04-04T09:16:32Z</time>
  </trkpt>
  <trkpt lat="32.113332" lon="-1.230763">
   <ele>907.00</ele>
   <time>2014-04-04T09:16:48Z</time>
  </trkpt>
  <trkpt lat="32.113323" lon="-1.230748">
   <ele>910.00</ele>
   <time>2014-04-04T09:17:03Z</time>
  </trkpt>
  <trkpt lat="32.113320" lon="-1.230742">
   <ele>910.00</ele>
   <time>2014-04-04T09:17:18Z</time>
  </trkpt>
  <trkpt lat="32.113318" lon="-1.230742">
   <ele>910.00</ele>
   <time>2014-04-04T09:17:33Z</time>
  </trkpt>
  <trkpt lat="32.113317" lon="-1.230742">
   <ele>911.00</ele>
   <time>2014-04-04T09:17:49Z</time>
  </trkpt>
  <trkpt lat="32.113317" lon="-1.230742">
   <ele>911.00</ele>
   <time>2014-04-04T09:18:04Z</time>
  </trkpt>
  <trkpt lat="32.113317" lon="-1.230743">
   <ele>911.00</ele>
   <time>2014-04-04T09:18:19Z</time>
  </trkpt>
  <trkpt lat="32.113317" lon="-1.230744">
   <ele>910.00</ele>
   <time>2014-04-04T09:18:35Z</time>
  </trkpt>
  <trkpt lat="32.113316" lon="-1.230745">
   <ele>909.00</ele>
   <time>2014-04-04T09:18:50Z</time>
  </trkpt>
  <trkpt lat="32.113317" lon="-1.230747">
   <ele>909.00</ele>
   <time>2014-04-04T09:19:05Z</time>
  </trkpt>
  <trkpt lat="32.113319" lon="-1.230746">
   <ele>908.00</ele>
   <time>2014-04-04T09:19:21Z</time>
  </trkpt>
  <trkpt lat="32.113320" lon="-1.230746">
   <ele>908.00</ele>
   <time>2014-04-04T09:19:36Z</time>
  </trkpt>
  <trkpt lat="32.113320" lon="-1.230748">
   <ele>908.00</ele>
   <time>2014-04-04T09:19:51Z</time>
  </trkpt>
  <trkpt lat="32.113320" lon="-1.230751">
   <ele>910.00</ele>
   <time>2014-04-04T09:20:06Z</time>
  </trkpt>
  <trkpt lat="32.113321" lon="-1.230750">
   <ele>909.00</ele>
   <time>2014-04-04T09:20:22Z</time>
  </trkpt>
  <trkpt lat="32.113322" lon="-1.230754">
   <ele>910.00</ele>
   <time>2014-04-04T09:20:37Z</time>
  </trkpt>
  <trkpt lat="32.113322" lon="-1.230754">
   <ele>910.00</ele>
   <time>2014-04-04T09:20:52Z</time>
  </trkpt>
  <trkpt lat="32.113322" lon="-1.230755">
   <ele>910.00</ele>
   <time>2014-04-04T09:21:08Z</time>
  </trkpt>
  <trkpt lat="32.113321" lon="-1.230755">
   <ele>910.00</ele>
   <time>2014-04-04T09:21:23Z</time>
  </trkpt>
  <trkpt lat="32.113320" lon="-1.230757">
   <ele>910.00</ele>
   <time>2014-04-04T09:21:38Z</time>
  </trkpt>
  <trkpt lat="32.113320" lon="-1.230756">
   <ele>909.00</ele>
   <time>2014-04-04T09:21:54Z</time>
  </trkpt>
  <trkpt lat="32.113322" lon="-1.230753">
   <ele>909.00</ele>
   <time>2014-04-04T09:22:09Z</time>
  </trkpt>
  <trkpt lat="32.113323" lon="-1.230753">
   <ele>909.00</ele>
   <time>2014-04-04T09:22:24Z</time>
  </trkpt>
  <trkpt lat="32.113324" lon="-1.230753">
   <ele>909.00</ele>
   <time>2014-04-04T09:22:39Z</time>
  </trkpt>
  <trkpt lat="32.113325" lon="-1.230754">
   <ele>908.00</ele>
   <time>2014-04-04T09:22:55Z</time>
  </trkpt>
  <trkpt lat="32.113326" lon="-1.230754">
   <ele>908.00</ele>
   <time>2014-04-04T09:23:10Z</time>
  </trkpt>
  <trkpt lat="32.113327" lon="-1.230755">
   <ele>908.00</ele>
   <time>2014-04-04T09:23:25Z</time>
  </trkpt>
  <trkpt lat="32.113328" lon="-1.230759">
   <ele>910.00</ele>
   <time>2014-04-04T09:23:41Z</time>
  </trkpt>
  <trkpt lat="32.113329" lon="-1.230766">
   <ele>912.00</ele>
   <time>2014-04-04T09:23:56Z</time>
  </trkpt>
  <trkpt lat="32.113327" lon="-1.230771">
   <ele>913.00</ele>
   <time>2014-04-04T09:24:11Z</time>
  </trkpt>
  <trkpt lat="32.113323" lon="-1.230779">
   <ele>915.00</ele>
   <time>2014-04-04T09:24:27Z</time>
  </trkpt>
  <trkpt lat="32.113319" lon="-1.230779">
   <ele>915.00</ele>
   <time>2014-04-04T09:24:42Z</time>
  </trkpt>
  <trkpt lat="32.113319" lon="-1.230768">
   <ele>913.00</ele>
   <time>2014-04-04T09:24:57Z</time>
  </trkpt>
  <trkpt lat="32.113321" lon="-1.230744">
   <ele>907.00</ele>
   <time>2014-04-04T09:25:13Z</time>
  </trkpt>
  <trkpt lat="32.113322" lon="-1.230742">
   <ele>906.00</ele>
   <time>2014-04-04T09:25:28Z</time>
  </trkpt>
  <trkpt lat="32.113321" lon="-1.230746">
   <ele>906.00</ele>
   <time>2014-04-04T09:25:43Z</time>
  </trkpt>
  <trkpt lat="32.113323" lon="-1.230749">
   <ele>907.00</ele>
   <time>2014-04-04T09:25:58Z</time>
  </trkpt>
  <trkpt lat="32.113327" lon="-1.230745">
   <ele>905.00</ele>
   <time>2014-04-04T09:26:14Z</time>
  </trkpt>
  <trkpt lat="32.113328" lon="-1.230751">
   <ele>907.00</ele>
   <time>2014-04-04T09:26:29Z</time>
  </trkpt>
  <trkpt lat="32.113328" lon="-1.230756">
   <ele>909.00</ele>
   <time>2014-04-04T09:26:44Z</time>
  </trkpt>
  <trkpt lat="32.113326" lon="-1.230762">
   <ele>910.00</ele>
   <time>2014-04-04T09:27:00Z</time>
  </trkpt>
  <trkpt lat="32.113325" lon="-1.230768">
   <ele>913.00</ele>
   <time>2014-04-04T09:27:15Z</time>
  </trkpt>
  <trkpt lat="32.113326" lon="-1.230775">
   <ele>916.00</ele>
   <time>2014-04-04T09:27:30Z</time>
  </trkpt>
  <trkpt lat="32.113331" lon="-1.230759">
   <ele>911.00</ele>
   <time>2014-04-04T09:27:46Z</time>
  </trkpt>
  <trkpt lat="32.113331" lon="-1.230754">
   <ele>909.00</ele>
   <time>2014-04-04T09:28:01Z</time>
  </trkpt>
  <trkpt lat="32.113332" lon="-1.230757">
   <ele>910.00</ele>
   <time>2014-04-04T09:28:17Z</time>
  </trkpt>
  <trkpt lat="32.113332" lon="-1.230758">
   <ele>911.00</ele>
   <time>2014-04-04T09:28:32Z</time>
  </trkpt>
  <trkpt lat="32.113331" lon="-1.230759">
   <ele>911.00</ele>
   <time>2014-04-04T09:28:47Z</time>
  </trkpt>
  <trkpt lat="32.113330" lon="-1.230762">
   <ele>913.00</ele>
   <time>2014-04-04T09:29:03Z</time>
  </trkpt>
  <trkpt lat="32.113328" lon="-1.230767">
   <ele>914.00</ele>
   <time>2014-04-04T09:29:18Z</time>
  </trkpt>
  <trkpt lat="32.113327" lon="-1.230760">
   <ele>912.00</ele>
   <time>2014-04-04T09:29:33Z</time>
  </trkpt>
  <trkpt lat="32.113326" lon="-1.230768">
   <ele>915.00</ele>
   <time>2014-04-04T09:29:48Z</time>
  </trkpt>
  <trkpt lat="32.113322" lon="-1.230779">
   <ele>919.00</ele>
   <time>2014-04-04T09:30:04Z</time>
  </trkpt>
  <trkpt lat="32.113329" lon="-1.230757">
   <ele>912.00</ele>
   <time>2014-04-04T09:30:19Z</time>
  </trkpt>
  <trkpt lat="32.113327" lon="-1.230754">
   <ele>910.00</ele>
   <time>2014-04-04T09:30:34Z</time>
  </trkpt>
  <trkpt lat="32.113326" lon="-1.230756">
   <ele>909.00</ele>
   <time>2014-04-04T09:30:50Z</time>
  </trkpt>
  <trkpt lat="32.113323" lon="-1.230757">
   <ele>909.00</ele>
   <time>2014-04-04T09:31:05Z</time>
  </trkpt>
  <trkpt lat="32.113320" lon="-1.230758">
   <ele>909.00</ele>
   <time>2014-04-04T09:31:20Z</time>
  </trkpt>
  <trkpt lat="32.113315" lon="-1.230758">
   <ele>909.00</ele>
   <time>2014-04-04T09:31:36Z</time>
  </trkpt>
  <trkpt lat="32.113315" lon="-1.230760">
   <ele>907.00</ele>
   <time>2014-04-04T09:31:51Z</time>
  </trkpt>
  <trkpt lat="32.113315" lon="-1.230761">
   <ele>905.00</ele>
   <time>2014-04-04T09:32:06Z</time>
  </trkpt>
  <trkpt lat="32.113312" lon="-1.230756">
   <ele>906.00</ele>
   <time>2014-04-04T09:32:22Z</time>
  </trkpt>
  <trkpt lat="32.113311" lon="-1.230751">
   <ele>906.00</ele>
   <time>2014-04-04T09:32:37Z</time>
  </trkpt>
  <trkpt lat="32.113310" lon="-1.230748">
   <ele>907.00</ele>
   <time>2014-04-04T09:32:52Z</time>
  </trkpt>
  <trkpt lat="32.113309" lon="-1.230747">
   <ele>907.00</ele>
   <time>2014-04-04T09:33:07Z</time>
  </trkpt>
  <trkpt lat="32.113309" lon="-1.230746">
   <ele>907.00</ele>
   <time>2014-04-04T09:33:14Z</time>
  </trkpt>
 </trkseg>
 <trkseg>
  <trkpt lat="32.120183" lon="-1.232172">
   <ele>909.00</ele>
   <time>2014-04-04T09:52:41Z</time>
  </trkpt>
  <trkpt lat="32.120186" lon="-1.232176">
   <ele>909.00</ele>
   <time>2014-04-04T09:52:57Z</time>
  </trkpt>
  <trkpt lat="32.120189" lon="-1.232182">
   <ele>910.00</ele>
   <time>2014-04-04T09:53:12Z</time>
  </trkpt>
  <trkpt lat="32.120189" lon="-1.232187">
   <ele>911.00</ele>
   <time>2014-04-04T09:53:27Z</time>
  </trkpt>
  <trkpt lat="32.120188" lon="-1.232189">
   <ele>911.00</ele>
   <time>2014-04-04T09:53:43Z</time>
  </trkpt>
  <trkpt lat="32.120187" lon="-1.232190">
   <ele>912.00</ele>
   <time>2014-04-04T09:53:58Z</time>
  </trkpt>
  <trkpt lat="32.120216" lon="-1.232241">
   <ele>912.00</ele>
   <time>2014-04-04T09:54:13Z</time>
  </trkpt>
  <trkpt lat="32.120385" lon="-1.232401">
   <ele>911.00</ele>
   <time>2014-04-04T09:54:19Z</time>
  </trkpt>
  <trkpt lat="32.121396" lon="-1.233347">
   <ele>914.00</ele>
   <time>2014-04-04T09:54:34Z</time>
  </trkpt>
  <trkpt lat="32.122948" lon="-1.234821">
   <ele>916.00</ele>
   <time>2014-04-04T09:54:50Z</time>
  </trkpt>
  <trkpt lat="32.124439" lon="-1.236292">
   <ele>920.00</ele>
   <time>2014-04-04T09:55:05Z</time>
  </trkpt>
  <trkpt lat="32.124658" lon="-1.236488">
   <ele>920.00</ele>
   <time>2014-04-04T09:55:07Z</time>
  </trkpt>
  <trkpt lat="32.125830" lon="-1.237533">
   <ele>921.00</ele>
   <time>2014-04-04T09:55:17Z</time>
  </trkpt>
  <trkpt lat="32.127480" lon="-1.239100">
   <ele>925.00</ele>
   <time>2014-04-04T09:55:33Z</time>
  </trkpt>
  <trkpt lat="32.128132" lon="-1.239729">
   <ele>926.00</ele>
   <time>2014-04-04T09:55:45Z</time>
  </trkpt>
  <trkpt lat="32.128258" lon="-1.239918">
   <ele>926.00</ele>
   <time>2014-04-04T09:55:50Z</time>
  </trkpt>
  <trkpt lat="32.128460" lon="-1.240063">
   <ele>926.00</ele>
   <time>2014-04-04T09:55:55Z</time>
  </trkpt>
  <trkpt lat="32.128635" lon="-1.240194">
   <ele>926.00</ele>
   <time>2014-04-04T09:55:58Z</time>
  </trkpt>
  <trkpt lat="32.128828" lon="-1.240370">
   <ele>927.00</ele>
   <time>2014-04-04T09:56:01Z</time>
  </trkpt>
  <trkpt lat="32.129846" lon="-1.241346">
   <ele>931.00</ele>
   <time>2014-04-04T09:56:13Z</time>
  </trkpt>
  <trkpt lat="32.130119" lon="-1.241636">
   <ele>933.00</ele>
   <time>2014-04-04T09:56:16Z</time>
  </trkpt>
  <trkpt lat="32.130288" lon="-1.241837">
   <ele>934.00</ele>
   <time>2014-04-04T09:56:18Z</time>
  </trkpt>
  <trkpt lat="32.130431" lon="-1.242059">
   <ele>935.00</ele>
   <time>2014-04-04T09:56:20Z</time>
  </trkpt>
  <trkpt lat="32.130546" lon="-1.242308">
   <ele>936.00</ele>
   <time>2014-04-04T09:56:22Z</time>
  </trkpt>
  <trkpt lat="32.130831" lon="-1.242938">
   <ele>939.00</ele>
   <time>2014-04-04T09:56:27Z</time>
  </trkpt>
  <trkpt lat="32.130962" lon="-1.243176">
   <ele>940.00</ele>
   <time>2014-04-04T09:56:29Z</time>
  </trkpt>
  <trkpt lat="32.131139" lon="-1.243379">
   <ele>941.00</ele>
   <time>2014-04-04T09:56:31Z</time>
  </trkpt>
  <trkpt lat="32.131352" lon="-1.243557">
   <ele>941.00</ele>
   <time>2014-04-04T09:56:33Z</time>
  </trkpt>
  <trkpt lat="32.131716" lon="-1.243808">
   <ele>941.00</ele>
   <time>2014-04-04T09:56:36Z</time>
  </trkpt>
  <trkpt lat="32.131973" lon="-1.243967">
   <ele>941.00</ele>
   <time>2014-04-04T09:56:38Z</time>
  </trkpt>
  <trkpt lat="32.132361" lon="-1.244181">
   <ele>941.00</ele>
   <time>2014-04-04T09:56:41Z</time>
  </trkpt>
  <trkpt lat="32.134533" lon="-1.245386">
   <ele>941.00</ele>
   <time>2014-04-04T09:56:56Z</time>
  </trkpt>
  <trkpt lat="32.136496" lon="-1.246495">
   <ele>942.00</ele>
   <time>2014-04-04T09:57:09Z</time>
  </trkpt>
  <trkpt lat="32.136791" lon="-1.246677">
   <ele>943.00</ele>
   <time>2014-04-04T09:57:11Z</time>
  </trkpt>
  <trkpt lat="32.137086" lon="-1.246887">
   <ele>943.00</ele>
   <time>2014-04-04T09:57:13Z</time>
  </trkpt>
  <trkpt lat="32.139332" lon="-1.248643">
   <ele>941.00</ele>
   <time>2014-04-04T09:57:28Z</time>
  </trkpt>
  <trkpt lat="32.139780" lon="-1.249002">
   <ele>940.00</ele>
   <time>2014-04-04T09:57:31Z</time>
  </trkpt>
  <trkpt lat="32.140073" lon="-1.249260">
   <ele>939.00</ele>
   <time>2014-04-04T09:57:33Z</time>
  </trkpt>
  <trkpt lat="32.140356" lon="-1.249533">
   <ele>938.00</ele>
   <time>2014-04-04T09:57:35Z</time>
  </trkpt>
  <trkpt lat="32.142295" lon="-1.251536">
   <ele>932.00</ele>
   <time>2014-04-04T09:57:49Z</time>
  </trkpt>
  <trkpt lat="32.142547" lon="-1.251838">
   <ele>931.00</ele>
   <time>2014-04-04T09:57:51Z</time>
  </trkpt>
  <trkpt lat="32.142665" lon="-1.252001">
   <ele>931.00</ele>
   <time>2014-04-04T09:57:52Z</time>
  </trkpt>
  <trkpt lat="32.142780" lon="-1.252173">
   <ele>930.00</ele>
   <time>2014-04-04T09:57:53Z</time>
  </trkpt>
  <trkpt lat="32.142996" lon="-1.252538">
   <ele>930.00</ele>
   <time>2014-04-04T09:57:55Z</time>
  </trkpt>
  <trkpt lat="32.144673" lon="-1.255664">
   <ele>926.00</ele>
   <time>2014-04-04T09:58:11Z</time>
  </trkpt>
  <trkpt lat="32.144860" lon="-1.256045">
   <ele>926.00</ele>
   <time>2014-04-04T09:58:13Z</time>
  </trkpt>
  <trkpt lat="32.145031" lon="-1.256435">
   <ele>926.00</ele>
   <time>2014-04-04T09:58:15Z</time>
  </trkpt>
  <trkpt lat="32.145108" lon="-1.256641">
   <ele>925.00</ele>
   <time>2014-04-04T09:58:16Z</time>
  </trkpt>
  <trkpt lat="32.145251" lon="-1.257071">
   <ele>924.00</ele>
   <time>2014-04-04T09:58:18Z</time>
  </trkpt>
  <trkpt lat="32.146189" lon="-1.260253">
   <ele>913.00</ele>
   <time>2014-04-04T09:58:32Z</time>
  </trkpt>
  <trkpt lat="32.146286" lon="-1.260627">
   <ele>912.00</ele>
   <time>2014-04-04T09:58:34Z</time>
  </trkpt>
  <trkpt lat="32.146357" lon="-1.260973">
   <ele>911.00</ele>
   <time>2014-04-04T09:58:36Z</time>
  </trkpt>
  <trkpt lat="32.146445" lon="-1.261576">
   <ele>911.00</ele>
   <time>2014-04-04T09:58:40Z</time>
  </trkpt>
  <trkpt lat="32.146686" lon="-1.263369">
   <ele>910.00</ele>
   <time>2014-04-04T09:58:56Z</time>
  </trkpt>
  <trkpt lat="32.147122" lon="-1.266350">
   <ele>904.00</ele>
   <time>2014-04-04T09:59:11Z</time>
  </trkpt>
  <trkpt lat="32.147639" lon="-1.269875">
   <ele>901.00</ele>
   <time>2014-04-04T09:59:26Z</time>
  </trkpt>
  <trkpt lat="32.148186" lon="-1.273552">
   <ele>903.00</ele>
   <time>2014-04-04T09:59:42Z</time>
  </trkpt>
  <trkpt lat="32.148695" lon="-1.277010">
   <ele>901.00</ele>
   <time>2014-04-04T09:59:57Z</time>
  </trkpt>
  <trkpt lat="32.149225" lon="-1.280592">
   <ele>901.00</ele>
   <time>2014-04-04T10:00:12Z</time>
  </trkpt>
  <trkpt lat="32.149802" lon="-1.284481">
   <ele>903.00</ele>
   <time>2014-04-04T10:00:28Z</time>
  </trkpt>
  <trkpt lat="32.150341" lon="-1.288162">
   <ele>903.00</ele>
   <time>2014-04-04T10:00:43Z</time>
  </trkpt>
  <trkpt lat="32.150902" lon="-1.291997">
   <ele>901.00</ele>
   <time>2014-04-04T10:00:58Z</time>
  </trkpt>
  <trkpt lat="32.151495" lon="-1.296092">
   <ele>900.00</ele>
   <time>2014-04-04T10:01:14Z</time>
  </trkpt>
  <trkpt lat="32.152068" lon="-1.299974">
   <ele>898.00</ele>
   <time>2014-04-04T10:01:29Z</time>
  </trkpt>
  <trkpt lat="32.152620" lon="-1.303766">
   <ele>902.00</ele>
   <time>2014-04-04T10:01:44Z</time>
  </trkpt>
  <trkpt lat="32.153191" lon="-1.307637">
   <ele>907.00</ele>
   <time>2014-04-04T10:01:59Z</time>
  </trkpt>
  <trkpt lat="32.153792" lon="-1.311776">
   <ele>911.00</ele>
   <time>2014-04-04T10:02:15Z</time>
  </trkpt>
  <trkpt lat="32.154367" lon="-1.315631">
   <ele>914.00</ele>
   <time>2014-04-04T10:02:30Z</time>
  </trkpt>
  <trkpt lat="32.154472" lon="-1.316130">
   <ele>914.00</ele>
   <time>2014-04-04T10:02:32Z</time>
  </trkpt>
  <trkpt lat="32.155446" lon="-1.320125">
   <ele>915.00</ele>
   <time>2014-04-04T10:02:48Z</time>
  </trkpt>
  <trkpt lat="32.155842" lon="-1.321809">
   <ele>915.00</ele>
   <time>2014-04-04T10:02:55Z</time>
  </trkpt>
  <trkpt lat="32.155919" lon="-1.322297">
   <ele>915.00</ele>
   <time>2014-04-04T10:02:57Z</time>
  </trkpt>
  <trkpt lat="32.156001" lon="-1.323058">
   <ele>915.00</ele>
   <time>2014-04-04T10:03:00Z</time>
  </trkpt>
  <trkpt lat="32.156330" lon="-1.327009">
   <ele>919.00</ele>
   <time>2014-04-04T10:03:15Z</time>
  </trkpt>
  <trkpt lat="32.156695" lon="-1.331213">
   <ele>921.00</ele>
   <time>2014-04-04T10:03:31Z</time>
  </trkpt>
  <trkpt lat="32.157035" lon="-1.335229">
   <ele>924.00</ele>
   <time>2014-04-04T10:03:46Z</time>
  </trkpt>
  <trkpt lat="32.157385" lon="-1.339289">
   <ele>930.00</ele>
   <time>2014-04-04T10:04:01Z</time>
  </trkpt>
  <trkpt lat="32.157760" lon="-1.343684">
   <ele>936.00</ele>
   <time>2014-04-04T10:04:17Z</time>
  </trkpt>
  <trkpt lat="32.158112" lon="-1.347807">
   <ele>942.00</ele>
   <time>2014-04-04T10:04:32Z</time>
  </trkpt>
  <trkpt lat="32.158460" lon="-1.351900">
   <ele>948.00</ele>
   <time>2014-04-04T10:04:47Z</time>
  </trkpt>
  <trkpt lat="32.158808" lon="-1.355933">
   <ele>953.00</ele>
   <time>2014-04-04T10:05:02Z</time>
  </trkpt>
  <trkpt lat="32.159179" lon="-1.360292">
   <ele>955.00</ele>
   <time>2014-04-04T10:05:18Z</time>
  </trkpt>
  <trkpt lat="32.159424" lon="-1.362934">
   <ele>957.00</ele>
   <time>2014-04-04T10:05:28Z</time>
  </trkpt>
  <trkpt lat="32.159935" lon="-1.366867">
   <ele>958.00</ele>
   <time>2014-04-04T10:05:43Z</time>
  </trkpt>
  <trkpt lat="32.160486" lon="-1.371099">
   <ele>959.00</ele>
   <time>2014-04-04T10:05:59Z</time>
  </trkpt>
  <trkpt lat="32.160991" lon="-1.375070">
   <ele>963.00</ele>
   <time>2014-04-04T10:06:14Z</time>
  </trkpt>
  <trkpt lat="32.161499" lon="-1.379042">
   <ele>964.00</ele>
   <time>2014-04-04T10:06:29Z</time>
  </trkpt>
  <trkpt lat="32.162030" lon="-1.383202">
   <ele>966.00</ele>
   <time>2014-04-04T10:06:45Z</time>
  </trkpt>
  <trkpt lat="32.162541" lon="-1.387230">
   <ele>969.00</ele>
   <time>2014-04-04T10:07:00Z</time>
  </trkpt>
  <trkpt lat="32.163066" lon="-1.391357">
   <ele>972.00</ele>
   <time>2014-04-04T10:07:15Z</time>
  </trkpt>
  <trkpt lat="32.163587" lon="-1.395412">
   <ele>975.00</ele>
   <time>2014-04-04T10:07:30Z</time>
  </trkpt>
  <trkpt lat="32.164135" lon="-1.399736">
   <ele>977.00</ele>
   <time>2014-04-04T10:07:46Z</time>
  </trkpt>
  <trkpt lat="32.164653" lon="-1.403822">
   <ele>979.00</ele>
   <time>2014-04-04T10:08:01Z</time>
  </trkpt>
  <trkpt lat="32.165162" lon="-1.407880">
   <ele>981.00</ele>
   <time>2014-04-04T10:08:16Z</time>
  </trkpt>
  <trkpt lat="32.165636" lon="-1.411747">
   <ele>983.00</ele>
   <time>2014-04-04T10:08:30Z</time>
  </trkpt>
  <trkpt lat="32.165664" lon="-1.412293">
   <ele>984.00</ele>
   <time>2014-04-04T10:08:32Z</time>
  </trkpt>
  <trkpt lat="32.165666" lon="-1.412839">
   <ele>984.00</ele>
   <time>2014-04-04T10:08:34Z</time>
  </trkpt>
  <trkpt lat="32.165539" lon="-1.416753">
   <ele>985.00</ele>
   <time>2014-04-04T10:08:49Z</time>
  </trkpt>
  <trkpt lat="32.165407" lon="-1.420881">
   <ele>989.00</ele>
   <time>2014-04-04T10:09:05Z</time>
  </trkpt>
  <trkpt lat="32.165279" lon="-1.424830">
   <ele>991.00</ele>
   <time>2014-04-04T10:09:20Z</time>
  </trkpt>
  <trkpt lat="32.165157" lon="-1.428868">
   <ele>995.00</ele>
   <time>2014-04-04T10:09:35Z</time>
  </trkpt>
  <trkpt lat="32.165029" lon="-1.433197">
   <ele>999.00</ele>
   <time>2014-04-04T10:09:51Z</time>
  </trkpt>
  <trkpt lat="32.164899" lon="-1.437294">
   <ele>1003.00</ele>
   <time>2014-04-04T10:10:06Z</time>
  </trkpt>
  <trkpt lat="32.164746" lon="-1.441273">
   <ele>1004.00</ele>
   <time>2014-04-04T10:10:21Z</time>
  </trkpt>
  <trkpt lat="32.164702" lon="-1.441798">
   <ele>1005.00</ele>
   <time>2014-04-04T10:10:23Z</time>
  </trkpt>
  <trkpt lat="32.164631" lon="-1.442321">
   <ele>1006.00</ele>
   <time>2014-04-04T10:10:25Z</time>
  </trkpt>
  <trkpt lat="32.164531" lon="-1.442841">
   <ele>1006.00</ele>
   <time>2014-04-04T10:10:27Z</time>
  </trkpt>
  <trkpt lat="32.164395" lon="-1.443356">
   <ele>1006.00</ele>
   <time>2014-04-04T10:10:29Z</time>
  </trkpt>
  <trkpt lat="32.164225" lon="-1.443861">
   <ele>1006.00</ele>
   <time>2014-04-04T10:10:31Z</time>
  </trkpt>
  <trkpt lat="32.164027" lon="-1.444354">
   <ele>1006.00</ele>
   <time>2014-04-04T10:10:33Z</time>
  </trkpt>
  <trkpt lat="32.163805" lon="-1.444836">
   <ele>1006.00</ele>
   <time>2014-04-04T10:10:35Z</time>
  </trkpt>
  <trkpt lat="32.161937" lon="-1.448602">
   <ele>1011.00</ele>
   <time>2014-04-04T10:10:51Z</time>
  </trkpt>
  <trkpt lat="32.160217" lon="-1.452101">
   <ele>1016.00</ele>
   <time>2014-04-04T10:11:06Z</time>
  </trkpt>
  <trkpt lat="32.159765" lon="-1.453042">
   <ele>1017.00</ele>
   <time>2014-04-04T10:11:10Z</time>
  </trkpt>
  <trkpt lat="32.159346" lon="-1.453999">
   <ele>1018.00</ele>
   <time>2014-04-04T10:11:14Z</time>
  </trkpt>
  <trkpt lat="32.159256" lon="-1.454242">
   <ele>1019.00</ele>
   <time>2014-04-04T10:11:15Z</time>
  </trkpt>
  <trkpt lat="32.159095" lon="-1.454737">
   <ele>1019.00</ele>
   <time>2014-04-04T10:11:17Z</time>
  </trkpt>
  <trkpt lat="32.158948" lon="-1.455241">
   <ele>1019.00</ele>
   <time>2014-04-04T10:11:19Z</time>
  </trkpt>
  <trkpt lat="32.158825" lon="-1.455755">
   <ele>1020.00</ele>
   <time>2014-04-04T10:11:21Z</time>
  </trkpt>
  <trkpt lat="32.158721" lon="-1.456274">
   <ele>1020.00</ele>
   <time>2014-04-04T10:11:23Z</time>
  </trkpt>
  <trkpt lat="32.158641" lon="-1.456796">
   <ele>1021.00</ele>
   <time>2014-04-04T10:11:25Z</time>
  </trkpt>
  <trkpt lat="32.158589" lon="-1.457327">
   <ele>1021.00</ele>
   <time>2014-04-04T10:11:27Z</time>
  </trkpt>
  <trkpt lat="32.158336" lon="-1.461700">
   <ele>1022.00</ele>
   <time>2014-04-04T10:11:43Z</time>
  </trkpt>
  <trkpt lat="32.158092" lon="-1.465779">
   <ele>1023.00</ele>
   <time>2014-04-04T10:11:58Z</time>
  </trkpt>
  <trkpt lat="32.157849" lon="-1.469834">
   <ele>1026.00</ele>
   <time>2014-04-04T10:12:13Z</time>
  </trkpt>
  <trkpt lat="32.157576" lon="-1.474373">
   <ele>1027.00</ele>
   <time>2014-04-04T10:12:29Z</time>
  </trkpt>
  <trkpt lat="32.157326" lon="-1.478507">
   <ele>1033.00</ele>
   <time>2014-04-04T10:12:44Z</time>
  </trkpt>
  <trkpt lat="32.157069" lon="-1.482506">
   <ele>1038.00</ele>
   <time>2014-04-04T10:12:59Z</time>
  </trkpt>
  <trkpt lat="32.157046" lon="-1.483016">
   <ele>1038.00</ele>
   <time>2014-04-04T10:13:01Z</time>
  </trkpt>
  <trkpt lat="32.157046" lon="-1.483514">
   <ele>1039.00</ele>
   <time>2014-04-04T10:13:03Z</time>
  </trkpt>
  <trkpt lat="32.157056" lon="-1.483756">
   <ele>1039.00</ele>
   <time>2014-04-04T10:13:04Z</time>
  </trkpt>
  <trkpt lat="32.157075" lon="-1.483995">
   <ele>1040.00</ele>
   <time>2014-04-04T10:13:05Z</time>
  </trkpt>
  <trkpt lat="32.157103" lon="-1.484233">
   <ele>1040.00</ele>
   <time>2014-04-04T10:13:06Z</time>
  </trkpt>
  <trkpt lat="32.157140" lon="-1.484467">
   <ele>1040.00</ele>
   <time>2014-04-04T10:13:07Z</time>
  </trkpt>
  <trkpt lat="32.157186" lon="-1.484698">
   <ele>1040.00</ele>
   <time>2014-04-04T10:13:08Z</time>
  </trkpt>
  <trkpt lat="32.157243" lon="-1.484925">
   <ele>1040.00</ele>
   <time>2014-04-04T10:13:09Z</time>
  </trkpt>
  <trkpt lat="32.157310" lon="-1.485147">
   <ele>1040.00</ele>
   <time>2014-04-04T10:13:10Z</time>
  </trkpt>
  <trkpt lat="32.157386" lon="-1.485364">
   <ele>1040.00</ele>
   <time>2014-04-04T10:13:11Z</time>
  </trkpt>
  <trkpt lat="32.157471" lon="-1.485576">
   <ele>1040.00</ele>
   <time>2014-04-04T10:13:12Z</time>
  </trkpt>
  <trkpt lat="32.157655" lon="-1.485988">
   <ele>1040.00</ele>
   <time>2014-04-04T10:13:14Z</time>
  </trkpt>
  <trkpt lat="32.157848" lon="-1.486383">
   <ele>1040.00</ele>
   <time>2014-04-04T10:13:16Z</time>
  </trkpt>
  <trkpt lat="32.157949" lon="-1.486569">
   <ele>1040.00</ele>
   <time>2014-04-04T10:13:17Z</time>
  </trkpt>
  <trkpt lat="32.158060" lon="-1.486746">
   <ele>1040.00</ele>
   <time>2014-04-04T10:13:18Z</time>
  </trkpt>
  <trkpt lat="32.158183" lon="-1.486912">
   <ele>1040.00</ele>
   <time>2014-04-04T10:13:19Z</time>
  </trkpt>
  <trkpt lat="32.158317" lon="-1.487070">
   <ele>1040.00</ele>
   <time>2014-04-04T10:13:20Z</time>
  </trkpt>
  <trkpt lat="32.158603" lon="-1.487370">
   <ele>1040.00</ele>
   <time>2014-04-04T10:13:22Z</time>
  </trkpt>
  <trkpt lat="32.159634" lon="-1.488413">
   <ele>1040.00</ele>
   <time>2014-04-04T10:13:29Z</time>
  </trkpt>
  <trkpt lat="32.159772" lon="-1.488574">
   <ele>1040.00</ele>
   <time>2014-04-04T10:13:30Z</time>
  </trkpt>
  <trkpt lat="32.159900" lon="-1.488744">
   <ele>1040.00</ele>
   <time>2014-04-04T10:13:31Z</time>
  </trkpt>
  <trkpt lat="32.160017" lon="-1.488920">
   <ele>1039.00</ele>
   <time>2014-04-04T10:13:32Z</time>
  </trkpt>
  <trkpt lat="32.160127" lon="-1.489103">
   <ele>1039.00</ele>
   <time>2014-04-04T10:13:33Z</time>
  </trkpt>
  <trkpt lat="32.160231" lon="-1.489292">
   <ele>1039.00</ele>
   <time>2014-04-04T10:13:34Z</time>
  </trkpt>
  <trkpt lat="32.160327" lon="-1.489488">
   <ele>1039.00</ele>
   <time>2014-04-04T10:13:35Z</time>
  </trkpt>
  <trkpt lat="32.160417" lon="-1.489691">
   <ele>1039.00</ele>
   <time>2014-04-04T10:13:36Z</time>
  </trkpt>
  <trkpt lat="32.160500" lon="-1.489899">
   <ele>1039.00</ele>
   <time>2014-04-04T10:13:37Z</time>
  </trkpt>
  <trkpt lat="32.160575" lon="-1.490110">
   <ele>1039.00</ele>
   <time>2014-04-04T10:13:38Z</time>
  </trkpt>
  <trkpt lat="32.160642" lon="-1.490325">
   <ele>1039.00</ele>
   <time>2014-04-04T10:13:39Z</time>
  </trkpt>
  <trkpt lat="32.160701" lon="-1.490543">
   <ele>1038.00</ele>
   <time>2014-04-04T10:13:40Z</time>
  </trkpt>
  <trkpt lat="32.160752" lon="-1.490766">
   <ele>1038.00</ele>
   <time>2014-04-04T10:13:41Z</time>
  </trkpt>
  <trkpt lat="32.160797" lon="-1.490992">
   <ele>1038.00</ele>
   <time>2014-04-04T10:13:42Z</time>
  </trkpt>
  <trkpt lat="32.160834" lon="-1.491220">
   <ele>1038.00</ele>
   <time>2014-04-04T10:13:43Z</time>
  </trkpt>
  <trkpt lat="32.160864" lon="-1.491447">
   <ele>1038.00</ele>
   <time>2014-04-04T10:13:44Z</time>
  </trkpt>
  <trkpt lat="32.160885" lon="-1.491675">
   <ele>1039.00</ele>
   <time>2014-04-04T10:13:45Z</time>
  </trkpt>
  <trkpt lat="32.160898" lon="-1.491905">
   <ele>1039.00</ele>
   <time>2014-04-04T10:13:46Z</time>
  </trkpt>
  <trkpt lat="32.160902" lon="-1.492137">
   <ele>1040.00</ele>
   <time>2014-04-04T10:13:47Z</time>
  </trkpt>
  <trkpt lat="32.160896" lon="-1.492371">
   <ele>1040.00</ele>
   <time>2014-04-04T10:13:48Z</time>
  </trkpt>
  <trkpt lat="32.160882" lon="-1.492608">
   <ele>1041.00</ele>
   <time>2014-04-04T10:13:49Z</time>
  </trkpt>
  <trkpt lat="32.160859" lon="-1.492847">
   <ele>1042.00</ele>
   <time>2014-04-04T10:13:50Z</time>
  </trkpt>
  <trkpt lat="32.160793" lon="-1.493327">
   <ele>1042.00</ele>
   <time>2014-04-04T10:13:52Z</time>
  </trkpt>
  <trkpt lat="32.160195" lon="-1.497373">
   <ele>1047.00</ele>
   <time>2014-04-04T10:14:08Z</time>
  </trkpt>
  <trkpt lat="32.159591" lon="-1.501298">
   <ele>1047.00</ele>
   <time>2014-04-04T10:14:23Z</time>
  </trkpt>
  <trkpt lat="32.159008" lon="-1.505239">
   <ele>1051.00</ele>
   <time>2014-04-04T10:14:38Z</time>
  </trkpt>
  <trkpt lat="32.158454" lon="-1.509050">
   <ele>1054.00</ele>
   <time>2014-04-04T10:14:54Z</time>
  </trkpt>
  <trkpt lat="32.158029" lon="-1.511949">
   <ele>1056.00</ele>
   <time>2014-04-04T10:15:09Z</time>
  </trkpt>
  <trkpt lat="32.157646" lon="-1.514615">
   <ele>1058.00</ele>
   <time>2014-04-04T10:15:24Z</time>
  </trkpt>
  <trkpt lat="32.157192" lon="-1.517677">
   <ele>1060.00</ele>
   <time>2014-04-04T10:15:40Z</time>
  </trkpt>
  <trkpt lat="32.157000" lon="-1.518902">
   <ele>1063.00</ele>
   <time>2014-04-04T10:15:46Z</time>
  </trkpt>
  <trkpt lat="32.156916" lon="-1.519309">
   <ele>1064.00</ele>
   <time>2014-04-04T10:15:48Z</time>
  </trkpt>
  <trkpt lat="32.156763" lon="-1.519928">
   <ele>1065.00</ele>
   <time>2014-04-04T10:15:51Z</time>
  </trkpt>
  <trkpt lat="32.155788" lon="-1.523459">
   <ele>1069.00</ele>
   <time>2014-04-04T10:16:07Z</time>
  </trkpt>
  <trkpt lat="32.154817" lon="-1.526976">
   <ele>1073.00</ele>
   <time>2014-04-04T10:16:22Z</time>
  </trkpt>
  <trkpt lat="32.154195" lon="-1.529311">
   <ele>1077.00</ele>
   <time>2014-04-04T10:16:32Z</time>
  </trkpt>
  <trkpt lat="32.154148" lon="-1.529547">
   <ele>1077.00</ele>
   <time>2014-04-04T10:16:33Z</time>
  </trkpt>
  <trkpt lat="32.154111" lon="-1.529784">
   <ele>1078.00</ele>
   <time>2014-04-04T10:16:34Z</time>
  </trkpt>
  <trkpt lat="32.154083" lon="-1.530022">
   <ele>1079.00</ele>
   <time>2014-04-04T10:16:35Z</time>
  </trkpt>
  <trkpt lat="32.154067" lon="-1.530260">
   <ele>1080.00</ele>
   <time>2014-04-04T10:16:36Z</time>
  </trkpt>
  <trkpt lat="32.154060" lon="-1.530498">
   <ele>1080.00</ele>
   <time>2014-04-04T10:16:37Z</time>
  </trkpt>
  <trkpt lat="32.154062" lon="-1.530735">
   <ele>1082.00</ele>
   <time>2014-04-04T10:16:38Z</time>
  </trkpt>
  <trkpt lat="32.154072" lon="-1.530968">
   <ele>1083.00</ele>
   <time>2014-04-04T10:16:39Z</time>
  </trkpt>
  <trkpt lat="32.154112" lon="-1.531424">
   <ele>1086.00</ele>
   <time>2014-04-04T10:16:41Z</time>
  </trkpt>
  <trkpt lat="32.154146" lon="-1.531647">
   <ele>1087.00</ele>
   <time>2014-04-04T10:16:42Z</time>
  </trkpt>
  <trkpt lat="32.154189" lon="-1.531865">
   <ele>1088.00</ele>
   <time>2014-04-04T10:16:43Z</time>
  </trkpt>
  <trkpt lat="32.154237" lon="-1.532079">
   <ele>1089.00</ele>
   <time>2014-04-04T10:16:44Z</time>
  </trkpt>
  <trkpt lat="32.154357" lon="-1.532496">
   <ele>1092.00</ele>
   <time>2014-04-04T10:16:46Z</time>
  </trkpt>
  <trkpt lat="32.154429" lon="-1.532694">
   <ele>1093.00</ele>
   <time>2014-04-04T10:16:47Z</time>
  </trkpt>
  <trkpt lat="32.154510" lon="-1.532889">
   <ele>1094.00</ele>
   <time>2014-04-04T10:16:48Z</time>
  </trkpt>
  <trkpt lat="32.155110" lon="-1.534282">
   <ele>1095.00</ele>
   <time>2014-04-04T10:16:55Z</time>
  </trkpt>
  <trkpt lat="32.155181" lon="-1.534493">
   <ele>1095.00</ele>
   <time>2014-04-04T10:16:56Z</time>
  </trkpt>
  <trkpt lat="32.155242" lon="-1.534709">
   <ele>1095.00</ele>
   <time>2014-04-04T10:16:57Z</time>
  </trkpt>
  <trkpt lat="32.155293" lon="-1.534930">
   <ele>1095.00</ele>
   <time>2014-04-04T10:16:58Z</time>
  </trkpt>
  <trkpt lat="32.155335" lon="-1.535154">
   <ele>1094.00</ele>
   <time>2014-04-04T10:16:59Z</time>
  </trkpt>
  <trkpt lat="32.155370" lon="-1.535381">
   <ele>1094.00</ele>
   <time>2014-04-04T10:17:00Z</time>
  </trkpt>
  <trkpt lat="32.155396" lon="-1.535611">
   <ele>1095.00</ele>
   <time>2014-04-04T10:17:01Z</time>
  </trkpt>
  <trkpt lat="32.155413" lon="-1.535846">
   <ele>1095.00</ele>
   <time>2014-04-04T10:17:02Z</time>
  </trkpt>
  <trkpt lat="32.155428" lon="-1.536326">
   <ele>1096.00</ele>
   <time>2014-04-04T10:17:04Z</time>
  </trkpt>
  <trkpt lat="32.155415" lon="-1.537296">
   <ele>1099.00</ele>
   <time>2014-04-04T10:17:08Z</time>
  </trkpt>
  <trkpt lat="32.155319" lon="-1.541319">
   <ele>1103.00</ele>
   <time>2014-04-04T10:17:24Z</time>
  </trkpt>
  <trkpt lat="32.155224" lon="-1.545267">
   <ele>1108.00</ele>
   <time>2014-04-04T10:17:39Z</time>
  </trkpt>
  <trkpt lat="32.155133" lon="-1.549343">
   <ele>1108.00</ele>
   <time>2014-04-04T10:17:55Z</time>
  </trkpt>
  <trkpt lat="32.155032" lon="-1.553372">
   <ele>1108.00</ele>
   <time>2014-04-04T10:18:10Z</time>
  </trkpt>
  <trkpt lat="32.154939" lon="-1.557416">
   <ele>1111.00</ele>
   <time>2014-04-04T10:18:25Z</time>
  </trkpt>
  <trkpt lat="32.154840" lon="-1.561666">
   <ele>1115.00</ele>
   <time>2014-04-04T10:18:41Z</time>
  </trkpt>
  <trkpt lat="32.154816" lon="-1.563432">
   <ele>1118.00</ele>
   <time>2014-04-04T10:18:48Z</time>
  </trkpt>
  <trkpt lat="32.154828" lon="-1.563674">
   <ele>1118.00</ele>
   <time>2014-04-04T10:18:49Z</time>
  </trkpt>
  <trkpt lat="32.154850" lon="-1.563914">
   <ele>1119.00</ele>
   <time>2014-04-04T10:18:50Z</time>
  </trkpt>
  <trkpt lat="32.154889" lon="-1.564153">
   <ele>1119.00</ele>
   <time>2014-04-04T10:18:51Z</time>
  </trkpt>
  <trkpt lat="32.154944" lon="-1.564388">
   <ele>1119.00</ele>
   <time>2014-04-04T10:18:52Z</time>
  </trkpt>
  <trkpt lat="32.155013" lon="-1.564621">
   <ele>1120.00</ele>
   <time>2014-04-04T10:18:53Z</time>
  </trkpt>
  <trkpt lat="32.155092" lon="-1.564850">
   <ele>1120.00</ele>
   <time>2014-04-04T10:18:54Z</time>
  </trkpt>
  <trkpt lat="32.155272" lon="-1.565301">
   <ele>1121.00</ele>
   <time>2014-04-04T10:18:56Z</time>
  </trkpt>
  <trkpt lat="32.156704" lon="-1.568836">
   <ele>1128.00</ele>
   <time>2014-04-04T10:19:11Z</time>
  </trkpt>
  <trkpt lat="32.158159" lon="-1.572479">
   <ele>1137.00</ele>
   <time>2014-04-04T10:19:26Z</time>
  </trkpt>
  <trkpt lat="32.159704" lon="-1.576315">
   <ele>1148.00</ele>
   <time>2014-04-04T10:19:42Z</time>
  </trkpt>
  <trkpt lat="32.160766" lon="-1.578932">
   <ele>1159.00</ele>
   <time>2014-04-04T10:19:53Z</time>
  </trkpt>
  <trkpt lat="32.160877" lon="-1.579153">
   <ele>1161.00</ele>
   <time>2014-04-04T10:19:54Z</time>
  </trkpt>
  <trkpt lat="32.161116" lon="-1.579582">
   <ele>1164.00</ele>
   <time>2014-04-04T10:19:56Z</time>
  </trkpt>
  <trkpt lat="32.161377" lon="-1.579987">
   <ele>1167.00</ele>
   <time>2014-04-04T10:19:58Z</time>
  </trkpt>
  <trkpt lat="32.161519" lon="-1.580177">
   <ele>1168.00</ele>
   <time>2014-04-04T10:19:59Z</time>
  </trkpt>
  <trkpt lat="32.161670" lon="-1.580356">
   <ele>1170.00</ele>
   <time>2014-04-04T10:20:00Z</time>
  </trkpt>
  <trkpt lat="32.161986" lon="-1.580690">
   <ele>1173.00</ele>
   <time>2014-04-04T10:20:02Z</time>
  </trkpt>
  <trkpt lat="32.163083" lon="-1.581840">
   <ele>1184.00</ele>
   <time>2014-04-04T10:20:09Z</time>
  </trkpt>
  <trkpt lat="32.163393" lon="-1.582177">
   <ele>1186.00</ele>
   <time>2014-04-04T10:20:11Z</time>
  </trkpt>
  <trkpt lat="32.163715" lon="-1.582492">
   <ele>1188.00</ele>
   <time>2014-04-04T10:20:13Z</time>
  </trkpt>
  <trkpt lat="32.163881" lon="-1.582636">
   <ele>1190.00</ele>
   <time>2014-04-04T10:20:14Z</time>
  </trkpt>
  <trkpt lat="32.164052" lon="-1.582767">
   <ele>1191.00</ele>
   <time>2014-04-04T10:20:15Z</time>
  </trkpt>
  <trkpt lat="32.164229" lon="-1.582884">
   <ele>1192.00</ele>
   <time>2014-04-04T10:20:16Z</time>
  </trkpt>
  <trkpt lat="32.164414" lon="-1.582986">
   <ele>1192.00</ele>
   <time>2014-04-04T10:20:17Z</time>
  </trkpt>
  <trkpt lat="32.164606" lon="-1.583076">
   <ele>1192.00</ele>
   <time>2014-04-04T10:20:18Z</time>
  </trkpt>
  <trkpt lat="32.164805" lon="-1.583158">
   <ele>1193.00</ele>
   <time>2014-04-04T10:20:19Z</time>
  </trkpt>
  <trkpt lat="32.165010" lon="-1.583232">
   <ele>1193.00</ele>
   <time>2014-04-04T10:20:20Z</time>
  </trkpt>
  <trkpt lat="32.165431" lon="-1.583361">
   <ele>1194.00</ele>
   <time>2014-04-04T10:20:22Z</time>
  </trkpt>
  <trkpt lat="32.168613" lon="-1.584281">
   <ele>1205.00</ele>
   <time>2014-04-04T10:20:37Z</time>
  </trkpt>
  <trkpt lat="32.169012" lon="-1.584432">
   <ele>1207.00</ele>
   <time>2014-04-04T10:20:39Z</time>
  </trkpt>
  <trkpt lat="32.169202" lon="-1.584522">
   <ele>1208.00</ele>
   <time>2014-04-04T10:20:40Z</time>
  </trkpt>
  <trkpt lat="32.169384" lon="-1.584626">
   <ele>1209.00</ele>
   <time>2014-04-04T10:20:41Z</time>
  </trkpt>
  <trkpt lat="32.169560" lon="-1.584747">
   <ele>1209.00</ele>
   <time>2014-04-04T10:20:42Z</time>
  </trkpt>
  <trkpt lat="32.169728" lon="-1.584884">
   <ele>1210.00</ele>
   <time>2014-04-04T10:20:43Z</time>
  </trkpt>
  <trkpt lat="32.170055" lon="-1.585184">
   <ele>1211.00</ele>
   <time>2014-04-04T10:20:45Z</time>
  </trkpt>
  <trkpt lat="32.171847" lon="-1.586863">
   <ele>1216.00</ele>
   <time>2014-04-04T10:20:56Z</time>
  </trkpt>
  <trkpt lat="32.172015" lon="-1.587000">
   <ele>1216.00</ele>
   <time>2014-04-04T10:20:57Z</time>
  </trkpt>
  <trkpt lat="32.172189" lon="-1.587127">
   <ele>1217.00</ele>
   <time>2014-04-04T10:20:58Z</time>
  </trkpt>
  <trkpt lat="32.172367" lon="-1.587243">
   <ele>1217.00</ele>
   <time>2014-04-04T10:20:59Z</time>
  </trkpt>
  <trkpt lat="32.172552" lon="-1.587346">
   <ele>1217.00</ele>
   <time>2014-04-04T10:21:00Z</time>
  </trkpt>
  <trkpt lat="32.172744" lon="-1.587433">
   <ele>1216.00</ele>
   <time>2014-04-04T10:21:01Z</time>
  </trkpt>
  <trkpt lat="32.172942" lon="-1.587505">
   <ele>1216.00</ele>
   <time>2014-04-04T10:21:02Z</time>
  </trkpt>
  <trkpt lat="32.173147" lon="-1.587562">
   <ele>1216.00</ele>
   <time>2014-04-04T10:21:03Z</time>
  </trkpt>
  <trkpt lat="32.173566" lon="-1.587655">
   <ele>1216.00</ele>
   <time>2014-04-04T10:21:05Z</time>
  </trkpt>
  <trkpt lat="32.175706" lon="-1.588092">
   <ele>1220.00</ele>
   <time>2014-04-04T10:21:15Z</time>
  </trkpt>
  <trkpt lat="32.176331" lon="-1.588271">
   <ele>1221.00</ele>
   <time>2014-04-04T10:21:18Z</time>
  </trkpt>
  <trkpt lat="32.176743" lon="-1.588414">
   <ele>1221.00</ele>
   <time>2014-04-04T10:21:20Z</time>
  </trkpt>
  <trkpt lat="32.177152" lon="-1.588582">
   <ele>1221.00</ele>
   <time>2014-04-04T10:21:22Z</time>
  </trkpt>
  <trkpt lat="32.179581" lon="-1.589709">
   <ele>1225.00</ele>
   <time>2014-04-04T10:21:34Z</time>
  </trkpt>
  <trkpt lat="32.180163" lon="-1.590015">
   <ele>1225.00</ele>
   <time>2014-04-04T10:21:37Z</time>
  </trkpt>
  <trkpt lat="32.180543" lon="-1.590247">
   <ele>1225.00</ele>
   <time>2014-04-04T10:21:39Z</time>
  </trkpt>
  <trkpt lat="32.181109" lon="-1.590635">
   <ele>1226.00</ele>
   <time>2014-04-04T10:21:42Z</time>
  </trkpt>
  <trkpt lat="32.184149" lon="-1.592802">
   <ele>1228.00</ele>
   <time>2014-04-04T10:21:58Z</time>
  </trkpt>
  <trkpt lat="32.186946" lon="-1.594762">
   <ele>1233.00</ele>
   <time>2014-04-04T10:22:13Z</time>
  </trkpt>
  <trkpt lat="32.189805" lon="-1.596756">
   <ele>1237.00</ele>
   <time>2014-04-04T10:22:28Z</time>
  </trkpt>
  <trkpt lat="32.192689" lon="-1.598793">
   <ele>1246.00</ele>
   <time>2014-04-04T10:22:43Z</time>
  </trkpt>
  <trkpt lat="32.193048" lon="-1.599084">
   <ele>1248.00</ele>
   <time>2014-04-04T10:22:45Z</time>
  </trkpt>
  <trkpt lat="32.193220" lon="-1.599240">
   <ele>1248.00</ele>
   <time>2014-04-04T10:22:46Z</time>
  </trkpt>
  <trkpt lat="32.193386" lon="-1.599404">
   <ele>1249.00</ele>
   <time>2014-04-04T10:22:47Z</time>
  </trkpt>
  <trkpt lat="32.193706" lon="-1.599749">
   <ele>1251.00</ele>
   <time>2014-04-04T10:22:49Z</time>
  </trkpt>
  <trkpt lat="32.194015" lon="-1.600112">
   <ele>1252.00</ele>
   <time>2014-04-04T10:22:51Z</time>
  </trkpt>
  <trkpt lat="32.194460" lon="-1.600682">
   <ele>1253.00</ele>
   <time>2014-04-04T10:22:54Z</time>
  </trkpt>
  <trkpt lat="32.194727" lon="-1.601089">
   <ele>1253.00</ele>
   <time>2014-04-04T10:22:56Z</time>
  </trkpt>
  <trkpt lat="32.194973" lon="-1.601521">
   <ele>1253.00</ele>
   <time>2014-04-04T10:22:58Z</time>
  </trkpt>
  <trkpt lat="32.196456" lon="-1.604110">
   <ele>1260.00</ele>
   <time>2014-04-04T10:23:10Z</time>
  </trkpt>
  <trkpt lat="32.196667" lon="-1.604557">
   <ele>1261.00</ele>
   <time>2014-04-04T10:23:12Z</time>
  </trkpt>
  <trkpt lat="32.198294" lon="-1.608309">
   <ele>1267.00</ele>
   <time>2014-04-04T10:23:28Z</time>
  </trkpt>
  <trkpt lat="32.198556" lon="-1.609007">
   <ele>1267.00</ele>
   <time>2014-04-04T10:23:31Z</time>
  </trkpt>
  <trkpt lat="32.198704" lon="-1.609482">
   <ele>1266.00</ele>
   <time>2014-04-04T10:23:33Z</time>
  </trkpt>
  <trkpt lat="32.198769" lon="-1.609728">
   <ele>1266.00</ele>
   <time>2014-04-04T10:23:34Z</time>
  </trkpt>
  <trkpt lat="32.198881" lon="-1.610230">
   <ele>1264.00</ele>
   <time>2014-04-04T10:23:36Z</time>
  </trkpt>
  <trkpt lat="32.199636" lon="-1.614075">
   <ele>1261.00</ele>
   <time>2014-04-04T10:23:51Z</time>
  </trkpt>
  <trkpt lat="32.199773" lon="-1.614807">
   <ele>1262.00</ele>
   <time>2014-04-04T10:23:54Z</time>
  </trkpt>
  <trkpt lat="32.199846" lon="-1.615298">
   <ele>1262.00</ele>
   <time>2014-04-04T10:23:56Z</time>
  </trkpt>
  <trkpt lat="32.199902" lon="-1.615798">
   <ele>1261.00</ele>
   <time>2014-04-04T10:23:58Z</time>
  </trkpt>
  <trkpt lat="32.200037" lon="-1.617633">
   <ele>1258.00</ele>
   <time>2014-04-04T10:24:05Z</time>
  </trkpt>
  <trkpt lat="32.200315" lon="-1.621515">
   <ele>1255.00</ele>
   <time>2014-04-04T10:24:20Z</time>
  </trkpt>
  <trkpt lat="32.200400" lon="-1.622493">
   <ele>1252.00</ele>
   <time>2014-04-04T10:24:24Z</time>
  </trkpt>
  <trkpt lat="32.200439" lon="-1.622727">
   <ele>1251.00</ele>
   <time>2014-04-04T10:24:25Z</time>
  </trkpt>
  <trkpt lat="32.200496" lon="-1.622953">
   <ele>1251.00</ele>
   <time>2014-04-04T10:24:26Z</time>
  </trkpt>
  <trkpt lat="32.200575" lon="-1.623169">
   <ele>1250.00</ele>
   <time>2014-04-04T10:24:27Z</time>
  </trkpt>
  <trkpt lat="32.200671" lon="-1.623375">
   <ele>1249.00</ele>
   <time>2014-04-04T10:24:28Z</time>
  </trkpt>
  <trkpt lat="32.200777" lon="-1.623575">
   <ele>1248.00</ele>
   <time>2014-04-04T10:24:29Z</time>
  </trkpt>
  <trkpt lat="32.201564" lon="-1.624969">
   <ele>1246.00</ele>
   <time>2014-04-04T10:24:36Z</time>
  </trkpt>
  <trkpt lat="32.203351" lon="-1.628114">
   <ele>1249.00</ele>
   <time>2014-04-04T10:24:51Z</time>
  </trkpt>
  <trkpt lat="32.204516" lon="-1.630236">
   <ele>1251.00</ele>
   <time>2014-04-04T10:25:01Z</time>
  </trkpt>
  <trkpt lat="32.204593" lon="-1.630451">
   <ele>1252.00</ele>
   <time>2014-04-04T10:25:02Z</time>
  </trkpt>
  <trkpt lat="32.204657" lon="-1.630675">
   <ele>1252.00</ele>
   <time>2014-04-04T10:25:03Z</time>
  </trkpt>
  <trkpt lat="32.204711" lon="-1.630904">
   <ele>1253.00</ele>
   <time>2014-04-04T10:25:04Z</time>
  </trkpt>
  <trkpt lat="32.204755" lon="-1.631134">
   <ele>1253.00</ele>
   <time>2014-04-04T10:25:05Z</time>
  </trkpt>
  <trkpt lat="32.204786" lon="-1.631366">
   <ele>1254.00</ele>
   <time>2014-04-04T10:25:06Z</time>
  </trkpt>
  <trkpt lat="32.204810" lon="-1.631599">
   <ele>1254.00</ele>
   <time>2014-04-04T10:25:07Z</time>
  </trkpt>
  <trkpt lat="32.204912" lon="-1.632737">
   <ele>1256.00</ele>
   <time>2014-04-04T10:25:12Z</time>
  </trkpt>
  <trkpt lat="32.204950" lon="-1.632951">
   <ele>1256.00</ele>
   <time>2014-04-04T10:25:13Z</time>
  </trkpt>
  <trkpt lat="32.205002" lon="-1.633156">
   <ele>1256.00</ele>
   <time>2014-04-04T10:25:14Z</time>
  </trkpt>
  <trkpt lat="32.205157" lon="-1.633527">
   <ele>1256.00</ele>
   <time>2014-04-04T10:25:16Z</time>
  </trkpt>
  <trkpt lat="32.205377" lon="-1.633869">
   <ele>1255.00</ele>
   <time>2014-04-04T10:25:18Z</time>
  </trkpt>
  <trkpt lat="32.205757" lon="-1.634372">
   <ele>1254.00</ele>
   <time>2014-04-04T10:25:21Z</time>
  </trkpt>
  <trkpt lat="32.206138" lon="-1.634850">
   <ele>1255.00</ele>
   <time>2014-04-04T10:25:24Z</time>
  </trkpt>
  <trkpt lat="32.206506" lon="-1.635303">
   <ele>1259.00</ele>
   <time>2014-04-04T10:25:27Z</time>
  </trkpt>
  <trkpt lat="32.206735" lon="-1.635629">
   <ele>1261.00</ele>
   <time>2014-04-04T10:25:29Z</time>
  </trkpt>
  <trkpt lat="32.206936" lon="-1.635978">
   <ele>1263.00</ele>
   <time>2014-04-04T10:25:31Z</time>
  </trkpt>
  <trkpt lat="32.207089" lon="-1.636351">
   <ele>1265.00</ele>
   <time>2014-04-04T10:25:33Z</time>
  </trkpt>
  <trkpt lat="32.207186" lon="-1.636751">
   <ele>1265.00</ele>
   <time>2014-04-04T10:25:35Z</time>
  </trkpt>
  <trkpt lat="32.207223" lon="-1.637169">
   <ele>1265.00</ele>
   <time>2014-04-04T10:25:37Z</time>
  </trkpt>
  <trkpt lat="32.207218" lon="-1.637383">
   <ele>1266.00</ele>
   <time>2014-04-04T10:25:38Z</time>
  </trkpt>
  <trkpt lat="32.207200" lon="-1.637597">
   <ele>1266.00</ele>
   <time>2014-04-04T10:25:39Z</time>
  </trkpt>
  <trkpt lat="32.207164" lon="-1.637808">
   <ele>1266.00</ele>
   <time>2014-04-04T10:25:40Z</time>
  </trkpt>
  <trkpt lat="32.207115" lon="-1.638018">
   <ele>1265.00</ele>
   <time>2014-04-04T10:25:41Z</time>
  </trkpt>
  <trkpt lat="32.207056" lon="-1.638224">
   <ele>1265.00</ele>
   <time>2014-04-04T10:25:42Z</time>
  </trkpt>
  <trkpt lat="32.206920" lon="-1.638631">
   <ele>1264.00</ele>
   <time>2014-04-04T10:25:44Z</time>
  </trkpt>
  <trkpt lat="32.206198" lon="-1.640537">
   <ele>1258.00</ele>
   <time>2014-04-04T10:25:53Z</time>
  </trkpt>
  <trkpt lat="32.205341" lon="-1.642733">
   <ele>1253.00</ele>
   <time>2014-04-04T10:26:03Z</time>
  </trkpt>
  <trkpt lat="32.205157" lon="-1.643124">
   <ele>1254.00</ele>
   <time>2014-04-04T10:26:05Z</time>
  </trkpt>
  <trkpt lat="32.205051" lon="-1.643310">
   <ele>1253.00</ele>
   <time>2014-04-04T10:26:06Z</time>
  </trkpt>
  <trkpt lat="32.204931" lon="-1.643490">
   <ele>1253.00</ele>
   <time>2014-04-04T10:26:07Z</time>
  </trkpt>
  <trkpt lat="32.204798" lon="-1.643664">
   <ele>1253.00</ele>
   <time>2014-04-04T10:26:08Z</time>
  </trkpt>
  <trkpt lat="32.204656" lon="-1.643831">
   <ele>1253.00</ele>
   <time>2014-04-04T10:26:09Z</time>
  </trkpt>
  <trkpt lat="32.202346" lon="-1.646403">
   <ele>1256.00</ele>
   <time>2014-04-04T10:26:24Z</time>
  </trkpt>
  <trkpt lat="32.201890" lon="-1.646929">
   <ele>1257.00</ele>
   <time>2014-04-04T10:26:27Z</time>
  </trkpt>
  <trkpt lat="32.201744" lon="-1.647115">
   <ele>1257.00</ele>
   <time>2014-04-04T10:26:28Z</time>
  </trkpt>
  <trkpt lat="32.201466" lon="-1.647511">
   <ele>1257.00</ele>
   <time>2014-04-04T10:26:30Z</time>
  </trkpt>
  <trkpt lat="32.199572" lon="-1.650400">
   <ele>1259.00</ele>
   <time>2014-04-04T10:26:44Z</time>
  </trkpt>
  <trkpt lat="32.199349" lon="-1.650803">
   <ele>1259.00</ele>
   <time>2014-04-04T10:26:46Z</time>
  </trkpt>
  <trkpt lat="32.199257" lon="-1.651016">
   <ele>1260.00</ele>
   <time>2014-04-04T10:26:47Z</time>
  </trkpt>
  <trkpt lat="32.199181" lon="-1.651238">
   <ele>1260.00</ele>
   <time>2014-04-04T10:26:48Z</time>
  </trkpt>
  <trkpt lat="32.199122" lon="-1.651468">
   <ele>1260.00</ele>
   <time>2014-04-04T10:26:49Z</time>
  </trkpt>
  <trkpt lat="32.199078" lon="-1.651705">
   <ele>1260.00</ele>
   <time>2014-04-04T10:26:50Z</time>
  </trkpt>
  <trkpt lat="32.199048" lon="-1.651948">
   <ele>1261.00</ele>
   <time>2014-04-04T10:26:51Z</time>
  </trkpt>
  <trkpt lat="32.198599" lon="-1.656079">
   <ele>1267.00</ele>
   <time>2014-04-04T10:27:07Z</time>
  </trkpt>
  <trkpt lat="32.198171" lon="-1.659510">
   <ele>1273.00</ele>
   <time>2014-04-04T10:27:22Z</time>
  </trkpt>
  <trkpt lat="32.198158" lon="-1.659747">
   <ele>1273.00</ele>
   <time>2014-04-04T10:27:23Z</time>
  </trkpt>
  <trkpt lat="32.198156" lon="-1.659986">
   <ele>1273.00</ele>
   <time>2014-04-04T10:27:24Z</time>
  </trkpt>
  <trkpt lat="32.198168" lon="-1.660228">
   <ele>1273.00</ele>
   <time>2014-04-04T10:27:25Z</time>
  </trkpt>
  <trkpt lat="32.198215" lon="-1.660719">
   <ele>1273.00</ele>
   <time>2014-04-04T10:27:27Z</time>
  </trkpt>
  <trkpt lat="32.198625" lon="-1.664584">
   <ele>1273.00</ele>
   <time>2014-04-04T10:27:42Z</time>
  </trkpt>
  <trkpt lat="32.198686" lon="-1.665087">
   <ele>1273.00</ele>
   <time>2014-04-04T10:27:44Z</time>
  </trkpt>
  <trkpt lat="32.198728" lon="-1.665332">
   <ele>1274.00</ele>
   <time>2014-04-04T10:27:45Z</time>
  </trkpt>
  <trkpt lat="32.198781" lon="-1.665570">
   <ele>1274.00</ele>
   <time>2014-04-04T10:27:46Z</time>
  </trkpt>
  <trkpt lat="32.198846" lon="-1.665800">
   <ele>1274.00</ele>
   <time>2014-04-04T10:27:47Z</time>
  </trkpt>
  <trkpt lat="32.198921" lon="-1.666026">
   <ele>1274.00</ele>
   <time>2014-04-04T10:27:48Z</time>
  </trkpt>
  <trkpt lat="32.199005" lon="-1.666248">
   <ele>1274.00</ele>
   <time>2014-04-04T10:27:49Z</time>
  </trkpt>
  <trkpt lat="32.199098" lon="-1.666465">
   <ele>1274.00</ele>
   <time>2014-04-04T10:27:50Z</time>
  </trkpt>
  <trkpt lat="32.199549" lon="-1.667523">
   <ele>1275.00</ele>
   <time>2014-04-04T10:27:55Z</time>
  </trkpt>
  <trkpt lat="32.199614" lon="-1.667741">
   <ele>1276.00</ele>
   <time>2014-04-04T10:27:56Z</time>
  </trkpt>
  <trkpt lat="32.199667" lon="-1.667965">
   <ele>1276.00</ele>
   <time>2014-04-04T10:27:57Z</time>
  </trkpt>
  <trkpt lat="32.199705" lon="-1.668194">
   <ele>1276.00</ele>
   <time>2014-04-04T10:27:58Z</time>
  </trkpt>
  <trkpt lat="32.199730" lon="-1.668426">
   <ele>1277.00</ele>
   <time>2014-04-04T10:27:59Z</time>
  </trkpt>
  <trkpt lat="32.199746" lon="-1.668662">
   <ele>1278.00</ele>
   <time>2014-04-04T10:28:00Z</time>
  </trkpt>
  <trkpt lat="32.199829" lon="-1.671071">
   <ele>1280.00</ele>
   <time>2014-04-04T10:28:10Z</time>
  </trkpt>
  <trkpt lat="32.199859" lon="-1.671297">
   <ele>1280.00</ele>
   <time>2014-04-04T10:28:11Z</time>
  </trkpt>
  <trkpt lat="32.199906" lon="-1.671515">
   <ele>1281.00</ele>
   <time>2014-04-04T10:28:12Z</time>
  </trkpt>
  <trkpt lat="32.199972" lon="-1.671724">
   <ele>1281.00</ele>
   <time>2014-04-04T10:28:13Z</time>
  </trkpt>
  <trkpt lat="32.200058" lon="-1.671921">
   <ele>1281.00</ele>
   <time>2014-04-04T10:28:14Z</time>
  </trkpt>
  <trkpt lat="32.200160" lon="-1.672107">
   <ele>1282.00</ele>
   <time>2014-04-04T10:28:15Z</time>
  </trkpt>
  <trkpt lat="32.200280" lon="-1.672281">
   <ele>1282.00</ele>
   <time>2014-04-04T10:28:16Z</time>
  </trkpt>
  <trkpt lat="32.200415" lon="-1.672441">
   <ele>1283.00</ele>
   <time>2014-04-04T10:28:17Z</time>
  </trkpt>
  <trkpt lat="32.200562" lon="-1.672590">
   <ele>1283.00</ele>
   <time>2014-04-04T10:28:18Z</time>
  </trkpt>
  <trkpt lat="32.201754" lon="-1.673724">
   <ele>1284.00</ele>
   <time>2014-04-04T10:28:26Z</time>
  </trkpt>
  <trkpt lat="32.201985" lon="-1.674042">
   <ele>1285.00</ele>
   <time>2014-04-04T10:28:28Z</time>
  </trkpt>
  <trkpt lat="32.202163" lon="-1.674407">
   <ele>1286.00</ele>
   <time>2014-04-04T10:28:30Z</time>
  </trkpt>
  <trkpt lat="32.202280" lon="-1.674807">
   <ele>1286.00</ele>
   <time>2014-04-04T10:28:32Z</time>
  </trkpt>
  <trkpt lat="32.202317" lon="-1.675017">
   <ele>1286.00</ele>
   <time>2014-04-04T10:28:33Z</time>
  </trkpt>
  <trkpt lat="32.202339" lon="-1.675233">
   <ele>1286.00</ele>
   <time>2014-04-04T10:28:34Z</time>
  </trkpt>
  <trkpt lat="32.202346" lon="-1.675452">
   <ele>1286.00</ele>
   <time>2014-04-04T10:28:35Z</time>
  </trkpt>
  <trkpt lat="32.202341" lon="-1.675675">
   <ele>1286.00</ele>
   <time>2014-04-04T10:28:36Z</time>
  </trkpt>
  <trkpt lat="32.202123" lon="-1.679068">
   <ele>1289.00</ele>
   <time>2014-04-04T10:28:51Z</time>
  </trkpt>
  <trkpt lat="32.202109" lon="-1.679507">
   <ele>1290.00</ele>
   <time>2014-04-04T10:28:53Z</time>
  </trkpt>
  <trkpt lat="32.202136" lon="-1.679922">
   <ele>1292.00</ele>
   <time>2014-04-04T10:28:55Z</time>
  </trkpt>
  <trkpt lat="32.202224" lon="-1.680320">
   <ele>1293.00</ele>
   <time>2014-04-04T10:28:57Z</time>
  </trkpt>
  <trkpt lat="32.202364" lon="-1.680710">
   <ele>1294.00</ele>
   <time>2014-04-04T10:28:59Z</time>
  </trkpt>
  <trkpt lat="32.202616" lon="-1.681306">
   <ele>1295.00</ele>
   <time>2014-04-04T10:29:02Z</time>
  </trkpt>
  <trkpt lat="32.202709" lon="-1.681503">
   <ele>1295.00</ele>
   <time>2014-04-04T10:29:03Z</time>
  </trkpt>
  <trkpt lat="32.202814" lon="-1.681693">
   <ele>1295.00</ele>
   <time>2014-04-04T10:29:04Z</time>
  </trkpt>
  <trkpt lat="32.202933" lon="-1.681871">
   <ele>1296.00</ele>
   <time>2014-04-04T10:29:05Z</time>
  </trkpt>
  <trkpt lat="32.203069" lon="-1.682034">
   <ele>1296.00</ele>
   <time>2014-04-04T10:29:06Z</time>
  </trkpt>
  <trkpt lat="32.203217" lon="-1.682181">
   <ele>1296.00</ele>
   <time>2014-04-04T10:29:07Z</time>
  </trkpt>
  <trkpt lat="32.203375" lon="-1.682317">
   <ele>1296.00</ele>
   <time>2014-04-04T10:29:08Z</time>
  </trkpt>
  <trkpt lat="32.205911" lon="-1.684323">
   <ele>1299.00</ele>
   <time>2014-04-04T10:29:23Z</time>
  </trkpt>
  <trkpt lat="32.208722" lon="-1.686579">
   <ele>1305.00</ele>
   <time>2014-04-04T10:29:39Z</time>
  </trkpt>
  <trkpt lat="32.211449" lon="-1.688778">
   <ele>1312.00</ele>
   <time>2014-04-04T10:29:54Z</time>
  </trkpt>
  <trkpt lat="32.212999" lon="-1.690033">
   <ele>1318.00</ele>
   <time>2014-04-04T10:30:03Z</time>
  </trkpt>
  <trkpt lat="32.213142" lon="-1.690178">
   <ele>1318.00</ele>
   <time>2014-04-04T10:30:04Z</time>
  </trkpt>
  <trkpt lat="32.213274" lon="-1.690338">
   <ele>1318.00</ele>
   <time>2014-04-04T10:30:05Z</time>
  </trkpt>
  <trkpt lat="32.213395" lon="-1.690514">
   <ele>1319.00</ele>
   <time>2014-04-04T10:30:06Z</time>
  </trkpt>
  <trkpt lat="32.213503" lon="-1.690703">
   <ele>1319.00</ele>
   <time>2014-04-04T10:30:07Z</time>
  </trkpt>
  <trkpt lat="32.213604" lon="-1.690902">
   <ele>1319.00</ele>
   <time>2014-04-04T10:30:08Z</time>
  </trkpt>
  <trkpt lat="32.215144" lon="-1.694197">
   <ele>1322.00</ele>
   <time>2014-04-04T10:30:23Z</time>
  </trkpt>
  <trkpt lat="32.216282" lon="-1.696651">
   <ele>1329.00</ele>
   <time>2014-04-04T10:30:34Z</time>
  </trkpt>
  <trkpt lat="32.216370" lon="-1.696875">
   <ele>1329.00</ele>
   <time>2014-04-04T10:30:35Z</time>
  </trkpt>
  <trkpt lat="32.216452" lon="-1.697104">
   <ele>1329.00</ele>
   <time>2014-04-04T10:30:36Z</time>
  </trkpt>
  <trkpt lat="32.216528" lon="-1.697340">
   <ele>1330.00</ele>
   <time>2014-04-04T10:30:37Z</time>
  </trkpt>
  <trkpt lat="32.216659" lon="-1.697823">
   <ele>1331.00</ele>
   <time>2014-04-04T10:30:39Z</time>
  </trkpt>
  <trkpt lat="32.217598" lon="-1.701595">
   <ele>1335.00</ele>
   <time>2014-04-04T10:30:54Z</time>
  </trkpt>
  <trkpt lat="32.218567" lon="-1.705445">
   <ele>1336.00</ele>
   <time>2014-04-04T10:31:09Z</time>
  </trkpt>
  <trkpt lat="32.219112" lon="-1.707710">
   <ele>1338.00</ele>
   <time>2014-04-04T10:31:18Z</time>
  </trkpt>
  <trkpt lat="32.219888" lon="-1.711591">
   <ele>1339.00</ele>
   <time>2014-04-04T10:31:33Z</time>
  </trkpt>
  <trkpt lat="32.220052" lon="-1.712299">
   <ele>1338.00</ele>
   <time>2014-04-04T10:31:36Z</time>
  </trkpt>
  <trkpt lat="32.220128" lon="-1.712513">
   <ele>1337.00</ele>
   <time>2014-04-04T10:31:37Z</time>
  </trkpt>
  <trkpt lat="32.220222" lon="-1.712710">
   <ele>1336.00</ele>
   <time>2014-04-04T10:31:38Z</time>
  </trkpt>
  <trkpt lat="32.220333" lon="-1.712892">
   <ele>1335.00</ele>
   <time>2014-04-04T10:31:39Z</time>
  </trkpt>
  <trkpt lat="32.220461" lon="-1.713058">
   <ele>1334.00</ele>
   <time>2014-04-04T10:31:40Z</time>
  </trkpt>
  <trkpt lat="32.220602" lon="-1.713209">
   <ele>1333.00</ele>
   <time>2014-04-04T10:31:41Z</time>
  </trkpt>
  <trkpt lat="32.220757" lon="-1.713350">
   <ele>1332.00</ele>
   <time>2014-04-04T10:31:42Z</time>
  </trkpt>
  <trkpt lat="32.221089" lon="-1.713622">
   <ele>1330.00</ele>
   <time>2014-04-04T10:31:44Z</time>
  </trkpt>
  <trkpt lat="32.222515" lon="-1.714733">
   <ele>1321.00</ele>
   <time>2014-04-04T10:31:52Z</time>
  </trkpt>
  <trkpt lat="32.222705" lon="-1.714848">
   <ele>1320.00</ele>
   <time>2014-04-04T10:31:53Z</time>
  </trkpt>
  <trkpt lat="32.222905" lon="-1.714944">
   <ele>1320.00</ele>
   <time>2014-04-04T10:31:54Z</time>
  </trkpt>
  <trkpt lat="32.223113" lon="-1.715020">
   <ele>1319.00</ele>
   <time>2014-04-04T10:31:55Z</time>
  </trkpt>
  <trkpt lat="32.223326" lon="-1.715080">
   <ele>1318.00</ele>
   <time>2014-04-04T10:31:56Z</time>
  </trkpt>
  <trkpt lat="32.226835" lon="-1.715958">
   <ele>1310.00</ele>
   <time>2014-04-04T10:32:12Z</time>
  </trkpt>
  <trkpt lat="32.230062" lon="-1.716788">
   <ele>1308.00</ele>
   <time>2014-04-04T10:32:27Z</time>
  </trkpt>
  <trkpt lat="32.233468" lon="-1.717685">
   <ele>1301.00</ele>
   <time>2014-04-04T10:32:42Z</time>
  </trkpt>
  <trkpt lat="32.236226" lon="-1.718391">
   <ele>1295.00</ele>
   <time>2014-04-04T10:32:54Z</time>
  </trkpt>
  <trkpt lat="32.236446" lon="-1.718423">
   <ele>1294.00</ele>
   <time>2014-04-04T10:32:55Z</time>
  </trkpt>
  <trkpt lat="32.236667" lon="-1.718438">
   <ele>1293.00</ele>
   <time>2014-04-04T10:32:56Z</time>
  </trkpt>
  <trkpt lat="32.236890" lon="-1.718442">
   <ele>1293.00</ele>
   <time>2014-04-04T10:32:57Z</time>
  </trkpt>
  <trkpt lat="32.238643" lon="-1.718383">
   <ele>1289.00</ele>
   <time>2014-04-04T10:33:05Z</time>
  </trkpt>
  <trkpt lat="32.239206" lon="-1.718339">
   <ele>1289.00</ele>
   <time>2014-04-04T10:33:08Z</time>
  </trkpt>
  <trkpt lat="32.239554" lon="-1.718234">
   <ele>1288.00</ele>
   <time>2014-04-04T10:33:10Z</time>
  </trkpt>
  <trkpt lat="32.239725" lon="-1.718151">
   <ele>1288.00</ele>
   <time>2014-04-04T10:33:11Z</time>
  </trkpt>
  <trkpt lat="32.240075" lon="-1.717947">
   <ele>1287.00</ele>
   <time>2014-04-04T10:33:13Z</time>
  </trkpt>
  <trkpt lat="32.243094" lon="-1.716178">
   <ele>1283.00</ele>
   <time>2014-04-04T10:33:28Z</time>
  </trkpt>
  <trkpt lat="32.244700" lon="-1.715267">
   <ele>1281.00</ele>
   <time>2014-04-04T10:33:36Z</time>
  </trkpt>
  <trkpt lat="32.245109" lon="-1.715080">
   <ele>1280.00</ele>
   <time>2014-04-04T10:33:38Z</time>
  </trkpt>
  <trkpt lat="32.245530" lon="-1.714915">
   <ele>1279.00</ele>
   <time>2014-04-04T10:33:40Z</time>
  </trkpt>
  <trkpt lat="32.245961" lon="-1.714773">
   <ele>1278.00</ele>
   <time>2014-04-04T10:33:42Z</time>
  </trkpt>
  <trkpt lat="32.249241" lon="-1.713738">
   <ele>1274.00</ele>
   <time>2014-04-04T10:33:57Z</time>
  </trkpt>
  <trkpt lat="32.252514" lon="-1.712701">
   <ele>1274.00</ele>
   <time>2014-04-04T10:34:12Z</time>
  </trkpt>
  <trkpt lat="32.256049" lon="-1.711583">
   <ele>1270.00</ele>
   <time>2014-04-04T10:34:28Z</time>
  </trkpt>
  <trkpt lat="32.259354" lon="-1.710536">
   <ele>1269.00</ele>
   <time>2014-04-04T10:34:43Z</time>
  </trkpt>
  <trkpt lat="32.262545" lon="-1.709524">
   <ele>1271.00</ele>
   <time>2014-04-04T10:34:58Z</time>
  </trkpt>
  <trkpt lat="32.264260" lon="-1.708996">
   <ele>1271.00</ele>
   <time>2014-04-04T10:35:06Z</time>
  </trkpt>
  <trkpt lat="32.264701" lon="-1.708895">
   <ele>1271.00</ele>
   <time>2014-04-04T10:35:08Z</time>
  </trkpt>
  <trkpt lat="32.265150" lon="-1.708822">
   <ele>1271.00</ele>
   <time>2014-04-04T10:35:10Z</time>
  </trkpt>
  <trkpt lat="32.265607" lon="-1.708772">
   <ele>1271.00</ele>
   <time>2014-04-04T10:35:12Z</time>
  </trkpt>
  <trkpt lat="32.266069" lon="-1.708752">
   <ele>1270.00</ele>
   <time>2014-04-04T10:35:14Z</time>
  </trkpt>
  <trkpt lat="32.268108" lon="-1.708750">
   <ele>1268.00</ele>
   <time>2014-04-04T10:35:23Z</time>
  </trkpt>
  <trkpt lat="32.268330" lon="-1.708751">
   <ele>1268.00</ele>
   <time>2014-04-04T10:35:24Z</time>
  </trkpt>
  <trkpt lat="32.268993" lon="-1.708750">
   <ele>1268.00</ele>
   <time>2014-04-04T10:35:27Z</time>
  </trkpt>
  <trkpt lat="32.269662" lon="-1.708756">
   <ele>1267.00</ele>
   <time>2014-04-04T10:35:30Z</time>
  </trkpt>
  <trkpt lat="32.271482" lon="-1.708753">
   <ele>1267.00</ele>
   <time>2014-04-04T10:35:38Z</time>
  </trkpt>
  <trkpt lat="32.271713" lon="-1.708753">
   <ele>1267.00</ele>
   <time>2014-04-04T10:35:39Z</time>
  </trkpt>
  <trkpt lat="32.274276" lon="-1.708751">
   <ele>1265.00</ele>
   <time>2014-04-04T10:35:50Z</time>
  </trkpt>
  <trkpt lat="32.275215" lon="-1.708755">
   <ele>1265.00</ele>
   <time>2014-04-04T10:35:54Z</time>
  </trkpt>
  <trkpt lat="32.276864" lon="-1.708754">
   <ele>1263.00</ele>
   <time>2014-04-04T10:36:01Z</time>
  </trkpt>
  <trkpt lat="32.277338" lon="-1.708756">
   <ele>1263.00</ele>
   <time>2014-04-04T10:36:03Z</time>
  </trkpt>
  <trkpt lat="32.278770" lon="-1.708751">
   <ele>1261.00</ele>
   <time>2014-04-04T10:36:09Z</time>
  </trkpt>
  <trkpt lat="32.279482" lon="-1.708754">
   <ele>1259.00</ele>
   <time>2014-04-04T10:36:12Z</time>
  </trkpt>
  <trkpt lat="32.280887" lon="-1.708753">
   <ele>1256.00</ele>
   <time>2014-04-04T10:36:18Z</time>
  </trkpt>
  <trkpt lat="32.281354" lon="-1.708755">
   <ele>1254.00</ele>
   <time>2014-04-04T10:36:20Z</time>
  </trkpt>
  <trkpt lat="32.282526" lon="-1.708755">
   <ele>1251.00</ele>
   <time>2014-04-04T10:36:25Z</time>
  </trkpt>
  <trkpt lat="32.282761" lon="-1.708756">
   <ele>1250.00</ele>
   <time>2014-04-04T10:36:26Z</time>
  </trkpt>
  <trkpt lat="32.283706" lon="-1.708753">
   <ele>1247.00</ele>
   <time>2014-04-04T10:36:30Z</time>
  </trkpt>
  <trkpt lat="32.284184" lon="-1.708755">
   <ele>1246.00</ele>
   <time>2014-04-04T10:36:32Z</time>
  </trkpt>
  <trkpt lat="32.284424" lon="-1.708755">
   <ele>1246.00</ele>
   <time>2014-04-04T10:36:33Z</time>
  </trkpt>
  <trkpt lat="32.284664" lon="-1.708755">
   <ele>1245.00</ele>
   <time>2014-04-04T10:36:34Z</time>
  </trkpt>
  <trkpt lat="32.286831" lon="-1.708754">
   <ele>1242.00</ele>
   <time>2014-04-04T10:36:43Z</time>
  </trkpt>
  <trkpt lat="32.287073" lon="-1.708754">
   <ele>1242.00</ele>
   <time>2014-04-04T10:36:44Z</time>
  </trkpt>
  <trkpt lat="32.289202" lon="-1.708753">
   <ele>1239.00</ele>
   <time>2014-04-04T10:36:53Z</time>
  </trkpt>
  <trkpt lat="32.289434" lon="-1.708753">
   <ele>1239.00</ele>
   <time>2014-04-04T10:36:54Z</time>
  </trkpt>
  <trkpt lat="32.289893" lon="-1.708753">
   <ele>1239.00</ele>
   <time>2014-04-04T10:36:56Z</time>
  </trkpt>
  <trkpt lat="32.290340" lon="-1.708755">
   <ele>1238.00</ele>
   <time>2014-04-04T10:36:58Z</time>
  </trkpt>
  <trkpt lat="32.290774" lon="-1.708755">
   <ele>1238.00</ele>
   <time>2014-04-04T10:37:00Z</time>
  </trkpt>
  <trkpt lat="32.291204" lon="-1.708755">
   <ele>1238.00</ele>
   <time>2014-04-04T10:37:02Z</time>
  </trkpt>
  <trkpt lat="32.291420" lon="-1.708743">
   <ele>1238.00</ele>
   <time>2014-04-04T10:37:03Z</time>
  </trkpt>
  <trkpt lat="32.291635" lon="-1.708720">
   <ele>1238.00</ele>
   <time>2014-04-04T10:37:04Z</time>
  </trkpt>
  <trkpt lat="32.291851" lon="-1.708685">
   <ele>1238.00</ele>
   <time>2014-04-04T10:37:05Z</time>
  </trkpt>
  <trkpt lat="32.292066" lon="-1.708637">
   <ele>1238.00</ele>
   <time>2014-04-04T10:37:06Z</time>
  </trkpt>
  <trkpt lat="32.292280" lon="-1.708577">
   <ele>1238.00</ele>
   <time>2014-04-04T10:37:07Z</time>
  </trkpt>
  <trkpt lat="32.292492" lon="-1.708504">
   <ele>1238.00</ele>
   <time>2014-04-04T10:37:08Z</time>
  </trkpt>
  <trkpt lat="32.292701" lon="-1.708419">
   <ele>1239.00</ele>
   <time>2014-04-04T10:37:09Z</time>
  </trkpt>
  <trkpt lat="32.293116" lon="-1.708223">
   <ele>1239.00</ele>
   <time>2014-04-04T10:37:11Z</time>
  </trkpt>
  <trkpt lat="32.295908" lon="-1.706884">
   <ele>1237.00</ele>
   <time>2014-04-04T10:37:24Z</time>
  </trkpt>
  <trkpt lat="32.296569" lon="-1.706634">
   <ele>1236.00</ele>
   <time>2014-04-04T10:37:27Z</time>
  </trkpt>
  <trkpt lat="32.297019" lon="-1.706495">
   <ele>1236.00</ele>
   <time>2014-04-04T10:37:29Z</time>
  </trkpt>
  <trkpt lat="32.297934" lon="-1.706259">
   <ele>1235.00</ele>
   <time>2014-04-04T10:37:33Z</time>
  </trkpt>
  <trkpt lat="32.301572" lon="-1.705415">
   <ele>1232.00</ele>
   <time>2014-04-04T10:37:49Z</time>
  </trkpt>
  <trkpt lat="32.304990" lon="-1.704617">
   <ele>1230.00</ele>
   <time>2014-04-04T10:38:04Z</time>
  </trkpt>
  <trkpt lat="32.308420" lon="-1.703811">
   <ele>1227.00</ele>
   <time>2014-04-04T10:38:19Z</time>
  </trkpt>
  <trkpt lat="32.308868" lon="-1.703671">
   <ele>1227.00</ele>
   <time>2014-04-04T10:38:21Z</time>
  </trkpt>
  <trkpt lat="32.309313" lon="-1.703504">
   <ele>1226.00</ele>
   <time>2014-04-04T10:38:23Z</time>
  </trkpt>
  <trkpt lat="32.309752" lon="-1.703311">
   <ele>1226.00</ele>
   <time>2014-04-04T10:38:25Z</time>
  </trkpt>
  <trkpt lat="32.310181" lon="-1.703088">
   <ele>1226.00</ele>
   <time>2014-04-04T10:38:27Z</time>
  </trkpt>
  <trkpt lat="32.310604" lon="-1.702842">
   <ele>1226.00</ele>
   <time>2014-04-04T10:38:29Z</time>
  </trkpt>
  <trkpt lat="32.313764" lon="-1.700933">
   <ele>1224.00</ele>
   <time>2014-04-04T10:38:44Z</time>
  </trkpt>
  <trkpt lat="32.317067" lon="-1.698930">
   <ele>1222.00</ele>
   <time>2014-04-04T10:39:00Z</time>
  </trkpt>
  <trkpt lat="32.320134" lon="-1.697110">
   <ele>1219.00</ele>
   <time>2014-04-04T10:39:15Z</time>
  </trkpt>
  <trkpt lat="32.320764" lon="-1.696791">
   <ele>1219.00</ele>
   <time>2014-04-04T10:39:18Z</time>
  </trkpt>
  <trkpt lat="32.321405" lon="-1.696503">
   <ele>1219.00</ele>
   <time>2014-04-04T10:39:21Z</time>
  </trkpt>
  <trkpt lat="32.324922" lon="-1.695126">
   <ele>1220.00</ele>
   <time>2014-04-04T10:39:37Z</time>
  </trkpt>
  <trkpt lat="32.328212" lon="-1.693836">
   <ele>1221.00</ele>
   <time>2014-04-04T10:39:52Z</time>
  </trkpt>
  <trkpt lat="32.331562" lon="-1.692522">
   <ele>1224.00</ele>
   <time>2014-04-04T10:40:07Z</time>
  </trkpt>
  <trkpt lat="32.335151" lon="-1.691108">
   <ele>1225.00</ele>
   <time>2014-04-04T10:40:23Z</time>
  </trkpt>
  <trkpt lat="32.337526" lon="-1.690194">
   <ele>1224.00</ele>
   <time>2014-04-04T10:40:34Z</time>
  </trkpt>
  <trkpt lat="32.337936" lon="-1.690080">
   <ele>1223.00</ele>
   <time>2014-04-04T10:40:36Z</time>
  </trkpt>
  <trkpt lat="32.338142" lon="-1.690038">
   <ele>1223.00</ele>
   <time>2014-04-04T10:40:37Z</time>
  </trkpt>
  <trkpt lat="32.338347" lon="-1.690006">
   <ele>1223.00</ele>
   <time>2014-04-04T10:40:38Z</time>
  </trkpt>
  <trkpt lat="32.338552" lon="-1.689983">
   <ele>1223.00</ele>
   <time>2014-04-04T10:40:39Z</time>
  </trkpt>
  <trkpt lat="32.338756" lon="-1.689970">
   <ele>1222.00</ele>
   <time>2014-04-04T10:40:40Z</time>
  </trkpt>
  <trkpt lat="32.338960" lon="-1.689967">
   <ele>1222.00</ele>
   <time>2014-04-04T10:40:41Z</time>
  </trkpt>
  <trkpt lat="32.339163" lon="-1.689975">
   <ele>1222.00</ele>
   <time>2014-04-04T10:40:42Z</time>
  </trkpt>
  <trkpt lat="32.339365" lon="-1.689995">
   <ele>1222.00</ele>
   <time>2014-04-04T10:40:43Z</time>
  </trkpt>
  <trkpt lat="32.339567" lon="-1.690024">
   <ele>1222.00</ele>
   <time>2014-04-04T10:40:44Z</time>
  </trkpt>
  <trkpt lat="32.339770" lon="-1.690061">
   <ele>1221.00</ele>
   <time>2014-04-04T10:40:45Z</time>
  </trkpt>
  <trkpt lat="32.340177" lon="-1.690161">
   <ele>1221.00</ele>
   <time>2014-04-04T10:40:47Z</time>
  </trkpt>
  <trkpt lat="32.343412" lon="-1.691069">
   <ele>1213.00</ele>
   <time>2014-04-04T10:41:02Z</time>
  </trkpt>
  <trkpt lat="32.346973" lon="-1.692067">
   <ele>1207.00</ele>
   <time>2014-04-04T10:41:18Z</time>
  </trkpt>
  <trkpt lat="32.348281" lon="-1.692403">
   <ele>1208.00</ele>
   <time>2014-04-04T10:41:24Z</time>
  </trkpt>
  <trkpt lat="32.348713" lon="-1.692480">
   <ele>1209.00</ele>
   <time>2014-04-04T10:41:26Z</time>
  </trkpt>
  <trkpt lat="32.349147" lon="-1.692534">
   <ele>1209.00</ele>
   <time>2014-04-04T10:41:28Z</time>
  </trkpt>
  <trkpt lat="32.349591" lon="-1.692562">
   <ele>1209.00</ele>
   <time>2014-04-04T10:41:30Z</time>
  </trkpt>
  <trkpt lat="32.349815" lon="-1.692565">
   <ele>1209.00</ele>
   <time>2014-04-04T10:41:31Z</time>
  </trkpt>
  <trkpt lat="32.350268" lon="-1.692554">
   <ele>1209.00</ele>
   <time>2014-04-04T10:41:33Z</time>
  </trkpt>
  <trkpt lat="32.353903" lon="-1.692385">
   <ele>1212.00</ele>
   <time>2014-04-04T10:41:49Z</time>
  </trkpt>
  <trkpt lat="32.355039" lon="-1.692309">
   <ele>1213.00</ele>
   <time>2014-04-04T10:41:54Z</time>
  </trkpt>
  <trkpt lat="32.355717" lon="-1.692216">
   <ele>1212.00</ele>
   <time>2014-04-04T10:41:57Z</time>
  </trkpt>
  <trkpt lat="32.359127" lon="-1.691597">
   <ele>1210.00</ele>
   <time>2014-04-04T10:42:12Z</time>
  </trkpt>
  <trkpt lat="32.362728" lon="-1.690943">
   <ele>1210.00</ele>
   <time>2014-04-04T10:42:28Z</time>
  </trkpt>
  <trkpt lat="32.366142" lon="-1.690321">
   <ele>1209.00</ele>
   <time>2014-04-04T10:42:43Z</time>
  </trkpt>
  <trkpt lat="32.369647" lon="-1.689690">
   <ele>1209.00</ele>
   <time>2014-04-04T10:42:58Z</time>
  </trkpt>
  <trkpt lat="32.373412" lon="-1.689009">
   <ele>1208.00</ele>
   <time>2014-04-04T10:43:14Z</time>
  </trkpt>
  <trkpt lat="32.376936" lon="-1.688372">
   <ele>1207.00</ele>
   <time>2014-04-04T10:43:29Z</time>
  </trkpt>
  <trkpt lat="32.378796" lon="-1.688068">
   <ele>1208.00</ele>
   <time>2014-04-04T10:43:37Z</time>
  </trkpt>
  <trkpt lat="32.382321" lon="-1.687658">
   <ele>1211.00</ele>
   <time>2014-04-04T10:43:52Z</time>
  </trkpt>
  <trkpt lat="32.386076" lon="-1.687224">
   <ele>1212.00</ele>
   <time>2014-04-04T10:44:08Z</time>
  </trkpt>
  <trkpt lat="32.389620" lon="-1.686818">
   <ele>1209.00</ele>
   <time>2014-04-04T10:44:23Z</time>
  </trkpt>
  <trkpt lat="32.393230" lon="-1.686410">
   <ele>1205.00</ele>
   <time>2014-04-04T10:44:38Z</time>
  </trkpt>
  <trkpt lat="32.396944" lon="-1.685977">
   <ele>1205.00</ele>
   <time>2014-04-04T10:44:54Z</time>
  </trkpt>
  <trkpt lat="32.400540" lon="-1.685542">
   <ele>1201.00</ele>
   <time>2014-04-04T10:45:09Z</time>
  </trkpt>
  <trkpt lat="32.402671" lon="-1.685175">
   <ele>1200.00</ele>
   <time>2014-04-04T10:45:18Z</time>
  </trkpt>
  <trkpt lat="32.406363" lon="-1.684500">
   <ele>1199.00</ele>
   <time>2014-04-04T10:45:34Z</time>
  </trkpt>
  <trkpt lat="32.409831" lon="-1.683870">
   <ele>1200.00</ele>
   <time>2014-04-04T10:45:49Z</time>
  </trkpt>
  <trkpt lat="32.412896" lon="-1.683335">
   <ele>1199.00</ele>
   <time>2014-04-04T10:46:02Z</time>
  </trkpt>
  <trkpt lat="32.413852" lon="-1.683242">
   <ele>1199.00</ele>
   <time>2014-04-04T10:46:06Z</time>
  </trkpt>
  <trkpt lat="32.414572" lon="-1.683215">
   <ele>1199.00</ele>
   <time>2014-04-04T10:46:09Z</time>
  </trkpt>
  <trkpt lat="32.415055" lon="-1.683214">
   <ele>1199.00</ele>
   <time>2014-04-04T10:46:11Z</time>
  </trkpt>
  <trkpt lat="32.418679" lon="-1.683257">
   <ele>1199.00</ele>
   <time>2014-04-04T10:46:26Z</time>
  </trkpt>
  <trkpt lat="32.422269" lon="-1.683298">
   <ele>1198.00</ele>
   <time>2014-04-04T10:46:41Z</time>
  </trkpt>
  <trkpt lat="32.423223" lon="-1.683304">
   <ele>1198.00</ele>
   <time>2014-04-04T10:46:45Z</time>
  </trkpt>
  <trkpt lat="32.424171" lon="-1.683276">
   <ele>1198.00</ele>
   <time>2014-04-04T10:46:49Z</time>
  </trkpt>
  <trkpt lat="32.425346" lon="-1.683181">
   <ele>1197.00</ele>
   <time>2014-04-04T10:46:54Z</time>
  </trkpt>
  <trkpt lat="32.426285" lon="-1.683049">
   <ele>1194.00</ele>
   <time>2014-04-04T10:46:58Z</time>
  </trkpt>
  <trkpt lat="32.429544" lon="-1.682500">
   <ele>1190.00</ele>
   <time>2014-04-04T10:47:12Z</time>
  </trkpt>
  <trkpt lat="32.429763" lon="-1.682450">
   <ele>1190.00</ele>
   <time>2014-04-04T10:47:13Z</time>
  </trkpt>
  <trkpt lat="32.429979" lon="-1.682389">
   <ele>1190.00</ele>
   <time>2014-04-04T10:47:14Z</time>
  </trkpt>
  <trkpt lat="32.430408" lon="-1.682246">
   <ele>1190.00</ele>
   <time>2014-04-04T10:47:16Z</time>
  </trkpt>
  <trkpt lat="32.430817" lon="-1.682078">
   <ele>1189.00</ele>
   <time>2014-04-04T10:47:18Z</time>
  </trkpt>
  <trkpt lat="32.431316" lon="-1.681841">
   <ele>1187.00</ele>
   <time>2014-04-04T10:47:21Z</time>
  </trkpt>
  <trkpt lat="32.431596" lon="-1.681692">
   <ele>1186.00</ele>
   <time>2014-04-04T10:47:23Z</time>
  </trkpt>
  <trkpt lat="32.432040" lon="-1.681431">
   <ele>1186.00</ele>
   <time>2014-04-04T10:47:27Z</time>
  </trkpt>
  <trkpt lat="32.432427" lon="-1.681165">
   <ele>1185.00</ele>
   <time>2014-04-04T10:47:31Z</time>
  </trkpt>
  <trkpt lat="32.432629" lon="-1.681014">
   <ele>1184.00</ele>
   <time>2014-04-04T10:47:33Z</time>
  </trkpt>
  <trkpt lat="32.432847" lon="-1.680832">
   <ele>1183.00</ele>
   <time>2014-04-04T10:47:35Z</time>
  </trkpt>
  <trkpt lat="32.435048" lon="-1.678984">
   <ele>1184.00</ele>
   <time>2014-04-04T10:47:50Z</time>
  </trkpt>
  <trkpt lat="32.436056" lon="-1.678182">
   <ele>1184.00</ele>
   <time>2014-04-04T10:47:56Z</time>
  </trkpt>
  <trkpt lat="32.439016" lon="-1.675969">
   <ele>1191.00</ele>
   <time>2014-04-04T10:48:12Z</time>
  </trkpt>
  <trkpt lat="32.441700" lon="-1.674000">
   <ele>1195.00</ele>
   <time>2014-04-04T10:48:27Z</time>
  </trkpt>
  <trkpt lat="32.442073" lon="-1.673754">
   <ele>1195.00</ele>
   <time>2014-04-04T10:48:29Z</time>
  </trkpt>
  <trkpt lat="32.442464" lon="-1.673531">
   <ele>1195.00</ele>
   <time>2014-04-04T10:48:31Z</time>
  </trkpt>
  <trkpt lat="32.442871" lon="-1.673332">
   <ele>1194.00</ele>
   <time>2014-04-04T10:48:33Z</time>
  </trkpt>
  <trkpt lat="32.443293" lon="-1.673162">
   <ele>1194.00</ele>
   <time>2014-04-04T10:48:35Z</time>
  </trkpt>
  <trkpt lat="32.443726" lon="-1.673021">
   <ele>1193.00</ele>
   <time>2014-04-04T10:48:37Z</time>
  </trkpt>
  <trkpt lat="32.444163" lon="-1.672914">
   <ele>1193.00</ele>
   <time>2014-04-04T10:48:39Z</time>
  </trkpt>
  <trkpt lat="32.444597" lon="-1.672845">
   <ele>1192.00</ele>
   <time>2014-04-04T10:48:41Z</time>
  </trkpt>
  <trkpt lat="32.445026" lon="-1.672808">
   <ele>1192.00</ele>
   <time>2014-04-04T10:48:43Z</time>
  </trkpt>
  <trkpt lat="32.445451" lon="-1.672800">
   <ele>1191.00</ele>
   <time>2014-04-04T10:48:45Z</time>
  </trkpt>
  <trkpt lat="32.445871" lon="-1.672820">
   <ele>1191.00</ele>
   <time>2014-04-04T10:48:47Z</time>
  </trkpt>
  <trkpt lat="32.446290" lon="-1.672875">
   <ele>1190.00</ele>
   <time>2014-04-04T10:48:49Z</time>
  </trkpt>
  <trkpt lat="32.446707" lon="-1.672959">
   <ele>1189.00</ele>
   <time>2014-04-04T10:48:51Z</time>
  </trkpt>
  <trkpt lat="32.447119" lon="-1.673070">
   <ele>1188.00</ele>
   <time>2014-04-04T10:48:53Z</time>
  </trkpt>
  <trkpt lat="32.447525" lon="-1.673204">
   <ele>1188.00</ele>
   <time>2014-04-04T10:48:55Z</time>
  </trkpt>
  <trkpt lat="32.447727" lon="-1.673283">
   <ele>1188.00</ele>
   <time>2014-04-04T10:48:56Z</time>
  </trkpt>
  <trkpt lat="32.447927" lon="-1.673371">
   <ele>1188.00</ele>
   <time>2014-04-04T10:48:57Z</time>
  </trkpt>
  <trkpt lat="32.448316" lon="-1.673562">
   <ele>1188.00</ele>
   <time>2014-04-04T10:48:59Z</time>
  </trkpt>
  <trkpt lat="32.448698" lon="-1.673781">
   <ele>1188.00</ele>
   <time>2014-04-04T10:49:01Z</time>
  </trkpt>
  <trkpt lat="32.449070" lon="-1.674027">
   <ele>1187.00</ele>
   <time>2014-04-04T10:49:03Z</time>
  </trkpt>
  <trkpt lat="32.449428" lon="-1.674301">
   <ele>1187.00</ele>
   <time>2014-04-04T10:49:05Z</time>
  </trkpt>
  <trkpt lat="32.449775" lon="-1.674593">
   <ele>1186.00</ele>
   <time>2014-04-04T10:49:07Z</time>
  </trkpt>
  <trkpt lat="32.452514" lon="-1.677078">
   <ele>1183.00</ele>
   <time>2014-04-04T10:49:23Z</time>
  </trkpt>
  <trkpt lat="32.454566" lon="-1.678923">
   <ele>1182.00</ele>
   <time>2014-04-04T10:49:35Z</time>
  </trkpt>
  <trkpt lat="32.454886" lon="-1.679244">
   <ele>1182.00</ele>
   <time>2014-04-04T10:49:37Z</time>
  </trkpt>
  <trkpt lat="32.457367" lon="-1.681948">
   <ele>1179.00</ele>
   <time>2014-04-04T10:49:53Z</time>
  </trkpt>
  <trkpt lat="32.459684" lon="-1.684476">
   <ele>1181.00</ele>
   <time>2014-04-04T10:50:08Z</time>
  </trkpt>
  <trkpt lat="32.462241" lon="-1.687286">
   <ele>1179.00</ele>
   <time>2014-04-04T10:50:24Z</time>
  </trkpt>
  <trkpt lat="32.464724" lon="-1.689992">
   <ele>1178.00</ele>
   <time>2014-04-04T10:50:39Z</time>
  </trkpt>
  <trkpt lat="32.465354" lon="-1.690707">
   <ele>1179.00</ele>
   <time>2014-04-04T10:50:43Z</time>
  </trkpt>
  <trkpt lat="32.465654" lon="-1.691088">
   <ele>1179.00</ele>
   <time>2014-04-04T10:50:45Z</time>
  </trkpt>
  <trkpt lat="32.466244" lon="-1.691891">
   <ele>1178.00</ele>
   <time>2014-04-04T10:50:49Z</time>
  </trkpt>
  <trkpt lat="32.468399" lon="-1.694920">
   <ele>1175.00</ele>
   <time>2014-04-04T10:51:04Z</time>
  </trkpt>
  <trkpt lat="32.470570" lon="-1.697980">
   <ele>1175.00</ele>
   <time>2014-04-04T10:51:19Z</time>
  </trkpt>
  <trkpt lat="32.472930" lon="-1.701318">
   <ele>1178.00</ele>
   <time>2014-04-04T10:51:35Z</time>
  </trkpt>
  <trkpt lat="32.474641" lon="-1.703753">
   <ele>1185.00</ele>
   <time>2014-04-04T10:51:47Z</time>
  </trkpt>
  <trkpt lat="32.474767" lon="-1.703973">
   <ele>1185.00</ele>
   <time>2014-04-04T10:51:48Z</time>
  </trkpt>
  <trkpt lat="32.474883" lon="-1.704198">
   <ele>1186.00</ele>
   <time>2014-04-04T10:51:49Z</time>
  </trkpt>
  <trkpt lat="32.474992" lon="-1.704429">
   <ele>1186.00</ele>
   <time>2014-04-04T10:51:50Z</time>
  </trkpt>
  <trkpt lat="32.475091" lon="-1.704668">
   <ele>1186.00</ele>
   <time>2014-04-04T10:51:51Z</time>
  </trkpt>
  <trkpt lat="32.475183" lon="-1.704912">
   <ele>1186.00</ele>
   <time>2014-04-04T10:51:52Z</time>
  </trkpt>
  <trkpt lat="32.475348" lon="-1.705417">
   <ele>1185.00</ele>
   <time>2014-04-04T10:51:54Z</time>
  </trkpt>
  <trkpt lat="32.475486" lon="-1.705929">
   <ele>1186.00</ele>
   <time>2014-04-04T10:51:56Z</time>
  </trkpt>
  <trkpt lat="32.475539" lon="-1.706183">
   <ele>1186.00</ele>
   <time>2014-04-04T10:51:57Z</time>
  </trkpt>
  <trkpt lat="32.475580" lon="-1.706437">
   <ele>1187.00</ele>
   <time>2014-04-04T10:51:58Z</time>
  </trkpt>
  <trkpt lat="32.475610" lon="-1.706694">
   <ele>1187.00</ele>
   <time>2014-04-04T10:51:59Z</time>
  </trkpt>
  <trkpt lat="32.475630" lon="-1.706953">
   <ele>1187.00</ele>
   <time>2014-04-04T10:52:00Z</time>
  </trkpt>
  <trkpt lat="32.475642" lon="-1.707216">
   <ele>1188.00</ele>
   <time>2014-04-04T10:52:01Z</time>
  </trkpt>
  <trkpt lat="32.475646" lon="-1.707481">
   <ele>1188.00</ele>
   <time>2014-04-04T10:52:02Z</time>
  </trkpt>
  <trkpt lat="32.475578" lon="-1.711791">
   <ele>1188.00</ele>
   <time>2014-04-04T10:52:18Z</time>
  </trkpt>
  <trkpt lat="32.475529" lon="-1.715812">
   <ele>1184.00</ele>
   <time>2014-04-04T10:52:33Z</time>
  </trkpt>
  <trkpt lat="32.475519" lon="-1.718738">
   <ele>1181.00</ele>
   <time>2014-04-04T10:52:44Z</time>
  </trkpt>
  <trkpt lat="32.475534" lon="-1.719000">
   <ele>1181.00</ele>
   <time>2014-04-04T10:52:45Z</time>
  </trkpt>
  <trkpt lat="32.475560" lon="-1.719261">
   <ele>1181.00</ele>
   <time>2014-04-04T10:52:46Z</time>
  </trkpt>
  <trkpt lat="32.475631" lon="-1.719777">
   <ele>1180.00</ele>
   <time>2014-04-04T10:52:48Z</time>
  </trkpt>
  <trkpt lat="32.475729" lon="-1.720287">
   <ele>1180.00</ele>
   <time>2014-04-04T10:52:50Z</time>
  </trkpt>
  <trkpt lat="32.475850" lon="-1.720787">
   <ele>1180.00</ele>
   <time>2014-04-04T10:52:52Z</time>
  </trkpt>
  <trkpt lat="32.475995" lon="-1.721279">
   <ele>1180.00</ele>
   <time>2014-04-04T10:52:54Z</time>
  </trkpt>
  <trkpt lat="32.477221" lon="-1.724927">
   <ele>1175.00</ele>
   <time>2014-04-04T10:53:09Z</time>
  </trkpt>
  <trkpt lat="32.477770" lon="-1.726660">
   <ele>1174.00</ele>
   <time>2014-04-04T10:53:16Z</time>
  </trkpt>
  <trkpt lat="32.477889" lon="-1.727158">
   <ele>1173.00</ele>
   <time>2014-04-04T10:53:18Z</time>
  </trkpt>
  <trkpt lat="32.478039" lon="-1.727921">
   <ele>1172.00</ele>
   <time>2014-04-04T10:53:21Z</time>
  </trkpt>
  <trkpt lat="32.478766" lon="-1.731917">
   <ele>1165.00</ele>
   <time>2014-04-04T10:53:37Z</time>
  </trkpt>
  <trkpt lat="32.479426" lon="-1.735475">
   <ele>1170.00</ele>
   <time>2014-04-04T10:53:52Z</time>
  </trkpt>
  <trkpt lat="32.479728" lon="-1.737084">
   <ele>1174.00</ele>
   <time>2014-04-04T10:54:03Z</time>
  </trkpt>
  <trkpt lat="32.479834" lon="-1.736954">
   <ele>1168.00</ele>
   <time>2014-04-04T10:54:11Z</time>
  </trkpt>
  <trkpt lat="32.479851" lon="-1.736722">
   <ele>1167.00</ele>
   <time>2014-04-04T10:54:18Z</time>
  </trkpt>
  <trkpt lat="32.479879" lon="-1.736504">
   <ele>1166.00</ele>
   <time>2014-04-04T10:54:23Z</time>
  </trkpt>
  <trkpt lat="32.479932" lon="-1.736248">
   <ele>1167.00</ele>
   <time>2014-04-04T10:54:28Z</time>
  </trkpt>
  <trkpt lat="32.480006" lon="-1.736032">
   <ele>1167.00</ele>
   <time>2014-04-04T10:54:32Z</time>
  </trkpt>
  <trkpt lat="32.480116" lon="-1.735799">
   <ele>1167.00</ele>
   <time>2014-04-04T10:54:36Z</time>
  </trkpt>
  <trkpt lat="32.480235" lon="-1.735623">
   <ele>1168.00</ele>
   <time>2014-04-04T10:54:39Z</time>
  </trkpt>
  <trkpt lat="32.480359" lon="-1.735451">
   <ele>1168.00</ele>
   <time>2014-04-04T10:54:42Z</time>
  </trkpt>
  <trkpt lat="32.480482" lon="-1.735254">
   <ele>1169.00</ele>
   <time>2014-04-04T10:54:45Z</time>
  </trkpt>
  <trkpt lat="32.480594" lon="-1.735043">
   <ele>1169.00</ele>
   <time>2014-04-04T10:54:48Z</time>
  </trkpt>
  <trkpt lat="32.480712" lon="-1.734731">
   <ele>1169.00</ele>
   <time>2014-04-04T10:54:52Z</time>
  </trkpt>
  <trkpt lat="32.480868" lon="-1.734507">
   <ele>1169.00</ele>
   <time>2014-04-04T10:54:55Z</time>
  </trkpt>
  <trkpt lat="32.481065" lon="-1.734295">
   <ele>1169.00</ele>
   <time>2014-04-04T10:54:58Z</time>
  </trkpt>
  <trkpt lat="32.481207" lon="-1.734158">
   <ele>1169.00</ele>
   <time>2014-04-04T10:55:00Z</time>
  </trkpt>
  <trkpt lat="32.481356" lon="-1.734034">
   <ele>1169.00</ele>
   <time>2014-04-04T10:55:02Z</time>
  </trkpt>
  <trkpt lat="32.481516" lon="-1.733924">
   <ele>1169.00</ele>
   <time>2014-04-04T10:55:04Z</time>
  </trkpt>
  <trkpt lat="32.481755" lon="-1.733797">
   <ele>1169.00</ele>
   <time>2014-04-04T10:55:07Z</time>
  </trkpt>
  <trkpt lat="32.482000" lon="-1.733751">
   <ele>1169.00</ele>
   <time>2014-04-04T10:55:10Z</time>
  </trkpt>
  <trkpt lat="32.482236" lon="-1.733656">
   <ele>1169.00</ele>
   <time>2014-04-04T10:55:13Z</time>
  </trkpt>
  <trkpt lat="32.482447" lon="-1.733473">
   <ele>1169.00</ele>
   <time>2014-04-04T10:55:16Z</time>
  </trkpt>
  <trkpt lat="32.482559" lon="-1.733298">
   <ele>1168.00</ele>
   <time>2014-04-04T10:55:18Z</time>
  </trkpt>
  <trkpt lat="32.482643" lon="-1.733092">
   <ele>1168.00</ele>
   <time>2014-04-04T10:55:20Z</time>
  </trkpt>
  <trkpt lat="32.482723" lon="-1.732878">
   <ele>1168.00</ele>
   <time>2014-04-04T10:55:22Z</time>
  </trkpt>
  <trkpt lat="32.482842" lon="-1.732556">
   <ele>1168.00</ele>
   <time>2014-04-04T10:55:25Z</time>
  </trkpt>
  <trkpt lat="32.482877" lon="-1.732342">
   <ele>1168.00</ele>
   <time>2014-04-04T10:55:27Z</time>
  </trkpt>
  <trkpt lat="32.482982" lon="-1.732061">
   <ele>1167.00</ele>
   <time>2014-04-04T10:55:30Z</time>
  </trkpt>
  <trkpt lat="32.483084" lon="-1.731775">
   <ele>1167.00</ele>
   <time>2014-04-04T10:55:33Z</time>
  </trkpt>
  <trkpt lat="32.483140" lon="-1.731569">
   <ele>1167.00</ele>
   <time>2014-04-04T10:55:35Z</time>
  </trkpt>
  <trkpt lat="32.483209" lon="-1.731369">
   <ele>1167.00</ele>
   <time>2014-04-04T10:55:37Z</time>
  </trkpt>
  <trkpt lat="32.483301" lon="-1.731067">
   <ele>1167.00</ele>
   <time>2014-04-04T10:55:40Z</time>
  </trkpt>
  <trkpt lat="32.483338" lon="-1.730855">
   <ele>1167.00</ele>
   <time>2014-04-04T10:55:42Z</time>
  </trkpt>
  <trkpt lat="32.483361" lon="-1.730639">
   <ele>1168.00</ele>
   <time>2014-04-04T10:55:44Z</time>
  </trkpt>
  <trkpt lat="32.483385" lon="-1.730322">
   <ele>1168.00</ele>
   <time>2014-04-04T10:55:47Z</time>
  </trkpt>
  <trkpt lat="32.483472" lon="-1.730015">
   <ele>1169.00</ele>
   <time>2014-04-04T10:55:50Z</time>
  </trkpt>
  <trkpt lat="32.483566" lon="-1.729823">
   <ele>1169.00</ele>
   <time>2014-04-04T10:55:52Z</time>
  </trkpt>
  <trkpt lat="32.483734" lon="-1.729555">
   <ele>1169.00</ele>
   <time>2014-04-04T10:55:55Z</time>
  </trkpt>
  <trkpt lat="32.483834" lon="-1.729361">
   <ele>1170.00</ele>
   <time>2014-04-04T10:55:57Z</time>
  </trkpt>
  <trkpt lat="32.483955" lon="-1.729186">
   <ele>1170.00</ele>
   <time>2014-04-04T10:55:59Z</time>
  </trkpt>
  <trkpt lat="32.484147" lon="-1.728993">
   <ele>1169.00</ele>
   <time>2014-04-04T10:56:02Z</time>
  </trkpt>
  <trkpt lat="32.484280" lon="-1.728762">
   <ele>1169.00</ele>
   <time>2014-04-04T10:56:05Z</time>
  </trkpt>
  <trkpt lat="32.484387" lon="-1.728505">
   <ele>1169.00</ele>
   <time>2014-04-04T10:56:08Z</time>
  </trkpt>
  <trkpt lat="32.484564" lon="-1.728279">
   <ele>1169.00</ele>
   <time>2014-04-04T10:56:11Z</time>
  </trkpt>
  <trkpt lat="32.484754" lon="-1.728119">
   <ele>1169.00</ele>
   <time>2014-04-04T10:56:14Z</time>
  </trkpt>
  <trkpt lat="32.484884" lon="-1.727894">
   <ele>1170.00</ele>
   <time>2014-04-04T10:56:17Z</time>
  </trkpt>
  <trkpt lat="32.484968" lon="-1.727609">
   <ele>1170.00</ele>
   <time>2014-04-04T10:56:20Z</time>
  </trkpt>
  <trkpt lat="32.485030" lon="-1.727307">
   <ele>1170.00</ele>
   <time>2014-04-04T10:56:23Z</time>
  </trkpt>
  <trkpt lat="32.485096" lon="-1.727005">
   <ele>1170.00</ele>
   <time>2014-04-04T10:56:26Z</time>
  </trkpt>
  <trkpt lat="32.485166" lon="-1.726595">
   <ele>1170.00</ele>
   <time>2014-04-04T10:56:30Z</time>
  </trkpt>
  <trkpt lat="32.485201" lon="-1.726304">
   <ele>1170.00</ele>
   <time>2014-04-04T10:56:33Z</time>
  </trkpt>
  <trkpt lat="32.485309" lon="-1.726044">
   <ele>1171.00</ele>
   <time>2014-04-04T10:56:36Z</time>
  </trkpt>
  <trkpt lat="32.485421" lon="-1.725776">
   <ele>1171.00</ele>
   <time>2014-04-04T10:56:39Z</time>
  </trkpt>
  <trkpt lat="32.485462" lon="-1.725464">
   <ele>1171.00</ele>
   <time>2014-04-04T10:56:42Z</time>
  </trkpt>
  <trkpt lat="32.485475" lon="-1.725161">
   <ele>1172.00</ele>
   <time>2014-04-04T10:56:45Z</time>
  </trkpt>
  <trkpt lat="32.485514" lon="-1.724858">
   <ele>1172.00</ele>
   <time>2014-04-04T10:56:48Z</time>
  </trkpt>
  <trkpt lat="32.485574" lon="-1.724563">
   <ele>1172.00</ele>
   <time>2014-04-04T10:56:51Z</time>
  </trkpt>
  <trkpt lat="32.485676" lon="-1.724099">
   <ele>1172.00</ele>
   <time>2014-04-04T10:56:56Z</time>
  </trkpt>
  <trkpt lat="32.485732" lon="-1.723832">
   <ele>1172.00</ele>
   <time>2014-04-04T10:56:59Z</time>
  </trkpt>
  <trkpt lat="32.485841" lon="-1.723626">
   <ele>1171.00</ele>
   <time>2014-04-04T10:57:02Z</time>
  </trkpt>
  <trkpt lat="32.485980" lon="-1.723439">
   <ele>1170.00</ele>
   <time>2014-04-04T10:57:05Z</time>
  </trkpt>
  <trkpt lat="32.486150" lon="-1.723266">
   <ele>1170.00</ele>
   <time>2014-04-04T10:57:08Z</time>
  </trkpt>
  <trkpt lat="32.486358" lon="-1.723149">
   <ele>1169.00</ele>
   <time>2014-04-04T10:57:11Z</time>
  </trkpt>
  <trkpt lat="32.486600" lon="-1.723122">
   <ele>1169.00</ele>
   <time>2014-04-04T10:57:14Z</time>
  </trkpt>
  <trkpt lat="32.486843" lon="-1.723081">
   <ele>1168.00</ele>
   <time>2014-04-04T10:57:17Z</time>
  </trkpt>
  <trkpt lat="32.487082" lon="-1.722981">
   <ele>1169.00</ele>
   <time>2014-04-04T10:57:20Z</time>
  </trkpt>
  <trkpt lat="32.487854" lon="-1.722576">
   <ele>1170.00</ele>
   <time>2014-04-04T10:57:29Z</time>
  </trkpt>
  <trkpt lat="32.488202" lon="-1.722378">
   <ele>1171.00</ele>
   <time>2014-04-04T10:57:33Z</time>
  </trkpt>
  <trkpt lat="32.488456" lon="-1.722229">
   <ele>1172.00</ele>
   <time>2014-04-04T10:57:36Z</time>
  </trkpt>
  <trkpt lat="32.488624" lon="-1.722140">
   <ele>1172.00</ele>
   <time>2014-04-04T10:57:38Z</time>
  </trkpt>
  <trkpt lat="32.489054" lon="-1.721912">
   <ele>1173.00</ele>
   <time>2014-04-04T10:57:43Z</time>
  </trkpt>
  <trkpt lat="32.489570" lon="-1.721622">
   <ele>1173.00</ele>
   <time>2014-04-04T10:57:49Z</time>
  </trkpt>
  <trkpt lat="32.489746" lon="-1.721562">
   <ele>1174.00</ele>
   <time>2014-04-04T10:57:51Z</time>
  </trkpt>
  <trkpt lat="32.490019" lon="-1.721547">
   <ele>1173.00</ele>
   <time>2014-04-04T10:57:54Z</time>
  </trkpt>
  <trkpt lat="32.490207" lon="-1.721551">
   <ele>1173.00</ele>
   <time>2014-04-04T10:57:56Z</time>
  </trkpt>
  <trkpt lat="32.490396" lon="-1.721555">
   <ele>1173.00</ele>
   <time>2014-04-04T10:57:58Z</time>
  </trkpt>
  <trkpt lat="32.491252" lon="-1.721549">
   <ele>1172.00</ele>
   <time>2014-04-04T10:58:07Z</time>
  </trkpt>
  <trkpt lat="32.491437" lon="-1.721569">
   <ele>1171.00</ele>
   <time>2014-04-04T10:58:09Z</time>
  </trkpt>
  <trkpt lat="32.492201" lon="-1.721680">
   <ele>1171.00</ele>
   <time>2014-04-04T10:58:17Z</time>
  </trkpt>
  <trkpt lat="32.492661" lon="-1.721723">
   <ele>1170.00</ele>
   <time>2014-04-04T10:58:22Z</time>
  </trkpt>
  <trkpt lat="32.492890" lon="-1.721770">
   <ele>1170.00</ele>
   <time>2014-04-04T10:58:25Z</time>
  </trkpt>
  <trkpt lat="32.493119" lon="-1.721818">
   <ele>1170.00</ele>
   <time>2014-04-04T10:58:28Z</time>
  </trkpt>
  <trkpt lat="32.493363" lon="-1.721816">
   <ele>1169.00</ele>
   <time>2014-04-04T10:58:31Z</time>
  </trkpt>
  <trkpt lat="32.493609" lon="-1.721745">
   <ele>1168.00</ele>
   <time>2014-04-04T10:58:34Z</time>
  </trkpt>
  <trkpt lat="32.493847" lon="-1.721697">
   <ele>1168.00</ele>
   <time>2014-04-04T10:58:37Z</time>
  </trkpt>
  <trkpt lat="32.494061" lon="-1.721712">
   <ele>1168.00</ele>
   <time>2014-04-04T10:58:40Z</time>
  </trkpt>
  <trkpt lat="32.494263" lon="-1.721723">
   <ele>1168.00</ele>
   <time>2014-04-04T10:58:43Z</time>
  </trkpt>
  <trkpt lat="32.494486" lon="-1.721674">
   <ele>1168.00</ele>
   <time>2014-04-04T10:58:46Z</time>
  </trkpt>
  <trkpt lat="32.495001" lon="-1.721561">
   <ele>1169.00</ele>
   <time>2014-04-04T10:58:52Z</time>
  </trkpt>
  <trkpt lat="32.495231" lon="-1.721457">
   <ele>1170.00</ele>
   <time>2014-04-04T10:58:55Z</time>
  </trkpt>
  <trkpt lat="32.495416" lon="-1.721230">
   <ele>1170.00</ele>
   <time>2014-04-04T10:58:58Z</time>
  </trkpt>
  <trkpt lat="32.495851" lon="-1.720530">
   <ele>1170.00</ele>
   <time>2014-04-04T10:59:05Z</time>
  </trkpt>
  <trkpt lat="32.496091" lon="-1.720096">
   <ele>1170.00</ele>
   <time>2014-04-04T10:59:09Z</time>
  </trkpt>
  <trkpt lat="32.496200" lon="-1.719865">
   <ele>1171.00</ele>
   <time>2014-04-04T10:59:11Z</time>
  </trkpt>
  <trkpt lat="32.496404" lon="-1.719391">
   <ele>1171.00</ele>
   <time>2014-04-04T10:59:15Z</time>
  </trkpt>
  <trkpt lat="32.496537" lon="-1.719054">
   <ele>1172.00</ele>
   <time>2014-04-04T10:59:18Z</time>
  </trkpt>
  <trkpt lat="32.496656" lon="-1.718866">
   <ele>1172.00</ele>
   <time>2014-04-04T10:59:20Z</time>
  </trkpt>
  <trkpt lat="32.496924" lon="-1.718521">
   <ele>1172.00</ele>
   <time>2014-04-04T10:59:24Z</time>
  </trkpt>
  <trkpt lat="32.497028" lon="-1.718317">
   <ele>1173.00</ele>
   <time>2014-04-04T10:59:26Z</time>
  </trkpt>
  <trkpt lat="32.497125" lon="-1.718094">
   <ele>1173.00</ele>
   <time>2014-04-04T10:59:28Z</time>
  </trkpt>
  <trkpt lat="32.497252" lon="-1.717890">
   <ele>1173.00</ele>
   <time>2014-04-04T10:59:30Z</time>
  </trkpt>
  <trkpt lat="32.497402" lon="-1.717697">
   <ele>1173.00</ele>
   <time>2014-04-04T10:59:32Z</time>
  </trkpt>
  <trkpt lat="32.497735" lon="-1.717305">
   <ele>1173.00</ele>
   <time>2014-04-04T10:59:36Z</time>
  </trkpt>
  <trkpt lat="32.497915" lon="-1.717118">
   <ele>1173.00</ele>
   <time>2014-04-04T10:59:38Z</time>
  </trkpt>
  <trkpt lat="32.498100" lon="-1.716945">
   <ele>1173.00</ele>
   <time>2014-04-04T10:59:40Z</time>
  </trkpt>
  <trkpt lat="32.498475" lon="-1.716588">
   <ele>1173.00</ele>
   <time>2014-04-04T10:59:44Z</time>
  </trkpt>
  <trkpt lat="32.498626" lon="-1.716390">
   <ele>1174.00</ele>
   <time>2014-04-04T10:59:46Z</time>
  </trkpt>
  <trkpt lat="32.498791" lon="-1.716208">
   <ele>1174.00</ele>
   <time>2014-04-04T10:59:48Z</time>
  </trkpt>
  <trkpt lat="32.498975" lon="-1.716037">
   <ele>1174.00</ele>
   <time>2014-04-04T10:59:50Z</time>
  </trkpt>
  <trkpt lat="32.499172" lon="-1.715875">
   <ele>1174.00</ele>
   <time>2014-04-04T10:59:52Z</time>
  </trkpt>
  <trkpt lat="32.499369" lon="-1.715711">
   <ele>1173.00</ele>
   <time>2014-04-04T10:59:54Z</time>
  </trkpt>
  <trkpt lat="32.499545" lon="-1.715511">
   <ele>1173.00</ele>
   <time>2014-04-04T10:59:56Z</time>
  </trkpt>
  <trkpt lat="32.499717" lon="-1.715299">
   <ele>1174.00</ele>
   <time>2014-04-04T10:59:58Z</time>
  </trkpt>
  <trkpt lat="32.500435" lon="-1.714462">
   <ele>1174.00</ele>
   <time>2014-04-04T11:00:06Z</time>
  </trkpt>
  <trkpt lat="32.500626" lon="-1.714287">
   <ele>1174.00</ele>
   <time>2014-04-04T11:00:08Z</time>
  </trkpt>
  <trkpt lat="32.500904" lon="-1.714025">
   <ele>1174.00</ele>
   <time>2014-04-04T11:00:11Z</time>
  </trkpt>
  <trkpt lat="32.501076" lon="-1.713845">
   <ele>1174.00</ele>
   <time>2014-04-04T11:00:13Z</time>
  </trkpt>
  <trkpt lat="32.501218" lon="-1.713650">
   <ele>1174.00</ele>
   <time>2014-04-04T11:00:15Z</time>
  </trkpt>
  <trkpt lat="32.501370" lon="-1.713471">
   <ele>1175.00</ele>
   <time>2014-04-04T11:00:17Z</time>
  </trkpt>
  <trkpt lat="32.501554" lon="-1.713328">
   <ele>1175.00</ele>
   <time>2014-04-04T11:00:19Z</time>
  </trkpt>
  <trkpt lat="32.501743" lon="-1.713210">
   <ele>1175.00</ele>
   <time>2014-04-04T11:00:21Z</time>
  </trkpt>
  <trkpt lat="32.501895" lon="-1.713053">
   <ele>1175.00</ele>
   <time>2014-04-04T11:00:23Z</time>
  </trkpt>
  <trkpt lat="32.502107" lon="-1.712767">
   <ele>1175.00</ele>
   <time>2014-04-04T11:00:26Z</time>
  </trkpt>
  <trkpt lat="32.502284" lon="-1.712603">
   <ele>1175.00</ele>
   <time>2014-04-04T11:00:28Z</time>
  </trkpt>
  <trkpt lat="32.502557" lon="-1.712378">
   <ele>1176.00</ele>
   <time>2014-04-04T11:00:31Z</time>
  </trkpt>
  <trkpt lat="32.502753" lon="-1.712265">
   <ele>1176.00</ele>
   <time>2014-04-04T11:00:33Z</time>
  </trkpt>
  <trkpt lat="32.502935" lon="-1.712148">
   <ele>1176.00</ele>
   <time>2014-04-04T11:00:35Z</time>
  </trkpt>
  <trkpt lat="32.503087" lon="-1.711988">
   <ele>1176.00</ele>
   <time>2014-04-04T11:00:37Z</time>
  </trkpt>
  <trkpt lat="32.503227" lon="-1.711818">
   <ele>1177.00</ele>
   <time>2014-04-04T11:00:39Z</time>
  </trkpt>
  <trkpt lat="32.503392" lon="-1.711688">
   <ele>1177.00</ele>
   <time>2014-04-04T11:00:41Z</time>
  </trkpt>
  <trkpt lat="32.503553" lon="-1.711554">
   <ele>1177.00</ele>
   <time>2014-04-04T11:00:43Z</time>
  </trkpt>
  <trkpt lat="32.503694" lon="-1.711380">
   <ele>1177.00</ele>
   <time>2014-04-04T11:00:45Z</time>
  </trkpt>
  <trkpt lat="32.503807" lon="-1.711168">
   <ele>1177.00</ele>
   <time>2014-04-04T11:00:47Z</time>
  </trkpt>
  <trkpt lat="32.503933" lon="-1.710944">
   <ele>1177.00</ele>
   <time>2014-04-04T11:00:49Z</time>
  </trkpt>
  <trkpt lat="32.504087" lon="-1.710730">
   <ele>1177.00</ele>
   <time>2014-04-04T11:00:51Z</time>
  </trkpt>
  <trkpt lat="32.504264" lon="-1.710535">
   <ele>1177.00</ele>
   <time>2014-04-04T11:00:53Z</time>
  </trkpt>
  <trkpt lat="32.504461" lon="-1.710366">
   <ele>1177.00</ele>
   <time>2014-04-04T11:00:55Z</time>
  </trkpt>
  <trkpt lat="32.504772" lon="-1.710138">
   <ele>1177.00</ele>
   <time>2014-04-04T11:00:58Z</time>
  </trkpt>
  <trkpt lat="32.504981" lon="-1.710004">
   <ele>1177.00</ele>
   <time>2014-04-04T11:01:00Z</time>
  </trkpt>
  <trkpt lat="32.505181" lon="-1.709862">
   <ele>1177.00</ele>
   <time>2014-04-04T11:01:02Z</time>
  </trkpt>
  <trkpt lat="32.505352" lon="-1.709680">
   <ele>1177.00</ele>
   <time>2014-04-04T11:01:04Z</time>
  </trkpt>
  <trkpt lat="32.505512" lon="-1.709474">
   <ele>1177.00</ele>
   <time>2014-04-04T11:01:06Z</time>
  </trkpt>
  <trkpt lat="32.505663" lon="-1.709251">
   <ele>1177.00</ele>
   <time>2014-04-04T11:01:08Z</time>
  </trkpt>
  <trkpt lat="32.505803" lon="-1.709020">
   <ele>1178.00</ele>
   <time>2014-04-04T11:01:10Z</time>
  </trkpt>
  <trkpt lat="32.505931" lon="-1.708785">
   <ele>1178.00</ele>
   <time>2014-04-04T11:01:12Z</time>
  </trkpt>
  <trkpt lat="32.506058" lon="-1.708559">
   <ele>1178.00</ele>
   <time>2014-04-04T11:01:14Z</time>
  </trkpt>
  <trkpt lat="32.506175" lon="-1.708340">
   <ele>1178.00</ele>
   <time>2014-04-04T11:01:16Z</time>
  </trkpt>
  <trkpt lat="32.506339" lon="-1.708013">
   <ele>1178.00</ele>
   <time>2014-04-04T11:01:19Z</time>
  </trkpt>
  <trkpt lat="32.506474" lon="-1.707810">
   <ele>1178.00</ele>
   <time>2014-04-04T11:01:21Z</time>
  </trkpt>
  <trkpt lat="32.506626" lon="-1.707625">
   <ele>1178.00</ele>
   <time>2014-04-04T11:01:23Z</time>
  </trkpt>
  <trkpt lat="32.506786" lon="-1.707474">
   <ele>1178.00</ele>
   <time>2014-04-04T11:01:25Z</time>
  </trkpt>
  <trkpt lat="32.506945" lon="-1.707342">
   <ele>1178.00</ele>
   <time>2014-04-04T11:01:27Z</time>
  </trkpt>
  <trkpt lat="32.507082" lon="-1.707181">
   <ele>1178.00</ele>
   <time>2014-04-04T11:01:29Z</time>
  </trkpt>
  <trkpt lat="32.507194" lon="-1.706993">
   <ele>1178.00</ele>
   <time>2014-04-04T11:01:31Z</time>
  </trkpt>
  <trkpt lat="32.507322" lon="-1.706826">
   <ele>1178.00</ele>
   <time>2014-04-04T11:01:33Z</time>
  </trkpt>
  <trkpt lat="32.507486" lon="-1.706701">
   <ele>1179.00</ele>
   <time>2014-04-04T11:01:35Z</time>
  </trkpt>
  <trkpt lat="32.507661" lon="-1.706587">
   <ele>1179.00</ele>
   <time>2014-04-04T11:01:37Z</time>
  </trkpt>
  <trkpt lat="32.507909" lon="-1.706429">
   <ele>1179.00</ele>
   <time>2014-04-04T11:01:40Z</time>
  </trkpt>
  <trkpt lat="32.508066" lon="-1.706302">
   <ele>1179.00</ele>
   <time>2014-04-04T11:01:42Z</time>
  </trkpt>
  <trkpt lat="32.508207" lon="-1.706148">
   <ele>1179.00</ele>
   <time>2014-04-04T11:01:44Z</time>
  </trkpt>
  <trkpt lat="32.508415" lon="-1.705894">
   <ele>1179.00</ele>
   <time>2014-04-04T11:01:47Z</time>
  </trkpt>
  <trkpt lat="32.508575" lon="-1.705742">
   <ele>1179.00</ele>
   <time>2014-04-04T11:01:49Z</time>
  </trkpt>
  <trkpt lat="32.508740" lon="-1.705590">
   <ele>1179.00</ele>
   <time>2014-04-04T11:01:51Z</time>
  </trkpt>
  <trkpt lat="32.508893" lon="-1.705422">
   <ele>1179.00</ele>
   <time>2014-04-04T11:01:53Z</time>
  </trkpt>
  <trkpt lat="32.509026" lon="-1.705236">
   <ele>1179.00</ele>
   <time>2014-04-04T11:01:55Z</time>
  </trkpt>
  <trkpt lat="32.509139" lon="-1.705046">
   <ele>1179.00</ele>
   <time>2014-04-04T11:01:57Z</time>
  </trkpt>
  <trkpt lat="32.509259" lon="-1.704881">
   <ele>1179.00</ele>
   <time>2014-04-04T11:01:59Z</time>
  </trkpt>
  <trkpt lat="32.509461" lon="-1.704718">
   <ele>1179.00</ele>
   <time>2014-04-04T11:02:02Z</time>
  </trkpt>
  <trkpt lat="32.509641" lon="-1.704612">
   <ele>1179.00</ele>
   <time>2014-04-04T11:02:05Z</time>
  </trkpt>
  <trkpt lat="32.509817" lon="-1.704484">
   <ele>1179.00</ele>
   <time>2014-04-04T11:02:09Z</time>
  </trkpt>
  <trkpt lat="32.510104" lon="-1.704259">
   <ele>1179.00</ele>
   <time>2014-04-04T11:02:15Z</time>
  </trkpt>
  <trkpt lat="32.510278" lon="-1.704104">
   <ele>1179.00</ele>
   <time>2014-04-04T11:02:18Z</time>
  </trkpt>
  <trkpt lat="32.510473" lon="-1.703907">
   <ele>1179.00</ele>
   <time>2014-04-04T11:02:21Z</time>
  </trkpt>
  <trkpt lat="32.510665" lon="-1.703682">
   <ele>1179.00</ele>
   <time>2014-04-04T11:02:24Z</time>
  </trkpt>
  <trkpt lat="32.510930" lon="-1.703335">
   <ele>1179.00</ele>
   <time>2014-04-04T11:02:28Z</time>
  </trkpt>
  <trkpt lat="32.511274" lon="-1.702875">
   <ele>1179.00</ele>
   <time>2014-04-04T11:02:33Z</time>
  </trkpt>
  <trkpt lat="32.511424" lon="-1.702705">
   <ele>1179.00</ele>
   <time>2014-04-04T11:02:35Z</time>
  </trkpt>
  <trkpt lat="32.511585" lon="-1.702554">
   <ele>1179.00</ele>
   <time>2014-04-04T11:02:37Z</time>
  </trkpt>
  <trkpt lat="32.511752" lon="-1.702419">
   <ele>1179.00</ele>
   <time>2014-04-04T11:02:39Z</time>
  </trkpt>
  <trkpt lat="32.511914" lon="-1.702288">
   <ele>1179.00</ele>
   <time>2014-04-04T11:02:41Z</time>
  </trkpt>
  <trkpt lat="32.512067" lon="-1.702143">
   <ele>1179.00</ele>
   <time>2014-04-04T11:02:43Z</time>
  </trkpt>
  <trkpt lat="32.512300" lon="-1.701924">
   <ele>1179.00</ele>
   <time>2014-04-04T11:02:46Z</time>
  </trkpt>
  <trkpt lat="32.512464" lon="-1.701798">
   <ele>1179.00</ele>
   <time>2014-04-04T11:02:48Z</time>
  </trkpt>
  <trkpt lat="32.512633" lon="-1.701702">
   <ele>1179.00</ele>
   <time>2014-04-04T11:02:50Z</time>
  </trkpt>
  <trkpt lat="32.512814" lon="-1.701645">
   <ele>1179.00</ele>
   <time>2014-04-04T11:02:52Z</time>
  </trkpt>
  <trkpt lat="32.513011" lon="-1.701611">
   <ele>1179.00</ele>
   <time>2014-04-04T11:02:54Z</time>
  </trkpt>
  <trkpt lat="32.513214" lon="-1.701601">
   <ele>1179.00</ele>
   <time>2014-04-04T11:02:56Z</time>
  </trkpt>
  <trkpt lat="32.513415" lon="-1.701610">
   <ele>1179.00</ele>
   <time>2014-04-04T11:02:58Z</time>
  </trkpt>
  <trkpt lat="32.513612" lon="-1.701612">
   <ele>1179.00</ele>
   <time>2014-04-04T11:03:00Z</time>
  </trkpt>
  <trkpt lat="32.513803" lon="-1.701585">
   <ele>1179.00</ele>
   <time>2014-04-04T11:03:02Z</time>
  </trkpt>
  <trkpt lat="32.513990" lon="-1.701531">
   <ele>1179.00</ele>
   <time>2014-04-04T11:03:04Z</time>
  </trkpt>
  <trkpt lat="32.514167" lon="-1.701442">
   <ele>1179.00</ele>
   <time>2014-04-04T11:03:06Z</time>
  </trkpt>
  <trkpt lat="32.514326" lon="-1.701313">
   <ele>1179.00</ele>
   <time>2014-04-04T11:03:08Z</time>
  </trkpt>
  <trkpt lat="32.514469" lon="-1.701155">
   <ele>1180.00</ele>
   <time>2014-04-04T11:03:10Z</time>
  </trkpt>
  <trkpt lat="32.514594" lon="-1.700969">
   <ele>1180.00</ele>
   <time>2014-04-04T11:03:12Z</time>
  </trkpt>
  <trkpt lat="32.514703" lon="-1.700760">
   <ele>1180.00</ele>
   <time>2014-04-04T11:03:14Z</time>
  </trkpt>
  <trkpt lat="32.514958" lon="-1.700220">
   <ele>1180.00</ele>
   <time>2014-04-04T11:03:19Z</time>
  </trkpt>
  <trkpt lat="32.515044" lon="-1.699994">
   <ele>1180.00</ele>
   <time>2014-04-04T11:03:21Z</time>
  </trkpt>
  <trkpt lat="32.515201" lon="-1.699531">
   <ele>1180.00</ele>
   <time>2014-04-04T11:03:25Z</time>
  </trkpt>
  <trkpt lat="32.515488" lon="-1.698819">
   <ele>1181.00</ele>
   <time>2014-04-04T11:03:31Z</time>
  </trkpt>
  <trkpt lat="32.515569" lon="-1.698564">
   <ele>1181.00</ele>
   <time>2014-04-04T11:03:33Z</time>
  </trkpt>
  <trkpt lat="32.515653" lon="-1.698309">
   <ele>1181.00</ele>
   <time>2014-04-04T11:03:35Z</time>
  </trkpt>
  <trkpt lat="32.515790" lon="-1.697933">
   <ele>1181.00</ele>
   <time>2014-04-04T11:03:38Z</time>
  </trkpt>
  <trkpt lat="32.515883" lon="-1.697693">
   <ele>1181.00</ele>
   <time>2014-04-04T11:03:40Z</time>
  </trkpt>
  <trkpt lat="32.515957" lon="-1.697452">
   <ele>1181.00</ele>
   <time>2014-04-04T11:03:42Z</time>
  </trkpt>
  <trkpt lat="32.516013" lon="-1.697215">
   <ele>1182.00</ele>
   <time>2014-04-04T11:03:44Z</time>
  </trkpt>
  <trkpt lat="32.516072" lon="-1.696984">
   <ele>1182.00</ele>
   <time>2014-04-04T11:03:46Z</time>
  </trkpt>
  <trkpt lat="32.516187" lon="-1.696642">
   <ele>1182.00</ele>
   <time>2014-04-04T11:03:49Z</time>
  </trkpt>
  <trkpt lat="32.516320" lon="-1.696293">
   <ele>1183.00</ele>
   <time>2014-04-04T11:03:52Z</time>
  </trkpt>
  <trkpt lat="32.516424" lon="-1.696057">
   <ele>1183.00</ele>
   <time>2014-04-04T11:03:54Z</time>
  </trkpt>
  <trkpt lat="32.516539" lon="-1.695818">
   <ele>1183.00</ele>
   <time>2014-04-04T11:03:56Z</time>
  </trkpt>
  <trkpt lat="32.516844" lon="-1.695238">
   <ele>1183.00</ele>
   <time>2014-04-04T11:04:01Z</time>
  </trkpt>
  <trkpt lat="32.516978" lon="-1.695029">
   <ele>1183.00</ele>
   <time>2014-04-04T11:04:03Z</time>
  </trkpt>
  <trkpt lat="32.517110" lon="-1.694829">
   <ele>1183.00</ele>
   <time>2014-04-04T11:04:05Z</time>
  </trkpt>
  <trkpt lat="32.517290" lon="-1.694519">
   <ele>1183.00</ele>
   <time>2014-04-04T11:04:08Z</time>
  </trkpt>
  <trkpt lat="32.517388" lon="-1.694319">
   <ele>1183.00</ele>
   <time>2014-04-04T11:04:10Z</time>
  </trkpt>
  <trkpt lat="32.517461" lon="-1.694109">
   <ele>1183.00</ele>
   <time>2014-04-04T11:04:12Z</time>
  </trkpt>
  <trkpt lat="32.517532" lon="-1.693885">
   <ele>1183.00</ele>
   <time>2014-04-04T11:04:14Z</time>
  </trkpt>
  <trkpt lat="32.517627" lon="-1.693663">
   <ele>1184.00</ele>
   <time>2014-04-04T11:04:16Z</time>
  </trkpt>
  <trkpt lat="32.518038" lon="-1.692784">
   <ele>1184.00</ele>
   <time>2014-04-04T11:04:24Z</time>
  </trkpt>
  <trkpt lat="32.518165" lon="-1.692583">
   <ele>1184.00</ele>
   <time>2014-04-04T11:04:26Z</time>
  </trkpt>
  <trkpt lat="32.518360" lon="-1.692284">
   <ele>1184.00</ele>
   <time>2014-04-04T11:04:29Z</time>
  </trkpt>
  <trkpt lat="32.518478" lon="-1.692071">
   <ele>1184.00</ele>
   <time>2014-04-04T11:04:31Z</time>
  </trkpt>
  <trkpt lat="32.518583" lon="-1.691842">
   <ele>1184.00</ele>
   <time>2014-04-04T11:04:33Z</time>
  </trkpt>
  <trkpt lat="32.518679" lon="-1.691600">
   <ele>1184.00</ele>
   <time>2014-04-04T11:04:35Z</time>
  </trkpt>
  <trkpt lat="32.518762" lon="-1.691347">
   <ele>1185.00</ele>
   <time>2014-04-04T11:04:37Z</time>
  </trkpt>
  <trkpt lat="32.518833" lon="-1.691082">
   <ele>1185.00</ele>
   <time>2014-04-04T11:04:39Z</time>
  </trkpt>
  <trkpt lat="32.518906" lon="-1.690824">
   <ele>1185.00</ele>
   <time>2014-04-04T11:04:41Z</time>
  </trkpt>
  <trkpt lat="32.519049" lon="-1.690445">
   <ele>1185.00</ele>
   <time>2014-04-04T11:04:44Z</time>
  </trkpt>
  <trkpt lat="32.519160" lon="-1.690195">
   <ele>1185.00</ele>
   <time>2014-04-04T11:04:46Z</time>
  </trkpt>
  <trkpt lat="32.519760" lon="-1.688947">
   <ele>1186.00</ele>
   <time>2014-04-04T11:04:56Z</time>
  </trkpt>
  <trkpt lat="32.520015" lon="-1.688500">
   <ele>1186.00</ele>
   <time>2014-04-04T11:05:00Z</time>
  </trkpt>
  <trkpt lat="32.520120" lon="-1.688261">
   <ele>1186.00</ele>
   <time>2014-04-04T11:05:02Z</time>
  </trkpt>
  <trkpt lat="32.520971" lon="-1.686071">
   <ele>1187.00</ele>
   <time>2014-04-04T11:05:18Z</time>
  </trkpt>
  <trkpt lat="32.521093" lon="-1.685812">
   <ele>1187.00</ele>
   <time>2014-04-04T11:05:20Z</time>
  </trkpt>
  <trkpt lat="32.521439" lon="-1.685131">
   <ele>1187.00</ele>
   <time>2014-04-04T11:05:26Z</time>
  </trkpt>
  <trkpt lat="32.521598" lon="-1.684789">
   <ele>1187.00</ele>
   <time>2014-04-04T11:05:29Z</time>
  </trkpt>
  <trkpt lat="32.521728" lon="-1.684567">
   <ele>1187.00</ele>
   <time>2014-04-04T11:05:31Z</time>
  </trkpt>
  <trkpt lat="32.522024" lon="-1.684114">
   <ele>1188.00</ele>
   <time>2014-04-04T11:05:35Z</time>
  </trkpt>
  <trkpt lat="32.522406" lon="-1.683558">
   <ele>1188.00</ele>
   <time>2014-04-04T11:05:40Z</time>
  </trkpt>
  <trkpt lat="32.522538" lon="-1.683329">
   <ele>1188.00</ele>
   <time>2014-04-04T11:05:42Z</time>
  </trkpt>
  <trkpt lat="32.522645" lon="-1.683102">
   <ele>1188.00</ele>
   <time>2014-04-04T11:05:44Z</time>
  </trkpt>
  <trkpt lat="32.522750" lon="-1.682892">
   <ele>1188.00</ele>
   <time>2014-04-04T11:05:46Z</time>
  </trkpt>
  <trkpt lat="32.523050" lon="-1.682379">
   <ele>1188.00</ele>
   <time>2014-04-04T11:05:51Z</time>
  </trkpt>
  <trkpt lat="32.523154" lon="-1.682156">
   <ele>1188.00</ele>
   <time>2014-04-04T11:05:53Z</time>
  </trkpt>
  <trkpt lat="32.523350" lon="-1.681737">
   <ele>1189.00</ele>
   <time>2014-04-04T11:05:57Z</time>
  </trkpt>
  <trkpt lat="32.523464" lon="-1.681562">
   <ele>1189.00</ele>
   <time>2014-04-04T11:05:59Z</time>
  </trkpt>
  <trkpt lat="32.523603" lon="-1.681406">
   <ele>1189.00</ele>
   <time>2014-04-04T11:06:01Z</time>
  </trkpt>
  <trkpt lat="32.523748" lon="-1.681252">
   <ele>1189.00</ele>
   <time>2014-04-04T11:06:03Z</time>
  </trkpt>
  <trkpt lat="32.523906" lon="-1.681023">
   <ele>1189.00</ele>
   <time>2014-04-04T11:06:06Z</time>
  </trkpt>
  <trkpt lat="32.524048" lon="-1.680799">
   <ele>1189.00</ele>
   <time>2014-04-04T11:06:09Z</time>
  </trkpt>
  <trkpt lat="32.524203" lon="-1.680549">
   <ele>1189.00</ele>
   <time>2014-04-04T11:06:12Z</time>
  </trkpt>
  <trkpt lat="32.524299" lon="-1.680348">
   <ele>1189.00</ele>
   <time>2014-04-04T11:06:14Z</time>
  </trkpt>
  <trkpt lat="32.524388" lon="-1.680124">
   <ele>1189.00</ele>
   <time>2014-04-04T11:06:16Z</time>
  </trkpt>
  <trkpt lat="32.524571" lon="-1.679672">
   <ele>1189.00</ele>
   <time>2014-04-04T11:06:20Z</time>
  </trkpt>
  <trkpt lat="32.525072" lon="-1.678470">
   <ele>1189.00</ele>
   <time>2014-04-04T11:06:30Z</time>
  </trkpt>
  <trkpt lat="32.525225" lon="-1.678088">
   <ele>1190.00</ele>
   <time>2014-04-04T11:06:33Z</time>
  </trkpt>
  <trkpt lat="32.525438" lon="-1.677593">
   <ele>1190.00</ele>
   <time>2014-04-04T11:06:37Z</time>
  </trkpt>
  <trkpt lat="32.525503" lon="-1.677342">
   <ele>1190.00</ele>
   <time>2014-04-04T11:06:39Z</time>
  </trkpt>
  <trkpt lat="32.525579" lon="-1.677101">
   <ele>1191.00</ele>
   <time>2014-04-04T11:06:41Z</time>
  </trkpt>
  <trkpt lat="32.525692" lon="-1.676889">
   <ele>1191.00</ele>
   <time>2014-04-04T11:06:43Z</time>
  </trkpt>
  <trkpt lat="32.525823" lon="-1.676690">
   <ele>1191.00</ele>
   <time>2014-04-04T11:06:45Z</time>
  </trkpt>
  <trkpt lat="32.525929" lon="-1.676464">
   <ele>1191.00</ele>
   <time>2014-04-04T11:06:47Z</time>
  </trkpt>
  <trkpt lat="32.526127" lon="-1.675979">
   <ele>1191.00</ele>
   <time>2014-04-04T11:06:51Z</time>
  </trkpt>
  <trkpt lat="32.526250" lon="-1.675749">
   <ele>1191.00</ele>
   <time>2014-04-04T11:06:53Z</time>
  </trkpt>
  <trkpt lat="32.526434" lon="-1.675407">
   <ele>1191.00</ele>
   <time>2014-04-04T11:06:56Z</time>
  </trkpt>
  <trkpt lat="32.526536" lon="-1.675170">
   <ele>1191.00</ele>
   <time>2014-04-04T11:06:58Z</time>
  </trkpt>
  <trkpt lat="32.526620" lon="-1.674923">
   <ele>1191.00</ele>
   <time>2014-04-04T11:07:00Z</time>
  </trkpt>
  <trkpt lat="32.526685" lon="-1.674671">
   <ele>1191.00</ele>
   <time>2014-04-04T11:07:02Z</time>
  </trkpt>
  <trkpt lat="32.526772" lon="-1.674285">
   <ele>1192.00</ele>
   <time>2014-04-04T11:07:05Z</time>
  </trkpt>
  <trkpt lat="32.526857" lon="-1.674032">
   <ele>1192.00</ele>
   <time>2014-04-04T11:07:07Z</time>
  </trkpt>
  <trkpt lat="32.526959" lon="-1.673780">
   <ele>1192.00</ele>
   <time>2014-04-04T11:07:09Z</time>
  </trkpt>
  <trkpt lat="32.527355" lon="-1.672902">
   <ele>1192.00</ele>
   <time>2014-04-04T11:07:16Z</time>
  </trkpt>
  <trkpt lat="32.527483" lon="-1.672653">
   <ele>1192.00</ele>
   <time>2014-04-04T11:07:18Z</time>
  </trkpt>
  <trkpt lat="32.527625" lon="-1.672414">
   <ele>1192.00</ele>
   <time>2014-04-04T11:07:20Z</time>
  </trkpt>
  <trkpt lat="32.527755" lon="-1.672170">
   <ele>1192.00</ele>
   <time>2014-04-04T11:07:22Z</time>
  </trkpt>
  <trkpt lat="32.527917" lon="-1.671809">
   <ele>1193.00</ele>
   <time>2014-04-04T11:07:25Z</time>
  </trkpt>
  <trkpt lat="32.528150" lon="-1.671385">
   <ele>1193.00</ele>
   <time>2014-04-04T11:07:29Z</time>
  </trkpt>
  <trkpt lat="32.528288" lon="-1.671194">
   <ele>1193.00</ele>
   <time>2014-04-04T11:07:31Z</time>
  </trkpt>
  <trkpt lat="32.528437" lon="-1.671027">
   <ele>1193.00</ele>
   <time>2014-04-04T11:07:33Z</time>
  </trkpt>
  <trkpt lat="32.528576" lon="-1.670850">
   <ele>1193.00</ele>
   <time>2014-04-04T11:07:35Z</time>
  </trkpt>
  <trkpt lat="32.528850" lon="-1.670451">
   <ele>1193.00</ele>
   <time>2014-04-04T11:07:39Z</time>
  </trkpt>
  <trkpt lat="32.529001" lon="-1.670241">
   <ele>1193.00</ele>
   <time>2014-04-04T11:07:41Z</time>
  </trkpt>
  <trkpt lat="32.529140" lon="-1.670016">
   <ele>1193.00</ele>
   <time>2014-04-04T11:07:43Z</time>
  </trkpt>
  <trkpt lat="32.529337" lon="-1.669680">
   <ele>1193.00</ele>
   <time>2014-04-04T11:07:46Z</time>
  </trkpt>
  <trkpt lat="32.529505" lon="-1.669330">
   <ele>1194.00</ele>
   <time>2014-04-04T11:07:49Z</time>
  </trkpt>
  <trkpt lat="32.529597" lon="-1.669102">
   <ele>1194.00</ele>
   <time>2014-04-04T11:07:51Z</time>
  </trkpt>
  <trkpt lat="32.529970" lon="-1.668022">
   <ele>1194.00</ele>
   <time>2014-04-04T11:08:00Z</time>
  </trkpt>
  <trkpt lat="32.530144" lon="-1.667399">
   <ele>1194.00</ele>
   <time>2014-04-04T11:08:05Z</time>
  </trkpt>
  <trkpt lat="32.530241" lon="-1.667161">
   <ele>1194.00</ele>
   <time>2014-04-04T11:08:07Z</time>
  </trkpt>
  <trkpt lat="32.530408" lon="-1.666810">
   <ele>1194.00</ele>
   <time>2014-04-04T11:08:10Z</time>
  </trkpt>
  <trkpt lat="32.531328" lon="-1.664949">
   <ele>1194.00</ele>
   <time>2014-04-04T11:08:25Z</time>
  </trkpt>
  <trkpt lat="32.531511" lon="-1.664584">
   <ele>1194.00</ele>
   <time>2014-04-04T11:08:28Z</time>
  </trkpt>
  <trkpt lat="32.531633" lon="-1.664356">
   <ele>1194.00</ele>
   <time>2014-04-04T11:08:30Z</time>
  </trkpt>
  <trkpt lat="32.531979" lon="-1.663667">
   <ele>1195.00</ele>
   <time>2014-04-04T11:08:36Z</time>
  </trkpt>
  <trkpt lat="32.532316" lon="-1.663066">
   <ele>1194.00</ele>
   <time>2014-04-04T11:08:41Z</time>
  </trkpt>
  <trkpt lat="32.532675" lon="-1.662456">
   <ele>1194.00</ele>
   <time>2014-04-04T11:08:46Z</time>
  </trkpt>
  <trkpt lat="32.532859" lon="-1.662111">
   <ele>1195.00</ele>
   <time>2014-04-04T11:08:49Z</time>
  </trkpt>
  <trkpt lat="32.532966" lon="-1.661878">
   <ele>1195.00</ele>
   <time>2014-04-04T11:08:51Z</time>
  </trkpt>
  <trkpt lat="32.533056" lon="-1.661633">
   <ele>1195.00</ele>
   <time>2014-04-04T11:08:53Z</time>
  </trkpt>
  <trkpt lat="32.533124" lon="-1.661378">
   <ele>1195.00</ele>
   <time>2014-04-04T11:08:55Z</time>
  </trkpt>
  <trkpt lat="32.533168" lon="-1.661115">
   <ele>1195.00</ele>
   <time>2014-04-04T11:08:57Z</time>
  </trkpt>
  <trkpt lat="32.533208" lon="-1.660846">
   <ele>1195.00</ele>
   <time>2014-04-04T11:08:59Z</time>
  </trkpt>
  <trkpt lat="32.533276" lon="-1.660584">
   <ele>1196.00</ele>
   <time>2014-04-04T11:09:01Z</time>
  </trkpt>
  <trkpt lat="32.533353" lon="-1.660322">
   <ele>1196.00</ele>
   <time>2014-04-04T11:09:03Z</time>
  </trkpt>
  <trkpt lat="32.533450" lon="-1.660064">
   <ele>1196.00</ele>
   <time>2014-04-04T11:09:05Z</time>
  </trkpt>
  <trkpt lat="32.533563" lon="-1.659809">
   <ele>1196.00</ele>
   <time>2014-04-04T11:09:07Z</time>
  </trkpt>
  <trkpt lat="32.533688" lon="-1.659560">
   <ele>1196.00</ele>
   <time>2014-04-04T11:09:09Z</time>
  </trkpt>
  <trkpt lat="32.533822" lon="-1.659318">
   <ele>1197.00</ele>
   <time>2014-04-04T11:09:11Z</time>
  </trkpt>
  <trkpt lat="32.534045" lon="-1.658958">
   <ele>1196.00</ele>
   <time>2014-04-04T11:09:14Z</time>
  </trkpt>
  <trkpt lat="32.534197" lon="-1.658719">
   <ele>1196.00</ele>
   <time>2014-04-04T11:09:16Z</time>
  </trkpt>
  <trkpt lat="32.534329" lon="-1.658466">
   <ele>1196.00</ele>
   <time>2014-04-04T11:09:18Z</time>
  </trkpt>
  <trkpt lat="32.534445" lon="-1.658210">
   <ele>1196.00</ele>
   <time>2014-04-04T11:09:20Z</time>
  </trkpt>
  <trkpt lat="32.534950" lon="-1.657033">
   <ele>1196.00</ele>
   <time>2014-04-04T11:09:29Z</time>
  </trkpt>
  <trkpt lat="32.535046" lon="-1.656745">
   <ele>1196.00</ele>
   <time>2014-04-04T11:09:31Z</time>
  </trkpt>
  <trkpt lat="32.535449" lon="-1.655458">
   <ele>1197.00</ele>
   <time>2014-04-04T11:09:40Z</time>
  </trkpt>
  <trkpt lat="32.535540" lon="-1.655171">
   <ele>1197.00</ele>
   <time>2014-04-04T11:09:42Z</time>
  </trkpt>
  <trkpt lat="32.535647" lon="-1.654898">
   <ele>1197.00</ele>
   <time>2014-04-04T11:09:44Z</time>
  </trkpt>
  <trkpt lat="32.535768" lon="-1.654644">
   <ele>1198.00</ele>
   <time>2014-04-04T11:09:46Z</time>
  </trkpt>
  <trkpt lat="32.535915" lon="-1.654414">
   <ele>1198.00</ele>
   <time>2014-04-04T11:09:48Z</time>
  </trkpt>
  <trkpt lat="32.536074" lon="-1.654191">
   <ele>1198.00</ele>
   <time>2014-04-04T11:09:50Z</time>
  </trkpt>
  <trkpt lat="32.536238" lon="-1.653984">
   <ele>1198.00</ele>
   <time>2014-04-04T11:09:52Z</time>
  </trkpt>
  <trkpt lat="32.536388" lon="-1.653793">
   <ele>1198.00</ele>
   <time>2014-04-04T11:09:54Z</time>
  </trkpt>
  <trkpt lat="32.536517" lon="-1.653606">
   <ele>1198.00</ele>
   <time>2014-04-04T11:09:56Z</time>
  </trkpt>
  <trkpt lat="32.536717" lon="-1.653284">
   <ele>1198.00</ele>
   <time>2014-04-04T11:10:00Z</time>
  </trkpt>
  <trkpt lat="32.536816" lon="-1.653105">
   <ele>1199.00</ele>
   <time>2014-04-04T11:10:07Z</time>
  </trkpt>
  <trkpt lat="32.536803" lon="-1.653129">
   <ele>1199.00</ele>
   <time>2014-04-04T11:10:22Z</time>
  </trkpt>
  <trkpt lat="32.536798" lon="-1.653138">
   <ele>1199.00</ele>
   <time>2014-04-04T11:10:37Z</time>
  </trkpt>
  <trkpt lat="32.536797" lon="-1.653142">
   <ele>1200.00</ele>
   <time>2014-04-04T11:10:52Z</time>
  </trkpt>
  <trkpt lat="32.536794" lon="-1.653145">
   <ele>1200.00</ele>
   <time>2014-04-04T11:11:08Z</time>
  </trkpt>
  <trkpt lat="32.536793" lon="-1.653146">
   <ele>1199.00</ele>
   <time>2014-04-04T11:11:23Z</time>
  </trkpt>
  <trkpt lat="32.536795" lon="-1.653147">
   <ele>1199.00</ele>
   <time>2014-04-04T11:11:39Z</time>
  </trkpt>
  <trkpt lat="32.536794" lon="-1.653148">
   <ele>1199.00</ele>
   <time>2014-04-04T11:11:54Z</time>
  </trkpt>
  <trkpt lat="32.536794" lon="-1.653148">
   <ele>1199.00</ele>
   <time>2014-04-04T11:12:10Z</time>
  </trkpt>
  <trkpt lat="32.536782" lon="-1.653162">
   <ele>1198.00</ele>
   <time>2014-04-04T11:12:26Z</time>
  </trkpt>
  <trkpt lat="32.536786" lon="-1.653160">
   <ele>1198.00</ele>
   <time>2014-04-04T11:12:41Z</time>
  </trkpt>
  <trkpt lat="32.536788" lon="-1.653148">
   <ele>1198.00</ele>
   <time>2014-04-04T11:12:56Z</time>
  </trkpt>
  <trkpt lat="32.536789" lon="-1.653151">
   <ele>1198.00</ele>
   <time>2014-04-04T11:13:12Z</time>
  </trkpt>
  <trkpt lat="32.536896" lon="-1.652944">
   <ele>1198.00</ele>
   <time>2014-04-04T11:13:21Z</time>
  </trkpt>
  <trkpt lat="32.537048" lon="-1.652674">
   <ele>1198.00</ele>
   <time>2014-04-04T11:13:26Z</time>
  </trkpt>
  <trkpt lat="32.537171" lon="-1.652495">
   <ele>1198.00</ele>
   <time>2014-04-04T11:13:29Z</time>
  </trkpt>
  <trkpt lat="32.537342" lon="-1.652255">
   <ele>1198.00</ele>
   <time>2014-04-04T11:13:33Z</time>
  </trkpt>
  <trkpt lat="32.537504" lon="-1.652000">
   <ele>1198.00</ele>
   <time>2014-04-04T11:13:37Z</time>
  </trkpt>
  <trkpt lat="32.537625" lon="-1.651791">
   <ele>1198.00</ele>
   <time>2014-04-04T11:13:40Z</time>
  </trkpt>
  <trkpt lat="32.537732" lon="-1.651559">
   <ele>1198.00</ele>
   <time>2014-04-04T11:13:43Z</time>
  </trkpt>
  <trkpt lat="32.537822" lon="-1.651297">
   <ele>1198.00</ele>
   <time>2014-04-04T11:13:46Z</time>
  </trkpt>
  <trkpt lat="32.537941" lon="-1.650945">
   <ele>1198.00</ele>
   <time>2014-04-04T11:13:50Z</time>
  </trkpt>
  <trkpt lat="32.538062" lon="-1.650679">
   <ele>1198.00</ele>
   <time>2014-04-04T11:13:53Z</time>
  </trkpt>
  <trkpt lat="32.538214" lon="-1.650431">
   <ele>1198.00</ele>
   <time>2014-04-04T11:13:56Z</time>
  </trkpt>
  <trkpt lat="32.538360" lon="-1.650175">
   <ele>1198.00</ele>
   <time>2014-04-04T11:13:59Z</time>
  </trkpt>
  <trkpt lat="32.538509" lon="-1.649799">
   <ele>1198.00</ele>
   <time>2014-04-04T11:14:03Z</time>
  </trkpt>
  <trkpt lat="32.538575" lon="-1.649597">
   <ele>1198.00</ele>
   <time>2014-04-04T11:14:05Z</time>
  </trkpt>
  <trkpt lat="32.538672" lon="-1.649285">
   <ele>1198.00</ele>
   <time>2014-04-04T11:14:08Z</time>
  </trkpt>
  <trkpt lat="32.538795" lon="-1.649001">
   <ele>1198.00</ele>
   <time>2014-04-04T11:14:11Z</time>
  </trkpt>
  <trkpt lat="32.538894" lon="-1.648722">
   <ele>1199.00</ele>
   <time>2014-04-04T11:14:14Z</time>
  </trkpt>
  <trkpt lat="32.539050" lon="-1.648469">
   <ele>1199.00</ele>
   <time>2014-04-04T11:14:17Z</time>
  </trkpt>
  <trkpt lat="32.539266" lon="-1.648288">
   <ele>1199.00</ele>
   <time>2014-04-04T11:14:20Z</time>
  </trkpt>
  <trkpt lat="32.539502" lon="-1.648152">
   <ele>1199.00</ele>
   <time>2014-04-04T11:14:23Z</time>
  </trkpt>
  <trkpt lat="32.539718" lon="-1.647971">
   <ele>1200.00</ele>
   <time>2014-04-04T11:14:26Z</time>
  </trkpt>
  <trkpt lat="32.539900" lon="-1.647745">
   <ele>1201.00</ele>
   <time>2014-04-04T11:14:29Z</time>
  </trkpt>
  <trkpt lat="32.540083" lon="-1.647522">
   <ele>1201.00</ele>
   <time>2014-04-04T11:14:32Z</time>
  </trkpt>
  <trkpt lat="32.540259" lon="-1.647291">
   <ele>1202.00</ele>
   <time>2014-04-04T11:14:35Z</time>
  </trkpt>
  <trkpt lat="32.540437" lon="-1.647054">
   <ele>1201.00</ele>
   <time>2014-04-04T11:14:38Z</time>
  </trkpt>
  <trkpt lat="32.540638" lon="-1.646848">
   <ele>1202.00</ele>
   <time>2014-04-04T11:14:41Z</time>
  </trkpt>
  <trkpt lat="32.540900" lon="-1.646574">
   <ele>1203.00</ele>
   <time>2014-04-04T11:14:45Z</time>
  </trkpt>
  <trkpt lat="32.541091" lon="-1.646354">
   <ele>1204.00</ele>
   <time>2014-04-04T11:14:48Z</time>
  </trkpt>
  <trkpt lat="32.541213" lon="-1.646181">
   <ele>1203.00</ele>
   <time>2014-04-04T11:14:50Z</time>
  </trkpt>
  <trkpt lat="32.541331" lon="-1.645987">
   <ele>1202.00</ele>
   <time>2014-04-04T11:14:52Z</time>
  </trkpt>
  <trkpt lat="32.541445" lon="-1.645798">
   <ele>1201.00</ele>
   <time>2014-04-04T11:14:54Z</time>
  </trkpt>
  <trkpt lat="32.541565" lon="-1.645626">
   <ele>1201.00</ele>
   <time>2014-04-04T11:14:56Z</time>
  </trkpt>
  <trkpt lat="32.541749" lon="-1.645398">
   <ele>1201.00</ele>
   <time>2014-04-04T11:14:59Z</time>
  </trkpt>
  <trkpt lat="32.542264" lon="-1.644806">
   <ele>1202.00</ele>
   <time>2014-04-04T11:15:07Z</time>
  </trkpt>
  <trkpt lat="32.542410" lon="-1.644662">
   <ele>1203.00</ele>
   <time>2014-04-04T11:15:09Z</time>
  </trkpt>
  <trkpt lat="32.542578" lon="-1.644537">
   <ele>1202.00</ele>
   <time>2014-04-04T11:15:11Z</time>
  </trkpt>
  <trkpt lat="32.542748" lon="-1.644415">
   <ele>1202.00</ele>
   <time>2014-04-04T11:15:13Z</time>
  </trkpt>
  <trkpt lat="32.542902" lon="-1.644270">
   <ele>1202.00</ele>
   <time>2014-04-04T11:15:15Z</time>
  </trkpt>
  <trkpt lat="32.543046" lon="-1.644107">
   <ele>1203.00</ele>
   <time>2014-04-04T11:15:17Z</time>
  </trkpt>
  <trkpt lat="32.543172" lon="-1.643933">
   <ele>1204.00</ele>
   <time>2014-04-04T11:15:19Z</time>
  </trkpt>
  <trkpt lat="32.543362" lon="-1.643657">
   <ele>1203.00</ele>
   <time>2014-04-04T11:15:22Z</time>
  </trkpt>
  <trkpt lat="32.543519" lon="-1.643517">
   <ele>1204.00</ele>
   <time>2014-04-04T11:15:24Z</time>
  </trkpt>
  <trkpt lat="32.543669" lon="-1.643381">
   <ele>1203.00</ele>
   <time>2014-04-04T11:15:26Z</time>
  </trkpt>
  <trkpt lat="32.543980" lon="-1.643020">
   <ele>1205.00</ele>
   <time>2014-04-04T11:15:31Z</time>
  </trkpt>
  <trkpt lat="32.544210" lon="-1.642857">
   <ele>1206.00</ele>
   <time>2014-04-04T11:15:34Z</time>
  </trkpt>
  <trkpt lat="32.544379" lon="-1.642772">
   <ele>1205.00</ele>
   <time>2014-04-04T11:15:36Z</time>
  </trkpt>
  <trkpt lat="32.544550" lon="-1.642694">
   <ele>1205.00</ele>
   <time>2014-04-04T11:15:38Z</time>
  </trkpt>
  <trkpt lat="32.544758" lon="-1.642531">
   <ele>1205.00</ele>
   <time>2014-04-04T11:15:41Z</time>
  </trkpt>
  <trkpt lat="32.544943" lon="-1.642366">
   <ele>1205.00</ele>
   <time>2014-04-04T11:15:44Z</time>
  </trkpt>
  <trkpt lat="32.545154" lon="-1.642233">
   <ele>1205.00</ele>
   <time>2014-04-04T11:15:47Z</time>
  </trkpt>
  <trkpt lat="32.545841" lon="-1.641827">
   <ele>1205.00</ele>
   <time>2014-04-04T11:15:56Z</time>
  </trkpt>
  <trkpt lat="32.546070" lon="-1.641662">
   <ele>1206.00</ele>
   <time>2014-04-04T11:15:59Z</time>
  </trkpt>
  <trkpt lat="32.546392" lon="-1.641425">
   <ele>1205.00</ele>
   <time>2014-04-04T11:16:03Z</time>
  </trkpt>
  <trkpt lat="32.546865" lon="-1.641046">
   <ele>1205.00</ele>
   <time>2014-04-04T11:16:09Z</time>
  </trkpt>
  <trkpt lat="32.547078" lon="-1.640875">
   <ele>1205.00</ele>
   <time>2014-04-04T11:16:12Z</time>
  </trkpt>
  <trkpt lat="32.547284" lon="-1.640690">
   <ele>1205.00</ele>
   <time>2014-04-04T11:16:15Z</time>
  </trkpt>
  <trkpt lat="32.547800" lon="-1.640154">
   <ele>1206.00</ele>
   <time>2014-04-04T11:16:23Z</time>
  </trkpt>
  <trkpt lat="32.547998" lon="-1.639976">
   <ele>1206.00</ele>
   <time>2014-04-04T11:16:26Z</time>
  </trkpt>
  <trkpt lat="32.548178" lon="-1.639773">
   <ele>1207.00</ele>
   <time>2014-04-04T11:16:29Z</time>
  </trkpt>
  <trkpt lat="32.548362" lon="-1.639579">
   <ele>1208.00</ele>
   <time>2014-04-04T11:16:32Z</time>
  </trkpt>
  <trkpt lat="32.548569" lon="-1.639414">
   <ele>1208.00</ele>
   <time>2014-04-04T11:16:35Z</time>
  </trkpt>
  <trkpt lat="32.548790" lon="-1.639282">
   <ele>1208.00</ele>
   <time>2014-04-04T11:16:38Z</time>
  </trkpt>
  <trkpt lat="32.548978" lon="-1.639109">
   <ele>1209.00</ele>
   <time>2014-04-04T11:16:41Z</time>
  </trkpt>
  <trkpt lat="32.549144" lon="-1.638911">
   <ele>1209.00</ele>
   <time>2014-04-04T11:16:44Z</time>
  </trkpt>
  <trkpt lat="32.549314" lon="-1.638694">
   <ele>1210.00</ele>
   <time>2014-04-04T11:16:47Z</time>
  </trkpt>
  <trkpt lat="32.549473" lon="-1.638450">
   <ele>1211.00</ele>
   <time>2014-04-04T11:16:50Z</time>
  </trkpt>
  <trkpt lat="32.549640" lon="-1.638229">
   <ele>1213.00</ele>
   <time>2014-04-04T11:16:53Z</time>
  </trkpt>
  <trkpt lat="32.549820" lon="-1.638016">
   <ele>1214.00</ele>
   <time>2014-04-04T11:16:56Z</time>
  </trkpt>
  <trkpt lat="32.550094" lon="-1.637633">
   <ele>1213.00</ele>
   <time>2014-04-04T11:17:01Z</time>
  </trkpt>
  <trkpt lat="32.550203" lon="-1.637391">
   <ele>1213.00</ele>
   <time>2014-04-04T11:17:04Z</time>
  </trkpt>
  <trkpt lat="32.550291" lon="-1.637150">
   <ele>1213.00</ele>
   <time>2014-04-04T11:17:07Z</time>
  </trkpt>
  <trkpt lat="32.550464" lon="-1.636955">
   <ele>1212.00</ele>
   <time>2014-04-04T11:17:10Z</time>
  </trkpt>
  <trkpt lat="32.550689" lon="-1.636790">
   <ele>1212.00</ele>
   <time>2014-04-04T11:17:13Z</time>
  </trkpt>
  <trkpt lat="32.550841" lon="-1.636649">
   <ele>1212.00</ele>
   <time>2014-04-04T11:17:15Z</time>
  </trkpt>
  <trkpt lat="32.550979" lon="-1.636482">
   <ele>1212.00</ele>
   <time>2014-04-04T11:17:17Z</time>
  </trkpt>
  <trkpt lat="32.551100" lon="-1.636296">
   <ele>1212.00</ele>
   <time>2014-04-04T11:17:19Z</time>
  </trkpt>
  <trkpt lat="32.551218" lon="-1.636096">
   <ele>1212.00</ele>
   <time>2014-04-04T11:17:21Z</time>
  </trkpt>
  <trkpt lat="32.551449" lon="-1.635681">
   <ele>1211.00</ele>
   <time>2014-04-04T11:17:25Z</time>
  </trkpt>
  <trkpt lat="32.551550" lon="-1.635473">
   <ele>1211.00</ele>
   <time>2014-04-04T11:17:27Z</time>
  </trkpt>
  <trkpt lat="32.551638" lon="-1.635255">
   <ele>1211.00</ele>
   <time>2014-04-04T11:17:29Z</time>
  </trkpt>
  <trkpt lat="32.551707" lon="-1.635028">
   <ele>1211.00</ele>
   <time>2014-04-04T11:17:31Z</time>
  </trkpt>
  <trkpt lat="32.551803" lon="-1.634687">
   <ele>1211.00</ele>
   <time>2014-04-04T11:17:34Z</time>
  </trkpt>
  <trkpt lat="32.551895" lon="-1.634468">
   <ele>1211.00</ele>
   <time>2014-04-04T11:17:36Z</time>
  </trkpt>
  <trkpt lat="32.551995" lon="-1.634259">
   <ele>1210.00</ele>
   <time>2014-04-04T11:17:38Z</time>
  </trkpt>
  <trkpt lat="32.552139" lon="-1.634000">
   <ele>1210.00</ele>
   <time>2014-04-04T11:17:41Z</time>
  </trkpt>
  <trkpt lat="32.552303" lon="-1.633612">
   <ele>1210.00</ele>
   <time>2014-04-04T11:17:46Z</time>
  </trkpt>
  <trkpt lat="32.552758" lon="-1.632725">
   <ele>1207.00</ele>
   <time>2014-04-04T11:17:58Z</time>
  </trkpt>
  <trkpt lat="32.552882" lon="-1.632514">
   <ele>1207.00</ele>
   <time>2014-04-04T11:18:01Z</time>
  </trkpt>
  <trkpt lat="32.553008" lon="-1.632317">
   <ele>1206.00</ele>
   <time>2014-04-04T11:18:04Z</time>
  </trkpt>
  <trkpt lat="32.553144" lon="-1.632138">
   <ele>1206.00</ele>
   <time>2014-04-04T11:18:07Z</time>
  </trkpt>
  <trkpt lat="32.553298" lon="-1.631940">
   <ele>1205.00</ele>
   <time>2014-04-04T11:18:11Z</time>
  </trkpt>
  <trkpt lat="32.553352" lon="-1.631701">
   <ele>1205.00</ele>
   <time>2014-04-04T11:18:16Z</time>
  </trkpt>
  <trkpt lat="32.553284" lon="-1.631508">
   <ele>1204.00</ele>
   <time>2014-04-04T11:18:21Z</time>
  </trkpt>
  <trkpt lat="32.553199" lon="-1.631463">
   <ele>1205.00</ele>
   <time>2014-04-04T11:18:38Z</time>
  </trkpt>
  <trkpt lat="32.553200" lon="-1.631472">
   <ele>1205.00</ele>
   <time>2014-04-04T11:18:54Z</time>
  </trkpt>
  <trkpt lat="32.553200" lon="-1.631475">
   <ele>1205.00</ele>
   <time>2014-04-04T11:19:09Z</time>
  </trkpt>
  <trkpt lat="32.553190" lon="-1.631477">
   <ele>1207.00</ele>
   <time>2014-04-04T11:19:25Z</time>
  </trkpt>
  <trkpt lat="32.553176" lon="-1.631483">
   <ele>1212.00</ele>
   <time>2014-04-04T11:19:40Z</time>
  </trkpt>
  <trkpt lat="32.553162" lon="-1.631479">
   <ele>1215.00</ele>
   <time>2014-04-04T11:19:55Z</time>
  </trkpt>
  <trkpt lat="32.553150" lon="-1.631477">
   <ele>1218.00</ele>
   <time>2014-04-04T11:20:11Z</time>
  </trkpt>
  <trkpt lat="32.553142" lon="-1.631478">
   <ele>1221.00</ele>
   <time>2014-04-04T11:20:26Z</time>
  </trkpt>
  <trkpt lat="32.553138" lon="-1.631478">
   <ele>1222.00</ele>
   <time>2014-04-04T11:20:41Z</time>
  </trkpt>
  <trkpt lat="32.553134" lon="-1.631477">
   <ele>1223.00</ele>
   <time>2014-04-04T11:20:57Z</time>
  </trkpt>
  <trkpt lat="32.553133" lon="-1.631477">
   <ele>1223.00</ele>
   <time>2014-04-04T11:21:12Z</time>
  </trkpt>
  <trkpt lat="32.553133" lon="-1.631478">
   <ele>1222.00</ele>
   <time>2014-04-04T11:21:27Z</time>
  </trkpt>
  <trkpt lat="32.553134" lon="-1.631481">
   <ele>1223.00</ele>
   <time>2014-04-04T11:21:43Z</time>
  </trkpt>
  <trkpt lat="32.553131" lon="-1.631486">
   <ele>1225.00</ele>
   <time>2014-04-04T11:21:58Z</time>
  </trkpt>
  <trkpt lat="32.553132" lon="-1.631492">
   <ele>1226.00</ele>
   <time>2014-04-04T11:22:14Z</time>
  </trkpt>
  <trkpt lat="32.553135" lon="-1.631492">
   <ele>1225.00</ele>
   <time>2014-04-04T11:22:29Z</time>
  </trkpt>
  <trkpt lat="32.553134" lon="-1.631492">
   <ele>1225.00</ele>
   <time>2014-04-04T11:22:44Z</time>
  </trkpt>
  <trkpt lat="32.553134" lon="-1.631491">
   <ele>1225.00</ele>
   <time>2014-04-04T11:22:59Z</time>
  </trkpt>
  <trkpt lat="32.553134" lon="-1.631488">
   <ele>1225.00</ele>
   <time>2014-04-04T11:23:15Z</time>
  </trkpt>
  <trkpt lat="32.553134" lon="-1.631486">
   <ele>1225.00</ele>
   <time>2014-04-04T11:23:30Z</time>
  </trkpt>
  <trkpt lat="32.553134" lon="-1.631484">
   <ele>1225.00</ele>
   <time>2014-04-04T11:23:45Z</time>
  </trkpt>
  <trkpt lat="32.553132" lon="-1.631483">
   <ele>1225.00</ele>
   <time>2014-04-04T11:24:01Z</time>
  </trkpt>
  <trkpt lat="32.553133" lon="-1.631483">
   <ele>1225.00</ele>
   <time>2014-04-04T11:24:16Z</time>
  </trkpt>
  <trkpt lat="32.553134" lon="-1.631485">
   <ele>1225.00</ele>
   <time>2014-04-04T11:24:32Z</time>
  </trkpt>
  <trkpt lat="32.553133" lon="-1.631485">
   <ele>1225.00</ele>
   <time>2014-04-04T11:24:47Z</time>
  </trkpt>
  <trkpt lat="32.553131" lon="-1.631484">
   <ele>1226.00</ele>
   <time>2014-04-04T11:25:02Z</time>
  </trkpt>
  <trkpt lat="32.553131" lon="-1.631486">
   <ele>1226.00</ele>
   <time>2014-04-04T11:25:18Z</time>
  </trkpt>
  <trkpt lat="32.553131" lon="-1.631488">
   <ele>1226.00</ele>
   <time>2014-04-04T11:25:33Z</time>
  </trkpt>
  <trkpt lat="32.553130" lon="-1.631488">
   <ele>1226.00</ele>
   <time>2014-04-04T11:25:48Z</time>
  </trkpt>
  <trkpt lat="32.553129" lon="-1.631486">
   <ele>1227.00</ele>
   <time>2014-04-04T11:26:05Z</time>
  </trkpt>
  <trkpt lat="32.553130" lon="-1.631486">
   <ele>1227.00</ele>
   <time>2014-04-04T11:26:20Z</time>
  </trkpt>
  <trkpt lat="32.553129" lon="-1.631486">
   <ele>1227.00</ele>
   <time>2014-04-04T11:26:36Z</time>
  </trkpt>
  <trkpt lat="32.553127" lon="-1.631487">
   <ele>1228.00</ele>
   <time>2014-04-04T11:26:51Z</time>
  </trkpt>
  <trkpt lat="32.553125" lon="-1.631486">
   <ele>1228.00</ele>
   <time>2014-04-04T11:27:07Z</time>
  </trkpt>
  <trkpt lat="32.553125" lon="-1.631488">
   <ele>1229.00</ele>
   <time>2014-04-04T11:27:22Z</time>
  </trkpt>
  <trkpt lat="32.553126" lon="-1.631488">
   <ele>1228.00</ele>
   <time>2014-04-04T11:27:38Z</time>
  </trkpt>
  <trkpt lat="32.553128" lon="-1.631487">
   <ele>1227.00</ele>
   <time>2014-04-04T11:27:53Z</time>
  </trkpt>
  <trkpt lat="32.553131" lon="-1.631489">
   <ele>1226.00</ele>
   <time>2014-04-04T11:28:08Z</time>
  </trkpt>
  <trkpt lat="32.553134" lon="-1.631489">
   <ele>1225.00</ele>
   <time>2014-04-04T11:28:24Z</time>
  </trkpt>
  <trkpt lat="32.553135" lon="-1.631491">
   <ele>1224.00</ele>
   <time>2014-04-04T11:28:39Z</time>
  </trkpt>
  <trkpt lat="32.553135" lon="-1.631492">
   <ele>1225.00</ele>
   <time>2014-04-04T11:28:54Z</time>
  </trkpt>
  <trkpt lat="32.553133" lon="-1.631494">
   <ele>1226.00</ele>
   <time>2014-04-04T11:29:10Z</time>
  </trkpt>
  <trkpt lat="32.553132" lon="-1.631494">
   <ele>1228.00</ele>
   <time>2014-04-04T11:29:25Z</time>
  </trkpt>
  <trkpt lat="32.553130" lon="-1.631494">
   <ele>1228.00</ele>
   <time>2014-04-04T11:29:40Z</time>
  </trkpt>
  <trkpt lat="32.553130" lon="-1.631492">
   <ele>1228.00</ele>
   <time>2014-04-04T11:29:56Z</time>
  </trkpt>
  <trkpt lat="32.553131" lon="-1.631492">
   <ele>1228.00</ele>
   <time>2014-04-04T11:30:11Z</time>
  </trkpt>
  <trkpt lat="32.553130" lon="-1.631490">
   <ele>1228.00</ele>
   <time>2014-04-04T11:30:26Z</time>
  </trkpt>
  <trkpt lat="32.553129" lon="-1.631489">
   <ele>1229.00</ele>
   <time>2014-04-04T11:30:42Z</time>
  </trkpt>
  <trkpt lat="32.553131" lon="-1.631490">
   <ele>1228.00</ele>
   <time>2014-04-04T11:30:57Z</time>
  </trkpt>
  <trkpt lat="32.553132" lon="-1.631489">
   <ele>1228.00</ele>
   <time>2014-04-04T11:31:12Z</time>
  </trkpt>
  <trkpt lat="32.553132" lon="-1.631487">
   <ele>1228.00</ele>
   <time>2014-04-04T11:31:28Z</time>
  </trkpt>
  <trkpt lat="32.553134" lon="-1.631488">
   <ele>1228.00</ele>
   <time>2014-04-04T11:31:43Z</time>
  </trkpt>
  <trkpt lat="32.553136" lon="-1.631489">
   <ele>1227.00</ele>
   <time>2014-04-04T11:31:58Z</time>
  </trkpt>
  <trkpt lat="32.553140" lon="-1.631491">
   <ele>1226.00</ele>
   <time>2014-04-04T11:32:14Z</time>
  </trkpt>
  <trkpt lat="32.553141" lon="-1.631491">
   <ele>1226.00</ele>
   <time>2014-04-04T11:32:30Z</time>
  </trkpt>
  <trkpt lat="32.553140" lon="-1.631490">
   <ele>1226.00</ele>
   <time>2014-04-04T11:32:45Z</time>
  </trkpt>
  <trkpt lat="32.553142" lon="-1.631490">
   <ele>1225.00</ele>
   <time>2014-04-04T11:33:00Z</time>
  </trkpt>
  <trkpt lat="32.553148" lon="-1.631492">
   <ele>1224.00</ele>
   <time>2014-04-04T11:33:16Z</time>
  </trkpt>
  <trkpt lat="32.553151" lon="-1.631493">
   <ele>1223.00</ele>
   <time>2014-04-04T11:33:31Z</time>
  </trkpt>
  <trkpt lat="32.553152" lon="-1.631494">
   <ele>1223.00</ele>
   <time>2014-04-04T11:33:46Z</time>
  </trkpt>
  <trkpt lat="32.553155" lon="-1.631494">
   <ele>1221.00</ele>
   <time>2014-04-04T11:34:02Z</time>
  </trkpt>
  <trkpt lat="32.553156" lon="-1.631493">
   <ele>1220.00</ele>
   <time>2014-04-04T11:34:17Z</time>
  </trkpt>
  <trkpt lat="32.553155" lon="-1.631491">
   <ele>1220.00</ele>
   <time>2014-04-04T11:34:32Z</time>
  </trkpt>
  <trkpt lat="32.553155" lon="-1.631489">
   <ele>1220.00</ele>
   <time>2014-04-04T11:34:48Z</time>
  </trkpt>
  <trkpt lat="32.553155" lon="-1.631489">
   <ele>1220.00</ele>
   <time>2014-04-04T11:35:03Z</time>
  </trkpt>
  <trkpt lat="32.553154" lon="-1.631489">
   <ele>1221.00</ele>
   <time>2014-04-04T11:35:19Z</time>
  </trkpt>
  <trkpt lat="32.553153" lon="-1.631489">
   <ele>1221.00</ele>
   <time>2014-04-04T11:35:34Z</time>
  </trkpt>
  <trkpt lat="32.553152" lon="-1.631489">
   <ele>1221.00</ele>
   <time>2014-04-04T11:35:49Z</time>
  </trkpt>
  <trkpt lat="32.553153" lon="-1.631488">
   <ele>1221.00</ele>
   <time>2014-04-04T11:36:05Z</time>
  </trkpt>
  <trkpt lat="32.553153" lon="-1.631487">
   <ele>1221.00</ele>
   <time>2014-04-04T11:36:20Z</time>
  </trkpt>
  <trkpt lat="32.553152" lon="-1.631486">
   <ele>1221.00</ele>
   <time>2014-04-04T11:36:35Z</time>
  </trkpt>
  <trkpt lat="32.553151" lon="-1.631484">
   <ele>1221.00</ele>
   <time>2014-04-04T11:36:51Z</time>
  </trkpt>
  <trkpt lat="32.553153" lon="-1.631484">
   <ele>1221.00</ele>
   <time>2014-04-04T11:37:06Z</time>
  </trkpt>
  <trkpt lat="32.553207" lon="-1.631278">
   <ele>1215.00</ele>
   <time>2014-04-04T11:37:19Z</time>
  </trkpt>
  <trkpt lat="32.553132" lon="-1.631078">
   <ele>1216.00</ele>
   <time>2014-04-04T11:37:27Z</time>
  </trkpt>
  <trkpt lat="32.553004" lon="-1.630882">
   <ele>1216.00</ele>
   <time>2014-04-04T11:37:33Z</time>
  </trkpt>
  <trkpt lat="32.552887" lon="-1.630646">
   <ele>1217.00</ele>
   <time>2014-04-04T11:37:38Z</time>
  </trkpt>
  <trkpt lat="32.552821" lon="-1.630425">
   <ele>1214.00</ele>
   <time>2014-04-04T11:37:42Z</time>
  </trkpt>
  <trkpt lat="32.552761" lon="-1.630188">
   <ele>1212.00</ele>
   <time>2014-04-04T11:37:46Z</time>
  </trkpt>
  <trkpt lat="32.552688" lon="-1.629881">
   <ele>1210.00</ele>
   <time>2014-04-04T11:37:51Z</time>
  </trkpt>
  <trkpt lat="32.552578" lon="-1.629539">
   <ele>1209.00</ele>
   <time>2014-04-04T11:37:57Z</time>
  </trkpt>
  <trkpt lat="32.552560" lon="-1.629314">
   <ele>1209.00</ele>
   <time>2014-04-04T11:38:01Z</time>
  </trkpt>
  <trkpt lat="32.552673" lon="-1.629097">
   <ele>1210.00</ele>
   <time>2014-04-04T11:38:06Z</time>
  </trkpt>
  <trkpt lat="32.552840" lon="-1.628956">
   <ele>1210.00</ele>
   <time>2014-04-04T11:38:11Z</time>
  </trkpt>
  <trkpt lat="32.552952" lon="-1.628766">
   <ele>1211.00</ele>
   <time>2014-04-04T11:38:16Z</time>
  </trkpt>
  <trkpt lat="32.552979" lon="-1.628515">
   <ele>1212.00</ele>
   <time>2014-04-04T11:38:21Z</time>
  </trkpt>
  <trkpt lat="32.552986" lon="-1.628294">
   <ele>1212.00</ele>
   <time>2014-04-04T11:38:25Z</time>
  </trkpt>
  <trkpt lat="32.553042" lon="-1.628068">
   <ele>1212.00</ele>
   <time>2014-04-04T11:38:29Z</time>
  </trkpt>
  <trkpt lat="32.553112" lon="-1.627833">
   <ele>1213.00</ele>
   <time>2014-04-04T11:38:33Z</time>
  </trkpt>
  <trkpt lat="32.553178" lon="-1.627586">
   <ele>1213.00</ele>
   <time>2014-04-04T11:38:37Z</time>
  </trkpt>
  <trkpt lat="32.553273" lon="-1.627348">
   <ele>1213.00</ele>
   <time>2014-04-04T11:38:41Z</time>
  </trkpt>
  <trkpt lat="32.553375" lon="-1.627125">
   <ele>1213.00</ele>
   <time>2014-04-04T11:38:45Z</time>
  </trkpt>
  <trkpt lat="32.553479" lon="-1.626929">
   <ele>1213.00</ele>
   <time>2014-04-04T11:38:49Z</time>
  </trkpt>
  <trkpt lat="32.553583" lon="-1.626755">
   <ele>1214.00</ele>
   <time>2014-04-04T11:38:53Z</time>
  </trkpt>
  <trkpt lat="32.553638" lon="-1.626544">
   <ele>1214.00</ele>
   <time>2014-04-04T11:38:57Z</time>
  </trkpt>
  <trkpt lat="32.553756" lon="-1.626361">
   <ele>1215.00</ele>
   <time>2014-04-04T11:39:01Z</time>
  </trkpt>
  <trkpt lat="32.553895" lon="-1.626196">
   <ele>1215.00</ele>
   <time>2014-04-04T11:39:05Z</time>
  </trkpt>
  <trkpt lat="32.554044" lon="-1.626046">
   <ele>1215.00</ele>
   <time>2014-04-04T11:39:09Z</time>
  </trkpt>
  <trkpt lat="32.554183" lon="-1.625874">
   <ele>1215.00</ele>
   <time>2014-04-04T11:39:13Z</time>
  </trkpt>
  <trkpt lat="32.554331" lon="-1.625710">
   <ele>1216.00</ele>
   <time>2014-04-04T11:39:17Z</time>
  </trkpt>
  <trkpt lat="32.554455" lon="-1.625516">
   <ele>1216.00</ele>
   <time>2014-04-04T11:39:21Z</time>
  </trkpt>
  <trkpt lat="32.554586" lon="-1.625315">
   <ele>1216.00</ele>
   <time>2014-04-04T11:39:25Z</time>
  </trkpt>
  <trkpt lat="32.554661" lon="-1.625087">
   <ele>1215.00</ele>
   <time>2014-04-04T11:39:29Z</time>
  </trkpt>
  <trkpt lat="32.554653" lon="-1.624832">
   <ele>1215.00</ele>
   <time>2014-04-04T11:39:33Z</time>
  </trkpt>
  <trkpt lat="32.554596" lon="-1.624292">
   <ele>1214.00</ele>
   <time>2014-04-04T11:39:43Z</time>
  </trkpt>
  <trkpt lat="32.554548" lon="-1.624077">
   <ele>1213.00</ele>
   <time>2014-04-04T11:39:47Z</time>
  </trkpt>
  <trkpt lat="32.554466" lon="-1.623873">
   <ele>1213.00</ele>
   <time>2014-04-04T11:39:51Z</time>
  </trkpt>
  <trkpt lat="32.554323" lon="-1.623705">
   <ele>1213.00</ele>
   <time>2014-04-04T11:39:56Z</time>
  </trkpt>
  <trkpt lat="32.554113" lon="-1.623623">
   <ele>1214.00</ele>
   <time>2014-04-04T11:40:02Z</time>
  </trkpt>
  <trkpt lat="32.553896" lon="-1.623605">
   <ele>1215.00</ele>
   <time>2014-04-04T11:40:08Z</time>
  </trkpt>
  <trkpt lat="32.553712" lon="-1.623637">
   <ele>1215.00</ele>
   <time>2014-04-04T11:40:12Z</time>
  </trkpt>
  <trkpt lat="32.553508" lon="-1.623672">
   <ele>1216.00</ele>
   <time>2014-04-04T11:40:16Z</time>
  </trkpt>
  <trkpt lat="32.553301" lon="-1.623664">
   <ele>1216.00</ele>
   <time>2014-04-04T11:40:20Z</time>
  </trkpt>
  <trkpt lat="32.553106" lon="-1.623554">
   <ele>1216.00</ele>
   <time>2014-04-04T11:40:24Z</time>
  </trkpt>
  <trkpt lat="32.552928" lon="-1.623383">
   <ele>1216.00</ele>
   <time>2014-04-04T11:40:28Z</time>
  </trkpt>
  <trkpt lat="32.552766" lon="-1.623187">
   <ele>1216.00</ele>
   <time>2014-04-04T11:40:32Z</time>
  </trkpt>
  <trkpt lat="32.552648" lon="-1.623015">
   <ele>1217.00</ele>
   <time>2014-04-04T11:40:35Z</time>
  </trkpt>
  <trkpt lat="32.552486" lon="-1.622771">
   <ele>1217.00</ele>
   <time>2014-04-04T11:40:39Z</time>
  </trkpt>
  <trkpt lat="32.552321" lon="-1.622517">
   <ele>1218.00</ele>
   <time>2014-04-04T11:40:43Z</time>
  </trkpt>
  <trkpt lat="32.551922" lon="-1.621837">
   <ele>1218.00</ele>
   <time>2014-04-04T11:40:52Z</time>
  </trkpt>
  <trkpt lat="32.551809" lon="-1.621592">
   <ele>1217.00</ele>
   <time>2014-04-04T11:40:55Z</time>
  </trkpt>
  <trkpt lat="32.551668" lon="-1.621250">
   <ele>1215.00</ele>
   <time>2014-04-04T11:40:59Z</time>
  </trkpt>
  <trkpt lat="32.551582" lon="-1.620969">
   <ele>1213.00</ele>
   <time>2014-04-04T11:41:02Z</time>
  </trkpt>
  <trkpt lat="32.551419" lon="-1.620385">
   <ele>1212.00</ele>
   <time>2014-04-04T11:41:08Z</time>
  </trkpt>
  <trkpt lat="32.551335" lon="-1.620085">
   <ele>1212.00</ele>
   <time>2014-04-04T11:41:11Z</time>
  </trkpt>
  <trkpt lat="32.551283" lon="-1.619878">
   <ele>1212.00</ele>
   <time>2014-04-04T11:41:13Z</time>
  </trkpt>
  <trkpt lat="32.551240" lon="-1.619665">
   <ele>1212.00</ele>
   <time>2014-04-04T11:41:15Z</time>
  </trkpt>
  <trkpt lat="32.551023" lon="-1.618384">
   <ele>1210.00</ele>
   <time>2014-04-04T11:41:27Z</time>
  </trkpt>
  <trkpt lat="32.550972" lon="-1.618172">
   <ele>1210.00</ele>
   <time>2014-04-04T11:41:29Z</time>
  </trkpt>
  <trkpt lat="32.550910" lon="-1.617967">
   <ele>1209.00</ele>
   <time>2014-04-04T11:41:31Z</time>
  </trkpt>
  <trkpt lat="32.550667" lon="-1.617314">
   <ele>1208.00</ele>
   <time>2014-04-04T11:41:38Z</time>
  </trkpt>
  <trkpt lat="32.550586" lon="-1.617121">
   <ele>1208.00</ele>
   <time>2014-04-04T11:41:41Z</time>
  </trkpt>
  <trkpt lat="32.550365" lon="-1.616655">
   <ele>1209.00</ele>
   <time>2014-04-04T11:41:50Z</time>
  </trkpt>
  <trkpt lat="32.550292" lon="-1.616433">
   <ele>1209.00</ele>
   <time>2014-04-04T11:41:53Z</time>
  </trkpt>
  <trkpt lat="32.550246" lon="-1.616200">
   <ele>1208.00</ele>
   <time>2014-04-04T11:41:56Z</time>
  </trkpt>
  <trkpt lat="32.550182" lon="-1.615937">
   <ele>1208.00</ele>
   <time>2014-04-04T11:42:00Z</time>
  </trkpt>
  <trkpt lat="32.550110" lon="-1.615738">
   <ele>1208.00</ele>
   <time>2014-04-04T11:42:04Z</time>
  </trkpt>
  <trkpt lat="32.550066" lon="-1.615643">
   <ele>1210.00</ele>
   <time>2014-04-04T11:42:19Z</time>
  </trkpt>
  <trkpt lat="32.550066" lon="-1.615658">
   <ele>1213.00</ele>
   <time>2014-04-04T11:42:34Z</time>
  </trkpt>
  <trkpt lat="32.550064" lon="-1.615665">
   <ele>1215.00</ele>
   <time>2014-04-04T11:42:50Z</time>
  </trkpt>
  <trkpt lat="32.550060" lon="-1.615667">
   <ele>1217.00</ele>
   <time>2014-04-04T11:43:05Z</time>
  </trkpt>
  <trkpt lat="32.550057" lon="-1.615667">
   <ele>1218.00</ele>
   <time>2014-04-04T11:43:20Z</time>
  </trkpt>
  <trkpt lat="32.550056" lon="-1.615666">
   <ele>1219.00</ele>
   <time>2014-04-04T11:43:36Z</time>
  </trkpt>
  <trkpt lat="32.550056" lon="-1.615666">
   <ele>1219.00</ele>
   <time>2014-04-04T11:43:51Z</time>
  </trkpt>
  <trkpt lat="32.550055" lon="-1.615667">
   <ele>1219.00</ele>
   <time>2014-04-04T11:44:06Z</time>
  </trkpt>
  <trkpt lat="32.550055" lon="-1.615667">
   <ele>1219.00</ele>
   <time>2014-04-04T11:44:22Z</time>
  </trkpt>
  <trkpt lat="32.550055" lon="-1.615667">
   <ele>1219.00</ele>
   <time>2014-04-04T11:44:37Z</time>
  </trkpt>
  <trkpt lat="32.550056" lon="-1.615666">
   <ele>1219.00</ele>
   <time>2014-04-04T11:44:52Z</time>
  </trkpt>
  <trkpt lat="32.550056" lon="-1.615666">
   <ele>1219.00</ele>
   <time>2014-04-04T11:45:08Z</time>
  </trkpt>
  <trkpt lat="32.550056" lon="-1.615666">
   <ele>1219.00</ele>
   <time>2014-04-04T11:45:23Z</time>
  </trkpt>
  <trkpt lat="32.550057" lon="-1.615665">
   <ele>1219.00</ele>
   <time>2014-04-04T11:45:38Z</time>
  </trkpt>
  <trkpt lat="32.550057" lon="-1.615666">
   <ele>1219.00</ele>
   <time>2014-04-04T11:45:54Z</time>
  </trkpt>
  <trkpt lat="32.550057" lon="-1.615667">
   <ele>1219.00</ele>
   <time>2014-04-04T11:46:09Z</time>
  </trkpt>
  <trkpt lat="32.550057" lon="-1.615667">
   <ele>1219.00</ele>
   <time>2014-04-04T11:46:24Z</time>
  </trkpt>
  <trkpt lat="32.550059" lon="-1.615670">
   <ele>1218.00</ele>
   <time>2014-04-04T11:46:40Z</time>
  </trkpt>
  <trkpt lat="32.550058" lon="-1.615668">
   <ele>1219.00</ele>
   <time>2014-04-04T11:46:55Z</time>
  </trkpt>
  <trkpt lat="32.550057" lon="-1.615669">
   <ele>1219.00</ele>
   <time>2014-04-04T11:47:11Z</time>
  </trkpt>
  <trkpt lat="32.550058" lon="-1.615671">
   <ele>1218.00</ele>
   <time>2014-04-04T11:47:26Z</time>
  </trkpt>
  <trkpt lat="32.550059" lon="-1.615668">
   <ele>1218.00</ele>
   <time>2014-04-04T11:47:41Z</time>
  </trkpt>
  <trkpt lat="32.550059" lon="-1.615666">
   <ele>1219.00</ele>
   <time>2014-04-04T11:47:57Z</time>
  </trkpt>
  <trkpt lat="32.550058" lon="-1.615665">
   <ele>1219.00</ele>
   <time>2014-04-04T11:48:12Z</time>
  </trkpt>
  <trkpt lat="32.550058" lon="-1.615665">
   <ele>1219.00</ele>
   <time>2014-04-04T11:48:27Z</time>
  </trkpt>
  <trkpt lat="32.550062" lon="-1.615664">
   <ele>1218.00</ele>
   <time>2014-04-04T11:48:43Z</time>
  </trkpt>
  <trkpt lat="32.550065" lon="-1.615660">
   <ele>1215.00</ele>
   <time>2014-04-04T11:48:58Z</time>
  </trkpt>
  <trkpt lat="32.549959" lon="-1.615458">
   <ele>1214.00</ele>
   <time>2014-04-04T11:49:05Z</time>
  </trkpt>
  <trkpt lat="32.549399" lon="-1.614455">
   <ele>1213.00</ele>
   <time>2014-04-04T11:49:20Z</time>
  </trkpt>
  <trkpt lat="32.549292" lon="-1.614205">
   <ele>1214.00</ele>
   <time>2014-04-04T11:49:23Z</time>
  </trkpt>
  <trkpt lat="32.549242" lon="-1.613921">
   <ele>1214.00</ele>
   <time>2014-04-04T11:49:26Z</time>
  </trkpt>
  <trkpt lat="32.549231" lon="-1.613622">
   <ele>1215.00</ele>
   <time>2014-04-04T11:49:29Z</time>
  </trkpt>
  <trkpt lat="32.549185" lon="-1.613327">
   <ele>1215.00</ele>
   <time>2014-04-04T11:49:32Z</time>
  </trkpt>
  <trkpt lat="32.549095" lon="-1.613070">
   <ele>1215.00</ele>
   <time>2014-04-04T11:49:35Z</time>
  </trkpt>
  <trkpt lat="32.548947" lon="-1.612869">
   <ele>1216.00</ele>
   <time>2014-04-04T11:49:38Z</time>
  </trkpt>
  <trkpt lat="32.548794" lon="-1.612646">
   <ele>1216.00</ele>
   <time>2014-04-04T11:49:41Z</time>
  </trkpt>
  <trkpt lat="32.548658" lon="-1.612376">
   <ele>1217.00</ele>
   <time>2014-04-04T11:49:44Z</time>
  </trkpt>
  <trkpt lat="32.548527" lon="-1.612101">
   <ele>1217.00</ele>
   <time>2014-04-04T11:49:47Z</time>
  </trkpt>
  <trkpt lat="32.548367" lon="-1.611869">
   <ele>1218.00</ele>
   <time>2014-04-04T11:49:50Z</time>
  </trkpt>
  <trkpt lat="32.548150" lon="-1.611700">
   <ele>1218.00</ele>
   <time>2014-04-04T11:49:53Z</time>
  </trkpt>
  <trkpt lat="32.547938" lon="-1.611523">
   <ele>1218.00</ele>
   <time>2014-04-04T11:49:56Z</time>
  </trkpt>
  <trkpt lat="32.547724" lon="-1.611344">
   <ele>1219.00</ele>
   <time>2014-04-04T11:49:59Z</time>
  </trkpt>
  <trkpt lat="32.547309" lon="-1.611132">
   <ele>1219.00</ele>
   <time>2014-04-04T11:50:04Z</time>
  </trkpt>
  <trkpt lat="32.547064" lon="-1.610999">
   <ele>1219.00</ele>
   <time>2014-04-04T11:50:07Z</time>
  </trkpt>
  <trkpt lat="32.546910" lon="-1.610888">
   <ele>1219.00</ele>
   <time>2014-04-04T11:50:09Z</time>
  </trkpt>
  <trkpt lat="32.546756" lon="-1.610759">
   <ele>1219.00</ele>
   <time>2014-04-04T11:50:11Z</time>
  </trkpt>
  <trkpt lat="32.546531" lon="-1.610554">
   <ele>1219.00</ele>
   <time>2014-04-04T11:50:14Z</time>
  </trkpt>
  <trkpt lat="32.546372" lon="-1.610445">
   <ele>1219.00</ele>
   <time>2014-04-04T11:50:16Z</time>
  </trkpt>
  <trkpt lat="32.546119" lon="-1.610348">
   <ele>1217.00</ele>
   <time>2014-04-04T11:50:19Z</time>
  </trkpt>
  <trkpt lat="32.545788" lon="-1.610286">
   <ele>1217.00</ele>
   <time>2014-04-04T11:50:23Z</time>
  </trkpt>
  <trkpt lat="32.545591" lon="-1.610141">
   <ele>1216.00</ele>
   <time>2014-04-04T11:50:26Z</time>
  </trkpt>
  <trkpt lat="32.545333" lon="-1.609884">
   <ele>1215.00</ele>
   <time>2014-04-04T11:50:30Z</time>
  </trkpt>
  <trkpt lat="32.545130" lon="-1.609710">
   <ele>1213.00</ele>
   <time>2014-04-04T11:50:33Z</time>
  </trkpt>
  <trkpt lat="32.544909" lon="-1.609550">
   <ele>1212.00</ele>
   <time>2014-04-04T11:50:36Z</time>
  </trkpt>
  <trkpt lat="32.544682" lon="-1.609376">
   <ele>1210.00</ele>
   <time>2014-04-04T11:50:39Z</time>
  </trkpt>
  <trkpt lat="32.544380" lon="-1.609154">
   <ele>1209.00</ele>
   <time>2014-04-04T11:50:43Z</time>
  </trkpt>
  <trkpt lat="32.544182" lon="-1.608969">
   <ele>1208.00</ele>
   <time>2014-04-04T11:50:46Z</time>
  </trkpt>
  <trkpt lat="32.544002" lon="-1.608785">
   <ele>1207.00</ele>
   <time>2014-04-04T11:50:49Z</time>
  </trkpt>
  <trkpt lat="32.543906" lon="-1.608539">
   <ele>1207.00</ele>
   <time>2014-04-04T11:50:52Z</time>
  </trkpt>
  <trkpt lat="32.543852" lon="-1.608267">
   <ele>1206.00</ele>
   <time>2014-04-04T11:50:55Z</time>
  </trkpt>
  <trkpt lat="32.543817" lon="-1.608001">
   <ele>1206.00</ele>
   <time>2014-04-04T11:50:58Z</time>
  </trkpt>
  <trkpt lat="32.543818" lon="-1.607707">
   <ele>1205.00</ele>
   <time>2014-04-04T11:51:01Z</time>
  </trkpt>
  <trkpt lat="32.543826" lon="-1.607306">
   <ele>1203.00</ele>
   <time>2014-04-04T11:51:05Z</time>
  </trkpt>
  <trkpt lat="32.543797" lon="-1.607003">
   <ele>1203.00</ele>
   <time>2014-04-04T11:51:08Z</time>
  </trkpt>
  <trkpt lat="32.543715" lon="-1.606699">
   <ele>1203.00</ele>
   <time>2014-04-04T11:51:11Z</time>
  </trkpt>
  <trkpt lat="32.543658" lon="-1.606492">
   <ele>1203.00</ele>
   <time>2014-04-04T11:51:13Z</time>
  </trkpt>
  <trkpt lat="32.543581" lon="-1.606181">
   <ele>1203.00</ele>
   <time>2014-04-04T11:51:16Z</time>
  </trkpt>
  <trkpt lat="32.543476" lon="-1.605700">
   <ele>1205.00</ele>
   <time>2014-04-04T11:51:21Z</time>
  </trkpt>
  <trkpt lat="32.543504" lon="-1.605449">
   <ele>1205.00</ele>
   <time>2014-04-04T11:51:24Z</time>
  </trkpt>
  <trkpt lat="32.543651" lon="-1.604913">
   <ele>1205.00</ele>
   <time>2014-04-04T11:51:30Z</time>
  </trkpt>
  <trkpt lat="32.543676" lon="-1.604640">
   <ele>1205.00</ele>
   <time>2014-04-04T11:51:33Z</time>
  </trkpt>
  <trkpt lat="32.543599" lon="-1.604358">
   <ele>1205.00</ele>
   <time>2014-04-04T11:51:36Z</time>
  </trkpt>
  <trkpt lat="32.543455" lon="-1.603992">
   <ele>1206.00</ele>
   <time>2014-04-04T11:51:40Z</time>
  </trkpt>
  <trkpt lat="32.543441" lon="-1.603705">
   <ele>1206.00</ele>
   <time>2014-04-04T11:51:43Z</time>
  </trkpt>
  <trkpt lat="32.543474" lon="-1.603401">
   <ele>1206.00</ele>
   <time>2014-04-04T11:51:46Z</time>
  </trkpt>
  <trkpt lat="32.543487" lon="-1.603103">
   <ele>1205.00</ele>
   <time>2014-04-04T11:51:49Z</time>
  </trkpt>
  <trkpt lat="32.543516" lon="-1.602796">
   <ele>1204.00</ele>
   <time>2014-04-04T11:51:52Z</time>
  </trkpt>
  <trkpt lat="32.543582" lon="-1.602496">
   <ele>1204.00</ele>
   <time>2014-04-04T11:51:55Z</time>
  </trkpt>
  <trkpt lat="32.543686" lon="-1.602113">
   <ele>1205.00</ele>
   <time>2014-04-04T11:51:59Z</time>
  </trkpt>
  <trkpt lat="32.543731" lon="-1.601824">
   <ele>1205.00</ele>
   <time>2014-04-04T11:52:02Z</time>
  </trkpt>
  <trkpt lat="32.543767" lon="-1.601541">
   <ele>1205.00</ele>
   <time>2014-04-04T11:52:05Z</time>
  </trkpt>
  <trkpt lat="32.543850" lon="-1.601274">
   <ele>1205.00</ele>
   <time>2014-04-04T11:52:08Z</time>
  </trkpt>
  <trkpt lat="32.543895" lon="-1.600992">
   <ele>1205.00</ele>
   <time>2014-04-04T11:52:11Z</time>
  </trkpt>
  <trkpt lat="32.543879" lon="-1.600678">
   <ele>1205.00</ele>
   <time>2014-04-04T11:52:14Z</time>
  </trkpt>
  <trkpt lat="32.543836" lon="-1.600365">
   <ele>1206.00</ele>
   <time>2014-04-04T11:52:17Z</time>
  </trkpt>
  <trkpt lat="32.543807" lon="-1.600061">
   <ele>1206.00</ele>
   <time>2014-04-04T11:52:20Z</time>
  </trkpt>
  <trkpt lat="32.543798" lon="-1.599344">
   <ele>1207.00</ele>
   <time>2014-04-04T11:52:27Z</time>
  </trkpt>
  <trkpt lat="32.543736" lon="-1.599033">
   <ele>1207.00</ele>
   <time>2014-04-04T11:52:30Z</time>
  </trkpt>
  <trkpt lat="32.543597" lon="-1.598494">
   <ele>1207.00</ele>
   <time>2014-04-04T11:52:35Z</time>
  </trkpt>
  <trkpt lat="32.543553" lon="-1.598274">
   <ele>1207.00</ele>
   <time>2014-04-04T11:52:37Z</time>
  </trkpt>
  <trkpt lat="32.543531" lon="-1.598050">
   <ele>1207.00</ele>
   <time>2014-04-04T11:52:39Z</time>
  </trkpt>
  <trkpt lat="32.543498" lon="-1.597609">
   <ele>1207.00</ele>
   <time>2014-04-04T11:52:43Z</time>
  </trkpt>
  <trkpt lat="32.543439" lon="-1.597307">
   <ele>1208.00</ele>
   <time>2014-04-04T11:52:46Z</time>
  </trkpt>
  <trkpt lat="32.543367" lon="-1.597112">
   <ele>1208.00</ele>
   <time>2014-04-04T11:52:48Z</time>
  </trkpt>
  <trkpt lat="32.543284" lon="-1.596913">
   <ele>1208.00</ele>
   <time>2014-04-04T11:52:50Z</time>
  </trkpt>
  <trkpt lat="32.543217" lon="-1.596697">
   <ele>1208.00</ele>
   <time>2014-04-04T11:52:52Z</time>
  </trkpt>
  <trkpt lat="32.543168" lon="-1.596464">
   <ele>1208.00</ele>
   <time>2014-04-04T11:52:54Z</time>
  </trkpt>
  <trkpt lat="32.543142" lon="-1.596232">
   <ele>1208.00</ele>
   <time>2014-04-04T11:52:56Z</time>
  </trkpt>
  <trkpt lat="32.543123" lon="-1.595797">
   <ele>1209.00</ele>
   <time>2014-04-04T11:53:00Z</time>
  </trkpt>
  <trkpt lat="32.543097" lon="-1.595574">
   <ele>1209.00</ele>
   <time>2014-04-04T11:53:02Z</time>
  </trkpt>
  <trkpt lat="32.543058" lon="-1.595345">
   <ele>1209.00</ele>
   <time>2014-04-04T11:53:04Z</time>
  </trkpt>
  <trkpt lat="32.543007" lon="-1.595126">
   <ele>1209.00</ele>
   <time>2014-04-04T11:53:06Z</time>
  </trkpt>
  <trkpt lat="32.542937" lon="-1.594922">
   <ele>1209.00</ele>
   <time>2014-04-04T11:53:08Z</time>
  </trkpt>
  <trkpt lat="32.542779" lon="-1.594546">
   <ele>1209.00</ele>
   <time>2014-04-04T11:53:12Z</time>
  </trkpt>
  <trkpt lat="32.542747" lon="-1.594256">
   <ele>1209.00</ele>
   <time>2014-04-04T11:53:15Z</time>
  </trkpt>
  <trkpt lat="32.542771" lon="-1.593942">
   <ele>1209.00</ele>
   <time>2014-04-04T11:53:18Z</time>
  </trkpt>
  <trkpt lat="32.542803" lon="-1.593732">
   <ele>1210.00</ele>
   <time>2014-04-04T11:53:20Z</time>
  </trkpt>
  <trkpt lat="32.542808" lon="-1.593512">
   <ele>1210.00</ele>
   <time>2014-04-04T11:53:22Z</time>
  </trkpt>
  <trkpt lat="32.542824" lon="-1.593297">
   <ele>1210.00</ele>
   <time>2014-04-04T11:53:24Z</time>
  </trkpt>
  <trkpt lat="32.542891" lon="-1.592888">
   <ele>1211.00</ele>
   <time>2014-04-04T11:53:28Z</time>
  </trkpt>
  <trkpt lat="32.542845" lon="-1.592599">
   <ele>1211.00</ele>
   <time>2014-04-04T11:53:31Z</time>
  </trkpt>
  <trkpt lat="32.542742" lon="-1.592351">
   <ele>1211.00</ele>
   <time>2014-04-04T11:53:34Z</time>
  </trkpt>
  <trkpt lat="32.542700" lon="-1.592086">
   <ele>1210.00</ele>
   <time>2014-04-04T11:53:37Z</time>
  </trkpt>
  <trkpt lat="32.542689" lon="-1.591839">
   <ele>1211.00</ele>
   <time>2014-04-04T11:53:40Z</time>
  </trkpt>
  <trkpt lat="32.542659" lon="-1.591622">
   <ele>1211.00</ele>
   <time>2014-04-04T11:53:43Z</time>
  </trkpt>
  <trkpt lat="32.542614" lon="-1.591365">
   <ele>1211.00</ele>
   <time>2014-04-04T11:53:46Z</time>
  </trkpt>
  <trkpt lat="32.542600" lon="-1.591100">
   <ele>1211.00</ele>
   <time>2014-04-04T11:53:49Z</time>
  </trkpt>
  <trkpt lat="32.542576" lon="-1.590834">
   <ele>1211.00</ele>
   <time>2014-04-04T11:53:52Z</time>
  </trkpt>
  <trkpt lat="32.542582" lon="-1.590551">
   <ele>1210.00</ele>
   <time>2014-04-04T11:53:55Z</time>
  </trkpt>
  <trkpt lat="32.542601" lon="-1.590160">
   <ele>1210.00</ele>
   <time>2014-04-04T11:53:59Z</time>
  </trkpt>
  <trkpt lat="32.542560" lon="-1.589862">
   <ele>1210.00</ele>
   <time>2014-04-04T11:54:02Z</time>
  </trkpt>
  <trkpt lat="32.542512" lon="-1.589551">
   <ele>1210.00</ele>
   <time>2014-04-04T11:54:05Z</time>
  </trkpt>
  <trkpt lat="32.542512" lon="-1.589232">
   <ele>1210.00</ele>
   <time>2014-04-04T11:54:08Z</time>
  </trkpt>
  <trkpt lat="32.542539" lon="-1.588898">
   <ele>1210.00</ele>
   <time>2014-04-04T11:54:11Z</time>
  </trkpt>
  <trkpt lat="32.542536" lon="-1.588671">
   <ele>1210.00</ele>
   <time>2014-04-04T11:54:13Z</time>
  </trkpt>
  <trkpt lat="32.542538" lon="-1.588446">
   <ele>1210.00</ele>
   <time>2014-04-04T11:54:15Z</time>
  </trkpt>
  <trkpt lat="32.542554" lon="-1.588114">
   <ele>1209.00</ele>
   <time>2014-04-04T11:54:18Z</time>
  </trkpt>
  <trkpt lat="32.542584" lon="-1.587899">
   <ele>1209.00</ele>
   <time>2014-04-04T11:54:20Z</time>
  </trkpt>
  <trkpt lat="32.542659" lon="-1.587599">
   <ele>1209.00</ele>
   <time>2014-04-04T11:54:23Z</time>
  </trkpt>
  <trkpt lat="32.542708" lon="-1.587298">
   <ele>1209.00</ele>
   <time>2014-04-04T11:54:26Z</time>
  </trkpt>
  <trkpt lat="32.542686" lon="-1.586978">
   <ele>1209.00</ele>
   <time>2014-04-04T11:54:29Z</time>
  </trkpt>
  <trkpt lat="32.542666" lon="-1.586759">
   <ele>1210.00</ele>
   <time>2014-04-04T11:54:31Z</time>
  </trkpt>
  <trkpt lat="32.542638" lon="-1.586545">
   <ele>1210.00</ele>
   <time>2014-04-04T11:54:33Z</time>
  </trkpt>
  <trkpt lat="32.542570" lon="-1.586334">
   <ele>1210.00</ele>
   <time>2014-04-04T11:54:35Z</time>
  </trkpt>
  <trkpt lat="32.542466" lon="-1.586136">
   <ele>1211.00</ele>
   <time>2014-04-04T11:54:37Z</time>
  </trkpt>
  <trkpt lat="32.542354" lon="-1.585936">
   <ele>1211.00</ele>
   <time>2014-04-04T11:54:39Z</time>
  </trkpt>
  <trkpt lat="32.542254" lon="-1.585729">
   <ele>1211.00</ele>
   <time>2014-04-04T11:54:41Z</time>
  </trkpt>
  <trkpt lat="32.542172" lon="-1.585517">
   <ele>1211.00</ele>
   <time>2014-04-04T11:54:43Z</time>
  </trkpt>
  <trkpt lat="32.541889" lon="-1.584746">
   <ele>1212.00</ele>
   <time>2014-04-04T11:54:50Z</time>
  </trkpt>
  <trkpt lat="32.541735" lon="-1.584352">
   <ele>1213.00</ele>
   <time>2014-04-04T11:54:54Z</time>
  </trkpt>
  <trkpt lat="32.541694" lon="-1.584135">
   <ele>1213.00</ele>
   <time>2014-04-04T11:54:56Z</time>
  </trkpt>
  <trkpt lat="32.541655" lon="-1.583811">
   <ele>1213.00</ele>
   <time>2014-04-04T11:54:59Z</time>
  </trkpt>
  <trkpt lat="32.541661" lon="-1.583495">
   <ele>1212.00</ele>
   <time>2014-04-04T11:55:02Z</time>
  </trkpt>
  <trkpt lat="32.541654" lon="-1.583272">
   <ele>1212.00</ele>
   <time>2014-04-04T11:55:04Z</time>
  </trkpt>
  <trkpt lat="32.541629" lon="-1.583042">
   <ele>1212.00</ele>
   <time>2014-04-04T11:55:06Z</time>
  </trkpt>
  <trkpt lat="32.541618" lon="-1.582803">
   <ele>1212.00</ele>
   <time>2014-04-04T11:55:08Z</time>
  </trkpt>
  <trkpt lat="32.541598" lon="-1.582331">
   <ele>1212.00</ele>
   <time>2014-04-04T11:55:12Z</time>
  </trkpt>
  <trkpt lat="32.541568" lon="-1.582107">
   <ele>1212.00</ele>
   <time>2014-04-04T11:55:14Z</time>
  </trkpt>
  <trkpt lat="32.541539" lon="-1.581883">
   <ele>1212.00</ele>
   <time>2014-04-04T11:55:16Z</time>
  </trkpt>
  <trkpt lat="32.541536" lon="-1.581664">
   <ele>1211.00</ele>
   <time>2014-04-04T11:55:18Z</time>
  </trkpt>
  <trkpt lat="32.541537" lon="-1.581447">
   <ele>1211.00</ele>
   <time>2014-04-04T11:55:20Z</time>
  </trkpt>
  <trkpt lat="32.541554" lon="-1.581145">
   <ele>1211.00</ele>
   <time>2014-04-04T11:55:23Z</time>
  </trkpt>
  <trkpt lat="32.541608" lon="-1.580909">
   <ele>1212.00</ele>
   <time>2014-04-04T11:55:26Z</time>
  </trkpt>
  <trkpt lat="32.541643" lon="-1.580677">
   <ele>1211.00</ele>
   <time>2014-04-04T11:55:30Z</time>
  </trkpt>
  <trkpt lat="32.541493" lon="-1.580559">
   <ele>1211.00</ele>
   <time>2014-04-04T11:55:37Z</time>
  </trkpt>
  <trkpt lat="32.541281" lon="-1.580495">
   <ele>1211.00</ele>
   <time>2014-04-04T11:55:42Z</time>
  </trkpt>
  <trkpt lat="32.540273" lon="-1.580142">
   <ele>1212.00</ele>
   <time>2014-04-04T11:55:58Z</time>
  </trkpt>
  <trkpt lat="32.539434" lon="-1.579845">
   <ele>1213.00</ele>
   <time>2014-04-04T11:56:09Z</time>
  </trkpt>
  <trkpt lat="32.539211" lon="-1.579728">
   <ele>1214.00</ele>
   <time>2014-04-04T11:56:12Z</time>
  </trkpt>
  <trkpt lat="32.539043" lon="-1.579649">
   <ele>1214.00</ele>
   <time>2014-04-04T11:56:14Z</time>
  </trkpt>
  <trkpt lat="32.538867" lon="-1.579600">
   <ele>1215.00</ele>
   <time>2014-04-04T11:56:16Z</time>
  </trkpt>
  <trkpt lat="32.538606" lon="-1.579574">
   <ele>1215.00</ele>
   <time>2014-04-04T11:56:19Z</time>
  </trkpt>
  <trkpt lat="32.538346" lon="-1.579522">
   <ele>1216.00</ele>
   <time>2014-04-04T11:56:22Z</time>
  </trkpt>
  <trkpt lat="32.538074" lon="-1.579392">
   <ele>1217.00</ele>
   <time>2014-04-04T11:56:25Z</time>
  </trkpt>
  <trkpt lat="32.537756" lon="-1.579270">
   <ele>1217.00</ele>
   <time>2014-04-04T11:56:28Z</time>
  </trkpt>
  <trkpt lat="32.537532" lon="-1.579164">
   <ele>1218.00</ele>
   <time>2014-04-04T11:56:30Z</time>
  </trkpt>
  <trkpt lat="32.537208" lon="-1.579004">
   <ele>1220.00</ele>
   <time>2014-04-04T11:56:33Z</time>
  </trkpt>
  <trkpt lat="32.537014" lon="-1.578869">
   <ele>1221.00</ele>
   <time>2014-04-04T11:56:35Z</time>
  </trkpt>
  <trkpt lat="32.536809" lon="-1.578740">
   <ele>1221.00</ele>
   <time>2014-04-04T11:56:37Z</time>
  </trkpt>
  <trkpt lat="32.536496" lon="-1.578550">
   <ele>1223.00</ele>
   <time>2014-04-04T11:56:40Z</time>
  </trkpt>
  <trkpt lat="32.536223" lon="-1.578355">
   <ele>1224.00</ele>
   <time>2014-04-04T11:56:43Z</time>
  </trkpt>
  <trkpt lat="32.535967" lon="-1.578160">
   <ele>1225.00</ele>
   <time>2014-04-04T11:56:46Z</time>
  </trkpt>
  <trkpt lat="32.535628" lon="-1.577947">
   <ele>1227.00</ele>
   <time>2014-04-04T11:56:50Z</time>
  </trkpt>
  <trkpt lat="32.535435" lon="-1.577784">
   <ele>1228.00</ele>
   <time>2014-04-04T11:56:53Z</time>
  </trkpt>
  <trkpt lat="32.535207" lon="-1.577721">
   <ele>1228.00</ele>
   <time>2014-04-04T11:56:56Z</time>
  </trkpt>
  <trkpt lat="32.534991" lon="-1.577747">
   <ele>1226.00</ele>
   <time>2014-04-04T11:56:59Z</time>
  </trkpt>
  <trkpt lat="32.534788" lon="-1.577835">
   <ele>1226.00</ele>
   <time>2014-04-04T11:57:02Z</time>
  </trkpt>
  <trkpt lat="32.534580" lon="-1.577929">
   <ele>1226.00</ele>
   <time>2014-04-04T11:57:05Z</time>
  </trkpt>
  <trkpt lat="32.534347" lon="-1.577975">
   <ele>1225.00</ele>
   <time>2014-04-04T11:57:08Z</time>
  </trkpt>
  <trkpt lat="32.534109" lon="-1.578080">
   <ele>1224.00</ele>
   <time>2014-04-04T11:57:11Z</time>
  </trkpt>
  <trkpt lat="32.533854" lon="-1.578197">
   <ele>1224.00</ele>
   <time>2014-04-04T11:57:14Z</time>
  </trkpt>
  <trkpt lat="32.533570" lon="-1.578299">
   <ele>1224.00</ele>
   <time>2014-04-04T11:57:17Z</time>
  </trkpt>
  <trkpt lat="32.533364" lon="-1.578350">
   <ele>1224.00</ele>
   <time>2014-04-04T11:57:19Z</time>
  </trkpt>
  <trkpt lat="32.533151" lon="-1.578383">
   <ele>1224.00</ele>
   <time>2014-04-04T11:57:21Z</time>
  </trkpt>
  <trkpt lat="32.532936" lon="-1.578424">
   <ele>1223.00</ele>
   <time>2014-04-04T11:57:23Z</time>
  </trkpt>
  <trkpt lat="32.532711" lon="-1.578492">
   <ele>1223.00</ele>
   <time>2014-04-04T11:57:25Z</time>
  </trkpt>
  <trkpt lat="32.530627" lon="-1.579185">
   <ele>1222.00</ele>
   <time>2014-04-04T11:57:41Z</time>
  </trkpt>
  <trkpt lat="32.530239" lon="-1.579284">
   <ele>1222.00</ele>
   <time>2014-04-04T11:57:44Z</time>
  </trkpt>
  <trkpt lat="32.529979" lon="-1.579316">
   <ele>1222.00</ele>
   <time>2014-04-04T11:57:46Z</time>
  </trkpt>
  <trkpt lat="32.529571" lon="-1.579349">
   <ele>1221.00</ele>
   <time>2014-04-04T11:57:49Z</time>
  </trkpt>
  <trkpt lat="32.528904" lon="-1.579428">
   <ele>1220.00</ele>
   <time>2014-04-04T11:57:54Z</time>
  </trkpt>
  <trkpt lat="32.528637" lon="-1.579433">
   <ele>1220.00</ele>
   <time>2014-04-04T11:57:56Z</time>
  </trkpt>
  <trkpt lat="32.528220" lon="-1.579422">
   <ele>1220.00</ele>
   <time>2014-04-04T11:57:59Z</time>
  </trkpt>
  <trkpt lat="32.527950" lon="-1.579399">
   <ele>1219.00</ele>
   <time>2014-04-04T11:58:01Z</time>
  </trkpt>
  <trkpt lat="32.527427" lon="-1.579339">
   <ele>1219.00</ele>
   <time>2014-04-04T11:58:05Z</time>
  </trkpt>
  <trkpt lat="32.526837" lon="-1.579292">
   <ele>1219.00</ele>
   <time>2014-04-04T11:58:10Z</time>
  </trkpt>
  <trkpt lat="32.526603" lon="-1.579243">
   <ele>1219.00</ele>
   <time>2014-04-04T11:58:12Z</time>
  </trkpt>
  <trkpt lat="32.526368" lon="-1.579181">
   <ele>1219.00</ele>
   <time>2014-04-04T11:58:14Z</time>
  </trkpt>
  <trkpt lat="32.526134" lon="-1.579104">
   <ele>1219.00</ele>
   <time>2014-04-04T11:58:16Z</time>
  </trkpt>
  <trkpt lat="32.525894" lon="-1.579031">
   <ele>1219.00</ele>
   <time>2014-04-04T11:58:18Z</time>
  </trkpt>
  <trkpt lat="32.525651" lon="-1.578993">
   <ele>1219.00</ele>
   <time>2014-04-04T11:58:20Z</time>
  </trkpt>
  <trkpt lat="32.525401" lon="-1.578996">
   <ele>1219.00</ele>
   <time>2014-04-04T11:58:22Z</time>
  </trkpt>
  <trkpt lat="32.525143" lon="-1.579033">
   <ele>1219.00</ele>
   <time>2014-04-04T11:58:24Z</time>
  </trkpt>
  <trkpt lat="32.524881" lon="-1.579087">
   <ele>1219.00</ele>
   <time>2014-04-04T11:58:26Z</time>
  </trkpt>
  <trkpt lat="32.524358" lon="-1.579210">
   <ele>1219.00</ele>
   <time>2014-04-04T11:58:30Z</time>
  </trkpt>
  <trkpt lat="32.524100" lon="-1.579252">
   <ele>1219.00</ele>
   <time>2014-04-04T11:58:32Z</time>
  </trkpt>
  <trkpt lat="32.523840" lon="-1.579292">
   <ele>1219.00</ele>
   <time>2014-04-04T11:58:34Z</time>
  </trkpt>
  <trkpt lat="32.523587" lon="-1.579358">
   <ele>1219.00</ele>
   <time>2014-04-04T11:58:36Z</time>
  </trkpt>
  <trkpt lat="32.523346" lon="-1.579449">
   <ele>1219.00</ele>
   <time>2014-04-04T11:58:38Z</time>
  </trkpt>
  <trkpt lat="32.522989" lon="-1.579587">
   <ele>1220.00</ele>
   <time>2014-04-04T11:58:41Z</time>
  </trkpt>
  <trkpt lat="32.522625" lon="-1.579711">
   <ele>1220.00</ele>
   <time>2014-04-04T11:58:44Z</time>
  </trkpt>
  <trkpt lat="32.521218" lon="-1.580257">
   <ele>1219.00</ele>
   <time>2014-04-04T11:59:00Z</time>
  </trkpt>
  <trkpt lat="32.521051" lon="-1.580337">
   <ele>1219.00</ele>
   <time>2014-04-04T11:59:03Z</time>
  </trkpt>
  <trkpt lat="32.520884" lon="-1.580429">
   <ele>1219.00</ele>
   <time>2014-04-04T11:59:07Z</time>
  </trkpt>
  <trkpt lat="32.520704" lon="-1.580528">
   <ele>1219.00</ele>
   <time>2014-04-04T11:59:13Z</time>
  </trkpt>
  <trkpt lat="32.520503" lon="-1.580615">
   <ele>1219.00</ele>
   <time>2014-04-04T11:59:17Z</time>
  </trkpt>
  <trkpt lat="32.520310" lon="-1.580673">
   <ele>1219.00</ele>
   <time>2014-04-04T11:59:20Z</time>
  </trkpt>
  <trkpt lat="32.520077" lon="-1.580757">
   <ele>1219.00</ele>
   <time>2014-04-04T11:59:23Z</time>
  </trkpt>
  <trkpt lat="32.519814" lon="-1.580849">
   <ele>1220.00</ele>
   <time>2014-04-04T11:59:26Z</time>
  </trkpt>
  <trkpt lat="32.517744" lon="-1.581405">
   <ele>1220.00</ele>
   <time>2014-04-04T11:59:43Z</time>
  </trkpt>
  <trkpt lat="32.517062" lon="-1.581586">
   <ele>1220.00</ele>
   <time>2014-04-04T11:59:48Z</time>
  </trkpt>
  <trkpt lat="32.515929" lon="-1.581799">
   <ele>1219.00</ele>
   <time>2014-04-04T11:59:56Z</time>
  </trkpt>
  <trkpt lat="32.514649" lon="-1.582035">
   <ele>1218.00</ele>
   <time>2014-04-04T12:00:06Z</time>
  </trkpt>
  <trkpt lat="32.513261" lon="-1.582358">
   <ele>1218.00</ele>
   <time>2014-04-04T12:00:19Z</time>
  </trkpt>
  <trkpt lat="32.512163" lon="-1.582634">
   <ele>1216.00</ele>
   <time>2014-04-04T12:00:35Z</time>
  </trkpt>
  <trkpt lat="32.511847" lon="-1.582720">
   <ele>1217.00</ele>
   <time>2014-04-04T12:00:42Z</time>
  </trkpt>
  <trkpt lat="32.511438" lon="-1.582852">
   <ele>1217.00</ele>
   <time>2014-04-04T12:00:50Z</time>
  </trkpt>
  <trkpt lat="32.510589" lon="-1.583068">
   <ele>1217.00</ele>
   <time>2014-04-04T12:01:00Z</time>
  </trkpt>
  <trkpt lat="32.510405" lon="-1.583108">
   <ele>1217.00</ele>
   <time>2014-04-04T12:01:02Z</time>
  </trkpt>
  <trkpt lat="32.509588" lon="-1.583299">
   <ele>1216.00</ele>
   <time>2014-04-04T12:01:11Z</time>
  </trkpt>
  <trkpt lat="32.508896" lon="-1.583477">
   <ele>1216.00</ele>
   <time>2014-04-04T12:01:18Z</time>
  </trkpt>
  <trkpt lat="32.508691" lon="-1.583518">
   <ele>1216.00</ele>
   <time>2014-04-04T12:01:20Z</time>
  </trkpt>
  <trkpt lat="32.508495" lon="-1.583544">
   <ele>1216.00</ele>
   <time>2014-04-04T12:01:22Z</time>
  </trkpt>
  <trkpt lat="32.508203" lon="-1.583579">
   <ele>1215.00</ele>
   <time>2014-04-04T12:01:25Z</time>
  </trkpt>
  <trkpt lat="32.507693" lon="-1.583658">
   <ele>1214.00</ele>
   <time>2014-04-04T12:01:30Z</time>
  </trkpt>
  <trkpt lat="32.507486" lon="-1.583677">
   <ele>1214.00</ele>
   <time>2014-04-04T12:01:32Z</time>
  </trkpt>
  <trkpt lat="32.507274" lon="-1.583741">
   <ele>1214.00</ele>
   <time>2014-04-04T12:01:34Z</time>
  </trkpt>
  <trkpt lat="32.506855" lon="-1.583882">
   <ele>1214.00</ele>
   <time>2014-04-04T12:01:38Z</time>
  </trkpt>
  <trkpt lat="32.506403" lon="-1.583996">
   <ele>1214.00</ele>
   <time>2014-04-04T12:01:42Z</time>
  </trkpt>
  <trkpt lat="32.506162" lon="-1.584082">
   <ele>1213.00</ele>
   <time>2014-04-04T12:01:44Z</time>
  </trkpt>
  <trkpt lat="32.505902" lon="-1.584160">
   <ele>1213.00</ele>
   <time>2014-04-04T12:01:46Z</time>
  </trkpt>
  <trkpt lat="32.505633" lon="-1.584203">
   <ele>1213.00</ele>
   <time>2014-04-04T12:01:48Z</time>
  </trkpt>
  <trkpt lat="32.505225" lon="-1.584270">
   <ele>1213.00</ele>
   <time>2014-04-04T12:01:51Z</time>
  </trkpt>
  <trkpt lat="32.504957" lon="-1.584345">
   <ele>1213.00</ele>
   <time>2014-04-04T12:01:53Z</time>
  </trkpt>
  <trkpt lat="32.504707" lon="-1.584430">
   <ele>1213.00</ele>
   <time>2014-04-04T12:01:55Z</time>
  </trkpt>
  <trkpt lat="32.504450" lon="-1.584476">
   <ele>1212.00</ele>
   <time>2014-04-04T12:01:57Z</time>
  </trkpt>
  <trkpt lat="32.504178" lon="-1.584488">
   <ele>1212.00</ele>
   <time>2014-04-04T12:01:59Z</time>
  </trkpt>
  <trkpt lat="32.503907" lon="-1.584510">
   <ele>1212.00</ele>
   <time>2014-04-04T12:02:01Z</time>
  </trkpt>
  <trkpt lat="32.503642" lon="-1.584573">
   <ele>1212.00</ele>
   <time>2014-04-04T12:02:03Z</time>
  </trkpt>
  <trkpt lat="32.503378" lon="-1.584655">
   <ele>1212.00</ele>
   <time>2014-04-04T12:02:05Z</time>
  </trkpt>
  <trkpt lat="32.502830" lon="-1.584823">
   <ele>1211.00</ele>
   <time>2014-04-04T12:02:09Z</time>
  </trkpt>
  <trkpt lat="32.502532" lon="-1.584896">
   <ele>1211.00</ele>
   <time>2014-04-04T12:02:11Z</time>
  </trkpt>
  <trkpt lat="32.501922" lon="-1.585007">
   <ele>1211.00</ele>
   <time>2014-04-04T12:02:15Z</time>
  </trkpt>
  <trkpt lat="32.500991" lon="-1.585111">
   <ele>1210.00</ele>
   <time>2014-04-04T12:02:21Z</time>
  </trkpt>
  <trkpt lat="32.500569" lon="-1.585134">
   <ele>1210.00</ele>
   <time>2014-04-04T12:02:24Z</time>
  </trkpt>
  <trkpt lat="32.500310" lon="-1.585129">
   <ele>1209.00</ele>
   <time>2014-04-04T12:02:26Z</time>
  </trkpt>
  <trkpt lat="32.499838" lon="-1.585118">
   <ele>1209.00</ele>
   <time>2014-04-04T12:02:30Z</time>
  </trkpt>
  <trkpt lat="32.499508" lon="-1.585114">
   <ele>1208.00</ele>
   <time>2014-04-04T12:02:33Z</time>
  </trkpt>
  <trkpt lat="32.499293" lon="-1.585110">
   <ele>1208.00</ele>
   <time>2014-04-04T12:02:35Z</time>
  </trkpt>
  <trkpt lat="32.499080" lon="-1.585124">
   <ele>1208.00</ele>
   <time>2014-04-04T12:02:37Z</time>
  </trkpt>
  <trkpt lat="32.498872" lon="-1.585159">
   <ele>1207.00</ele>
   <time>2014-04-04T12:02:39Z</time>
  </trkpt>
  <trkpt lat="32.498665" lon="-1.585211">
   <ele>1207.00</ele>
   <time>2014-04-04T12:02:41Z</time>
  </trkpt>
  <trkpt lat="32.498451" lon="-1.585266">
   <ele>1207.00</ele>
   <time>2014-04-04T12:02:43Z</time>
  </trkpt>
  <trkpt lat="32.498132" lon="-1.585336">
   <ele>1207.00</ele>
   <time>2014-04-04T12:02:46Z</time>
  </trkpt>
  <trkpt lat="32.497925" lon="-1.585419">
   <ele>1207.00</ele>
   <time>2014-04-04T12:02:48Z</time>
  </trkpt>
  <trkpt lat="32.497715" lon="-1.585505">
   <ele>1206.00</ele>
   <time>2014-04-04T12:02:50Z</time>
  </trkpt>
  <trkpt lat="32.497499" lon="-1.585574">
   <ele>1205.00</ele>
   <time>2014-04-04T12:02:52Z</time>
  </trkpt>
  <trkpt lat="32.497065" lon="-1.585686">
   <ele>1204.00</ele>
   <time>2014-04-04T12:02:56Z</time>
  </trkpt>
  <trkpt lat="32.496751" lon="-1.585748">
   <ele>1204.00</ele>
   <time>2014-04-04T12:02:59Z</time>
  </trkpt>
  <trkpt lat="32.496330" lon="-1.585824">
   <ele>1203.00</ele>
   <time>2014-04-04T12:03:03Z</time>
  </trkpt>
  <trkpt lat="32.496118" lon="-1.585887">
   <ele>1203.00</ele>
   <time>2014-04-04T12:03:05Z</time>
  </trkpt>
  <trkpt lat="32.495905" lon="-1.585946">
   <ele>1203.00</ele>
   <time>2014-04-04T12:03:07Z</time>
  </trkpt>
  <trkpt lat="32.495686" lon="-1.585989">
   <ele>1203.00</ele>
   <time>2014-04-04T12:03:09Z</time>
  </trkpt>
  <trkpt lat="32.495230" lon="-1.586069">
   <ele>1202.00</ele>
   <time>2014-04-04T12:03:13Z</time>
  </trkpt>
  <trkpt lat="32.494782" lon="-1.586185">
   <ele>1201.00</ele>
   <time>2014-04-04T12:03:17Z</time>
  </trkpt>
  <trkpt lat="32.494574" lon="-1.586276">
   <ele>1201.00</ele>
   <time>2014-04-04T12:03:19Z</time>
  </trkpt>
  <trkpt lat="32.494374" lon="-1.586368">
   <ele>1201.00</ele>
   <time>2014-04-04T12:03:21Z</time>
  </trkpt>
  <trkpt lat="32.494178" lon="-1.586436">
   <ele>1201.00</ele>
   <time>2014-04-04T12:03:23Z</time>
  </trkpt>
  <trkpt lat="32.493873" lon="-1.586531">
   <ele>1201.00</ele>
   <time>2014-04-04T12:03:26Z</time>
  </trkpt>
  <trkpt lat="32.493672" lon="-1.586638">
   <ele>1201.00</ele>
   <time>2014-04-04T12:03:28Z</time>
  </trkpt>
  <trkpt lat="32.493273" lon="-1.586880">
   <ele>1200.00</ele>
   <time>2014-04-04T12:03:32Z</time>
  </trkpt>
  <trkpt lat="32.492983" lon="-1.587081">
   <ele>1200.00</ele>
   <time>2014-04-04T12:03:35Z</time>
  </trkpt>
  <trkpt lat="32.492782" lon="-1.587195">
   <ele>1200.00</ele>
   <time>2014-04-04T12:03:37Z</time>
  </trkpt>
  <trkpt lat="32.492576" lon="-1.587291">
   <ele>1200.00</ele>
   <time>2014-04-04T12:03:39Z</time>
  </trkpt>
  <trkpt lat="32.492369" lon="-1.587371">
   <ele>1200.00</ele>
   <time>2014-04-04T12:03:41Z</time>
  </trkpt>
  <trkpt lat="32.492165" lon="-1.587455">
   <ele>1200.00</ele>
   <time>2014-04-04T12:03:43Z</time>
  </trkpt>
  <trkpt lat="32.491972" lon="-1.587557">
   <ele>1199.00</ele>
   <time>2014-04-04T12:03:45Z</time>
  </trkpt>
  <trkpt lat="32.491797" lon="-1.587694">
   <ele>1200.00</ele>
   <time>2014-04-04T12:03:47Z</time>
  </trkpt>
  <trkpt lat="32.491602" lon="-1.587815">
   <ele>1200.00</ele>
   <time>2014-04-04T12:03:49Z</time>
  </trkpt>
  <trkpt lat="32.491092" lon="-1.588104">
   <ele>1200.00</ele>
   <time>2014-04-04T12:03:54Z</time>
  </trkpt>
  <trkpt lat="32.490773" lon="-1.588271">
   <ele>1200.00</ele>
   <time>2014-04-04T12:03:57Z</time>
  </trkpt>
  <trkpt lat="32.490560" lon="-1.588409">
   <ele>1199.00</ele>
   <time>2014-04-04T12:03:59Z</time>
  </trkpt>
  <trkpt lat="32.489920" lon="-1.588886">
   <ele>1199.00</ele>
   <time>2014-04-04T12:04:05Z</time>
  </trkpt>
  <trkpt lat="32.489396" lon="-1.589313">
   <ele>1198.00</ele>
   <time>2014-04-04T12:04:10Z</time>
  </trkpt>
  <trkpt lat="32.488656" lon="-1.589881">
   <ele>1198.00</ele>
   <time>2014-04-04T12:04:17Z</time>
  </trkpt>
  <trkpt lat="32.488270" lon="-1.590180">
   <ele>1197.00</ele>
   <time>2014-04-04T12:04:21Z</time>
  </trkpt>
  <trkpt lat="32.487496" lon="-1.590752">
   <ele>1196.00</ele>
   <time>2014-04-04T12:04:29Z</time>
  </trkpt>
  <trkpt lat="32.487189" lon="-1.590947">
   <ele>1196.00</ele>
   <time>2014-04-04T12:04:32Z</time>
  </trkpt>
  <trkpt lat="32.486980" lon="-1.591067">
   <ele>1195.00</ele>
   <time>2014-04-04T12:04:34Z</time>
  </trkpt>
  <trkpt lat="32.486772" lon="-1.591173">
   <ele>1195.00</ele>
   <time>2014-04-04T12:04:36Z</time>
  </trkpt>
  <trkpt lat="32.486091" lon="-1.591509">
   <ele>1195.00</ele>
   <time>2014-04-04T12:04:43Z</time>
  </trkpt>
  <trkpt lat="32.485901" lon="-1.591610">
   <ele>1195.00</ele>
   <time>2014-04-04T12:04:45Z</time>
  </trkpt>
  <trkpt lat="32.485621" lon="-1.591744">
   <ele>1194.00</ele>
   <time>2014-04-04T12:04:48Z</time>
  </trkpt>
  <trkpt lat="32.485454" lon="-1.591850">
   <ele>1194.00</ele>
   <time>2014-04-04T12:04:50Z</time>
  </trkpt>
  <trkpt lat="32.485146" lon="-1.592073">
   <ele>1194.00</ele>
   <time>2014-04-04T12:04:54Z</time>
  </trkpt>
  <trkpt lat="32.484919" lon="-1.592186">
   <ele>1194.00</ele>
   <time>2014-04-04T12:04:57Z</time>
  </trkpt>
  <trkpt lat="32.484724" lon="-1.592303">
   <ele>1194.00</ele>
   <time>2014-04-04T12:05:01Z</time>
  </trkpt>
  <trkpt lat="32.484629" lon="-1.592153">
   <ele>1193.00</ele>
   <time>2014-04-04T12:05:10Z</time>
  </trkpt>
  <trkpt lat="32.484825" lon="-1.591640">
   <ele>1193.00</ele>
   <time>2014-04-04T12:05:17Z</time>
  </trkpt>
  <trkpt lat="32.484999" lon="-1.591073">
   <ele>1194.00</ele>
   <time>2014-04-04T12:05:22Z</time>
  </trkpt>
  <trkpt lat="32.485164" lon="-1.590434">
   <ele>1194.00</ele>
   <time>2014-04-04T12:05:26Z</time>
  </trkpt>
  <trkpt lat="32.485244" lon="-1.590072">
   <ele>1194.00</ele>
   <time>2014-04-04T12:05:28Z</time>
  </trkpt>
  <trkpt lat="32.485315" lon="-1.589695">
   <ele>1194.00</ele>
   <time>2014-04-04T12:05:30Z</time>
  </trkpt>
  <trkpt lat="32.485917" lon="-1.586158">
   <ele>1195.00</ele>
   <time>2014-04-04T12:05:46Z</time>
  </trkpt>
  <trkpt lat="32.486526" lon="-1.582633">
   <ele>1198.00</ele>
   <time>2014-04-04T12:06:01Z</time>
  </trkpt>
  <trkpt lat="32.487167" lon="-1.578843">
   <ele>1200.00</ele>
   <time>2014-04-04T12:06:16Z</time>
  </trkpt>
  <trkpt lat="32.487891" lon="-1.574619">
   <ele>1204.00</ele>
   <time>2014-04-04T12:06:32Z</time>
  </trkpt>
  <trkpt lat="32.488582" lon="-1.570618">
   <ele>1206.00</ele>
   <time>2014-04-04T12:06:47Z</time>
  </trkpt>
  <trkpt lat="32.488929" lon="-1.568449">
   <ele>1207.00</ele>
   <time>2014-04-04T12:06:55Z</time>
  </trkpt>
  <trkpt lat="32.488977" lon="-1.567912">
   <ele>1207.00</ele>
   <time>2014-04-04T12:06:57Z</time>
  </trkpt>
  <trkpt lat="32.488999" lon="-1.567374">
   <ele>1208.00</ele>
   <time>2014-04-04T12:06:59Z</time>
  </trkpt>
  <trkpt lat="32.488999" lon="-1.567105">
   <ele>1208.00</ele>
   <time>2014-04-04T12:07:00Z</time>
  </trkpt>
  <trkpt lat="32.488978" lon="-1.566569">
   <ele>1208.00</ele>
   <time>2014-04-04T12:07:02Z</time>
  </trkpt>
  <trkpt lat="32.488928" lon="-1.566033">
   <ele>1209.00</ele>
   <time>2014-04-04T12:07:04Z</time>
  </trkpt>
  <trkpt lat="32.488817" lon="-1.565230">
   <ele>1209.00</ele>
   <time>2014-04-04T12:07:07Z</time>
  </trkpt>
  <trkpt lat="32.488254" lon="-1.561397">
   <ele>1209.00</ele>
   <time>2014-04-04T12:07:22Z</time>
  </trkpt>
  <trkpt lat="32.487946" lon="-1.559154">
   <ele>1212.00</ele>
   <time>2014-04-04T12:07:31Z</time>
  </trkpt>
  <trkpt lat="32.487927" lon="-1.558915">
   <ele>1212.00</ele>
   <time>2014-04-04T12:07:32Z</time>
  </trkpt>
  <trkpt lat="32.487916" lon="-1.558677">
   <ele>1212.00</ele>
   <time>2014-04-04T12:07:33Z</time>
  </trkpt>
  <trkpt lat="32.487913" lon="-1.558440">
   <ele>1212.00</ele>
   <time>2014-04-04T12:07:34Z</time>
  </trkpt>
  <trkpt lat="32.487919" lon="-1.558203">
   <ele>1212.00</ele>
   <time>2014-04-04T12:07:35Z</time>
  </trkpt>
  <trkpt lat="32.487935" lon="-1.557968">
   <ele>1212.00</ele>
   <time>2014-04-04T12:07:36Z</time>
  </trkpt>
  <trkpt lat="32.487962" lon="-1.557733">
   <ele>1211.00</ele>
   <time>2014-04-04T12:07:37Z</time>
  </trkpt>
  <trkpt lat="32.487999" lon="-1.557498">
   <ele>1211.00</ele>
   <time>2014-04-04T12:07:38Z</time>
  </trkpt>
  <trkpt lat="32.488044" lon="-1.557264">
   <ele>1211.00</ele>
   <time>2014-04-04T12:07:39Z</time>
  </trkpt>
  <trkpt lat="32.488097" lon="-1.557031">
   <ele>1211.00</ele>
   <time>2014-04-04T12:07:40Z</time>
  </trkpt>
  <trkpt lat="32.488220" lon="-1.556569">
   <ele>1211.00</ele>
   <time>2014-04-04T12:07:42Z</time>
  </trkpt>
  <trkpt lat="32.489270" lon="-1.553091">
   <ele>1212.00</ele>
   <time>2014-04-04T12:07:57Z</time>
  </trkpt>
  <trkpt lat="32.490310" lon="-1.549631">
   <ele>1213.00</ele>
   <time>2014-04-04T12:08:12Z</time>
  </trkpt>
  <trkpt lat="32.491318" lon="-1.546135">
   <ele>1212.00</ele>
   <time>2014-04-04T12:08:27Z</time>
  </trkpt>
  <trkpt lat="32.492383" lon="-1.542252">
   <ele>1211.00</ele>
   <time>2014-04-04T12:08:43Z</time>
  </trkpt>
  <trkpt lat="32.492992" lon="-1.540044">
   <ele>1213.00</ele>
   <time>2014-04-04T12:08:52Z</time>
  </trkpt>
  <trkpt lat="32.494591" lon="-1.534252">
   <ele>1215.00</ele>
   <time>2014-04-04T12:09:16Z</time>
  </trkpt>
  <trkpt lat="32.495598" lon="-1.530575">
   <ele>1220.00</ele>
   <time>2014-04-04T12:09:31Z</time>
  </trkpt>
  <trkpt lat="32.496630" lon="-1.526841">
   <ele>1221.00</ele>
   <time>2014-04-04T12:09:46Z</time>
  </trkpt>
  <trkpt lat="32.497725" lon="-1.522900">
   <ele>1223.00</ele>
   <time>2014-04-04T12:10:02Z</time>
  </trkpt>
  <trkpt lat="32.498223" lon="-1.521430">
   <ele>1223.00</ele>
   <time>2014-04-04T12:10:08Z</time>
  </trkpt>
  <trkpt lat="32.499487" lon="-1.517704">
   <ele>1219.00</ele>
   <time>2014-04-04T12:10:23Z</time>
  </trkpt>
  <trkpt lat="32.500803" lon="-1.513845">
   <ele>1223.00</ele>
   <time>2014-04-04T12:10:39Z</time>
  </trkpt>
  <trkpt lat="32.502029" lon="-1.510213">
   <ele>1225.00</ele>
   <time>2014-04-04T12:10:54Z</time>
  </trkpt>
  <trkpt lat="32.503276" lon="-1.506569">
   <ele>1227.00</ele>
   <time>2014-04-04T12:11:09Z</time>
  </trkpt>
  <trkpt lat="32.504591" lon="-1.502705">
   <ele>1229.00</ele>
   <time>2014-04-04T12:11:25Z</time>
  </trkpt>
  <trkpt lat="32.505748" lon="-1.499298">
   <ele>1229.00</ele>
   <time>2014-04-04T12:11:40Z</time>
  </trkpt>
  <trkpt lat="32.506922" lon="-1.495833">
   <ele>1228.00</ele>
   <time>2014-04-04T12:11:55Z</time>
  </trkpt>
  <trkpt lat="32.508239" lon="-1.491966">
   <ele>1231.00</ele>
   <time>2014-04-04T12:12:11Z</time>
  </trkpt>
  <trkpt lat="32.508500" lon="-1.491313">
   <ele>1230.00</ele>
   <time>2014-04-04T12:12:14Z</time>
  </trkpt>
  <trkpt lat="32.508685" lon="-1.490910">
   <ele>1229.00</ele>
   <time>2014-04-04T12:12:16Z</time>
  </trkpt>
  <trkpt lat="32.508876" lon="-1.490536">
   <ele>1228.00</ele>
   <time>2014-04-04T12:12:18Z</time>
  </trkpt>
  <trkpt lat="32.509073" lon="-1.490195">
   <ele>1228.00</ele>
   <time>2014-04-04T12:12:20Z</time>
  </trkpt>
  <trkpt lat="32.509457" lon="-1.489588">
   <ele>1227.00</ele>
   <time>2014-04-04T12:12:24Z</time>
  </trkpt>
  <trkpt lat="32.509637" lon="-1.489331">
   <ele>1228.00</ele>
   <time>2014-04-04T12:12:26Z</time>
  </trkpt>
  <trkpt lat="32.509787" lon="-1.489156">
   <ele>1228.00</ele>
   <time>2014-04-04T12:12:28Z</time>
  </trkpt>
  <trkpt lat="32.509942" lon="-1.489021">
   <ele>1227.00</ele>
   <time>2014-04-04T12:12:31Z</time>
  </trkpt>
  <trkpt lat="32.510035" lon="-1.488959">
   <ele>1226.00</ele>
   <time>2014-04-04T12:12:47Z</time>
  </trkpt>
  <trkpt lat="32.510027" lon="-1.488974">
   <ele>1227.00</ele>
   <time>2014-04-04T12:12:59Z</time>
  </trkpt>
  <trkpt lat="32.510022" lon="-1.488981">
   <ele>1227.00</ele>
   <time>2014-04-04T12:13:19Z</time>
  </trkpt>
  <trkpt lat="32.510027" lon="-1.488973">
   <ele>1227.00</ele>
   <time>2014-04-04T12:13:34Z</time>
  </trkpt>
  <trkpt lat="32.510145" lon="-1.488811">
   <ele>1227.00</ele>
   <time>2014-04-04T12:13:39Z</time>
  </trkpt>
  <trkpt lat="32.510285" lon="-1.488589">
   <ele>1227.00</ele>
   <time>2014-04-04T12:13:42Z</time>
  </trkpt>
  <trkpt lat="32.510427" lon="-1.488409">
   <ele>1227.00</ele>
   <time>2014-04-04T12:13:44Z</time>
  </trkpt>
  <trkpt lat="32.510612" lon="-1.488206">
   <ele>1227.00</ele>
   <time>2014-04-04T12:13:46Z</time>
  </trkpt>
  <trkpt lat="32.512576" lon="-1.486072">
   <ele>1229.00</ele>
   <time>2014-04-04T12:14:01Z</time>
  </trkpt>
  <trkpt lat="32.514844" lon="-1.483592">
   <ele>1230.00</ele>
   <time>2014-04-04T12:14:16Z</time>
  </trkpt>
  <trkpt lat="32.516887" lon="-1.481360">
   <ele>1232.00</ele>
   <time>2014-04-04T12:14:29Z</time>
  </trkpt>
  <trkpt lat="32.519241" lon="-1.478760">
   <ele>1233.00</ele>
   <time>2014-04-04T12:14:44Z</time>
  </trkpt>
  <trkpt lat="32.519539" lon="-1.478390">
   <ele>1233.00</ele>
   <time>2014-04-04T12:14:46Z</time>
  </trkpt>
  <trkpt lat="32.519679" lon="-1.478199">
   <ele>1233.00</ele>
   <time>2014-04-04T12:14:47Z</time>
  </trkpt>
  <trkpt lat="32.519942" lon="-1.477802">
   <ele>1232.00</ele>
   <time>2014-04-04T12:14:49Z</time>
  </trkpt>
  <trkpt lat="32.520186" lon="-1.477388">
   <ele>1232.00</ele>
   <time>2014-04-04T12:14:51Z</time>
  </trkpt>
  <trkpt lat="32.521922" lon="-1.474193">
   <ele>1233.00</ele>
   <time>2014-04-04T12:15:06Z</time>
  </trkpt>
  <trkpt lat="32.523724" lon="-1.470901">
   <ele>1225.00</ele>
   <time>2014-04-04T12:15:22Z</time>
  </trkpt>
  <trkpt lat="32.523953" lon="-1.470431">
   <ele>1224.00</ele>
   <time>2014-04-04T12:15:24Z</time>
  </trkpt>
  <trkpt lat="32.524163" lon="-1.469938">
   <ele>1223.00</ele>
   <time>2014-04-04T12:15:26Z</time>
  </trkpt>
  <trkpt lat="32.525695" lon="-1.466079">
   <ele>1213.00</ele>
   <time>2014-04-04T12:15:41Z</time>
  </trkpt>
  <trkpt lat="32.527245" lon="-1.462078">
   <ele>1204.00</ele>
   <time>2014-04-04T12:15:57Z</time>
  </trkpt>
  <trkpt lat="32.527992" lon="-1.460248">
   <ele>1204.00</ele>
   <time>2014-04-04T12:16:05Z</time>
  </trkpt>
  <trkpt lat="32.528095" lon="-1.460035">
   <ele>1204.00</ele>
   <time>2014-04-04T12:16:06Z</time>
  </trkpt>
  <trkpt lat="32.528206" lon="-1.459829">
   <ele>1205.00</ele>
   <time>2014-04-04T12:16:07Z</time>
  </trkpt>
  <trkpt lat="32.528323" lon="-1.459630">
   <ele>1205.00</ele>
   <time>2014-04-04T12:16:08Z</time>
  </trkpt>
  <trkpt lat="32.528448" lon="-1.459437">
   <ele>1205.00</ele>
   <time>2014-04-04T12:16:09Z</time>
  </trkpt>
  <trkpt lat="32.528719" lon="-1.459065">
   <ele>1207.00</ele>
   <time>2014-04-04T12:16:11Z</time>
  </trkpt>
  <trkpt lat="32.530910" lon="-1.456224">
   <ele>1221.00</ele>
   <time>2014-04-04T12:16:27Z</time>
  </trkpt>
  <trkpt lat="32.531628" lon="-1.455324">
   <ele>1221.00</ele>
   <time>2014-04-04T12:16:32Z</time>
  </trkpt>
  <trkpt lat="32.532089" lon="-1.454812">
   <ele>1221.00</ele>
   <time>2014-04-04T12:16:35Z</time>
  </trkpt>
  <trkpt lat="32.534634" lon="-1.452153">
   <ele>1221.00</ele>
   <time>2014-04-04T12:16:51Z</time>
  </trkpt>
  <trkpt lat="32.537041" lon="-1.449621">
   <ele>1221.00</ele>
   <time>2014-04-04T12:17:06Z</time>
  </trkpt>
  <trkpt lat="32.539480" lon="-1.447051">
   <ele>1223.00</ele>
   <time>2014-04-04T12:17:21Z</time>
  </trkpt>
  <trkpt lat="32.542155" lon="-1.444233">
   <ele>1228.00</ele>
   <time>2014-04-04T12:17:37Z</time>
  </trkpt>
  <trkpt lat="32.544631" lon="-1.441645">
   <ele>1231.00</ele>
   <time>2014-04-04T12:17:52Z</time>
  </trkpt>
  <trkpt lat="32.547128" lon="-1.439018">
   <ele>1236.00</ele>
   <time>2014-04-04T12:18:07Z</time>
  </trkpt>
  <trkpt lat="32.549780" lon="-1.436227">
   <ele>1238.00</ele>
   <time>2014-04-04T12:18:23Z</time>
  </trkpt>
  <trkpt lat="32.551913" lon="-1.433918">
   <ele>1241.00</ele>
   <time>2014-04-04T12:18:36Z</time>
  </trkpt>
  <trkpt lat="32.554282" lon="-1.431159">
   <ele>1243.00</ele>
   <time>2014-04-04T12:18:51Z</time>
  </trkpt>
  <trkpt lat="32.556779" lon="-1.428259">
   <ele>1248.00</ele>
   <time>2014-04-04T12:19:07Z</time>
  </trkpt>
  <trkpt lat="32.559055" lon="-1.425610">
   <ele>1251.00</ele>
   <time>2014-04-04T12:19:22Z</time>
  </trkpt>
  <trkpt lat="32.561374" lon="-1.422928">
   <ele>1254.00</ele>
   <time>2014-04-04T12:19:37Z</time>
  </trkpt>
  <trkpt lat="32.561823" lon="-1.422376">
   <ele>1254.00</ele>
   <time>2014-04-04T12:19:40Z</time>
  </trkpt>
  <trkpt lat="32.562092" lon="-1.422002">
   <ele>1253.00</ele>
   <time>2014-04-04T12:19:42Z</time>
  </trkpt>
  <trkpt lat="32.562575" lon="-1.421274">
   <ele>1252.00</ele>
   <time>2014-04-04T12:19:46Z</time>
  </trkpt>
  <trkpt lat="32.562677" lon="-1.421090">
   <ele>1252.00</ele>
   <time>2014-04-04T12:19:47Z</time>
  </trkpt>
  <trkpt lat="32.562770" lon="-1.420902">
   <ele>1252.00</ele>
   <time>2014-04-04T12:19:48Z</time>
  </trkpt>
  <trkpt lat="32.562856" lon="-1.420710">
   <ele>1251.00</ele>
   <time>2014-04-04T12:19:49Z</time>
  </trkpt>
  <trkpt lat="32.563016" lon="-1.420306">
   <ele>1250.00</ele>
   <time>2014-04-04T12:19:51Z</time>
  </trkpt>
  <trkpt lat="32.563157" lon="-1.419876">
   <ele>1248.00</ele>
   <time>2014-04-04T12:19:53Z</time>
  </trkpt>
  <trkpt lat="32.563219" lon="-1.419650">
   <ele>1247.00</ele>
   <time>2014-04-04T12:19:54Z</time>
  </trkpt>
  <trkpt lat="32.563274" lon="-1.419419">
   <ele>1246.00</ele>
   <time>2014-04-04T12:19:55Z</time>
  </trkpt>
  <trkpt lat="32.563323" lon="-1.419183">
   <ele>1245.00</ele>
   <time>2014-04-04T12:19:56Z</time>
  </trkpt>
  <trkpt lat="32.563445" lon="-1.418467">
   <ele>1242.00</ele>
   <time>2014-04-04T12:19:59Z</time>
  </trkpt>
  <trkpt lat="32.563922" lon="-1.415463">
   <ele>1237.00</ele>
   <time>2014-04-04T12:20:12Z</time>
  </trkpt>
  <trkpt lat="32.563940" lon="-1.415246">
   <ele>1237.00</ele>
   <time>2014-04-04T12:20:13Z</time>
  </trkpt>
  <trkpt lat="32.563945" lon="-1.415027">
   <ele>1236.00</ele>
   <time>2014-04-04T12:20:14Z</time>
  </trkpt>
  <trkpt lat="32.563938" lon="-1.414806">
   <ele>1236.00</ele>
   <time>2014-04-04T12:20:15Z</time>
  </trkpt>
  <trkpt lat="32.563922" lon="-1.414586">
   <ele>1236.00</ele>
   <time>2014-04-04T12:20:16Z</time>
  </trkpt>
  <trkpt lat="32.563615" lon="-1.411327">
   <ele>1238.00</ele>
   <time>2014-04-04T12:20:31Z</time>
  </trkpt>
  <trkpt lat="32.563476" lon="-1.409942">
   <ele>1239.00</ele>
   <time>2014-04-04T12:20:37Z</time>
  </trkpt>
  <trkpt lat="32.563433" lon="-1.409712">
   <ele>1240.00</ele>
   <time>2014-04-04T12:20:38Z</time>
  </trkpt>
  <trkpt lat="32.563378" lon="-1.409484">
   <ele>1240.00</ele>
   <time>2014-04-04T12:20:39Z</time>
  </trkpt>
  <trkpt lat="32.563248" lon="-1.409032">
   <ele>1241.00</ele>
   <time>2014-04-04T12:20:41Z</time>
  </trkpt>
  <trkpt lat="32.562117" lon="-1.405473">
   <ele>1250.00</ele>
   <time>2014-04-04T12:20:57Z</time>
  </trkpt>
  <trkpt lat="32.561036" lon="-1.402027">
   <ele>1253.00</ele>
   <time>2014-04-04T12:21:12Z</time>
  </trkpt>
  <trkpt lat="32.559942" lon="-1.398494">
   <ele>1248.00</ele>
   <time>2014-04-04T12:21:27Z</time>
  </trkpt>
  <trkpt lat="32.558693" lon="-1.394452">
   <ele>1237.00</ele>
   <time>2014-04-04T12:21:43Z</time>
  </trkpt>
  <trkpt lat="32.557574" lon="-1.390838">
   <ele>1235.00</ele>
   <time>2014-04-04T12:21:58Z</time>
  </trkpt>
  <trkpt lat="32.556495" lon="-1.387368">
   <ele>1232.00</ele>
   <time>2014-04-04T12:22:13Z</time>
  </trkpt>
  <trkpt lat="32.556230" lon="-1.386486">
   <ele>1230.00</ele>
   <time>2014-04-04T12:22:17Z</time>
  </trkpt>
  <trkpt lat="32.556180" lon="-1.386264">
   <ele>1230.00</ele>
   <time>2014-04-04T12:22:18Z</time>
  </trkpt>
  <trkpt lat="32.556143" lon="-1.386040">
   <ele>1230.00</ele>
   <time>2014-04-04T12:22:19Z</time>
  </trkpt>
  <trkpt lat="32.556118" lon="-1.385815">
   <ele>1230.00</ele>
   <time>2014-04-04T12:22:20Z</time>
  </trkpt>
  <trkpt lat="32.556108" lon="-1.385590">
   <ele>1230.00</ele>
   <time>2014-04-04T12:22:21Z</time>
  </trkpt>
  <trkpt lat="32.556112" lon="-1.385366">
   <ele>1230.00</ele>
   <time>2014-04-04T12:22:22Z</time>
  </trkpt>
  <trkpt lat="32.556130" lon="-1.385144">
   <ele>1230.00</ele>
   <time>2014-04-04T12:22:23Z</time>
  </trkpt>
  <trkpt lat="32.556157" lon="-1.384923">
   <ele>1230.00</ele>
   <time>2014-04-04T12:22:24Z</time>
  </trkpt>
  <trkpt lat="32.556618" lon="-1.381718">
   <ele>1230.00</ele>
   <time>2014-04-04T12:22:40Z</time>
  </trkpt>
  <trkpt lat="32.557084" lon="-1.378491">
   <ele>1229.00</ele>
   <time>2014-04-04T12:22:55Z</time>
  </trkpt>
  <trkpt lat="32.557225" lon="-1.377411">
   <ele>1231.00</ele>
   <time>2014-04-04T12:23:00Z</time>
  </trkpt>
  <trkpt lat="32.557253" lon="-1.376985">
   <ele>1232.00</ele>
   <time>2014-04-04T12:23:02Z</time>
  </trkpt>
  <trkpt lat="32.557248" lon="-1.376560">
   <ele>1233.00</ele>
   <time>2014-04-04T12:23:04Z</time>
  </trkpt>
  <trkpt lat="32.557210" lon="-1.376139">
   <ele>1233.00</ele>
   <time>2014-04-04T12:23:06Z</time>
  </trkpt>
  <trkpt lat="32.557144" lon="-1.375721">
   <ele>1233.00</ele>
   <time>2014-04-04T12:23:08Z</time>
  </trkpt>
  <trkpt lat="32.557102" lon="-1.375513">
   <ele>1233.00</ele>
   <time>2014-04-04T12:23:09Z</time>
  </trkpt>
  <trkpt lat="32.557002" lon="-1.375096">
   <ele>1233.00</ele>
   <time>2014-04-04T12:23:11Z</time>
  </trkpt>
  <trkpt lat="32.556234" lon="-1.372266">
   <ele>1227.00</ele>
   <time>2014-04-04T12:23:26Z</time>
  </trkpt>
  <trkpt lat="32.555850" lon="-1.370822">
   <ele>1227.00</ele>
   <time>2014-04-04T12:23:37Z</time>
  </trkpt>
  <trkpt lat="32.555662" lon="-1.370074">
   <ele>1226.00</ele>
   <time>2014-04-04T12:23:42Z</time>
  </trkpt>
  <trkpt lat="32.554959" lon="-1.367392">
   <ele>1224.00</ele>
   <time>2014-04-04T12:23:57Z</time>
  </trkpt>
  <trkpt lat="32.554272" lon="-1.364793">
   <ele>1220.00</ele>
   <time>2014-04-04T12:24:11Z</time>
  </trkpt>
  <trkpt lat="32.554206" lon="-1.364415">
   <ele>1221.00</ele>
   <time>2014-04-04T12:24:13Z</time>
  </trkpt>
  <trkpt lat="32.554178" lon="-1.364033">
   <ele>1222.00</ele>
   <time>2014-04-04T12:24:15Z</time>
  </trkpt>
  <trkpt lat="32.554187" lon="-1.363658">
   <ele>1222.00</ele>
   <time>2014-04-04T12:24:17Z</time>
  </trkpt>
  <trkpt lat="32.554235" lon="-1.363285">
   <ele>1223.00</ele>
   <time>2014-04-04T12:24:19Z</time>
  </trkpt>
  <trkpt lat="32.554325" lon="-1.362917">
   <ele>1224.00</ele>
   <time>2014-04-04T12:24:21Z</time>
  </trkpt>
  <trkpt lat="32.554452" lon="-1.362557">
   <ele>1224.00</ele>
   <time>2014-04-04T12:24:23Z</time>
  </trkpt>
  <trkpt lat="32.554611" lon="-1.362217">
   <ele>1223.00</ele>
   <time>2014-04-04T12:24:25Z</time>
  </trkpt>
  <trkpt lat="32.554811" lon="-1.361901">
   <ele>1223.00</ele>
   <time>2014-04-04T12:24:27Z</time>
  </trkpt>
  <trkpt lat="32.555046" lon="-1.361609">
   <ele>1223.00</ele>
   <time>2014-04-04T12:24:29Z</time>
  </trkpt>
  <trkpt lat="32.556965" lon="-1.359344">
   <ele>1223.00</ele>
   <time>2014-04-04T12:24:44Z</time>
  </trkpt>
  <trkpt lat="32.559037" lon="-1.356869">
   <ele>1223.00</ele>
   <time>2014-04-04T12:25:00Z</time>
  </trkpt>
  <trkpt lat="32.560584" lon="-1.354984">
   <ele>1222.00</ele>
   <time>2014-04-04T12:25:12Z</time>
  </trkpt>
  <trkpt lat="32.560833" lon="-1.354650">
   <ele>1222.00</ele>
   <time>2014-04-04T12:25:14Z</time>
  </trkpt>
  <trkpt lat="32.561318" lon="-1.353941">
   <ele>1223.00</ele>
   <time>2014-04-04T12:25:18Z</time>
  </trkpt>
  <trkpt lat="32.563261" lon="-1.351032">
   <ele>1232.00</ele>
   <time>2014-04-04T12:25:34Z</time>
  </trkpt>
  <trkpt lat="32.565230" lon="-1.348067">
   <ele>1242.00</ele>
   <time>2014-04-04T12:25:50Z</time>
  </trkpt>
  <trkpt lat="32.567095" lon="-1.345250">
   <ele>1248.00</ele>
   <time>2014-04-04T12:26:05Z</time>
  </trkpt>
  <trkpt lat="32.568589" lon="-1.342984">
   <ele>1250.00</ele>
   <time>2014-04-04T12:26:17Z</time>
  </trkpt>
  <trkpt lat="32.568703" lon="-1.342790">
   <ele>1250.00</ele>
   <time>2014-04-04T12:26:18Z</time>
  </trkpt>
  <trkpt lat="32.568810" lon="-1.342590">
   <ele>1250.00</ele>
   <time>2014-04-04T12:26:19Z</time>
  </trkpt>
  <trkpt lat="32.568909" lon="-1.342385">
   <ele>1250.00</ele>
   <time>2014-04-04T12:26:20Z</time>
  </trkpt>
  <trkpt lat="32.569001" lon="-1.342175">
   <ele>1251.00</ele>
   <time>2014-04-04T12:26:21Z</time>
  </trkpt>
  <trkpt lat="32.569086" lon="-1.341963">
   <ele>1251.00</ele>
   <time>2014-04-04T12:26:22Z</time>
  </trkpt>
  <trkpt lat="32.569161" lon="-1.341746">
   <ele>1251.00</ele>
   <time>2014-04-04T12:26:23Z</time>
  </trkpt>
  <trkpt lat="32.569226" lon="-1.341526">
   <ele>1251.00</ele>
   <time>2014-04-04T12:26:24Z</time>
  </trkpt>
  <trkpt lat="32.569282" lon="-1.341301">
   <ele>1252.00</ele>
   <time>2014-04-04T12:26:25Z</time>
  </trkpt>
  <trkpt lat="32.569329" lon="-1.341074">
   <ele>1252.00</ele>
   <time>2014-04-04T12:26:26Z</time>
  </trkpt>
  <trkpt lat="32.569403" lon="-1.340616">
   <ele>1253.00</ele>
   <time>2014-04-04T12:26:28Z</time>
  </trkpt>
  <trkpt lat="32.569429" lon="-1.340384">
   <ele>1253.00</ele>
   <time>2014-04-04T12:26:29Z</time>
  </trkpt>
  <trkpt lat="32.569445" lon="-1.340151">
   <ele>1253.00</ele>
   <time>2014-04-04T12:26:30Z</time>
  </trkpt>
  <trkpt lat="32.569453" lon="-1.339917">
   <ele>1254.00</ele>
   <time>2014-04-04T12:26:31Z</time>
  </trkpt>
  <trkpt lat="32.569451" lon="-1.339683">
   <ele>1255.00</ele>
   <time>2014-04-04T12:26:32Z</time>
  </trkpt>
  <trkpt lat="32.569437" lon="-1.339449">
   <ele>1255.00</ele>
   <time>2014-04-04T12:26:33Z</time>
  </trkpt>
  <trkpt lat="32.569387" lon="-1.338982">
   <ele>1257.00</ele>
   <time>2014-04-04T12:26:35Z</time>
  </trkpt>
  <trkpt lat="32.568913" lon="-1.335154">
   <ele>1266.00</ele>
   <time>2014-04-04T12:26:51Z</time>
  </trkpt>
  <trkpt lat="32.568827" lon="-1.334263">
   <ele>1268.00</ele>
   <time>2014-04-04T12:26:55Z</time>
  </trkpt>
  <trkpt lat="32.568842" lon="-1.333857">
   <ele>1270.00</ele>
   <time>2014-04-04T12:26:57Z</time>
  </trkpt>
  <trkpt lat="32.568913" lon="-1.333463">
   <ele>1271.00</ele>
   <time>2014-04-04T12:26:59Z</time>
  </trkpt>
  <trkpt lat="32.569018" lon="-1.333072">
   <ele>1272.00</ele>
   <time>2014-04-04T12:27:01Z</time>
  </trkpt>
  <trkpt lat="32.569328" lon="-1.332078">
   <ele>1275.00</ele>
   <time>2014-04-04T12:27:06Z</time>
  </trkpt>
  <trkpt lat="32.570091" lon="-1.329682">
   <ele>1277.00</ele>
   <time>2014-04-04T12:27:18Z</time>
  </trkpt>
  <trkpt lat="32.570187" lon="-1.329277">
   <ele>1277.00</ele>
   <time>2014-04-04T12:27:20Z</time>
  </trkpt>
  <trkpt lat="32.570247" lon="-1.328854">
   <ele>1277.00</ele>
   <time>2014-04-04T12:27:22Z</time>
  </trkpt>
  <trkpt lat="32.570284" lon="-1.328418">
   <ele>1277.00</ele>
   <time>2014-04-04T12:27:24Z</time>
  </trkpt>
  <trkpt lat="32.570505" lon="-1.325133">
   <ele>1283.00</ele>
   <time>2014-04-04T12:27:39Z</time>
  </trkpt>
  <trkpt lat="32.570560" lon="-1.324034">
   <ele>1285.00</ele>
   <time>2014-04-04T12:27:44Z</time>
  </trkpt>
  <trkpt lat="32.570559" lon="-1.323599">
   <ele>1286.00</ele>
   <time>2014-04-04T12:27:46Z</time>
  </trkpt>
  <trkpt lat="32.570548" lon="-1.323382">
   <ele>1287.00</ele>
   <time>2014-04-04T12:27:47Z</time>
  </trkpt>
  <trkpt lat="32.570490" lon="-1.322731">
   <ele>1288.00</ele>
   <time>2014-04-04T12:27:50Z</time>
  </trkpt>
  <trkpt lat="32.570190" lon="-1.319881">
   <ele>1295.00</ele>
   <time>2014-04-04T12:28:03Z</time>
  </trkpt>
  <trkpt lat="32.569957" lon="-1.316520">
   <ele>1299.00</ele>
   <time>2014-04-04T12:28:18Z</time>
  </trkpt>
  <trkpt lat="32.569923" lon="-1.316306">
   <ele>1300.00</ele>
   <time>2014-04-04T12:28:19Z</time>
  </trkpt>
  <trkpt lat="32.569876" lon="-1.316098">
   <ele>1299.00</ele>
   <time>2014-04-04T12:28:20Z</time>
  </trkpt>
  <trkpt lat="32.569816" lon="-1.315895">
   <ele>1300.00</ele>
   <time>2014-04-04T12:28:21Z</time>
  </trkpt>
  <trkpt lat="32.569743" lon="-1.315695">
   <ele>1300.00</ele>
   <time>2014-04-04T12:28:22Z</time>
  </trkpt>
  <trkpt lat="32.569658" lon="-1.315500">
   <ele>1300.00</ele>
   <time>2014-04-04T12:28:23Z</time>
  </trkpt>
  <trkpt lat="32.569562" lon="-1.315311">
   <ele>1300.00</ele>
   <time>2014-04-04T12:28:24Z</time>
  </trkpt>
  <trkpt lat="32.569456" lon="-1.315128">
   <ele>1301.00</ele>
   <time>2014-04-04T12:28:25Z</time>
  </trkpt>
  <trkpt lat="32.569344" lon="-1.314950">
   <ele>1302.00</ele>
   <time>2014-04-04T12:28:26Z</time>
  </trkpt>
  <trkpt lat="32.567484" lon="-1.312128">
   <ele>1293.00</ele>
   <time>2014-04-04T12:28:42Z</time>
  </trkpt>
  <trkpt lat="32.566308" lon="-1.310295">
   <ele>1287.00</ele>
   <time>2014-04-04T12:28:52Z</time>
  </trkpt>
  <trkpt lat="32.566214" lon="-1.310103">
   <ele>1287.00</ele>
   <time>2014-04-04T12:28:53Z</time>
  </trkpt>
  <trkpt lat="32.566131" lon="-1.309908">
   <ele>1286.00</ele>
   <time>2014-04-04T12:28:54Z</time>
  </trkpt>
  <trkpt lat="32.565992" lon="-1.309524">
   <ele>1284.00</ele>
   <time>2014-04-04T12:28:56Z</time>
  </trkpt>
  <trkpt lat="32.565896" lon="-1.309132">
   <ele>1282.00</ele>
   <time>2014-04-04T12:28:58Z</time>
  </trkpt>
  <trkpt lat="32.565846" lon="-1.308731">
   <ele>1281.00</ele>
   <time>2014-04-04T12:29:00Z</time>
  </trkpt>
  <trkpt lat="32.565824" lon="-1.308325">
   <ele>1281.00</ele>
   <time>2014-04-04T12:29:02Z</time>
  </trkpt>
  <trkpt lat="32.565837" lon="-1.307921">
   <ele>1281.00</ele>
   <time>2014-04-04T12:29:04Z</time>
  </trkpt>
  <trkpt lat="32.565894" lon="-1.307540">
   <ele>1281.00</ele>
   <time>2014-04-04T12:29:06Z</time>
  </trkpt>
  <trkpt lat="32.565987" lon="-1.307176">
   <ele>1281.00</ele>
   <time>2014-04-04T12:29:08Z</time>
  </trkpt>
  <trkpt lat="32.566105" lon="-1.306830">
   <ele>1277.00</ele>
   <time>2014-04-04T12:29:10Z</time>
  </trkpt>
  <trkpt lat="32.566474" lon="-1.305832">
   <ele>1268.00</ele>
   <time>2014-04-04T12:29:16Z</time>
  </trkpt>
  <trkpt lat="32.566661" lon="-1.305356">
   <ele>1265.00</ele>
   <time>2014-04-04T12:29:19Z</time>
  </trkpt>
  <trkpt lat="32.566808" lon="-1.305071">
   <ele>1264.00</ele>
   <time>2014-04-04T12:29:21Z</time>
  </trkpt>
  <trkpt lat="32.566983" lon="-1.304829">
   <ele>1262.00</ele>
   <time>2014-04-04T12:29:23Z</time>
  </trkpt>
  <trkpt lat="32.567173" lon="-1.304626">
   <ele>1261.00</ele>
   <time>2014-04-04T12:29:25Z</time>
  </trkpt>
  <trkpt lat="32.567380" lon="-1.304452">
   <ele>1259.00</ele>
   <time>2014-04-04T12:29:27Z</time>
  </trkpt>
  <trkpt lat="32.567611" lon="-1.304301">
   <ele>1258.00</ele>
   <time>2014-04-04T12:29:29Z</time>
  </trkpt>
  <trkpt lat="32.567866" lon="-1.304179">
   <ele>1256.00</ele>
   <time>2014-04-04T12:29:31Z</time>
  </trkpt>
  <trkpt lat="32.568139" lon="-1.304089">
   <ele>1255.00</ele>
   <time>2014-04-04T12:29:33Z</time>
  </trkpt>
  <trkpt lat="32.568428" lon="-1.304024">
   <ele>1253.00</ele>
   <time>2014-04-04T12:29:35Z</time>
  </trkpt>
  <trkpt lat="32.568730" lon="-1.303977">
   <ele>1252.00</ele>
   <time>2014-04-04T12:29:37Z</time>
  </trkpt>
  <trkpt lat="32.569038" lon="-1.303946">
   <ele>1250.00</ele>
   <time>2014-04-04T12:29:39Z</time>
  </trkpt>
  <trkpt lat="32.569490" lon="-1.303894">
   <ele>1248.00</ele>
   <time>2014-04-04T12:29:42Z</time>
  </trkpt>
  <trkpt lat="32.569782" lon="-1.303838">
   <ele>1246.00</ele>
   <time>2014-04-04T12:29:44Z</time>
  </trkpt>
  <trkpt lat="32.570064" lon="-1.303754">
   <ele>1245.00</ele>
   <time>2014-04-04T12:29:46Z</time>
  </trkpt>
  <trkpt lat="32.570338" lon="-1.303625">
   <ele>1244.00</ele>
   <time>2014-04-04T12:29:48Z</time>
  </trkpt>
  <trkpt lat="32.570598" lon="-1.303447">
   <ele>1244.00</ele>
   <time>2014-04-04T12:29:50Z</time>
  </trkpt>
  <trkpt lat="32.570841" lon="-1.303237">
   <ele>1243.00</ele>
   <time>2014-04-04T12:29:52Z</time>
  </trkpt>
  <trkpt lat="32.571055" lon="-1.302989">
   <ele>1242.00</ele>
   <time>2014-04-04T12:29:54Z</time>
  </trkpt>
  <trkpt lat="32.571232" lon="-1.302709">
   <ele>1242.00</ele>
   <time>2014-04-04T12:29:56Z</time>
  </trkpt>
  <trkpt lat="32.571378" lon="-1.302403">
   <ele>1242.00</ele>
   <time>2014-04-04T12:29:58Z</time>
  </trkpt>
  <trkpt lat="32.571499" lon="-1.302083">
   <ele>1243.00</ele>
   <time>2014-04-04T12:30:00Z</time>
  </trkpt>
  <trkpt lat="32.571588" lon="-1.301748">
   <ele>1244.00</ele>
   <time>2014-04-04T12:30:02Z</time>
  </trkpt>
  <trkpt lat="32.571636" lon="-1.301397">
   <ele>1246.00</ele>
   <time>2014-04-04T12:30:04Z</time>
  </trkpt>
  <trkpt lat="32.571641" lon="-1.301032">
   <ele>1246.00</ele>
   <time>2014-04-04T12:30:06Z</time>
  </trkpt>
  <trkpt lat="32.571610" lon="-1.300661">
   <ele>1247.00</ele>
   <time>2014-04-04T12:30:08Z</time>
  </trkpt>
  <trkpt lat="32.571378" lon="-1.298693">
   <ele>1247.00</ele>
   <time>2014-04-04T12:30:18Z</time>
  </trkpt>
  <trkpt lat="32.571291" lon="-1.298310">
   <ele>1247.00</ele>
   <time>2014-04-04T12:30:20Z</time>
  </trkpt>
  <trkpt lat="32.571151" lon="-1.297955">
   <ele>1247.00</ele>
   <time>2014-04-04T12:30:22Z</time>
  </trkpt>
  <trkpt lat="32.570976" lon="-1.297626">
   <ele>1246.00</ele>
   <time>2014-04-04T12:30:24Z</time>
  </trkpt>
  <trkpt lat="32.570249" lon="-1.296374">
   <ele>1246.00</ele>
   <time>2014-04-04T12:30:32Z</time>
  </trkpt>
  <trkpt lat="32.570063" lon="-1.296106">
   <ele>1247.00</ele>
   <time>2014-04-04T12:30:34Z</time>
  </trkpt>
  <trkpt lat="32.569470" lon="-1.295351">
   <ele>1246.00</ele>
   <time>2014-04-04T12:30:40Z</time>
  </trkpt>
  <trkpt lat="32.568965" lon="-1.294719">
   <ele>1244.00</ele>
   <time>2014-04-04T12:30:45Z</time>
  </trkpt>
  <trkpt lat="32.568797" lon="-1.294435">
   <ele>1243.00</ele>
   <time>2014-04-04T12:30:47Z</time>
  </trkpt>
  <trkpt lat="32.568691" lon="-1.294113">
   <ele>1242.00</ele>
   <time>2014-04-04T12:30:49Z</time>
  </trkpt>
  <trkpt lat="32.568640" lon="-1.293771">
   <ele>1241.00</ele>
   <time>2014-04-04T12:30:51Z</time>
  </trkpt>
  <trkpt lat="32.568634" lon="-1.293426">
   <ele>1241.00</ele>
   <time>2014-04-04T12:30:53Z</time>
  </trkpt>
  <trkpt lat="32.568674" lon="-1.292017">
   <ele>1241.00</ele>
   <time>2014-04-04T12:31:01Z</time>
  </trkpt>
  <trkpt lat="32.568651" lon="-1.291665">
   <ele>1241.00</ele>
   <time>2014-04-04T12:31:03Z</time>
  </trkpt>
  <trkpt lat="32.568605" lon="-1.291312">
   <ele>1241.00</ele>
   <time>2014-04-04T12:31:05Z</time>
  </trkpt>
  <trkpt lat="32.568541" lon="-1.290967">
   <ele>1239.00</ele>
   <time>2014-04-04T12:31:07Z</time>
  </trkpt>
  <trkpt lat="32.568230" lon="-1.289293">
   <ele>1235.00</ele>
   <time>2014-04-04T12:31:16Z</time>
  </trkpt>
  <trkpt lat="32.568175" lon="-1.288898">
   <ele>1235.00</ele>
   <time>2014-04-04T12:31:18Z</time>
  </trkpt>
  <trkpt lat="32.568149" lon="-1.288493">
   <ele>1234.00</ele>
   <time>2014-04-04T12:31:20Z</time>
  </trkpt>
  <trkpt lat="32.568152" lon="-1.288086">
   <ele>1234.00</ele>
   <time>2014-04-04T12:31:22Z</time>
  </trkpt>
  <trkpt lat="32.568180" lon="-1.287683">
   <ele>1234.00</ele>
   <time>2014-04-04T12:31:24Z</time>
  </trkpt>
  <trkpt lat="32.568240" lon="-1.287288">
   <ele>1234.00</ele>
   <time>2014-04-04T12:31:26Z</time>
  </trkpt>
  <trkpt lat="32.568323" lon="-1.286894">
   <ele>1234.00</ele>
   <time>2014-04-04T12:31:28Z</time>
  </trkpt>
  <trkpt lat="32.568516" lon="-1.286112">
   <ele>1232.00</ele>
   <time>2014-04-04T12:31:32Z</time>
  </trkpt>
  <trkpt lat="32.569008" lon="-1.284125">
   <ele>1232.00</ele>
   <time>2014-04-04T12:31:42Z</time>
  </trkpt>
  <trkpt lat="32.569079" lon="-1.283735">
   <ele>1232.00</ele>
   <time>2014-04-04T12:31:44Z</time>
  </trkpt>
  <trkpt lat="32.569114" lon="-1.283345">
   <ele>1232.00</ele>
   <time>2014-04-04T12:31:46Z</time>
  </trkpt>
  <trkpt lat="32.569124" lon="-1.282961">
   <ele>1233.00</ele>
   <time>2014-04-04T12:31:48Z</time>
  </trkpt>
  <trkpt lat="32.569124" lon="-1.282389">
   <ele>1232.00</ele>
   <time>2014-04-04T12:31:51Z</time>
  </trkpt>
  <trkpt lat="32.569076" lon="-1.281586">
   <ele>1231.00</ele>
   <time>2014-04-04T12:31:55Z</time>
  </trkpt>
  <trkpt lat="32.568898" lon="-1.278998">
   <ele>1226.00</ele>
   <time>2014-04-04T12:32:08Z</time>
  </trkpt>
  <trkpt lat="32.568813" lon="-1.278642">
   <ele>1224.00</ele>
   <time>2014-04-04T12:32:10Z</time>
  </trkpt>
  <trkpt lat="32.568649" lon="-1.278326">
   <ele>1223.00</ele>
   <time>2014-04-04T12:32:12Z</time>
  </trkpt>
  <trkpt lat="32.568429" lon="-1.278033">
   <ele>1223.00</ele>
   <time>2014-04-04T12:32:14Z</time>
  </trkpt>
  <trkpt lat="32.566972" lon="-1.276290">
   <ele>1213.00</ele>
   <time>2014-04-04T12:32:26Z</time>
  </trkpt>
  <trkpt lat="32.566772" lon="-1.275985">
   <ele>1213.00</ele>
   <time>2014-04-04T12:32:28Z</time>
  </trkpt>
  <trkpt lat="32.566610" lon="-1.275651">
   <ele>1213.00</ele>
   <time>2014-04-04T12:32:30Z</time>
  </trkpt>
  <trkpt lat="32.566482" lon="-1.275290">
   <ele>1213.00</ele>
   <time>2014-04-04T12:32:32Z</time>
  </trkpt>
  <trkpt lat="32.566078" lon="-1.273961">
   <ele>1216.00</ele>
   <time>2014-04-04T12:32:39Z</time>
  </trkpt>
  <trkpt lat="32.565459" lon="-1.271835">
   <ele>1222.00</ele>
   <time>2014-04-04T12:32:50Z</time>
  </trkpt>
  <trkpt lat="32.565397" lon="-1.271447">
   <ele>1225.00</ele>
   <time>2014-04-04T12:32:52Z</time>
  </trkpt>
  <trkpt lat="32.565381" lon="-1.271051">
   <ele>1227.00</ele>
   <time>2014-04-04T12:32:54Z</time>
  </trkpt>
  <trkpt lat="32.565402" lon="-1.270651">
   <ele>1230.00</ele>
   <time>2014-04-04T12:32:56Z</time>
  </trkpt>
  <trkpt lat="32.565451" lon="-1.270255">
   <ele>1233.00</ele>
   <time>2014-04-04T12:32:58Z</time>
  </trkpt>
  <trkpt lat="32.565502" lon="-1.269865">
   <ele>1236.00</ele>
   <time>2014-04-04T12:33:00Z</time>
  </trkpt>
  <trkpt lat="32.565522" lon="-1.269477">
   <ele>1238.00</ele>
   <time>2014-04-04T12:33:02Z</time>
  </trkpt>
  <trkpt lat="32.565499" lon="-1.269086">
   <ele>1240.00</ele>
   <time>2014-04-04T12:33:04Z</time>
  </trkpt>
  <trkpt lat="32.565436" lon="-1.268697">
   <ele>1242.00</ele>
   <time>2014-04-04T12:33:06Z</time>
  </trkpt>
  <trkpt lat="32.565349" lon="-1.268310">
   <ele>1242.00</ele>
   <time>2014-04-04T12:33:08Z</time>
  </trkpt>
  <trkpt lat="32.564580" lon="-1.265099">
   <ele>1243.00</ele>
   <time>2014-04-04T12:33:24Z</time>
  </trkpt>
  <trkpt lat="32.563904" lon="-1.262103">
   <ele>1242.00</ele>
   <time>2014-04-04T12:33:39Z</time>
  </trkpt>
  <trkpt lat="32.563816" lon="-1.261495">
   <ele>1244.00</ele>
   <time>2014-04-04T12:33:42Z</time>
  </trkpt>
  <trkpt lat="32.563371" lon="-1.258432">
   <ele>1253.00</ele>
   <time>2014-04-04T12:33:57Z</time>
  </trkpt>
  <trkpt lat="32.563188" lon="-1.257169">
   <ele>1257.00</ele>
   <time>2014-04-04T12:34:03Z</time>
  </trkpt>
  <trkpt lat="32.563149" lon="-1.256744">
   <ele>1258.00</ele>
   <time>2014-04-04T12:34:05Z</time>
  </trkpt>
  <trkpt lat="32.562952" lon="-1.253400">
   <ele>1266.00</ele>
   <time>2014-04-04T12:34:21Z</time>
  </trkpt>
  <trkpt lat="32.562822" lon="-1.251293">
   <ele>1270.00</ele>
   <time>2014-04-04T12:34:31Z</time>
  </trkpt>
  <trkpt lat="32.562840" lon="-1.250879">
   <ele>1271.00</ele>
   <time>2014-04-04T12:34:33Z</time>
  </trkpt>
  <trkpt lat="32.562888" lon="-1.250467">
   <ele>1272.00</ele>
   <time>2014-04-04T12:34:35Z</time>
  </trkpt>
  <trkpt lat="32.563273" lon="-1.247994">
   <ele>1281.00</ele>
   <time>2014-04-04T12:34:47Z</time>
  </trkpt>
  <trkpt lat="32.563623" lon="-1.245909">
   <ele>1284.00</ele>
   <time>2014-04-04T12:34:57Z</time>
  </trkpt>
  <trkpt lat="32.563721" lon="-1.245498">
   <ele>1284.00</ele>
   <time>2014-04-04T12:34:59Z</time>
  </trkpt>
  <trkpt lat="32.564645" lon="-1.242146">
   <ele>1277.00</ele>
   <time>2014-04-04T12:35:15Z</time>
  </trkpt>
  <trkpt lat="32.565600" lon="-1.238701">
   <ele>1266.00</ele>
   <time>2014-04-04T12:35:30Z</time>
  </trkpt>
  <trkpt lat="32.566612" lon="-1.235058">
   <ele>1260.00</ele>
   <time>2014-04-04T12:35:46Z</time>
  </trkpt>
  <trkpt lat="32.566821" lon="-1.234458">
   <ele>1256.00</ele>
   <time>2014-04-04T12:35:49Z</time>
  </trkpt>
  <trkpt lat="32.567049" lon="-1.233871">
   <ele>1253.00</ele>
   <time>2014-04-04T12:35:52Z</time>
  </trkpt>
  <trkpt lat="32.567222" lon="-1.233487">
   <ele>1251.00</ele>
   <time>2014-04-04T12:35:54Z</time>
  </trkpt>
  <trkpt lat="32.567416" lon="-1.233110">
   <ele>1249.00</ele>
   <time>2014-04-04T12:35:56Z</time>
  </trkpt>
  <trkpt lat="32.567621" lon="-1.232734">
   <ele>1248.00</ele>
   <time>2014-04-04T12:35:58Z</time>
  </trkpt>
  <trkpt lat="32.569236" lon="-1.229939">
   <ele>1241.00</ele>
   <time>2014-04-04T12:36:13Z</time>
  </trkpt>
  <trkpt lat="32.569438" lon="-1.229563">
   <ele>1241.00</ele>
   <time>2014-04-04T12:36:15Z</time>
  </trkpt>
  <trkpt lat="32.569721" lon="-1.228973">
   <ele>1239.00</ele>
   <time>2014-04-04T12:36:18Z</time>
  </trkpt>
  <trkpt lat="32.569894" lon="-1.228561">
   <ele>1238.00</ele>
   <time>2014-04-04T12:36:20Z</time>
  </trkpt>
  <trkpt lat="32.570052" lon="-1.228136">
   <ele>1237.00</ele>
   <time>2014-04-04T12:36:22Z</time>
  </trkpt>
  <trkpt lat="32.571220" lon="-1.224685">
   <ele>1229.00</ele>
   <time>2014-04-04T12:36:38Z</time>
  </trkpt>
  <trkpt lat="32.572344" lon="-1.221368">
   <ele>1220.00</ele>
   <time>2014-04-04T12:36:53Z</time>
  </trkpt>
  <trkpt lat="32.573565" lon="-1.217740">
   <ele>1213.00</ele>
   <time>2014-04-04T12:37:09Z</time>
  </trkpt>
  <trkpt lat="32.574605" lon="-1.214694">
   <ele>1209.00</ele>
   <time>2014-04-04T12:37:23Z</time>
  </trkpt>
  <trkpt lat="32.574705" lon="-1.214296">
   <ele>1209.00</ele>
   <time>2014-04-04T12:37:25Z</time>
  </trkpt>
  <trkpt lat="32.574786" lon="-1.213909">
   <ele>1213.00</ele>
   <time>2014-04-04T12:37:27Z</time>
  </trkpt>
  <trkpt lat="32.574829" lon="-1.213529">
   <ele>1215.00</ele>
   <time>2014-04-04T12:37:29Z</time>
  </trkpt>
  <trkpt lat="32.574839" lon="-1.213166">
   <ele>1217.00</ele>
   <time>2014-04-04T12:37:31Z</time>
  </trkpt>
  <trkpt lat="32.574819" lon="-1.212815">
   <ele>1218.00</ele>
   <time>2014-04-04T12:37:33Z</time>
  </trkpt>
  <trkpt lat="32.574780" lon="-1.212473">
   <ele>1218.00</ele>
   <time>2014-04-04T12:37:35Z</time>
  </trkpt>
  <trkpt lat="32.574398" lon="-1.209869">
   <ele>1221.00</ele>
   <time>2014-04-04T12:37:50Z</time>
  </trkpt>
  <trkpt lat="32.574265" lon="-1.208989">
   <ele>1222.00</ele>
   <time>2014-04-04T12:37:58Z</time>
  </trkpt>
  <trkpt lat="32.574324" lon="-1.208778">
   <ele>1216.00</ele>
   <time>2014-04-04T12:38:07Z</time>
  </trkpt>
  <trkpt lat="32.574389" lon="-1.208562">
   <ele>1215.00</ele>
   <time>2014-04-04T12:38:17Z</time>
  </trkpt>
  <trkpt lat="32.574395" lon="-1.208538">
   <ele>1218.00</ele>
   <time>2014-04-04T12:38:33Z</time>
  </trkpt>
  <trkpt lat="32.574396" lon="-1.208542">
   <ele>1219.00</ele>
   <time>2014-04-04T12:38:49Z</time>
  </trkpt>
  <trkpt lat="32.574397" lon="-1.208546">
   <ele>1219.00</ele>
   <time>2014-04-04T12:39:04Z</time>
  </trkpt>
  <trkpt lat="32.574398" lon="-1.208551">
   <ele>1219.00</ele>
   <time>2014-04-04T12:39:20Z</time>
  </trkpt>
  <trkpt lat="32.574399" lon="-1.208554">
   <ele>1219.00</ele>
   <time>2014-04-04T12:39:35Z</time>
  </trkpt>
  <trkpt lat="32.574401" lon="-1.208558">
   <ele>1219.00</ele>
   <time>2014-04-04T12:39:51Z</time>
  </trkpt>
  <trkpt lat="32.574400" lon="-1.208559">
   <ele>1218.00</ele>
   <time>2014-04-04T12:40:07Z</time>
  </trkpt>
  <trkpt lat="32.574399" lon="-1.208561">
   <ele>1218.00</ele>
   <time>2014-04-04T12:40:23Z</time>
  </trkpt>
  <trkpt lat="32.574400" lon="-1.208561">
   <ele>1218.00</ele>
   <time>2014-04-04T12:40:38Z</time>
  </trkpt>
  <trkpt lat="32.574394" lon="-1.208563">
   <ele>1217.00</ele>
   <time>2014-04-04T12:40:53Z</time>
  </trkpt>
  <trkpt lat="32.574399" lon="-1.208565">
   <ele>1217.00</ele>
   <time>2014-04-04T12:41:09Z</time>
  </trkpt>
  <trkpt lat="32.574402" lon="-1.208559">
   <ele>1217.00</ele>
   <time>2014-04-04T12:41:24Z</time>
  </trkpt>
  <trkpt lat="32.574453" lon="-1.208333">
   <ele>1217.00</ele>
   <time>2014-04-04T12:41:30Z</time>
  </trkpt>
  <trkpt lat="32.574479" lon="-1.208119">
   <ele>1216.00</ele>
   <time>2014-04-04T12:41:33Z</time>
  </trkpt>
  <trkpt lat="32.574536" lon="-1.207524">
   <ele>1216.00</ele>
   <time>2014-04-04T12:41:40Z</time>
  </trkpt>
  <trkpt lat="32.574537" lon="-1.207262">
   <ele>1216.00</ele>
   <time>2014-04-04T12:41:43Z</time>
  </trkpt>
  <trkpt lat="32.574554" lon="-1.207002">
   <ele>1217.00</ele>
   <time>2014-04-04T12:41:46Z</time>
  </trkpt>
  <trkpt lat="32.574620" lon="-1.206577">
   <ele>1215.00</ele>
   <time>2014-04-04T12:41:51Z</time>
  </trkpt>
  <trkpt lat="32.574679" lon="-1.206354">
   <ele>1214.00</ele>
   <time>2014-04-04T12:41:54Z</time>
  </trkpt>
  <trkpt lat="32.574770" lon="-1.206152">
   <ele>1214.00</ele>
   <time>2014-04-04T12:41:57Z</time>
  </trkpt>
  <trkpt lat="32.574966" lon="-1.206027">
   <ele>1212.00</ele>
   <time>2014-04-04T12:42:00Z</time>
  </trkpt>
  <trkpt lat="32.575175" lon="-1.206018">
   <ele>1211.00</ele>
   <time>2014-04-04T12:42:03Z</time>
  </trkpt>
  <trkpt lat="32.575403" lon="-1.206029">
   <ele>1208.00</ele>
   <time>2014-04-04T12:42:07Z</time>
  </trkpt>
  <trkpt lat="32.575557" lon="-1.205901">
   <ele>1206.00</ele>
   <time>2014-04-04T12:42:10Z</time>
  </trkpt>
  <trkpt lat="32.575682" lon="-1.205683">
   <ele>1205.00</ele>
   <time>2014-04-04T12:42:13Z</time>
  </trkpt>
  <trkpt lat="32.575775" lon="-1.205433">
   <ele>1205.00</ele>
   <time>2014-04-04T12:42:16Z</time>
  </trkpt>
  <trkpt lat="32.575905" lon="-1.205118">
   <ele>1203.00</ele>
   <time>2014-04-04T12:42:20Z</time>
  </trkpt>
  <trkpt lat="32.576050" lon="-1.204961">
   <ele>1202.00</ele>
   <time>2014-04-04T12:42:23Z</time>
  </trkpt>
  <trkpt lat="32.576225" lon="-1.204798">
   <ele>1202.00</ele>
   <time>2014-04-04T12:42:27Z</time>
  </trkpt>
  <trkpt lat="32.576365" lon="-1.204638">
   <ele>1202.00</ele>
   <time>2014-04-04T12:42:33Z</time>
  </trkpt>
  <trkpt lat="32.576509" lon="-1.204451">
   <ele>1204.00</ele>
   <time>2014-04-04T12:42:39Z</time>
  </trkpt>
  <trkpt lat="32.576714" lon="-1.204357">
   <ele>1204.00</ele>
   <time>2014-04-04T12:42:43Z</time>
  </trkpt>
  <trkpt lat="32.576915" lon="-1.204343">
   <ele>1205.00</ele>
   <time>2014-04-04T12:42:46Z</time>
  </trkpt>
  <trkpt lat="32.577103" lon="-1.204348">
   <ele>1205.00</ele>
   <time>2014-04-04T12:42:49Z</time>
  </trkpt>
  <trkpt lat="32.577326" lon="-1.204335">
   <ele>1205.00</ele>
   <time>2014-04-04T12:42:53Z</time>
  </trkpt>
  <trkpt lat="32.577545" lon="-1.204319">
   <ele>1205.00</ele>
   <time>2014-04-04T12:42:58Z</time>
  </trkpt>
  <trkpt lat="32.577699" lon="-1.204167">
   <ele>1204.00</ele>
   <time>2014-04-04T12:43:02Z</time>
  </trkpt>
  <trkpt lat="32.577758" lon="-1.203909">
   <ele>1203.00</ele>
   <time>2014-04-04T12:43:06Z</time>
  </trkpt>
  <trkpt lat="32.577810" lon="-1.203638">
   <ele>1204.00</ele>
   <time>2014-04-04T12:43:10Z</time>
  </trkpt>
  <trkpt lat="32.577857" lon="-1.203422">
   <ele>1203.00</ele>
   <time>2014-04-04T12:43:13Z</time>
  </trkpt>
  <trkpt lat="32.577885" lon="-1.203183">
   <ele>1203.00</ele>
   <time>2014-04-04T12:43:16Z</time>
  </trkpt>
  <trkpt lat="32.577873" lon="-1.202738">
   <ele>1203.00</ele>
   <time>2014-04-04T12:43:21Z</time>
  </trkpt>
  <trkpt lat="32.577898" lon="-1.202285">
   <ele>1204.00</ele>
   <time>2014-04-04T12:43:26Z</time>
  </trkpt>
  <trkpt lat="32.577968" lon="-1.202024">
   <ele>1203.00</ele>
   <time>2014-04-04T12:43:29Z</time>
  </trkpt>
  <trkpt lat="32.578078" lon="-1.201787">
   <ele>1202.00</ele>
   <time>2014-04-04T12:43:32Z</time>
  </trkpt>
  <trkpt lat="32.578127" lon="-1.201536">
   <ele>1202.00</ele>
   <time>2014-04-04T12:43:35Z</time>
  </trkpt>
  <trkpt lat="32.578160" lon="-1.201291">
   <ele>1202.00</ele>
   <time>2014-04-04T12:43:38Z</time>
  </trkpt>
  <trkpt lat="32.578191" lon="-1.201029">
   <ele>1203.00</ele>
   <time>2014-04-04T12:43:41Z</time>
  </trkpt>
  <trkpt lat="32.578252" lon="-1.200759">
   <ele>1203.00</ele>
   <time>2014-04-04T12:43:44Z</time>
  </trkpt>
  <trkpt lat="32.578358" lon="-1.200536">
   <ele>1203.00</ele>
   <time>2014-04-04T12:43:47Z</time>
  </trkpt>
  <trkpt lat="32.578482" lon="-1.200354">
   <ele>1203.00</ele>
   <time>2014-04-04T12:43:50Z</time>
  </trkpt>
  <trkpt lat="32.578622" lon="-1.200154">
   <ele>1203.00</ele>
   <time>2014-04-04T12:43:53Z</time>
  </trkpt>
  <trkpt lat="32.578737" lon="-1.199945">
   <ele>1203.00</ele>
   <time>2014-04-04T12:43:56Z</time>
  </trkpt>
  <trkpt lat="32.578813" lon="-1.199744">
   <ele>1202.00</ele>
   <time>2014-04-04T12:43:59Z</time>
  </trkpt>
  <trkpt lat="32.578880" lon="-1.199520">
   <ele>1202.00</ele>
   <time>2014-04-04T12:44:03Z</time>
  </trkpt>
  <trkpt lat="32.578907" lon="-1.199299">
   <ele>1205.00</ele>
   <time>2014-04-04T12:44:11Z</time>
  </trkpt>
  <trkpt lat="32.578792" lon="-1.199076">
   <ele>1204.00</ele>
   <time>2014-04-04T12:44:16Z</time>
  </trkpt>
  <trkpt lat="32.578694" lon="-1.198845">
   <ele>1204.00</ele>
   <time>2014-04-04T12:44:19Z</time>
  </trkpt>
  <trkpt lat="32.578613" lon="-1.198574">
   <ele>1204.00</ele>
   <time>2014-04-04T12:44:22Z</time>
  </trkpt>
  <trkpt lat="32.578573" lon="-1.198260">
   <ele>1204.00</ele>
   <time>2014-04-04T12:44:25Z</time>
  </trkpt>
  <trkpt lat="32.578580" lon="-1.198044">
   <ele>1205.00</ele>
   <time>2014-04-04T12:44:27Z</time>
  </trkpt>
  <trkpt lat="32.578609" lon="-1.197754">
   <ele>1205.00</ele>
   <time>2014-04-04T12:44:30Z</time>
  </trkpt>
  <trkpt lat="32.578666" lon="-1.197551">
   <ele>1205.00</ele>
   <time>2014-04-04T12:44:34Z</time>
  </trkpt>
  <trkpt lat="32.578855" lon="-1.197453">
   <ele>1204.00</ele>
   <time>2014-04-04T12:44:39Z</time>
  </trkpt>
  <trkpt lat="32.579006" lon="-1.197325">
   <ele>1203.00</ele>
   <time>2014-04-04T12:44:45Z</time>
  </trkpt>
  <trkpt lat="32.579049" lon="-1.197231">
   <ele>1201.00</ele>
   <time>2014-04-04T12:45:01Z</time>
  </trkpt>
  <trkpt lat="32.579037" lon="-1.197234">
   <ele>1198.00</ele>
   <time>2014-04-04T12:45:16Z</time>
  </trkpt>
  <trkpt lat="32.579031" lon="-1.197236">
   <ele>1197.00</ele>
   <time>2014-04-04T12:45:31Z</time>
  </trkpt>
  <trkpt lat="32.579027" lon="-1.197236">
   <ele>1197.00</ele>
   <time>2014-04-04T12:45:46Z</time>
  </trkpt>
  <trkpt lat="32.579025" lon="-1.197236">
   <ele>1196.00</ele>
   <time>2014-04-04T12:46:02Z</time>
  </trkpt>
  <trkpt lat="32.579024" lon="-1.197235">
   <ele>1195.00</ele>
   <time>2014-04-04T12:46:17Z</time>
  </trkpt>
  <trkpt lat="32.579021" lon="-1.197234">
   <ele>1195.00</ele>
   <time>2014-04-04T12:46:32Z</time>
  </trkpt>
  <trkpt lat="32.579020" lon="-1.197235">
   <ele>1195.00</ele>
   <time>2014-04-04T12:46:47Z</time>
  </trkpt>
  <trkpt lat="32.579021" lon="-1.197237">
   <ele>1195.00</ele>
   <time>2014-04-04T12:47:03Z</time>
  </trkpt>
  <trkpt lat="32.579022" lon="-1.197239">
   <ele>1195.00</ele>
   <time>2014-04-04T12:47:18Z</time>
  </trkpt>
  <trkpt lat="32.579023" lon="-1.197239">
   <ele>1195.00</ele>
   <time>2014-04-04T12:47:33Z</time>
  </trkpt>
  <trkpt lat="32.579024" lon="-1.197240">
   <ele>1195.00</ele>
   <time>2014-04-04T12:47:49Z</time>
  </trkpt>
  <trkpt lat="32.579025" lon="-1.197231">
   <ele>1195.00</ele>
   <time>2014-04-04T12:48:04Z</time>
  </trkpt>
  <trkpt lat="32.579024" lon="-1.197228">
   <ele>1194.00</ele>
   <time>2014-04-04T12:48:19Z</time>
  </trkpt>
  <trkpt lat="32.579026" lon="-1.197212">
   <ele>1194.00</ele>
   <time>2014-04-04T12:48:34Z</time>
  </trkpt>
  <trkpt lat="32.579072" lon="-1.196951">
   <ele>1194.00</ele>
   <time>2014-04-04T12:48:41Z</time>
  </trkpt>
  <trkpt lat="32.579092" lon="-1.196499">
   <ele>1193.00</ele>
   <time>2014-04-04T12:48:47Z</time>
  </trkpt>
  <trkpt lat="32.579050" lon="-1.196236">
   <ele>1194.00</ele>
   <time>2014-04-04T12:48:50Z</time>
  </trkpt>
  <trkpt lat="32.578962" lon="-1.195992">
   <ele>1194.00</ele>
   <time>2014-04-04T12:48:53Z</time>
  </trkpt>
  <trkpt lat="32.578737" lon="-1.195382">
   <ele>1193.00</ele>
   <time>2014-04-04T12:49:00Z</time>
  </trkpt>
  <trkpt lat="32.578684" lon="-1.195086">
   <ele>1193.00</ele>
   <time>2014-04-04T12:49:03Z</time>
  </trkpt>
  <trkpt lat="32.578678" lon="-1.194866">
   <ele>1193.00</ele>
   <time>2014-04-04T12:49:05Z</time>
  </trkpt>
  <trkpt lat="32.578669" lon="-1.194419">
   <ele>1193.00</ele>
   <time>2014-04-04T12:49:09Z</time>
  </trkpt>
  <trkpt lat="32.578641" lon="-1.194070">
   <ele>1194.00</ele>
   <time>2014-04-04T12:49:12Z</time>
  </trkpt>
  <trkpt lat="32.578610" lon="-1.193726">
   <ele>1193.00</ele>
   <time>2014-04-04T12:49:15Z</time>
  </trkpt>
  <trkpt lat="32.578602" lon="-1.193501">
   <ele>1193.00</ele>
   <time>2014-04-04T12:49:17Z</time>
  </trkpt>
  <trkpt lat="32.578575" lon="-1.193061">
   <ele>1193.00</ele>
   <time>2014-04-04T12:49:21Z</time>
  </trkpt>
  <trkpt lat="32.578620" lon="-1.192749">
   <ele>1193.00</ele>
   <time>2014-04-04T12:49:24Z</time>
  </trkpt>
  <trkpt lat="32.578704" lon="-1.192560">
   <ele>1193.00</ele>
   <time>2014-04-04T12:49:26Z</time>
  </trkpt>
  <trkpt lat="32.578828" lon="-1.192400">
   <ele>1193.00</ele>
   <time>2014-04-04T12:49:28Z</time>
  </trkpt>
  <trkpt lat="32.578950" lon="-1.192238">
   <ele>1193.00</ele>
   <time>2014-04-04T12:49:30Z</time>
  </trkpt>
  <trkpt lat="32.579085" lon="-1.192068">
   <ele>1193.00</ele>
   <time>2014-04-04T12:49:32Z</time>
  </trkpt>
  <trkpt lat="32.579244" lon="-1.191916">
   <ele>1192.00</ele>
   <time>2014-04-04T12:49:34Z</time>
  </trkpt>
  <trkpt lat="32.579422" lon="-1.191793">
   <ele>1192.00</ele>
   <time>2014-04-04T12:49:36Z</time>
  </trkpt>
  <trkpt lat="32.579741" lon="-1.191607">
   <ele>1192.00</ele>
   <time>2014-04-04T12:49:40Z</time>
  </trkpt>
  <trkpt lat="32.579973" lon="-1.191566">
   <ele>1191.00</ele>
   <time>2014-04-04T12:49:44Z</time>
  </trkpt>
  <trkpt lat="32.580141" lon="-1.191644">
   <ele>1192.00</ele>
   <time>2014-04-04T12:49:47Z</time>
  </trkpt>
  <trkpt lat="32.580352" lon="-1.191690">
   <ele>1192.00</ele>
   <time>2014-04-04T12:49:51Z</time>
  </trkpt>
  <trkpt lat="32.580537" lon="-1.191676">
   <ele>1192.00</ele>
   <time>2014-04-04T12:49:54Z</time>
  </trkpt>
  <trkpt lat="32.580726" lon="-1.191700">
   <ele>1194.00</ele>
   <time>2014-04-04T12:49:57Z</time>
  </trkpt>
  <trkpt lat="32.580956" lon="-1.191648">
   <ele>1196.00</ele>
   <time>2014-04-04T12:50:01Z</time>
  </trkpt>
  <trkpt lat="32.581181" lon="-1.191594">
   <ele>1196.00</ele>
   <time>2014-04-04T12:50:05Z</time>
  </trkpt>
  <trkpt lat="32.581394" lon="-1.191573">
   <ele>1197.00</ele>
   <time>2014-04-04T12:50:09Z</time>
  </trkpt>
  <trkpt lat="32.581555" lon="-1.191441">
   <ele>1197.00</ele>
   <time>2014-04-04T12:50:13Z</time>
  </trkpt>
  <trkpt lat="32.581656" lon="-1.191200">
   <ele>1199.00</ele>
   <time>2014-04-04T12:50:17Z</time>
  </trkpt>
  <trkpt lat="32.581785" lon="-1.190880">
   <ele>1200.00</ele>
   <time>2014-04-04T12:50:22Z</time>
  </trkpt>
  <trkpt lat="32.581938" lon="-1.190534">
   <ele>1201.00</ele>
   <time>2014-04-04T12:50:29Z</time>
  </trkpt>
  <trkpt lat="32.581985" lon="-1.190443">
   <ele>1202.00</ele>
   <time>2014-04-04T12:50:45Z</time>
  </trkpt>
  <trkpt lat="32.582125" lon="-1.190268">
   <ele>1203.00</ele>
   <time>2014-04-04T12:50:52Z</time>
  </trkpt>
  <trkpt lat="32.582234" lon="-1.190079">
   <ele>1203.00</ele>
   <time>2014-04-04T12:51:00Z</time>
  </trkpt>
  <trkpt lat="32.582311" lon="-1.189877">
   <ele>1204.00</ele>
   <time>2014-04-04T12:51:06Z</time>
  </trkpt>
  <trkpt lat="32.582359" lon="-1.189649">
   <ele>1204.00</ele>
   <time>2014-04-04T12:51:11Z</time>
  </trkpt>
  <trkpt lat="32.582387" lon="-1.189378">
   <ele>1204.00</ele>
   <time>2014-04-04T12:51:16Z</time>
  </trkpt>
  <trkpt lat="32.582477" lon="-1.189149">
   <ele>1204.00</ele>
   <time>2014-04-04T12:51:20Z</time>
  </trkpt>
  <trkpt lat="32.582596" lon="-1.188907">
   <ele>1203.00</ele>
   <time>2014-04-04T12:51:24Z</time>
  </trkpt>
  <trkpt lat="32.582766" lon="-1.188781">
   <ele>1203.00</ele>
   <time>2014-04-04T12:51:28Z</time>
  </trkpt>
  <trkpt lat="32.582956" lon="-1.188876">
   <ele>1201.00</ele>
   <time>2014-04-04T12:51:32Z</time>
  </trkpt>
  <trkpt lat="32.583119" lon="-1.189026">
   <ele>1200.00</ele>
   <time>2014-04-04T12:51:36Z</time>
  </trkpt>
  <trkpt lat="32.583319" lon="-1.189110">
   <ele>1199.00</ele>
   <time>2014-04-04T12:51:40Z</time>
  </trkpt>
  <trkpt lat="32.583553" lon="-1.189177">
   <ele>1198.00</ele>
   <time>2014-04-04T12:51:44Z</time>
  </trkpt>
  <trkpt lat="32.583882" lon="-1.189251">
   <ele>1197.00</ele>
   <time>2014-04-04T12:51:49Z</time>
  </trkpt>
  <trkpt lat="32.584075" lon="-1.189331">
   <ele>1197.00</ele>
   <time>2014-04-04T12:51:52Z</time>
  </trkpt>
  <trkpt lat="32.584261" lon="-1.189456">
   <ele>1197.00</ele>
   <time>2014-04-04T12:51:55Z</time>
  </trkpt>
  <trkpt lat="32.584583" lon="-1.189703">
   <ele>1198.00</ele>
   <time>2014-04-04T12:52:01Z</time>
  </trkpt>
  <trkpt lat="32.584713" lon="-1.189886">
   <ele>1199.00</ele>
   <time>2014-04-04T12:52:05Z</time>
  </trkpt>
  <trkpt lat="32.584867" lon="-1.190055">
   <ele>1199.00</ele>
   <time>2014-04-04T12:52:09Z</time>
  </trkpt>
  <trkpt lat="32.585096" lon="-1.190039">
   <ele>1198.00</ele>
   <time>2014-04-04T12:52:13Z</time>
  </trkpt>
  <trkpt lat="32.585247" lon="-1.189867">
   <ele>1198.00</ele>
   <time>2014-04-04T12:52:16Z</time>
  </trkpt>
  <trkpt lat="32.585327" lon="-1.189595">
   <ele>1198.00</ele>
   <time>2014-04-04T12:52:19Z</time>
  </trkpt>
  <trkpt lat="32.585347" lon="-1.189296">
   <ele>1198.00</ele>
   <time>2014-04-04T12:52:22Z</time>
  </trkpt>
  <trkpt lat="32.585363" lon="-1.189008">
   <ele>1198.00</ele>
   <time>2014-04-04T12:52:25Z</time>
  </trkpt>
  <trkpt lat="32.585392" lon="-1.188716">
   <ele>1198.00</ele>
   <time>2014-04-04T12:52:28Z</time>
  </trkpt>
  <trkpt lat="32.585400" lon="-1.188412">
   <ele>1199.00</ele>
   <time>2014-04-04T12:52:31Z</time>
  </trkpt>
  <trkpt lat="32.585405" lon="-1.188003">
   <ele>1199.00</ele>
   <time>2014-04-04T12:52:35Z</time>
  </trkpt>
  <trkpt lat="32.585435" lon="-1.187693">
   <ele>1200.00</ele>
   <time>2014-04-04T12:52:38Z</time>
  </trkpt>
  <trkpt lat="32.585490" lon="-1.187394">
   <ele>1200.00</ele>
   <time>2014-04-04T12:52:41Z</time>
  </trkpt>
  <trkpt lat="32.585569" lon="-1.187116">
   <ele>1200.00</ele>
   <time>2014-04-04T12:52:44Z</time>
  </trkpt>
  <trkpt lat="32.585941" lon="-1.186108">
   <ele>1201.00</ele>
   <time>2014-04-04T12:52:55Z</time>
  </trkpt>
  <trkpt lat="32.586309" lon="-1.185196">
   <ele>1201.00</ele>
   <time>2014-04-04T12:53:06Z</time>
  </trkpt>
  <trkpt lat="32.586343" lon="-1.184946">
   <ele>1202.00</ele>
   <time>2014-04-04T12:53:09Z</time>
  </trkpt>
  <trkpt lat="32.586300" lon="-1.184690">
   <ele>1202.00</ele>
   <time>2014-04-04T12:53:12Z</time>
  </trkpt>
  <trkpt lat="32.586213" lon="-1.184419">
   <ele>1202.00</ele>
   <time>2014-04-04T12:53:15Z</time>
  </trkpt>
  <trkpt lat="32.586117" lon="-1.184129">
   <ele>1202.00</ele>
   <time>2014-04-04T12:53:18Z</time>
  </trkpt>
  <trkpt lat="32.585989" lon="-1.183697">
   <ele>1201.00</ele>
   <time>2014-04-04T12:53:22Z</time>
  </trkpt>
  <trkpt lat="32.585666" lon="-1.182518">
   <ele>1200.00</ele>
   <time>2014-04-04T12:53:33Z</time>
  </trkpt>
  <trkpt lat="32.585554" lon="-1.182229">
   <ele>1199.00</ele>
   <time>2014-04-04T12:53:36Z</time>
  </trkpt>
  <trkpt lat="32.585474" lon="-1.182022">
   <ele>1199.00</ele>
   <time>2014-04-04T12:53:38Z</time>
  </trkpt>
  <trkpt lat="32.585364" lon="-1.181712">
   <ele>1198.00</ele>
   <time>2014-04-04T12:53:41Z</time>
  </trkpt>
  <trkpt lat="32.585278" lon="-1.181520">
   <ele>1197.00</ele>
   <time>2014-04-04T12:53:43Z</time>
  </trkpt>
  <trkpt lat="32.584929" lon="-1.180800">
   <ele>1198.00</ele>
   <time>2014-04-04T12:53:51Z</time>
  </trkpt>
  <trkpt lat="32.584821" lon="-1.180537">
   <ele>1198.00</ele>
   <time>2014-04-04T12:53:54Z</time>
  </trkpt>
  <trkpt lat="32.584669" lon="-1.180217">
   <ele>1198.00</ele>
   <time>2014-04-04T12:53:58Z</time>
  </trkpt>
  <trkpt lat="32.584540" lon="-1.180012">
   <ele>1199.00</ele>
   <time>2014-04-04T12:54:01Z</time>
  </trkpt>
  <trkpt lat="32.584352" lon="-1.179895">
   <ele>1199.00</ele>
   <time>2014-04-04T12:54:04Z</time>
  </trkpt>
  <trkpt lat="32.584143" lon="-1.179832">
   <ele>1199.00</ele>
   <time>2014-04-04T12:54:07Z</time>
  </trkpt>
  <trkpt lat="32.583925" lon="-1.179811">
   <ele>1198.00</ele>
   <time>2014-04-04T12:54:10Z</time>
  </trkpt>
  <trkpt lat="32.583710" lon="-1.179811">
   <ele>1198.00</ele>
   <time>2014-04-04T12:54:13Z</time>
  </trkpt>
  <trkpt lat="32.583499" lon="-1.179828">
   <ele>1197.00</ele>
   <time>2014-04-04T12:54:16Z</time>
  </trkpt>
  <trkpt lat="32.583296" lon="-1.179846">
   <ele>1196.00</ele>
   <time>2014-04-04T12:54:19Z</time>
  </trkpt>
  <trkpt lat="32.583035" lon="-1.179873">
   <ele>1196.00</ele>
   <time>2014-04-04T12:54:23Z</time>
  </trkpt>
  <trkpt lat="32.582726" lon="-1.179937">
   <ele>1196.00</ele>
   <time>2014-04-04T12:54:28Z</time>
  </trkpt>
  <trkpt lat="32.582521" lon="-1.179876">
   <ele>1195.00</ele>
   <time>2014-04-04T12:54:33Z</time>
  </trkpt>
  <trkpt lat="32.582309" lon="-1.179900">
   <ele>1194.00</ele>
   <time>2014-04-04T12:54:38Z</time>
  </trkpt>
  <trkpt lat="32.582135" lon="-1.179858">
   <ele>1193.00</ele>
   <time>2014-04-04T12:54:43Z</time>
  </trkpt>
  <trkpt lat="32.581970" lon="-1.179781">
   <ele>1191.00</ele>
   <time>2014-04-04T12:54:49Z</time>
  </trkpt>
  <trkpt lat="32.581816" lon="-1.179810">
   <ele>1191.00</ele>
   <time>2014-04-04T12:54:57Z</time>
  </trkpt>
  <trkpt lat="32.581899" lon="-1.179715">
   <ele>1190.00</ele>
   <time>2014-04-04T12:55:12Z</time>
  </trkpt>
  <trkpt lat="32.581900" lon="-1.179716">
   <ele>1189.00</ele>
   <time>2014-04-04T12:55:28Z</time>
  </trkpt>
  <trkpt lat="32.581896" lon="-1.179713">
   <ele>1188.00</ele>
   <time>2014-04-04T12:55:43Z</time>
  </trkpt>
  <trkpt lat="32.581893" lon="-1.179711">
   <ele>1188.00</ele>
   <time>2014-04-04T12:55:59Z</time>
  </trkpt>
  <trkpt lat="32.581894" lon="-1.179712">
   <ele>1187.00</ele>
   <time>2014-04-04T12:56:14Z</time>
  </trkpt>
  <trkpt lat="32.581891" lon="-1.179711">
   <ele>1186.00</ele>
   <time>2014-04-04T12:56:29Z</time>
  </trkpt>
  <trkpt lat="32.581891" lon="-1.179713">
   <ele>1186.00</ele>
   <time>2014-04-04T12:56:44Z</time>
  </trkpt>
  <trkpt lat="32.581887" lon="-1.179715">
   <ele>1185.00</ele>
   <time>2014-04-04T12:56:59Z</time>
  </trkpt>
  <trkpt lat="32.581886" lon="-1.179716">
   <ele>1185.00</ele>
   <time>2014-04-04T12:57:15Z</time>
  </trkpt>
  <trkpt lat="32.581883" lon="-1.179716">
   <ele>1185.00</ele>
   <time>2014-04-04T12:57:30Z</time>
  </trkpt>
  <trkpt lat="32.581881" lon="-1.179715">
   <ele>1185.00</ele>
   <time>2014-04-04T12:57:45Z</time>
  </trkpt>
  <trkpt lat="32.581879" lon="-1.179714">
   <ele>1185.00</ele>
   <time>2014-04-04T12:58:00Z</time>
  </trkpt>
  <trkpt lat="32.581879" lon="-1.179714">
   <ele>1185.00</ele>
   <time>2014-04-04T12:58:16Z</time>
  </trkpt>
  <trkpt lat="32.581879" lon="-1.179715">
   <ele>1185.00</ele>
   <time>2014-04-04T12:58:31Z</time>
  </trkpt>
  <trkpt lat="32.581880" lon="-1.179716">
   <ele>1185.00</ele>
   <time>2014-04-04T12:58:46Z</time>
  </trkpt>
  <trkpt lat="32.581881" lon="-1.179716">
   <ele>1185.00</ele>
   <time>2014-04-04T12:59:01Z</time>
  </trkpt>
  <trkpt lat="32.581882" lon="-1.179716">
   <ele>1185.00</ele>
   <time>2014-04-04T12:59:17Z</time>
  </trkpt>
  <trkpt lat="32.581883" lon="-1.179716">
   <ele>1185.00</ele>
   <time>2014-04-04T12:59:32Z</time>
  </trkpt>
  <trkpt lat="32.581885" lon="-1.179716">
   <ele>1185.00</ele>
   <time>2014-04-04T12:59:47Z</time>
  </trkpt>
  <trkpt lat="32.581887" lon="-1.179717">
   <ele>1185.00</ele>
   <time>2014-04-04T13:00:02Z</time>
  </trkpt>
  <trkpt lat="32.581889" lon="-1.179719">
   <ele>1185.00</ele>
   <time>2014-04-04T13:00:18Z</time>
  </trkpt>
  <trkpt lat="32.581890" lon="-1.179720">
   <ele>1185.00</ele>
   <time>2014-04-04T13:00:33Z</time>
  </trkpt>
  <trkpt lat="32.581891" lon="-1.179719">
   <ele>1185.00</ele>
   <time>2014-04-04T13:00:48Z</time>
  </trkpt>
  <trkpt lat="32.581891" lon="-1.179717">
   <ele>1185.00</ele>
   <time>2014-04-04T13:01:03Z</time>
  </trkpt>
  <trkpt lat="32.581892" lon="-1.179715">
   <ele>1185.00</ele>
   <time>2014-04-04T13:01:18Z</time>
  </trkpt>
  <trkpt lat="32.581893" lon="-1.179714">
   <ele>1185.00</ele>
   <time>2014-04-04T13:01:34Z</time>
  </trkpt>
  <trkpt lat="32.581893" lon="-1.179713">
   <ele>1185.00</ele>
   <time>2014-04-04T13:01:49Z</time>
  </trkpt>
  <trkpt lat="32.581894" lon="-1.179714">
   <ele>1185.00</ele>
   <time>2014-04-04T13:02:04Z</time>
  </trkpt>
  <trkpt lat="32.581892" lon="-1.179712">
   <ele>1185.00</ele>
   <time>2014-04-04T13:02:19Z</time>
  </trkpt>
  <trkpt lat="32.581895" lon="-1.179713">
   <ele>1185.00</ele>
   <time>2014-04-04T13:02:35Z</time>
  </trkpt>
  <trkpt lat="32.581894" lon="-1.179708">
   <ele>1185.00</ele>
   <time>2014-04-04T13:02:50Z</time>
  </trkpt>
  <trkpt lat="32.581895" lon="-1.179707">
   <ele>1185.00</ele>
   <time>2014-04-04T13:03:05Z</time>
  </trkpt>
  <trkpt lat="32.581896" lon="-1.179709">
   <ele>1185.00</ele>
   <time>2014-04-04T13:03:20Z</time>
  </trkpt>
  <trkpt lat="32.581896" lon="-1.179710">
   <ele>1185.00</ele>
   <time>2014-04-04T13:03:36Z</time>
  </trkpt>
  <trkpt lat="32.581898" lon="-1.179713">
   <ele>1185.00</ele>
   <time>2014-04-04T13:03:51Z</time>
  </trkpt>
  <trkpt lat="32.581898" lon="-1.179713">
   <ele>1185.00</ele>
   <time>2014-04-04T13:04:07Z</time>
  </trkpt>
  <trkpt lat="32.581898" lon="-1.179713">
   <ele>1185.00</ele>
   <time>2014-04-04T13:04:22Z</time>
  </trkpt>
  <trkpt lat="32.581896" lon="-1.179714">
   <ele>1185.00</ele>
   <time>2014-04-04T13:04:37Z</time>
  </trkpt>
  <trkpt lat="32.581898" lon="-1.179719">
   <ele>1185.00</ele>
   <time>2014-04-04T13:04:52Z</time>
  </trkpt>
  <trkpt lat="32.581897" lon="-1.179728">
   <ele>1184.00</ele>
   <time>2014-04-04T13:05:08Z</time>
  </trkpt>
  <trkpt lat="32.581899" lon="-1.179735">
   <ele>1183.00</ele>
   <time>2014-04-04T13:05:23Z</time>
  </trkpt>
  <trkpt lat="32.581900" lon="-1.179736">
   <ele>1183.00</ele>
   <time>2014-04-04T13:05:38Z</time>
  </trkpt>
  <trkpt lat="32.581898" lon="-1.179729">
   <ele>1184.00</ele>
   <time>2014-04-04T13:05:54Z</time>
  </trkpt>
  <trkpt lat="32.581898" lon="-1.179729">
   <ele>1184.00</ele>
   <time>2014-04-04T13:06:09Z</time>
  </trkpt>
  <trkpt lat="32.581903" lon="-1.179731">
   <ele>1184.00</ele>
   <time>2014-04-04T13:06:24Z</time>
  </trkpt>
  <trkpt lat="32.581907" lon="-1.179733">
   <ele>1184.00</ele>
   <time>2014-04-04T13:06:39Z</time>
  </trkpt>
  <trkpt lat="32.581908" lon="-1.179737">
   <ele>1184.00</ele>
   <time>2014-04-04T13:06:55Z</time>
  </trkpt>
  <trkpt lat="32.581911" lon="-1.179738">
   <ele>1184.00</ele>
   <time>2014-04-04T13:07:10Z</time>
  </trkpt>
  <trkpt lat="32.581913" lon="-1.179737">
   <ele>1184.00</ele>
   <time>2014-04-04T13:07:25Z</time>
  </trkpt>
  <trkpt lat="32.581911" lon="-1.179738">
   <ele>1184.00</ele>
   <time>2014-04-04T13:07:40Z</time>
  </trkpt>
  <trkpt lat="32.581914" lon="-1.179739">
   <ele>1185.00</ele>
   <time>2014-04-04T13:07:56Z</time>
  </trkpt>
  <trkpt lat="32.581915" lon="-1.179740">
   <ele>1185.00</ele>
   <time>2014-04-04T13:08:11Z</time>
  </trkpt>
  <trkpt lat="32.581918" lon="-1.179740">
   <ele>1185.00</ele>
   <time>2014-04-04T13:08:26Z</time>
  </trkpt>
  <trkpt lat="32.581920" lon="-1.179741">
   <ele>1185.00</ele>
   <time>2014-04-04T13:08:41Z</time>
  </trkpt>
  <trkpt lat="32.581920" lon="-1.179738">
   <ele>1185.00</ele>
   <time>2014-04-04T13:08:56Z</time>
  </trkpt>
  <trkpt lat="32.581924" lon="-1.179739">
   <ele>1185.00</ele>
   <time>2014-04-04T13:09:12Z</time>
  </trkpt>
  <trkpt lat="32.581924" lon="-1.179738">
   <ele>1186.00</ele>
   <time>2014-04-04T13:09:27Z</time>
  </trkpt>
  <trkpt lat="32.581923" lon="-1.179735">
   <ele>1186.00</ele>
   <time>2014-04-04T13:09:42Z</time>
  </trkpt>
  <trkpt lat="32.581922" lon="-1.179732">
   <ele>1187.00</ele>
   <time>2014-04-04T13:09:58Z</time>
  </trkpt>
  <trkpt lat="32.581923" lon="-1.179731">
   <ele>1187.00</ele>
   <time>2014-04-04T13:10:13Z</time>
  </trkpt>
  <trkpt lat="32.581926" lon="-1.179731">
   <ele>1187.00</ele>
   <time>2014-04-04T13:10:28Z</time>
  </trkpt>
  <trkpt lat="32.581927" lon="-1.179731">
   <ele>1187.00</ele>
   <time>2014-04-04T13:10:44Z</time>
  </trkpt>
  <trkpt lat="32.581927" lon="-1.179731">
   <ele>1187.00</ele>
   <time>2014-04-04T13:10:59Z</time>
  </trkpt>
  <trkpt lat="32.581928" lon="-1.179729">
   <ele>1187.00</ele>
   <time>2014-04-04T13:11:14Z</time>
  </trkpt>
  <trkpt lat="32.581927" lon="-1.179727">
   <ele>1187.00</ele>
   <time>2014-04-04T13:11:29Z</time>
  </trkpt>
  <trkpt lat="32.581927" lon="-1.179728">
   <ele>1188.00</ele>
   <time>2014-04-04T13:11:45Z</time>
  </trkpt>
  <trkpt lat="32.581927" lon="-1.179730">
   <ele>1187.00</ele>
   <time>2014-04-04T13:12:00Z</time>
  </trkpt>
  <trkpt lat="32.581924" lon="-1.179732">
   <ele>1187.00</ele>
   <time>2014-04-04T13:12:15Z</time>
  </trkpt>
  <trkpt lat="32.581923" lon="-1.179733">
   <ele>1186.00</ele>
   <time>2014-04-04T13:12:30Z</time>
  </trkpt>
  <trkpt lat="32.581921" lon="-1.179733">
   <ele>1186.00</ele>
   <time>2014-04-04T13:12:46Z</time>
  </trkpt>
  <trkpt lat="32.581925" lon="-1.179736">
   <ele>1187.00</ele>
   <time>2014-04-04T13:13:01Z</time>
  </trkpt>
  <trkpt lat="32.581940" lon="-1.179750">
   <ele>1190.00</ele>
   <time>2014-04-04T13:13:16Z</time>
  </trkpt>
  <trkpt lat="32.581947" lon="-1.179762">
   <ele>1192.00</ele>
   <time>2014-04-04T13:13:31Z</time>
  </trkpt>
  <trkpt lat="32.581956" lon="-1.179773">
   <ele>1192.00</ele>
   <time>2014-04-04T13:13:47Z</time>
  </trkpt>
  <trkpt lat="32.581963" lon="-1.179788">
   <ele>1192.00</ele>
   <time>2014-04-04T13:14:02Z</time>
  </trkpt>
  <trkpt lat="32.581971" lon="-1.179806">
   <ele>1191.00</ele>
   <time>2014-04-04T13:14:17Z</time>
  </trkpt>
  <trkpt lat="32.581980" lon="-1.179828">
   <ele>1189.00</ele>
   <time>2014-04-04T13:14:32Z</time>
  </trkpt>
  <trkpt lat="32.581988" lon="-1.179853">
   <ele>1188.00</ele>
   <time>2014-04-04T13:14:48Z</time>
  </trkpt>
  <trkpt lat="32.581996" lon="-1.179875">
   <ele>1186.00</ele>
   <time>2014-04-04T13:15:03Z</time>
  </trkpt>
  <trkpt lat="32.582004" lon="-1.179893">
   <ele>1184.00</ele>
   <time>2014-04-04T13:15:18Z</time>
  </trkpt>
  <trkpt lat="32.582012" lon="-1.179910">
   <ele>1183.00</ele>
   <time>2014-04-04T13:15:33Z</time>
  </trkpt>
  <trkpt lat="32.582019" lon="-1.179926">
   <ele>1181.00</ele>
   <time>2014-04-04T13:15:49Z</time>
  </trkpt>
  <trkpt lat="32.582025" lon="-1.179942">
   <ele>1180.00</ele>
   <time>2014-04-04T13:16:04Z</time>
  </trkpt>
  <trkpt lat="32.582031" lon="-1.179953">
   <ele>1179.00</ele>
   <time>2014-04-04T13:16:19Z</time>
  </trkpt>
  <trkpt lat="32.581975" lon="-1.179835">
   <ele>1185.00</ele>
   <time>2014-04-04T13:16:34Z</time>
  </trkpt>
  <trkpt lat="32.581953" lon="-1.179793">
   <ele>1187.00</ele>
   <time>2014-04-04T13:16:50Z</time>
  </trkpt>
  <trkpt lat="32.581946" lon="-1.179778">
   <ele>1187.00</ele>
   <time>2014-04-04T13:17:05Z</time>
  </trkpt>
  <trkpt lat="32.581943" lon="-1.179769">
   <ele>1187.00</ele>
   <time>2014-04-04T13:17:20Z</time>
  </trkpt>
  <trkpt lat="32.581942" lon="-1.179765">
   <ele>1187.00</ele>
   <time>2014-04-04T13:17:35Z</time>
  </trkpt>
  <trkpt lat="32.581941" lon="-1.179765">
   <ele>1186.00</ele>
   <time>2014-04-04T13:17:51Z</time>
  </trkpt>
  <trkpt lat="32.581941" lon="-1.179763">
   <ele>1186.00</ele>
   <time>2014-04-04T13:18:06Z</time>
  </trkpt>
  <trkpt lat="32.581941" lon="-1.179762">
   <ele>1186.00</ele>
   <time>2014-04-04T13:18:21Z</time>
  </trkpt>
  <trkpt lat="32.581942" lon="-1.179758">
   <ele>1186.00</ele>
   <time>2014-04-04T13:18:36Z</time>
  </trkpt>
  <trkpt lat="32.581942" lon="-1.179759">
   <ele>1186.00</ele>
   <time>2014-04-04T13:18:51Z</time>
  </trkpt>
  <trkpt lat="32.581941" lon="-1.179756">
   <ele>1187.00</ele>
   <time>2014-04-04T13:19:07Z</time>
  </trkpt>
  <trkpt lat="32.581940" lon="-1.179752">
   <ele>1187.00</ele>
   <time>2014-04-04T13:19:22Z</time>
  </trkpt>
  <trkpt lat="32.581939" lon="-1.179750">
   <ele>1188.00</ele>
   <time>2014-04-04T13:19:37Z</time>
  </trkpt>
  <trkpt lat="32.581938" lon="-1.179747">
   <ele>1188.00</ele>
   <time>2014-04-04T13:19:52Z</time>
  </trkpt>
  <trkpt lat="32.581936" lon="-1.179745">
   <ele>1189.00</ele>
   <time>2014-04-04T13:20:08Z</time>
  </trkpt>
  <trkpt lat="32.581937" lon="-1.179741">
   <ele>1189.00</ele>
   <time>2014-04-04T13:20:23Z</time>
  </trkpt>
  <trkpt lat="32.581935" lon="-1.179742">
   <ele>1190.00</ele>
   <time>2014-04-04T13:20:38Z</time>
  </trkpt>
  <trkpt lat="32.581933" lon="-1.179742">
   <ele>1190.00</ele>
   <time>2014-04-04T13:20:53Z</time>
  </trkpt>
  <trkpt lat="32.581931" lon="-1.179741">
   <ele>1190.00</ele>
   <time>2014-04-04T13:21:09Z</time>
  </trkpt>
  <trkpt lat="32.581929" lon="-1.179741">
   <ele>1190.00</ele>
   <time>2014-04-04T13:21:24Z</time>
  </trkpt>
  <trkpt lat="32.581928" lon="-1.179741">
   <ele>1190.00</ele>
   <time>2014-04-04T13:21:39Z</time>
  </trkpt>
  <trkpt lat="32.581928" lon="-1.179740">
   <ele>1190.00</ele>
   <time>2014-04-04T13:21:54Z</time>
  </trkpt>
  <trkpt lat="32.581929" lon="-1.179737">
   <ele>1190.00</ele>
   <time>2014-04-04T13:22:09Z</time>
  </trkpt>
  <trkpt lat="32.581929" lon="-1.179738">
   <ele>1190.00</ele>
   <time>2014-04-04T13:22:25Z</time>
  </trkpt>
  <trkpt lat="32.581930" lon="-1.179741">
   <ele>1189.00</ele>
   <time>2014-04-04T13:22:40Z</time>
  </trkpt>
  <trkpt lat="32.581932" lon="-1.179740">
   <ele>1189.00</ele>
   <time>2014-04-04T13:22:55Z</time>
  </trkpt>
  <trkpt lat="32.581934" lon="-1.179743">
   <ele>1189.00</ele>
   <time>2014-04-04T13:23:11Z</time>
  </trkpt>
  <trkpt lat="32.581933" lon="-1.179740">
   <ele>1188.00</ele>
   <time>2014-04-04T13:23:26Z</time>
  </trkpt>
  <trkpt lat="32.581935" lon="-1.179741">
   <ele>1188.00</ele>
   <time>2014-04-04T13:23:41Z</time>
  </trkpt>
  <trkpt lat="32.581935" lon="-1.179738">
   <ele>1188.00</ele>
   <time>2014-04-04T13:23:56Z</time>
  </trkpt>
  <trkpt lat="32.581936" lon="-1.179735">
   <ele>1188.00</ele>
   <time>2014-04-04T13:24:12Z</time>
  </trkpt>
  <trkpt lat="32.581940" lon="-1.179737">
   <ele>1187.00</ele>
   <time>2014-04-04T13:24:27Z</time>
  </trkpt>
  <trkpt lat="32.581941" lon="-1.179738">
   <ele>1187.00</ele>
   <time>2014-04-04T13:24:42Z</time>
  </trkpt>
  <trkpt lat="32.581942" lon="-1.179737">
   <ele>1187.00</ele>
   <time>2014-04-04T13:24:57Z</time>
  </trkpt>
  <trkpt lat="32.581944" lon="-1.179735">
   <ele>1187.00</ele>
   <time>2014-04-04T13:25:13Z</time>
  </trkpt>
  <trkpt lat="32.581944" lon="-1.179733">
   <ele>1187.00</ele>
   <time>2014-04-04T13:25:28Z</time>
  </trkpt>
  <trkpt lat="32.581944" lon="-1.179732">
   <ele>1187.00</ele>
   <time>2014-04-04T13:25:43Z</time>
  </trkpt>
  <trkpt lat="32.581945" lon="-1.179730">
   <ele>1188.00</ele>
   <time>2014-04-04T13:25:59Z</time>
  </trkpt>
  <trkpt lat="32.581946" lon="-1.179729">
   <ele>1188.00</ele>
   <time>2014-04-04T13:26:14Z</time>
  </trkpt>
  <trkpt lat="32.581944" lon="-1.179725">
   <ele>1188.00</ele>
   <time>2014-04-04T13:26:29Z</time>
  </trkpt>
  <trkpt lat="32.581942" lon="-1.179721">
   <ele>1189.00</ele>
   <time>2014-04-04T13:26:44Z</time>
  </trkpt>
  <trkpt lat="32.581941" lon="-1.179717">
   <ele>1190.00</ele>
   <time>2014-04-04T13:27:00Z</time>
  </trkpt>
  <trkpt lat="32.581947" lon="-1.179727">
   <ele>1193.00</ele>
   <time>2014-04-04T13:27:15Z</time>
  </trkpt>
  <trkpt lat="32.581948" lon="-1.179732">
   <ele>1195.00</ele>
   <time>2014-04-04T13:27:30Z</time>
  </trkpt>
  <trkpt lat="32.581949" lon="-1.179733">
   <ele>1196.00</ele>
   <time>2014-04-04T13:27:45Z</time>
  </trkpt>
  <trkpt lat="32.581949" lon="-1.179733">
   <ele>1197.00</ele>
   <time>2014-04-04T13:28:00Z</time>
  </trkpt>
  <trkpt lat="32.581950" lon="-1.179734">
   <ele>1198.00</ele>
   <time>2014-04-04T13:28:16Z</time>
  </trkpt>
  <trkpt lat="32.581950" lon="-1.179734">
   <ele>1198.00</ele>
   <time>2014-04-04T13:28:31Z</time>
  </trkpt>
  <trkpt lat="32.581951" lon="-1.179734">
   <ele>1198.00</ele>
   <time>2014-04-04T13:28:46Z</time>
  </trkpt>
  <trkpt lat="32.581951" lon="-1.179734">
   <ele>1198.00</ele>
   <time>2014-04-04T13:29:02Z</time>
  </trkpt>
  <trkpt lat="32.581950" lon="-1.179734">
   <ele>1198.00</ele>
   <time>2014-04-04T13:29:17Z</time>
  </trkpt>
  <trkpt lat="32.581949" lon="-1.179734">
   <ele>1198.00</ele>
   <time>2014-04-04T13:29:32Z</time>
  </trkpt>
  <trkpt lat="32.581949" lon="-1.179734">
   <ele>1198.00</ele>
   <time>2014-04-04T13:29:47Z</time>
  </trkpt>
  <trkpt lat="32.581950" lon="-1.179735">
   <ele>1198.00</ele>
   <time>2014-04-04T13:30:03Z</time>
  </trkpt>
  <trkpt lat="32.581950" lon="-1.179737">
   <ele>1198.00</ele>
   <time>2014-04-04T13:30:18Z</time>
  </trkpt>
  <trkpt lat="32.581951" lon="-1.179735">
   <ele>1198.00</ele>
   <time>2014-04-04T13:30:33Z</time>
  </trkpt>
  <trkpt lat="32.581952" lon="-1.179734">
   <ele>1198.00</ele>
   <time>2014-04-04T13:30:48Z</time>
  </trkpt>
  <trkpt lat="32.581952" lon="-1.179731">
   <ele>1198.00</ele>
   <time>2014-04-04T13:31:04Z</time>
  </trkpt>
  <trkpt lat="32.581952" lon="-1.179730">
   <ele>1198.00</ele>
   <time>2014-04-04T13:31:19Z</time>
  </trkpt>
  <trkpt lat="32.581951" lon="-1.179729">
   <ele>1198.00</ele>
   <time>2014-04-04T13:31:34Z</time>
  </trkpt>
  <trkpt lat="32.581952" lon="-1.179728">
   <ele>1198.00</ele>
   <time>2014-04-04T13:31:49Z</time>
  </trkpt>
  <trkpt lat="32.581953" lon="-1.179725">
   <ele>1197.00</ele>
   <time>2014-04-04T13:32:04Z</time>
  </trkpt>
  <trkpt lat="32.581954" lon="-1.179724">
   <ele>1196.00</ele>
   <time>2014-04-04T13:32:20Z</time>
  </trkpt>
  <trkpt lat="32.581955" lon="-1.179726">
   <ele>1196.00</ele>
   <time>2014-04-04T13:32:35Z</time>
  </trkpt>
  <trkpt lat="32.581955" lon="-1.179728">
   <ele>1195.00</ele>
   <time>2014-04-04T13:32:50Z</time>
  </trkpt>
  <trkpt lat="32.581958" lon="-1.179731">
   <ele>1194.00</ele>
   <time>2014-04-04T13:33:05Z</time>
  </trkpt>
  <trkpt lat="32.581961" lon="-1.179734">
   <ele>1194.00</ele>
   <time>2014-04-04T13:33:21Z</time>
  </trkpt>
  <trkpt lat="32.581963" lon="-1.179735">
   <ele>1194.00</ele>
   <time>2014-04-04T13:33:36Z</time>
  </trkpt>
  <trkpt lat="32.581965" lon="-1.179735">
   <ele>1194.00</ele>
   <time>2014-04-04T13:33:51Z</time>
  </trkpt>
  <trkpt lat="32.581965" lon="-1.179735">
   <ele>1193.00</ele>
   <time>2014-04-04T13:34:06Z</time>
  </trkpt>
  <trkpt lat="32.581964" lon="-1.179735">
   <ele>1193.00</ele>
   <time>2014-04-04T13:34:22Z</time>
  </trkpt>
  <trkpt lat="32.581964" lon="-1.179733">
   <ele>1194.00</ele>
   <time>2014-04-04T13:34:37Z</time>
  </trkpt>
  <trkpt lat="32.581964" lon="-1.179732">
   <ele>1194.00</ele>
   <time>2014-04-04T13:34:52Z</time>
  </trkpt>
  <trkpt lat="32.581964" lon="-1.179732">
   <ele>1194.00</ele>
   <time>2014-04-04T13:35:07Z</time>
  </trkpt>
  <trkpt lat="32.581964" lon="-1.179733">
   <ele>1194.00</ele>
   <time>2014-04-04T13:35:22Z</time>
  </trkpt>
  <trkpt lat="32.581964" lon="-1.179735">
   <ele>1194.00</ele>
   <time>2014-04-04T13:35:38Z</time>
  </trkpt>
  <trkpt lat="32.581964" lon="-1.179736">
   <ele>1194.00</ele>
   <time>2014-04-04T13:35:53Z</time>
  </trkpt>
  <trkpt lat="32.581963" lon="-1.179737">
   <ele>1194.00</ele>
   <time>2014-04-04T13:36:08Z</time>
  </trkpt>
  <trkpt lat="32.581964" lon="-1.179737">
   <ele>1194.00</ele>
   <time>2014-04-04T13:36:24Z</time>
  </trkpt>
  <trkpt lat="32.581965" lon="-1.179737">
   <ele>1194.00</ele>
   <time>2014-04-04T13:36:39Z</time>
  </trkpt>
  <trkpt lat="32.581966" lon="-1.179737">
   <ele>1194.00</ele>
   <time>2014-04-04T13:36:54Z</time>
  </trkpt>
  <trkpt lat="32.581966" lon="-1.179740">
   <ele>1195.00</ele>
   <time>2014-04-04T13:37:09Z</time>
  </trkpt>
  <trkpt lat="32.581965" lon="-1.179740">
   <ele>1196.00</ele>
   <time>2014-04-04T13:37:25Z</time>
  </trkpt>
  <trkpt lat="32.581965" lon="-1.179739">
   <ele>1196.00</ele>
   <time>2014-04-04T13:37:40Z</time>
  </trkpt>
  <trkpt lat="32.581966" lon="-1.179739">
   <ele>1197.00</ele>
   <time>2014-04-04T13:37:55Z</time>
  </trkpt>
  <trkpt lat="32.581967" lon="-1.179739">
   <ele>1197.00</ele>
   <time>2014-04-04T13:38:10Z</time>
  </trkpt>
  <trkpt lat="32.581968" lon="-1.179738">
   <ele>1197.00</ele>
   <time>2014-04-04T13:38:26Z</time>
  </trkpt>
  <trkpt lat="32.581968" lon="-1.179738">
   <ele>1197.00</ele>
   <time>2014-04-04T13:38:41Z</time>
  </trkpt>
  <trkpt lat="32.581968" lon="-1.179738">
   <ele>1197.00</ele>
   <time>2014-04-04T13:38:56Z</time>
  </trkpt>
  <trkpt lat="32.581967" lon="-1.179738">
   <ele>1197.00</ele>
   <time>2014-04-04T13:39:11Z</time>
  </trkpt>
  <trkpt lat="32.581966" lon="-1.179737">
   <ele>1197.00</ele>
   <time>2014-04-04T13:39:26Z</time>
  </trkpt>
  <trkpt lat="32.581967" lon="-1.179738">
   <ele>1197.00</ele>
   <time>2014-04-04T13:39:42Z</time>
  </trkpt>
  <trkpt lat="32.581967" lon="-1.179738">
   <ele>1197.00</ele>
   <time>2014-04-04T13:39:57Z</time>
  </trkpt>
  <trkpt lat="32.581967" lon="-1.179738">
   <ele>1197.00</ele>
   <time>2014-04-04T13:40:12Z</time>
  </trkpt>
  <trkpt lat="32.581967" lon="-1.179738">
   <ele>1197.00</ele>
   <time>2014-04-04T13:40:27Z</time>
  </trkpt>
  <trkpt lat="32.581968" lon="-1.179738">
   <ele>1197.00</ele>
   <time>2014-04-04T13:40:43Z</time>
  </trkpt>
  <trkpt lat="32.581968" lon="-1.179737">
   <ele>1197.00</ele>
   <time>2014-04-04T13:40:58Z</time>
  </trkpt>
  <trkpt lat="32.581969" lon="-1.179736">
   <ele>1197.00</ele>
   <time>2014-04-04T13:41:13Z</time>
  </trkpt>
  <trkpt lat="32.581969" lon="-1.179734">
   <ele>1197.00</ele>
   <time>2014-04-04T13:41:29Z</time>
  </trkpt>
  <trkpt lat="32.581970" lon="-1.179733">
   <ele>1197.00</ele>
   <time>2014-04-04T13:41:41Z</time>
  </trkpt>
  <trkpt lat="32.581969" lon="-1.179731">
   <ele>1197.00</ele>
   <time>2014-04-04T13:42:00Z</time>
  </trkpt>
  <trkpt lat="32.581971" lon="-1.179728">
   <ele>1197.00</ele>
   <time>2014-04-04T13:42:15Z</time>
  </trkpt>
  <trkpt lat="32.581971" lon="-1.179725">
   <ele>1197.00</ele>
   <time>2014-04-04T13:42:30Z</time>
  </trkpt>
  <trkpt lat="32.581970" lon="-1.179725">
   <ele>1196.00</ele>
   <time>2014-04-04T13:42:46Z</time>
  </trkpt>
  <trkpt lat="32.581972" lon="-1.179725">
   <ele>1196.00</ele>
   <time>2014-04-04T13:43:01Z</time>
  </trkpt>
  <trkpt lat="32.581972" lon="-1.179724">
   <ele>1196.00</ele>
   <time>2014-04-04T13:43:16Z</time>
  </trkpt>
  <trkpt lat="32.581971" lon="-1.179724">
   <ele>1196.00</ele>
   <time>2014-04-04T13:43:31Z</time>
  </trkpt>
  <trkpt lat="32.581970" lon="-1.179724">
   <ele>1196.00</ele>
   <time>2014-04-04T13:43:46Z</time>
  </trkpt>
  <trkpt lat="32.581968" lon="-1.179724">
   <ele>1197.00</ele>
   <time>2014-04-04T13:44:02Z</time>
  </trkpt>
  <trkpt lat="32.582151" lon="-1.179757">
   <ele>1196.00</ele>
   <time>2014-04-04T13:44:17Z</time>
  </trkpt>
  <trkpt lat="32.582273" lon="-1.179913">
   <ele>1198.00</ele>
   <time>2014-04-04T13:44:24Z</time>
  </trkpt>
  <trkpt lat="32.582451" lon="-1.179896">
   <ele>1199.00</ele>
   <time>2014-04-04T13:44:31Z</time>
  </trkpt>
  <trkpt lat="32.582655" lon="-1.179905">
   <ele>1200.00</ele>
   <time>2014-04-04T13:44:38Z</time>
  </trkpt>
  <trkpt lat="32.582858" lon="-1.179954">
   <ele>1201.00</ele>
   <time>2014-04-04T13:44:44Z</time>
  </trkpt>
  <trkpt lat="32.583038" lon="-1.179913">
   <ele>1201.00</ele>
   <time>2014-04-04T13:44:49Z</time>
  </trkpt>
  <trkpt lat="32.583246" lon="-1.179878">
   <ele>1201.00</ele>
   <time>2014-04-04T13:44:54Z</time>
  </trkpt>
  <trkpt lat="32.583430" lon="-1.179862">
   <ele>1201.00</ele>
   <time>2014-04-04T13:44:58Z</time>
  </trkpt>
  <trkpt lat="32.583706" lon="-1.179839">
   <ele>1202.00</ele>
   <time>2014-04-04T13:45:04Z</time>
  </trkpt>
  <trkpt lat="32.583939" lon="-1.179836">
   <ele>1202.00</ele>
   <time>2014-04-04T13:45:09Z</time>
  </trkpt>
  <trkpt lat="32.584135" lon="-1.179849">
   <ele>1202.00</ele>
   <time>2014-04-04T13:45:13Z</time>
  </trkpt>
  <trkpt lat="32.584331" lon="-1.179888">
   <ele>1203.00</ele>
   <time>2014-04-04T13:45:17Z</time>
  </trkpt>
  <trkpt lat="32.584505" lon="-1.179958">
   <ele>1203.00</ele>
   <time>2014-04-04T13:45:21Z</time>
  </trkpt>
  <trkpt lat="32.584678" lon="-1.180117">
   <ele>1203.00</ele>
   <time>2014-04-04T13:45:26Z</time>
  </trkpt>
  <trkpt lat="32.584792" lon="-1.180288">
   <ele>1203.00</ele>
   <time>2014-04-04T13:45:31Z</time>
  </trkpt>
  <trkpt lat="32.584822" lon="-1.180379">
   <ele>1202.00</ele>
   <time>2014-04-04T13:45:47Z</time>
  </trkpt>
  <trkpt lat="32.584821" lon="-1.180381">
   <ele>1202.00</ele>
   <time>2014-04-04T13:46:02Z</time>
  </trkpt>
  <trkpt lat="32.584823" lon="-1.180382">
   <ele>1202.00</ele>
   <time>2014-04-04T13:46:17Z</time>
  </trkpt>
  <trkpt lat="32.584824" lon="-1.180383">
   <ele>1202.00</ele>
   <time>2014-04-04T13:46:32Z</time>
  </trkpt>
  <trkpt lat="32.584825" lon="-1.180386">
   <ele>1202.00</ele>
   <time>2014-04-04T13:46:47Z</time>
  </trkpt>
  <trkpt lat="32.584828" lon="-1.180385">
   <ele>1202.00</ele>
   <time>2014-04-04T13:47:03Z</time>
  </trkpt>
  <trkpt lat="32.584897" lon="-1.180600">
   <ele>1201.00</ele>
   <time>2014-04-04T13:47:14Z</time>
  </trkpt>
  <trkpt lat="32.584977" lon="-1.180801">
   <ele>1200.00</ele>
   <time>2014-04-04T13:47:18Z</time>
  </trkpt>
  <trkpt lat="32.585079" lon="-1.181041">
   <ele>1200.00</ele>
   <time>2014-04-04T13:47:22Z</time>
  </trkpt>
  <trkpt lat="32.585341" lon="-1.181571">
   <ele>1201.00</ele>
   <time>2014-04-04T13:47:30Z</time>
  </trkpt>
  <trkpt lat="32.585431" lon="-1.181776">
   <ele>1201.00</ele>
   <time>2014-04-04T13:47:33Z</time>
  </trkpt>
  <trkpt lat="32.585517" lon="-1.182011">
   <ele>1202.00</ele>
   <time>2014-04-04T13:47:36Z</time>
  </trkpt>
  <trkpt lat="32.585605" lon="-1.182264">
   <ele>1202.00</ele>
   <time>2014-04-04T13:47:39Z</time>
  </trkpt>
  <trkpt lat="32.585739" lon="-1.182602">
   <ele>1203.00</ele>
   <time>2014-04-04T13:47:43Z</time>
  </trkpt>
  <trkpt lat="32.585820" lon="-1.182872">
   <ele>1204.00</ele>
   <time>2014-04-04T13:47:46Z</time>
  </trkpt>
  <trkpt lat="32.586202" lon="-1.184280">
   <ele>1205.00</ele>
   <time>2014-04-04T13:48:00Z</time>
  </trkpt>
  <trkpt lat="32.586270" lon="-1.184485">
   <ele>1206.00</ele>
   <time>2014-04-04T13:48:02Z</time>
  </trkpt>
  <trkpt lat="32.586370" lon="-1.184781">
   <ele>1206.00</ele>
   <time>2014-04-04T13:48:05Z</time>
  </trkpt>
  <trkpt lat="32.586413" lon="-1.185056">
   <ele>1207.00</ele>
   <time>2014-04-04T13:48:08Z</time>
  </trkpt>
  <trkpt lat="32.586360" lon="-1.185321">
   <ele>1206.00</ele>
   <time>2014-04-04T13:48:11Z</time>
  </trkpt>
  <trkpt lat="32.586006" lon="-1.186169">
   <ele>1205.00</ele>
   <time>2014-04-04T13:48:21Z</time>
  </trkpt>
  <trkpt lat="32.585908" lon="-1.186407">
   <ele>1206.00</ele>
   <time>2014-04-04T13:48:24Z</time>
  </trkpt>
  <trkpt lat="32.585731" lon="-1.186888">
   <ele>1206.00</ele>
   <time>2014-04-04T13:48:30Z</time>
  </trkpt>
  <trkpt lat="32.585567" lon="-1.187369">
   <ele>1205.00</ele>
   <time>2014-04-04T13:48:35Z</time>
  </trkpt>
  <trkpt lat="32.585517" lon="-1.187579">
   <ele>1205.00</ele>
   <time>2014-04-04T13:48:37Z</time>
  </trkpt>
  <trkpt lat="32.585481" lon="-1.187796">
   <ele>1205.00</ele>
   <time>2014-04-04T13:48:39Z</time>
  </trkpt>
  <trkpt lat="32.585456" lon="-1.188018">
   <ele>1205.00</ele>
   <time>2014-04-04T13:48:41Z</time>
  </trkpt>
  <trkpt lat="32.585448" lon="-1.188242">
   <ele>1205.00</ele>
   <time>2014-04-04T13:48:43Z</time>
  </trkpt>
  <trkpt lat="32.585442" lon="-1.188795">
   <ele>1206.00</ele>
   <time>2014-04-04T13:48:48Z</time>
  </trkpt>
  <trkpt lat="32.585410" lon="-1.189107">
   <ele>1206.00</ele>
   <time>2014-04-04T13:48:51Z</time>
  </trkpt>
  <trkpt lat="32.585395" lon="-1.189412">
   <ele>1206.00</ele>
   <time>2014-04-04T13:48:54Z</time>
  </trkpt>
  <trkpt lat="32.585367" lon="-1.189711">
   <ele>1206.00</ele>
   <time>2014-04-04T13:48:57Z</time>
  </trkpt>
  <trkpt lat="32.585272" lon="-1.189963">
   <ele>1207.00</ele>
   <time>2014-04-04T13:49:00Z</time>
  </trkpt>
  <trkpt lat="32.585103" lon="-1.190115">
   <ele>1206.00</ele>
   <time>2014-04-04T13:49:03Z</time>
  </trkpt>
  <trkpt lat="32.584921" lon="-1.190096">
   <ele>1206.00</ele>
   <time>2014-04-04T13:49:06Z</time>
  </trkpt>
  <trkpt lat="32.584786" lon="-1.189948">
   <ele>1207.00</ele>
   <time>2014-04-04T13:49:09Z</time>
  </trkpt>
  <trkpt lat="32.584643" lon="-1.189746">
   <ele>1207.00</ele>
   <time>2014-04-04T13:49:13Z</time>
  </trkpt>
  <trkpt lat="32.584453" lon="-1.189592">
   <ele>1205.00</ele>
   <time>2014-04-04T13:49:17Z</time>
  </trkpt>
  <trkpt lat="32.584275" lon="-1.189454">
   <ele>1205.00</ele>
   <time>2014-04-04T13:49:20Z</time>
  </trkpt>
  <trkpt lat="32.584068" lon="-1.189329">
   <ele>1205.00</ele>
   <time>2014-04-04T13:49:23Z</time>
  </trkpt>
  <trkpt lat="32.583841" lon="-1.189247">
   <ele>1205.00</ele>
   <time>2014-04-04T13:49:26Z</time>
  </trkpt>
  <trkpt lat="32.583543" lon="-1.189182">
   <ele>1204.00</ele>
   <time>2014-04-04T13:49:30Z</time>
  </trkpt>
  <trkpt lat="32.583271" lon="-1.189095">
   <ele>1205.00</ele>
   <time>2014-04-04T13:49:34Z</time>
  </trkpt>
  <trkpt lat="32.583095" lon="-1.188991">
   <ele>1206.00</ele>
   <time>2014-04-04T13:49:38Z</time>
  </trkpt>
  <trkpt lat="32.582935" lon="-1.188848">
   <ele>1207.00</ele>
   <time>2014-04-04T13:49:42Z</time>
  </trkpt>
  <trkpt lat="32.582737" lon="-1.188825">
   <ele>1207.00</ele>
   <time>2014-04-04T13:49:46Z</time>
  </trkpt>
  <trkpt lat="32.582603" lon="-1.189004">
   <ele>1206.00</ele>
   <time>2014-04-04T13:49:50Z</time>
  </trkpt>
  <trkpt lat="32.582469" lon="-1.189290">
   <ele>1207.00</ele>
   <time>2014-04-04T13:49:55Z</time>
  </trkpt>
  <trkpt lat="32.582421" lon="-1.189537">
   <ele>1207.00</ele>
   <time>2014-04-04T13:50:00Z</time>
  </trkpt>
  <trkpt lat="32.582412" lon="-1.189793">
   <ele>1208.00</ele>
   <time>2014-04-04T13:50:05Z</time>
  </trkpt>
  <trkpt lat="32.582395" lon="-1.190033">
   <ele>1209.00</ele>
   <time>2014-04-04T13:50:10Z</time>
  </trkpt>
  <trkpt lat="32.582255" lon="-1.190183">
   <ele>1208.00</ele>
   <time>2014-04-04T13:50:15Z</time>
  </trkpt>
  <trkpt lat="32.582144" lon="-1.190358">
   <ele>1208.00</ele>
   <time>2014-04-04T13:50:19Z</time>
  </trkpt>
  <trkpt lat="32.582009" lon="-1.190533">
   <ele>1207.00</ele>
   <time>2014-04-04T13:50:23Z</time>
  </trkpt>
  <trkpt lat="32.581898" lon="-1.190771">
   <ele>1207.00</ele>
   <time>2014-04-04T13:50:27Z</time>
  </trkpt>
  <trkpt lat="32.581755" lon="-1.191118">
   <ele>1207.00</ele>
   <time>2014-04-04T13:50:32Z</time>
  </trkpt>
  <trkpt lat="32.581617" lon="-1.191471">
   <ele>1207.00</ele>
   <time>2014-04-04T13:50:37Z</time>
  </trkpt>
  <trkpt lat="32.581427" lon="-1.191620">
   <ele>1207.00</ele>
   <time>2014-04-04T13:50:41Z</time>
  </trkpt>
  <trkpt lat="32.581243" lon="-1.191633">
   <ele>1206.00</ele>
   <time>2014-04-04T13:50:44Z</time>
  </trkpt>
  <trkpt lat="32.581026" lon="-1.191678">
   <ele>1206.00</ele>
   <time>2014-04-04T13:50:48Z</time>
  </trkpt>
  <trkpt lat="32.580800" lon="-1.191734">
   <ele>1203.00</ele>
   <time>2014-04-04T13:50:52Z</time>
  </trkpt>
  <trkpt lat="32.580567" lon="-1.191710">
   <ele>1202.00</ele>
   <time>2014-04-04T13:50:56Z</time>
  </trkpt>
  <trkpt lat="32.580356" lon="-1.191738">
   <ele>1201.00</ele>
   <time>2014-04-04T13:51:00Z</time>
  </trkpt>
  <trkpt lat="32.580180" lon="-1.191670">
   <ele>1201.00</ele>
   <time>2014-04-04T13:51:04Z</time>
  </trkpt>
  <trkpt lat="32.579973" lon="-1.191596">
   <ele>1201.00</ele>
   <time>2014-04-04T13:51:08Z</time>
  </trkpt>
  <trkpt lat="32.579790" lon="-1.191661">
   <ele>1202.00</ele>
   <time>2014-04-04T13:51:12Z</time>
  </trkpt>
  <trkpt lat="32.579547" lon="-1.191805">
   <ele>1201.00</ele>
   <time>2014-04-04T13:51:17Z</time>
  </trkpt>
  <trkpt lat="32.579385" lon="-1.191916">
   <ele>1201.00</ele>
   <time>2014-04-04T13:51:20Z</time>
  </trkpt>
  <trkpt lat="32.579225" lon="-1.192054">
   <ele>1200.00</ele>
   <time>2014-04-04T13:51:23Z</time>
  </trkpt>
  <trkpt lat="32.579086" lon="-1.192226">
   <ele>1200.00</ele>
   <time>2014-04-04T13:51:26Z</time>
  </trkpt>
  <trkpt lat="32.578911" lon="-1.192469">
   <ele>1200.00</ele>
   <time>2014-04-04T13:51:30Z</time>
  </trkpt>
  <trkpt lat="32.578775" lon="-1.192646">
   <ele>1199.00</ele>
   <time>2014-04-04T13:51:33Z</time>
  </trkpt>
  <trkpt lat="32.578696" lon="-1.192878">
   <ele>1199.00</ele>
   <time>2014-04-04T13:51:36Z</time>
  </trkpt>
  <trkpt lat="32.578671" lon="-1.193152">
   <ele>1199.00</ele>
   <time>2014-04-04T13:51:39Z</time>
  </trkpt>
  <trkpt lat="32.578693" lon="-1.193449">
   <ele>1200.00</ele>
   <time>2014-04-04T13:51:42Z</time>
  </trkpt>
  <trkpt lat="32.578712" lon="-1.193743">
   <ele>1200.00</ele>
   <time>2014-04-04T13:51:45Z</time>
  </trkpt>
  <trkpt lat="32.578731" lon="-1.194031">
   <ele>1201.00</ele>
   <time>2014-04-04T13:51:48Z</time>
  </trkpt>
  <trkpt lat="32.578766" lon="-1.194329">
   <ele>1201.00</ele>
   <time>2014-04-04T13:51:51Z</time>
  </trkpt>
  <trkpt lat="32.578780" lon="-1.194639">
   <ele>1201.00</ele>
   <time>2014-04-04T13:51:54Z</time>
  </trkpt>
  <trkpt lat="32.578805" lon="-1.196264">
   <ele>1203.00</ele>
   <time>2014-04-04T13:52:09Z</time>
  </trkpt>
  <trkpt lat="32.578809" lon="-1.196579">
   <ele>1203.00</ele>
   <time>2014-04-04T13:52:12Z</time>
  </trkpt>
  <trkpt lat="32.578795" lon="-1.196895">
   <ele>1203.00</ele>
   <time>2014-04-04T13:52:15Z</time>
  </trkpt>
  <trkpt lat="32.578749" lon="-1.197198">
   <ele>1203.00</ele>
   <time>2014-04-04T13:52:18Z</time>
  </trkpt>
  <trkpt lat="32.578701" lon="-1.197509">
   <ele>1204.00</ele>
   <time>2014-04-04T13:52:21Z</time>
  </trkpt>
  <trkpt lat="32.578642" lon="-1.198184">
   <ele>1204.00</ele>
   <time>2014-04-04T13:52:27Z</time>
  </trkpt>
  <trkpt lat="32.578641" lon="-1.198416">
   <ele>1204.00</ele>
   <time>2014-04-04T13:52:29Z</time>
  </trkpt>
  <trkpt lat="32.578674" lon="-1.198645">
   <ele>1205.00</ele>
   <time>2014-04-04T13:52:31Z</time>
  </trkpt>
  <trkpt lat="32.578733" lon="-1.198860">
   <ele>1205.00</ele>
   <time>2014-04-04T13:52:33Z</time>
  </trkpt>
  <trkpt lat="32.578846" lon="-1.199133">
   <ele>1204.00</ele>
   <time>2014-04-04T13:52:36Z</time>
  </trkpt>
  <trkpt lat="32.578943" lon="-1.199337">
   <ele>1204.00</ele>
   <time>2014-04-04T13:52:39Z</time>
  </trkpt>
  <trkpt lat="32.578961" lon="-1.199544">
   <ele>1205.00</ele>
   <time>2014-04-04T13:52:45Z</time>
  </trkpt>
  <trkpt lat="32.578880" lon="-1.199801">
   <ele>1205.00</ele>
   <time>2014-04-04T13:52:50Z</time>
  </trkpt>
  <trkpt lat="32.578806" lon="-1.200000">
   <ele>1205.00</ele>
   <time>2014-04-04T13:52:53Z</time>
  </trkpt>
  <trkpt lat="32.578702" lon="-1.200187">
   <ele>1205.00</ele>
   <time>2014-04-04T13:52:56Z</time>
  </trkpt>
  <trkpt lat="32.578572" lon="-1.200376">
   <ele>1204.00</ele>
   <time>2014-04-04T13:52:59Z</time>
  </trkpt>
  <trkpt lat="32.578439" lon="-1.200576">
   <ele>1203.00</ele>
   <time>2014-04-04T13:53:02Z</time>
  </trkpt>
  <trkpt lat="32.578325" lon="-1.200780">
   <ele>1202.00</ele>
   <time>2014-04-04T13:53:05Z</time>
  </trkpt>
  <trkpt lat="32.578253" lon="-1.201038">
   <ele>1202.00</ele>
   <time>2014-04-04T13:53:08Z</time>
  </trkpt>
  <trkpt lat="32.578221" lon="-1.201323">
   <ele>1203.00</ele>
   <time>2014-04-04T13:53:11Z</time>
  </trkpt>
  <trkpt lat="32.578188" lon="-1.201580">
   <ele>1204.00</ele>
   <time>2014-04-04T13:53:14Z</time>
  </trkpt>
  <trkpt lat="32.578146" lon="-1.201809">
   <ele>1205.00</ele>
   <time>2014-04-04T13:53:17Z</time>
  </trkpt>
  <trkpt lat="32.578057" lon="-1.202027">
   <ele>1205.00</ele>
   <time>2014-04-04T13:53:20Z</time>
  </trkpt>
  <trkpt lat="32.577970" lon="-1.202265">
   <ele>1206.00</ele>
   <time>2014-04-04T13:53:23Z</time>
  </trkpt>
  <trkpt lat="32.577947" lon="-1.202541">
   <ele>1206.00</ele>
   <time>2014-04-04T13:53:26Z</time>
  </trkpt>
  <trkpt lat="32.577932" lon="-1.202966">
   <ele>1207.00</ele>
   <time>2014-04-04T13:53:31Z</time>
  </trkpt>
  <trkpt lat="32.577933" lon="-1.203318">
   <ele>1208.00</ele>
   <time>2014-04-04T13:53:35Z</time>
  </trkpt>
  <trkpt lat="32.577890" lon="-1.203563">
   <ele>1208.00</ele>
   <time>2014-04-04T13:53:38Z</time>
  </trkpt>
  <trkpt lat="32.577837" lon="-1.203806">
   <ele>1209.00</ele>
   <time>2014-04-04T13:53:41Z</time>
  </trkpt>
  <trkpt lat="32.577803" lon="-1.204045">
   <ele>1209.00</ele>
   <time>2014-04-04T13:53:44Z</time>
  </trkpt>
  <trkpt lat="32.577726" lon="-1.204256">
   <ele>1209.00</ele>
   <time>2014-04-04T13:53:47Z</time>
  </trkpt>
  <trkpt lat="32.577550" lon="-1.204377">
   <ele>1210.00</ele>
   <time>2014-04-04T13:53:51Z</time>
  </trkpt>
  <trkpt lat="32.577339" lon="-1.204368">
   <ele>1209.00</ele>
   <time>2014-04-04T13:53:56Z</time>
  </trkpt>
  <trkpt lat="32.577153" lon="-1.204375">
   <ele>1207.00</ele>
   <time>2014-04-04T13:54:00Z</time>
  </trkpt>
  <trkpt lat="32.576940" lon="-1.204377">
   <ele>1206.00</ele>
   <time>2014-04-04T13:54:04Z</time>
  </trkpt>
  <trkpt lat="32.576718" lon="-1.204400">
   <ele>1205.00</ele>
   <time>2014-04-04T13:54:08Z</time>
  </trkpt>
  <trkpt lat="32.576534" lon="-1.204511">
   <ele>1205.00</ele>
   <time>2014-04-04T13:54:12Z</time>
  </trkpt>
  <trkpt lat="32.576412" lon="-1.204676">
   <ele>1203.00</ele>
   <time>2014-04-04T13:54:16Z</time>
  </trkpt>
  <trkpt lat="32.576261" lon="-1.204855">
   <ele>1202.00</ele>
   <time>2014-04-04T13:54:21Z</time>
  </trkpt>
  <trkpt lat="32.576081" lon="-1.205014">
   <ele>1202.00</ele>
   <time>2014-04-04T13:54:26Z</time>
  </trkpt>
  <trkpt lat="32.575931" lon="-1.205192">
   <ele>1202.00</ele>
   <time>2014-04-04T13:54:30Z</time>
  </trkpt>
  <trkpt lat="32.575844" lon="-1.205394">
   <ele>1202.00</ele>
   <time>2014-04-04T13:54:33Z</time>
  </trkpt>
  <trkpt lat="32.575766" lon="-1.205608">
   <ele>1202.00</ele>
   <time>2014-04-04T13:54:36Z</time>
  </trkpt>
  <trkpt lat="32.575672" lon="-1.205811">
   <ele>1203.00</ele>
   <time>2014-04-04T13:54:39Z</time>
  </trkpt>
  <trkpt lat="32.575540" lon="-1.205989">
   <ele>1202.00</ele>
   <time>2014-04-04T13:54:42Z</time>
  </trkpt>
  <trkpt lat="32.575373" lon="-1.206068">
   <ele>1203.00</ele>
   <time>2014-04-04T13:54:45Z</time>
  </trkpt>
  <trkpt lat="32.575139" lon="-1.206035">
   <ele>1204.00</ele>
   <time>2014-04-04T13:54:49Z</time>
  </trkpt>
  <trkpt lat="32.574941" lon="-1.206071">
   <ele>1204.00</ele>
   <time>2014-04-04T13:54:52Z</time>
  </trkpt>
  <trkpt lat="32.574687" lon="-1.206221">
   <ele>1203.00</ele>
   <time>2014-04-04T13:54:56Z</time>
  </trkpt>
  <trkpt lat="32.574473" lon="-1.206260">
   <ele>1203.00</ele>
   <time>2014-04-04T13:54:59Z</time>
  </trkpt>
  <trkpt lat="32.574238" lon="-1.206248">
   <ele>1204.00</ele>
   <time>2014-04-04T13:55:02Z</time>
  </trkpt>
  <trkpt lat="32.574000" lon="-1.206194">
   <ele>1204.00</ele>
   <time>2014-04-04T13:55:05Z</time>
  </trkpt>
  <trkpt lat="32.573759" lon="-1.206125">
   <ele>1205.00</ele>
   <time>2014-04-04T13:55:08Z</time>
  </trkpt>
  <trkpt lat="32.573540" lon="-1.206058">
   <ele>1205.00</ele>
   <time>2014-04-04T13:55:11Z</time>
  </trkpt>
  <trkpt lat="32.573346" lon="-1.205918">
   <ele>1205.00</ele>
   <time>2014-04-04T13:55:14Z</time>
  </trkpt>
  <trkpt lat="32.573038" lon="-1.205642">
   <ele>1205.00</ele>
   <time>2014-04-04T13:55:19Z</time>
  </trkpt>
  <trkpt lat="32.572835" lon="-1.205502">
   <ele>1205.00</ele>
   <time>2014-04-04T13:55:22Z</time>
  </trkpt>
  <trkpt lat="32.572611" lon="-1.205336">
   <ele>1206.00</ele>
   <time>2014-04-04T13:55:25Z</time>
  </trkpt>
  <trkpt lat="32.572453" lon="-1.205188">
   <ele>1206.00</ele>
   <time>2014-04-04T13:55:27Z</time>
  </trkpt>
  <trkpt lat="32.571024" lon="-1.203763">
   <ele>1205.00</ele>
   <time>2014-04-04T13:55:42Z</time>
  </trkpt>
  <trkpt lat="32.569362" lon="-1.202115">
   <ele>1205.00</ele>
   <time>2014-04-04T13:55:58Z</time>
  </trkpt>
  <trkpt lat="32.567858" lon="-1.200620">
   <ele>1205.00</ele>
   <time>2014-04-04T13:56:13Z</time>
  </trkpt>
  <trkpt lat="32.566107" lon="-1.198874">
   <ele>1200.00</ele>
   <time>2014-04-04T13:56:28Z</time>
  </trkpt>
  <trkpt lat="32.565039" lon="-1.197790">
   <ele>1198.00</ele>
   <time>2014-04-04T13:56:37Z</time>
  </trkpt>
  <trkpt lat="32.564839" lon="-1.197527">
   <ele>1197.00</ele>
   <time>2014-04-04T13:56:39Z</time>
  </trkpt>
  <trkpt lat="32.564670" lon="-1.197245">
   <ele>1196.00</ele>
   <time>2014-04-04T13:56:41Z</time>
  </trkpt>
  <trkpt lat="32.564516" lon="-1.196964">
   <ele>1195.00</ele>
   <time>2014-04-04T13:56:43Z</time>
  </trkpt>
  <trkpt lat="32.564374" lon="-1.196661">
   <ele>1195.00</ele>
   <time>2014-04-04T13:56:45Z</time>
  </trkpt>
  <trkpt lat="32.564251" lon="-1.196346">
   <ele>1195.00</ele>
   <time>2014-04-04T13:56:47Z</time>
  </trkpt>
  <trkpt lat="32.564151" lon="-1.196019">
   <ele>1195.00</ele>
   <time>2014-04-04T13:56:49Z</time>
  </trkpt>
  <trkpt lat="32.564080" lon="-1.195676">
   <ele>1195.00</ele>
   <time>2014-04-04T13:56:51Z</time>
  </trkpt>
  <trkpt lat="32.564036" lon="-1.195322">
   <ele>1194.00</ele>
   <time>2014-04-04T13:56:53Z</time>
  </trkpt>
  <trkpt lat="32.564017" lon="-1.194964">
   <ele>1194.00</ele>
   <time>2014-04-04T13:56:55Z</time>
  </trkpt>
  <trkpt lat="32.564017" lon="-1.194602">
   <ele>1194.00</ele>
   <time>2014-04-04T13:56:57Z</time>
  </trkpt>
  <trkpt lat="32.564038" lon="-1.194238">
   <ele>1195.00</ele>
   <time>2014-04-04T13:56:59Z</time>
  </trkpt>
  <trkpt lat="32.564097" lon="-1.193692">
   <ele>1195.00</ele>
   <time>2014-04-04T13:57:02Z</time>
  </trkpt>
  <trkpt lat="32.564459" lon="-1.190675">
   <ele>1194.00</ele>
   <time>2014-04-04T13:57:18Z</time>
  </trkpt>
  <trkpt lat="32.564662" lon="-1.188883">
   <ele>1193.00</ele>
   <time>2014-04-04T13:57:28Z</time>
  </trkpt>
  <trkpt lat="32.564681" lon="-1.188553">
   <ele>1193.00</ele>
   <time>2014-04-04T13:57:30Z</time>
  </trkpt>
  <trkpt lat="32.564685" lon="-1.188223">
   <ele>1192.00</ele>
   <time>2014-04-04T13:57:32Z</time>
  </trkpt>
  <trkpt lat="32.564667" lon="-1.187899">
   <ele>1192.00</ele>
   <time>2014-04-04T13:57:34Z</time>
  </trkpt>
  <trkpt lat="32.564638" lon="-1.187576">
   <ele>1192.00</ele>
   <time>2014-04-04T13:57:36Z</time>
  </trkpt>
  <trkpt lat="32.564587" lon="-1.187251">
   <ele>1192.00</ele>
   <time>2014-04-04T13:57:38Z</time>
  </trkpt>
  <trkpt lat="32.564518" lon="-1.186924">
   <ele>1192.00</ele>
   <time>2014-04-04T13:57:40Z</time>
  </trkpt>
  <trkpt lat="32.564429" lon="-1.186596">
   <ele>1192.00</ele>
   <time>2014-04-04T13:57:42Z</time>
  </trkpt>
  <trkpt lat="32.564320" lon="-1.186269">
   <ele>1191.00</ele>
   <time>2014-04-04T13:57:44Z</time>
  </trkpt>
  <trkpt lat="32.564190" lon="-1.185944">
   <ele>1192.00</ele>
   <time>2014-04-04T13:57:46Z</time>
  </trkpt>
  <trkpt lat="32.563970" lon="-1.185465">
   <ele>1191.00</ele>
   <time>2014-04-04T13:57:49Z</time>
  </trkpt>
  <trkpt lat="32.562896" lon="-1.183152">
   <ele>1187.00</ele>
   <time>2014-04-04T13:58:04Z</time>
  </trkpt>
  <trkpt lat="32.562453" lon="-1.182174">
   <ele>1188.00</ele>
   <time>2014-04-04T13:58:11Z</time>
  </trkpt>
  <trkpt lat="32.562295" lon="-1.181914">
   <ele>1188.00</ele>
   <time>2014-04-04T13:58:13Z</time>
  </trkpt>
  <trkpt lat="32.562107" lon="-1.181694">
   <ele>1188.00</ele>
   <time>2014-04-04T13:58:15Z</time>
  </trkpt>
  <trkpt lat="32.561893" lon="-1.181503">
   <ele>1188.00</ele>
   <time>2014-04-04T13:58:17Z</time>
  </trkpt>
  <trkpt lat="32.561658" lon="-1.181353">
   <ele>1188.00</ele>
   <time>2014-04-04T13:58:19Z</time>
  </trkpt>
  <trkpt lat="32.561407" lon="-1.181250">
   <ele>1188.00</ele>
   <time>2014-04-04T13:58:21Z</time>
  </trkpt>
  <trkpt lat="32.561147" lon="-1.181190">
   <ele>1188.00</ele>
   <time>2014-04-04T13:58:23Z</time>
  </trkpt>
  <trkpt lat="32.560881" lon="-1.181156">
   <ele>1188.00</ele>
   <time>2014-04-04T13:58:25Z</time>
  </trkpt>
  <trkpt lat="32.560084" lon="-1.181073">
   <ele>1188.00</ele>
   <time>2014-04-04T13:58:31Z</time>
  </trkpt>
  <trkpt lat="32.559841" lon="-1.181004">
   <ele>1188.00</ele>
   <time>2014-04-04T13:58:33Z</time>
  </trkpt>
  <trkpt lat="32.559625" lon="-1.180884">
   <ele>1188.00</ele>
   <time>2014-04-04T13:58:35Z</time>
  </trkpt>
  <trkpt lat="32.559445" lon="-1.180721">
   <ele>1189.00</ele>
   <time>2014-04-04T13:58:37Z</time>
  </trkpt>
  <trkpt lat="32.559303" lon="-1.180511">
   <ele>1190.00</ele>
   <time>2014-04-04T13:58:39Z</time>
  </trkpt>
  <trkpt lat="32.559202" lon="-1.180258">
   <ele>1191.00</ele>
   <time>2014-04-04T13:58:41Z</time>
  </trkpt>
  <trkpt lat="32.559143" lon="-1.179977">
   <ele>1192.00</ele>
   <time>2014-04-04T13:58:43Z</time>
  </trkpt>
  <trkpt lat="32.559118" lon="-1.179677">
   <ele>1193.00</ele>
   <time>2014-04-04T13:58:45Z</time>
  </trkpt>
  <trkpt lat="32.559111" lon="-1.179366">
   <ele>1193.00</ele>
   <time>2014-04-04T13:58:47Z</time>
  </trkpt>
  <trkpt lat="32.559153" lon="-1.176898">
   <ele>1194.00</ele>
   <time>2014-04-04T13:59:02Z</time>
  </trkpt>
  <trkpt lat="32.559156" lon="-1.175635">
   <ele>1193.00</ele>
   <time>2014-04-04T13:59:10Z</time>
  </trkpt>
  <trkpt lat="32.559120" lon="-1.175337">
   <ele>1194.00</ele>
   <time>2014-04-04T13:59:12Z</time>
  </trkpt>
  <trkpt lat="32.559032" lon="-1.175056">
   <ele>1194.00</ele>
   <time>2014-04-04T13:59:14Z</time>
  </trkpt>
  <trkpt lat="32.558905" lon="-1.174788">
   <ele>1195.00</ele>
   <time>2014-04-04T13:59:16Z</time>
  </trkpt>
  <trkpt lat="32.558736" lon="-1.174545">
   <ele>1195.00</ele>
   <time>2014-04-04T13:59:18Z</time>
  </trkpt>
  <trkpt lat="32.558522" lon="-1.174349">
   <ele>1195.00</ele>
   <time>2014-04-04T13:59:20Z</time>
  </trkpt>
  <trkpt lat="32.558172" lon="-1.174085">
   <ele>1195.00</ele>
   <time>2014-04-04T13:59:23Z</time>
  </trkpt>
  <trkpt lat="32.557215" lon="-1.173408">
   <ele>1196.00</ele>
   <time>2014-04-04T13:59:31Z</time>
  </trkpt>
  <trkpt lat="32.556739" lon="-1.173062">
   <ele>1196.00</ele>
   <time>2014-04-04T13:59:35Z</time>
  </trkpt>
  <trkpt lat="32.554922" lon="-1.171710">
   <ele>1197.00</ele>
   <time>2014-04-04T13:59:50Z</time>
  </trkpt>
  <trkpt lat="32.554545" lon="-1.171421">
   <ele>1197.00</ele>
   <time>2014-04-04T13:59:53Z</time>
  </trkpt>
  <trkpt lat="32.554303" lon="-1.171205">
   <ele>1197.00</ele>
   <time>2014-04-04T13:59:55Z</time>
  </trkpt>
  <trkpt lat="32.554074" lon="-1.170956">
   <ele>1197.00</ele>
   <time>2014-04-04T13:59:57Z</time>
  </trkpt>
  <trkpt lat="32.553861" lon="-1.170689">
   <ele>1197.00</ele>
   <time>2014-04-04T13:59:59Z</time>
  </trkpt>
  <trkpt lat="32.553671" lon="-1.170411">
   <ele>1197.00</ele>
   <time>2014-04-04T14:00:01Z</time>
  </trkpt>
  <trkpt lat="32.553508" lon="-1.170113">
   <ele>1196.00</ele>
   <time>2014-04-04T14:00:03Z</time>
  </trkpt>
  <trkpt lat="32.553373" lon="-1.169816">
   <ele>1197.00</ele>
   <time>2014-04-04T14:00:05Z</time>
  </trkpt>
  <trkpt lat="32.553265" lon="-1.169514">
   <ele>1198.00</ele>
   <time>2014-04-04T14:00:07Z</time>
  </trkpt>
  <trkpt lat="32.553179" lon="-1.169197">
   <ele>1198.00</ele>
   <time>2014-04-04T14:00:09Z</time>
  </trkpt>
  <trkpt lat="32.553105" lon="-1.168870">
   <ele>1198.00</ele>
   <time>2014-04-04T14:00:11Z</time>
  </trkpt>
  <trkpt lat="32.552566" lon="-1.166283">
   <ele>1203.00</ele>
   <time>2014-04-04T14:00:26Z</time>
  </trkpt>
  <trkpt lat="32.552487" lon="-1.165936">
   <ele>1204.00</ele>
   <time>2014-04-04T14:00:28Z</time>
  </trkpt>
  <trkpt lat="32.552377" lon="-1.165614">
   <ele>1204.00</ele>
   <time>2014-04-04T14:00:30Z</time>
  </trkpt>
  <trkpt lat="32.552226" lon="-1.165322">
   <ele>1204.00</ele>
   <time>2014-04-04T14:00:32Z</time>
  </trkpt>
  <trkpt lat="32.552029" lon="-1.165074">
   <ele>1204.00</ele>
   <time>2014-04-04T14:00:34Z</time>
  </trkpt>
  <trkpt lat="32.551792" lon="-1.164870">
   <ele>1204.00</ele>
   <time>2014-04-04T14:00:36Z</time>
  </trkpt>
  <trkpt lat="32.551534" lon="-1.164691">
   <ele>1203.00</ele>
   <time>2014-04-04T14:00:38Z</time>
  </trkpt>
  <trkpt lat="32.550605" lon="-1.164046">
   <ele>1203.00</ele>
   <time>2014-04-04T14:00:45Z</time>
  </trkpt>
  <trkpt lat="32.550357" lon="-1.163834">
   <ele>1203.00</ele>
   <time>2014-04-04T14:00:47Z</time>
  </trkpt>
  <trkpt lat="32.550133" lon="-1.163598">
   <ele>1203.00</ele>
   <time>2014-04-04T14:00:49Z</time>
  </trkpt>
  <trkpt lat="32.549937" lon="-1.163330">
   <ele>1204.00</ele>
   <time>2014-04-04T14:00:51Z</time>
  </trkpt>
  <trkpt lat="32.549766" lon="-1.163030">
   <ele>1204.00</ele>
   <time>2014-04-04T14:00:53Z</time>
  </trkpt>
  <trkpt lat="32.549623" lon="-1.162703">
   <ele>1204.00</ele>
   <time>2014-04-04T14:00:55Z</time>
  </trkpt>
  <trkpt lat="32.548948" lon="-1.160864">
   <ele>1207.00</ele>
   <time>2014-04-04T14:01:06Z</time>
  </trkpt>
  <trkpt lat="32.547957" lon="-1.158157">
   <ele>1212.00</ele>
   <time>2014-04-04T14:01:22Z</time>
  </trkpt>
  <trkpt lat="32.547068" lon="-1.155741">
   <ele>1218.00</ele>
   <time>2014-04-04T14:01:37Z</time>
  </trkpt>
  <trkpt lat="32.546955" lon="-1.155440">
   <ele>1219.00</ele>
   <time>2014-04-04T14:01:39Z</time>
  </trkpt>
  <trkpt lat="32.546825" lon="-1.155147">
   <ele>1220.00</ele>
   <time>2014-04-04T14:01:41Z</time>
  </trkpt>
  <trkpt lat="32.546670" lon="-1.154870">
   <ele>1220.00</ele>
   <time>2014-04-04T14:01:43Z</time>
  </trkpt>
  <trkpt lat="32.546480" lon="-1.154621">
   <ele>1221.00</ele>
   <time>2014-04-04T14:01:45Z</time>
  </trkpt>
  <trkpt lat="32.546261" lon="-1.154403">
   <ele>1221.00</ele>
   <time>2014-04-04T14:01:47Z</time>
  </trkpt>
  <trkpt lat="32.546017" lon="-1.154210">
   <ele>1221.00</ele>
   <time>2014-04-04T14:01:49Z</time>
  </trkpt>
  <trkpt lat="32.545744" lon="-1.154047">
   <ele>1222.00</ele>
   <time>2014-04-04T14:01:51Z</time>
  </trkpt>
  <trkpt lat="32.545460" lon="-1.153912">
   <ele>1222.00</ele>
   <time>2014-04-04T14:01:53Z</time>
  </trkpt>
  <trkpt lat="32.543085" lon="-1.152812">
   <ele>1227.00</ele>
   <time>2014-04-04T14:02:09Z</time>
  </trkpt>
  <trkpt lat="32.541487" lon="-1.152058">
   <ele>1233.00</ele>
   <time>2014-04-04T14:02:20Z</time>
  </trkpt>
  <trkpt lat="32.541221" lon="-1.151888">
   <ele>1235.00</ele>
   <time>2014-04-04T14:02:22Z</time>
  </trkpt>
  <trkpt lat="32.540996" lon="-1.151673">
   <ele>1237.00</ele>
   <time>2014-04-04T14:02:24Z</time>
  </trkpt>
  <trkpt lat="32.540806" lon="-1.151417">
   <ele>1239.00</ele>
   <time>2014-04-04T14:02:26Z</time>
  </trkpt>
  <trkpt lat="32.540654" lon="-1.151125">
   <ele>1241.00</ele>
   <time>2014-04-04T14:02:28Z</time>
  </trkpt>
  <trkpt lat="32.540548" lon="-1.150805">
   <ele>1243.00</ele>
   <time>2014-04-04T14:02:30Z</time>
  </trkpt>
  <trkpt lat="32.540479" lon="-1.150474">
   <ele>1245.00</ele>
   <time>2014-04-04T14:02:32Z</time>
  </trkpt>
  <trkpt lat="32.540466" lon="-1.150136">
   <ele>1247.00</ele>
   <time>2014-04-04T14:02:34Z</time>
  </trkpt>
  <trkpt lat="32.540497" lon="-1.149801">
   <ele>1248.00</ele>
   <time>2014-04-04T14:02:36Z</time>
  </trkpt>
  <trkpt lat="32.540572" lon="-1.149476">
   <ele>1250.00</ele>
   <time>2014-04-04T14:02:38Z</time>
  </trkpt>
  <trkpt lat="32.540673" lon="-1.149160">
   <ele>1252.00</ele>
   <time>2014-04-04T14:02:40Z</time>
  </trkpt>
  <trkpt lat="32.541053" lon="-1.148103">
   <ele>1257.00</ele>
   <time>2014-04-04T14:02:47Z</time>
  </trkpt>
  <trkpt lat="32.541128" lon="-1.147799">
   <ele>1258.00</ele>
   <time>2014-04-04T14:02:49Z</time>
  </trkpt>
  <trkpt lat="32.541185" lon="-1.147489">
   <ele>1259.00</ele>
   <time>2014-04-04T14:02:51Z</time>
  </trkpt>
  <trkpt lat="32.541218" lon="-1.147166">
   <ele>1259.00</ele>
   <time>2014-04-04T14:02:53Z</time>
  </trkpt>
  <trkpt lat="32.541258" lon="-1.145966">
   <ele>1255.00</ele>
   <time>2014-04-04T14:03:00Z</time>
  </trkpt>
  <trkpt lat="32.541284" lon="-1.143362">
   <ele>1250.00</ele>
   <time>2014-04-04T14:03:15Z</time>
  </trkpt>
  <trkpt lat="32.541282" lon="-1.141840">
   <ele>1248.00</ele>
   <time>2014-04-04T14:03:27Z</time>
  </trkpt>
  <trkpt lat="32.541310" lon="-1.141630">
   <ele>1246.00</ele>
   <time>2014-04-04T14:03:32Z</time>
  </trkpt>
  <trkpt lat="32.541364" lon="-1.141743">
   <ele>1247.00</ele>
   <time>2014-04-04T14:03:41Z</time>
  </trkpt>
  <trkpt lat="32.541305" lon="-1.141980">
   <ele>1246.00</ele>
   <time>2014-04-04T14:03:48Z</time>
  </trkpt>
  <trkpt lat="32.541319" lon="-1.142526">
   <ele>1246.00</ele>
   <time>2014-04-04T14:03:56Z</time>
  </trkpt>
  <trkpt lat="32.541318" lon="-1.144278">
   <ele>1246.00</ele>
   <time>2014-04-04T14:04:11Z</time>
  </trkpt>
  <trkpt lat="32.541297" lon="-1.145243">
   <ele>1248.00</ele>
   <time>2014-04-04T14:04:17Z</time>
  </trkpt>
  <trkpt lat="32.541287" lon="-1.145589">
   <ele>1250.00</ele>
   <time>2014-04-04T14:04:19Z</time>
  </trkpt>
  <trkpt lat="32.541272" lon="-1.146289">
   <ele>1254.00</ele>
   <time>2014-04-04T14:04:23Z</time>
  </trkpt>
  <trkpt lat="32.541209" lon="-1.147470">
   <ele>1259.00</ele>
   <time>2014-04-04T14:04:30Z</time>
  </trkpt>
  <trkpt lat="32.541168" lon="-1.147785">
   <ele>1260.00</ele>
   <time>2014-04-04T14:04:32Z</time>
  </trkpt>
  <trkpt lat="32.541106" lon="-1.148088">
   <ele>1259.00</ele>
   <time>2014-04-04T14:04:34Z</time>
  </trkpt>
  <trkpt lat="32.541024" lon="-1.148389">
   <ele>1257.00</ele>
   <time>2014-04-04T14:04:36Z</time>
  </trkpt>
  <trkpt lat="32.540921" lon="-1.148685">
   <ele>1256.00</ele>
   <time>2014-04-04T14:04:38Z</time>
  </trkpt>
  <trkpt lat="32.540645" lon="-1.149427">
   <ele>1251.00</ele>
   <time>2014-04-04T14:04:43Z</time>
  </trkpt>
  <trkpt lat="32.540563" lon="-1.149739">
   <ele>1250.00</ele>
   <time>2014-04-04T14:04:45Z</time>
  </trkpt>
  <trkpt lat="32.540519" lon="-1.150063">
   <ele>1248.00</ele>
   <time>2014-04-04T14:04:47Z</time>
  </trkpt>
  <trkpt lat="32.540515" lon="-1.150395">
   <ele>1246.00</ele>
   <time>2014-04-04T14:04:49Z</time>
  </trkpt>
  <trkpt lat="32.540558" lon="-1.150728">
   <ele>1244.00</ele>
   <time>2014-04-04T14:04:51Z</time>
  </trkpt>
  <trkpt lat="32.540643" lon="-1.151052">
   <ele>1242.00</ele>
   <time>2014-04-04T14:04:53Z</time>
  </trkpt>
  <trkpt lat="32.540770" lon="-1.151358">
   <ele>1241.00</ele>
   <time>2014-04-04T14:04:55Z</time>
  </trkpt>
  <trkpt lat="32.540942" lon="-1.151632">
   <ele>1239.00</ele>
   <time>2014-04-04T14:04:57Z</time>
  </trkpt>
  <trkpt lat="32.541145" lon="-1.151865">
   <ele>1237.00</ele>
   <time>2014-04-04T14:04:59Z</time>
  </trkpt>
  <trkpt lat="32.541378" lon="-1.152057">
   <ele>1236.00</ele>
   <time>2014-04-04T14:05:01Z</time>
  </trkpt>
  <trkpt lat="32.541637" lon="-1.152206">
   <ele>1235.00</ele>
   <time>2014-04-04T14:05:03Z</time>
  </trkpt>
  <trkpt lat="32.542333" lon="-1.152537">
   <ele>1232.00</ele>
   <time>2014-04-04T14:05:08Z</time>
  </trkpt>
  <trkpt lat="32.544383" lon="-1.153478">
   <ele>1224.00</ele>
   <time>2014-04-04T14:05:23Z</time>
  </trkpt>
  <trkpt lat="32.545938" lon="-1.154206">
   <ele>1220.00</ele>
   <time>2014-04-04T14:05:34Z</time>
  </trkpt>
  <trkpt lat="32.546191" lon="-1.154372">
   <ele>1219.00</ele>
   <time>2014-04-04T14:05:36Z</time>
  </trkpt>
  <trkpt lat="32.546419" lon="-1.154575">
   <ele>1218.00</ele>
   <time>2014-04-04T14:05:38Z</time>
  </trkpt>
  <trkpt lat="32.546627" lon="-1.154803">
   <ele>1218.00</ele>
   <time>2014-04-04T14:05:40Z</time>
  </trkpt>
  <trkpt lat="32.546815" lon="-1.155062">
   <ele>1218.00</ele>
   <time>2014-04-04T14:05:42Z</time>
  </trkpt>
  <trkpt lat="32.546966" lon="-1.155365">
   <ele>1217.00</ele>
   <time>2014-04-04T14:05:44Z</time>
  </trkpt>
  <trkpt lat="32.547158" lon="-1.155856">
   <ele>1217.00</ele>
   <time>2014-04-04T14:05:47Z</time>
  </trkpt>
  <trkpt lat="32.548118" lon="-1.158458">
   <ele>1209.00</ele>
   <time>2014-04-04T14:06:02Z</time>
  </trkpt>
  <trkpt lat="32.549084" lon="-1.161047">
   <ele>1202.00</ele>
   <time>2014-04-04T14:06:17Z</time>
  </trkpt>
  <trkpt lat="32.549166" lon="-1.161237">
   <ele>1202.00</ele>
   <time>2014-04-04T14:06:20Z</time>
  </trkpt>
  <trkpt lat="32.549160" lon="-1.161276">
   <ele>1205.00</ele>
   <time>2014-04-04T14:06:36Z</time>
  </trkpt>
  <trkpt lat="32.549151" lon="-1.161261">
   <ele>1205.00</ele>
   <time>2014-04-04T14:06:51Z</time>
  </trkpt>
  <trkpt lat="32.549152" lon="-1.161256">
   <ele>1205.00</ele>
   <time>2014-04-04T14:07:06Z</time>
  </trkpt>
  <trkpt lat="32.549215" lon="-1.161472">
   <ele>1205.00</ele>
   <time>2014-04-04T14:07:14Z</time>
  </trkpt>
  <trkpt lat="32.549359" lon="-1.161850">
   <ele>1204.00</ele>
   <time>2014-04-04T14:07:19Z</time>
  </trkpt>
  <trkpt lat="32.549801" lon="-1.162999">
   <ele>1200.00</ele>
   <time>2014-04-04T14:07:30Z</time>
  </trkpt>
  <trkpt lat="32.549917" lon="-1.163222">
   <ele>1199.00</ele>
   <time>2014-04-04T14:07:32Z</time>
  </trkpt>
  <trkpt lat="32.550052" lon="-1.163433">
   <ele>1198.00</ele>
   <time>2014-04-04T14:07:34Z</time>
  </trkpt>
  <trkpt lat="32.550201" lon="-1.163626">
   <ele>1197.00</ele>
   <time>2014-04-04T14:07:36Z</time>
  </trkpt>
  <trkpt lat="32.550360" lon="-1.163806">
   <ele>1198.00</ele>
   <time>2014-04-04T14:07:38Z</time>
  </trkpt>
  <trkpt lat="32.550527" lon="-1.163971">
   <ele>1198.00</ele>
   <time>2014-04-04T14:07:40Z</time>
  </trkpt>
  <trkpt lat="32.550702" lon="-1.164128">
   <ele>1199.00</ele>
   <time>2014-04-04T14:07:42Z</time>
  </trkpt>
  <trkpt lat="32.550893" lon="-1.164275">
   <ele>1199.00</ele>
   <time>2014-04-04T14:07:44Z</time>
  </trkpt>
  <trkpt lat="32.551201" lon="-1.164491">
   <ele>1199.00</ele>
   <time>2014-04-04T14:07:47Z</time>
  </trkpt>
  <trkpt lat="32.551920" lon="-1.164993">
   <ele>1200.00</ele>
   <time>2014-04-04T14:07:54Z</time>
  </trkpt>
  <trkpt lat="32.552102" lon="-1.165160">
   <ele>1201.00</ele>
   <time>2014-04-04T14:07:56Z</time>
  </trkpt>
  <trkpt lat="32.552263" lon="-1.165349">
   <ele>1201.00</ele>
   <time>2014-04-04T14:07:58Z</time>
  </trkpt>
  <trkpt lat="32.552400" lon="-1.165562">
   <ele>1200.00</ele>
   <time>2014-04-04T14:08:00Z</time>
  </trkpt>
  <trkpt lat="32.552510" lon="-1.165806">
   <ele>1200.00</ele>
   <time>2014-04-04T14:08:02Z</time>
  </trkpt>
  <trkpt lat="32.552590" lon="-1.166080">
   <ele>1200.00</ele>
   <time>2014-04-04T14:08:04Z</time>
  </trkpt>
  <trkpt lat="32.552658" lon="-1.166371">
   <ele>1199.00</ele>
   <time>2014-04-04T14:08:06Z</time>
  </trkpt>
  <trkpt lat="32.553160" lon="-1.168716">
   <ele>1195.00</ele>
   <time>2014-04-04T14:08:21Z</time>
  </trkpt>
  <trkpt lat="32.553296" lon="-1.169324">
   <ele>1194.00</ele>
   <time>2014-04-04T14:08:25Z</time>
  </trkpt>
  <trkpt lat="32.553379" lon="-1.169615">
   <ele>1194.00</ele>
   <time>2014-04-04T14:08:27Z</time>
  </trkpt>
  <trkpt lat="32.553482" lon="-1.169895">
   <ele>1194.00</ele>
   <time>2014-04-04T14:08:29Z</time>
  </trkpt>
  <trkpt lat="32.553605" lon="-1.170168">
   <ele>1193.00</ele>
   <time>2014-04-04T14:08:31Z</time>
  </trkpt>
  <trkpt lat="32.553748" lon="-1.170433">
   <ele>1193.00</ele>
   <time>2014-04-04T14:08:33Z</time>
  </trkpt>
  <trkpt lat="32.553907" lon="-1.170677">
   <ele>1193.00</ele>
   <time>2014-04-04T14:08:35Z</time>
  </trkpt>
  <trkpt lat="32.554081" lon="-1.170898">
   <ele>1193.00</ele>
   <time>2014-04-04T14:08:37Z</time>
  </trkpt>
  <trkpt lat="32.554261" lon="-1.171106">
   <ele>1193.00</ele>
   <time>2014-04-04T14:08:39Z</time>
  </trkpt>
  <trkpt lat="32.554444" lon="-1.171299">
   <ele>1194.00</ele>
   <time>2014-04-04T14:08:41Z</time>
  </trkpt>
  <trkpt lat="32.554637" lon="-1.171471">
   <ele>1194.00</ele>
   <time>2014-04-04T14:08:43Z</time>
  </trkpt>
  <trkpt lat="32.554938" lon="-1.171706">
   <ele>1195.00</ele>
   <time>2014-04-04T14:08:46Z</time>
  </trkpt>
  <trkpt lat="32.556395" lon="-1.172784">
   <ele>1197.00</ele>
   <time>2014-04-04T14:09:01Z</time>
  </trkpt>
  <trkpt lat="32.558129" lon="-1.174045">
   <ele>1197.00</ele>
   <time>2014-04-04T14:09:16Z</time>
  </trkpt>
  <trkpt lat="32.558576" lon="-1.174403">
   <ele>1197.00</ele>
   <time>2014-04-04T14:09:20Z</time>
  </trkpt>
  <trkpt lat="32.558772" lon="-1.174585">
   <ele>1198.00</ele>
   <time>2014-04-04T14:09:22Z</time>
  </trkpt>
  <trkpt lat="32.558931" lon="-1.174800">
   <ele>1198.00</ele>
   <time>2014-04-04T14:09:24Z</time>
  </trkpt>
  <trkpt lat="32.559055" lon="-1.175046">
   <ele>1198.00</ele>
   <time>2014-04-04T14:09:26Z</time>
  </trkpt>
  <trkpt lat="32.559148" lon="-1.175316">
   <ele>1198.00</ele>
   <time>2014-04-04T14:09:28Z</time>
  </trkpt>
  <trkpt lat="32.559197" lon="-1.175611">
   <ele>1198.00</ele>
   <time>2014-04-04T14:09:30Z</time>
  </trkpt>
  <trkpt lat="32.559213" lon="-1.175915">
   <ele>1198.00</ele>
   <time>2014-04-04T14:09:32Z</time>
  </trkpt>
  <trkpt lat="32.559211" lon="-1.176217">
   <ele>1198.00</ele>
   <time>2014-04-04T14:09:34Z</time>
  </trkpt>
  <trkpt lat="32.559199" lon="-1.177111">
   <ele>1196.00</ele>
   <time>2014-04-04T14:09:40Z</time>
  </trkpt>
  <trkpt lat="32.559198" lon="-1.177688">
   <ele>1195.00</ele>
   <time>2014-04-04T14:09:44Z</time>
  </trkpt>
  <trkpt lat="32.559183" lon="-1.179312">
   <ele>1194.00</ele>
   <time>2014-04-04T14:09:56Z</time>
  </trkpt>
  <trkpt lat="32.559192" lon="-1.179557">
   <ele>1194.00</ele>
   <time>2014-04-04T14:09:58Z</time>
  </trkpt>
  <trkpt lat="32.559225" lon="-1.180036">
   <ele>1194.00</ele>
   <time>2014-04-04T14:10:02Z</time>
  </trkpt>
  <trkpt lat="32.559265" lon="-1.180263">
   <ele>1194.00</ele>
   <time>2014-04-04T14:10:04Z</time>
  </trkpt>
  <trkpt lat="32.559330" lon="-1.180479">
   <ele>1193.00</ele>
   <time>2014-04-04T14:10:06Z</time>
  </trkpt>
  <trkpt lat="32.559427" lon="-1.180681">
   <ele>1193.00</ele>
   <time>2014-04-04T14:10:08Z</time>
  </trkpt>
  <trkpt lat="32.559568" lon="-1.180845">
   <ele>1193.00</ele>
   <time>2014-04-04T14:10:10Z</time>
  </trkpt>
  <trkpt lat="32.559729" lon="-1.180975">
   <ele>1193.00</ele>
   <time>2014-04-04T14:10:12Z</time>
  </trkpt>
  <trkpt lat="32.559901" lon="-1.181073">
   <ele>1192.00</ele>
   <time>2014-04-04T14:10:14Z</time>
  </trkpt>
  <trkpt lat="32.560083" lon="-1.181128">
   <ele>1191.00</ele>
   <time>2014-04-04T14:10:16Z</time>
  </trkpt>
  <trkpt lat="32.560344" lon="-1.181175">
   <ele>1190.00</ele>
   <time>2014-04-04T14:10:19Z</time>
  </trkpt>
  <trkpt lat="32.560540" lon="-1.181185">
   <ele>1189.00</ele>
   <time>2014-04-04T14:10:22Z</time>
  </trkpt>
  <trkpt lat="32.560730" lon="-1.181195">
   <ele>1189.00</ele>
   <time>2014-04-04T14:10:25Z</time>
  </trkpt>
  <trkpt lat="32.561256" lon="-1.181239">
   <ele>1188.00</ele>
   <time>2014-04-04T14:10:32Z</time>
  </trkpt>
  <trkpt lat="32.561484" lon="-1.181300">
   <ele>1188.00</ele>
   <time>2014-04-04T14:10:35Z</time>
  </trkpt>
  <trkpt lat="32.561708" lon="-1.181391">
   <ele>1188.00</ele>
   <time>2014-04-04T14:10:38Z</time>
  </trkpt>
  <trkpt lat="32.561913" lon="-1.181521">
   <ele>1188.00</ele>
   <time>2014-04-04T14:10:41Z</time>
  </trkpt>
  <trkpt lat="32.562079" lon="-1.181665">
   <ele>1188.00</ele>
   <time>2014-04-04T14:10:44Z</time>
  </trkpt>
  <trkpt lat="32.562228" lon="-1.181815">
   <ele>1189.00</ele>
   <time>2014-04-04T14:10:50Z</time>
  </trkpt>
  <trkpt lat="32.562162" lon="-1.181940">
   <ele>1186.00</ele>
   <time>2014-04-04T14:11:04Z</time>
  </trkpt>
  <trkpt lat="32.561976" lon="-1.181941">
   <ele>1184.00</ele>
   <time>2014-04-04T14:11:11Z</time>
  </trkpt>
  <trkpt lat="32.561879" lon="-1.182140">
   <ele>1182.00</ele>
   <time>2014-04-04T14:11:17Z</time>
  </trkpt>
  <trkpt lat="32.561764" lon="-1.182337">
   <ele>1181.00</ele>
   <time>2014-04-04T14:11:24Z</time>
  </trkpt>
  <trkpt lat="32.561574" lon="-1.182402">
   <ele>1181.00</ele>
   <time>2014-04-04T14:11:32Z</time>
  </trkpt>
  <trkpt lat="32.561507" lon="-1.182283">
   <ele>1183.00</ele>
   <time>2014-04-04T14:11:47Z</time>
  </trkpt>
  <trkpt lat="32.561530" lon="-1.182273">
   <ele>1183.00</ele>
   <time>2014-04-04T14:12:02Z</time>
  </trkpt>
  <trkpt lat="32.561544" lon="-1.182266">
   <ele>1183.00</ele>
   <time>2014-04-04T14:12:18Z</time>
  </trkpt>
  <trkpt lat="32.561551" lon="-1.182262">
   <ele>1183.00</ele>
   <time>2014-04-04T14:12:33Z</time>
  </trkpt>
  <trkpt lat="32.561551" lon="-1.182261">
   <ele>1183.00</ele>
   <time>2014-04-04T14:12:48Z</time>
  </trkpt>
  <trkpt lat="32.561552" lon="-1.182261">
   <ele>1183.00</ele>
   <time>2014-04-04T14:12:53Z</time>
  </trkpt>
 </trkseg>
 <trkseg>
  <trkpt lat="32.561508" lon="-1.182387">
   <ele>1195.00</ele>
   <time>2014-04-04T15:47:41Z</time>
  </trkpt>
  <trkpt lat="32.561508" lon="-1.182388">
   <ele>1194.00</ele>
   <time>2014-04-04T15:47:56Z</time>
  </trkpt>
  <trkpt lat="32.561650" lon="-1.182301">
   <ele>1193.00</ele>
   <time>2014-04-04T15:48:10Z</time>
  </trkpt>
  <trkpt lat="32.561814" lon="-1.182175">
   <ele>1194.00</ele>
   <time>2014-04-04T15:48:18Z</time>
  </trkpt>
  <trkpt lat="32.561902" lon="-1.181936">
   <ele>1195.00</ele>
   <time>2014-04-04T15:48:26Z</time>
  </trkpt>
  <trkpt lat="32.561882" lon="-1.181720">
   <ele>1196.00</ele>
   <time>2014-04-04T15:48:31Z</time>
  </trkpt>
  <trkpt lat="32.561738" lon="-1.181529">
   <ele>1198.00</ele>
   <time>2014-04-04T15:48:36Z</time>
  </trkpt>
  <trkpt lat="32.561564" lon="-1.181367">
   <ele>1198.00</ele>
   <time>2014-04-04T15:48:41Z</time>
  </trkpt>
  <trkpt lat="32.561352" lon="-1.181279">
   <ele>1199.00</ele>
   <time>2014-04-04T15:48:45Z</time>
  </trkpt>
  <trkpt lat="32.561142" lon="-1.181223">
   <ele>1199.00</ele>
   <time>2014-04-04T15:48:48Z</time>
  </trkpt>
  <trkpt lat="32.560896" lon="-1.181190">
   <ele>1199.00</ele>
   <time>2014-04-04T15:48:51Z</time>
  </trkpt>
  <trkpt lat="32.560164" lon="-1.181120">
   <ele>1201.00</ele>
   <time>2014-04-04T15:48:59Z</time>
  </trkpt>
  <trkpt lat="32.559969" lon="-1.181077">
   <ele>1201.00</ele>
   <time>2014-04-04T15:49:01Z</time>
  </trkpt>
  <trkpt lat="32.559778" lon="-1.181008">
   <ele>1201.00</ele>
   <time>2014-04-04T15:49:03Z</time>
  </trkpt>
  <trkpt lat="32.559601" lon="-1.180914">
   <ele>1201.00</ele>
   <time>2014-04-04T15:49:05Z</time>
  </trkpt>
  <trkpt lat="32.559444" lon="-1.180777">
   <ele>1200.00</ele>
   <time>2014-04-04T15:49:07Z</time>
  </trkpt>
  <trkpt lat="32.559307" lon="-1.180599">
   <ele>1201.00</ele>
   <time>2014-04-04T15:49:09Z</time>
  </trkpt>
  <trkpt lat="32.559205" lon="-1.180389">
   <ele>1201.00</ele>
   <time>2014-04-04T15:49:11Z</time>
  </trkpt>
  <trkpt lat="32.559136" lon="-1.180162">
   <ele>1202.00</ele>
   <time>2014-04-04T15:49:13Z</time>
  </trkpt>
  <trkpt lat="32.559094" lon="-1.179908">
   <ele>1202.00</ele>
   <time>2014-04-04T15:49:15Z</time>
  </trkpt>
  <trkpt lat="32.559076" lon="-1.179638">
   <ele>1203.00</ele>
   <time>2014-04-04T15:49:17Z</time>
  </trkpt>
  <trkpt lat="32.559076" lon="-1.179362">
   <ele>1201.00</ele>
   <time>2014-04-04T15:49:19Z</time>
  </trkpt>
  <trkpt lat="32.559118" lon="-1.177288">
   <ele>1202.00</ele>
   <time>2014-04-04T15:49:34Z</time>
  </trkpt>
  <trkpt lat="32.559129" lon="-1.175620">
   <ele>1205.00</ele>
   <time>2014-04-04T15:49:45Z</time>
  </trkpt>
  <trkpt lat="32.559094" lon="-1.175328">
   <ele>1205.00</ele>
   <time>2014-04-04T15:49:47Z</time>
  </trkpt>
  <trkpt lat="32.559010" lon="-1.175042">
   <ele>1205.00</ele>
   <time>2014-04-04T15:49:49Z</time>
  </trkpt>
  <trkpt lat="32.558880" lon="-1.174761">
   <ele>1204.00</ele>
   <time>2014-04-04T15:49:51Z</time>
  </trkpt>
  <trkpt lat="32.558697" lon="-1.174511">
   <ele>1203.00</ele>
   <time>2014-04-04T15:49:53Z</time>
  </trkpt>
  <trkpt lat="32.558469" lon="-1.174300">
   <ele>1203.00</ele>
   <time>2014-04-04T15:49:55Z</time>
  </trkpt>
  <trkpt lat="32.558095" lon="-1.174011">
   <ele>1202.00</ele>
   <time>2014-04-04T15:49:58Z</time>
  </trkpt>
  <trkpt lat="32.555838" lon="-1.172374">
   <ele>1198.00</ele>
   <time>2014-04-04T15:50:14Z</time>
  </trkpt>
  <trkpt lat="32.554419" lon="-1.171317">
   <ele>1198.00</ele>
   <time>2014-04-04T15:50:24Z</time>
  </trkpt>
  <trkpt lat="32.554152" lon="-1.171056">
   <ele>1198.00</ele>
   <time>2014-04-04T15:50:26Z</time>
  </trkpt>
  <trkpt lat="32.553902" lon="-1.170766">
   <ele>1198.00</ele>
   <time>2014-04-04T15:50:28Z</time>
  </trkpt>
  <trkpt lat="32.553671" lon="-1.170449">
   <ele>1198.00</ele>
   <time>2014-04-04T15:50:30Z</time>
  </trkpt>
  <trkpt lat="32.553468" lon="-1.170102">
   <ele>1198.00</ele>
   <time>2014-04-04T15:50:32Z</time>
  </trkpt>
  <trkpt lat="32.553301" lon="-1.169730">
   <ele>1199.00</ele>
   <time>2014-04-04T15:50:34Z</time>
  </trkpt>
  <trkpt lat="32.553165" lon="-1.169341">
   <ele>1199.00</ele>
   <time>2014-04-04T15:50:36Z</time>
  </trkpt>
  <trkpt lat="32.553062" lon="-1.168934">
   <ele>1200.00</ele>
   <time>2014-04-04T15:50:38Z</time>
  </trkpt>
  <trkpt lat="32.552412" lon="-1.165883">
   <ele>1199.00</ele>
   <time>2014-04-04T15:50:53Z</time>
  </trkpt>
  <trkpt lat="32.552281" lon="-1.165517">
   <ele>1199.00</ele>
   <time>2014-04-04T15:50:55Z</time>
  </trkpt>
  <trkpt lat="32.552093" lon="-1.165198">
   <ele>1199.00</ele>
   <time>2014-04-04T15:50:57Z</time>
  </trkpt>
  <trkpt lat="32.551849" lon="-1.164931">
   <ele>1200.00</ele>
   <time>2014-04-04T15:50:59Z</time>
  </trkpt>
  <trkpt lat="32.551562" lon="-1.164707">
   <ele>1199.00</ele>
   <time>2014-04-04T15:51:01Z</time>
  </trkpt>
  <trkpt lat="32.551099" lon="-1.164388">
   <ele>1198.00</ele>
   <time>2014-04-04T15:51:04Z</time>
  </trkpt>
  <trkpt lat="32.550629" lon="-1.164070">
   <ele>1199.00</ele>
   <time>2014-04-04T15:51:07Z</time>
  </trkpt>
  <trkpt lat="32.550341" lon="-1.163830">
   <ele>1199.00</ele>
   <time>2014-04-04T15:51:09Z</time>
  </trkpt>
  <trkpt lat="32.550082" lon="-1.163552">
   <ele>1199.00</ele>
   <time>2014-04-04T15:51:11Z</time>
  </trkpt>
  <trkpt lat="32.549855" lon="-1.163247">
   <ele>1198.00</ele>
   <time>2014-04-04T15:51:13Z</time>
  </trkpt>
  <trkpt lat="32.549667" lon="-1.162894">
   <ele>1199.00</ele>
   <time>2014-04-04T15:51:15Z</time>
  </trkpt>
  <trkpt lat="32.549516" lon="-1.162514">
   <ele>1200.00</ele>
   <time>2014-04-04T15:51:17Z</time>
  </trkpt>
  <trkpt lat="32.548365" lon="-1.159359">
   <ele>1207.00</ele>
   <time>2014-04-04T15:51:33Z</time>
  </trkpt>
  <trkpt lat="32.547278" lon="-1.156380">
   <ele>1218.00</ele>
   <time>2014-04-04T15:51:48Z</time>
  </trkpt>
  <trkpt lat="32.546833" lon="-1.155231">
   <ele>1221.00</ele>
   <time>2014-04-04T15:51:54Z</time>
  </trkpt>
  <trkpt lat="32.546650" lon="-1.154883">
   <ele>1222.00</ele>
   <time>2014-04-04T15:51:56Z</time>
  </trkpt>
  <trkpt lat="32.546417" lon="-1.154576">
   <ele>1223.00</ele>
   <time>2014-04-04T15:51:58Z</time>
  </trkpt>
  <trkpt lat="32.546143" lon="-1.154309">
   <ele>1223.00</ele>
   <time>2014-04-04T15:52:00Z</time>
  </trkpt>
  <trkpt lat="32.545830" lon="-1.154097">
   <ele>1223.00</ele>
   <time>2014-04-04T15:52:02Z</time>
  </trkpt>
  <trkpt lat="32.545663" lon="-1.154009">
   <ele>1223.00</ele>
   <time>2014-04-04T15:52:03Z</time>
  </trkpt>
  <trkpt lat="32.544979" lon="-1.153685">
   <ele>1224.00</ele>
   <time>2014-04-04T15:52:07Z</time>
  </trkpt>
  <trkpt lat="32.542394" lon="-1.152493">
   <ele>1234.00</ele>
   <time>2014-04-04T15:52:22Z</time>
  </trkpt>
  <trkpt lat="32.541380" lon="-1.152002">
   <ele>1238.00</ele>
   <time>2014-04-04T15:52:28Z</time>
  </trkpt>
  <trkpt lat="32.541080" lon="-1.151803">
   <ele>1239.00</ele>
   <time>2014-04-04T15:52:30Z</time>
  </trkpt>
  <trkpt lat="32.540844" lon="-1.151545">
   <ele>1242.00</ele>
   <time>2014-04-04T15:52:32Z</time>
  </trkpt>
  <trkpt lat="32.540659" lon="-1.151258">
   <ele>1245.00</ele>
   <time>2014-04-04T15:52:34Z</time>
  </trkpt>
  <trkpt lat="32.540523" lon="-1.150934">
   <ele>1248.00</ele>
   <time>2014-04-04T15:52:36Z</time>
  </trkpt>
  <trkpt lat="32.540441" lon="-1.150578">
   <ele>1248.00</ele>
   <time>2014-04-04T15:52:38Z</time>
  </trkpt>
  <trkpt lat="32.540403" lon="-1.150210">
   <ele>1250.00</ele>
   <time>2014-04-04T15:52:40Z</time>
  </trkpt>
  <trkpt lat="32.540426" lon="-1.149851">
   <ele>1253.00</ele>
   <time>2014-04-04T15:52:42Z</time>
  </trkpt>
  <trkpt lat="32.540490" lon="-1.149506">
   <ele>1256.00</ele>
   <time>2014-04-04T15:52:44Z</time>
  </trkpt>
  <trkpt lat="32.540591" lon="-1.149175">
   <ele>1259.00</ele>
   <time>2014-04-04T15:52:46Z</time>
  </trkpt>
  <trkpt lat="32.540947" lon="-1.148192">
   <ele>1266.00</ele>
   <time>2014-04-04T15:52:52Z</time>
  </trkpt>
  <trkpt lat="32.541037" lon="-1.147849">
   <ele>1268.00</ele>
   <time>2014-04-04T15:52:54Z</time>
  </trkpt>
  <trkpt lat="32.541100" lon="-1.147497">
   <ele>1269.00</ele>
   <time>2014-04-04T15:52:56Z</time>
  </trkpt>
  <trkpt lat="32.541140" lon="-1.147132">
   <ele>1269.00</ele>
   <time>2014-04-04T15:52:58Z</time>
  </trkpt>
  <trkpt lat="32.541170" lon="-1.146550">
   <ele>1268.00</ele>
   <time>2014-04-04T15:53:01Z</time>
  </trkpt>
  <trkpt lat="32.541242" lon="-1.143201">
   <ele>1262.00</ele>
   <time>2014-04-04T15:53:17Z</time>
  </trkpt>
  <trkpt lat="32.541240" lon="-1.141737">
   <ele>1259.00</ele>
   <time>2014-04-04T15:53:24Z</time>
  </trkpt>
  <trkpt lat="32.541197" lon="-1.141322">
   <ele>1258.00</ele>
   <time>2014-04-04T15:53:26Z</time>
  </trkpt>
  <trkpt lat="32.541133" lon="-1.140913">
   <ele>1257.00</ele>
   <time>2014-04-04T15:53:28Z</time>
  </trkpt>
  <trkpt lat="32.540969" lon="-1.139916">
   <ele>1256.00</ele>
   <time>2014-04-04T15:53:33Z</time>
  </trkpt>
  <trkpt lat="32.540932" lon="-1.139514">
   <ele>1257.00</ele>
   <time>2014-04-04T15:53:35Z</time>
  </trkpt>
  <trkpt lat="32.540940" lon="-1.139109">
   <ele>1259.00</ele>
   <time>2014-04-04T15:53:37Z</time>
  </trkpt>
  <trkpt lat="32.541000" lon="-1.138700">
   <ele>1259.00</ele>
   <time>2014-04-04T15:53:39Z</time>
  </trkpt>
  <trkpt lat="32.541096" lon="-1.138299">
   <ele>1260.00</ele>
   <time>2014-04-04T15:53:41Z</time>
  </trkpt>
  <trkpt lat="32.541901" lon="-1.135232">
   <ele>1269.00</ele>
   <time>2014-04-04T15:53:56Z</time>
  </trkpt>
  <trkpt lat="32.542384" lon="-1.133424">
   <ele>1278.00</ele>
   <time>2014-04-04T15:54:05Z</time>
  </trkpt>
  <trkpt lat="32.542538" lon="-1.133070">
   <ele>1278.00</ele>
   <time>2014-04-04T15:54:07Z</time>
  </trkpt>
  <trkpt lat="32.542732" lon="-1.132738">
   <ele>1278.00</ele>
   <time>2014-04-04T15:54:09Z</time>
  </trkpt>
  <trkpt lat="32.542967" lon="-1.132429">
   <ele>1276.00</ele>
   <time>2014-04-04T15:54:11Z</time>
  </trkpt>
  <trkpt lat="32.543238" lon="-1.132153">
   <ele>1275.00</ele>
   <time>2014-04-04T15:54:13Z</time>
  </trkpt>
  <trkpt lat="32.543386" lon="-1.132027">
   <ele>1274.00</ele>
   <time>2014-04-04T15:54:14Z</time>
  </trkpt>
  <trkpt lat="32.544001" lon="-1.131556">
   <ele>1275.00</ele>
   <time>2014-04-04T15:54:18Z</time>
  </trkpt>
  <trkpt lat="32.545929" lon="-1.130118">
   <ele>1275.00</ele>
   <time>2014-04-04T15:54:31Z</time>
  </trkpt>
  <trkpt lat="32.546184" lon="-1.129862">
   <ele>1276.00</ele>
   <time>2014-04-04T15:54:33Z</time>
  </trkpt>
  <trkpt lat="32.546400" lon="-1.129567">
   <ele>1277.00</ele>
   <time>2014-04-04T15:54:35Z</time>
  </trkpt>
  <trkpt lat="32.546575" lon="-1.129244">
   <ele>1278.00</ele>
   <time>2014-04-04T15:54:37Z</time>
  </trkpt>
  <trkpt lat="32.546701" lon="-1.128892">
   <ele>1279.00</ele>
   <time>2014-04-04T15:54:39Z</time>
  </trkpt>
  <trkpt lat="32.546786" lon="-1.128527">
   <ele>1280.00</ele>
   <time>2014-04-04T15:54:41Z</time>
  </trkpt>
  <trkpt lat="32.546825" lon="-1.128150">
   <ele>1282.00</ele>
   <time>2014-04-04T15:54:43Z</time>
  </trkpt>
  <trkpt lat="32.546819" lon="-1.127767">
   <ele>1284.00</ele>
   <time>2014-04-04T15:54:45Z</time>
  </trkpt>
  <trkpt lat="32.546759" lon="-1.127387">
   <ele>1286.00</ele>
   <time>2014-04-04T15:54:47Z</time>
  </trkpt>
  <trkpt lat="32.546655" lon="-1.127012">
   <ele>1288.00</ele>
   <time>2014-04-04T15:54:49Z</time>
  </trkpt>
  <trkpt lat="32.546464" lon="-1.126456">
   <ele>1291.00</ele>
   <time>2014-04-04T15:54:52Z</time>
  </trkpt>
  <trkpt lat="32.545955" lon="-1.125064">
   <ele>1298.00</ele>
   <time>2014-04-04T15:55:00Z</time>
  </trkpt>
  <trkpt lat="32.545807" lon="-1.124749">
   <ele>1300.00</ele>
   <time>2014-04-04T15:55:02Z</time>
  </trkpt>
  <trkpt lat="32.545637" lon="-1.124458">
   <ele>1301.00</ele>
   <time>2014-04-04T15:55:04Z</time>
  </trkpt>
  <trkpt lat="32.545439" lon="-1.124212">
   <ele>1303.00</ele>
   <time>2014-04-04T15:55:06Z</time>
  </trkpt>
  <trkpt lat="32.545195" lon="-1.124020">
   <ele>1304.00</ele>
   <time>2014-04-04T15:55:08Z</time>
  </trkpt>
  <trkpt lat="32.543187" lon="-1.122689">
   <ele>1315.00</ele>
   <time>2014-04-04T15:55:23Z</time>
  </trkpt>
  <trkpt lat="32.542189" lon="-1.122011">
   <ele>1321.00</ele>
   <time>2014-04-04T15:55:31Z</time>
  </trkpt>
  <trkpt lat="32.541987" lon="-1.121851">
   <ele>1322.00</ele>
   <time>2014-04-04T15:55:33Z</time>
  </trkpt>
  <trkpt lat="32.541833" lon="-1.121672">
   <ele>1324.00</ele>
   <time>2014-04-04T15:55:35Z</time>
  </trkpt>
  <trkpt lat="32.541764" lon="-1.121453">
   <ele>1326.00</ele>
   <time>2014-04-04T15:55:37Z</time>
  </trkpt>
  <trkpt lat="32.541792" lon="-1.121237">
   <ele>1328.00</ele>
   <time>2014-04-04T15:55:39Z</time>
  </trkpt>
  <trkpt lat="32.541918" lon="-1.121005">
   <ele>1330.00</ele>
   <time>2014-04-04T15:55:42Z</time>
  </trkpt>
  <trkpt lat="32.542067" lon="-1.120765">
   <ele>1332.00</ele>
   <time>2014-04-04T15:55:45Z</time>
  </trkpt>
  <trkpt lat="32.542165" lon="-1.120583">
   <ele>1333.00</ele>
   <time>2014-04-04T15:55:47Z</time>
  </trkpt>
  <trkpt lat="32.542252" lon="-1.120373">
   <ele>1335.00</ele>
   <time>2014-04-04T15:55:49Z</time>
  </trkpt>
  <trkpt lat="32.542324" lon="-1.120137">
   <ele>1338.00</ele>
   <time>2014-04-04T15:55:51Z</time>
  </trkpt>
  <trkpt lat="32.542389" lon="-1.119891">
   <ele>1340.00</ele>
   <time>2014-04-04T15:55:53Z</time>
  </trkpt>
  <trkpt lat="32.542474" lon="-1.119511">
   <ele>1344.00</ele>
   <time>2014-04-04T15:55:56Z</time>
  </trkpt>
  <trkpt lat="32.542564" lon="-1.118997">
   <ele>1348.00</ele>
   <time>2014-04-04T15:56:00Z</time>
  </trkpt>
  <trkpt lat="32.542711" lon="-1.117934">
   <ele>1357.00</ele>
   <time>2014-04-04T15:56:08Z</time>
  </trkpt>
  <trkpt lat="32.542705" lon="-1.117671">
   <ele>1360.00</ele>
   <time>2014-04-04T15:56:10Z</time>
  </trkpt>
  <trkpt lat="32.542637" lon="-1.117422">
   <ele>1363.00</ele>
   <time>2014-04-04T15:56:12Z</time>
  </trkpt>
  <trkpt lat="32.542541" lon="-1.117187">
   <ele>1366.00</ele>
   <time>2014-04-04T15:56:14Z</time>
  </trkpt>
  <trkpt lat="32.542405" lon="-1.116845">
   <ele>1372.00</ele>
   <time>2014-04-04T15:56:17Z</time>
  </trkpt>
  <trkpt lat="32.542353" lon="-1.116620">
   <ele>1375.00</ele>
   <time>2014-04-04T15:56:19Z</time>
  </trkpt>
  <trkpt lat="32.542372" lon="-1.116402">
   <ele>1378.00</ele>
   <time>2014-04-04T15:56:21Z</time>
  </trkpt>
  <trkpt lat="32.542488" lon="-1.116239">
   <ele>1380.00</ele>
   <time>2014-04-04T15:56:23Z</time>
  </trkpt>
  <trkpt lat="32.542658" lon="-1.116112">
   <ele>1380.00</ele>
   <time>2014-04-04T15:56:25Z</time>
  </trkpt>
  <trkpt lat="32.542840" lon="-1.115987">
   <ele>1381.00</ele>
   <time>2014-04-04T15:56:27Z</time>
  </trkpt>
  <trkpt lat="32.543093" lon="-1.115804">
   <ele>1381.00</ele>
   <time>2014-04-04T15:56:30Z</time>
  </trkpt>
  <trkpt lat="32.543235" lon="-1.115664">
   <ele>1380.00</ele>
   <time>2014-04-04T15:56:32Z</time>
  </trkpt>
  <trkpt lat="32.543341" lon="-1.115487">
   <ele>1379.00</ele>
   <time>2014-04-04T15:56:34Z</time>
  </trkpt>
  <trkpt lat="32.543385" lon="-1.115267">
   <ele>1379.00</ele>
   <time>2014-04-04T15:56:36Z</time>
  </trkpt>
  <trkpt lat="32.543349" lon="-1.115032">
   <ele>1378.00</ele>
   <time>2014-04-04T15:56:38Z</time>
  </trkpt>
  <trkpt lat="32.543228" lon="-1.114802">
   <ele>1377.00</ele>
   <time>2014-04-04T15:56:40Z</time>
  </trkpt>
  <trkpt lat="32.542981" lon="-1.114300">
   <ele>1374.00</ele>
   <time>2014-04-04T15:56:44Z</time>
  </trkpt>
  <trkpt lat="32.542833" lon="-1.114060">
   <ele>1373.00</ele>
   <time>2014-04-04T15:56:46Z</time>
  </trkpt>
  <trkpt lat="32.542663" lon="-1.113831">
   <ele>1371.00</ele>
   <time>2014-04-04T15:56:48Z</time>
  </trkpt>
  <trkpt lat="32.542461" lon="-1.113632">
   <ele>1370.00</ele>
   <time>2014-04-04T15:56:50Z</time>
  </trkpt>
  <trkpt lat="32.542218" lon="-1.113519">
   <ele>1369.00</ele>
   <time>2014-04-04T15:56:52Z</time>
  </trkpt>
  <trkpt lat="32.541942" lon="-1.113482">
   <ele>1369.00</ele>
   <time>2014-04-04T15:56:54Z</time>
  </trkpt>
  <trkpt lat="32.541676" lon="-1.113535">
   <ele>1368.00</ele>
   <time>2014-04-04T15:56:56Z</time>
  </trkpt>
  <trkpt lat="32.540898" lon="-1.113683">
   <ele>1363.00</ele>
   <time>2014-04-04T15:57:02Z</time>
  </trkpt>
  <trkpt lat="32.540649" lon="-1.113785">
   <ele>1363.00</ele>
   <time>2014-04-04T15:57:04Z</time>
  </trkpt>
  <trkpt lat="32.540407" lon="-1.113916">
   <ele>1363.00</ele>
   <time>2014-04-04T15:57:06Z</time>
  </trkpt>
  <trkpt lat="32.540176" lon="-1.114077">
   <ele>1362.00</ele>
   <time>2014-04-04T15:57:08Z</time>
  </trkpt>
  <trkpt lat="32.539959" lon="-1.114269">
   <ele>1361.00</ele>
   <time>2014-04-04T15:57:10Z</time>
  </trkpt>
  <trkpt lat="32.539540" lon="-1.114670">
   <ele>1358.00</ele>
   <time>2014-04-04T15:57:14Z</time>
  </trkpt>
  <trkpt lat="32.539312" lon="-1.114809">
   <ele>1357.00</ele>
   <time>2014-04-04T15:57:16Z</time>
  </trkpt>
  <trkpt lat="32.539053" lon="-1.114867">
   <ele>1355.00</ele>
   <time>2014-04-04T15:57:18Z</time>
  </trkpt>
  <trkpt lat="32.538777" lon="-1.114851">
   <ele>1354.00</ele>
   <time>2014-04-04T15:57:20Z</time>
  </trkpt>
  <trkpt lat="32.538496" lon="-1.114781">
   <ele>1353.00</ele>
   <time>2014-04-04T15:57:22Z</time>
  </trkpt>
  <trkpt lat="32.537656" lon="-1.114485">
   <ele>1348.00</ele>
   <time>2014-04-04T15:57:28Z</time>
  </trkpt>
  <trkpt lat="32.537384" lon="-1.114359">
   <ele>1346.00</ele>
   <time>2014-04-04T15:57:30Z</time>
  </trkpt>
  <trkpt lat="32.537127" lon="-1.114201">
   <ele>1345.00</ele>
   <time>2014-04-04T15:57:32Z</time>
  </trkpt>
  <trkpt lat="32.536888" lon="-1.114015">
   <ele>1344.00</ele>
   <time>2014-04-04T15:57:34Z</time>
  </trkpt>
  <trkpt lat="32.536667" lon="-1.113804">
   <ele>1343.00</ele>
   <time>2014-04-04T15:57:36Z</time>
  </trkpt>
  <trkpt lat="32.536465" lon="-1.113562">
   <ele>1341.00</ele>
   <time>2014-04-04T15:57:38Z</time>
  </trkpt>
  <trkpt lat="32.536279" lon="-1.113289">
   <ele>1339.00</ele>
   <time>2014-04-04T15:57:40Z</time>
  </trkpt>
  <trkpt lat="32.536106" lon="-1.112990">
   <ele>1338.00</ele>
   <time>2014-04-04T15:57:42Z</time>
  </trkpt>
  <trkpt lat="32.535958" lon="-1.112658">
   <ele>1333.00</ele>
   <time>2014-04-04T15:57:44Z</time>
  </trkpt>
  <trkpt lat="32.535827" lon="-1.112302">
   <ele>1330.00</ele>
   <time>2014-04-04T15:57:46Z</time>
  </trkpt>
  <trkpt lat="32.535719" lon="-1.111930">
   <ele>1328.00</ele>
   <time>2014-04-04T15:57:48Z</time>
  </trkpt>
  <trkpt lat="32.535652" lon="-1.111541">
   <ele>1326.00</ele>
   <time>2014-04-04T15:57:50Z</time>
  </trkpt>
  <trkpt lat="32.535625" lon="-1.111141">
   <ele>1325.00</ele>
   <time>2014-04-04T15:57:52Z</time>
  </trkpt>
  <trkpt lat="32.535629" lon="-1.110749">
   <ele>1324.00</ele>
   <time>2014-04-04T15:57:54Z</time>
  </trkpt>
  <trkpt lat="32.535662" lon="-1.110342">
   <ele>1325.00</ele>
   <time>2014-04-04T15:57:56Z</time>
  </trkpt>
  <trkpt lat="32.535714" lon="-1.109940">
   <ele>1325.00</ele>
   <time>2014-04-04T15:57:58Z</time>
  </trkpt>
  <trkpt lat="32.536131" lon="-1.106900">
   <ele>1331.00</ele>
   <time>2014-04-04T15:58:13Z</time>
  </trkpt>
  <trkpt lat="32.536565" lon="-1.103547">
   <ele>1336.00</ele>
   <time>2014-04-04T15:58:29Z</time>
  </trkpt>
  <trkpt lat="32.536966" lon="-1.100534">
   <ele>1337.00</ele>
   <time>2014-04-04T15:58:44Z</time>
  </trkpt>
  <trkpt lat="32.537057" lon="-1.099696">
   <ele>1337.00</ele>
   <time>2014-04-04T15:58:48Z</time>
  </trkpt>
  <trkpt lat="32.537080" lon="-1.099265">
   <ele>1337.00</ele>
   <time>2014-04-04T15:58:50Z</time>
  </trkpt>
  <trkpt lat="32.537094" lon="-1.098607">
   <ele>1337.00</ele>
   <time>2014-04-04T15:58:53Z</time>
  </trkpt>
  <trkpt lat="32.537084" lon="-1.098170">
   <ele>1337.00</ele>
   <time>2014-04-04T15:58:55Z</time>
  </trkpt>
  <trkpt lat="32.537059" lon="-1.097731">
   <ele>1336.00</ele>
   <time>2014-04-04T15:58:57Z</time>
  </trkpt>
  <trkpt lat="32.537014" lon="-1.097287">
   <ele>1336.00</ele>
   <time>2014-04-04T15:58:59Z</time>
  </trkpt>
  <trkpt lat="32.536919" lon="-1.096617">
   <ele>1335.00</ele>
   <time>2014-04-04T15:59:02Z</time>
  </trkpt>
  <trkpt lat="32.536839" lon="-1.096171">
   <ele>1333.00</ele>
   <time>2014-04-04T15:59:04Z</time>
  </trkpt>
  <trkpt lat="32.536115" lon="-1.092831">
   <ele>1325.00</ele>
   <time>2014-04-04T15:59:19Z</time>
  </trkpt>
  <trkpt lat="32.535351" lon="-1.089259">
   <ele>1316.00</ele>
   <time>2014-04-04T15:59:35Z</time>
  </trkpt>
  <trkpt lat="32.534624" lon="-1.085887">
   <ele>1308.00</ele>
   <time>2014-04-04T15:59:50Z</time>
  </trkpt>
  <trkpt lat="32.533894" lon="-1.082408">
   <ele>1300.00</ele>
   <time>2014-04-04T16:00:05Z</time>
  </trkpt>
  <trkpt lat="32.533138" lon="-1.078873">
   <ele>1296.00</ele>
   <time>2014-04-04T16:00:20Z</time>
  </trkpt>
  <trkpt lat="32.532407" lon="-1.075426">
   <ele>1299.00</ele>
   <time>2014-04-04T16:00:35Z</time>
  </trkpt>
  <trkpt lat="32.532328" lon="-1.074978">
   <ele>1299.00</ele>
   <time>2014-04-04T16:00:37Z</time>
  </trkpt>
  <trkpt lat="32.532299" lon="-1.074753">
   <ele>1298.00</ele>
   <time>2014-04-04T16:00:38Z</time>
  </trkpt>
  <trkpt lat="32.532279" lon="-1.074527">
   <ele>1298.00</ele>
   <time>2014-04-04T16:00:39Z</time>
  </trkpt>
  <trkpt lat="32.532272" lon="-1.074302">
   <ele>1299.00</ele>
   <time>2014-04-04T16:00:40Z</time>
  </trkpt>
  <trkpt lat="32.532275" lon="-1.074076">
   <ele>1299.00</ele>
   <time>2014-04-04T16:00:41Z</time>
  </trkpt>
  <trkpt lat="32.532288" lon="-1.073849">
   <ele>1300.00</ele>
   <time>2014-04-04T16:00:42Z</time>
  </trkpt>
  <trkpt lat="32.532563" lon="-1.069923">
   <ele>1293.00</ele>
   <time>2014-04-04T16:00:58Z</time>
  </trkpt>
  <trkpt lat="32.532793" lon="-1.066093">
   <ele>1287.00</ele>
   <time>2014-04-04T16:01:13Z</time>
  </trkpt>
  <trkpt lat="32.533017" lon="-1.062347">
   <ele>1285.00</ele>
   <time>2014-04-04T16:01:28Z</time>
  </trkpt>
  <trkpt lat="32.533048" lon="-1.061357">
   <ele>1286.00</ele>
   <time>2014-04-04T16:01:32Z</time>
  </trkpt>
  <trkpt lat="32.533037" lon="-1.060857">
   <ele>1286.00</ele>
   <time>2014-04-04T16:01:34Z</time>
  </trkpt>
  <trkpt lat="32.532999" lon="-1.060354">
   <ele>1286.00</ele>
   <time>2014-04-04T16:01:36Z</time>
  </trkpt>
  <trkpt lat="32.532916" lon="-1.059617">
   <ele>1286.00</ele>
   <time>2014-04-04T16:01:39Z</time>
  </trkpt>
  <trkpt lat="32.532444" lon="-1.055984">
   <ele>1282.00</ele>
   <time>2014-04-04T16:01:54Z</time>
  </trkpt>
  <trkpt lat="32.532009" lon="-1.052401">
   <ele>1276.00</ele>
   <time>2014-04-04T16:02:09Z</time>
  </trkpt>
  <trkpt lat="32.531925" lon="-1.051906">
   <ele>1274.00</ele>
   <time>2014-04-04T16:02:11Z</time>
  </trkpt>
  <trkpt lat="32.531817" lon="-1.051410">
   <ele>1272.00</ele>
   <time>2014-04-04T16:02:13Z</time>
  </trkpt>
  <trkpt lat="32.530865" lon="-1.047424">
   <ele>1263.00</ele>
   <time>2014-04-04T16:02:29Z</time>
  </trkpt>
  <trkpt lat="32.530398" lon="-1.045525">
   <ele>1264.00</ele>
   <time>2014-04-04T16:02:37Z</time>
  </trkpt>
  <trkpt lat="32.530317" lon="-1.045308">
   <ele>1264.00</ele>
   <time>2014-04-04T16:02:38Z</time>
  </trkpt>
  <trkpt lat="32.530222" lon="-1.045101">
   <ele>1265.00</ele>
   <time>2014-04-04T16:02:39Z</time>
  </trkpt>
  <trkpt lat="32.530114" lon="-1.044901">
   <ele>1265.00</ele>
   <time>2014-04-04T16:02:40Z</time>
  </trkpt>
  <trkpt lat="32.529994" lon="-1.044712">
   <ele>1265.00</ele>
   <time>2014-04-04T16:02:41Z</time>
  </trkpt>
  <trkpt lat="32.529865" lon="-1.044531">
   <ele>1265.00</ele>
   <time>2014-04-04T16:02:42Z</time>
  </trkpt>
  <trkpt lat="32.529597" lon="-1.044183">
   <ele>1266.00</ele>
   <time>2014-04-04T16:02:44Z</time>
  </trkpt>
  <trkpt lat="32.528755" lon="-1.043179">
   <ele>1271.00</ele>
   <time>2014-04-04T16:02:50Z</time>
  </trkpt>
  <trkpt lat="32.527730" lon="-1.041951">
   <ele>1277.00</ele>
   <time>2014-04-04T16:02:58Z</time>
  </trkpt>
  <trkpt lat="32.527519" lon="-1.041624">
   <ele>1277.00</ele>
   <time>2014-04-04T16:03:00Z</time>
  </trkpt>
  <trkpt lat="32.527344" lon="-1.041257">
   <ele>1277.00</ele>
   <time>2014-04-04T16:03:02Z</time>
  </trkpt>
  <trkpt lat="32.527276" lon="-1.041059">
   <ele>1277.00</ele>
   <time>2014-04-04T16:03:03Z</time>
  </trkpt>
  <trkpt lat="32.527224" lon="-1.040854">
   <ele>1278.00</ele>
   <time>2014-04-04T16:03:04Z</time>
  </trkpt>
  <trkpt lat="32.527186" lon="-1.040642">
   <ele>1278.00</ele>
   <time>2014-04-04T16:03:05Z</time>
  </trkpt>
  <trkpt lat="32.527162" lon="-1.040426">
   <ele>1279.00</ele>
   <time>2014-04-04T16:03:06Z</time>
  </trkpt>
  <trkpt lat="32.527151" lon="-1.040207">
   <ele>1280.00</ele>
   <time>2014-04-04T16:03:07Z</time>
  </trkpt>
  <trkpt lat="32.527151" lon="-1.039986">
   <ele>1281.00</ele>
   <time>2014-04-04T16:03:08Z</time>
  </trkpt>
  <trkpt lat="32.527169" lon="-1.039541">
   <ele>1282.00</ele>
   <time>2014-04-04T16:03:10Z</time>
  </trkpt>
  <trkpt lat="32.527278" lon="-1.037774">
   <ele>1284.00</ele>
   <time>2014-04-04T16:03:18Z</time>
  </trkpt>
  <trkpt lat="32.527322" lon="-1.037344">
   <ele>1284.00</ele>
   <time>2014-04-04T16:03:20Z</time>
  </trkpt>
  <trkpt lat="32.527387" lon="-1.036912">
   <ele>1283.00</ele>
   <time>2014-04-04T16:03:22Z</time>
  </trkpt>
  <trkpt lat="32.527610" lon="-1.035603">
   <ele>1284.00</ele>
   <time>2014-04-04T16:03:28Z</time>
  </trkpt>
  <trkpt lat="32.527700" lon="-1.035180">
   <ele>1283.00</ele>
   <time>2014-04-04T16:03:30Z</time>
  </trkpt>
  <trkpt lat="32.528443" lon="-1.032033">
   <ele>1282.00</ele>
   <time>2014-04-04T16:03:45Z</time>
  </trkpt>
  <trkpt lat="32.529095" lon="-1.029137">
   <ele>1273.00</ele>
   <time>2014-04-04T16:04:00Z</time>
  </trkpt>
  <trkpt lat="32.529157" lon="-1.028767">
   <ele>1272.00</ele>
   <time>2014-04-04T16:04:02Z</time>
  </trkpt>
  <trkpt lat="32.529167" lon="-1.028390">
   <ele>1270.00</ele>
   <time>2014-04-04T16:04:04Z</time>
  </trkpt>
  <trkpt lat="32.529132" lon="-1.028019">
   <ele>1269.00</ele>
   <time>2014-04-04T16:04:06Z</time>
  </trkpt>
  <trkpt lat="32.529102" lon="-1.027686">
   <ele>1268.00</ele>
   <time>2014-04-04T16:04:08Z</time>
  </trkpt>
  <trkpt lat="32.529134" lon="-1.027396">
   <ele>1268.00</ele>
   <time>2014-04-04T16:04:10Z</time>
  </trkpt>
  <trkpt lat="32.529231" lon="-1.027123">
   <ele>1266.00</ele>
   <time>2014-04-04T16:04:12Z</time>
  </trkpt>
  <trkpt lat="32.529576" lon="-1.026229">
   <ele>1265.00</ele>
   <time>2014-04-04T16:04:18Z</time>
  </trkpt>
  <trkpt lat="32.529709" lon="-1.025960">
   <ele>1263.00</ele>
   <time>2014-04-04T16:04:20Z</time>
  </trkpt>
  <trkpt lat="32.529858" lon="-1.025750">
   <ele>1262.00</ele>
   <time>2014-04-04T16:04:22Z</time>
  </trkpt>
  <trkpt lat="32.530067" lon="-1.025606">
   <ele>1258.00</ele>
   <time>2014-04-04T16:04:24Z</time>
  </trkpt>
  <trkpt lat="32.530337" lon="-1.025519">
   <ele>1255.00</ele>
   <time>2014-04-04T16:04:26Z</time>
  </trkpt>
  <trkpt lat="32.530587" lon="-1.025460">
   <ele>1254.00</ele>
   <time>2014-04-04T16:04:28Z</time>
  </trkpt>
  <trkpt lat="32.530794" lon="-1.025465">
   <ele>1252.00</ele>
   <time>2014-04-04T16:04:30Z</time>
  </trkpt>
  <trkpt lat="32.531012" lon="-1.025536">
   <ele>1251.00</ele>
   <time>2014-04-04T16:04:32Z</time>
  </trkpt>
  <trkpt lat="32.531464" lon="-1.025698">
   <ele>1248.00</ele>
   <time>2014-04-04T16:04:36Z</time>
  </trkpt>
  <trkpt lat="32.531695" lon="-1.025730">
   <ele>1245.00</ele>
   <time>2014-04-04T16:04:38Z</time>
  </trkpt>
  <trkpt lat="32.531867" lon="-1.025540">
   <ele>1244.00</ele>
   <time>2014-04-04T16:04:41Z</time>
  </trkpt>
  <trkpt lat="32.531875" lon="-1.025220">
   <ele>1243.00</ele>
   <time>2014-04-04T16:04:44Z</time>
  </trkpt>
  <trkpt lat="32.531807" lon="-1.024987">
   <ele>1243.00</ele>
   <time>2014-04-04T16:04:46Z</time>
  </trkpt>
  <trkpt lat="32.531412" lon="-1.023855">
   <ele>1242.00</ele>
   <time>2014-04-04T16:04:55Z</time>
  </trkpt>
  <trkpt lat="32.530622" lon="-1.021652">
   <ele>1246.00</ele>
   <time>2014-04-04T16:05:10Z</time>
  </trkpt>
  <trkpt lat="32.530550" lon="-1.021333">
   <ele>1247.00</ele>
   <time>2014-04-04T16:05:12Z</time>
  </trkpt>
  <trkpt lat="32.530531" lon="-1.021000">
   <ele>1248.00</ele>
   <time>2014-04-04T16:05:14Z</time>
  </trkpt>
  <trkpt lat="32.530546" lon="-1.020663">
   <ele>1249.00</ele>
   <time>2014-04-04T16:05:16Z</time>
  </trkpt>
  <trkpt lat="32.530555" lon="-1.020327">
   <ele>1250.00</ele>
   <time>2014-04-04T16:05:18Z</time>
  </trkpt>
  <trkpt lat="32.530509" lon="-1.019996">
   <ele>1251.00</ele>
   <time>2014-04-04T16:05:20Z</time>
  </trkpt>
  <trkpt lat="32.530409" lon="-1.019681">
   <ele>1251.00</ele>
   <time>2014-04-04T16:05:22Z</time>
  </trkpt>
  <trkpt lat="32.530278" lon="-1.019369">
   <ele>1252.00</ele>
   <time>2014-04-04T16:05:24Z</time>
  </trkpt>
  <trkpt lat="32.530156" lon="-1.019052">
   <ele>1252.00</ele>
   <time>2014-04-04T16:05:26Z</time>
  </trkpt>
  <trkpt lat="32.530088" lon="-1.018720">
   <ele>1251.00</ele>
   <time>2014-04-04T16:05:28Z</time>
  </trkpt>
  <trkpt lat="32.530087" lon="-1.018381">
   <ele>1251.00</ele>
   <time>2014-04-04T16:05:30Z</time>
  </trkpt>
  <trkpt lat="32.530141" lon="-1.018052">
   <ele>1250.00</ele>
   <time>2014-04-04T16:05:32Z</time>
  </trkpt>
  <trkpt lat="32.530223" lon="-1.017728">
   <ele>1250.00</ele>
   <time>2014-04-04T16:05:34Z</time>
  </trkpt>
  <trkpt lat="32.530406" lon="-1.017061">
   <ele>1247.00</ele>
   <time>2014-04-04T16:05:38Z</time>
  </trkpt>
  <trkpt lat="32.530473" lon="-1.016689">
   <ele>1245.00</ele>
   <time>2014-04-04T16:05:40Z</time>
  </trkpt>
  <trkpt lat="32.530519" lon="-1.016296">
   <ele>1242.00</ele>
   <time>2014-04-04T16:05:42Z</time>
  </trkpt>
  <trkpt lat="32.530543" lon="-1.015888">
   <ele>1239.00</ele>
   <time>2014-04-04T16:05:44Z</time>
  </trkpt>
  <trkpt lat="32.530584" lon="-1.014886">
   <ele>1234.00</ele>
   <time>2014-04-04T16:05:49Z</time>
  </trkpt>
  <trkpt lat="32.530538" lon="-1.014516">
   <ele>1231.00</ele>
   <time>2014-04-04T16:05:51Z</time>
  </trkpt>
  <trkpt lat="32.530408" lon="-1.014170">
   <ele>1228.00</ele>
   <time>2014-04-04T16:05:53Z</time>
  </trkpt>
  <trkpt lat="32.530232" lon="-1.013843">
   <ele>1225.00</ele>
   <time>2014-04-04T16:05:55Z</time>
  </trkpt>
  <trkpt lat="32.530042" lon="-1.013527">
   <ele>1223.00</ele>
   <time>2014-04-04T16:05:57Z</time>
  </trkpt>
  <trkpt lat="32.529849" lon="-1.013236">
   <ele>1222.00</ele>
   <time>2014-04-04T16:05:59Z</time>
  </trkpt>
  <trkpt lat="32.529653" lon="-1.012987">
   <ele>1222.00</ele>
   <time>2014-04-04T16:06:01Z</time>
  </trkpt>
  <trkpt lat="32.529413" lon="-1.012854">
   <ele>1222.00</ele>
   <time>2014-04-04T16:06:03Z</time>
  </trkpt>
  <trkpt lat="32.529173" lon="-1.012805">
   <ele>1222.00</ele>
   <time>2014-04-04T16:06:05Z</time>
  </trkpt>
  <trkpt lat="32.528936" lon="-1.012783">
   <ele>1222.00</ele>
   <time>2014-04-04T16:06:07Z</time>
  </trkpt>
  <trkpt lat="32.528589" lon="-1.012744">
   <ele>1224.00</ele>
   <time>2014-04-04T16:06:10Z</time>
  </trkpt>
  <trkpt lat="32.528378" lon="-1.012661">
   <ele>1224.00</ele>
   <time>2014-04-04T16:06:12Z</time>
  </trkpt>
  <trkpt lat="32.528181" lon="-1.012517">
   <ele>1224.00</ele>
   <time>2014-04-04T16:06:14Z</time>
  </trkpt>
  <trkpt lat="32.527639" lon="-1.012112">
   <ele>1221.00</ele>
   <time>2014-04-04T16:06:19Z</time>
  </trkpt>
  <trkpt lat="32.527395" lon="-1.011961">
   <ele>1220.00</ele>
   <time>2014-04-04T16:06:21Z</time>
  </trkpt>
  <trkpt lat="32.527137" lon="-1.011840">
   <ele>1219.00</ele>
   <time>2014-04-04T16:06:23Z</time>
  </trkpt>
  <trkpt lat="32.526867" lon="-1.011796">
   <ele>1218.00</ele>
   <time>2014-04-04T16:06:25Z</time>
  </trkpt>
  <trkpt lat="32.526593" lon="-1.011863">
   <ele>1217.00</ele>
   <time>2014-04-04T16:06:27Z</time>
  </trkpt>
  <trkpt lat="32.526310" lon="-1.011939">
   <ele>1216.00</ele>
   <time>2014-04-04T16:06:29Z</time>
  </trkpt>
  <trkpt lat="32.526016" lon="-1.011967">
   <ele>1216.00</ele>
   <time>2014-04-04T16:06:31Z</time>
  </trkpt>
  <trkpt lat="32.525568" lon="-1.012000">
   <ele>1216.00</ele>
   <time>2014-04-04T16:06:34Z</time>
  </trkpt>
  <trkpt lat="32.525268" lon="-1.012042">
   <ele>1216.00</ele>
   <time>2014-04-04T16:06:36Z</time>
  </trkpt>
  <trkpt lat="32.524974" lon="-1.012106">
   <ele>1216.00</ele>
   <time>2014-04-04T16:06:38Z</time>
  </trkpt>
  <trkpt lat="32.524687" lon="-1.012194">
   <ele>1216.00</ele>
   <time>2014-04-04T16:06:40Z</time>
  </trkpt>
  <trkpt lat="32.524412" lon="-1.012309">
   <ele>1217.00</ele>
   <time>2014-04-04T16:06:42Z</time>
  </trkpt>
  <trkpt lat="32.524147" lon="-1.012441">
   <ele>1217.00</ele>
   <time>2014-04-04T16:06:44Z</time>
  </trkpt>
  <trkpt lat="32.523762" lon="-1.012626">
   <ele>1217.00</ele>
   <time>2014-04-04T16:06:47Z</time>
  </trkpt>
  <trkpt lat="32.523499" lon="-1.012705">
   <ele>1217.00</ele>
   <time>2014-04-04T16:06:49Z</time>
  </trkpt>
  <trkpt lat="32.523225" lon="-1.012738">
   <ele>1217.00</ele>
   <time>2014-04-04T16:06:51Z</time>
  </trkpt>
  <trkpt lat="32.522949" lon="-1.012750">
   <ele>1218.00</ele>
   <time>2014-04-04T16:06:53Z</time>
  </trkpt>
  <trkpt lat="32.522679" lon="-1.012732">
   <ele>1219.00</ele>
   <time>2014-04-04T16:06:55Z</time>
  </trkpt>
  <trkpt lat="32.522412" lon="-1.012661">
   <ele>1219.00</ele>
   <time>2014-04-04T16:06:57Z</time>
  </trkpt>
  <trkpt lat="32.522144" lon="-1.012544">
   <ele>1219.00</ele>
   <time>2014-04-04T16:06:59Z</time>
  </trkpt>
  <trkpt lat="32.521874" lon="-1.012401">
   <ele>1219.00</ele>
   <time>2014-04-04T16:07:01Z</time>
  </trkpt>
  <trkpt lat="32.521605" lon="-1.012231">
   <ele>1219.00</ele>
   <time>2014-04-04T16:07:03Z</time>
  </trkpt>
  <trkpt lat="32.520522" lon="-1.011539">
   <ele>1219.00</ele>
   <time>2014-04-04T16:07:11Z</time>
  </trkpt>
  <trkpt lat="32.520245" lon="-1.011392">
   <ele>1219.00</ele>
   <time>2014-04-04T16:07:13Z</time>
  </trkpt>
  <trkpt lat="32.519949" lon="-1.011297">
   <ele>1218.00</ele>
   <time>2014-04-04T16:07:15Z</time>
  </trkpt>
  <trkpt lat="32.519636" lon="-1.011261">
   <ele>1218.00</ele>
   <time>2014-04-04T16:07:17Z</time>
  </trkpt>
  <trkpt lat="32.519159" lon="-1.011241">
   <ele>1218.00</ele>
   <time>2014-04-04T16:07:20Z</time>
  </trkpt>
  <trkpt lat="32.518838" lon="-1.011250">
   <ele>1217.00</ele>
   <time>2014-04-04T16:07:22Z</time>
  </trkpt>
  <trkpt lat="32.517904" lon="-1.011283">
   <ele>1216.00</ele>
   <time>2014-04-04T16:07:28Z</time>
  </trkpt>
  <trkpt lat="32.517323" lon="-1.011268">
   <ele>1215.00</ele>
   <time>2014-04-04T16:07:32Z</time>
  </trkpt>
  <trkpt lat="32.517061" lon="-1.011261">
   <ele>1214.00</ele>
   <time>2014-04-04T16:07:34Z</time>
  </trkpt>
  <trkpt lat="32.516725" lon="-1.011261">
   <ele>1213.00</ele>
   <time>2014-04-04T16:07:37Z</time>
  </trkpt>
  <trkpt lat="32.516528" lon="-1.011238">
   <ele>1213.00</ele>
   <time>2014-04-04T16:07:39Z</time>
  </trkpt>
  <trkpt lat="32.516341" lon="-1.011188">
   <ele>1213.00</ele>
   <time>2014-04-04T16:07:41Z</time>
  </trkpt>
  <trkpt lat="32.516160" lon="-1.011096">
   <ele>1214.00</ele>
   <time>2014-04-04T16:07:43Z</time>
  </trkpt>
  <trkpt lat="32.515988" lon="-1.010962">
   <ele>1215.00</ele>
   <time>2014-04-04T16:07:45Z</time>
  </trkpt>
  <trkpt lat="32.515822" lon="-1.010810">
   <ele>1217.00</ele>
   <time>2014-04-04T16:07:47Z</time>
  </trkpt>
  <trkpt lat="32.515432" lon="-1.010412">
   <ele>1218.00</ele>
   <time>2014-04-04T16:07:52Z</time>
  </trkpt>
  <trkpt lat="32.515298" lon="-1.010242">
   <ele>1219.00</ele>
   <time>2014-04-04T16:07:54Z</time>
  </trkpt>
  <trkpt lat="32.515188" lon="-1.010051">
   <ele>1219.00</ele>
   <time>2014-04-04T16:07:56Z</time>
  </trkpt>
  <trkpt lat="32.515102" lon="-1.009842">
   <ele>1218.00</ele>
   <time>2014-04-04T16:07:58Z</time>
  </trkpt>
  <trkpt lat="32.515039" lon="-1.009621">
   <ele>1219.00</ele>
   <time>2014-04-04T16:08:00Z</time>
  </trkpt>
  <trkpt lat="32.514991" lon="-1.009390">
   <ele>1219.00</ele>
   <time>2014-04-04T16:08:02Z</time>
  </trkpt>
  <trkpt lat="32.514885" lon="-1.008795">
   <ele>1219.00</ele>
   <time>2014-04-04T16:08:07Z</time>
  </trkpt>
  <trkpt lat="32.514857" lon="-1.008545">
   <ele>1219.00</ele>
   <time>2014-04-04T16:08:09Z</time>
  </trkpt>
  <trkpt lat="32.514807" lon="-1.007913">
   <ele>1218.00</ele>
   <time>2014-04-04T16:08:14Z</time>
  </trkpt>
  <trkpt lat="32.514797" lon="-1.007669">
   <ele>1217.00</ele>
   <time>2014-04-04T16:08:16Z</time>
  </trkpt>
  <trkpt lat="32.514796" lon="-1.007428">
   <ele>1217.00</ele>
   <time>2014-04-04T16:08:18Z</time>
  </trkpt>
  <trkpt lat="32.514804" lon="-1.007187">
   <ele>1217.00</ele>
   <time>2014-04-04T16:08:20Z</time>
  </trkpt>
  <trkpt lat="32.514836" lon="-1.006953">
   <ele>1214.00</ele>
   <time>2014-04-04T16:08:22Z</time>
  </trkpt>
  <trkpt lat="32.514871" lon="-1.006614">
   <ele>1211.00</ele>
   <time>2014-04-04T16:08:25Z</time>
  </trkpt>
  <trkpt lat="32.514871" lon="-1.006388">
   <ele>1211.00</ele>
   <time>2014-04-04T16:08:27Z</time>
  </trkpt>
  <trkpt lat="32.514852" lon="-1.006161">
   <ele>1211.00</ele>
   <time>2014-04-04T16:08:29Z</time>
  </trkpt>
  <trkpt lat="32.514818" lon="-1.005933">
   <ele>1210.00</ele>
   <time>2014-04-04T16:08:31Z</time>
  </trkpt>
  <trkpt lat="32.514776" lon="-1.005711">
   <ele>1210.00</ele>
   <time>2014-04-04T16:08:33Z</time>
  </trkpt>
  <trkpt lat="32.514666" lon="-1.005191">
   <ele>1208.00</ele>
   <time>2014-04-04T16:08:38Z</time>
  </trkpt>
  <trkpt lat="32.514576" lon="-1.004919">
   <ele>1207.00</ele>
   <time>2014-04-04T16:08:41Z</time>
  </trkpt>
  <trkpt lat="32.514455" lon="-1.004681">
   <ele>1207.00</ele>
   <time>2014-04-04T16:08:44Z</time>
  </trkpt>
  <trkpt lat="32.514293" lon="-1.004431">
   <ele>1209.00</ele>
   <time>2014-04-04T16:08:49Z</time>
  </trkpt>
  <trkpt lat="32.514113" lon="-1.004219">
   <ele>1211.00</ele>
   <time>2014-04-04T16:08:55Z</time>
  </trkpt>
  <trkpt lat="32.513973" lon="-1.004030">
   <ele>1212.00</ele>
   <time>2014-04-04T16:09:02Z</time>
  </trkpt>
  <trkpt lat="32.513900" lon="-1.003961">
   <ele>1214.00</ele>
   <time>2014-04-04T16:09:18Z</time>
  </trkpt>
  <trkpt lat="32.513961" lon="-1.004046">
   <ele>1216.00</ele>
   <time>2014-04-04T16:09:34Z</time>
  </trkpt>
  <trkpt lat="32.514078" lon="-1.004124">
   <ele>1217.00</ele>
   <time>2014-04-04T16:09:49Z</time>
  </trkpt>
  <trkpt lat="32.514066" lon="-1.004154">
   <ele>1216.00</ele>
   <time>2014-04-04T16:10:05Z</time>
  </trkpt>
  <trkpt lat="32.514170" lon="-1.004288">
   <ele>1213.00</ele>
   <time>2014-04-04T16:10:17Z</time>
  </trkpt>
  <trkpt lat="32.514181" lon="-1.004197">
   <ele>1214.00</ele>
   <time>2014-04-04T16:10:33Z</time>
  </trkpt>
  <trkpt lat="32.514194" lon="-1.004193">
   <ele>1211.00</ele>
   <time>2014-04-04T16:10:43Z</time>
  </trkpt>
 </trkseg>
 <trkseg>
  <trkpt lat="32.516628" lon="-1.011278">
   <ele>1216.00</ele>
   <time>2014-04-04T17:37:25Z</time>
  </trkpt>
  <trkpt lat="32.516816" lon="-1.011290">
   <ele>1215.00</ele>
   <time>2014-04-04T17:37:27Z</time>
  </trkpt>
  <trkpt lat="32.518419" lon="-1.011282">
   <ele>1195.00</ele>
   <time>2014-04-04T17:37:42Z</time>
  </trkpt>
  <trkpt lat="32.518630" lon="-1.011271">
   <ele>1195.00</ele>
   <time>2014-04-04T17:37:44Z</time>
  </trkpt>
  <trkpt lat="32.519244" lon="-1.011235">
   <ele>1197.00</ele>
   <time>2014-04-04T17:37:50Z</time>
  </trkpt>
  <trkpt lat="32.519448" lon="-1.011239">
   <ele>1196.00</ele>
   <time>2014-04-04T17:37:52Z</time>
  </trkpt>
  <trkpt lat="32.519984" lon="-1.011267">
   <ele>1194.00</ele>
   <time>2014-04-04T17:37:57Z</time>
  </trkpt>
  <trkpt lat="32.520217" lon="-1.011307">
   <ele>1194.00</ele>
   <time>2014-04-04T17:37:59Z</time>
  </trkpt>
  <trkpt lat="32.520438" lon="-1.011385">
   <ele>1193.00</ele>
   <time>2014-04-04T17:38:01Z</time>
  </trkpt>
  <trkpt lat="32.520653" lon="-1.011495">
   <ele>1192.00</ele>
   <time>2014-04-04T17:38:03Z</time>
  </trkpt>
  <trkpt lat="32.520878" lon="-1.011628">
   <ele>1192.00</ele>
   <time>2014-04-04T17:38:05Z</time>
  </trkpt>
  <trkpt lat="32.521587" lon="-1.012083">
   <ele>1190.00</ele>
   <time>2014-04-04T17:38:11Z</time>
  </trkpt>
  <trkpt lat="32.522053" lon="-1.012388">
   <ele>1191.00</ele>
   <time>2014-04-04T17:38:15Z</time>
  </trkpt>
  <trkpt lat="32.522293" lon="-1.012516">
   <ele>1192.00</ele>
   <time>2014-04-04T17:38:17Z</time>
  </trkpt>
  <trkpt lat="32.522529" lon="-1.012619">
   <ele>1193.00</ele>
   <time>2014-04-04T17:38:19Z</time>
  </trkpt>
  <trkpt lat="32.522741" lon="-1.012688">
   <ele>1194.00</ele>
   <time>2014-04-04T17:38:21Z</time>
  </trkpt>
  <trkpt lat="32.522922" lon="-1.012716">
   <ele>1195.00</ele>
   <time>2014-04-04T17:38:24Z</time>
  </trkpt>
  <trkpt lat="32.523116" lon="-1.012707">
   <ele>1197.00</ele>
   <time>2014-04-04T17:38:32Z</time>
  </trkpt>
  <trkpt lat="32.523197" lon="-1.012696">
   <ele>1201.00</ele>
   <time>2014-04-04T17:38:47Z</time>
  </trkpt>
  <trkpt lat="32.523368" lon="-1.012698">
   <ele>1197.00</ele>
   <time>2014-04-04T17:39:03Z</time>
  </trkpt>
  <trkpt lat="32.523569" lon="-1.012684">
   <ele>1197.00</ele>
   <time>2014-04-04T17:39:11Z</time>
  </trkpt>
  <trkpt lat="32.523766" lon="-1.012638">
   <ele>1197.00</ele>
   <time>2014-04-04T17:39:17Z</time>
  </trkpt>
  <trkpt lat="32.523959" lon="-1.012571">
   <ele>1196.00</ele>
   <time>2014-04-04T17:39:21Z</time>
  </trkpt>
  <trkpt lat="32.524140" lon="-1.012485">
   <ele>1196.00</ele>
   <time>2014-04-04T17:39:24Z</time>
  </trkpt>
  <trkpt lat="32.524482" lon="-1.012312">
   <ele>1196.00</ele>
   <time>2014-04-04T17:39:29Z</time>
  </trkpt>
  <trkpt lat="32.524708" lon="-1.012219">
   <ele>1196.00</ele>
   <time>2014-04-04T17:39:32Z</time>
  </trkpt>
  <trkpt lat="32.524972" lon="-1.012126">
   <ele>1196.00</ele>
   <time>2014-04-04T17:39:35Z</time>
  </trkpt>
  <trkpt lat="32.525164" lon="-1.012070">
   <ele>1195.00</ele>
   <time>2014-04-04T17:39:37Z</time>
  </trkpt>
  <trkpt lat="32.525371" lon="-1.012024">
   <ele>1195.00</ele>
   <time>2014-04-04T17:39:39Z</time>
  </trkpt>
  <trkpt lat="32.525589" lon="-1.011997">
   <ele>1195.00</ele>
   <time>2014-04-04T17:39:41Z</time>
  </trkpt>
  <trkpt lat="32.526457" lon="-1.011941">
   <ele>1195.00</ele>
   <time>2014-04-04T17:39:49Z</time>
  </trkpt>
  <trkpt lat="32.526667" lon="-1.011889">
   <ele>1195.00</ele>
   <time>2014-04-04T17:39:51Z</time>
  </trkpt>
  <trkpt lat="32.526961" lon="-1.011790">
   <ele>1196.00</ele>
   <time>2014-04-04T17:39:54Z</time>
  </trkpt>
  <trkpt lat="32.527158" lon="-1.011788">
   <ele>1196.00</ele>
   <time>2014-04-04T17:39:56Z</time>
  </trkpt>
  <trkpt lat="32.527356" lon="-1.011852">
   <ele>1196.00</ele>
   <time>2014-04-04T17:39:58Z</time>
  </trkpt>
  <trkpt lat="32.527556" lon="-1.011951">
   <ele>1197.00</ele>
   <time>2014-04-04T17:40:00Z</time>
  </trkpt>
  <trkpt lat="32.527758" lon="-1.012078">
   <ele>1197.00</ele>
   <time>2014-04-04T17:40:02Z</time>
  </trkpt>
  <trkpt lat="32.527959" lon="-1.012224">
   <ele>1197.00</ele>
   <time>2014-04-04T17:40:04Z</time>
  </trkpt>
  <trkpt lat="32.528602" lon="-1.012704">
   <ele>1198.00</ele>
   <time>2014-04-04T17:40:11Z</time>
  </trkpt>
  <trkpt lat="32.528784" lon="-1.012773">
   <ele>1198.00</ele>
   <time>2014-04-04T17:40:13Z</time>
  </trkpt>
  <trkpt lat="32.528984" lon="-1.012806">
   <ele>1198.00</ele>
   <time>2014-04-04T17:40:15Z</time>
  </trkpt>
  <trkpt lat="32.529394" lon="-1.012858">
   <ele>1198.00</ele>
   <time>2014-04-04T17:40:19Z</time>
  </trkpt>
  <trkpt lat="32.529595" lon="-1.012917">
   <ele>1197.00</ele>
   <time>2014-04-04T17:40:21Z</time>
  </trkpt>
  <trkpt lat="32.529776" lon="-1.013055">
   <ele>1196.00</ele>
   <time>2014-04-04T17:40:23Z</time>
  </trkpt>
  <trkpt lat="32.529926" lon="-1.013265">
   <ele>1196.00</ele>
   <time>2014-04-04T17:40:25Z</time>
  </trkpt>
  <trkpt lat="32.530144" lon="-1.013624">
   <ele>1195.00</ele>
   <time>2014-04-04T17:40:28Z</time>
  </trkpt>
  <trkpt lat="32.530367" lon="-1.014005">
   <ele>1196.00</ele>
   <time>2014-04-04T17:40:31Z</time>
  </trkpt>
  <trkpt lat="32.530500" lon="-1.014277">
   <ele>1198.00</ele>
   <time>2014-04-04T17:40:33Z</time>
  </trkpt>
  <trkpt lat="32.530606" lon="-1.014559">
   <ele>1199.00</ele>
   <time>2014-04-04T17:40:35Z</time>
  </trkpt>
  <trkpt lat="32.530664" lon="-1.014849">
   <ele>1201.00</ele>
   <time>2014-04-04T17:40:37Z</time>
  </trkpt>
  <trkpt lat="32.530671" lon="-1.015128">
   <ele>1203.00</ele>
   <time>2014-04-04T17:40:39Z</time>
  </trkpt>
  <trkpt lat="32.530655" lon="-1.015399">
   <ele>1205.00</ele>
   <time>2014-04-04T17:40:41Z</time>
  </trkpt>
  <trkpt lat="32.530590" lon="-1.016297">
   <ele>1214.00</ele>
   <time>2014-04-04T17:40:48Z</time>
  </trkpt>
  <trkpt lat="32.530546" lon="-1.016680">
   <ele>1218.00</ele>
   <time>2014-04-04T17:40:51Z</time>
  </trkpt>
  <trkpt lat="32.530502" lon="-1.016940">
   <ele>1221.00</ele>
   <time>2014-04-04T17:40:53Z</time>
  </trkpt>
  <trkpt lat="32.530444" lon="-1.017203">
   <ele>1223.00</ele>
   <time>2014-04-04T17:40:55Z</time>
  </trkpt>
  <trkpt lat="32.530376" lon="-1.017469">
   <ele>1226.00</ele>
   <time>2014-04-04T17:40:57Z</time>
  </trkpt>
  <trkpt lat="32.530187" lon="-1.018152">
   <ele>1230.00</ele>
   <time>2014-04-04T17:41:02Z</time>
  </trkpt>
  <trkpt lat="32.530145" lon="-1.018433">
   <ele>1231.00</ele>
   <time>2014-04-04T17:41:04Z</time>
  </trkpt>
  <trkpt lat="32.530138" lon="-1.018729">
   <ele>1231.00</ele>
   <time>2014-04-04T17:41:06Z</time>
  </trkpt>
  <trkpt lat="32.530180" lon="-1.019030">
   <ele>1232.00</ele>
   <time>2014-04-04T17:41:08Z</time>
  </trkpt>
  <trkpt lat="32.530268" lon="-1.019321">
   <ele>1233.00</ele>
   <time>2014-04-04T17:41:10Z</time>
  </trkpt>
  <trkpt lat="32.530380" lon="-1.019595">
   <ele>1233.00</ele>
   <time>2014-04-04T17:41:12Z</time>
  </trkpt>
  <trkpt lat="32.530497" lon="-1.019880">
   <ele>1232.00</ele>
   <time>2014-04-04T17:41:14Z</time>
  </trkpt>
  <trkpt lat="32.530579" lon="-1.020198">
   <ele>1232.00</ele>
   <time>2014-04-04T17:41:16Z</time>
  </trkpt>
  <trkpt lat="32.530609" lon="-1.020542">
   <ele>1232.00</ele>
   <time>2014-04-04T17:41:18Z</time>
  </trkpt>
  <trkpt lat="32.530592" lon="-1.020886">
   <ele>1232.00</ele>
   <time>2014-04-04T17:41:20Z</time>
  </trkpt>
  <trkpt lat="32.530582" lon="-1.021214">
   <ele>1231.00</ele>
   <time>2014-04-04T17:41:22Z</time>
  </trkpt>
  <trkpt lat="32.530615" lon="-1.021523">
   <ele>1231.00</ele>
   <time>2014-04-04T17:41:24Z</time>
  </trkpt>
  <trkpt lat="32.530694" lon="-1.021810">
   <ele>1230.00</ele>
   <time>2014-04-04T17:41:26Z</time>
  </trkpt>
  <trkpt lat="32.531555" lon="-1.024263">
   <ele>1221.00</ele>
   <time>2014-04-04T17:41:41Z</time>
  </trkpt>
  <trkpt lat="32.531861" lon="-1.025197">
   <ele>1221.00</ele>
   <time>2014-04-04T17:41:47Z</time>
  </trkpt>
  <trkpt lat="32.531892" lon="-1.025463">
   <ele>1222.00</ele>
   <time>2014-04-04T17:41:49Z</time>
  </trkpt>
  <trkpt lat="32.531712" lon="-1.025695">
   <ele>1223.00</ele>
   <time>2014-04-04T17:41:52Z</time>
  </trkpt>
  <trkpt lat="32.531516" lon="-1.025759">
   <ele>1225.00</ele>
   <time>2014-04-04T17:41:54Z</time>
  </trkpt>
  <trkpt lat="32.531297" lon="-1.025719">
   <ele>1228.00</ele>
   <time>2014-04-04T17:41:56Z</time>
  </trkpt>
  <trkpt lat="32.531076" lon="-1.025638">
   <ele>1230.00</ele>
   <time>2014-04-04T17:41:58Z</time>
  </trkpt>
  <trkpt lat="32.530754" lon="-1.025533">
   <ele>1233.00</ele>
   <time>2014-04-04T17:42:01Z</time>
  </trkpt>
  <trkpt lat="32.530538" lon="-1.025539">
   <ele>1235.00</ele>
   <time>2014-04-04T17:42:03Z</time>
  </trkpt>
  <trkpt lat="32.530316" lon="-1.025607">
   <ele>1236.00</ele>
   <time>2014-04-04T17:42:05Z</time>
  </trkpt>
  <trkpt lat="32.530099" lon="-1.025692">
   <ele>1238.00</ele>
   <time>2014-04-04T17:42:07Z</time>
  </trkpt>
  <trkpt lat="32.529906" lon="-1.025796">
   <ele>1240.00</ele>
   <time>2014-04-04T17:42:09Z</time>
  </trkpt>
  <trkpt lat="32.529754" lon="-1.025967">
   <ele>1242.00</ele>
   <time>2014-04-04T17:42:11Z</time>
  </trkpt>
  <trkpt lat="32.529630" lon="-1.026193">
   <ele>1242.00</ele>
   <time>2014-04-04T17:42:13Z</time>
  </trkpt>
  <trkpt lat="32.529517" lon="-1.026451">
   <ele>1243.00</ele>
   <time>2014-04-04T17:42:15Z</time>
  </trkpt>
  <trkpt lat="32.529414" lon="-1.026731">
   <ele>1244.00</ele>
   <time>2014-04-04T17:42:17Z</time>
  </trkpt>
  <trkpt lat="32.529134" lon="-1.027504">
   <ele>1244.00</ele>
   <time>2014-04-04T17:42:23Z</time>
  </trkpt>
  <trkpt lat="32.529102" lon="-1.027764">
   <ele>1243.00</ele>
   <time>2014-04-04T17:42:25Z</time>
  </trkpt>
  <trkpt lat="32.529125" lon="-1.028046">
   <ele>1243.00</ele>
   <time>2014-04-04T17:42:27Z</time>
  </trkpt>
  <trkpt lat="32.529183" lon="-1.028639">
   <ele>1243.00</ele>
   <time>2014-04-04T17:42:31Z</time>
  </trkpt>
  <trkpt lat="32.529159" lon="-1.028952">
   <ele>1244.00</ele>
   <time>2014-04-04T17:42:33Z</time>
  </trkpt>
  <trkpt lat="32.529101" lon="-1.029283">
   <ele>1245.00</ele>
   <time>2014-04-04T17:42:35Z</time>
  </trkpt>
  <trkpt lat="32.528758" lon="-1.030880">
   <ele>1250.00</ele>
   <time>2014-04-04T17:42:44Z</time>
  </trkpt>
  <trkpt lat="32.527999" lon="-1.034234">
   <ele>1258.00</ele>
   <time>2014-04-04T17:42:59Z</time>
  </trkpt>
  <trkpt lat="32.527632" lon="-1.035817">
   <ele>1259.00</ele>
   <time>2014-04-04T17:43:06Z</time>
  </trkpt>
  <trkpt lat="32.527480" lon="-1.036713">
   <ele>1258.00</ele>
   <time>2014-04-04T17:43:10Z</time>
  </trkpt>
  <trkpt lat="32.527352" lon="-1.037621">
   <ele>1257.00</ele>
   <time>2014-04-04T17:43:14Z</time>
  </trkpt>
  <trkpt lat="32.527310" lon="-1.038061">
   <ele>1257.00</ele>
   <time>2014-04-04T17:43:16Z</time>
  </trkpt>
  <trkpt lat="32.527290" lon="-1.038489">
   <ele>1256.00</ele>
   <time>2014-04-04T17:43:18Z</time>
  </trkpt>
  <trkpt lat="32.527233" lon="-1.040326">
   <ele>1253.00</ele>
   <time>2014-04-04T17:43:27Z</time>
  </trkpt>
  <trkpt lat="32.527264" lon="-1.040732">
   <ele>1252.00</ele>
   <time>2014-04-04T17:43:29Z</time>
  </trkpt>
  <trkpt lat="32.527346" lon="-1.041136">
   <ele>1251.00</ele>
   <time>2014-04-04T17:43:31Z</time>
  </trkpt>
  <trkpt lat="32.527482" lon="-1.041524">
   <ele>1250.00</ele>
   <time>2014-04-04T17:43:33Z</time>
  </trkpt>
  <trkpt lat="32.527663" lon="-1.041878">
   <ele>1249.00</ele>
   <time>2014-04-04T17:43:35Z</time>
  </trkpt>
  <trkpt lat="32.527879" lon="-1.042184">
   <ele>1249.00</ele>
   <time>2014-04-04T17:43:37Z</time>
  </trkpt>
  <trkpt lat="32.529844" lon="-1.044558">
   <ele>1244.00</ele>
   <time>2014-04-04T17:43:53Z</time>
  </trkpt>
  <trkpt lat="32.530088" lon="-1.044894">
   <ele>1243.00</ele>
   <time>2014-04-04T17:43:55Z</time>
  </trkpt>
  <trkpt lat="32.530202" lon="-1.045068">
   <ele>1243.00</ele>
   <time>2014-04-04T17:43:56Z</time>
  </trkpt>
  <trkpt lat="32.530307" lon="-1.045247">
   <ele>1242.00</ele>
   <time>2014-04-04T17:43:57Z</time>
  </trkpt>
  <trkpt lat="32.530401" lon="-1.045436">
   <ele>1242.00</ele>
   <time>2014-04-04T17:43:58Z</time>
  </trkpt>
  <trkpt lat="32.530483" lon="-1.045634">
   <ele>1242.00</ele>
   <time>2014-04-04T17:43:59Z</time>
  </trkpt>
  <trkpt lat="32.530551" lon="-1.045841">
   <ele>1242.00</ele>
   <time>2014-04-04T17:44:00Z</time>
  </trkpt>
  <trkpt lat="32.530609" lon="-1.046056">
   <ele>1242.00</ele>
   <time>2014-04-04T17:44:01Z</time>
  </trkpt>
  <trkpt lat="32.531489" lon="-1.049798">
   <ele>1244.00</ele>
   <time>2014-04-04T17:44:17Z</time>
  </trkpt>
  <trkpt lat="32.532034" lon="-1.052167">
   <ele>1249.00</ele>
   <time>2014-04-04T17:44:27Z</time>
  </trkpt>
  <trkpt lat="32.532111" lon="-1.052653">
   <ele>1251.00</ele>
   <time>2014-04-04T17:44:29Z</time>
  </trkpt>
  <trkpt lat="32.532317" lon="-1.054371">
   <ele>1256.00</ele>
   <time>2014-04-04T17:44:36Z</time>
  </trkpt>
  <trkpt lat="32.532742" lon="-1.057996">
   <ele>1261.00</ele>
   <time>2014-04-04T17:44:51Z</time>
  </trkpt>
  <trkpt lat="32.533067" lon="-1.060820">
   <ele>1263.00</ele>
   <time>2014-04-04T17:45:03Z</time>
  </trkpt>
  <trkpt lat="32.533092" lon="-1.061293">
   <ele>1263.00</ele>
   <time>2014-04-04T17:45:05Z</time>
  </trkpt>
  <trkpt lat="32.533098" lon="-1.061769">
   <ele>1264.00</ele>
   <time>2014-04-04T17:45:07Z</time>
  </trkpt>
  <trkpt lat="32.533079" lon="-1.062248">
   <ele>1264.00</ele>
   <time>2014-04-04T17:45:09Z</time>
  </trkpt>
  <trkpt lat="32.532843" lon="-1.065946">
   <ele>1267.00</ele>
   <time>2014-04-04T17:45:24Z</time>
  </trkpt>
  <trkpt lat="32.532617" lon="-1.069809">
   <ele>1273.00</ele>
   <time>2014-04-04T17:45:39Z</time>
  </trkpt>
  <trkpt lat="32.532361" lon="-1.073871">
   <ele>1281.00</ele>
   <time>2014-04-04T17:45:55Z</time>
  </trkpt>
  <trkpt lat="32.532339" lon="-1.074325">
   <ele>1282.00</ele>
   <time>2014-04-04T17:45:57Z</time>
  </trkpt>
  <trkpt lat="32.532339" lon="-1.074546">
   <ele>1282.00</ele>
   <time>2014-04-04T17:45:58Z</time>
  </trkpt>
  <trkpt lat="32.532347" lon="-1.074767">
   <ele>1282.00</ele>
   <time>2014-04-04T17:45:59Z</time>
  </trkpt>
  <trkpt lat="32.532364" lon="-1.074988">
   <ele>1282.00</ele>
   <time>2014-04-04T17:46:00Z</time>
  </trkpt>
  <trkpt lat="32.532391" lon="-1.075211">
   <ele>1282.00</ele>
   <time>2014-04-04T17:46:01Z</time>
  </trkpt>
  <trkpt lat="32.532428" lon="-1.075431">
   <ele>1282.00</ele>
   <time>2014-04-04T17:46:02Z</time>
  </trkpt>
  <trkpt lat="32.532960" lon="-1.077906">
   <ele>1278.00</ele>
   <time>2014-04-04T17:46:13Z</time>
  </trkpt>
  <trkpt lat="32.533748" lon="-1.081583">
   <ele>1278.00</ele>
   <time>2014-04-04T17:46:29Z</time>
  </trkpt>
  <trkpt lat="32.534506" lon="-1.085171">
   <ele>1284.00</ele>
   <time>2014-04-04T17:46:44Z</time>
  </trkpt>
  <trkpt lat="32.535267" lon="-1.088748">
   <ele>1293.00</ele>
   <time>2014-04-04T17:46:59Z</time>
  </trkpt>
  <trkpt lat="32.536085" lon="-1.092615">
   <ele>1303.00</ele>
   <time>2014-04-04T17:47:15Z</time>
  </trkpt>
  <trkpt lat="32.536856" lon="-1.096236">
   <ele>1308.00</ele>
   <time>2014-04-04T17:47:30Z</time>
  </trkpt>
  <trkpt lat="32.536953" lon="-1.096731">
   <ele>1309.00</ele>
   <time>2014-04-04T17:47:32Z</time>
  </trkpt>
  <trkpt lat="32.537028" lon="-1.097231">
   <ele>1309.00</ele>
   <time>2014-04-04T17:47:34Z</time>
  </trkpt>
  <trkpt lat="32.537080" lon="-1.097733">
   <ele>1310.00</ele>
   <time>2014-04-04T17:47:36Z</time>
  </trkpt>
  <trkpt lat="32.537114" lon="-1.098241">
   <ele>1311.00</ele>
   <time>2014-04-04T17:47:38Z</time>
  </trkpt>
  <trkpt lat="32.537126" lon="-1.098762">
   <ele>1311.00</ele>
   <time>2014-04-04T17:47:40Z</time>
  </trkpt>
  <trkpt lat="32.537116" lon="-1.099289">
   <ele>1312.00</ele>
   <time>2014-04-04T17:47:42Z</time>
  </trkpt>
  <trkpt lat="32.537088" lon="-1.099823">
   <ele>1312.00</ele>
   <time>2014-04-04T17:47:44Z</time>
  </trkpt>
  <trkpt lat="32.537012" lon="-1.100622">
   <ele>1313.00</ele>
   <time>2014-04-04T17:47:47Z</time>
  </trkpt>
  <trkpt lat="32.536476" lon="-1.104598">
   <ele>1315.00</ele>
   <time>2014-04-04T17:48:02Z</time>
  </trkpt>
  <trkpt lat="32.535990" lon="-1.108441">
   <ele>1309.00</ele>
   <time>2014-04-04T17:48:17Z</time>
  </trkpt>
  <trkpt lat="32.535727" lon="-1.110492">
   <ele>1304.00</ele>
   <time>2014-04-04T17:48:26Z</time>
  </trkpt>
  <trkpt lat="32.535709" lon="-1.110717">
   <ele>1303.00</ele>
   <time>2014-04-04T17:48:27Z</time>
  </trkpt>
  <trkpt lat="32.535700" lon="-1.110944">
   <ele>1303.00</ele>
   <time>2014-04-04T17:48:28Z</time>
  </trkpt>
  <trkpt lat="32.535701" lon="-1.111173">
   <ele>1302.00</ele>
   <time>2014-04-04T17:48:29Z</time>
  </trkpt>
  <trkpt lat="32.535712" lon="-1.111402">
   <ele>1302.00</ele>
   <time>2014-04-04T17:48:30Z</time>
  </trkpt>
  <trkpt lat="32.535733" lon="-1.111632">
   <ele>1301.00</ele>
   <time>2014-04-04T17:48:31Z</time>
  </trkpt>
  <trkpt lat="32.535767" lon="-1.111861">
   <ele>1301.00</ele>
   <time>2014-04-04T17:48:32Z</time>
  </trkpt>
  <trkpt lat="32.535817" lon="-1.112087">
   <ele>1301.00</ele>
   <time>2014-04-04T17:48:33Z</time>
  </trkpt>
  <trkpt lat="32.535880" lon="-1.112309">
   <ele>1300.00</ele>
   <time>2014-04-04T17:48:34Z</time>
  </trkpt>
  <trkpt lat="32.535955" lon="-1.112525">
   <ele>1301.00</ele>
   <time>2014-04-04T17:48:35Z</time>
  </trkpt>
  <trkpt lat="32.536040" lon="-1.112735">
   <ele>1301.00</ele>
   <time>2014-04-04T17:48:36Z</time>
  </trkpt>
  <trkpt lat="32.536132" lon="-1.112939">
   <ele>1301.00</ele>
   <time>2014-04-04T17:48:37Z</time>
  </trkpt>
  <trkpt lat="32.536231" lon="-1.113136">
   <ele>1302.00</ele>
   <time>2014-04-04T17:48:38Z</time>
  </trkpt>
  <trkpt lat="32.536339" lon="-1.113324">
   <ele>1302.00</ele>
   <time>2014-04-04T17:48:39Z</time>
  </trkpt>
  <trkpt lat="32.536458" lon="-1.113501">
   <ele>1302.00</ele>
   <time>2014-04-04T17:48:40Z</time>
  </trkpt>
  <trkpt lat="32.536586" lon="-1.113665">
   <ele>1303.00</ele>
   <time>2014-04-04T17:48:41Z</time>
  </trkpt>
  <trkpt lat="32.536719" lon="-1.113816">
   <ele>1304.00</ele>
   <time>2014-04-04T17:48:42Z</time>
  </trkpt>
  <trkpt lat="32.536989" lon="-1.114076">
   <ele>1306.00</ele>
   <time>2014-04-04T17:48:44Z</time>
  </trkpt>
  <trkpt lat="32.537270" lon="-1.114294">
   <ele>1308.00</ele>
   <time>2014-04-04T17:48:46Z</time>
  </trkpt>
  <trkpt lat="32.537568" lon="-1.114464">
   <ele>1311.00</ele>
   <time>2014-04-04T17:48:48Z</time>
  </trkpt>
  <trkpt lat="32.537882" lon="-1.114587">
   <ele>1314.00</ele>
   <time>2014-04-04T17:48:50Z</time>
  </trkpt>
  <trkpt lat="32.538366" lon="-1.114743">
   <ele>1319.00</ele>
   <time>2014-04-04T17:48:53Z</time>
  </trkpt>
  <trkpt lat="32.538845" lon="-1.114879">
   <ele>1322.00</ele>
   <time>2014-04-04T17:48:56Z</time>
  </trkpt>
  <trkpt lat="32.539165" lon="-1.114904">
   <ele>1325.00</ele>
   <time>2014-04-04T17:48:58Z</time>
  </trkpt>
  <trkpt lat="32.539469" lon="-1.114820">
   <ele>1330.00</ele>
   <time>2014-04-04T17:49:00Z</time>
  </trkpt>
  <trkpt lat="32.539751" lon="-1.114640">
   <ele>1331.00</ele>
   <time>2014-04-04T17:49:02Z</time>
  </trkpt>
  <trkpt lat="32.540004" lon="-1.114370">
   <ele>1336.00</ele>
   <time>2014-04-04T17:49:04Z</time>
  </trkpt>
  <trkpt lat="32.540246" lon="-1.114105">
   <ele>1341.00</ele>
   <time>2014-04-04T17:49:06Z</time>
  </trkpt>
  <trkpt lat="32.540531" lon="-1.113893">
   <ele>1345.00</ele>
   <time>2014-04-04T17:49:08Z</time>
  </trkpt>
  <trkpt lat="32.540841" lon="-1.113743">
   <ele>1348.00</ele>
   <time>2014-04-04T17:49:10Z</time>
  </trkpt>
  <trkpt lat="32.541161" lon="-1.113648">
   <ele>1350.00</ele>
   <time>2014-04-04T17:49:12Z</time>
  </trkpt>
  <trkpt lat="32.541493" lon="-1.113585">
   <ele>1352.00</ele>
   <time>2014-04-04T17:49:14Z</time>
  </trkpt>
  <trkpt lat="32.541980" lon="-1.113519">
   <ele>1355.00</ele>
   <time>2014-04-04T17:49:17Z</time>
  </trkpt>
  <trkpt lat="32.542296" lon="-1.113552">
   <ele>1356.00</ele>
   <time>2014-04-04T17:49:19Z</time>
  </trkpt>
  <trkpt lat="32.542592" lon="-1.113701">
   <ele>1357.00</ele>
   <time>2014-04-04T17:49:21Z</time>
  </trkpt>
  <trkpt lat="32.542828" lon="-1.113951">
   <ele>1360.00</ele>
   <time>2014-04-04T17:49:23Z</time>
  </trkpt>
  <trkpt lat="32.543007" lon="-1.114266">
   <ele>1361.00</ele>
   <time>2014-04-04T17:49:25Z</time>
  </trkpt>
  <trkpt lat="32.543168" lon="-1.114597">
   <ele>1362.00</ele>
   <time>2014-04-04T17:49:27Z</time>
  </trkpt>
  <trkpt lat="32.543312" lon="-1.114917">
   <ele>1363.00</ele>
   <time>2014-04-04T17:49:29Z</time>
  </trkpt>
  <trkpt lat="32.543409" lon="-1.115211">
   <ele>1364.00</ele>
   <time>2014-04-04T17:49:31Z</time>
  </trkpt>
  <trkpt lat="32.543409" lon="-1.115487">
   <ele>1366.00</ele>
   <time>2014-04-04T17:49:33Z</time>
  </trkpt>
  <trkpt lat="32.543276" lon="-1.115730">
   <ele>1368.00</ele>
   <time>2014-04-04T17:49:35Z</time>
  </trkpt>
  <trkpt lat="32.543083" lon="-1.115904">
   <ele>1371.00</ele>
   <time>2014-04-04T17:49:37Z</time>
  </trkpt>
  <trkpt lat="32.542870" lon="-1.116048">
   <ele>1373.00</ele>
   <time>2014-04-04T17:49:39Z</time>
  </trkpt>
  <trkpt lat="32.542669" lon="-1.116193">
   <ele>1374.00</ele>
   <time>2014-04-04T17:49:41Z</time>
  </trkpt>
  <trkpt lat="32.542497" lon="-1.116368">
   <ele>1375.00</ele>
   <time>2014-04-04T17:49:43Z</time>
  </trkpt>
  <trkpt lat="32.542381" lon="-1.116606">
   <ele>1374.00</ele>
   <time>2014-04-04T17:49:45Z</time>
  </trkpt>
  <trkpt lat="32.542383" lon="-1.116876">
   <ele>1373.00</ele>
   <time>2014-04-04T17:49:47Z</time>
  </trkpt>
  <trkpt lat="32.542488" lon="-1.117154">
   <ele>1370.00</ele>
   <time>2014-04-04T17:49:49Z</time>
  </trkpt>
  <trkpt lat="32.542621" lon="-1.117451">
   <ele>1366.00</ele>
   <time>2014-04-04T17:49:51Z</time>
  </trkpt>
  <trkpt lat="32.542729" lon="-1.117755">
   <ele>1362.00</ele>
   <time>2014-04-04T17:49:53Z</time>
  </trkpt>
  <trkpt lat="32.542745" lon="-1.118083">
   <ele>1359.00</ele>
   <time>2014-04-04T17:49:55Z</time>
  </trkpt>
  <trkpt lat="32.542694" lon="-1.118431">
   <ele>1356.00</ele>
   <time>2014-04-04T17:49:57Z</time>
  </trkpt>
  <trkpt lat="32.542518" lon="-1.119553">
   <ele>1344.00</ele>
   <time>2014-04-04T17:50:03Z</time>
  </trkpt>
  <trkpt lat="32.542432" lon="-1.119939">
   <ele>1339.00</ele>
   <time>2014-04-04T17:50:05Z</time>
  </trkpt>
  <trkpt lat="32.542340" lon="-1.120303">
   <ele>1336.00</ele>
   <time>2014-04-04T17:50:07Z</time>
  </trkpt>
  <trkpt lat="32.542232" lon="-1.120625">
   <ele>1332.00</ele>
   <time>2014-04-04T17:50:09Z</time>
  </trkpt>
  <trkpt lat="32.542090" lon="-1.120915">
   <ele>1329.00</ele>
   <time>2014-04-04T17:50:11Z</time>
  </trkpt>
  <trkpt lat="32.541951" lon="-1.121188">
   <ele>1325.00</ele>
   <time>2014-04-04T17:50:13Z</time>
  </trkpt>
  <trkpt lat="32.541847" lon="-1.121458">
   <ele>1321.00</ele>
   <time>2014-04-04T17:50:15Z</time>
  </trkpt>
  <trkpt lat="32.541843" lon="-1.121739">
   <ele>1318.00</ele>
   <time>2014-04-04T17:50:17Z</time>
  </trkpt>
  <trkpt lat="32.541989" lon="-1.121989">
   <ele>1313.00</ele>
   <time>2014-04-04T17:50:19Z</time>
  </trkpt>
  <trkpt lat="32.542241" lon="-1.122157">
   <ele>1310.00</ele>
   <time>2014-04-04T17:50:21Z</time>
  </trkpt>
  <trkpt lat="32.542896" lon="-1.122585">
   <ele>1304.00</ele>
   <time>2014-04-04T17:50:26Z</time>
  </trkpt>
  <trkpt lat="32.544904" lon="-1.123904">
   <ele>1290.00</ele>
   <time>2014-04-04T17:50:41Z</time>
  </trkpt>
  <trkpt lat="32.545425" lon="-1.124251">
   <ele>1287.00</ele>
   <time>2014-04-04T17:50:45Z</time>
  </trkpt>
  <trkpt lat="32.545640" lon="-1.124470">
   <ele>1285.00</ele>
   <time>2014-04-04T17:50:47Z</time>
  </trkpt>
  <trkpt lat="32.545808" lon="-1.124744">
   <ele>1283.00</ele>
   <time>2014-04-04T17:50:49Z</time>
  </trkpt>
  <trkpt lat="32.545959" lon="-1.125052">
   <ele>1280.00</ele>
   <time>2014-04-04T17:50:51Z</time>
  </trkpt>
  <trkpt lat="32.546093" lon="-1.125391">
   <ele>1278.00</ele>
   <time>2014-04-04T17:50:53Z</time>
  </trkpt>
  <trkpt lat="32.546271" lon="-1.125913">
   <ele>1274.00</ele>
   <time>2014-04-04T17:50:56Z</time>
  </trkpt>
  <trkpt lat="32.546740" lon="-1.127341">
   <ele>1264.00</ele>
   <time>2014-04-04T17:51:04Z</time>
  </trkpt>
  <trkpt lat="32.546817" lon="-1.127699">
   <ele>1262.00</ele>
   <time>2014-04-04T17:51:06Z</time>
  </trkpt>
  <trkpt lat="32.546841" lon="-1.128060">
   <ele>1260.00</ele>
   <time>2014-04-04T17:51:08Z</time>
  </trkpt>
  <trkpt lat="32.546811" lon="-1.128429">
   <ele>1259.00</ele>
   <time>2014-04-04T17:51:10Z</time>
  </trkpt>
  <trkpt lat="32.546745" lon="-1.128795">
   <ele>1257.00</ele>
   <time>2014-04-04T17:51:12Z</time>
  </trkpt>
  <trkpt lat="32.546640" lon="-1.129149">
   <ele>1256.00</ele>
   <time>2014-04-04T17:51:14Z</time>
  </trkpt>
  <trkpt lat="32.546489" lon="-1.129491">
   <ele>1255.00</ele>
   <time>2014-04-04T17:51:16Z</time>
  </trkpt>
  <trkpt lat="32.546284" lon="-1.129813">
   <ele>1255.00</ele>
   <time>2014-04-04T17:51:18Z</time>
  </trkpt>
  <trkpt lat="32.546038" lon="-1.130104">
   <ele>1255.00</ele>
   <time>2014-04-04T17:51:20Z</time>
  </trkpt>
  <trkpt lat="32.545749" lon="-1.130361">
   <ele>1254.00</ele>
   <time>2014-04-04T17:51:22Z</time>
  </trkpt>
  <trkpt lat="32.545437" lon="-1.130594">
   <ele>1254.00</ele>
   <time>2014-04-04T17:51:24Z</time>
  </trkpt>
  <trkpt lat="32.543365" lon="-1.132125">
   <ele>1250.00</ele>
   <time>2014-04-04T17:51:37Z</time>
  </trkpt>
  <trkpt lat="32.543208" lon="-1.132259">
   <ele>1250.00</ele>
   <time>2014-04-04T17:51:38Z</time>
  </trkpt>
  <trkpt lat="32.543053" lon="-1.132403">
   <ele>1252.00</ele>
   <time>2014-04-04T17:51:39Z</time>
  </trkpt>
  <trkpt lat="32.542910" lon="-1.132559">
   <ele>1253.00</ele>
   <time>2014-04-04T17:51:40Z</time>
  </trkpt>
  <trkpt lat="32.542779" lon="-1.132727">
   <ele>1253.00</ele>
   <time>2014-04-04T17:51:41Z</time>
  </trkpt>
  <trkpt lat="32.542657" lon="-1.132907">
   <ele>1252.00</ele>
   <time>2014-04-04T17:51:42Z</time>
  </trkpt>
  <trkpt lat="32.542543" lon="-1.133096">
   <ele>1252.00</ele>
   <time>2014-04-04T17:51:43Z</time>
  </trkpt>
  <trkpt lat="32.542444" lon="-1.133298">
   <ele>1251.00</ele>
   <time>2014-04-04T17:51:44Z</time>
  </trkpt>
  <trkpt lat="32.542358" lon="-1.133515">
   <ele>1250.00</ele>
   <time>2014-04-04T17:51:45Z</time>
  </trkpt>
  <trkpt lat="32.542284" lon="-1.133744">
   <ele>1249.00</ele>
   <time>2014-04-04T17:51:46Z</time>
  </trkpt>
  <trkpt lat="32.542219" lon="-1.133983">
   <ele>1248.00</ele>
   <time>2014-04-04T17:51:47Z</time>
  </trkpt>
  <trkpt lat="32.541192" lon="-1.138025">
   <ele>1233.00</ele>
   <time>2014-04-04T17:52:03Z</time>
  </trkpt>
  <trkpt lat="32.541016" lon="-1.138716">
   <ele>1232.00</ele>
   <time>2014-04-04T17:52:06Z</time>
  </trkpt>
  <trkpt lat="32.540972" lon="-1.138936">
   <ele>1232.00</ele>
   <time>2014-04-04T17:52:07Z</time>
  </trkpt>
  <trkpt lat="32.540941" lon="-1.139157">
   <ele>1231.00</ele>
   <time>2014-04-04T17:52:08Z</time>
  </trkpt>
  <trkpt lat="32.540924" lon="-1.139383">
   <ele>1230.00</ele>
   <time>2014-04-04T17:52:09Z</time>
  </trkpt>
  <trkpt lat="32.540922" lon="-1.139615">
   <ele>1229.00</ele>
   <time>2014-04-04T17:52:10Z</time>
  </trkpt>
  <trkpt lat="32.540934" lon="-1.139852">
   <ele>1228.00</ele>
   <time>2014-04-04T17:52:11Z</time>
  </trkpt>
  <trkpt lat="32.540959" lon="-1.140094">
   <ele>1227.00</ele>
   <time>2014-04-04T17:52:12Z</time>
  </trkpt>
  <trkpt lat="32.540995" lon="-1.140341">
   <ele>1226.00</ele>
   <time>2014-04-04T17:52:13Z</time>
  </trkpt>
  <trkpt lat="32.541234" lon="-1.141870">
   <ele>1222.00</ele>
   <time>2014-04-04T17:52:19Z</time>
  </trkpt>
  <trkpt lat="32.541252" lon="-1.142132">
   <ele>1222.00</ele>
   <time>2014-04-04T17:52:20Z</time>
  </trkpt>
  <trkpt lat="32.541258" lon="-1.142395">
   <ele>1221.00</ele>
   <time>2014-04-04T17:52:21Z</time>
  </trkpt>
  <trkpt lat="32.541220" lon="-1.146332">
   <ele>1223.00</ele>
   <time>2014-04-04T17:52:36Z</time>
  </trkpt>
  <trkpt lat="32.541190" lon="-1.147179">
   <ele>1227.00</ele>
   <time>2014-04-04T17:52:40Z</time>
  </trkpt>
  <trkpt lat="32.541165" lon="-1.147556">
   <ele>1228.00</ele>
   <time>2014-04-04T17:52:42Z</time>
  </trkpt>
  <trkpt lat="32.541112" lon="-1.147923">
   <ele>1229.00</ele>
   <time>2014-04-04T17:52:44Z</time>
  </trkpt>
  <trkpt lat="32.541022" lon="-1.148287">
   <ele>1229.00</ele>
   <time>2014-04-04T17:52:46Z</time>
  </trkpt>
  <trkpt lat="32.540903" lon="-1.148654">
   <ele>1229.00</ele>
   <time>2014-04-04T17:52:48Z</time>
  </trkpt>
  <trkpt lat="32.540766" lon="-1.149017">
   <ele>1228.00</ele>
   <time>2014-04-04T17:52:50Z</time>
  </trkpt>
  <trkpt lat="32.540631" lon="-1.149385">
   <ele>1227.00</ele>
   <time>2014-04-04T17:52:52Z</time>
  </trkpt>
  <trkpt lat="32.540521" lon="-1.149764">
   <ele>1226.00</ele>
   <time>2014-04-04T17:52:54Z</time>
  </trkpt>
  <trkpt lat="32.540468" lon="-1.150152">
   <ele>1224.00</ele>
   <time>2014-04-04T17:52:56Z</time>
  </trkpt>
  <trkpt lat="32.540481" lon="-1.150546">
   <ele>1222.00</ele>
   <time>2014-04-04T17:52:58Z</time>
  </trkpt>
  <trkpt lat="32.540556" lon="-1.150938">
   <ele>1220.00</ele>
   <time>2014-04-04T17:53:00Z</time>
  </trkpt>
  <trkpt lat="32.540698" lon="-1.151314">
   <ele>1217.00</ele>
   <time>2014-04-04T17:53:02Z</time>
  </trkpt>
  <trkpt lat="32.540907" lon="-1.151652">
   <ele>1214.00</ele>
   <time>2014-04-04T17:53:04Z</time>
  </trkpt>
  <trkpt lat="32.541173" lon="-1.151936">
   <ele>1212.00</ele>
   <time>2014-04-04T17:53:06Z</time>
  </trkpt>
  <trkpt lat="32.541326" lon="-1.152053">
   <ele>1211.00</ele>
   <time>2014-04-04T17:53:07Z</time>
  </trkpt>
  <trkpt lat="32.541488" lon="-1.152153">
   <ele>1210.00</ele>
   <time>2014-04-04T17:53:08Z</time>
  </trkpt>
  <trkpt lat="32.541656" lon="-1.152240">
   <ele>1209.00</ele>
   <time>2014-04-04T17:53:09Z</time>
  </trkpt>
  <trkpt lat="32.542358" lon="-1.152568">
   <ele>1207.00</ele>
   <time>2014-04-04T17:53:13Z</time>
  </trkpt>
  <trkpt lat="32.545301" lon="-1.153930">
   <ele>1199.00</ele>
   <time>2014-04-04T17:53:29Z</time>
  </trkpt>
  <trkpt lat="32.545836" lon="-1.154190">
   <ele>1198.00</ele>
   <time>2014-04-04T17:53:32Z</time>
  </trkpt>
  <trkpt lat="32.546006" lon="-1.154287">
   <ele>1197.00</ele>
   <time>2014-04-04T17:53:33Z</time>
  </trkpt>
  <trkpt lat="32.546170" lon="-1.154398">
   <ele>1197.00</ele>
   <time>2014-04-04T17:53:34Z</time>
  </trkpt>
  <trkpt lat="32.546323" lon="-1.154523">
   <ele>1198.00</ele>
   <time>2014-04-04T17:53:35Z</time>
  </trkpt>
  <trkpt lat="32.546467" lon="-1.154663">
   <ele>1197.00</ele>
   <time>2014-04-04T17:53:36Z</time>
  </trkpt>
  <trkpt lat="32.546603" lon="-1.154816">
   <ele>1196.00</ele>
   <time>2014-04-04T17:53:37Z</time>
  </trkpt>
  <trkpt lat="32.546727" lon="-1.154980">
   <ele>1196.00</ele>
   <time>2014-04-04T17:53:38Z</time>
  </trkpt>
  <trkpt lat="32.546838" lon="-1.155159">
   <ele>1195.00</ele>
   <time>2014-04-04T17:53:39Z</time>
  </trkpt>
  <trkpt lat="32.546935" lon="-1.155350">
   <ele>1194.00</ele>
   <time>2014-04-04T17:53:40Z</time>
  </trkpt>
  <trkpt lat="32.547022" lon="-1.155550">
   <ele>1193.00</ele>
   <time>2014-04-04T17:53:41Z</time>
  </trkpt>
  <trkpt lat="32.547179" lon="-1.155964">
   <ele>1192.00</ele>
   <time>2014-04-04T17:53:43Z</time>
  </trkpt>
  <trkpt lat="32.548380" lon="-1.159275">
   <ele>1181.00</ele>
   <time>2014-04-04T17:53:58Z</time>
  </trkpt>
  <trkpt lat="32.549708" lon="-1.162891">
   <ele>1175.00</ele>
   <time>2014-04-04T17:54:14Z</time>
  </trkpt>
  <trkpt lat="32.549791" lon="-1.163086">
   <ele>1175.00</ele>
   <time>2014-04-04T17:54:15Z</time>
  </trkpt>
  <trkpt lat="32.549882" lon="-1.163272">
   <ele>1175.00</ele>
   <time>2014-04-04T17:54:16Z</time>
  </trkpt>
  <trkpt lat="32.550097" lon="-1.163614">
   <ele>1176.00</ele>
   <time>2014-04-04T17:54:18Z</time>
  </trkpt>
  <trkpt lat="32.550223" lon="-1.163772">
   <ele>1176.00</ele>
   <time>2014-04-04T17:54:19Z</time>
  </trkpt>
  <trkpt lat="32.550361" lon="-1.163920">
   <ele>1176.00</ele>
   <time>2014-04-04T17:54:20Z</time>
  </trkpt>
  <trkpt lat="32.550510" lon="-1.164056">
   <ele>1177.00</ele>
   <time>2014-04-04T17:54:21Z</time>
  </trkpt>
  <trkpt lat="32.550668" lon="-1.164184">
   <ele>1177.00</ele>
   <time>2014-04-04T17:54:22Z</time>
  </trkpt>
  <trkpt lat="32.550994" lon="-1.164424">
   <ele>1178.00</ele>
   <time>2014-04-04T17:54:24Z</time>
  </trkpt>
  <trkpt lat="32.551956" lon="-1.165098">
   <ele>1180.00</ele>
   <time>2014-04-04T17:54:30Z</time>
  </trkpt>
  <trkpt lat="32.552213" lon="-1.165362">
   <ele>1182.00</ele>
   <time>2014-04-04T17:54:32Z</time>
  </trkpt>
  <trkpt lat="32.552412" lon="-1.165691">
   <ele>1182.00</ele>
   <time>2014-04-04T17:54:34Z</time>
  </trkpt>
  <trkpt lat="32.552547" lon="-1.166074">
   <ele>1181.00</ele>
   <time>2014-04-04T17:54:36Z</time>
  </trkpt>
  <trkpt lat="32.552595" lon="-1.166280">
   <ele>1181.00</ele>
   <time>2014-04-04T17:54:37Z</time>
  </trkpt>
  <trkpt lat="32.552773" lon="-1.167144">
   <ele>1180.00</ele>
   <time>2014-04-04T17:54:41Z</time>
  </trkpt>
  <trkpt lat="32.553245" lon="-1.169362">
   <ele>1177.00</ele>
   <time>2014-04-04T17:54:51Z</time>
  </trkpt>
  <trkpt lat="32.553308" lon="-1.169576">
   <ele>1177.00</ele>
   <time>2014-04-04T17:54:52Z</time>
  </trkpt>
  <trkpt lat="32.553380" lon="-1.169786">
   <ele>1176.00</ele>
   <time>2014-04-04T17:54:53Z</time>
  </trkpt>
  <trkpt lat="32.553462" lon="-1.169992">
   <ele>1176.00</ele>
   <time>2014-04-04T17:54:54Z</time>
  </trkpt>
  <trkpt lat="32.553552" lon="-1.170193">
   <ele>1176.00</ele>
   <time>2014-04-04T17:54:55Z</time>
  </trkpt>
  <trkpt lat="32.553653" lon="-1.170388">
   <ele>1176.00</ele>
   <time>2014-04-04T17:54:56Z</time>
  </trkpt>
  <trkpt lat="32.553764" lon="-1.170576">
   <ele>1177.00</ele>
   <time>2014-04-04T17:54:57Z</time>
  </trkpt>
  <trkpt lat="32.553886" lon="-1.170756">
   <ele>1177.00</ele>
   <time>2014-04-04T17:54:58Z</time>
  </trkpt>
  <trkpt lat="32.554018" lon="-1.170927">
   <ele>1177.00</ele>
   <time>2014-04-04T17:54:59Z</time>
  </trkpt>
  <trkpt lat="32.554159" lon="-1.171091">
   <ele>1177.00</ele>
   <time>2014-04-04T17:55:00Z</time>
  </trkpt>
  <trkpt lat="32.554305" lon="-1.171244">
   <ele>1177.00</ele>
   <time>2014-04-04T17:55:01Z</time>
  </trkpt>
  <trkpt lat="32.554458" lon="-1.171389">
   <ele>1178.00</ele>
   <time>2014-04-04T17:55:02Z</time>
  </trkpt>
  <trkpt lat="32.554618" lon="-1.171527">
   <ele>1178.00</ele>
   <time>2014-04-04T17:55:03Z</time>
  </trkpt>
  <trkpt lat="32.554953" lon="-1.171787">
   <ele>1179.00</ele>
   <time>2014-04-04T17:55:05Z</time>
  </trkpt>
  <trkpt lat="32.557524" lon="-1.173659">
   <ele>1179.00</ele>
   <time>2014-04-04T17:55:20Z</time>
  </trkpt>
  <trkpt lat="32.558598" lon="-1.174474">
   <ele>1180.00</ele>
   <time>2014-04-04T17:55:27Z</time>
  </trkpt>
  <trkpt lat="32.558834" lon="-1.174721">
   <ele>1181.00</ele>
   <time>2014-04-04T17:55:29Z</time>
  </trkpt>
  <trkpt lat="32.559006" lon="-1.175011">
   <ele>1180.00</ele>
   <time>2014-04-04T17:55:31Z</time>
  </trkpt>
  <trkpt lat="32.559120" lon="-1.175323">
   <ele>1180.00</ele>
   <time>2014-04-04T17:55:33Z</time>
  </trkpt>
  <trkpt lat="32.559180" lon="-1.175663">
   <ele>1179.00</ele>
   <time>2014-04-04T17:55:35Z</time>
  </trkpt>
  <trkpt lat="32.559194" lon="-1.176027">
   <ele>1180.00</ele>
   <time>2014-04-04T17:55:37Z</time>
  </trkpt>
  <trkpt lat="32.559184" lon="-1.176409">
   <ele>1178.00</ele>
   <time>2014-04-04T17:55:39Z</time>
  </trkpt>
  <trkpt lat="32.559167" lon="-1.176807">
   <ele>1179.00</ele>
   <time>2014-04-04T17:55:41Z</time>
  </trkpt>
  <trkpt lat="32.559090" lon="-1.179657">
   <ele>1183.00</ele>
   <time>2014-04-04T17:55:56Z</time>
  </trkpt>
  <trkpt lat="32.559113" lon="-1.179998">
   <ele>1183.00</ele>
   <time>2014-04-04T17:55:58Z</time>
  </trkpt>
  <trkpt lat="32.559175" lon="-1.180324">
   <ele>1182.00</ele>
   <time>2014-04-04T17:56:00Z</time>
  </trkpt>
  <trkpt lat="32.559301" lon="-1.180626">
   <ele>1181.00</ele>
   <time>2014-04-04T17:56:02Z</time>
  </trkpt>
  <trkpt lat="32.559493" lon="-1.180877">
   <ele>1180.00</ele>
   <time>2014-04-04T17:56:04Z</time>
  </trkpt>
  <trkpt lat="32.559733" lon="-1.181050">
   <ele>1179.00</ele>
   <time>2014-04-04T17:56:06Z</time>
  </trkpt>
  <trkpt lat="32.559986" lon="-1.181153">
   <ele>1179.00</ele>
   <time>2014-04-04T17:56:08Z</time>
  </trkpt>
  <trkpt lat="32.560224" lon="-1.181200">
   <ele>1179.00</ele>
   <time>2014-04-04T17:56:10Z</time>
  </trkpt>
  <trkpt lat="32.560434" lon="-1.181219">
   <ele>1179.00</ele>
   <time>2014-04-04T17:56:12Z</time>
  </trkpt>
  <trkpt lat="32.560810" lon="-1.181249">
   <ele>1179.00</ele>
   <time>2014-04-04T17:56:16Z</time>
  </trkpt>
  <trkpt lat="32.561211" lon="-1.181293">
   <ele>1178.00</ele>
   <time>2014-04-04T17:56:21Z</time>
  </trkpt>
  <trkpt lat="32.561424" lon="-1.181340">
   <ele>1178.00</ele>
   <time>2014-04-04T17:56:24Z</time>
  </trkpt>
  <trkpt lat="32.561618" lon="-1.181418">
   <ele>1178.00</ele>
   <time>2014-04-04T17:56:27Z</time>
  </trkpt>
  <trkpt lat="32.561779" lon="-1.181596">
   <ele>1176.00</ele>
   <time>2014-04-04T17:56:31Z</time>
  </trkpt>
  <trkpt lat="32.561922" lon="-1.181787">
   <ele>1175.00</ele>
   <time>2014-04-04T17:56:35Z</time>
  </trkpt>
  <trkpt lat="32.561903" lon="-1.182042">
   <ele>1174.00</ele>
   <time>2014-04-04T17:56:39Z</time>
  </trkpt>
  <trkpt lat="32.561816" lon="-1.182241">
   <ele>1173.00</ele>
   <time>2014-04-04T17:56:43Z</time>
  </trkpt>
  <trkpt lat="32.561638" lon="-1.182346">
   <ele>1172.00</ele>
   <time>2014-04-04T17:56:48Z</time>
  </trkpt>
  <trkpt lat="32.561443" lon="-1.182348">
   <ele>1172.00</ele>
   <time>2014-04-04T17:56:54Z</time>
  </trkpt>
  <trkpt lat="32.561377" lon="-1.182347">
   <ele>1172.00</ele>
   <time>2014-04-04T17:57:00Z</time>
  </trkpt>
 </trkseg>
 <trkseg>
  <trkpt lat="32.564273" lon="-1.186342">
   <ele>1161.00</ele>
   <time>2014-04-04T18:01:20Z</time>
  </trkpt>
  <trkpt lat="32.564379" lon="-1.186645">
   <ele>1162.00</ele>
   <time>2014-04-04T18:01:22Z</time>
  </trkpt>
  <trkpt lat="32.564468" lon="-1.186960">
   <ele>1162.00</ele>
   <time>2014-04-04T18:01:24Z</time>
  </trkpt>
  <trkpt lat="32.564542" lon="-1.187282">
   <ele>1162.00</ele>
   <time>2014-04-04T18:01:26Z</time>
  </trkpt>
  <trkpt lat="32.564598" lon="-1.187610">
   <ele>1162.00</ele>
   <time>2014-04-04T18:01:28Z</time>
  </trkpt>
  <trkpt lat="32.564634" lon="-1.187951">
   <ele>1162.00</ele>
   <time>2014-04-04T18:01:30Z</time>
  </trkpt>
  <trkpt lat="32.564644" lon="-1.188307">
   <ele>1162.00</ele>
   <time>2014-04-04T18:01:32Z</time>
  </trkpt>
  <trkpt lat="32.564636" lon="-1.188678">
   <ele>1162.00</ele>
   <time>2014-04-04T18:01:34Z</time>
  </trkpt>
  <trkpt lat="32.564613" lon="-1.189052">
   <ele>1162.00</ele>
   <time>2014-04-04T18:01:36Z</time>
  </trkpt>
  <trkpt lat="32.564378" lon="-1.191320">
   <ele>1163.00</ele>
   <time>2014-04-04T18:01:48Z</time>
  </trkpt>
  <trkpt lat="32.564030" lon="-1.194261">
   <ele>1167.00</ele>
   <time>2014-04-04T18:02:04Z</time>
  </trkpt>
  <trkpt lat="32.564003" lon="-1.194617">
   <ele>1167.00</ele>
   <time>2014-04-04T18:02:06Z</time>
  </trkpt>
  <trkpt lat="32.563998" lon="-1.194977">
   <ele>1167.00</ele>
   <time>2014-04-04T18:02:08Z</time>
  </trkpt>
  <trkpt lat="32.564015" lon="-1.195341">
   <ele>1168.00</ele>
   <time>2014-04-04T18:02:10Z</time>
  </trkpt>
  <trkpt lat="32.564055" lon="-1.195704">
   <ele>1169.00</ele>
   <time>2014-04-04T18:02:12Z</time>
  </trkpt>
  <trkpt lat="32.564125" lon="-1.196058">
   <ele>1170.00</ele>
   <time>2014-04-04T18:02:14Z</time>
  </trkpt>
  <trkpt lat="32.564224" lon="-1.196398">
   <ele>1171.00</ele>
   <time>2014-04-04T18:02:16Z</time>
  </trkpt>
  <trkpt lat="32.564347" lon="-1.196724">
   <ele>1172.00</ele>
   <time>2014-04-04T18:02:18Z</time>
  </trkpt>
  <trkpt lat="32.564488" lon="-1.197026">
   <ele>1172.00</ele>
   <time>2014-04-04T18:02:20Z</time>
  </trkpt>
  <trkpt lat="32.564643" lon="-1.197302">
   <ele>1173.00</ele>
   <time>2014-04-04T18:02:22Z</time>
  </trkpt>
  <trkpt lat="32.564808" lon="-1.197557">
   <ele>1175.00</ele>
   <time>2014-04-04T18:02:24Z</time>
  </trkpt>
  <trkpt lat="32.564983" lon="-1.197797">
   <ele>1178.00</ele>
   <time>2014-04-04T18:02:26Z</time>
  </trkpt>
  <trkpt lat="32.565172" lon="-1.198014">
   <ele>1180.00</ele>
   <time>2014-04-04T18:02:28Z</time>
  </trkpt>
  <trkpt lat="32.565366" lon="-1.198211">
   <ele>1181.00</ele>
   <time>2014-04-04T18:02:30Z</time>
  </trkpt>
  <trkpt lat="32.565536" lon="-1.198369">
   <ele>1181.00</ele>
   <time>2014-04-04T18:02:32Z</time>
  </trkpt>
  <trkpt lat="32.565741" lon="-1.198563">
   <ele>1182.00</ele>
   <time>2014-04-04T18:02:35Z</time>
  </trkpt>
  <trkpt lat="32.566801" lon="-1.199595">
   <ele>1186.00</ele>
   <time>2014-04-04T18:02:51Z</time>
  </trkpt>
  <trkpt lat="32.566974" lon="-1.199740">
   <ele>1187.00</ele>
   <time>2014-04-04T18:02:55Z</time>
  </trkpt>
  <trkpt lat="32.567140" lon="-1.199846">
   <ele>1189.00</ele>
   <time>2014-04-04T18:03:09Z</time>
  </trkpt>
  <trkpt lat="32.567289" lon="-1.199986">
   <ele>1190.00</ele>
   <time>2014-04-04T18:03:15Z</time>
  </trkpt>
  <trkpt lat="32.567174" lon="-1.199993">
   <ele>1190.00</ele>
   <time>2014-04-04T18:03:22Z</time>
  </trkpt>
  <trkpt lat="32.567032" lon="-1.199832">
   <ele>1189.00</ele>
   <time>2014-04-04T18:03:27Z</time>
  </trkpt>
  <trkpt lat="32.566822" lon="-1.199641">
   <ele>1188.00</ele>
   <time>2014-04-04T18:03:33Z</time>
  </trkpt>
  <trkpt lat="32.566657" lon="-1.199507">
   <ele>1187.00</ele>
   <time>2014-04-04T18:03:38Z</time>
  </trkpt>
  <trkpt lat="32.566560" lon="-1.199584">
   <ele>1188.00</ele>
   <time>2014-04-04T18:03:54Z</time>
  </trkpt>
  <trkpt lat="32.566566" lon="-1.199581">
   <ele>1188.00</ele>
   <time>2014-04-04T18:04:09Z</time>
  </trkpt>
  <trkpt lat="32.566569" lon="-1.199581">
   <ele>1187.00</ele>
   <time>2014-04-04T18:04:24Z</time>
  </trkpt>
  <trkpt lat="32.566541" lon="-1.199491">
   <ele>1187.00</ele>
   <time>2014-04-04T18:04:37Z</time>
  </trkpt>
  <trkpt lat="32.566728" lon="-1.199513">
   <ele>1188.00</ele>
   <time>2014-04-04T18:04:44Z</time>
  </trkpt>
  <trkpt lat="32.566914" lon="-1.199614">
   <ele>1189.00</ele>
   <time>2014-04-04T18:04:50Z</time>
  </trkpt>
  <trkpt lat="32.567112" lon="-1.199690">
   <ele>1190.00</ele>
   <time>2014-04-04T18:04:56Z</time>
  </trkpt>
  <trkpt lat="32.567300" lon="-1.199625">
   <ele>1190.00</ele>
   <time>2014-04-04T18:05:02Z</time>
  </trkpt>
  <trkpt lat="32.567460" lon="-1.199488">
   <ele>1191.00</ele>
   <time>2014-04-04T18:05:09Z</time>
  </trkpt>
  <trkpt lat="32.567483" lon="-1.199261">
   <ele>1191.00</ele>
   <time>2014-04-04T18:05:16Z</time>
  </trkpt>
  <trkpt lat="32.567438" lon="-1.199029">
   <ele>1191.00</ele>
   <time>2014-04-04T18:05:24Z</time>
  </trkpt>
  <trkpt lat="32.567542" lon="-1.198861">
   <ele>1191.00</ele>
   <time>2014-04-04T18:05:33Z</time>
  </trkpt>
  <trkpt lat="32.567673" lon="-1.198692">
   <ele>1190.00</ele>
   <time>2014-04-04T18:05:43Z</time>
  </trkpt>
  <trkpt lat="32.567843" lon="-1.198606">
   <ele>1191.00</ele>
   <time>2014-04-04T18:05:52Z</time>
  </trkpt>
  <trkpt lat="32.567965" lon="-1.198614">
   <ele>1191.00</ele>
   <time>2014-04-04T18:06:07Z</time>
  </trkpt>
  <trkpt lat="32.567967" lon="-1.198621">
   <ele>1192.00</ele>
   <time>2014-04-04T18:06:22Z</time>
  </trkpt>
  <trkpt lat="32.567967" lon="-1.198619">
   <ele>1193.00</ele>
   <time>2014-04-04T18:06:38Z</time>
  </trkpt>
  <trkpt lat="32.567879" lon="-1.198576">
   <ele>1193.00</ele>
   <time>2014-04-04T18:06:53Z</time>
  </trkpt>
  <trkpt lat="32.567698" lon="-1.198615">
   <ele>1191.00</ele>
   <time>2014-04-04T18:07:01Z</time>
  </trkpt>
  <trkpt lat="32.567496" lon="-1.198666">
   <ele>1191.00</ele>
   <time>2014-04-04T18:07:08Z</time>
  </trkpt>
  <trkpt lat="32.567431" lon="-1.198832">
   <ele>1191.00</ele>
   <time>2014-04-04T18:07:16Z</time>
  </trkpt>
  <trkpt lat="32.567425" lon="-1.199054">
   <ele>1192.00</ele>
   <time>2014-04-04T18:07:25Z</time>
  </trkpt>
  <trkpt lat="32.567329" lon="-1.199232">
   <ele>1192.00</ele>
   <time>2014-04-04T18:07:31Z</time>
  </trkpt>
  <trkpt lat="32.567160" lon="-1.199482">
   <ele>1191.00</ele>
   <time>2014-04-04T18:07:40Z</time>
  </trkpt>
  <trkpt lat="32.567082" lon="-1.199702">
   <ele>1191.00</ele>
   <time>2014-04-04T18:07:46Z</time>
  </trkpt>
  <trkpt lat="32.567112" lon="-1.199911">
   <ele>1193.00</ele>
   <time>2014-04-04T18:07:52Z</time>
  </trkpt>
  <trkpt lat="32.567281" lon="-1.200077">
   <ele>1194.00</ele>
   <time>2014-04-04T18:07:57Z</time>
  </trkpt>
  <trkpt lat="32.568442" lon="-1.201202">
   <ele>1198.00</ele>
   <time>2014-04-04T18:08:13Z</time>
  </trkpt>
  <trkpt lat="32.570158" lon="-1.202903">
   <ele>1199.00</ele>
   <time>2014-04-04T18:08:28Z</time>
  </trkpt>
  <trkpt lat="32.572079" lon="-1.204819">
   <ele>1199.00</ele>
   <time>2014-04-04T18:08:43Z</time>
  </trkpt>
  <trkpt lat="32.572814" lon="-1.205557">
   <ele>1201.00</ele>
   <time>2014-04-04T18:08:49Z</time>
  </trkpt>
  <trkpt lat="32.573031" lon="-1.205810">
   <ele>1201.00</ele>
   <time>2014-04-04T18:08:51Z</time>
  </trkpt>
  <trkpt lat="32.573237" lon="-1.206069">
   <ele>1202.00</ele>
   <time>2014-04-04T18:08:53Z</time>
  </trkpt>
  <trkpt lat="32.573424" lon="-1.206343">
   <ele>1202.00</ele>
   <time>2014-04-04T18:08:55Z</time>
  </trkpt>
  <trkpt lat="32.573593" lon="-1.206635">
   <ele>1203.00</ele>
   <time>2014-04-04T18:08:57Z</time>
  </trkpt>
  <trkpt lat="32.573744" lon="-1.206941">
   <ele>1204.00</ele>
   <time>2014-04-04T18:08:59Z</time>
  </trkpt>
  <trkpt lat="32.573874" lon="-1.207253">
   <ele>1204.00</ele>
   <time>2014-04-04T18:09:01Z</time>
  </trkpt>
  <trkpt lat="32.573989" lon="-1.207576">
   <ele>1204.00</ele>
   <time>2014-04-04T18:09:03Z</time>
  </trkpt>
  <trkpt lat="32.574088" lon="-1.207911">
   <ele>1205.00</ele>
   <time>2014-04-04T18:09:05Z</time>
  </trkpt>
  <trkpt lat="32.574166" lon="-1.208257">
   <ele>1205.00</ele>
   <time>2014-04-04T18:09:07Z</time>
  </trkpt>
  <trkpt lat="32.574224" lon="-1.208607">
   <ele>1205.00</ele>
   <time>2014-04-04T18:09:09Z</time>
  </trkpt>
  <trkpt lat="32.574294" lon="-1.209125">
   <ele>1206.00</ele>
   <time>2014-04-04T18:09:14Z</time>
  </trkpt>
  <trkpt lat="32.574439" lon="-1.209013">
   <ele>1203.00</ele>
   <time>2014-04-04T18:09:25Z</time>
  </trkpt>
  <trkpt lat="32.574499" lon="-1.208780">
   <ele>1201.00</ele>
   <time>2014-04-04T18:09:32Z</time>
  </trkpt>
  <trkpt lat="32.574475" lon="-1.208503">
   <ele>1200.00</ele>
   <time>2014-04-04T18:09:37Z</time>
  </trkpt>
  <trkpt lat="32.574461" lon="-1.208227">
   <ele>1200.00</ele>
   <time>2014-04-04T18:09:41Z</time>
  </trkpt>
  <trkpt lat="32.574481" lon="-1.208003">
   <ele>1199.00</ele>
   <time>2014-04-04T18:09:44Z</time>
  </trkpt>
  <trkpt lat="32.574520" lon="-1.207486">
   <ele>1198.00</ele>
   <time>2014-04-04T18:09:50Z</time>
  </trkpt>
  <trkpt lat="32.574529" lon="-1.207214">
   <ele>1198.00</ele>
   <time>2014-04-04T18:09:53Z</time>
  </trkpt>
  <trkpt lat="32.574552" lon="-1.206950">
   <ele>1198.00</ele>
   <time>2014-04-04T18:09:56Z</time>
  </trkpt>
  <trkpt lat="32.574619" lon="-1.206580">
   <ele>1197.00</ele>
   <time>2014-04-04T18:10:00Z</time>
  </trkpt>
  <trkpt lat="32.574693" lon="-1.206319">
   <ele>1196.00</ele>
   <time>2014-04-04T18:10:03Z</time>
  </trkpt>
  <trkpt lat="32.574820" lon="-1.206109">
   <ele>1196.00</ele>
   <time>2014-04-04T18:10:06Z</time>
  </trkpt>
  <trkpt lat="32.575027" lon="-1.206000">
   <ele>1198.00</ele>
   <time>2014-04-04T18:10:09Z</time>
  </trkpt>
  <trkpt lat="32.575237" lon="-1.206021">
   <ele>1198.00</ele>
   <time>2014-04-04T18:10:12Z</time>
  </trkpt>
  <trkpt lat="32.575417" lon="-1.206004">
   <ele>1197.00</ele>
   <time>2014-04-04T18:10:15Z</time>
  </trkpt>
  <trkpt lat="32.575583" lon="-1.205866">
   <ele>1196.00</ele>
   <time>2014-04-04T18:10:18Z</time>
  </trkpt>
  <trkpt lat="32.575711" lon="-1.205655">
   <ele>1196.00</ele>
   <time>2014-04-04T18:10:21Z</time>
  </trkpt>
  <trkpt lat="32.575801" lon="-1.205411">
   <ele>1196.00</ele>
   <time>2014-04-04T18:10:24Z</time>
  </trkpt>
  <trkpt lat="32.575887" lon="-1.205175">
   <ele>1196.00</ele>
   <time>2014-04-04T18:10:27Z</time>
  </trkpt>
  <trkpt lat="32.576009" lon="-1.205009">
   <ele>1195.00</ele>
   <time>2014-04-04T18:10:30Z</time>
  </trkpt>
  <trkpt lat="32.576162" lon="-1.204884">
   <ele>1195.00</ele>
   <time>2014-04-04T18:10:34Z</time>
  </trkpt>
  <trkpt lat="32.576319" lon="-1.204721">
   <ele>1196.00</ele>
   <time>2014-04-04T18:10:39Z</time>
  </trkpt>
  <trkpt lat="32.576530" lon="-1.204449">
   <ele>1200.00</ele>
   <time>2014-04-04T18:10:46Z</time>
  </trkpt>
  <trkpt lat="32.576736" lon="-1.204343">
   <ele>1202.00</ele>
   <time>2014-04-04T18:10:50Z</time>
  </trkpt>
  <trkpt lat="32.576933" lon="-1.204329">
   <ele>1202.00</ele>
   <time>2014-04-04T18:10:53Z</time>
  </trkpt>
  <trkpt lat="32.577126" lon="-1.204332">
   <ele>1203.00</ele>
   <time>2014-04-04T18:10:56Z</time>
  </trkpt>
  <trkpt lat="32.577348" lon="-1.204318">
   <ele>1204.00</ele>
   <time>2014-04-04T18:11:00Z</time>
  </trkpt>
  <trkpt lat="32.577531" lon="-1.204317">
   <ele>1204.00</ele>
   <time>2014-04-04T18:11:04Z</time>
  </trkpt>
  <trkpt lat="32.577708" lon="-1.204204">
   <ele>1203.00</ele>
   <time>2014-04-04T18:11:08Z</time>
  </trkpt>
  <trkpt lat="32.577786" lon="-1.204007">
   <ele>1202.00</ele>
   <time>2014-04-04T18:11:11Z</time>
  </trkpt>
  <trkpt lat="32.577818" lon="-1.203784">
   <ele>1201.00</ele>
   <time>2014-04-04T18:11:14Z</time>
  </trkpt>
  <trkpt lat="32.577871" lon="-1.203496">
   <ele>1201.00</ele>
   <time>2014-04-04T18:11:18Z</time>
  </trkpt>
  <trkpt lat="32.577924" lon="-1.203277">
   <ele>1201.00</ele>
   <time>2014-04-04T18:11:21Z</time>
  </trkpt>
  <trkpt lat="32.577922" lon="-1.203024">
   <ele>1200.00</ele>
   <time>2014-04-04T18:11:24Z</time>
  </trkpt>
  <trkpt lat="32.577916" lon="-1.202765">
   <ele>1200.00</ele>
   <time>2014-04-04T18:11:27Z</time>
  </trkpt>
  <trkpt lat="32.577933" lon="-1.202309">
   <ele>1199.00</ele>
   <time>2014-04-04T18:11:32Z</time>
  </trkpt>
  <trkpt lat="32.577994" lon="-1.202041">
   <ele>1198.00</ele>
   <time>2014-04-04T18:11:35Z</time>
  </trkpt>
  <trkpt lat="32.578103" lon="-1.201802">
   <ele>1198.00</ele>
   <time>2014-04-04T18:11:38Z</time>
  </trkpt>
  <trkpt lat="32.578156" lon="-1.201548">
   <ele>1198.00</ele>
   <time>2014-04-04T18:11:41Z</time>
  </trkpt>
  <trkpt lat="32.578192" lon="-1.201291">
   <ele>1198.00</ele>
   <time>2014-04-04T18:11:44Z</time>
  </trkpt>
  <trkpt lat="32.578218" lon="-1.201017">
   <ele>1197.00</ele>
   <time>2014-04-04T18:11:47Z</time>
  </trkpt>
  <trkpt lat="32.578276" lon="-1.200749">
   <ele>1197.00</ele>
   <time>2014-04-04T18:11:50Z</time>
  </trkpt>
  <trkpt lat="32.578383" lon="-1.200524">
   <ele>1196.00</ele>
   <time>2014-04-04T18:11:53Z</time>
  </trkpt>
  <trkpt lat="32.578512" lon="-1.200340">
   <ele>1197.00</ele>
   <time>2014-04-04T18:11:56Z</time>
  </trkpt>
  <trkpt lat="32.578700" lon="-1.200068">
   <ele>1198.00</ele>
   <time>2014-04-04T18:12:00Z</time>
  </trkpt>
  <trkpt lat="32.578799" lon="-1.199869">
   <ele>1198.00</ele>
   <time>2014-04-04T18:12:03Z</time>
  </trkpt>
  <trkpt lat="32.578873" lon="-1.199670">
   <ele>1198.00</ele>
   <time>2014-04-04T18:12:06Z</time>
  </trkpt>
  <trkpt lat="32.578934" lon="-1.199462">
   <ele>1198.00</ele>
   <time>2014-04-04T18:12:10Z</time>
  </trkpt>
  <trkpt lat="32.579008" lon="-1.199119">
   <ele>1199.00</ele>
   <time>2014-04-04T18:12:19Z</time>
  </trkpt>
  <trkpt lat="32.579047" lon="-1.198879">
   <ele>1199.00</ele>
   <time>2014-04-04T18:12:23Z</time>
  </trkpt>
  <trkpt lat="32.579096" lon="-1.198657">
   <ele>1200.00</ele>
   <time>2014-04-04T18:12:27Z</time>
  </trkpt>
  <trkpt lat="32.579230" lon="-1.198478">
   <ele>1199.00</ele>
   <time>2014-04-04T18:12:31Z</time>
  </trkpt>
  <trkpt lat="32.579403" lon="-1.198316">
   <ele>1200.00</ele>
   <time>2014-04-04T18:12:35Z</time>
  </trkpt>
  <trkpt lat="32.579578" lon="-1.198250">
   <ele>1201.00</ele>
   <time>2014-04-04T18:12:39Z</time>
  </trkpt>
  <trkpt lat="32.579781" lon="-1.198228">
   <ele>1203.00</ele>
   <time>2014-04-04T18:12:46Z</time>
  </trkpt>
  <trkpt lat="32.579828" lon="-1.198243">
   <ele>1204.00</ele>
   <time>2014-04-04T18:13:02Z</time>
  </trkpt>
  <trkpt lat="32.579826" lon="-1.198245">
   <ele>1205.00</ele>
   <time>2014-04-04T18:13:17Z</time>
  </trkpt>
  <trkpt lat="32.579825" lon="-1.198245">
   <ele>1205.00</ele>
   <time>2014-04-04T18:13:32Z</time>
  </trkpt>
  <trkpt lat="32.579825" lon="-1.198245">
   <ele>1206.00</ele>
   <time>2014-04-04T18:13:47Z</time>
  </trkpt>
  <trkpt lat="32.579824" lon="-1.198245">
   <ele>1206.00</ele>
   <time>2014-04-04T18:14:03Z</time>
  </trkpt>
  <trkpt lat="32.579824" lon="-1.198244">
   <ele>1206.00</ele>
   <time>2014-04-04T18:14:18Z</time>
  </trkpt>
  <trkpt lat="32.579824" lon="-1.198244">
   <ele>1206.00</ele>
   <time>2014-04-04T18:14:33Z</time>
  </trkpt>
  <trkpt lat="32.579824" lon="-1.198245">
   <ele>1206.00</ele>
   <time>2014-04-04T18:14:48Z</time>
  </trkpt>
  <trkpt lat="32.579824" lon="-1.198247">
   <ele>1205.00</ele>
   <time>2014-04-04T18:15:04Z</time>
  </trkpt>
  <trkpt lat="32.579824" lon="-1.198248">
   <ele>1205.00</ele>
   <time>2014-04-04T18:15:19Z</time>
  </trkpt>
  <trkpt lat="32.579823" lon="-1.198249">
   <ele>1205.00</ele>
   <time>2014-04-04T18:15:34Z</time>
  </trkpt>
  <trkpt lat="32.579821" lon="-1.198250">
   <ele>1204.00</ele>
   <time>2014-04-04T18:15:50Z</time>
  </trkpt>
  <trkpt lat="32.579821" lon="-1.198250">
   <ele>1204.00</ele>
   <time>2014-04-04T18:16:05Z</time>
  </trkpt>
  <trkpt lat="32.579821" lon="-1.198250">
   <ele>1205.00</ele>
   <time>2014-04-04T18:16:20Z</time>
  </trkpt>
  <trkpt lat="32.579820" lon="-1.198250">
   <ele>1205.00</ele>
   <time>2014-04-04T18:16:36Z</time>
  </trkpt>
  <trkpt lat="32.579820" lon="-1.198250">
   <ele>1205.00</ele>
   <time>2014-04-04T18:16:51Z</time>
  </trkpt>
  <trkpt lat="32.579820" lon="-1.198252">
   <ele>1205.00</ele>
   <time>2014-04-04T18:17:06Z</time>
  </trkpt>
  <trkpt lat="32.579819" lon="-1.198253">
   <ele>1205.00</ele>
   <time>2014-04-04T18:17:21Z</time>
  </trkpt>
  <trkpt lat="32.579818" lon="-1.198254">
   <ele>1205.00</ele>
   <time>2014-04-04T18:17:37Z</time>
  </trkpt>
  <trkpt lat="32.579818" lon="-1.198254">
   <ele>1204.00</ele>
   <time>2014-04-04T18:17:52Z</time>
  </trkpt>
  <trkpt lat="32.579787" lon="-1.198252">
   <ele>1204.00</ele>
   <time>2014-04-04T18:18:07Z</time>
  </trkpt>
  <trkpt lat="32.579609" lon="-1.198263">
   <ele>1202.00</ele>
   <time>2014-04-04T18:18:22Z</time>
  </trkpt>
  <trkpt lat="32.579433" lon="-1.198306">
   <ele>1201.00</ele>
   <time>2014-04-04T18:18:29Z</time>
  </trkpt>
  <trkpt lat="32.579426" lon="-1.198313">
   <ele>1201.00</ele>
   <time>2014-04-04T18:18:44Z</time>
  </trkpt>
  <trkpt lat="32.579429" lon="-1.198313">
   <ele>1201.00</ele>
   <time>2014-04-04T18:19:00Z</time>
  </trkpt>
  <trkpt lat="32.579431" lon="-1.198314">
   <ele>1202.00</ele>
   <time>2014-04-04T18:19:15Z</time>
  </trkpt>
  <trkpt lat="32.579433" lon="-1.198314">
   <ele>1202.00</ele>
   <time>2014-04-04T18:19:30Z</time>
  </trkpt>
  <trkpt lat="32.579434" lon="-1.198314">
   <ele>1202.00</ele>
   <time>2014-04-04T18:19:46Z</time>
  </trkpt>
  <trkpt lat="32.579280" lon="-1.198449">
   <ele>1202.00</ele>
   <time>2014-04-04T18:19:58Z</time>
  </trkpt>
  <trkpt lat="32.579127" lon="-1.198627">
   <ele>1201.00</ele>
   <time>2014-04-04T18:20:02Z</time>
  </trkpt>
  <trkpt lat="32.579034" lon="-1.198873">
   <ele>1200.00</ele>
   <time>2014-04-04T18:20:06Z</time>
  </trkpt>
  <trkpt lat="32.578971" lon="-1.199256">
   <ele>1199.00</ele>
   <time>2014-04-04T18:20:11Z</time>
  </trkpt>
  <trkpt lat="32.578896" lon="-1.199570">
   <ele>1199.00</ele>
   <time>2014-04-04T18:20:18Z</time>
  </trkpt>
  <trkpt lat="32.578812" lon="-1.199831">
   <ele>1199.00</ele>
   <time>2014-04-04T18:20:22Z</time>
  </trkpt>
  <trkpt lat="32.578722" lon="-1.200052">
   <ele>1200.00</ele>
   <time>2014-04-04T18:20:25Z</time>
  </trkpt>
  <trkpt lat="32.578596" lon="-1.200266">
   <ele>1200.00</ele>
   <time>2014-04-04T18:20:28Z</time>
  </trkpt>
  <trkpt lat="32.578345" lon="-1.200638">
   <ele>1199.00</ele>
   <time>2014-04-04T18:20:33Z</time>
  </trkpt>
  <trkpt lat="32.578237" lon="-1.200895">
   <ele>1199.00</ele>
   <time>2014-04-04T18:20:36Z</time>
  </trkpt>
  <trkpt lat="32.578183" lon="-1.201212">
   <ele>1199.00</ele>
   <time>2014-04-04T18:20:39Z</time>
  </trkpt>
  <trkpt lat="32.578164" lon="-1.201440">
   <ele>1200.00</ele>
   <time>2014-04-04T18:20:41Z</time>
  </trkpt>
  <trkpt lat="32.578114" lon="-1.201746">
   <ele>1200.00</ele>
   <time>2014-04-04T18:20:44Z</time>
  </trkpt>
  <trkpt lat="32.578018" lon="-1.202017">
   <ele>1201.00</ele>
   <time>2014-04-04T18:20:47Z</time>
  </trkpt>
  <trkpt lat="32.577923" lon="-1.202289">
   <ele>1202.00</ele>
   <time>2014-04-04T18:20:50Z</time>
  </trkpt>
  <trkpt lat="32.577902" lon="-1.202595">
   <ele>1202.00</ele>
   <time>2014-04-04T18:20:53Z</time>
  </trkpt>
  <trkpt lat="32.577889" lon="-1.202876">
   <ele>1203.00</ele>
   <time>2014-04-04T18:20:56Z</time>
  </trkpt>
  <trkpt lat="32.577894" lon="-1.203156">
   <ele>1203.00</ele>
   <time>2014-04-04T18:20:59Z</time>
  </trkpt>
  <trkpt lat="32.577876" lon="-1.203424">
   <ele>1203.00</ele>
   <time>2014-04-04T18:21:02Z</time>
  </trkpt>
  <trkpt lat="32.577778" lon="-1.203942">
   <ele>1204.00</ele>
   <time>2014-04-04T18:21:08Z</time>
  </trkpt>
  <trkpt lat="32.577723" lon="-1.204181">
   <ele>1204.00</ele>
   <time>2014-04-04T18:21:11Z</time>
  </trkpt>
  <trkpt lat="32.577593" lon="-1.204337">
   <ele>1204.00</ele>
   <time>2014-04-04T18:21:14Z</time>
  </trkpt>
  <trkpt lat="32.577414" lon="-1.204378">
   <ele>1205.00</ele>
   <time>2014-04-04T18:21:18Z</time>
  </trkpt>
  <trkpt lat="32.577150" lon="-1.204373">
   <ele>1204.00</ele>
   <time>2014-04-04T18:21:23Z</time>
  </trkpt>
  <trkpt lat="32.576967" lon="-1.204380">
   <ele>1203.00</ele>
   <time>2014-04-04T18:21:26Z</time>
  </trkpt>
  <trkpt lat="32.576771" lon="-1.204378">
   <ele>1202.00</ele>
   <time>2014-04-04T18:21:29Z</time>
  </trkpt>
  <trkpt lat="32.576568" lon="-1.204450">
   <ele>1202.00</ele>
   <time>2014-04-04T18:21:32Z</time>
  </trkpt>
  <trkpt lat="32.576407" lon="-1.204612">
   <ele>1201.00</ele>
   <time>2014-04-04T18:21:35Z</time>
  </trkpt>
  <trkpt lat="32.576271" lon="-1.204787">
   <ele>1199.00</ele>
   <time>2014-04-04T18:21:38Z</time>
  </trkpt>
  <trkpt lat="32.576115" lon="-1.204949">
   <ele>1199.00</ele>
   <time>2014-04-04T18:21:41Z</time>
  </trkpt>
  <trkpt lat="32.575952" lon="-1.205093">
   <ele>1199.00</ele>
   <time>2014-04-04T18:21:44Z</time>
  </trkpt>
  <trkpt lat="32.575817" lon="-1.205312">
   <ele>1200.00</ele>
   <time>2014-04-04T18:21:47Z</time>
  </trkpt>
  <trkpt lat="32.575613" lon="-1.205826">
   <ele>1200.00</ele>
   <time>2014-04-04T18:21:53Z</time>
  </trkpt>
  <trkpt lat="32.575462" lon="-1.206019">
   <ele>1200.00</ele>
   <time>2014-04-04T18:21:56Z</time>
  </trkpt>
  <trkpt lat="32.575239" lon="-1.206086">
   <ele>1202.00</ele>
   <time>2014-04-04T18:22:00Z</time>
  </trkpt>
  <trkpt lat="32.575004" lon="-1.206049">
   <ele>1203.00</ele>
   <time>2014-04-04T18:22:04Z</time>
  </trkpt>
  <trkpt lat="32.574816" lon="-1.206129">
   <ele>1203.00</ele>
   <time>2014-04-04T18:22:07Z</time>
  </trkpt>
  <trkpt lat="32.574640" lon="-1.206233">
   <ele>1204.00</ele>
   <time>2014-04-04T18:22:10Z</time>
  </trkpt>
  <trkpt lat="32.574443" lon="-1.206273">
   <ele>1203.00</ele>
   <time>2014-04-04T18:22:13Z</time>
  </trkpt>
  <trkpt lat="32.574227" lon="-1.206271">
   <ele>1203.00</ele>
   <time>2014-04-04T18:22:16Z</time>
  </trkpt>
  <trkpt lat="32.574013" lon="-1.206231">
   <ele>1202.00</ele>
   <time>2014-04-04T18:22:19Z</time>
  </trkpt>
  <trkpt lat="32.573729" lon="-1.206142">
   <ele>1202.00</ele>
   <time>2014-04-04T18:22:23Z</time>
  </trkpt>
  <trkpt lat="32.573528" lon="-1.206090">
   <ele>1202.00</ele>
   <time>2014-04-04T18:22:26Z</time>
  </trkpt>
  <trkpt lat="32.573348" lon="-1.205970">
   <ele>1201.00</ele>
   <time>2014-04-04T18:22:29Z</time>
  </trkpt>
  <trkpt lat="32.573192" lon="-1.205826">
   <ele>1202.00</ele>
   <time>2014-04-04T18:22:32Z</time>
  </trkpt>
  <trkpt lat="32.572959" lon="-1.205614">
   <ele>1201.00</ele>
   <time>2014-04-04T18:22:37Z</time>
  </trkpt>
  <trkpt lat="32.572759" lon="-1.205491">
   <ele>1201.00</ele>
   <time>2014-04-04T18:22:41Z</time>
  </trkpt>
  <trkpt lat="32.572593" lon="-1.205360">
   <ele>1201.00</ele>
   <time>2014-04-04T18:22:44Z</time>
  </trkpt>
  <trkpt lat="32.572241" lon="-1.205015">
   <ele>1200.00</ele>
   <time>2014-04-04T18:22:50Z</time>
  </trkpt>
  <trkpt lat="32.571484" lon="-1.204264">
   <ele>1199.00</ele>
   <time>2014-04-04T18:23:05Z</time>
  </trkpt>
  <trkpt lat="32.571301" lon="-1.204218">
   <ele>1199.00</ele>
   <time>2014-04-04T18:23:11Z</time>
  </trkpt>
  <trkpt lat="32.571128" lon="-1.204300">
   <ele>1201.00</ele>
   <time>2014-04-04T18:23:19Z</time>
  </trkpt>
  <trkpt lat="32.571019" lon="-1.204500">
   <ele>1201.00</ele>
   <time>2014-04-04T18:23:25Z</time>
  </trkpt>
  <trkpt lat="32.570887" lon="-1.204666">
   <ele>1202.00</ele>
   <time>2014-04-04T18:23:31Z</time>
  </trkpt>
  <trkpt lat="32.570866" lon="-1.204871">
   <ele>1202.00</ele>
   <time>2014-04-04T18:23:37Z</time>
  </trkpt>
  <trkpt lat="32.570934" lon="-1.205093">
   <ele>1202.00</ele>
   <time>2014-04-04T18:23:43Z</time>
  </trkpt>
  <trkpt lat="32.570837" lon="-1.205174">
   <ele>1203.00</ele>
   <time>2014-04-04T18:23:51Z</time>
  </trkpt>
  <trkpt lat="32.570789" lon="-1.204933">
   <ele>1203.00</ele>
   <time>2014-04-04T18:23:57Z</time>
  </trkpt>
  <trkpt lat="32.570785" lon="-1.204711">
   <ele>1203.00</ele>
   <time>2014-04-04T18:24:02Z</time>
  </trkpt>
  <trkpt lat="32.570911" lon="-1.204588">
   <ele>1203.00</ele>
   <time>2014-04-04T18:24:10Z</time>
  </trkpt>
  <trkpt lat="32.571057" lon="-1.204742">
   <ele>1203.00</ele>
   <time>2014-04-04T18:24:15Z</time>
  </trkpt>
  <trkpt lat="32.571219" lon="-1.204918">
   <ele>1202.00</ele>
   <time>2014-04-04T18:24:20Z</time>
  </trkpt>
  <trkpt lat="32.571326" lon="-1.205086">
   <ele>1201.00</ele>
   <time>2014-04-04T18:24:24Z</time>
  </trkpt>
  <trkpt lat="32.571387" lon="-1.205295">
   <ele>1202.00</ele>
   <time>2014-04-04T18:24:28Z</time>
  </trkpt>
  <trkpt lat="32.571439" lon="-1.205516">
   <ele>1202.00</ele>
   <time>2014-04-04T18:24:32Z</time>
  </trkpt>
  <trkpt lat="32.571507" lon="-1.205752">
   <ele>1203.00</ele>
   <time>2014-04-04T18:24:36Z</time>
  </trkpt>
  <trkpt lat="32.571582" lon="-1.205977">
   <ele>1204.00</ele>
   <time>2014-04-04T18:24:40Z</time>
  </trkpt>
  <trkpt lat="32.571674" lon="-1.206159">
   <ele>1203.00</ele>
   <time>2014-04-04T18:24:46Z</time>
  </trkpt>
  <trkpt lat="32.571824" lon="-1.206293">
   <ele>1205.00</ele>
   <time>2014-04-04T18:24:54Z</time>
  </trkpt>
  <trkpt lat="32.571840" lon="-1.206506">
   <ele>1206.00</ele>
   <time>2014-04-04T18:25:00Z</time>
  </trkpt>
  <trkpt lat="32.571786" lon="-1.206724">
   <ele>1207.00</ele>
   <time>2014-04-04T18:25:07Z</time>
  </trkpt>
  <trkpt lat="32.571801" lon="-1.206751">
   <ele>1208.00</ele>
   <time>2014-04-04T18:25:22Z</time>
  </trkpt>
  <trkpt lat="32.571719" lon="-1.206821">
   <ele>1209.00</ele>
   <time>2014-04-04T18:25:38Z</time>
  </trkpt>
  <trkpt lat="32.571751" lon="-1.206802">
   <ele>1207.00</ele>
   <time>2014-04-04T18:25:53Z</time>
  </trkpt>
  <trkpt lat="32.571822" lon="-1.206536">
   <ele>1206.00</ele>
   <time>2014-04-04T18:26:06Z</time>
  </trkpt>
  <trkpt lat="32.571748" lon="-1.206397">
   <ele>1204.00</ele>
   <time>2014-04-04T18:26:17Z</time>
  </trkpt>
  <trkpt lat="32.571728" lon="-1.206529">
   <ele>1204.00</ele>
   <time>2014-04-04T18:26:33Z</time>
  </trkpt>
  <trkpt lat="32.571727" lon="-1.206529">
   <ele>1204.00</ele>
   <time>2014-04-04T18:26:35Z</time>
  </trkpt>
 </trkseg>
 <trkseg>
  <trkpt lat="32.571708" lon="-1.206523">
   <ele>1205.00</ele>
   <time>2014-04-04T18:28:31Z</time>
  </trkpt>
  <trkpt lat="32.571709" lon="-1.206523">
   <ele>1205.00</ele>
   <time>2014-04-04T18:28:47Z</time>
  </trkpt>
  <trkpt lat="32.571709" lon="-1.206523">
   <ele>1205.00</ele>
   <time>2014-04-04T18:28:52Z</time>
  </trkpt>
 </trkseg>
</trk>
<trk>
 <name>GPS_20140405</name>
 <trkseg>
  <trkpt lat="32.571664" lon="-1.206538">
   <ele>1205.00</ele>
   <time>2014-04-05T07:18:04Z</time>
  </trkpt>
  <trkpt lat="32.571664" lon="-1.206537">
   <ele>1206.00</ele>
   <time>2014-04-05T07:18:19Z</time>
  </trkpt>
  <trkpt lat="32.571664" lon="-1.206536">
   <ele>1206.00</ele>
   <time>2014-04-05T07:18:34Z</time>
  </trkpt>
  <trkpt lat="32.571663" lon="-1.206537">
   <ele>1206.00</ele>
   <time>2014-04-05T07:18:50Z</time>
  </trkpt>
  <trkpt lat="32.571662" lon="-1.206536">
   <ele>1206.00</ele>
   <time>2014-04-05T07:19:05Z</time>
  </trkpt>
  <trkpt lat="32.571662" lon="-1.206536">
   <ele>1206.00</ele>
   <time>2014-04-05T07:19:13Z</time>
  </trkpt>
 </trkseg>
 <trkseg>
  <trkpt lat="32.561633" lon="-1.182429">
   <ele>1177.00</ele>
   <time>2014-04-05T08:41:26Z</time>
  </trkpt>
  <trkpt lat="32.561810" lon="-1.182537">
   <ele>1177.00</ele>
   <time>2014-04-05T08:41:38Z</time>
  </trkpt>
  <trkpt lat="32.561981" lon="-1.182622">
   <ele>1178.00</ele>
   <time>2014-04-05T08:41:45Z</time>
  </trkpt>
  <trkpt lat="32.562180" lon="-1.182658">
   <ele>1178.00</ele>
   <time>2014-04-05T08:41:52Z</time>
  </trkpt>
  <trkpt lat="32.562390" lon="-1.182656">
   <ele>1178.00</ele>
   <time>2014-04-05T08:41:59Z</time>
  </trkpt>
  <trkpt lat="32.562582" lon="-1.182753">
   <ele>1179.00</ele>
   <time>2014-04-05T08:42:05Z</time>
  </trkpt>
  <trkpt lat="32.562694" lon="-1.182947">
   <ele>1179.00</ele>
   <time>2014-04-05T08:42:10Z</time>
  </trkpt>
  <trkpt lat="32.563198" lon="-1.184063">
   <ele>1178.00</ele>
   <time>2014-04-05T08:42:25Z</time>
  </trkpt>
  <trkpt lat="32.563673" lon="-1.185119">
   <ele>1183.00</ele>
   <time>2014-04-05T08:42:35Z</time>
  </trkpt>
  <trkpt lat="32.563775" lon="-1.185341">
   <ele>1184.00</ele>
   <time>2014-04-05T08:42:37Z</time>
  </trkpt>
  <trkpt lat="32.563937" lon="-1.185679">
   <ele>1185.00</ele>
   <time>2014-04-05T08:42:40Z</time>
  </trkpt>
  <trkpt lat="32.564135" lon="-1.186141">
   <ele>1186.00</ele>
   <time>2014-04-05T08:42:44Z</time>
  </trkpt>
  <trkpt lat="32.564271" lon="-1.186504">
   <ele>1186.00</ele>
   <time>2014-04-05T08:42:47Z</time>
  </trkpt>
  <trkpt lat="32.564348" lon="-1.186756">
   <ele>1186.00</ele>
   <time>2014-04-05T08:42:49Z</time>
  </trkpt>
  <trkpt lat="32.564416" lon="-1.187013">
   <ele>1187.00</ele>
   <time>2014-04-05T08:42:51Z</time>
  </trkpt>
  <trkpt lat="32.564474" lon="-1.187274">
   <ele>1187.00</ele>
   <time>2014-04-05T08:42:53Z</time>
  </trkpt>
  <trkpt lat="32.564521" lon="-1.187539">
   <ele>1187.00</ele>
   <time>2014-04-05T08:42:55Z</time>
  </trkpt>
  <trkpt lat="32.564553" lon="-1.187813">
   <ele>1187.00</ele>
   <time>2014-04-05T08:42:57Z</time>
  </trkpt>
  <trkpt lat="32.564571" lon="-1.188095">
   <ele>1188.00</ele>
   <time>2014-04-05T08:42:59Z</time>
  </trkpt>
  <trkpt lat="32.564579" lon="-1.188386">
   <ele>1188.00</ele>
   <time>2014-04-05T08:43:01Z</time>
  </trkpt>
  <trkpt lat="32.564569" lon="-1.188835">
   <ele>1188.00</ele>
   <time>2014-04-05T08:43:04Z</time>
  </trkpt>
  <trkpt lat="32.564551" lon="-1.189128">
   <ele>1189.00</ele>
   <time>2014-04-05T08:43:06Z</time>
  </trkpt>
  <trkpt lat="32.564486" lon="-1.189724">
   <ele>1189.00</ele>
   <time>2014-04-05T08:43:10Z</time>
  </trkpt>
  <trkpt lat="32.564182" lon="-1.192364">
   <ele>1189.00</ele>
   <time>2014-04-05T08:43:25Z</time>
  </trkpt>
  <trkpt lat="32.563939" lon="-1.194482">
   <ele>1190.00</ele>
   <time>2014-04-05T08:43:37Z</time>
  </trkpt>
  <trkpt lat="32.563928" lon="-1.194799">
   <ele>1190.00</ele>
   <time>2014-04-05T08:43:39Z</time>
  </trkpt>
  <trkpt lat="32.563936" lon="-1.195108">
   <ele>1190.00</ele>
   <time>2014-04-05T08:43:41Z</time>
  </trkpt>
  <trkpt lat="32.563956" lon="-1.195411">
   <ele>1191.00</ele>
   <time>2014-04-05T08:43:43Z</time>
  </trkpt>
  <trkpt lat="32.563992" lon="-1.195707">
   <ele>1191.00</ele>
   <time>2014-04-05T08:43:45Z</time>
  </trkpt>
  <trkpt lat="32.564049" lon="-1.195991">
   <ele>1191.00</ele>
   <time>2014-04-05T08:43:47Z</time>
  </trkpt>
  <trkpt lat="32.564121" lon="-1.196263">
   <ele>1192.00</ele>
   <time>2014-04-05T08:43:49Z</time>
  </trkpt>
  <trkpt lat="32.564207" lon="-1.196527">
   <ele>1192.00</ele>
   <time>2014-04-05T08:43:51Z</time>
  </trkpt>
  <trkpt lat="32.564310" lon="-1.196784">
   <ele>1192.00</ele>
   <time>2014-04-05T08:43:53Z</time>
  </trkpt>
  <trkpt lat="32.564426" lon="-1.197035">
   <ele>1192.00</ele>
   <time>2014-04-05T08:43:55Z</time>
  </trkpt>
  <trkpt lat="32.564561" lon="-1.197277">
   <ele>1192.00</ele>
   <time>2014-04-05T08:43:57Z</time>
  </trkpt>
  <trkpt lat="32.564709" lon="-1.197509">
   <ele>1193.00</ele>
   <time>2014-04-05T08:43:59Z</time>
  </trkpt>
  <trkpt lat="32.564872" lon="-1.197730">
   <ele>1193.00</ele>
   <time>2014-04-05T08:44:01Z</time>
  </trkpt>
  <trkpt lat="32.565052" lon="-1.197947">
   <ele>1193.00</ele>
   <time>2014-04-05T08:44:03Z</time>
  </trkpt>
  <trkpt lat="32.565258" lon="-1.198159">
   <ele>1193.00</ele>
   <time>2014-04-05T08:44:05Z</time>
  </trkpt>
  <trkpt lat="32.567197" lon="-1.200065">
   <ele>1197.00</ele>
   <time>2014-04-05T08:44:21Z</time>
  </trkpt>
  <trkpt lat="32.569174" lon="-1.202016">
   <ele>1201.00</ele>
   <time>2014-04-05T08:44:36Z</time>
  </trkpt>
  <trkpt lat="32.571307" lon="-1.204137">
   <ele>1199.00</ele>
   <time>2014-04-05T08:44:51Z</time>
  </trkpt>
  <trkpt lat="32.572730" lon="-1.205552">
   <ele>1201.00</ele>
   <time>2014-04-05T08:45:01Z</time>
  </trkpt>
  <trkpt lat="32.572993" lon="-1.205851">
   <ele>1201.00</ele>
   <time>2014-04-05T08:45:03Z</time>
  </trkpt>
  <trkpt lat="32.573116" lon="-1.206007">
   <ele>1202.00</ele>
   <time>2014-04-05T08:45:04Z</time>
  </trkpt>
  <trkpt lat="32.573341" lon="-1.206332">
   <ele>1202.00</ele>
   <time>2014-04-05T08:45:06Z</time>
  </trkpt>
  <trkpt lat="32.573541" lon="-1.206671">
   <ele>1203.00</ele>
   <time>2014-04-05T08:45:08Z</time>
  </trkpt>
  <trkpt lat="32.573714" lon="-1.207028">
   <ele>1203.00</ele>
   <time>2014-04-05T08:45:10Z</time>
  </trkpt>
  <trkpt lat="32.573861" lon="-1.207400">
   <ele>1204.00</ele>
   <time>2014-04-05T08:45:12Z</time>
  </trkpt>
  <trkpt lat="32.573989" lon="-1.207784">
   <ele>1204.00</ele>
   <time>2014-04-05T08:45:14Z</time>
  </trkpt>
  <trkpt lat="32.574091" lon="-1.208180">
   <ele>1204.00</ele>
   <time>2014-04-05T08:45:16Z</time>
  </trkpt>
  <trkpt lat="32.574163" lon="-1.208585">
   <ele>1204.00</ele>
   <time>2014-04-05T08:45:18Z</time>
  </trkpt>
  <trkpt lat="32.574627" lon="-1.211865">
   <ele>1206.00</ele>
   <time>2014-04-05T08:45:34Z</time>
  </trkpt>
  <trkpt lat="32.574769" lon="-1.212908">
   <ele>1208.00</ele>
   <time>2014-04-05T08:45:39Z</time>
  </trkpt>
  <trkpt lat="32.574795" lon="-1.213327">
   <ele>1209.00</ele>
   <time>2014-04-05T08:45:41Z</time>
  </trkpt>
  <trkpt lat="32.574786" lon="-1.213748">
   <ele>1210.00</ele>
   <time>2014-04-05T08:45:43Z</time>
  </trkpt>
  <trkpt lat="32.574745" lon="-1.214168">
   <ele>1211.00</ele>
   <time>2014-04-05T08:45:45Z</time>
  </trkpt>
  <trkpt lat="32.574676" lon="-1.214572">
   <ele>1212.00</ele>
   <time>2014-04-05T08:45:47Z</time>
  </trkpt>
  <trkpt lat="32.574575" lon="-1.214943">
   <ele>1212.00</ele>
   <time>2014-04-05T08:45:49Z</time>
  </trkpt>
  <trkpt lat="32.574462" lon="-1.215281">
   <ele>1213.00</ele>
   <time>2014-04-05T08:45:51Z</time>
  </trkpt>
  <trkpt lat="32.573979" lon="-1.216657">
   <ele>1214.00</ele>
   <time>2014-04-05T08:46:02Z</time>
  </trkpt>
  <trkpt lat="32.573866" lon="-1.216978">
   <ele>1217.00</ele>
   <time>2014-04-05T08:46:18Z</time>
  </trkpt>
  <trkpt lat="32.573865" lon="-1.216961">
   <ele>1218.00</ele>
   <time>2014-04-05T08:46:33Z</time>
  </trkpt>
  <trkpt lat="32.573864" lon="-1.216951">
   <ele>1218.00</ele>
   <time>2014-04-05T08:46:48Z</time>
  </trkpt>
  <trkpt lat="32.573864" lon="-1.216944">
   <ele>1218.00</ele>
   <time>2014-04-05T08:47:04Z</time>
  </trkpt>
  <trkpt lat="32.573864" lon="-1.216941">
   <ele>1218.00</ele>
   <time>2014-04-05T08:47:19Z</time>
  </trkpt>
  <trkpt lat="32.573863" lon="-1.216939">
   <ele>1218.00</ele>
   <time>2014-04-05T08:47:34Z</time>
  </trkpt>
  <trkpt lat="32.573862" lon="-1.216937">
   <ele>1218.00</ele>
   <time>2014-04-05T08:47:50Z</time>
  </trkpt>
  <trkpt lat="32.573862" lon="-1.216935">
   <ele>1217.00</ele>
   <time>2014-04-05T08:48:06Z</time>
  </trkpt>
  <trkpt lat="32.573861" lon="-1.216936">
   <ele>1217.00</ele>
   <time>2014-04-05T08:48:21Z</time>
  </trkpt>
  <trkpt lat="32.573793" lon="-1.217093">
   <ele>1217.00</ele>
   <time>2014-04-05T08:48:36Z</time>
  </trkpt>
  <trkpt lat="32.573706" lon="-1.217317">
   <ele>1217.00</ele>
   <time>2014-04-05T08:48:40Z</time>
  </trkpt>
  <trkpt lat="32.573354" lon="-1.218342">
   <ele>1218.00</ele>
   <time>2014-04-05T08:48:50Z</time>
  </trkpt>
  <trkpt lat="32.572531" lon="-1.220753">
   <ele>1220.00</ele>
   <time>2014-04-05T08:49:05Z</time>
  </trkpt>
  <trkpt lat="32.571520" lon="-1.223705">
   <ele>1226.00</ele>
   <time>2014-04-05T08:49:20Z</time>
  </trkpt>
  <trkpt lat="32.570382" lon="-1.227028">
   <ele>1232.00</ele>
   <time>2014-04-05T08:49:36Z</time>
  </trkpt>
  <trkpt lat="32.569857" lon="-1.228536">
   <ele>1235.00</ele>
   <time>2014-04-05T08:49:43Z</time>
  </trkpt>
  <trkpt lat="32.569606" lon="-1.229147">
   <ele>1237.00</ele>
   <time>2014-04-05T08:49:46Z</time>
  </trkpt>
  <trkpt lat="32.569422" lon="-1.229537">
   <ele>1237.00</ele>
   <time>2014-04-05T08:49:48Z</time>
  </trkpt>
  <trkpt lat="32.569220" lon="-1.229919">
   <ele>1238.00</ele>
   <time>2014-04-05T08:49:50Z</time>
  </trkpt>
  <trkpt lat="32.568678" lon="-1.230863">
   <ele>1238.00</ele>
   <time>2014-04-05T08:49:55Z</time>
  </trkpt>
  <trkpt lat="32.567468" lon="-1.232952">
   <ele>1239.00</ele>
   <time>2014-04-05T08:50:06Z</time>
  </trkpt>
  <trkpt lat="32.567052" lon="-1.233728">
   <ele>1240.00</ele>
   <time>2014-04-05T08:50:10Z</time>
  </trkpt>
  <trkpt lat="32.566957" lon="-1.233929">
   <ele>1240.00</ele>
   <time>2014-04-05T08:50:11Z</time>
  </trkpt>
  <trkpt lat="32.566787" lon="-1.234340">
   <ele>1241.00</ele>
   <time>2014-04-05T08:50:13Z</time>
  </trkpt>
  <trkpt lat="32.566572" lon="-1.234928">
   <ele>1242.00</ele>
   <time>2014-04-05T08:50:16Z</time>
  </trkpt>
  <trkpt lat="32.566460" lon="-1.235286">
   <ele>1242.00</ele>
   <time>2014-04-05T08:50:18Z</time>
  </trkpt>
  <trkpt lat="32.565684" lon="-1.238139">
   <ele>1246.00</ele>
   <time>2014-04-05T08:50:33Z</time>
  </trkpt>
  <trkpt lat="32.564765" lon="-1.241498">
   <ele>1253.00</ele>
   <time>2014-04-05T08:50:48Z</time>
  </trkpt>
  <trkpt lat="32.563763" lon="-1.245146">
   <ele>1262.00</ele>
   <time>2014-04-05T08:51:04Z</time>
  </trkpt>
  <trkpt lat="32.563495" lon="-1.246219">
   <ele>1264.00</ele>
   <time>2014-04-05T08:51:09Z</time>
  </trkpt>
  <trkpt lat="32.563419" lon="-1.246622">
   <ele>1264.00</ele>
   <time>2014-04-05T08:51:11Z</time>
  </trkpt>
  <trkpt lat="32.562919" lon="-1.249847">
   <ele>1256.00</ele>
   <time>2014-04-05T08:51:27Z</time>
  </trkpt>
  <trkpt lat="32.562747" lon="-1.251091">
   <ele>1253.00</ele>
   <time>2014-04-05T08:51:33Z</time>
  </trkpt>
  <trkpt lat="32.562732" lon="-1.251508">
   <ele>1252.00</ele>
   <time>2014-04-05T08:51:35Z</time>
  </trkpt>
  <trkpt lat="32.562748" lon="-1.251936">
   <ele>1252.00</ele>
   <time>2014-04-05T08:51:37Z</time>
  </trkpt>
  <trkpt lat="32.562978" lon="-1.255347">
   <ele>1249.00</ele>
   <time>2014-04-05T08:51:53Z</time>
  </trkpt>
  <trkpt lat="32.563140" lon="-1.257542">
   <ele>1244.00</ele>
   <time>2014-04-05T08:52:03Z</time>
  </trkpt>
  <trkpt lat="32.563203" lon="-1.257985">
   <ele>1243.00</ele>
   <time>2014-04-05T08:52:05Z</time>
  </trkpt>
  <trkpt lat="32.563765" lon="-1.261600">
   <ele>1236.00</ele>
   <time>2014-04-05T08:52:21Z</time>
  </trkpt>
  <trkpt lat="32.563962" lon="-1.262749">
   <ele>1234.00</ele>
   <time>2014-04-05T08:52:26Z</time>
  </trkpt>
  <trkpt lat="32.564161" lon="-1.263659">
   <ele>1235.00</ele>
   <time>2014-04-05T08:52:30Z</time>
  </trkpt>
  <trkpt lat="32.564963" lon="-1.267029">
   <ele>1232.00</ele>
   <time>2014-04-05T08:52:45Z</time>
  </trkpt>
  <trkpt lat="32.565436" lon="-1.269035">
   <ele>1228.00</ele>
   <time>2014-04-05T08:52:54Z</time>
  </trkpt>
  <trkpt lat="32.565470" lon="-1.269247">
   <ele>1228.00</ele>
   <time>2014-04-05T08:52:55Z</time>
  </trkpt>
  <trkpt lat="32.565500" lon="-1.269671">
   <ele>1227.00</ele>
   <time>2014-04-05T08:52:57Z</time>
  </trkpt>
  <trkpt lat="32.565475" lon="-1.270099">
   <ele>1225.00</ele>
   <time>2014-04-05T08:52:59Z</time>
  </trkpt>
  <trkpt lat="32.565376" lon="-1.270966">
   <ele>1222.00</ele>
   <time>2014-04-05T08:53:03Z</time>
  </trkpt>
  <trkpt lat="32.565368" lon="-1.271185">
   <ele>1221.00</ele>
   <time>2014-04-05T08:53:04Z</time>
  </trkpt>
  <trkpt lat="32.565370" lon="-1.271405">
   <ele>1220.00</ele>
   <time>2014-04-05T08:53:05Z</time>
  </trkpt>
  <trkpt lat="32.565387" lon="-1.271623">
   <ele>1219.00</ele>
   <time>2014-04-05T08:53:06Z</time>
  </trkpt>
  <trkpt lat="32.565420" lon="-1.271840">
   <ele>1218.00</ele>
   <time>2014-04-05T08:53:07Z</time>
  </trkpt>
  <trkpt lat="32.565466" lon="-1.272055">
   <ele>1217.00</ele>
   <time>2014-04-05T08:53:08Z</time>
  </trkpt>
  <trkpt lat="32.565522" lon="-1.272270">
   <ele>1217.00</ele>
   <time>2014-04-05T08:53:09Z</time>
  </trkpt>
  <trkpt lat="32.566350" lon="-1.275070">
   <ele>1208.00</ele>
   <time>2014-04-05T08:53:22Z</time>
  </trkpt>
  <trkpt lat="32.566553" lon="-1.275696">
   <ele>1206.00</ele>
   <time>2014-04-05T08:53:25Z</time>
  </trkpt>
  <trkpt lat="32.566633" lon="-1.275894">
   <ele>1205.00</ele>
   <time>2014-04-05T08:53:26Z</time>
  </trkpt>
  <trkpt lat="32.566725" lon="-1.276084">
   <ele>1205.00</ele>
   <time>2014-04-05T08:53:27Z</time>
  </trkpt>
  <trkpt lat="32.566828" lon="-1.276263">
   <ele>1204.00</ele>
   <time>2014-04-05T08:53:28Z</time>
  </trkpt>
  <trkpt lat="32.566942" lon="-1.276433">
   <ele>1204.00</ele>
   <time>2014-04-05T08:53:29Z</time>
  </trkpt>
  <trkpt lat="32.567064" lon="-1.276596">
   <ele>1204.00</ele>
   <time>2014-04-05T08:53:30Z</time>
  </trkpt>
  <trkpt lat="32.568389" lon="-1.278217">
   <ele>1206.00</ele>
   <time>2014-04-05T08:53:41Z</time>
  </trkpt>
  <trkpt lat="32.568589" lon="-1.278473">
   <ele>1207.00</ele>
   <time>2014-04-05T08:53:43Z</time>
  </trkpt>
  <trkpt lat="32.568748" lon="-1.278759">
   <ele>1208.00</ele>
   <time>2014-04-05T08:53:45Z</time>
  </trkpt>
  <trkpt lat="32.568844" lon="-1.279093">
   <ele>1209.00</ele>
   <time>2014-04-05T08:53:47Z</time>
  </trkpt>
  <trkpt lat="32.568888" lon="-1.279462">
   <ele>1210.00</ele>
   <time>2014-04-05T08:53:49Z</time>
  </trkpt>
  <trkpt lat="32.568914" lon="-1.279852">
   <ele>1211.00</ele>
   <time>2014-04-05T08:53:51Z</time>
  </trkpt>
  <trkpt lat="32.569081" lon="-1.283016">
   <ele>1217.00</ele>
   <time>2014-04-05T08:54:06Z</time>
  </trkpt>
  <trkpt lat="32.569069" lon="-1.283444">
   <ele>1217.00</ele>
   <time>2014-04-05T08:54:08Z</time>
  </trkpt>
  <trkpt lat="32.569052" lon="-1.283659">
   <ele>1217.00</ele>
   <time>2014-04-05T08:54:09Z</time>
  </trkpt>
  <trkpt lat="32.569028" lon="-1.283875">
   <ele>1217.00</ele>
   <time>2014-04-05T08:54:10Z</time>
  </trkpt>
  <trkpt lat="32.568996" lon="-1.284091">
   <ele>1217.00</ele>
   <time>2014-04-05T08:54:11Z</time>
  </trkpt>
  <trkpt lat="32.568957" lon="-1.284305">
   <ele>1217.00</ele>
   <time>2014-04-05T08:54:12Z</time>
  </trkpt>
  <trkpt lat="32.568909" lon="-1.284518">
   <ele>1218.00</ele>
   <time>2014-04-05T08:54:13Z</time>
  </trkpt>
  <trkpt lat="32.568174" lon="-1.287523">
   <ele>1220.00</ele>
   <time>2014-04-05T08:54:27Z</time>
  </trkpt>
  <trkpt lat="32.568140" lon="-1.287748">
   <ele>1221.00</ele>
   <time>2014-04-05T08:54:28Z</time>
  </trkpt>
  <trkpt lat="32.568115" lon="-1.287975">
   <ele>1221.00</ele>
   <time>2014-04-05T08:54:29Z</time>
  </trkpt>
  <trkpt lat="32.568100" lon="-1.288205">
   <ele>1222.00</ele>
   <time>2014-04-05T08:54:30Z</time>
  </trkpt>
  <trkpt lat="32.568092" lon="-1.288436">
   <ele>1222.00</ele>
   <time>2014-04-05T08:54:31Z</time>
  </trkpt>
  <trkpt lat="32.568093" lon="-1.288669">
   <ele>1222.00</ele>
   <time>2014-04-05T08:54:32Z</time>
  </trkpt>
  <trkpt lat="32.568102" lon="-1.288902">
   <ele>1223.00</ele>
   <time>2014-04-05T08:54:33Z</time>
  </trkpt>
  <trkpt lat="32.568123" lon="-1.289136">
   <ele>1223.00</ele>
   <time>2014-04-05T08:54:34Z</time>
  </trkpt>
  <trkpt lat="32.568154" lon="-1.289369">
   <ele>1223.00</ele>
   <time>2014-04-05T08:54:35Z</time>
  </trkpt>
  <trkpt lat="32.568235" lon="-1.289836">
   <ele>1224.00</ele>
   <time>2014-04-05T08:54:37Z</time>
  </trkpt>
  <trkpt lat="32.568610" lon="-1.291892">
   <ele>1226.00</ele>
   <time>2014-04-05T08:54:46Z</time>
  </trkpt>
  <trkpt lat="32.568630" lon="-1.292122">
   <ele>1226.00</ele>
   <time>2014-04-05T08:54:47Z</time>
  </trkpt>
  <trkpt lat="32.568638" lon="-1.292355">
   <ele>1226.00</ele>
   <time>2014-04-05T08:54:48Z</time>
  </trkpt>
  <trkpt lat="32.568636" lon="-1.292589">
   <ele>1226.00</ele>
   <time>2014-04-05T08:54:49Z</time>
  </trkpt>
  <trkpt lat="32.568598" lon="-1.293906">
   <ele>1227.00</ele>
   <time>2014-04-05T08:54:55Z</time>
  </trkpt>
  <trkpt lat="32.568659" lon="-1.294293">
   <ele>1228.00</ele>
   <time>2014-04-05T08:54:57Z</time>
  </trkpt>
  <trkpt lat="32.568787" lon="-1.294648">
   <ele>1230.00</ele>
   <time>2014-04-05T08:54:59Z</time>
  </trkpt>
  <trkpt lat="32.568979" lon="-1.294958">
   <ele>1231.00</ele>
   <time>2014-04-05T08:55:01Z</time>
  </trkpt>
  <trkpt lat="32.569209" lon="-1.295236">
   <ele>1232.00</ele>
   <time>2014-04-05T08:55:03Z</time>
  </trkpt>
  <trkpt lat="32.569675" lon="-1.295805">
   <ele>1235.00</ele>
   <time>2014-04-05T08:55:07Z</time>
  </trkpt>
  <trkpt lat="32.570169" lon="-1.296447">
   <ele>1238.00</ele>
   <time>2014-04-05T08:55:12Z</time>
  </trkpt>
  <trkpt lat="32.570300" lon="-1.296653">
   <ele>1238.00</ele>
   <time>2014-04-05T08:55:14Z</time>
  </trkpt>
  <trkpt lat="32.570948" lon="-1.297794">
   <ele>1239.00</ele>
   <time>2014-04-05T08:55:29Z</time>
  </trkpt>
  <trkpt lat="32.571097" lon="-1.298073">
   <ele>1239.00</ele>
   <time>2014-04-05T08:55:32Z</time>
  </trkpt>
  <trkpt lat="32.571192" lon="-1.298290">
   <ele>1240.00</ele>
   <time>2014-04-05T08:55:34Z</time>
  </trkpt>
  <trkpt lat="32.571273" lon="-1.298551">
   <ele>1240.00</ele>
   <time>2014-04-05T08:55:36Z</time>
  </trkpt>
  <trkpt lat="32.571329" lon="-1.298857">
   <ele>1240.00</ele>
   <time>2014-04-05T08:55:38Z</time>
  </trkpt>
  <trkpt lat="32.571367" lon="-1.299195">
   <ele>1241.00</ele>
   <time>2014-04-05T08:55:40Z</time>
  </trkpt>
  <trkpt lat="32.571579" lon="-1.301193">
   <ele>1243.00</ele>
   <time>2014-04-05T08:55:50Z</time>
  </trkpt>
  <trkpt lat="32.571572" lon="-1.301562">
   <ele>1243.00</ele>
   <time>2014-04-05T08:55:52Z</time>
  </trkpt>
  <trkpt lat="32.571519" lon="-1.301916">
   <ele>1244.00</ele>
   <time>2014-04-05T08:55:54Z</time>
  </trkpt>
  <trkpt lat="32.571425" lon="-1.302258">
   <ele>1245.00</ele>
   <time>2014-04-05T08:55:56Z</time>
  </trkpt>
  <trkpt lat="32.571296" lon="-1.302590">
   <ele>1245.00</ele>
   <time>2014-04-05T08:55:58Z</time>
  </trkpt>
  <trkpt lat="32.571132" lon="-1.302898">
   <ele>1245.00</ele>
   <time>2014-04-05T08:56:00Z</time>
  </trkpt>
  <trkpt lat="32.570928" lon="-1.303176">
   <ele>1245.00</ele>
   <time>2014-04-05T08:56:02Z</time>
  </trkpt>
  <trkpt lat="32.570688" lon="-1.303417">
   <ele>1246.00</ele>
   <time>2014-04-05T08:56:04Z</time>
  </trkpt>
  <trkpt lat="32.570417" lon="-1.303621">
   <ele>1247.00</ele>
   <time>2014-04-05T08:56:06Z</time>
  </trkpt>
  <trkpt lat="32.570124" lon="-1.303784">
   <ele>1247.00</ele>
   <time>2014-04-05T08:56:08Z</time>
  </trkpt>
  <trkpt lat="32.569812" lon="-1.303890">
   <ele>1248.00</ele>
   <time>2014-04-05T08:56:10Z</time>
  </trkpt>
  <trkpt lat="32.569486" lon="-1.303966">
   <ele>1248.00</ele>
   <time>2014-04-05T08:56:12Z</time>
  </trkpt>
  <trkpt lat="32.569157" lon="-1.304022">
   <ele>1248.00</ele>
   <time>2014-04-05T08:56:14Z</time>
  </trkpt>
  <trkpt lat="32.568186" lon="-1.304154">
   <ele>1251.00</ele>
   <time>2014-04-05T08:56:20Z</time>
  </trkpt>
  <trkpt lat="32.567866" lon="-1.304250">
   <ele>1252.00</ele>
   <time>2014-04-05T08:56:22Z</time>
  </trkpt>
  <trkpt lat="32.567560" lon="-1.304387">
   <ele>1254.00</ele>
   <time>2014-04-05T08:56:24Z</time>
  </trkpt>
  <trkpt lat="32.567271" lon="-1.304576">
   <ele>1255.00</ele>
   <time>2014-04-05T08:56:26Z</time>
  </trkpt>
  <trkpt lat="32.567012" lon="-1.304814">
   <ele>1256.00</ele>
   <time>2014-04-05T08:56:28Z</time>
  </trkpt>
  <trkpt lat="32.566792" lon="-1.305088">
   <ele>1256.00</ele>
   <time>2014-04-05T08:56:30Z</time>
  </trkpt>
  <trkpt lat="32.566609" lon="-1.305401">
   <ele>1257.00</ele>
   <time>2014-04-05T08:56:32Z</time>
  </trkpt>
  <trkpt lat="32.566458" lon="-1.305746">
   <ele>1258.00</ele>
   <time>2014-04-05T08:56:34Z</time>
  </trkpt>
  <trkpt lat="32.566073" lon="-1.306829">
   <ele>1263.00</ele>
   <time>2014-04-05T08:56:40Z</time>
  </trkpt>
  <trkpt lat="32.565951" lon="-1.307193">
   <ele>1265.00</ele>
   <time>2014-04-05T08:56:42Z</time>
  </trkpt>
  <trkpt lat="32.565851" lon="-1.307566">
   <ele>1267.00</ele>
   <time>2014-04-05T08:56:44Z</time>
  </trkpt>
  <trkpt lat="32.565783" lon="-1.307947">
   <ele>1268.00</ele>
   <time>2014-04-05T08:56:46Z</time>
  </trkpt>
  <trkpt lat="32.565759" lon="-1.308343">
   <ele>1268.00</ele>
   <time>2014-04-05T08:56:48Z</time>
  </trkpt>
  <trkpt lat="32.565770" lon="-1.308751">
   <ele>1268.00</ele>
   <time>2014-04-05T08:56:50Z</time>
  </trkpt>
  <trkpt lat="32.565817" lon="-1.309163">
   <ele>1269.00</ele>
   <time>2014-04-05T08:56:52Z</time>
  </trkpt>
  <trkpt lat="32.565902" lon="-1.309569">
   <ele>1269.00</ele>
   <time>2014-04-05T08:56:54Z</time>
  </trkpt>
  <trkpt lat="32.566032" lon="-1.309960">
   <ele>1270.00</ele>
   <time>2014-04-05T08:56:56Z</time>
  </trkpt>
  <trkpt lat="32.566194" lon="-1.310337">
   <ele>1271.00</ele>
   <time>2014-04-05T08:56:58Z</time>
  </trkpt>
  <trkpt lat="32.566388" lon="-1.310690">
   <ele>1271.00</ele>
   <time>2014-04-05T08:57:00Z</time>
  </trkpt>
  <trkpt lat="32.566608" lon="-1.311025">
   <ele>1272.00</ele>
   <time>2014-04-05T08:57:02Z</time>
  </trkpt>
  <trkpt lat="32.568309" lon="-1.313580">
   <ele>1286.00</ele>
   <time>2014-04-05T08:57:17Z</time>
  </trkpt>
  <trkpt lat="32.569392" lon="-1.315228">
   <ele>1291.00</ele>
   <time>2014-04-05T08:57:27Z</time>
  </trkpt>
  <trkpt lat="32.569589" lon="-1.315572">
   <ele>1290.00</ele>
   <time>2014-04-05T08:57:29Z</time>
  </trkpt>
  <trkpt lat="32.569756" lon="-1.315946">
   <ele>1290.00</ele>
   <time>2014-04-05T08:57:31Z</time>
  </trkpt>
  <trkpt lat="32.569823" lon="-1.316146">
   <ele>1289.00</ele>
   <time>2014-04-05T08:57:32Z</time>
  </trkpt>
  <trkpt lat="32.569878" lon="-1.316353">
   <ele>1289.00</ele>
   <time>2014-04-05T08:57:33Z</time>
  </trkpt>
  <trkpt lat="32.569921" lon="-1.316568">
   <ele>1288.00</ele>
   <time>2014-04-05T08:57:34Z</time>
  </trkpt>
  <trkpt lat="32.569952" lon="-1.316788">
   <ele>1288.00</ele>
   <time>2014-04-05T08:57:35Z</time>
  </trkpt>
  <trkpt lat="32.569974" lon="-1.317013">
   <ele>1288.00</ele>
   <time>2014-04-05T08:57:36Z</time>
  </trkpt>
  <trkpt lat="32.570229" lon="-1.320885">
   <ele>1281.00</ele>
   <time>2014-04-05T08:57:52Z</time>
  </trkpt>
  <trkpt lat="32.570490" lon="-1.323470">
   <ele>1276.00</ele>
   <time>2014-04-05T08:58:02Z</time>
  </trkpt>
  <trkpt lat="32.570504" lon="-1.323729">
   <ele>1275.00</ele>
   <time>2014-04-05T08:58:03Z</time>
  </trkpt>
  <trkpt lat="32.570510" lon="-1.323989">
   <ele>1274.00</ele>
   <time>2014-04-05T08:58:04Z</time>
  </trkpt>
  <trkpt lat="32.570498" lon="-1.324510">
   <ele>1273.00</ele>
   <time>2014-04-05T08:58:06Z</time>
  </trkpt>
  <trkpt lat="32.570452" lon="-1.325301">
   <ele>1271.00</ele>
   <time>2014-04-05T08:58:09Z</time>
  </trkpt>
  <trkpt lat="32.570163" lon="-1.329168">
   <ele>1265.00</ele>
   <time>2014-04-05T08:58:24Z</time>
  </trkpt>
  <trkpt lat="32.570129" lon="-1.329412">
   <ele>1265.00</ele>
   <time>2014-04-05T08:58:25Z</time>
  </trkpt>
  <trkpt lat="32.570083" lon="-1.329650">
   <ele>1265.00</ele>
   <time>2014-04-05T08:58:26Z</time>
  </trkpt>
  <trkpt lat="32.570027" lon="-1.329883">
   <ele>1265.00</ele>
   <time>2014-04-05T08:58:27Z</time>
  </trkpt>
  <trkpt lat="32.569961" lon="-1.330110">
   <ele>1266.00</ele>
   <time>2014-04-05T08:58:28Z</time>
  </trkpt>
  <trkpt lat="32.568825" lon="-1.333728">
   <ele>1260.00</ele>
   <time>2014-04-05T08:58:44Z</time>
  </trkpt>
  <trkpt lat="32.568785" lon="-1.333958">
   <ele>1259.00</ele>
   <time>2014-04-05T08:58:45Z</time>
  </trkpt>
  <trkpt lat="32.568761" lon="-1.334191">
   <ele>1259.00</ele>
   <time>2014-04-05T08:58:46Z</time>
  </trkpt>
  <trkpt lat="32.568754" lon="-1.334426">
   <ele>1258.00</ele>
   <time>2014-04-05T08:58:47Z</time>
  </trkpt>
  <trkpt lat="32.568762" lon="-1.334662">
   <ele>1258.00</ele>
   <time>2014-04-05T08:58:48Z</time>
  </trkpt>
  <trkpt lat="32.568780" lon="-1.334900">
   <ele>1257.00</ele>
   <time>2014-04-05T08:58:49Z</time>
  </trkpt>
  <trkpt lat="32.568882" lon="-1.335860">
   <ele>1255.00</ele>
   <time>2014-04-05T08:58:53Z</time>
  </trkpt>
  <trkpt lat="32.569324" lon="-1.339383">
   <ele>1247.00</ele>
   <time>2014-04-05T08:59:08Z</time>
  </trkpt>
  <trkpt lat="32.569345" lon="-1.339610">
   <ele>1247.00</ele>
   <time>2014-04-05T08:59:09Z</time>
  </trkpt>
  <trkpt lat="32.569356" lon="-1.339837">
   <ele>1246.00</ele>
   <time>2014-04-05T08:59:10Z</time>
  </trkpt>
  <trkpt lat="32.569357" lon="-1.340064">
   <ele>1246.00</ele>
   <time>2014-04-05T08:59:11Z</time>
  </trkpt>
  <trkpt lat="32.569350" lon="-1.340291">
   <ele>1245.00</ele>
   <time>2014-04-05T08:59:12Z</time>
  </trkpt>
  <trkpt lat="32.569334" lon="-1.340516">
   <ele>1245.00</ele>
   <time>2014-04-05T08:59:13Z</time>
  </trkpt>
  <trkpt lat="32.569279" lon="-1.340961">
   <ele>1244.00</ele>
   <time>2014-04-05T08:59:15Z</time>
  </trkpt>
  <trkpt lat="32.569241" lon="-1.341180">
   <ele>1244.00</ele>
   <time>2014-04-05T08:59:16Z</time>
  </trkpt>
  <trkpt lat="32.569144" lon="-1.341612">
   <ele>1243.00</ele>
   <time>2014-04-05T08:59:18Z</time>
  </trkpt>
  <trkpt lat="32.569084" lon="-1.341823">
   <ele>1243.00</ele>
   <time>2014-04-05T08:59:19Z</time>
  </trkpt>
  <trkpt lat="32.569016" lon="-1.342031">
   <ele>1243.00</ele>
   <time>2014-04-05T08:59:20Z</time>
  </trkpt>
  <trkpt lat="32.568938" lon="-1.342235">
   <ele>1242.00</ele>
   <time>2014-04-05T08:59:21Z</time>
  </trkpt>
  <trkpt lat="32.568852" lon="-1.342435">
   <ele>1242.00</ele>
   <time>2014-04-05T08:59:22Z</time>
  </trkpt>
  <trkpt lat="32.568757" lon="-1.342631">
   <ele>1242.00</ele>
   <time>2014-04-05T08:59:23Z</time>
  </trkpt>
  <trkpt lat="32.568550" lon="-1.343014">
   <ele>1241.00</ele>
   <time>2014-04-05T08:59:25Z</time>
  </trkpt>
  <trkpt lat="32.568323" lon="-1.343386">
   <ele>1240.00</ele>
   <time>2014-04-05T08:59:27Z</time>
  </trkpt>
  <trkpt lat="32.568081" lon="-1.343747">
   <ele>1240.00</ele>
   <time>2014-04-05T08:59:29Z</time>
  </trkpt>
  <trkpt lat="32.566226" lon="-1.346510">
   <ele>1237.00</ele>
   <time>2014-04-05T08:59:44Z</time>
  </trkpt>
  <trkpt lat="32.564392" lon="-1.349251">
   <ele>1231.00</ele>
   <time>2014-04-05T08:59:59Z</time>
  </trkpt>
  <trkpt lat="32.562259" lon="-1.352467">
   <ele>1225.00</ele>
   <time>2014-04-05T09:00:15Z</time>
  </trkpt>
  <trkpt lat="32.560626" lon="-1.354902">
   <ele>1223.00</ele>
   <time>2014-04-05T09:00:27Z</time>
  </trkpt>
  <trkpt lat="32.560337" lon="-1.355285">
   <ele>1223.00</ele>
   <time>2014-04-05T09:00:29Z</time>
  </trkpt>
  <trkpt lat="32.558847" lon="-1.357077">
   <ele>1222.00</ele>
   <time>2014-04-05T09:00:39Z</time>
  </trkpt>
  <trkpt lat="32.556330" lon="-1.360093">
   <ele>1220.00</ele>
   <time>2014-04-05T09:00:55Z</time>
  </trkpt>
  <trkpt lat="32.554699" lon="-1.362073">
   <ele>1220.00</ele>
   <time>2014-04-05T09:01:06Z</time>
  </trkpt>
  <trkpt lat="32.554582" lon="-1.362256">
   <ele>1220.00</ele>
   <time>2014-04-05T09:01:07Z</time>
  </trkpt>
  <trkpt lat="32.554478" lon="-1.362448">
   <ele>1219.00</ele>
   <time>2014-04-05T09:01:08Z</time>
  </trkpt>
  <trkpt lat="32.554386" lon="-1.362648">
   <ele>1219.00</ele>
   <time>2014-04-05T09:01:09Z</time>
  </trkpt>
  <trkpt lat="32.554305" lon="-1.362855">
   <ele>1219.00</ele>
   <time>2014-04-05T09:01:10Z</time>
  </trkpt>
  <trkpt lat="32.554236" lon="-1.363065">
   <ele>1219.00</ele>
   <time>2014-04-05T09:01:11Z</time>
  </trkpt>
  <trkpt lat="32.554180" lon="-1.363280">
   <ele>1218.00</ele>
   <time>2014-04-05T09:01:12Z</time>
  </trkpt>
  <trkpt lat="32.554135" lon="-1.363500">
   <ele>1217.00</ele>
   <time>2014-04-05T09:01:13Z</time>
  </trkpt>
  <trkpt lat="32.554103" lon="-1.363721">
   <ele>1217.00</ele>
   <time>2014-04-05T09:01:14Z</time>
  </trkpt>
  <trkpt lat="32.554088" lon="-1.363945">
   <ele>1216.00</ele>
   <time>2014-04-05T09:01:15Z</time>
  </trkpt>
  <trkpt lat="32.554090" lon="-1.364172">
   <ele>1216.00</ele>
   <time>2014-04-05T09:01:16Z</time>
  </trkpt>
  <trkpt lat="32.554105" lon="-1.364399">
   <ele>1216.00</ele>
   <time>2014-04-05T09:01:17Z</time>
  </trkpt>
  <trkpt lat="32.554131" lon="-1.364624">
   <ele>1216.00</ele>
   <time>2014-04-05T09:01:18Z</time>
  </trkpt>
  <trkpt lat="32.554169" lon="-1.364845">
   <ele>1215.00</ele>
   <time>2014-04-05T09:01:19Z</time>
  </trkpt>
  <trkpt lat="32.554216" lon="-1.365063">
   <ele>1215.00</ele>
   <time>2014-04-05T09:01:20Z</time>
  </trkpt>
  <trkpt lat="32.554270" lon="-1.365277">
   <ele>1214.00</ele>
   <time>2014-04-05T09:01:21Z</time>
  </trkpt>
  <trkpt lat="32.555103" lon="-1.368315">
   <ele>1216.00</ele>
   <time>2014-04-05T09:01:36Z</time>
  </trkpt>
  <trkpt lat="32.555659" lon="-1.370353">
   <ele>1216.00</ele>
   <time>2014-04-05T09:01:52Z</time>
  </trkpt>
  <trkpt lat="32.555988" lon="-1.371557">
   <ele>1216.00</ele>
   <time>2014-04-05T09:02:08Z</time>
  </trkpt>
  <trkpt lat="32.556645" lon="-1.374023">
   <ele>1220.00</ele>
   <time>2014-04-05T09:02:23Z</time>
  </trkpt>
  <trkpt lat="32.556819" lon="-1.374653">
   <ele>1221.00</ele>
   <time>2014-04-05T09:02:26Z</time>
  </trkpt>
  <trkpt lat="32.557077" lon="-1.375748">
   <ele>1224.00</ele>
   <time>2014-04-05T09:02:31Z</time>
  </trkpt>
  <trkpt lat="32.557119" lon="-1.375964">
   <ele>1224.00</ele>
   <time>2014-04-05T09:02:32Z</time>
  </trkpt>
  <trkpt lat="32.557152" lon="-1.376183">
   <ele>1225.00</ele>
   <time>2014-04-05T09:02:33Z</time>
  </trkpt>
  <trkpt lat="32.557180" lon="-1.376408">
   <ele>1225.00</ele>
   <time>2014-04-05T09:02:34Z</time>
  </trkpt>
  <trkpt lat="32.557200" lon="-1.376636">
   <ele>1225.00</ele>
   <time>2014-04-05T09:02:35Z</time>
  </trkpt>
  <trkpt lat="32.557212" lon="-1.376868">
   <ele>1225.00</ele>
   <time>2014-04-05T09:02:36Z</time>
  </trkpt>
  <trkpt lat="32.557214" lon="-1.377103">
   <ele>1225.00</ele>
   <time>2014-04-05T09:02:37Z</time>
  </trkpt>
  <trkpt lat="32.557207" lon="-1.377341">
   <ele>1225.00</ele>
   <time>2014-04-05T09:02:38Z</time>
  </trkpt>
  <trkpt lat="32.557167" lon="-1.377825">
   <ele>1224.00</ele>
   <time>2014-04-05T09:02:40Z</time>
  </trkpt>
  <trkpt lat="32.557062" lon="-1.378570">
   <ele>1223.00</ele>
   <time>2014-04-05T09:02:43Z</time>
  </trkpt>
  <trkpt lat="32.556489" lon="-1.382612">
   <ele>1227.00</ele>
   <time>2014-04-05T09:02:59Z</time>
  </trkpt>
  <trkpt lat="32.556111" lon="-1.385311">
   <ele>1230.00</ele>
   <time>2014-04-05T09:03:11Z</time>
  </trkpt>
  <trkpt lat="32.556096" lon="-1.385529">
   <ele>1230.00</ele>
   <time>2014-04-05T09:03:12Z</time>
  </trkpt>
  <trkpt lat="32.556093" lon="-1.385749">
   <ele>1230.00</ele>
   <time>2014-04-05T09:03:13Z</time>
  </trkpt>
  <trkpt lat="32.556104" lon="-1.385971">
   <ele>1230.00</ele>
   <time>2014-04-05T09:03:14Z</time>
  </trkpt>
  <trkpt lat="32.556128" lon="-1.386197">
   <ele>1230.00</ele>
   <time>2014-04-05T09:03:15Z</time>
  </trkpt>
  <trkpt lat="32.556164" lon="-1.386424">
   <ele>1230.00</ele>
   <time>2014-04-05T09:03:16Z</time>
  </trkpt>
  <trkpt lat="32.556213" lon="-1.386650">
   <ele>1230.00</ele>
   <time>2014-04-05T09:03:17Z</time>
  </trkpt>
  <trkpt lat="32.556271" lon="-1.386877">
   <ele>1230.00</ele>
   <time>2014-04-05T09:03:18Z</time>
  </trkpt>
  <trkpt lat="32.556338" lon="-1.387104">
   <ele>1230.00</ele>
   <time>2014-04-05T09:03:19Z</time>
  </trkpt>
  <trkpt lat="32.557457" lon="-1.390645">
   <ele>1233.00</ele>
   <time>2014-04-05T09:03:34Z</time>
  </trkpt>
  <trkpt lat="32.558572" lon="-1.394204">
   <ele>1233.00</ele>
   <time>2014-04-05T09:03:50Z</time>
  </trkpt>
  <trkpt lat="32.559679" lon="-1.397780">
   <ele>1240.00</ele>
   <time>2014-04-05T09:04:05Z</time>
  </trkpt>
  <trkpt lat="32.560714" lon="-1.401125">
   <ele>1249.00</ele>
   <time>2014-04-05T09:04:20Z</time>
  </trkpt>
  <trkpt lat="32.561757" lon="-1.404498">
   <ele>1248.00</ele>
   <time>2014-04-05T09:04:35Z</time>
  </trkpt>
  <trkpt lat="32.562899" lon="-1.408158">
   <ele>1239.00</ele>
   <time>2014-04-05T09:04:51Z</time>
  </trkpt>
  <trkpt lat="32.563313" lon="-1.409503">
   <ele>1237.00</ele>
   <time>2014-04-05T09:04:57Z</time>
  </trkpt>
  <trkpt lat="32.563424" lon="-1.409942">
   <ele>1236.00</ele>
   <time>2014-04-05T09:04:59Z</time>
  </trkpt>
  <trkpt lat="32.563463" lon="-1.410161">
   <ele>1236.00</ele>
   <time>2014-04-05T09:05:00Z</time>
  </trkpt>
  <trkpt lat="32.563490" lon="-1.410379">
   <ele>1235.00</ele>
   <time>2014-04-05T09:05:01Z</time>
  </trkpt>
  <trkpt lat="32.563783" lon="-1.413813">
   <ele>1233.00</ele>
   <time>2014-04-05T09:05:17Z</time>
  </trkpt>
  <trkpt lat="32.563888" lon="-1.415131">
   <ele>1233.00</ele>
   <time>2014-04-05T09:05:23Z</time>
  </trkpt>
  <trkpt lat="32.563885" lon="-1.415360">
   <ele>1233.00</ele>
   <time>2014-04-05T09:05:24Z</time>
  </trkpt>
  <trkpt lat="32.563867" lon="-1.415592">
   <ele>1233.00</ele>
   <time>2014-04-05T09:05:25Z</time>
  </trkpt>
  <trkpt lat="32.563804" lon="-1.416062">
   <ele>1234.00</ele>
   <time>2014-04-05T09:05:27Z</time>
  </trkpt>
  <trkpt lat="32.563594" lon="-1.417265">
   <ele>1236.00</ele>
   <time>2014-04-05T09:05:32Z</time>
  </trkpt>
  <trkpt lat="32.563194" lon="-1.419444">
   <ele>1242.00</ele>
   <time>2014-04-05T09:05:41Z</time>
  </trkpt>
  <trkpt lat="32.563078" lon="-1.419913">
   <ele>1244.00</ele>
   <time>2014-04-05T09:05:43Z</time>
  </trkpt>
  <trkpt lat="32.562936" lon="-1.420366">
   <ele>1245.00</ele>
   <time>2014-04-05T09:05:45Z</time>
  </trkpt>
  <trkpt lat="32.562767" lon="-1.420804">
   <ele>1247.00</ele>
   <time>2014-04-05T09:05:47Z</time>
  </trkpt>
  <trkpt lat="32.562675" lon="-1.421015">
   <ele>1248.00</ele>
   <time>2014-04-05T09:05:48Z</time>
  </trkpt>
  <trkpt lat="32.562576" lon="-1.421219">
   <ele>1248.00</ele>
   <time>2014-04-05T09:05:49Z</time>
  </trkpt>
  <trkpt lat="32.562469" lon="-1.421416">
   <ele>1249.00</ele>
   <time>2014-04-05T09:05:50Z</time>
  </trkpt>
  <trkpt lat="32.562353" lon="-1.421608">
   <ele>1249.00</ele>
   <time>2014-04-05T09:05:51Z</time>
  </trkpt>
  <trkpt lat="32.562228" lon="-1.421794">
   <ele>1249.00</ele>
   <time>2014-04-05T09:05:52Z</time>
  </trkpt>
  <trkpt lat="32.561685" lon="-1.422541">
   <ele>1250.00</ele>
   <time>2014-04-05T09:05:56Z</time>
  </trkpt>
  <trkpt lat="32.561388" lon="-1.422913">
   <ele>1250.00</ele>
   <time>2014-04-05T09:05:58Z</time>
  </trkpt>
  <trkpt lat="32.558904" lon="-1.425770">
   <ele>1248.00</ele>
   <time>2014-04-05T09:06:13Z</time>
  </trkpt>
  <trkpt lat="32.556512" lon="-1.428539">
   <ele>1245.00</ele>
   <time>2014-04-05T09:06:28Z</time>
  </trkpt>
  <trkpt lat="32.555706" lon="-1.429464">
   <ele>1244.00</ele>
   <time>2014-04-05T09:06:34Z</time>
  </trkpt>
  <trkpt lat="32.554428" lon="-1.430929">
   <ele>1242.00</ele>
   <time>2014-04-05T09:06:43Z</time>
  </trkpt>
  <trkpt lat="32.552153" lon="-1.433568">
   <ele>1239.00</ele>
   <time>2014-04-05T09:06:58Z</time>
  </trkpt>
  <trkpt lat="32.550671" lon="-1.435235">
   <ele>1237.00</ele>
   <time>2014-04-05T09:07:07Z</time>
  </trkpt>
  <trkpt lat="32.547969" lon="-1.438084">
   <ele>1233.00</ele>
   <time>2014-04-05T09:07:23Z</time>
  </trkpt>
  <trkpt lat="32.545365" lon="-1.440820">
   <ele>1230.00</ele>
   <time>2014-04-05T09:07:38Z</time>
  </trkpt>
  <trkpt lat="32.542790" lon="-1.443523">
   <ele>1229.00</ele>
   <time>2014-04-05T09:07:53Z</time>
  </trkpt>
  <trkpt lat="32.540045" lon="-1.446420">
   <ele>1228.00</ele>
   <time>2014-04-05T09:08:09Z</time>
  </trkpt>
  <trkpt lat="32.537465" lon="-1.449152">
   <ele>1227.00</ele>
   <time>2014-04-05T09:08:24Z</time>
  </trkpt>
  <trkpt lat="32.534916" lon="-1.451832">
   <ele>1227.00</ele>
   <time>2014-04-05T09:08:39Z</time>
  </trkpt>
  <trkpt lat="32.532289" lon="-1.454583">
   <ele>1227.00</ele>
   <time>2014-04-05T09:08:55Z</time>
  </trkpt>
  <trkpt lat="32.531512" lon="-1.455426">
   <ele>1226.00</ele>
   <time>2014-04-05T09:09:00Z</time>
  </trkpt>
  <trkpt lat="32.531069" lon="-1.455964">
   <ele>1226.00</ele>
   <time>2014-04-05T09:09:03Z</time>
  </trkpt>
  <trkpt lat="32.529047" lon="-1.458619">
   <ele>1216.00</ele>
   <time>2014-04-05T09:09:18Z</time>
  </trkpt>
  <trkpt lat="32.528215" lon="-1.459735">
   <ele>1210.00</ele>
   <time>2014-04-05T09:09:24Z</time>
  </trkpt>
  <trkpt lat="32.528087" lon="-1.459943">
   <ele>1210.00</ele>
   <time>2014-04-05T09:09:25Z</time>
  </trkpt>
  <trkpt lat="32.527968" lon="-1.460161">
   <ele>1209.00</ele>
   <time>2014-04-05T09:09:26Z</time>
  </trkpt>
  <trkpt lat="32.527857" lon="-1.460389">
   <ele>1209.00</ele>
   <time>2014-04-05T09:09:27Z</time>
  </trkpt>
  <trkpt lat="32.527647" lon="-1.460867">
   <ele>1208.00</ele>
   <time>2014-04-05T09:09:29Z</time>
  </trkpt>
  <trkpt lat="32.527253" lon="-1.461862">
   <ele>1207.00</ele>
   <time>2014-04-05T09:09:33Z</time>
  </trkpt>
  <trkpt lat="32.525686" lon="-1.465942">
   <ele>1213.00</ele>
   <time>2014-04-05T09:09:49Z</time>
  </trkpt>
  <trkpt lat="32.524178" lon="-1.469764">
   <ele>1223.00</ele>
   <time>2014-04-05T09:10:04Z</time>
  </trkpt>
  <trkpt lat="32.523748" lon="-1.470767">
   <ele>1226.00</ele>
   <time>2014-04-05T09:10:08Z</time>
  </trkpt>
  <trkpt lat="32.523633" lon="-1.471011">
   <ele>1227.00</ele>
   <time>2014-04-05T09:10:09Z</time>
  </trkpt>
  <trkpt lat="32.523381" lon="-1.471486">
   <ele>1229.00</ele>
   <time>2014-04-05T09:10:11Z</time>
  </trkpt>
  <trkpt lat="32.521503" lon="-1.474875">
   <ele>1237.00</ele>
   <time>2014-04-05T09:10:26Z</time>
  </trkpt>
  <trkpt lat="32.519843" lon="-1.477877">
   <ele>1236.00</ele>
   <time>2014-04-05T09:10:39Z</time>
  </trkpt>
  <trkpt lat="32.519549" lon="-1.478326">
   <ele>1236.00</ele>
   <time>2014-04-05T09:10:41Z</time>
  </trkpt>
  <trkpt lat="32.519229" lon="-1.478756">
   <ele>1236.00</ele>
   <time>2014-04-05T09:10:43Z</time>
  </trkpt>
  <trkpt lat="32.518884" lon="-1.479162">
   <ele>1235.00</ele>
   <time>2014-04-05T09:10:45Z</time>
  </trkpt>
  <trkpt lat="32.516233" lon="-1.482047">
   <ele>1231.00</ele>
   <time>2014-04-05T09:11:00Z</time>
  </trkpt>
  <trkpt lat="32.513409" lon="-1.485128">
   <ele>1227.00</ele>
   <time>2014-04-05T09:11:16Z</time>
  </trkpt>
  <trkpt lat="32.510793" lon="-1.487977">
   <ele>1225.00</ele>
   <time>2014-04-05T09:11:31Z</time>
  </trkpt>
  <trkpt lat="32.509811" lon="-1.489078">
   <ele>1224.00</ele>
   <time>2014-04-05T09:11:37Z</time>
  </trkpt>
  <trkpt lat="32.509513" lon="-1.489470">
   <ele>1224.00</ele>
   <time>2014-04-05T09:11:39Z</time>
  </trkpt>
  <trkpt lat="32.509235" lon="-1.489884">
   <ele>1224.00</ele>
   <time>2014-04-05T09:11:41Z</time>
  </trkpt>
  <trkpt lat="32.508971" lon="-1.490318">
   <ele>1224.00</ele>
   <time>2014-04-05T09:11:43Z</time>
  </trkpt>
  <trkpt lat="32.508722" lon="-1.490767">
   <ele>1224.00</ele>
   <time>2014-04-05T09:11:45Z</time>
  </trkpt>
  <trkpt lat="32.508489" lon="-1.491230">
   <ele>1224.00</ele>
   <time>2014-04-05T09:11:47Z</time>
  </trkpt>
  <trkpt lat="32.508278" lon="-1.491710">
   <ele>1224.00</ele>
   <time>2014-04-05T09:11:49Z</time>
  </trkpt>
  <trkpt lat="32.508089" lon="-1.492206">
   <ele>1224.00</ele>
   <time>2014-04-05T09:11:51Z</time>
  </trkpt>
  <trkpt lat="32.506873" lon="-1.495879">
   <ele>1221.00</ele>
   <time>2014-04-05T09:12:06Z</time>
  </trkpt>
  <trkpt lat="32.505698" lon="-1.499392">
   <ele>1217.00</ele>
   <time>2014-04-05T09:12:22Z</time>
  </trkpt>
  <trkpt lat="32.505523" lon="-1.499958">
   <ele>1216.00</ele>
   <time>2014-04-05T09:12:27Z</time>
  </trkpt>
  <trkpt lat="32.505466" lon="-1.500170">
   <ele>1216.00</ele>
   <time>2014-04-05T09:12:31Z</time>
  </trkpt>
  <trkpt lat="32.505457" lon="-1.500205">
   <ele>1215.00</ele>
   <time>2014-04-05T09:12:46Z</time>
  </trkpt>
  <trkpt lat="32.505462" lon="-1.500188">
   <ele>1215.00</ele>
   <time>2014-04-05T09:13:02Z</time>
  </trkpt>
  <trkpt lat="32.505464" lon="-1.500179">
   <ele>1215.00</ele>
   <time>2014-04-05T09:13:17Z</time>
  </trkpt>
  <trkpt lat="32.505464" lon="-1.500177">
   <ele>1216.00</ele>
   <time>2014-04-05T09:13:32Z</time>
  </trkpt>
  <trkpt lat="32.505464" lon="-1.500176">
   <ele>1216.00</ele>
   <time>2014-04-05T09:13:48Z</time>
  </trkpt>
  <trkpt lat="32.505464" lon="-1.500176">
   <ele>1216.00</ele>
   <time>2014-04-05T09:14:03Z</time>
  </trkpt>
  <trkpt lat="32.505463" lon="-1.500178">
   <ele>1217.00</ele>
   <time>2014-04-05T09:14:18Z</time>
  </trkpt>
  <trkpt lat="32.505462" lon="-1.500178">
   <ele>1217.00</ele>
   <time>2014-04-05T09:14:34Z</time>
  </trkpt>
  <trkpt lat="32.505461" lon="-1.500180">
   <ele>1217.00</ele>
   <time>2014-04-05T09:14:49Z</time>
  </trkpt>
  <trkpt lat="32.505460" lon="-1.500182">
   <ele>1218.00</ele>
   <time>2014-04-05T09:15:05Z</time>
  </trkpt>
  <trkpt lat="32.505493" lon="-1.500083">
   <ele>1218.00</ele>
   <time>2014-04-05T09:15:20Z</time>
  </trkpt>
  <trkpt lat="32.505565" lon="-1.499861">
   <ele>1218.00</ele>
   <time>2014-04-05T09:15:26Z</time>
  </trkpt>
  <trkpt lat="32.505614" lon="-1.499772">
   <ele>1217.00</ele>
   <time>2014-04-05T09:15:37Z</time>
  </trkpt>
  <trkpt lat="32.505798" lon="-1.499898">
   <ele>1217.00</ele>
   <time>2014-04-05T09:15:44Z</time>
  </trkpt>
  <trkpt lat="32.505980" lon="-1.499951">
   <ele>1217.00</ele>
   <time>2014-04-05T09:15:48Z</time>
  </trkpt>
  <trkpt lat="32.506192" lon="-1.499936">
   <ele>1215.00</ele>
   <time>2014-04-05T09:15:52Z</time>
  </trkpt>
  <trkpt lat="32.506362" lon="-1.499855">
   <ele>1214.00</ele>
   <time>2014-04-05T09:15:55Z</time>
  </trkpt>
  <trkpt lat="32.506669" lon="-1.499682">
   <ele>1212.00</ele>
   <time>2014-04-05T09:16:00Z</time>
  </trkpt>
  <trkpt lat="32.506870" lon="-1.499648">
   <ele>1212.00</ele>
   <time>2014-04-05T09:16:03Z</time>
  </trkpt>
  <trkpt lat="32.507233" lon="-1.499674">
   <ele>1212.00</ele>
   <time>2014-04-05T09:16:08Z</time>
  </trkpt>
  <trkpt lat="32.507444" lon="-1.499742">
   <ele>1213.00</ele>
   <time>2014-04-05T09:16:11Z</time>
  </trkpt>
  <trkpt lat="32.507603" lon="-1.499931">
   <ele>1213.00</ele>
   <time>2014-04-05T09:16:14Z</time>
  </trkpt>
  <trkpt lat="32.507733" lon="-1.500198">
   <ele>1213.00</ele>
   <time>2014-04-05T09:16:17Z</time>
  </trkpt>
  <trkpt lat="32.507838" lon="-1.500375">
   <ele>1213.00</ele>
   <time>2014-04-05T09:16:19Z</time>
  </trkpt>
  <trkpt lat="32.507973" lon="-1.500535">
   <ele>1213.00</ele>
   <time>2014-04-05T09:16:21Z</time>
  </trkpt>
  <trkpt lat="32.508144" lon="-1.500662">
   <ele>1214.00</ele>
   <time>2014-04-05T09:16:23Z</time>
  </trkpt>
  <trkpt lat="32.508333" lon="-1.500757">
   <ele>1214.00</ele>
   <time>2014-04-05T09:16:25Z</time>
  </trkpt>
  <trkpt lat="32.508530" lon="-1.500834">
   <ele>1214.00</ele>
   <time>2014-04-05T09:16:27Z</time>
  </trkpt>
  <trkpt lat="32.510348" lon="-1.501488">
   <ele>1216.00</ele>
   <time>2014-04-05T09:16:43Z</time>
  </trkpt>
  <trkpt lat="32.511428" lon="-1.501875">
   <ele>1217.00</ele>
   <time>2014-04-05T09:16:52Z</time>
  </trkpt>
  <trkpt lat="32.511930" lon="-1.502004">
   <ele>1217.00</ele>
   <time>2014-04-05T09:16:56Z</time>
  </trkpt>
  <trkpt lat="32.512187" lon="-1.502067">
   <ele>1217.00</ele>
   <time>2014-04-05T09:16:58Z</time>
  </trkpt>
  <trkpt lat="32.512561" lon="-1.502188">
   <ele>1217.00</ele>
   <time>2014-04-05T09:17:01Z</time>
  </trkpt>
  <trkpt lat="32.512937" lon="-1.502305">
   <ele>1217.00</ele>
   <time>2014-04-05T09:17:04Z</time>
  </trkpt>
  <trkpt lat="32.513570" lon="-1.502493">
   <ele>1218.00</ele>
   <time>2014-04-05T09:17:09Z</time>
  </trkpt>
  <trkpt lat="32.513827" lon="-1.502585">
   <ele>1218.00</ele>
   <time>2014-04-05T09:17:11Z</time>
  </trkpt>
  <trkpt lat="32.514342" lon="-1.502796">
   <ele>1219.00</ele>
   <time>2014-04-05T09:17:15Z</time>
  </trkpt>
  <trkpt lat="32.514848" lon="-1.503012">
   <ele>1219.00</ele>
   <time>2014-04-05T09:17:19Z</time>
  </trkpt>
  <trkpt lat="32.515104" lon="-1.503100">
   <ele>1220.00</ele>
   <time>2014-04-05T09:17:21Z</time>
  </trkpt>
  <trkpt lat="32.515362" lon="-1.503165">
   <ele>1220.00</ele>
   <time>2014-04-05T09:17:23Z</time>
  </trkpt>
  <trkpt lat="32.515748" lon="-1.503258">
   <ele>1220.00</ele>
   <time>2014-04-05T09:17:26Z</time>
  </trkpt>
  <trkpt lat="32.516120" lon="-1.503374">
   <ele>1220.00</ele>
   <time>2014-04-05T09:17:29Z</time>
  </trkpt>
  <trkpt lat="32.516357" lon="-1.503455">
   <ele>1220.00</ele>
   <time>2014-04-05T09:17:31Z</time>
  </trkpt>
  <trkpt lat="32.516843" lon="-1.503581">
   <ele>1220.00</ele>
   <time>2014-04-05T09:17:35Z</time>
  </trkpt>
  <trkpt lat="32.517087" lon="-1.503618">
   <ele>1220.00</ele>
   <time>2014-04-05T09:17:37Z</time>
  </trkpt>
  <trkpt lat="32.517340" lon="-1.503632">
   <ele>1220.00</ele>
   <time>2014-04-05T09:17:39Z</time>
  </trkpt>
  <trkpt lat="32.517846" lon="-1.503638">
   <ele>1220.00</ele>
   <time>2014-04-05T09:17:43Z</time>
  </trkpt>
  <trkpt lat="32.518099" lon="-1.503608">
   <ele>1220.00</ele>
   <time>2014-04-05T09:17:45Z</time>
  </trkpt>
  <trkpt lat="32.518361" lon="-1.503559">
   <ele>1220.00</ele>
   <time>2014-04-05T09:17:47Z</time>
  </trkpt>
  <trkpt lat="32.518766" lon="-1.503463">
   <ele>1220.00</ele>
   <time>2014-04-05T09:17:50Z</time>
  </trkpt>
  <trkpt lat="32.520444" lon="-1.503034">
   <ele>1221.00</ele>
   <time>2014-04-05T09:18:02Z</time>
  </trkpt>
  <trkpt lat="32.520853" lon="-1.502958">
   <ele>1221.00</ele>
   <time>2014-04-05T09:18:05Z</time>
  </trkpt>
  <trkpt lat="32.521114" lon="-1.502914">
   <ele>1222.00</ele>
   <time>2014-04-05T09:18:07Z</time>
  </trkpt>
  <trkpt lat="32.521371" lon="-1.502854">
   <ele>1222.00</ele>
   <time>2014-04-05T09:18:09Z</time>
  </trkpt>
  <trkpt lat="32.521624" lon="-1.502770">
   <ele>1222.00</ele>
   <time>2014-04-05T09:18:11Z</time>
  </trkpt>
  <trkpt lat="32.521874" lon="-1.502651">
   <ele>1222.00</ele>
   <time>2014-04-05T09:18:13Z</time>
  </trkpt>
  <trkpt lat="32.522250" lon="-1.502442">
   <ele>1222.00</ele>
   <time>2014-04-05T09:18:16Z</time>
  </trkpt>
  <trkpt lat="32.522520" lon="-1.502332">
   <ele>1222.00</ele>
   <time>2014-04-05T09:18:18Z</time>
  </trkpt>
  <trkpt lat="32.522802" lon="-1.502244">
   <ele>1222.00</ele>
   <time>2014-04-05T09:18:20Z</time>
  </trkpt>
  <trkpt lat="32.523811" lon="-1.501986">
   <ele>1223.00</ele>
   <time>2014-04-05T09:18:27Z</time>
  </trkpt>
  <trkpt lat="32.525017" lon="-1.501745">
   <ele>1224.00</ele>
   <time>2014-04-05T09:18:35Z</time>
  </trkpt>
  <trkpt lat="32.525327" lon="-1.501696">
   <ele>1224.00</ele>
   <time>2014-04-05T09:18:37Z</time>
  </trkpt>
  <trkpt lat="32.525637" lon="-1.501668">
   <ele>1224.00</ele>
   <time>2014-04-05T09:18:39Z</time>
  </trkpt>
  <trkpt lat="32.526546" lon="-1.501608">
   <ele>1224.00</ele>
   <time>2014-04-05T09:18:45Z</time>
  </trkpt>
  <trkpt lat="32.526840" lon="-1.501625">
   <ele>1225.00</ele>
   <time>2014-04-05T09:18:47Z</time>
  </trkpt>
  <trkpt lat="32.527264" lon="-1.501663">
   <ele>1225.00</ele>
   <time>2014-04-05T09:18:50Z</time>
  </trkpt>
  <trkpt lat="32.527550" lon="-1.501667">
   <ele>1225.00</ele>
   <time>2014-04-05T09:18:52Z</time>
  </trkpt>
  <trkpt lat="32.527845" lon="-1.501668">
   <ele>1225.00</ele>
   <time>2014-04-05T09:18:54Z</time>
  </trkpt>
  <trkpt lat="32.528290" lon="-1.501683">
   <ele>1226.00</ele>
   <time>2014-04-05T09:18:57Z</time>
  </trkpt>
  <trkpt lat="32.529047" lon="-1.501753">
   <ele>1226.00</ele>
   <time>2014-04-05T09:19:02Z</time>
  </trkpt>
  <trkpt lat="32.529345" lon="-1.501798">
   <ele>1226.00</ele>
   <time>2014-04-05T09:19:04Z</time>
  </trkpt>
  <trkpt lat="32.529643" lon="-1.501857">
   <ele>1227.00</ele>
   <time>2014-04-05T09:19:06Z</time>
  </trkpt>
  <trkpt lat="32.529943" lon="-1.501935">
   <ele>1227.00</ele>
   <time>2014-04-05T09:19:08Z</time>
  </trkpt>
  <trkpt lat="32.530695" lon="-1.502169">
   <ele>1227.00</ele>
   <time>2014-04-05T09:19:13Z</time>
  </trkpt>
  <trkpt lat="32.531273" lon="-1.502371">
   <ele>1227.00</ele>
   <time>2014-04-05T09:19:17Z</time>
  </trkpt>
  <trkpt lat="32.532850" lon="-1.502990">
   <ele>1227.00</ele>
   <time>2014-04-05T09:19:28Z</time>
  </trkpt>
  <trkpt lat="32.533287" lon="-1.503189">
   <ele>1227.00</ele>
   <time>2014-04-05T09:19:31Z</time>
  </trkpt>
  <trkpt lat="32.534299" lon="-1.503691">
   <ele>1228.00</ele>
   <time>2014-04-05T09:19:38Z</time>
  </trkpt>
  <trkpt lat="32.534601" lon="-1.503810">
   <ele>1228.00</ele>
   <time>2014-04-05T09:19:40Z</time>
  </trkpt>
  <trkpt lat="32.535794" lon="-1.504217">
   <ele>1228.00</ele>
   <time>2014-04-05T09:19:48Z</time>
  </trkpt>
  <trkpt lat="32.536069" lon="-1.504285">
   <ele>1229.00</ele>
   <time>2014-04-05T09:19:50Z</time>
  </trkpt>
  <trkpt lat="32.536352" lon="-1.504333">
   <ele>1229.00</ele>
   <time>2014-04-05T09:19:52Z</time>
  </trkpt>
  <trkpt lat="32.536645" lon="-1.504361">
   <ele>1229.00</ele>
   <time>2014-04-05T09:19:54Z</time>
  </trkpt>
  <trkpt lat="32.536948" lon="-1.504371">
   <ele>1229.00</ele>
   <time>2014-04-05T09:19:56Z</time>
  </trkpt>
  <trkpt lat="32.537256" lon="-1.504366">
   <ele>1229.00</ele>
   <time>2014-04-05T09:19:58Z</time>
  </trkpt>
  <trkpt lat="32.537714" lon="-1.504359">
   <ele>1229.00</ele>
   <time>2014-04-05T09:20:01Z</time>
  </trkpt>
  <trkpt lat="32.538007" lon="-1.504378">
   <ele>1229.00</ele>
   <time>2014-04-05T09:20:03Z</time>
  </trkpt>
  <trkpt lat="32.538442" lon="-1.504405">
   <ele>1229.00</ele>
   <time>2014-04-05T09:20:06Z</time>
  </trkpt>
  <trkpt lat="32.538741" lon="-1.504394">
   <ele>1229.00</ele>
   <time>2014-04-05T09:20:08Z</time>
  </trkpt>
  <trkpt lat="32.539046" lon="-1.504358">
   <ele>1229.00</ele>
   <time>2014-04-05T09:20:10Z</time>
  </trkpt>
  <trkpt lat="32.539953" lon="-1.504238">
   <ele>1229.00</ele>
   <time>2014-04-05T09:20:16Z</time>
  </trkpt>
  <trkpt lat="32.540263" lon="-1.504222">
   <ele>1229.00</ele>
   <time>2014-04-05T09:20:18Z</time>
  </trkpt>
  <trkpt lat="32.540576" lon="-1.504224">
   <ele>1230.00</ele>
   <time>2014-04-05T09:20:20Z</time>
  </trkpt>
  <trkpt lat="32.540889" lon="-1.504247">
   <ele>1230.00</ele>
   <time>2014-04-05T09:20:22Z</time>
  </trkpt>
  <trkpt lat="32.542782" lon="-1.504452">
   <ele>1231.00</ele>
   <time>2014-04-05T09:20:34Z</time>
  </trkpt>
  <trkpt lat="32.543099" lon="-1.504459">
   <ele>1231.00</ele>
   <time>2014-04-05T09:20:36Z</time>
  </trkpt>
  <trkpt lat="32.543739" lon="-1.504447">
   <ele>1231.00</ele>
   <time>2014-04-05T09:20:40Z</time>
  </trkpt>
  <trkpt lat="32.544061" lon="-1.504458">
   <ele>1232.00</ele>
   <time>2014-04-05T09:20:42Z</time>
  </trkpt>
  <trkpt lat="32.544381" lon="-1.504496">
   <ele>1232.00</ele>
   <time>2014-04-05T09:20:44Z</time>
  </trkpt>
  <trkpt lat="32.544699" lon="-1.504562">
   <ele>1232.00</ele>
   <time>2014-04-05T09:20:46Z</time>
  </trkpt>
  <trkpt lat="32.545017" lon="-1.504629">
   <ele>1232.00</ele>
   <time>2014-04-05T09:20:48Z</time>
  </trkpt>
  <trkpt lat="32.545339" lon="-1.504665">
   <ele>1232.00</ele>
   <time>2014-04-05T09:20:50Z</time>
  </trkpt>
  <trkpt lat="32.545665" lon="-1.504654">
   <ele>1232.00</ele>
   <time>2014-04-05T09:20:52Z</time>
  </trkpt>
  <trkpt lat="32.545993" lon="-1.504608">
   <ele>1232.00</ele>
   <time>2014-04-05T09:20:54Z</time>
  </trkpt>
  <trkpt lat="32.547643" lon="-1.504341">
   <ele>1233.00</ele>
   <time>2014-04-05T09:21:04Z</time>
  </trkpt>
  <trkpt lat="32.548449" lon="-1.504171">
   <ele>1233.00</ele>
   <time>2014-04-05T09:21:09Z</time>
  </trkpt>
  <trkpt lat="32.548781" lon="-1.504128">
   <ele>1233.00</ele>
   <time>2014-04-05T09:21:11Z</time>
  </trkpt>
  <trkpt lat="32.549288" lon="-1.504093">
   <ele>1233.00</ele>
   <time>2014-04-05T09:21:14Z</time>
  </trkpt>
  <trkpt lat="32.550322" lon="-1.504084">
   <ele>1233.00</ele>
   <time>2014-04-05T09:21:20Z</time>
  </trkpt>
  <trkpt lat="32.550836" lon="-1.504098">
   <ele>1234.00</ele>
   <time>2014-04-05T09:21:23Z</time>
  </trkpt>
  <trkpt lat="32.552341" lon="-1.504170">
   <ele>1234.00</ele>
   <time>2014-04-05T09:21:32Z</time>
  </trkpt>
  <trkpt lat="32.552666" lon="-1.504174">
   <ele>1234.00</ele>
   <time>2014-04-05T09:21:34Z</time>
  </trkpt>
  <trkpt lat="32.552986" lon="-1.504201">
   <ele>1235.00</ele>
   <time>2014-04-05T09:21:36Z</time>
  </trkpt>
  <trkpt lat="32.553298" lon="-1.504266">
   <ele>1235.00</ele>
   <time>2014-04-05T09:21:38Z</time>
  </trkpt>
  <trkpt lat="32.553602" lon="-1.504379">
   <ele>1235.00</ele>
   <time>2014-04-05T09:21:40Z</time>
  </trkpt>
  <trkpt lat="32.553901" lon="-1.504530">
   <ele>1235.00</ele>
   <time>2014-04-05T09:21:42Z</time>
  </trkpt>
  <trkpt lat="32.554195" lon="-1.504712">
   <ele>1235.00</ele>
   <time>2014-04-05T09:21:44Z</time>
  </trkpt>
  <trkpt lat="32.554482" lon="-1.504919">
   <ele>1235.00</ele>
   <time>2014-04-05T09:21:46Z</time>
  </trkpt>
  <trkpt lat="32.555627" lon="-1.505764">
   <ele>1235.00</ele>
   <time>2014-04-05T09:21:55Z</time>
  </trkpt>
  <trkpt lat="32.555830" lon="-1.505955">
   <ele>1235.00</ele>
   <time>2014-04-05T09:21:57Z</time>
  </trkpt>
  <trkpt lat="32.556009" lon="-1.506171">
   <ele>1235.00</ele>
   <time>2014-04-05T09:21:59Z</time>
  </trkpt>
  <trkpt lat="32.556178" lon="-1.506420">
   <ele>1235.00</ele>
   <time>2014-04-05T09:22:01Z</time>
  </trkpt>
  <trkpt lat="32.556341" lon="-1.506693">
   <ele>1235.00</ele>
   <time>2014-04-05T09:22:03Z</time>
  </trkpt>
  <trkpt lat="32.556517" lon="-1.506971">
   <ele>1235.00</ele>
   <time>2014-04-05T09:22:05Z</time>
  </trkpt>
  <trkpt lat="32.556720" lon="-1.507238">
   <ele>1235.00</ele>
   <time>2014-04-05T09:22:07Z</time>
  </trkpt>
  <trkpt lat="32.557145" lon="-1.507746">
   <ele>1235.00</ele>
   <time>2014-04-05T09:22:11Z</time>
  </trkpt>
  <trkpt lat="32.557376" lon="-1.507973">
   <ele>1235.00</ele>
   <time>2014-04-05T09:22:13Z</time>
  </trkpt>
  <trkpt lat="32.557633" lon="-1.508178">
   <ele>1234.00</ele>
   <time>2014-04-05T09:22:15Z</time>
  </trkpt>
  <trkpt lat="32.558164" lon="-1.508568">
   <ele>1234.00</ele>
   <time>2014-04-05T09:22:19Z</time>
  </trkpt>
  <trkpt lat="32.558415" lon="-1.508780">
   <ele>1234.00</ele>
   <time>2014-04-05T09:22:21Z</time>
  </trkpt>
  <trkpt lat="32.558659" lon="-1.509005">
   <ele>1234.00</ele>
   <time>2014-04-05T09:22:23Z</time>
  </trkpt>
  <trkpt lat="32.558897" lon="-1.509219">
   <ele>1234.00</ele>
   <time>2014-04-05T09:22:25Z</time>
  </trkpt>
  <trkpt lat="32.559258" lon="-1.509520">
   <ele>1234.00</ele>
   <time>2014-04-05T09:22:28Z</time>
  </trkpt>
  <trkpt lat="32.559699" lon="-1.509919">
   <ele>1234.00</ele>
   <time>2014-04-05T09:22:32Z</time>
  </trkpt>
  <trkpt lat="32.559929" lon="-1.510068">
   <ele>1234.00</ele>
   <time>2014-04-05T09:22:34Z</time>
  </trkpt>
  <trkpt lat="32.560435" lon="-1.510358">
   <ele>1235.00</ele>
   <time>2014-04-05T09:22:38Z</time>
  </trkpt>
  <trkpt lat="32.560698" lon="-1.510542">
   <ele>1235.00</ele>
   <time>2014-04-05T09:22:40Z</time>
  </trkpt>
  <trkpt lat="32.561350" lon="-1.511061">
   <ele>1235.00</ele>
   <time>2014-04-05T09:22:45Z</time>
  </trkpt>
  <trkpt lat="32.561726" lon="-1.511392">
   <ele>1235.00</ele>
   <time>2014-04-05T09:22:48Z</time>
  </trkpt>
  <trkpt lat="32.562332" lon="-1.511933">
   <ele>1235.00</ele>
   <time>2014-04-05T09:22:53Z</time>
  </trkpt>
  <trkpt lat="32.562590" lon="-1.512126">
   <ele>1235.00</ele>
   <time>2014-04-05T09:22:55Z</time>
  </trkpt>
  <trkpt lat="32.562859" lon="-1.512292">
   <ele>1235.00</ele>
   <time>2014-04-05T09:22:57Z</time>
  </trkpt>
  <trkpt lat="32.563142" lon="-1.512428">
   <ele>1235.00</ele>
   <time>2014-04-05T09:22:59Z</time>
  </trkpt>
  <trkpt lat="32.564009" lon="-1.512817">
   <ele>1235.00</ele>
   <time>2014-04-05T09:23:05Z</time>
  </trkpt>
  <trkpt lat="32.564289" lon="-1.512985">
   <ele>1235.00</ele>
   <time>2014-04-05T09:23:07Z</time>
  </trkpt>
  <trkpt lat="32.564557" lon="-1.513179">
   <ele>1235.00</ele>
   <time>2014-04-05T09:23:09Z</time>
  </trkpt>
  <trkpt lat="32.565427" lon="-1.513920">
   <ele>1236.00</ele>
   <time>2014-04-05T09:23:16Z</time>
  </trkpt>
  <trkpt lat="32.565665" lon="-1.514144">
   <ele>1236.00</ele>
   <time>2014-04-05T09:23:18Z</time>
  </trkpt>
  <trkpt lat="32.565887" lon="-1.514394">
   <ele>1236.00</ele>
   <time>2014-04-05T09:23:20Z</time>
  </trkpt>
  <trkpt lat="32.566087" lon="-1.514663">
   <ele>1236.00</ele>
   <time>2014-04-05T09:23:22Z</time>
  </trkpt>
  <trkpt lat="32.566864" lon="-1.515773">
   <ele>1235.00</ele>
   <time>2014-04-05T09:23:30Z</time>
  </trkpt>
  <trkpt lat="32.567176" lon="-1.516157">
   <ele>1235.00</ele>
   <time>2014-04-05T09:23:33Z</time>
  </trkpt>
  <trkpt lat="32.567398" lon="-1.516381">
   <ele>1235.00</ele>
   <time>2014-04-05T09:23:35Z</time>
  </trkpt>
  <trkpt lat="32.567615" lon="-1.516608">
   <ele>1235.00</ele>
   <time>2014-04-05T09:23:37Z</time>
  </trkpt>
  <trkpt lat="32.567811" lon="-1.516858">
   <ele>1235.00</ele>
   <time>2014-04-05T09:23:39Z</time>
  </trkpt>
  <trkpt lat="32.568266" lon="-1.517511">
   <ele>1235.00</ele>
   <time>2014-04-05T09:23:44Z</time>
  </trkpt>
  <trkpt lat="32.568472" lon="-1.517739">
   <ele>1234.00</ele>
   <time>2014-04-05T09:23:46Z</time>
  </trkpt>
  <trkpt lat="32.568701" lon="-1.517950">
   <ele>1234.00</ele>
   <time>2014-04-05T09:23:48Z</time>
  </trkpt>
  <trkpt lat="32.569041" lon="-1.518261">
   <ele>1234.00</ele>
   <time>2014-04-05T09:23:51Z</time>
  </trkpt>
  <trkpt lat="32.569245" lon="-1.518490">
   <ele>1235.00</ele>
   <time>2014-04-05T09:23:53Z</time>
  </trkpt>
  <trkpt lat="32.569460" lon="-1.518706">
   <ele>1235.00</ele>
   <time>2014-04-05T09:23:55Z</time>
  </trkpt>
  <trkpt lat="32.569691" lon="-1.518898">
   <ele>1235.00</ele>
   <time>2014-04-05T09:23:57Z</time>
  </trkpt>
  <trkpt lat="32.569940" lon="-1.519065">
   <ele>1235.00</ele>
   <time>2014-04-05T09:23:59Z</time>
  </trkpt>
  <trkpt lat="32.570214" lon="-1.519209">
   <ele>1236.00</ele>
   <time>2014-04-05T09:24:01Z</time>
  </trkpt>
  <trkpt lat="32.570778" lon="-1.519493">
   <ele>1236.00</ele>
   <time>2014-04-05T09:24:05Z</time>
  </trkpt>
  <trkpt lat="32.571294" lon="-1.519777">
   <ele>1237.00</ele>
   <time>2014-04-05T09:24:09Z</time>
  </trkpt>
  <trkpt lat="32.571498" lon="-1.519957">
   <ele>1237.00</ele>
   <time>2014-04-05T09:24:11Z</time>
  </trkpt>
  <trkpt lat="32.571686" lon="-1.520131">
   <ele>1238.00</ele>
   <time>2014-04-05T09:24:13Z</time>
  </trkpt>
  <trkpt lat="32.571901" lon="-1.520247">
   <ele>1238.00</ele>
   <time>2014-04-05T09:24:15Z</time>
  </trkpt>
  <trkpt lat="32.572123" lon="-1.520301">
   <ele>1238.00</ele>
   <time>2014-04-05T09:24:17Z</time>
  </trkpt>
  <trkpt lat="32.572373" lon="-1.520389">
   <ele>1237.00</ele>
   <time>2014-04-05T09:24:20Z</time>
  </trkpt>
  <trkpt lat="32.572496" lon="-1.520561">
   <ele>1236.00</ele>
   <time>2014-04-05T09:24:22Z</time>
  </trkpt>
  <trkpt lat="32.572595" lon="-1.520795">
   <ele>1236.00</ele>
   <time>2014-04-05T09:24:24Z</time>
  </trkpt>
  <trkpt lat="32.572691" lon="-1.521050">
   <ele>1235.00</ele>
   <time>2014-04-05T09:24:26Z</time>
  </trkpt>
  <trkpt lat="32.572810" lon="-1.521409">
   <ele>1234.00</ele>
   <time>2014-04-05T09:24:29Z</time>
  </trkpt>
  <trkpt lat="32.572888" lon="-1.521617">
   <ele>1233.00</ele>
   <time>2014-04-05T09:24:31Z</time>
  </trkpt>
  <trkpt lat="32.573002" lon="-1.521792">
   <ele>1233.00</ele>
   <time>2014-04-05T09:24:33Z</time>
  </trkpt>
  <trkpt lat="32.573159" lon="-1.521931">
   <ele>1232.00</ele>
   <time>2014-04-05T09:24:35Z</time>
  </trkpt>
  <trkpt lat="32.573354" lon="-1.522039">
   <ele>1231.00</ele>
   <time>2014-04-05T09:24:37Z</time>
  </trkpt>
  <trkpt lat="32.573580" lon="-1.522117">
   <ele>1230.00</ele>
   <time>2014-04-05T09:24:39Z</time>
  </trkpt>
  <trkpt lat="32.573819" lon="-1.522198">
   <ele>1229.00</ele>
   <time>2014-04-05T09:24:41Z</time>
  </trkpt>
  <trkpt lat="32.574050" lon="-1.522282">
   <ele>1229.00</ele>
   <time>2014-04-05T09:24:43Z</time>
  </trkpt>
  <trkpt lat="32.574274" lon="-1.522365">
   <ele>1228.00</ele>
   <time>2014-04-05T09:24:45Z</time>
  </trkpt>
  <trkpt lat="32.574480" lon="-1.522479">
   <ele>1228.00</ele>
   <time>2014-04-05T09:24:47Z</time>
  </trkpt>
  <trkpt lat="32.574871" lon="-1.522716">
   <ele>1227.00</ele>
   <time>2014-04-05T09:24:51Z</time>
  </trkpt>
  <trkpt lat="32.575051" lon="-1.522765">
   <ele>1228.00</ele>
   <time>2014-04-05T09:24:53Z</time>
  </trkpt>
  <trkpt lat="32.575306" lon="-1.522718">
   <ele>1228.00</ele>
   <time>2014-04-05T09:24:56Z</time>
  </trkpt>
  <trkpt lat="32.575492" lon="-1.522706">
   <ele>1228.00</ele>
   <time>2014-04-05T09:24:58Z</time>
  </trkpt>
  <trkpt lat="32.575904" lon="-1.522731">
   <ele>1229.00</ele>
   <time>2014-04-05T09:25:02Z</time>
  </trkpt>
  <trkpt lat="32.576340" lon="-1.522772">
   <ele>1229.00</ele>
   <time>2014-04-05T09:25:06Z</time>
  </trkpt>
  <trkpt lat="32.576547" lon="-1.522814">
   <ele>1230.00</ele>
   <time>2014-04-05T09:25:08Z</time>
  </trkpt>
  <trkpt lat="32.576741" lon="-1.522881">
   <ele>1230.00</ele>
   <time>2014-04-05T09:25:10Z</time>
  </trkpt>
  <trkpt lat="32.576939" lon="-1.522944">
   <ele>1230.00</ele>
   <time>2014-04-05T09:25:12Z</time>
  </trkpt>
  <trkpt lat="32.577146" lon="-1.522994">
   <ele>1231.00</ele>
   <time>2014-04-05T09:25:14Z</time>
  </trkpt>
  <trkpt lat="32.577362" lon="-1.523031">
   <ele>1231.00</ele>
   <time>2014-04-05T09:25:16Z</time>
  </trkpt>
  <trkpt lat="32.577937" lon="-1.523091">
   <ele>1232.00</ele>
   <time>2014-04-05T09:25:21Z</time>
  </trkpt>
  <trkpt lat="32.578172" lon="-1.523084">
   <ele>1232.00</ele>
   <time>2014-04-05T09:25:23Z</time>
  </trkpt>
  <trkpt lat="32.578408" lon="-1.523083">
   <ele>1232.00</ele>
   <time>2014-04-05T09:25:25Z</time>
  </trkpt>
  <trkpt lat="32.578643" lon="-1.523079">
   <ele>1232.00</ele>
   <time>2014-04-05T09:25:27Z</time>
  </trkpt>
  <trkpt lat="32.579009" lon="-1.523052">
   <ele>1233.00</ele>
   <time>2014-04-05T09:25:30Z</time>
  </trkpt>
  <trkpt lat="32.579251" lon="-1.523060">
   <ele>1233.00</ele>
   <time>2014-04-05T09:25:32Z</time>
  </trkpt>
  <trkpt lat="32.579494" lon="-1.523109">
   <ele>1233.00</ele>
   <time>2014-04-05T09:25:34Z</time>
  </trkpt>
  <trkpt lat="32.579745" lon="-1.523171">
   <ele>1234.00</ele>
   <time>2014-04-05T09:25:36Z</time>
  </trkpt>
  <trkpt lat="32.580129" lon="-1.523227">
   <ele>1234.00</ele>
   <time>2014-04-05T09:25:39Z</time>
  </trkpt>
  <trkpt lat="32.580381" lon="-1.523309">
   <ele>1234.00</ele>
   <time>2014-04-05T09:25:41Z</time>
  </trkpt>
  <trkpt lat="32.580640" lon="-1.523395">
   <ele>1235.00</ele>
   <time>2014-04-05T09:25:43Z</time>
  </trkpt>
  <trkpt lat="32.580912" lon="-1.523457">
   <ele>1235.00</ele>
   <time>2014-04-05T09:25:45Z</time>
  </trkpt>
  <trkpt lat="32.581182" lon="-1.523505">
   <ele>1235.00</ele>
   <time>2014-04-05T09:25:47Z</time>
  </trkpt>
  <trkpt lat="32.581440" lon="-1.523548">
   <ele>1235.00</ele>
   <time>2014-04-05T09:25:49Z</time>
  </trkpt>
  <trkpt lat="32.581691" lon="-1.523595">
   <ele>1235.00</ele>
   <time>2014-04-05T09:25:51Z</time>
  </trkpt>
  <trkpt lat="32.581949" lon="-1.523597">
   <ele>1235.00</ele>
   <time>2014-04-05T09:25:53Z</time>
  </trkpt>
  <trkpt lat="32.582482" lon="-1.523578">
   <ele>1236.00</ele>
   <time>2014-04-05T09:25:57Z</time>
  </trkpt>
  <trkpt lat="32.582744" lon="-1.523574">
   <ele>1236.00</ele>
   <time>2014-04-05T09:25:59Z</time>
  </trkpt>
  <trkpt lat="32.583012" lon="-1.523543">
   <ele>1236.00</ele>
   <time>2014-04-05T09:26:01Z</time>
  </trkpt>
  <trkpt lat="32.583698" lon="-1.523433">
   <ele>1236.00</ele>
   <time>2014-04-05T09:26:06Z</time>
  </trkpt>
  <trkpt lat="32.583976" lon="-1.523433">
   <ele>1236.00</ele>
   <time>2014-04-05T09:26:08Z</time>
  </trkpt>
  <trkpt lat="32.584262" lon="-1.523466">
   <ele>1236.00</ele>
   <time>2014-04-05T09:26:10Z</time>
  </trkpt>
  <trkpt lat="32.584555" lon="-1.523527">
   <ele>1236.00</ele>
   <time>2014-04-05T09:26:12Z</time>
  </trkpt>
  <trkpt lat="32.585008" lon="-1.523646">
   <ele>1236.00</ele>
   <time>2014-04-05T09:26:15Z</time>
  </trkpt>
  <trkpt lat="32.586416" lon="-1.524035">
   <ele>1237.00</ele>
   <time>2014-04-05T09:26:24Z</time>
  </trkpt>
  <trkpt lat="32.587364" lon="-1.524233">
   <ele>1237.00</ele>
   <time>2014-04-05T09:26:30Z</time>
  </trkpt>
  <trkpt lat="32.588098" lon="-1.524375">
   <ele>1238.00</ele>
   <time>2014-04-05T09:26:35Z</time>
  </trkpt>
  <trkpt lat="32.588377" lon="-1.524452">
   <ele>1238.00</ele>
   <time>2014-04-05T09:26:37Z</time>
  </trkpt>
  <trkpt lat="32.588800" lon="-1.524593">
   <ele>1238.00</ele>
   <time>2014-04-05T09:26:40Z</time>
  </trkpt>
  <trkpt lat="32.589894" lon="-1.525003">
   <ele>1238.00</ele>
   <time>2014-04-05T09:26:48Z</time>
  </trkpt>
  <trkpt lat="32.590148" lon="-1.525057">
   <ele>1238.00</ele>
   <time>2014-04-05T09:26:50Z</time>
  </trkpt>
  <trkpt lat="32.590406" lon="-1.525066">
   <ele>1238.00</ele>
   <time>2014-04-05T09:26:52Z</time>
  </trkpt>
  <trkpt lat="32.590941" lon="-1.525044">
   <ele>1238.00</ele>
   <time>2014-04-05T09:26:56Z</time>
  </trkpt>
  <trkpt lat="32.591219" lon="-1.525060">
   <ele>1238.00</ele>
   <time>2014-04-05T09:26:58Z</time>
  </trkpt>
  <trkpt lat="32.591495" lon="-1.525093">
   <ele>1239.00</ele>
   <time>2014-04-05T09:27:00Z</time>
  </trkpt>
  <trkpt lat="32.591908" lon="-1.525139">
   <ele>1239.00</ele>
   <time>2014-04-05T09:27:03Z</time>
  </trkpt>
  <trkpt lat="32.592187" lon="-1.525143">
   <ele>1239.00</ele>
   <time>2014-04-05T09:27:05Z</time>
  </trkpt>
  <trkpt lat="32.592475" lon="-1.525116">
   <ele>1239.00</ele>
   <time>2014-04-05T09:27:07Z</time>
  </trkpt>
  <trkpt lat="32.592770" lon="-1.525058">
   <ele>1239.00</ele>
   <time>2014-04-05T09:27:09Z</time>
  </trkpt>
  <trkpt lat="32.593946" lon="-1.524778">
   <ele>1239.00</ele>
   <time>2014-04-05T09:27:17Z</time>
  </trkpt>
  <trkpt lat="32.594215" lon="-1.524689">
   <ele>1239.00</ele>
   <time>2014-04-05T09:27:19Z</time>
  </trkpt>
  <trkpt lat="32.594618" lon="-1.524550">
   <ele>1239.00</ele>
   <time>2014-04-05T09:27:22Z</time>
  </trkpt>
  <trkpt lat="32.594897" lon="-1.524480">
   <ele>1239.00</ele>
   <time>2014-04-05T09:27:24Z</time>
  </trkpt>
  <trkpt lat="32.595182" lon="-1.524431">
   <ele>1239.00</ele>
   <time>2014-04-05T09:27:26Z</time>
  </trkpt>
  <trkpt lat="32.595472" lon="-1.524418">
   <ele>1239.00</ele>
   <time>2014-04-05T09:27:28Z</time>
  </trkpt>
  <trkpt lat="32.595762" lon="-1.524448">
   <ele>1239.00</ele>
   <time>2014-04-05T09:27:30Z</time>
  </trkpt>
  <trkpt lat="32.596051" lon="-1.524512">
   <ele>1239.00</ele>
   <time>2014-04-05T09:27:32Z</time>
  </trkpt>
  <trkpt lat="32.596330" lon="-1.524603">
   <ele>1239.00</ele>
   <time>2014-04-05T09:27:34Z</time>
  </trkpt>
  <trkpt lat="32.596588" lon="-1.524709">
   <ele>1240.00</ele>
   <time>2014-04-05T09:27:36Z</time>
  </trkpt>
  <trkpt lat="32.596832" lon="-1.524840">
   <ele>1240.00</ele>
   <time>2014-04-05T09:27:38Z</time>
  </trkpt>
  <trkpt lat="32.597282" lon="-1.525115">
   <ele>1240.00</ele>
   <time>2014-04-05T09:27:42Z</time>
  </trkpt>
  <trkpt lat="32.597503" lon="-1.525212">
   <ele>1240.00</ele>
   <time>2014-04-05T09:27:44Z</time>
  </trkpt>
  <trkpt lat="32.597736" lon="-1.525270">
   <ele>1240.00</ele>
   <time>2014-04-05T09:27:46Z</time>
  </trkpt>
  <trkpt lat="32.598665" lon="-1.525378">
   <ele>1240.00</ele>
   <time>2014-04-05T09:27:53Z</time>
  </trkpt>
  <trkpt lat="32.598918" lon="-1.525362">
   <ele>1240.00</ele>
   <time>2014-04-05T09:27:55Z</time>
  </trkpt>
  <trkpt lat="32.599166" lon="-1.525344">
   <ele>1240.00</ele>
   <time>2014-04-05T09:27:57Z</time>
  </trkpt>
  <trkpt lat="32.599414" lon="-1.525358">
   <ele>1240.00</ele>
   <time>2014-04-05T09:27:59Z</time>
  </trkpt>
  <trkpt lat="32.599670" lon="-1.525390">
   <ele>1241.00</ele>
   <time>2014-04-05T09:28:01Z</time>
  </trkpt>
  <trkpt lat="32.600174" lon="-1.525468">
   <ele>1241.00</ele>
   <time>2014-04-05T09:28:05Z</time>
  </trkpt>
  <trkpt lat="32.600402" lon="-1.525489">
   <ele>1241.00</ele>
   <time>2014-04-05T09:28:07Z</time>
  </trkpt>
  <trkpt lat="32.600694" lon="-1.525535">
   <ele>1241.00</ele>
   <time>2014-04-05T09:28:10Z</time>
  </trkpt>
  <trkpt lat="32.601166" lon="-1.525550">
   <ele>1240.00</ele>
   <time>2014-04-05T09:28:15Z</time>
  </trkpt>
  <trkpt lat="32.601348" lon="-1.525539">
   <ele>1240.00</ele>
   <time>2014-04-05T09:28:17Z</time>
  </trkpt>
  <trkpt lat="32.601622" lon="-1.525514">
   <ele>1241.00</ele>
   <time>2014-04-05T09:28:20Z</time>
  </trkpt>
  <trkpt lat="32.601821" lon="-1.525522">
   <ele>1241.00</ele>
   <time>2014-04-05T09:28:22Z</time>
  </trkpt>
  <trkpt lat="32.602032" lon="-1.525558">
   <ele>1241.00</ele>
   <time>2014-04-05T09:28:24Z</time>
  </trkpt>
  <trkpt lat="32.602470" lon="-1.525661">
   <ele>1241.00</ele>
   <time>2014-04-05T09:28:28Z</time>
  </trkpt>
  <trkpt lat="32.602864" lon="-1.525774">
   <ele>1240.00</ele>
   <time>2014-04-05T09:28:32Z</time>
  </trkpt>
  <trkpt lat="32.603146" lon="-1.525860">
   <ele>1240.00</ele>
   <time>2014-04-05T09:28:36Z</time>
  </trkpt>
  <trkpt lat="32.603375" lon="-1.525855">
   <ele>1240.00</ele>
   <time>2014-04-05T09:28:40Z</time>
  </trkpt>
  <trkpt lat="32.603599" lon="-1.525769">
   <ele>1240.00</ele>
   <time>2014-04-05T09:28:43Z</time>
  </trkpt>
  <trkpt lat="32.603838" lon="-1.525703">
   <ele>1240.00</ele>
   <time>2014-04-05T09:28:46Z</time>
  </trkpt>
  <trkpt lat="32.604093" lon="-1.525708">
   <ele>1240.00</ele>
   <time>2014-04-05T09:28:50Z</time>
  </trkpt>
  <trkpt lat="32.604182" lon="-1.525972">
   <ele>1240.00</ele>
   <time>2014-04-05T09:28:54Z</time>
  </trkpt>
  <trkpt lat="32.604272" lon="-1.526188">
   <ele>1240.00</ele>
   <time>2014-04-05T09:28:57Z</time>
  </trkpt>
  <trkpt lat="32.604481" lon="-1.526313">
   <ele>1240.00</ele>
   <time>2014-04-05T09:29:01Z</time>
  </trkpt>
  <trkpt lat="32.604653" lon="-1.526391">
   <ele>1240.00</ele>
   <time>2014-04-05T09:29:04Z</time>
  </trkpt>
  <trkpt lat="32.604877" lon="-1.526453">
   <ele>1240.00</ele>
   <time>2014-04-05T09:29:08Z</time>
  </trkpt>
  <trkpt lat="32.605039" lon="-1.526605">
   <ele>1240.00</ele>
   <time>2014-04-05T09:29:13Z</time>
  </trkpt>
  <trkpt lat="32.605110" lon="-1.526833">
   <ele>1240.00</ele>
   <time>2014-04-05T09:29:17Z</time>
  </trkpt>
  <trkpt lat="32.605243" lon="-1.527168">
   <ele>1239.00</ele>
   <time>2014-04-05T09:29:23Z</time>
  </trkpt>
  <trkpt lat="32.605326" lon="-1.527395">
   <ele>1239.00</ele>
   <time>2014-04-05T09:29:27Z</time>
  </trkpt>
  <trkpt lat="32.605416" lon="-1.527630">
   <ele>1239.00</ele>
   <time>2014-04-05T09:29:31Z</time>
  </trkpt>
  <trkpt lat="32.605487" lon="-1.527876">
   <ele>1239.00</ele>
   <time>2014-04-05T09:29:35Z</time>
  </trkpt>
  <trkpt lat="32.605567" lon="-1.528314">
   <ele>1240.00</ele>
   <time>2014-04-05T09:29:42Z</time>
  </trkpt>
  <trkpt lat="32.605640" lon="-1.528638">
   <ele>1240.00</ele>
   <time>2014-04-05T09:29:48Z</time>
  </trkpt>
  <trkpt lat="32.605651" lon="-1.528902">
   <ele>1239.00</ele>
   <time>2014-04-05T09:29:54Z</time>
  </trkpt>
  <trkpt lat="32.605690" lon="-1.529112">
   <ele>1239.00</ele>
   <time>2014-04-05T09:30:01Z</time>
  </trkpt>
  <trkpt lat="32.605706" lon="-1.529346">
   <ele>1238.00</ele>
   <time>2014-04-05T09:30:13Z</time>
  </trkpt>
  <trkpt lat="32.605793" lon="-1.529580">
   <ele>1238.00</ele>
   <time>2014-04-05T09:30:19Z</time>
  </trkpt>
  <trkpt lat="32.605883" lon="-1.529783">
   <ele>1238.00</ele>
   <time>2014-04-05T09:30:24Z</time>
  </trkpt>
  <trkpt lat="32.606011" lon="-1.529952">
   <ele>1238.00</ele>
   <time>2014-04-05T09:30:28Z</time>
  </trkpt>
  <trkpt lat="32.606167" lon="-1.530094">
   <ele>1238.00</ele>
   <time>2014-04-05T09:30:31Z</time>
  </trkpt>
  <trkpt lat="32.606336" lon="-1.530273">
   <ele>1238.00</ele>
   <time>2014-04-05T09:30:34Z</time>
  </trkpt>
  <trkpt lat="32.606510" lon="-1.530431">
   <ele>1238.00</ele>
   <time>2014-04-05T09:30:37Z</time>
  </trkpt>
  <trkpt lat="32.606712" lon="-1.530541">
   <ele>1239.00</ele>
   <time>2014-04-05T09:30:40Z</time>
  </trkpt>
  <trkpt lat="32.606911" lon="-1.530663">
   <ele>1239.00</ele>
   <time>2014-04-05T09:30:43Z</time>
  </trkpt>
  <trkpt lat="32.607129" lon="-1.530839">
   <ele>1239.00</ele>
   <time>2014-04-05T09:30:47Z</time>
  </trkpt>
  <trkpt lat="32.607352" lon="-1.530838">
   <ele>1239.00</ele>
   <time>2014-04-05T09:30:51Z</time>
  </trkpt>
  <trkpt lat="32.607544" lon="-1.530845">
   <ele>1239.00</ele>
   <time>2014-04-05T09:30:54Z</time>
  </trkpt>
  <trkpt lat="32.607823" lon="-1.530932">
   <ele>1239.00</ele>
   <time>2014-04-05T09:30:58Z</time>
  </trkpt>
  <trkpt lat="32.608134" lon="-1.531017">
   <ele>1239.00</ele>
   <time>2014-04-05T09:31:02Z</time>
  </trkpt>
  <trkpt lat="32.608558" lon="-1.531121">
   <ele>1239.00</ele>
   <time>2014-04-05T09:31:07Z</time>
  </trkpt>
  <trkpt lat="32.608821" lon="-1.531134">
   <ele>1239.00</ele>
   <time>2014-04-05T09:31:10Z</time>
  </trkpt>
  <trkpt lat="32.609078" lon="-1.531099">
   <ele>1239.00</ele>
   <time>2014-04-05T09:31:13Z</time>
  </trkpt>
  <trkpt lat="32.609337" lon="-1.531123">
   <ele>1240.00</ele>
   <time>2014-04-05T09:31:16Z</time>
  </trkpt>
  <trkpt lat="32.609510" lon="-1.531192">
   <ele>1240.00</ele>
   <time>2014-04-05T09:31:18Z</time>
  </trkpt>
  <trkpt lat="32.609857" lon="-1.531352">
   <ele>1240.00</ele>
   <time>2014-04-05T09:31:22Z</time>
  </trkpt>
  <trkpt lat="32.610043" lon="-1.531418">
   <ele>1240.00</ele>
   <time>2014-04-05T09:31:24Z</time>
  </trkpt>
  <trkpt lat="32.610739" lon="-1.531619">
   <ele>1241.00</ele>
   <time>2014-04-05T09:31:31Z</time>
  </trkpt>
  <trkpt lat="32.611447" lon="-1.531791">
   <ele>1242.00</ele>
   <time>2014-04-05T09:31:38Z</time>
  </trkpt>
  <trkpt lat="32.611496" lon="-1.532010">
   <ele>1242.00</ele>
   <time>2014-04-05T09:31:41Z</time>
  </trkpt>
  <trkpt lat="32.611389" lon="-1.532399">
   <ele>1241.00</ele>
   <time>2014-04-05T09:31:45Z</time>
  </trkpt>
  <trkpt lat="32.611392" lon="-1.532636">
   <ele>1241.00</ele>
   <time>2014-04-05T09:31:47Z</time>
  </trkpt>
  <trkpt lat="32.611406" lon="-1.532903">
   <ele>1241.00</ele>
   <time>2014-04-05T09:31:49Z</time>
  </trkpt>
  <trkpt lat="32.611410" lon="-1.533186">
   <ele>1241.00</ele>
   <time>2014-04-05T09:31:51Z</time>
  </trkpt>
  <trkpt lat="32.611402" lon="-1.533750">
   <ele>1241.00</ele>
   <time>2014-04-05T09:31:55Z</time>
  </trkpt>
  <trkpt lat="32.611422" lon="-1.534016">
   <ele>1242.00</ele>
   <time>2014-04-05T09:31:57Z</time>
  </trkpt>
  <trkpt lat="32.611459" lon="-1.534278">
   <ele>1242.00</ele>
   <time>2014-04-05T09:31:59Z</time>
  </trkpt>
  <trkpt lat="32.611508" lon="-1.534536">
   <ele>1242.00</ele>
   <time>2014-04-05T09:32:01Z</time>
  </trkpt>
  <trkpt lat="32.611579" lon="-1.534771">
   <ele>1242.00</ele>
   <time>2014-04-05T09:32:03Z</time>
  </trkpt>
  <trkpt lat="32.611693" lon="-1.534985">
   <ele>1242.00</ele>
   <time>2014-04-05T09:32:05Z</time>
  </trkpt>
  <trkpt lat="32.611836" lon="-1.535191">
   <ele>1242.00</ele>
   <time>2014-04-05T09:32:07Z</time>
  </trkpt>
  <trkpt lat="32.612143" lon="-1.535597">
   <ele>1242.00</ele>
   <time>2014-04-05T09:32:11Z</time>
  </trkpt>
  <trkpt lat="32.612273" lon="-1.535822">
   <ele>1243.00</ele>
   <time>2014-04-05T09:32:13Z</time>
  </trkpt>
  <trkpt lat="32.612377" lon="-1.536070">
   <ele>1243.00</ele>
   <time>2014-04-05T09:32:15Z</time>
  </trkpt>
  <trkpt lat="32.612513" lon="-1.536449">
   <ele>1243.00</ele>
   <time>2014-04-05T09:32:18Z</time>
  </trkpt>
  <trkpt lat="32.612579" lon="-1.536703">
   <ele>1242.00</ele>
   <time>2014-04-05T09:32:20Z</time>
  </trkpt>
  <trkpt lat="32.612678" lon="-1.537208">
   <ele>1242.00</ele>
   <time>2014-04-05T09:32:24Z</time>
  </trkpt>
  <trkpt lat="32.612750" lon="-1.537461">
   <ele>1242.00</ele>
   <time>2014-04-05T09:32:26Z</time>
  </trkpt>
  <trkpt lat="32.612903" lon="-1.537954">
   <ele>1241.00</ele>
   <time>2014-04-05T09:32:30Z</time>
  </trkpt>
  <trkpt lat="32.612932" lon="-1.538183">
   <ele>1241.00</ele>
   <time>2014-04-05T09:32:32Z</time>
  </trkpt>
  <trkpt lat="32.612921" lon="-1.538397">
   <ele>1241.00</ele>
   <time>2014-04-05T09:32:34Z</time>
  </trkpt>
  <trkpt lat="32.612909" lon="-1.538712">
   <ele>1241.00</ele>
   <time>2014-04-05T09:32:37Z</time>
  </trkpt>
  <trkpt lat="32.612943" lon="-1.538940">
   <ele>1241.00</ele>
   <time>2014-04-05T09:32:39Z</time>
  </trkpt>
  <trkpt lat="32.613015" lon="-1.539316">
   <ele>1241.00</ele>
   <time>2014-04-05T09:32:42Z</time>
  </trkpt>
  <trkpt lat="32.613073" lon="-1.539567">
   <ele>1241.00</ele>
   <time>2014-04-05T09:32:44Z</time>
  </trkpt>
  <trkpt lat="32.613143" lon="-1.539810">
   <ele>1241.00</ele>
   <time>2014-04-05T09:32:46Z</time>
  </trkpt>
  <trkpt lat="32.613233" lon="-1.540046">
   <ele>1241.00</ele>
   <time>2014-04-05T09:32:48Z</time>
  </trkpt>
  <trkpt lat="32.613335" lon="-1.540281">
   <ele>1241.00</ele>
   <time>2014-04-05T09:32:50Z</time>
  </trkpt>
  <trkpt lat="32.613435" lon="-1.540513">
   <ele>1241.00</ele>
   <time>2014-04-05T09:32:52Z</time>
  </trkpt>
  <trkpt lat="32.613519" lon="-1.540743">
   <ele>1241.00</ele>
   <time>2014-04-05T09:32:54Z</time>
  </trkpt>
  <trkpt lat="32.613594" lon="-1.540976">
   <ele>1241.00</ele>
   <time>2014-04-05T09:32:56Z</time>
  </trkpt>
  <trkpt lat="32.613648" lon="-1.541196">
   <ele>1241.00</ele>
   <time>2014-04-05T09:32:58Z</time>
  </trkpt>
  <trkpt lat="32.613688" lon="-1.541502">
   <ele>1240.00</ele>
   <time>2014-04-05T09:33:01Z</time>
  </trkpt>
  <trkpt lat="32.613735" lon="-1.541774">
   <ele>1240.00</ele>
   <time>2014-04-05T09:33:04Z</time>
  </trkpt>
  <trkpt lat="32.613823" lon="-1.542011">
   <ele>1240.00</ele>
   <time>2014-04-05T09:33:07Z</time>
  </trkpt>
  <trkpt lat="32.613912" lon="-1.542240">
   <ele>1239.00</ele>
   <time>2014-04-05T09:33:10Z</time>
  </trkpt>
  <trkpt lat="32.613998" lon="-1.542481">
   <ele>1239.00</ele>
   <time>2014-04-05T09:33:13Z</time>
  </trkpt>
  <trkpt lat="32.614074" lon="-1.542756">
   <ele>1239.00</ele>
   <time>2014-04-05T09:33:16Z</time>
  </trkpt>
  <trkpt lat="32.614139" lon="-1.543068">
   <ele>1238.00</ele>
   <time>2014-04-05T09:33:19Z</time>
  </trkpt>
  <trkpt lat="32.614181" lon="-1.543281">
   <ele>1238.00</ele>
   <time>2014-04-05T09:33:21Z</time>
  </trkpt>
  <trkpt lat="32.614267" lon="-1.543569">
   <ele>1238.00</ele>
   <time>2014-04-05T09:33:24Z</time>
  </trkpt>
  <trkpt lat="32.614320" lon="-1.543804">
   <ele>1238.00</ele>
   <time>2014-04-05T09:33:27Z</time>
  </trkpt>
  <trkpt lat="32.614385" lon="-1.544003">
   <ele>1238.00</ele>
   <time>2014-04-05T09:33:30Z</time>
  </trkpt>
  <trkpt lat="32.614490" lon="-1.544228">
   <ele>1238.00</ele>
   <time>2014-04-05T09:33:33Z</time>
  </trkpt>
  <trkpt lat="32.614596" lon="-1.544432">
   <ele>1238.00</ele>
   <time>2014-04-05T09:33:36Z</time>
  </trkpt>
  <trkpt lat="32.614715" lon="-1.544634">
   <ele>1238.00</ele>
   <time>2014-04-05T09:33:40Z</time>
  </trkpt>
  <trkpt lat="32.614843" lon="-1.544874">
   <ele>1238.00</ele>
   <time>2014-04-05T09:33:44Z</time>
  </trkpt>
  <trkpt lat="32.615036" lon="-1.545247">
   <ele>1238.00</ele>
   <time>2014-04-05T09:33:50Z</time>
  </trkpt>
  <trkpt lat="32.615159" lon="-1.545429">
   <ele>1238.00</ele>
   <time>2014-04-05T09:33:55Z</time>
  </trkpt>
  <trkpt lat="32.615378" lon="-1.545690">
   <ele>1238.00</ele>
   <time>2014-04-05T09:34:07Z</time>
  </trkpt>
  <trkpt lat="32.615496" lon="-1.545880">
   <ele>1238.00</ele>
   <time>2014-04-05T09:34:12Z</time>
  </trkpt>
  <trkpt lat="32.615608" lon="-1.546140">
   <ele>1238.00</ele>
   <time>2014-04-05T09:34:18Z</time>
  </trkpt>
  <trkpt lat="32.615747" lon="-1.546273">
   <ele>1238.00</ele>
   <time>2014-04-05T09:34:24Z</time>
  </trkpt>
  <trkpt lat="32.615937" lon="-1.546405">
   <ele>1238.00</ele>
   <time>2014-04-05T09:34:30Z</time>
  </trkpt>
  <trkpt lat="32.616114" lon="-1.546568">
   <ele>1238.00</ele>
   <time>2014-04-05T09:34:35Z</time>
  </trkpt>
  <trkpt lat="32.616283" lon="-1.546662">
   <ele>1238.00</ele>
   <time>2014-04-05T09:34:39Z</time>
  </trkpt>
  <trkpt lat="32.616446" lon="-1.546806">
   <ele>1238.00</ele>
   <time>2014-04-05T09:34:43Z</time>
  </trkpt>
  <trkpt lat="32.616506" lon="-1.547061">
   <ele>1238.00</ele>
   <time>2014-04-05T09:34:47Z</time>
  </trkpt>
  <trkpt lat="32.616555" lon="-1.547325">
   <ele>1239.00</ele>
   <time>2014-04-05T09:34:51Z</time>
  </trkpt>
  <trkpt lat="32.616683" lon="-1.547478">
   <ele>1239.00</ele>
   <time>2014-04-05T09:34:54Z</time>
  </trkpt>
  <trkpt lat="32.616844" lon="-1.547596">
   <ele>1239.00</ele>
   <time>2014-04-05T09:34:57Z</time>
  </trkpt>
  <trkpt lat="32.617060" lon="-1.547688">
   <ele>1239.00</ele>
   <time>2014-04-05T09:35:01Z</time>
  </trkpt>
  <trkpt lat="32.617233" lon="-1.547847">
   <ele>1239.00</ele>
   <time>2014-04-05T09:35:05Z</time>
  </trkpt>
  <trkpt lat="32.617338" lon="-1.548022">
   <ele>1238.00</ele>
   <time>2014-04-05T09:35:08Z</time>
  </trkpt>
  <trkpt lat="32.617475" lon="-1.548332">
   <ele>1238.00</ele>
   <time>2014-04-05T09:35:13Z</time>
  </trkpt>
  <trkpt lat="32.617605" lon="-1.548492">
   <ele>1238.00</ele>
   <time>2014-04-05T09:35:16Z</time>
  </trkpt>
  <trkpt lat="32.617731" lon="-1.548669">
   <ele>1238.00</ele>
   <time>2014-04-05T09:35:19Z</time>
  </trkpt>
  <trkpt lat="32.617806" lon="-1.548885">
   <ele>1238.00</ele>
   <time>2014-04-05T09:35:22Z</time>
  </trkpt>
  <trkpt lat="32.617835" lon="-1.549126">
   <ele>1238.00</ele>
   <time>2014-04-05T09:35:25Z</time>
  </trkpt>
  <trkpt lat="32.617897" lon="-1.549376">
   <ele>1238.00</ele>
   <time>2014-04-05T09:35:28Z</time>
  </trkpt>
  <trkpt lat="32.617978" lon="-1.549637">
   <ele>1239.00</ele>
   <time>2014-04-05T09:35:31Z</time>
  </trkpt>
  <trkpt lat="32.618100" lon="-1.550114">
   <ele>1239.00</ele>
   <time>2014-04-05T09:35:36Z</time>
  </trkpt>
  <trkpt lat="32.618165" lon="-1.550393">
   <ele>1239.00</ele>
   <time>2014-04-05T09:35:39Z</time>
  </trkpt>
  <trkpt lat="32.618240" lon="-1.550660">
   <ele>1239.00</ele>
   <time>2014-04-05T09:35:42Z</time>
  </trkpt>
  <trkpt lat="32.618345" lon="-1.550904">
   <ele>1239.00</ele>
   <time>2014-04-05T09:35:45Z</time>
  </trkpt>
  <trkpt lat="32.618520" lon="-1.551252">
   <ele>1239.00</ele>
   <time>2014-04-05T09:35:49Z</time>
  </trkpt>
  <trkpt lat="32.618689" lon="-1.551496">
   <ele>1240.00</ele>
   <time>2014-04-05T09:35:52Z</time>
  </trkpt>
  <trkpt lat="32.618897" lon="-1.551669">
   <ele>1240.00</ele>
   <time>2014-04-05T09:35:55Z</time>
  </trkpt>
  <trkpt lat="32.619110" lon="-1.551793">
   <ele>1241.00</ele>
   <time>2014-04-05T09:35:58Z</time>
  </trkpt>
  <trkpt lat="32.619293" lon="-1.551997">
   <ele>1242.00</ele>
   <time>2014-04-05T09:36:01Z</time>
  </trkpt>
  <trkpt lat="32.619406" lon="-1.552284">
   <ele>1243.00</ele>
   <time>2014-04-05T09:36:04Z</time>
  </trkpt>
  <trkpt lat="32.619479" lon="-1.552494">
   <ele>1243.00</ele>
   <time>2014-04-05T09:36:06Z</time>
  </trkpt>
  <trkpt lat="32.619567" lon="-1.552704">
   <ele>1243.00</ele>
   <time>2014-04-05T09:36:08Z</time>
  </trkpt>
  <trkpt lat="32.619707" lon="-1.553018">
   <ele>1243.00</ele>
   <time>2014-04-05T09:36:11Z</time>
  </trkpt>
  <trkpt lat="32.619786" lon="-1.553241">
   <ele>1244.00</ele>
   <time>2014-04-05T09:36:13Z</time>
  </trkpt>
  <trkpt lat="32.619872" lon="-1.553472">
   <ele>1244.00</ele>
   <time>2014-04-05T09:36:15Z</time>
  </trkpt>
  <trkpt lat="32.620364" lon="-1.554651">
   <ele>1245.00</ele>
   <time>2014-04-05T09:36:25Z</time>
  </trkpt>
  <trkpt lat="32.620442" lon="-1.554906">
   <ele>1245.00</ele>
   <time>2014-04-05T09:36:27Z</time>
  </trkpt>
  <trkpt lat="32.620491" lon="-1.555174">
   <ele>1245.00</ele>
   <time>2014-04-05T09:36:29Z</time>
  </trkpt>
  <trkpt lat="32.620519" lon="-1.555448">
   <ele>1245.00</ele>
   <time>2014-04-05T09:36:31Z</time>
  </trkpt>
  <trkpt lat="32.620562" lon="-1.555716">
   <ele>1245.00</ele>
   <time>2014-04-05T09:36:33Z</time>
  </trkpt>
  <trkpt lat="32.620632" lon="-1.555980">
   <ele>1245.00</ele>
   <time>2014-04-05T09:36:35Z</time>
  </trkpt>
  <trkpt lat="32.620737" lon="-1.556230">
   <ele>1246.00</ele>
   <time>2014-04-05T09:36:37Z</time>
  </trkpt>
  <trkpt lat="32.620874" lon="-1.556460">
   <ele>1246.00</ele>
   <time>2014-04-05T09:36:39Z</time>
  </trkpt>
  <trkpt lat="32.621029" lon="-1.556673">
   <ele>1246.00</ele>
   <time>2014-04-05T09:36:41Z</time>
  </trkpt>
  <trkpt lat="32.621195" lon="-1.556872">
   <ele>1247.00</ele>
   <time>2014-04-05T09:36:43Z</time>
  </trkpt>
  <trkpt lat="32.621368" lon="-1.557064">
   <ele>1248.00</ele>
   <time>2014-04-05T09:36:45Z</time>
  </trkpt>
  <trkpt lat="32.622335" lon="-1.558087">
   <ele>1251.00</ele>
   <time>2014-04-05T09:36:56Z</time>
  </trkpt>
  <trkpt lat="32.622479" lon="-1.558290">
   <ele>1252.00</ele>
   <time>2014-04-05T09:36:58Z</time>
  </trkpt>
  <trkpt lat="32.622684" lon="-1.558601">
   <ele>1252.00</ele>
   <time>2014-04-05T09:37:01Z</time>
  </trkpt>
  <trkpt lat="32.622847" lon="-1.558780">
   <ele>1252.00</ele>
   <time>2014-04-05T09:37:03Z</time>
  </trkpt>
  <trkpt lat="32.623025" lon="-1.558936">
   <ele>1253.00</ele>
   <time>2014-04-05T09:37:05Z</time>
  </trkpt>
  <trkpt lat="32.623205" lon="-1.559070">
   <ele>1253.00</ele>
   <time>2014-04-05T09:37:07Z</time>
  </trkpt>
  <trkpt lat="32.623386" lon="-1.559174">
   <ele>1253.00</ele>
   <time>2014-04-05T09:37:09Z</time>
  </trkpt>
  <trkpt lat="32.623559" lon="-1.559270">
   <ele>1253.00</ele>
   <time>2014-04-05T09:37:11Z</time>
  </trkpt>
  <trkpt lat="32.623872" lon="-1.559451">
   <ele>1253.00</ele>
   <time>2014-04-05T09:37:15Z</time>
  </trkpt>
  <trkpt lat="32.624113" lon="-1.559511">
   <ele>1254.00</ele>
   <time>2014-04-05T09:37:18Z</time>
  </trkpt>
  <trkpt lat="32.624362" lon="-1.559505">
   <ele>1254.00</ele>
   <time>2014-04-05T09:37:21Z</time>
  </trkpt>
  <trkpt lat="32.624628" lon="-1.559457">
   <ele>1255.00</ele>
   <time>2014-04-05T09:37:24Z</time>
  </trkpt>
  <trkpt lat="32.625025" lon="-1.559356">
   <ele>1256.00</ele>
   <time>2014-04-05T09:37:28Z</time>
  </trkpt>
  <trkpt lat="32.625230" lon="-1.559352">
   <ele>1257.00</ele>
   <time>2014-04-05T09:37:30Z</time>
  </trkpt>
  <trkpt lat="32.625429" lon="-1.559401">
   <ele>1257.00</ele>
   <time>2014-04-05T09:37:32Z</time>
  </trkpt>
  <trkpt lat="32.625608" lon="-1.559480">
   <ele>1258.00</ele>
   <time>2014-04-05T09:37:34Z</time>
  </trkpt>
  <trkpt lat="32.625868" lon="-1.559537">
   <ele>1259.00</ele>
   <time>2014-04-05T09:37:37Z</time>
  </trkpt>
  <trkpt lat="32.626057" lon="-1.559498">
   <ele>1259.00</ele>
   <time>2014-04-05T09:37:39Z</time>
  </trkpt>
  <trkpt lat="32.626248" lon="-1.559424">
   <ele>1259.00</ele>
   <time>2014-04-05T09:37:41Z</time>
  </trkpt>
  <trkpt lat="32.626442" lon="-1.559355">
   <ele>1260.00</ele>
   <time>2014-04-05T09:37:43Z</time>
  </trkpt>
  <trkpt lat="32.626652" lon="-1.559327">
   <ele>1260.00</ele>
   <time>2014-04-05T09:37:45Z</time>
  </trkpt>
  <trkpt lat="32.626870" lon="-1.559354">
   <ele>1260.00</ele>
   <time>2014-04-05T09:37:47Z</time>
  </trkpt>
  <trkpt lat="32.627087" lon="-1.559430">
   <ele>1260.00</ele>
   <time>2014-04-05T09:37:49Z</time>
  </trkpt>
  <trkpt lat="32.627300" lon="-1.559542">
   <ele>1261.00</ele>
   <time>2014-04-05T09:37:51Z</time>
  </trkpt>
  <trkpt lat="32.627502" lon="-1.559683">
   <ele>1261.00</ele>
   <time>2014-04-05T09:37:53Z</time>
  </trkpt>
  <trkpt lat="32.627678" lon="-1.559863">
   <ele>1261.00</ele>
   <time>2014-04-05T09:37:55Z</time>
  </trkpt>
  <trkpt lat="32.627941" lon="-1.560162">
   <ele>1262.00</ele>
   <time>2014-04-05T09:37:58Z</time>
  </trkpt>
  <trkpt lat="32.628137" lon="-1.560360">
   <ele>1263.00</ele>
   <time>2014-04-05T09:38:00Z</time>
  </trkpt>
  <trkpt lat="32.629839" lon="-1.561914">
   <ele>1264.00</ele>
   <time>2014-04-05T09:38:15Z</time>
  </trkpt>
  <trkpt lat="32.630048" lon="-1.562114">
   <ele>1263.00</ele>
   <time>2014-04-05T09:38:17Z</time>
  </trkpt>
  <trkpt lat="32.630220" lon="-1.562311">
   <ele>1263.00</ele>
   <time>2014-04-05T09:38:19Z</time>
  </trkpt>
  <trkpt lat="32.630383" lon="-1.562486">
   <ele>1263.00</ele>
   <time>2014-04-05T09:38:21Z</time>
  </trkpt>
  <trkpt lat="32.630572" lon="-1.562628">
   <ele>1263.00</ele>
   <time>2014-04-05T09:38:23Z</time>
  </trkpt>
  <trkpt lat="32.630778" lon="-1.562766">
   <ele>1263.00</ele>
   <time>2014-04-05T09:38:25Z</time>
  </trkpt>
  <trkpt lat="32.630971" lon="-1.562937">
   <ele>1263.00</ele>
   <time>2014-04-05T09:38:27Z</time>
  </trkpt>
  <trkpt lat="32.631144" lon="-1.563143">
   <ele>1263.00</ele>
   <time>2014-04-05T09:38:29Z</time>
  </trkpt>
  <trkpt lat="32.631296" lon="-1.563379">
   <ele>1263.00</ele>
   <time>2014-04-05T09:38:31Z</time>
  </trkpt>
  <trkpt lat="32.631563" lon="-1.563834">
   <ele>1264.00</ele>
   <time>2014-04-05T09:38:35Z</time>
  </trkpt>
  <trkpt lat="32.631667" lon="-1.564061">
   <ele>1264.00</ele>
   <time>2014-04-05T09:38:37Z</time>
  </trkpt>
  <trkpt lat="32.631769" lon="-1.564285">
   <ele>1264.00</ele>
   <time>2014-04-05T09:38:39Z</time>
  </trkpt>
  <trkpt lat="32.631891" lon="-1.564498">
   <ele>1264.00</ele>
   <time>2014-04-05T09:38:41Z</time>
  </trkpt>
  <trkpt lat="32.632092" lon="-1.564817">
   <ele>1265.00</ele>
   <time>2014-04-05T09:38:44Z</time>
  </trkpt>
  <trkpt lat="32.632222" lon="-1.565028">
   <ele>1265.00</ele>
   <time>2014-04-05T09:38:46Z</time>
  </trkpt>
  <trkpt lat="32.632371" lon="-1.565222">
   <ele>1266.00</ele>
   <time>2014-04-05T09:38:48Z</time>
  </trkpt>
  <trkpt lat="32.632534" lon="-1.565412">
   <ele>1266.00</ele>
   <time>2014-04-05T09:38:50Z</time>
  </trkpt>
  <trkpt lat="32.632787" lon="-1.565693">
   <ele>1266.00</ele>
   <time>2014-04-05T09:38:53Z</time>
  </trkpt>
  <trkpt lat="32.633049" lon="-1.565969">
   <ele>1267.00</ele>
   <time>2014-04-05T09:38:56Z</time>
  </trkpt>
  <trkpt lat="32.633207" lon="-1.566185">
   <ele>1267.00</ele>
   <time>2014-04-05T09:38:58Z</time>
  </trkpt>
  <trkpt lat="32.633370" lon="-1.566406">
   <ele>1267.00</ele>
   <time>2014-04-05T09:39:00Z</time>
  </trkpt>
  <trkpt lat="32.633543" lon="-1.566614">
   <ele>1268.00</ele>
   <time>2014-04-05T09:39:02Z</time>
  </trkpt>
  <trkpt lat="32.633992" lon="-1.567141">
   <ele>1269.00</ele>
   <time>2014-04-05T09:39:08Z</time>
  </trkpt>
  <trkpt lat="32.634122" lon="-1.567311">
   <ele>1269.00</ele>
   <time>2014-04-05T09:39:10Z</time>
  </trkpt>
  <trkpt lat="32.634264" lon="-1.567455">
   <ele>1269.00</ele>
   <time>2014-04-05T09:39:12Z</time>
  </trkpt>
  <trkpt lat="32.634502" lon="-1.567571">
   <ele>1269.00</ele>
   <time>2014-04-05T09:39:15Z</time>
  </trkpt>
  <trkpt lat="32.634696" lon="-1.567742">
   <ele>1269.00</ele>
   <time>2014-04-05T09:39:18Z</time>
  </trkpt>
  <trkpt lat="32.634895" lon="-1.567856">
   <ele>1269.00</ele>
   <time>2014-04-05T09:39:21Z</time>
  </trkpt>
  <trkpt lat="32.635217" lon="-1.567921">
   <ele>1269.00</ele>
   <time>2014-04-05T09:39:25Z</time>
  </trkpt>
  <trkpt lat="32.635457" lon="-1.568021">
   <ele>1268.00</ele>
   <time>2014-04-05T09:39:28Z</time>
  </trkpt>
  <trkpt lat="32.635699" lon="-1.568121">
   <ele>1268.00</ele>
   <time>2014-04-05T09:39:31Z</time>
  </trkpt>
  <trkpt lat="32.636138" lon="-1.568246">
   <ele>1269.00</ele>
   <time>2014-04-05T09:39:37Z</time>
  </trkpt>
  <trkpt lat="32.636420" lon="-1.568360">
   <ele>1270.00</ele>
   <time>2014-04-05T09:39:41Z</time>
  </trkpt>
  <trkpt lat="32.636652" lon="-1.568474">
   <ele>1270.00</ele>
   <time>2014-04-05T09:39:44Z</time>
  </trkpt>
  <trkpt lat="32.637057" lon="-1.568642">
   <ele>1272.00</ele>
   <time>2014-04-05T09:39:49Z</time>
  </trkpt>
  <trkpt lat="32.637265" lon="-1.568796">
   <ele>1273.00</ele>
   <time>2014-04-05T09:39:52Z</time>
  </trkpt>
  <trkpt lat="32.637452" lon="-1.568979">
   <ele>1274.00</ele>
   <time>2014-04-05T09:39:55Z</time>
  </trkpt>
  <trkpt lat="32.637612" lon="-1.569077">
   <ele>1274.00</ele>
   <time>2014-04-05T09:39:57Z</time>
  </trkpt>
  <trkpt lat="32.637894" lon="-1.569215">
   <ele>1274.00</ele>
   <time>2014-04-05T09:40:00Z</time>
  </trkpt>
  <trkpt lat="32.638101" lon="-1.569290">
   <ele>1273.00</ele>
   <time>2014-04-05T09:40:02Z</time>
  </trkpt>
  <trkpt lat="32.639154" lon="-1.569637">
   <ele>1273.00</ele>
   <time>2014-04-05T09:40:11Z</time>
  </trkpt>
  <trkpt lat="32.639645" lon="-1.569845">
   <ele>1273.00</ele>
   <time>2014-04-05T09:40:15Z</time>
  </trkpt>
  <trkpt lat="32.640030" lon="-1.569963">
   <ele>1273.00</ele>
   <time>2014-04-05T09:40:18Z</time>
  </trkpt>
  <trkpt lat="32.640268" lon="-1.570021">
   <ele>1273.00</ele>
   <time>2014-04-05T09:40:20Z</time>
  </trkpt>
  <trkpt lat="32.640488" lon="-1.570058">
   <ele>1273.00</ele>
   <time>2014-04-05T09:40:22Z</time>
  </trkpt>
  <trkpt lat="32.640692" lon="-1.570099">
   <ele>1273.00</ele>
   <time>2014-04-05T09:40:24Z</time>
  </trkpt>
  <trkpt lat="32.640881" lon="-1.570195">
   <ele>1274.00</ele>
   <time>2014-04-05T09:40:26Z</time>
  </trkpt>
  <trkpt lat="32.641053" lon="-1.570347">
   <ele>1274.00</ele>
   <time>2014-04-05T09:40:28Z</time>
  </trkpt>
  <trkpt lat="32.641213" lon="-1.570543">
   <ele>1273.00</ele>
   <time>2014-04-05T09:40:30Z</time>
  </trkpt>
  <trkpt lat="32.641370" lon="-1.570771">
   <ele>1273.00</ele>
   <time>2014-04-05T09:40:32Z</time>
  </trkpt>
  <trkpt lat="32.641508" lon="-1.571024">
   <ele>1273.00</ele>
   <time>2014-04-05T09:40:34Z</time>
  </trkpt>
  <trkpt lat="32.641702" lon="-1.571413">
   <ele>1273.00</ele>
   <time>2014-04-05T09:40:37Z</time>
  </trkpt>
  <trkpt lat="32.641898" lon="-1.571766">
   <ele>1272.00</ele>
   <time>2014-04-05T09:40:40Z</time>
  </trkpt>
  <trkpt lat="32.641990" lon="-1.572012">
   <ele>1272.00</ele>
   <time>2014-04-05T09:40:42Z</time>
  </trkpt>
  <trkpt lat="32.642045" lon="-1.572256">
   <ele>1272.00</ele>
   <time>2014-04-05T09:40:44Z</time>
  </trkpt>
  <trkpt lat="32.642088" lon="-1.572479">
   <ele>1272.00</ele>
   <time>2014-04-05T09:40:46Z</time>
  </trkpt>
  <trkpt lat="32.642231" lon="-1.572719">
   <ele>1272.00</ele>
   <time>2014-04-05T09:40:49Z</time>
  </trkpt>
  <trkpt lat="32.642466" lon="-1.572854">
   <ele>1272.00</ele>
   <time>2014-04-05T09:40:52Z</time>
  </trkpt>
  <trkpt lat="32.642636" lon="-1.572951">
   <ele>1272.00</ele>
   <time>2014-04-05T09:40:54Z</time>
  </trkpt>
  <trkpt lat="32.642988" lon="-1.573167">
   <ele>1272.00</ele>
   <time>2014-04-05T09:40:58Z</time>
  </trkpt>
  <trkpt lat="32.643182" lon="-1.573264">
   <ele>1272.00</ele>
   <time>2014-04-05T09:41:00Z</time>
  </trkpt>
  <trkpt lat="32.643660" lon="-1.573461">
   <ele>1272.00</ele>
   <time>2014-04-05T09:41:05Z</time>
  </trkpt>
  <trkpt lat="32.643854" lon="-1.573504">
   <ele>1272.00</ele>
   <time>2014-04-05T09:41:07Z</time>
  </trkpt>
  <trkpt lat="32.644059" lon="-1.573507">
   <ele>1272.00</ele>
   <time>2014-04-05T09:41:09Z</time>
  </trkpt>
  <trkpt lat="32.644280" lon="-1.573474">
   <ele>1272.00</ele>
   <time>2014-04-05T09:41:11Z</time>
  </trkpt>
  <trkpt lat="32.644772" lon="-1.573383">
   <ele>1273.00</ele>
   <time>2014-04-05T09:41:15Z</time>
  </trkpt>
  <trkpt lat="32.645138" lon="-1.573292">
   <ele>1273.00</ele>
   <time>2014-04-05T09:41:18Z</time>
  </trkpt>
  <trkpt lat="32.645388" lon="-1.573214">
   <ele>1273.00</ele>
   <time>2014-04-05T09:41:20Z</time>
  </trkpt>
  <trkpt lat="32.645765" lon="-1.573089">
   <ele>1274.00</ele>
   <time>2014-04-05T09:41:23Z</time>
  </trkpt>
  <trkpt lat="32.646020" lon="-1.573009">
   <ele>1275.00</ele>
   <time>2014-04-05T09:41:25Z</time>
  </trkpt>
  <trkpt lat="32.646269" lon="-1.572912">
   <ele>1275.00</ele>
   <time>2014-04-05T09:41:27Z</time>
  </trkpt>
  <trkpt lat="32.646511" lon="-1.572823">
   <ele>1275.00</ele>
   <time>2014-04-05T09:41:29Z</time>
  </trkpt>
  <trkpt lat="32.646746" lon="-1.572794">
   <ele>1276.00</ele>
   <time>2014-04-05T09:41:31Z</time>
  </trkpt>
  <trkpt lat="32.646974" lon="-1.572754">
   <ele>1276.00</ele>
   <time>2014-04-05T09:41:33Z</time>
  </trkpt>
  <trkpt lat="32.647196" lon="-1.572665">
   <ele>1277.00</ele>
   <time>2014-04-05T09:41:35Z</time>
  </trkpt>
  <trkpt lat="32.647419" lon="-1.572576">
   <ele>1278.00</ele>
   <time>2014-04-05T09:41:37Z</time>
  </trkpt>
  <trkpt lat="32.647645" lon="-1.572513">
   <ele>1278.00</ele>
   <time>2014-04-05T09:41:39Z</time>
  </trkpt>
  <trkpt lat="32.647870" lon="-1.572464">
   <ele>1279.00</ele>
   <time>2014-04-05T09:41:41Z</time>
  </trkpt>
  <trkpt lat="32.648086" lon="-1.572432">
   <ele>1280.00</ele>
   <time>2014-04-05T09:41:43Z</time>
  </trkpt>
  <trkpt lat="32.648383" lon="-1.572396">
   <ele>1280.00</ele>
   <time>2014-04-05T09:41:46Z</time>
  </trkpt>
  <trkpt lat="32.648560" lon="-1.572325">
   <ele>1281.00</ele>
   <time>2014-04-05T09:41:48Z</time>
  </trkpt>
  <trkpt lat="32.648806" lon="-1.572215">
   <ele>1281.00</ele>
   <time>2014-04-05T09:41:51Z</time>
  </trkpt>
  <trkpt lat="32.649171" lon="-1.572057">
   <ele>1282.00</ele>
   <time>2014-04-05T09:41:55Z</time>
  </trkpt>
  <trkpt lat="32.649348" lon="-1.571946">
   <ele>1282.00</ele>
   <time>2014-04-05T09:41:57Z</time>
  </trkpt>
  <trkpt lat="32.649602" lon="-1.571760">
   <ele>1283.00</ele>
   <time>2014-04-05T09:42:00Z</time>
  </trkpt>
  <trkpt lat="32.649786" lon="-1.571669">
   <ele>1283.00</ele>
   <time>2014-04-05T09:42:02Z</time>
  </trkpt>
  <trkpt lat="32.650167" lon="-1.571482">
   <ele>1283.00</ele>
   <time>2014-04-05T09:42:06Z</time>
  </trkpt>
  <trkpt lat="32.650352" lon="-1.571369">
   <ele>1284.00</ele>
   <time>2014-04-05T09:42:08Z</time>
  </trkpt>
  <trkpt lat="32.650518" lon="-1.571212">
   <ele>1284.00</ele>
   <time>2014-04-05T09:42:10Z</time>
  </trkpt>
  <trkpt lat="32.650672" lon="-1.571028">
   <ele>1284.00</ele>
   <time>2014-04-05T09:42:12Z</time>
  </trkpt>
  <trkpt lat="32.650900" lon="-1.570736">
   <ele>1284.00</ele>
   <time>2014-04-05T09:42:15Z</time>
  </trkpt>
  <trkpt lat="32.651057" lon="-1.570540">
   <ele>1284.00</ele>
   <time>2014-04-05T09:42:17Z</time>
  </trkpt>
  <trkpt lat="32.651214" lon="-1.570343">
   <ele>1285.00</ele>
   <time>2014-04-05T09:42:19Z</time>
  </trkpt>
  <trkpt lat="32.651429" lon="-1.570058">
   <ele>1285.00</ele>
   <time>2014-04-05T09:42:22Z</time>
  </trkpt>
  <trkpt lat="32.651584" lon="-1.569912">
   <ele>1285.00</ele>
   <time>2014-04-05T09:42:24Z</time>
  </trkpt>
  <trkpt lat="32.651755" lon="-1.569827">
   <ele>1286.00</ele>
   <time>2014-04-05T09:42:26Z</time>
  </trkpt>
  <trkpt lat="32.652007" lon="-1.569815">
   <ele>1286.00</ele>
   <time>2014-04-05T09:42:29Z</time>
  </trkpt>
  <trkpt lat="32.652157" lon="-1.569934">
   <ele>1286.00</ele>
   <time>2014-04-05T09:42:32Z</time>
  </trkpt>
  <trkpt lat="32.652309" lon="-1.570103">
   <ele>1287.00</ele>
   <time>2014-04-05T09:42:35Z</time>
  </trkpt>
  <trkpt lat="32.652539" lon="-1.570257">
   <ele>1287.00</ele>
   <time>2014-04-05T09:42:38Z</time>
  </trkpt>
  <trkpt lat="32.652730" lon="-1.570329">
   <ele>1288.00</ele>
   <time>2014-04-05T09:42:40Z</time>
  </trkpt>
  <trkpt lat="32.652948" lon="-1.570385">
   <ele>1288.00</ele>
   <time>2014-04-05T09:42:42Z</time>
  </trkpt>
  <trkpt lat="32.653302" lon="-1.570456">
   <ele>1289.00</ele>
   <time>2014-04-05T09:42:45Z</time>
  </trkpt>
  <trkpt lat="32.653534" lon="-1.570491">
   <ele>1289.00</ele>
   <time>2014-04-05T09:42:47Z</time>
  </trkpt>
  <trkpt lat="32.654390" lon="-1.570574">
   <ele>1291.00</ele>
   <time>2014-04-05T09:42:54Z</time>
  </trkpt>
  <trkpt lat="32.654624" lon="-1.570572">
   <ele>1291.00</ele>
   <time>2014-04-05T09:42:56Z</time>
  </trkpt>
  <trkpt lat="32.654840" lon="-1.570534">
   <ele>1292.00</ele>
   <time>2014-04-05T09:42:58Z</time>
  </trkpt>
  <trkpt lat="32.655030" lon="-1.570510">
   <ele>1292.00</ele>
   <time>2014-04-05T09:43:00Z</time>
  </trkpt>
  <trkpt lat="32.655270" lon="-1.570547">
   <ele>1292.00</ele>
   <time>2014-04-05T09:43:03Z</time>
  </trkpt>
  <trkpt lat="32.655484" lon="-1.570641">
   <ele>1293.00</ele>
   <time>2014-04-05T09:43:06Z</time>
  </trkpt>
  <trkpt lat="32.655680" lon="-1.570743">
   <ele>1293.00</ele>
   <time>2014-04-05T09:43:09Z</time>
  </trkpt>
  <trkpt lat="32.655901" lon="-1.570815">
   <ele>1294.00</ele>
   <time>2014-04-05T09:43:12Z</time>
  </trkpt>
  <trkpt lat="32.656156" lon="-1.570853">
   <ele>1294.00</ele>
   <time>2014-04-05T09:43:15Z</time>
  </trkpt>
  <trkpt lat="32.656339" lon="-1.570891">
   <ele>1295.00</ele>
   <time>2014-04-05T09:43:17Z</time>
  </trkpt>
  <trkpt lat="32.656524" lon="-1.570927">
   <ele>1295.00</ele>
   <time>2014-04-05T09:43:19Z</time>
  </trkpt>
  <trkpt lat="32.656712" lon="-1.570940">
   <ele>1296.00</ele>
   <time>2014-04-05T09:43:21Z</time>
  </trkpt>
  <trkpt lat="32.656900" lon="-1.570960">
   <ele>1296.00</ele>
   <time>2014-04-05T09:43:23Z</time>
  </trkpt>
  <trkpt lat="32.657081" lon="-1.571005">
   <ele>1297.00</ele>
   <time>2014-04-05T09:43:25Z</time>
  </trkpt>
  <trkpt lat="32.657258" lon="-1.571075">
   <ele>1297.00</ele>
   <time>2014-04-05T09:43:27Z</time>
  </trkpt>
  <trkpt lat="32.657437" lon="-1.571124">
   <ele>1298.00</ele>
   <time>2014-04-05T09:43:29Z</time>
  </trkpt>
  <trkpt lat="32.657620" lon="-1.571121">
   <ele>1298.00</ele>
   <time>2014-04-05T09:43:31Z</time>
  </trkpt>
  <trkpt lat="32.657812" lon="-1.571117">
   <ele>1299.00</ele>
   <time>2014-04-05T09:43:33Z</time>
  </trkpt>
  <trkpt lat="32.658013" lon="-1.571142">
   <ele>1300.00</ele>
   <time>2014-04-05T09:43:35Z</time>
  </trkpt>
  <trkpt lat="32.658221" lon="-1.571163">
   <ele>1300.00</ele>
   <time>2014-04-05T09:43:37Z</time>
  </trkpt>
  <trkpt lat="32.658435" lon="-1.571155">
   <ele>1301.00</ele>
   <time>2014-04-05T09:43:39Z</time>
  </trkpt>
  <trkpt lat="32.658874" lon="-1.571130">
   <ele>1302.00</ele>
   <time>2014-04-05T09:43:43Z</time>
  </trkpt>
  <trkpt lat="32.659086" lon="-1.571151">
   <ele>1303.00</ele>
   <time>2014-04-05T09:43:45Z</time>
  </trkpt>
  <trkpt lat="32.659280" lon="-1.571211">
   <ele>1304.00</ele>
   <time>2014-04-05T09:43:47Z</time>
  </trkpt>
  <trkpt lat="32.659531" lon="-1.571285">
   <ele>1305.00</ele>
   <time>2014-04-05T09:43:50Z</time>
  </trkpt>
  <trkpt lat="32.659750" lon="-1.571372">
   <ele>1306.00</ele>
   <time>2014-04-05T09:43:53Z</time>
  </trkpt>
  <trkpt lat="32.659937" lon="-1.571546">
   <ele>1306.00</ele>
   <time>2014-04-05T09:43:56Z</time>
  </trkpt>
  <trkpt lat="32.660148" lon="-1.571686">
   <ele>1305.00</ele>
   <time>2014-04-05T09:43:59Z</time>
  </trkpt>
  <trkpt lat="32.660363" lon="-1.571812">
   <ele>1304.00</ele>
   <time>2014-04-05T09:44:02Z</time>
  </trkpt>
  <trkpt lat="32.660470" lon="-1.571997">
   <ele>1303.00</ele>
   <time>2014-04-05T09:44:05Z</time>
  </trkpt>
  <trkpt lat="32.660467" lon="-1.572242">
   <ele>1301.00</ele>
   <time>2014-04-05T09:44:08Z</time>
  </trkpt>
  <trkpt lat="32.660497" lon="-1.572494">
   <ele>1300.00</ele>
   <time>2014-04-05T09:44:11Z</time>
  </trkpt>
  <trkpt lat="32.660546" lon="-1.572721">
   <ele>1299.00</ele>
   <time>2014-04-05T09:44:14Z</time>
  </trkpt>
  <trkpt lat="32.660586" lon="-1.572954">
   <ele>1298.00</ele>
   <time>2014-04-05T09:44:17Z</time>
  </trkpt>
  <trkpt lat="32.660663" lon="-1.573168">
   <ele>1296.00</ele>
   <time>2014-04-05T09:44:20Z</time>
  </trkpt>
  <trkpt lat="32.660790" lon="-1.573390">
   <ele>1296.00</ele>
   <time>2014-04-05T09:44:24Z</time>
  </trkpt>
  <trkpt lat="32.660971" lon="-1.573504">
   <ele>1295.00</ele>
   <time>2014-04-05T09:44:27Z</time>
  </trkpt>
  <trkpt lat="32.661211" lon="-1.573544">
   <ele>1295.00</ele>
   <time>2014-04-05T09:44:30Z</time>
  </trkpt>
  <trkpt lat="32.661471" lon="-1.573575">
   <ele>1295.00</ele>
   <time>2014-04-05T09:44:33Z</time>
  </trkpt>
  <trkpt lat="32.661741" lon="-1.573570">
   <ele>1295.00</ele>
   <time>2014-04-05T09:44:36Z</time>
  </trkpt>
  <trkpt lat="32.662006" lon="-1.573546">
   <ele>1295.00</ele>
   <time>2014-04-05T09:44:39Z</time>
  </trkpt>
  <trkpt lat="32.662252" lon="-1.573485">
   <ele>1295.00</ele>
   <time>2014-04-05T09:44:42Z</time>
  </trkpt>
  <trkpt lat="32.662619" lon="-1.573300">
   <ele>1296.00</ele>
   <time>2014-04-05T09:44:47Z</time>
  </trkpt>
  <trkpt lat="32.662833" lon="-1.573162">
   <ele>1296.00</ele>
   <time>2014-04-05T09:44:50Z</time>
  </trkpt>
  <trkpt lat="32.663051" lon="-1.573006">
   <ele>1297.00</ele>
   <time>2014-04-05T09:44:53Z</time>
  </trkpt>
  <trkpt lat="32.663323" lon="-1.572787">
   <ele>1298.00</ele>
   <time>2014-04-05T09:44:57Z</time>
  </trkpt>
  <trkpt lat="32.663518" lon="-1.572650">
   <ele>1298.00</ele>
   <time>2014-04-05T09:45:00Z</time>
  </trkpt>
  <trkpt lat="32.663749" lon="-1.572389">
   <ele>1299.00</ele>
   <time>2014-04-05T09:45:04Z</time>
  </trkpt>
  <trkpt lat="32.663937" lon="-1.572215">
   <ele>1300.00</ele>
   <time>2014-04-05T09:45:07Z</time>
  </trkpt>
  <trkpt lat="32.664120" lon="-1.572010">
   <ele>1300.00</ele>
   <time>2014-04-05T09:45:10Z</time>
  </trkpt>
  <trkpt lat="32.664275" lon="-1.571766">
   <ele>1300.00</ele>
   <time>2014-04-05T09:45:13Z</time>
  </trkpt>
  <trkpt lat="32.664418" lon="-1.571504">
   <ele>1301.00</ele>
   <time>2014-04-05T09:45:16Z</time>
  </trkpt>
  <trkpt lat="32.664595" lon="-1.571210">
   <ele>1301.00</ele>
   <time>2014-04-05T09:45:20Z</time>
  </trkpt>
  <trkpt lat="32.664672" lon="-1.571005">
   <ele>1301.00</ele>
   <time>2014-04-05T09:45:23Z</time>
  </trkpt>
  <trkpt lat="32.664819" lon="-1.570833">
   <ele>1301.00</ele>
   <time>2014-04-05T09:45:26Z</time>
  </trkpt>
  <trkpt lat="32.664971" lon="-1.570729">
   <ele>1302.00</ele>
   <time>2014-04-05T09:45:31Z</time>
  </trkpt>
  <trkpt lat="32.664973" lon="-1.570937">
   <ele>1302.00</ele>
   <time>2014-04-05T09:45:38Z</time>
  </trkpt>
  <trkpt lat="32.665161" lon="-1.571034">
   <ele>1301.00</ele>
   <time>2014-04-05T09:45:44Z</time>
  </trkpt>
  <trkpt lat="32.665361" lon="-1.570978">
   <ele>1301.00</ele>
   <time>2014-04-05T09:45:48Z</time>
  </trkpt>
  <trkpt lat="32.665558" lon="-1.570964">
   <ele>1302.00</ele>
   <time>2014-04-05T09:45:53Z</time>
  </trkpt>
  <trkpt lat="32.665716" lon="-1.571066">
   <ele>1303.00</ele>
   <time>2014-04-05T09:45:57Z</time>
  </trkpt>
  <trkpt lat="32.665939" lon="-1.571275">
   <ele>1303.00</ele>
   <time>2014-04-05T09:46:03Z</time>
  </trkpt>
  <trkpt lat="32.666113" lon="-1.571481">
   <ele>1305.00</ele>
   <time>2014-04-05T09:46:08Z</time>
  </trkpt>
  <trkpt lat="32.666342" lon="-1.571517">
   <ele>1305.00</ele>
   <time>2014-04-05T09:46:12Z</time>
  </trkpt>
  <trkpt lat="32.666561" lon="-1.571493">
   <ele>1306.00</ele>
   <time>2014-04-05T09:46:15Z</time>
  </trkpt>
  <trkpt lat="32.666794" lon="-1.571439">
   <ele>1306.00</ele>
   <time>2014-04-05T09:46:18Z</time>
  </trkpt>
  <trkpt lat="32.667046" lon="-1.571387">
   <ele>1306.00</ele>
   <time>2014-04-05T09:46:21Z</time>
  </trkpt>
  <trkpt lat="32.667388" lon="-1.571320">
   <ele>1307.00</ele>
   <time>2014-04-05T09:46:25Z</time>
  </trkpt>
  <trkpt lat="32.667645" lon="-1.571268">
   <ele>1308.00</ele>
   <time>2014-04-05T09:46:28Z</time>
  </trkpt>
  <trkpt lat="32.668107" lon="-1.571103">
   <ele>1309.00</ele>
   <time>2014-04-05T09:46:33Z</time>
  </trkpt>
  <trkpt lat="32.668295" lon="-1.571009">
   <ele>1309.00</ele>
   <time>2014-04-05T09:46:35Z</time>
  </trkpt>
  <trkpt lat="32.668670" lon="-1.570809">
   <ele>1310.00</ele>
   <time>2014-04-05T09:46:39Z</time>
  </trkpt>
  <trkpt lat="32.668844" lon="-1.570679">
   <ele>1310.00</ele>
   <time>2014-04-05T09:46:41Z</time>
  </trkpt>
  <trkpt lat="32.669023" lon="-1.570556">
   <ele>1311.00</ele>
   <time>2014-04-05T09:46:43Z</time>
  </trkpt>
  <trkpt lat="32.669498" lon="-1.570289">
   <ele>1312.00</ele>
   <time>2014-04-05T09:46:48Z</time>
  </trkpt>
  <trkpt lat="32.669672" lon="-1.570209">
   <ele>1312.00</ele>
   <time>2014-04-05T09:46:50Z</time>
  </trkpt>
  <trkpt lat="32.669934" lon="-1.570177">
   <ele>1312.00</ele>
   <time>2014-04-05T09:46:53Z</time>
  </trkpt>
  <trkpt lat="32.670119" lon="-1.570219">
   <ele>1313.00</ele>
   <time>2014-04-05T09:46:55Z</time>
  </trkpt>
  <trkpt lat="32.670706" lon="-1.570435">
   <ele>1313.00</ele>
   <time>2014-04-05T09:47:01Z</time>
  </trkpt>
  <trkpt lat="32.670889" lon="-1.570552">
   <ele>1313.00</ele>
   <time>2014-04-05T09:47:03Z</time>
  </trkpt>
  <trkpt lat="32.671060" lon="-1.570700">
   <ele>1313.00</ele>
   <time>2014-04-05T09:47:05Z</time>
  </trkpt>
  <trkpt lat="32.671225" lon="-1.570859">
   <ele>1312.00</ele>
   <time>2014-04-05T09:47:07Z</time>
  </trkpt>
  <trkpt lat="32.671465" lon="-1.571110">
   <ele>1312.00</ele>
   <time>2014-04-05T09:47:10Z</time>
  </trkpt>
  <trkpt lat="32.671612" lon="-1.571282">
   <ele>1311.00</ele>
   <time>2014-04-05T09:47:12Z</time>
  </trkpt>
  <trkpt lat="32.671778" lon="-1.571424">
   <ele>1311.00</ele>
   <time>2014-04-05T09:47:14Z</time>
  </trkpt>
  <trkpt lat="32.671971" lon="-1.571523">
   <ele>1311.00</ele>
   <time>2014-04-05T09:47:16Z</time>
  </trkpt>
  <trkpt lat="32.672177" lon="-1.571583">
   <ele>1311.00</ele>
   <time>2014-04-05T09:47:18Z</time>
  </trkpt>
  <trkpt lat="32.672486" lon="-1.571658">
   <ele>1311.00</ele>
   <time>2014-04-05T09:47:21Z</time>
  </trkpt>
  <trkpt lat="32.672697" lon="-1.571693">
   <ele>1311.00</ele>
   <time>2014-04-05T09:47:23Z</time>
  </trkpt>
  <trkpt lat="32.672916" lon="-1.571693">
   <ele>1311.00</ele>
   <time>2014-04-05T09:47:25Z</time>
  </trkpt>
  <trkpt lat="32.673136" lon="-1.571650">
   <ele>1312.00</ele>
   <time>2014-04-05T09:47:27Z</time>
  </trkpt>
  <trkpt lat="32.673352" lon="-1.571569">
   <ele>1312.00</ele>
   <time>2014-04-05T09:47:29Z</time>
  </trkpt>
  <trkpt lat="32.673554" lon="-1.571465">
   <ele>1312.00</ele>
   <time>2014-04-05T09:47:31Z</time>
  </trkpt>
  <trkpt lat="32.673743" lon="-1.571331">
   <ele>1313.00</ele>
   <time>2014-04-05T09:47:33Z</time>
  </trkpt>
  <trkpt lat="32.673932" lon="-1.571193">
   <ele>1313.00</ele>
   <time>2014-04-05T09:47:35Z</time>
  </trkpt>
  <trkpt lat="32.674130" lon="-1.571070">
   <ele>1314.00</ele>
   <time>2014-04-05T09:47:37Z</time>
  </trkpt>
  <trkpt lat="32.674426" lon="-1.570908">
   <ele>1314.00</ele>
   <time>2014-04-05T09:47:40Z</time>
  </trkpt>
  <trkpt lat="32.674693" lon="-1.570751">
   <ele>1314.00</ele>
   <time>2014-04-05T09:47:43Z</time>
  </trkpt>
  <trkpt lat="32.674871" lon="-1.570708">
   <ele>1314.00</ele>
   <time>2014-04-05T09:47:45Z</time>
  </trkpt>
  <trkpt lat="32.675129" lon="-1.570795">
   <ele>1315.00</ele>
   <time>2014-04-05T09:47:48Z</time>
  </trkpt>
  <trkpt lat="32.675297" lon="-1.570908">
   <ele>1315.00</ele>
   <time>2014-04-05T09:47:50Z</time>
  </trkpt>
  <trkpt lat="32.675467" lon="-1.571023">
   <ele>1315.00</ele>
   <time>2014-04-05T09:47:52Z</time>
  </trkpt>
  <trkpt lat="32.675647" lon="-1.571119">
   <ele>1315.00</ele>
   <time>2014-04-05T09:47:54Z</time>
  </trkpt>
  <trkpt lat="32.675832" lon="-1.571182">
   <ele>1315.00</ele>
   <time>2014-04-05T09:47:56Z</time>
  </trkpt>
  <trkpt lat="32.676013" lon="-1.571210">
   <ele>1315.00</ele>
   <time>2014-04-05T09:47:58Z</time>
  </trkpt>
  <trkpt lat="32.676199" lon="-1.571259">
   <ele>1314.00</ele>
   <time>2014-04-05T09:48:01Z</time>
  </trkpt>
  <trkpt lat="32.676298" lon="-1.571413">
   <ele>1312.00</ele>
   <time>2014-04-05T09:48:15Z</time>
  </trkpt>
  <trkpt lat="32.676251" lon="-1.571619">
   <ele>1310.00</ele>
   <time>2014-04-05T09:48:19Z</time>
  </trkpt>
  <trkpt lat="32.676178" lon="-1.571826">
   <ele>1309.00</ele>
   <time>2014-04-05T09:48:22Z</time>
  </trkpt>
  <trkpt lat="32.676097" lon="-1.572050">
   <ele>1308.00</ele>
   <time>2014-04-05T09:48:25Z</time>
  </trkpt>
  <trkpt lat="32.676022" lon="-1.572273">
   <ele>1307.00</ele>
   <time>2014-04-05T09:48:28Z</time>
  </trkpt>
  <trkpt lat="32.676021" lon="-1.572501">
   <ele>1306.00</ele>
   <time>2014-04-05T09:48:31Z</time>
  </trkpt>
  <trkpt lat="32.676036" lon="-1.572749">
   <ele>1306.00</ele>
   <time>2014-04-05T09:48:34Z</time>
  </trkpt>
  <trkpt lat="32.676031" lon="-1.573091">
   <ele>1305.00</ele>
   <time>2014-04-05T09:48:38Z</time>
  </trkpt>
  <trkpt lat="32.676060" lon="-1.573332">
   <ele>1305.00</ele>
   <time>2014-04-05T09:48:41Z</time>
  </trkpt>
  <trkpt lat="32.676152" lon="-1.573899">
   <ele>1304.00</ele>
   <time>2014-04-05T09:48:49Z</time>
  </trkpt>
  <trkpt lat="32.676244" lon="-1.574089">
   <ele>1304.00</ele>
   <time>2014-04-05T09:48:52Z</time>
  </trkpt>
  <trkpt lat="32.676380" lon="-1.574234">
   <ele>1304.00</ele>
   <time>2014-04-05T09:48:55Z</time>
  </trkpt>
  <trkpt lat="32.676546" lon="-1.574489">
   <ele>1304.00</ele>
   <time>2014-04-05T09:48:59Z</time>
  </trkpt>
  <trkpt lat="32.676674" lon="-1.574682">
   <ele>1303.00</ele>
   <time>2014-04-05T09:49:02Z</time>
  </trkpt>
  <trkpt lat="32.676765" lon="-1.574898">
   <ele>1303.00</ele>
   <time>2014-04-05T09:49:05Z</time>
  </trkpt>
  <trkpt lat="32.676835" lon="-1.575134">
   <ele>1303.00</ele>
   <time>2014-04-05T09:49:08Z</time>
  </trkpt>
  <trkpt lat="32.676830" lon="-1.575411">
   <ele>1302.00</ele>
   <time>2014-04-05T09:49:11Z</time>
  </trkpt>
  <trkpt lat="32.676792" lon="-1.575935">
   <ele>1301.00</ele>
   <time>2014-04-05T09:49:16Z</time>
  </trkpt>
  <trkpt lat="32.676769" lon="-1.576267">
   <ele>1300.00</ele>
   <time>2014-04-05T09:49:19Z</time>
  </trkpt>
  <trkpt lat="32.676741" lon="-1.576572">
   <ele>1299.00</ele>
   <time>2014-04-05T09:49:22Z</time>
  </trkpt>
  <trkpt lat="32.676817" lon="-1.576861">
   <ele>1299.00</ele>
   <time>2014-04-05T09:49:25Z</time>
  </trkpt>
  <trkpt lat="32.676986" lon="-1.577097">
   <ele>1299.00</ele>
   <time>2014-04-05T09:49:28Z</time>
  </trkpt>
  <trkpt lat="32.677279" lon="-1.577462">
   <ele>1298.00</ele>
   <time>2014-04-05T09:49:34Z</time>
  </trkpt>
  <trkpt lat="32.677404" lon="-1.577653">
   <ele>1298.00</ele>
   <time>2014-04-05T09:49:37Z</time>
  </trkpt>
  <trkpt lat="32.677514" lon="-1.577876">
   <ele>1298.00</ele>
   <time>2014-04-05T09:49:40Z</time>
  </trkpt>
  <trkpt lat="32.677624" lon="-1.578076">
   <ele>1298.00</ele>
   <time>2014-04-05T09:49:43Z</time>
  </trkpt>
  <trkpt lat="32.677755" lon="-1.578266">
   <ele>1297.00</ele>
   <time>2014-04-05T09:49:46Z</time>
  </trkpt>
  <trkpt lat="32.677893" lon="-1.578468">
   <ele>1297.00</ele>
   <time>2014-04-05T09:49:49Z</time>
  </trkpt>
  <trkpt lat="32.678034" lon="-1.578669">
   <ele>1297.00</ele>
   <time>2014-04-05T09:49:52Z</time>
  </trkpt>
  <trkpt lat="32.678110" lon="-1.578878">
   <ele>1296.00</ele>
   <time>2014-04-05T09:49:56Z</time>
  </trkpt>
  <trkpt lat="32.678157" lon="-1.579089">
   <ele>1296.00</ele>
   <time>2014-04-05T09:50:00Z</time>
  </trkpt>
  <trkpt lat="32.678188" lon="-1.579361">
   <ele>1295.00</ele>
   <time>2014-04-05T09:50:04Z</time>
  </trkpt>
  <trkpt lat="32.678221" lon="-1.579577">
   <ele>1294.00</ele>
   <time>2014-04-05T09:50:07Z</time>
  </trkpt>
  <trkpt lat="32.678267" lon="-1.579851">
   <ele>1294.00</ele>
   <time>2014-04-05T09:50:11Z</time>
  </trkpt>
  <trkpt lat="32.678411" lon="-1.580041">
   <ele>1294.00</ele>
   <time>2014-04-05T09:50:15Z</time>
  </trkpt>
  <trkpt lat="32.678632" lon="-1.580117">
   <ele>1294.00</ele>
   <time>2014-04-05T09:50:19Z</time>
  </trkpt>
  <trkpt lat="32.678811" lon="-1.580289">
   <ele>1294.00</ele>
   <time>2014-04-05T09:50:23Z</time>
  </trkpt>
  <trkpt lat="32.678791" lon="-1.580524">
   <ele>1295.00</ele>
   <time>2014-04-05T09:50:27Z</time>
  </trkpt>
  <trkpt lat="32.678712" lon="-1.580739">
   <ele>1295.00</ele>
   <time>2014-04-05T09:50:30Z</time>
  </trkpt>
  <trkpt lat="32.678635" lon="-1.580977">
   <ele>1295.00</ele>
   <time>2014-04-05T09:50:33Z</time>
  </trkpt>
  <trkpt lat="32.678376" lon="-1.581955">
   <ele>1298.00</ele>
   <time>2014-04-05T09:50:46Z</time>
  </trkpt>
  <trkpt lat="32.678271" lon="-1.582322">
   <ele>1299.00</ele>
   <time>2014-04-05T09:50:51Z</time>
  </trkpt>
  <trkpt lat="32.678209" lon="-1.582577">
   <ele>1300.00</ele>
   <time>2014-04-05T09:50:55Z</time>
  </trkpt>
  <trkpt lat="32.678148" lon="-1.582802">
   <ele>1301.00</ele>
   <time>2014-04-05T09:50:58Z</time>
  </trkpt>
  <trkpt lat="32.677737" lon="-1.584206">
   <ele>1300.00</ele>
   <time>2014-04-05T09:51:14Z</time>
  </trkpt>
  <trkpt lat="32.677734" lon="-1.584410">
   <ele>1300.00</ele>
   <time>2014-04-05T09:51:18Z</time>
  </trkpt>
  <trkpt lat="32.677933" lon="-1.584341">
   <ele>1299.00</ele>
   <time>2014-04-05T09:51:23Z</time>
  </trkpt>
  <trkpt lat="32.678073" lon="-1.584196">
   <ele>1300.00</ele>
   <time>2014-04-05T09:51:26Z</time>
  </trkpt>
  <trkpt lat="32.678251" lon="-1.583971">
   <ele>1301.00</ele>
   <time>2014-04-05T09:51:31Z</time>
  </trkpt>
  <trkpt lat="32.678314" lon="-1.583900">
   <ele>1303.00</ele>
   <time>2014-04-05T09:51:47Z</time>
  </trkpt>
  <trkpt lat="32.678338" lon="-1.583893">
   <ele>1305.00</ele>
   <time>2014-04-05T09:52:02Z</time>
  </trkpt>
  <trkpt lat="32.678346" lon="-1.583894">
   <ele>1306.00</ele>
   <time>2014-04-05T09:52:18Z</time>
  </trkpt>
  <trkpt lat="32.678349" lon="-1.583894">
   <ele>1307.00</ele>
   <time>2014-04-05T09:52:34Z</time>
  </trkpt>
  <trkpt lat="32.678348" lon="-1.583894">
   <ele>1307.00</ele>
   <time>2014-04-05T09:52:49Z</time>
  </trkpt>
  <trkpt lat="32.678345" lon="-1.583900">
   <ele>1308.00</ele>
   <time>2014-04-05T09:53:05Z</time>
  </trkpt>
  <trkpt lat="32.678348" lon="-1.583903">
   <ele>1308.00</ele>
   <time>2014-04-05T09:53:21Z</time>
  </trkpt>
  <trkpt lat="32.678359" lon="-1.583904">
   <ele>1308.00</ele>
   <time>2014-04-05T09:53:37Z</time>
  </trkpt>
  <trkpt lat="32.678501" lon="-1.583728">
   <ele>1307.00</ele>
   <time>2014-04-05T09:53:43Z</time>
  </trkpt>
  <trkpt lat="32.678662" lon="-1.583581">
   <ele>1307.00</ele>
   <time>2014-04-05T09:53:46Z</time>
  </trkpt>
  <trkpt lat="32.679056" lon="-1.583234">
   <ele>1307.00</ele>
   <time>2014-04-05T09:53:52Z</time>
  </trkpt>
  <trkpt lat="32.679277" lon="-1.583109">
   <ele>1306.00</ele>
   <time>2014-04-05T09:53:55Z</time>
  </trkpt>
  <trkpt lat="32.679505" lon="-1.583034">
   <ele>1305.00</ele>
   <time>2014-04-05T09:53:58Z</time>
  </trkpt>
  <trkpt lat="32.679729" lon="-1.583038">
   <ele>1305.00</ele>
   <time>2014-04-05T09:54:01Z</time>
  </trkpt>
  <trkpt lat="32.680200" lon="-1.583236">
   <ele>1305.00</ele>
   <time>2014-04-05T09:54:07Z</time>
  </trkpt>
  <trkpt lat="32.680428" lon="-1.583348">
   <ele>1305.00</ele>
   <time>2014-04-05T09:54:10Z</time>
  </trkpt>
  <trkpt lat="32.680692" lon="-1.583512">
   <ele>1305.00</ele>
   <time>2014-04-05T09:54:14Z</time>
  </trkpt>
  <trkpt lat="32.680838" lon="-1.583695">
   <ele>1305.00</ele>
   <time>2014-04-05T09:54:18Z</time>
  </trkpt>
  <trkpt lat="32.680917" lon="-1.583893">
   <ele>1305.00</ele>
   <time>2014-04-05T09:54:21Z</time>
  </trkpt>
  <trkpt lat="32.680990" lon="-1.584148">
   <ele>1304.00</ele>
   <time>2014-04-05T09:54:24Z</time>
  </trkpt>
  <trkpt lat="32.681040" lon="-1.584439">
   <ele>1303.00</ele>
   <time>2014-04-05T09:54:27Z</time>
  </trkpt>
  <trkpt lat="32.681057" lon="-1.584655">
   <ele>1302.00</ele>
   <time>2014-04-05T09:54:29Z</time>
  </trkpt>
  <trkpt lat="32.681062" lon="-1.584982">
   <ele>1301.00</ele>
   <time>2014-04-05T09:54:32Z</time>
  </trkpt>
  <trkpt lat="32.681099" lon="-1.585192">
   <ele>1300.00</ele>
   <time>2014-04-05T09:54:34Z</time>
  </trkpt>
  <trkpt lat="32.681178" lon="-1.585385">
   <ele>1299.00</ele>
   <time>2014-04-05T09:54:36Z</time>
  </trkpt>
  <trkpt lat="32.681287" lon="-1.585559">
   <ele>1299.00</ele>
   <time>2014-04-05T09:54:38Z</time>
  </trkpt>
  <trkpt lat="32.681394" lon="-1.585734">
   <ele>1298.00</ele>
   <time>2014-04-05T09:54:40Z</time>
  </trkpt>
  <trkpt lat="32.681544" lon="-1.586007">
   <ele>1298.00</ele>
   <time>2014-04-05T09:54:43Z</time>
  </trkpt>
  <trkpt lat="32.681660" lon="-1.586177">
   <ele>1298.00</ele>
   <time>2014-04-05T09:54:45Z</time>
  </trkpt>
  <trkpt lat="32.681776" lon="-1.586345">
   <ele>1298.00</ele>
   <time>2014-04-05T09:54:47Z</time>
  </trkpt>
  <trkpt lat="32.681865" lon="-1.586534">
   <ele>1298.00</ele>
   <time>2014-04-05T09:54:49Z</time>
  </trkpt>
  <trkpt lat="32.681927" lon="-1.586738">
   <ele>1297.00</ele>
   <time>2014-04-05T09:54:51Z</time>
  </trkpt>
  <trkpt lat="32.681987" lon="-1.586939">
   <ele>1297.00</ele>
   <time>2014-04-05T09:54:53Z</time>
  </trkpt>
  <trkpt lat="32.682138" lon="-1.587196">
   <ele>1297.00</ele>
   <time>2014-04-05T09:54:56Z</time>
  </trkpt>
  <trkpt lat="32.682246" lon="-1.587470">
   <ele>1297.00</ele>
   <time>2014-04-05T09:54:59Z</time>
  </trkpt>
  <trkpt lat="32.682384" lon="-1.587955">
   <ele>1297.00</ele>
   <time>2014-04-05T09:55:04Z</time>
  </trkpt>
  <trkpt lat="32.682520" lon="-1.588209">
   <ele>1298.00</ele>
   <time>2014-04-05T09:55:07Z</time>
  </trkpt>
  <trkpt lat="32.682708" lon="-1.588413">
   <ele>1299.00</ele>
   <time>2014-04-05T09:55:10Z</time>
  </trkpt>
  <trkpt lat="32.682935" lon="-1.588573">
   <ele>1300.00</ele>
   <time>2014-04-05T09:55:13Z</time>
  </trkpt>
  <trkpt lat="32.683099" lon="-1.588661">
   <ele>1301.00</ele>
   <time>2014-04-05T09:55:15Z</time>
  </trkpt>
  <trkpt lat="32.683358" lon="-1.588766">
   <ele>1303.00</ele>
   <time>2014-04-05T09:55:18Z</time>
  </trkpt>
  <trkpt lat="32.683611" lon="-1.588785">
   <ele>1304.00</ele>
   <time>2014-04-05T09:55:21Z</time>
  </trkpt>
  <trkpt lat="32.683846" lon="-1.588681">
   <ele>1305.00</ele>
   <time>2014-04-05T09:55:24Z</time>
  </trkpt>
  <trkpt lat="32.684045" lon="-1.588505">
   <ele>1307.00</ele>
   <time>2014-04-05T09:55:27Z</time>
  </trkpt>
  <trkpt lat="32.684295" lon="-1.588255">
   <ele>1309.00</ele>
   <time>2014-04-05T09:55:31Z</time>
  </trkpt>
  <trkpt lat="32.684532" lon="-1.588010">
   <ele>1311.00</ele>
   <time>2014-04-05T09:55:35Z</time>
  </trkpt>
  <trkpt lat="32.684704" lon="-1.587918">
   <ele>1311.00</ele>
   <time>2014-04-05T09:55:39Z</time>
  </trkpt>
  <trkpt lat="32.684903" lon="-1.588016">
   <ele>1311.00</ele>
   <time>2014-04-05T09:55:44Z</time>
  </trkpt>
  <trkpt lat="32.685095" lon="-1.588129">
   <ele>1310.00</ele>
   <time>2014-04-05T09:55:48Z</time>
  </trkpt>
  <trkpt lat="32.685329" lon="-1.588310">
   <ele>1308.00</ele>
   <time>2014-04-05T09:55:53Z</time>
  </trkpt>
  <trkpt lat="32.685584" lon="-1.588459">
   <ele>1306.00</ele>
   <time>2014-04-05T09:55:58Z</time>
  </trkpt>
  <trkpt lat="32.685781" lon="-1.588421">
   <ele>1305.00</ele>
   <time>2014-04-05T09:56:02Z</time>
  </trkpt>
  <trkpt lat="32.685940" lon="-1.588313">
   <ele>1303.00</ele>
   <time>2014-04-05T09:56:06Z</time>
  </trkpt>
  <trkpt lat="32.685917" lon="-1.588114">
   <ele>1302.00</ele>
   <time>2014-04-05T09:56:11Z</time>
  </trkpt>
  <trkpt lat="32.686018" lon="-1.587943">
   <ele>1300.00</ele>
   <time>2014-04-05T09:56:17Z</time>
  </trkpt>
  <trkpt lat="32.686184" lon="-1.588001">
   <ele>1299.00</ele>
   <time>2014-04-05T09:56:23Z</time>
  </trkpt>
  <trkpt lat="32.686285" lon="-1.588204">
   <ele>1298.00</ele>
   <time>2014-04-05T09:56:30Z</time>
  </trkpt>
  <trkpt lat="32.686438" lon="-1.588353">
   <ele>1298.00</ele>
   <time>2014-04-05T09:56:39Z</time>
  </trkpt>
  <trkpt lat="32.686615" lon="-1.588436">
   <ele>1297.00</ele>
   <time>2014-04-05T09:56:48Z</time>
  </trkpt>
  <trkpt lat="32.686814" lon="-1.588429">
   <ele>1296.00</ele>
   <time>2014-04-05T09:56:55Z</time>
  </trkpt>
  <trkpt lat="32.687003" lon="-1.588378">
   <ele>1295.00</ele>
   <time>2014-04-05T09:57:01Z</time>
  </trkpt>
  <trkpt lat="32.687212" lon="-1.588313">
   <ele>1295.00</ele>
   <time>2014-04-05T09:57:06Z</time>
  </trkpt>
  <trkpt lat="32.687601" lon="-1.588203">
   <ele>1292.00</ele>
   <time>2014-04-05T09:57:13Z</time>
  </trkpt>
  <trkpt lat="32.687838" lon="-1.588165">
   <ele>1291.00</ele>
   <time>2014-04-05T09:57:17Z</time>
  </trkpt>
  <trkpt lat="32.688022" lon="-1.588174">
   <ele>1289.00</ele>
   <time>2014-04-05T09:57:20Z</time>
  </trkpt>
  <trkpt lat="32.688278" lon="-1.588209">
   <ele>1288.00</ele>
   <time>2014-04-05T09:57:24Z</time>
  </trkpt>
  <trkpt lat="32.688536" lon="-1.588260">
   <ele>1286.00</ele>
   <time>2014-04-05T09:57:28Z</time>
  </trkpt>
  <trkpt lat="32.688723" lon="-1.588298">
   <ele>1284.00</ele>
   <time>2014-04-05T09:57:32Z</time>
  </trkpt>
  <trkpt lat="32.688908" lon="-1.588322">
   <ele>1283.00</ele>
   <time>2014-04-05T09:57:36Z</time>
  </trkpt>
  <trkpt lat="32.689108" lon="-1.588250">
   <ele>1282.00</ele>
   <time>2014-04-05T09:57:40Z</time>
  </trkpt>
  <trkpt lat="32.689449" lon="-1.588075">
   <ele>1279.00</ele>
   <time>2014-04-05T09:57:46Z</time>
  </trkpt>
  <trkpt lat="32.689644" lon="-1.588024">
   <ele>1278.00</ele>
   <time>2014-04-05T09:57:49Z</time>
  </trkpt>
  <trkpt lat="32.690013" lon="-1.587984">
   <ele>1277.00</ele>
   <time>2014-04-05T09:57:54Z</time>
  </trkpt>
  <trkpt lat="32.690241" lon="-1.587973">
   <ele>1277.00</ele>
   <time>2014-04-05T09:57:57Z</time>
  </trkpt>
  <trkpt lat="32.690458" lon="-1.587955">
   <ele>1276.00</ele>
   <time>2014-04-05T09:58:00Z</time>
  </trkpt>
  <trkpt lat="32.690674" lon="-1.587949">
   <ele>1276.00</ele>
   <time>2014-04-05T09:58:03Z</time>
  </trkpt>
  <trkpt lat="32.690894" lon="-1.587974">
   <ele>1276.00</ele>
   <time>2014-04-05T09:58:06Z</time>
  </trkpt>
  <trkpt lat="32.691111" lon="-1.588024">
   <ele>1275.00</ele>
   <time>2014-04-05T09:58:09Z</time>
  </trkpt>
  <trkpt lat="32.691339" lon="-1.588061">
   <ele>1274.00</ele>
   <time>2014-04-05T09:58:12Z</time>
  </trkpt>
  <trkpt lat="32.691575" lon="-1.588068">
   <ele>1273.00</ele>
   <time>2014-04-05T09:58:15Z</time>
  </trkpt>
  <trkpt lat="32.691794" lon="-1.588026">
   <ele>1272.00</ele>
   <time>2014-04-05T09:58:18Z</time>
  </trkpt>
  <trkpt lat="32.691980" lon="-1.588040">
   <ele>1272.00</ele>
   <time>2014-04-05T09:58:21Z</time>
  </trkpt>
  <trkpt lat="32.692153" lon="-1.588167">
   <ele>1271.00</ele>
   <time>2014-04-05T09:58:26Z</time>
  </trkpt>
  <trkpt lat="32.692302" lon="-1.588298">
   <ele>1269.00</ele>
   <time>2014-04-05T09:58:30Z</time>
  </trkpt>
  <trkpt lat="32.692463" lon="-1.588473">
   <ele>1268.00</ele>
   <time>2014-04-05T09:58:34Z</time>
  </trkpt>
  <trkpt lat="32.692648" lon="-1.588648">
   <ele>1267.00</ele>
   <time>2014-04-05T09:58:39Z</time>
  </trkpt>
  <trkpt lat="32.692878" lon="-1.588697">
   <ele>1267.00</ele>
   <time>2014-04-05T09:58:43Z</time>
  </trkpt>
  <trkpt lat="32.693085" lon="-1.588717">
   <ele>1267.00</ele>
   <time>2014-04-05T09:58:46Z</time>
  </trkpt>
  <trkpt lat="32.693283" lon="-1.588775">
   <ele>1267.00</ele>
   <time>2014-04-05T09:58:49Z</time>
  </trkpt>
  <trkpt lat="32.693487" lon="-1.588816">
   <ele>1266.00</ele>
   <time>2014-04-05T09:58:52Z</time>
  </trkpt>
  <trkpt lat="32.693673" lon="-1.588839">
   <ele>1266.00</ele>
   <time>2014-04-05T09:58:55Z</time>
  </trkpt>
  <trkpt lat="32.693875" lon="-1.588857">
   <ele>1266.00</ele>
   <time>2014-04-05T09:58:59Z</time>
  </trkpt>
  <trkpt lat="32.694107" lon="-1.588722">
   <ele>1266.00</ele>
   <time>2014-04-05T09:59:04Z</time>
  </trkpt>
  <trkpt lat="32.694287" lon="-1.588850">
   <ele>1265.00</ele>
   <time>2014-04-05T09:59:09Z</time>
  </trkpt>
  <trkpt lat="32.694388" lon="-1.589086">
   <ele>1265.00</ele>
   <time>2014-04-05T09:59:13Z</time>
  </trkpt>
  <trkpt lat="32.694525" lon="-1.589302">
   <ele>1265.00</ele>
   <time>2014-04-05T09:59:17Z</time>
  </trkpt>
  <trkpt lat="32.694741" lon="-1.589347">
   <ele>1264.00</ele>
   <time>2014-04-05T09:59:21Z</time>
  </trkpt>
  <trkpt lat="32.694888" lon="-1.589203">
   <ele>1264.00</ele>
   <time>2014-04-05T09:59:25Z</time>
  </trkpt>
  <trkpt lat="32.695021" lon="-1.589030">
   <ele>1264.00</ele>
   <time>2014-04-05T09:59:29Z</time>
  </trkpt>
  <trkpt lat="32.695221" lon="-1.588928">
   <ele>1263.00</ele>
   <time>2014-04-05T09:59:34Z</time>
  </trkpt>
  <trkpt lat="32.695432" lon="-1.588870">
   <ele>1262.00</ele>
   <time>2014-04-05T09:59:39Z</time>
  </trkpt>
  <trkpt lat="32.695671" lon="-1.588852">
   <ele>1262.00</ele>
   <time>2014-04-05T09:59:43Z</time>
  </trkpt>
  <trkpt lat="32.695870" lon="-1.588842">
   <ele>1262.00</ele>
   <time>2014-04-05T09:59:46Z</time>
  </trkpt>
  <trkpt lat="32.696084" lon="-1.588839">
   <ele>1261.00</ele>
   <time>2014-04-05T09:59:49Z</time>
  </trkpt>
  <trkpt lat="32.696931" lon="-1.588692">
   <ele>1261.00</ele>
   <time>2014-04-05T09:59:59Z</time>
  </trkpt>
  <trkpt lat="32.697109" lon="-1.588631">
   <ele>1260.00</ele>
   <time>2014-04-05T10:00:01Z</time>
  </trkpt>
  <trkpt lat="32.697278" lon="-1.588539">
   <ele>1260.00</ele>
   <time>2014-04-05T10:00:03Z</time>
  </trkpt>
  <trkpt lat="32.697525" lon="-1.588397">
   <ele>1260.00</ele>
   <time>2014-04-05T10:00:06Z</time>
  </trkpt>
  <trkpt lat="32.697779" lon="-1.588339">
   <ele>1260.00</ele>
   <time>2014-04-05T10:00:09Z</time>
  </trkpt>
  <trkpt lat="32.698011" lon="-1.588343">
   <ele>1261.00</ele>
   <time>2014-04-05T10:00:12Z</time>
  </trkpt>
  <trkpt lat="32.698219" lon="-1.588420">
   <ele>1261.00</ele>
   <time>2014-04-05T10:00:15Z</time>
  </trkpt>
  <trkpt lat="32.698422" lon="-1.588546">
   <ele>1260.00</ele>
   <time>2014-04-05T10:00:18Z</time>
  </trkpt>
  <trkpt lat="32.698612" lon="-1.588699">
   <ele>1259.00</ele>
   <time>2014-04-05T10:00:22Z</time>
  </trkpt>
  <trkpt lat="32.698807" lon="-1.588736">
   <ele>1259.00</ele>
   <time>2014-04-05T10:00:26Z</time>
  </trkpt>
  <trkpt lat="32.699086" lon="-1.588747">
   <ele>1259.00</ele>
   <time>2014-04-05T10:00:32Z</time>
  </trkpt>
  <trkpt lat="32.699256" lon="-1.588856">
   <ele>1258.00</ele>
   <time>2014-04-05T10:00:36Z</time>
  </trkpt>
  <trkpt lat="32.699392" lon="-1.589065">
   <ele>1257.00</ele>
   <time>2014-04-05T10:00:40Z</time>
  </trkpt>
  <trkpt lat="32.699522" lon="-1.589218">
   <ele>1257.00</ele>
   <time>2014-04-05T10:00:43Z</time>
  </trkpt>
  <trkpt lat="32.699691" lon="-1.589316">
   <ele>1257.00</ele>
   <time>2014-04-05T10:00:46Z</time>
  </trkpt>
  <trkpt lat="32.699920" lon="-1.589377">
   <ele>1257.00</ele>
   <time>2014-04-05T10:00:50Z</time>
  </trkpt>
  <trkpt lat="32.700274" lon="-1.589413">
   <ele>1256.00</ele>
   <time>2014-04-05T10:00:56Z</time>
  </trkpt>
  <trkpt lat="32.700558" lon="-1.589462">
   <ele>1255.00</ele>
   <time>2014-04-05T10:01:01Z</time>
  </trkpt>
  <trkpt lat="32.700789" lon="-1.589432">
   <ele>1255.00</ele>
   <time>2014-04-05T10:01:05Z</time>
  </trkpt>
  <trkpt lat="32.700969" lon="-1.589428">
   <ele>1254.00</ele>
   <time>2014-04-05T10:01:08Z</time>
  </trkpt>
  <trkpt lat="32.701155" lon="-1.589485">
   <ele>1254.00</ele>
   <time>2014-04-05T10:01:11Z</time>
  </trkpt>
  <trkpt lat="32.701399" lon="-1.589588">
   <ele>1254.00</ele>
   <time>2014-04-05T10:01:15Z</time>
  </trkpt>
  <trkpt lat="32.701828" lon="-1.589750">
   <ele>1254.00</ele>
   <time>2014-04-05T10:01:21Z</time>
  </trkpt>
  <trkpt lat="32.702075" lon="-1.589812">
   <ele>1253.00</ele>
   <time>2014-04-05T10:01:24Z</time>
  </trkpt>
  <trkpt lat="32.702345" lon="-1.589843">
   <ele>1253.00</ele>
   <time>2014-04-05T10:01:27Z</time>
  </trkpt>
  <trkpt lat="32.702640" lon="-1.589866">
   <ele>1253.00</ele>
   <time>2014-04-05T10:01:30Z</time>
  </trkpt>
  <trkpt lat="32.702933" lon="-1.589924">
   <ele>1253.00</ele>
   <time>2014-04-05T10:01:33Z</time>
  </trkpt>
  <trkpt lat="32.703127" lon="-1.589971">
   <ele>1253.00</ele>
   <time>2014-04-05T10:01:35Z</time>
  </trkpt>
  <trkpt lat="32.703309" lon="-1.590022">
   <ele>1253.00</ele>
   <time>2014-04-05T10:01:37Z</time>
  </trkpt>
  <trkpt lat="32.703551" lon="-1.590122">
   <ele>1253.00</ele>
   <time>2014-04-05T10:01:40Z</time>
  </trkpt>
  <trkpt lat="32.703788" lon="-1.590211">
   <ele>1253.00</ele>
   <time>2014-04-05T10:01:43Z</time>
  </trkpt>
  <trkpt lat="32.704035" lon="-1.590258">
   <ele>1253.00</ele>
   <time>2014-04-05T10:01:46Z</time>
  </trkpt>
  <trkpt lat="32.704263" lon="-1.590269">
   <ele>1253.00</ele>
   <time>2014-04-05T10:01:49Z</time>
  </trkpt>
  <trkpt lat="32.704476" lon="-1.590200">
   <ele>1254.00</ele>
   <time>2014-04-05T10:01:52Z</time>
  </trkpt>
  <trkpt lat="32.704654" lon="-1.590081">
   <ele>1255.00</ele>
   <time>2014-04-05T10:01:55Z</time>
  </trkpt>
  <trkpt lat="32.704808" lon="-1.589917">
   <ele>1255.00</ele>
   <time>2014-04-05T10:01:58Z</time>
  </trkpt>
  <trkpt lat="32.704939" lon="-1.589693">
   <ele>1256.00</ele>
   <time>2014-04-05T10:02:01Z</time>
  </trkpt>
  <trkpt lat="32.705050" lon="-1.589460">
   <ele>1256.00</ele>
   <time>2014-04-05T10:02:04Z</time>
  </trkpt>
  <trkpt lat="32.705172" lon="-1.589262">
   <ele>1255.00</ele>
   <time>2014-04-05T10:02:07Z</time>
  </trkpt>
  <trkpt lat="32.705350" lon="-1.589108">
   <ele>1255.00</ele>
   <time>2014-04-05T10:02:10Z</time>
  </trkpt>
  <trkpt lat="32.705521" lon="-1.588913">
   <ele>1255.00</ele>
   <time>2014-04-05T10:02:13Z</time>
  </trkpt>
  <trkpt lat="32.705771" lon="-1.588581">
   <ele>1255.00</ele>
   <time>2014-04-05T10:02:18Z</time>
  </trkpt>
  <trkpt lat="32.705940" lon="-1.588466">
   <ele>1254.00</ele>
   <time>2014-04-05T10:02:21Z</time>
  </trkpt>
  <trkpt lat="32.706137" lon="-1.588388">
   <ele>1254.00</ele>
   <time>2014-04-05T10:02:24Z</time>
  </trkpt>
  <trkpt lat="32.706322" lon="-1.588254">
   <ele>1254.00</ele>
   <time>2014-04-05T10:02:27Z</time>
  </trkpt>
  <trkpt lat="32.706480" lon="-1.588083">
   <ele>1254.00</ele>
   <time>2014-04-05T10:02:30Z</time>
  </trkpt>
  <trkpt lat="32.706618" lon="-1.587896">
   <ele>1254.00</ele>
   <time>2014-04-05T10:02:33Z</time>
  </trkpt>
  <trkpt lat="32.706746" lon="-1.587705">
   <ele>1253.00</ele>
   <time>2014-04-05T10:02:36Z</time>
  </trkpt>
  <trkpt lat="32.706923" lon="-1.587578">
   <ele>1253.00</ele>
   <time>2014-04-05T10:02:39Z</time>
  </trkpt>
  <trkpt lat="32.707133" lon="-1.587484">
   <ele>1252.00</ele>
   <time>2014-04-05T10:02:42Z</time>
  </trkpt>
  <trkpt lat="32.707536" lon="-1.587361">
   <ele>1252.00</ele>
   <time>2014-04-05T10:02:47Z</time>
  </trkpt>
  <trkpt lat="32.707776" lon="-1.587341">
   <ele>1251.00</ele>
   <time>2014-04-05T10:02:50Z</time>
  </trkpt>
  <trkpt lat="32.708009" lon="-1.587348">
   <ele>1252.00</ele>
   <time>2014-04-05T10:02:53Z</time>
  </trkpt>
  <trkpt lat="32.708230" lon="-1.587329">
   <ele>1252.00</ele>
   <time>2014-04-05T10:02:56Z</time>
  </trkpt>
  <trkpt lat="32.708430" lon="-1.587291">
   <ele>1252.00</ele>
   <time>2014-04-05T10:03:00Z</time>
  </trkpt>
  <trkpt lat="32.708588" lon="-1.587106">
   <ele>1252.00</ele>
   <time>2014-04-05T10:03:05Z</time>
  </trkpt>
  <trkpt lat="32.708770" lon="-1.586960">
   <ele>1251.00</ele>
   <time>2014-04-05T10:03:09Z</time>
  </trkpt>
  <trkpt lat="32.708990" lon="-1.586864">
   <ele>1251.00</ele>
   <time>2014-04-05T10:03:13Z</time>
  </trkpt>
  <trkpt lat="32.709231" lon="-1.586816">
   <ele>1251.00</ele>
   <time>2014-04-05T10:03:17Z</time>
  </trkpt>
  <trkpt lat="32.709406" lon="-1.586740">
   <ele>1251.00</ele>
   <time>2014-04-05T10:03:20Z</time>
  </trkpt>
  <trkpt lat="32.709591" lon="-1.586616">
   <ele>1251.00</ele>
   <time>2014-04-05T10:03:24Z</time>
  </trkpt>
  <trkpt lat="32.709775" lon="-1.586609">
   <ele>1252.00</ele>
   <time>2014-04-05T10:03:28Z</time>
  </trkpt>
  <trkpt lat="32.710011" lon="-1.586605">
   <ele>1252.00</ele>
   <time>2014-04-05T10:03:32Z</time>
  </trkpt>
  <trkpt lat="32.710227" lon="-1.586600">
   <ele>1252.00</ele>
   <time>2014-04-05T10:03:36Z</time>
  </trkpt>
  <trkpt lat="32.710457" lon="-1.586601">
   <ele>1252.00</ele>
   <time>2014-04-05T10:03:40Z</time>
  </trkpt>
  <trkpt lat="32.710679" lon="-1.586522">
   <ele>1252.00</ele>
   <time>2014-04-05T10:03:44Z</time>
  </trkpt>
  <trkpt lat="32.710868" lon="-1.586441">
   <ele>1252.00</ele>
   <time>2014-04-05T10:03:48Z</time>
  </trkpt>
  <trkpt lat="32.711039" lon="-1.586503">
   <ele>1251.00</ele>
   <time>2014-04-05T10:03:52Z</time>
  </trkpt>
  <trkpt lat="32.711241" lon="-1.586549">
   <ele>1250.00</ele>
   <time>2014-04-05T10:03:56Z</time>
  </trkpt>
  <trkpt lat="32.711479" lon="-1.586531">
   <ele>1249.00</ele>
   <time>2014-04-05T10:04:00Z</time>
  </trkpt>
  <trkpt lat="32.711655" lon="-1.586461">
   <ele>1249.00</ele>
   <time>2014-04-05T10:04:03Z</time>
  </trkpt>
  <trkpt lat="32.711792" lon="-1.586320">
   <ele>1249.00</ele>
   <time>2014-04-05T10:04:06Z</time>
  </trkpt>
  <trkpt lat="32.711929" lon="-1.586154">
   <ele>1249.00</ele>
   <time>2014-04-05T10:04:09Z</time>
  </trkpt>
  <trkpt lat="32.712089" lon="-1.586001">
   <ele>1249.00</ele>
   <time>2014-04-05T10:04:12Z</time>
  </trkpt>
  <trkpt lat="32.712239" lon="-1.585863">
   <ele>1249.00</ele>
   <time>2014-04-05T10:04:15Z</time>
  </trkpt>
  <trkpt lat="32.712413" lon="-1.585773">
   <ele>1249.00</ele>
   <time>2014-04-05T10:04:18Z</time>
  </trkpt>
  <trkpt lat="32.712672" lon="-1.585577">
   <ele>1249.00</ele>
   <time>2014-04-05T10:04:23Z</time>
  </trkpt>
  <trkpt lat="32.712821" lon="-1.585391">
   <ele>1248.00</ele>
   <time>2014-04-05T10:04:28Z</time>
  </trkpt>
  <trkpt lat="32.712964" lon="-1.585213">
   <ele>1248.00</ele>
   <time>2014-04-05T10:04:32Z</time>
  </trkpt>
  <trkpt lat="32.713180" lon="-1.585156">
   <ele>1248.00</ele>
   <time>2014-04-05T10:04:36Z</time>
  </trkpt>
  <trkpt lat="32.713414" lon="-1.585229">
   <ele>1248.00</ele>
   <time>2014-04-05T10:04:40Z</time>
  </trkpt>
  <trkpt lat="32.713606" lon="-1.585238">
   <ele>1248.00</ele>
   <time>2014-04-05T10:04:43Z</time>
  </trkpt>
  <trkpt lat="32.713807" lon="-1.585194">
   <ele>1248.00</ele>
   <time>2014-04-05T10:04:47Z</time>
  </trkpt>
  <trkpt lat="32.713992" lon="-1.585224">
   <ele>1248.00</ele>
   <time>2014-04-05T10:04:51Z</time>
  </trkpt>
  <trkpt lat="32.714173" lon="-1.585342">
   <ele>1248.00</ele>
   <time>2014-04-05T10:04:55Z</time>
  </trkpt>
  <trkpt lat="32.714357" lon="-1.585524">
   <ele>1247.00</ele>
   <time>2014-04-05T10:04:59Z</time>
  </trkpt>
  <trkpt lat="32.714524" lon="-1.585638">
   <ele>1247.00</ele>
   <time>2014-04-05T10:05:02Z</time>
  </trkpt>
  <trkpt lat="32.714737" lon="-1.585637">
   <ele>1247.00</ele>
   <time>2014-04-05T10:05:06Z</time>
  </trkpt>
  <trkpt lat="32.714912" lon="-1.585577">
   <ele>1248.00</ele>
   <time>2014-04-05T10:05:10Z</time>
  </trkpt>
  <trkpt lat="32.715083" lon="-1.585444">
   <ele>1248.00</ele>
   <time>2014-04-05T10:05:14Z</time>
  </trkpt>
  <trkpt lat="32.715250" lon="-1.585270">
   <ele>1248.00</ele>
   <time>2014-04-05T10:05:18Z</time>
  </trkpt>
  <trkpt lat="32.715378" lon="-1.585117">
   <ele>1248.00</ele>
   <time>2014-04-05T10:05:21Z</time>
  </trkpt>
  <trkpt lat="32.715588" lon="-1.585067">
   <ele>1248.00</ele>
   <time>2014-04-05T10:05:25Z</time>
  </trkpt>
  <trkpt lat="32.715805" lon="-1.585009">
   <ele>1248.00</ele>
   <time>2014-04-05T10:05:29Z</time>
  </trkpt>
  <trkpt lat="32.716034" lon="-1.584995">
   <ele>1247.00</ele>
   <time>2014-04-05T10:05:33Z</time>
  </trkpt>
  <trkpt lat="32.716244" lon="-1.585095">
   <ele>1247.00</ele>
   <time>2014-04-05T10:05:37Z</time>
  </trkpt>
  <trkpt lat="32.716350" lon="-1.585334">
   <ele>1246.00</ele>
   <time>2014-04-05T10:05:41Z</time>
  </trkpt>
  <trkpt lat="32.716410" lon="-1.585544">
   <ele>1245.00</ele>
   <time>2014-04-05T10:05:44Z</time>
  </trkpt>
  <trkpt lat="32.716438" lon="-1.585765">
   <ele>1243.00</ele>
   <time>2014-04-05T10:05:47Z</time>
  </trkpt>
  <trkpt lat="32.716488" lon="-1.585995">
   <ele>1242.00</ele>
   <time>2014-04-05T10:05:50Z</time>
  </trkpt>
  <trkpt lat="32.716566" lon="-1.586231">
   <ele>1242.00</ele>
   <time>2014-04-05T10:05:53Z</time>
  </trkpt>
  <trkpt lat="32.716703" lon="-1.586430">
   <ele>1242.00</ele>
   <time>2014-04-05T10:05:56Z</time>
  </trkpt>
  <trkpt lat="32.716891" lon="-1.586572">
   <ele>1241.00</ele>
   <time>2014-04-05T10:05:59Z</time>
  </trkpt>
  <trkpt lat="32.717111" lon="-1.586680">
   <ele>1241.00</ele>
   <time>2014-04-05T10:06:02Z</time>
  </trkpt>
  <trkpt lat="32.717337" lon="-1.586775">
   <ele>1241.00</ele>
   <time>2014-04-05T10:06:05Z</time>
  </trkpt>
  <trkpt lat="32.717535" lon="-1.586935">
   <ele>1241.00</ele>
   <time>2014-04-05T10:06:08Z</time>
  </trkpt>
  <trkpt lat="32.717695" lon="-1.587154">
   <ele>1242.00</ele>
   <time>2014-04-05T10:06:11Z</time>
  </trkpt>
  <trkpt lat="32.717832" lon="-1.587373">
   <ele>1242.00</ele>
   <time>2014-04-05T10:06:14Z</time>
  </trkpt>
  <trkpt lat="32.718001" lon="-1.587550">
   <ele>1242.00</ele>
   <time>2014-04-05T10:06:17Z</time>
  </trkpt>
  <trkpt lat="32.718190" lon="-1.587690">
   <ele>1242.00</ele>
   <time>2014-04-05T10:06:20Z</time>
  </trkpt>
  <trkpt lat="32.718390" lon="-1.587774">
   <ele>1242.00</ele>
   <time>2014-04-05T10:06:23Z</time>
  </trkpt>
  <trkpt lat="32.718580" lon="-1.587893">
   <ele>1242.00</ele>
   <time>2014-04-05T10:06:26Z</time>
  </trkpt>
  <trkpt lat="32.718776" lon="-1.587980">
   <ele>1242.00</ele>
   <time>2014-04-05T10:06:29Z</time>
  </trkpt>
  <trkpt lat="32.718997" lon="-1.588037">
   <ele>1242.00</ele>
   <time>2014-04-05T10:06:32Z</time>
  </trkpt>
  <trkpt lat="32.719210" lon="-1.588113">
   <ele>1242.00</ele>
   <time>2014-04-05T10:06:35Z</time>
  </trkpt>
  <trkpt lat="32.719330" lon="-1.588272">
   <ele>1243.00</ele>
   <time>2014-04-05T10:06:38Z</time>
  </trkpt>
  <trkpt lat="32.719370" lon="-1.588529">
   <ele>1242.00</ele>
   <time>2014-04-05T10:06:42Z</time>
  </trkpt>
  <trkpt lat="32.719436" lon="-1.588752">
   <ele>1242.00</ele>
   <time>2014-04-05T10:06:45Z</time>
  </trkpt>
  <trkpt lat="32.719555" lon="-1.588994">
   <ele>1242.00</ele>
   <time>2014-04-05T10:06:48Z</time>
  </trkpt>
  <trkpt lat="32.719692" lon="-1.589222">
   <ele>1242.00</ele>
   <time>2014-04-05T10:06:51Z</time>
  </trkpt>
  <trkpt lat="32.719866" lon="-1.589403">
   <ele>1242.00</ele>
   <time>2014-04-05T10:06:54Z</time>
  </trkpt>
  <trkpt lat="32.720071" lon="-1.589544">
   <ele>1242.00</ele>
   <time>2014-04-05T10:06:57Z</time>
  </trkpt>
  <trkpt lat="32.720339" lon="-1.589720">
   <ele>1243.00</ele>
   <time>2014-04-05T10:07:01Z</time>
  </trkpt>
  <trkpt lat="32.720523" lon="-1.589856">
   <ele>1243.00</ele>
   <time>2014-04-05T10:07:04Z</time>
  </trkpt>
  <trkpt lat="32.720859" lon="-1.590053">
   <ele>1243.00</ele>
   <time>2014-04-05T10:07:09Z</time>
  </trkpt>
  <trkpt lat="32.721054" lon="-1.590161">
   <ele>1243.00</ele>
   <time>2014-04-05T10:07:12Z</time>
  </trkpt>
  <trkpt lat="32.721273" lon="-1.590159">
   <ele>1243.00</ele>
   <time>2014-04-05T10:07:15Z</time>
  </trkpt>
  <trkpt lat="32.721515" lon="-1.590139">
   <ele>1243.00</ele>
   <time>2014-04-05T10:07:18Z</time>
  </trkpt>
  <trkpt lat="32.721771" lon="-1.590171">
   <ele>1243.00</ele>
   <time>2014-04-05T10:07:21Z</time>
  </trkpt>
  <trkpt lat="32.722187" lon="-1.590237">
   <ele>1244.00</ele>
   <time>2014-04-05T10:07:26Z</time>
  </trkpt>
  <trkpt lat="32.722423" lon="-1.590234">
   <ele>1244.00</ele>
   <time>2014-04-05T10:07:29Z</time>
  </trkpt>
  <trkpt lat="32.722644" lon="-1.590272">
   <ele>1244.00</ele>
   <time>2014-04-05T10:07:32Z</time>
  </trkpt>
  <trkpt lat="32.722849" lon="-1.590275">
   <ele>1244.00</ele>
   <time>2014-04-05T10:07:35Z</time>
  </trkpt>
  <trkpt lat="32.723085" lon="-1.590159">
   <ele>1244.00</ele>
   <time>2014-04-05T10:07:39Z</time>
  </trkpt>
  <trkpt lat="32.723264" lon="-1.590209">
   <ele>1244.00</ele>
   <time>2014-04-05T10:07:42Z</time>
  </trkpt>
  <trkpt lat="32.723412" lon="-1.590357">
   <ele>1244.00</ele>
   <time>2014-04-05T10:07:45Z</time>
  </trkpt>
  <trkpt lat="32.723599" lon="-1.590457">
   <ele>1244.00</ele>
   <time>2014-04-05T10:07:48Z</time>
  </trkpt>
  <trkpt lat="32.723810" lon="-1.590475">
   <ele>1244.00</ele>
   <time>2014-04-05T10:07:51Z</time>
  </trkpt>
  <trkpt lat="32.724011" lon="-1.590430">
   <ele>1244.00</ele>
   <time>2014-04-05T10:07:54Z</time>
  </trkpt>
  <trkpt lat="32.724215" lon="-1.590389">
   <ele>1244.00</ele>
   <time>2014-04-05T10:07:57Z</time>
  </trkpt>
  <trkpt lat="32.724396" lon="-1.590440">
   <ele>1244.00</ele>
   <time>2014-04-05T10:08:00Z</time>
  </trkpt>
  <trkpt lat="32.724526" lon="-1.590666">
   <ele>1242.00</ele>
   <time>2014-04-05T10:08:04Z</time>
  </trkpt>
  <trkpt lat="32.724607" lon="-1.590870">
   <ele>1241.00</ele>
   <time>2014-04-05T10:08:07Z</time>
  </trkpt>
  <trkpt lat="32.724731" lon="-1.591151">
   <ele>1240.00</ele>
   <time>2014-04-05T10:08:11Z</time>
  </trkpt>
  <trkpt lat="32.724892" lon="-1.591257">
   <ele>1240.00</ele>
   <time>2014-04-05T10:08:14Z</time>
  </trkpt>
  <trkpt lat="32.725098" lon="-1.591244">
   <ele>1240.00</ele>
   <time>2014-04-05T10:08:17Z</time>
  </trkpt>
  <trkpt lat="32.725312" lon="-1.591191">
   <ele>1240.00</ele>
   <time>2014-04-05T10:08:20Z</time>
  </trkpt>
  <trkpt lat="32.725532" lon="-1.591189">
   <ele>1240.00</ele>
   <time>2014-04-05T10:08:23Z</time>
  </trkpt>
  <trkpt lat="32.725757" lon="-1.591221">
   <ele>1240.00</ele>
   <time>2014-04-05T10:08:26Z</time>
  </trkpt>
  <trkpt lat="32.726068" lon="-1.591210">
   <ele>1240.00</ele>
   <time>2014-04-05T10:08:30Z</time>
  </trkpt>
  <trkpt lat="32.726299" lon="-1.591263">
   <ele>1241.00</ele>
   <time>2014-04-05T10:08:33Z</time>
  </trkpt>
  <trkpt lat="32.726539" lon="-1.591302">
   <ele>1241.00</ele>
   <time>2014-04-05T10:08:36Z</time>
  </trkpt>
  <trkpt lat="32.726784" lon="-1.591284">
   <ele>1241.00</ele>
   <time>2014-04-05T10:08:39Z</time>
  </trkpt>
  <trkpt lat="32.727022" lon="-1.591227">
   <ele>1241.00</ele>
   <time>2014-04-05T10:08:42Z</time>
  </trkpt>
  <trkpt lat="32.727261" lon="-1.591261">
   <ele>1241.00</ele>
   <time>2014-04-05T10:08:45Z</time>
  </trkpt>
  <trkpt lat="32.727496" lon="-1.591352">
   <ele>1241.00</ele>
   <time>2014-04-05T10:08:48Z</time>
  </trkpt>
  <trkpt lat="32.727671" lon="-1.591526">
   <ele>1240.00</ele>
   <time>2014-04-05T10:08:51Z</time>
  </trkpt>
  <trkpt lat="32.727835" lon="-1.591704">
   <ele>1240.00</ele>
   <time>2014-04-05T10:08:54Z</time>
  </trkpt>
  <trkpt lat="32.728033" lon="-1.591845">
   <ele>1239.00</ele>
   <time>2014-04-05T10:08:57Z</time>
  </trkpt>
  <trkpt lat="32.728253" lon="-1.591967">
   <ele>1239.00</ele>
   <time>2014-04-05T10:09:00Z</time>
  </trkpt>
  <trkpt lat="32.728613" lon="-1.592153">
   <ele>1239.00</ele>
   <time>2014-04-05T10:09:05Z</time>
  </trkpt>
  <trkpt lat="32.728793" lon="-1.592320">
   <ele>1239.00</ele>
   <time>2014-04-05T10:09:08Z</time>
  </trkpt>
  <trkpt lat="32.728957" lon="-1.592514">
   <ele>1239.00</ele>
   <time>2014-04-05T10:09:11Z</time>
  </trkpt>
  <trkpt lat="32.729159" lon="-1.592644">
   <ele>1239.00</ele>
   <time>2014-04-05T10:09:14Z</time>
  </trkpt>
  <trkpt lat="32.729387" lon="-1.592677">
   <ele>1239.00</ele>
   <time>2014-04-05T10:09:17Z</time>
  </trkpt>
  <trkpt lat="32.729613" lon="-1.592695">
   <ele>1239.00</ele>
   <time>2014-04-05T10:09:20Z</time>
  </trkpt>
  <trkpt lat="32.729791" lon="-1.592786">
   <ele>1239.00</ele>
   <time>2014-04-05T10:09:23Z</time>
  </trkpt>
  <trkpt lat="32.729963" lon="-1.592979">
   <ele>1240.00</ele>
   <time>2014-04-05T10:09:27Z</time>
  </trkpt>
  <trkpt lat="32.730179" lon="-1.593026">
   <ele>1240.00</ele>
   <time>2014-04-05T10:09:31Z</time>
  </trkpt>
  <trkpt lat="32.730377" lon="-1.593030">
   <ele>1240.00</ele>
   <time>2014-04-05T10:09:34Z</time>
  </trkpt>
  <trkpt lat="32.730570" lon="-1.593111">
   <ele>1240.00</ele>
   <time>2014-04-05T10:09:37Z</time>
  </trkpt>
  <trkpt lat="32.730827" lon="-1.593229">
   <ele>1240.00</ele>
   <time>2014-04-05T10:09:41Z</time>
  </trkpt>
  <trkpt lat="32.731025" lon="-1.593283">
   <ele>1240.00</ele>
   <time>2014-04-05T10:09:44Z</time>
  </trkpt>
  <trkpt lat="32.731217" lon="-1.593334">
   <ele>1240.00</ele>
   <time>2014-04-05T10:09:47Z</time>
  </trkpt>
  <trkpt lat="32.731390" lon="-1.593511">
   <ele>1239.00</ele>
   <time>2014-04-05T10:09:51Z</time>
  </trkpt>
  <trkpt lat="32.731503" lon="-1.593684">
   <ele>1238.00</ele>
   <time>2014-04-05T10:09:54Z</time>
  </trkpt>
  <trkpt lat="32.731675" lon="-1.593805">
   <ele>1238.00</ele>
   <time>2014-04-05T10:09:57Z</time>
  </trkpt>
  <trkpt lat="32.731850" lon="-1.593905">
   <ele>1238.00</ele>
   <time>2014-04-05T10:10:00Z</time>
  </trkpt>
  <trkpt lat="32.732012" lon="-1.594073">
   <ele>1238.00</ele>
   <time>2014-04-05T10:10:04Z</time>
  </trkpt>
  <trkpt lat="32.732158" lon="-1.594248">
   <ele>1237.00</ele>
   <time>2014-04-05T10:10:08Z</time>
  </trkpt>
  <trkpt lat="32.732400" lon="-1.594456">
   <ele>1237.00</ele>
   <time>2014-04-05T10:10:13Z</time>
  </trkpt>
  <trkpt lat="32.732599" lon="-1.594504">
   <ele>1237.00</ele>
   <time>2014-04-05T10:10:16Z</time>
  </trkpt>
  <trkpt lat="32.732983" lon="-1.594513">
   <ele>1237.00</ele>
   <time>2014-04-05T10:10:21Z</time>
  </trkpt>
  <trkpt lat="32.733218" lon="-1.594473">
   <ele>1236.00</ele>
   <time>2014-04-05T10:10:24Z</time>
  </trkpt>
  <trkpt lat="32.733449" lon="-1.594416">
   <ele>1236.00</ele>
   <time>2014-04-05T10:10:27Z</time>
  </trkpt>
  <trkpt lat="32.733664" lon="-1.594355">
   <ele>1236.00</ele>
   <time>2014-04-05T10:10:30Z</time>
  </trkpt>
  <trkpt lat="32.733867" lon="-1.594342">
   <ele>1236.00</ele>
   <time>2014-04-05T10:10:33Z</time>
  </trkpt>
  <trkpt lat="32.734090" lon="-1.594406">
   <ele>1235.00</ele>
   <time>2014-04-05T10:10:37Z</time>
  </trkpt>
  <trkpt lat="32.734283" lon="-1.594506">
   <ele>1235.00</ele>
   <time>2014-04-05T10:10:41Z</time>
  </trkpt>
  <trkpt lat="32.734473" lon="-1.594578">
   <ele>1235.00</ele>
   <time>2014-04-05T10:10:44Z</time>
  </trkpt>
  <trkpt lat="32.734671" lon="-1.594650">
   <ele>1235.00</ele>
   <time>2014-04-05T10:10:47Z</time>
  </trkpt>
  <trkpt lat="32.734848" lon="-1.594752">
   <ele>1235.00</ele>
   <time>2014-04-05T10:10:50Z</time>
  </trkpt>
  <trkpt lat="32.735013" lon="-1.594894">
   <ele>1235.00</ele>
   <time>2014-04-05T10:10:53Z</time>
  </trkpt>
  <trkpt lat="32.735171" lon="-1.595039">
   <ele>1234.00</ele>
   <time>2014-04-05T10:10:56Z</time>
  </trkpt>
  <trkpt lat="32.735307" lon="-1.595188">
   <ele>1234.00</ele>
   <time>2014-04-05T10:10:59Z</time>
  </trkpt>
  <trkpt lat="32.735498" lon="-1.595490">
   <ele>1233.00</ele>
   <time>2014-04-05T10:11:04Z</time>
  </trkpt>
  <trkpt lat="32.735602" lon="-1.595672">
   <ele>1232.00</ele>
   <time>2014-04-05T10:11:07Z</time>
  </trkpt>
  <trkpt lat="32.735767" lon="-1.595773">
   <ele>1232.00</ele>
   <time>2014-04-05T10:11:10Z</time>
  </trkpt>
  <trkpt lat="32.735945" lon="-1.595855">
   <ele>1232.00</ele>
   <time>2014-04-05T10:11:13Z</time>
  </trkpt>
  <trkpt lat="32.736171" lon="-1.595913">
   <ele>1233.00</ele>
   <time>2014-04-05T10:11:17Z</time>
  </trkpt>
  <trkpt lat="32.736376" lon="-1.595864">
   <ele>1234.00</ele>
   <time>2014-04-05T10:11:21Z</time>
  </trkpt>
  <trkpt lat="32.736590" lon="-1.595708">
   <ele>1234.00</ele>
   <time>2014-04-05T10:11:26Z</time>
  </trkpt>
  <trkpt lat="32.736758" lon="-1.595602">
   <ele>1235.00</ele>
   <time>2014-04-05T10:11:31Z</time>
  </trkpt>
  <trkpt lat="32.736920" lon="-1.595440">
   <ele>1235.00</ele>
   <time>2014-04-05T10:11:36Z</time>
  </trkpt>
  <trkpt lat="32.737057" lon="-1.595276">
   <ele>1236.00</ele>
   <time>2014-04-05T10:11:40Z</time>
  </trkpt>
  <trkpt lat="32.737204" lon="-1.595085">
   <ele>1237.00</ele>
   <time>2014-04-05T10:11:44Z</time>
  </trkpt>
  <trkpt lat="32.737307" lon="-1.594877">
   <ele>1237.00</ele>
   <time>2014-04-05T10:11:48Z</time>
  </trkpt>
  <trkpt lat="32.737438" lon="-1.594698">
   <ele>1236.00</ele>
   <time>2014-04-05T10:11:53Z</time>
  </trkpt>
  <trkpt lat="32.737610" lon="-1.594595">
   <ele>1235.00</ele>
   <time>2014-04-05T10:11:59Z</time>
  </trkpt>
  <trkpt lat="32.737822" lon="-1.594552">
   <ele>1234.00</ele>
   <time>2014-04-05T10:12:05Z</time>
  </trkpt>
  <trkpt lat="32.738003" lon="-1.594498">
   <ele>1233.00</ele>
   <time>2014-04-05T10:12:09Z</time>
  </trkpt>
  <trkpt lat="32.738185" lon="-1.594456">
   <ele>1232.00</ele>
   <time>2014-04-05T10:12:13Z</time>
  </trkpt>
  <trkpt lat="32.738378" lon="-1.594489">
   <ele>1232.00</ele>
   <time>2014-04-05T10:12:17Z</time>
  </trkpt>
  <trkpt lat="32.738556" lon="-1.594562">
   <ele>1231.00</ele>
   <time>2014-04-05T10:12:21Z</time>
  </trkpt>
  <trkpt lat="32.738743" lon="-1.594581">
   <ele>1231.00</ele>
   <time>2014-04-05T10:12:24Z</time>
  </trkpt>
  <trkpt lat="32.738950" lon="-1.594592">
   <ele>1231.00</ele>
   <time>2014-04-05T10:12:27Z</time>
  </trkpt>
  <trkpt lat="32.739158" lon="-1.594670">
   <ele>1230.00</ele>
   <time>2014-04-05T10:12:30Z</time>
  </trkpt>
  <trkpt lat="32.739335" lon="-1.594829">
   <ele>1230.00</ele>
   <time>2014-04-05T10:12:33Z</time>
  </trkpt>
  <trkpt lat="32.739477" lon="-1.594999">
   <ele>1229.00</ele>
   <time>2014-04-05T10:12:36Z</time>
  </trkpt>
  <trkpt lat="32.739597" lon="-1.595191">
   <ele>1229.00</ele>
   <time>2014-04-05T10:12:39Z</time>
  </trkpt>
  <trkpt lat="32.739680" lon="-1.595437">
   <ele>1228.00</ele>
   <time>2014-04-05T10:12:42Z</time>
  </trkpt>
  <trkpt lat="32.739704" lon="-1.595706">
   <ele>1227.00</ele>
   <time>2014-04-05T10:12:45Z</time>
  </trkpt>
  <trkpt lat="32.739700" lon="-1.595976">
   <ele>1227.00</ele>
   <time>2014-04-05T10:12:48Z</time>
  </trkpt>
  <trkpt lat="32.739655" lon="-1.596225">
   <ele>1227.00</ele>
   <time>2014-04-05T10:12:51Z</time>
  </trkpt>
  <trkpt lat="32.739605" lon="-1.596454">
   <ele>1226.00</ele>
   <time>2014-04-05T10:12:54Z</time>
  </trkpt>
  <trkpt lat="32.739681" lon="-1.596696">
   <ele>1227.00</ele>
   <time>2014-04-05T10:12:58Z</time>
  </trkpt>
  <trkpt lat="32.739814" lon="-1.596847">
   <ele>1227.00</ele>
   <time>2014-04-05T10:13:02Z</time>
  </trkpt>
  <trkpt lat="32.739926" lon="-1.597021">
   <ele>1226.00</ele>
   <time>2014-04-05T10:13:09Z</time>
  </trkpt>
  <trkpt lat="32.739911" lon="-1.597145">
   <ele>1225.00</ele>
   <time>2014-04-05T10:13:17Z</time>
  </trkpt>
  <trkpt lat="32.739842" lon="-1.596913">
   <ele>1226.00</ele>
   <time>2014-04-05T10:13:24Z</time>
  </trkpt>
  <trkpt lat="32.739719" lon="-1.596729">
   <ele>1226.00</ele>
   <time>2014-04-05T10:13:29Z</time>
  </trkpt>
  <trkpt lat="32.739596" lon="-1.596542">
   <ele>1226.00</ele>
   <time>2014-04-05T10:13:33Z</time>
  </trkpt>
  <trkpt lat="32.739604" lon="-1.596317">
   <ele>1226.00</ele>
   <time>2014-04-05T10:13:37Z</time>
  </trkpt>
  <trkpt lat="32.739657" lon="-1.596057">
   <ele>1227.00</ele>
   <time>2014-04-05T10:13:41Z</time>
  </trkpt>
  <trkpt lat="32.739667" lon="-1.595814">
   <ele>1227.00</ele>
   <time>2014-04-05T10:13:44Z</time>
  </trkpt>
  <trkpt lat="32.739659" lon="-1.595560">
   <ele>1227.00</ele>
   <time>2014-04-05T10:13:47Z</time>
  </trkpt>
  <trkpt lat="32.739620" lon="-1.595318">
   <ele>1227.00</ele>
   <time>2014-04-05T10:13:50Z</time>
  </trkpt>
  <trkpt lat="32.739514" lon="-1.595083">
   <ele>1228.00</ele>
   <time>2014-04-05T10:13:53Z</time>
  </trkpt>
  <trkpt lat="32.739336" lon="-1.594859">
   <ele>1227.00</ele>
   <time>2014-04-05T10:13:56Z</time>
  </trkpt>
  <trkpt lat="32.739137" lon="-1.594667">
   <ele>1228.00</ele>
   <time>2014-04-05T10:13:59Z</time>
  </trkpt>
  <trkpt lat="32.738892" lon="-1.594570">
   <ele>1227.00</ele>
   <time>2014-04-05T10:14:02Z</time>
  </trkpt>
  <trkpt lat="32.738710" lon="-1.594566">
   <ele>1227.00</ele>
   <time>2014-04-05T10:14:04Z</time>
  </trkpt>
  <trkpt lat="32.738525" lon="-1.594552">
   <ele>1227.00</ele>
   <time>2014-04-05T10:14:06Z</time>
  </trkpt>
  <trkpt lat="32.738287" lon="-1.594463">
   <ele>1227.00</ele>
   <time>2014-04-05T10:14:09Z</time>
  </trkpt>
  <trkpt lat="32.738058" lon="-1.594460">
   <ele>1228.00</ele>
   <time>2014-04-05T10:14:12Z</time>
  </trkpt>
  <trkpt lat="32.737861" lon="-1.594522">
   <ele>1229.00</ele>
   <time>2014-04-05T10:14:15Z</time>
  </trkpt>
  <trkpt lat="32.737654" lon="-1.594564">
   <ele>1230.00</ele>
   <time>2014-04-05T10:14:19Z</time>
  </trkpt>
  <trkpt lat="32.737475" lon="-1.594631">
   <ele>1231.00</ele>
   <time>2014-04-05T10:14:27Z</time>
  </trkpt>
  <trkpt lat="32.737324" lon="-1.594784">
   <ele>1232.00</ele>
   <time>2014-04-05T10:14:34Z</time>
  </trkpt>
  <trkpt lat="32.737209" lon="-1.594994">
   <ele>1233.00</ele>
   <time>2014-04-05T10:14:40Z</time>
  </trkpt>
  <trkpt lat="32.737108" lon="-1.595180">
   <ele>1233.00</ele>
   <time>2014-04-05T10:14:44Z</time>
  </trkpt>
  <trkpt lat="32.736937" lon="-1.595375">
   <ele>1233.00</ele>
   <time>2014-04-05T10:14:48Z</time>
  </trkpt>
  <trkpt lat="32.736768" lon="-1.595567">
   <ele>1233.00</ele>
   <time>2014-04-05T10:14:52Z</time>
  </trkpt>
  <trkpt lat="32.736584" lon="-1.595690">
   <ele>1233.00</ele>
   <time>2014-04-05T10:14:56Z</time>
  </trkpt>
  <trkpt lat="32.736415" lon="-1.595796">
   <ele>1233.00</ele>
   <time>2014-04-05T10:15:00Z</time>
  </trkpt>
  <trkpt lat="32.736222" lon="-1.595909">
   <ele>1234.00</ele>
   <time>2014-04-05T10:15:04Z</time>
  </trkpt>
  <trkpt lat="32.735994" lon="-1.595888">
   <ele>1234.00</ele>
   <time>2014-04-05T10:15:08Z</time>
  </trkpt>
  <trkpt lat="32.735776" lon="-1.595801">
   <ele>1234.00</ele>
   <time>2014-04-05T10:15:12Z</time>
  </trkpt>
  <trkpt lat="32.735608" lon="-1.595717">
   <ele>1234.00</ele>
   <time>2014-04-05T10:15:15Z</time>
  </trkpt>
  <trkpt lat="32.735460" lon="-1.595510">
   <ele>1234.00</ele>
   <time>2014-04-05T10:15:19Z</time>
  </trkpt>
  <trkpt lat="32.735341" lon="-1.595321">
   <ele>1234.00</ele>
   <time>2014-04-05T10:15:22Z</time>
  </trkpt>
  <trkpt lat="32.735195" lon="-1.595106">
   <ele>1234.00</ele>
   <time>2014-04-05T10:15:26Z</time>
  </trkpt>
  <trkpt lat="32.735018" lon="-1.594941">
   <ele>1235.00</ele>
   <time>2014-04-05T10:15:30Z</time>
  </trkpt>
  <trkpt lat="32.734860" lon="-1.594796">
   <ele>1235.00</ele>
   <time>2014-04-05T10:15:33Z</time>
  </trkpt>
  <trkpt lat="32.734678" lon="-1.594671">
   <ele>1235.00</ele>
   <time>2014-04-05T10:15:36Z</time>
  </trkpt>
  <trkpt lat="32.734469" lon="-1.594588">
   <ele>1235.00</ele>
   <time>2014-04-05T10:15:39Z</time>
  </trkpt>
  <trkpt lat="32.734259" lon="-1.594512">
   <ele>1235.00</ele>
   <time>2014-04-05T10:15:42Z</time>
  </trkpt>
  <trkpt lat="32.734068" lon="-1.594413">
   <ele>1236.00</ele>
   <time>2014-04-05T10:15:45Z</time>
  </trkpt>
  <trkpt lat="32.733875" lon="-1.594346">
   <ele>1236.00</ele>
   <time>2014-04-05T10:15:48Z</time>
  </trkpt>
  <trkpt lat="32.733672" lon="-1.594333">
   <ele>1236.00</ele>
   <time>2014-04-05T10:15:51Z</time>
  </trkpt>
  <trkpt lat="32.733454" lon="-1.594397">
   <ele>1237.00</ele>
   <time>2014-04-05T10:15:54Z</time>
  </trkpt>
  <trkpt lat="32.733061" lon="-1.594495">
   <ele>1238.00</ele>
   <time>2014-04-05T10:15:59Z</time>
  </trkpt>
  <trkpt lat="32.732820" lon="-1.594507">
   <ele>1238.00</ele>
   <time>2014-04-05T10:16:02Z</time>
  </trkpt>
  <trkpt lat="32.732584" lon="-1.594499">
   <ele>1239.00</ele>
   <time>2014-04-05T10:16:05Z</time>
  </trkpt>
  <trkpt lat="32.732370" lon="-1.594464">
   <ele>1239.00</ele>
   <time>2014-04-05T10:16:08Z</time>
  </trkpt>
  <trkpt lat="32.732192" lon="-1.594320">
   <ele>1239.00</ele>
   <time>2014-04-05T10:16:11Z</time>
  </trkpt>
  <trkpt lat="32.732024" lon="-1.594167">
   <ele>1239.00</ele>
   <time>2014-04-05T10:16:14Z</time>
  </trkpt>
  <trkpt lat="32.731899" lon="-1.593984">
   <ele>1239.00</ele>
   <time>2014-04-05T10:16:17Z</time>
  </trkpt>
  <trkpt lat="32.731735" lon="-1.593853">
   <ele>1239.00</ele>
   <time>2014-04-05T10:16:20Z</time>
  </trkpt>
  <trkpt lat="32.731537" lon="-1.593739">
   <ele>1239.00</ele>
   <time>2014-04-05T10:16:23Z</time>
  </trkpt>
  <trkpt lat="32.731370" lon="-1.593583">
   <ele>1239.00</ele>
   <time>2014-04-05T10:16:26Z</time>
  </trkpt>
  <trkpt lat="32.731256" lon="-1.593389">
   <ele>1239.00</ele>
   <time>2014-04-05T10:16:29Z</time>
  </trkpt>
  <trkpt lat="32.731075" lon="-1.593279">
   <ele>1239.00</ele>
   <time>2014-04-05T10:16:32Z</time>
  </trkpt>
  <trkpt lat="32.730861" lon="-1.593235">
   <ele>1239.00</ele>
   <time>2014-04-05T10:16:35Z</time>
  </trkpt>
  <trkpt lat="32.730650" lon="-1.593152">
   <ele>1239.00</ele>
   <time>2014-04-05T10:16:38Z</time>
  </trkpt>
  <trkpt lat="32.730449" lon="-1.593060">
   <ele>1239.00</ele>
   <time>2014-04-05T10:16:41Z</time>
  </trkpt>
  <trkpt lat="32.730257" lon="-1.592994">
   <ele>1239.00</ele>
   <time>2014-04-05T10:16:44Z</time>
  </trkpt>
  <trkpt lat="32.730065" lon="-1.593000">
   <ele>1239.00</ele>
   <time>2014-04-05T10:16:47Z</time>
  </trkpt>
  <trkpt lat="32.729904" lon="-1.593070">
   <ele>1239.00</ele>
   <time>2014-04-05T10:16:51Z</time>
  </trkpt>
  <trkpt lat="32.729742" lon="-1.593448">
   <ele>1238.00</ele>
   <time>2014-04-05T10:16:58Z</time>
  </trkpt>
  <trkpt lat="32.729628" lon="-1.593632">
   <ele>1238.00</ele>
   <time>2014-04-05T10:17:01Z</time>
  </trkpt>
  <trkpt lat="32.729426" lon="-1.593763">
   <ele>1239.00</ele>
   <time>2014-04-05T10:17:05Z</time>
  </trkpt>
  <trkpt lat="32.729265" lon="-1.593944">
   <ele>1239.00</ele>
   <time>2014-04-05T10:17:09Z</time>
  </trkpt>
  <trkpt lat="32.729216" lon="-1.594161">
   <ele>1239.00</ele>
   <time>2014-04-05T10:17:12Z</time>
  </trkpt>
  <trkpt lat="32.729136" lon="-1.594392">
   <ele>1238.00</ele>
   <time>2014-04-05T10:17:15Z</time>
  </trkpt>
  <trkpt lat="32.729034" lon="-1.594650">
   <ele>1238.00</ele>
   <time>2014-04-05T10:17:18Z</time>
  </trkpt>
  <trkpt lat="32.728931" lon="-1.594912">
   <ele>1237.00</ele>
   <time>2014-04-05T10:17:21Z</time>
  </trkpt>
  <trkpt lat="32.728838" lon="-1.595159">
   <ele>1237.00</ele>
   <time>2014-04-05T10:17:24Z</time>
  </trkpt>
  <trkpt lat="32.728711" lon="-1.595593">
   <ele>1237.00</ele>
   <time>2014-04-05T10:17:30Z</time>
  </trkpt>
  <trkpt lat="32.728700" lon="-1.595839">
   <ele>1237.00</ele>
   <time>2014-04-05T10:17:33Z</time>
  </trkpt>
  <trkpt lat="32.728627" lon="-1.596058">
   <ele>1238.00</ele>
   <time>2014-04-05T10:17:36Z</time>
  </trkpt>
  <trkpt lat="32.728531" lon="-1.596346">
   <ele>1238.00</ele>
   <time>2014-04-05T10:17:40Z</time>
  </trkpt>
  <trkpt lat="32.728448" lon="-1.596555">
   <ele>1238.00</ele>
   <time>2014-04-05T10:17:43Z</time>
  </trkpt>
  <trkpt lat="32.728356" lon="-1.596771">
   <ele>1239.00</ele>
   <time>2014-04-05T10:17:46Z</time>
  </trkpt>
  <trkpt lat="32.728228" lon="-1.596963">
   <ele>1239.00</ele>
   <time>2014-04-05T10:17:49Z</time>
  </trkpt>
  <trkpt lat="32.728104" lon="-1.597149">
   <ele>1239.00</ele>
   <time>2014-04-05T10:17:52Z</time>
  </trkpt>
  <trkpt lat="32.727914" lon="-1.597374">
   <ele>1239.00</ele>
   <time>2014-04-05T10:17:56Z</time>
  </trkpt>
  <trkpt lat="32.727955" lon="-1.597597">
   <ele>1238.00</ele>
   <time>2014-04-05T10:18:00Z</time>
  </trkpt>
  <trkpt lat="32.728012" lon="-1.597845">
   <ele>1237.00</ele>
   <time>2014-04-05T10:18:04Z</time>
  </trkpt>
  <trkpt lat="32.727957" lon="-1.598054">
   <ele>1236.00</ele>
   <time>2014-04-05T10:18:07Z</time>
  </trkpt>
  <trkpt lat="32.727830" lon="-1.598230">
   <ele>1236.00</ele>
   <time>2014-04-05T10:18:10Z</time>
  </trkpt>
  <trkpt lat="32.727687" lon="-1.598397">
   <ele>1236.00</ele>
   <time>2014-04-05T10:18:13Z</time>
  </trkpt>
  <trkpt lat="32.727603" lon="-1.598608">
   <ele>1235.00</ele>
   <time>2014-04-05T10:18:16Z</time>
  </trkpt>
  <trkpt lat="32.727613" lon="-1.598848">
   <ele>1236.00</ele>
   <time>2014-04-05T10:18:19Z</time>
  </trkpt>
  <trkpt lat="32.727586" lon="-1.599060">
   <ele>1236.00</ele>
   <time>2014-04-05T10:18:22Z</time>
  </trkpt>
  <trkpt lat="32.727439" lon="-1.599285">
   <ele>1237.00</ele>
   <time>2014-04-05T10:18:26Z</time>
  </trkpt>
  <trkpt lat="32.727350" lon="-1.599539">
   <ele>1237.00</ele>
   <time>2014-04-05T10:18:30Z</time>
  </trkpt>
  <trkpt lat="32.727391" lon="-1.599779">
   <ele>1237.00</ele>
   <time>2014-04-05T10:18:33Z</time>
  </trkpt>
  <trkpt lat="32.727451" lon="-1.600020">
   <ele>1237.00</ele>
   <time>2014-04-05T10:18:36Z</time>
  </trkpt>
  <trkpt lat="32.727439" lon="-1.600255">
   <ele>1238.00</ele>
   <time>2014-04-05T10:18:39Z</time>
  </trkpt>
  <trkpt lat="32.727319" lon="-1.600478">
   <ele>1238.00</ele>
   <time>2014-04-05T10:18:43Z</time>
  </trkpt>
  <trkpt lat="32.727108" lon="-1.600614">
   <ele>1238.00</ele>
   <time>2014-04-05T10:18:47Z</time>
  </trkpt>
  <trkpt lat="32.726913" lon="-1.600679">
   <ele>1238.00</ele>
   <time>2014-04-05T10:18:50Z</time>
  </trkpt>
  <trkpt lat="32.726703" lon="-1.600738">
   <ele>1239.00</ele>
   <time>2014-04-05T10:18:53Z</time>
  </trkpt>
  <trkpt lat="32.726555" lon="-1.600901">
   <ele>1239.00</ele>
   <time>2014-04-05T10:18:56Z</time>
  </trkpt>
  <trkpt lat="32.726500" lon="-1.601146">
   <ele>1238.00</ele>
   <time>2014-04-05T10:18:59Z</time>
  </trkpt>
  <trkpt lat="32.726431" lon="-1.601366">
   <ele>1238.00</ele>
   <time>2014-04-05T10:19:02Z</time>
  </trkpt>
  <trkpt lat="32.726267" lon="-1.601497">
   <ele>1238.00</ele>
   <time>2014-04-05T10:19:05Z</time>
  </trkpt>
  <trkpt lat="32.726076" lon="-1.601644">
   <ele>1238.00</ele>
   <time>2014-04-05T10:19:08Z</time>
  </trkpt>
  <trkpt lat="32.725837" lon="-1.601873">
   <ele>1238.00</ele>
   <time>2014-04-05T10:19:12Z</time>
  </trkpt>
  <trkpt lat="32.725648" lon="-1.601972">
   <ele>1238.00</ele>
   <time>2014-04-05T10:19:15Z</time>
  </trkpt>
  <trkpt lat="32.725474" lon="-1.602029">
   <ele>1238.00</ele>
   <time>2014-04-05T10:19:18Z</time>
  </trkpt>
  <trkpt lat="32.725243" lon="-1.602080">
   <ele>1237.00</ele>
   <time>2014-04-05T10:19:22Z</time>
  </trkpt>
  <trkpt lat="32.725091" lon="-1.602255">
   <ele>1236.00</ele>
   <time>2014-04-05T10:19:26Z</time>
  </trkpt>
  <trkpt lat="32.724906" lon="-1.602418">
   <ele>1236.00</ele>
   <time>2014-04-05T10:19:30Z</time>
  </trkpt>
  <trkpt lat="32.724927" lon="-1.602619">
   <ele>1235.00</ele>
   <time>2014-04-05T10:19:35Z</time>
  </trkpt>
  <trkpt lat="32.724936" lon="-1.602822">
   <ele>1234.00</ele>
   <time>2014-04-05T10:19:40Z</time>
  </trkpt>
  <trkpt lat="32.724846" lon="-1.603007">
   <ele>1233.00</ele>
   <time>2014-04-05T10:19:44Z</time>
  </trkpt>
  <trkpt lat="32.724785" lon="-1.603220">
   <ele>1233.00</ele>
   <time>2014-04-05T10:19:48Z</time>
  </trkpt>
  <trkpt lat="32.724652" lon="-1.603417">
   <ele>1232.00</ele>
   <time>2014-04-05T10:19:52Z</time>
  </trkpt>
  <trkpt lat="32.724227" lon="-1.603921">
   <ele>1232.00</ele>
   <time>2014-04-05T10:20:02Z</time>
  </trkpt>
  <trkpt lat="32.724049" lon="-1.604090">
   <ele>1231.00</ele>
   <time>2014-04-05T10:20:06Z</time>
  </trkpt>
  <trkpt lat="32.723989" lon="-1.604355">
   <ele>1231.00</ele>
   <time>2014-04-05T10:20:10Z</time>
  </trkpt>
  <trkpt lat="32.723962" lon="-1.604657">
   <ele>1231.00</ele>
   <time>2014-04-05T10:20:14Z</time>
  </trkpt>
  <trkpt lat="32.723926" lon="-1.604881">
   <ele>1230.00</ele>
   <time>2014-04-05T10:20:17Z</time>
  </trkpt>
  <trkpt lat="32.723920" lon="-1.605157">
   <ele>1230.00</ele>
   <time>2014-04-05T10:20:20Z</time>
  </trkpt>
  <trkpt lat="32.723918" lon="-1.605461">
   <ele>1229.00</ele>
   <time>2014-04-05T10:20:23Z</time>
  </trkpt>
  <trkpt lat="32.723906" lon="-1.605774">
   <ele>1229.00</ele>
   <time>2014-04-05T10:20:26Z</time>
  </trkpt>
  <trkpt lat="32.723908" lon="-1.606183">
   <ele>1228.00</ele>
   <time>2014-04-05T10:20:30Z</time>
  </trkpt>
  <trkpt lat="32.723891" lon="-1.606442">
   <ele>1227.00</ele>
   <time>2014-04-05T10:20:34Z</time>
  </trkpt>
  <trkpt lat="32.723957" lon="-1.606638">
   <ele>1227.00</ele>
   <time>2014-04-05T10:20:44Z</time>
  </trkpt>
  <trkpt lat="32.724108" lon="-1.606802">
   <ele>1228.00</ele>
   <time>2014-04-05T10:20:49Z</time>
  </trkpt>
  <trkpt lat="32.724219" lon="-1.607017">
   <ele>1227.00</ele>
   <time>2014-04-05T10:20:53Z</time>
  </trkpt>
  <trkpt lat="32.724309" lon="-1.607321">
   <ele>1227.00</ele>
   <time>2014-04-05T10:20:57Z</time>
  </trkpt>
  <trkpt lat="32.724334" lon="-1.607584">
   <ele>1227.00</ele>
   <time>2014-04-05T10:21:00Z</time>
  </trkpt>
  <trkpt lat="32.724307" lon="-1.607950">
   <ele>1226.00</ele>
   <time>2014-04-05T10:21:04Z</time>
  </trkpt>
  <trkpt lat="32.724339" lon="-1.608243">
   <ele>1226.00</ele>
   <time>2014-04-05T10:21:07Z</time>
  </trkpt>
  <trkpt lat="32.724403" lon="-1.608547">
   <ele>1225.00</ele>
   <time>2014-04-05T10:21:10Z</time>
  </trkpt>
  <trkpt lat="32.724497" lon="-1.608832">
   <ele>1225.00</ele>
   <time>2014-04-05T10:21:13Z</time>
  </trkpt>
  <trkpt lat="32.724578" lon="-1.609102">
   <ele>1225.00</ele>
   <time>2014-04-05T10:21:16Z</time>
  </trkpt>
  <trkpt lat="32.724607" lon="-1.609366">
   <ele>1225.00</ele>
   <time>2014-04-05T10:21:19Z</time>
  </trkpt>
  <trkpt lat="32.724650" lon="-1.610067">
   <ele>1225.00</ele>
   <time>2014-04-05T10:21:26Z</time>
  </trkpt>
  <trkpt lat="32.724693" lon="-1.610292">
   <ele>1225.00</ele>
   <time>2014-04-05T10:21:28Z</time>
  </trkpt>
  <trkpt lat="32.724760" lon="-1.610510">
   <ele>1225.00</ele>
   <time>2014-04-05T10:21:30Z</time>
  </trkpt>
  <trkpt lat="32.724823" lon="-1.610722">
   <ele>1226.00</ele>
   <time>2014-04-05T10:21:32Z</time>
  </trkpt>
  <trkpt lat="32.724839" lon="-1.610937">
   <ele>1226.00</ele>
   <time>2014-04-05T10:21:34Z</time>
  </trkpt>
  <trkpt lat="32.724807" lon="-1.611152">
   <ele>1225.00</ele>
   <time>2014-04-05T10:21:36Z</time>
  </trkpt>
  <trkpt lat="32.724711" lon="-1.611516">
   <ele>1225.00</ele>
   <time>2014-04-05T10:21:40Z</time>
  </trkpt>
  <trkpt lat="32.724560" lon="-1.611720">
   <ele>1225.00</ele>
   <time>2014-04-05T10:21:44Z</time>
  </trkpt>
  <trkpt lat="32.724408" lon="-1.611835">
   <ele>1225.00</ele>
   <time>2014-04-05T10:21:48Z</time>
  </trkpt>
  <trkpt lat="32.724419" lon="-1.611933">
   <ele>1226.00</ele>
   <time>2014-04-05T10:22:04Z</time>
  </trkpt>
  <trkpt lat="32.724422" lon="-1.611921">
   <ele>1226.00</ele>
   <time>2014-04-05T10:22:19Z</time>
  </trkpt>
  <trkpt lat="32.724425" lon="-1.611916">
   <ele>1226.00</ele>
   <time>2014-04-05T10:22:35Z</time>
  </trkpt>
  <trkpt lat="32.724427" lon="-1.611913">
   <ele>1226.00</ele>
   <time>2014-04-05T10:22:50Z</time>
  </trkpt>
  <trkpt lat="32.724426" lon="-1.611909">
   <ele>1226.00</ele>
   <time>2014-04-05T10:23:06Z</time>
  </trkpt>
  <trkpt lat="32.724430" lon="-1.611911">
   <ele>1227.00</ele>
   <time>2014-04-05T10:23:22Z</time>
  </trkpt>
  <trkpt lat="32.724431" lon="-1.611910">
   <ele>1227.00</ele>
   <time>2014-04-05T10:23:37Z</time>
  </trkpt>
  <trkpt lat="32.724433" lon="-1.611913">
   <ele>1228.00</ele>
   <time>2014-04-05T10:23:53Z</time>
  </trkpt>
  <trkpt lat="32.724439" lon="-1.611918">
   <ele>1229.00</ele>
   <time>2014-04-05T10:24:09Z</time>
  </trkpt>
  <trkpt lat="32.724441" lon="-1.611921">
   <ele>1229.00</ele>
   <time>2014-04-05T10:24:24Z</time>
  </trkpt>
  <trkpt lat="32.724443" lon="-1.611922">
   <ele>1230.00</ele>
   <time>2014-04-05T10:24:40Z</time>
  </trkpt>
  <trkpt lat="32.724444" lon="-1.611921">
   <ele>1229.00</ele>
   <time>2014-04-05T10:24:55Z</time>
  </trkpt>
  <trkpt lat="32.724446" lon="-1.611924">
   <ele>1230.00</ele>
   <time>2014-04-05T10:25:11Z</time>
  </trkpt>
  <trkpt lat="32.724447" lon="-1.611926">
   <ele>1231.00</ele>
   <time>2014-04-05T10:25:27Z</time>
  </trkpt>
  <trkpt lat="32.724448" lon="-1.611925">
   <ele>1231.00</ele>
   <time>2014-04-05T10:25:43Z</time>
  </trkpt>
  <trkpt lat="32.724450" lon="-1.611926">
   <ele>1231.00</ele>
   <time>2014-04-05T10:25:58Z</time>
  </trkpt>
  <trkpt lat="32.724450" lon="-1.611926">
   <ele>1231.00</ele>
   <time>2014-04-05T10:26:14Z</time>
  </trkpt>
  <trkpt lat="32.724451" lon="-1.611926">
   <ele>1231.00</ele>
   <time>2014-04-05T10:26:29Z</time>
  </trkpt>
  <trkpt lat="32.724452" lon="-1.611927">
   <ele>1231.00</ele>
   <time>2014-04-05T10:26:45Z</time>
  </trkpt>
  <trkpt lat="32.724454" lon="-1.611927">
   <ele>1231.00</ele>
   <time>2014-04-05T10:27:01Z</time>
  </trkpt>
  <trkpt lat="32.724455" lon="-1.611928">
   <ele>1231.00</ele>
   <time>2014-04-05T10:27:16Z</time>
  </trkpt>
  <trkpt lat="32.724453" lon="-1.611927">
   <ele>1230.00</ele>
   <time>2014-04-05T10:27:32Z</time>
  </trkpt>
  <trkpt lat="32.724448" lon="-1.611923">
   <ele>1229.00</ele>
   <time>2014-04-05T10:27:47Z</time>
  </trkpt>
  <trkpt lat="32.724453" lon="-1.611926">
   <ele>1229.00</ele>
   <time>2014-04-05T10:28:03Z</time>
  </trkpt>
  <trkpt lat="32.724454" lon="-1.611926">
   <ele>1230.00</ele>
   <time>2014-04-05T10:28:19Z</time>
  </trkpt>
  <trkpt lat="32.724455" lon="-1.611927">
   <ele>1230.00</ele>
   <time>2014-04-05T10:28:34Z</time>
  </trkpt>
  <trkpt lat="32.724452" lon="-1.611926">
   <ele>1229.00</ele>
   <time>2014-04-05T10:28:50Z</time>
  </trkpt>
  <trkpt lat="32.724449" lon="-1.611925">
   <ele>1229.00</ele>
   <time>2014-04-05T10:29:05Z</time>
  </trkpt>
  <trkpt lat="32.724450" lon="-1.611926">
   <ele>1229.00</ele>
   <time>2014-04-05T10:29:21Z</time>
  </trkpt>
  <trkpt lat="32.724449" lon="-1.611926">
   <ele>1228.00</ele>
   <time>2014-04-05T10:29:37Z</time>
  </trkpt>
  <trkpt lat="32.724448" lon="-1.611926">
   <ele>1228.00</ele>
   <time>2014-04-05T10:29:52Z</time>
  </trkpt>
  <trkpt lat="32.724446" lon="-1.611925">
   <ele>1228.00</ele>
   <time>2014-04-05T10:30:08Z</time>
  </trkpt>
  <trkpt lat="32.724445" lon="-1.611925">
   <ele>1228.00</ele>
   <time>2014-04-05T10:30:23Z</time>
  </trkpt>
  <trkpt lat="32.724445" lon="-1.611924">
   <ele>1228.00</ele>
   <time>2014-04-05T10:30:39Z</time>
  </trkpt>
  <trkpt lat="32.724447" lon="-1.611925">
   <ele>1228.00</ele>
   <time>2014-04-05T10:30:55Z</time>
  </trkpt>
  <trkpt lat="32.724448" lon="-1.611926">
   <ele>1228.00</ele>
   <time>2014-04-05T10:31:10Z</time>
  </trkpt>
  <trkpt lat="32.724449" lon="-1.611926">
   <ele>1228.00</ele>
   <time>2014-04-05T10:31:26Z</time>
  </trkpt>
  <trkpt lat="32.724450" lon="-1.611926">
   <ele>1228.00</ele>
   <time>2014-04-05T10:31:42Z</time>
  </trkpt>
  <trkpt lat="32.724448" lon="-1.611925">
   <ele>1228.00</ele>
   <time>2014-04-05T10:31:57Z</time>
  </trkpt>
  <trkpt lat="32.724501" lon="-1.611963">
   <ele>1228.00</ele>
   <time>2014-04-05T10:32:13Z</time>
  </trkpt>
  <trkpt lat="32.724662" lon="-1.612063">
   <ele>1227.00</ele>
   <time>2014-04-05T10:32:22Z</time>
  </trkpt>
  <trkpt lat="32.724763" lon="-1.612232">
   <ele>1226.00</ele>
   <time>2014-04-05T10:32:30Z</time>
  </trkpt>
  <trkpt lat="32.724779" lon="-1.612491">
   <ele>1225.00</ele>
   <time>2014-04-05T10:32:37Z</time>
  </trkpt>
  <trkpt lat="32.724831" lon="-1.612752">
   <ele>1225.00</ele>
   <time>2014-04-05T10:32:42Z</time>
  </trkpt>
  <trkpt lat="32.724995" lon="-1.613163">
   <ele>1225.00</ele>
   <time>2014-04-05T10:32:50Z</time>
  </trkpt>
  <trkpt lat="32.725089" lon="-1.613373">
   <ele>1224.00</ele>
   <time>2014-04-05T10:32:54Z</time>
  </trkpt>
  <trkpt lat="32.725225" lon="-1.613639">
   <ele>1224.00</ele>
   <time>2014-04-05T10:32:59Z</time>
  </trkpt>
  <trkpt lat="32.725355" lon="-1.613828">
   <ele>1224.00</ele>
   <time>2014-04-05T10:33:03Z</time>
  </trkpt>
  <trkpt lat="32.725533" lon="-1.613989">
   <ele>1224.00</ele>
   <time>2014-04-05T10:33:07Z</time>
  </trkpt>
  <trkpt lat="32.725695" lon="-1.614189">
   <ele>1224.00</ele>
   <time>2014-04-05T10:33:11Z</time>
  </trkpt>
  <trkpt lat="32.725798" lon="-1.614378">
   <ele>1224.00</ele>
   <time>2014-04-05T10:33:14Z</time>
  </trkpt>
  <trkpt lat="32.725927" lon="-1.614562">
   <ele>1223.00</ele>
   <time>2014-04-05T10:33:17Z</time>
  </trkpt>
  <trkpt lat="32.726078" lon="-1.614735">
   <ele>1223.00</ele>
   <time>2014-04-05T10:33:20Z</time>
  </trkpt>
  <trkpt lat="32.726273" lon="-1.614862">
   <ele>1223.00</ele>
   <time>2014-04-05T10:33:23Z</time>
  </trkpt>
  <trkpt lat="32.726488" lon="-1.614971">
   <ele>1223.00</ele>
   <time>2014-04-05T10:33:26Z</time>
  </trkpt>
  <trkpt lat="32.726714" lon="-1.615054">
   <ele>1224.00</ele>
   <time>2014-04-05T10:33:29Z</time>
  </trkpt>
  <trkpt lat="32.727002" lon="-1.615163">
   <ele>1224.00</ele>
   <time>2014-04-05T10:33:33Z</time>
  </trkpt>
  <trkpt lat="32.727177" lon="-1.615285">
   <ele>1224.00</ele>
   <time>2014-04-05T10:33:36Z</time>
  </trkpt>
  <trkpt lat="32.727370" lon="-1.615372">
   <ele>1224.00</ele>
   <time>2014-04-05T10:33:39Z</time>
  </trkpt>
  <trkpt lat="32.727571" lon="-1.615406">
   <ele>1224.00</ele>
   <time>2014-04-05T10:33:42Z</time>
  </trkpt>
  <trkpt lat="32.727757" lon="-1.615472">
   <ele>1225.00</ele>
   <time>2014-04-05T10:33:46Z</time>
  </trkpt>
  <trkpt lat="32.727923" lon="-1.615632">
   <ele>1227.00</ele>
   <time>2014-04-05T10:33:52Z</time>
  </trkpt>
  <trkpt lat="32.728105" lon="-1.615684">
   <ele>1227.00</ele>
   <time>2014-04-05T10:33:58Z</time>
  </trkpt>
  <trkpt lat="32.728323" lon="-1.615691">
   <ele>1227.00</ele>
   <time>2014-04-05T10:34:04Z</time>
  </trkpt>
  <trkpt lat="32.728497" lon="-1.615756">
   <ele>1225.00</ele>
   <time>2014-04-05T10:34:10Z</time>
  </trkpt>
  <trkpt lat="32.728596" lon="-1.615937">
   <ele>1224.00</ele>
   <time>2014-04-05T10:34:15Z</time>
  </trkpt>
  <trkpt lat="32.728736" lon="-1.616096">
   <ele>1223.00</ele>
   <time>2014-04-05T10:34:20Z</time>
  </trkpt>
  <trkpt lat="32.728930" lon="-1.616179">
   <ele>1223.00</ele>
   <time>2014-04-05T10:34:25Z</time>
  </trkpt>
  <trkpt lat="32.729082" lon="-1.616059">
   <ele>1223.00</ele>
   <time>2014-04-05T10:34:29Z</time>
  </trkpt>
  <trkpt lat="32.729250" lon="-1.615912">
   <ele>1223.00</ele>
   <time>2014-04-05T10:34:33Z</time>
  </trkpt>
  <trkpt lat="32.729426" lon="-1.615735">
   <ele>1224.00</ele>
   <time>2014-04-05T10:34:37Z</time>
  </trkpt>
  <trkpt lat="32.729561" lon="-1.615501">
   <ele>1224.00</ele>
   <time>2014-04-05T10:34:41Z</time>
  </trkpt>
  <trkpt lat="32.729706" lon="-1.615243">
   <ele>1224.00</ele>
   <time>2014-04-05T10:34:45Z</time>
  </trkpt>
  <trkpt lat="32.729840" lon="-1.615058">
   <ele>1224.00</ele>
   <time>2014-04-05T10:34:48Z</time>
  </trkpt>
  <trkpt lat="32.730010" lon="-1.614916">
   <ele>1225.00</ele>
   <time>2014-04-05T10:34:51Z</time>
  </trkpt>
  <trkpt lat="32.730209" lon="-1.614806">
   <ele>1225.00</ele>
   <time>2014-04-05T10:34:54Z</time>
  </trkpt>
  <trkpt lat="32.730420" lon="-1.614712">
   <ele>1225.00</ele>
   <time>2014-04-05T10:34:57Z</time>
  </trkpt>
  <trkpt lat="32.730631" lon="-1.614679">
   <ele>1225.00</ele>
   <time>2014-04-05T10:35:00Z</time>
  </trkpt>
  <trkpt lat="32.730831" lon="-1.614699">
   <ele>1225.00</ele>
   <time>2014-04-05T10:35:03Z</time>
  </trkpt>
  <trkpt lat="32.731011" lon="-1.614794">
   <ele>1225.00</ele>
   <time>2014-04-05T10:35:06Z</time>
  </trkpt>
  <trkpt lat="32.731180" lon="-1.614932">
   <ele>1224.00</ele>
   <time>2014-04-05T10:35:09Z</time>
  </trkpt>
  <trkpt lat="32.731331" lon="-1.615086">
   <ele>1224.00</ele>
   <time>2014-04-05T10:35:12Z</time>
  </trkpt>
  <trkpt lat="32.731469" lon="-1.615236">
   <ele>1223.00</ele>
   <time>2014-04-05T10:35:15Z</time>
  </trkpt>
  <trkpt lat="32.731663" lon="-1.615405">
   <ele>1223.00</ele>
   <time>2014-04-05T10:35:19Z</time>
  </trkpt>
  <trkpt lat="32.731812" lon="-1.615531">
   <ele>1223.00</ele>
   <time>2014-04-05T10:35:22Z</time>
  </trkpt>
  <trkpt lat="32.731956" lon="-1.615670">
   <ele>1223.00</ele>
   <time>2014-04-05T10:35:26Z</time>
  </trkpt>
  <trkpt lat="32.732050" lon="-1.615871">
   <ele>1223.00</ele>
   <time>2014-04-05T10:35:31Z</time>
  </trkpt>
  <trkpt lat="32.732117" lon="-1.616125">
   <ele>1223.00</ele>
   <time>2014-04-05T10:35:36Z</time>
  </trkpt>
  <trkpt lat="32.732226" lon="-1.616305">
   <ele>1223.00</ele>
   <time>2014-04-05T10:35:40Z</time>
  </trkpt>
  <trkpt lat="32.732375" lon="-1.616459">
   <ele>1223.00</ele>
   <time>2014-04-05T10:35:44Z</time>
  </trkpt>
  <trkpt lat="32.732545" lon="-1.616615">
   <ele>1223.00</ele>
   <time>2014-04-05T10:35:48Z</time>
  </trkpt>
  <trkpt lat="32.732802" lon="-1.616834">
   <ele>1223.00</ele>
   <time>2014-04-05T10:35:53Z</time>
  </trkpt>
  <trkpt lat="32.732984" lon="-1.616958">
   <ele>1223.00</ele>
   <time>2014-04-05T10:35:56Z</time>
  </trkpt>
  <trkpt lat="32.733186" lon="-1.617045">
   <ele>1223.00</ele>
   <time>2014-04-05T10:35:59Z</time>
  </trkpt>
  <trkpt lat="32.733395" lon="-1.617107">
   <ele>1223.00</ele>
   <time>2014-04-05T10:36:02Z</time>
  </trkpt>
  <trkpt lat="32.733603" lon="-1.617174">
   <ele>1223.00</ele>
   <time>2014-04-05T10:36:05Z</time>
  </trkpt>
  <trkpt lat="32.733787" lon="-1.617298">
   <ele>1222.00</ele>
   <time>2014-04-05T10:36:08Z</time>
  </trkpt>
  <trkpt lat="32.734468" lon="-1.617890">
   <ele>1221.00</ele>
   <time>2014-04-05T10:36:19Z</time>
  </trkpt>
  <trkpt lat="32.735082" lon="-1.618433">
   <ele>1220.00</ele>
   <time>2014-04-05T10:36:29Z</time>
  </trkpt>
  <trkpt lat="32.735407" lon="-1.618711">
   <ele>1220.00</ele>
   <time>2014-04-05T10:36:34Z</time>
  </trkpt>
  <trkpt lat="32.735722" lon="-1.618996">
   <ele>1221.00</ele>
   <time>2014-04-05T10:36:39Z</time>
  </trkpt>
  <trkpt lat="32.736043" lon="-1.619273">
   <ele>1221.00</ele>
   <time>2014-04-05T10:36:44Z</time>
  </trkpt>
  <trkpt lat="32.736219" lon="-1.619458">
   <ele>1221.00</ele>
   <time>2014-04-05T10:36:47Z</time>
  </trkpt>
  <trkpt lat="32.736330" lon="-1.619677">
   <ele>1220.00</ele>
   <time>2014-04-05T10:36:50Z</time>
  </trkpt>
  <trkpt lat="32.736360" lon="-1.619924">
   <ele>1220.00</ele>
   <time>2014-04-05T10:36:53Z</time>
  </trkpt>
  <trkpt lat="32.736331" lon="-1.620179">
   <ele>1220.00</ele>
   <time>2014-04-05T10:36:56Z</time>
  </trkpt>
  <trkpt lat="32.736263" lon="-1.620404">
   <ele>1221.00</ele>
   <time>2014-04-05T10:36:59Z</time>
  </trkpt>
  <trkpt lat="32.736185" lon="-1.620600">
   <ele>1222.00</ele>
   <time>2014-04-05T10:37:02Z</time>
  </trkpt>
  <trkpt lat="32.736062" lon="-1.620908">
   <ele>1223.00</ele>
   <time>2014-04-05T10:37:07Z</time>
  </trkpt>
  <trkpt lat="32.736039" lon="-1.621129">
   <ele>1225.00</ele>
   <time>2014-04-05T10:37:11Z</time>
  </trkpt>
  <trkpt lat="32.736026" lon="-1.621364">
   <ele>1226.00</ele>
   <time>2014-04-05T10:37:16Z</time>
  </trkpt>
  <trkpt lat="32.736016" lon="-1.621644">
   <ele>1228.00</ele>
   <time>2014-04-05T10:37:21Z</time>
  </trkpt>
  <trkpt lat="32.736054" lon="-1.621881">
   <ele>1229.00</ele>
   <time>2014-04-05T10:37:25Z</time>
  </trkpt>
  <trkpt lat="32.736039" lon="-1.622143">
   <ele>1230.00</ele>
   <time>2014-04-05T10:37:29Z</time>
  </trkpt>
  <trkpt lat="32.735883" lon="-1.622326">
   <ele>1230.00</ele>
   <time>2014-04-05T10:37:33Z</time>
  </trkpt>
  <trkpt lat="32.735746" lon="-1.622493">
   <ele>1231.00</ele>
   <time>2014-04-05T10:37:37Z</time>
  </trkpt>
  <trkpt lat="32.735706" lon="-1.622704">
   <ele>1231.00</ele>
   <time>2014-04-05T10:37:41Z</time>
  </trkpt>
  <trkpt lat="32.735754" lon="-1.622946">
   <ele>1231.00</ele>
   <time>2014-04-05T10:37:45Z</time>
  </trkpt>
  <trkpt lat="32.735806" lon="-1.623218">
   <ele>1231.00</ele>
   <time>2014-04-05T10:37:49Z</time>
  </trkpt>
  <trkpt lat="32.735865" lon="-1.623421">
   <ele>1231.00</ele>
   <time>2014-04-05T10:37:52Z</time>
  </trkpt>
  <trkpt lat="32.736019" lon="-1.623597">
   <ele>1231.00</ele>
   <time>2014-04-05T10:37:56Z</time>
  </trkpt>
  <trkpt lat="32.736217" lon="-1.623631">
   <ele>1231.00</ele>
   <time>2014-04-05T10:38:00Z</time>
  </trkpt>
  <trkpt lat="32.736416" lon="-1.623699">
   <ele>1231.00</ele>
   <time>2014-04-05T10:38:04Z</time>
  </trkpt>
  <trkpt lat="32.736607" lon="-1.623816">
   <ele>1230.00</ele>
   <time>2014-04-05T10:38:08Z</time>
  </trkpt>
  <trkpt lat="32.736782" lon="-1.623963">
   <ele>1230.00</ele>
   <time>2014-04-05T10:38:12Z</time>
  </trkpt>
  <trkpt lat="32.736917" lon="-1.624148">
   <ele>1230.00</ele>
   <time>2014-04-05T10:38:16Z</time>
  </trkpt>
  <trkpt lat="32.736956" lon="-1.624373">
   <ele>1230.00</ele>
   <time>2014-04-05T10:38:20Z</time>
  </trkpt>
  <trkpt lat="32.737015" lon="-1.624595">
   <ele>1231.00</ele>
   <time>2014-04-05T10:38:24Z</time>
  </trkpt>
  <trkpt lat="32.737068" lon="-1.624834">
   <ele>1231.00</ele>
   <time>2014-04-05T10:38:28Z</time>
  </trkpt>
  <trkpt lat="32.737097" lon="-1.625072">
   <ele>1232.00</ele>
   <time>2014-04-05T10:38:32Z</time>
  </trkpt>
  <trkpt lat="32.737091" lon="-1.625291">
   <ele>1232.00</ele>
   <time>2014-04-05T10:38:36Z</time>
  </trkpt>
  <trkpt lat="32.737049" lon="-1.625560">
   <ele>1230.00</ele>
   <time>2014-04-05T10:38:41Z</time>
  </trkpt>
  <trkpt lat="32.736996" lon="-1.625832">
   <ele>1227.00</ele>
   <time>2014-04-05T10:38:45Z</time>
  </trkpt>
  <trkpt lat="32.736987" lon="-1.626085">
   <ele>1225.00</ele>
   <time>2014-04-05T10:38:49Z</time>
  </trkpt>
  <trkpt lat="32.737039" lon="-1.626314">
   <ele>1223.00</ele>
   <time>2014-04-05T10:38:53Z</time>
  </trkpt>
  <trkpt lat="32.737182" lon="-1.626506">
   <ele>1222.00</ele>
   <time>2014-04-05T10:38:58Z</time>
  </trkpt>
  <trkpt lat="32.737360" lon="-1.626617">
   <ele>1220.00</ele>
   <time>2014-04-05T10:39:02Z</time>
  </trkpt>
  <trkpt lat="32.737554" lon="-1.626650">
   <ele>1220.00</ele>
   <time>2014-04-05T10:39:06Z</time>
  </trkpt>
  <trkpt lat="32.737703" lon="-1.626629">
   <ele>1221.00</ele>
   <time>2014-04-05T10:39:22Z</time>
  </trkpt>
  <trkpt lat="32.737890" lon="-1.626524">
   <ele>1222.00</ele>
   <time>2014-04-05T10:39:33Z</time>
  </trkpt>
  <trkpt lat="32.738406" lon="-1.626216">
   <ele>1223.00</ele>
   <time>2014-04-05T10:39:42Z</time>
  </trkpt>
  <trkpt lat="32.738593" lon="-1.626132">
   <ele>1223.00</ele>
   <time>2014-04-05T10:39:45Z</time>
  </trkpt>
  <trkpt lat="32.738794" lon="-1.626059">
   <ele>1223.00</ele>
   <time>2014-04-05T10:39:49Z</time>
  </trkpt>
  <trkpt lat="32.738966" lon="-1.626031">
   <ele>1223.00</ele>
   <time>2014-04-05T10:39:57Z</time>
  </trkpt>
  <trkpt lat="32.739096" lon="-1.625827">
   <ele>1223.00</ele>
   <time>2014-04-05T10:40:03Z</time>
  </trkpt>
  <trkpt lat="32.739211" lon="-1.625612">
   <ele>1223.00</ele>
   <time>2014-04-05T10:40:07Z</time>
  </trkpt>
  <trkpt lat="32.739365" lon="-1.625416">
   <ele>1224.00</ele>
   <time>2014-04-05T10:40:11Z</time>
  </trkpt>
  <trkpt lat="32.739533" lon="-1.625254">
   <ele>1224.00</ele>
   <time>2014-04-05T10:40:15Z</time>
  </trkpt>
  <trkpt lat="32.739644" lon="-1.625069">
   <ele>1225.00</ele>
   <time>2014-04-05T10:40:19Z</time>
  </trkpt>
  <trkpt lat="32.739688" lon="-1.624842">
   <ele>1226.00</ele>
   <time>2014-04-05T10:40:23Z</time>
  </trkpt>
  <trkpt lat="32.739687" lon="-1.624495">
   <ele>1227.00</ele>
   <time>2014-04-05T10:40:29Z</time>
  </trkpt>
  <trkpt lat="32.739652" lon="-1.624235">
   <ele>1229.00</ele>
   <time>2014-04-05T10:40:34Z</time>
  </trkpt>
  <trkpt lat="32.739612" lon="-1.624000">
   <ele>1230.00</ele>
   <time>2014-04-05T10:40:38Z</time>
  </trkpt>
  <trkpt lat="32.739596" lon="-1.623750">
   <ele>1232.00</ele>
   <time>2014-04-05T10:40:42Z</time>
  </trkpt>
  <trkpt lat="32.739579" lon="-1.623449">
   <ele>1232.00</ele>
   <time>2014-04-05T10:40:47Z</time>
  </trkpt>
  <trkpt lat="32.739558" lon="-1.623180">
   <ele>1233.00</ele>
   <time>2014-04-05T10:40:52Z</time>
  </trkpt>
  <trkpt lat="32.739593" lon="-1.622966">
   <ele>1233.00</ele>
   <time>2014-04-05T10:40:58Z</time>
  </trkpt>
  <trkpt lat="32.739560" lon="-1.622895">
   <ele>1232.00</ele>
   <time>2014-04-05T10:41:11Z</time>
  </trkpt>
  <trkpt lat="32.739568" lon="-1.623094">
   <ele>1231.00</ele>
   <time>2014-04-05T10:41:22Z</time>
  </trkpt>
  <trkpt lat="32.739559" lon="-1.623348">
   <ele>1230.00</ele>
   <time>2014-04-05T10:41:28Z</time>
  </trkpt>
  <trkpt lat="32.739580" lon="-1.623642">
   <ele>1230.00</ele>
   <time>2014-04-05T10:41:33Z</time>
  </trkpt>
  <trkpt lat="32.739603" lon="-1.624098">
   <ele>1228.00</ele>
   <time>2014-04-05T10:41:40Z</time>
  </trkpt>
  <trkpt lat="32.739642" lon="-1.624365">
   <ele>1227.00</ele>
   <time>2014-04-05T10:41:45Z</time>
  </trkpt>
  <trkpt lat="32.739674" lon="-1.624579">
   <ele>1225.00</ele>
   <time>2014-04-05T10:41:50Z</time>
  </trkpt>
  <trkpt lat="32.739660" lon="-1.624913">
   <ele>1223.00</ele>
   <time>2014-04-05T10:41:56Z</time>
  </trkpt>
  <trkpt lat="32.739603" lon="-1.625138">
   <ele>1223.00</ele>
   <time>2014-04-05T10:42:00Z</time>
  </trkpt>
  <trkpt lat="32.739473" lon="-1.625333">
   <ele>1222.00</ele>
   <time>2014-04-05T10:42:04Z</time>
  </trkpt>
  <trkpt lat="32.739219" lon="-1.625585">
   <ele>1221.00</ele>
   <time>2014-04-05T10:42:10Z</time>
  </trkpt>
  <trkpt lat="32.739095" lon="-1.625812">
   <ele>1221.00</ele>
   <time>2014-04-05T10:42:14Z</time>
  </trkpt>
  <trkpt lat="32.738942" lon="-1.626077">
   <ele>1221.00</ele>
   <time>2014-04-05T10:42:19Z</time>
  </trkpt>
  <trkpt lat="32.738977" lon="-1.626292">
   <ele>1221.00</ele>
   <time>2014-04-05T10:42:23Z</time>
  </trkpt>
  <trkpt lat="32.739051" lon="-1.626501">
   <ele>1221.00</ele>
   <time>2014-04-05T10:42:27Z</time>
  </trkpt>
  <trkpt lat="32.738975" lon="-1.626727">
   <ele>1221.00</ele>
   <time>2014-04-05T10:42:32Z</time>
  </trkpt>
  <trkpt lat="32.738945" lon="-1.626953">
   <ele>1222.00</ele>
   <time>2014-04-05T10:42:36Z</time>
  </trkpt>
  <trkpt lat="32.738940" lon="-1.627167">
   <ele>1222.00</ele>
   <time>2014-04-05T10:42:40Z</time>
  </trkpt>
  <trkpt lat="32.738869" lon="-1.627424">
   <ele>1224.00</ele>
   <time>2014-04-05T10:42:44Z</time>
  </trkpt>
  <trkpt lat="32.738815" lon="-1.627688">
   <ele>1223.00</ele>
   <time>2014-04-05T10:42:48Z</time>
  </trkpt>
  <trkpt lat="32.738820" lon="-1.627964">
   <ele>1222.00</ele>
   <time>2014-04-05T10:42:52Z</time>
  </trkpt>
  <trkpt lat="32.738862" lon="-1.628246">
   <ele>1221.00</ele>
   <time>2014-04-05T10:42:56Z</time>
  </trkpt>
  <trkpt lat="32.738932" lon="-1.628450">
   <ele>1220.00</ele>
   <time>2014-04-05T10:42:59Z</time>
  </trkpt>
  <trkpt lat="32.739057" lon="-1.628628">
   <ele>1220.00</ele>
   <time>2014-04-05T10:43:02Z</time>
  </trkpt>
  <trkpt lat="32.739271" lon="-1.628824">
   <ele>1220.00</ele>
   <time>2014-04-05T10:43:06Z</time>
  </trkpt>
  <trkpt lat="32.739413" lon="-1.629000">
   <ele>1220.00</ele>
   <time>2014-04-05T10:43:09Z</time>
  </trkpt>
  <trkpt lat="32.739537" lon="-1.629195">
   <ele>1220.00</ele>
   <time>2014-04-05T10:43:12Z</time>
  </trkpt>
  <trkpt lat="32.739682" lon="-1.629362">
   <ele>1220.00</ele>
   <time>2014-04-05T10:43:15Z</time>
  </trkpt>
  <trkpt lat="32.739866" lon="-1.629475">
   <ele>1220.00</ele>
   <time>2014-04-05T10:43:18Z</time>
  </trkpt>
  <trkpt lat="32.740048" lon="-1.629493">
   <ele>1220.00</ele>
   <time>2014-04-05T10:43:21Z</time>
  </trkpt>
  <trkpt lat="32.740241" lon="-1.629440">
   <ele>1220.00</ele>
   <time>2014-04-05T10:43:24Z</time>
  </trkpt>
  <trkpt lat="32.740445" lon="-1.629413">
   <ele>1220.00</ele>
   <time>2014-04-05T10:43:27Z</time>
  </trkpt>
  <trkpt lat="32.740642" lon="-1.629451">
   <ele>1220.00</ele>
   <time>2014-04-05T10:43:30Z</time>
  </trkpt>
  <trkpt lat="32.740832" lon="-1.629517">
   <ele>1220.00</ele>
   <time>2014-04-05T10:43:33Z</time>
  </trkpt>
  <trkpt lat="32.741042" lon="-1.629506">
   <ele>1221.00</ele>
   <time>2014-04-05T10:43:36Z</time>
  </trkpt>
  <trkpt lat="32.741241" lon="-1.629459">
   <ele>1221.00</ele>
   <time>2014-04-05T10:43:39Z</time>
  </trkpt>
  <trkpt lat="32.741430" lon="-1.629487">
   <ele>1221.00</ele>
   <time>2014-04-05T10:43:42Z</time>
  </trkpt>
  <trkpt lat="32.741663" lon="-1.629496">
   <ele>1222.00</ele>
   <time>2014-04-05T10:43:46Z</time>
  </trkpt>
  <trkpt lat="32.741809" lon="-1.629367">
   <ele>1222.00</ele>
   <time>2014-04-05T10:43:49Z</time>
  </trkpt>
  <trkpt lat="32.741940" lon="-1.629182">
   <ele>1222.00</ele>
   <time>2014-04-05T10:43:52Z</time>
  </trkpt>
  <trkpt lat="32.742078" lon="-1.628961">
   <ele>1222.00</ele>
   <time>2014-04-05T10:43:55Z</time>
  </trkpt>
  <trkpt lat="32.742202" lon="-1.628727">
   <ele>1222.00</ele>
   <time>2014-04-05T10:43:58Z</time>
  </trkpt>
  <trkpt lat="32.742309" lon="-1.628482">
   <ele>1222.00</ele>
   <time>2014-04-05T10:44:01Z</time>
  </trkpt>
  <trkpt lat="32.742423" lon="-1.628243">
   <ele>1221.00</ele>
   <time>2014-04-05T10:44:04Z</time>
  </trkpt>
  <trkpt lat="32.742571" lon="-1.628032">
   <ele>1221.00</ele>
   <time>2014-04-05T10:44:07Z</time>
  </trkpt>
  <trkpt lat="32.742720" lon="-1.627859">
   <ele>1221.00</ele>
   <time>2014-04-05T10:44:10Z</time>
  </trkpt>
  <trkpt lat="32.742913" lon="-1.627775">
   <ele>1220.00</ele>
   <time>2014-04-05T10:44:15Z</time>
  </trkpt>
  <trkpt lat="32.743117" lon="-1.627741">
   <ele>1220.00</ele>
   <time>2014-04-05T10:44:20Z</time>
  </trkpt>
  <trkpt lat="32.743328" lon="-1.627774">
   <ele>1220.00</ele>
   <time>2014-04-05T10:44:24Z</time>
  </trkpt>
  <trkpt lat="32.743557" lon="-1.627823">
   <ele>1220.00</ele>
   <time>2014-04-05T10:44:28Z</time>
  </trkpt>
  <trkpt lat="32.743759" lon="-1.627820">
   <ele>1219.00</ele>
   <time>2014-04-05T10:44:31Z</time>
  </trkpt>
  <trkpt lat="32.743967" lon="-1.627788">
   <ele>1219.00</ele>
   <time>2014-04-05T10:44:34Z</time>
  </trkpt>
  <trkpt lat="32.744189" lon="-1.627731">
   <ele>1219.00</ele>
   <time>2014-04-05T10:44:37Z</time>
  </trkpt>
  <trkpt lat="32.744416" lon="-1.627639">
   <ele>1220.00</ele>
   <time>2014-04-05T10:44:40Z</time>
  </trkpt>
  <trkpt lat="32.744632" lon="-1.627517">
   <ele>1220.00</ele>
   <time>2014-04-05T10:44:43Z</time>
  </trkpt>
  <trkpt lat="32.744839" lon="-1.627379">
   <ele>1220.00</ele>
   <time>2014-04-05T10:44:46Z</time>
  </trkpt>
  <trkpt lat="32.745069" lon="-1.627310">
   <ele>1220.00</ele>
   <time>2014-04-05T10:44:49Z</time>
  </trkpt>
  <trkpt lat="32.745360" lon="-1.627252">
   <ele>1220.00</ele>
   <time>2014-04-05T10:44:53Z</time>
  </trkpt>
  <trkpt lat="32.745663" lon="-1.627248">
   <ele>1220.00</ele>
   <time>2014-04-05T10:44:57Z</time>
  </trkpt>
  <trkpt lat="32.746082" lon="-1.627172">
   <ele>1220.00</ele>
   <time>2014-04-05T10:45:02Z</time>
  </trkpt>
  <trkpt lat="32.746337" lon="-1.627064">
   <ele>1220.00</ele>
   <time>2014-04-05T10:45:05Z</time>
  </trkpt>
  <trkpt lat="32.746765" lon="-1.626838">
   <ele>1221.00</ele>
   <time>2014-04-05T10:45:10Z</time>
  </trkpt>
  <trkpt lat="32.747026" lon="-1.626802">
   <ele>1221.00</ele>
   <time>2014-04-05T10:45:13Z</time>
  </trkpt>
  <trkpt lat="32.747240" lon="-1.626917">
   <ele>1220.00</ele>
   <time>2014-04-05T10:45:16Z</time>
  </trkpt>
  <trkpt lat="32.747355" lon="-1.627140">
   <ele>1220.00</ele>
   <time>2014-04-05T10:45:19Z</time>
  </trkpt>
  <trkpt lat="32.747556" lon="-1.627678">
   <ele>1219.00</ele>
   <time>2014-04-05T10:45:25Z</time>
  </trkpt>
  <trkpt lat="32.747722" lon="-1.628047">
   <ele>1219.00</ele>
   <time>2014-04-05T10:45:29Z</time>
  </trkpt>
  <trkpt lat="32.747844" lon="-1.628295">
   <ele>1219.00</ele>
   <time>2014-04-05T10:45:32Z</time>
  </trkpt>
  <trkpt lat="32.748050" lon="-1.628389">
   <ele>1219.00</ele>
   <time>2014-04-05T10:45:35Z</time>
  </trkpt>
  <trkpt lat="32.748273" lon="-1.628343">
   <ele>1219.00</ele>
   <time>2014-04-05T10:45:38Z</time>
  </trkpt>
  <trkpt lat="32.748497" lon="-1.628341">
   <ele>1219.00</ele>
   <time>2014-04-05T10:45:41Z</time>
  </trkpt>
  <trkpt lat="32.748713" lon="-1.628439">
   <ele>1219.00</ele>
   <time>2014-04-05T10:45:44Z</time>
  </trkpt>
  <trkpt lat="32.749130" lon="-1.628705">
   <ele>1219.00</ele>
   <time>2014-04-05T10:45:50Z</time>
  </trkpt>
  <trkpt lat="32.749284" lon="-1.628827">
   <ele>1219.00</ele>
   <time>2014-04-05T10:45:53Z</time>
  </trkpt>
  <trkpt lat="32.749466" lon="-1.628938">
   <ele>1220.00</ele>
   <time>2014-04-05T10:45:58Z</time>
  </trkpt>
  <trkpt lat="32.749643" lon="-1.629044">
   <ele>1220.00</ele>
   <time>2014-04-05T10:46:07Z</time>
  </trkpt>
  <trkpt lat="32.749804" lon="-1.629182">
   <ele>1221.00</ele>
   <time>2014-04-05T10:46:14Z</time>
  </trkpt>
  <trkpt lat="32.749921" lon="-1.629348">
   <ele>1221.00</ele>
   <time>2014-04-05T10:46:19Z</time>
  </trkpt>
  <trkpt lat="32.750070" lon="-1.629520">
   <ele>1221.00</ele>
   <time>2014-04-05T10:46:24Z</time>
  </trkpt>
  <trkpt lat="32.750234" lon="-1.629685">
   <ele>1221.00</ele>
   <time>2014-04-05T10:46:28Z</time>
  </trkpt>
  <trkpt lat="32.750559" lon="-1.629968">
   <ele>1222.00</ele>
   <time>2014-04-05T10:46:35Z</time>
  </trkpt>
  <trkpt lat="32.750736" lon="-1.630150">
   <ele>1222.00</ele>
   <time>2014-04-05T10:46:39Z</time>
  </trkpt>
  <trkpt lat="32.750900" lon="-1.630296">
   <ele>1222.00</ele>
   <time>2014-04-05T10:46:43Z</time>
  </trkpt>
  <trkpt lat="32.751086" lon="-1.630411">
   <ele>1222.00</ele>
   <time>2014-04-05T10:46:48Z</time>
  </trkpt>
  <trkpt lat="32.751150" lon="-1.630292">
   <ele>1221.00</ele>
   <time>2014-04-05T10:46:54Z</time>
  </trkpt>
  <trkpt lat="32.750946" lon="-1.630271">
   <ele>1222.00</ele>
   <time>2014-04-05T10:47:00Z</time>
  </trkpt>
  <trkpt lat="32.750738" lon="-1.630159">
   <ele>1222.00</ele>
   <time>2014-04-05T10:47:05Z</time>
  </trkpt>
  <trkpt lat="32.750557" lon="-1.629975">
   <ele>1222.00</ele>
   <time>2014-04-05T10:47:09Z</time>
  </trkpt>
  <trkpt lat="32.750376" lon="-1.629799">
   <ele>1222.00</ele>
   <time>2014-04-05T10:47:13Z</time>
  </trkpt>
  <trkpt lat="32.750188" lon="-1.629654">
   <ele>1222.00</ele>
   <time>2014-04-05T10:47:17Z</time>
  </trkpt>
  <trkpt lat="32.750044" lon="-1.629506">
   <ele>1222.00</ele>
   <time>2014-04-05T10:47:20Z</time>
  </trkpt>
  <trkpt lat="32.749905" lon="-1.629348">
   <ele>1222.00</ele>
   <time>2014-04-05T10:47:23Z</time>
  </trkpt>
  <trkpt lat="32.749783" lon="-1.629184">
   <ele>1222.00</ele>
   <time>2014-04-05T10:47:26Z</time>
  </trkpt>
  <trkpt lat="32.749655" lon="-1.629008">
   <ele>1221.00</ele>
   <time>2014-04-05T10:47:29Z</time>
  </trkpt>
  <trkpt lat="32.749484" lon="-1.628882">
   <ele>1221.00</ele>
   <time>2014-04-05T10:47:32Z</time>
  </trkpt>
  <trkpt lat="32.749302" lon="-1.628802">
   <ele>1221.00</ele>
   <time>2014-04-05T10:47:35Z</time>
  </trkpt>
  <trkpt lat="32.749139" lon="-1.628707">
   <ele>1220.00</ele>
   <time>2014-04-05T10:47:38Z</time>
  </trkpt>
  <trkpt lat="32.748932" lon="-1.628586">
   <ele>1220.00</ele>
   <time>2014-04-05T10:47:42Z</time>
  </trkpt>
  <trkpt lat="32.748749" lon="-1.628491">
   <ele>1220.00</ele>
   <time>2014-04-05T10:47:46Z</time>
  </trkpt>
  <trkpt lat="32.748701" lon="-1.628342">
   <ele>1220.00</ele>
   <time>2014-04-05T10:47:51Z</time>
  </trkpt>
  <trkpt lat="32.749028" lon="-1.628155">
   <ele>1219.00</ele>
   <time>2014-04-05T10:47:58Z</time>
  </trkpt>
  <trkpt lat="32.749297" lon="-1.628016">
   <ele>1219.00</ele>
   <time>2014-04-05T10:48:04Z</time>
  </trkpt>
  <trkpt lat="32.749482" lon="-1.628024">
   <ele>1219.00</ele>
   <time>2014-04-05T10:48:08Z</time>
  </trkpt>
  <trkpt lat="32.749655" lon="-1.627935">
   <ele>1220.00</ele>
   <time>2014-04-05T10:48:13Z</time>
  </trkpt>
  <trkpt lat="32.749832" lon="-1.627850">
   <ele>1220.00</ele>
   <time>2014-04-05T10:48:18Z</time>
  </trkpt>
  <trkpt lat="32.749986" lon="-1.627714">
   <ele>1220.00</ele>
   <time>2014-04-05T10:48:23Z</time>
  </trkpt>
  <trkpt lat="32.750069" lon="-1.627472">
   <ele>1220.00</ele>
   <time>2014-04-05T10:48:31Z</time>
  </trkpt>
  <trkpt lat="32.750158" lon="-1.627236">
   <ele>1220.00</ele>
   <time>2014-04-05T10:48:37Z</time>
  </trkpt>
  <trkpt lat="32.750107" lon="-1.626990">
   <ele>1221.00</ele>
   <time>2014-04-05T10:48:41Z</time>
  </trkpt>
  <trkpt lat="32.750061" lon="-1.626740">
   <ele>1222.00</ele>
   <time>2014-04-05T10:48:45Z</time>
  </trkpt>
  <trkpt lat="32.750064" lon="-1.626501">
   <ele>1223.00</ele>
   <time>2014-04-05T10:48:50Z</time>
  </trkpt>
  <trkpt lat="32.750062" lon="-1.626276">
   <ele>1223.00</ele>
   <time>2014-04-05T10:48:56Z</time>
  </trkpt>
  <trkpt lat="32.750230" lon="-1.626094">
   <ele>1223.00</ele>
   <time>2014-04-05T10:49:04Z</time>
  </trkpt>
  <trkpt lat="32.750275" lon="-1.625862">
   <ele>1222.00</ele>
   <time>2014-04-05T10:49:11Z</time>
  </trkpt>
  <trkpt lat="32.750318" lon="-1.625675">
   <ele>1221.00</ele>
   <time>2014-04-05T10:49:19Z</time>
  </trkpt>
  <trkpt lat="32.750305" lon="-1.625852">
   <ele>1220.00</ele>
   <time>2014-04-05T10:49:27Z</time>
  </trkpt>
  <trkpt lat="32.750241" lon="-1.626054">
   <ele>1221.00</ele>
   <time>2014-04-05T10:49:33Z</time>
  </trkpt>
  <trkpt lat="32.750123" lon="-1.626228">
   <ele>1221.00</ele>
   <time>2014-04-05T10:49:41Z</time>
  </trkpt>
  <trkpt lat="32.750055" lon="-1.626438">
   <ele>1222.00</ele>
   <time>2014-04-05T10:49:53Z</time>
  </trkpt>
  <trkpt lat="32.750047" lon="-1.626681">
   <ele>1221.00</ele>
   <time>2014-04-05T10:50:03Z</time>
  </trkpt>
  <trkpt lat="32.750071" lon="-1.626920">
   <ele>1221.00</ele>
   <time>2014-04-05T10:50:10Z</time>
  </trkpt>
  <trkpt lat="32.750132" lon="-1.627145">
   <ele>1219.00</ele>
   <time>2014-04-05T10:50:17Z</time>
  </trkpt>
  <trkpt lat="32.750182" lon="-1.627360">
   <ele>1218.00</ele>
   <time>2014-04-05T10:50:24Z</time>
  </trkpt>
  <trkpt lat="32.750146" lon="-1.627577">
   <ele>1219.00</ele>
   <time>2014-04-05T10:50:33Z</time>
  </trkpt>
  <trkpt lat="32.750076" lon="-1.627778">
   <ele>1219.00</ele>
   <time>2014-04-05T10:50:46Z</time>
  </trkpt>
  <trkpt lat="32.750052" lon="-1.628008">
   <ele>1219.00</ele>
   <time>2014-04-05T10:50:57Z</time>
  </trkpt>
  <trkpt lat="32.750099" lon="-1.628241">
   <ele>1219.00</ele>
   <time>2014-04-05T10:51:05Z</time>
  </trkpt>
  <trkpt lat="32.750271" lon="-1.628754">
   <ele>1220.00</ele>
   <time>2014-04-05T10:51:17Z</time>
  </trkpt>
  <trkpt lat="32.750347" lon="-1.628963">
   <ele>1221.00</ele>
   <time>2014-04-05T10:51:22Z</time>
  </trkpt>
  <trkpt lat="32.750538" lon="-1.629062">
   <ele>1220.00</ele>
   <time>2014-04-05T10:51:27Z</time>
  </trkpt>
  <trkpt lat="32.750749" lon="-1.629082">
   <ele>1220.00</ele>
   <time>2014-04-05T10:51:31Z</time>
  </trkpt>
  <trkpt lat="32.750988" lon="-1.629073">
   <ele>1219.00</ele>
   <time>2014-04-05T10:51:35Z</time>
  </trkpt>
  <trkpt lat="32.751177" lon="-1.629045">
   <ele>1219.00</ele>
   <time>2014-04-05T10:51:38Z</time>
  </trkpt>
  <trkpt lat="32.751363" lon="-1.629062">
   <ele>1218.00</ele>
   <time>2014-04-05T10:51:41Z</time>
  </trkpt>
  <trkpt lat="32.751735" lon="-1.629118">
   <ele>1219.00</ele>
   <time>2014-04-05T10:51:47Z</time>
  </trkpt>
  <trkpt lat="32.751960" lon="-1.629071">
   <ele>1219.00</ele>
   <time>2014-04-05T10:51:51Z</time>
  </trkpt>
  <trkpt lat="32.752250" lon="-1.628995">
   <ele>1219.00</ele>
   <time>2014-04-05T10:51:56Z</time>
  </trkpt>
  <trkpt lat="32.752428" lon="-1.628925">
   <ele>1219.00</ele>
   <time>2014-04-05T10:51:59Z</time>
  </trkpt>
  <trkpt lat="32.752591" lon="-1.628810">
   <ele>1218.00</ele>
   <time>2014-04-05T10:52:02Z</time>
  </trkpt>
  <trkpt lat="32.752717" lon="-1.628629">
   <ele>1218.00</ele>
   <time>2014-04-05T10:52:05Z</time>
  </trkpt>
  <trkpt lat="32.752855" lon="-1.628446">
   <ele>1217.00</ele>
   <time>2014-04-05T10:52:08Z</time>
  </trkpt>
  <trkpt lat="32.753027" lon="-1.628290">
   <ele>1217.00</ele>
   <time>2014-04-05T10:52:11Z</time>
  </trkpt>
  <trkpt lat="32.753226" lon="-1.628143">
   <ele>1217.00</ele>
   <time>2014-04-05T10:52:14Z</time>
  </trkpt>
  <trkpt lat="32.753434" lon="-1.628000">
   <ele>1217.00</ele>
   <time>2014-04-05T10:52:17Z</time>
  </trkpt>
  <trkpt lat="32.753632" lon="-1.627820">
   <ele>1217.00</ele>
   <time>2014-04-05T10:52:20Z</time>
  </trkpt>
  <trkpt lat="32.753940" lon="-1.627503">
   <ele>1217.00</ele>
   <time>2014-04-05T10:52:25Z</time>
  </trkpt>
  <trkpt lat="32.754142" lon="-1.627350">
   <ele>1217.00</ele>
   <time>2014-04-05T10:52:28Z</time>
  </trkpt>
  <trkpt lat="32.754356" lon="-1.627275">
   <ele>1217.00</ele>
   <time>2014-04-05T10:52:31Z</time>
  </trkpt>
  <trkpt lat="32.754592" lon="-1.627269">
   <ele>1217.00</ele>
   <time>2014-04-05T10:52:34Z</time>
  </trkpt>
  <trkpt lat="32.755025" lon="-1.627256">
   <ele>1216.00</ele>
   <time>2014-04-05T10:52:39Z</time>
  </trkpt>
  <trkpt lat="32.755297" lon="-1.627243">
   <ele>1216.00</ele>
   <time>2014-04-05T10:52:42Z</time>
  </trkpt>
  <trkpt lat="32.755482" lon="-1.627253">
   <ele>1216.00</ele>
   <time>2014-04-05T10:52:44Z</time>
  </trkpt>
  <trkpt lat="32.756162" lon="-1.627331">
   <ele>1215.00</ele>
   <time>2014-04-05T10:52:51Z</time>
  </trkpt>
  <trkpt lat="32.756356" lon="-1.627367">
   <ele>1215.00</ele>
   <time>2014-04-05T10:52:53Z</time>
  </trkpt>
  <trkpt lat="32.757010" lon="-1.627496">
   <ele>1214.00</ele>
   <time>2014-04-05T10:53:00Z</time>
  </trkpt>
  <trkpt lat="32.757580" lon="-1.627559">
   <ele>1214.00</ele>
   <time>2014-04-05T10:53:07Z</time>
  </trkpt>
  <trkpt lat="32.757957" lon="-1.627591">
   <ele>1214.00</ele>
   <time>2014-04-05T10:53:12Z</time>
  </trkpt>
  <trkpt lat="32.758193" lon="-1.627692">
   <ele>1214.00</ele>
   <time>2014-04-05T10:53:15Z</time>
  </trkpt>
  <trkpt lat="32.758416" lon="-1.627876">
   <ele>1214.00</ele>
   <time>2014-04-05T10:53:18Z</time>
  </trkpt>
  <trkpt lat="32.758575" lon="-1.627991">
   <ele>1214.00</ele>
   <time>2014-04-05T10:53:20Z</time>
  </trkpt>
  <trkpt lat="32.758749" lon="-1.628071">
   <ele>1214.00</ele>
   <time>2014-04-05T10:53:22Z</time>
  </trkpt>
  <trkpt lat="32.758927" lon="-1.628112">
   <ele>1214.00</ele>
   <time>2014-04-05T10:53:24Z</time>
  </trkpt>
  <trkpt lat="32.759175" lon="-1.628089">
   <ele>1214.00</ele>
   <time>2014-04-05T10:53:27Z</time>
  </trkpt>
  <trkpt lat="32.759393" lon="-1.627962">
   <ele>1214.00</ele>
   <time>2014-04-05T10:53:30Z</time>
  </trkpt>
  <trkpt lat="32.759622" lon="-1.627846">
   <ele>1214.00</ele>
   <time>2014-04-05T10:53:33Z</time>
  </trkpt>
  <trkpt lat="32.759800" lon="-1.627802">
   <ele>1214.00</ele>
   <time>2014-04-05T10:53:35Z</time>
  </trkpt>
  <trkpt lat="32.760255" lon="-1.627692">
   <ele>1213.00</ele>
   <time>2014-04-05T10:53:40Z</time>
  </trkpt>
  <trkpt lat="32.760423" lon="-1.627611">
   <ele>1213.00</ele>
   <time>2014-04-05T10:53:42Z</time>
  </trkpt>
  <trkpt lat="32.760657" lon="-1.627457">
   <ele>1213.00</ele>
   <time>2014-04-05T10:53:45Z</time>
  </trkpt>
  <trkpt lat="32.760833" lon="-1.627400">
   <ele>1213.00</ele>
   <time>2014-04-05T10:53:47Z</time>
  </trkpt>
  <trkpt lat="32.761024" lon="-1.627391">
   <ele>1213.00</ele>
   <time>2014-04-05T10:53:49Z</time>
  </trkpt>
  <trkpt lat="32.761210" lon="-1.627417">
   <ele>1213.00</ele>
   <time>2014-04-05T10:53:51Z</time>
  </trkpt>
  <trkpt lat="32.761603" lon="-1.627492">
   <ele>1212.00</ele>
   <time>2014-04-05T10:53:56Z</time>
  </trkpt>
  <trkpt lat="32.761807" lon="-1.627569">
   <ele>1212.00</ele>
   <time>2014-04-05T10:54:00Z</time>
  </trkpt>
  <trkpt lat="32.762021" lon="-1.627514">
   <ele>1212.00</ele>
   <time>2014-04-05T10:54:04Z</time>
  </trkpt>
  <trkpt lat="32.762220" lon="-1.627490">
   <ele>1212.00</ele>
   <time>2014-04-05T10:54:07Z</time>
  </trkpt>
  <trkpt lat="32.762432" lon="-1.627523">
   <ele>1212.00</ele>
   <time>2014-04-05T10:54:10Z</time>
  </trkpt>
  <trkpt lat="32.762726" lon="-1.627599">
   <ele>1212.00</ele>
   <time>2014-04-05T10:54:14Z</time>
  </trkpt>
  <trkpt lat="32.763290" lon="-1.627688">
   <ele>1211.00</ele>
   <time>2014-04-05T10:54:20Z</time>
  </trkpt>
  <trkpt lat="32.763501" lon="-1.627695">
   <ele>1211.00</ele>
   <time>2014-04-05T10:54:22Z</time>
  </trkpt>
  <trkpt lat="32.763722" lon="-1.627666">
   <ele>1212.00</ele>
   <time>2014-04-05T10:54:24Z</time>
  </trkpt>
  <trkpt lat="32.763950" lon="-1.627607">
   <ele>1212.00</ele>
   <time>2014-04-05T10:54:26Z</time>
  </trkpt>
  <trkpt lat="32.764174" lon="-1.627532">
   <ele>1212.00</ele>
   <time>2014-04-05T10:54:28Z</time>
  </trkpt>
  <trkpt lat="32.764391" lon="-1.627441">
   <ele>1212.00</ele>
   <time>2014-04-05T10:54:30Z</time>
  </trkpt>
  <trkpt lat="32.764599" lon="-1.627328">
   <ele>1212.00</ele>
   <time>2014-04-05T10:54:32Z</time>
  </trkpt>
  <trkpt lat="32.764784" lon="-1.627173">
   <ele>1212.00</ele>
   <time>2014-04-05T10:54:34Z</time>
  </trkpt>
  <trkpt lat="32.764940" lon="-1.626978">
   <ele>1212.00</ele>
   <time>2014-04-05T10:54:36Z</time>
  </trkpt>
  <trkpt lat="32.765055" lon="-1.626742">
   <ele>1211.00</ele>
   <time>2014-04-05T10:54:38Z</time>
  </trkpt>
  <trkpt lat="32.765120" lon="-1.626475">
   <ele>1211.00</ele>
   <time>2014-04-05T10:54:40Z</time>
  </trkpt>
  <trkpt lat="32.765194" lon="-1.626058">
   <ele>1211.00</ele>
   <time>2014-04-05T10:54:43Z</time>
  </trkpt>
  <trkpt lat="32.765271" lon="-1.625791">
   <ele>1212.00</ele>
   <time>2014-04-05T10:54:45Z</time>
  </trkpt>
  <trkpt lat="32.765396" lon="-1.625413">
   <ele>1212.00</ele>
   <time>2014-04-05T10:54:48Z</time>
  </trkpt>
  <trkpt lat="32.765417" lon="-1.625159">
   <ele>1212.00</ele>
   <time>2014-04-05T10:54:50Z</time>
  </trkpt>
  <trkpt lat="32.765385" lon="-1.624911">
   <ele>1212.00</ele>
   <time>2014-04-05T10:54:52Z</time>
  </trkpt>
  <trkpt lat="32.765312" lon="-1.624568">
   <ele>1213.00</ele>
   <time>2014-04-05T10:54:55Z</time>
  </trkpt>
  <trkpt lat="32.765312" lon="-1.624348">
   <ele>1213.00</ele>
   <time>2014-04-05T10:54:57Z</time>
  </trkpt>
  <trkpt lat="32.765368" lon="-1.623926">
   <ele>1214.00</ele>
   <time>2014-04-05T10:55:01Z</time>
  </trkpt>
  <trkpt lat="32.765459" lon="-1.623664">
   <ele>1216.00</ele>
   <time>2014-04-05T10:55:04Z</time>
  </trkpt>
  <trkpt lat="32.765520" lon="-1.623428">
   <ele>1216.00</ele>
   <time>2014-04-05T10:55:07Z</time>
  </trkpt>
  <trkpt lat="32.765522" lon="-1.623181">
   <ele>1217.00</ele>
   <time>2014-04-05T10:55:10Z</time>
  </trkpt>
  <trkpt lat="32.765584" lon="-1.622952">
   <ele>1218.00</ele>
   <time>2014-04-05T10:55:13Z</time>
  </trkpt>
  <trkpt lat="32.765641" lon="-1.622689">
   <ele>1218.00</ele>
   <time>2014-04-05T10:55:17Z</time>
  </trkpt>
  <trkpt lat="32.765735" lon="-1.622464">
   <ele>1218.00</ele>
   <time>2014-04-05T10:55:21Z</time>
  </trkpt>
  <trkpt lat="32.765845" lon="-1.622215">
   <ele>1218.00</ele>
   <time>2014-04-05T10:55:25Z</time>
  </trkpt>
  <trkpt lat="32.765951" lon="-1.622024">
   <ele>1219.00</ele>
   <time>2014-04-05T10:55:28Z</time>
  </trkpt>
  <trkpt lat="32.766061" lon="-1.621825">
   <ele>1219.00</ele>
   <time>2014-04-05T10:55:31Z</time>
  </trkpt>
  <trkpt lat="32.766146" lon="-1.621612">
   <ele>1218.00</ele>
   <time>2014-04-05T10:55:34Z</time>
  </trkpt>
  <trkpt lat="32.766172" lon="-1.621370">
   <ele>1217.00</ele>
   <time>2014-04-05T10:55:37Z</time>
  </trkpt>
  <trkpt lat="32.766228" lon="-1.621128">
   <ele>1217.00</ele>
   <time>2014-04-05T10:55:40Z</time>
  </trkpt>
  <trkpt lat="32.766341" lon="-1.620901">
   <ele>1216.00</ele>
   <time>2014-04-05T10:55:43Z</time>
  </trkpt>
  <trkpt lat="32.766507" lon="-1.620693">
   <ele>1215.00</ele>
   <time>2014-04-05T10:55:46Z</time>
  </trkpt>
  <trkpt lat="32.766670" lon="-1.620472">
   <ele>1215.00</ele>
   <time>2014-04-05T10:55:49Z</time>
  </trkpt>
  <trkpt lat="32.766778" lon="-1.620213">
   <ele>1215.00</ele>
   <time>2014-04-05T10:55:52Z</time>
  </trkpt>
  <trkpt lat="32.766933" lon="-1.620017">
   <ele>1215.00</ele>
   <time>2014-04-05T10:55:55Z</time>
  </trkpt>
  <trkpt lat="32.767174" lon="-1.619835">
   <ele>1214.00</ele>
   <time>2014-04-05T10:55:59Z</time>
  </trkpt>
  <trkpt lat="32.767360" lon="-1.619689">
   <ele>1214.00</ele>
   <time>2014-04-05T10:56:02Z</time>
  </trkpt>
  <trkpt lat="32.767597" lon="-1.619608">
   <ele>1214.00</ele>
   <time>2014-04-05T10:56:05Z</time>
  </trkpt>
  <trkpt lat="32.767855" lon="-1.619540">
   <ele>1214.00</ele>
   <time>2014-04-05T10:56:08Z</time>
  </trkpt>
  <trkpt lat="32.768029" lon="-1.619475">
   <ele>1214.00</ele>
   <time>2014-04-05T10:56:10Z</time>
  </trkpt>
  <trkpt lat="32.768435" lon="-1.619314">
   <ele>1215.00</ele>
   <time>2014-04-05T10:56:15Z</time>
  </trkpt>
  <trkpt lat="32.768647" lon="-1.619182">
   <ele>1215.00</ele>
   <time>2014-04-05T10:56:18Z</time>
  </trkpt>
  <trkpt lat="32.768856" lon="-1.619072">
   <ele>1215.00</ele>
   <time>2014-04-05T10:56:22Z</time>
  </trkpt>
  <trkpt lat="32.769046" lon="-1.619106">
   <ele>1215.00</ele>
   <time>2014-04-05T10:56:26Z</time>
  </trkpt>
  <trkpt lat="32.769321" lon="-1.619321">
   <ele>1213.00</ele>
   <time>2014-04-05T10:56:32Z</time>
  </trkpt>
  <trkpt lat="32.769565" lon="-1.619478">
   <ele>1213.00</ele>
   <time>2014-04-05T10:56:37Z</time>
  </trkpt>
  <trkpt lat="32.769727" lon="-1.619613">
   <ele>1212.00</ele>
   <time>2014-04-05T10:56:41Z</time>
  </trkpt>
  <trkpt lat="32.769898" lon="-1.619729">
   <ele>1212.00</ele>
   <time>2014-04-05T10:56:45Z</time>
  </trkpt>
  <trkpt lat="32.770071" lon="-1.619840">
   <ele>1212.00</ele>
   <time>2014-04-05T10:56:49Z</time>
  </trkpt>
  <trkpt lat="32.770232" lon="-1.620013">
   <ele>1212.00</ele>
   <time>2014-04-05T10:56:53Z</time>
  </trkpt>
  <trkpt lat="32.770429" lon="-1.620134">
   <ele>1212.00</ele>
   <time>2014-04-05T10:56:57Z</time>
  </trkpt>
  <trkpt lat="32.770601" lon="-1.620229">
   <ele>1213.00</ele>
   <time>2014-04-05T10:57:02Z</time>
  </trkpt>
  <trkpt lat="32.770822" lon="-1.620306">
   <ele>1212.00</ele>
   <time>2014-04-05T10:57:07Z</time>
  </trkpt>
  <trkpt lat="32.771029" lon="-1.620315">
   <ele>1212.00</ele>
   <time>2014-04-05T10:57:11Z</time>
  </trkpt>
  <trkpt lat="32.771172" lon="-1.620471">
   <ele>1212.00</ele>
   <time>2014-04-05T10:57:15Z</time>
  </trkpt>
  <trkpt lat="32.771345" lon="-1.620556">
   <ele>1211.00</ele>
   <time>2014-04-05T10:57:19Z</time>
  </trkpt>
  <trkpt lat="32.771536" lon="-1.620570">
   <ele>1211.00</ele>
   <time>2014-04-05T10:57:23Z</time>
  </trkpt>
  <trkpt lat="32.771727" lon="-1.620610">
   <ele>1211.00</ele>
   <time>2014-04-05T10:57:27Z</time>
  </trkpt>
  <trkpt lat="32.771914" lon="-1.620652">
   <ele>1210.00</ele>
   <time>2014-04-05T10:57:31Z</time>
  </trkpt>
  <trkpt lat="32.772105" lon="-1.620637">
   <ele>1210.00</ele>
   <time>2014-04-05T10:57:34Z</time>
  </trkpt>
  <trkpt lat="32.772458" lon="-1.620586">
   <ele>1211.00</ele>
   <time>2014-04-05T10:57:39Z</time>
  </trkpt>
  <trkpt lat="32.772953" lon="-1.620548">
   <ele>1211.00</ele>
   <time>2014-04-05T10:57:46Z</time>
  </trkpt>
  <trkpt lat="32.773132" lon="-1.620676">
   <ele>1210.00</ele>
   <time>2014-04-05T10:57:50Z</time>
  </trkpt>
  <trkpt lat="32.773219" lon="-1.620872">
   <ele>1210.00</ele>
   <time>2014-04-05T10:57:53Z</time>
  </trkpt>
  <trkpt lat="32.773273" lon="-1.621111">
   <ele>1209.00</ele>
   <time>2014-04-05T10:57:56Z</time>
  </trkpt>
  <trkpt lat="32.773302" lon="-1.621373">
   <ele>1209.00</ele>
   <time>2014-04-05T10:57:59Z</time>
  </trkpt>
  <trkpt lat="32.773298" lon="-1.621636">
   <ele>1208.00</ele>
   <time>2014-04-05T10:58:02Z</time>
  </trkpt>
  <trkpt lat="32.773258" lon="-1.621884">
   <ele>1208.00</ele>
   <time>2014-04-05T10:58:05Z</time>
  </trkpt>
  <trkpt lat="32.773235" lon="-1.622132">
   <ele>1208.00</ele>
   <time>2014-04-05T10:58:08Z</time>
  </trkpt>
  <trkpt lat="32.773285" lon="-1.622390">
   <ele>1208.00</ele>
   <time>2014-04-05T10:58:11Z</time>
  </trkpt>
  <trkpt lat="32.773344" lon="-1.622664">
   <ele>1209.00</ele>
   <time>2014-04-05T10:58:14Z</time>
  </trkpt>
  <trkpt lat="32.773412" lon="-1.622942">
   <ele>1209.00</ele>
   <time>2014-04-05T10:58:17Z</time>
  </trkpt>
  <trkpt lat="32.773471" lon="-1.623346">
   <ele>1209.00</ele>
   <time>2014-04-05T10:58:21Z</time>
  </trkpt>
  <trkpt lat="32.773521" lon="-1.623552">
   <ele>1209.00</ele>
   <time>2014-04-05T10:58:23Z</time>
  </trkpt>
  <trkpt lat="32.773644" lon="-1.623952">
   <ele>1210.00</ele>
   <time>2014-04-05T10:58:27Z</time>
  </trkpt>
  <trkpt lat="32.773758" lon="-1.624215">
   <ele>1209.00</ele>
   <time>2014-04-05T10:58:30Z</time>
  </trkpt>
  <trkpt lat="32.773824" lon="-1.624462">
   <ele>1210.00</ele>
   <time>2014-04-05T10:58:33Z</time>
  </trkpt>
  <trkpt lat="32.773788" lon="-1.624723">
   <ele>1210.00</ele>
   <time>2014-04-05T10:58:36Z</time>
  </trkpt>
  <trkpt lat="32.773705" lon="-1.624936">
   <ele>1210.00</ele>
   <time>2014-04-05T10:58:39Z</time>
  </trkpt>
  <trkpt lat="32.773635" lon="-1.625004">
   <ele>1210.00</ele>
   <time>2014-04-05T10:58:54Z</time>
  </trkpt>
  <trkpt lat="32.773736" lon="-1.624824">
   <ele>1210.00</ele>
   <time>2014-04-05T10:59:04Z</time>
  </trkpt>
  <trkpt lat="32.773847" lon="-1.624976">
   <ele>1210.00</ele>
   <time>2014-04-05T10:59:13Z</time>
  </trkpt>
  <trkpt lat="32.774060" lon="-1.625058">
   <ele>1210.00</ele>
   <time>2014-04-05T10:59:18Z</time>
  </trkpt>
  <trkpt lat="32.774273" lon="-1.625139">
   <ele>1209.00</ele>
   <time>2014-04-05T10:59:22Z</time>
  </trkpt>
  <trkpt lat="32.774456" lon="-1.625166">
   <ele>1209.00</ele>
   <time>2014-04-05T10:59:25Z</time>
  </trkpt>
  <trkpt lat="32.774646" lon="-1.625180">
   <ele>1209.00</ele>
   <time>2014-04-05T10:59:28Z</time>
  </trkpt>
  <trkpt lat="32.774880" lon="-1.625200">
   <ele>1209.00</ele>
   <time>2014-04-05T10:59:32Z</time>
  </trkpt>
  <trkpt lat="32.775080" lon="-1.625315">
   <ele>1210.00</ele>
   <time>2014-04-05T10:59:36Z</time>
  </trkpt>
  <trkpt lat="32.775379" lon="-1.625517">
   <ele>1210.00</ele>
   <time>2014-04-05T10:59:42Z</time>
  </trkpt>
  <trkpt lat="32.775551" lon="-1.625597">
   <ele>1210.00</ele>
   <time>2014-04-05T10:59:45Z</time>
  </trkpt>
  <trkpt lat="32.775745" lon="-1.625656">
   <ele>1210.00</ele>
   <time>2014-04-05T10:59:48Z</time>
  </trkpt>
  <trkpt lat="32.776112" lon="-1.625727">
   <ele>1210.00</ele>
   <time>2014-04-05T10:59:53Z</time>
  </trkpt>
  <trkpt lat="32.776530" lon="-1.625845">
   <ele>1210.00</ele>
   <time>2014-04-05T10:59:58Z</time>
  </trkpt>
  <trkpt lat="32.776790" lon="-1.625868">
   <ele>1210.00</ele>
   <time>2014-04-05T11:00:01Z</time>
  </trkpt>
  <trkpt lat="32.777045" lon="-1.625844">
   <ele>1212.00</ele>
   <time>2014-04-05T11:00:04Z</time>
  </trkpt>
  <trkpt lat="32.777275" lon="-1.625791">
   <ele>1213.00</ele>
   <time>2014-04-05T11:00:07Z</time>
  </trkpt>
  <trkpt lat="32.777484" lon="-1.625728">
   <ele>1214.00</ele>
   <time>2014-04-05T11:00:11Z</time>
  </trkpt>
  <trkpt lat="32.777677" lon="-1.625633">
   <ele>1216.00</ele>
   <time>2014-04-05T11:00:16Z</time>
  </trkpt>
  <trkpt lat="32.777855" lon="-1.625531">
   <ele>1217.00</ele>
   <time>2014-04-05T11:00:20Z</time>
  </trkpt>
  <trkpt lat="32.777937" lon="-1.625536">
   <ele>1218.00</ele>
   <time>2014-04-05T11:00:36Z</time>
  </trkpt>
  <trkpt lat="32.777958" lon="-1.625540">
   <ele>1218.00</ele>
   <time>2014-04-05T11:00:51Z</time>
  </trkpt>
  <trkpt lat="32.778086" lon="-1.625707">
   <ele>1217.00</ele>
   <time>2014-04-05T11:00:57Z</time>
  </trkpt>
  <trkpt lat="32.778186" lon="-1.625925">
   <ele>1217.00</ele>
   <time>2014-04-05T11:01:02Z</time>
  </trkpt>
  <trkpt lat="32.778225" lon="-1.626141">
   <ele>1217.00</ele>
   <time>2014-04-05T11:01:07Z</time>
  </trkpt>
  <trkpt lat="32.778228" lon="-1.626396">
   <ele>1218.00</ele>
   <time>2014-04-05T11:01:13Z</time>
  </trkpt>
  <trkpt lat="32.778208" lon="-1.626705">
   <ele>1217.00</ele>
   <time>2014-04-05T11:01:19Z</time>
  </trkpt>
  <trkpt lat="32.778288" lon="-1.626895">
   <ele>1217.00</ele>
   <time>2014-04-05T11:01:23Z</time>
  </trkpt>
  <trkpt lat="32.778453" lon="-1.627066">
   <ele>1217.00</ele>
   <time>2014-04-05T11:01:28Z</time>
  </trkpt>
  <trkpt lat="32.778615" lon="-1.627204">
   <ele>1217.00</ele>
   <time>2014-04-05T11:01:32Z</time>
  </trkpt>
  <trkpt lat="32.778787" lon="-1.627303">
   <ele>1217.00</ele>
   <time>2014-04-05T11:01:36Z</time>
  </trkpt>
  <trkpt lat="32.778959" lon="-1.627374">
   <ele>1217.00</ele>
   <time>2014-04-05T11:01:41Z</time>
  </trkpt>
  <trkpt lat="32.779125" lon="-1.627532">
   <ele>1217.00</ele>
   <time>2014-04-05T11:01:47Z</time>
  </trkpt>
  <trkpt lat="32.779283" lon="-1.627706">
   <ele>1216.00</ele>
   <time>2014-04-05T11:01:52Z</time>
  </trkpt>
  <trkpt lat="32.779416" lon="-1.627853">
   <ele>1216.00</ele>
   <time>2014-04-05T11:01:56Z</time>
  </trkpt>
  <trkpt lat="32.779551" lon="-1.627996">
   <ele>1216.00</ele>
   <time>2014-04-05T11:02:00Z</time>
  </trkpt>
  <trkpt lat="32.779716" lon="-1.628160">
   <ele>1217.00</ele>
   <time>2014-04-05T11:02:05Z</time>
  </trkpt>
  <trkpt lat="32.779908" lon="-1.628232">
   <ele>1216.00</ele>
   <time>2014-04-05T11:02:10Z</time>
  </trkpt>
  <trkpt lat="32.780032" lon="-1.628387">
   <ele>1216.00</ele>
   <time>2014-04-05T11:02:14Z</time>
  </trkpt>
  <trkpt lat="32.780212" lon="-1.628501">
   <ele>1215.00</ele>
   <time>2014-04-05T11:02:18Z</time>
  </trkpt>
  <trkpt lat="32.780420" lon="-1.628574">
   <ele>1215.00</ele>
   <time>2014-04-05T11:02:22Z</time>
  </trkpt>
  <trkpt lat="32.780595" lon="-1.628629">
   <ele>1215.00</ele>
   <time>2014-04-05T11:02:26Z</time>
  </trkpt>
  <trkpt lat="32.780727" lon="-1.628791">
   <ele>1215.00</ele>
   <time>2014-04-05T11:02:31Z</time>
  </trkpt>
  <trkpt lat="32.780891" lon="-1.629167">
   <ele>1214.00</ele>
   <time>2014-04-05T11:02:38Z</time>
  </trkpt>
  <trkpt lat="32.781017" lon="-1.629335">
   <ele>1214.00</ele>
   <time>2014-04-05T11:02:42Z</time>
  </trkpt>
  <trkpt lat="32.781166" lon="-1.629478">
   <ele>1215.00</ele>
   <time>2014-04-05T11:02:48Z</time>
  </trkpt>
  <trkpt lat="32.781337" lon="-1.629629">
   <ele>1214.00</ele>
   <time>2014-04-05T11:02:53Z</time>
  </trkpt>
  <trkpt lat="32.781567" lon="-1.629819">
   <ele>1213.00</ele>
   <time>2014-04-05T11:02:59Z</time>
  </trkpt>
  <trkpt lat="32.781736" lon="-1.629898">
   <ele>1214.00</ele>
   <time>2014-04-05T11:03:03Z</time>
  </trkpt>
  <trkpt lat="32.781943" lon="-1.629908">
   <ele>1214.00</ele>
   <time>2014-04-05T11:03:08Z</time>
  </trkpt>
  <trkpt lat="32.782115" lon="-1.629780">
   <ele>1214.00</ele>
   <time>2014-04-05T11:03:15Z</time>
  </trkpt>
  <trkpt lat="32.782305" lon="-1.629773">
   <ele>1214.00</ele>
   <time>2014-04-05T11:03:20Z</time>
  </trkpt>
  <trkpt lat="32.782484" lon="-1.629854">
   <ele>1214.00</ele>
   <time>2014-04-05T11:03:24Z</time>
  </trkpt>
  <trkpt lat="32.782685" lon="-1.629865">
   <ele>1214.00</ele>
   <time>2014-04-05T11:03:29Z</time>
  </trkpt>
  <trkpt lat="32.782888" lon="-1.629955">
   <ele>1213.00</ele>
   <time>2014-04-05T11:03:35Z</time>
  </trkpt>
  <trkpt lat="32.783064" lon="-1.629916">
   <ele>1213.00</ele>
   <time>2014-04-05T11:03:40Z</time>
  </trkpt>
  <trkpt lat="32.783203" lon="-1.629734">
   <ele>1213.00</ele>
   <time>2014-04-05T11:03:46Z</time>
  </trkpt>
  <trkpt lat="32.783335" lon="-1.629514">
   <ele>1214.00</ele>
   <time>2014-04-05T11:03:51Z</time>
  </trkpt>
  <trkpt lat="32.783490" lon="-1.629319">
   <ele>1214.00</ele>
   <time>2014-04-05T11:03:55Z</time>
  </trkpt>
  <trkpt lat="32.783641" lon="-1.629144">
   <ele>1213.00</ele>
   <time>2014-04-05T11:03:59Z</time>
  </trkpt>
  <trkpt lat="32.783719" lon="-1.628939">
   <ele>1212.00</ele>
   <time>2014-04-05T11:04:04Z</time>
  </trkpt>
  <trkpt lat="32.783772" lon="-1.628688">
   <ele>1213.00</ele>
   <time>2014-04-05T11:04:10Z</time>
  </trkpt>
  <trkpt lat="32.783829" lon="-1.628478">
   <ele>1213.00</ele>
   <time>2014-04-05T11:04:15Z</time>
  </trkpt>
  <trkpt lat="32.783909" lon="-1.628263">
   <ele>1213.00</ele>
   <time>2014-04-05T11:04:20Z</time>
  </trkpt>
  <trkpt lat="32.784044" lon="-1.627975">
   <ele>1214.00</ele>
   <time>2014-04-05T11:04:26Z</time>
  </trkpt>
  <trkpt lat="32.784109" lon="-1.627751">
   <ele>1215.00</ele>
   <time>2014-04-05T11:04:30Z</time>
  </trkpt>
  <trkpt lat="32.784157" lon="-1.627497">
   <ele>1215.00</ele>
   <time>2014-04-05T11:04:35Z</time>
  </trkpt>
  <trkpt lat="32.784254" lon="-1.627308">
   <ele>1216.00</ele>
   <time>2014-04-05T11:04:39Z</time>
  </trkpt>
  <trkpt lat="32.784424" lon="-1.627212">
   <ele>1215.00</ele>
   <time>2014-04-05T11:04:43Z</time>
  </trkpt>
  <trkpt lat="32.784614" lon="-1.627263">
   <ele>1213.00</ele>
   <time>2014-04-05T11:04:47Z</time>
  </trkpt>
  <trkpt lat="32.784799" lon="-1.627411">
   <ele>1212.00</ele>
   <time>2014-04-05T11:04:51Z</time>
  </trkpt>
  <trkpt lat="32.785004" lon="-1.627532">
   <ele>1211.00</ele>
   <time>2014-04-05T11:04:55Z</time>
  </trkpt>
  <trkpt lat="32.785196" lon="-1.627548">
   <ele>1211.00</ele>
   <time>2014-04-05T11:04:58Z</time>
  </trkpt>
  <trkpt lat="32.785559" lon="-1.627533">
   <ele>1210.00</ele>
   <time>2014-04-05T11:05:03Z</time>
  </trkpt>
  <trkpt lat="32.785805" lon="-1.627516">
   <ele>1210.00</ele>
   <time>2014-04-05T11:05:06Z</time>
  </trkpt>
  <trkpt lat="32.786140" lon="-1.627467">
   <ele>1210.00</ele>
   <time>2014-04-05T11:05:10Z</time>
  </trkpt>
  <trkpt lat="32.786384" lon="-1.627397">
   <ele>1210.00</ele>
   <time>2014-04-05T11:05:13Z</time>
  </trkpt>
  <trkpt lat="32.786588" lon="-1.627237">
   <ele>1210.00</ele>
   <time>2014-04-05T11:05:16Z</time>
  </trkpt>
  <trkpt lat="32.786750" lon="-1.627011">
   <ele>1210.00</ele>
   <time>2014-04-05T11:05:19Z</time>
  </trkpt>
  <trkpt lat="32.787059" lon="-1.626656">
   <ele>1210.00</ele>
   <time>2014-04-05T11:05:24Z</time>
  </trkpt>
  <trkpt lat="32.787276" lon="-1.626324">
   <ele>1210.00</ele>
   <time>2014-04-05T11:05:28Z</time>
  </trkpt>
  <trkpt lat="32.787417" lon="-1.626179">
   <ele>1210.00</ele>
   <time>2014-04-05T11:05:30Z</time>
  </trkpt>
  <trkpt lat="32.787863" lon="-1.625765">
   <ele>1210.00</ele>
   <time>2014-04-05T11:05:36Z</time>
  </trkpt>
  <trkpt lat="32.788091" lon="-1.625740">
   <ele>1210.00</ele>
   <time>2014-04-05T11:05:39Z</time>
  </trkpt>
  <trkpt lat="32.788191" lon="-1.625938">
   <ele>1210.00</ele>
   <time>2014-04-05T11:05:42Z</time>
  </trkpt>
  <trkpt lat="32.788186" lon="-1.626209">
   <ele>1209.00</ele>
   <time>2014-04-05T11:05:45Z</time>
  </trkpt>
  <trkpt lat="32.788188" lon="-1.626514">
   <ele>1210.00</ele>
   <time>2014-04-05T11:05:48Z</time>
  </trkpt>
  <trkpt lat="32.788209" lon="-1.626825">
   <ele>1210.00</ele>
   <time>2014-04-05T11:05:51Z</time>
  </trkpt>
  <trkpt lat="32.788291" lon="-1.627123">
   <ele>1210.00</ele>
   <time>2014-04-05T11:05:54Z</time>
  </trkpt>
  <trkpt lat="32.788380" lon="-1.627320">
   <ele>1210.00</ele>
   <time>2014-04-05T11:05:56Z</time>
  </trkpt>
  <trkpt lat="32.788474" lon="-1.627509">
   <ele>1210.00</ele>
   <time>2014-04-05T11:05:58Z</time>
  </trkpt>
  <trkpt lat="32.788665" lon="-1.627717">
   <ele>1210.00</ele>
   <time>2014-04-05T11:06:01Z</time>
  </trkpt>
  <trkpt lat="32.788908" lon="-1.627816">
   <ele>1210.00</ele>
   <time>2014-04-05T11:06:04Z</time>
  </trkpt>
  <trkpt lat="32.789146" lon="-1.627803">
   <ele>1211.00</ele>
   <time>2014-04-05T11:06:07Z</time>
  </trkpt>
  <trkpt lat="32.789366" lon="-1.627671">
   <ele>1211.00</ele>
   <time>2014-04-05T11:06:10Z</time>
  </trkpt>
  <trkpt lat="32.789586" lon="-1.627549">
   <ele>1212.00</ele>
   <time>2014-04-05T11:06:13Z</time>
  </trkpt>
  <trkpt lat="32.789815" lon="-1.627456">
   <ele>1212.00</ele>
   <time>2014-04-05T11:06:16Z</time>
  </trkpt>
  <trkpt lat="32.790208" lon="-1.627311">
   <ele>1212.00</ele>
   <time>2014-04-05T11:06:22Z</time>
  </trkpt>
  <trkpt lat="32.790393" lon="-1.627174">
   <ele>1212.00</ele>
   <time>2014-04-05T11:06:26Z</time>
  </trkpt>
  <trkpt lat="32.790568" lon="-1.627047">
   <ele>1211.00</ele>
   <time>2014-04-05T11:06:31Z</time>
  </trkpt>
  <trkpt lat="32.790752" lon="-1.627025">
   <ele>1210.00</ele>
   <time>2014-04-05T11:06:36Z</time>
  </trkpt>
  <trkpt lat="32.790953" lon="-1.627006">
   <ele>1209.00</ele>
   <time>2014-04-05T11:06:42Z</time>
  </trkpt>
  <trkpt lat="32.791013" lon="-1.627002">
   <ele>1210.00</ele>
   <time>2014-04-05T11:06:57Z</time>
  </trkpt>
  <trkpt lat="32.791008" lon="-1.627002">
   <ele>1210.00</ele>
   <time>2014-04-05T11:07:13Z</time>
  </trkpt>
  <trkpt lat="32.791004" lon="-1.627002">
   <ele>1210.00</ele>
   <time>2014-04-05T11:07:29Z</time>
  </trkpt>
  <trkpt lat="32.791001" lon="-1.627002">
   <ele>1210.00</ele>
   <time>2014-04-05T11:07:45Z</time>
  </trkpt>
  <trkpt lat="32.790999" lon="-1.627002">
   <ele>1210.00</ele>
   <time>2014-04-05T11:08:00Z</time>
  </trkpt>
  <trkpt lat="32.790998" lon="-1.627001">
   <ele>1210.00</ele>
   <time>2014-04-05T11:08:16Z</time>
  </trkpt>
  <trkpt lat="32.790997" lon="-1.627001">
   <ele>1209.00</ele>
   <time>2014-04-05T11:08:32Z</time>
  </trkpt>
  <trkpt lat="32.790997" lon="-1.627001">
   <ele>1209.00</ele>
   <time>2014-04-05T11:08:47Z</time>
  </trkpt>
  <trkpt lat="32.790998" lon="-1.627002">
   <ele>1209.00</ele>
   <time>2014-04-05T11:09:03Z</time>
  </trkpt>
  <trkpt lat="32.790998" lon="-1.627003">
   <ele>1209.00</ele>
   <time>2014-04-05T11:09:18Z</time>
  </trkpt>
  <trkpt lat="32.790998" lon="-1.627004">
   <ele>1209.00</ele>
   <time>2014-04-05T11:09:34Z</time>
  </trkpt>
  <trkpt lat="32.790998" lon="-1.627005">
   <ele>1209.00</ele>
   <time>2014-04-05T11:09:50Z</time>
  </trkpt>
  <trkpt lat="32.790998" lon="-1.627005">
   <ele>1209.00</ele>
   <time>2014-04-05T11:10:05Z</time>
  </trkpt>
  <trkpt lat="32.790998" lon="-1.627005">
   <ele>1209.00</ele>
   <time>2014-04-05T11:10:21Z</time>
  </trkpt>
  <trkpt lat="32.790999" lon="-1.627006">
   <ele>1209.00</ele>
   <time>2014-04-05T11:10:36Z</time>
  </trkpt>
  <trkpt lat="32.790999" lon="-1.627007">
   <ele>1209.00</ele>
   <time>2014-04-05T11:10:52Z</time>
  </trkpt>
  <trkpt lat="32.791000" lon="-1.627007">
   <ele>1210.00</ele>
   <time>2014-04-05T11:11:08Z</time>
  </trkpt>
  <trkpt lat="32.791001" lon="-1.627007">
   <ele>1210.00</ele>
   <time>2014-04-05T11:11:23Z</time>
  </trkpt>
  <trkpt lat="32.791002" lon="-1.627007">
   <ele>1210.00</ele>
   <time>2014-04-05T11:11:39Z</time>
  </trkpt>
  <trkpt lat="32.791003" lon="-1.627007">
   <ele>1210.00</ele>
   <time>2014-04-05T11:11:55Z</time>
  </trkpt>
  <trkpt lat="32.791001" lon="-1.627006">
   <ele>1210.00</ele>
   <time>2014-04-05T11:12:10Z</time>
  </trkpt>
  <trkpt lat="32.791000" lon="-1.627007">
   <ele>1210.00</ele>
   <time>2014-04-05T11:12:26Z</time>
  </trkpt>
  <trkpt lat="32.791000" lon="-1.627007">
   <ele>1210.00</ele>
   <time>2014-04-05T11:12:41Z</time>
  </trkpt>
  <trkpt lat="32.791001" lon="-1.627007">
   <ele>1210.00</ele>
   <time>2014-04-05T11:12:57Z</time>
  </trkpt>
  <trkpt lat="32.791002" lon="-1.627006">
   <ele>1210.00</ele>
   <time>2014-04-05T11:13:13Z</time>
  </trkpt>
  <trkpt lat="32.791001" lon="-1.627007">
   <ele>1210.00</ele>
   <time>2014-04-05T11:13:28Z</time>
  </trkpt>
  <trkpt lat="32.791000" lon="-1.627005">
   <ele>1210.00</ele>
   <time>2014-04-05T11:13:44Z</time>
  </trkpt>
  <trkpt lat="32.791001" lon="-1.627004">
   <ele>1210.00</ele>
   <time>2014-04-05T11:13:59Z</time>
  </trkpt>
  <trkpt lat="32.791002" lon="-1.627004">
   <ele>1210.00</ele>
   <time>2014-04-05T11:14:15Z</time>
  </trkpt>
  <trkpt lat="32.791004" lon="-1.627005">
   <ele>1210.00</ele>
   <time>2014-04-05T11:14:30Z</time>
  </trkpt>
  <trkpt lat="32.791001" lon="-1.627005">
   <ele>1210.00</ele>
   <time>2014-04-05T11:14:45Z</time>
  </trkpt>
  <trkpt lat="32.790999" lon="-1.627005">
   <ele>1210.00</ele>
   <time>2014-04-05T11:15:01Z</time>
  </trkpt>
  <trkpt lat="32.790998" lon="-1.627005">
   <ele>1209.00</ele>
   <time>2014-04-05T11:15:16Z</time>
  </trkpt>
  <trkpt lat="32.791002" lon="-1.627007">
   <ele>1210.00</ele>
   <time>2014-04-05T11:15:31Z</time>
  </trkpt>
  <trkpt lat="32.791004" lon="-1.627007">
   <ele>1210.00</ele>
   <time>2014-04-05T11:15:47Z</time>
  </trkpt>
  <trkpt lat="32.791004" lon="-1.627005">
   <ele>1211.00</ele>
   <time>2014-04-05T11:16:02Z</time>
  </trkpt>
  <trkpt lat="32.791001" lon="-1.627003">
   <ele>1210.00</ele>
   <time>2014-04-05T11:16:17Z</time>
  </trkpt>
  <trkpt lat="32.791003" lon="-1.627005">
   <ele>1210.00</ele>
   <time>2014-04-05T11:16:33Z</time>
  </trkpt>
  <trkpt lat="32.791003" lon="-1.627005">
   <ele>1210.00</ele>
   <time>2014-04-05T11:16:48Z</time>
  </trkpt>
  <trkpt lat="32.791054" lon="-1.627027">
   <ele>1210.00</ele>
   <time>2014-04-05T11:17:03Z</time>
  </trkpt>
  <trkpt lat="32.791259" lon="-1.627033">
   <ele>1209.00</ele>
   <time>2014-04-05T11:17:10Z</time>
  </trkpt>
  <trkpt lat="32.792019" lon="-1.626992">
   <ele>1207.00</ele>
   <time>2014-04-05T11:17:25Z</time>
  </trkpt>
  <trkpt lat="32.792248" lon="-1.627056">
   <ele>1206.00</ele>
   <time>2014-04-05T11:17:29Z</time>
  </trkpt>
  <trkpt lat="32.792412" lon="-1.627163">
   <ele>1205.00</ele>
   <time>2014-04-05T11:17:32Z</time>
  </trkpt>
  <trkpt lat="32.792585" lon="-1.627256">
   <ele>1205.00</ele>
   <time>2014-04-05T11:17:35Z</time>
  </trkpt>
  <trkpt lat="32.792761" lon="-1.627349">
   <ele>1205.00</ele>
   <time>2014-04-05T11:17:38Z</time>
  </trkpt>
  <trkpt lat="32.792880" lon="-1.627580">
   <ele>1204.00</ele>
   <time>2014-04-05T11:17:42Z</time>
  </trkpt>
  <trkpt lat="32.792887" lon="-1.627802">
   <ele>1203.00</ele>
   <time>2014-04-05T11:17:45Z</time>
  </trkpt>
  <trkpt lat="32.792947" lon="-1.628021">
   <ele>1203.00</ele>
   <time>2014-04-05T11:17:48Z</time>
  </trkpt>
  <trkpt lat="32.793043" lon="-1.628305">
   <ele>1204.00</ele>
   <time>2014-04-05T11:17:52Z</time>
  </trkpt>
  <trkpt lat="32.793106" lon="-1.628531">
   <ele>1204.00</ele>
   <time>2014-04-05T11:17:55Z</time>
  </trkpt>
  <trkpt lat="32.793163" lon="-1.628760">
   <ele>1204.00</ele>
   <time>2014-04-05T11:17:58Z</time>
  </trkpt>
  <trkpt lat="32.793180" lon="-1.629003">
   <ele>1204.00</ele>
   <time>2014-04-05T11:18:01Z</time>
  </trkpt>
  <trkpt lat="32.793174" lon="-1.629263">
   <ele>1204.00</ele>
   <time>2014-04-05T11:18:04Z</time>
  </trkpt>
  <trkpt lat="32.793155" lon="-1.629519">
   <ele>1204.00</ele>
   <time>2014-04-05T11:18:07Z</time>
  </trkpt>
  <trkpt lat="32.793093" lon="-1.629765">
   <ele>1204.00</ele>
   <time>2014-04-05T11:18:10Z</time>
  </trkpt>
  <trkpt lat="32.793029" lon="-1.629984">
   <ele>1204.00</ele>
   <time>2014-04-05T11:18:13Z</time>
  </trkpt>
  <trkpt lat="32.793079" lon="-1.630230">
   <ele>1204.00</ele>
   <time>2014-04-05T11:18:17Z</time>
  </trkpt>
  <trkpt lat="32.793139" lon="-1.630474">
   <ele>1204.00</ele>
   <time>2014-04-05T11:18:21Z</time>
  </trkpt>
  <trkpt lat="32.793087" lon="-1.630733">
   <ele>1204.00</ele>
   <time>2014-04-05T11:18:25Z</time>
  </trkpt>
  <trkpt lat="32.793035" lon="-1.630949">
   <ele>1204.00</ele>
   <time>2014-04-05T11:18:28Z</time>
  </trkpt>
  <trkpt lat="32.792982" lon="-1.631367">
   <ele>1204.00</ele>
   <time>2014-04-05T11:18:33Z</time>
  </trkpt>
  <trkpt lat="32.792938" lon="-1.631728">
   <ele>1204.00</ele>
   <time>2014-04-05T11:18:37Z</time>
  </trkpt>
  <trkpt lat="32.792874" lon="-1.632084">
   <ele>1205.00</ele>
   <time>2014-04-05T11:18:41Z</time>
  </trkpt>
  <trkpt lat="32.792873" lon="-1.632355">
   <ele>1205.00</ele>
   <time>2014-04-05T11:18:44Z</time>
  </trkpt>
  <trkpt lat="32.792927" lon="-1.632572">
   <ele>1205.00</ele>
   <time>2014-04-05T11:18:47Z</time>
  </trkpt>
  <trkpt lat="32.793040" lon="-1.632740">
   <ele>1204.00</ele>
   <time>2014-04-05T11:18:50Z</time>
  </trkpt>
  <trkpt lat="32.793300" lon="-1.633016">
   <ele>1203.00</ele>
   <time>2014-04-05T11:18:55Z</time>
  </trkpt>
  <trkpt lat="32.793487" lon="-1.633130">
   <ele>1202.00</ele>
   <time>2014-04-05T11:18:58Z</time>
  </trkpt>
  <trkpt lat="32.793692" lon="-1.633140">
   <ele>1202.00</ele>
   <time>2014-04-05T11:19:01Z</time>
  </trkpt>
  <trkpt lat="32.793874" lon="-1.633088">
   <ele>1201.00</ele>
   <time>2014-04-05T11:19:04Z</time>
  </trkpt>
  <trkpt lat="32.794070" lon="-1.633136">
   <ele>1201.00</ele>
   <time>2014-04-05T11:19:10Z</time>
  </trkpt>
  <trkpt lat="32.794224" lon="-1.633269">
   <ele>1200.00</ele>
   <time>2014-04-05T11:19:15Z</time>
  </trkpt>
  <trkpt lat="32.794420" lon="-1.633311">
   <ele>1200.00</ele>
   <time>2014-04-05T11:19:20Z</time>
  </trkpt>
  <trkpt lat="32.794585" lon="-1.633481">
   <ele>1200.00</ele>
   <time>2014-04-05T11:19:24Z</time>
  </trkpt>
  <trkpt lat="32.794755" lon="-1.633580">
   <ele>1200.00</ele>
   <time>2014-04-05T11:19:27Z</time>
  </trkpt>
  <trkpt lat="32.794966" lon="-1.633636">
   <ele>1200.00</ele>
   <time>2014-04-05T11:19:30Z</time>
  </trkpt>
  <trkpt lat="32.795310" lon="-1.633701">
   <ele>1200.00</ele>
   <time>2014-04-05T11:19:34Z</time>
  </trkpt>
  <trkpt lat="32.795511" lon="-1.633762">
   <ele>1200.00</ele>
   <time>2014-04-05T11:19:36Z</time>
  </trkpt>
  <trkpt lat="32.795700" lon="-1.633854">
   <ele>1201.00</ele>
   <time>2014-04-05T11:19:38Z</time>
  </trkpt>
  <trkpt lat="32.795863" lon="-1.634005">
   <ele>1201.00</ele>
   <time>2014-04-05T11:19:40Z</time>
  </trkpt>
  <trkpt lat="32.795990" lon="-1.634215">
   <ele>1200.00</ele>
   <time>2014-04-05T11:19:42Z</time>
  </trkpt>
  <trkpt lat="32.796091" lon="-1.634456">
   <ele>1200.00</ele>
   <time>2014-04-05T11:19:44Z</time>
  </trkpt>
  <trkpt lat="32.796172" lon="-1.634723">
   <ele>1200.00</ele>
   <time>2014-04-05T11:19:46Z</time>
  </trkpt>
  <trkpt lat="32.796254" lon="-1.634994">
   <ele>1200.00</ele>
   <time>2014-04-05T11:19:48Z</time>
  </trkpt>
  <trkpt lat="32.796590" lon="-1.635990">
   <ele>1199.00</ele>
   <time>2014-04-05T11:19:56Z</time>
  </trkpt>
  <trkpt lat="32.796706" lon="-1.636296">
   <ele>1200.00</ele>
   <time>2014-04-05T11:19:59Z</time>
  </trkpt>
  <trkpt lat="32.796840" lon="-1.636566">
   <ele>1200.00</ele>
   <time>2014-04-05T11:20:02Z</time>
  </trkpt>
  <trkpt lat="32.796961" lon="-1.636818">
   <ele>1201.00</ele>
   <time>2014-04-05T11:20:05Z</time>
  </trkpt>
  <trkpt lat="32.797018" lon="-1.637092">
   <ele>1202.00</ele>
   <time>2014-04-05T11:20:08Z</time>
  </trkpt>
  <trkpt lat="32.797026" lon="-1.637362">
   <ele>1202.00</ele>
   <time>2014-04-05T11:20:11Z</time>
  </trkpt>
  <trkpt lat="32.797046" lon="-1.637639">
   <ele>1202.00</ele>
   <time>2014-04-05T11:20:14Z</time>
  </trkpt>
  <trkpt lat="32.797014" lon="-1.637915">
   <ele>1203.00</ele>
   <time>2014-04-05T11:20:17Z</time>
  </trkpt>
  <trkpt lat="32.796998" lon="-1.638167">
   <ele>1203.00</ele>
   <time>2014-04-05T11:20:20Z</time>
  </trkpt>
  <trkpt lat="32.797020" lon="-1.638431">
   <ele>1203.00</ele>
   <time>2014-04-05T11:20:23Z</time>
  </trkpt>
  <trkpt lat="32.796968" lon="-1.638679">
   <ele>1203.00</ele>
   <time>2014-04-05T11:20:26Z</time>
  </trkpt>
  <trkpt lat="32.796854" lon="-1.638883">
   <ele>1203.00</ele>
   <time>2014-04-05T11:20:29Z</time>
  </trkpt>
  <trkpt lat="32.796745" lon="-1.639087">
   <ele>1204.00</ele>
   <time>2014-04-05T11:20:32Z</time>
  </trkpt>
  <trkpt lat="32.796686" lon="-1.639309">
   <ele>1204.00</ele>
   <time>2014-04-05T11:20:35Z</time>
  </trkpt>
  <trkpt lat="32.796639" lon="-1.639612">
   <ele>1204.00</ele>
   <time>2014-04-05T11:20:39Z</time>
  </trkpt>
  <trkpt lat="32.796556" lon="-1.639940">
   <ele>1204.00</ele>
   <time>2014-04-05T11:20:43Z</time>
  </trkpt>
  <trkpt lat="32.796527" lon="-1.640195">
   <ele>1204.00</ele>
   <time>2014-04-05T11:20:46Z</time>
  </trkpt>
  <trkpt lat="32.796512" lon="-1.640608">
   <ele>1205.00</ele>
   <time>2014-04-05T11:20:51Z</time>
  </trkpt>
  <trkpt lat="32.796561" lon="-1.640836">
   <ele>1205.00</ele>
   <time>2014-04-05T11:20:54Z</time>
  </trkpt>
  <trkpt lat="32.796678" lon="-1.641028">
   <ele>1205.00</ele>
   <time>2014-04-05T11:20:57Z</time>
  </trkpt>
  <trkpt lat="32.796885" lon="-1.641355">
   <ele>1205.00</ele>
   <time>2014-04-05T11:21:02Z</time>
  </trkpt>
  <trkpt lat="32.797004" lon="-1.641664">
   <ele>1204.00</ele>
   <time>2014-04-05T11:21:06Z</time>
  </trkpt>
  <trkpt lat="32.797021" lon="-1.641932">
   <ele>1204.00</ele>
   <time>2014-04-05T11:21:09Z</time>
  </trkpt>
  <trkpt lat="32.797004" lon="-1.642210">
   <ele>1204.00</ele>
   <time>2014-04-05T11:21:12Z</time>
  </trkpt>
  <trkpt lat="32.796920" lon="-1.642474">
   <ele>1204.00</ele>
   <time>2014-04-05T11:21:15Z</time>
  </trkpt>
  <trkpt lat="32.796768" lon="-1.642692">
   <ele>1204.00</ele>
   <time>2014-04-05T11:21:18Z</time>
  </trkpt>
  <trkpt lat="32.796617" lon="-1.642925">
   <ele>1204.00</ele>
   <time>2014-04-05T11:21:21Z</time>
  </trkpt>
  <trkpt lat="32.796516" lon="-1.643187">
   <ele>1204.00</ele>
   <time>2014-04-05T11:21:24Z</time>
  </trkpt>
  <trkpt lat="32.796418" lon="-1.643514">
   <ele>1206.00</ele>
   <time>2014-04-05T11:21:28Z</time>
  </trkpt>
  <trkpt lat="32.796352" lon="-1.643721">
   <ele>1207.00</ele>
   <time>2014-04-05T11:21:32Z</time>
  </trkpt>
  <trkpt lat="32.796339" lon="-1.643965">
   <ele>1208.00</ele>
   <time>2014-04-05T11:21:36Z</time>
  </trkpt>
  <trkpt lat="32.796306" lon="-1.644193">
   <ele>1208.00</ele>
   <time>2014-04-05T11:21:39Z</time>
  </trkpt>
  <trkpt lat="32.796233" lon="-1.644438">
   <ele>1207.00</ele>
   <time>2014-04-05T11:21:42Z</time>
  </trkpt>
  <trkpt lat="32.796021" lon="-1.644958">
   <ele>1207.00</ele>
   <time>2014-04-05T11:21:48Z</time>
  </trkpt>
  <trkpt lat="32.795931" lon="-1.645231">
   <ele>1207.00</ele>
   <time>2014-04-05T11:21:51Z</time>
  </trkpt>
  <trkpt lat="32.795872" lon="-1.645520">
   <ele>1207.00</ele>
   <time>2014-04-05T11:21:54Z</time>
  </trkpt>
  <trkpt lat="32.795811" lon="-1.645811">
   <ele>1207.00</ele>
   <time>2014-04-05T11:21:57Z</time>
  </trkpt>
  <trkpt lat="32.795701" lon="-1.646076">
   <ele>1208.00</ele>
   <time>2014-04-05T11:22:00Z</time>
  </trkpt>
  <trkpt lat="32.795534" lon="-1.646307">
   <ele>1209.00</ele>
   <time>2014-04-05T11:22:03Z</time>
  </trkpt>
  <trkpt lat="32.795090" lon="-1.646881">
   <ele>1212.00</ele>
   <time>2014-04-05T11:22:11Z</time>
  </trkpt>
  <trkpt lat="32.794928" lon="-1.647094">
   <ele>1213.00</ele>
   <time>2014-04-05T11:22:14Z</time>
  </trkpt>
  <trkpt lat="32.794768" lon="-1.647303">
   <ele>1213.00</ele>
   <time>2014-04-05T11:22:17Z</time>
  </trkpt>
  <trkpt lat="32.794624" lon="-1.647558">
   <ele>1212.00</ele>
   <time>2014-04-05T11:22:20Z</time>
  </trkpt>
  <trkpt lat="32.794479" lon="-1.647827">
   <ele>1212.00</ele>
   <time>2014-04-05T11:22:23Z</time>
  </trkpt>
  <trkpt lat="32.794371" lon="-1.648001">
   <ele>1212.00</ele>
   <time>2014-04-05T11:22:25Z</time>
  </trkpt>
  <trkpt lat="32.794164" lon="-1.648325">
   <ele>1211.00</ele>
   <time>2014-04-05T11:22:29Z</time>
  </trkpt>
  <trkpt lat="32.794003" lon="-1.648519">
   <ele>1211.00</ele>
   <time>2014-04-05T11:22:32Z</time>
  </trkpt>
  <trkpt lat="32.793751" lon="-1.648703">
   <ele>1210.00</ele>
   <time>2014-04-05T11:22:36Z</time>
  </trkpt>
  <trkpt lat="32.793609" lon="-1.648902">
   <ele>1209.00</ele>
   <time>2014-04-05T11:22:39Z</time>
  </trkpt>
  <trkpt lat="32.793541" lon="-1.649127">
   <ele>1209.00</ele>
   <time>2014-04-05T11:22:42Z</time>
  </trkpt>
  <trkpt lat="32.793536" lon="-1.649361">
   <ele>1208.00</ele>
   <time>2014-04-05T11:22:45Z</time>
  </trkpt>
  <trkpt lat="32.793538" lon="-1.649603">
   <ele>1208.00</ele>
   <time>2014-04-05T11:22:48Z</time>
  </trkpt>
  <trkpt lat="32.793513" lon="-1.649832">
   <ele>1208.00</ele>
   <time>2014-04-05T11:22:51Z</time>
  </trkpt>
  <trkpt lat="32.793498" lon="-1.650048">
   <ele>1208.00</ele>
   <time>2014-04-05T11:22:54Z</time>
  </trkpt>
  <trkpt lat="32.793599" lon="-1.650291">
   <ele>1207.00</ele>
   <time>2014-04-05T11:22:58Z</time>
  </trkpt>
  <trkpt lat="32.793742" lon="-1.650425">
   <ele>1206.00</ele>
   <time>2014-04-05T11:23:01Z</time>
  </trkpt>
  <trkpt lat="32.793920" lon="-1.650582">
   <ele>1204.00</ele>
   <time>2014-04-05T11:23:05Z</time>
  </trkpt>
  <trkpt lat="32.794064" lon="-1.650726">
   <ele>1202.00</ele>
   <time>2014-04-05T11:23:13Z</time>
  </trkpt>
  <trkpt lat="32.794104" lon="-1.650731">
   <ele>1202.00</ele>
   <time>2014-04-05T11:23:29Z</time>
  </trkpt>
  <trkpt lat="32.794103" lon="-1.650724">
   <ele>1202.00</ele>
   <time>2014-04-05T11:23:44Z</time>
  </trkpt>
  <trkpt lat="32.794106" lon="-1.650727">
   <ele>1202.00</ele>
   <time>2014-04-05T11:23:59Z</time>
  </trkpt>
  <trkpt lat="32.794108" lon="-1.650728">
   <ele>1202.00</ele>
   <time>2014-04-05T11:24:15Z</time>
  </trkpt>
  <trkpt lat="32.794326" lon="-1.650736">
   <ele>1201.00</ele>
   <time>2014-04-05T11:24:30Z</time>
  </trkpt>
  <trkpt lat="32.794508" lon="-1.650732">
   <ele>1201.00</ele>
   <time>2014-04-05T11:24:34Z</time>
  </trkpt>
  <trkpt lat="32.794655" lon="-1.650912">
   <ele>1201.00</ele>
   <time>2014-04-05T11:24:39Z</time>
  </trkpt>
  <trkpt lat="32.794682" lon="-1.651153">
   <ele>1200.00</ele>
   <time>2014-04-05T11:24:43Z</time>
  </trkpt>
  <trkpt lat="32.794693" lon="-1.651387">
   <ele>1201.00</ele>
   <time>2014-04-05T11:24:47Z</time>
  </trkpt>
  <trkpt lat="32.794689" lon="-1.651648">
   <ele>1200.00</ele>
   <time>2014-04-05T11:24:51Z</time>
  </trkpt>
  <trkpt lat="32.794749" lon="-1.651909">
   <ele>1200.00</ele>
   <time>2014-04-05T11:24:55Z</time>
  </trkpt>
  <trkpt lat="32.794836" lon="-1.652167">
   <ele>1200.00</ele>
   <time>2014-04-05T11:24:59Z</time>
  </trkpt>
  <trkpt lat="32.794927" lon="-1.652417">
   <ele>1200.00</ele>
   <time>2014-04-05T11:25:03Z</time>
  </trkpt>
  <trkpt lat="32.795016" lon="-1.652642">
   <ele>1199.00</ele>
   <time>2014-04-05T11:25:07Z</time>
  </trkpt>
  <trkpt lat="32.795145" lon="-1.652796">
   <ele>1198.00</ele>
   <time>2014-04-05T11:25:11Z</time>
  </trkpt>
  <trkpt lat="32.795330" lon="-1.652864">
   <ele>1197.00</ele>
   <time>2014-04-05T11:25:16Z</time>
  </trkpt>
  <trkpt lat="32.795371" lon="-1.653070">
   <ele>1195.00</ele>
   <time>2014-04-05T11:25:23Z</time>
  </trkpt>
  <trkpt lat="32.795356" lon="-1.653152">
   <ele>1195.00</ele>
   <time>2014-04-05T11:25:39Z</time>
  </trkpt>
  <trkpt lat="32.795351" lon="-1.653147">
   <ele>1195.00</ele>
   <time>2014-04-05T11:25:54Z</time>
  </trkpt>
  <trkpt lat="32.795349" lon="-1.653144">
   <ele>1196.00</ele>
   <time>2014-04-05T11:26:10Z</time>
  </trkpt>
  <trkpt lat="32.795346" lon="-1.653143">
   <ele>1197.00</ele>
   <time>2014-04-05T11:26:25Z</time>
  </trkpt>
  <trkpt lat="32.795345" lon="-1.653141">
   <ele>1197.00</ele>
   <time>2014-04-05T11:26:40Z</time>
  </trkpt>
  <trkpt lat="32.795345" lon="-1.653140">
   <ele>1198.00</ele>
   <time>2014-04-05T11:26:56Z</time>
  </trkpt>
  <trkpt lat="32.795345" lon="-1.653139">
   <ele>1198.00</ele>
   <time>2014-04-05T11:27:11Z</time>
  </trkpt>
  <trkpt lat="32.795345" lon="-1.653138">
   <ele>1198.00</ele>
   <time>2014-04-05T11:27:26Z</time>
  </trkpt>
  <trkpt lat="32.795344" lon="-1.653138">
   <ele>1198.00</ele>
   <time>2014-04-05T11:27:42Z</time>
  </trkpt>
  <trkpt lat="32.795342" lon="-1.653139">
   <ele>1198.00</ele>
   <time>2014-04-05T11:27:57Z</time>
  </trkpt>
  <trkpt lat="32.795346" lon="-1.653139">
   <ele>1198.00</ele>
   <time>2014-04-05T11:28:12Z</time>
  </trkpt>
  <trkpt lat="32.795347" lon="-1.653139">
   <ele>1199.00</ele>
   <time>2014-04-05T11:28:28Z</time>
  </trkpt>
  <trkpt lat="32.795342" lon="-1.653139">
   <ele>1199.00</ele>
   <time>2014-04-05T11:28:43Z</time>
  </trkpt>
  <trkpt lat="32.795338" lon="-1.653141">
   <ele>1200.00</ele>
   <time>2014-04-05T11:28:58Z</time>
  </trkpt>
  <trkpt lat="32.795336" lon="-1.653142">
   <ele>1201.00</ele>
   <time>2014-04-05T11:29:14Z</time>
  </trkpt>
  <trkpt lat="32.795336" lon="-1.653142">
   <ele>1201.00</ele>
   <time>2014-04-05T11:29:29Z</time>
  </trkpt>
  <trkpt lat="32.795336" lon="-1.653142">
   <ele>1201.00</ele>
   <time>2014-04-05T11:29:44Z</time>
  </trkpt>
  <trkpt lat="32.795337" lon="-1.653141">
   <ele>1200.00</ele>
   <time>2014-04-05T11:30:00Z</time>
  </trkpt>
  <trkpt lat="32.795337" lon="-1.653140">
   <ele>1200.00</ele>
   <time>2014-04-05T11:30:15Z</time>
  </trkpt>
  <trkpt lat="32.795338" lon="-1.653139">
   <ele>1200.00</ele>
   <time>2014-04-05T11:30:30Z</time>
  </trkpt>
  <trkpt lat="32.795337" lon="-1.653139">
   <ele>1200.00</ele>
   <time>2014-04-05T11:30:46Z</time>
  </trkpt>
  <trkpt lat="32.795336" lon="-1.653139">
   <ele>1200.00</ele>
   <time>2014-04-05T11:31:01Z</time>
  </trkpt>
  <trkpt lat="32.795337" lon="-1.653138">
   <ele>1200.00</ele>
   <time>2014-04-05T11:31:16Z</time>
  </trkpt>
  <trkpt lat="32.795340" lon="-1.653158">
   <ele>1200.00</ele>
   <time>2014-04-05T11:31:32Z</time>
  </trkpt>
  <trkpt lat="32.795298" lon="-1.653390">
   <ele>1198.00</ele>
   <time>2014-04-05T11:31:41Z</time>
  </trkpt>
  <trkpt lat="32.795175" lon="-1.653548">
   <ele>1196.00</ele>
   <time>2014-04-05T11:31:46Z</time>
  </trkpt>
  <trkpt lat="32.795072" lon="-1.653739">
   <ele>1195.00</ele>
   <time>2014-04-05T11:31:51Z</time>
  </trkpt>
  <trkpt lat="32.795052" lon="-1.653982">
   <ele>1194.00</ele>
   <time>2014-04-05T11:31:56Z</time>
  </trkpt>
  <trkpt lat="32.795053" lon="-1.654207">
   <ele>1194.00</ele>
   <time>2014-04-05T11:32:00Z</time>
  </trkpt>
  <trkpt lat="32.795038" lon="-1.654450">
   <ele>1193.00</ele>
   <time>2014-04-05T11:32:04Z</time>
  </trkpt>
  <trkpt lat="32.795010" lon="-1.654681">
   <ele>1193.00</ele>
   <time>2014-04-05T11:32:08Z</time>
  </trkpt>
  <trkpt lat="32.794983" lon="-1.654932">
   <ele>1192.00</ele>
   <time>2014-04-05T11:32:13Z</time>
  </trkpt>
  <trkpt lat="32.795015" lon="-1.655143">
   <ele>1191.00</ele>
   <time>2014-04-05T11:32:17Z</time>
  </trkpt>
  <trkpt lat="32.795119" lon="-1.655353">
   <ele>1189.00</ele>
   <time>2014-04-05T11:32:21Z</time>
  </trkpt>
  <trkpt lat="32.795211" lon="-1.655583">
   <ele>1188.00</ele>
   <time>2014-04-05T11:32:25Z</time>
  </trkpt>
  <trkpt lat="32.795308" lon="-1.655818">
   <ele>1186.00</ele>
   <time>2014-04-05T11:32:29Z</time>
  </trkpt>
  <trkpt lat="32.795476" lon="-1.655995">
   <ele>1184.00</ele>
   <time>2014-04-05T11:32:33Z</time>
  </trkpt>
  <trkpt lat="32.795709" lon="-1.656038">
   <ele>1184.00</ele>
   <time>2014-04-05T11:32:37Z</time>
  </trkpt>
  <trkpt lat="32.795936" lon="-1.656083">
   <ele>1183.00</ele>
   <time>2014-04-05T11:32:41Z</time>
  </trkpt>
  <trkpt lat="32.796133" lon="-1.656219">
   <ele>1183.00</ele>
   <time>2014-04-05T11:32:45Z</time>
  </trkpt>
  <trkpt lat="32.796240" lon="-1.656451">
   <ele>1182.00</ele>
   <time>2014-04-05T11:32:49Z</time>
  </trkpt>
  <trkpt lat="32.796264" lon="-1.656726">
   <ele>1181.00</ele>
   <time>2014-04-05T11:32:53Z</time>
  </trkpt>
  <trkpt lat="32.796249" lon="-1.657017">
   <ele>1181.00</ele>
   <time>2014-04-05T11:32:57Z</time>
  </trkpt>
  <trkpt lat="32.796263" lon="-1.657426">
   <ele>1181.00</ele>
   <time>2014-04-05T11:33:02Z</time>
  </trkpt>
  <trkpt lat="32.796261" lon="-1.657698">
   <ele>1181.00</ele>
   <time>2014-04-05T11:33:05Z</time>
  </trkpt>
  <trkpt lat="32.796262" lon="-1.657962">
   <ele>1181.00</ele>
   <time>2014-04-05T11:33:08Z</time>
  </trkpt>
  <trkpt lat="32.796213" lon="-1.658206">
   <ele>1180.00</ele>
   <time>2014-04-05T11:33:11Z</time>
  </trkpt>
  <trkpt lat="32.796174" lon="-1.658457">
   <ele>1179.00</ele>
   <time>2014-04-05T11:33:14Z</time>
  </trkpt>
  <trkpt lat="32.796220" lon="-1.658698">
   <ele>1179.00</ele>
   <time>2014-04-05T11:33:17Z</time>
  </trkpt>
  <trkpt lat="32.796278" lon="-1.658925">
   <ele>1179.00</ele>
   <time>2014-04-05T11:33:20Z</time>
  </trkpt>
  <trkpt lat="32.796352" lon="-1.659130">
   <ele>1179.00</ele>
   <time>2014-04-05T11:33:23Z</time>
  </trkpt>
  <trkpt lat="32.796406" lon="-1.659359">
   <ele>1179.00</ele>
   <time>2014-04-05T11:33:27Z</time>
  </trkpt>
  <trkpt lat="32.796567" lon="-1.659523">
   <ele>1179.00</ele>
   <time>2014-04-05T11:33:31Z</time>
  </trkpt>
  <trkpt lat="32.796834" lon="-1.659650">
   <ele>1178.00</ele>
   <time>2014-04-05T11:33:36Z</time>
  </trkpt>
  <trkpt lat="32.797013" lon="-1.659831">
   <ele>1177.00</ele>
   <time>2014-04-05T11:33:40Z</time>
  </trkpt>
  <trkpt lat="32.797141" lon="-1.659994">
   <ele>1176.00</ele>
   <time>2014-04-05T11:33:43Z</time>
  </trkpt>
  <trkpt lat="32.797251" lon="-1.660180">
   <ele>1176.00</ele>
   <time>2014-04-05T11:33:46Z</time>
  </trkpt>
  <trkpt lat="32.797316" lon="-1.660381">
   <ele>1176.00</ele>
   <time>2014-04-05T11:33:49Z</time>
  </trkpt>
  <trkpt lat="32.797325" lon="-1.660626">
   <ele>1176.00</ele>
   <time>2014-04-05T11:33:53Z</time>
  </trkpt>
  <trkpt lat="32.797348" lon="-1.660884">
   <ele>1175.00</ele>
   <time>2014-04-05T11:33:58Z</time>
  </trkpt>
  <trkpt lat="32.797378" lon="-1.661115">
   <ele>1175.00</ele>
   <time>2014-04-05T11:34:02Z</time>
  </trkpt>
  <trkpt lat="32.797346" lon="-1.661354">
   <ele>1174.00</ele>
   <time>2014-04-05T11:34:06Z</time>
  </trkpt>
  <trkpt lat="32.797314" lon="-1.661588">
   <ele>1174.00</ele>
   <time>2014-04-05T11:34:11Z</time>
  </trkpt>
  <trkpt lat="32.797461" lon="-1.661753">
   <ele>1174.00</ele>
   <time>2014-04-05T11:34:16Z</time>
  </trkpt>
  <trkpt lat="32.797628" lon="-1.661849">
   <ele>1174.00</ele>
   <time>2014-04-05T11:34:20Z</time>
  </trkpt>
  <trkpt lat="32.797782" lon="-1.661987">
   <ele>1174.00</ele>
   <time>2014-04-05T11:34:24Z</time>
  </trkpt>
  <trkpt lat="32.797861" lon="-1.662196">
   <ele>1174.00</ele>
   <time>2014-04-05T11:34:28Z</time>
  </trkpt>
  <trkpt lat="32.797917" lon="-1.662545">
   <ele>1174.00</ele>
   <time>2014-04-05T11:34:34Z</time>
  </trkpt>
  <trkpt lat="32.797893" lon="-1.662793">
   <ele>1173.00</ele>
   <time>2014-04-05T11:34:38Z</time>
  </trkpt>
  <trkpt lat="32.797748" lon="-1.663007">
   <ele>1172.00</ele>
   <time>2014-04-05T11:34:42Z</time>
  </trkpt>
  <trkpt lat="32.797570" lon="-1.663162">
   <ele>1172.00</ele>
   <time>2014-04-05T11:34:46Z</time>
  </trkpt>
  <trkpt lat="32.797393" lon="-1.663293">
   <ele>1172.00</ele>
   <time>2014-04-05T11:34:51Z</time>
  </trkpt>
  <trkpt lat="32.797258" lon="-1.663490">
   <ele>1171.00</ele>
   <time>2014-04-05T11:34:57Z</time>
  </trkpt>
  <trkpt lat="32.797134" lon="-1.663648">
   <ele>1171.00</ele>
   <time>2014-04-05T11:35:01Z</time>
  </trkpt>
  <trkpt lat="32.796962" lon="-1.663777">
   <ele>1171.00</ele>
   <time>2014-04-05T11:35:05Z</time>
  </trkpt>
  <trkpt lat="32.796773" lon="-1.663841">
   <ele>1171.00</ele>
   <time>2014-04-05T11:35:09Z</time>
  </trkpt>
  <trkpt lat="32.796534" lon="-1.663898">
   <ele>1171.00</ele>
   <time>2014-04-05T11:35:14Z</time>
  </trkpt>
  <trkpt lat="32.796363" lon="-1.663987">
   <ele>1171.00</ele>
   <time>2014-04-05T11:35:18Z</time>
  </trkpt>
  <trkpt lat="32.796201" lon="-1.664107">
   <ele>1171.00</ele>
   <time>2014-04-05T11:35:22Z</time>
  </trkpt>
  <trkpt lat="32.796052" lon="-1.664272">
   <ele>1170.00</ele>
   <time>2014-04-05T11:35:26Z</time>
  </trkpt>
  <trkpt lat="32.795929" lon="-1.664456">
   <ele>1170.00</ele>
   <time>2014-04-05T11:35:30Z</time>
  </trkpt>
  <trkpt lat="32.795790" lon="-1.664719">
   <ele>1170.00</ele>
   <time>2014-04-05T11:35:35Z</time>
  </trkpt>
  <trkpt lat="32.795653" lon="-1.664877">
   <ele>1170.00</ele>
   <time>2014-04-05T11:35:39Z</time>
  </trkpt>
  <trkpt lat="32.795535" lon="-1.665068">
   <ele>1170.00</ele>
   <time>2014-04-05T11:35:44Z</time>
  </trkpt>
  <trkpt lat="32.795413" lon="-1.665282">
   <ele>1169.00</ele>
   <time>2014-04-05T11:35:49Z</time>
  </trkpt>
  <trkpt lat="32.795436" lon="-1.665499">
   <ele>1169.00</ele>
   <time>2014-04-05T11:35:53Z</time>
  </trkpt>
  <trkpt lat="32.795559" lon="-1.665674">
   <ele>1169.00</ele>
   <time>2014-04-05T11:35:57Z</time>
  </trkpt>
  <trkpt lat="32.795851" lon="-1.666041">
   <ele>1168.00</ele>
   <time>2014-04-05T11:36:05Z</time>
  </trkpt>
  <trkpt lat="32.795925" lon="-1.666257">
   <ele>1167.00</ele>
   <time>2014-04-05T11:36:10Z</time>
  </trkpt>
  <trkpt lat="32.795966" lon="-1.666583">
   <ele>1167.00</ele>
   <time>2014-04-05T11:36:16Z</time>
  </trkpt>
  <trkpt lat="32.795978" lon="-1.666798">
   <ele>1168.00</ele>
   <time>2014-04-05T11:36:20Z</time>
  </trkpt>
  <trkpt lat="32.796092" lon="-1.666993">
   <ele>1167.00</ele>
   <time>2014-04-05T11:36:25Z</time>
  </trkpt>
  <trkpt lat="32.796272" lon="-1.667111">
   <ele>1166.00</ele>
   <time>2014-04-05T11:36:29Z</time>
  </trkpt>
  <trkpt lat="32.796502" lon="-1.667266">
   <ele>1165.00</ele>
   <time>2014-04-05T11:36:34Z</time>
  </trkpt>
  <trkpt lat="32.796656" lon="-1.667402">
   <ele>1165.00</ele>
   <time>2014-04-05T11:36:38Z</time>
  </trkpt>
  <trkpt lat="32.796815" lon="-1.667583">
   <ele>1165.00</ele>
   <time>2014-04-05T11:36:44Z</time>
  </trkpt>
  <trkpt lat="32.796917" lon="-1.667776">
   <ele>1165.00</ele>
   <time>2014-04-05T11:36:49Z</time>
  </trkpt>
  <trkpt lat="32.796984" lon="-1.667991">
   <ele>1165.00</ele>
   <time>2014-04-05T11:36:53Z</time>
  </trkpt>
  <trkpt lat="32.797080" lon="-1.668295">
   <ele>1165.00</ele>
   <time>2014-04-05T11:36:58Z</time>
  </trkpt>
  <trkpt lat="32.797193" lon="-1.668504">
   <ele>1165.00</ele>
   <time>2014-04-05T11:37:02Z</time>
  </trkpt>
  <trkpt lat="32.797349" lon="-1.668645">
   <ele>1164.00</ele>
   <time>2014-04-05T11:37:06Z</time>
  </trkpt>
  <trkpt lat="32.797547" lon="-1.668766">
   <ele>1163.00</ele>
   <time>2014-04-05T11:37:10Z</time>
  </trkpt>
  <trkpt lat="32.797728" lon="-1.668838">
   <ele>1162.00</ele>
   <time>2014-04-05T11:37:13Z</time>
  </trkpt>
  <trkpt lat="32.797932" lon="-1.668879">
   <ele>1162.00</ele>
   <time>2014-04-05T11:37:16Z</time>
  </trkpt>
  <trkpt lat="32.798478" lon="-1.668984">
   <ele>1162.00</ele>
   <time>2014-04-05T11:37:24Z</time>
  </trkpt>
  <trkpt lat="32.798693" lon="-1.668994">
   <ele>1162.00</ele>
   <time>2014-04-05T11:37:27Z</time>
  </trkpt>
  <trkpt lat="32.798997" lon="-1.669012">
   <ele>1162.00</ele>
   <time>2014-04-05T11:37:31Z</time>
  </trkpt>
  <trkpt lat="32.799225" lon="-1.668981">
   <ele>1163.00</ele>
   <time>2014-04-05T11:37:34Z</time>
  </trkpt>
  <trkpt lat="32.799456" lon="-1.668921">
   <ele>1163.00</ele>
   <time>2014-04-05T11:37:37Z</time>
  </trkpt>
  <trkpt lat="32.799688" lon="-1.668900">
   <ele>1163.00</ele>
   <time>2014-04-05T11:37:40Z</time>
  </trkpt>
  <trkpt lat="32.799925" lon="-1.668895">
   <ele>1163.00</ele>
   <time>2014-04-05T11:37:43Z</time>
  </trkpt>
  <trkpt lat="32.800394" lon="-1.668862">
   <ele>1163.00</ele>
   <time>2014-04-05T11:37:49Z</time>
  </trkpt>
  <trkpt lat="32.800608" lon="-1.668889">
   <ele>1163.00</ele>
   <time>2014-04-05T11:37:52Z</time>
  </trkpt>
  <trkpt lat="32.800805" lon="-1.668968">
   <ele>1163.00</ele>
   <time>2014-04-05T11:37:55Z</time>
  </trkpt>
  <trkpt lat="32.801110" lon="-1.669099">
   <ele>1163.00</ele>
   <time>2014-04-05T11:38:00Z</time>
  </trkpt>
  <trkpt lat="32.801254" lon="-1.669253">
   <ele>1163.00</ele>
   <time>2014-04-05T11:38:03Z</time>
  </trkpt>
  <trkpt lat="32.801397" lon="-1.669427">
   <ele>1163.00</ele>
   <time>2014-04-05T11:38:06Z</time>
  </trkpt>
  <trkpt lat="32.801537" lon="-1.669574">
   <ele>1163.00</ele>
   <time>2014-04-05T11:38:09Z</time>
  </trkpt>
  <trkpt lat="32.801697" lon="-1.669680">
   <ele>1163.00</ele>
   <time>2014-04-05T11:38:12Z</time>
  </trkpt>
  <trkpt lat="32.801875" lon="-1.669764">
   <ele>1163.00</ele>
   <time>2014-04-05T11:38:15Z</time>
  </trkpt>
  <trkpt lat="32.802045" lon="-1.669851">
   <ele>1163.00</ele>
   <time>2014-04-05T11:38:18Z</time>
  </trkpt>
  <trkpt lat="32.802218" lon="-1.669929">
   <ele>1163.00</ele>
   <time>2014-04-05T11:38:21Z</time>
  </trkpt>
  <trkpt lat="32.802405" lon="-1.669949">
   <ele>1163.00</ele>
   <time>2014-04-05T11:38:24Z</time>
  </trkpt>
  <trkpt lat="32.802587" lon="-1.669966">
   <ele>1163.00</ele>
   <time>2014-04-05T11:38:27Z</time>
  </trkpt>
  <trkpt lat="32.802771" lon="-1.669993">
   <ele>1163.00</ele>
   <time>2014-04-05T11:38:30Z</time>
  </trkpt>
  <trkpt lat="32.802959" lon="-1.670074">
   <ele>1163.00</ele>
   <time>2014-04-05T11:38:33Z</time>
  </trkpt>
  <trkpt lat="32.803380" lon="-1.670294">
   <ele>1163.00</ele>
   <time>2014-04-05T11:38:40Z</time>
  </trkpt>
  <trkpt lat="32.803554" lon="-1.670402">
   <ele>1163.00</ele>
   <time>2014-04-05T11:38:43Z</time>
  </trkpt>
  <trkpt lat="32.803744" lon="-1.670489">
   <ele>1163.00</ele>
   <time>2014-04-05T11:38:46Z</time>
  </trkpt>
  <trkpt lat="32.803924" lon="-1.670523">
   <ele>1164.00</ele>
   <time>2014-04-05T11:38:49Z</time>
  </trkpt>
  <trkpt lat="32.804107" lon="-1.670524">
   <ele>1164.00</ele>
   <time>2014-04-05T11:38:53Z</time>
  </trkpt>
  <trkpt lat="32.804307" lon="-1.670578">
   <ele>1164.00</ele>
   <time>2014-04-05T11:38:58Z</time>
  </trkpt>
  <trkpt lat="32.804491" lon="-1.670580">
   <ele>1164.00</ele>
   <time>2014-04-05T11:39:02Z</time>
  </trkpt>
  <trkpt lat="32.804700" lon="-1.670569">
   <ele>1164.00</ele>
   <time>2014-04-05T11:39:06Z</time>
  </trkpt>
  <trkpt lat="32.804925" lon="-1.670573">
   <ele>1164.00</ele>
   <time>2014-04-05T11:39:10Z</time>
  </trkpt>
  <trkpt lat="32.805148" lon="-1.670624">
   <ele>1165.00</ele>
   <time>2014-04-05T11:39:14Z</time>
  </trkpt>
  <trkpt lat="32.805328" lon="-1.670708">
   <ele>1165.00</ele>
   <time>2014-04-05T11:39:18Z</time>
  </trkpt>
  <trkpt lat="32.805521" lon="-1.670778">
   <ele>1165.00</ele>
   <time>2014-04-05T11:39:23Z</time>
  </trkpt>
  <trkpt lat="32.805687" lon="-1.670676">
   <ele>1166.00</ele>
   <time>2014-04-05T11:39:28Z</time>
  </trkpt>
  <trkpt lat="32.805824" lon="-1.670526">
   <ele>1166.00</ele>
   <time>2014-04-05T11:39:33Z</time>
  </trkpt>
  <trkpt lat="32.805969" lon="-1.670379">
   <ele>1167.00</ele>
   <time>2014-04-05T11:39:38Z</time>
  </trkpt>
  <trkpt lat="32.806119" lon="-1.670224">
   <ele>1168.00</ele>
   <time>2014-04-05T11:39:43Z</time>
  </trkpt>
  <trkpt lat="32.806268" lon="-1.670185">
   <ele>1169.00</ele>
   <time>2014-04-05T11:39:58Z</time>
  </trkpt>
  <trkpt lat="32.806263" lon="-1.670186">
   <ele>1169.00</ele>
   <time>2014-04-05T11:40:14Z</time>
  </trkpt>
  <trkpt lat="32.806260" lon="-1.670185">
   <ele>1170.00</ele>
   <time>2014-04-05T11:40:29Z</time>
  </trkpt>
  <trkpt lat="32.806252" lon="-1.670182">
   <ele>1169.00</ele>
   <time>2014-04-05T11:40:45Z</time>
  </trkpt>
  <trkpt lat="32.806413" lon="-1.670285">
   <ele>1169.00</ele>
   <time>2014-04-05T11:40:59Z</time>
  </trkpt>
  <trkpt lat="32.806551" lon="-1.670418">
   <ele>1169.00</ele>
   <time>2014-04-05T11:41:06Z</time>
  </trkpt>
  <trkpt lat="32.806614" lon="-1.670644">
   <ele>1168.00</ele>
   <time>2014-04-05T11:41:13Z</time>
  </trkpt>
  <trkpt lat="32.806740" lon="-1.670834">
   <ele>1167.00</ele>
   <time>2014-04-05T11:41:19Z</time>
  </trkpt>
  <trkpt lat="32.806968" lon="-1.671062">
   <ele>1166.00</ele>
   <time>2014-04-05T11:41:25Z</time>
  </trkpt>
  <trkpt lat="32.807153" lon="-1.671199">
   <ele>1166.00</ele>
   <time>2014-04-05T11:41:29Z</time>
  </trkpt>
  <trkpt lat="32.807342" lon="-1.671337">
   <ele>1165.00</ele>
   <time>2014-04-05T11:41:33Z</time>
  </trkpt>
  <trkpt lat="32.807550" lon="-1.671555">
   <ele>1165.00</ele>
   <time>2014-04-05T11:41:38Z</time>
  </trkpt>
  <trkpt lat="32.807681" lon="-1.671761">
   <ele>1165.00</ele>
   <time>2014-04-05T11:41:42Z</time>
  </trkpt>
  <trkpt lat="32.807847" lon="-1.671925">
   <ele>1165.00</ele>
   <time>2014-04-05T11:41:46Z</time>
  </trkpt>
  <trkpt lat="32.808054" lon="-1.672058">
   <ele>1165.00</ele>
   <time>2014-04-05T11:41:50Z</time>
  </trkpt>
  <trkpt lat="32.808420" lon="-1.672270">
   <ele>1165.00</ele>
   <time>2014-04-05T11:41:57Z</time>
  </trkpt>
  <trkpt lat="32.808608" lon="-1.672355">
   <ele>1165.00</ele>
   <time>2014-04-05T11:42:01Z</time>
  </trkpt>
  <trkpt lat="32.808784" lon="-1.672431">
   <ele>1165.00</ele>
   <time>2014-04-05T11:42:05Z</time>
  </trkpt>
  <trkpt lat="32.808951" lon="-1.672518">
   <ele>1165.00</ele>
   <time>2014-04-05T11:42:09Z</time>
  </trkpt>
  <trkpt lat="32.809112" lon="-1.672633">
   <ele>1164.00</ele>
   <time>2014-04-05T11:42:13Z</time>
  </trkpt>
  <trkpt lat="32.809276" lon="-1.672768">
   <ele>1165.00</ele>
   <time>2014-04-05T11:42:18Z</time>
  </trkpt>
  <trkpt lat="32.809428" lon="-1.672823">
   <ele>1165.00</ele>
   <time>2014-04-05T11:42:33Z</time>
  </trkpt>
  <trkpt lat="32.809425" lon="-1.672818">
   <ele>1165.00</ele>
   <time>2014-04-05T11:42:49Z</time>
  </trkpt>
  <trkpt lat="32.809421" lon="-1.672812">
   <ele>1165.00</ele>
   <time>2014-04-05T11:43:04Z</time>
  </trkpt>
  <trkpt lat="32.809411" lon="-1.672804">
   <ele>1165.00</ele>
   <time>2014-04-05T11:43:19Z</time>
  </trkpt>
  <trkpt lat="32.809407" lon="-1.672801">
   <ele>1165.00</ele>
   <time>2014-04-05T11:43:35Z</time>
  </trkpt>
  <trkpt lat="32.809404" lon="-1.672799">
   <ele>1165.00</ele>
   <time>2014-04-05T11:43:50Z</time>
  </trkpt>
  <trkpt lat="32.809401" lon="-1.672798">
   <ele>1165.00</ele>
   <time>2014-04-05T11:44:05Z</time>
  </trkpt>
  <trkpt lat="32.809405" lon="-1.672807">
   <ele>1165.00</ele>
   <time>2014-04-05T11:44:21Z</time>
  </trkpt>
  <trkpt lat="32.809409" lon="-1.672812">
   <ele>1165.00</ele>
   <time>2014-04-05T11:44:36Z</time>
  </trkpt>
  <trkpt lat="32.809444" lon="-1.672818">
   <ele>1166.00</ele>
   <time>2014-04-05T11:44:52Z</time>
  </trkpt>
  <trkpt lat="32.809599" lon="-1.672931">
   <ele>1166.00</ele>
   <time>2014-04-05T11:45:01Z</time>
  </trkpt>
  <trkpt lat="32.809672" lon="-1.673047">
   <ele>1166.00</ele>
   <time>2014-04-05T11:45:16Z</time>
  </trkpt>
  <trkpt lat="32.809696" lon="-1.673089">
   <ele>1166.00</ele>
   <time>2014-04-05T11:45:32Z</time>
  </trkpt>
  <trkpt lat="32.809696" lon="-1.673086">
   <ele>1166.00</ele>
   <time>2014-04-05T11:45:47Z</time>
  </trkpt>
  <trkpt lat="32.809758" lon="-1.673301">
   <ele>1166.00</ele>
   <time>2014-04-05T11:46:03Z</time>
  </trkpt>
  <trkpt lat="32.809754" lon="-1.673562">
   <ele>1166.00</ele>
   <time>2014-04-05T11:46:08Z</time>
  </trkpt>
  <trkpt lat="32.809735" lon="-1.673826">
   <ele>1166.00</ele>
   <time>2014-04-05T11:46:12Z</time>
  </trkpt>
  <trkpt lat="32.809758" lon="-1.674110">
   <ele>1166.00</ele>
   <time>2014-04-05T11:46:16Z</time>
  </trkpt>
  <trkpt lat="32.809716" lon="-1.674326">
   <ele>1166.00</ele>
   <time>2014-04-05T11:46:19Z</time>
  </trkpt>
  <trkpt lat="32.809624" lon="-1.674529">
   <ele>1166.00</ele>
   <time>2014-04-05T11:46:22Z</time>
  </trkpt>
  <trkpt lat="32.809542" lon="-1.674732">
   <ele>1166.00</ele>
   <time>2014-04-05T11:46:25Z</time>
  </trkpt>
  <trkpt lat="32.809479" lon="-1.674947">
   <ele>1166.00</ele>
   <time>2014-04-05T11:46:28Z</time>
  </trkpt>
  <trkpt lat="32.809446" lon="-1.675170">
   <ele>1166.00</ele>
   <time>2014-04-05T11:46:31Z</time>
  </trkpt>
  <trkpt lat="32.809439" lon="-1.675406">
   <ele>1167.00</ele>
   <time>2014-04-05T11:46:34Z</time>
  </trkpt>
  <trkpt lat="32.809442" lon="-1.675645">
   <ele>1167.00</ele>
   <time>2014-04-05T11:46:37Z</time>
  </trkpt>
  <trkpt lat="32.809462" lon="-1.675947">
   <ele>1166.00</ele>
   <time>2014-04-05T11:46:41Z</time>
  </trkpt>
  <trkpt lat="32.809495" lon="-1.676173">
   <ele>1166.00</ele>
   <time>2014-04-05T11:46:44Z</time>
  </trkpt>
  <trkpt lat="32.809597" lon="-1.676705">
   <ele>1166.00</ele>
   <time>2014-04-05T11:46:51Z</time>
  </trkpt>
  <trkpt lat="32.809651" lon="-1.677126">
   <ele>1166.00</ele>
   <time>2014-04-05T11:46:57Z</time>
  </trkpt>
  <trkpt lat="32.809713" lon="-1.677382">
   <ele>1166.00</ele>
   <time>2014-04-05T11:47:01Z</time>
  </trkpt>
  <trkpt lat="32.809817" lon="-1.677654">
   <ele>1166.00</ele>
   <time>2014-04-05T11:47:07Z</time>
  </trkpt>
  <trkpt lat="32.809838" lon="-1.677871">
   <ele>1166.00</ele>
   <time>2014-04-05T11:47:12Z</time>
  </trkpt>
  <trkpt lat="32.809873" lon="-1.678112">
   <ele>1166.00</ele>
   <time>2014-04-05T11:47:18Z</time>
  </trkpt>
  <trkpt lat="32.809898" lon="-1.678331">
   <ele>1166.00</ele>
   <time>2014-04-05T11:47:23Z</time>
  </trkpt>
  <trkpt lat="32.809850" lon="-1.678541">
   <ele>1166.00</ele>
   <time>2014-04-05T11:47:29Z</time>
  </trkpt>
  <trkpt lat="32.809845" lon="-1.678593">
   <ele>1165.00</ele>
   <time>2014-04-05T11:47:45Z</time>
  </trkpt>
  <trkpt lat="32.809844" lon="-1.678592">
   <ele>1165.00</ele>
   <time>2014-04-05T11:47:48Z</time>
  </trkpt>
 </trkseg>
 <trkseg>
  <trkpt lat="32.814305" lon="-1.705114">
   <ele>1202.00</ele>
   <time>2014-04-05T12:01:23Z</time>
  </trkpt>
  <trkpt lat="32.814303" lon="-1.705111">
   <ele>1202.00</ele>
   <time>2014-04-05T12:01:39Z</time>
  </trkpt>
  <trkpt lat="32.814301" lon="-1.705111">
   <ele>1203.00</ele>
   <time>2014-04-05T12:01:54Z</time>
  </trkpt>
  <trkpt lat="32.814306" lon="-1.705107">
   <ele>1201.00</ele>
   <time>2014-04-05T12:02:10Z</time>
  </trkpt>
  <trkpt lat="32.814301" lon="-1.705111">
   <ele>1203.00</ele>
   <time>2014-04-05T12:02:25Z</time>
  </trkpt>
  <trkpt lat="32.814301" lon="-1.705111">
   <ele>1202.00</ele>
   <time>2014-04-05T12:02:40Z</time>
  </trkpt>
  <trkpt lat="32.814303" lon="-1.705107">
   <ele>1201.00</ele>
   <time>2014-04-05T12:02:56Z</time>
  </trkpt>
  <trkpt lat="32.814304" lon="-1.705104">
   <ele>1200.00</ele>
   <time>2014-04-05T12:03:10Z</time>
  </trkpt>
  <trkpt lat="32.814302" lon="-1.705105">
   <ele>1201.00</ele>
   <time>2014-04-05T12:03:28Z</time>
  </trkpt>
  <trkpt lat="32.814301" lon="-1.705104">
   <ele>1200.00</ele>
   <time>2014-04-05T12:03:43Z</time>
  </trkpt>
  <trkpt lat="32.814299" lon="-1.705107">
   <ele>1201.00</ele>
   <time>2014-04-05T12:03:58Z</time>
  </trkpt>
  <trkpt lat="32.814277" lon="-1.705117">
   <ele>1200.00</ele>
   <time>2014-04-05T12:04:13Z</time>
  </trkpt>
  <trkpt lat="32.814403" lon="-1.705294">
   <ele>1201.00</ele>
   <time>2014-04-05T12:04:19Z</time>
  </trkpt>
  <trkpt lat="32.814501" lon="-1.705510">
   <ele>1201.00</ele>
   <time>2014-04-05T12:04:24Z</time>
  </trkpt>
  <trkpt lat="32.814539" lon="-1.705581">
   <ele>1202.00</ele>
   <time>2014-04-05T12:04:34Z</time>
  </trkpt>
 </trkseg>
 <trkseg>
  <trkpt lat="32.814540" lon="-1.705578">
   <ele>1201.00</ele>
   <time>2014-04-05T12:04:50Z</time>
  </trkpt>
  <trkpt lat="32.814581" lon="-1.705669">
   <ele>1200.00</ele>
   <time>2014-04-05T12:05:06Z</time>
  </trkpt>
  <trkpt lat="32.814708" lon="-1.705843">
   <ele>1200.00</ele>
   <time>2014-04-05T12:05:11Z</time>
  </trkpt>
  <trkpt lat="32.814849" lon="-1.706009">
   <ele>1200.00</ele>
   <time>2014-04-05T12:05:15Z</time>
  </trkpt>
  <trkpt lat="32.814962" lon="-1.706216">
   <ele>1200.00</ele>
   <time>2014-04-05T12:05:19Z</time>
  </trkpt>
  <trkpt lat="32.815098" lon="-1.706416">
   <ele>1199.00</ele>
   <time>2014-04-05T12:05:23Z</time>
  </trkpt>
  <trkpt lat="32.815235" lon="-1.706637">
   <ele>1198.00</ele>
   <time>2014-04-05T12:05:27Z</time>
  </trkpt>
  <trkpt lat="32.815343" lon="-1.706848">
   <ele>1198.00</ele>
   <time>2014-04-05T12:05:31Z</time>
  </trkpt>
  <trkpt lat="32.815481" lon="-1.707028">
   <ele>1198.00</ele>
   <time>2014-04-05T12:05:37Z</time>
  </trkpt>
  <trkpt lat="32.815522" lon="-1.707286">
   <ele>1198.00</ele>
   <time>2014-04-05T12:05:42Z</time>
  </trkpt>
  <trkpt lat="32.815562" lon="-1.707560">
   <ele>1198.00</ele>
   <time>2014-04-05T12:05:46Z</time>
  </trkpt>
  <trkpt lat="32.815580" lon="-1.707796">
   <ele>1198.00</ele>
   <time>2014-04-05T12:05:49Z</time>
  </trkpt>
  <trkpt lat="32.815569" lon="-1.708018">
   <ele>1199.00</ele>
   <time>2014-04-05T12:05:52Z</time>
  </trkpt>
  <trkpt lat="32.815506" lon="-1.708235">
   <ele>1199.00</ele>
   <time>2014-04-05T12:05:55Z</time>
  </trkpt>
  <trkpt lat="32.815420" lon="-1.708520">
   <ele>1200.00</ele>
   <time>2014-04-05T12:05:59Z</time>
  </trkpt>
  <trkpt lat="32.815326" lon="-1.708762">
   <ele>1201.00</ele>
   <time>2014-04-05T12:06:03Z</time>
  </trkpt>
  <trkpt lat="32.815200" lon="-1.708978">
   <ele>1201.00</ele>
   <time>2014-04-05T12:06:07Z</time>
  </trkpt>
  <trkpt lat="32.815090" lon="-1.709151">
   <ele>1201.00</ele>
   <time>2014-04-05T12:06:10Z</time>
  </trkpt>
  <trkpt lat="32.815040" lon="-1.709425">
   <ele>1201.00</ele>
   <time>2014-04-05T12:06:14Z</time>
  </trkpt>
  <trkpt lat="32.815081" lon="-1.709635">
   <ele>1201.00</ele>
   <time>2014-04-05T12:06:17Z</time>
  </trkpt>
  <trkpt lat="32.815124" lon="-1.709897">
   <ele>1201.00</ele>
   <time>2014-04-05T12:06:21Z</time>
  </trkpt>
  <trkpt lat="32.815190" lon="-1.710170">
   <ele>1201.00</ele>
   <time>2014-04-05T12:06:25Z</time>
  </trkpt>
  <trkpt lat="32.815256" lon="-1.710380">
   <ele>1201.00</ele>
   <time>2014-04-05T12:06:28Z</time>
  </trkpt>
  <trkpt lat="32.815321" lon="-1.710595">
   <ele>1201.00</ele>
   <time>2014-04-05T12:06:31Z</time>
  </trkpt>
  <trkpt lat="32.815421" lon="-1.710774">
   <ele>1201.00</ele>
   <time>2014-04-05T12:06:34Z</time>
  </trkpt>
  <trkpt lat="32.815703" lon="-1.711151">
   <ele>1200.00</ele>
   <time>2014-04-05T12:06:41Z</time>
  </trkpt>
  <trkpt lat="32.815840" lon="-1.711341">
   <ele>1201.00</ele>
   <time>2014-04-05T12:06:44Z</time>
  </trkpt>
  <trkpt lat="32.816010" lon="-1.711535">
   <ele>1201.00</ele>
   <time>2014-04-05T12:06:48Z</time>
  </trkpt>
  <trkpt lat="32.816107" lon="-1.711760">
   <ele>1202.00</ele>
   <time>2014-04-05T12:06:52Z</time>
  </trkpt>
  <trkpt lat="32.816298" lon="-1.711936">
   <ele>1203.00</ele>
   <time>2014-04-05T12:06:56Z</time>
  </trkpt>
  <trkpt lat="32.816456" lon="-1.712056">
   <ele>1204.00</ele>
   <time>2014-04-05T12:06:59Z</time>
  </trkpt>
  <trkpt lat="32.816558" lon="-1.712281">
   <ele>1206.00</ele>
   <time>2014-04-05T12:07:03Z</time>
  </trkpt>
  <trkpt lat="32.816594" lon="-1.712492">
   <ele>1206.00</ele>
   <time>2014-04-05T12:07:06Z</time>
  </trkpt>
  <trkpt lat="32.816685" lon="-1.712690">
   <ele>1206.00</ele>
   <time>2014-04-05T12:07:09Z</time>
  </trkpt>
  <trkpt lat="32.816830" lon="-1.712831">
   <ele>1205.00</ele>
   <time>2014-04-05T12:07:12Z</time>
  </trkpt>
  <trkpt lat="32.816986" lon="-1.712946">
   <ele>1205.00</ele>
   <time>2014-04-05T12:07:15Z</time>
  </trkpt>
  <trkpt lat="32.817171" lon="-1.713112">
   <ele>1205.00</ele>
   <time>2014-04-05T12:07:19Z</time>
  </trkpt>
  <trkpt lat="32.817348" lon="-1.713149">
   <ele>1205.00</ele>
   <time>2014-04-05T12:07:22Z</time>
  </trkpt>
  <trkpt lat="32.817583" lon="-1.713207">
   <ele>1205.00</ele>
   <time>2014-04-05T12:07:26Z</time>
  </trkpt>
  <trkpt lat="32.817756" lon="-1.713287">
   <ele>1205.00</ele>
   <time>2014-04-05T12:07:29Z</time>
  </trkpt>
  <trkpt lat="32.817934" lon="-1.713375">
   <ele>1206.00</ele>
   <time>2014-04-05T12:07:32Z</time>
  </trkpt>
  <trkpt lat="32.818115" lon="-1.713436">
   <ele>1207.00</ele>
   <time>2014-04-05T12:07:35Z</time>
  </trkpt>
  <trkpt lat="32.818285" lon="-1.713514">
   <ele>1208.00</ele>
   <time>2014-04-05T12:07:38Z</time>
  </trkpt>
  <trkpt lat="32.818449" lon="-1.713616">
   <ele>1210.00</ele>
   <time>2014-04-05T12:07:41Z</time>
  </trkpt>
  <trkpt lat="32.818646" lon="-1.713747">
   <ele>1214.00</ele>
   <time>2014-04-05T12:07:45Z</time>
  </trkpt>
  <trkpt lat="32.818829" lon="-1.713869">
   <ele>1217.00</ele>
   <time>2014-04-05T12:07:50Z</time>
  </trkpt>
  <trkpt lat="32.819011" lon="-1.714051">
   <ele>1219.00</ele>
   <time>2014-04-05T12:07:54Z</time>
  </trkpt>
  <trkpt lat="32.819236" lon="-1.714128">
   <ele>1219.00</ele>
   <time>2014-04-05T12:07:58Z</time>
  </trkpt>
  <trkpt lat="32.819419" lon="-1.714110">
   <ele>1219.00</ele>
   <time>2014-04-05T12:08:01Z</time>
  </trkpt>
  <trkpt lat="32.819829" lon="-1.714012">
   <ele>1219.00</ele>
   <time>2014-04-05T12:08:07Z</time>
  </trkpt>
  <trkpt lat="32.820051" lon="-1.713978">
   <ele>1218.00</ele>
   <time>2014-04-05T12:08:10Z</time>
  </trkpt>
  <trkpt lat="32.820272" lon="-1.713987">
   <ele>1217.00</ele>
   <time>2014-04-05T12:08:13Z</time>
  </trkpt>
  <trkpt lat="32.820490" lon="-1.713914">
   <ele>1217.00</ele>
   <time>2014-04-05T12:08:16Z</time>
  </trkpt>
  <trkpt lat="32.820712" lon="-1.713823">
   <ele>1216.00</ele>
   <time>2014-04-05T12:08:19Z</time>
  </trkpt>
  <trkpt lat="32.820941" lon="-1.713831">
   <ele>1216.00</ele>
   <time>2014-04-05T12:08:22Z</time>
  </trkpt>
  <trkpt lat="32.821145" lon="-1.713935">
   <ele>1216.00</ele>
   <time>2014-04-05T12:08:25Z</time>
  </trkpt>
  <trkpt lat="32.821319" lon="-1.714019">
   <ele>1217.00</ele>
   <time>2014-04-05T12:08:28Z</time>
  </trkpt>
  <trkpt lat="32.821502" lon="-1.714050">
   <ele>1217.00</ele>
   <time>2014-04-05T12:08:32Z</time>
  </trkpt>
  <trkpt lat="32.821701" lon="-1.714194">
   <ele>1216.00</ele>
   <time>2014-04-05T12:08:36Z</time>
  </trkpt>
  <trkpt lat="32.821888" lon="-1.714276">
   <ele>1215.00</ele>
   <time>2014-04-05T12:08:39Z</time>
  </trkpt>
  <trkpt lat="32.822075" lon="-1.714303">
   <ele>1214.00</ele>
   <time>2014-04-05T12:08:42Z</time>
  </trkpt>
  <trkpt lat="32.822244" lon="-1.714419">
   <ele>1213.00</ele>
   <time>2014-04-05T12:08:46Z</time>
  </trkpt>
  <trkpt lat="32.822324" lon="-1.714666">
   <ele>1212.00</ele>
   <time>2014-04-05T12:08:50Z</time>
  </trkpt>
  <trkpt lat="32.822325" lon="-1.714890">
   <ele>1212.00</ele>
   <time>2014-04-05T12:08:53Z</time>
  </trkpt>
  <trkpt lat="32.822302" lon="-1.715104">
   <ele>1213.00</ele>
   <time>2014-04-05T12:08:56Z</time>
  </trkpt>
  <trkpt lat="32.822270" lon="-1.715468">
   <ele>1216.00</ele>
   <time>2014-04-05T12:09:01Z</time>
  </trkpt>
  <trkpt lat="32.822253" lon="-1.715826">
   <ele>1218.00</ele>
   <time>2014-04-05T12:09:06Z</time>
  </trkpt>
  <trkpt lat="32.822185" lon="-1.716025">
   <ele>1218.00</ele>
   <time>2014-04-05T12:09:09Z</time>
  </trkpt>
  <trkpt lat="32.822074" lon="-1.716286">
   <ele>1219.00</ele>
   <time>2014-04-05T12:09:13Z</time>
  </trkpt>
  <trkpt lat="32.821999" lon="-1.716492">
   <ele>1219.00</ele>
   <time>2014-04-05T12:09:16Z</time>
  </trkpt>
  <trkpt lat="32.821937" lon="-1.716702">
   <ele>1220.00</ele>
   <time>2014-04-05T12:09:19Z</time>
  </trkpt>
  <trkpt lat="32.821870" lon="-1.717019">
   <ele>1220.00</ele>
   <time>2014-04-05T12:09:23Z</time>
  </trkpt>
  <trkpt lat="32.821756" lon="-1.717730">
   <ele>1222.00</ele>
   <time>2014-04-05T12:09:31Z</time>
  </trkpt>
  <trkpt lat="32.821701" lon="-1.718307">
   <ele>1224.00</ele>
   <time>2014-04-05T12:09:38Z</time>
  </trkpt>
  <trkpt lat="32.821670" lon="-1.718704">
   <ele>1225.00</ele>
   <time>2014-04-05T12:09:43Z</time>
  </trkpt>
  <trkpt lat="32.821658" lon="-1.718942">
   <ele>1226.00</ele>
   <time>2014-04-05T12:09:47Z</time>
  </trkpt>
  <trkpt lat="32.821726" lon="-1.719173">
   <ele>1227.00</ele>
   <time>2014-04-05T12:09:53Z</time>
  </trkpt>
  <trkpt lat="32.821670" lon="-1.719410">
   <ele>1229.00</ele>
   <time>2014-04-05T12:09:59Z</time>
  </trkpt>
  <trkpt lat="32.821592" lon="-1.719630">
   <ele>1230.00</ele>
   <time>2014-04-05T12:10:04Z</time>
  </trkpt>
  <trkpt lat="32.821487" lon="-1.719813">
   <ele>1231.00</ele>
   <time>2014-04-05T12:10:12Z</time>
  </trkpt>
  <trkpt lat="32.821469" lon="-1.719825">
   <ele>1231.00</ele>
   <time>2014-04-05T12:10:27Z</time>
  </trkpt>
  <trkpt lat="32.821380" lon="-1.719955">
   <ele>1230.00</ele>
   <time>2014-04-05T12:10:43Z</time>
  </trkpt>
  <trkpt lat="32.821461" lon="-1.719865">
   <ele>1230.00</ele>
   <time>2014-04-05T12:10:58Z</time>
  </trkpt>
  <trkpt lat="32.821568" lon="-1.719677">
   <ele>1230.00</ele>
   <time>2014-04-05T12:11:07Z</time>
  </trkpt>
  <trkpt lat="32.821654" lon="-1.719453">
   <ele>1230.00</ele>
   <time>2014-04-05T12:11:13Z</time>
  </trkpt>
  <trkpt lat="32.821732" lon="-1.719177">
   <ele>1229.00</ele>
   <time>2014-04-05T12:11:19Z</time>
  </trkpt>
  <trkpt lat="32.821685" lon="-1.718955">
   <ele>1227.00</ele>
   <time>2014-04-05T12:11:24Z</time>
  </trkpt>
  <trkpt lat="32.821672" lon="-1.718734">
   <ele>1227.00</ele>
   <time>2014-04-05T12:11:28Z</time>
  </trkpt>
  <trkpt lat="32.821696" lon="-1.718483">
   <ele>1226.00</ele>
   <time>2014-04-05T12:11:32Z</time>
  </trkpt>
  <trkpt lat="32.821715" lon="-1.718207">
   <ele>1225.00</ele>
   <time>2014-04-05T12:11:36Z</time>
  </trkpt>
  <trkpt lat="32.821770" lon="-1.717633">
   <ele>1223.00</ele>
   <time>2014-04-05T12:11:44Z</time>
  </trkpt>
  <trkpt lat="32.821802" lon="-1.717419">
   <ele>1223.00</ele>
   <time>2014-04-05T12:11:47Z</time>
  </trkpt>
  <trkpt lat="32.821836" lon="-1.717193">
   <ele>1222.00</ele>
   <time>2014-04-05T12:11:50Z</time>
  </trkpt>
  <trkpt lat="32.821872" lon="-1.716954">
   <ele>1222.00</ele>
   <time>2014-04-05T12:11:53Z</time>
  </trkpt>
  <trkpt lat="32.821923" lon="-1.716709">
   <ele>1222.00</ele>
   <time>2014-04-05T12:11:56Z</time>
  </trkpt>
  <trkpt lat="32.821988" lon="-1.716468">
   <ele>1222.00</ele>
   <time>2014-04-05T12:11:59Z</time>
  </trkpt>
  <trkpt lat="32.822072" lon="-1.716222">
   <ele>1221.00</ele>
   <time>2014-04-05T12:12:02Z</time>
  </trkpt>
  <trkpt lat="32.822179" lon="-1.715975">
   <ele>1221.00</ele>
   <time>2014-04-05T12:12:05Z</time>
  </trkpt>
  <trkpt lat="32.822252" lon="-1.715726">
   <ele>1221.00</ele>
   <time>2014-04-05T12:12:08Z</time>
  </trkpt>
  <trkpt lat="32.822260" lon="-1.715467">
   <ele>1220.00</ele>
   <time>2014-04-05T12:12:11Z</time>
  </trkpt>
  <trkpt lat="32.822276" lon="-1.715197">
   <ele>1219.00</ele>
   <time>2014-04-05T12:12:14Z</time>
  </trkpt>
  <trkpt lat="32.822310" lon="-1.714847">
   <ele>1218.00</ele>
   <time>2014-04-05T12:12:18Z</time>
  </trkpt>
  <trkpt lat="32.822305" lon="-1.714598">
   <ele>1219.00</ele>
   <time>2014-04-05T12:12:21Z</time>
  </trkpt>
  <trkpt lat="32.822352" lon="-1.714382">
   <ele>1218.00</ele>
   <time>2014-04-05T12:12:24Z</time>
  </trkpt>
  <trkpt lat="32.822548" lon="-1.714217">
   <ele>1217.00</ele>
   <time>2014-04-05T12:12:28Z</time>
  </trkpt>
  <trkpt lat="32.822711" lon="-1.714079">
   <ele>1217.00</ele>
   <time>2014-04-05T12:12:31Z</time>
  </trkpt>
  <trkpt lat="32.822834" lon="-1.713866">
   <ele>1216.00</ele>
   <time>2014-04-05T12:12:34Z</time>
  </trkpt>
  <trkpt lat="32.823029" lon="-1.713479">
   <ele>1216.00</ele>
   <time>2014-04-05T12:12:39Z</time>
  </trkpt>
  <trkpt lat="32.823168" lon="-1.713256">
   <ele>1216.00</ele>
   <time>2014-04-05T12:12:42Z</time>
  </trkpt>
  <trkpt lat="32.823291" lon="-1.713038">
   <ele>1217.00</ele>
   <time>2014-04-05T12:12:45Z</time>
  </trkpt>
  <trkpt lat="32.823353" lon="-1.712808">
   <ele>1217.00</ele>
   <time>2014-04-05T12:12:48Z</time>
  </trkpt>
  <trkpt lat="32.823443" lon="-1.712589">
   <ele>1219.00</ele>
   <time>2014-04-05T12:12:52Z</time>
  </trkpt>
  <trkpt lat="32.823605" lon="-1.712472">
   <ele>1220.00</ele>
   <time>2014-04-05T12:12:56Z</time>
  </trkpt>
  <trkpt lat="32.823752" lon="-1.712274">
   <ele>1221.00</ele>
   <time>2014-04-05T12:13:00Z</time>
  </trkpt>
  <trkpt lat="32.823818" lon="-1.712069">
   <ele>1221.00</ele>
   <time>2014-04-05T12:13:06Z</time>
  </trkpt>
  <trkpt lat="32.823992" lon="-1.711920">
   <ele>1220.00</ele>
   <time>2014-04-05T12:13:11Z</time>
  </trkpt>
  <trkpt lat="32.824112" lon="-1.711695">
   <ele>1220.00</ele>
   <time>2014-04-05T12:13:16Z</time>
  </trkpt>
  <trkpt lat="32.824281" lon="-1.711557">
   <ele>1220.00</ele>
   <time>2014-04-05T12:13:20Z</time>
  </trkpt>
  <trkpt lat="32.824502" lon="-1.711481">
   <ele>1220.00</ele>
   <time>2014-04-05T12:13:24Z</time>
  </trkpt>
  <trkpt lat="32.824709" lon="-1.711389">
   <ele>1219.00</ele>
   <time>2014-04-05T12:13:28Z</time>
  </trkpt>
  <trkpt lat="32.824942" lon="-1.711447">
   <ele>1218.00</ele>
   <time>2014-04-05T12:13:32Z</time>
  </trkpt>
  <trkpt lat="32.825131" lon="-1.711448">
   <ele>1217.00</ele>
   <time>2014-04-05T12:13:35Z</time>
  </trkpt>
  <trkpt lat="32.825333" lon="-1.711440">
   <ele>1217.00</ele>
   <time>2014-04-05T12:13:38Z</time>
  </trkpt>
  <trkpt lat="32.825530" lon="-1.711520">
   <ele>1218.00</ele>
   <time>2014-04-05T12:13:41Z</time>
  </trkpt>
  <trkpt lat="32.825675" lon="-1.711685">
   <ele>1220.00</ele>
   <time>2014-04-05T12:13:44Z</time>
  </trkpt>
  <trkpt lat="32.825815" lon="-1.711822">
   <ele>1221.00</ele>
   <time>2014-04-05T12:13:47Z</time>
  </trkpt>
  <trkpt lat="32.826005" lon="-1.711907">
   <ele>1223.00</ele>
   <time>2014-04-05T12:13:51Z</time>
  </trkpt>
  <trkpt lat="32.826204" lon="-1.712005">
   <ele>1224.00</ele>
   <time>2014-04-05T12:13:55Z</time>
  </trkpt>
  <trkpt lat="32.826370" lon="-1.712104">
   <ele>1224.00</ele>
   <time>2014-04-05T12:13:58Z</time>
  </trkpt>
  <trkpt lat="32.826554" lon="-1.712279">
   <ele>1225.00</ele>
   <time>2014-04-05T12:14:02Z</time>
  </trkpt>
  <trkpt lat="32.826668" lon="-1.712455">
   <ele>1225.00</ele>
   <time>2014-04-05T12:14:05Z</time>
  </trkpt>
  <trkpt lat="32.826770" lon="-1.712658">
   <ele>1225.00</ele>
   <time>2014-04-05T12:14:08Z</time>
  </trkpt>
  <trkpt lat="32.826815" lon="-1.712891">
   <ele>1224.00</ele>
   <time>2014-04-05T12:14:11Z</time>
  </trkpt>
  <trkpt lat="32.826833" lon="-1.713148">
   <ele>1225.00</ele>
   <time>2014-04-05T12:14:14Z</time>
  </trkpt>
  <trkpt lat="32.826835" lon="-1.713408">
   <ele>1226.00</ele>
   <time>2014-04-05T12:14:17Z</time>
  </trkpt>
  <trkpt lat="32.826804" lon="-1.713756">
   <ele>1227.00</ele>
   <time>2014-04-05T12:14:21Z</time>
  </trkpt>
  <trkpt lat="32.826822" lon="-1.714040">
   <ele>1227.00</ele>
   <time>2014-04-05T12:14:24Z</time>
  </trkpt>
  <trkpt lat="32.826881" lon="-1.714318">
   <ele>1227.00</ele>
   <time>2014-04-05T12:14:27Z</time>
  </trkpt>
  <trkpt lat="32.826965" lon="-1.714585">
   <ele>1227.00</ele>
   <time>2014-04-05T12:14:30Z</time>
  </trkpt>
  <trkpt lat="32.827057" lon="-1.714803">
   <ele>1228.00</ele>
   <time>2014-04-05T12:14:33Z</time>
  </trkpt>
  <trkpt lat="32.827166" lon="-1.714987">
   <ele>1226.00</ele>
   <time>2014-04-05T12:14:36Z</time>
  </trkpt>
  <trkpt lat="32.827655" lon="-1.715689">
   <ele>1225.00</ele>
   <time>2014-04-05T12:14:46Z</time>
  </trkpt>
  <trkpt lat="32.827821" lon="-1.715844">
   <ele>1225.00</ele>
   <time>2014-04-05T12:14:49Z</time>
  </trkpt>
  <trkpt lat="32.827997" lon="-1.715967">
   <ele>1225.00</ele>
   <time>2014-04-05T12:14:52Z</time>
  </trkpt>
  <trkpt lat="32.828157" lon="-1.716123">
   <ele>1224.00</ele>
   <time>2014-04-05T12:14:55Z</time>
  </trkpt>
  <trkpt lat="32.828268" lon="-1.716340">
   <ele>1224.00</ele>
   <time>2014-04-05T12:14:58Z</time>
  </trkpt>
  <trkpt lat="32.828316" lon="-1.716586">
   <ele>1224.00</ele>
   <time>2014-04-05T12:15:01Z</time>
  </trkpt>
  <trkpt lat="32.828405" lon="-1.716812">
   <ele>1225.00</ele>
   <time>2014-04-05T12:15:04Z</time>
  </trkpt>
  <trkpt lat="32.828539" lon="-1.716996">
   <ele>1225.00</ele>
   <time>2014-04-05T12:15:07Z</time>
  </trkpt>
  <trkpt lat="32.828741" lon="-1.717201">
   <ele>1224.00</ele>
   <time>2014-04-05T12:15:11Z</time>
  </trkpt>
  <trkpt lat="32.828869" lon="-1.717408">
   <ele>1223.00</ele>
   <time>2014-04-05T12:15:14Z</time>
  </trkpt>
  <trkpt lat="32.828965" lon="-1.717663">
   <ele>1223.00</ele>
   <time>2014-04-05T12:15:17Z</time>
  </trkpt>
  <trkpt lat="32.829037" lon="-1.717932">
   <ele>1224.00</ele>
   <time>2014-04-05T12:15:20Z</time>
  </trkpt>
  <trkpt lat="32.829121" lon="-1.718179">
   <ele>1224.00</ele>
   <time>2014-04-05T12:15:23Z</time>
  </trkpt>
  <trkpt lat="32.829266" lon="-1.718335">
   <ele>1224.00</ele>
   <time>2014-04-05T12:15:26Z</time>
  </trkpt>
  <trkpt lat="32.829427" lon="-1.718465">
   <ele>1223.00</ele>
   <time>2014-04-05T12:15:29Z</time>
  </trkpt>
  <trkpt lat="32.829562" lon="-1.718644">
   <ele>1222.00</ele>
   <time>2014-04-05T12:15:32Z</time>
  </trkpt>
  <trkpt lat="32.829626" lon="-1.718887">
   <ele>1222.00</ele>
   <time>2014-04-05T12:15:35Z</time>
  </trkpt>
  <trkpt lat="32.829642" lon="-1.719138">
   <ele>1223.00</ele>
   <time>2014-04-05T12:15:38Z</time>
  </trkpt>
  <trkpt lat="32.829600" lon="-1.719445">
   <ele>1223.00</ele>
   <time>2014-04-05T12:15:43Z</time>
  </trkpt>
  <trkpt lat="32.829687" lon="-1.719658">
   <ele>1222.00</ele>
   <time>2014-04-05T12:15:47Z</time>
  </trkpt>
  <trkpt lat="32.829773" lon="-1.719901">
   <ele>1222.00</ele>
   <time>2014-04-05T12:15:51Z</time>
  </trkpt>
  <trkpt lat="32.829761" lon="-1.720119">
   <ele>1222.00</ele>
   <time>2014-04-05T12:15:54Z</time>
  </trkpt>
  <trkpt lat="32.829811" lon="-1.720330">
   <ele>1223.00</ele>
   <time>2014-04-05T12:15:57Z</time>
  </trkpt>
  <trkpt lat="32.829985" lon="-1.720454">
   <ele>1222.00</ele>
   <time>2014-04-05T12:16:01Z</time>
  </trkpt>
  <trkpt lat="32.830174" lon="-1.720367">
   <ele>1221.00</ele>
   <time>2014-04-05T12:16:05Z</time>
  </trkpt>
  <trkpt lat="32.830332" lon="-1.720195">
   <ele>1219.00</ele>
   <time>2014-04-05T12:16:09Z</time>
  </trkpt>
  <trkpt lat="32.830468" lon="-1.720037">
   <ele>1218.00</ele>
   <time>2014-04-05T12:16:14Z</time>
  </trkpt>
  <trkpt lat="32.830664" lon="-1.719912">
   <ele>1217.00</ele>
   <time>2014-04-05T12:16:19Z</time>
  </trkpt>
  <trkpt lat="32.830839" lon="-1.719820">
   <ele>1216.00</ele>
   <time>2014-04-05T12:16:22Z</time>
  </trkpt>
  <trkpt lat="32.831034" lon="-1.719738">
   <ele>1216.00</ele>
   <time>2014-04-05T12:16:25Z</time>
  </trkpt>
  <trkpt lat="32.831247" lon="-1.719653">
   <ele>1215.00</ele>
   <time>2014-04-05T12:16:28Z</time>
  </trkpt>
  <trkpt lat="32.831467" lon="-1.719515">
   <ele>1215.00</ele>
   <time>2014-04-05T12:16:31Z</time>
  </trkpt>
  <trkpt lat="32.831641" lon="-1.719400">
   <ele>1215.00</ele>
   <time>2014-04-05T12:16:33Z</time>
  </trkpt>
  <trkpt lat="32.831863" lon="-1.719315">
   <ele>1215.00</ele>
   <time>2014-04-05T12:16:35Z</time>
  </trkpt>
  <trkpt lat="32.832120" lon="-1.719262">
   <ele>1215.00</ele>
   <time>2014-04-05T12:16:37Z</time>
  </trkpt>
  <trkpt lat="32.832717" lon="-1.719153">
   <ele>1215.00</ele>
   <time>2014-04-05T12:16:42Z</time>
  </trkpt>
  <trkpt lat="32.832924" lon="-1.719140">
   <ele>1215.00</ele>
   <time>2014-04-05T12:16:44Z</time>
  </trkpt>
  <trkpt lat="32.833117" lon="-1.719145">
   <ele>1215.00</ele>
   <time>2014-04-05T12:16:46Z</time>
  </trkpt>
  <trkpt lat="32.833300" lon="-1.719167">
   <ele>1215.00</ele>
   <time>2014-04-05T12:16:48Z</time>
  </trkpt>
  <trkpt lat="32.833771" lon="-1.719252">
   <ele>1216.00</ele>
   <time>2014-04-05T12:16:54Z</time>
  </trkpt>
  <trkpt lat="32.833952" lon="-1.719282">
   <ele>1216.00</ele>
   <time>2014-04-05T12:16:57Z</time>
  </trkpt>
  <trkpt lat="32.834165" lon="-1.719363">
   <ele>1217.00</ele>
   <time>2014-04-05T12:17:01Z</time>
  </trkpt>
  <trkpt lat="32.834368" lon="-1.719474">
   <ele>1216.00</ele>
   <time>2014-04-05T12:17:05Z</time>
  </trkpt>
  <trkpt lat="32.834514" lon="-1.719701">
   <ele>1216.00</ele>
   <time>2014-04-05T12:17:09Z</time>
  </trkpt>
  <trkpt lat="32.834679" lon="-1.720146">
   <ele>1215.00</ele>
   <time>2014-04-05T12:17:15Z</time>
  </trkpt>
  <trkpt lat="32.834726" lon="-1.720373">
   <ele>1215.00</ele>
   <time>2014-04-05T12:17:18Z</time>
  </trkpt>
  <trkpt lat="32.834695" lon="-1.720622">
   <ele>1216.00</ele>
   <time>2014-04-05T12:17:22Z</time>
  </trkpt>
  <trkpt lat="32.834636" lon="-1.720869">
   <ele>1217.00</ele>
   <time>2014-04-05T12:17:27Z</time>
  </trkpt>
  <trkpt lat="32.834676" lon="-1.721092">
   <ele>1217.00</ele>
   <time>2014-04-05T12:17:31Z</time>
  </trkpt>
  <trkpt lat="32.834745" lon="-1.721398">
   <ele>1216.00</ele>
   <time>2014-04-05T12:17:36Z</time>
  </trkpt>
  <trkpt lat="32.834771" lon="-1.721616">
   <ele>1218.00</ele>
   <time>2014-04-05T12:17:40Z</time>
  </trkpt>
  <trkpt lat="32.834899" lon="-1.721899">
   <ele>1218.00</ele>
   <time>2014-04-05T12:17:46Z</time>
  </trkpt>
  <trkpt lat="32.834921" lon="-1.722179">
   <ele>1218.00</ele>
   <time>2014-04-05T12:17:50Z</time>
  </trkpt>
  <trkpt lat="32.834942" lon="-1.722451">
   <ele>1219.00</ele>
   <time>2014-04-05T12:17:54Z</time>
  </trkpt>
  <trkpt lat="32.835063" lon="-1.722668">
   <ele>1219.00</ele>
   <time>2014-04-05T12:17:58Z</time>
  </trkpt>
  <trkpt lat="32.835235" lon="-1.722807">
   <ele>1218.00</ele>
   <time>2014-04-05T12:18:02Z</time>
  </trkpt>
  <trkpt lat="32.835458" lon="-1.722806">
   <ele>1218.00</ele>
   <time>2014-04-05T12:18:06Z</time>
  </trkpt>
  <trkpt lat="32.835804" lon="-1.722852">
   <ele>1216.00</ele>
   <time>2014-04-05T12:18:12Z</time>
  </trkpt>
  <trkpt lat="32.836000" lon="-1.722832">
   <ele>1216.00</ele>
   <time>2014-04-05T12:18:15Z</time>
  </trkpt>
  <trkpt lat="32.836191" lon="-1.722838">
   <ele>1216.00</ele>
   <time>2014-04-05T12:18:18Z</time>
  </trkpt>
  <trkpt lat="32.836361" lon="-1.722929">
   <ele>1215.00</ele>
   <time>2014-04-05T12:18:21Z</time>
  </trkpt>
  <trkpt lat="32.836543" lon="-1.723021">
   <ele>1215.00</ele>
   <time>2014-04-05T12:18:24Z</time>
  </trkpt>
  <trkpt lat="32.836800" lon="-1.723119">
   <ele>1214.00</ele>
   <time>2014-04-05T12:18:28Z</time>
  </trkpt>
  <trkpt lat="32.837083" lon="-1.723182">
   <ele>1214.00</ele>
   <time>2014-04-05T12:18:32Z</time>
  </trkpt>
  <trkpt lat="32.837306" lon="-1.723193">
   <ele>1214.00</ele>
   <time>2014-04-05T12:18:35Z</time>
  </trkpt>
  <trkpt lat="32.837499" lon="-1.723105">
   <ele>1213.00</ele>
   <time>2014-04-05T12:18:38Z</time>
  </trkpt>
  <trkpt lat="32.837665" lon="-1.722936">
   <ele>1214.00</ele>
   <time>2014-04-05T12:18:41Z</time>
  </trkpt>
  <trkpt lat="32.837784" lon="-1.722709">
   <ele>1215.00</ele>
   <time>2014-04-05T12:18:44Z</time>
  </trkpt>
  <trkpt lat="32.837852" lon="-1.722452">
   <ele>1215.00</ele>
   <time>2014-04-05T12:18:47Z</time>
  </trkpt>
  <trkpt lat="32.837949" lon="-1.722198">
   <ele>1216.00</ele>
   <time>2014-04-05T12:18:50Z</time>
  </trkpt>
  <trkpt lat="32.838096" lon="-1.721960">
   <ele>1216.00</ele>
   <time>2014-04-05T12:18:53Z</time>
  </trkpt>
  <trkpt lat="32.838291" lon="-1.721736">
   <ele>1216.00</ele>
   <time>2014-04-05T12:18:56Z</time>
  </trkpt>
  <trkpt lat="32.838504" lon="-1.721497">
   <ele>1216.00</ele>
   <time>2014-04-05T12:18:59Z</time>
  </trkpt>
  <trkpt lat="32.838660" lon="-1.721348">
   <ele>1216.00</ele>
   <time>2014-04-05T12:19:01Z</time>
  </trkpt>
  <trkpt lat="32.838818" lon="-1.721208">
   <ele>1216.00</ele>
   <time>2014-04-05T12:19:03Z</time>
  </trkpt>
  <trkpt lat="32.839053" lon="-1.721005">
   <ele>1216.00</ele>
   <time>2014-04-05T12:19:06Z</time>
  </trkpt>
  <trkpt lat="32.839180" lon="-1.720839">
   <ele>1215.00</ele>
   <time>2014-04-05T12:19:08Z</time>
  </trkpt>
  <trkpt lat="32.839318" lon="-1.720697">
   <ele>1215.00</ele>
   <time>2014-04-05T12:19:10Z</time>
  </trkpt>
  <trkpt lat="32.839464" lon="-1.720560">
   <ele>1215.00</ele>
   <time>2014-04-05T12:19:12Z</time>
  </trkpt>
  <trkpt lat="32.839676" lon="-1.720339">
   <ele>1215.00</ele>
   <time>2014-04-05T12:19:15Z</time>
  </trkpt>
  <trkpt lat="32.839833" lon="-1.720217">
   <ele>1215.00</ele>
   <time>2014-04-05T12:19:17Z</time>
  </trkpt>
  <trkpt lat="32.839996" lon="-1.720109">
   <ele>1215.00</ele>
   <time>2014-04-05T12:19:19Z</time>
  </trkpt>
  <trkpt lat="32.840161" lon="-1.720020">
   <ele>1215.00</ele>
   <time>2014-04-05T12:19:21Z</time>
  </trkpt>
  <trkpt lat="32.840405" lon="-1.719928">
   <ele>1214.00</ele>
   <time>2014-04-05T12:19:24Z</time>
  </trkpt>
  <trkpt lat="32.840635" lon="-1.719811">
   <ele>1214.00</ele>
   <time>2014-04-05T12:19:27Z</time>
  </trkpt>
  <trkpt lat="32.840839" lon="-1.719628">
   <ele>1215.00</ele>
   <time>2014-04-05T12:19:30Z</time>
  </trkpt>
  <trkpt lat="32.841004" lon="-1.719398">
   <ele>1216.00</ele>
   <time>2014-04-05T12:19:33Z</time>
  </trkpt>
  <trkpt lat="32.841189" lon="-1.719277">
   <ele>1217.00</ele>
   <time>2014-04-05T12:19:36Z</time>
  </trkpt>
  <trkpt lat="32.841355" lon="-1.719432">
   <ele>1217.00</ele>
   <time>2014-04-05T12:19:40Z</time>
  </trkpt>
  <trkpt lat="32.841392" lon="-1.719661">
   <ele>1216.00</ele>
   <time>2014-04-05T12:19:43Z</time>
  </trkpt>
  <trkpt lat="32.841451" lon="-1.719911">
   <ele>1216.00</ele>
   <time>2014-04-05T12:19:46Z</time>
  </trkpt>
  <trkpt lat="32.841522" lon="-1.720147">
   <ele>1216.00</ele>
   <time>2014-04-05T12:19:49Z</time>
  </trkpt>
  <trkpt lat="32.841611" lon="-1.720347">
   <ele>1216.00</ele>
   <time>2014-04-05T12:19:54Z</time>
  </trkpt>
  <trkpt lat="32.841728" lon="-1.720541">
   <ele>1215.00</ele>
   <time>2014-04-05T12:19:59Z</time>
  </trkpt>
  <trkpt lat="32.841827" lon="-1.720782">
   <ele>1214.00</ele>
   <time>2014-04-05T12:20:03Z</time>
  </trkpt>
  <trkpt lat="32.842082" lon="-1.721259">
   <ele>1214.00</ele>
   <time>2014-04-05T12:20:10Z</time>
  </trkpt>
  <trkpt lat="32.842184" lon="-1.721509">
   <ele>1214.00</ele>
   <time>2014-04-05T12:20:13Z</time>
  </trkpt>
  <trkpt lat="32.842267" lon="-1.721797">
   <ele>1214.00</ele>
   <time>2014-04-05T12:20:16Z</time>
  </trkpt>
  <trkpt lat="32.842366" lon="-1.722088">
   <ele>1214.00</ele>
   <time>2014-04-05T12:20:19Z</time>
  </trkpt>
  <trkpt lat="32.842496" lon="-1.722341">
   <ele>1214.00</ele>
   <time>2014-04-05T12:20:22Z</time>
  </trkpt>
  <trkpt lat="32.842617" lon="-1.722567">
   <ele>1214.00</ele>
   <time>2014-04-05T12:20:25Z</time>
  </trkpt>
  <trkpt lat="32.842704" lon="-1.722791">
   <ele>1215.00</ele>
   <time>2014-04-05T12:20:28Z</time>
  </trkpt>
  <trkpt lat="32.842748" lon="-1.723045">
   <ele>1215.00</ele>
   <time>2014-04-05T12:20:31Z</time>
  </trkpt>
  <trkpt lat="32.842795" lon="-1.723474">
   <ele>1217.00</ele>
   <time>2014-04-05T12:20:36Z</time>
  </trkpt>
  <trkpt lat="32.842847" lon="-1.723727">
   <ele>1218.00</ele>
   <time>2014-04-05T12:20:39Z</time>
  </trkpt>
  <trkpt lat="32.842919" lon="-1.723963">
   <ele>1218.00</ele>
   <time>2014-04-05T12:20:42Z</time>
  </trkpt>
  <trkpt lat="32.843003" lon="-1.724165">
   <ele>1218.00</ele>
   <time>2014-04-05T12:20:45Z</time>
  </trkpt>
  <trkpt lat="32.843115" lon="-1.724359">
   <ele>1218.00</ele>
   <time>2014-04-05T12:20:48Z</time>
  </trkpt>
  <trkpt lat="32.843274" lon="-1.724532">
   <ele>1219.00</ele>
   <time>2014-04-05T12:20:51Z</time>
  </trkpt>
  <trkpt lat="32.843459" lon="-1.724668">
   <ele>1219.00</ele>
   <time>2014-04-05T12:20:54Z</time>
  </trkpt>
  <trkpt lat="32.843627" lon="-1.724786">
   <ele>1218.00</ele>
   <time>2014-04-05T12:20:57Z</time>
  </trkpt>
  <trkpt lat="32.843797" lon="-1.724968">
   <ele>1218.00</ele>
   <time>2014-04-05T12:21:01Z</time>
  </trkpt>
  <trkpt lat="32.843874" lon="-1.725171">
   <ele>1218.00</ele>
   <time>2014-04-05T12:21:04Z</time>
  </trkpt>
  <trkpt lat="32.843896" lon="-1.725401">
   <ele>1219.00</ele>
   <time>2014-04-05T12:21:07Z</time>
  </trkpt>
  <trkpt lat="32.843872" lon="-1.725628">
   <ele>1220.00</ele>
   <time>2014-04-05T12:21:10Z</time>
  </trkpt>
  <trkpt lat="32.843762" lon="-1.726046">
   <ele>1221.00</ele>
   <time>2014-04-05T12:21:15Z</time>
  </trkpt>
  <trkpt lat="32.843720" lon="-1.726349">
   <ele>1221.00</ele>
   <time>2014-04-05T12:21:18Z</time>
  </trkpt>
  <trkpt lat="32.843709" lon="-1.726564">
   <ele>1222.00</ele>
   <time>2014-04-05T12:21:20Z</time>
  </trkpt>
  <trkpt lat="32.843705" lon="-1.726784">
   <ele>1222.00</ele>
   <time>2014-04-05T12:21:22Z</time>
  </trkpt>
  <trkpt lat="32.843711" lon="-1.727012">
   <ele>1223.00</ele>
   <time>2014-04-05T12:21:24Z</time>
  </trkpt>
  <trkpt lat="32.843738" lon="-1.727493">
   <ele>1223.00</ele>
   <time>2014-04-05T12:21:28Z</time>
  </trkpt>
  <trkpt lat="32.843776" lon="-1.727969">
   <ele>1224.00</ele>
   <time>2014-04-05T12:21:32Z</time>
  </trkpt>
  <trkpt lat="32.843805" lon="-1.728187">
   <ele>1224.00</ele>
   <time>2014-04-05T12:21:34Z</time>
  </trkpt>
  <trkpt lat="32.843896" lon="-1.728772">
   <ele>1224.00</ele>
   <time>2014-04-05T12:21:40Z</time>
  </trkpt>
  <trkpt lat="32.843957" lon="-1.729029">
   <ele>1223.00</ele>
   <time>2014-04-05T12:21:43Z</time>
  </trkpt>
  <trkpt lat="32.844014" lon="-1.729285">
   <ele>1224.00</ele>
   <time>2014-04-05T12:21:46Z</time>
  </trkpt>
  <trkpt lat="32.844039" lon="-1.729561">
   <ele>1224.00</ele>
   <time>2014-04-05T12:21:49Z</time>
  </trkpt>
  <trkpt lat="32.844034" lon="-1.729868">
   <ele>1224.00</ele>
   <time>2014-04-05T12:21:52Z</time>
  </trkpt>
  <trkpt lat="32.844022" lon="-1.730092">
   <ele>1224.00</ele>
   <time>2014-04-05T12:21:54Z</time>
  </trkpt>
  <trkpt lat="32.843992" lon="-1.730568">
   <ele>1225.00</ele>
   <time>2014-04-05T12:21:58Z</time>
  </trkpt>
  <trkpt lat="32.843979" lon="-1.731062">
   <ele>1226.00</ele>
   <time>2014-04-05T12:22:02Z</time>
  </trkpt>
  <trkpt lat="32.843981" lon="-1.731621">
   <ele>1228.00</ele>
   <time>2014-04-05T12:22:07Z</time>
  </trkpt>
  <trkpt lat="32.843992" lon="-1.731896">
   <ele>1229.00</ele>
   <time>2014-04-05T12:22:10Z</time>
  </trkpt>
  <trkpt lat="32.844031" lon="-1.732176">
   <ele>1229.00</ele>
   <time>2014-04-05T12:22:13Z</time>
  </trkpt>
  <trkpt lat="32.844073" lon="-1.732546">
   <ele>1231.00</ele>
   <time>2014-04-05T12:22:17Z</time>
  </trkpt>
  <trkpt lat="32.844135" lon="-1.732773">
   <ele>1231.00</ele>
   <time>2014-04-05T12:22:20Z</time>
  </trkpt>
  <trkpt lat="32.844273" lon="-1.732974">
   <ele>1231.00</ele>
   <time>2014-04-05T12:22:24Z</time>
  </trkpt>
  <trkpt lat="32.844409" lon="-1.733187">
   <ele>1231.00</ele>
   <time>2014-04-05T12:22:28Z</time>
  </trkpt>
  <trkpt lat="32.844453" lon="-1.733471">
   <ele>1232.00</ele>
   <time>2014-04-05T12:22:32Z</time>
  </trkpt>
  <trkpt lat="32.844494" lon="-1.733702">
   <ele>1232.00</ele>
   <time>2014-04-05T12:22:35Z</time>
  </trkpt>
  <trkpt lat="32.844562" lon="-1.733933">
   <ele>1232.00</ele>
   <time>2014-04-05T12:22:38Z</time>
  </trkpt>
  <trkpt lat="32.844650" lon="-1.734158">
   <ele>1232.00</ele>
   <time>2014-04-05T12:22:41Z</time>
  </trkpt>
  <trkpt lat="32.844745" lon="-1.734369">
   <ele>1232.00</ele>
   <time>2014-04-05T12:22:44Z</time>
  </trkpt>
  <trkpt lat="32.844873" lon="-1.734567">
   <ele>1231.00</ele>
   <time>2014-04-05T12:22:47Z</time>
  </trkpt>
  <trkpt lat="32.845040" lon="-1.734736">
   <ele>1230.00</ele>
   <time>2014-04-05T12:22:50Z</time>
  </trkpt>
  <trkpt lat="32.845216" lon="-1.734884">
   <ele>1229.00</ele>
   <time>2014-04-05T12:22:53Z</time>
  </trkpt>
  <trkpt lat="32.845389" lon="-1.735012">
   <ele>1227.00</ele>
   <time>2014-04-05T12:22:56Z</time>
  </trkpt>
  <trkpt lat="32.845568" lon="-1.735099">
   <ele>1226.00</ele>
   <time>2014-04-05T12:22:59Z</time>
  </trkpt>
  <trkpt lat="32.845761" lon="-1.735111">
   <ele>1226.00</ele>
   <time>2014-04-05T12:23:02Z</time>
  </trkpt>
  <trkpt lat="32.845969" lon="-1.735069">
   <ele>1225.00</ele>
   <time>2014-04-05T12:23:05Z</time>
  </trkpt>
  <trkpt lat="32.846266" lon="-1.734985">
   <ele>1224.00</ele>
   <time>2014-04-05T12:23:09Z</time>
  </trkpt>
  <trkpt lat="32.846497" lon="-1.734920">
   <ele>1224.00</ele>
   <time>2014-04-05T12:23:12Z</time>
  </trkpt>
  <trkpt lat="32.846736" lon="-1.734907">
   <ele>1224.00</ele>
   <time>2014-04-05T12:23:15Z</time>
  </trkpt>
  <trkpt lat="32.846982" lon="-1.734906">
   <ele>1223.00</ele>
   <time>2014-04-05T12:23:18Z</time>
  </trkpt>
  <trkpt lat="32.847224" lon="-1.734938">
   <ele>1224.00</ele>
   <time>2014-04-05T12:23:21Z</time>
  </trkpt>
  <trkpt lat="32.847445" lon="-1.735057">
   <ele>1224.00</ele>
   <time>2014-04-05T12:23:24Z</time>
  </trkpt>
  <trkpt lat="32.847605" lon="-1.735272">
   <ele>1223.00</ele>
   <time>2014-04-05T12:23:27Z</time>
  </trkpt>
  <trkpt lat="32.847643" lon="-1.735568">
   <ele>1225.00</ele>
   <time>2014-04-05T12:23:30Z</time>
  </trkpt>
  <trkpt lat="32.847643" lon="-1.735785">
   <ele>1226.00</ele>
   <time>2014-04-05T12:23:32Z</time>
  </trkpt>
  <trkpt lat="32.847671" lon="-1.736003">
   <ele>1227.00</ele>
   <time>2014-04-05T12:23:34Z</time>
  </trkpt>
  <trkpt lat="32.847723" lon="-1.736216">
   <ele>1228.00</ele>
   <time>2014-04-05T12:23:36Z</time>
  </trkpt>
  <trkpt lat="32.847786" lon="-1.736417">
   <ele>1228.00</ele>
   <time>2014-04-05T12:23:38Z</time>
  </trkpt>
  <trkpt lat="32.847894" lon="-1.736699">
   <ele>1228.00</ele>
   <time>2014-04-05T12:23:41Z</time>
  </trkpt>
  <trkpt lat="32.847988" lon="-1.736944">
   <ele>1229.00</ele>
   <time>2014-04-05T12:23:44Z</time>
  </trkpt>
  <trkpt lat="32.848010" lon="-1.737166">
   <ele>1230.00</ele>
   <time>2014-04-05T12:23:48Z</time>
  </trkpt>
  <trkpt lat="32.847848" lon="-1.737335">
   <ele>1231.00</ele>
   <time>2014-04-05T12:23:53Z</time>
  </trkpt>
  <trkpt lat="32.847743" lon="-1.737574">
   <ele>1232.00</ele>
   <time>2014-04-05T12:23:57Z</time>
  </trkpt>
  <trkpt lat="32.847754" lon="-1.737818">
   <ele>1233.00</ele>
   <time>2014-04-05T12:24:00Z</time>
  </trkpt>
  <trkpt lat="32.847803" lon="-1.738048">
   <ele>1234.00</ele>
   <time>2014-04-05T12:24:03Z</time>
  </trkpt>
  <trkpt lat="32.847888" lon="-1.738358">
   <ele>1234.00</ele>
   <time>2014-04-05T12:24:07Z</time>
  </trkpt>
  <trkpt lat="32.847924" lon="-1.738611">
   <ele>1234.00</ele>
   <time>2014-04-05T12:24:10Z</time>
  </trkpt>
  <trkpt lat="32.847951" lon="-1.738869">
   <ele>1234.00</ele>
   <time>2014-04-05T12:24:13Z</time>
  </trkpt>
  <trkpt lat="32.847996" lon="-1.739128">
   <ele>1234.00</ele>
   <time>2014-04-05T12:24:16Z</time>
  </trkpt>
  <trkpt lat="32.848055" lon="-1.739373">
   <ele>1235.00</ele>
   <time>2014-04-05T12:24:19Z</time>
  </trkpt>
  <trkpt lat="32.848142" lon="-1.739590">
   <ele>1235.00</ele>
   <time>2014-04-05T12:24:22Z</time>
  </trkpt>
  <trkpt lat="32.848211" lon="-1.739815">
   <ele>1235.00</ele>
   <time>2014-04-05T12:24:25Z</time>
  </trkpt>
  <trkpt lat="32.848247" lon="-1.740041">
   <ele>1235.00</ele>
   <time>2014-04-05T12:24:28Z</time>
  </trkpt>
  <trkpt lat="32.848309" lon="-1.740443">
   <ele>1233.00</ele>
   <time>2014-04-05T12:24:34Z</time>
  </trkpt>
  <trkpt lat="32.848347" lon="-1.740707">
   <ele>1236.00</ele>
   <time>2014-04-05T12:24:38Z</time>
  </trkpt>
  <trkpt lat="32.848362" lon="-1.740788">
   <ele>1239.00</ele>
   <time>2014-04-05T12:24:54Z</time>
  </trkpt>
  <trkpt lat="32.848370" lon="-1.740771">
   <ele>1237.00</ele>
   <time>2014-04-05T12:25:09Z</time>
  </trkpt>
  <trkpt lat="32.848379" lon="-1.740763">
   <ele>1238.00</ele>
   <time>2014-04-05T12:25:25Z</time>
  </trkpt>
  <trkpt lat="32.848397" lon="-1.740990">
   <ele>1239.00</ele>
   <time>2014-04-05T12:25:35Z</time>
  </trkpt>
  <trkpt lat="32.848393" lon="-1.741214">
   <ele>1240.00</ele>
   <time>2014-04-05T12:25:39Z</time>
  </trkpt>
  <trkpt lat="32.848464" lon="-1.741423">
   <ele>1239.00</ele>
   <time>2014-04-05T12:25:43Z</time>
  </trkpt>
  <trkpt lat="32.848603" lon="-1.741597">
   <ele>1238.00</ele>
   <time>2014-04-05T12:25:47Z</time>
  </trkpt>
  <trkpt lat="32.848792" lon="-1.741685">
   <ele>1238.00</ele>
   <time>2014-04-05T12:25:51Z</time>
  </trkpt>
  <trkpt lat="32.849001" lon="-1.741657">
   <ele>1236.00</ele>
   <time>2014-04-05T12:25:55Z</time>
  </trkpt>
  <trkpt lat="32.849215" lon="-1.741555">
   <ele>1235.00</ele>
   <time>2014-04-05T12:25:59Z</time>
  </trkpt>
  <trkpt lat="32.849399" lon="-1.741494">
   <ele>1235.00</ele>
   <time>2014-04-05T12:26:02Z</time>
  </trkpt>
  <trkpt lat="32.849614" lon="-1.741482">
   <ele>1234.00</ele>
   <time>2014-04-05T12:26:05Z</time>
  </trkpt>
  <trkpt lat="32.849848" lon="-1.741517">
   <ele>1233.00</ele>
   <time>2014-04-05T12:26:08Z</time>
  </trkpt>
  <trkpt lat="32.850227" lon="-1.741609">
   <ele>1233.00</ele>
   <time>2014-04-05T12:26:13Z</time>
  </trkpt>
  <trkpt lat="32.850434" lon="-1.741672">
   <ele>1233.00</ele>
   <time>2014-04-05T12:26:16Z</time>
  </trkpt>
  <trkpt lat="32.850642" lon="-1.741685">
   <ele>1232.00</ele>
   <time>2014-04-05T12:26:19Z</time>
  </trkpt>
  <trkpt lat="32.850862" lon="-1.741641">
   <ele>1232.00</ele>
   <time>2014-04-05T12:26:22Z</time>
  </trkpt>
  <trkpt lat="32.851069" lon="-1.741560">
   <ele>1232.00</ele>
   <time>2014-04-05T12:26:25Z</time>
  </trkpt>
  <trkpt lat="32.851259" lon="-1.741493">
   <ele>1232.00</ele>
   <time>2014-04-05T12:26:28Z</time>
  </trkpt>
  <trkpt lat="32.851453" lon="-1.741414">
   <ele>1231.00</ele>
   <time>2014-04-05T12:26:31Z</time>
  </trkpt>
  <trkpt lat="32.851638" lon="-1.741385">
   <ele>1232.00</ele>
   <time>2014-04-05T12:26:34Z</time>
  </trkpt>
  <trkpt lat="32.851793" lon="-1.741490">
   <ele>1232.00</ele>
   <time>2014-04-05T12:26:37Z</time>
  </trkpt>
  <trkpt lat="32.851957" lon="-1.741642">
   <ele>1232.00</ele>
   <time>2014-04-05T12:26:40Z</time>
  </trkpt>
  <trkpt lat="32.852155" lon="-1.741777">
   <ele>1232.00</ele>
   <time>2014-04-05T12:26:43Z</time>
  </trkpt>
  <trkpt lat="32.852352" lon="-1.741883">
   <ele>1232.00</ele>
   <time>2014-04-05T12:26:46Z</time>
  </trkpt>
  <trkpt lat="32.852618" lon="-1.741983">
   <ele>1233.00</ele>
   <time>2014-04-05T12:26:50Z</time>
  </trkpt>
  <trkpt lat="32.852799" lon="-1.742126">
   <ele>1233.00</ele>
   <time>2014-04-05T12:26:53Z</time>
  </trkpt>
  <trkpt lat="32.852935" lon="-1.742329">
   <ele>1233.00</ele>
   <time>2014-04-05T12:26:56Z</time>
  </trkpt>
  <trkpt lat="32.853078" lon="-1.742541">
   <ele>1233.00</ele>
   <time>2014-04-05T12:26:59Z</time>
  </trkpt>
  <trkpt lat="32.853193" lon="-1.742745">
   <ele>1233.00</ele>
   <time>2014-04-05T12:27:02Z</time>
  </trkpt>
  <trkpt lat="32.853320" lon="-1.742943">
   <ele>1233.00</ele>
   <time>2014-04-05T12:27:05Z</time>
  </trkpt>
  <trkpt lat="32.853510" lon="-1.743098">
   <ele>1233.00</ele>
   <time>2014-04-05T12:27:09Z</time>
  </trkpt>
  <trkpt lat="32.853671" lon="-1.743197">
   <ele>1233.00</ele>
   <time>2014-04-05T12:27:13Z</time>
  </trkpt>
  <trkpt lat="32.853803" lon="-1.743362">
   <ele>1233.00</ele>
   <time>2014-04-05T12:27:19Z</time>
  </trkpt>
  <trkpt lat="32.853800" lon="-1.743377">
   <ele>1235.00</ele>
   <time>2014-04-05T12:27:34Z</time>
  </trkpt>
  <trkpt lat="32.853855" lon="-1.743640">
   <ele>1235.00</ele>
   <time>2014-04-05T12:27:43Z</time>
  </trkpt>
  <trkpt lat="32.853909" lon="-1.743907">
   <ele>1235.00</ele>
   <time>2014-04-05T12:27:47Z</time>
  </trkpt>
  <trkpt lat="32.853990" lon="-1.744111">
   <ele>1235.00</ele>
   <time>2014-04-05T12:27:50Z</time>
  </trkpt>
  <trkpt lat="32.854094" lon="-1.744315">
   <ele>1235.00</ele>
   <time>2014-04-05T12:27:53Z</time>
  </trkpt>
  <trkpt lat="32.854197" lon="-1.744519">
   <ele>1235.00</ele>
   <time>2014-04-05T12:27:56Z</time>
  </trkpt>
  <trkpt lat="32.854276" lon="-1.744733">
   <ele>1234.00</ele>
   <time>2014-04-05T12:27:59Z</time>
  </trkpt>
  <trkpt lat="32.854466" lon="-1.745323">
   <ele>1233.00</ele>
   <time>2014-04-05T12:28:07Z</time>
  </trkpt>
  <trkpt lat="32.854514" lon="-1.745571">
   <ele>1233.00</ele>
   <time>2014-04-05T12:28:10Z</time>
  </trkpt>
  <trkpt lat="32.854557" lon="-1.745806">
   <ele>1234.00</ele>
   <time>2014-04-05T12:28:13Z</time>
  </trkpt>
  <trkpt lat="32.854603" lon="-1.746017">
   <ele>1234.00</ele>
   <time>2014-04-05T12:28:16Z</time>
  </trkpt>
  <trkpt lat="32.854740" lon="-1.746235">
   <ele>1235.00</ele>
   <time>2014-04-05T12:28:20Z</time>
  </trkpt>
  <trkpt lat="32.854905" lon="-1.746380">
   <ele>1235.00</ele>
   <time>2014-04-05T12:28:24Z</time>
  </trkpt>
  <trkpt lat="32.855001" lon="-1.746587">
   <ele>1235.00</ele>
   <time>2014-04-05T12:28:28Z</time>
  </trkpt>
  <trkpt lat="32.855073" lon="-1.746829">
   <ele>1236.00</ele>
   <time>2014-04-05T12:28:32Z</time>
  </trkpt>
  <trkpt lat="32.855137" lon="-1.747099">
   <ele>1236.00</ele>
   <time>2014-04-05T12:28:36Z</time>
  </trkpt>
  <trkpt lat="32.855188" lon="-1.747314">
   <ele>1237.00</ele>
   <time>2014-04-05T12:28:39Z</time>
  </trkpt>
  <trkpt lat="32.855217" lon="-1.747530">
   <ele>1238.00</ele>
   <time>2014-04-05T12:28:42Z</time>
  </trkpt>
  <trkpt lat="32.855215" lon="-1.747827">
   <ele>1240.00</ele>
   <time>2014-04-05T12:28:47Z</time>
  </trkpt>
  <trkpt lat="32.855321" lon="-1.748021">
   <ele>1240.00</ele>
   <time>2014-04-05T12:28:51Z</time>
  </trkpt>
  <trkpt lat="32.855428" lon="-1.748221">
   <ele>1241.00</ele>
   <time>2014-04-05T12:28:54Z</time>
  </trkpt>
  <trkpt lat="32.855525" lon="-1.748493">
   <ele>1241.00</ele>
   <time>2014-04-05T12:28:58Z</time>
  </trkpt>
  <trkpt lat="32.855603" lon="-1.748694">
   <ele>1241.00</ele>
   <time>2014-04-05T12:29:02Z</time>
  </trkpt>
  <trkpt lat="32.855793" lon="-1.749108">
   <ele>1240.00</ele>
   <time>2014-04-05T12:29:09Z</time>
  </trkpt>
  <trkpt lat="32.855893" lon="-1.749366">
   <ele>1239.00</ele>
   <time>2014-04-05T12:29:13Z</time>
  </trkpt>
  <trkpt lat="32.855959" lon="-1.749591">
   <ele>1238.00</ele>
   <time>2014-04-05T12:29:16Z</time>
  </trkpt>
  <trkpt lat="32.856006" lon="-1.749840">
   <ele>1239.00</ele>
   <time>2014-04-05T12:29:19Z</time>
  </trkpt>
  <trkpt lat="32.856019" lon="-1.750101">
   <ele>1239.00</ele>
   <time>2014-04-05T12:29:22Z</time>
  </trkpt>
  <trkpt lat="32.856030" lon="-1.750351">
   <ele>1241.00</ele>
   <time>2014-04-05T12:29:25Z</time>
  </trkpt>
  <trkpt lat="32.856058" lon="-1.750586">
   <ele>1241.00</ele>
   <time>2014-04-05T12:29:28Z</time>
  </trkpt>
  <trkpt lat="32.856127" lon="-1.750801">
   <ele>1241.00</ele>
   <time>2014-04-05T12:29:31Z</time>
  </trkpt>
  <trkpt lat="32.856233" lon="-1.750984">
   <ele>1240.00</ele>
   <time>2014-04-05T12:29:34Z</time>
  </trkpt>
  <trkpt lat="32.856391" lon="-1.751191">
   <ele>1240.00</ele>
   <time>2014-04-05T12:29:38Z</time>
  </trkpt>
  <trkpt lat="32.856662" lon="-1.751499">
   <ele>1239.00</ele>
   <time>2014-04-05T12:29:44Z</time>
  </trkpt>
  <trkpt lat="32.856783" lon="-1.751675">
   <ele>1239.00</ele>
   <time>2014-04-05T12:29:47Z</time>
  </trkpt>
  <trkpt lat="32.856856" lon="-1.751884">
   <ele>1238.00</ele>
   <time>2014-04-05T12:29:50Z</time>
  </trkpt>
  <trkpt lat="32.856916" lon="-1.752110">
   <ele>1238.00</ele>
   <time>2014-04-05T12:29:53Z</time>
  </trkpt>
  <trkpt lat="32.856991" lon="-1.752326">
   <ele>1239.00</ele>
   <time>2014-04-05T12:29:56Z</time>
  </trkpt>
  <trkpt lat="32.857053" lon="-1.752529">
   <ele>1239.00</ele>
   <time>2014-04-05T12:29:59Z</time>
  </trkpt>
  <trkpt lat="32.857078" lon="-1.752756">
   <ele>1239.00</ele>
   <time>2014-04-05T12:30:02Z</time>
  </trkpt>
  <trkpt lat="32.857100" lon="-1.753029">
   <ele>1240.00</ele>
   <time>2014-04-05T12:30:06Z</time>
  </trkpt>
  <trkpt lat="32.857136" lon="-1.753269">
   <ele>1240.00</ele>
   <time>2014-04-05T12:30:10Z</time>
  </trkpt>
  <trkpt lat="32.857144" lon="-1.753291">
   <ele>1243.00</ele>
   <time>2014-04-05T12:30:25Z</time>
  </trkpt>
  <trkpt lat="32.857142" lon="-1.753325">
   <ele>1243.00</ele>
   <time>2014-04-05T12:30:41Z</time>
  </trkpt>
  <trkpt lat="32.857152" lon="-1.753563">
   <ele>1243.00</ele>
   <time>2014-04-05T12:30:45Z</time>
  </trkpt>
  <trkpt lat="32.857227" lon="-1.753756">
   <ele>1243.00</ele>
   <time>2014-04-05T12:30:48Z</time>
  </trkpt>
  <trkpt lat="32.857346" lon="-1.753945">
   <ele>1243.00</ele>
   <time>2014-04-05T12:30:51Z</time>
  </trkpt>
  <trkpt lat="32.857428" lon="-1.754180">
   <ele>1243.00</ele>
   <time>2014-04-05T12:30:54Z</time>
  </trkpt>
  <trkpt lat="32.857516" lon="-1.754387">
   <ele>1243.00</ele>
   <time>2014-04-05T12:30:57Z</time>
  </trkpt>
  <trkpt lat="32.857680" lon="-1.754531">
   <ele>1244.00</ele>
   <time>2014-04-05T12:31:00Z</time>
  </trkpt>
  <trkpt lat="32.857934" lon="-1.754700">
   <ele>1243.00</ele>
   <time>2014-04-05T12:31:04Z</time>
  </trkpt>
  <trkpt lat="32.858148" lon="-1.754810">
   <ele>1244.00</ele>
   <time>2014-04-05T12:31:07Z</time>
  </trkpt>
  <trkpt lat="32.858559" lon="-1.754966">
   <ele>1245.00</ele>
   <time>2014-04-05T12:31:13Z</time>
  </trkpt>
  <trkpt lat="32.858749" lon="-1.755123">
   <ele>1246.00</ele>
   <time>2014-04-05T12:31:17Z</time>
  </trkpt>
  <trkpt lat="32.858915" lon="-1.755294">
   <ele>1247.00</ele>
   <time>2014-04-05T12:31:21Z</time>
  </trkpt>
  <trkpt lat="32.859115" lon="-1.755406">
   <ele>1246.00</ele>
   <time>2014-04-05T12:31:25Z</time>
  </trkpt>
  <trkpt lat="32.859268" lon="-1.755527">
   <ele>1245.00</ele>
   <time>2014-04-05T12:31:28Z</time>
  </trkpt>
  <trkpt lat="32.859402" lon="-1.755671">
   <ele>1245.00</ele>
   <time>2014-04-05T12:31:32Z</time>
  </trkpt>
  <trkpt lat="32.859569" lon="-1.755830">
   <ele>1244.00</ele>
   <time>2014-04-05T12:31:36Z</time>
  </trkpt>
  <trkpt lat="32.859776" lon="-1.755960">
   <ele>1243.00</ele>
   <time>2014-04-05T12:31:40Z</time>
  </trkpt>
  <trkpt lat="32.859930" lon="-1.756124">
   <ele>1243.00</ele>
   <time>2014-04-05T12:31:44Z</time>
  </trkpt>
  <trkpt lat="32.859978" lon="-1.756390">
   <ele>1243.00</ele>
   <time>2014-04-05T12:31:48Z</time>
  </trkpt>
  <trkpt lat="32.860029" lon="-1.756599">
   <ele>1243.00</ele>
   <time>2014-04-05T12:31:51Z</time>
  </trkpt>
  <trkpt lat="32.860112" lon="-1.756802">
   <ele>1244.00</ele>
   <time>2014-04-05T12:31:54Z</time>
  </trkpt>
  <trkpt lat="32.860210" lon="-1.756989">
   <ele>1244.00</ele>
   <time>2014-04-05T12:31:57Z</time>
  </trkpt>
  <trkpt lat="32.860331" lon="-1.757188">
   <ele>1244.00</ele>
   <time>2014-04-05T12:32:00Z</time>
  </trkpt>
  <trkpt lat="32.860472" lon="-1.757376">
   <ele>1245.00</ele>
   <time>2014-04-05T12:32:03Z</time>
  </trkpt>
  <trkpt lat="32.860605" lon="-1.757562">
   <ele>1245.00</ele>
   <time>2014-04-05T12:32:08Z</time>
  </trkpt>
 </trkseg>
 <trkseg>
  <trkpt lat="32.860601" lon="-1.757554">
   <ele>1246.00</ele>
   <time>2014-04-05T12:32:22Z</time>
  </trkpt>
  <trkpt lat="32.860598" lon="-1.757553">
   <ele>1247.00</ele>
   <time>2014-04-05T12:32:38Z</time>
  </trkpt>
  <trkpt lat="32.860596" lon="-1.757552">
   <ele>1247.00</ele>
   <time>2014-04-05T12:32:54Z</time>
  </trkpt>
  <trkpt lat="32.860599" lon="-1.757555">
   <ele>1247.00</ele>
   <time>2014-04-05T12:33:09Z</time>
  </trkpt>
  <trkpt lat="32.860598" lon="-1.757553">
   <ele>1247.00</ele>
   <time>2014-04-05T12:33:24Z</time>
  </trkpt>
  <trkpt lat="32.860595" lon="-1.757549">
   <ele>1247.00</ele>
   <time>2014-04-05T12:33:40Z</time>
  </trkpt>
  <trkpt lat="32.860593" lon="-1.757543">
   <ele>1248.00</ele>
   <time>2014-04-05T12:33:55Z</time>
  </trkpt>
  <trkpt lat="32.860593" lon="-1.757543">
   <ele>1248.00</ele>
   <time>2014-04-05T12:34:10Z</time>
  </trkpt>
  <trkpt lat="32.860706" lon="-1.757652">
   <ele>1248.00</ele>
   <time>2014-04-05T12:34:26Z</time>
  </trkpt>
  <trkpt lat="32.860820" lon="-1.757843">
   <ele>1248.00</ele>
   <time>2014-04-05T12:34:31Z</time>
  </trkpt>
  <trkpt lat="32.860844" lon="-1.758069">
   <ele>1249.00</ele>
   <time>2014-04-05T12:34:35Z</time>
  </trkpt>
  <trkpt lat="32.860825" lon="-1.758321">
   <ele>1250.00</ele>
   <time>2014-04-05T12:34:39Z</time>
  </trkpt>
  <trkpt lat="32.860781" lon="-1.758587">
   <ele>1251.00</ele>
   <time>2014-04-05T12:34:43Z</time>
  </trkpt>
  <trkpt lat="32.860784" lon="-1.758857">
   <ele>1251.00</ele>
   <time>2014-04-05T12:34:47Z</time>
  </trkpt>
  <trkpt lat="32.860835" lon="-1.759126">
   <ele>1252.00</ele>
   <time>2014-04-05T12:34:51Z</time>
  </trkpt>
  <trkpt lat="32.860887" lon="-1.759334">
   <ele>1253.00</ele>
   <time>2014-04-05T12:34:54Z</time>
  </trkpt>
  <trkpt lat="32.860993" lon="-1.759507">
   <ele>1253.00</ele>
   <time>2014-04-05T12:34:57Z</time>
  </trkpt>
  <trkpt lat="32.861167" lon="-1.759696">
   <ele>1254.00</ele>
   <time>2014-04-05T12:35:01Z</time>
  </trkpt>
  <trkpt lat="32.861355" lon="-1.759778">
   <ele>1254.00</ele>
   <time>2014-04-05T12:35:05Z</time>
  </trkpt>
  <trkpt lat="32.861560" lon="-1.759748">
   <ele>1256.00</ele>
   <time>2014-04-05T12:35:10Z</time>
  </trkpt>
  <trkpt lat="32.861741" lon="-1.759716">
   <ele>1257.00</ele>
   <time>2014-04-05T12:35:14Z</time>
  </trkpt>
  <trkpt lat="32.861934" lon="-1.759823">
   <ele>1257.00</ele>
   <time>2014-04-05T12:35:18Z</time>
  </trkpt>
  <trkpt lat="32.862127" lon="-1.759958">
   <ele>1257.00</ele>
   <time>2014-04-05T12:35:22Z</time>
  </trkpt>
  <trkpt lat="32.862390" lon="-1.760140">
   <ele>1258.00</ele>
   <time>2014-04-05T12:35:27Z</time>
  </trkpt>
  <trkpt lat="32.862536" lon="-1.760274">
   <ele>1259.00</ele>
   <time>2014-04-05T12:35:30Z</time>
  </trkpt>
  <trkpt lat="32.862685" lon="-1.760491">
   <ele>1261.00</ele>
   <time>2014-04-05T12:35:34Z</time>
  </trkpt>
  <trkpt lat="32.862773" lon="-1.760758">
   <ele>1262.00</ele>
   <time>2014-04-05T12:35:38Z</time>
  </trkpt>
  <trkpt lat="32.862809" lon="-1.760974">
   <ele>1264.00</ele>
   <time>2014-04-05T12:35:41Z</time>
  </trkpt>
  <trkpt lat="32.862838" lon="-1.761263">
   <ele>1266.00</ele>
   <time>2014-04-05T12:35:45Z</time>
  </trkpt>
  <trkpt lat="32.862910" lon="-1.761459">
   <ele>1268.00</ele>
   <time>2014-04-05T12:35:48Z</time>
  </trkpt>
  <trkpt lat="32.863088" lon="-1.761630">
   <ele>1270.00</ele>
   <time>2014-04-05T12:35:52Z</time>
  </trkpt>
  <trkpt lat="32.863261" lon="-1.761730">
   <ele>1270.00</ele>
   <time>2014-04-05T12:35:55Z</time>
  </trkpt>
  <trkpt lat="32.863411" lon="-1.761877">
   <ele>1270.00</ele>
   <time>2014-04-05T12:35:58Z</time>
  </trkpt>
  <trkpt lat="32.863520" lon="-1.762062">
   <ele>1271.00</ele>
   <time>2014-04-05T12:36:01Z</time>
  </trkpt>
  <trkpt lat="32.863599" lon="-1.762283">
   <ele>1272.00</ele>
   <time>2014-04-05T12:36:04Z</time>
  </trkpt>
  <trkpt lat="32.863689" lon="-1.762591">
   <ele>1273.00</ele>
   <time>2014-04-05T12:36:08Z</time>
  </trkpt>
  <trkpt lat="32.863794" lon="-1.762790">
   <ele>1273.00</ele>
   <time>2014-04-05T12:36:11Z</time>
  </trkpt>
  <trkpt lat="32.863993" lon="-1.763037">
   <ele>1274.00</ele>
   <time>2014-04-05T12:36:15Z</time>
  </trkpt>
  <trkpt lat="32.864108" lon="-1.763268">
   <ele>1274.00</ele>
   <time>2014-04-05T12:36:18Z</time>
  </trkpt>
  <trkpt lat="32.864191" lon="-1.763527">
   <ele>1275.00</ele>
   <time>2014-04-05T12:36:21Z</time>
  </trkpt>
  <trkpt lat="32.864274" lon="-1.763773">
   <ele>1275.00</ele>
   <time>2014-04-05T12:36:24Z</time>
  </trkpt>
  <trkpt lat="32.864415" lon="-1.764154">
   <ele>1274.00</ele>
   <time>2014-04-05T12:36:29Z</time>
  </trkpt>
  <trkpt lat="32.864428" lon="-1.764396">
   <ele>1275.00</ele>
   <time>2014-04-05T12:36:32Z</time>
  </trkpt>
  <trkpt lat="32.864398" lon="-1.764635">
   <ele>1274.00</ele>
   <time>2014-04-05T12:36:35Z</time>
  </trkpt>
  <trkpt lat="32.864433" lon="-1.764853">
   <ele>1273.00</ele>
   <time>2014-04-05T12:36:38Z</time>
  </trkpt>
  <trkpt lat="32.864583" lon="-1.764969">
   <ele>1272.00</ele>
   <time>2014-04-05T12:36:41Z</time>
  </trkpt>
  <trkpt lat="32.864781" lon="-1.764990">
   <ele>1271.00</ele>
   <time>2014-04-05T12:36:44Z</time>
  </trkpt>
  <trkpt lat="32.865100" lon="-1.765006">
   <ele>1270.00</ele>
   <time>2014-04-05T12:36:49Z</time>
  </trkpt>
  <trkpt lat="32.865312" lon="-1.765053">
   <ele>1270.00</ele>
   <time>2014-04-05T12:36:53Z</time>
  </trkpt>
  <trkpt lat="32.865529" lon="-1.765080">
   <ele>1270.00</ele>
   <time>2014-04-05T12:36:57Z</time>
  </trkpt>
  <trkpt lat="32.865768" lon="-1.765080">
   <ele>1269.00</ele>
   <time>2014-04-05T12:37:01Z</time>
  </trkpt>
  <trkpt lat="32.865958" lon="-1.765096">
   <ele>1269.00</ele>
   <time>2014-04-05T12:37:04Z</time>
  </trkpt>
  <trkpt lat="32.866150" lon="-1.765128">
   <ele>1269.00</ele>
   <time>2014-04-05T12:37:07Z</time>
  </trkpt>
  <trkpt lat="32.866324" lon="-1.765225">
   <ele>1269.00</ele>
   <time>2014-04-05T12:37:10Z</time>
  </trkpt>
  <trkpt lat="32.866483" lon="-1.765380">
   <ele>1269.00</ele>
   <time>2014-04-05T12:37:13Z</time>
  </trkpt>
  <trkpt lat="32.866668" lon="-1.765616">
   <ele>1269.00</ele>
   <time>2014-04-05T12:37:17Z</time>
  </trkpt>
  <trkpt lat="32.866840" lon="-1.765833">
   <ele>1269.00</ele>
   <time>2014-04-05T12:37:21Z</time>
  </trkpt>
  <trkpt lat="32.867006" lon="-1.765980">
   <ele>1268.00</ele>
   <time>2014-04-05T12:37:24Z</time>
  </trkpt>
  <trkpt lat="32.867182" lon="-1.766141">
   <ele>1268.00</ele>
   <time>2014-04-05T12:37:27Z</time>
  </trkpt>
  <trkpt lat="32.867340" lon="-1.766345">
   <ele>1268.00</ele>
   <time>2014-04-05T12:37:30Z</time>
  </trkpt>
  <trkpt lat="32.867661" lon="-1.766819">
   <ele>1268.00</ele>
   <time>2014-04-05T12:37:36Z</time>
  </trkpt>
  <trkpt lat="32.867788" lon="-1.767086">
   <ele>1268.00</ele>
   <time>2014-04-05T12:37:39Z</time>
  </trkpt>
  <trkpt lat="32.867923" lon="-1.767624">
   <ele>1269.00</ele>
   <time>2014-04-05T12:37:44Z</time>
  </trkpt>
  <trkpt lat="32.868046" lon="-1.768062">
   <ele>1269.00</ele>
   <time>2014-04-05T12:37:48Z</time>
  </trkpt>
  <trkpt lat="32.868125" lon="-1.768255">
   <ele>1270.00</ele>
   <time>2014-04-05T12:37:50Z</time>
  </trkpt>
  <trkpt lat="32.868274" lon="-1.768487">
   <ele>1270.00</ele>
   <time>2014-04-05T12:37:53Z</time>
  </trkpt>
  <trkpt lat="32.868464" lon="-1.768639">
   <ele>1271.00</ele>
   <time>2014-04-05T12:37:56Z</time>
  </trkpt>
  <trkpt lat="32.868627" lon="-1.768816">
   <ele>1272.00</ele>
   <time>2014-04-05T12:37:59Z</time>
  </trkpt>
  <trkpt lat="32.868761" lon="-1.769056">
   <ele>1273.00</ele>
   <time>2014-04-05T12:38:02Z</time>
  </trkpt>
  <trkpt lat="32.868943" lon="-1.769383">
   <ele>1274.00</ele>
   <time>2014-04-05T12:38:06Z</time>
  </trkpt>
  <trkpt lat="32.869106" lon="-1.769571">
   <ele>1275.00</ele>
   <time>2014-04-05T12:38:09Z</time>
  </trkpt>
  <trkpt lat="32.869499" lon="-1.769906">
   <ele>1277.00</ele>
   <time>2014-04-05T12:38:16Z</time>
  </trkpt>
  <trkpt lat="32.869691" lon="-1.770032">
   <ele>1278.00</ele>
   <time>2014-04-05T12:38:20Z</time>
  </trkpt>
  <trkpt lat="32.869871" lon="-1.770153">
   <ele>1278.00</ele>
   <time>2014-04-05T12:38:23Z</time>
  </trkpt>
  <trkpt lat="32.870048" lon="-1.770243">
   <ele>1279.00</ele>
   <time>2014-04-05T12:38:26Z</time>
  </trkpt>
  <trkpt lat="32.870252" lon="-1.770352">
   <ele>1280.00</ele>
   <time>2014-04-05T12:38:30Z</time>
  </trkpt>
  <trkpt lat="32.870448" lon="-1.770468">
   <ele>1281.00</ele>
   <time>2014-04-05T12:38:34Z</time>
  </trkpt>
  <trkpt lat="32.870625" lon="-1.770534">
   <ele>1281.00</ele>
   <time>2014-04-05T12:38:37Z</time>
  </trkpt>
  <trkpt lat="32.870816" lon="-1.770571">
   <ele>1282.00</ele>
   <time>2014-04-05T12:38:40Z</time>
  </trkpt>
  <trkpt lat="32.871000" lon="-1.770558">
   <ele>1283.00</ele>
   <time>2014-04-05T12:38:43Z</time>
  </trkpt>
  <trkpt lat="32.871214" lon="-1.770567">
   <ele>1284.00</ele>
   <time>2014-04-05T12:38:47Z</time>
  </trkpt>
  <trkpt lat="32.871427" lon="-1.770690">
   <ele>1284.00</ele>
   <time>2014-04-05T12:38:51Z</time>
  </trkpt>
  <trkpt lat="32.871645" lon="-1.770868">
   <ele>1284.00</ele>
   <time>2014-04-05T12:38:55Z</time>
  </trkpt>
  <trkpt lat="32.871797" lon="-1.771014">
   <ele>1284.00</ele>
   <time>2014-04-05T12:38:58Z</time>
  </trkpt>
  <trkpt lat="32.871928" lon="-1.771165">
   <ele>1284.00</ele>
   <time>2014-04-05T12:39:01Z</time>
  </trkpt>
  <trkpt lat="32.872112" lon="-1.771318">
   <ele>1283.00</ele>
   <time>2014-04-05T12:39:05Z</time>
  </trkpt>
  <trkpt lat="32.872326" lon="-1.771444">
   <ele>1282.00</ele>
   <time>2014-04-05T12:39:09Z</time>
  </trkpt>
  <trkpt lat="32.872700" lon="-1.771704">
   <ele>1282.00</ele>
   <time>2014-04-05T12:39:15Z</time>
  </trkpt>
  <trkpt lat="32.872904" lon="-1.771833">
   <ele>1282.00</ele>
   <time>2014-04-05T12:39:18Z</time>
  </trkpt>
  <trkpt lat="32.873098" lon="-1.771970">
   <ele>1282.00</ele>
   <time>2014-04-05T12:39:21Z</time>
  </trkpt>
  <trkpt lat="32.873292" lon="-1.772049">
   <ele>1283.00</ele>
   <time>2014-04-05T12:39:24Z</time>
  </trkpt>
  <trkpt lat="32.873502" lon="-1.772039">
   <ele>1284.00</ele>
   <time>2014-04-05T12:39:27Z</time>
  </trkpt>
  <trkpt lat="32.873693" lon="-1.771918">
   <ele>1285.00</ele>
   <time>2014-04-05T12:39:30Z</time>
  </trkpt>
  <trkpt lat="32.874025" lon="-1.771688">
   <ele>1287.00</ele>
   <time>2014-04-05T12:39:35Z</time>
  </trkpt>
  <trkpt lat="32.874228" lon="-1.771598">
   <ele>1288.00</ele>
   <time>2014-04-05T12:39:38Z</time>
  </trkpt>
  <trkpt lat="32.874433" lon="-1.771590">
   <ele>1288.00</ele>
   <time>2014-04-05T12:39:41Z</time>
  </trkpt>
  <trkpt lat="32.874635" lon="-1.771594">
   <ele>1289.00</ele>
   <time>2014-04-05T12:39:44Z</time>
  </trkpt>
  <trkpt lat="32.874848" lon="-1.771596">
   <ele>1289.00</ele>
   <time>2014-04-05T12:39:47Z</time>
  </trkpt>
  <trkpt lat="32.875068" lon="-1.771679">
   <ele>1288.00</ele>
   <time>2014-04-05T12:39:50Z</time>
  </trkpt>
  <trkpt lat="32.875297" lon="-1.771783">
   <ele>1288.00</ele>
   <time>2014-04-05T12:39:53Z</time>
  </trkpt>
  <trkpt lat="32.875537" lon="-1.771807">
   <ele>1289.00</ele>
   <time>2014-04-05T12:39:56Z</time>
  </trkpt>
  <trkpt lat="32.875762" lon="-1.771828">
   <ele>1290.00</ele>
   <time>2014-04-05T12:39:59Z</time>
  </trkpt>
  <trkpt lat="32.875937" lon="-1.771962">
   <ele>1290.00</ele>
   <time>2014-04-05T12:40:02Z</time>
  </trkpt>
  <trkpt lat="32.876069" lon="-1.772133">
   <ele>1291.00</ele>
   <time>2014-04-05T12:40:05Z</time>
  </trkpt>
  <trkpt lat="32.876251" lon="-1.772290">
   <ele>1290.00</ele>
   <time>2014-04-05T12:40:09Z</time>
  </trkpt>
  <trkpt lat="32.876442" lon="-1.772366">
   <ele>1290.00</ele>
   <time>2014-04-05T12:40:13Z</time>
  </trkpt>
  <trkpt lat="32.876662" lon="-1.772401">
   <ele>1290.00</ele>
   <time>2014-04-05T12:40:17Z</time>
  </trkpt>
  <trkpt lat="32.876922" lon="-1.772439">
   <ele>1290.00</ele>
   <time>2014-04-05T12:40:21Z</time>
  </trkpt>
  <trkpt lat="32.877121" lon="-1.772560">
   <ele>1290.00</ele>
   <time>2014-04-05T12:40:25Z</time>
  </trkpt>
  <trkpt lat="32.877303" lon="-1.772616">
   <ele>1291.00</ele>
   <time>2014-04-05T12:40:31Z</time>
  </trkpt>
  <trkpt lat="32.877495" lon="-1.772615">
   <ele>1291.00</ele>
   <time>2014-04-05T12:40:36Z</time>
  </trkpt>
  <trkpt lat="32.877705" lon="-1.772710">
   <ele>1291.00</ele>
   <time>2014-04-05T12:40:41Z</time>
  </trkpt>
  <trkpt lat="32.877884" lon="-1.772776">
   <ele>1291.00</ele>
   <time>2014-04-05T12:40:45Z</time>
  </trkpt>
  <trkpt lat="32.878075" lon="-1.772846">
   <ele>1291.00</ele>
   <time>2014-04-05T12:40:49Z</time>
  </trkpt>
  <trkpt lat="32.878264" lon="-1.772889">
   <ele>1290.00</ele>
   <time>2014-04-05T12:40:53Z</time>
  </trkpt>
  <trkpt lat="32.878458" lon="-1.772955">
   <ele>1290.00</ele>
   <time>2014-04-05T12:40:59Z</time>
  </trkpt>
  <trkpt lat="32.878742" lon="-1.773057">
   <ele>1290.00</ele>
   <time>2014-04-05T12:41:06Z</time>
  </trkpt>
  <trkpt lat="32.878992" lon="-1.773104">
   <ele>1290.00</ele>
   <time>2014-04-05T12:41:12Z</time>
  </trkpt>
  <trkpt lat="32.879196" lon="-1.773182">
   <ele>1291.00</ele>
   <time>2014-04-05T12:41:16Z</time>
  </trkpt>
  <trkpt lat="32.879386" lon="-1.773309">
   <ele>1291.00</ele>
   <time>2014-04-05T12:41:20Z</time>
  </trkpt>
  <trkpt lat="32.879513" lon="-1.773519">
   <ele>1291.00</ele>
   <time>2014-04-05T12:41:24Z</time>
  </trkpt>
  <trkpt lat="32.879571" lon="-1.773766">
   <ele>1292.00</ele>
   <time>2014-04-05T12:41:28Z</time>
  </trkpt>
  <trkpt lat="32.879668" lon="-1.774039">
   <ele>1293.00</ele>
   <time>2014-04-05T12:41:33Z</time>
  </trkpt>
  <trkpt lat="32.879752" lon="-1.774274">
   <ele>1294.00</ele>
   <time>2014-04-05T12:41:37Z</time>
  </trkpt>
  <trkpt lat="32.879866" lon="-1.774616">
   <ele>1295.00</ele>
   <time>2014-04-05T12:41:43Z</time>
  </trkpt>
  <trkpt lat="32.879946" lon="-1.774845">
   <ele>1296.00</ele>
   <time>2014-04-05T12:41:47Z</time>
  </trkpt>
  <trkpt lat="32.880118" lon="-1.775024">
   <ele>1297.00</ele>
   <time>2014-04-05T12:41:51Z</time>
  </trkpt>
  <trkpt lat="32.880284" lon="-1.775117">
   <ele>1297.00</ele>
   <time>2014-04-05T12:41:54Z</time>
  </trkpt>
  <trkpt lat="32.880490" lon="-1.775216">
   <ele>1297.00</ele>
   <time>2014-04-05T12:41:58Z</time>
  </trkpt>
  <trkpt lat="32.880651" lon="-1.775335">
   <ele>1298.00</ele>
   <time>2014-04-05T12:42:01Z</time>
  </trkpt>
  <trkpt lat="32.880816" lon="-1.775477">
   <ele>1298.00</ele>
   <time>2014-04-05T12:42:05Z</time>
  </trkpt>
  <trkpt lat="32.880993" lon="-1.775581">
   <ele>1298.00</ele>
   <time>2014-04-05T12:42:09Z</time>
  </trkpt>
  <trkpt lat="32.881187" lon="-1.775651">
   <ele>1298.00</ele>
   <time>2014-04-05T12:42:14Z</time>
  </trkpt>
  <trkpt lat="32.881341" lon="-1.775814">
   <ele>1298.00</ele>
   <time>2014-04-05T12:42:20Z</time>
  </trkpt>
  <trkpt lat="32.881408" lon="-1.776068">
   <ele>1298.00</ele>
   <time>2014-04-05T12:42:25Z</time>
  </trkpt>
  <trkpt lat="32.881462" lon="-1.776305">
   <ele>1299.00</ele>
   <time>2014-04-05T12:42:29Z</time>
  </trkpt>
  <trkpt lat="32.881555" lon="-1.776522">
   <ele>1300.00</ele>
   <time>2014-04-05T12:42:33Z</time>
  </trkpt>
  <trkpt lat="32.881662" lon="-1.776750">
   <ele>1301.00</ele>
   <time>2014-04-05T12:42:37Z</time>
  </trkpt>
  <trkpt lat="32.881775" lon="-1.777018">
   <ele>1302.00</ele>
   <time>2014-04-05T12:42:42Z</time>
  </trkpt>
  <trkpt lat="32.881948" lon="-1.777110">
   <ele>1302.00</ele>
   <time>2014-04-05T12:42:46Z</time>
  </trkpt>
  <trkpt lat="32.882158" lon="-1.777126">
   <ele>1302.00</ele>
   <time>2014-04-05T12:42:50Z</time>
  </trkpt>
  <trkpt lat="32.882381" lon="-1.777169">
   <ele>1301.00</ele>
   <time>2014-04-05T12:42:54Z</time>
  </trkpt>
  <trkpt lat="32.882621" lon="-1.777232">
   <ele>1301.00</ele>
   <time>2014-04-05T12:42:58Z</time>
  </trkpt>
  <trkpt lat="32.882831" lon="-1.777341">
   <ele>1300.00</ele>
   <time>2014-04-05T12:43:02Z</time>
  </trkpt>
  <trkpt lat="32.883037" lon="-1.777389">
   <ele>1300.00</ele>
   <time>2014-04-05T12:43:06Z</time>
  </trkpt>
  <trkpt lat="32.883245" lon="-1.777361">
   <ele>1300.00</ele>
   <time>2014-04-05T12:43:10Z</time>
  </trkpt>
  <trkpt lat="32.883457" lon="-1.777290">
   <ele>1301.00</ele>
   <time>2014-04-05T12:43:14Z</time>
  </trkpt>
  <trkpt lat="32.883672" lon="-1.777197">
   <ele>1301.00</ele>
   <time>2014-04-05T12:43:18Z</time>
  </trkpt>
  <trkpt lat="32.883890" lon="-1.777194">
   <ele>1302.00</ele>
   <time>2014-04-05T12:43:22Z</time>
  </trkpt>
  <trkpt lat="32.884063" lon="-1.777260">
   <ele>1302.00</ele>
   <time>2014-04-05T12:43:25Z</time>
  </trkpt>
  <trkpt lat="32.884251" lon="-1.777332">
   <ele>1302.00</ele>
   <time>2014-04-05T12:43:28Z</time>
  </trkpt>
  <trkpt lat="32.884444" lon="-1.777382">
   <ele>1302.00</ele>
   <time>2014-04-05T12:43:31Z</time>
  </trkpt>
  <trkpt lat="32.884622" lon="-1.777451">
   <ele>1303.00</ele>
   <time>2014-04-05T12:43:34Z</time>
  </trkpt>
  <trkpt lat="32.884782" lon="-1.777646">
   <ele>1303.00</ele>
   <time>2014-04-05T12:43:38Z</time>
  </trkpt>
  <trkpt lat="32.884876" lon="-1.777884">
   <ele>1304.00</ele>
   <time>2014-04-05T12:43:42Z</time>
  </trkpt>
  <trkpt lat="32.884940" lon="-1.778102">
   <ele>1304.00</ele>
   <time>2014-04-05T12:43:46Z</time>
  </trkpt>
  <trkpt lat="32.885104" lon="-1.778276">
   <ele>1305.00</ele>
   <time>2014-04-05T12:43:51Z</time>
  </trkpt>
  <trkpt lat="32.885297" lon="-1.778366">
   <ele>1305.00</ele>
   <time>2014-04-05T12:43:55Z</time>
  </trkpt>
  <trkpt lat="32.885512" lon="-1.778427">
   <ele>1305.00</ele>
   <time>2014-04-05T12:43:59Z</time>
  </trkpt>
  <trkpt lat="32.885722" lon="-1.778497">
   <ele>1305.00</ele>
   <time>2014-04-05T12:44:03Z</time>
  </trkpt>
  <trkpt lat="32.885938" lon="-1.778553">
   <ele>1305.00</ele>
   <time>2014-04-05T12:44:07Z</time>
  </trkpt>
  <trkpt lat="32.886094" lon="-1.778732">
   <ele>1306.00</ele>
   <time>2014-04-05T12:44:11Z</time>
  </trkpt>
  <trkpt lat="32.886212" lon="-1.778944">
   <ele>1306.00</ele>
   <time>2014-04-05T12:44:15Z</time>
  </trkpt>
  <trkpt lat="32.886295" lon="-1.779206">
   <ele>1307.00</ele>
   <time>2014-04-05T12:44:19Z</time>
  </trkpt>
  <trkpt lat="32.886365" lon="-1.779413">
   <ele>1308.00</ele>
   <time>2014-04-05T12:44:22Z</time>
  </trkpt>
  <trkpt lat="32.886463" lon="-1.779602">
   <ele>1308.00</ele>
   <time>2014-04-05T12:44:25Z</time>
  </trkpt>
  <trkpt lat="32.886618" lon="-1.779778">
   <ele>1309.00</ele>
   <time>2014-04-05T12:44:29Z</time>
  </trkpt>
  <trkpt lat="32.886820" lon="-1.779904">
   <ele>1309.00</ele>
   <time>2014-04-05T12:44:33Z</time>
  </trkpt>
  <trkpt lat="32.887027" lon="-1.780030">
   <ele>1310.00</ele>
   <time>2014-04-05T12:44:37Z</time>
  </trkpt>
  <trkpt lat="32.887231" lon="-1.780132">
   <ele>1310.00</ele>
   <time>2014-04-05T12:44:41Z</time>
  </trkpt>
  <trkpt lat="32.887447" lon="-1.780190">
   <ele>1310.00</ele>
   <time>2014-04-05T12:44:45Z</time>
  </trkpt>
  <trkpt lat="32.887647" lon="-1.780286">
   <ele>1311.00</ele>
   <time>2014-04-05T12:44:49Z</time>
  </trkpt>
  <trkpt lat="32.887841" lon="-1.780348">
   <ele>1311.00</ele>
   <time>2014-04-05T12:44:53Z</time>
  </trkpt>
  <trkpt lat="32.888075" lon="-1.780323">
   <ele>1312.00</ele>
   <time>2014-04-05T12:44:57Z</time>
  </trkpt>
  <trkpt lat="32.888274" lon="-1.780277">
   <ele>1312.00</ele>
   <time>2014-04-05T12:45:00Z</time>
  </trkpt>
  <trkpt lat="32.888457" lon="-1.780300">
   <ele>1312.00</ele>
   <time>2014-04-05T12:45:03Z</time>
  </trkpt>
  <trkpt lat="32.888661" lon="-1.780379">
   <ele>1313.00</ele>
   <time>2014-04-05T12:45:07Z</time>
  </trkpt>
  <trkpt lat="32.888888" lon="-1.780424">
   <ele>1313.00</ele>
   <time>2014-04-05T12:45:11Z</time>
  </trkpt>
  <trkpt lat="32.889090" lon="-1.780399">
   <ele>1314.00</ele>
   <time>2014-04-05T12:45:14Z</time>
  </trkpt>
  <trkpt lat="32.889294" lon="-1.780311">
   <ele>1314.00</ele>
   <time>2014-04-05T12:45:17Z</time>
  </trkpt>
  <trkpt lat="32.889514" lon="-1.780215">
   <ele>1314.00</ele>
   <time>2014-04-05T12:45:20Z</time>
  </trkpt>
  <trkpt lat="32.889748" lon="-1.780116">
   <ele>1315.00</ele>
   <time>2014-04-05T12:45:23Z</time>
  </trkpt>
  <trkpt lat="32.889963" lon="-1.779985">
   <ele>1315.00</ele>
   <time>2014-04-05T12:45:26Z</time>
  </trkpt>
  <trkpt lat="32.890174" lon="-1.779838">
   <ele>1315.00</ele>
   <time>2014-04-05T12:45:29Z</time>
  </trkpt>
  <trkpt lat="32.890410" lon="-1.779779">
   <ele>1316.00</ele>
   <time>2014-04-05T12:45:32Z</time>
  </trkpt>
  <trkpt lat="32.890635" lon="-1.779807">
   <ele>1316.00</ele>
   <time>2014-04-05T12:45:35Z</time>
  </trkpt>
  <trkpt lat="32.890860" lon="-1.779834">
   <ele>1316.00</ele>
   <time>2014-04-05T12:45:38Z</time>
  </trkpt>
  <trkpt lat="32.891148" lon="-1.779846">
   <ele>1317.00</ele>
   <time>2014-04-05T12:45:42Z</time>
  </trkpt>
  <trkpt lat="32.891363" lon="-1.779916">
   <ele>1317.00</ele>
   <time>2014-04-05T12:45:45Z</time>
  </trkpt>
  <trkpt lat="32.891579" lon="-1.779959">
   <ele>1317.00</ele>
   <time>2014-04-05T12:45:48Z</time>
  </trkpt>
  <trkpt lat="32.891854" lon="-1.779990">
   <ele>1318.00</ele>
   <time>2014-04-05T12:45:52Z</time>
  </trkpt>
  <trkpt lat="32.892056" lon="-1.780036">
   <ele>1318.00</ele>
   <time>2014-04-05T12:45:55Z</time>
  </trkpt>
  <trkpt lat="32.892247" lon="-1.780027">
   <ele>1318.00</ele>
   <time>2014-04-05T12:45:58Z</time>
  </trkpt>
  <trkpt lat="32.892463" lon="-1.780044">
   <ele>1319.00</ele>
   <time>2014-04-05T12:46:02Z</time>
  </trkpt>
  <trkpt lat="32.892647" lon="-1.780179">
   <ele>1319.00</ele>
   <time>2014-04-05T12:46:06Z</time>
  </trkpt>
  <trkpt lat="32.892819" lon="-1.780270">
   <ele>1319.00</ele>
   <time>2014-04-05T12:46:09Z</time>
  </trkpt>
  <trkpt lat="32.893008" lon="-1.780354">
   <ele>1320.00</ele>
   <time>2014-04-05T12:46:12Z</time>
  </trkpt>
  <trkpt lat="32.893266" lon="-1.780459">
   <ele>1321.00</ele>
   <time>2014-04-05T12:46:16Z</time>
  </trkpt>
  <trkpt lat="32.893440" lon="-1.780516">
   <ele>1321.00</ele>
   <time>2014-04-05T12:46:19Z</time>
  </trkpt>
  <trkpt lat="32.893621" lon="-1.780560">
   <ele>1322.00</ele>
   <time>2014-04-05T12:46:22Z</time>
  </trkpt>
  <trkpt lat="32.893807" lon="-1.780637">
   <ele>1322.00</ele>
   <time>2014-04-05T12:46:25Z</time>
  </trkpt>
  <trkpt lat="32.894000" lon="-1.780735">
   <ele>1323.00</ele>
   <time>2014-04-05T12:46:28Z</time>
  </trkpt>
  <trkpt lat="32.894205" lon="-1.780809">
   <ele>1324.00</ele>
   <time>2014-04-05T12:46:31Z</time>
  </trkpt>
  <trkpt lat="32.894403" lon="-1.780836">
   <ele>1325.00</ele>
   <time>2014-04-05T12:46:34Z</time>
  </trkpt>
  <trkpt lat="32.894586" lon="-1.780811">
   <ele>1326.00</ele>
   <time>2014-04-05T12:46:37Z</time>
  </trkpt>
  <trkpt lat="32.894807" lon="-1.780770">
   <ele>1327.00</ele>
   <time>2014-04-05T12:46:41Z</time>
  </trkpt>
  <trkpt lat="32.895040" lon="-1.780757">
   <ele>1328.00</ele>
   <time>2014-04-05T12:46:45Z</time>
  </trkpt>
  <trkpt lat="32.895207" lon="-1.780841">
   <ele>1328.00</ele>
   <time>2014-04-05T12:46:48Z</time>
  </trkpt>
  <trkpt lat="32.895382" lon="-1.780975">
   <ele>1328.00</ele>
   <time>2014-04-05T12:46:51Z</time>
  </trkpt>
  <trkpt lat="32.895544" lon="-1.781148">
   <ele>1328.00</ele>
   <time>2014-04-05T12:46:54Z</time>
  </trkpt>
  <trkpt lat="32.895708" lon="-1.781328">
   <ele>1328.00</ele>
   <time>2014-04-05T12:46:57Z</time>
  </trkpt>
  <trkpt lat="32.895915" lon="-1.781543">
   <ele>1328.00</ele>
   <time>2014-04-05T12:47:01Z</time>
  </trkpt>
  <trkpt lat="32.896060" lon="-1.781678">
   <ele>1328.00</ele>
   <time>2014-04-05T12:47:04Z</time>
  </trkpt>
  <trkpt lat="32.896260" lon="-1.781801">
   <ele>1327.00</ele>
   <time>2014-04-05T12:47:08Z</time>
  </trkpt>
  <trkpt lat="32.896509" lon="-1.781904">
   <ele>1326.00</ele>
   <time>2014-04-05T12:47:12Z</time>
  </trkpt>
  <trkpt lat="32.896723" lon="-1.782004">
   <ele>1326.00</ele>
   <time>2014-04-05T12:47:15Z</time>
  </trkpt>
  <trkpt lat="32.896959" lon="-1.782068">
   <ele>1326.00</ele>
   <time>2014-04-05T12:47:18Z</time>
  </trkpt>
  <trkpt lat="32.897211" lon="-1.782158">
   <ele>1325.00</ele>
   <time>2014-04-05T12:47:21Z</time>
  </trkpt>
  <trkpt lat="32.897443" lon="-1.782292">
   <ele>1325.00</ele>
   <time>2014-04-05T12:47:24Z</time>
  </trkpt>
  <trkpt lat="32.897634" lon="-1.782444">
   <ele>1325.00</ele>
   <time>2014-04-05T12:47:27Z</time>
  </trkpt>
  <trkpt lat="32.897806" lon="-1.782610">
   <ele>1325.00</ele>
   <time>2014-04-05T12:47:30Z</time>
  </trkpt>
  <trkpt lat="32.897994" lon="-1.782763">
   <ele>1325.00</ele>
   <time>2014-04-05T12:47:33Z</time>
  </trkpt>
  <trkpt lat="32.898275" lon="-1.782936">
   <ele>1324.00</ele>
   <time>2014-04-05T12:47:37Z</time>
  </trkpt>
  <trkpt lat="32.898537" lon="-1.783145">
   <ele>1324.00</ele>
   <time>2014-04-05T12:47:41Z</time>
  </trkpt>
  <trkpt lat="32.898737" lon="-1.783261">
   <ele>1324.00</ele>
   <time>2014-04-05T12:47:44Z</time>
  </trkpt>
  <trkpt lat="32.898923" lon="-1.783384">
   <ele>1324.00</ele>
   <time>2014-04-05T12:47:47Z</time>
  </trkpt>
  <trkpt lat="32.899081" lon="-1.783557">
   <ele>1324.00</ele>
   <time>2014-04-05T12:47:50Z</time>
  </trkpt>
  <trkpt lat="32.899228" lon="-1.783726">
   <ele>1324.00</ele>
   <time>2014-04-05T12:47:53Z</time>
  </trkpt>
  <trkpt lat="32.899391" lon="-1.783857">
   <ele>1324.00</ele>
   <time>2014-04-05T12:47:56Z</time>
  </trkpt>
  <trkpt lat="32.899592" lon="-1.783939">
   <ele>1323.00</ele>
   <time>2014-04-05T12:47:59Z</time>
  </trkpt>
  <trkpt lat="32.899827" lon="-1.783975">
   <ele>1323.00</ele>
   <time>2014-04-05T12:48:02Z</time>
  </trkpt>
  <trkpt lat="32.900070" lon="-1.783967">
   <ele>1323.00</ele>
   <time>2014-04-05T12:48:05Z</time>
  </trkpt>
  <trkpt lat="32.900287" lon="-1.784024">
   <ele>1323.00</ele>
   <time>2014-04-05T12:48:08Z</time>
  </trkpt>
  <trkpt lat="32.900482" lon="-1.784147">
   <ele>1323.00</ele>
   <time>2014-04-05T12:48:11Z</time>
  </trkpt>
  <trkpt lat="32.900690" lon="-1.784290">
   <ele>1323.00</ele>
   <time>2014-04-05T12:48:14Z</time>
  </trkpt>
  <trkpt lat="32.901850" lon="-1.785078">
   <ele>1323.00</ele>
   <time>2014-04-05T12:48:29Z</time>
  </trkpt>
  <trkpt lat="32.902043" lon="-1.785253">
   <ele>1323.00</ele>
   <time>2014-04-05T12:48:32Z</time>
  </trkpt>
  <trkpt lat="32.902216" lon="-1.785457">
   <ele>1323.00</ele>
   <time>2014-04-05T12:48:35Z</time>
  </trkpt>
  <trkpt lat="32.902399" lon="-1.785647">
   <ele>1323.00</ele>
   <time>2014-04-05T12:48:38Z</time>
  </trkpt>
  <trkpt lat="32.902587" lon="-1.785842">
   <ele>1322.00</ele>
   <time>2014-04-05T12:48:41Z</time>
  </trkpt>
  <trkpt lat="32.902768" lon="-1.786059">
   <ele>1322.00</ele>
   <time>2014-04-05T12:48:44Z</time>
  </trkpt>
  <trkpt lat="32.902949" lon="-1.786277">
   <ele>1322.00</ele>
   <time>2014-04-05T12:48:47Z</time>
  </trkpt>
  <trkpt lat="32.903153" lon="-1.786449">
   <ele>1322.00</ele>
   <time>2014-04-05T12:48:50Z</time>
  </trkpt>
  <trkpt lat="32.903309" lon="-1.786681">
   <ele>1323.00</ele>
   <time>2014-04-05T12:48:53Z</time>
  </trkpt>
  <trkpt lat="32.903452" lon="-1.786919">
   <ele>1323.00</ele>
   <time>2014-04-05T12:48:56Z</time>
  </trkpt>
  <trkpt lat="32.903979" lon="-1.787666">
   <ele>1323.00</ele>
   <time>2014-04-05T12:49:06Z</time>
  </trkpt>
  <trkpt lat="32.904129" lon="-1.787910">
   <ele>1324.00</ele>
   <time>2014-04-05T12:49:09Z</time>
  </trkpt>
  <trkpt lat="32.904314" lon="-1.788123">
   <ele>1324.00</ele>
   <time>2014-04-05T12:49:12Z</time>
  </trkpt>
  <trkpt lat="32.904514" lon="-1.788326">
   <ele>1324.00</ele>
   <time>2014-04-05T12:49:15Z</time>
  </trkpt>
  <trkpt lat="32.904682" lon="-1.788571">
   <ele>1324.00</ele>
   <time>2014-04-05T12:49:18Z</time>
  </trkpt>
  <trkpt lat="32.904832" lon="-1.788806">
   <ele>1324.00</ele>
   <time>2014-04-05T12:49:21Z</time>
  </trkpt>
  <trkpt lat="32.904991" lon="-1.789009">
   <ele>1324.00</ele>
   <time>2014-04-05T12:49:24Z</time>
  </trkpt>
  <trkpt lat="32.905197" lon="-1.789155">
   <ele>1324.00</ele>
   <time>2014-04-05T12:49:27Z</time>
  </trkpt>
  <trkpt lat="32.905429" lon="-1.789269">
   <ele>1323.00</ele>
   <time>2014-04-05T12:49:30Z</time>
  </trkpt>
  <trkpt lat="32.905663" lon="-1.789365">
   <ele>1322.00</ele>
   <time>2014-04-05T12:49:33Z</time>
  </trkpt>
  <trkpt lat="32.905875" lon="-1.789427">
   <ele>1322.00</ele>
   <time>2014-04-05T12:49:36Z</time>
  </trkpt>
  <trkpt lat="32.906093" lon="-1.789366">
   <ele>1322.00</ele>
   <time>2014-04-05T12:49:40Z</time>
  </trkpt>
  <trkpt lat="32.906303" lon="-1.789357">
   <ele>1322.00</ele>
   <time>2014-04-05T12:49:44Z</time>
  </trkpt>
  <trkpt lat="32.906514" lon="-1.789407">
   <ele>1321.00</ele>
   <time>2014-04-05T12:49:48Z</time>
  </trkpt>
  <trkpt lat="32.906922" lon="-1.789441">
   <ele>1321.00</ele>
   <time>2014-04-05T12:49:54Z</time>
  </trkpt>
  <trkpt lat="32.907136" lon="-1.789511">
   <ele>1321.00</ele>
   <time>2014-04-05T12:49:57Z</time>
  </trkpt>
  <trkpt lat="32.907314" lon="-1.789619">
   <ele>1322.00</ele>
   <time>2014-04-05T12:50:00Z</time>
  </trkpt>
  <trkpt lat="32.907492" lon="-1.789730">
   <ele>1322.00</ele>
   <time>2014-04-05T12:50:04Z</time>
  </trkpt>
  <trkpt lat="32.907682" lon="-1.789790">
   <ele>1323.00</ele>
   <time>2014-04-05T12:50:09Z</time>
  </trkpt>
  <trkpt lat="32.907926" lon="-1.789860">
   <ele>1323.00</ele>
   <time>2014-04-05T12:50:14Z</time>
  </trkpt>
  <trkpt lat="32.908104" lon="-1.789897">
   <ele>1323.00</ele>
   <time>2014-04-05T12:50:17Z</time>
  </trkpt>
  <trkpt lat="32.908330" lon="-1.789979">
   <ele>1323.00</ele>
   <time>2014-04-05T12:50:20Z</time>
  </trkpt>
  <trkpt lat="32.908613" lon="-1.790107">
   <ele>1323.00</ele>
   <time>2014-04-05T12:50:24Z</time>
  </trkpt>
  <trkpt lat="32.908799" lon="-1.790191">
   <ele>1324.00</ele>
   <time>2014-04-05T12:50:30Z</time>
  </trkpt>
  <trkpt lat="32.909023" lon="-1.790297">
   <ele>1324.00</ele>
   <time>2014-04-05T12:50:34Z</time>
  </trkpt>
  <trkpt lat="32.909204" lon="-1.790413">
   <ele>1325.00</ele>
   <time>2014-04-05T12:50:37Z</time>
  </trkpt>
  <trkpt lat="32.909409" lon="-1.790544">
   <ele>1325.00</ele>
   <time>2014-04-05T12:50:40Z</time>
  </trkpt>
  <trkpt lat="32.909634" lon="-1.790663">
   <ele>1326.00</ele>
   <time>2014-04-05T12:50:43Z</time>
  </trkpt>
  <trkpt lat="32.909873" lon="-1.790767">
   <ele>1327.00</ele>
   <time>2014-04-05T12:50:46Z</time>
  </trkpt>
  <trkpt lat="32.910189" lon="-1.790886">
   <ele>1328.00</ele>
   <time>2014-04-05T12:50:50Z</time>
  </trkpt>
  <trkpt lat="32.910469" lon="-1.791040">
   <ele>1330.00</ele>
   <time>2014-04-05T12:50:54Z</time>
  </trkpt>
  <trkpt lat="32.910706" lon="-1.791070">
   <ele>1331.00</ele>
   <time>2014-04-05T12:50:57Z</time>
  </trkpt>
  <trkpt lat="32.910927" lon="-1.791124">
   <ele>1332.00</ele>
   <time>2014-04-05T12:51:00Z</time>
  </trkpt>
  <trkpt lat="32.911109" lon="-1.791207">
   <ele>1333.00</ele>
   <time>2014-04-05T12:51:03Z</time>
  </trkpt>
  <trkpt lat="32.911283" lon="-1.791271">
   <ele>1334.00</ele>
   <time>2014-04-05T12:51:06Z</time>
  </trkpt>
  <trkpt lat="32.911495" lon="-1.791323">
   <ele>1335.00</ele>
   <time>2014-04-05T12:51:09Z</time>
  </trkpt>
  <trkpt lat="32.911689" lon="-1.791473">
   <ele>1335.00</ele>
   <time>2014-04-05T12:51:12Z</time>
  </trkpt>
  <trkpt lat="32.912498" lon="-1.792222">
   <ele>1337.00</ele>
   <time>2014-04-05T12:51:23Z</time>
  </trkpt>
  <trkpt lat="32.912636" lon="-1.792367">
   <ele>1338.00</ele>
   <time>2014-04-05T12:51:25Z</time>
  </trkpt>
  <trkpt lat="32.912825" lon="-1.792590">
   <ele>1339.00</ele>
   <time>2014-04-05T12:51:28Z</time>
  </trkpt>
  <trkpt lat="32.913057" lon="-1.792901">
   <ele>1340.00</ele>
   <time>2014-04-05T12:51:32Z</time>
  </trkpt>
  <trkpt lat="32.913210" lon="-1.793156">
   <ele>1340.00</ele>
   <time>2014-04-05T12:51:35Z</time>
  </trkpt>
  <trkpt lat="32.913335" lon="-1.793408">
   <ele>1342.00</ele>
   <time>2014-04-05T12:51:38Z</time>
  </trkpt>
  <trkpt lat="32.913478" lon="-1.793736">
   <ele>1343.00</ele>
   <time>2014-04-05T12:51:42Z</time>
  </trkpt>
  <trkpt lat="32.913528" lon="-1.793964">
   <ele>1344.00</ele>
   <time>2014-04-05T12:51:45Z</time>
  </trkpt>
  <trkpt lat="32.913587" lon="-1.794177">
   <ele>1345.00</ele>
   <time>2014-04-05T12:51:48Z</time>
  </trkpt>
  <trkpt lat="32.913668" lon="-1.794415">
   <ele>1345.00</ele>
   <time>2014-04-05T12:51:51Z</time>
  </trkpt>
  <trkpt lat="32.913931" lon="-1.795054">
   <ele>1345.00</ele>
   <time>2014-04-05T12:51:59Z</time>
  </trkpt>
  <trkpt lat="32.914030" lon="-1.795315">
   <ele>1345.00</ele>
   <time>2014-04-05T12:52:02Z</time>
  </trkpt>
  <trkpt lat="32.914124" lon="-1.795606">
   <ele>1344.00</ele>
   <time>2014-04-05T12:52:05Z</time>
  </trkpt>
  <trkpt lat="32.914216" lon="-1.795826">
   <ele>1343.00</ele>
   <time>2014-04-05T12:52:07Z</time>
  </trkpt>
  <trkpt lat="32.914657" lon="-1.796956">
   <ele>1343.00</ele>
   <time>2014-04-05T12:52:15Z</time>
  </trkpt>
  <trkpt lat="32.914890" lon="-1.797480">
   <ele>1343.00</ele>
   <time>2014-04-05T12:52:19Z</time>
  </trkpt>
  <trkpt lat="32.915047" lon="-1.797819">
   <ele>1343.00</ele>
   <time>2014-04-05T12:52:22Z</time>
  </trkpt>
  <trkpt lat="32.915133" lon="-1.798020">
   <ele>1343.00</ele>
   <time>2014-04-05T12:52:24Z</time>
  </trkpt>
  <trkpt lat="32.915251" lon="-1.798300">
   <ele>1343.00</ele>
   <time>2014-04-05T12:52:27Z</time>
  </trkpt>
  <trkpt lat="32.915372" lon="-1.798570">
   <ele>1342.00</ele>
   <time>2014-04-05T12:52:30Z</time>
  </trkpt>
  <trkpt lat="32.915459" lon="-1.798759">
   <ele>1342.00</ele>
   <time>2014-04-05T12:52:32Z</time>
  </trkpt>
  <trkpt lat="32.915580" lon="-1.799068">
   <ele>1341.00</ele>
   <time>2014-04-05T12:52:35Z</time>
  </trkpt>
  <trkpt lat="32.915660" lon="-1.799272">
   <ele>1340.00</ele>
   <time>2014-04-05T12:52:37Z</time>
  </trkpt>
  <trkpt lat="32.915763" lon="-1.799470">
   <ele>1340.00</ele>
   <time>2014-04-05T12:52:39Z</time>
  </trkpt>
  <trkpt lat="32.915895" lon="-1.799648">
   <ele>1339.00</ele>
   <time>2014-04-05T12:52:41Z</time>
  </trkpt>
  <trkpt lat="32.916029" lon="-1.799818">
   <ele>1339.00</ele>
   <time>2014-04-05T12:52:43Z</time>
  </trkpt>
  <trkpt lat="32.916153" lon="-1.799992">
   <ele>1338.00</ele>
   <time>2014-04-05T12:52:45Z</time>
  </trkpt>
  <trkpt lat="32.916268" lon="-1.800174">
   <ele>1338.00</ele>
   <time>2014-04-05T12:52:47Z</time>
  </trkpt>
  <trkpt lat="32.916451" lon="-1.800459">
   <ele>1338.00</ele>
   <time>2014-04-05T12:52:50Z</time>
  </trkpt>
  <trkpt lat="32.916651" lon="-1.800739">
   <ele>1338.00</ele>
   <time>2014-04-05T12:52:53Z</time>
  </trkpt>
  <trkpt lat="32.916788" lon="-1.800895">
   <ele>1338.00</ele>
   <time>2014-04-05T12:52:55Z</time>
  </trkpt>
  <trkpt lat="32.916948" lon="-1.801004">
   <ele>1337.00</ele>
   <time>2014-04-05T12:52:57Z</time>
  </trkpt>
  <trkpt lat="32.917117" lon="-1.801088">
   <ele>1336.00</ele>
   <time>2014-04-05T12:52:59Z</time>
  </trkpt>
  <trkpt lat="32.917289" lon="-1.801305">
   <ele>1336.00</ele>
   <time>2014-04-05T12:53:02Z</time>
  </trkpt>
  <trkpt lat="32.917324" lon="-1.801607">
   <ele>1336.00</ele>
   <time>2014-04-05T12:53:05Z</time>
  </trkpt>
  <trkpt lat="32.917365" lon="-1.802175">
   <ele>1337.00</ele>
   <time>2014-04-05T12:53:10Z</time>
  </trkpt>
  <trkpt lat="32.917402" lon="-1.802451">
   <ele>1338.00</ele>
   <time>2014-04-05T12:53:12Z</time>
  </trkpt>
  <trkpt lat="32.917454" lon="-1.802761">
   <ele>1338.00</ele>
   <time>2014-04-05T12:53:14Z</time>
  </trkpt>
  <trkpt lat="32.917519" lon="-1.803064">
   <ele>1339.00</ele>
   <time>2014-04-05T12:53:16Z</time>
  </trkpt>
  <trkpt lat="32.917601" lon="-1.803371">
   <ele>1339.00</ele>
   <time>2014-04-05T12:53:18Z</time>
  </trkpt>
  <trkpt lat="32.917709" lon="-1.803686">
   <ele>1340.00</ele>
   <time>2014-04-05T12:53:20Z</time>
  </trkpt>
  <trkpt lat="32.917965" lon="-1.804334">
   <ele>1340.00</ele>
   <time>2014-04-05T12:53:24Z</time>
  </trkpt>
  <trkpt lat="32.918378" lon="-1.805322">
   <ele>1341.00</ele>
   <time>2014-04-05T12:53:30Z</time>
  </trkpt>
  <trkpt lat="32.918531" lon="-1.805760">
   <ele>1342.00</ele>
   <time>2014-04-05T12:53:33Z</time>
  </trkpt>
  <trkpt lat="32.918607" lon="-1.805988">
   <ele>1342.00</ele>
   <time>2014-04-05T12:53:35Z</time>
  </trkpt>
  <trkpt lat="32.918698" lon="-1.806194">
   <ele>1341.00</ele>
   <time>2014-04-05T12:53:38Z</time>
  </trkpt>
  <trkpt lat="32.918952" lon="-1.806653">
   <ele>1339.00</ele>
   <time>2014-04-05T12:53:44Z</time>
  </trkpt>
  <trkpt lat="32.919415" lon="-1.807542">
   <ele>1338.00</ele>
   <time>2014-04-05T12:53:52Z</time>
  </trkpt>
  <trkpt lat="32.919624" lon="-1.807915">
   <ele>1338.00</ele>
   <time>2014-04-05T12:53:56Z</time>
  </trkpt>
  <trkpt lat="32.919822" lon="-1.808317">
   <ele>1340.00</ele>
   <time>2014-04-05T12:54:02Z</time>
  </trkpt>
  <trkpt lat="32.919868" lon="-1.808403">
   <ele>1343.00</ele>
   <time>2014-04-05T12:54:18Z</time>
  </trkpt>
  <trkpt lat="32.919863" lon="-1.808395">
   <ele>1344.00</ele>
   <time>2014-04-05T12:54:33Z</time>
  </trkpt>
  <trkpt lat="32.919886" lon="-1.808448">
   <ele>1343.00</ele>
   <time>2014-04-05T12:54:49Z</time>
  </trkpt>
  <trkpt lat="32.919989" lon="-1.808636">
   <ele>1341.00</ele>
   <time>2014-04-05T12:54:55Z</time>
  </trkpt>
  <trkpt lat="32.920243" lon="-1.809071">
   <ele>1338.00</ele>
   <time>2014-04-05T12:55:02Z</time>
  </trkpt>
  <trkpt lat="32.920357" lon="-1.809261">
   <ele>1337.00</ele>
   <time>2014-04-05T12:55:05Z</time>
  </trkpt>
  <trkpt lat="32.920513" lon="-1.809546">
   <ele>1335.00</ele>
   <time>2014-04-05T12:55:10Z</time>
  </trkpt>
  <trkpt lat="32.920648" lon="-1.809774">
   <ele>1334.00</ele>
   <time>2014-04-05T12:55:14Z</time>
  </trkpt>
  <trkpt lat="32.920769" lon="-1.809989">
   <ele>1333.00</ele>
   <time>2014-04-05T12:55:18Z</time>
  </trkpt>
  <trkpt lat="32.920879" lon="-1.810179">
   <ele>1333.00</ele>
   <time>2014-04-05T12:55:22Z</time>
  </trkpt>
  <trkpt lat="32.920992" lon="-1.810365">
   <ele>1333.00</ele>
   <time>2014-04-05T12:55:28Z</time>
  </trkpt>
  <trkpt lat="32.921318" lon="-1.810891">
   <ele>1332.00</ele>
   <time>2014-04-05T12:55:36Z</time>
  </trkpt>
  <trkpt lat="32.921690" lon="-1.811464">
   <ele>1332.00</ele>
   <time>2014-04-05T12:55:43Z</time>
  </trkpt>
  <trkpt lat="32.921822" lon="-1.811705">
   <ele>1333.00</ele>
   <time>2014-04-05T12:55:46Z</time>
  </trkpt>
  <trkpt lat="32.921981" lon="-1.812017">
   <ele>1334.00</ele>
   <time>2014-04-05T12:55:50Z</time>
  </trkpt>
  <trkpt lat="32.922187" lon="-1.812361">
   <ele>1335.00</ele>
   <time>2014-04-05T12:55:55Z</time>
  </trkpt>
  <trkpt lat="32.922325" lon="-1.812529">
   <ele>1337.00</ele>
   <time>2014-04-05T12:55:58Z</time>
  </trkpt>
  <trkpt lat="32.922444" lon="-1.812744">
   <ele>1338.00</ele>
   <time>2014-04-05T12:56:02Z</time>
  </trkpt>
  <trkpt lat="32.922541" lon="-1.812934">
   <ele>1339.00</ele>
   <time>2014-04-05T12:56:05Z</time>
  </trkpt>
  <trkpt lat="32.922744" lon="-1.813284">
   <ele>1339.00</ele>
   <time>2014-04-05T12:56:10Z</time>
  </trkpt>
  <trkpt lat="32.922823" lon="-1.813494">
   <ele>1339.00</ele>
   <time>2014-04-05T12:56:13Z</time>
  </trkpt>
  <trkpt lat="32.922856" lon="-1.813769">
   <ele>1340.00</ele>
   <time>2014-04-05T12:56:17Z</time>
  </trkpt>
  <trkpt lat="32.922857" lon="-1.813998">
   <ele>1341.00</ele>
   <time>2014-04-05T12:56:20Z</time>
  </trkpt>
  <trkpt lat="32.922945" lon="-1.814197">
   <ele>1341.00</ele>
   <time>2014-04-05T12:56:23Z</time>
  </trkpt>
  <trkpt lat="32.923059" lon="-1.814383">
   <ele>1342.00</ele>
   <time>2014-04-05T12:56:26Z</time>
  </trkpt>
  <trkpt lat="32.923172" lon="-1.814557">
   <ele>1343.00</ele>
   <time>2014-04-05T12:56:29Z</time>
  </trkpt>
  <trkpt lat="32.923328" lon="-1.814701">
   <ele>1343.00</ele>
   <time>2014-04-05T12:56:32Z</time>
  </trkpt>
  <trkpt lat="32.923820" lon="-1.815090">
   <ele>1344.00</ele>
   <time>2014-04-05T12:56:39Z</time>
  </trkpt>
  <trkpt lat="32.924048" lon="-1.815265">
   <ele>1344.00</ele>
   <time>2014-04-05T12:56:42Z</time>
  </trkpt>
  <trkpt lat="32.924246" lon="-1.815476">
   <ele>1344.00</ele>
   <time>2014-04-05T12:56:45Z</time>
  </trkpt>
  <trkpt lat="32.924357" lon="-1.815645">
   <ele>1345.00</ele>
   <time>2014-04-05T12:56:47Z</time>
  </trkpt>
  <trkpt lat="32.924518" lon="-1.815900">
   <ele>1346.00</ele>
   <time>2014-04-05T12:56:50Z</time>
  </trkpt>
  <trkpt lat="32.924761" lon="-1.816202">
   <ele>1347.00</ele>
   <time>2014-04-05T12:56:54Z</time>
  </trkpt>
  <trkpt lat="32.924898" lon="-1.816481">
   <ele>1347.00</ele>
   <time>2014-04-05T12:56:57Z</time>
  </trkpt>
  <trkpt lat="32.924973" lon="-1.816688">
   <ele>1348.00</ele>
   <time>2014-04-05T12:56:59Z</time>
  </trkpt>
  <trkpt lat="32.925107" lon="-1.817093">
   <ele>1349.00</ele>
   <time>2014-04-05T12:57:03Z</time>
  </trkpt>
  <trkpt lat="32.925338" lon="-1.817667">
   <ele>1350.00</ele>
   <time>2014-04-05T12:57:09Z</time>
  </trkpt>
  <trkpt lat="32.925467" lon="-1.817951">
   <ele>1351.00</ele>
   <time>2014-04-05T12:57:12Z</time>
  </trkpt>
  <trkpt lat="32.925557" lon="-1.818182">
   <ele>1350.00</ele>
   <time>2014-04-05T12:57:15Z</time>
  </trkpt>
  <trkpt lat="32.926010" lon="-1.819270">
   <ele>1350.00</ele>
   <time>2014-04-05T12:57:26Z</time>
  </trkpt>
  <trkpt lat="32.926152" lon="-1.819686">
   <ele>1351.00</ele>
   <time>2014-04-05T12:57:30Z</time>
  </trkpt>
  <trkpt lat="32.926303" lon="-1.820127">
   <ele>1351.00</ele>
   <time>2014-04-05T12:57:34Z</time>
  </trkpt>
  <trkpt lat="32.926394" lon="-1.820352">
   <ele>1351.00</ele>
   <time>2014-04-05T12:57:36Z</time>
  </trkpt>
  <trkpt lat="32.927020" lon="-1.821830">
   <ele>1351.00</ele>
   <time>2014-04-05T12:57:49Z</time>
  </trkpt>
  <trkpt lat="32.927221" lon="-1.822266">
   <ele>1351.00</ele>
   <time>2014-04-05T12:57:53Z</time>
  </trkpt>
  <trkpt lat="32.927393" lon="-1.822703">
   <ele>1350.00</ele>
   <time>2014-04-05T12:57:57Z</time>
  </trkpt>
  <trkpt lat="32.927468" lon="-1.822967">
   <ele>1350.00</ele>
   <time>2014-04-05T12:58:00Z</time>
  </trkpt>
  <trkpt lat="32.927542" lon="-1.823174">
   <ele>1350.00</ele>
   <time>2014-04-05T12:58:03Z</time>
  </trkpt>
  <trkpt lat="32.927668" lon="-1.823486">
   <ele>1348.00</ele>
   <time>2014-04-05T12:58:07Z</time>
  </trkpt>
  <trkpt lat="32.927736" lon="-1.823740">
   <ele>1348.00</ele>
   <time>2014-04-05T12:58:10Z</time>
  </trkpt>
  <trkpt lat="32.927852" lon="-1.823966">
   <ele>1347.00</ele>
   <time>2014-04-05T12:58:15Z</time>
  </trkpt>
  <trkpt lat="32.927967" lon="-1.824147">
   <ele>1347.00</ele>
   <time>2014-04-05T12:58:18Z</time>
  </trkpt>
  <trkpt lat="32.928094" lon="-1.824370">
   <ele>1348.00</ele>
   <time>2014-04-05T12:58:21Z</time>
  </trkpt>
  <trkpt lat="32.928212" lon="-1.824600">
   <ele>1349.00</ele>
   <time>2014-04-05T12:58:24Z</time>
  </trkpt>
  <trkpt lat="32.928415" lon="-1.825049">
   <ele>1350.00</ele>
   <time>2014-04-05T12:58:30Z</time>
  </trkpt>
  <trkpt lat="32.928690" lon="-1.825694">
   <ele>1352.00</ele>
   <time>2014-04-05T12:58:38Z</time>
  </trkpt>
  <trkpt lat="32.928803" lon="-1.825942">
   <ele>1353.00</ele>
   <time>2014-04-05T12:58:41Z</time>
  </trkpt>
  <trkpt lat="32.929041" lon="-1.826510">
   <ele>1353.00</ele>
   <time>2014-04-05T12:58:47Z</time>
  </trkpt>
  <trkpt lat="32.929753" lon="-1.827945">
   <ele>1351.00</ele>
   <time>2014-04-05T12:59:00Z</time>
  </trkpt>
  <trkpt lat="32.929849" lon="-1.828139">
   <ele>1351.00</ele>
   <time>2014-04-05T12:59:02Z</time>
  </trkpt>
  <trkpt lat="32.929927" lon="-1.828338">
   <ele>1351.00</ele>
   <time>2014-04-05T12:59:04Z</time>
  </trkpt>
  <trkpt lat="32.930064" lon="-1.828804">
   <ele>1352.00</ele>
   <time>2014-04-05T12:59:12Z</time>
  </trkpt>
  <trkpt lat="32.930169" lon="-1.829036">
   <ele>1352.00</ele>
   <time>2014-04-05T12:59:15Z</time>
  </trkpt>
  <trkpt lat="32.930299" lon="-1.829293">
   <ele>1353.00</ele>
   <time>2014-04-05T12:59:18Z</time>
  </trkpt>
  <trkpt lat="32.930466" lon="-1.829515">
   <ele>1353.00</ele>
   <time>2014-04-05T12:59:21Z</time>
  </trkpt>
  <trkpt lat="32.930632" lon="-1.829749">
   <ele>1354.00</ele>
   <time>2014-04-05T12:59:24Z</time>
  </trkpt>
  <trkpt lat="32.930718" lon="-1.829945">
   <ele>1354.00</ele>
   <time>2014-04-05T12:59:26Z</time>
  </trkpt>
  <trkpt lat="32.930794" lon="-1.830151">
   <ele>1355.00</ele>
   <time>2014-04-05T12:59:28Z</time>
  </trkpt>
  <trkpt lat="32.930859" lon="-1.830354">
   <ele>1356.00</ele>
   <time>2014-04-05T12:59:30Z</time>
  </trkpt>
  <trkpt lat="32.930979" lon="-1.830624">
   <ele>1356.00</ele>
   <time>2014-04-05T12:59:33Z</time>
  </trkpt>
  <trkpt lat="32.931161" lon="-1.830864">
   <ele>1356.00</ele>
   <time>2014-04-05T12:59:36Z</time>
  </trkpt>
  <trkpt lat="32.931277" lon="-1.831031">
   <ele>1356.00</ele>
   <time>2014-04-05T12:59:38Z</time>
  </trkpt>
  <trkpt lat="32.931374" lon="-1.831217">
   <ele>1356.00</ele>
   <time>2014-04-05T12:59:40Z</time>
  </trkpt>
  <trkpt lat="32.931559" lon="-1.831627">
   <ele>1357.00</ele>
   <time>2014-04-05T12:59:44Z</time>
  </trkpt>
  <trkpt lat="32.931669" lon="-1.831816">
   <ele>1357.00</ele>
   <time>2014-04-05T12:59:46Z</time>
  </trkpt>
  <trkpt lat="32.932039" lon="-1.832394">
   <ele>1357.00</ele>
   <time>2014-04-05T12:59:52Z</time>
  </trkpt>
  <trkpt lat="32.932212" lon="-1.832714">
   <ele>1356.00</ele>
   <time>2014-04-05T12:59:55Z</time>
  </trkpt>
  <trkpt lat="32.932311" lon="-1.832930">
   <ele>1356.00</ele>
   <time>2014-04-05T12:59:57Z</time>
  </trkpt>
  <trkpt lat="32.932387" lon="-1.833146">
   <ele>1355.00</ele>
   <time>2014-04-05T12:59:59Z</time>
  </trkpt>
  <trkpt lat="32.932483" lon="-1.833428">
   <ele>1355.00</ele>
   <time>2014-04-05T13:00:02Z</time>
  </trkpt>
  <trkpt lat="32.932565" lon="-1.833682">
   <ele>1354.00</ele>
   <time>2014-04-05T13:00:05Z</time>
  </trkpt>
  <trkpt lat="32.932633" lon="-1.833953">
   <ele>1353.00</ele>
   <time>2014-04-05T13:00:08Z</time>
  </trkpt>
  <trkpt lat="32.932702" lon="-1.834221">
   <ele>1352.00</ele>
   <time>2014-04-05T13:00:11Z</time>
  </trkpt>
  <trkpt lat="32.932838" lon="-1.834450">
   <ele>1352.00</ele>
   <time>2014-04-05T13:00:14Z</time>
  </trkpt>
  <trkpt lat="32.932976" lon="-1.834711">
   <ele>1352.00</ele>
   <time>2014-04-05T13:00:17Z</time>
  </trkpt>
  <trkpt lat="32.933079" lon="-1.835010">
   <ele>1351.00</ele>
   <time>2014-04-05T13:00:20Z</time>
  </trkpt>
  <trkpt lat="32.933158" lon="-1.835329">
   <ele>1350.00</ele>
   <time>2014-04-05T13:00:23Z</time>
  </trkpt>
  <trkpt lat="32.933386" lon="-1.836073">
   <ele>1351.00</ele>
   <time>2014-04-05T13:00:30Z</time>
  </trkpt>
  <trkpt lat="32.933435" lon="-1.836308">
   <ele>1351.00</ele>
   <time>2014-04-05T13:00:32Z</time>
  </trkpt>
  <trkpt lat="32.933546" lon="-1.836903">
   <ele>1351.00</ele>
   <time>2014-04-05T13:00:37Z</time>
  </trkpt>
  <trkpt lat="32.933740" lon="-1.837823">
   <ele>1350.00</ele>
   <time>2014-04-05T13:00:45Z</time>
  </trkpt>
  <trkpt lat="32.933784" lon="-1.838048">
   <ele>1350.00</ele>
   <time>2014-04-05T13:00:47Z</time>
  </trkpt>
  <trkpt lat="32.933853" lon="-1.838261">
   <ele>1350.00</ele>
   <time>2014-04-05T13:00:49Z</time>
  </trkpt>
  <trkpt lat="32.933940" lon="-1.838464">
   <ele>1349.00</ele>
   <time>2014-04-05T13:00:51Z</time>
  </trkpt>
  <trkpt lat="32.934039" lon="-1.838654">
   <ele>1349.00</ele>
   <time>2014-04-05T13:00:53Z</time>
  </trkpt>
  <trkpt lat="32.934312" lon="-1.839140">
   <ele>1348.00</ele>
   <time>2014-04-05T13:00:58Z</time>
  </trkpt>
  <trkpt lat="32.934655" lon="-1.839718">
   <ele>1347.00</ele>
   <time>2014-04-05T13:01:04Z</time>
  </trkpt>
  <trkpt lat="32.934779" lon="-1.839895">
   <ele>1347.00</ele>
   <time>2014-04-05T13:01:06Z</time>
  </trkpt>
  <trkpt lat="32.934901" lon="-1.840066">
   <ele>1346.00</ele>
   <time>2014-04-05T13:01:08Z</time>
  </trkpt>
  <trkpt lat="32.935182" lon="-1.840506">
   <ele>1345.00</ele>
   <time>2014-04-05T13:01:13Z</time>
  </trkpt>
  <trkpt lat="32.935295" lon="-1.840691">
   <ele>1344.00</ele>
   <time>2014-04-05T13:01:15Z</time>
  </trkpt>
  <trkpt lat="32.935424" lon="-1.840872">
   <ele>1343.00</ele>
   <time>2014-04-05T13:01:17Z</time>
  </trkpt>
  <trkpt lat="32.935568" lon="-1.841054">
   <ele>1343.00</ele>
   <time>2014-04-05T13:01:19Z</time>
  </trkpt>
  <trkpt lat="32.935722" lon="-1.841235">
   <ele>1342.00</ele>
   <time>2014-04-05T13:01:21Z</time>
  </trkpt>
  <trkpt lat="32.935884" lon="-1.841395">
   <ele>1342.00</ele>
   <time>2014-04-05T13:01:23Z</time>
  </trkpt>
  <trkpt lat="32.936221" lon="-1.841704">
   <ele>1341.00</ele>
   <time>2014-04-05T13:01:27Z</time>
  </trkpt>
  <trkpt lat="32.936373" lon="-1.841882">
   <ele>1340.00</ele>
   <time>2014-04-05T13:01:29Z</time>
  </trkpt>
  <trkpt lat="32.936889" lon="-1.842544">
   <ele>1338.00</ele>
   <time>2014-04-05T13:01:36Z</time>
  </trkpt>
  <trkpt lat="32.937218" lon="-1.843011">
   <ele>1337.00</ele>
   <time>2014-04-05T13:01:41Z</time>
  </trkpt>
  <trkpt lat="32.937452" lon="-1.843376">
   <ele>1337.00</ele>
   <time>2014-04-05T13:01:45Z</time>
  </trkpt>
  <trkpt lat="32.937645" lon="-1.843709">
   <ele>1335.00</ele>
   <time>2014-04-05T13:01:49Z</time>
  </trkpt>
  <trkpt lat="32.937840" lon="-1.843905">
   <ele>1335.00</ele>
   <time>2014-04-05T13:01:52Z</time>
  </trkpt>
  <trkpt lat="32.938145" lon="-1.844124">
   <ele>1334.00</ele>
   <time>2014-04-05T13:01:56Z</time>
  </trkpt>
  <trkpt lat="32.938341" lon="-1.844350">
   <ele>1334.00</ele>
   <time>2014-04-05T13:01:59Z</time>
  </trkpt>
  <trkpt lat="32.938471" lon="-1.844526">
   <ele>1333.00</ele>
   <time>2014-04-05T13:02:01Z</time>
  </trkpt>
  <trkpt lat="32.938756" lon="-1.844899">
   <ele>1333.00</ele>
   <time>2014-04-05T13:02:05Z</time>
  </trkpt>
  <trkpt lat="32.938908" lon="-1.845075">
   <ele>1332.00</ele>
   <time>2014-04-05T13:02:07Z</time>
  </trkpt>
  <trkpt lat="32.939061" lon="-1.845228">
   <ele>1332.00</ele>
   <time>2014-04-05T13:02:09Z</time>
  </trkpt>
  <trkpt lat="32.939246" lon="-1.845445">
   <ele>1331.00</ele>
   <time>2014-04-05T13:02:12Z</time>
  </trkpt>
  <trkpt lat="32.939444" lon="-1.845761">
   <ele>1330.00</ele>
   <time>2014-04-05T13:02:17Z</time>
  </trkpt>
  <trkpt lat="32.939570" lon="-1.845925">
   <ele>1330.00</ele>
   <time>2014-04-05T13:02:21Z</time>
  </trkpt>
  <trkpt lat="32.939697" lon="-1.846144">
   <ele>1331.00</ele>
   <time>2014-04-05T13:02:25Z</time>
  </trkpt>
  <trkpt lat="32.939831" lon="-1.846348">
   <ele>1331.00</ele>
   <time>2014-04-05T13:02:28Z</time>
  </trkpt>
  <trkpt lat="32.940078" lon="-1.846710">
   <ele>1332.00</ele>
   <time>2014-04-05T13:02:33Z</time>
  </trkpt>
  <trkpt lat="32.940303" lon="-1.847008">
   <ele>1333.00</ele>
   <time>2014-04-05T13:02:37Z</time>
  </trkpt>
  <trkpt lat="32.940486" lon="-1.847225">
   <ele>1334.00</ele>
   <time>2014-04-05T13:02:40Z</time>
  </trkpt>
  <trkpt lat="32.940612" lon="-1.847378">
   <ele>1334.00</ele>
   <time>2014-04-05T13:02:42Z</time>
  </trkpt>
  <trkpt lat="32.940740" lon="-1.847535">
   <ele>1335.00</ele>
   <time>2014-04-05T13:02:44Z</time>
  </trkpt>
  <trkpt lat="32.940933" lon="-1.847772">
   <ele>1336.00</ele>
   <time>2014-04-05T13:02:47Z</time>
  </trkpt>
  <trkpt lat="32.941126" lon="-1.848025">
   <ele>1337.00</ele>
   <time>2014-04-05T13:02:50Z</time>
  </trkpt>
  <trkpt lat="32.941382" lon="-1.848394">
   <ele>1338.00</ele>
   <time>2014-04-05T13:02:54Z</time>
  </trkpt>
  <trkpt lat="32.941757" lon="-1.848966">
   <ele>1339.00</ele>
   <time>2014-04-05T13:03:00Z</time>
  </trkpt>
  <trkpt lat="32.942075" lon="-1.849429">
   <ele>1340.00</ele>
   <time>2014-04-05T13:03:05Z</time>
  </trkpt>
  <trkpt lat="32.942664" lon="-1.850322">
   <ele>1342.00</ele>
   <time>2014-04-05T13:03:14Z</time>
  </trkpt>
  <trkpt lat="32.942785" lon="-1.850521">
   <ele>1342.00</ele>
   <time>2014-04-05T13:03:16Z</time>
  </trkpt>
  <trkpt lat="32.943113" lon="-1.851022">
   <ele>1341.00</ele>
   <time>2014-04-05T13:03:21Z</time>
  </trkpt>
  <trkpt lat="32.943349" lon="-1.851393">
   <ele>1340.00</ele>
   <time>2014-04-05T13:03:25Z</time>
  </trkpt>
  <trkpt lat="32.943599" lon="-1.851755">
   <ele>1340.00</ele>
   <time>2014-04-05T13:03:29Z</time>
  </trkpt>
  <trkpt lat="32.943795" lon="-1.852067">
   <ele>1339.00</ele>
   <time>2014-04-05T13:03:33Z</time>
  </trkpt>
  <trkpt lat="32.943809" lon="-1.852306">
   <ele>1338.00</ele>
   <time>2014-04-05T13:03:37Z</time>
  </trkpt>
  <trkpt lat="32.943734" lon="-1.852601">
   <ele>1338.00</ele>
   <time>2014-04-05T13:03:42Z</time>
  </trkpt>
  <trkpt lat="32.943816" lon="-1.852818">
   <ele>1338.00</ele>
   <time>2014-04-05T13:03:48Z</time>
  </trkpt>
  <trkpt lat="32.944007" lon="-1.853010">
   <ele>1339.00</ele>
   <time>2014-04-05T13:03:52Z</time>
  </trkpt>
  <trkpt lat="32.944207" lon="-1.853128">
   <ele>1339.00</ele>
   <time>2014-04-05T13:03:55Z</time>
  </trkpt>
  <trkpt lat="32.944422" lon="-1.853267">
   <ele>1339.00</ele>
   <time>2014-04-05T13:03:58Z</time>
  </trkpt>
  <trkpt lat="32.944621" lon="-1.853453">
   <ele>1340.00</ele>
   <time>2014-04-05T13:04:01Z</time>
  </trkpt>
  <trkpt lat="32.944770" lon="-1.853672">
   <ele>1340.00</ele>
   <time>2014-04-05T13:04:04Z</time>
  </trkpt>
  <trkpt lat="32.944913" lon="-1.853911">
   <ele>1341.00</ele>
   <time>2014-04-05T13:04:07Z</time>
  </trkpt>
  <trkpt lat="32.945505" lon="-1.854895">
   <ele>1344.00</ele>
   <time>2014-04-05T13:04:19Z</time>
  </trkpt>
  <trkpt lat="32.946253" lon="-1.856278">
   <ele>1348.00</ele>
   <time>2014-04-05T13:04:34Z</time>
  </trkpt>
  <trkpt lat="32.946378" lon="-1.856540">
   <ele>1348.00</ele>
   <time>2014-04-05T13:04:37Z</time>
  </trkpt>
  <trkpt lat="32.946611" lon="-1.857072">
   <ele>1347.00</ele>
   <time>2014-04-05T13:04:43Z</time>
  </trkpt>
  <trkpt lat="32.946868" lon="-1.857709">
   <ele>1346.00</ele>
   <time>2014-04-05T13:04:52Z</time>
  </trkpt>
  <trkpt lat="32.946977" lon="-1.857896">
   <ele>1345.00</ele>
   <time>2014-04-05T13:04:56Z</time>
  </trkpt>
  <trkpt lat="32.947057" lon="-1.858028">
   <ele>1346.00</ele>
   <time>2014-04-05T13:05:00Z</time>
  </trkpt>
 </trkseg>
 <trkseg>
  <trkpt lat="32.947204" lon="-1.858055">
   <ele>1352.00</ele>
   <time>2014-04-05T13:41:03Z</time>
  </trkpt>
  <trkpt lat="32.947208" lon="-1.858052">
   <ele>1352.00</ele>
   <time>2014-04-05T13:41:18Z</time>
  </trkpt>
  <trkpt lat="32.947213" lon="-1.858052">
   <ele>1351.00</ele>
   <time>2014-04-05T13:41:34Z</time>
  </trkpt>
  <trkpt lat="32.947347" lon="-1.858208">
   <ele>1350.00</ele>
   <time>2014-04-05T13:41:43Z</time>
  </trkpt>
  <trkpt lat="32.947438" lon="-1.858423">
   <ele>1349.00</ele>
   <time>2014-04-05T13:41:48Z</time>
  </trkpt>
  <trkpt lat="32.947688" lon="-1.859083">
   <ele>1348.00</ele>
   <time>2014-04-05T13:41:59Z</time>
  </trkpt>
  <trkpt lat="32.947757" lon="-1.859322">
   <ele>1347.00</ele>
   <time>2014-04-05T13:42:03Z</time>
  </trkpt>
  <trkpt lat="32.947754" lon="-1.859583">
   <ele>1346.00</ele>
   <time>2014-04-05T13:42:07Z</time>
  </trkpt>
  <trkpt lat="32.947664" lon="-1.859831">
   <ele>1345.00</ele>
   <time>2014-04-05T13:42:11Z</time>
  </trkpt>
  <trkpt lat="32.947525" lon="-1.859978">
   <ele>1345.00</ele>
   <time>2014-04-05T13:42:14Z</time>
  </trkpt>
  <trkpt lat="32.947341" lon="-1.860044">
   <ele>1345.00</ele>
   <time>2014-04-05T13:42:17Z</time>
  </trkpt>
  <trkpt lat="32.947154" lon="-1.860013">
   <ele>1346.00</ele>
   <time>2014-04-05T13:42:20Z</time>
  </trkpt>
  <trkpt lat="32.946994" lon="-1.859890">
   <ele>1347.00</ele>
   <time>2014-04-05T13:42:23Z</time>
  </trkpt>
  <trkpt lat="32.946888" lon="-1.859685">
   <ele>1347.00</ele>
   <time>2014-04-05T13:42:26Z</time>
  </trkpt>
  <trkpt lat="32.946863" lon="-1.859442">
   <ele>1347.00</ele>
   <time>2014-04-05T13:42:29Z</time>
  </trkpt>
  <trkpt lat="32.946939" lon="-1.859209">
   <ele>1347.00</ele>
   <time>2014-04-05T13:42:32Z</time>
  </trkpt>
  <trkpt lat="32.947101" lon="-1.859050">
   <ele>1348.00</ele>
   <time>2014-04-05T13:42:35Z</time>
  </trkpt>
  <trkpt lat="32.947306" lon="-1.859022">
   <ele>1348.00</ele>
   <time>2014-04-05T13:42:38Z</time>
  </trkpt>
  <trkpt lat="32.947489" lon="-1.859138">
   <ele>1348.00</ele>
   <time>2014-04-05T13:42:41Z</time>
  </trkpt>
  <trkpt lat="32.947625" lon="-1.859330">
   <ele>1348.00</ele>
   <time>2014-04-05T13:42:44Z</time>
  </trkpt>
  <trkpt lat="32.947749" lon="-1.859589">
   <ele>1348.00</ele>
   <time>2014-04-05T13:42:47Z</time>
  </trkpt>
  <trkpt lat="32.947942" lon="-1.859999">
   <ele>1347.00</ele>
   <time>2014-04-05T13:42:51Z</time>
  </trkpt>
  <trkpt lat="32.948238" lon="-1.860589">
   <ele>1346.00</ele>
   <time>2014-04-05T13:42:56Z</time>
  </trkpt>
  <trkpt lat="32.948339" lon="-1.860835">
   <ele>1345.00</ele>
   <time>2014-04-05T13:42:58Z</time>
  </trkpt>
  <trkpt lat="32.948419" lon="-1.861082">
   <ele>1345.00</ele>
   <time>2014-04-05T13:43:00Z</time>
  </trkpt>
  <trkpt lat="32.948691" lon="-1.861930">
   <ele>1343.00</ele>
   <time>2014-04-05T13:43:07Z</time>
  </trkpt>
  <trkpt lat="32.948759" lon="-1.862167">
   <ele>1343.00</ele>
   <time>2014-04-05T13:43:09Z</time>
  </trkpt>
  <trkpt lat="32.948843" lon="-1.862399">
   <ele>1343.00</ele>
   <time>2014-04-05T13:43:11Z</time>
  </trkpt>
  <trkpt lat="32.949524" lon="-1.864062">
   <ele>1342.00</ele>
   <time>2014-04-05T13:43:26Z</time>
  </trkpt>
  <trkpt lat="32.949740" lon="-1.864556">
   <ele>1342.00</ele>
   <time>2014-04-05T13:43:30Z</time>
  </trkpt>
  <trkpt lat="32.949866" lon="-1.864780">
   <ele>1342.00</ele>
   <time>2014-04-05T13:43:32Z</time>
  </trkpt>
  <trkpt lat="32.950021" lon="-1.864965">
   <ele>1342.00</ele>
   <time>2014-04-05T13:43:34Z</time>
  </trkpt>
  <trkpt lat="32.950330" lon="-1.865283">
   <ele>1342.00</ele>
   <time>2014-04-05T13:43:38Z</time>
  </trkpt>
  <trkpt lat="32.950426" lon="-1.865468">
   <ele>1342.00</ele>
   <time>2014-04-05T13:43:40Z</time>
  </trkpt>
  <trkpt lat="32.950489" lon="-1.865738">
   <ele>1342.00</ele>
   <time>2014-04-05T13:43:43Z</time>
  </trkpt>
  <trkpt lat="32.950512" lon="-1.866018">
   <ele>1341.00</ele>
   <time>2014-04-05T13:43:46Z</time>
  </trkpt>
  <trkpt lat="32.950530" lon="-1.866252">
   <ele>1339.00</ele>
   <time>2014-04-05T13:43:48Z</time>
  </trkpt>
  <trkpt lat="32.950566" lon="-1.866512">
   <ele>1338.00</ele>
   <time>2014-04-05T13:43:50Z</time>
  </trkpt>
  <trkpt lat="32.950710" lon="-1.867300">
   <ele>1334.00</ele>
   <time>2014-04-05T13:43:56Z</time>
  </trkpt>
  <trkpt lat="32.950719" lon="-1.867565">
   <ele>1334.00</ele>
   <time>2014-04-05T13:43:58Z</time>
  </trkpt>
  <trkpt lat="32.950687" lon="-1.867817">
   <ele>1333.00</ele>
   <time>2014-04-05T13:44:00Z</time>
  </trkpt>
  <trkpt lat="32.950614" lon="-1.868037">
   <ele>1332.00</ele>
   <time>2014-04-05T13:44:02Z</time>
  </trkpt>
  <trkpt lat="32.950487" lon="-1.868223">
   <ele>1332.00</ele>
   <time>2014-04-05T13:44:05Z</time>
  </trkpt>
  <trkpt lat="32.950372" lon="-1.868406">
   <ele>1331.00</ele>
   <time>2014-04-05T13:44:08Z</time>
  </trkpt>
  <trkpt lat="32.950270" lon="-1.868628">
   <ele>1331.00</ele>
   <time>2014-04-05T13:44:11Z</time>
  </trkpt>
  <trkpt lat="32.950204" lon="-1.868895">
   <ele>1331.00</ele>
   <time>2014-04-05T13:44:14Z</time>
  </trkpt>
  <trkpt lat="32.950191" lon="-1.869211">
   <ele>1331.00</ele>
   <time>2014-04-05T13:44:17Z</time>
  </trkpt>
  <trkpt lat="32.950233" lon="-1.869502">
   <ele>1331.00</ele>
   <time>2014-04-05T13:44:20Z</time>
  </trkpt>
  <trkpt lat="32.950280" lon="-1.869763">
   <ele>1331.00</ele>
   <time>2014-04-05T13:44:23Z</time>
  </trkpt>
  <trkpt lat="32.950395" lon="-1.869990">
   <ele>1331.00</ele>
   <time>2014-04-05T13:44:26Z</time>
  </trkpt>
  <trkpt lat="32.950494" lon="-1.870210">
   <ele>1331.00</ele>
   <time>2014-04-05T13:44:29Z</time>
  </trkpt>
  <trkpt lat="32.950609" lon="-1.870492">
   <ele>1331.00</ele>
   <time>2014-04-05T13:44:33Z</time>
  </trkpt>
  <trkpt lat="32.950692" lon="-1.870700">
   <ele>1331.00</ele>
   <time>2014-04-05T13:44:36Z</time>
  </trkpt>
  <trkpt lat="32.950841" lon="-1.870925">
   <ele>1331.00</ele>
   <time>2014-04-05T13:44:40Z</time>
  </trkpt>
  <trkpt lat="32.951013" lon="-1.871068">
   <ele>1331.00</ele>
   <time>2014-04-05T13:44:43Z</time>
  </trkpt>
  <trkpt lat="32.951291" lon="-1.871263">
   <ele>1331.00</ele>
   <time>2014-04-05T13:44:47Z</time>
  </trkpt>
  <trkpt lat="32.951476" lon="-1.871470">
   <ele>1332.00</ele>
   <time>2014-04-05T13:44:50Z</time>
  </trkpt>
  <trkpt lat="32.951646" lon="-1.871720">
   <ele>1333.00</ele>
   <time>2014-04-05T13:44:53Z</time>
  </trkpt>
  <trkpt lat="32.951753" lon="-1.871906">
   <ele>1334.00</ele>
   <time>2014-04-05T13:44:55Z</time>
  </trkpt>
  <trkpt lat="32.951858" lon="-1.872108">
   <ele>1334.00</ele>
   <time>2014-04-05T13:44:57Z</time>
  </trkpt>
  <trkpt lat="32.951952" lon="-1.872330">
   <ele>1335.00</ele>
   <time>2014-04-05T13:44:59Z</time>
  </trkpt>
  <trkpt lat="32.952036" lon="-1.872557">
   <ele>1336.00</ele>
   <time>2014-04-05T13:45:01Z</time>
  </trkpt>
  <trkpt lat="32.952135" lon="-1.872773">
   <ele>1337.00</ele>
   <time>2014-04-05T13:45:03Z</time>
  </trkpt>
  <trkpt lat="32.952287" lon="-1.873071">
   <ele>1337.00</ele>
   <time>2014-04-05T13:45:06Z</time>
  </trkpt>
  <trkpt lat="32.952350" lon="-1.873282">
   <ele>1337.00</ele>
   <time>2014-04-05T13:45:08Z</time>
  </trkpt>
  <trkpt lat="32.952426" lon="-1.873489">
   <ele>1337.00</ele>
   <time>2014-04-05T13:45:10Z</time>
  </trkpt>
  <trkpt lat="32.952521" lon="-1.873693">
   <ele>1337.00</ele>
   <time>2014-04-05T13:45:12Z</time>
  </trkpt>
  <trkpt lat="32.952644" lon="-1.873876">
   <ele>1337.00</ele>
   <time>2014-04-05T13:45:14Z</time>
  </trkpt>
  <trkpt lat="32.952800" lon="-1.874030">
   <ele>1336.00</ele>
   <time>2014-04-05T13:45:16Z</time>
  </trkpt>
  <trkpt lat="32.952990" lon="-1.874174">
   <ele>1336.00</ele>
   <time>2014-04-05T13:45:18Z</time>
  </trkpt>
  <trkpt lat="32.953198" lon="-1.874329">
   <ele>1335.00</ele>
   <time>2014-04-05T13:45:20Z</time>
  </trkpt>
  <trkpt lat="32.953411" lon="-1.874504">
   <ele>1335.00</ele>
   <time>2014-04-05T13:45:22Z</time>
  </trkpt>
  <trkpt lat="32.954265" lon="-1.875264">
   <ele>1334.00</ele>
   <time>2014-04-05T13:45:30Z</time>
  </trkpt>
  <trkpt lat="32.954444" lon="-1.875496">
   <ele>1334.00</ele>
   <time>2014-04-05T13:45:32Z</time>
  </trkpt>
  <trkpt lat="32.954620" lon="-1.875731">
   <ele>1334.00</ele>
   <time>2014-04-05T13:45:34Z</time>
  </trkpt>
  <trkpt lat="32.954815" lon="-1.875963">
   <ele>1335.00</ele>
   <time>2014-04-05T13:45:36Z</time>
  </trkpt>
  <trkpt lat="32.955615" lon="-1.876900">
   <ele>1335.00</ele>
   <time>2014-04-05T13:45:44Z</time>
  </trkpt>
  <trkpt lat="32.955866" lon="-1.877226">
   <ele>1335.00</ele>
   <time>2014-04-05T13:45:47Z</time>
  </trkpt>
  <trkpt lat="32.956011" lon="-1.877454">
   <ele>1335.00</ele>
   <time>2014-04-05T13:45:49Z</time>
  </trkpt>
  <trkpt lat="32.956151" lon="-1.877684">
   <ele>1335.00</ele>
   <time>2014-04-05T13:45:51Z</time>
  </trkpt>
  <trkpt lat="32.956317" lon="-1.877887">
   <ele>1335.00</ele>
   <time>2014-04-05T13:45:53Z</time>
  </trkpt>
  <trkpt lat="32.956512" lon="-1.878027">
   <ele>1335.00</ele>
   <time>2014-04-05T13:45:55Z</time>
  </trkpt>
  <trkpt lat="32.956712" lon="-1.878104">
   <ele>1335.00</ele>
   <time>2014-04-05T13:45:57Z</time>
  </trkpt>
  <trkpt lat="32.956948" lon="-1.878168">
   <ele>1335.00</ele>
   <time>2014-04-05T13:46:00Z</time>
  </trkpt>
  <trkpt lat="32.957130" lon="-1.878208">
   <ele>1334.00</ele>
   <time>2014-04-05T13:46:05Z</time>
  </trkpt>
  <trkpt lat="32.957307" lon="-1.878337">
   <ele>1335.00</ele>
   <time>2014-04-05T13:46:12Z</time>
  </trkpt>
  <trkpt lat="32.957465" lon="-1.878518">
   <ele>1335.00</ele>
   <time>2014-04-05T13:46:15Z</time>
  </trkpt>
  <trkpt lat="32.957585" lon="-1.878688">
   <ele>1335.00</ele>
   <time>2014-04-05T13:46:17Z</time>
  </trkpt>
  <trkpt lat="32.957702" lon="-1.878889">
   <ele>1335.00</ele>
   <time>2014-04-05T13:46:19Z</time>
  </trkpt>
  <trkpt lat="32.957816" lon="-1.879132">
   <ele>1336.00</ele>
   <time>2014-04-05T13:46:21Z</time>
  </trkpt>
  <trkpt lat="32.957912" lon="-1.879401">
   <ele>1336.00</ele>
   <time>2014-04-05T13:46:23Z</time>
  </trkpt>
  <trkpt lat="32.957985" lon="-1.879690">
   <ele>1336.00</ele>
   <time>2014-04-05T13:46:25Z</time>
  </trkpt>
  <trkpt lat="32.958039" lon="-1.880003">
   <ele>1337.00</ele>
   <time>2014-04-05T13:46:27Z</time>
  </trkpt>
  <trkpt lat="32.958063" lon="-1.880322">
   <ele>1337.00</ele>
   <time>2014-04-05T13:46:29Z</time>
  </trkpt>
  <trkpt lat="32.958060" lon="-1.880640">
   <ele>1338.00</ele>
   <time>2014-04-05T13:46:31Z</time>
  </trkpt>
  <trkpt lat="32.958034" lon="-1.880950">
   <ele>1338.00</ele>
   <time>2014-04-05T13:46:33Z</time>
  </trkpt>
  <trkpt lat="32.957976" lon="-1.881251">
   <ele>1338.00</ele>
   <time>2014-04-05T13:46:35Z</time>
  </trkpt>
  <trkpt lat="32.957901" lon="-1.881562">
   <ele>1338.00</ele>
   <time>2014-04-05T13:46:37Z</time>
  </trkpt>
  <trkpt lat="32.957818" lon="-1.882030">
   <ele>1339.00</ele>
   <time>2014-04-05T13:46:40Z</time>
  </trkpt>
  <trkpt lat="32.957658" lon="-1.883198">
   <ele>1340.00</ele>
   <time>2014-04-05T13:46:48Z</time>
  </trkpt>
  <trkpt lat="32.957657" lon="-1.883466">
   <ele>1341.00</ele>
   <time>2014-04-05T13:46:50Z</time>
  </trkpt>
  <trkpt lat="32.957695" lon="-1.883725">
   <ele>1341.00</ele>
   <time>2014-04-05T13:46:52Z</time>
  </trkpt>
  <trkpt lat="32.957762" lon="-1.883982">
   <ele>1341.00</ele>
   <time>2014-04-05T13:46:54Z</time>
  </trkpt>
  <trkpt lat="32.957913" lon="-1.884513">
   <ele>1341.00</ele>
   <time>2014-04-05T13:46:58Z</time>
  </trkpt>
  <trkpt lat="32.957963" lon="-1.884801">
   <ele>1342.00</ele>
   <time>2014-04-05T13:47:00Z</time>
  </trkpt>
  <trkpt lat="32.957981" lon="-1.885094">
   <ele>1342.00</ele>
   <time>2014-04-05T13:47:02Z</time>
  </trkpt>
  <trkpt lat="32.957986" lon="-1.885818">
   <ele>1343.00</ele>
   <time>2014-04-05T13:47:07Z</time>
  </trkpt>
  <trkpt lat="32.957965" lon="-1.886107">
   <ele>1343.00</ele>
   <time>2014-04-05T13:47:09Z</time>
  </trkpt>
  <trkpt lat="32.957918" lon="-1.886395">
   <ele>1343.00</ele>
   <time>2014-04-05T13:47:11Z</time>
  </trkpt>
  <trkpt lat="32.957766" lon="-1.887134">
   <ele>1343.00</ele>
   <time>2014-04-05T13:47:16Z</time>
  </trkpt>
  <trkpt lat="32.957613" lon="-1.888200">
   <ele>1344.00</ele>
   <time>2014-04-05T13:47:23Z</time>
  </trkpt>
  <trkpt lat="32.957507" lon="-1.888744">
   <ele>1345.00</ele>
   <time>2014-04-05T13:47:27Z</time>
  </trkpt>
  <trkpt lat="32.957433" lon="-1.888990">
   <ele>1345.00</ele>
   <time>2014-04-05T13:47:29Z</time>
  </trkpt>
  <trkpt lat="32.957307" lon="-1.889341">
   <ele>1346.00</ele>
   <time>2014-04-05T13:47:32Z</time>
  </trkpt>
  <trkpt lat="32.957212" lon="-1.889582">
   <ele>1346.00</ele>
   <time>2014-04-05T13:47:34Z</time>
  </trkpt>
  <trkpt lat="32.957015" lon="-1.890060">
   <ele>1346.00</ele>
   <time>2014-04-05T13:47:38Z</time>
  </trkpt>
  <trkpt lat="32.956899" lon="-1.890443">
   <ele>1347.00</ele>
   <time>2014-04-05T13:47:41Z</time>
  </trkpt>
  <trkpt lat="32.956813" lon="-1.890836">
   <ele>1347.00</ele>
   <time>2014-04-05T13:47:44Z</time>
  </trkpt>
  <trkpt lat="32.956717" lon="-1.891085">
   <ele>1347.00</ele>
   <time>2014-04-05T13:47:46Z</time>
  </trkpt>
  <trkpt lat="32.956594" lon="-1.891325">
   <ele>1347.00</ele>
   <time>2014-04-05T13:47:48Z</time>
  </trkpt>
  <trkpt lat="32.956456" lon="-1.891560">
   <ele>1348.00</ele>
   <time>2014-04-05T13:47:50Z</time>
  </trkpt>
  <trkpt lat="32.955716" lon="-1.892791">
   <ele>1349.00</ele>
   <time>2014-04-05T13:48:01Z</time>
  </trkpt>
  <trkpt lat="32.955612" lon="-1.893025">
   <ele>1350.00</ele>
   <time>2014-04-05T13:48:03Z</time>
  </trkpt>
  <trkpt lat="32.955548" lon="-1.893275">
   <ele>1350.00</ele>
   <time>2014-04-05T13:48:05Z</time>
  </trkpt>
  <trkpt lat="32.955585" lon="-1.893517">
   <ele>1350.00</ele>
   <time>2014-04-05T13:48:07Z</time>
  </trkpt>
  <trkpt lat="32.955659" lon="-1.893845">
   <ele>1351.00</ele>
   <time>2014-04-05T13:48:10Z</time>
  </trkpt>
  <trkpt lat="32.955765" lon="-1.894118">
   <ele>1351.00</ele>
   <time>2014-04-05T13:48:13Z</time>
  </trkpt>
  <trkpt lat="32.955951" lon="-1.894289">
   <ele>1352.00</ele>
   <time>2014-04-05T13:48:16Z</time>
  </trkpt>
  <trkpt lat="32.956141" lon="-1.894461">
   <ele>1352.00</ele>
   <time>2014-04-05T13:48:19Z</time>
  </trkpt>
  <trkpt lat="32.956326" lon="-1.894690">
   <ele>1352.00</ele>
   <time>2014-04-05T13:48:22Z</time>
  </trkpt>
  <trkpt lat="32.956448" lon="-1.894867">
   <ele>1352.00</ele>
   <time>2014-04-05T13:48:24Z</time>
  </trkpt>
  <trkpt lat="32.956635" lon="-1.895164">
   <ele>1352.00</ele>
   <time>2014-04-05T13:48:27Z</time>
  </trkpt>
  <trkpt lat="32.957492" lon="-1.896576">
   <ele>1354.00</ele>
   <time>2014-04-05T13:48:41Z</time>
  </trkpt>
  <trkpt lat="32.957588" lon="-1.896762">
   <ele>1354.00</ele>
   <time>2014-04-05T13:48:43Z</time>
  </trkpt>
  <trkpt lat="32.957703" lon="-1.897016">
   <ele>1354.00</ele>
   <time>2014-04-05T13:48:46Z</time>
  </trkpt>
  <trkpt lat="32.957799" lon="-1.897230">
   <ele>1354.00</ele>
   <time>2014-04-05T13:48:49Z</time>
  </trkpt>
  <trkpt lat="32.957989" lon="-1.897279">
   <ele>1354.00</ele>
   <time>2014-04-05T13:48:53Z</time>
  </trkpt>
  <trkpt lat="32.958166" lon="-1.897296">
   <ele>1354.00</ele>
   <time>2014-04-05T13:48:57Z</time>
  </trkpt>
  <trkpt lat="32.958325" lon="-1.897417">
   <ele>1354.00</ele>
   <time>2014-04-05T13:49:03Z</time>
  </trkpt>
  <trkpt lat="32.958533" lon="-1.897428">
   <ele>1354.00</ele>
   <time>2014-04-05T13:49:09Z</time>
  </trkpt>
  <trkpt lat="32.958666" lon="-1.897280">
   <ele>1353.00</ele>
   <time>2014-04-05T13:49:14Z</time>
  </trkpt>
  <trkpt lat="32.958826" lon="-1.897164">
   <ele>1352.00</ele>
   <time>2014-04-05T13:49:19Z</time>
  </trkpt>
  <trkpt lat="32.959017" lon="-1.897255">
   <ele>1351.00</ele>
   <time>2014-04-05T13:49:25Z</time>
  </trkpt>
  <trkpt lat="32.959225" lon="-1.897332">
   <ele>1350.00</ele>
   <time>2014-04-05T13:49:30Z</time>
  </trkpt>
  <trkpt lat="32.959470" lon="-1.897464">
   <ele>1349.00</ele>
   <time>2014-04-05T13:49:35Z</time>
  </trkpt>
  <trkpt lat="32.959660" lon="-1.897587">
   <ele>1348.00</ele>
   <time>2014-04-05T13:49:39Z</time>
  </trkpt>
  <trkpt lat="32.959842" lon="-1.897738">
   <ele>1348.00</ele>
   <time>2014-04-05T13:49:43Z</time>
  </trkpt>
  <trkpt lat="32.959998" lon="-1.897923">
   <ele>1348.00</ele>
   <time>2014-04-05T13:49:47Z</time>
  </trkpt>
  <trkpt lat="32.960095" lon="-1.898125">
   <ele>1348.00</ele>
   <time>2014-04-05T13:49:52Z</time>
  </trkpt>
  <trkpt lat="32.960124" lon="-1.898366">
   <ele>1347.00</ele>
   <time>2014-04-05T13:49:57Z</time>
  </trkpt>
  <trkpt lat="32.960250" lon="-1.898541">
   <ele>1347.00</ele>
   <time>2014-04-05T13:50:01Z</time>
  </trkpt>
  <trkpt lat="32.960370" lon="-1.898708">
   <ele>1347.00</ele>
   <time>2014-04-05T13:50:05Z</time>
  </trkpt>
  <trkpt lat="32.960420" lon="-1.898928">
   <ele>1347.00</ele>
   <time>2014-04-05T13:50:10Z</time>
  </trkpt>
  <trkpt lat="32.960449" lon="-1.899151">
   <ele>1347.00</ele>
   <time>2014-04-05T13:50:15Z</time>
  </trkpt>
  <trkpt lat="32.960494" lon="-1.899358">
   <ele>1347.00</ele>
   <time>2014-04-05T13:50:21Z</time>
  </trkpt>
  <trkpt lat="32.960596" lon="-1.899540">
   <ele>1347.00</ele>
   <time>2014-04-05T13:50:28Z</time>
  </trkpt>
  <trkpt lat="32.960647" lon="-1.899752">
   <ele>1347.00</ele>
   <time>2014-04-05T13:50:33Z</time>
  </trkpt>
  <trkpt lat="32.960748" lon="-1.899970">
   <ele>1348.00</ele>
   <time>2014-04-05T13:50:39Z</time>
  </trkpt>
  <trkpt lat="32.960881" lon="-1.900161">
   <ele>1349.00</ele>
   <time>2014-04-05T13:50:43Z</time>
  </trkpt>
  <trkpt lat="32.961083" lon="-1.900437">
   <ele>1349.00</ele>
   <time>2014-04-05T13:50:48Z</time>
  </trkpt>
  <trkpt lat="32.961217" lon="-1.900581">
   <ele>1351.00</ele>
   <time>2014-04-05T13:50:51Z</time>
  </trkpt>
  <trkpt lat="32.961337" lon="-1.900796">
   <ele>1352.00</ele>
   <time>2014-04-05T13:50:55Z</time>
  </trkpt>
  <trkpt lat="32.961366" lon="-1.901015">
   <ele>1351.00</ele>
   <time>2014-04-05T13:50:58Z</time>
  </trkpt>
  <trkpt lat="32.961392" lon="-1.901285">
   <ele>1351.00</ele>
   <time>2014-04-05T13:51:01Z</time>
  </trkpt>
  <trkpt lat="32.961423" lon="-1.901710">
   <ele>1350.00</ele>
   <time>2014-04-05T13:51:05Z</time>
  </trkpt>
  <trkpt lat="32.961426" lon="-1.901927">
   <ele>1350.00</ele>
   <time>2014-04-05T13:51:07Z</time>
  </trkpt>
  <trkpt lat="32.961407" lon="-1.902157">
   <ele>1350.00</ele>
   <time>2014-04-05T13:51:09Z</time>
  </trkpt>
  <trkpt lat="32.961365" lon="-1.902388">
   <ele>1351.00</ele>
   <time>2014-04-05T13:51:11Z</time>
  </trkpt>
  <trkpt lat="32.961301" lon="-1.902608">
   <ele>1351.00</ele>
   <time>2014-04-05T13:51:13Z</time>
  </trkpt>
  <trkpt lat="32.961148" lon="-1.903110">
   <ele>1351.00</ele>
   <time>2014-04-05T13:51:18Z</time>
  </trkpt>
  <trkpt lat="32.961085" lon="-1.903392">
   <ele>1351.00</ele>
   <time>2014-04-05T13:51:21Z</time>
  </trkpt>
  <trkpt lat="32.961043" lon="-1.903689">
   <ele>1351.00</ele>
   <time>2014-04-05T13:51:24Z</time>
  </trkpt>
  <trkpt lat="32.961002" lon="-1.904088">
   <ele>1352.00</ele>
   <time>2014-04-05T13:51:28Z</time>
  </trkpt>
  <trkpt lat="32.961081" lon="-1.904352">
   <ele>1352.00</ele>
   <time>2014-04-05T13:51:31Z</time>
  </trkpt>
  <trkpt lat="32.961238" lon="-1.904588">
   <ele>1353.00</ele>
   <time>2014-04-05T13:51:34Z</time>
  </trkpt>
  <trkpt lat="32.961355" lon="-1.904855">
   <ele>1354.00</ele>
   <time>2014-04-05T13:51:37Z</time>
  </trkpt>
  <trkpt lat="32.961644" lon="-1.905657">
   <ele>1354.00</ele>
   <time>2014-04-05T13:51:45Z</time>
  </trkpt>
  <trkpt lat="32.961733" lon="-1.905848">
   <ele>1354.00</ele>
   <time>2014-04-05T13:51:47Z</time>
  </trkpt>
  <trkpt lat="32.961835" lon="-1.906026">
   <ele>1354.00</ele>
   <time>2014-04-05T13:51:49Z</time>
  </trkpt>
  <trkpt lat="32.961955" lon="-1.906188">
   <ele>1355.00</ele>
   <time>2014-04-05T13:51:51Z</time>
  </trkpt>
  <trkpt lat="32.962083" lon="-1.906341">
   <ele>1355.00</ele>
   <time>2014-04-05T13:51:53Z</time>
  </trkpt>
  <trkpt lat="32.962250" lon="-1.906592">
   <ele>1355.00</ele>
   <time>2014-04-05T13:51:56Z</time>
  </trkpt>
  <trkpt lat="32.962432" lon="-1.906826">
   <ele>1355.00</ele>
   <time>2014-04-05T13:51:59Z</time>
  </trkpt>
  <trkpt lat="32.962649" lon="-1.907000">
   <ele>1356.00</ele>
   <time>2014-04-05T13:52:02Z</time>
  </trkpt>
  <trkpt lat="32.962845" lon="-1.907179">
   <ele>1356.00</ele>
   <time>2014-04-05T13:52:05Z</time>
  </trkpt>
  <trkpt lat="32.963034" lon="-1.907338">
   <ele>1357.00</ele>
   <time>2014-04-05T13:52:08Z</time>
  </trkpt>
  <trkpt lat="32.963222" lon="-1.907451">
   <ele>1357.00</ele>
   <time>2014-04-05T13:52:11Z</time>
  </trkpt>
  <trkpt lat="32.963408" lon="-1.907559">
   <ele>1358.00</ele>
   <time>2014-04-05T13:52:14Z</time>
  </trkpt>
  <trkpt lat="32.963584" lon="-1.907728">
   <ele>1359.00</ele>
   <time>2014-04-05T13:52:17Z</time>
  </trkpt>
  <trkpt lat="32.963752" lon="-1.907940">
   <ele>1359.00</ele>
   <time>2014-04-05T13:52:20Z</time>
  </trkpt>
  <trkpt lat="32.963860" lon="-1.908113">
   <ele>1359.00</ele>
   <time>2014-04-05T13:52:24Z</time>
  </trkpt>
  <trkpt lat="32.964023" lon="-1.908245">
   <ele>1359.00</ele>
   <time>2014-04-05T13:52:33Z</time>
  </trkpt>
  <trkpt lat="32.964205" lon="-1.908347">
   <ele>1359.00</ele>
   <time>2014-04-05T13:52:38Z</time>
  </trkpt>
  <trkpt lat="32.964460" lon="-1.908541">
   <ele>1360.00</ele>
   <time>2014-04-05T13:52:43Z</time>
  </trkpt>
  <trkpt lat="32.964876" lon="-1.908815">
   <ele>1360.00</ele>
   <time>2014-04-05T13:52:49Z</time>
  </trkpt>
  <trkpt lat="32.965164" lon="-1.908988">
   <ele>1360.00</ele>
   <time>2014-04-05T13:52:53Z</time>
  </trkpt>
  <trkpt lat="32.965369" lon="-1.909147">
   <ele>1360.00</ele>
   <time>2014-04-05T13:52:56Z</time>
  </trkpt>
  <trkpt lat="32.965559" lon="-1.909301">
   <ele>1361.00</ele>
   <time>2014-04-05T13:52:59Z</time>
  </trkpt>
  <trkpt lat="32.965731" lon="-1.909410">
   <ele>1361.00</ele>
   <time>2014-04-05T13:53:02Z</time>
  </trkpt>
  <trkpt lat="32.965922" lon="-1.909546">
   <ele>1361.00</ele>
   <time>2014-04-05T13:53:06Z</time>
  </trkpt>
  <trkpt lat="32.966105" lon="-1.909724">
   <ele>1362.00</ele>
   <time>2014-04-05T13:53:10Z</time>
  </trkpt>
  <trkpt lat="32.966194" lon="-1.909945">
   <ele>1362.00</ele>
   <time>2014-04-05T13:53:15Z</time>
  </trkpt>
  <trkpt lat="32.966295" lon="-1.910171">
   <ele>1362.00</ele>
   <time>2014-04-05T13:53:19Z</time>
  </trkpt>
  <trkpt lat="32.966396" lon="-1.910374">
   <ele>1362.00</ele>
   <time>2014-04-05T13:53:24Z</time>
  </trkpt>
  <trkpt lat="32.966524" lon="-1.910669">
   <ele>1363.00</ele>
   <time>2014-04-05T13:53:33Z</time>
  </trkpt>
  <trkpt lat="32.966654" lon="-1.910939">
   <ele>1364.00</ele>
   <time>2014-04-05T13:53:37Z</time>
  </trkpt>
  <trkpt lat="32.966748" lon="-1.911138">
   <ele>1364.00</ele>
   <time>2014-04-05T13:53:40Z</time>
  </trkpt>
  <trkpt lat="32.966896" lon="-1.911347">
   <ele>1365.00</ele>
   <time>2014-04-05T13:53:43Z</time>
  </trkpt>
  <trkpt lat="32.967470" lon="-1.911892">
   <ele>1366.00</ele>
   <time>2014-04-05T13:53:50Z</time>
  </trkpt>
  <trkpt lat="32.967962" lon="-1.912317">
   <ele>1367.00</ele>
   <time>2014-04-05T13:53:55Z</time>
  </trkpt>
  <trkpt lat="32.968355" lon="-1.912650">
   <ele>1368.00</ele>
   <time>2014-04-05T13:53:59Z</time>
  </trkpt>
  <trkpt lat="32.968547" lon="-1.912833">
   <ele>1368.00</ele>
   <time>2014-04-05T13:54:01Z</time>
  </trkpt>
  <trkpt lat="32.968749" lon="-1.912993">
   <ele>1368.00</ele>
   <time>2014-04-05T13:54:03Z</time>
  </trkpt>
  <trkpt lat="32.969010" lon="-1.913186">
   <ele>1369.00</ele>
   <time>2014-04-05T13:54:06Z</time>
  </trkpt>
  <trkpt lat="32.969237" lon="-1.913352">
   <ele>1370.00</ele>
   <time>2014-04-05T13:54:09Z</time>
  </trkpt>
  <trkpt lat="32.969445" lon="-1.913492">
   <ele>1371.00</ele>
   <time>2014-04-05T13:54:12Z</time>
  </trkpt>
  <trkpt lat="32.969614" lon="-1.913643">
   <ele>1371.00</ele>
   <time>2014-04-05T13:54:15Z</time>
  </trkpt>
  <trkpt lat="32.969821" lon="-1.913911">
   <ele>1372.00</ele>
   <time>2014-04-05T13:54:19Z</time>
  </trkpt>
  <trkpt lat="32.970094" lon="-1.914198">
   <ele>1373.00</ele>
   <time>2014-04-05T13:54:23Z</time>
  </trkpt>
  <trkpt lat="32.970249" lon="-1.914336">
   <ele>1373.00</ele>
   <time>2014-04-05T13:54:25Z</time>
  </trkpt>
  <trkpt lat="32.971037" lon="-1.915028">
   <ele>1375.00</ele>
   <time>2014-04-05T13:54:35Z</time>
  </trkpt>
  <trkpt lat="32.971201" lon="-1.915169">
   <ele>1375.00</ele>
   <time>2014-04-05T13:54:37Z</time>
  </trkpt>
  <trkpt lat="32.971355" lon="-1.915332">
   <ele>1375.00</ele>
   <time>2014-04-05T13:54:39Z</time>
  </trkpt>
  <trkpt lat="32.971759" lon="-1.915784">
   <ele>1376.00</ele>
   <time>2014-04-05T13:54:44Z</time>
  </trkpt>
  <trkpt lat="32.971997" lon="-1.916095">
   <ele>1376.00</ele>
   <time>2014-04-05T13:54:47Z</time>
  </trkpt>
  <trkpt lat="32.972150" lon="-1.916325">
   <ele>1376.00</ele>
   <time>2014-04-05T13:54:49Z</time>
  </trkpt>
  <trkpt lat="32.972843" lon="-1.917394">
   <ele>1376.00</ele>
   <time>2014-04-05T13:54:58Z</time>
  </trkpt>
  <trkpt lat="32.973052" lon="-1.917714">
   <ele>1377.00</ele>
   <time>2014-04-05T13:55:01Z</time>
  </trkpt>
  <trkpt lat="32.973156" lon="-1.917941">
   <ele>1377.00</ele>
   <time>2014-04-05T13:55:03Z</time>
  </trkpt>
  <trkpt lat="32.973276" lon="-1.918137">
   <ele>1377.00</ele>
   <time>2014-04-05T13:55:05Z</time>
  </trkpt>
  <trkpt lat="32.973421" lon="-1.918268">
   <ele>1378.00</ele>
   <time>2014-04-05T13:55:07Z</time>
  </trkpt>
  <trkpt lat="32.973744" lon="-1.918487">
   <ele>1377.00</ele>
   <time>2014-04-05T13:55:11Z</time>
  </trkpt>
  <trkpt lat="32.973893" lon="-1.918635">
   <ele>1378.00</ele>
   <time>2014-04-05T13:55:13Z</time>
  </trkpt>
  <trkpt lat="32.974036" lon="-1.918806">
   <ele>1378.00</ele>
   <time>2014-04-05T13:55:15Z</time>
  </trkpt>
  <trkpt lat="32.974251" lon="-1.919092">
   <ele>1379.00</ele>
   <time>2014-04-05T13:55:18Z</time>
  </trkpt>
  <trkpt lat="32.974398" lon="-1.919302">
   <ele>1379.00</ele>
   <time>2014-04-05T13:55:20Z</time>
  </trkpt>
  <trkpt lat="32.974545" lon="-1.919540">
   <ele>1380.00</ele>
   <time>2014-04-05T13:55:22Z</time>
  </trkpt>
  <trkpt lat="32.974685" lon="-1.919793">
   <ele>1380.00</ele>
   <time>2014-04-05T13:55:24Z</time>
  </trkpt>
  <trkpt lat="32.974928" lon="-1.920280">
   <ele>1381.00</ele>
   <time>2014-04-05T13:55:28Z</time>
  </trkpt>
  <trkpt lat="32.975031" lon="-1.920513">
   <ele>1381.00</ele>
   <time>2014-04-05T13:55:30Z</time>
  </trkpt>
  <trkpt lat="32.975165" lon="-1.920722">
   <ele>1381.00</ele>
   <time>2014-04-05T13:55:32Z</time>
  </trkpt>
  <trkpt lat="32.975313" lon="-1.920909">
   <ele>1381.00</ele>
   <time>2014-04-05T13:55:34Z</time>
  </trkpt>
  <trkpt lat="32.975475" lon="-1.921076">
   <ele>1382.00</ele>
   <time>2014-04-05T13:55:36Z</time>
  </trkpt>
  <trkpt lat="32.975634" lon="-1.921249">
   <ele>1382.00</ele>
   <time>2014-04-05T13:55:38Z</time>
  </trkpt>
  <trkpt lat="32.975872" lon="-1.921526">
   <ele>1383.00</ele>
   <time>2014-04-05T13:55:41Z</time>
  </trkpt>
  <trkpt lat="32.976039" lon="-1.921698">
   <ele>1383.00</ele>
   <time>2014-04-05T13:55:43Z</time>
  </trkpt>
  <trkpt lat="32.976476" lon="-1.922117">
   <ele>1385.00</ele>
   <time>2014-04-05T13:55:48Z</time>
  </trkpt>
  <trkpt lat="32.977091" lon="-1.922750">
   <ele>1386.00</ele>
   <time>2014-04-05T13:55:55Z</time>
  </trkpt>
  <trkpt lat="32.977268" lon="-1.922900">
   <ele>1386.00</ele>
   <time>2014-04-05T13:55:57Z</time>
  </trkpt>
  <trkpt lat="32.977463" lon="-1.923039">
   <ele>1385.00</ele>
   <time>2014-04-05T13:55:59Z</time>
  </trkpt>
  <trkpt lat="32.978891" lon="-1.924041">
   <ele>1383.00</ele>
   <time>2014-04-05T13:56:14Z</time>
  </trkpt>
  <trkpt lat="32.979095" lon="-1.924191">
   <ele>1383.00</ele>
   <time>2014-04-05T13:56:17Z</time>
  </trkpt>
  <trkpt lat="32.979283" lon="-1.924336">
   <ele>1382.00</ele>
   <time>2014-04-05T13:56:20Z</time>
  </trkpt>
  <trkpt lat="32.979543" lon="-1.924530">
   <ele>1382.00</ele>
   <time>2014-04-05T13:56:24Z</time>
  </trkpt>
  <trkpt lat="32.979709" lon="-1.924723">
   <ele>1381.00</ele>
   <time>2014-04-05T13:56:27Z</time>
  </trkpt>
  <trkpt lat="32.979818" lon="-1.924951">
   <ele>1380.00</ele>
   <time>2014-04-05T13:56:30Z</time>
  </trkpt>
  <trkpt lat="32.979815" lon="-1.925180">
   <ele>1379.00</ele>
   <time>2014-04-05T13:56:33Z</time>
  </trkpt>
  <trkpt lat="32.979864" lon="-1.925430">
   <ele>1377.00</ele>
   <time>2014-04-05T13:56:37Z</time>
  </trkpt>
  <trkpt lat="32.980006" lon="-1.925654">
   <ele>1376.00</ele>
   <time>2014-04-05T13:56:41Z</time>
  </trkpt>
  <trkpt lat="32.980104" lon="-1.925856">
   <ele>1375.00</ele>
   <time>2014-04-05T13:56:45Z</time>
  </trkpt>
  <trkpt lat="32.980242" lon="-1.926048">
   <ele>1375.00</ele>
   <time>2014-04-05T13:56:50Z</time>
  </trkpt>
  <trkpt lat="32.980445" lon="-1.926211">
   <ele>1375.00</ele>
   <time>2014-04-05T13:56:54Z</time>
  </trkpt>
  <trkpt lat="32.980666" lon="-1.926271">
   <ele>1375.00</ele>
   <time>2014-04-05T13:56:57Z</time>
  </trkpt>
  <trkpt lat="32.980899" lon="-1.926352">
   <ele>1374.00</ele>
   <time>2014-04-05T13:57:00Z</time>
  </trkpt>
  <trkpt lat="32.981106" lon="-1.926462">
   <ele>1374.00</ele>
   <time>2014-04-05T13:57:03Z</time>
  </trkpt>
  <trkpt lat="32.981270" lon="-1.926626">
   <ele>1375.00</ele>
   <time>2014-04-05T13:57:06Z</time>
  </trkpt>
  <trkpt lat="32.981404" lon="-1.926858">
   <ele>1375.00</ele>
   <time>2014-04-05T13:57:09Z</time>
  </trkpt>
  <trkpt lat="32.981643" lon="-1.927274">
   <ele>1374.00</ele>
   <time>2014-04-05T13:57:14Z</time>
  </trkpt>
  <trkpt lat="32.981926" lon="-1.927710">
   <ele>1374.00</ele>
   <time>2014-04-05T13:57:19Z</time>
  </trkpt>
  <trkpt lat="32.982013" lon="-1.928012">
   <ele>1374.00</ele>
   <time>2014-04-05T13:57:22Z</time>
  </trkpt>
  <trkpt lat="32.982009" lon="-1.928252">
   <ele>1374.00</ele>
   <time>2014-04-05T13:57:24Z</time>
  </trkpt>
  <trkpt lat="32.981971" lon="-1.928619">
   <ele>1374.00</ele>
   <time>2014-04-05T13:57:27Z</time>
  </trkpt>
  <trkpt lat="32.981935" lon="-1.928853">
   <ele>1374.00</ele>
   <time>2014-04-05T13:57:29Z</time>
  </trkpt>
  <trkpt lat="32.981915" lon="-1.929074">
   <ele>1374.00</ele>
   <time>2014-04-05T13:57:31Z</time>
  </trkpt>
  <trkpt lat="32.981949" lon="-1.929356">
   <ele>1374.00</ele>
   <time>2014-04-05T13:57:34Z</time>
  </trkpt>
  <trkpt lat="32.982008" lon="-1.929593">
   <ele>1373.00</ele>
   <time>2014-04-05T13:57:39Z</time>
  </trkpt>
  <trkpt lat="32.982177" lon="-1.929632">
   <ele>1372.00</ele>
   <time>2014-04-05T13:57:45Z</time>
  </trkpt>
  <trkpt lat="32.982380" lon="-1.929561">
   <ele>1372.00</ele>
   <time>2014-04-05T13:57:50Z</time>
  </trkpt>
  <trkpt lat="32.982583" lon="-1.929654">
   <ele>1373.00</ele>
   <time>2014-04-05T13:57:54Z</time>
  </trkpt>
  <trkpt lat="32.982734" lon="-1.929798">
   <ele>1375.00</ele>
   <time>2014-04-05T13:57:57Z</time>
  </trkpt>
  <trkpt lat="32.982927" lon="-1.929924">
   <ele>1376.00</ele>
   <time>2014-04-05T13:58:00Z</time>
  </trkpt>
  <trkpt lat="32.983286" lon="-1.930158">
   <ele>1376.00</ele>
   <time>2014-04-05T13:58:05Z</time>
  </trkpt>
  <trkpt lat="32.983438" lon="-1.930289">
   <ele>1377.00</ele>
   <time>2014-04-05T13:58:07Z</time>
  </trkpt>
  <trkpt lat="32.983578" lon="-1.930452">
   <ele>1377.00</ele>
   <time>2014-04-05T13:58:09Z</time>
  </trkpt>
  <trkpt lat="32.983717" lon="-1.930638">
   <ele>1377.00</ele>
   <time>2014-04-05T13:58:11Z</time>
  </trkpt>
  <trkpt lat="32.984626" lon="-1.931898">
   <ele>1381.00</ele>
   <time>2014-04-05T13:58:25Z</time>
  </trkpt>
  <trkpt lat="32.984834" lon="-1.932158">
   <ele>1381.00</ele>
   <time>2014-04-05T13:58:28Z</time>
  </trkpt>
  <trkpt lat="32.984977" lon="-1.932336">
   <ele>1382.00</ele>
   <time>2014-04-05T13:58:30Z</time>
  </trkpt>
  <trkpt lat="32.985285" lon="-1.932724">
   <ele>1382.00</ele>
   <time>2014-04-05T13:58:34Z</time>
  </trkpt>
  <trkpt lat="32.986080" lon="-1.933703">
   <ele>1385.00</ele>
   <time>2014-04-05T13:58:45Z</time>
  </trkpt>
  <trkpt lat="32.986309" lon="-1.934001">
   <ele>1385.00</ele>
   <time>2014-04-05T13:58:49Z</time>
  </trkpt>
  <trkpt lat="32.986414" lon="-1.934072">
   <ele>1385.00</ele>
   <time>2014-04-05T13:59:04Z</time>
  </trkpt>
  <trkpt lat="32.986593" lon="-1.934014">
   <ele>1383.00</ele>
   <time>2014-04-05T13:59:09Z</time>
  </trkpt>
  <trkpt lat="32.986782" lon="-1.933851">
   <ele>1381.00</ele>
   <time>2014-04-05T13:59:13Z</time>
  </trkpt>
  <trkpt lat="32.986968" lon="-1.933783">
   <ele>1380.00</ele>
   <time>2014-04-05T13:59:16Z</time>
  </trkpt>
  <trkpt lat="32.987180" lon="-1.933825">
   <ele>1379.00</ele>
   <time>2014-04-05T13:59:19Z</time>
  </trkpt>
  <trkpt lat="32.987398" lon="-1.933954">
   <ele>1378.00</ele>
   <time>2014-04-05T13:59:22Z</time>
  </trkpt>
  <trkpt lat="32.987615" lon="-1.934124">
   <ele>1379.00</ele>
   <time>2014-04-05T13:59:25Z</time>
  </trkpt>
  <trkpt lat="32.987788" lon="-1.934322">
   <ele>1380.00</ele>
   <time>2014-04-05T13:59:28Z</time>
  </trkpt>
  <trkpt lat="32.987949" lon="-1.934498">
   <ele>1380.00</ele>
   <time>2014-04-05T13:59:31Z</time>
  </trkpt>
  <trkpt lat="32.988305" lon="-1.934860">
   <ele>1380.00</ele>
   <time>2014-04-05T13:59:37Z</time>
  </trkpt>
  <trkpt lat="32.988479" lon="-1.934969">
   <ele>1380.00</ele>
   <time>2014-04-05T13:59:40Z</time>
  </trkpt>
  <trkpt lat="32.988664" lon="-1.934942">
   <ele>1380.00</ele>
   <time>2014-04-05T13:59:45Z</time>
  </trkpt>
  <trkpt lat="32.988875" lon="-1.934896">
   <ele>1379.00</ele>
   <time>2014-04-05T13:59:49Z</time>
  </trkpt>
  <trkpt lat="32.989080" lon="-1.934935">
   <ele>1379.00</ele>
   <time>2014-04-05T13:59:52Z</time>
  </trkpt>
  <trkpt lat="32.989380" lon="-1.935030">
   <ele>1378.00</ele>
   <time>2014-04-05T13:59:56Z</time>
  </trkpt>
  <trkpt lat="32.989621" lon="-1.935093">
   <ele>1378.00</ele>
   <time>2014-04-05T13:59:59Z</time>
  </trkpt>
  <trkpt lat="32.989865" lon="-1.935204">
   <ele>1379.00</ele>
   <time>2014-04-05T14:00:02Z</time>
  </trkpt>
  <trkpt lat="32.990105" lon="-1.935309">
   <ele>1380.00</ele>
   <time>2014-04-05T14:00:05Z</time>
  </trkpt>
  <trkpt lat="32.990362" lon="-1.935403">
   <ele>1380.00</ele>
   <time>2014-04-05T14:00:08Z</time>
  </trkpt>
  <trkpt lat="32.990633" lon="-1.935489">
   <ele>1380.00</ele>
   <time>2014-04-05T14:00:11Z</time>
  </trkpt>
  <trkpt lat="32.990822" lon="-1.935512">
   <ele>1380.00</ele>
   <time>2014-04-05T14:00:13Z</time>
  </trkpt>
  <trkpt lat="32.991006" lon="-1.935490">
   <ele>1380.00</ele>
   <time>2014-04-05T14:00:15Z</time>
  </trkpt>
  <trkpt lat="32.991333" lon="-1.935381">
   <ele>1380.00</ele>
   <time>2014-04-05T14:00:19Z</time>
  </trkpt>
  <trkpt lat="32.991515" lon="-1.935368">
   <ele>1379.00</ele>
   <time>2014-04-05T14:00:21Z</time>
  </trkpt>
  <trkpt lat="32.991713" lon="-1.935378">
   <ele>1380.00</ele>
   <time>2014-04-05T14:00:23Z</time>
  </trkpt>
  <trkpt lat="32.991906" lon="-1.935388">
   <ele>1381.00</ele>
   <time>2014-04-05T14:00:25Z</time>
  </trkpt>
  <trkpt lat="32.992239" lon="-1.935400">
   <ele>1381.00</ele>
   <time>2014-04-05T14:00:29Z</time>
  </trkpt>
  <trkpt lat="32.992437" lon="-1.935514">
   <ele>1381.00</ele>
   <time>2014-04-05T14:00:32Z</time>
  </trkpt>
  <trkpt lat="32.992541" lon="-1.935708">
   <ele>1381.00</ele>
   <time>2014-04-05T14:00:35Z</time>
  </trkpt>
  <trkpt lat="32.992684" lon="-1.935840">
   <ele>1381.00</ele>
   <time>2014-04-05T14:00:40Z</time>
  </trkpt>
  <trkpt lat="32.992855" lon="-1.935746">
   <ele>1381.00</ele>
   <time>2014-04-05T14:00:46Z</time>
  </trkpt>
  <trkpt lat="32.993013" lon="-1.935637">
   <ele>1381.00</ele>
   <time>2014-04-05T14:00:52Z</time>
  </trkpt>
  <trkpt lat="32.993212" lon="-1.935694">
   <ele>1381.00</ele>
   <time>2014-04-05T14:00:57Z</time>
  </trkpt>
  <trkpt lat="32.993480" lon="-1.935871">
   <ele>1381.00</ele>
   <time>2014-04-05T14:01:03Z</time>
  </trkpt>
  <trkpt lat="32.993660" lon="-1.935946">
   <ele>1381.00</ele>
   <time>2014-04-05T14:01:08Z</time>
  </trkpt>
  <trkpt lat="32.993872" lon="-1.936011">
   <ele>1381.00</ele>
   <time>2014-04-05T14:01:13Z</time>
  </trkpt>
  <trkpt lat="32.994098" lon="-1.936123">
   <ele>1381.00</ele>
   <time>2014-04-05T14:01:17Z</time>
  </trkpt>
  <trkpt lat="32.994783" lon="-1.936474">
   <ele>1385.00</ele>
   <time>2014-04-05T14:01:26Z</time>
  </trkpt>
  <trkpt lat="32.995204" lon="-1.936724">
   <ele>1386.00</ele>
   <time>2014-04-05T14:01:31Z</time>
  </trkpt>
  <trkpt lat="32.995930" lon="-1.937103">
   <ele>1387.00</ele>
   <time>2014-04-05T14:01:39Z</time>
  </trkpt>
  <trkpt lat="32.996175" lon="-1.937212">
   <ele>1388.00</ele>
   <time>2014-04-05T14:01:42Z</time>
  </trkpt>
  <trkpt lat="32.996566" lon="-1.937448">
   <ele>1389.00</ele>
   <time>2014-04-05T14:01:47Z</time>
  </trkpt>
  <trkpt lat="32.997340" lon="-1.937837">
   <ele>1389.00</ele>
   <time>2014-04-05T14:01:56Z</time>
  </trkpt>
  <trkpt lat="32.997516" lon="-1.937927">
   <ele>1390.00</ele>
   <time>2014-04-05T14:01:58Z</time>
  </trkpt>
  <trkpt lat="32.997687" lon="-1.938017">
   <ele>1390.00</ele>
   <time>2014-04-05T14:02:00Z</time>
  </trkpt>
  <trkpt lat="32.997860" lon="-1.938103">
   <ele>1390.00</ele>
   <time>2014-04-05T14:02:02Z</time>
  </trkpt>
  <trkpt lat="32.998031" lon="-1.938207">
   <ele>1390.00</ele>
   <time>2014-04-05T14:02:04Z</time>
  </trkpt>
  <trkpt lat="32.998215" lon="-1.938297">
   <ele>1390.00</ele>
   <time>2014-04-05T14:02:06Z</time>
  </trkpt>
  <trkpt lat="32.998412" lon="-1.938359">
   <ele>1390.00</ele>
   <time>2014-04-05T14:02:08Z</time>
  </trkpt>
  <trkpt lat="32.998620" lon="-1.938396">
   <ele>1390.00</ele>
   <time>2014-04-05T14:02:10Z</time>
  </trkpt>
  <trkpt lat="32.998827" lon="-1.938441">
   <ele>1391.00</ele>
   <time>2014-04-05T14:02:12Z</time>
  </trkpt>
  <trkpt lat="32.999028" lon="-1.938513">
   <ele>1391.00</ele>
   <time>2014-04-05T14:02:14Z</time>
  </trkpt>
  <trkpt lat="32.999226" lon="-1.938598">
   <ele>1391.00</ele>
   <time>2014-04-05T14:02:16Z</time>
  </trkpt>
  <trkpt lat="32.999433" lon="-1.938649">
   <ele>1391.00</ele>
   <time>2014-04-05T14:02:18Z</time>
  </trkpt>
  <trkpt lat="32.999640" lon="-1.938697">
   <ele>1391.00</ele>
   <time>2014-04-05T14:02:20Z</time>
  </trkpt>
  <trkpt lat="33.000577" lon="-1.938986">
   <ele>1390.00</ele>
   <time>2014-04-05T14:02:29Z</time>
  </trkpt>
  <trkpt lat="33.002011" lon="-1.939439">
   <ele>1387.00</ele>
   <time>2014-04-05T14:02:41Z</time>
  </trkpt>
  <trkpt lat="33.002717" lon="-1.939574">
   <ele>1389.00</ele>
   <time>2014-04-05T14:02:47Z</time>
  </trkpt>
  <trkpt lat="33.003190" lon="-1.939702">
   <ele>1389.00</ele>
   <time>2014-04-05T14:02:52Z</time>
  </trkpt>
  <trkpt lat="33.003546" lon="-1.939834">
   <ele>1388.00</ele>
   <time>2014-04-05T14:02:58Z</time>
  </trkpt>
  <trkpt lat="33.003746" lon="-1.939914">
   <ele>1387.00</ele>
   <time>2014-04-05T14:03:04Z</time>
  </trkpt>
  <trkpt lat="33.004106" lon="-1.939997">
   <ele>1387.00</ele>
   <time>2014-04-05T14:03:12Z</time>
  </trkpt>
  <trkpt lat="33.004300" lon="-1.940052">
   <ele>1387.00</ele>
   <time>2014-04-05T14:03:15Z</time>
  </trkpt>
  <trkpt lat="33.004499" lon="-1.940180">
   <ele>1387.00</ele>
   <time>2014-04-05T14:03:18Z</time>
  </trkpt>
  <trkpt lat="33.004675" lon="-1.940350">
   <ele>1389.00</ele>
   <time>2014-04-05T14:03:21Z</time>
  </trkpt>
  <trkpt lat="33.004835" lon="-1.940505">
   <ele>1389.00</ele>
   <time>2014-04-05T14:03:24Z</time>
  </trkpt>
  <trkpt lat="33.005014" lon="-1.940540">
   <ele>1389.00</ele>
   <time>2014-04-05T14:03:27Z</time>
  </trkpt>
  <trkpt lat="33.005213" lon="-1.940503">
   <ele>1389.00</ele>
   <time>2014-04-05T14:03:31Z</time>
  </trkpt>
  <trkpt lat="33.005553" lon="-1.940514">
   <ele>1390.00</ele>
   <time>2014-04-05T14:03:37Z</time>
  </trkpt>
  <trkpt lat="33.005752" lon="-1.940587">
   <ele>1390.00</ele>
   <time>2014-04-05T14:03:40Z</time>
  </trkpt>
  <trkpt lat="33.005972" lon="-1.940647">
   <ele>1390.00</ele>
   <time>2014-04-05T14:03:43Z</time>
  </trkpt>
  <trkpt lat="33.006219" lon="-1.940643">
   <ele>1392.00</ele>
   <time>2014-04-05T14:03:46Z</time>
  </trkpt>
  <trkpt lat="33.006448" lon="-1.940669">
   <ele>1392.00</ele>
   <time>2014-04-05T14:03:49Z</time>
  </trkpt>
  <trkpt lat="33.006684" lon="-1.940736">
   <ele>1393.00</ele>
   <time>2014-04-05T14:03:52Z</time>
  </trkpt>
  <trkpt lat="33.006924" lon="-1.940817">
   <ele>1394.00</ele>
   <time>2014-04-05T14:03:55Z</time>
  </trkpt>
  <trkpt lat="33.007208" lon="-1.940939">
   <ele>1395.00</ele>
   <time>2014-04-05T14:03:59Z</time>
  </trkpt>
  <trkpt lat="33.008290" lon="-1.941250">
   <ele>1396.00</ele>
   <time>2014-04-05T14:04:13Z</time>
  </trkpt>
  <trkpt lat="33.008481" lon="-1.941276">
   <ele>1397.00</ele>
   <time>2014-04-05T14:04:15Z</time>
  </trkpt>
  <trkpt lat="33.008667" lon="-1.941316">
   <ele>1397.00</ele>
   <time>2014-04-05T14:04:17Z</time>
  </trkpt>
  <trkpt lat="33.008950" lon="-1.941404">
   <ele>1398.00</ele>
   <time>2014-04-05T14:04:20Z</time>
  </trkpt>
  <trkpt lat="33.009231" lon="-1.941469">
   <ele>1398.00</ele>
   <time>2014-04-05T14:04:23Z</time>
  </trkpt>
  <trkpt lat="33.009413" lon="-1.941512">
   <ele>1398.00</ele>
   <time>2014-04-05T14:04:25Z</time>
  </trkpt>
  <trkpt lat="33.009702" lon="-1.941592">
   <ele>1398.00</ele>
   <time>2014-04-05T14:04:28Z</time>
  </trkpt>
  <trkpt lat="33.010533" lon="-1.941837">
   <ele>1398.00</ele>
   <time>2014-04-05T14:04:36Z</time>
  </trkpt>
  <trkpt lat="33.010739" lon="-1.941896">
   <ele>1399.00</ele>
   <time>2014-04-05T14:04:38Z</time>
  </trkpt>
  <trkpt lat="33.010937" lon="-1.941970">
   <ele>1399.00</ele>
   <time>2014-04-05T14:04:40Z</time>
  </trkpt>
  <trkpt lat="33.011137" lon="-1.942034">
   <ele>1399.00</ele>
   <time>2014-04-05T14:04:42Z</time>
  </trkpt>
  <trkpt lat="33.011777" lon="-1.942215">
   <ele>1400.00</ele>
   <time>2014-04-05T14:04:48Z</time>
  </trkpt>
  <trkpt lat="33.012434" lon="-1.942425">
   <ele>1401.00</ele>
   <time>2014-04-05T14:04:54Z</time>
  </trkpt>
  <trkpt lat="33.012655" lon="-1.942479">
   <ele>1401.00</ele>
   <time>2014-04-05T14:04:56Z</time>
  </trkpt>
  <trkpt lat="33.013123" lon="-1.942567">
   <ele>1403.00</ele>
   <time>2014-04-05T14:05:00Z</time>
  </trkpt>
  <trkpt lat="33.013339" lon="-1.942639">
   <ele>1404.00</ele>
   <time>2014-04-05T14:05:02Z</time>
  </trkpt>
  <trkpt lat="33.013557" lon="-1.942702">
   <ele>1404.00</ele>
   <time>2014-04-05T14:05:04Z</time>
  </trkpt>
  <trkpt lat="33.014602" lon="-1.942935">
   <ele>1408.00</ele>
   <time>2014-04-05T14:05:13Z</time>
  </trkpt>
  <trkpt lat="33.014833" lon="-1.942963">
   <ele>1408.00</ele>
   <time>2014-04-05T14:05:15Z</time>
  </trkpt>
  <trkpt lat="33.015184" lon="-1.942978">
   <ele>1408.00</ele>
   <time>2014-04-05T14:05:18Z</time>
  </trkpt>
  <trkpt lat="33.015434" lon="-1.942973">
   <ele>1408.00</ele>
   <time>2014-04-05T14:05:20Z</time>
  </trkpt>
  <trkpt lat="33.015808" lon="-1.942966">
   <ele>1407.00</ele>
   <time>2014-04-05T14:05:23Z</time>
  </trkpt>
  <trkpt lat="33.016377" lon="-1.942981">
   <ele>1405.00</ele>
   <time>2014-04-05T14:05:28Z</time>
  </trkpt>
  <trkpt lat="33.016585" lon="-1.942936">
   <ele>1404.00</ele>
   <time>2014-04-05T14:05:30Z</time>
  </trkpt>
  <trkpt lat="33.016911" lon="-1.942865">
   <ele>1404.00</ele>
   <time>2014-04-05T14:05:33Z</time>
  </trkpt>
  <trkpt lat="33.017129" lon="-1.942836">
   <ele>1404.00</ele>
   <time>2014-04-05T14:05:35Z</time>
  </trkpt>
  <trkpt lat="33.017450" lon="-1.942813">
   <ele>1403.00</ele>
   <time>2014-04-05T14:05:38Z</time>
  </trkpt>
  <trkpt lat="33.017763" lon="-1.942818">
   <ele>1403.00</ele>
   <time>2014-04-05T14:05:41Z</time>
  </trkpt>
  <trkpt lat="33.017981" lon="-1.942789">
   <ele>1402.00</ele>
   <time>2014-04-05T14:05:43Z</time>
  </trkpt>
  <trkpt lat="33.018194" lon="-1.942739">
   <ele>1401.00</ele>
   <time>2014-04-05T14:05:45Z</time>
  </trkpt>
  <trkpt lat="33.018391" lon="-1.942689">
   <ele>1401.00</ele>
   <time>2014-04-05T14:05:47Z</time>
  </trkpt>
  <trkpt lat="33.018654" lon="-1.942691">
   <ele>1400.00</ele>
   <time>2014-04-05T14:05:50Z</time>
  </trkpt>
  <trkpt lat="33.018898" lon="-1.942727">
   <ele>1399.00</ele>
   <time>2014-04-05T14:05:53Z</time>
  </trkpt>
  <trkpt lat="33.019141" lon="-1.942777">
   <ele>1398.00</ele>
   <time>2014-04-05T14:05:56Z</time>
  </trkpt>
  <trkpt lat="33.019323" lon="-1.942767">
   <ele>1398.00</ele>
   <time>2014-04-05T14:05:58Z</time>
  </trkpt>
  <trkpt lat="33.019690" lon="-1.942728">
   <ele>1398.00</ele>
   <time>2014-04-05T14:06:02Z</time>
  </trkpt>
  <trkpt lat="33.019866" lon="-1.942654">
   <ele>1397.00</ele>
   <time>2014-04-05T14:06:04Z</time>
  </trkpt>
  <trkpt lat="33.020125" lon="-1.942515">
   <ele>1397.00</ele>
   <time>2014-04-05T14:06:07Z</time>
  </trkpt>
  <trkpt lat="33.020292" lon="-1.942381">
   <ele>1397.00</ele>
   <time>2014-04-05T14:06:09Z</time>
  </trkpt>
  <trkpt lat="33.020460" lon="-1.942241">
   <ele>1396.00</ele>
   <time>2014-04-05T14:06:11Z</time>
  </trkpt>
  <trkpt lat="33.020638" lon="-1.942137">
   <ele>1396.00</ele>
   <time>2014-04-05T14:06:13Z</time>
  </trkpt>
  <trkpt lat="33.020875" lon="-1.942089">
   <ele>1395.00</ele>
   <time>2014-04-05T14:06:16Z</time>
  </trkpt>
  <trkpt lat="33.021059" lon="-1.942144">
   <ele>1395.00</ele>
   <time>2014-04-05T14:06:20Z</time>
  </trkpt>
  <trkpt lat="33.021214" lon="-1.942265">
   <ele>1394.00</ele>
   <time>2014-04-05T14:06:29Z</time>
  </trkpt>
  <trkpt lat="33.021364" lon="-1.942454">
   <ele>1396.00</ele>
   <time>2014-04-05T14:06:35Z</time>
  </trkpt>
  <trkpt lat="33.021700" lon="-1.942776">
   <ele>1397.00</ele>
   <time>2014-04-05T14:06:41Z</time>
  </trkpt>
  <trkpt lat="33.021906" lon="-1.942927">
   <ele>1398.00</ele>
   <time>2014-04-05T14:06:44Z</time>
  </trkpt>
  <trkpt lat="33.022124" lon="-1.943043">
   <ele>1398.00</ele>
   <time>2014-04-05T14:06:47Z</time>
  </trkpt>
  <trkpt lat="33.022324" lon="-1.943119">
   <ele>1398.00</ele>
   <time>2014-04-05T14:06:50Z</time>
  </trkpt>
  <trkpt lat="33.022517" lon="-1.943126">
   <ele>1397.00</ele>
   <time>2014-04-05T14:06:54Z</time>
  </trkpt>
  <trkpt lat="33.022713" lon="-1.943147">
   <ele>1396.00</ele>
   <time>2014-04-05T14:07:00Z</time>
  </trkpt>
  <trkpt lat="33.022929" lon="-1.943199">
   <ele>1396.00</ele>
   <time>2014-04-05T14:07:05Z</time>
  </trkpt>
  <trkpt lat="33.023296" lon="-1.943147">
   <ele>1396.00</ele>
   <time>2014-04-05T14:07:11Z</time>
  </trkpt>
  <trkpt lat="33.023524" lon="-1.943145">
   <ele>1397.00</ele>
   <time>2014-04-05T14:07:14Z</time>
  </trkpt>
  <trkpt lat="33.023971" lon="-1.943159">
   <ele>1396.00</ele>
   <time>2014-04-05T14:07:20Z</time>
  </trkpt>
  <trkpt lat="33.024204" lon="-1.943203">
   <ele>1396.00</ele>
   <time>2014-04-05T14:07:23Z</time>
  </trkpt>
  <trkpt lat="33.024429" lon="-1.943234">
   <ele>1396.00</ele>
   <time>2014-04-05T14:07:26Z</time>
  </trkpt>
  <trkpt lat="33.024806" lon="-1.943161">
   <ele>1396.00</ele>
   <time>2014-04-05T14:07:31Z</time>
  </trkpt>
  <trkpt lat="33.025044" lon="-1.943165">
   <ele>1396.00</ele>
   <time>2014-04-05T14:07:34Z</time>
  </trkpt>
  <trkpt lat="33.025469" lon="-1.943196">
   <ele>1396.00</ele>
   <time>2014-04-05T14:07:39Z</time>
  </trkpt>
  <trkpt lat="33.025762" lon="-1.943202">
   <ele>1397.00</ele>
   <time>2014-04-05T14:07:42Z</time>
  </trkpt>
  <trkpt lat="33.026162" lon="-1.943217">
   <ele>1397.00</ele>
   <time>2014-04-05T14:07:46Z</time>
  </trkpt>
  <trkpt lat="33.026642" lon="-1.943231">
   <ele>1397.00</ele>
   <time>2014-04-05T14:07:51Z</time>
  </trkpt>
  <trkpt lat="33.026834" lon="-1.943228">
   <ele>1396.00</ele>
   <time>2014-04-05T14:07:53Z</time>
  </trkpt>
  <trkpt lat="33.027062" lon="-1.943223">
   <ele>1396.00</ele>
   <time>2014-04-05T14:07:56Z</time>
  </trkpt>
  <trkpt lat="33.027245" lon="-1.943214">
   <ele>1396.00</ele>
   <time>2014-04-05T14:07:59Z</time>
  </trkpt>
  <trkpt lat="33.027450" lon="-1.943230">
   <ele>1396.00</ele>
   <time>2014-04-05T14:08:02Z</time>
  </trkpt>
  <trkpt lat="33.027915" lon="-1.943293">
   <ele>1396.00</ele>
   <time>2014-04-05T14:08:09Z</time>
  </trkpt>
  <trkpt lat="33.028091" lon="-1.943344">
   <ele>1396.00</ele>
   <time>2014-04-05T14:08:12Z</time>
  </trkpt>
  <trkpt lat="33.028289" lon="-1.943401">
   <ele>1395.00</ele>
   <time>2014-04-05T14:08:16Z</time>
  </trkpt>
  <trkpt lat="33.028475" lon="-1.943395">
   <ele>1396.00</ele>
   <time>2014-04-05T14:08:19Z</time>
  </trkpt>
  <trkpt lat="33.028684" lon="-1.943383">
   <ele>1396.00</ele>
   <time>2014-04-05T14:08:22Z</time>
  </trkpt>
  <trkpt lat="33.028879" lon="-1.943417">
   <ele>1395.00</ele>
   <time>2014-04-05T14:08:25Z</time>
  </trkpt>
  <trkpt lat="33.029076" lon="-1.943449">
   <ele>1395.00</ele>
   <time>2014-04-05T14:08:28Z</time>
  </trkpt>
  <trkpt lat="33.029298" lon="-1.943449">
   <ele>1395.00</ele>
   <time>2014-04-05T14:08:32Z</time>
  </trkpt>
  <trkpt lat="33.029516" lon="-1.943452">
   <ele>1395.00</ele>
   <time>2014-04-05T14:08:35Z</time>
  </trkpt>
  <trkpt lat="33.029754" lon="-1.943500">
   <ele>1395.00</ele>
   <time>2014-04-05T14:08:38Z</time>
  </trkpt>
  <trkpt lat="33.030319" lon="-1.943601">
   <ele>1394.00</ele>
   <time>2014-04-05T14:08:45Z</time>
  </trkpt>
  <trkpt lat="33.030519" lon="-1.943632">
   <ele>1394.00</ele>
   <time>2014-04-05T14:08:48Z</time>
  </trkpt>
  <trkpt lat="33.030707" lon="-1.943629">
   <ele>1393.00</ele>
   <time>2014-04-05T14:08:52Z</time>
  </trkpt>
  <trkpt lat="33.030916" lon="-1.943687">
   <ele>1392.00</ele>
   <time>2014-04-05T14:08:56Z</time>
  </trkpt>
  <trkpt lat="33.031056" lon="-1.943832">
   <ele>1393.00</ele>
   <time>2014-04-05T14:08:59Z</time>
  </trkpt>
  <trkpt lat="33.031234" lon="-1.943924">
   <ele>1393.00</ele>
   <time>2014-04-05T14:09:02Z</time>
  </trkpt>
  <trkpt lat="33.031457" lon="-1.943924">
   <ele>1392.00</ele>
   <time>2014-04-05T14:09:05Z</time>
  </trkpt>
  <trkpt lat="33.031689" lon="-1.943869">
   <ele>1392.00</ele>
   <time>2014-04-05T14:09:08Z</time>
  </trkpt>
  <trkpt lat="33.031971" lon="-1.943790">
   <ele>1391.00</ele>
   <time>2014-04-05T14:09:12Z</time>
  </trkpt>
  <trkpt lat="33.032185" lon="-1.943771">
   <ele>1391.00</ele>
   <time>2014-04-05T14:09:16Z</time>
  </trkpt>
  <trkpt lat="33.032392" lon="-1.943772">
   <ele>1391.00</ele>
   <time>2014-04-05T14:09:22Z</time>
  </trkpt>
  <trkpt lat="33.032587" lon="-1.943684">
   <ele>1390.00</ele>
   <time>2014-04-05T14:09:26Z</time>
  </trkpt>
  <trkpt lat="33.032758" lon="-1.943515">
   <ele>1390.00</ele>
   <time>2014-04-05T14:09:30Z</time>
  </trkpt>
  <trkpt lat="33.032945" lon="-1.943427">
   <ele>1389.00</ele>
   <time>2014-04-05T14:09:34Z</time>
  </trkpt>
  <trkpt lat="33.033128" lon="-1.943418">
   <ele>1388.00</ele>
   <time>2014-04-05T14:09:38Z</time>
  </trkpt>
  <trkpt lat="33.033311" lon="-1.943409">
   <ele>1388.00</ele>
   <time>2014-04-05T14:09:42Z</time>
  </trkpt>
  <trkpt lat="33.033510" lon="-1.943411">
   <ele>1389.00</ele>
   <time>2014-04-05T14:09:46Z</time>
  </trkpt>
  <trkpt lat="33.033938" lon="-1.943440">
   <ele>1390.00</ele>
   <time>2014-04-05T14:09:53Z</time>
  </trkpt>
  <trkpt lat="33.034154" lon="-1.943460">
   <ele>1390.00</ele>
   <time>2014-04-05T14:09:57Z</time>
  </trkpt>
  <trkpt lat="33.034333" lon="-1.943418">
   <ele>1391.00</ele>
   <time>2014-04-05T14:10:04Z</time>
  </trkpt>
  <trkpt lat="33.034537" lon="-1.943362">
   <ele>1391.00</ele>
   <time>2014-04-05T14:10:08Z</time>
  </trkpt>
  <trkpt lat="33.034738" lon="-1.943328">
   <ele>1392.00</ele>
   <time>2014-04-05T14:10:11Z</time>
  </trkpt>
  <trkpt lat="33.034980" lon="-1.943286">
   <ele>1392.00</ele>
   <time>2014-04-05T14:10:15Z</time>
  </trkpt>
  <trkpt lat="33.035403" lon="-1.943188">
   <ele>1393.00</ele>
   <time>2014-04-05T14:10:22Z</time>
  </trkpt>
  <trkpt lat="33.035615" lon="-1.943203">
   <ele>1395.00</ele>
   <time>2014-04-05T14:10:25Z</time>
  </trkpt>
  <trkpt lat="33.035889" lon="-1.943285">
   <ele>1395.00</ele>
   <time>2014-04-05T14:10:29Z</time>
  </trkpt>
  <trkpt lat="33.036113" lon="-1.943322">
   <ele>1396.00</ele>
   <time>2014-04-05T14:10:32Z</time>
  </trkpt>
  <trkpt lat="33.036326" lon="-1.943420">
   <ele>1396.00</ele>
   <time>2014-04-05T14:10:35Z</time>
  </trkpt>
  <trkpt lat="33.036537" lon="-1.943561">
   <ele>1396.00</ele>
   <time>2014-04-05T14:10:38Z</time>
  </trkpt>
  <trkpt lat="33.036719" lon="-1.943724">
   <ele>1396.00</ele>
   <time>2014-04-05T14:10:41Z</time>
  </trkpt>
  <trkpt lat="33.036871" lon="-1.943940">
   <ele>1397.00</ele>
   <time>2014-04-05T14:10:44Z</time>
  </trkpt>
  <trkpt lat="33.037047" lon="-1.944146">
   <ele>1397.00</ele>
   <time>2014-04-05T14:10:47Z</time>
  </trkpt>
  <trkpt lat="33.037294" lon="-1.944377">
   <ele>1399.00</ele>
   <time>2014-04-05T14:10:51Z</time>
  </trkpt>
  <trkpt lat="33.037474" lon="-1.944466">
   <ele>1400.00</ele>
   <time>2014-04-05T14:10:54Z</time>
  </trkpt>
  <trkpt lat="33.037652" lon="-1.944539">
   <ele>1402.00</ele>
   <time>2014-04-05T14:10:58Z</time>
  </trkpt>
  <trkpt lat="33.037764" lon="-1.944735">
   <ele>1402.00</ele>
   <time>2014-04-05T14:11:03Z</time>
  </trkpt>
  <trkpt lat="33.037894" lon="-1.944906">
   <ele>1403.00</ele>
   <time>2014-04-05T14:11:09Z</time>
  </trkpt>
  <trkpt lat="33.038069" lon="-1.944955">
   <ele>1404.00</ele>
   <time>2014-04-05T14:11:14Z</time>
  </trkpt>
  <trkpt lat="33.038267" lon="-1.944900">
   <ele>1404.00</ele>
   <time>2014-04-05T14:11:19Z</time>
  </trkpt>
  <trkpt lat="33.038455" lon="-1.944868">
   <ele>1404.00</ele>
   <time>2014-04-05T14:11:23Z</time>
  </trkpt>
  <trkpt lat="33.038652" lon="-1.944931">
   <ele>1403.00</ele>
   <time>2014-04-05T14:11:27Z</time>
  </trkpt>
  <trkpt lat="33.038866" lon="-1.944986">
   <ele>1403.00</ele>
   <time>2014-04-05T14:11:31Z</time>
  </trkpt>
  <trkpt lat="33.039097" lon="-1.945017">
   <ele>1403.00</ele>
   <time>2014-04-05T14:11:35Z</time>
  </trkpt>
  <trkpt lat="33.039284" lon="-1.944993">
   <ele>1404.00</ele>
   <time>2014-04-05T14:11:38Z</time>
  </trkpt>
  <trkpt lat="33.039525" lon="-1.944938">
   <ele>1405.00</ele>
   <time>2014-04-05T14:11:42Z</time>
  </trkpt>
  <trkpt lat="33.039737" lon="-1.944909">
   <ele>1404.00</ele>
   <time>2014-04-05T14:11:46Z</time>
  </trkpt>
  <trkpt lat="33.039939" lon="-1.944935">
   <ele>1405.00</ele>
   <time>2014-04-05T14:11:50Z</time>
  </trkpt>
  <trkpt lat="33.040111" lon="-1.945015">
   <ele>1405.00</ele>
   <time>2014-04-05T14:11:54Z</time>
  </trkpt>
  <trkpt lat="33.040303" lon="-1.945028">
   <ele>1405.00</ele>
   <time>2014-04-05T14:11:58Z</time>
  </trkpt>
  <trkpt lat="33.040506" lon="-1.945055">
   <ele>1406.00</ele>
   <time>2014-04-05T14:12:02Z</time>
  </trkpt>
  <trkpt lat="33.040747" lon="-1.945148">
   <ele>1406.00</ele>
   <time>2014-04-05T14:12:07Z</time>
  </trkpt>
  <trkpt lat="33.040944" lon="-1.945220">
   <ele>1406.00</ele>
   <time>2014-04-05T14:12:11Z</time>
  </trkpt>
  <trkpt lat="33.041155" lon="-1.945239">
   <ele>1406.00</ele>
   <time>2014-04-05T14:12:15Z</time>
  </trkpt>
  <trkpt lat="33.041365" lon="-1.945219">
   <ele>1406.00</ele>
   <time>2014-04-05T14:12:19Z</time>
  </trkpt>
  <trkpt lat="33.041545" lon="-1.945159">
   <ele>1406.00</ele>
   <time>2014-04-05T14:12:23Z</time>
  </trkpt>
  <trkpt lat="33.041702" lon="-1.944992">
   <ele>1405.00</ele>
   <time>2014-04-05T14:12:28Z</time>
  </trkpt>
  <trkpt lat="33.042036" lon="-1.944513">
   <ele>1404.00</ele>
   <time>2014-04-05T14:12:39Z</time>
  </trkpt>
  <trkpt lat="33.042184" lon="-1.944362">
   <ele>1404.00</ele>
   <time>2014-04-05T14:12:43Z</time>
  </trkpt>
  <trkpt lat="33.042357" lon="-1.944258">
   <ele>1404.00</ele>
   <time>2014-04-05T14:12:47Z</time>
  </trkpt>
  <trkpt lat="33.042557" lon="-1.944215">
   <ele>1404.00</ele>
   <time>2014-04-05T14:12:51Z</time>
  </trkpt>
  <trkpt lat="33.042756" lon="-1.944175">
   <ele>1404.00</ele>
   <time>2014-04-05T14:12:55Z</time>
  </trkpt>
  <trkpt lat="33.042920" lon="-1.944060">
   <ele>1404.00</ele>
   <time>2014-04-05T14:13:00Z</time>
  </trkpt>
  <trkpt lat="33.042924" lon="-1.944172">
   <ele>1403.00</ele>
   <time>2014-04-05T14:13:07Z</time>
  </trkpt>
  <trkpt lat="33.042725" lon="-1.944192">
   <ele>1403.00</ele>
   <time>2014-04-05T14:13:12Z</time>
  </trkpt>
  <trkpt lat="33.042463" lon="-1.944240">
   <ele>1403.00</ele>
   <time>2014-04-05T14:13:18Z</time>
  </trkpt>
  <trkpt lat="33.042288" lon="-1.944295">
   <ele>1404.00</ele>
   <time>2014-04-05T14:13:22Z</time>
  </trkpt>
  <trkpt lat="33.042105" lon="-1.944436">
   <ele>1404.00</ele>
   <time>2014-04-05T14:13:27Z</time>
  </trkpt>
  <trkpt lat="33.041950" lon="-1.944559">
   <ele>1404.00</ele>
   <time>2014-04-05T14:13:32Z</time>
  </trkpt>
  <trkpt lat="33.041874" lon="-1.944507">
   <ele>1404.00</ele>
   <time>2014-04-05T14:13:41Z</time>
  </trkpt>
 </trkseg>
 <trkseg>
  <trkpt lat="33.041732" lon="-1.944693">
   <ele>1403.00</ele>
   <time>2014-04-05T14:25:41Z</time>
  </trkpt>
  <trkpt lat="33.041701" lon="-1.944894">
   <ele>1402.00</ele>
   <time>2014-04-05T14:25:56Z</time>
  </trkpt>
  <trkpt lat="33.041733" lon="-1.945167">
   <ele>1403.00</ele>
   <time>2014-04-05T14:26:02Z</time>
  </trkpt>
  <trkpt lat="33.041750" lon="-1.945393">
   <ele>1403.00</ele>
   <time>2014-04-05T14:26:06Z</time>
  </trkpt>
  <trkpt lat="33.041731" lon="-1.945649">
   <ele>1403.00</ele>
   <time>2014-04-05T14:26:10Z</time>
  </trkpt>
  <trkpt lat="33.041676" lon="-1.945905">
   <ele>1403.00</ele>
   <time>2014-04-05T14:26:14Z</time>
  </trkpt>
  <trkpt lat="33.041567" lon="-1.946135">
   <ele>1403.00</ele>
   <time>2014-04-05T14:26:18Z</time>
  </trkpt>
  <trkpt lat="33.041465" lon="-1.946392">
   <ele>1403.00</ele>
   <time>2014-04-05T14:26:22Z</time>
  </trkpt>
  <trkpt lat="33.041438" lon="-1.946660">
   <ele>1403.00</ele>
   <time>2014-04-05T14:26:26Z</time>
  </trkpt>
  <trkpt lat="33.041420" lon="-1.946912">
   <ele>1403.00</ele>
   <time>2014-04-05T14:26:31Z</time>
  </trkpt>
  <trkpt lat="33.041450" lon="-1.947083">
   <ele>1405.00</ele>
   <time>2014-04-05T14:26:47Z</time>
  </trkpt>
  <trkpt lat="33.041560" lon="-1.947190">
   <ele>1406.00</ele>
   <time>2014-04-05T14:27:02Z</time>
  </trkpt>
  <trkpt lat="33.041726" lon="-1.947290">
   <ele>1407.00</ele>
   <time>2014-04-05T14:27:06Z</time>
  </trkpt>
  <trkpt lat="33.042298" lon="-1.947591">
   <ele>1409.00</ele>
   <time>2014-04-05T14:27:16Z</time>
  </trkpt>
  <trkpt lat="33.042516" lon="-1.947650">
   <ele>1409.00</ele>
   <time>2014-04-05T14:27:19Z</time>
  </trkpt>
  <trkpt lat="33.042767" lon="-1.947704">
   <ele>1409.00</ele>
   <time>2014-04-05T14:27:22Z</time>
  </trkpt>
  <trkpt lat="33.043015" lon="-1.947792">
   <ele>1410.00</ele>
   <time>2014-04-05T14:27:25Z</time>
  </trkpt>
  <trkpt lat="33.043243" lon="-1.947946">
   <ele>1410.00</ele>
   <time>2014-04-05T14:27:28Z</time>
  </trkpt>
  <trkpt lat="33.043465" lon="-1.948123">
   <ele>1410.00</ele>
   <time>2014-04-05T14:27:31Z</time>
  </trkpt>
  <trkpt lat="33.043777" lon="-1.948361">
   <ele>1410.00</ele>
   <time>2014-04-05T14:27:35Z</time>
  </trkpt>
  <trkpt lat="33.044090" lon="-1.948636">
   <ele>1410.00</ele>
   <time>2014-04-05T14:27:39Z</time>
  </trkpt>
  <trkpt lat="33.044255" lon="-1.948755">
   <ele>1411.00</ele>
   <time>2014-04-05T14:27:41Z</time>
  </trkpt>
  <trkpt lat="33.044429" lon="-1.948843">
   <ele>1411.00</ele>
   <time>2014-04-05T14:27:43Z</time>
  </trkpt>
  <trkpt lat="33.044705" lon="-1.948967">
   <ele>1411.00</ele>
   <time>2014-04-05T14:27:46Z</time>
  </trkpt>
  <trkpt lat="33.044888" lon="-1.949075">
   <ele>1411.00</ele>
   <time>2014-04-05T14:27:48Z</time>
  </trkpt>
  <trkpt lat="33.045444" lon="-1.949435">
   <ele>1412.00</ele>
   <time>2014-04-05T14:27:54Z</time>
  </trkpt>
  <trkpt lat="33.045621" lon="-1.949565">
   <ele>1412.00</ele>
   <time>2014-04-05T14:27:56Z</time>
  </trkpt>
  <trkpt lat="33.045886" lon="-1.949783">
   <ele>1412.00</ele>
   <time>2014-04-05T14:27:59Z</time>
  </trkpt>
  <trkpt lat="33.046263" lon="-1.950104">
   <ele>1412.00</ele>
   <time>2014-04-05T14:28:03Z</time>
  </trkpt>
  <trkpt lat="33.046694" lon="-1.950438">
   <ele>1412.00</ele>
   <time>2014-04-05T14:28:07Z</time>
  </trkpt>
  <trkpt lat="33.047183" lon="-1.950777">
   <ele>1413.00</ele>
   <time>2014-04-05T14:28:11Z</time>
  </trkpt>
  <trkpt lat="33.048678" lon="-1.951787">
   <ele>1415.00</ele>
   <time>2014-04-05T14:28:23Z</time>
  </trkpt>
  <trkpt lat="33.048919" lon="-1.951904">
   <ele>1416.00</ele>
   <time>2014-04-05T14:28:25Z</time>
  </trkpt>
  <trkpt lat="33.049266" lon="-1.952036">
   <ele>1417.00</ele>
   <time>2014-04-05T14:28:28Z</time>
  </trkpt>
  <trkpt lat="33.049479" lon="-1.952121">
   <ele>1418.00</ele>
   <time>2014-04-05T14:28:30Z</time>
  </trkpt>
  <trkpt lat="33.049677" lon="-1.952227">
   <ele>1418.00</ele>
   <time>2014-04-05T14:28:32Z</time>
  </trkpt>
  <trkpt lat="33.049874" lon="-1.952303">
   <ele>1419.00</ele>
   <time>2014-04-05T14:28:34Z</time>
  </trkpt>
  <trkpt lat="33.050064" lon="-1.952332">
   <ele>1419.00</ele>
   <time>2014-04-05T14:28:36Z</time>
  </trkpt>
  <trkpt lat="33.050309" lon="-1.952436">
   <ele>1420.00</ele>
   <time>2014-04-05T14:28:39Z</time>
  </trkpt>
  <trkpt lat="33.050524" lon="-1.952571">
   <ele>1421.00</ele>
   <time>2014-04-05T14:28:42Z</time>
  </trkpt>
  <trkpt lat="33.050767" lon="-1.952642">
   <ele>1421.00</ele>
   <time>2014-04-05T14:28:45Z</time>
  </trkpt>
  <trkpt lat="33.051012" lon="-1.952740">
   <ele>1422.00</ele>
   <time>2014-04-05T14:28:48Z</time>
  </trkpt>
  <trkpt lat="33.051214" lon="-1.952877">
   <ele>1422.00</ele>
   <time>2014-04-05T14:28:51Z</time>
  </trkpt>
  <trkpt lat="33.051444" lon="-1.953000">
   <ele>1423.00</ele>
   <time>2014-04-05T14:28:54Z</time>
  </trkpt>
  <trkpt lat="33.051620" lon="-1.953063">
   <ele>1423.00</ele>
   <time>2014-04-05T14:28:56Z</time>
  </trkpt>
  <trkpt lat="33.051806" lon="-1.953131">
   <ele>1423.00</ele>
   <time>2014-04-05T14:28:58Z</time>
  </trkpt>
  <trkpt lat="33.052073" lon="-1.953243">
   <ele>1424.00</ele>
   <time>2014-04-05T14:29:01Z</time>
  </trkpt>
  <trkpt lat="33.052321" lon="-1.953296">
   <ele>1424.00</ele>
   <time>2014-04-05T14:29:04Z</time>
  </trkpt>
  <trkpt lat="33.052530" lon="-1.953411">
   <ele>1425.00</ele>
   <time>2014-04-05T14:29:07Z</time>
  </trkpt>
  <trkpt lat="33.053014" lon="-1.953814">
   <ele>1425.00</ele>
   <time>2014-04-05T14:29:14Z</time>
  </trkpt>
  <trkpt lat="33.053204" lon="-1.953992">
   <ele>1426.00</ele>
   <time>2014-04-05T14:29:17Z</time>
  </trkpt>
  <trkpt lat="33.053386" lon="-1.954120">
   <ele>1426.00</ele>
   <time>2014-04-05T14:29:20Z</time>
  </trkpt>
  <trkpt lat="33.053547" lon="-1.954261">
   <ele>1426.00</ele>
   <time>2014-04-05T14:29:23Z</time>
  </trkpt>
  <trkpt lat="33.053746" lon="-1.954366">
   <ele>1426.00</ele>
   <time>2014-04-05T14:29:26Z</time>
  </trkpt>
  <trkpt lat="33.053960" lon="-1.954485">
   <ele>1427.00</ele>
   <time>2014-04-05T14:29:29Z</time>
  </trkpt>
  <trkpt lat="33.054181" lon="-1.954625">
   <ele>1428.00</ele>
   <time>2014-04-05T14:29:32Z</time>
  </trkpt>
  <trkpt lat="33.054360" lon="-1.954781">
   <ele>1428.00</ele>
   <time>2014-04-05T14:29:35Z</time>
  </trkpt>
  <trkpt lat="33.054536" lon="-1.954931">
   <ele>1429.00</ele>
   <time>2014-04-05T14:29:40Z</time>
  </trkpt>
  <trkpt lat="33.054754" lon="-1.954995">
   <ele>1430.00</ele>
   <time>2014-04-05T14:29:44Z</time>
  </trkpt>
  <trkpt lat="33.054941" lon="-1.955089">
   <ele>1430.00</ele>
   <time>2014-04-05T14:29:47Z</time>
  </trkpt>
  <trkpt lat="33.055120" lon="-1.955233">
   <ele>1431.00</ele>
   <time>2014-04-05T14:29:50Z</time>
  </trkpt>
  <trkpt lat="33.055277" lon="-1.955399">
   <ele>1432.00</ele>
   <time>2014-04-05T14:29:53Z</time>
  </trkpt>
  <trkpt lat="33.055315" lon="-1.955617">
   <ele>1432.00</ele>
   <time>2014-04-05T14:29:56Z</time>
  </trkpt>
  <trkpt lat="33.055335" lon="-1.955855">
   <ele>1431.00</ele>
   <time>2014-04-05T14:30:00Z</time>
  </trkpt>
  <trkpt lat="33.055328" lon="-1.956113">
   <ele>1430.00</ele>
   <time>2014-04-05T14:30:04Z</time>
  </trkpt>
  <trkpt lat="33.055406" lon="-1.956338">
   <ele>1430.00</ele>
   <time>2014-04-05T14:30:07Z</time>
  </trkpt>
  <trkpt lat="33.055562" lon="-1.956558">
   <ele>1431.00</ele>
   <time>2014-04-05T14:30:10Z</time>
  </trkpt>
  <trkpt lat="33.055646" lon="-1.956774">
   <ele>1431.00</ele>
   <time>2014-04-05T14:30:13Z</time>
  </trkpt>
  <trkpt lat="33.055596" lon="-1.956982">
   <ele>1430.00</ele>
   <time>2014-04-05T14:30:18Z</time>
  </trkpt>
  <trkpt lat="33.055474" lon="-1.957211">
   <ele>1430.00</ele>
   <time>2014-04-05T14:30:23Z</time>
  </trkpt>
  <trkpt lat="33.055442" lon="-1.957440">
   <ele>1430.00</ele>
   <time>2014-04-05T14:30:26Z</time>
  </trkpt>
  <trkpt lat="33.055416" lon="-1.957703">
   <ele>1430.00</ele>
   <time>2014-04-05T14:30:29Z</time>
  </trkpt>
  <trkpt lat="33.055405" lon="-1.958009">
   <ele>1431.00</ele>
   <time>2014-04-05T14:30:33Z</time>
  </trkpt>
  <trkpt lat="33.055293" lon="-1.958208">
   <ele>1430.00</ele>
   <time>2014-04-05T14:30:38Z</time>
  </trkpt>
  <trkpt lat="33.055150" lon="-1.958384">
   <ele>1431.00</ele>
   <time>2014-04-05T14:30:43Z</time>
  </trkpt>
  <trkpt lat="33.055034" lon="-1.958584">
   <ele>1432.00</ele>
   <time>2014-04-05T14:30:47Z</time>
  </trkpt>
  <trkpt lat="33.054870" lon="-1.958753">
   <ele>1433.00</ele>
   <time>2014-04-05T14:30:51Z</time>
  </trkpt>
  <trkpt lat="33.054733" lon="-1.958902">
   <ele>1433.00</ele>
   <time>2014-04-05T14:30:54Z</time>
  </trkpt>
  <trkpt lat="33.054552" lon="-1.959073">
   <ele>1434.00</ele>
   <time>2014-04-05T14:30:58Z</time>
  </trkpt>
  <trkpt lat="33.054347" lon="-1.959207">
   <ele>1435.00</ele>
   <time>2014-04-05T14:31:02Z</time>
  </trkpt>
  <trkpt lat="33.054126" lon="-1.959363">
   <ele>1437.00</ele>
   <time>2014-04-05T14:31:06Z</time>
  </trkpt>
  <trkpt lat="33.053977" lon="-1.959554">
   <ele>1438.00</ele>
   <time>2014-04-05T14:31:09Z</time>
  </trkpt>
  <trkpt lat="33.053874" lon="-1.959780">
   <ele>1438.00</ele>
   <time>2014-04-05T14:31:12Z</time>
  </trkpt>
  <trkpt lat="33.053876" lon="-1.960025">
   <ele>1439.00</ele>
   <time>2014-04-05T14:31:15Z</time>
  </trkpt>
  <trkpt lat="33.053870" lon="-1.960288">
   <ele>1439.00</ele>
   <time>2014-04-05T14:31:18Z</time>
  </trkpt>
  <trkpt lat="33.053728" lon="-1.960836">
   <ele>1440.00</ele>
   <time>2014-04-05T14:31:24Z</time>
  </trkpt>
  <trkpt lat="33.053611" lon="-1.961008">
   <ele>1441.00</ele>
   <time>2014-04-05T14:31:27Z</time>
  </trkpt>
  <trkpt lat="33.053486" lon="-1.961186">
   <ele>1441.00</ele>
   <time>2014-04-05T14:31:33Z</time>
  </trkpt>
  <trkpt lat="33.053438" lon="-1.961412">
   <ele>1441.00</ele>
   <time>2014-04-05T14:31:37Z</time>
  </trkpt>
  <trkpt lat="33.053376" lon="-1.961744">
   <ele>1441.00</ele>
   <time>2014-04-05T14:31:41Z</time>
  </trkpt>
  <trkpt lat="33.053314" lon="-1.961963">
   <ele>1442.00</ele>
   <time>2014-04-05T14:31:44Z</time>
  </trkpt>
  <trkpt lat="33.053235" lon="-1.962178">
   <ele>1442.00</ele>
   <time>2014-04-05T14:31:49Z</time>
  </trkpt>
  <trkpt lat="33.053147" lon="-1.962398">
   <ele>1442.00</ele>
   <time>2014-04-05T14:31:54Z</time>
  </trkpt>
  <trkpt lat="33.053009" lon="-1.962581">
   <ele>1443.00</ele>
   <time>2014-04-05T14:31:58Z</time>
  </trkpt>
  <trkpt lat="33.052858" lon="-1.962755">
   <ele>1443.00</ele>
   <time>2014-04-05T14:32:02Z</time>
  </trkpt>
  <trkpt lat="33.052698" lon="-1.962952">
   <ele>1444.00</ele>
   <time>2014-04-05T14:32:06Z</time>
  </trkpt>
  <trkpt lat="33.052572" lon="-1.963125">
   <ele>1445.00</ele>
   <time>2014-04-05T14:32:09Z</time>
  </trkpt>
  <trkpt lat="33.052423" lon="-1.963256">
   <ele>1446.00</ele>
   <time>2014-04-05T14:32:12Z</time>
  </trkpt>
  <trkpt lat="33.052199" lon="-1.963426">
   <ele>1447.00</ele>
   <time>2014-04-05T14:32:17Z</time>
  </trkpt>
  <trkpt lat="33.052071" lon="-1.963635">
   <ele>1448.00</ele>
   <time>2014-04-05T14:32:21Z</time>
  </trkpt>
  <trkpt lat="33.051977" lon="-1.963826">
   <ele>1449.00</ele>
   <time>2014-04-05T14:32:24Z</time>
  </trkpt>
  <trkpt lat="33.051909" lon="-1.964043">
   <ele>1449.00</ele>
   <time>2014-04-05T14:32:27Z</time>
  </trkpt>
  <trkpt lat="33.051828" lon="-1.964276">
   <ele>1450.00</ele>
   <time>2014-04-05T14:32:30Z</time>
  </trkpt>
  <trkpt lat="33.051700" lon="-1.964583">
   <ele>1451.00</ele>
   <time>2014-04-05T14:32:34Z</time>
  </trkpt>
  <trkpt lat="33.051638" lon="-1.964852">
   <ele>1452.00</ele>
   <time>2014-04-05T14:32:37Z</time>
  </trkpt>
  <trkpt lat="33.051566" lon="-1.965117">
   <ele>1453.00</ele>
   <time>2014-04-05T14:32:40Z</time>
  </trkpt>
  <trkpt lat="33.051502" lon="-1.965389">
   <ele>1454.00</ele>
   <time>2014-04-05T14:32:43Z</time>
  </trkpt>
  <trkpt lat="33.051501" lon="-1.965667">
   <ele>1454.00</ele>
   <time>2014-04-05T14:32:46Z</time>
  </trkpt>
  <trkpt lat="33.051494" lon="-1.965916">
   <ele>1455.00</ele>
   <time>2014-04-05T14:32:49Z</time>
  </trkpt>
  <trkpt lat="33.051483" lon="-1.966169">
   <ele>1455.00</ele>
   <time>2014-04-05T14:32:52Z</time>
  </trkpt>
  <trkpt lat="33.051540" lon="-1.966441">
   <ele>1455.00</ele>
   <time>2014-04-05T14:32:55Z</time>
  </trkpt>
  <trkpt lat="33.051628" lon="-1.966702">
   <ele>1456.00</ele>
   <time>2014-04-05T14:32:58Z</time>
  </trkpt>
  <trkpt lat="33.051648" lon="-1.966981">
   <ele>1456.00</ele>
   <time>2014-04-05T14:33:01Z</time>
  </trkpt>
  <trkpt lat="33.051558" lon="-1.967483">
   <ele>1456.00</ele>
   <time>2014-04-05T14:33:06Z</time>
  </trkpt>
  <trkpt lat="33.051529" lon="-1.967696">
   <ele>1456.00</ele>
   <time>2014-04-05T14:33:08Z</time>
  </trkpt>
  <trkpt lat="33.051510" lon="-1.968010">
   <ele>1457.00</ele>
   <time>2014-04-05T14:33:11Z</time>
  </trkpt>
  <trkpt lat="33.051460" lon="-1.968307">
   <ele>1458.00</ele>
   <time>2014-04-05T14:33:14Z</time>
  </trkpt>
  <trkpt lat="33.051398" lon="-1.968623">
   <ele>1459.00</ele>
   <time>2014-04-05T14:33:17Z</time>
  </trkpt>
  <trkpt lat="33.051347" lon="-1.968835">
   <ele>1459.00</ele>
   <time>2014-04-05T14:33:19Z</time>
  </trkpt>
  <trkpt lat="33.051278" lon="-1.969041">
   <ele>1459.00</ele>
   <time>2014-04-05T14:33:21Z</time>
  </trkpt>
  <trkpt lat="33.051125" lon="-1.969454">
   <ele>1459.00</ele>
   <time>2014-04-05T14:33:25Z</time>
  </trkpt>
  <trkpt lat="33.050975" lon="-1.969937">
   <ele>1459.00</ele>
   <time>2014-04-05T14:33:30Z</time>
  </trkpt>
  <trkpt lat="33.050936" lon="-1.970186">
   <ele>1459.00</ele>
   <time>2014-04-05T14:33:33Z</time>
  </trkpt>
  <trkpt lat="33.050966" lon="-1.970421">
   <ele>1459.00</ele>
   <time>2014-04-05T14:33:36Z</time>
  </trkpt>
  <trkpt lat="33.050918" lon="-1.970634">
   <ele>1459.00</ele>
   <time>2014-04-05T14:33:39Z</time>
  </trkpt>
  <trkpt lat="33.050757" lon="-1.970803">
   <ele>1460.00</ele>
   <time>2014-04-05T14:33:42Z</time>
  </trkpt>
  <trkpt lat="33.050591" lon="-1.970995">
   <ele>1460.00</ele>
   <time>2014-04-05T14:33:45Z</time>
  </trkpt>
  <trkpt lat="33.050495" lon="-1.971250">
   <ele>1461.00</ele>
   <time>2014-04-05T14:33:48Z</time>
  </trkpt>
  <trkpt lat="33.050397" lon="-1.971487">
   <ele>1461.00</ele>
   <time>2014-04-05T14:33:51Z</time>
  </trkpt>
  <trkpt lat="33.050208" lon="-1.971662">
   <ele>1462.00</ele>
   <time>2014-04-05T14:33:54Z</time>
  </trkpt>
  <trkpt lat="33.050046" lon="-1.971886">
   <ele>1463.00</ele>
   <time>2014-04-05T14:33:57Z</time>
  </trkpt>
  <trkpt lat="33.049868" lon="-1.972190">
   <ele>1464.00</ele>
   <time>2014-04-05T14:34:01Z</time>
  </trkpt>
  <trkpt lat="33.049763" lon="-1.972425">
   <ele>1465.00</ele>
   <time>2014-04-05T14:34:04Z</time>
  </trkpt>
  <trkpt lat="33.049653" lon="-1.972626">
   <ele>1465.00</ele>
   <time>2014-04-05T14:34:07Z</time>
  </trkpt>
  <trkpt lat="33.049497" lon="-1.972780">
   <ele>1465.00</ele>
   <time>2014-04-05T14:34:10Z</time>
  </trkpt>
  <trkpt lat="33.049399" lon="-1.972987">
   <ele>1465.00</ele>
   <time>2014-04-05T14:34:13Z</time>
  </trkpt>
  <trkpt lat="33.049282" lon="-1.973388">
   <ele>1464.00</ele>
   <time>2014-04-05T14:34:18Z</time>
  </trkpt>
  <trkpt lat="33.049174" lon="-1.973612">
   <ele>1464.00</ele>
   <time>2014-04-05T14:34:21Z</time>
  </trkpt>
  <trkpt lat="33.049015" lon="-1.973847">
   <ele>1464.00</ele>
   <time>2014-04-05T14:34:24Z</time>
  </trkpt>
  <trkpt lat="33.048896" lon="-1.974096">
   <ele>1464.00</ele>
   <time>2014-04-05T14:34:27Z</time>
  </trkpt>
  <trkpt lat="33.048814" lon="-1.974349">
   <ele>1464.00</ele>
   <time>2014-04-05T14:34:30Z</time>
  </trkpt>
  <trkpt lat="33.048679" lon="-1.974580">
   <ele>1464.00</ele>
   <time>2014-04-05T14:34:33Z</time>
  </trkpt>
  <trkpt lat="33.048529" lon="-1.974782">
   <ele>1463.00</ele>
   <time>2014-04-05T14:34:36Z</time>
  </trkpt>
  <trkpt lat="33.048471" lon="-1.975011">
   <ele>1463.00</ele>
   <time>2014-04-05T14:34:39Z</time>
  </trkpt>
  <trkpt lat="33.048459" lon="-1.975307">
   <ele>1463.00</ele>
   <time>2014-04-05T14:34:42Z</time>
  </trkpt>
  <trkpt lat="33.048458" lon="-1.975599">
   <ele>1462.00</ele>
   <time>2014-04-05T14:34:45Z</time>
  </trkpt>
  <trkpt lat="33.048433" lon="-1.975862">
   <ele>1462.00</ele>
   <time>2014-04-05T14:34:48Z</time>
  </trkpt>
  <trkpt lat="33.048300" lon="-1.976046">
   <ele>1461.00</ele>
   <time>2014-04-05T14:34:51Z</time>
  </trkpt>
  <trkpt lat="33.048163" lon="-1.976190">
   <ele>1461.00</ele>
   <time>2014-04-05T14:34:54Z</time>
  </trkpt>
  <trkpt lat="33.048146" lon="-1.976468">
   <ele>1461.00</ele>
   <time>2014-04-05T14:34:58Z</time>
  </trkpt>
  <trkpt lat="33.048183" lon="-1.976705">
   <ele>1461.00</ele>
   <time>2014-04-05T14:35:01Z</time>
  </trkpt>
  <trkpt lat="33.048115" lon="-1.976927">
   <ele>1461.00</ele>
   <time>2014-04-05T14:35:04Z</time>
  </trkpt>
  <trkpt lat="33.047989" lon="-1.977104">
   <ele>1462.00</ele>
   <time>2014-04-05T14:35:07Z</time>
  </trkpt>
  <trkpt lat="33.047909" lon="-1.977300">
   <ele>1462.00</ele>
   <time>2014-04-05T14:35:10Z</time>
  </trkpt>
  <trkpt lat="33.047885" lon="-1.977519">
   <ele>1462.00</ele>
   <time>2014-04-05T14:35:13Z</time>
  </trkpt>
  <trkpt lat="33.047834" lon="-1.977751">
   <ele>1462.00</ele>
   <time>2014-04-05T14:35:16Z</time>
  </trkpt>
  <trkpt lat="33.047743" lon="-1.978072">
   <ele>1462.00</ele>
   <time>2014-04-05T14:35:20Z</time>
  </trkpt>
  <trkpt lat="33.047729" lon="-1.978334">
   <ele>1463.00</ele>
   <time>2014-04-05T14:35:23Z</time>
  </trkpt>
  <trkpt lat="33.047668" lon="-1.978591">
   <ele>1464.00</ele>
   <time>2014-04-05T14:35:26Z</time>
  </trkpt>
  <trkpt lat="33.047540" lon="-1.978846">
   <ele>1464.00</ele>
   <time>2014-04-05T14:35:29Z</time>
  </trkpt>
  <trkpt lat="33.047284" lon="-1.979488">
   <ele>1466.00</ele>
   <time>2014-04-05T14:35:36Z</time>
  </trkpt>
  <trkpt lat="33.047153" lon="-1.979689">
   <ele>1466.00</ele>
   <time>2014-04-05T14:35:39Z</time>
  </trkpt>
  <trkpt lat="33.047076" lon="-1.979936">
   <ele>1466.00</ele>
   <time>2014-04-05T14:35:43Z</time>
  </trkpt>
  <trkpt lat="33.047033" lon="-1.980158">
   <ele>1466.00</ele>
   <time>2014-04-05T14:35:49Z</time>
  </trkpt>
  <trkpt lat="33.047109" lon="-1.980375">
   <ele>1467.00</ele>
   <time>2014-04-05T14:35:53Z</time>
  </trkpt>
  <trkpt lat="33.047272" lon="-1.980572">
   <ele>1468.00</ele>
   <time>2014-04-05T14:35:57Z</time>
  </trkpt>
  <trkpt lat="33.047479" lon="-1.980745">
   <ele>1468.00</ele>
   <time>2014-04-05T14:36:01Z</time>
  </trkpt>
  <trkpt lat="33.047532" lon="-1.980950">
   <ele>1468.00</ele>
   <time>2014-04-05T14:36:04Z</time>
  </trkpt>
  <trkpt lat="33.047566" lon="-1.981181">
   <ele>1467.00</ele>
   <time>2014-04-05T14:36:07Z</time>
  </trkpt>
  <trkpt lat="33.047597" lon="-1.981421">
   <ele>1467.00</ele>
   <time>2014-04-05T14:36:10Z</time>
  </trkpt>
  <trkpt lat="33.047587" lon="-1.981681">
   <ele>1466.00</ele>
   <time>2014-04-05T14:36:13Z</time>
  </trkpt>
  <trkpt lat="33.047585" lon="-1.981925">
   <ele>1465.00</ele>
   <time>2014-04-05T14:36:16Z</time>
  </trkpt>
  <trkpt lat="33.047675" lon="-1.982149">
   <ele>1464.00</ele>
   <time>2014-04-05T14:36:19Z</time>
  </trkpt>
  <trkpt lat="33.047834" lon="-1.982297">
   <ele>1463.00</ele>
   <time>2014-04-05T14:36:22Z</time>
  </trkpt>
  <trkpt lat="33.048014" lon="-1.982443">
   <ele>1464.00</ele>
   <time>2014-04-05T14:36:26Z</time>
  </trkpt>
  <trkpt lat="33.048157" lon="-1.982576">
   <ele>1464.00</ele>
   <time>2014-04-05T14:36:29Z</time>
  </trkpt>
  <trkpt lat="33.048278" lon="-1.982739">
   <ele>1464.00</ele>
   <time>2014-04-05T14:36:32Z</time>
  </trkpt>
  <trkpt lat="33.048354" lon="-1.982934">
   <ele>1464.00</ele>
   <time>2014-04-05T14:36:35Z</time>
  </trkpt>
  <trkpt lat="33.048440" lon="-1.983134">
   <ele>1464.00</ele>
   <time>2014-04-05T14:36:38Z</time>
  </trkpt>
  <trkpt lat="33.048522" lon="-1.983352">
   <ele>1464.00</ele>
   <time>2014-04-05T14:36:41Z</time>
  </trkpt>
  <trkpt lat="33.048555" lon="-1.983596">
   <ele>1464.00</ele>
   <time>2014-04-05T14:36:44Z</time>
  </trkpt>
  <trkpt lat="33.048618" lon="-1.983815">
   <ele>1464.00</ele>
   <time>2014-04-05T14:36:47Z</time>
  </trkpt>
  <trkpt lat="33.048755" lon="-1.984046">
   <ele>1464.00</ele>
   <time>2014-04-05T14:36:51Z</time>
  </trkpt>
  <trkpt lat="33.048872" lon="-1.984226">
   <ele>1464.00</ele>
   <time>2014-04-05T14:36:54Z</time>
  </trkpt>
  <trkpt lat="33.048935" lon="-1.984454">
   <ele>1463.00</ele>
   <time>2014-04-05T14:36:57Z</time>
  </trkpt>
  <trkpt lat="33.048953" lon="-1.984717">
   <ele>1462.00</ele>
   <time>2014-04-05T14:37:00Z</time>
  </trkpt>
  <trkpt lat="33.048921" lon="-1.985005">
   <ele>1461.00</ele>
   <time>2014-04-05T14:37:03Z</time>
  </trkpt>
  <trkpt lat="33.048876" lon="-1.985295">
   <ele>1459.00</ele>
   <time>2014-04-05T14:37:06Z</time>
  </trkpt>
  <trkpt lat="33.048845" lon="-1.985543">
   <ele>1459.00</ele>
   <time>2014-04-05T14:37:09Z</time>
  </trkpt>
  <trkpt lat="33.048908" lon="-1.985760">
   <ele>1459.00</ele>
   <time>2014-04-05T14:37:12Z</time>
  </trkpt>
  <trkpt lat="33.048957" lon="-1.985987">
   <ele>1459.00</ele>
   <time>2014-04-05T14:37:15Z</time>
  </trkpt>
  <trkpt lat="33.049037" lon="-1.986227">
   <ele>1460.00</ele>
   <time>2014-04-05T14:37:18Z</time>
  </trkpt>
  <trkpt lat="33.049130" lon="-1.986482">
   <ele>1460.00</ele>
   <time>2014-04-05T14:37:21Z</time>
  </trkpt>
  <trkpt lat="33.049177" lon="-1.986721">
   <ele>1461.00</ele>
   <time>2014-04-05T14:37:24Z</time>
  </trkpt>
  <trkpt lat="33.049218" lon="-1.986956">
   <ele>1461.00</ele>
   <time>2014-04-05T14:37:27Z</time>
  </trkpt>
  <trkpt lat="33.049309" lon="-1.987200">
   <ele>1462.00</ele>
   <time>2014-04-05T14:37:30Z</time>
  </trkpt>
  <trkpt lat="33.049432" lon="-1.987441">
   <ele>1462.00</ele>
   <time>2014-04-05T14:37:33Z</time>
  </trkpt>
  <trkpt lat="33.049608" lon="-1.987645">
   <ele>1462.00</ele>
   <time>2014-04-05T14:37:36Z</time>
  </trkpt>
  <trkpt lat="33.049805" lon="-1.987838">
   <ele>1461.00</ele>
   <time>2014-04-05T14:37:39Z</time>
  </trkpt>
  <trkpt lat="33.050009" lon="-1.988021">
   <ele>1462.00</ele>
   <time>2014-04-05T14:37:42Z</time>
  </trkpt>
  <trkpt lat="33.050214" lon="-1.988194">
   <ele>1462.00</ele>
   <time>2014-04-05T14:37:45Z</time>
  </trkpt>
  <trkpt lat="33.050404" lon="-1.988388">
   <ele>1462.00</ele>
   <time>2014-04-05T14:37:48Z</time>
  </trkpt>
  <trkpt lat="33.050584" lon="-1.988591">
   <ele>1461.00</ele>
   <time>2014-04-05T14:37:51Z</time>
  </trkpt>
  <trkpt lat="33.050757" lon="-1.988805">
   <ele>1461.00</ele>
   <time>2014-04-05T14:37:54Z</time>
  </trkpt>
  <trkpt lat="33.050916" lon="-1.989038">
   <ele>1461.00</ele>
   <time>2014-04-05T14:37:57Z</time>
  </trkpt>
  <trkpt lat="33.051067" lon="-1.989293">
   <ele>1461.00</ele>
   <time>2014-04-05T14:38:00Z</time>
  </trkpt>
  <trkpt lat="33.051167" lon="-1.989477">
   <ele>1461.00</ele>
   <time>2014-04-05T14:38:02Z</time>
  </trkpt>
  <trkpt lat="33.051287" lon="-1.989761">
   <ele>1461.00</ele>
   <time>2014-04-05T14:38:05Z</time>
  </trkpt>
  <trkpt lat="33.051343" lon="-1.989966">
   <ele>1461.00</ele>
   <time>2014-04-05T14:38:07Z</time>
  </trkpt>
  <trkpt lat="33.051382" lon="-1.990182">
   <ele>1460.00</ele>
   <time>2014-04-05T14:38:09Z</time>
  </trkpt>
  <trkpt lat="33.051412" lon="-1.990408">
   <ele>1460.00</ele>
   <time>2014-04-05T14:38:11Z</time>
  </trkpt>
  <trkpt lat="33.051510" lon="-1.991322">
   <ele>1460.00</ele>
   <time>2014-04-05T14:38:19Z</time>
  </trkpt>
  <trkpt lat="33.051526" lon="-1.991547">
   <ele>1460.00</ele>
   <time>2014-04-05T14:38:21Z</time>
  </trkpt>
  <trkpt lat="33.051542" lon="-1.991978">
   <ele>1460.00</ele>
   <time>2014-04-05T14:38:25Z</time>
  </trkpt>
  <trkpt lat="33.051519" lon="-1.992261">
   <ele>1460.00</ele>
   <time>2014-04-05T14:38:28Z</time>
  </trkpt>
  <trkpt lat="33.051563" lon="-1.992538">
   <ele>1460.00</ele>
   <time>2014-04-05T14:38:31Z</time>
  </trkpt>
  <trkpt lat="33.051619" lon="-1.992816">
   <ele>1460.00</ele>
   <time>2014-04-05T14:38:34Z</time>
  </trkpt>
  <trkpt lat="33.051660" lon="-1.993104">
   <ele>1460.00</ele>
   <time>2014-04-05T14:38:37Z</time>
  </trkpt>
  <trkpt lat="33.051741" lon="-1.993733">
   <ele>1460.00</ele>
   <time>2014-04-05T14:38:44Z</time>
  </trkpt>
  <trkpt lat="33.051784" lon="-1.994166">
   <ele>1459.00</ele>
   <time>2014-04-05T14:38:50Z</time>
  </trkpt>
  <trkpt lat="33.051809" lon="-1.994408">
   <ele>1459.00</ele>
   <time>2014-04-05T14:38:53Z</time>
  </trkpt>
  <trkpt lat="33.051825" lon="-1.994661">
   <ele>1458.00</ele>
   <time>2014-04-05T14:38:56Z</time>
  </trkpt>
  <trkpt lat="33.051881" lon="-1.996189">
   <ele>1455.00</ele>
   <time>2014-04-05T14:39:12Z</time>
  </trkpt>
  <trkpt lat="33.051894" lon="-1.996821">
   <ele>1453.00</ele>
   <time>2014-04-05T14:39:18Z</time>
  </trkpt>
  <trkpt lat="33.051891" lon="-1.997638">
   <ele>1450.00</ele>
   <time>2014-04-05T14:39:26Z</time>
  </trkpt>
  <trkpt lat="33.051923" lon="-1.998369">
   <ele>1447.00</ele>
   <time>2014-04-05T14:39:34Z</time>
  </trkpt>
  <trkpt lat="33.051950" lon="-1.998719">
   <ele>1447.00</ele>
   <time>2014-04-05T14:39:40Z</time>
  </trkpt>
  <trkpt lat="33.051961" lon="-1.999178">
   <ele>1445.00</ele>
   <time>2014-04-05T14:39:49Z</time>
  </trkpt>
  <trkpt lat="33.051985" lon="-1.999725">
   <ele>1445.00</ele>
   <time>2014-04-05T14:39:57Z</time>
  </trkpt>
  <trkpt lat="33.051988" lon="-2.000148">
   <ele>1446.00</ele>
   <time>2014-04-05T14:40:02Z</time>
  </trkpt>
  <trkpt lat="33.051980" lon="-2.000374">
   <ele>1447.00</ele>
   <time>2014-04-05T14:40:05Z</time>
  </trkpt>
  <trkpt lat="33.051956" lon="-2.000591">
   <ele>1449.00</ele>
   <time>2014-04-05T14:40:11Z</time>
  </trkpt>
  <trkpt lat="33.051976" lon="-2.000927">
   <ele>1451.00</ele>
   <time>2014-04-05T14:40:19Z</time>
  </trkpt>
  <trkpt lat="33.051993" lon="-2.001161">
   <ele>1450.00</ele>
   <time>2014-04-05T14:40:25Z</time>
  </trkpt>
  <trkpt lat="33.052008" lon="-2.001365">
   <ele>1452.00</ele>
   <time>2014-04-05T14:40:37Z</time>
  </trkpt>
 </trkseg>
 <trkseg>
  <trkpt lat="33.051979" lon="-2.001381">
   <ele>1458.00</ele>
   <time>2014-04-05T14:58:23Z</time>
  </trkpt>
  <trkpt lat="33.051975" lon="-2.001601">
   <ele>1459.00</ele>
   <time>2014-04-05T14:58:35Z</time>
  </trkpt>
  <trkpt lat="33.051980" lon="-2.001851">
   <ele>1459.00</ele>
   <time>2014-04-05T14:58:39Z</time>
  </trkpt>
  <trkpt lat="33.051995" lon="-2.002334">
   <ele>1459.00</ele>
   <time>2014-04-05T14:58:48Z</time>
  </trkpt>
  <trkpt lat="33.051881" lon="-2.002484">
   <ele>1460.00</ele>
   <time>2014-04-05T14:59:00Z</time>
  </trkpt>
  <trkpt lat="33.051656" lon="-2.002510">
   <ele>1460.00</ele>
   <time>2014-04-05T14:59:05Z</time>
  </trkpt>
  <trkpt lat="33.051239" lon="-2.002543">
   <ele>1461.00</ele>
   <time>2014-04-05T14:59:11Z</time>
  </trkpt>
  <trkpt lat="33.050251" lon="-2.002627">
   <ele>1461.00</ele>
   <time>2014-04-05T14:59:26Z</time>
  </trkpt>
  <trkpt lat="33.049910" lon="-2.002655">
   <ele>1462.00</ele>
   <time>2014-04-05T14:59:32Z</time>
  </trkpt>
  <trkpt lat="33.048666" lon="-2.002771">
   <ele>1464.00</ele>
   <time>2014-04-05T14:59:48Z</time>
  </trkpt>
  <trkpt lat="33.047483" lon="-2.002863">
   <ele>1466.00</ele>
   <time>2014-04-05T15:00:01Z</time>
  </trkpt>
  <trkpt lat="33.047248" lon="-2.002874">
   <ele>1466.00</ele>
   <time>2014-04-05T15:00:04Z</time>
  </trkpt>
  <trkpt lat="33.045677" lon="-2.003032">
   <ele>1468.00</ele>
   <time>2014-04-05T15:00:20Z</time>
  </trkpt>
  <trkpt lat="33.045302" lon="-2.003066">
   <ele>1468.00</ele>
   <time>2014-04-05T15:00:26Z</time>
  </trkpt>
  <trkpt lat="33.045123" lon="-2.003164">
   <ele>1468.00</ele>
   <time>2014-04-05T15:00:30Z</time>
  </trkpt>
  <trkpt lat="33.044896" lon="-2.003146">
   <ele>1468.00</ele>
   <time>2014-04-05T15:00:34Z</time>
  </trkpt>
  <trkpt lat="33.044674" lon="-2.003118">
   <ele>1468.00</ele>
   <time>2014-04-05T15:00:37Z</time>
  </trkpt>
  <trkpt lat="33.044424" lon="-2.003112">
   <ele>1468.00</ele>
   <time>2014-04-05T15:00:40Z</time>
  </trkpt>
  <trkpt lat="33.042758" lon="-2.003131">
   <ele>1470.00</ele>
   <time>2014-04-05T15:00:55Z</time>
  </trkpt>
  <trkpt lat="33.040667" lon="-2.003182">
   <ele>1474.00</ele>
   <time>2014-04-05T15:01:11Z</time>
  </trkpt>
  <trkpt lat="33.039563" lon="-2.003219">
   <ele>1474.00</ele>
   <time>2014-04-05T15:01:24Z</time>
  </trkpt>
  <trkpt lat="33.039379" lon="-2.003232">
   <ele>1474.00</ele>
   <time>2014-04-05T15:01:29Z</time>
  </trkpt>
  <trkpt lat="33.039288" lon="-2.003130">
   <ele>1474.00</ele>
   <time>2014-04-05T15:01:40Z</time>
  </trkpt>
  <trkpt lat="33.039467" lon="-2.003148">
   <ele>1474.00</ele>
   <time>2014-04-05T15:01:45Z</time>
  </trkpt>
  <trkpt lat="33.039705" lon="-2.003170">
   <ele>1474.00</ele>
   <time>2014-04-05T15:01:50Z</time>
  </trkpt>
  <trkpt lat="33.039925" lon="-2.003172">
   <ele>1474.00</ele>
   <time>2014-04-05T15:01:53Z</time>
  </trkpt>
  <trkpt lat="33.041457" lon="-2.003125">
   <ele>1474.00</ele>
   <time>2014-04-05T15:02:08Z</time>
  </trkpt>
  <trkpt lat="33.043450" lon="-2.003087">
   <ele>1470.00</ele>
   <time>2014-04-05T15:02:23Z</time>
  </trkpt>
  <trkpt lat="33.044700" lon="-2.003051">
   <ele>1469.00</ele>
   <time>2014-04-05T15:02:34Z</time>
  </trkpt>
  <trkpt lat="33.044927" lon="-2.002982">
   <ele>1469.00</ele>
   <time>2014-04-05T15:02:37Z</time>
  </trkpt>
  <trkpt lat="33.045142" lon="-2.002916">
   <ele>1469.00</ele>
   <time>2014-04-05T15:02:40Z</time>
  </trkpt>
  <trkpt lat="33.045392" lon="-2.002960">
   <ele>1469.00</ele>
   <time>2014-04-05T15:02:43Z</time>
  </trkpt>
  <trkpt lat="33.045580" lon="-2.002956">
   <ele>1468.00</ele>
   <time>2014-04-05T15:02:45Z</time>
  </trkpt>
  <trkpt lat="33.046060" lon="-2.002922">
   <ele>1468.00</ele>
   <time>2014-04-05T15:02:50Z</time>
  </trkpt>
  <trkpt lat="33.046553" lon="-2.002903">
   <ele>1468.00</ele>
   <time>2014-04-05T15:02:55Z</time>
  </trkpt>
  <trkpt lat="33.046959" lon="-2.002857">
   <ele>1468.00</ele>
   <time>2014-04-05T15:02:59Z</time>
  </trkpt>
  <trkpt lat="33.047743" lon="-2.002773">
   <ele>1467.00</ele>
   <time>2014-04-05T15:03:07Z</time>
  </trkpt>
  <trkpt lat="33.048993" lon="-2.002691">
   <ele>1465.00</ele>
   <time>2014-04-05T15:03:23Z</time>
  </trkpt>
  <trkpt lat="33.049258" lon="-2.002672">
   <ele>1465.00</ele>
   <time>2014-04-05T15:03:28Z</time>
  </trkpt>
  <trkpt lat="33.050312" lon="-2.002579">
   <ele>1464.00</ele>
   <time>2014-04-05T15:03:42Z</time>
  </trkpt>
  <trkpt lat="33.051666" lon="-2.002463">
   <ele>1462.00</ele>
   <time>2014-04-05T15:03:57Z</time>
  </trkpt>
  <trkpt lat="33.053274" lon="-2.002318">
   <ele>1460.00</ele>
   <time>2014-04-05T15:04:12Z</time>
  </trkpt>
  <trkpt lat="33.054051" lon="-2.002251">
   <ele>1458.00</ele>
   <time>2014-04-05T15:04:20Z</time>
  </trkpt>
  <trkpt lat="33.054226" lon="-2.002165">
   <ele>1458.00</ele>
   <time>2014-04-05T15:04:24Z</time>
  </trkpt>
  <trkpt lat="33.054346" lon="-2.002044">
   <ele>1458.00</ele>
   <time>2014-04-05T15:04:39Z</time>
  </trkpt>
  <trkpt lat="33.054330" lon="-2.002040">
   <ele>1460.00</ele>
   <time>2014-04-05T15:04:54Z</time>
  </trkpt>
  <trkpt lat="33.054375" lon="-2.002044">
   <ele>1463.00</ele>
   <time>2014-04-05T15:05:10Z</time>
  </trkpt>
  <trkpt lat="33.054378" lon="-2.002048">
   <ele>1462.00</ele>
   <time>2014-04-05T15:05:25Z</time>
  </trkpt>
  <trkpt lat="33.054366" lon="-2.002045">
   <ele>1462.00</ele>
   <time>2014-04-05T15:05:40Z</time>
  </trkpt>
  <trkpt lat="33.054362" lon="-2.002045">
   <ele>1462.00</ele>
   <time>2014-04-05T15:05:55Z</time>
  </trkpt>
  <trkpt lat="33.054353" lon="-2.002046">
   <ele>1460.00</ele>
   <time>2014-04-05T15:06:11Z</time>
  </trkpt>
  <trkpt lat="33.054346" lon="-2.002046">
   <ele>1459.00</ele>
   <time>2014-04-05T15:06:26Z</time>
  </trkpt>
  <trkpt lat="33.054329" lon="-2.002047">
   <ele>1457.00</ele>
   <time>2014-04-05T15:06:41Z</time>
  </trkpt>
  <trkpt lat="33.054309" lon="-2.002050">
   <ele>1456.00</ele>
   <time>2014-04-05T15:06:56Z</time>
  </trkpt>
  <trkpt lat="33.054306" lon="-2.002049">
   <ele>1455.00</ele>
   <time>2014-04-05T15:07:12Z</time>
  </trkpt>
  <trkpt lat="33.054298" lon="-2.002048">
   <ele>1454.00</ele>
   <time>2014-04-05T15:07:27Z</time>
  </trkpt>
  <trkpt lat="33.054303" lon="-2.002046">
   <ele>1454.00</ele>
   <time>2014-04-05T15:07:42Z</time>
  </trkpt>
  <trkpt lat="33.054305" lon="-2.002045">
   <ele>1454.00</ele>
   <time>2014-04-05T15:07:57Z</time>
  </trkpt>
  <trkpt lat="33.054302" lon="-2.002046">
   <ele>1453.00</ele>
   <time>2014-04-05T15:08:13Z</time>
  </trkpt>
  <trkpt lat="33.054328" lon="-2.002041">
   <ele>1454.00</ele>
   <time>2014-04-05T15:08:28Z</time>
  </trkpt>
  <trkpt lat="33.054324" lon="-2.002042">
   <ele>1453.00</ele>
   <time>2014-04-05T15:08:44Z</time>
  </trkpt>
  <trkpt lat="33.054379" lon="-2.002089">
   <ele>1453.00</ele>
   <time>2014-04-05T15:08:59Z</time>
  </trkpt>
  <trkpt lat="33.054414" lon="-2.002171">
   <ele>1457.00</ele>
   <time>2014-04-05T15:09:15Z</time>
  </trkpt>
  <trkpt lat="33.054587" lon="-2.002210">
   <ele>1457.00</ele>
   <time>2014-04-05T15:09:21Z</time>
  </trkpt>
  <trkpt lat="33.054898" lon="-2.002186">
   <ele>1457.00</ele>
   <time>2014-04-05T15:09:26Z</time>
  </trkpt>
  <trkpt lat="33.055969" lon="-2.002099">
   <ele>1454.00</ele>
   <time>2014-04-05T15:09:41Z</time>
  </trkpt>
  <trkpt lat="33.056518" lon="-2.002067">
   <ele>1452.00</ele>
   <time>2014-04-05T15:09:49Z</time>
  </trkpt>
  <trkpt lat="33.056910" lon="-2.002011">
   <ele>1450.00</ele>
   <time>2014-04-05T15:09:54Z</time>
  </trkpt>
  <trkpt lat="33.057275" lon="-2.001945">
   <ele>1449.00</ele>
   <time>2014-04-05T15:09:58Z</time>
  </trkpt>
  <trkpt lat="33.057477" lon="-2.001892">
   <ele>1448.00</ele>
   <time>2014-04-05T15:10:00Z</time>
  </trkpt>
  <trkpt lat="33.057689" lon="-2.001819">
   <ele>1447.00</ele>
   <time>2014-04-05T15:10:02Z</time>
  </trkpt>
  <trkpt lat="33.058022" lon="-2.001677">
   <ele>1446.00</ele>
   <time>2014-04-05T15:10:05Z</time>
  </trkpt>
  <trkpt lat="33.058773" lon="-2.001365">
   <ele>1444.00</ele>
   <time>2014-04-05T15:10:11Z</time>
  </trkpt>
  <trkpt lat="33.059046" lon="-2.001286">
   <ele>1443.00</ele>
   <time>2014-04-05T15:10:13Z</time>
  </trkpt>
  <trkpt lat="33.059325" lon="-2.001223">
   <ele>1442.00</ele>
   <time>2014-04-05T15:10:15Z</time>
  </trkpt>
  <trkpt lat="33.059619" lon="-2.001181">
   <ele>1441.00</ele>
   <time>2014-04-05T15:10:17Z</time>
  </trkpt>
  <trkpt lat="33.059928" lon="-2.001157">
   <ele>1441.00</ele>
   <time>2014-04-05T15:10:19Z</time>
  </trkpt>
  <trkpt lat="33.060244" lon="-2.001159">
   <ele>1440.00</ele>
   <time>2014-04-05T15:10:21Z</time>
  </trkpt>
  <trkpt lat="33.060557" lon="-2.001190">
   <ele>1439.00</ele>
   <time>2014-04-05T15:10:23Z</time>
  </trkpt>
  <trkpt lat="33.060874" lon="-2.001245">
   <ele>1438.00</ele>
   <time>2014-04-05T15:10:25Z</time>
  </trkpt>
  <trkpt lat="33.061196" lon="-2.001319">
   <ele>1437.00</ele>
   <time>2014-04-05T15:10:27Z</time>
  </trkpt>
  <trkpt lat="33.061520" lon="-2.001415">
   <ele>1436.00</ele>
   <time>2014-04-05T15:10:29Z</time>
  </trkpt>
  <trkpt lat="33.061854" lon="-2.001538">
   <ele>1435.00</ele>
   <time>2014-04-05T15:10:31Z</time>
  </trkpt>
  <trkpt lat="33.064455" lon="-2.002576">
   <ele>1430.00</ele>
   <time>2014-04-05T15:10:46Z</time>
  </trkpt>
  <trkpt lat="33.065027" lon="-2.002762">
   <ele>1429.00</ele>
   <time>2014-04-05T15:10:49Z</time>
  </trkpt>
  <trkpt lat="33.066003" lon="-2.003027">
   <ele>1428.00</ele>
   <time>2014-04-05T15:10:54Z</time>
  </trkpt>
  <trkpt lat="33.066402" lon="-2.003110">
   <ele>1427.00</ele>
   <time>2014-04-05T15:10:56Z</time>
  </trkpt>
  <trkpt lat="33.068706" lon="-2.003541">
   <ele>1425.00</ele>
   <time>2014-04-05T15:11:08Z</time>
  </trkpt>
  <trkpt lat="33.068888" lon="-2.003563">
   <ele>1424.00</ele>
   <time>2014-04-05T15:11:09Z</time>
  </trkpt>
  <trkpt lat="33.069245" lon="-2.003567">
   <ele>1424.00</ele>
   <time>2014-04-05T15:11:11Z</time>
  </trkpt>
  <trkpt lat="33.069587" lon="-2.003516">
   <ele>1424.00</ele>
   <time>2014-04-05T15:11:13Z</time>
  </trkpt>
  <trkpt lat="33.069913" lon="-2.003431">
   <ele>1424.00</ele>
   <time>2014-04-05T15:11:15Z</time>
  </trkpt>
  <trkpt lat="33.070349" lon="-2.003299">
   <ele>1424.00</ele>
   <time>2014-04-05T15:11:18Z</time>
  </trkpt>
  <trkpt lat="33.070661" lon="-2.003196">
   <ele>1423.00</ele>
   <time>2014-04-05T15:11:21Z</time>
  </trkpt>
  <trkpt lat="33.070835" lon="-2.003273">
   <ele>1423.00</ele>
   <time>2014-04-05T15:11:24Z</time>
  </trkpt>
  <trkpt lat="33.070882" lon="-2.003524">
   <ele>1424.00</ele>
   <time>2014-04-05T15:11:27Z</time>
  </trkpt>
  <trkpt lat="33.070970" lon="-2.003815">
   <ele>1424.00</ele>
   <time>2014-04-05T15:11:30Z</time>
  </trkpt>
  <trkpt lat="33.071088" lon="-2.003997">
   <ele>1424.00</ele>
   <time>2014-04-05T15:11:32Z</time>
  </trkpt>
  <trkpt lat="33.071261" lon="-2.004128">
   <ele>1424.00</ele>
   <time>2014-04-05T15:11:34Z</time>
  </trkpt>
  <trkpt lat="33.071478" lon="-2.004194">
   <ele>1424.00</ele>
   <time>2014-04-05T15:11:36Z</time>
  </trkpt>
  <trkpt lat="33.071721" lon="-2.004235">
   <ele>1424.00</ele>
   <time>2014-04-05T15:11:38Z</time>
  </trkpt>
  <trkpt lat="33.072896" lon="-2.004449">
   <ele>1423.00</ele>
   <time>2014-04-05T15:11:47Z</time>
  </trkpt>
  <trkpt lat="33.074357" lon="-2.004813">
   <ele>1419.00</ele>
   <time>2014-04-05T15:11:56Z</time>
  </trkpt>
  <trkpt lat="33.077231" lon="-2.005621">
   <ele>1413.00</ele>
   <time>2014-04-05T15:12:12Z</time>
  </trkpt>
  <trkpt lat="33.079659" lon="-2.006299">
   <ele>1411.00</ele>
   <time>2014-04-05T15:12:27Z</time>
  </trkpt>
  <trkpt lat="33.082255" lon="-2.007025">
   <ele>1409.00</ele>
   <time>2014-04-05T15:12:42Z</time>
  </trkpt>
  <trkpt lat="33.084969" lon="-2.007792">
   <ele>1406.00</ele>
   <time>2014-04-05T15:12:58Z</time>
  </trkpt>
  <trkpt lat="33.085986" lon="-2.008062">
   <ele>1405.00</ele>
   <time>2014-04-05T15:13:04Z</time>
  </trkpt>
  <trkpt lat="33.088865" lon="-2.008676">
   <ele>1400.00</ele>
   <time>2014-04-05T15:13:20Z</time>
  </trkpt>
  <trkpt lat="33.091366" lon="-2.009197">
   <ele>1398.00</ele>
   <time>2014-04-05T15:13:34Z</time>
  </trkpt>
  <trkpt lat="33.091723" lon="-2.009229">
   <ele>1398.00</ele>
   <time>2014-04-05T15:13:36Z</time>
  </trkpt>
  <trkpt lat="33.092084" lon="-2.009224">
   <ele>1398.00</ele>
   <time>2014-04-05T15:13:38Z</time>
  </trkpt>
  <trkpt lat="33.092447" lon="-2.009194">
   <ele>1398.00</ele>
   <time>2014-04-05T15:13:40Z</time>
  </trkpt>
  <trkpt lat="33.092810" lon="-2.009143">
   <ele>1398.00</ele>
   <time>2014-04-05T15:13:42Z</time>
  </trkpt>
  <trkpt lat="33.095694" lon="-2.008660">
   <ele>1399.00</ele>
   <time>2014-04-05T15:13:58Z</time>
  </trkpt>
  <trkpt lat="33.098348" lon="-2.008214">
   <ele>1394.00</ele>
   <time>2014-04-05T15:14:13Z</time>
  </trkpt>
  <trkpt lat="33.098886" lon="-2.008139">
   <ele>1393.00</ele>
   <time>2014-04-05T15:14:16Z</time>
  </trkpt>
  <trkpt lat="33.099246" lon="-2.008117">
   <ele>1392.00</ele>
   <time>2014-04-05T15:14:18Z</time>
  </trkpt>
  <trkpt lat="33.099605" lon="-2.008145">
   <ele>1391.00</ele>
   <time>2014-04-05T15:14:20Z</time>
  </trkpt>
  <trkpt lat="33.099958" lon="-2.008220">
   <ele>1391.00</ele>
   <time>2014-04-05T15:14:22Z</time>
  </trkpt>
  <trkpt lat="33.101475" lon="-2.008602">
   <ele>1388.00</ele>
   <time>2014-04-05T15:14:31Z</time>
  </trkpt>
  <trkpt lat="33.102106" lon="-2.008791">
   <ele>1388.00</ele>
   <time>2014-04-05T15:14:35Z</time>
  </trkpt>
  <trkpt lat="33.102393" lon="-2.008950">
   <ele>1388.00</ele>
   <time>2014-04-05T15:14:37Z</time>
  </trkpt>
  <trkpt lat="33.102652" lon="-2.009176">
   <ele>1389.00</ele>
   <time>2014-04-05T15:14:39Z</time>
  </trkpt>
  <trkpt lat="33.102893" lon="-2.009445">
   <ele>1390.00</ele>
   <time>2014-04-05T15:14:41Z</time>
  </trkpt>
  <trkpt lat="33.104258" lon="-2.010981">
   <ele>1390.00</ele>
   <time>2014-04-05T15:14:52Z</time>
  </trkpt>
  <trkpt lat="33.104516" lon="-2.011233">
   <ele>1389.00</ele>
   <time>2014-04-05T15:14:54Z</time>
  </trkpt>
  <trkpt lat="33.104796" lon="-2.011457">
   <ele>1388.00</ele>
   <time>2014-04-05T15:14:56Z</time>
  </trkpt>
  <trkpt lat="33.105100" lon="-2.011641">
   <ele>1388.00</ele>
   <time>2014-04-05T15:14:58Z</time>
  </trkpt>
  <trkpt lat="33.105572" lon="-2.011894">
   <ele>1386.00</ele>
   <time>2014-04-05T15:15:01Z</time>
  </trkpt>
  <trkpt lat="33.105875" lon="-2.012096">
   <ele>1385.00</ele>
   <time>2014-04-05T15:15:03Z</time>
  </trkpt>
  <trkpt lat="33.106166" lon="-2.012328">
   <ele>1384.00</ele>
   <time>2014-04-05T15:15:05Z</time>
  </trkpt>
  <trkpt lat="33.108321" lon="-2.014114">
   <ele>1380.00</ele>
   <time>2014-04-05T15:15:20Z</time>
  </trkpt>
  <trkpt lat="33.108612" lon="-2.014301">
   <ele>1380.00</ele>
   <time>2014-04-05T15:15:22Z</time>
  </trkpt>
  <trkpt lat="33.108925" lon="-2.014437">
   <ele>1379.00</ele>
   <time>2014-04-05T15:15:24Z</time>
  </trkpt>
  <trkpt lat="33.109257" lon="-2.014533">
   <ele>1377.00</ele>
   <time>2014-04-05T15:15:26Z</time>
  </trkpt>
  <trkpt lat="33.110280" lon="-2.014840">
   <ele>1373.00</ele>
   <time>2014-04-05T15:15:32Z</time>
  </trkpt>
  <trkpt lat="33.110597" lon="-2.014989">
   <ele>1372.00</ele>
   <time>2014-04-05T15:15:34Z</time>
  </trkpt>
  <trkpt lat="33.110885" lon="-2.015181">
   <ele>1371.00</ele>
   <time>2014-04-05T15:15:36Z</time>
  </trkpt>
  <trkpt lat="33.111145" lon="-2.015411">
   <ele>1371.00</ele>
   <time>2014-04-05T15:15:38Z</time>
  </trkpt>
  <trkpt lat="33.111372" lon="-2.015683">
   <ele>1370.00</ele>
   <time>2014-04-05T15:15:40Z</time>
  </trkpt>
  <trkpt lat="33.111560" lon="-2.016003">
   <ele>1369.00</ele>
   <time>2014-04-05T15:15:42Z</time>
  </trkpt>
  <trkpt lat="33.111713" lon="-2.016363">
   <ele>1369.00</ele>
   <time>2014-04-05T15:15:44Z</time>
  </trkpt>
  <trkpt lat="33.111911" lon="-2.016930">
   <ele>1368.00</ele>
   <time>2014-04-05T15:15:47Z</time>
  </trkpt>
  <trkpt lat="33.112858" lon="-2.019890">
   <ele>1368.00</ele>
   <time>2014-04-05T15:16:02Z</time>
  </trkpt>
  <trkpt lat="33.112968" lon="-2.020280">
   <ele>1369.00</ele>
   <time>2014-04-05T15:16:04Z</time>
  </trkpt>
  <trkpt lat="33.113170" lon="-2.021017">
   <ele>1371.00</ele>
   <time>2014-04-05T15:16:08Z</time>
  </trkpt>
  <trkpt lat="33.113298" lon="-2.021363">
   <ele>1371.00</ele>
   <time>2014-04-05T15:16:10Z</time>
  </trkpt>
  <trkpt lat="33.113471" lon="-2.021679">
   <ele>1370.00</ele>
   <time>2014-04-05T15:16:12Z</time>
  </trkpt>
  <trkpt lat="33.113691" lon="-2.021959">
   <ele>1369.00</ele>
   <time>2014-04-05T15:16:14Z</time>
  </trkpt>
  <trkpt lat="33.113937" lon="-2.022216">
   <ele>1368.00</ele>
   <time>2014-04-05T15:16:16Z</time>
  </trkpt>
  <trkpt lat="33.114202" lon="-2.022449">
   <ele>1366.00</ele>
   <time>2014-04-05T15:16:18Z</time>
  </trkpt>
  <trkpt lat="33.114494" lon="-2.022640">
   <ele>1364.00</ele>
   <time>2014-04-05T15:16:20Z</time>
  </trkpt>
  <trkpt lat="33.114814" lon="-2.022773">
   <ele>1362.00</ele>
   <time>2014-04-05T15:16:22Z</time>
  </trkpt>
  <trkpt lat="33.115158" lon="-2.022850">
   <ele>1362.00</ele>
   <time>2014-04-05T15:16:24Z</time>
  </trkpt>
  <trkpt lat="33.115502" lon="-2.022896">
   <ele>1360.00</ele>
   <time>2014-04-05T15:16:26Z</time>
  </trkpt>
  <trkpt lat="33.116177" lon="-2.022961">
   <ele>1358.00</ele>
   <time>2014-04-05T15:16:30Z</time>
  </trkpt>
  <trkpt lat="33.116506" lon="-2.022965">
   <ele>1357.00</ele>
   <time>2014-04-05T15:16:32Z</time>
  </trkpt>
  <trkpt lat="33.116824" lon="-2.022919">
   <ele>1356.00</ele>
   <time>2014-04-05T15:16:34Z</time>
  </trkpt>
  <trkpt lat="33.117130" lon="-2.022823">
   <ele>1356.00</ele>
   <time>2014-04-05T15:16:36Z</time>
  </trkpt>
  <trkpt lat="33.117423" lon="-2.022683">
   <ele>1355.00</ele>
   <time>2014-04-05T15:16:38Z</time>
  </trkpt>
  <trkpt lat="33.117705" lon="-2.022509">
   <ele>1354.00</ele>
   <time>2014-04-05T15:16:40Z</time>
  </trkpt>
  <trkpt lat="33.117975" lon="-2.022320">
   <ele>1353.00</ele>
   <time>2014-04-05T15:16:42Z</time>
  </trkpt>
  <trkpt lat="33.118369" lon="-2.022041">
   <ele>1352.00</ele>
   <time>2014-04-05T15:16:45Z</time>
  </trkpt>
  <trkpt lat="33.118642" lon="-2.021917">
   <ele>1351.00</ele>
   <time>2014-04-05T15:16:47Z</time>
  </trkpt>
  <trkpt lat="33.118926" lon="-2.021891">
   <ele>1350.00</ele>
   <time>2014-04-05T15:16:49Z</time>
  </trkpt>
  <trkpt lat="33.119207" lon="-2.021950">
   <ele>1350.00</ele>
   <time>2014-04-05T15:16:51Z</time>
  </trkpt>
  <trkpt lat="33.119473" lon="-2.022091">
   <ele>1349.00</ele>
   <time>2014-04-05T15:16:53Z</time>
  </trkpt>
  <trkpt lat="33.119710" lon="-2.022303">
   <ele>1349.00</ele>
   <time>2014-04-05T15:16:55Z</time>
  </trkpt>
  <trkpt lat="33.119923" lon="-2.022549">
   <ele>1349.00</ele>
   <time>2014-04-05T15:16:57Z</time>
  </trkpt>
  <trkpt lat="33.121276" lon="-2.024135">
   <ele>1348.00</ele>
   <time>2014-04-05T15:17:12Z</time>
  </trkpt>
  <trkpt lat="33.121424" lon="-2.024363">
   <ele>1348.00</ele>
   <time>2014-04-05T15:17:14Z</time>
  </trkpt>
  <trkpt lat="33.121547" lon="-2.024624">
   <ele>1348.00</ele>
   <time>2014-04-05T15:17:16Z</time>
  </trkpt>
  <trkpt lat="33.121653" lon="-2.024910">
   <ele>1348.00</ele>
   <time>2014-04-05T15:17:18Z</time>
  </trkpt>
  <trkpt lat="33.122440" lon="-2.027402">
   <ele>1345.00</ele>
   <time>2014-04-05T15:17:33Z</time>
  </trkpt>
  <trkpt lat="33.123027" lon="-2.029267">
   <ele>1346.00</ele>
   <time>2014-04-05T15:17:44Z</time>
  </trkpt>
  <trkpt lat="33.123166" lon="-2.029590">
   <ele>1346.00</ele>
   <time>2014-04-05T15:17:46Z</time>
  </trkpt>
  <trkpt lat="33.123334" lon="-2.029894">
   <ele>1346.00</ele>
   <time>2014-04-05T15:17:48Z</time>
  </trkpt>
  <trkpt lat="33.123534" lon="-2.030167">
   <ele>1345.00</ele>
   <time>2014-04-05T15:17:50Z</time>
  </trkpt>
  <trkpt lat="33.123756" lon="-2.030418">
   <ele>1344.00</ele>
   <time>2014-04-05T15:17:52Z</time>
  </trkpt>
  <trkpt lat="33.124001" lon="-2.030640">
   <ele>1344.00</ele>
   <time>2014-04-05T15:17:54Z</time>
  </trkpt>
  <trkpt lat="33.124267" lon="-2.030820">
   <ele>1343.00</ele>
   <time>2014-04-05T15:17:56Z</time>
  </trkpt>
  <trkpt lat="33.124548" lon="-2.030967">
   <ele>1343.00</ele>
   <time>2014-04-05T15:17:58Z</time>
  </trkpt>
  <trkpt lat="33.124842" lon="-2.031088">
   <ele>1342.00</ele>
   <time>2014-04-05T15:18:00Z</time>
  </trkpt>
  <trkpt lat="33.127341" lon="-2.032038">
   <ele>1338.00</ele>
   <time>2014-04-05T15:18:16Z</time>
  </trkpt>
  <trkpt lat="33.129698" lon="-2.032945">
   <ele>1335.00</ele>
   <time>2014-04-05T15:18:31Z</time>
  </trkpt>
  <trkpt lat="33.132034" lon="-2.033849">
   <ele>1333.00</ele>
   <time>2014-04-05T15:18:46Z</time>
  </trkpt>
  <trkpt lat="33.132469" lon="-2.034029">
   <ele>1332.00</ele>
   <time>2014-04-05T15:18:49Z</time>
  </trkpt>
  <trkpt lat="33.132744" lon="-2.034185">
   <ele>1332.00</ele>
   <time>2014-04-05T15:18:51Z</time>
  </trkpt>
  <trkpt lat="33.133008" lon="-2.034375">
   <ele>1332.00</ele>
   <time>2014-04-05T15:18:53Z</time>
  </trkpt>
  <trkpt lat="33.133533" lon="-2.034797">
   <ele>1332.00</ele>
   <time>2014-04-05T15:18:57Z</time>
  </trkpt>
  <trkpt lat="33.133905" lon="-2.035115">
   <ele>1332.00</ele>
   <time>2014-04-05T15:19:00Z</time>
  </trkpt>
  <trkpt lat="33.134111" lon="-2.035357">
   <ele>1332.00</ele>
   <time>2014-04-05T15:19:02Z</time>
  </trkpt>
  <trkpt lat="33.134247" lon="-2.035653">
   <ele>1333.00</ele>
   <time>2014-04-05T15:19:04Z</time>
  </trkpt>
  <trkpt lat="33.134303" lon="-2.035980">
   <ele>1333.00</ele>
   <time>2014-04-05T15:19:06Z</time>
  </trkpt>
  <trkpt lat="33.134291" lon="-2.036322">
   <ele>1334.00</ele>
   <time>2014-04-05T15:19:08Z</time>
  </trkpt>
  <trkpt lat="33.134253" lon="-2.036674">
   <ele>1335.00</ele>
   <time>2014-04-05T15:19:10Z</time>
  </trkpt>
  <trkpt lat="33.134191" lon="-2.037220">
   <ele>1336.00</ele>
   <time>2014-04-05T15:19:13Z</time>
  </trkpt>
  <trkpt lat="33.133936" lon="-2.039712">
   <ele>1338.00</ele>
   <time>2014-04-05T15:19:26Z</time>
  </trkpt>
  <trkpt lat="33.133862" lon="-2.040477">
   <ele>1339.00</ele>
   <time>2014-04-05T15:19:30Z</time>
  </trkpt>
  <trkpt lat="33.133858" lon="-2.040863">
   <ele>1338.00</ele>
   <time>2014-04-05T15:19:32Z</time>
  </trkpt>
  <trkpt lat="33.133971" lon="-2.044330">
   <ele>1340.00</ele>
   <time>2014-04-05T15:19:49Z</time>
  </trkpt>
  <trkpt lat="33.134075" lon="-2.047560">
   <ele>1343.00</ele>
   <time>2014-04-05T15:20:05Z</time>
  </trkpt>
  <trkpt lat="33.134158" lon="-2.050712">
   <ele>1342.00</ele>
   <time>2014-04-05T15:20:20Z</time>
  </trkpt>
  <trkpt lat="33.134252" lon="-2.053802">
   <ele>1344.00</ele>
   <time>2014-04-05T15:20:35Z</time>
  </trkpt>
  <trkpt lat="33.134341" lon="-2.056954">
   <ele>1345.00</ele>
   <time>2014-04-05T15:20:50Z</time>
  </trkpt>
  <trkpt lat="33.134437" lon="-2.060430">
   <ele>1343.00</ele>
   <time>2014-04-05T15:21:06Z</time>
  </trkpt>
  <trkpt lat="33.134535" lon="-2.063869">
   <ele>1343.00</ele>
   <time>2014-04-05T15:21:21Z</time>
  </trkpt>
  <trkpt lat="33.134561" lon="-2.064773">
   <ele>1344.00</ele>
   <time>2014-04-05T15:21:25Z</time>
  </trkpt>
  <trkpt lat="33.134640" lon="-2.068168">
   <ele>1344.00</ele>
   <time>2014-04-05T15:21:40Z</time>
  </trkpt>
  <trkpt lat="33.134740" lon="-2.071848">
   <ele>1341.00</ele>
   <time>2014-04-05T15:21:56Z</time>
  </trkpt>
  <trkpt lat="33.134832" lon="-2.075294">
   <ele>1344.00</ele>
   <time>2014-04-05T15:22:11Z</time>
  </trkpt>
  <trkpt lat="33.134923" lon="-2.078810">
   <ele>1342.00</ele>
   <time>2014-04-05T15:22:26Z</time>
  </trkpt>
  <trkpt lat="33.135013" lon="-2.082335">
   <ele>1341.00</ele>
   <time>2014-04-05T15:22:41Z</time>
  </trkpt>
  <trkpt lat="33.135106" lon="-2.085999">
   <ele>1340.00</ele>
   <time>2014-04-05T15:22:57Z</time>
  </trkpt>
  <trkpt lat="33.135195" lon="-2.089512">
   <ele>1343.00</ele>
   <time>2014-04-05T15:23:12Z</time>
  </trkpt>
  <trkpt lat="33.135287" lon="-2.093020">
   <ele>1346.00</ele>
   <time>2014-04-05T15:23:27Z</time>
  </trkpt>
  <trkpt lat="33.135356" lon="-2.095010">
   <ele>1348.00</ele>
   <time>2014-04-05T15:23:36Z</time>
  </trkpt>
  <trkpt lat="33.135392" lon="-2.095443">
   <ele>1348.00</ele>
   <time>2014-04-05T15:23:38Z</time>
  </trkpt>
  <trkpt lat="33.135451" lon="-2.095877">
   <ele>1348.00</ele>
   <time>2014-04-05T15:23:40Z</time>
  </trkpt>
  <trkpt lat="33.135494" lon="-2.096090">
   <ele>1348.00</ele>
   <time>2014-04-05T15:23:41Z</time>
  </trkpt>
  <trkpt lat="33.135545" lon="-2.096300">
   <ele>1348.00</ele>
   <time>2014-04-05T15:23:42Z</time>
  </trkpt>
  <trkpt lat="33.135604" lon="-2.096506">
   <ele>1347.00</ele>
   <time>2014-04-05T15:23:43Z</time>
  </trkpt>
  <trkpt lat="33.135739" lon="-2.096907">
   <ele>1347.00</ele>
   <time>2014-04-05T15:23:45Z</time>
  </trkpt>
  <trkpt lat="33.135817" lon="-2.097101">
   <ele>1347.00</ele>
   <time>2014-04-05T15:23:46Z</time>
  </trkpt>
  <trkpt lat="33.136000" lon="-2.097465">
   <ele>1345.00</ele>
   <time>2014-04-05T15:23:48Z</time>
  </trkpt>
  <trkpt lat="33.136204" lon="-2.097816">
   <ele>1343.00</ele>
   <time>2014-04-05T15:23:50Z</time>
  </trkpt>
  <trkpt lat="33.136423" lon="-2.098156">
   <ele>1342.00</ele>
   <time>2014-04-05T15:23:52Z</time>
  </trkpt>
  <trkpt lat="33.137258" lon="-2.099329">
   <ele>1339.00</ele>
   <time>2014-04-05T15:23:59Z</time>
  </trkpt>
  <trkpt lat="33.139076" lon="-2.101885">
   <ele>1334.00</ele>
   <time>2014-04-05T15:24:14Z</time>
  </trkpt>
  <trkpt lat="33.139541" lon="-2.102576">
   <ele>1333.00</ele>
   <time>2014-04-05T15:24:18Z</time>
  </trkpt>
  <trkpt lat="33.139758" lon="-2.102940">
   <ele>1332.00</ele>
   <time>2014-04-05T15:24:20Z</time>
  </trkpt>
  <trkpt lat="33.139964" lon="-2.103323">
   <ele>1331.00</ele>
   <time>2014-04-05T15:24:22Z</time>
  </trkpt>
  <trkpt lat="33.140253" lon="-2.103928">
   <ele>1329.00</ele>
   <time>2014-04-05T15:24:25Z</time>
  </trkpt>
  <trkpt lat="33.141668" lon="-2.106980">
   <ele>1324.00</ele>
   <time>2014-04-05T15:24:40Z</time>
  </trkpt>
  <trkpt lat="33.142946" lon="-2.109775">
   <ele>1317.00</ele>
   <time>2014-04-05T15:24:54Z</time>
  </trkpt>
  <trkpt lat="33.143105" lon="-2.110186">
   <ele>1317.00</ele>
   <time>2014-04-05T15:24:56Z</time>
  </trkpt>
  <trkpt lat="33.143177" lon="-2.110395">
   <ele>1316.00</ele>
   <time>2014-04-05T15:24:57Z</time>
  </trkpt>
  <trkpt lat="33.143302" lon="-2.110821">
   <ele>1315.00</ele>
   <time>2014-04-05T15:24:59Z</time>
  </trkpt>
  <trkpt lat="33.143408" lon="-2.111259">
   <ele>1316.00</ele>
   <time>2014-04-05T15:25:01Z</time>
  </trkpt>
  <trkpt lat="33.143487" lon="-2.111704">
   <ele>1316.00</ele>
   <time>2014-04-05T15:25:03Z</time>
  </trkpt>
  <trkpt lat="33.143514" lon="-2.111927">
   <ele>1316.00</ele>
   <time>2014-04-05T15:25:04Z</time>
  </trkpt>
  <trkpt lat="33.143554" lon="-2.112378">
   <ele>1315.00</ele>
   <time>2014-04-05T15:25:06Z</time>
  </trkpt>
  <trkpt lat="33.143856" lon="-2.115779">
   <ele>1312.00</ele>
   <time>2014-04-05T15:25:21Z</time>
  </trkpt>
  <trkpt lat="33.143943" lon="-2.116629">
   <ele>1312.00</ele>
   <time>2014-04-05T15:25:25Z</time>
  </trkpt>
  <trkpt lat="33.144020" lon="-2.117048">
   <ele>1313.00</ele>
   <time>2014-04-05T15:25:27Z</time>
  </trkpt>
  <trkpt lat="33.144071" lon="-2.117256">
   <ele>1313.00</ele>
   <time>2014-04-05T15:25:28Z</time>
  </trkpt>
  <trkpt lat="33.144129" lon="-2.117462">
   <ele>1313.00</ele>
   <time>2014-04-05T15:25:29Z</time>
  </trkpt>
  <trkpt lat="33.144265" lon="-2.117866">
   <ele>1313.00</ele>
   <time>2014-04-05T15:25:31Z</time>
  </trkpt>
  <trkpt lat="33.144425" lon="-2.118261">
   <ele>1312.00</ele>
   <time>2014-04-05T15:25:33Z</time>
  </trkpt>
  <trkpt lat="33.144516" lon="-2.118454">
   <ele>1312.00</ele>
   <time>2014-04-05T15:25:34Z</time>
  </trkpt>
  <trkpt lat="33.144615" lon="-2.118640">
   <ele>1311.00</ele>
   <time>2014-04-05T15:25:35Z</time>
  </trkpt>
  <trkpt lat="33.144722" lon="-2.118822">
   <ele>1311.00</ele>
   <time>2014-04-05T15:25:36Z</time>
  </trkpt>
  <trkpt lat="33.144953" lon="-2.119172">
   <ele>1310.00</ele>
   <time>2014-04-05T15:25:38Z</time>
  </trkpt>
  <trkpt lat="33.146804" lon="-2.121758">
   <ele>1303.00</ele>
   <time>2014-04-05T15:25:53Z</time>
  </trkpt>
  <trkpt lat="33.148765" lon="-2.124518">
   <ele>1298.00</ele>
   <time>2014-04-05T15:26:09Z</time>
  </trkpt>
  <trkpt lat="33.150609" lon="-2.127119">
   <ele>1296.00</ele>
   <time>2014-04-05T15:26:24Z</time>
  </trkpt>
  <trkpt lat="33.151454" lon="-2.128335">
   <ele>1296.00</ele>
   <time>2014-04-05T15:26:31Z</time>
  </trkpt>
  <trkpt lat="33.151684" lon="-2.128702">
   <ele>1296.00</ele>
   <time>2014-04-05T15:26:33Z</time>
  </trkpt>
  <trkpt lat="33.151901" lon="-2.129080">
   <ele>1296.00</ele>
   <time>2014-04-05T15:26:35Z</time>
  </trkpt>
  <trkpt lat="33.152101" lon="-2.129474">
   <ele>1297.00</ele>
   <time>2014-04-05T15:26:37Z</time>
  </trkpt>
  <trkpt lat="33.152288" lon="-2.129881">
   <ele>1296.00</ele>
   <time>2014-04-05T15:26:39Z</time>
  </trkpt>
  <trkpt lat="33.152808" lon="-2.131140">
   <ele>1296.00</ele>
   <time>2014-04-05T15:26:45Z</time>
  </trkpt>
  <trkpt lat="33.154143" lon="-2.134351">
   <ele>1296.00</ele>
   <time>2014-04-05T15:27:00Z</time>
  </trkpt>
  <trkpt lat="33.155512" lon="-2.137655">
   <ele>1300.00</ele>
   <time>2014-04-05T15:27:16Z</time>
  </trkpt>
  <trkpt lat="33.156770" lon="-2.140725">
   <ele>1302.00</ele>
   <time>2014-04-05T15:27:31Z</time>
  </trkpt>
  <trkpt lat="33.158085" lon="-2.143903">
   <ele>1303.00</ele>
   <time>2014-04-05T15:27:46Z</time>
  </trkpt>
  <trkpt lat="33.159488" lon="-2.147277">
   <ele>1306.00</ele>
   <time>2014-04-05T15:28:02Z</time>
  </trkpt>
  <trkpt lat="33.160794" lon="-2.150464">
   <ele>1305.00</ele>
   <time>2014-04-05T15:28:17Z</time>
  </trkpt>
  <trkpt lat="33.161870" lon="-2.153095">
   <ele>1306.00</ele>
   <time>2014-04-05T15:28:30Z</time>
  </trkpt>
  <trkpt lat="33.161940" lon="-2.153305">
   <ele>1306.00</ele>
   <time>2014-04-05T15:28:31Z</time>
  </trkpt>
  <trkpt lat="33.162001" lon="-2.153518">
   <ele>1305.00</ele>
   <time>2014-04-05T15:28:32Z</time>
  </trkpt>
  <trkpt lat="33.162055" lon="-2.153735">
   <ele>1305.00</ele>
   <time>2014-04-05T15:28:33Z</time>
  </trkpt>
  <trkpt lat="33.162101" lon="-2.153954">
   <ele>1305.00</ele>
   <time>2014-04-05T15:28:34Z</time>
  </trkpt>
  <trkpt lat="33.162143" lon="-2.154181">
   <ele>1305.00</ele>
   <time>2014-04-05T15:28:35Z</time>
  </trkpt>
  <trkpt lat="33.162207" lon="-2.154640">
   <ele>1305.00</ele>
   <time>2014-04-05T15:28:37Z</time>
  </trkpt>
  <trkpt lat="33.162228" lon="-2.154872">
   <ele>1304.00</ele>
   <time>2014-04-05T15:28:38Z</time>
  </trkpt>
  <trkpt lat="33.162239" lon="-2.155106">
   <ele>1304.00</ele>
   <time>2014-04-05T15:28:39Z</time>
  </trkpt>
  <trkpt lat="33.162242" lon="-2.155340">
   <ele>1304.00</ele>
   <time>2014-04-05T15:28:40Z</time>
  </trkpt>
  <trkpt lat="33.162232" lon="-2.155575">
   <ele>1304.00</ele>
   <time>2014-04-05T15:28:41Z</time>
  </trkpt>
  <trkpt lat="33.162211" lon="-2.155809">
   <ele>1303.00</ele>
   <time>2014-04-05T15:28:42Z</time>
  </trkpt>
  <trkpt lat="33.161793" lon="-2.159247">
   <ele>1299.00</ele>
   <time>2014-04-05T15:28:57Z</time>
  </trkpt>
  <trkpt lat="33.161483" lon="-2.161627">
   <ele>1296.00</ele>
   <time>2014-04-05T15:29:07Z</time>
  </trkpt>
  <trkpt lat="33.161398" lon="-2.162098">
   <ele>1296.00</ele>
   <time>2014-04-05T15:29:09Z</time>
  </trkpt>
  <trkpt lat="33.161298" lon="-2.162560">
   <ele>1295.00</ele>
   <time>2014-04-05T15:29:11Z</time>
  </trkpt>
  <trkpt lat="33.160452" lon="-2.166048">
   <ele>1295.00</ele>
   <time>2014-04-05T15:29:27Z</time>
  </trkpt>
  <trkpt lat="33.159955" lon="-2.168049">
   <ele>1299.00</ele>
   <time>2014-04-05T15:29:36Z</time>
  </trkpt>
  <trkpt lat="33.158889" lon="-2.171536">
   <ele>1304.00</ele>
   <time>2014-04-05T15:29:52Z</time>
  </trkpt>
  <trkpt lat="33.157866" lon="-2.174848">
   <ele>1306.00</ele>
   <time>2014-04-05T15:30:07Z</time>
  </trkpt>
  <trkpt lat="33.156842" lon="-2.178180">
   <ele>1309.00</ele>
   <time>2014-04-05T15:30:22Z</time>
  </trkpt>
  <trkpt lat="33.156315" lon="-2.179944">
   <ele>1312.00</ele>
   <time>2014-04-05T15:30:30Z</time>
  </trkpt>
  <trkpt lat="33.156210" lon="-2.180385">
   <ele>1313.00</ele>
   <time>2014-04-05T15:30:32Z</time>
  </trkpt>
  <trkpt lat="33.156122" lon="-2.180833">
   <ele>1313.00</ele>
   <time>2014-04-05T15:30:34Z</time>
  </trkpt>
  <trkpt lat="33.156049" lon="-2.181288">
   <ele>1313.00</ele>
   <time>2014-04-05T15:30:36Z</time>
  </trkpt>
  <trkpt lat="33.155526" lon="-2.185025">
   <ele>1309.00</ele>
   <time>2014-04-05T15:30:52Z</time>
  </trkpt>
  <trkpt lat="33.155021" lon="-2.188582">
   <ele>1305.00</ele>
   <time>2014-04-05T15:31:07Z</time>
  </trkpt>
  <trkpt lat="33.154530" lon="-2.192067">
   <ele>1301.00</ele>
   <time>2014-04-05T15:31:22Z</time>
  </trkpt>
  <trkpt lat="33.154156" lon="-2.194554">
   <ele>1301.00</ele>
   <time>2014-04-05T15:31:33Z</time>
  </trkpt>
  <trkpt lat="33.153982" lon="-2.195406">
   <ele>1301.00</ele>
   <time>2014-04-05T15:31:37Z</time>
  </trkpt>
  <trkpt lat="33.153465" lon="-2.197608">
   <ele>1298.00</ele>
   <time>2014-04-05T15:31:48Z</time>
  </trkpt>
  <trkpt lat="33.153399" lon="-2.198005">
   <ele>1299.00</ele>
   <time>2014-04-05T15:31:50Z</time>
  </trkpt>
  <trkpt lat="33.153355" lon="-2.198408">
   <ele>1299.00</ele>
   <time>2014-04-05T15:31:52Z</time>
  </trkpt>
  <trkpt lat="33.153337" lon="-2.198814">
   <ele>1299.00</ele>
   <time>2014-04-05T15:31:54Z</time>
  </trkpt>
  <trkpt lat="33.153342" lon="-2.199216">
   <ele>1300.00</ele>
   <time>2014-04-05T15:31:56Z</time>
  </trkpt>
  <trkpt lat="33.153376" lon="-2.199597">
   <ele>1300.00</ele>
   <time>2014-04-05T15:31:58Z</time>
  </trkpt>
  <trkpt lat="33.153430" lon="-2.199960">
   <ele>1301.00</ele>
   <time>2014-04-05T15:32:00Z</time>
  </trkpt>
  <trkpt lat="33.153499" lon="-2.200294">
   <ele>1303.00</ele>
   <time>2014-04-05T15:32:02Z</time>
  </trkpt>
  <trkpt lat="33.153612" lon="-2.200744">
   <ele>1306.00</ele>
   <time>2014-04-05T15:32:05Z</time>
  </trkpt>
  <trkpt lat="33.154103" lon="-2.202700">
   <ele>1316.00</ele>
   <time>2014-04-05T15:32:17Z</time>
  </trkpt>
  <trkpt lat="33.154161" lon="-2.203068">
   <ele>1316.00</ele>
   <time>2014-04-05T15:32:19Z</time>
  </trkpt>
  <trkpt lat="33.154189" lon="-2.203456">
   <ele>1317.00</ele>
   <time>2014-04-05T15:32:21Z</time>
  </trkpt>
  <trkpt lat="33.154187" lon="-2.203852">
   <ele>1317.00</ele>
   <time>2014-04-05T15:32:23Z</time>
  </trkpt>
  <trkpt lat="33.154148" lon="-2.204260">
   <ele>1317.00</ele>
   <time>2014-04-05T15:32:25Z</time>
  </trkpt>
  <trkpt lat="33.154072" lon="-2.204680">
   <ele>1318.00</ele>
   <time>2014-04-05T15:32:27Z</time>
  </trkpt>
  <trkpt lat="33.153967" lon="-2.205105">
   <ele>1319.00</ele>
   <time>2014-04-05T15:32:29Z</time>
  </trkpt>
  <trkpt lat="33.153014" lon="-2.208413">
   <ele>1317.00</ele>
   <time>2014-04-05T15:32:45Z</time>
  </trkpt>
  <trkpt lat="33.152100" lon="-2.211570">
   <ele>1310.00</ele>
   <time>2014-04-05T15:33:00Z</time>
  </trkpt>
  <trkpt lat="33.151148" lon="-2.214857">
   <ele>1303.00</ele>
   <time>2014-04-05T15:33:15Z</time>
  </trkpt>
  <trkpt lat="33.150209" lon="-2.218127">
   <ele>1302.00</ele>
   <time>2014-04-05T15:33:30Z</time>
  </trkpt>
  <trkpt lat="33.149227" lon="-2.221655">
   <ele>1311.00</ele>
   <time>2014-04-05T15:33:46Z</time>
  </trkpt>
  <trkpt lat="33.148303" lon="-2.224980">
   <ele>1319.00</ele>
   <time>2014-04-05T15:34:01Z</time>
  </trkpt>
  <trkpt lat="33.147337" lon="-2.228349">
   <ele>1314.00</ele>
   <time>2014-04-05T15:34:16Z</time>
  </trkpt>
  <trkpt lat="33.146326" lon="-2.231875">
   <ele>1304.00</ele>
   <time>2014-04-05T15:34:32Z</time>
  </trkpt>
  <trkpt lat="33.145381" lon="-2.235220">
   <ele>1308.00</ele>
   <time>2014-04-05T15:34:47Z</time>
  </trkpt>
  <trkpt lat="33.144449" lon="-2.238492">
   <ele>1306.00</ele>
   <time>2014-04-05T15:35:02Z</time>
  </trkpt>
  <trkpt lat="33.143546" lon="-2.241668">
   <ele>1308.00</ele>
   <time>2014-04-05T15:35:17Z</time>
  </trkpt>
  <trkpt lat="33.142691" lon="-2.244632">
   <ele>1312.00</ele>
   <time>2014-04-05T15:35:31Z</time>
  </trkpt>
  <trkpt lat="33.141840" lon="-2.247782">
   <ele>1317.00</ele>
   <time>2014-04-05T15:35:46Z</time>
  </trkpt>
  <trkpt lat="33.140901" lon="-2.251077">
   <ele>1316.00</ele>
   <time>2014-04-05T15:36:01Z</time>
  </trkpt>
  <trkpt lat="33.139912" lon="-2.254563">
   <ele>1322.00</ele>
   <time>2014-04-05T15:36:17Z</time>
  </trkpt>
  <trkpt lat="33.138999" lon="-2.257766">
   <ele>1326.00</ele>
   <time>2014-04-05T15:36:32Z</time>
  </trkpt>
  <trkpt lat="33.138099" lon="-2.260945">
   <ele>1327.00</ele>
   <time>2014-04-05T15:36:47Z</time>
  </trkpt>
  <trkpt lat="33.137209" lon="-2.264111">
   <ele>1328.00</ele>
   <time>2014-04-05T15:37:02Z</time>
  </trkpt>
  <trkpt lat="33.136578" lon="-2.266211">
   <ele>1328.00</ele>
   <time>2014-04-05T15:37:12Z</time>
  </trkpt>
  <trkpt lat="33.135534" lon="-2.269472">
   <ele>1321.00</ele>
   <time>2014-04-05T15:37:28Z</time>
  </trkpt>
  <trkpt lat="33.134635" lon="-2.272316">
   <ele>1317.00</ele>
   <time>2014-04-05T15:37:42Z</time>
  </trkpt>
  <trkpt lat="33.134354" lon="-2.273403">
   <ele>1317.00</ele>
   <time>2014-04-05T15:37:47Z</time>
  </trkpt>
  <trkpt lat="33.134209" lon="-2.274077">
   <ele>1318.00</ele>
   <time>2014-04-05T15:37:50Z</time>
  </trkpt>
  <trkpt lat="33.134128" lon="-2.274535">
   <ele>1318.00</ele>
   <time>2014-04-05T15:37:52Z</time>
  </trkpt>
  <trkpt lat="33.134061" lon="-2.274999">
   <ele>1319.00</ele>
   <time>2014-04-05T15:37:54Z</time>
  </trkpt>
  <trkpt lat="33.133978" lon="-2.275702">
   <ele>1319.00</ele>
   <time>2014-04-05T15:37:57Z</time>
  </trkpt>
  <trkpt lat="33.133670" lon="-2.279183">
   <ele>1323.00</ele>
   <time>2014-04-05T15:38:12Z</time>
  </trkpt>
  <trkpt lat="33.133551" lon="-2.280530">
   <ele>1324.00</ele>
   <time>2014-04-05T15:38:18Z</time>
  </trkpt>
  <trkpt lat="33.133391" lon="-2.282137">
   <ele>1324.00</ele>
   <time>2014-04-05T15:38:25Z</time>
  </trkpt>
  <trkpt lat="33.133213" lon="-2.284016">
   <ele>1322.00</ele>
   <time>2014-04-05T15:38:33Z</time>
  </trkpt>
  <trkpt lat="33.133144" lon="-2.284485">
   <ele>1322.00</ele>
   <time>2014-04-05T15:38:35Z</time>
  </trkpt>
  <trkpt lat="33.132664" lon="-2.287453">
   <ele>1317.00</ele>
   <time>2014-04-05T15:38:48Z</time>
  </trkpt>
  <trkpt lat="33.132641" lon="-2.287679">
   <ele>1316.00</ele>
   <time>2014-04-05T15:38:49Z</time>
  </trkpt>
  <trkpt lat="33.132625" lon="-2.287905">
   <ele>1316.00</ele>
   <time>2014-04-05T15:38:50Z</time>
  </trkpt>
  <trkpt lat="33.132618" lon="-2.288130">
   <ele>1316.00</ele>
   <time>2014-04-05T15:38:51Z</time>
  </trkpt>
  <trkpt lat="33.132624" lon="-2.288581">
   <ele>1315.00</ele>
   <time>2014-04-05T15:38:53Z</time>
  </trkpt>
  <trkpt lat="33.132650" lon="-2.289034">
   <ele>1313.00</ele>
   <time>2014-04-05T15:38:55Z</time>
  </trkpt>
  <trkpt lat="33.132852" lon="-2.291785">
   <ele>1307.00</ele>
   <time>2014-04-05T15:39:08Z</time>
  </trkpt>
  <trkpt lat="33.132907" lon="-2.292184">
   <ele>1307.00</ele>
   <time>2014-04-05T15:39:10Z</time>
  </trkpt>
  <trkpt lat="33.133003" lon="-2.292576">
   <ele>1306.00</ele>
   <time>2014-04-05T15:39:12Z</time>
  </trkpt>
  <trkpt lat="33.133152" lon="-2.292946">
   <ele>1304.00</ele>
   <time>2014-04-05T15:39:14Z</time>
  </trkpt>
  <trkpt lat="33.133341" lon="-2.293298">
   <ele>1302.00</ele>
   <time>2014-04-05T15:39:16Z</time>
  </trkpt>
  <trkpt lat="33.133570" lon="-2.293624">
   <ele>1300.00</ele>
   <time>2014-04-05T15:39:18Z</time>
  </trkpt>
  <trkpt lat="33.133698" lon="-2.293779">
   <ele>1300.00</ele>
   <time>2014-04-05T15:39:19Z</time>
  </trkpt>
  <trkpt lat="33.133831" lon="-2.293927">
   <ele>1300.00</ele>
   <time>2014-04-05T15:39:20Z</time>
  </trkpt>
  <trkpt lat="33.135935" lon="-2.296066">
   <ele>1298.00</ele>
   <time>2014-04-05T15:39:35Z</time>
  </trkpt>
  <trkpt lat="33.138108" lon="-2.298288">
   <ele>1295.00</ele>
   <time>2014-04-05T15:39:50Z</time>
  </trkpt>
  <trkpt lat="33.139414" lon="-2.299624">
   <ele>1293.00</ele>
   <time>2014-04-05T15:39:59Z</time>
  </trkpt>
  <trkpt lat="33.141654" lon="-2.301957">
   <ele>1291.00</ele>
   <time>2014-04-05T15:40:14Z</time>
  </trkpt>
  <trkpt lat="33.143960" lon="-2.304352">
   <ele>1289.00</ele>
   <time>2014-04-05T15:40:29Z</time>
  </trkpt>
  <trkpt lat="33.146241" lon="-2.306726">
   <ele>1292.00</ele>
   <time>2014-04-05T15:40:44Z</time>
  </trkpt>
  <trkpt lat="33.148498" lon="-2.309081">
   <ele>1294.00</ele>
   <time>2014-04-05T15:40:59Z</time>
  </trkpt>
  <trkpt lat="33.148927" lon="-2.309569">
   <ele>1293.00</ele>
   <time>2014-04-05T15:41:02Z</time>
  </trkpt>
  <trkpt lat="33.150966" lon="-2.312072">
   <ele>1287.00</ele>
   <time>2014-04-05T15:41:17Z</time>
  </trkpt>
  <trkpt lat="33.153015" lon="-2.314605">
   <ele>1282.00</ele>
   <time>2014-04-05T15:41:32Z</time>
  </trkpt>
  <trkpt lat="33.155152" lon="-2.317238">
   <ele>1276.00</ele>
   <time>2014-04-05T15:41:47Z</time>
  </trkpt>
  <trkpt lat="33.157413" lon="-2.320023">
   <ele>1274.00</ele>
   <time>2014-04-05T15:42:03Z</time>
  </trkpt>
  <trkpt lat="33.159564" lon="-2.322673">
   <ele>1272.00</ele>
   <time>2014-04-05T15:42:18Z</time>
  </trkpt>
  <trkpt lat="33.161705" lon="-2.325308">
   <ele>1274.00</ele>
   <time>2014-04-05T15:42:33Z</time>
  </trkpt>
  <trkpt lat="33.162560" lon="-2.326335">
   <ele>1276.00</ele>
   <time>2014-04-05T15:42:39Z</time>
  </trkpt>
  <trkpt lat="33.163011" lon="-2.326823">
   <ele>1276.00</ele>
   <time>2014-04-05T15:42:42Z</time>
  </trkpt>
  <trkpt lat="33.165416" lon="-2.329214">
   <ele>1274.00</ele>
   <time>2014-04-05T15:42:57Z</time>
  </trkpt>
  <trkpt lat="33.168040" lon="-2.331806">
   <ele>1271.00</ele>
   <time>2014-04-05T15:43:13Z</time>
  </trkpt>
  <trkpt lat="33.170529" lon="-2.334280">
   <ele>1269.00</ele>
   <time>2014-04-05T15:43:28Z</time>
  </trkpt>
  <trkpt lat="33.172923" lon="-2.336646">
   <ele>1271.00</ele>
   <time>2014-04-05T15:43:43Z</time>
  </trkpt>
  <trkpt lat="33.175190" lon="-2.338892">
   <ele>1273.00</ele>
   <time>2014-04-05T15:43:58Z</time>
  </trkpt>
  <trkpt lat="33.177636" lon="-2.341323">
   <ele>1276.00</ele>
   <time>2014-04-05T15:44:14Z</time>
  </trkpt>
  <trkpt lat="33.179881" lon="-2.343551">
   <ele>1276.00</ele>
   <time>2014-04-05T15:44:29Z</time>
  </trkpt>
  <trkpt lat="33.181051" lon="-2.344698">
   <ele>1276.00</ele>
   <time>2014-04-05T15:44:42Z</time>
  </trkpt>
  <trkpt lat="33.181165" lon="-2.344824">
   <ele>1276.00</ele>
   <time>2014-04-05T15:44:57Z</time>
  </trkpt>
  <trkpt lat="33.181149" lon="-2.344807">
   <ele>1277.00</ele>
   <time>2014-04-05T15:45:13Z</time>
  </trkpt>
  <trkpt lat="33.181140" lon="-2.344801">
   <ele>1277.00</ele>
   <time>2014-04-05T15:45:28Z</time>
  </trkpt>
  <trkpt lat="33.181136" lon="-2.344799">
   <ele>1276.00</ele>
   <time>2014-04-05T15:45:42Z</time>
  </trkpt>
  <trkpt lat="33.181132" lon="-2.344797">
   <ele>1276.00</ele>
   <time>2014-04-05T15:46:00Z</time>
  </trkpt>
  <trkpt lat="33.181130" lon="-2.344796">
   <ele>1276.00</ele>
   <time>2014-04-05T15:46:15Z</time>
  </trkpt>
  <trkpt lat="33.181129" lon="-2.344796">
   <ele>1275.00</ele>
   <time>2014-04-05T15:46:30Z</time>
  </trkpt>
  <trkpt lat="33.181127" lon="-2.344795">
   <ele>1275.00</ele>
   <time>2014-04-05T15:46:46Z</time>
  </trkpt>
  <trkpt lat="33.181125" lon="-2.344793">
   <ele>1275.00</ele>
   <time>2014-04-05T15:47:01Z</time>
  </trkpt>
  <trkpt lat="33.181123" lon="-2.344795">
   <ele>1275.00</ele>
   <time>2014-04-05T15:47:16Z</time>
  </trkpt>
  <trkpt lat="33.181121" lon="-2.344801">
   <ele>1276.00</ele>
   <time>2014-04-05T15:47:31Z</time>
  </trkpt>
  <trkpt lat="33.181120" lon="-2.344805">
   <ele>1276.00</ele>
   <time>2014-04-05T15:47:47Z</time>
  </trkpt>
  <trkpt lat="33.181119" lon="-2.344806">
   <ele>1276.00</ele>
   <time>2014-04-05T15:48:02Z</time>
  </trkpt>
  <trkpt lat="33.181118" lon="-2.344807">
   <ele>1276.00</ele>
   <time>2014-04-05T15:48:17Z</time>
  </trkpt>
  <trkpt lat="33.181117" lon="-2.344805">
   <ele>1277.00</ele>
   <time>2014-04-05T15:48:32Z</time>
  </trkpt>
  <trkpt lat="33.181117" lon="-2.344805">
   <ele>1277.00</ele>
   <time>2014-04-05T15:48:47Z</time>
  </trkpt>
  <trkpt lat="33.181117" lon="-2.344806">
   <ele>1277.00</ele>
   <time>2014-04-05T15:49:03Z</time>
  </trkpt>
  <trkpt lat="33.181117" lon="-2.344803">
   <ele>1278.00</ele>
   <time>2014-04-05T15:49:18Z</time>
  </trkpt>
  <trkpt lat="33.181118" lon="-2.344802">
   <ele>1278.00</ele>
   <time>2014-04-05T15:49:33Z</time>
  </trkpt>
  <trkpt lat="33.181256" lon="-2.344989">
   <ele>1278.00</ele>
   <time>2014-04-05T15:49:47Z</time>
  </trkpt>
  <trkpt lat="33.181407" lon="-2.345180">
   <ele>1278.00</ele>
   <time>2014-04-05T15:49:50Z</time>
  </trkpt>
  <trkpt lat="33.181647" lon="-2.345488">
   <ele>1278.00</ele>
   <time>2014-04-05T15:49:54Z</time>
  </trkpt>
  <trkpt lat="33.181859" lon="-2.345789">
   <ele>1278.00</ele>
   <time>2014-04-05T15:49:57Z</time>
  </trkpt>
  <trkpt lat="33.182146" lon="-2.346232">
   <ele>1278.00</ele>
   <time>2014-04-05T15:50:01Z</time>
  </trkpt>
  <trkpt lat="33.182374" lon="-2.346622">
   <ele>1278.00</ele>
   <time>2014-04-05T15:50:04Z</time>
  </trkpt>
  <trkpt lat="33.183480" lon="-2.348711">
   <ele>1277.00</ele>
   <time>2014-04-05T15:50:17Z</time>
  </trkpt>
  <trkpt lat="33.184858" lon="-2.351343">
   <ele>1277.00</ele>
   <time>2014-04-05T15:50:32Z</time>
  </trkpt>
  <trkpt lat="33.186418" lon="-2.354322">
   <ele>1278.00</ele>
   <time>2014-04-05T15:50:48Z</time>
  </trkpt>
  <trkpt lat="33.186698" lon="-2.354889">
   <ele>1278.00</ele>
   <time>2014-04-05T15:50:51Z</time>
  </trkpt>
  <trkpt lat="33.186867" lon="-2.355279">
   <ele>1279.00</ele>
   <time>2014-04-05T15:50:53Z</time>
  </trkpt>
  <trkpt lat="33.187262" lon="-2.356289">
   <ele>1279.00</ele>
   <time>2014-04-05T15:50:58Z</time>
  </trkpt>
  <trkpt lat="33.187403" lon="-2.356704">
   <ele>1280.00</ele>
   <time>2014-04-05T15:51:00Z</time>
  </trkpt>
  <trkpt lat="33.187599" lon="-2.357341">
   <ele>1280.00</ele>
   <time>2014-04-05T15:51:03Z</time>
  </trkpt>
  <trkpt lat="33.187777" lon="-2.357998">
   <ele>1280.00</ele>
   <time>2014-04-05T15:51:06Z</time>
  </trkpt>
  <trkpt lat="33.187933" lon="-2.358666">
   <ele>1279.00</ele>
   <time>2014-04-05T15:51:09Z</time>
  </trkpt>
  <trkpt lat="33.188151" lon="-2.359797">
   <ele>1277.00</ele>
   <time>2014-04-05T15:51:14Z</time>
  </trkpt>
  <trkpt lat="33.188750" lon="-2.363192">
   <ele>1274.00</ele>
   <time>2014-04-05T15:51:29Z</time>
  </trkpt>
  <trkpt lat="33.189371" lon="-2.366492">
   <ele>1273.00</ele>
   <time>2014-04-05T15:51:44Z</time>
  </trkpt>
  <trkpt lat="33.190152" lon="-2.369984">
   <ele>1269.00</ele>
   <time>2014-04-05T15:52:00Z</time>
  </trkpt>
  <trkpt lat="33.190879" lon="-2.373257">
   <ele>1265.00</ele>
   <time>2014-04-05T15:52:15Z</time>
  </trkpt>
  <trkpt lat="33.191612" lon="-2.376558">
   <ele>1263.00</ele>
   <time>2014-04-05T15:52:30Z</time>
  </trkpt>
  <trkpt lat="33.192413" lon="-2.380151">
   <ele>1254.00</ele>
   <time>2014-04-05T15:52:46Z</time>
  </trkpt>
  <trkpt lat="33.193149" lon="-2.383467">
   <ele>1249.00</ele>
   <time>2014-04-05T15:53:01Z</time>
  </trkpt>
  <trkpt lat="33.193890" lon="-2.386790">
   <ele>1252.00</ele>
   <time>2014-04-05T15:53:16Z</time>
  </trkpt>
  <trkpt lat="33.194637" lon="-2.390158">
   <ele>1258.00</ele>
   <time>2014-04-05T15:53:31Z</time>
  </trkpt>
  <trkpt lat="33.195407" lon="-2.393608">
   <ele>1264.00</ele>
   <time>2014-04-05T15:53:46Z</time>
  </trkpt>
  <trkpt lat="33.196224" lon="-2.397227">
   <ele>1269.00</ele>
   <time>2014-04-05T15:54:02Z</time>
  </trkpt>
  <trkpt lat="33.196473" lon="-2.398282">
   <ele>1270.00</ele>
   <time>2014-04-05T15:54:07Z</time>
  </trkpt>
  <trkpt lat="33.196704" lon="-2.399137">
   <ele>1270.00</ele>
   <time>2014-04-05T15:54:11Z</time>
  </trkpt>
  <trkpt lat="33.197036" lon="-2.400223">
   <ele>1269.00</ele>
   <time>2014-04-05T15:54:16Z</time>
  </trkpt>
  <trkpt lat="33.198201" lon="-2.403551">
   <ele>1264.00</ele>
   <time>2014-04-05T15:54:31Z</time>
  </trkpt>
  <trkpt lat="33.199382" lon="-2.406842">
   <ele>1262.00</ele>
   <time>2014-04-05T15:54:46Z</time>
  </trkpt>
  <trkpt lat="33.199982" lon="-2.408538">
   <ele>1261.00</ele>
   <time>2014-04-05T15:54:54Z</time>
  </trkpt>
  <trkpt lat="33.201132" lon="-2.411860">
   <ele>1259.00</ele>
   <time>2014-04-05T15:55:09Z</time>
  </trkpt>
  <trkpt lat="33.202366" lon="-2.415379">
   <ele>1255.00</ele>
   <time>2014-04-05T15:55:24Z</time>
  </trkpt>
  <trkpt lat="33.203608" lon="-2.418912">
   <ele>1252.00</ele>
   <time>2014-04-05T15:55:39Z</time>
  </trkpt>
  <trkpt lat="33.204932" lon="-2.422701">
   <ele>1251.00</ele>
   <time>2014-04-05T15:55:55Z</time>
  </trkpt>
  <trkpt lat="33.206183" lon="-2.426275">
   <ele>1249.00</ele>
   <time>2014-04-05T15:56:10Z</time>
  </trkpt>
  <trkpt lat="33.207396" lon="-2.429729">
   <ele>1249.00</ele>
   <time>2014-04-05T15:56:25Z</time>
  </trkpt>
  <trkpt lat="33.208591" lon="-2.433139">
   <ele>1249.00</ele>
   <time>2014-04-05T15:56:40Z</time>
  </trkpt>
  <trkpt lat="33.209725" lon="-2.436327">
   <ele>1250.00</ele>
   <time>2014-04-05T15:56:54Z</time>
  </trkpt>
  <trkpt lat="33.210542" lon="-2.438281">
   <ele>1250.00</ele>
   <time>2014-04-05T15:57:03Z</time>
  </trkpt>
  <trkpt lat="33.211996" lon="-2.441412">
   <ele>1250.00</ele>
   <time>2014-04-05T15:57:18Z</time>
  </trkpt>
  <trkpt lat="33.213524" lon="-2.444689">
   <ele>1251.00</ele>
   <time>2014-04-05T15:57:34Z</time>
  </trkpt>
  <trkpt lat="33.214967" lon="-2.447811">
   <ele>1251.00</ele>
   <time>2014-04-05T15:57:49Z</time>
  </trkpt>
  <trkpt lat="33.216485" lon="-2.451086">
   <ele>1251.00</ele>
   <time>2014-04-05T15:58:04Z</time>
  </trkpt>
  <trkpt lat="33.217979" lon="-2.454313">
   <ele>1251.00</ele>
   <time>2014-04-05T15:58:19Z</time>
  </trkpt>
  <trkpt lat="33.219505" lon="-2.457611">
   <ele>1252.00</ele>
   <time>2014-04-05T15:58:35Z</time>
  </trkpt>
  <trkpt lat="33.219674" lon="-2.458018">
   <ele>1252.00</ele>
   <time>2014-04-05T15:58:37Z</time>
  </trkpt>
  <trkpt lat="33.219907" lon="-2.458641">
   <ele>1251.00</ele>
   <time>2014-04-05T15:58:40Z</time>
  </trkpt>
  <trkpt lat="33.220120" lon="-2.459280">
   <ele>1250.00</ele>
   <time>2014-04-05T15:58:43Z</time>
  </trkpt>
  <trkpt lat="33.220314" lon="-2.459947">
   <ele>1248.00</ele>
   <time>2014-04-05T15:58:46Z</time>
  </trkpt>
  <trkpt lat="33.220483" lon="-2.460653">
   <ele>1245.00</ele>
   <time>2014-04-05T15:58:49Z</time>
  </trkpt>
  <trkpt lat="33.221308" lon="-2.464744">
   <ele>1236.00</ele>
   <time>2014-04-05T15:59:05Z</time>
  </trkpt>
  <trkpt lat="33.222053" lon="-2.468474">
   <ele>1232.00</ele>
   <time>2014-04-05T15:59:20Z</time>
  </trkpt>
  <trkpt lat="33.222752" lon="-2.471922">
   <ele>1227.00</ele>
   <time>2014-04-05T15:59:36Z</time>
  </trkpt>
  <trkpt lat="33.223424" lon="-2.475265">
   <ele>1233.00</ele>
   <time>2014-04-05T15:59:51Z</time>
  </trkpt>
  <trkpt lat="33.224134" lon="-2.478807">
   <ele>1237.00</ele>
   <time>2014-04-05T16:00:06Z</time>
  </trkpt>
  <trkpt lat="33.224842" lon="-2.482322">
   <ele>1243.00</ele>
   <time>2014-04-05T16:00:21Z</time>
  </trkpt>
  <trkpt lat="33.225085" lon="-2.483446">
   <ele>1245.00</ele>
   <time>2014-04-05T16:00:26Z</time>
  </trkpt>
  <trkpt lat="33.225257" lon="-2.484113">
   <ele>1247.00</ele>
   <time>2014-04-05T16:00:29Z</time>
  </trkpt>
  <trkpt lat="33.225388" lon="-2.484557">
   <ele>1247.00</ele>
   <time>2014-04-05T16:00:31Z</time>
  </trkpt>
  <trkpt lat="33.225610" lon="-2.485221">
   <ele>1248.00</ele>
   <time>2014-04-05T16:00:34Z</time>
  </trkpt>
  <trkpt lat="33.226827" lon="-2.488618">
   <ele>1252.00</ele>
   <time>2014-04-05T16:00:49Z</time>
  </trkpt>
  <trkpt lat="33.228181" lon="-2.492365">
   <ele>1253.00</ele>
   <time>2014-04-05T16:01:05Z</time>
  </trkpt>
  <trkpt lat="33.229433" lon="-2.495848">
   <ele>1248.00</ele>
   <time>2014-04-05T16:01:20Z</time>
  </trkpt>
  <trkpt lat="33.230694" lon="-2.499344">
   <ele>1253.00</ele>
   <time>2014-04-05T16:01:35Z</time>
  </trkpt>
  <trkpt lat="33.231952" lon="-2.502870">
   <ele>1253.00</ele>
   <time>2014-04-05T16:01:50Z</time>
  </trkpt>
  <trkpt lat="33.233334" lon="-2.506719">
   <ele>1251.00</ele>
   <time>2014-04-05T16:02:06Z</time>
  </trkpt>
  <trkpt lat="33.234615" lon="-2.510286">
   <ele>1252.00</ele>
   <time>2014-04-05T16:02:21Z</time>
  </trkpt>
  <trkpt lat="33.235894" lon="-2.513848">
   <ele>1258.00</ele>
   <time>2014-04-05T16:02:36Z</time>
  </trkpt>
  <trkpt lat="33.237138" lon="-2.517313">
   <ele>1263.00</ele>
   <time>2014-04-05T16:02:51Z</time>
  </trkpt>
  <trkpt lat="33.238418" lon="-2.520868">
   <ele>1257.00</ele>
   <time>2014-04-05T16:03:07Z</time>
  </trkpt>
  <trkpt lat="33.239035" lon="-2.522658">
   <ele>1250.00</ele>
   <time>2014-04-05T16:03:15Z</time>
  </trkpt>
  <trkpt lat="33.239160" lon="-2.523107">
   <ele>1249.00</ele>
   <time>2014-04-05T16:03:17Z</time>
  </trkpt>
  <trkpt lat="33.239322" lon="-2.523782">
   <ele>1246.00</ele>
   <time>2014-04-05T16:03:20Z</time>
  </trkpt>
  <trkpt lat="33.240055" lon="-2.527142">
   <ele>1242.00</ele>
   <time>2014-04-05T16:03:35Z</time>
  </trkpt>
  <trkpt lat="33.240853" lon="-2.530784">
   <ele>1247.00</ele>
   <time>2014-04-05T16:03:51Z</time>
  </trkpt>
  <trkpt lat="33.241618" lon="-2.534287">
   <ele>1253.00</ele>
   <time>2014-04-05T16:04:06Z</time>
  </trkpt>
  <trkpt lat="33.242384" lon="-2.537781">
   <ele>1259.00</ele>
   <time>2014-04-05T16:04:21Z</time>
  </trkpt>
  <trkpt lat="33.243143" lon="-2.541230">
   <ele>1268.00</ele>
   <time>2014-04-05T16:04:36Z</time>
  </trkpt>
  <trkpt lat="33.243970" lon="-2.545009">
   <ele>1274.00</ele>
   <time>2014-04-05T16:04:52Z</time>
  </trkpt>
  <trkpt lat="33.244767" lon="-2.548642">
   <ele>1279.00</ele>
   <time>2014-04-05T16:05:07Z</time>
  </trkpt>
  <trkpt lat="33.245558" lon="-2.552286">
   <ele>1287.00</ele>
   <time>2014-04-05T16:05:22Z</time>
  </trkpt>
  <trkpt lat="33.246367" lon="-2.555931">
   <ele>1296.00</ele>
   <time>2014-04-05T16:05:37Z</time>
  </trkpt>
  <trkpt lat="33.247109" lon="-2.559276">
   <ele>1303.00</ele>
   <time>2014-04-05T16:05:51Z</time>
  </trkpt>
  <trkpt lat="33.247296" lon="-2.559967">
   <ele>1303.00</ele>
   <time>2014-04-05T16:05:54Z</time>
  </trkpt>
  <trkpt lat="33.248349" lon="-2.563481">
   <ele>1293.00</ele>
   <time>2014-04-05T16:06:09Z</time>
  </trkpt>
  <trkpt lat="33.249373" lon="-2.566819">
   <ele>1286.00</ele>
   <time>2014-04-05T16:06:24Z</time>
  </trkpt>
  <trkpt lat="33.249960" lon="-2.568727">
   <ele>1283.00</ele>
   <time>2014-04-05T16:06:33Z</time>
  </trkpt>
  <trkpt lat="33.250972" lon="-2.572120">
   <ele>1281.00</ele>
   <time>2014-04-05T16:06:48Z</time>
  </trkpt>
  <trkpt lat="33.252041" lon="-2.575633">
   <ele>1277.00</ele>
   <time>2014-04-05T16:07:03Z</time>
  </trkpt>
  <trkpt lat="33.253213" lon="-2.579519">
   <ele>1270.00</ele>
   <time>2014-04-05T16:07:19Z</time>
  </trkpt>
  <trkpt lat="33.254307" lon="-2.583123">
   <ele>1269.00</ele>
   <time>2014-04-05T16:07:34Z</time>
  </trkpt>
  <trkpt lat="33.255337" lon="-2.586533">
   <ele>1271.00</ele>
   <time>2014-04-05T16:07:49Z</time>
  </trkpt>
  <trkpt lat="33.256220" lon="-2.589413">
   <ele>1270.00</ele>
   <time>2014-04-05T16:08:01Z</time>
  </trkpt>
  <trkpt lat="33.257017" lon="-2.591557">
   <ele>1268.00</ele>
   <time>2014-04-05T16:08:10Z</time>
  </trkpt>
  <trkpt lat="33.258369" lon="-2.595076">
   <ele>1267.00</ele>
   <time>2014-04-05T16:08:25Z</time>
  </trkpt>
  <trkpt lat="33.259681" lon="-2.598508">
   <ele>1262.00</ele>
   <time>2014-04-05T16:08:40Z</time>
  </trkpt>
  <trkpt lat="33.261044" lon="-2.602098">
   <ele>1258.00</ele>
   <time>2014-04-05T16:08:56Z</time>
  </trkpt>
  <trkpt lat="33.262262" lon="-2.605291">
   <ele>1257.00</ele>
   <time>2014-04-05T16:09:11Z</time>
  </trkpt>
  <trkpt lat="33.263440" lon="-2.608392">
   <ele>1258.00</ele>
   <time>2014-04-05T16:09:26Z</time>
  </trkpt>
  <trkpt lat="33.264210" lon="-2.610402">
   <ele>1259.00</ele>
   <time>2014-04-05T16:09:42Z</time>
  </trkpt>
  <trkpt lat="33.264425" lon="-2.610966">
   <ele>1259.00</ele>
   <time>2014-04-05T16:09:57Z</time>
  </trkpt>
  <trkpt lat="33.264935" lon="-2.612318">
   <ele>1259.00</ele>
   <time>2014-04-05T16:10:12Z</time>
  </trkpt>
  <trkpt lat="33.265906" lon="-2.614853">
   <ele>1259.00</ele>
   <time>2014-04-05T16:10:28Z</time>
  </trkpt>
  <trkpt lat="33.266395" lon="-2.616194">
   <ele>1260.00</ele>
   <time>2014-04-05T16:10:35Z</time>
  </trkpt>
  <trkpt lat="33.266582" lon="-2.616794">
   <ele>1261.00</ele>
   <time>2014-04-05T16:10:38Z</time>
  </trkpt>
  <trkpt lat="33.266753" lon="-2.617419">
   <ele>1261.00</ele>
   <time>2014-04-05T16:10:41Z</time>
  </trkpt>
  <trkpt lat="33.266856" lon="-2.617847">
   <ele>1262.00</ele>
   <time>2014-04-05T16:10:43Z</time>
  </trkpt>
  <trkpt lat="33.266988" lon="-2.618503">
   <ele>1262.00</ele>
   <time>2014-04-05T16:10:46Z</time>
  </trkpt>
  <trkpt lat="33.267134" lon="-2.619408">
   <ele>1263.00</ele>
   <time>2014-04-05T16:10:50Z</time>
  </trkpt>
  <trkpt lat="33.267210" lon="-2.620101">
   <ele>1263.00</ele>
   <time>2014-04-05T16:10:53Z</time>
  </trkpt>
  <trkpt lat="33.267259" lon="-2.620794">
   <ele>1264.00</ele>
   <time>2014-04-05T16:10:56Z</time>
  </trkpt>
  <trkpt lat="33.267287" lon="-2.621490">
   <ele>1265.00</ele>
   <time>2014-04-05T16:10:59Z</time>
  </trkpt>
  <trkpt lat="33.267286" lon="-2.621957">
   <ele>1265.00</ele>
   <time>2014-04-05T16:11:01Z</time>
  </trkpt>
  <trkpt lat="33.267259" lon="-2.622667">
   <ele>1266.00</ele>
   <time>2014-04-05T16:11:04Z</time>
  </trkpt>
  <trkpt lat="33.267223" lon="-2.623148">
   <ele>1266.00</ele>
   <time>2014-04-05T16:11:06Z</time>
  </trkpt>
  <trkpt lat="33.266840" lon="-2.627112">
   <ele>1272.00</ele>
   <time>2014-04-05T16:11:22Z</time>
  </trkpt>
  <trkpt lat="33.266546" lon="-2.630450">
   <ele>1278.00</ele>
   <time>2014-04-05T16:11:36Z</time>
  </trkpt>
  <trkpt lat="33.266525" lon="-2.631127">
   <ele>1279.00</ele>
   <time>2014-04-05T16:11:39Z</time>
  </trkpt>
  <trkpt lat="33.266528" lon="-2.631579">
   <ele>1279.00</ele>
   <time>2014-04-05T16:11:41Z</time>
  </trkpt>
  <trkpt lat="33.266557" lon="-2.632265">
   <ele>1279.00</ele>
   <time>2014-04-05T16:11:44Z</time>
  </trkpt>
  <trkpt lat="33.266595" lon="-2.632726">
   <ele>1278.00</ele>
   <time>2014-04-05T16:11:46Z</time>
  </trkpt>
  <trkpt lat="33.266650" lon="-2.633190">
   <ele>1278.00</ele>
   <time>2014-04-05T16:11:48Z</time>
  </trkpt>
  <trkpt lat="33.267130" lon="-2.636657">
   <ele>1274.00</ele>
   <time>2014-04-05T16:12:03Z</time>
  </trkpt>
  <trkpt lat="33.267640" lon="-2.640357">
   <ele>1272.00</ele>
   <time>2014-04-05T16:12:19Z</time>
  </trkpt>
  <trkpt lat="33.268118" lon="-2.643867">
   <ele>1272.00</ele>
   <time>2014-04-05T16:12:34Z</time>
  </trkpt>
  <trkpt lat="33.268632" lon="-2.647591">
   <ele>1273.00</ele>
   <time>2014-04-05T16:12:50Z</time>
  </trkpt>
  <trkpt lat="33.269105" lon="-2.651094">
   <ele>1272.00</ele>
   <time>2014-04-05T16:13:05Z</time>
  </trkpt>
  <trkpt lat="33.269584" lon="-2.654626">
   <ele>1271.00</ele>
   <time>2014-04-05T16:13:20Z</time>
  </trkpt>
  <trkpt lat="33.270082" lon="-2.658235">
   <ele>1268.00</ele>
   <time>2014-04-05T16:13:35Z</time>
  </trkpt>
  <trkpt lat="33.270596" lon="-2.662079">
   <ele>1269.00</ele>
   <time>2014-04-05T16:13:51Z</time>
  </trkpt>
  <trkpt lat="33.270643" lon="-2.662556">
   <ele>1269.00</ele>
   <time>2014-04-05T16:13:53Z</time>
  </trkpt>
  <trkpt lat="33.270688" lon="-2.663282">
   <ele>1269.00</ele>
   <time>2014-04-05T16:13:56Z</time>
  </trkpt>
  <trkpt lat="33.270702" lon="-2.663769">
   <ele>1269.00</ele>
   <time>2014-04-05T16:13:58Z</time>
  </trkpt>
  <trkpt lat="33.270698" lon="-2.664261">
   <ele>1269.00</ele>
   <time>2014-04-05T16:14:00Z</time>
  </trkpt>
  <trkpt lat="33.270664" lon="-2.665002">
   <ele>1268.00</ele>
   <time>2014-04-05T16:14:03Z</time>
  </trkpt>
  <trkpt lat="33.270626" lon="-2.665500">
   <ele>1268.00</ele>
   <time>2014-04-05T16:14:05Z</time>
  </trkpt>
  <trkpt lat="33.270569" lon="-2.665997">
   <ele>1268.00</ele>
   <time>2014-04-05T16:14:07Z</time>
  </trkpt>
  <trkpt lat="33.270454" lon="-2.666738">
   <ele>1268.00</ele>
   <time>2014-04-05T16:14:10Z</time>
  </trkpt>
  <trkpt lat="33.270312" lon="-2.667469">
   <ele>1267.00</ele>
   <time>2014-04-05T16:14:13Z</time>
  </trkpt>
  <trkpt lat="33.270195" lon="-2.667952">
   <ele>1267.00</ele>
   <time>2014-04-05T16:14:15Z</time>
  </trkpt>
  <trkpt lat="33.269240" lon="-2.671533">
   <ele>1266.00</ele>
   <time>2014-04-05T16:14:30Z</time>
  </trkpt>
  <trkpt lat="33.268232" lon="-2.675328">
   <ele>1263.00</ele>
   <time>2014-04-05T16:14:46Z</time>
  </trkpt>
  <trkpt lat="33.267313" lon="-2.678806">
   <ele>1266.00</ele>
   <time>2014-04-05T16:15:01Z</time>
  </trkpt>
  <trkpt lat="33.266435" lon="-2.682126">
   <ele>1268.00</ele>
   <time>2014-04-05T16:15:16Z</time>
  </trkpt>
  <trkpt lat="33.265498" lon="-2.685657">
   <ele>1270.00</ele>
   <time>2014-04-05T16:15:32Z</time>
  </trkpt>
  <trkpt lat="33.264644" lon="-2.688892">
   <ele>1272.00</ele>
   <time>2014-04-05T16:15:47Z</time>
  </trkpt>
  <trkpt lat="33.263930" lon="-2.691628">
   <ele>1273.00</ele>
   <time>2014-04-05T16:16:01Z</time>
  </trkpt>
  <trkpt lat="33.263870" lon="-2.692000">
   <ele>1273.00</ele>
   <time>2014-04-05T16:16:03Z</time>
  </trkpt>
  <trkpt lat="33.263842" lon="-2.692371">
   <ele>1273.00</ele>
   <time>2014-04-05T16:16:05Z</time>
  </trkpt>
  <trkpt lat="33.263849" lon="-2.692739">
   <ele>1272.00</ele>
   <time>2014-04-05T16:16:07Z</time>
  </trkpt>
  <trkpt lat="33.263887" lon="-2.693099">
   <ele>1272.00</ele>
   <time>2014-04-05T16:16:09Z</time>
  </trkpt>
  <trkpt lat="33.263948" lon="-2.693453">
   <ele>1272.00</ele>
   <time>2014-04-05T16:16:11Z</time>
  </trkpt>
  <trkpt lat="33.264085" lon="-2.694139">
   <ele>1272.00</ele>
   <time>2014-04-05T16:16:15Z</time>
  </trkpt>
  <trkpt lat="33.264166" lon="-2.694459">
   <ele>1272.00</ele>
   <time>2014-04-05T16:16:17Z</time>
  </trkpt>
  <trkpt lat="33.264265" lon="-2.694748">
   <ele>1272.00</ele>
   <time>2014-04-05T16:16:19Z</time>
  </trkpt>
  <trkpt lat="33.264396" lon="-2.694989">
   <ele>1272.00</ele>
   <time>2014-04-05T16:16:21Z</time>
  </trkpt>
  <trkpt lat="33.264560" lon="-2.695190">
   <ele>1271.00</ele>
   <time>2014-04-05T16:16:23Z</time>
  </trkpt>
  <trkpt lat="33.264747" lon="-2.695364">
   <ele>1270.00</ele>
   <time>2014-04-05T16:16:25Z</time>
  </trkpt>
  <trkpt lat="33.264959" lon="-2.695495">
   <ele>1269.00</ele>
   <time>2014-04-05T16:16:27Z</time>
  </trkpt>
  <trkpt lat="33.265182" lon="-2.695596">
   <ele>1268.00</ele>
   <time>2014-04-05T16:16:29Z</time>
  </trkpt>
  <trkpt lat="33.265412" lon="-2.695674">
   <ele>1267.00</ele>
   <time>2014-04-05T16:16:31Z</time>
  </trkpt>
  <trkpt lat="33.265647" lon="-2.695699">
   <ele>1266.00</ele>
   <time>2014-04-05T16:16:33Z</time>
  </trkpt>
  <trkpt lat="33.265877" lon="-2.695676">
   <ele>1266.00</ele>
   <time>2014-04-05T16:16:35Z</time>
  </trkpt>
  <trkpt lat="33.266224" lon="-2.695641">
   <ele>1264.00</ele>
   <time>2014-04-05T16:16:38Z</time>
  </trkpt>
  <trkpt lat="33.266457" lon="-2.695651">
   <ele>1263.00</ele>
   <time>2014-04-05T16:16:40Z</time>
  </trkpt>
  <trkpt lat="33.266687" lon="-2.695703">
   <ele>1262.00</ele>
   <time>2014-04-05T16:16:42Z</time>
  </trkpt>
  <trkpt lat="33.266908" lon="-2.695798">
   <ele>1261.00</ele>
   <time>2014-04-05T16:16:44Z</time>
  </trkpt>
  <trkpt lat="33.267116" lon="-2.695933">
   <ele>1260.00</ele>
   <time>2014-04-05T16:16:46Z</time>
  </trkpt>
  <trkpt lat="33.267311" lon="-2.696091">
   <ele>1259.00</ele>
   <time>2014-04-05T16:16:48Z</time>
  </trkpt>
  <trkpt lat="33.268497" lon="-2.697044">
   <ele>1263.00</ele>
   <time>2014-04-05T16:17:03Z</time>
  </trkpt>
  <trkpt lat="33.268950" lon="-2.697385">
   <ele>1264.00</ele>
   <time>2014-04-05T16:17:09Z</time>
  </trkpt>
  <trkpt lat="33.269164" lon="-2.697543">
   <ele>1265.00</ele>
   <time>2014-04-05T16:17:12Z</time>
  </trkpt>
  <trkpt lat="33.269873" lon="-2.698078">
   <ele>1266.00</ele>
   <time>2014-04-05T16:17:24Z</time>
  </trkpt>
  <trkpt lat="33.270869" lon="-2.698778">
   <ele>1266.00</ele>
   <time>2014-04-05T16:17:40Z</time>
  </trkpt>
  <trkpt lat="33.271600" lon="-2.699281">
   <ele>1266.00</ele>
   <time>2014-04-05T16:17:50Z</time>
  </trkpt>
  <trkpt lat="33.272206" lon="-2.699668">
   <ele>1266.00</ele>
   <time>2014-04-05T16:18:00Z</time>
  </trkpt>
  <trkpt lat="33.272165" lon="-2.699860">
   <ele>1266.00</ele>
   <time>2014-04-05T16:18:06Z</time>
  </trkpt>
  <trkpt lat="33.271966" lon="-2.699820">
   <ele>1265.00</ele>
   <time>2014-04-05T16:18:12Z</time>
  </trkpt>
  <trkpt lat="33.271809" lon="-2.699706">
   <ele>1263.00</ele>
   <time>2014-04-05T16:18:16Z</time>
  </trkpt>
  <trkpt lat="33.271628" lon="-2.699628">
   <ele>1263.00</ele>
   <time>2014-04-05T16:18:20Z</time>
  </trkpt>
  <trkpt lat="33.271430" lon="-2.699625">
   <ele>1263.00</ele>
   <time>2014-04-05T16:18:24Z</time>
  </trkpt>
  <trkpt lat="33.271219" lon="-2.699663">
   <ele>1263.00</ele>
   <time>2014-04-05T16:18:28Z</time>
  </trkpt>
  <trkpt lat="33.270996" lon="-2.699745">
   <ele>1263.00</ele>
   <time>2014-04-05T16:18:32Z</time>
  </trkpt>
  <trkpt lat="33.270071" lon="-2.700098">
   <ele>1264.00</ele>
   <time>2014-04-05T16:18:47Z</time>
  </trkpt>
  <trkpt lat="33.269895" lon="-2.700206">
   <ele>1264.00</ele>
   <time>2014-04-05T16:18:50Z</time>
  </trkpt>
  <trkpt lat="33.269730" lon="-2.700327">
   <ele>1265.00</ele>
   <time>2014-04-05T16:18:53Z</time>
  </trkpt>
  <trkpt lat="33.269555" lon="-2.700413">
   <ele>1265.00</ele>
   <time>2014-04-05T16:18:56Z</time>
  </trkpt>
  <trkpt lat="33.269372" lon="-2.700453">
   <ele>1265.00</ele>
   <time>2014-04-05T16:18:59Z</time>
  </trkpt>
  <trkpt lat="33.269189" lon="-2.700442">
   <ele>1265.00</ele>
   <time>2014-04-05T16:19:02Z</time>
  </trkpt>
  <trkpt lat="33.268967" lon="-2.700353">
   <ele>1265.00</ele>
   <time>2014-04-05T16:19:06Z</time>
  </trkpt>
  <trkpt lat="33.268751" lon="-2.700279">
   <ele>1264.00</ele>
   <time>2014-04-05T16:19:10Z</time>
  </trkpt>
  <trkpt lat="33.268572" lon="-2.700151">
   <ele>1263.00</ele>
   <time>2014-04-05T16:19:14Z</time>
  </trkpt>
  <trkpt lat="33.268418" lon="-2.699997">
   <ele>1263.00</ele>
   <time>2014-04-05T16:19:18Z</time>
  </trkpt>
  <trkpt lat="33.268207" lon="-2.699960">
   <ele>1263.00</ele>
   <time>2014-04-05T16:19:22Z</time>
  </trkpt>
  <trkpt lat="33.267984" lon="-2.699998">
   <ele>1263.00</ele>
   <time>2014-04-05T16:19:26Z</time>
  </trkpt>
  <trkpt lat="33.267759" lon="-2.700012">
   <ele>1263.00</ele>
   <time>2014-04-05T16:19:30Z</time>
  </trkpt>
  <trkpt lat="33.267530" lon="-2.700039">
   <ele>1263.00</ele>
   <time>2014-04-05T16:19:34Z</time>
  </trkpt>
  <trkpt lat="33.267317" lon="-2.700070">
   <ele>1264.00</ele>
   <time>2014-04-05T16:19:38Z</time>
  </trkpt>
  <trkpt lat="33.267115" lon="-2.700034">
   <ele>1264.00</ele>
   <time>2014-04-05T16:19:42Z</time>
  </trkpt>
  <trkpt lat="33.266927" lon="-2.699971">
   <ele>1264.00</ele>
   <time>2014-04-05T16:19:46Z</time>
  </trkpt>
  <trkpt lat="33.266745" lon="-2.699969">
   <ele>1264.00</ele>
   <time>2014-04-05T16:19:50Z</time>
  </trkpt>
  <trkpt lat="33.266570" lon="-2.700021">
   <ele>1264.00</ele>
   <time>2014-04-05T16:19:54Z</time>
  </trkpt>
  <trkpt lat="33.266360" lon="-2.700091">
   <ele>1265.00</ele>
   <time>2014-04-05T16:19:59Z</time>
  </trkpt>
  <trkpt lat="33.266169" lon="-2.700134">
   <ele>1265.00</ele>
   <time>2014-04-05T16:20:05Z</time>
  </trkpt>
  <trkpt lat="33.265980" lon="-2.700149">
   <ele>1265.00</ele>
   <time>2014-04-05T16:20:11Z</time>
  </trkpt>
  <trkpt lat="33.265797" lon="-2.700217">
   <ele>1265.00</ele>
   <time>2014-04-05T16:20:18Z</time>
  </trkpt>
  <trkpt lat="33.265696" lon="-2.700212">
   <ele>1265.00</ele>
   <time>2014-04-05T16:20:34Z</time>
  </trkpt>
  <trkpt lat="33.265502" lon="-2.700268">
   <ele>1264.00</ele>
   <time>2014-04-05T16:20:46Z</time>
  </trkpt>
  <trkpt lat="33.265336" lon="-2.700386">
   <ele>1262.00</ele>
   <time>2014-04-05T16:20:54Z</time>
  </trkpt>
  <trkpt lat="33.265399" lon="-2.700485">
   <ele>1262.00</ele>
   <time>2014-04-05T16:21:04Z</time>
  </trkpt>
  <trkpt lat="33.265497" lon="-2.700300">
   <ele>1262.00</ele>
   <time>2014-04-05T16:21:11Z</time>
  </trkpt>
  <trkpt lat="33.265669" lon="-2.700207">
   <ele>1263.00</ele>
   <time>2014-04-05T16:21:17Z</time>
  </trkpt>
  <trkpt lat="33.265858" lon="-2.700188">
   <ele>1265.00</ele>
   <time>2014-04-05T16:21:22Z</time>
  </trkpt>
  <trkpt lat="33.266069" lon="-2.700136">
   <ele>1265.00</ele>
   <time>2014-04-05T16:21:27Z</time>
  </trkpt>
  <trkpt lat="33.266262" lon="-2.700126">
   <ele>1265.00</ele>
   <time>2014-04-05T16:21:31Z</time>
  </trkpt>
  <trkpt lat="33.266447" lon="-2.700072">
   <ele>1265.00</ele>
   <time>2014-04-05T16:21:35Z</time>
  </trkpt>
  <trkpt lat="33.266656" lon="-2.699987">
   <ele>1265.00</ele>
   <time>2014-04-05T16:21:40Z</time>
  </trkpt>
  <trkpt lat="33.266799" lon="-2.699924">
   <ele>1265.00</ele>
   <time>2014-04-05T16:21:45Z</time>
  </trkpt>
 </trkseg>
 <trkseg>
  <trkpt lat="33.267045" lon="-2.699984">
   <ele>1268.00</ele>
   <time>2014-04-05T16:23:50Z</time>
  </trkpt>
  <trkpt lat="33.267230" lon="-2.700058">
   <ele>1267.00</ele>
   <time>2014-04-05T16:23:55Z</time>
  </trkpt>
  <trkpt lat="33.267419" lon="-2.700070">
   <ele>1267.00</ele>
   <time>2014-04-05T16:23:59Z</time>
  </trkpt>
  <trkpt lat="33.267624" lon="-2.700035">
   <ele>1267.00</ele>
   <time>2014-04-05T16:24:03Z</time>
  </trkpt>
  <trkpt lat="33.267841" lon="-2.700013">
   <ele>1267.00</ele>
   <time>2014-04-05T16:24:07Z</time>
  </trkpt>
  <trkpt lat="33.268051" lon="-2.700004">
   <ele>1266.00</ele>
   <time>2014-04-05T16:24:11Z</time>
  </trkpt>
  <trkpt lat="33.268268" lon="-2.699963">
   <ele>1266.00</ele>
   <time>2014-04-05T16:24:15Z</time>
  </trkpt>
  <trkpt lat="33.268451" lon="-2.699983">
   <ele>1266.00</ele>
   <time>2014-04-05T16:24:18Z</time>
  </trkpt>
  <trkpt lat="33.268641" lon="-2.700025">
   <ele>1265.00</ele>
   <time>2014-04-05T16:24:21Z</time>
  </trkpt>
  <trkpt lat="33.268838" lon="-2.700035">
   <ele>1265.00</ele>
   <time>2014-04-05T16:24:24Z</time>
  </trkpt>
  <trkpt lat="33.269397" lon="-2.699995">
   <ele>1266.00</ele>
   <time>2014-04-05T16:24:32Z</time>
  </trkpt>
  <trkpt lat="33.269609" lon="-2.699941">
   <ele>1266.00</ele>
   <time>2014-04-05T16:24:35Z</time>
  </trkpt>
  <trkpt lat="33.269808" lon="-2.699859">
   <ele>1266.00</ele>
   <time>2014-04-05T16:24:38Z</time>
  </trkpt>
  <trkpt lat="33.270001" lon="-2.699807">
   <ele>1266.00</ele>
   <time>2014-04-05T16:24:41Z</time>
  </trkpt>
  <trkpt lat="33.270196" lon="-2.699769">
   <ele>1266.00</ele>
   <time>2014-04-05T16:24:44Z</time>
  </trkpt>
  <trkpt lat="33.270390" lon="-2.699701">
   <ele>1266.00</ele>
   <time>2014-04-05T16:24:47Z</time>
  </trkpt>
  <trkpt lat="33.270581" lon="-2.699623">
   <ele>1266.00</ele>
   <time>2014-04-05T16:24:50Z</time>
  </trkpt>
  <trkpt lat="33.270772" lon="-2.699575">
   <ele>1266.00</ele>
   <time>2014-04-05T16:24:53Z</time>
  </trkpt>
  <trkpt lat="33.270968" lon="-2.699575">
   <ele>1265.00</ele>
   <time>2014-04-05T16:24:56Z</time>
  </trkpt>
  <trkpt lat="33.271307" lon="-2.699619">
   <ele>1266.00</ele>
   <time>2014-04-05T16:25:01Z</time>
  </trkpt>
  <trkpt lat="33.271508" lon="-2.699615">
   <ele>1266.00</ele>
   <time>2014-04-05T16:25:04Z</time>
  </trkpt>
  <trkpt lat="33.271709" lon="-2.699610">
   <ele>1266.00</ele>
   <time>2014-04-05T16:25:07Z</time>
  </trkpt>
  <trkpt lat="33.271911" lon="-2.699620">
   <ele>1266.00</ele>
   <time>2014-04-05T16:25:10Z</time>
  </trkpt>
  <trkpt lat="33.272094" lon="-2.699677">
   <ele>1267.00</ele>
   <time>2014-04-05T16:25:13Z</time>
  </trkpt>
  <trkpt lat="33.272500" lon="-2.699866">
   <ele>1268.00</ele>
   <time>2014-04-05T16:25:21Z</time>
  </trkpt>
  <trkpt lat="33.272677" lon="-2.699975">
   <ele>1268.00</ele>
   <time>2014-04-05T16:25:24Z</time>
  </trkpt>
  <trkpt lat="33.273225" lon="-2.700353">
   <ele>1267.00</ele>
   <time>2014-04-05T16:25:32Z</time>
  </trkpt>
  <trkpt lat="33.273431" lon="-2.700399">
   <ele>1267.00</ele>
   <time>2014-04-05T16:25:35Z</time>
  </trkpt>
  <trkpt lat="33.273670" lon="-2.700369">
   <ele>1266.00</ele>
   <time>2014-04-05T16:25:38Z</time>
  </trkpt>
  <trkpt lat="33.273905" lon="-2.700292">
   <ele>1265.00</ele>
   <time>2014-04-05T16:25:41Z</time>
  </trkpt>
  <trkpt lat="33.274128" lon="-2.700184">
   <ele>1264.00</ele>
   <time>2014-04-05T16:25:44Z</time>
  </trkpt>
  <trkpt lat="33.274362" lon="-2.700066">
   <ele>1264.00</ele>
   <time>2014-04-05T16:25:47Z</time>
  </trkpt>
  <trkpt lat="33.274607" lon="-2.699971">
   <ele>1264.00</ele>
   <time>2014-04-05T16:25:50Z</time>
  </trkpt>
  <trkpt lat="33.274846" lon="-2.699894">
   <ele>1264.00</ele>
   <time>2014-04-05T16:25:53Z</time>
  </trkpt>
  <trkpt lat="33.275075" lon="-2.699842">
   <ele>1263.00</ele>
   <time>2014-04-05T16:25:56Z</time>
  </trkpt>
  <trkpt lat="33.275313" lon="-2.699810">
   <ele>1263.00</ele>
   <time>2014-04-05T16:25:59Z</time>
  </trkpt>
  <trkpt lat="33.275546" lon="-2.699816">
   <ele>1262.00</ele>
   <time>2014-04-05T16:26:02Z</time>
  </trkpt>
  <trkpt lat="33.275768" lon="-2.699826">
   <ele>1262.00</ele>
   <time>2014-04-05T16:26:05Z</time>
  </trkpt>
  <trkpt lat="33.275983" lon="-2.699793">
   <ele>1263.00</ele>
   <time>2014-04-05T16:26:08Z</time>
  </trkpt>
  <trkpt lat="33.276195" lon="-2.699735">
   <ele>1264.00</ele>
   <time>2014-04-05T16:26:12Z</time>
  </trkpt>
  <trkpt lat="33.276163" lon="-2.699948">
   <ele>1264.00</ele>
   <time>2014-04-05T16:26:17Z</time>
  </trkpt>
  <trkpt lat="33.276127" lon="-2.700199">
   <ele>1263.00</ele>
   <time>2014-04-05T16:26:21Z</time>
  </trkpt>
  <trkpt lat="33.276098" lon="-2.700444">
   <ele>1263.00</ele>
   <time>2014-04-05T16:26:25Z</time>
  </trkpt>
  <trkpt lat="33.276065" lon="-2.700656">
   <ele>1264.00</ele>
   <time>2014-04-05T16:26:29Z</time>
  </trkpt>
  <trkpt lat="33.276239" lon="-2.700744">
   <ele>1264.00</ele>
   <time>2014-04-05T16:26:34Z</time>
  </trkpt>
  <trkpt lat="33.276466" lon="-2.700720">
   <ele>1263.00</ele>
   <time>2014-04-05T16:26:39Z</time>
  </trkpt>
  <trkpt lat="33.276679" lon="-2.700640">
   <ele>1261.00</ele>
   <time>2014-04-05T16:26:43Z</time>
  </trkpt>
  <trkpt lat="33.276883" lon="-2.700591">
   <ele>1261.00</ele>
   <time>2014-04-05T16:26:47Z</time>
  </trkpt>
  <trkpt lat="33.277076" lon="-2.700537">
   <ele>1261.00</ele>
   <time>2014-04-05T16:26:51Z</time>
  </trkpt>
  <trkpt lat="33.277245" lon="-2.700595">
   <ele>1260.00</ele>
   <time>2014-04-05T16:26:58Z</time>
  </trkpt>
  <trkpt lat="33.277462" lon="-2.700611">
   <ele>1258.00</ele>
   <time>2014-04-05T16:27:03Z</time>
  </trkpt>
  <trkpt lat="33.278360" lon="-2.700660">
   <ele>1259.00</ele>
   <time>2014-04-05T16:27:16Z</time>
  </trkpt>
  <trkpt lat="33.278584" lon="-2.700737">
   <ele>1259.00</ele>
   <time>2014-04-05T16:27:19Z</time>
  </trkpt>
  <trkpt lat="33.278773" lon="-2.700954">
   <ele>1260.00</ele>
   <time>2014-04-05T16:27:22Z</time>
  </trkpt>
  <trkpt lat="33.279428" lon="-2.701879">
   <ele>1263.00</ele>
   <time>2014-04-05T16:27:32Z</time>
  </trkpt>
  <trkpt lat="33.280008" lon="-2.702721">
   <ele>1265.00</ele>
   <time>2014-04-05T16:27:41Z</time>
  </trkpt>
  <trkpt lat="33.280244" lon="-2.702870">
   <ele>1266.00</ele>
   <time>2014-04-05T16:27:44Z</time>
  </trkpt>
  <trkpt lat="33.280439" lon="-2.702904">
   <ele>1266.00</ele>
   <time>2014-04-05T16:27:46Z</time>
  </trkpt>
  <trkpt lat="33.281100" lon="-2.703018">
   <ele>1268.00</ele>
   <time>2014-04-05T16:27:52Z</time>
  </trkpt>
  <trkpt lat="33.281571" lon="-2.703131">
   <ele>1269.00</ele>
   <time>2014-04-05T16:27:56Z</time>
  </trkpt>
  <trkpt lat="33.281928" lon="-2.703239">
   <ele>1270.00</ele>
   <time>2014-04-05T16:27:59Z</time>
  </trkpt>
  <trkpt lat="33.282162" lon="-2.703343">
   <ele>1271.00</ele>
   <time>2014-04-05T16:28:01Z</time>
  </trkpt>
  <trkpt lat="33.282402" lon="-2.703467">
   <ele>1272.00</ele>
   <time>2014-04-05T16:28:03Z</time>
  </trkpt>
  <trkpt lat="33.282635" lon="-2.703609">
   <ele>1272.00</ele>
   <time>2014-04-05T16:28:05Z</time>
  </trkpt>
  <trkpt lat="33.282856" lon="-2.703764">
   <ele>1273.00</ele>
   <time>2014-04-05T16:28:07Z</time>
  </trkpt>
  <trkpt lat="33.283068" lon="-2.703933">
   <ele>1273.00</ele>
   <time>2014-04-05T16:28:09Z</time>
  </trkpt>
  <trkpt lat="33.283274" lon="-2.704113">
   <ele>1274.00</ele>
   <time>2014-04-05T16:28:11Z</time>
  </trkpt>
  <trkpt lat="33.283476" lon="-2.704309">
   <ele>1274.00</ele>
   <time>2014-04-05T16:28:13Z</time>
  </trkpt>
  <trkpt lat="33.283676" lon="-2.704525">
   <ele>1274.00</ele>
   <time>2014-04-05T16:28:15Z</time>
  </trkpt>
  <trkpt lat="33.283867" lon="-2.704760">
   <ele>1274.00</ele>
   <time>2014-04-05T16:28:17Z</time>
  </trkpt>
  <trkpt lat="33.284691" lon="-2.705887">
   <ele>1274.00</ele>
   <time>2014-04-05T16:28:26Z</time>
  </trkpt>
  <trkpt lat="33.286122" lon="-2.707873">
   <ele>1274.00</ele>
   <time>2014-04-05T16:28:41Z</time>
  </trkpt>
  <trkpt lat="33.287550" lon="-2.709855">
   <ele>1274.00</ele>
   <time>2014-04-05T16:28:56Z</time>
  </trkpt>
  <trkpt lat="33.289116" lon="-2.712013">
   <ele>1275.00</ele>
   <time>2014-04-05T16:29:12Z</time>
  </trkpt>
  <trkpt lat="33.290643" lon="-2.714095">
   <ele>1277.00</ele>
   <time>2014-04-05T16:29:27Z</time>
  </trkpt>
  <trkpt lat="33.291092" lon="-2.714652">
   <ele>1277.00</ele>
   <time>2014-04-05T16:29:31Z</time>
  </trkpt>
  <trkpt lat="33.291329" lon="-2.714918">
   <ele>1277.00</ele>
   <time>2014-04-05T16:29:33Z</time>
  </trkpt>
  <trkpt lat="33.291827" lon="-2.715425">
   <ele>1278.00</ele>
   <time>2014-04-05T16:29:37Z</time>
  </trkpt>
  <trkpt lat="33.292202" lon="-2.715781">
   <ele>1279.00</ele>
   <time>2014-04-05T16:29:40Z</time>
  </trkpt>
  <trkpt lat="33.292725" lon="-2.716220">
   <ele>1279.00</ele>
   <time>2014-04-05T16:29:44Z</time>
  </trkpt>
  <trkpt lat="33.294844" lon="-2.717981">
   <ele>1281.00</ele>
   <time>2014-04-05T16:30:00Z</time>
  </trkpt>
  <trkpt lat="33.296220" lon="-2.719112">
   <ele>1283.00</ele>
   <time>2014-04-05T16:30:15Z</time>
  </trkpt>
  <trkpt lat="33.297368" lon="-2.720072">
   <ele>1284.00</ele>
   <time>2014-04-05T16:30:30Z</time>
  </trkpt>
  <trkpt lat="33.299201" lon="-2.721609">
   <ele>1287.00</ele>
   <time>2014-04-05T16:30:45Z</time>
  </trkpt>
  <trkpt lat="33.301530" lon="-2.723553">
   <ele>1289.00</ele>
   <time>2014-04-05T16:31:01Z</time>
  </trkpt>
  <trkpt lat="33.303844" lon="-2.725490">
   <ele>1291.00</ele>
   <time>2014-04-05T16:31:16Z</time>
  </trkpt>
  <trkpt lat="33.306229" lon="-2.727476">
   <ele>1295.00</ele>
   <time>2014-04-05T16:31:31Z</time>
  </trkpt>
  <trkpt lat="33.308707" lon="-2.729561">
   <ele>1300.00</ele>
   <time>2014-04-05T16:31:47Z</time>
  </trkpt>
  <trkpt lat="33.311006" lon="-2.731474">
   <ele>1305.00</ele>
   <time>2014-04-05T16:32:02Z</time>
  </trkpt>
  <trkpt lat="33.311753" lon="-2.732146">
   <ele>1307.00</ele>
   <time>2014-04-05T16:32:07Z</time>
  </trkpt>
  <trkpt lat="33.312325" lon="-2.732705">
   <ele>1306.00</ele>
   <time>2014-04-05T16:32:11Z</time>
  </trkpt>
  <trkpt lat="33.313908" lon="-2.734351">
   <ele>1307.00</ele>
   <time>2014-04-05T16:32:22Z</time>
  </trkpt>
  <trkpt lat="33.316109" lon="-2.736659">
   <ele>1309.00</ele>
   <time>2014-04-05T16:32:37Z</time>
  </trkpt>
  <trkpt lat="33.318256" lon="-2.738905">
   <ele>1312.00</ele>
   <time>2014-04-05T16:32:52Z</time>
  </trkpt>
  <trkpt lat="33.320552" lon="-2.741311">
   <ele>1316.00</ele>
   <time>2014-04-05T16:33:08Z</time>
  </trkpt>
  <trkpt lat="33.322630" lon="-2.743482">
   <ele>1323.00</ele>
   <time>2014-04-05T16:33:23Z</time>
  </trkpt>
  <trkpt lat="33.323696" lon="-2.744572">
   <ele>1325.00</ele>
   <time>2014-04-05T16:33:31Z</time>
  </trkpt>
  <trkpt lat="33.325872" lon="-2.746629">
   <ele>1317.00</ele>
   <time>2014-04-05T16:33:46Z</time>
  </trkpt>
  <trkpt lat="33.328128" lon="-2.748742">
   <ele>1313.00</ele>
   <time>2014-04-05T16:34:02Z</time>
  </trkpt>
  <trkpt lat="33.329707" lon="-2.750189">
   <ele>1310.00</ele>
   <time>2014-04-05T16:34:15Z</time>
  </trkpt>
  <trkpt lat="33.330090" lon="-2.750509">
   <ele>1309.00</ele>
   <time>2014-04-05T16:34:18Z</time>
  </trkpt>
  <trkpt lat="33.330493" lon="-2.750817">
   <ele>1307.00</ele>
   <time>2014-04-05T16:34:21Z</time>
  </trkpt>
  <trkpt lat="33.330902" lon="-2.751097">
   <ele>1305.00</ele>
   <time>2014-04-05T16:34:24Z</time>
  </trkpt>
  <trkpt lat="33.332707" lon="-2.752200">
   <ele>1299.00</ele>
   <time>2014-04-05T16:34:39Z</time>
  </trkpt>
  <trkpt lat="33.334979" lon="-2.753574">
   <ele>1296.00</ele>
   <time>2014-04-05T16:34:55Z</time>
  </trkpt>
  <trkpt lat="33.337742" lon="-2.755260">
   <ele>1295.00</ele>
   <time>2014-04-05T16:35:10Z</time>
  </trkpt>
  <trkpt lat="33.338397" lon="-2.755671">
   <ele>1295.00</ele>
   <time>2014-04-05T16:35:14Z</time>
  </trkpt>
  <trkpt lat="33.338704" lon="-2.755894">
   <ele>1295.00</ele>
   <time>2014-04-05T16:35:16Z</time>
  </trkpt>
  <trkpt lat="33.338998" lon="-2.756133">
   <ele>1295.00</ele>
   <time>2014-04-05T16:35:18Z</time>
  </trkpt>
  <trkpt lat="33.339284" lon="-2.756392">
   <ele>1295.00</ele>
   <time>2014-04-05T16:35:20Z</time>
  </trkpt>
  <trkpt lat="33.339562" lon="-2.756674">
   <ele>1294.00</ele>
   <time>2014-04-05T16:35:22Z</time>
  </trkpt>
  <trkpt lat="33.339833" lon="-2.756979">
   <ele>1294.00</ele>
   <time>2014-04-05T16:35:24Z</time>
  </trkpt>
  <trkpt lat="33.340099" lon="-2.757306">
   <ele>1293.00</ele>
   <time>2014-04-05T16:35:26Z</time>
  </trkpt>
  <trkpt lat="33.342137" lon="-2.760046">
   <ele>1286.00</ele>
   <time>2014-04-05T16:35:41Z</time>
  </trkpt>
  <trkpt lat="33.344281" lon="-2.762928">
   <ele>1278.00</ele>
   <time>2014-04-05T16:35:56Z</time>
  </trkpt>
  <trkpt lat="33.346373" lon="-2.765728">
   <ele>1274.00</ele>
   <time>2014-04-05T16:36:11Z</time>
  </trkpt>
  <trkpt lat="33.347210" lon="-2.766803">
   <ele>1273.00</ele>
   <time>2014-04-05T16:36:17Z</time>
  </trkpt>
  <trkpt lat="33.349423" lon="-2.769431">
   <ele>1271.00</ele>
   <time>2014-04-05T16:36:33Z</time>
  </trkpt>
  <trkpt lat="33.351508" lon="-2.771903">
   <ele>1268.00</ele>
   <time>2014-04-05T16:36:49Z</time>
  </trkpt>
  <trkpt lat="33.353033" lon="-2.773716">
   <ele>1264.00</ele>
   <time>2014-04-05T16:37:04Z</time>
  </trkpt>
  <trkpt lat="33.354171" lon="-2.775047">
   <ele>1263.00</ele>
   <time>2014-04-05T16:37:19Z</time>
  </trkpt>
  <trkpt lat="33.355426" lon="-2.776556">
   <ele>1265.00</ele>
   <time>2014-04-05T16:37:35Z</time>
  </trkpt>
  <trkpt lat="33.355722" lon="-2.776899">
   <ele>1264.00</ele>
   <time>2014-04-05T16:37:41Z</time>
  </trkpt>
  <trkpt lat="33.355899" lon="-2.776891">
   <ele>1267.00</ele>
   <time>2014-04-05T16:37:50Z</time>
  </trkpt>
  <trkpt lat="33.356092" lon="-2.776891">
   <ele>1267.00</ele>
   <time>2014-04-05T16:37:59Z</time>
  </trkpt>
  <trkpt lat="33.356260" lon="-2.776827">
   <ele>1268.00</ele>
   <time>2014-04-05T16:38:05Z</time>
  </trkpt>
  <trkpt lat="33.356462" lon="-2.776734">
   <ele>1268.00</ele>
   <time>2014-04-05T16:38:11Z</time>
  </trkpt>
  <trkpt lat="33.356636" lon="-2.776787">
   <ele>1268.00</ele>
   <time>2014-04-05T16:38:16Z</time>
  </trkpt>
  <trkpt lat="33.356489" lon="-2.776883">
   <ele>1268.00</ele>
   <time>2014-04-05T16:38:20Z</time>
  </trkpt>
  <trkpt lat="33.356266" lon="-2.776881">
   <ele>1268.00</ele>
   <time>2014-04-05T16:38:24Z</time>
  </trkpt>
  <trkpt lat="33.355911" lon="-2.776853">
   <ele>1268.00</ele>
   <time>2014-04-05T16:38:31Z</time>
  </trkpt>
  <trkpt lat="33.355716" lon="-2.776863">
   <ele>1268.00</ele>
   <time>2014-04-05T16:38:35Z</time>
  </trkpt>
  <trkpt lat="33.355517" lon="-2.776716">
   <ele>1267.00</ele>
   <time>2014-04-05T16:38:39Z</time>
  </trkpt>
  <trkpt lat="33.354808" lon="-2.775884">
   <ele>1267.00</ele>
   <time>2014-04-05T16:38:49Z</time>
  </trkpt>
  <trkpt lat="33.353097" lon="-2.773866">
   <ele>1270.00</ele>
   <time>2014-04-05T16:39:04Z</time>
  </trkpt>
  <trkpt lat="33.350740" lon="-2.771070">
   <ele>1275.00</ele>
   <time>2014-04-05T16:39:20Z</time>
  </trkpt>
  <trkpt lat="33.348428" lon="-2.768320">
   <ele>1278.00</ele>
   <time>2014-04-05T16:39:35Z</time>
  </trkpt>
  <trkpt lat="33.346606" lon="-2.766106">
   <ele>1282.00</ele>
   <time>2014-04-05T16:39:47Z</time>
  </trkpt>
  <trkpt lat="33.344284" lon="-2.763013">
   <ele>1284.00</ele>
   <time>2014-04-05T16:40:03Z</time>
  </trkpt>
  <trkpt lat="33.342148" lon="-2.760164">
   <ele>1290.00</ele>
   <time>2014-04-05T16:40:18Z</time>
  </trkpt>
  <trkpt lat="33.339989" lon="-2.757305">
   <ele>1296.00</ele>
   <time>2014-04-05T16:40:33Z</time>
  </trkpt>
  <trkpt lat="33.339698" lon="-2.756940">
   <ele>1297.00</ele>
   <time>2014-04-05T16:40:35Z</time>
  </trkpt>
  <trkpt lat="33.339396" lon="-2.756595">
   <ele>1298.00</ele>
   <time>2014-04-05T16:40:37Z</time>
  </trkpt>
  <trkpt lat="33.339082" lon="-2.756273">
   <ele>1299.00</ele>
   <time>2014-04-05T16:40:39Z</time>
  </trkpt>
  <trkpt lat="33.338920" lon="-2.756122">
   <ele>1299.00</ele>
   <time>2014-04-05T16:40:40Z</time>
  </trkpt>
  <trkpt lat="33.338582" lon="-2.755841">
   <ele>1300.00</ele>
   <time>2014-04-05T16:40:42Z</time>
  </trkpt>
  <trkpt lat="33.338229" lon="-2.755581">
   <ele>1300.00</ele>
   <time>2014-04-05T16:40:44Z</time>
  </trkpt>
  <trkpt lat="33.337858" lon="-2.755341">
   <ele>1300.00</ele>
   <time>2014-04-05T16:40:46Z</time>
  </trkpt>
  <trkpt lat="33.335185" lon="-2.753742">
   <ele>1304.00</ele>
   <time>2014-04-05T16:41:01Z</time>
  </trkpt>
  <trkpt lat="33.333245" lon="-2.752555">
   <ele>1305.00</ele>
   <time>2014-04-05T16:41:17Z</time>
  </trkpt>
  <trkpt lat="33.333294" lon="-2.752393">
   <ele>1301.00</ele>
   <time>2014-04-05T16:41:22Z</time>
  </trkpt>
  <trkpt lat="33.333468" lon="-2.752322">
   <ele>1299.00</ele>
   <time>2014-04-05T16:41:25Z</time>
  </trkpt>
  <trkpt lat="33.333691" lon="-2.752244">
   <ele>1298.00</ele>
   <time>2014-04-05T16:41:28Z</time>
  </trkpt>
  <trkpt lat="33.334028" lon="-2.752132">
   <ele>1297.00</ele>
   <time>2014-04-05T16:41:32Z</time>
  </trkpt>
  <trkpt lat="33.335552" lon="-2.751726">
   <ele>1295.00</ele>
   <time>2014-04-05T16:41:47Z</time>
  </trkpt>
  <trkpt lat="33.335884" lon="-2.751639">
   <ele>1295.00</ele>
   <time>2014-04-05T16:41:50Z</time>
  </trkpt>
  <trkpt lat="33.337066" lon="-2.751342">
   <ele>1294.00</ele>
   <time>2014-04-05T16:42:01Z</time>
  </trkpt>
  <trkpt lat="33.337272" lon="-2.751311">
   <ele>1294.00</ele>
   <time>2014-04-05T16:42:03Z</time>
  </trkpt>
  <trkpt lat="33.337674" lon="-2.751268">
   <ele>1294.00</ele>
   <time>2014-04-05T16:42:07Z</time>
  </trkpt>
  <trkpt lat="33.338149" lon="-2.751232">
   <ele>1293.00</ele>
   <time>2014-04-05T16:42:12Z</time>
  </trkpt>
  <trkpt lat="33.338344" lon="-2.751204">
   <ele>1293.00</ele>
   <time>2014-04-05T16:42:14Z</time>
  </trkpt>
  <trkpt lat="33.339179" lon="-2.751062">
   <ele>1294.00</ele>
   <time>2014-04-05T16:42:22Z</time>
  </trkpt>
  <trkpt lat="33.339514" lon="-2.750984">
   <ele>1294.00</ele>
   <time>2014-04-05T16:42:25Z</time>
  </trkpt>
  <trkpt lat="33.339735" lon="-2.750967">
   <ele>1294.00</ele>
   <time>2014-04-05T16:42:27Z</time>
  </trkpt>
  <trkpt lat="33.340436" lon="-2.750943">
   <ele>1293.00</ele>
   <time>2014-04-05T16:42:34Z</time>
  </trkpt>
  <trkpt lat="33.340728" lon="-2.750953">
   <ele>1294.00</ele>
   <time>2014-04-05T16:42:37Z</time>
  </trkpt>
  <trkpt lat="33.340923" lon="-2.750984">
   <ele>1294.00</ele>
   <time>2014-04-05T16:42:39Z</time>
  </trkpt>
  <trkpt lat="33.341127" lon="-2.751043">
   <ele>1294.00</ele>
   <time>2014-04-05T16:42:41Z</time>
  </trkpt>
  <trkpt lat="33.341329" lon="-2.751119">
   <ele>1293.00</ele>
   <time>2014-04-05T16:42:43Z</time>
  </trkpt>
  <trkpt lat="33.341525" lon="-2.751206">
   <ele>1293.00</ele>
   <time>2014-04-05T16:42:45Z</time>
  </trkpt>
  <trkpt lat="33.341913" lon="-2.751384">
   <ele>1293.00</ele>
   <time>2014-04-05T16:42:49Z</time>
  </trkpt>
  <trkpt lat="33.342113" lon="-2.751442">
   <ele>1293.00</ele>
   <time>2014-04-05T16:42:51Z</time>
  </trkpt>
  <trkpt lat="33.342308" lon="-2.751478">
   <ele>1293.00</ele>
   <time>2014-04-05T16:42:53Z</time>
  </trkpt>
  <trkpt lat="33.342672" lon="-2.751536">
   <ele>1293.00</ele>
   <time>2014-04-05T16:42:57Z</time>
  </trkpt>
  <trkpt lat="33.342922" lon="-2.751509">
   <ele>1293.00</ele>
   <time>2014-04-05T16:43:00Z</time>
  </trkpt>
  <trkpt lat="33.343117" lon="-2.751390">
   <ele>1293.00</ele>
   <time>2014-04-05T16:43:03Z</time>
  </trkpt>
  <trkpt lat="33.343272" lon="-2.751236">
   <ele>1293.00</ele>
   <time>2014-04-05T16:43:06Z</time>
  </trkpt>
  <trkpt lat="33.343419" lon="-2.751107">
   <ele>1293.00</ele>
   <time>2014-04-05T16:43:09Z</time>
  </trkpt>
  <trkpt lat="33.343625" lon="-2.750967">
   <ele>1293.00</ele>
   <time>2014-04-05T16:43:13Z</time>
  </trkpt>
  <trkpt lat="33.343795" lon="-2.750846">
   <ele>1292.00</ele>
   <time>2014-04-05T16:43:16Z</time>
  </trkpt>
  <trkpt lat="33.343962" lon="-2.750689">
   <ele>1292.00</ele>
   <time>2014-04-05T16:43:19Z</time>
  </trkpt>
  <trkpt lat="33.344111" lon="-2.750500">
   <ele>1292.00</ele>
   <time>2014-04-05T16:43:22Z</time>
  </trkpt>
  <trkpt lat="33.344262" lon="-2.750310">
   <ele>1292.00</ele>
   <time>2014-04-05T16:43:25Z</time>
  </trkpt>
  <trkpt lat="33.344405" lon="-2.750098">
   <ele>1292.00</ele>
   <time>2014-04-05T16:43:28Z</time>
  </trkpt>
  <trkpt lat="33.344566" lon="-2.749885">
   <ele>1293.00</ele>
   <time>2014-04-05T16:43:31Z</time>
  </trkpt>
  <trkpt lat="33.344748" lon="-2.749673">
   <ele>1293.00</ele>
   <time>2014-04-05T16:43:34Z</time>
  </trkpt>
  <trkpt lat="33.344950" lon="-2.749460">
   <ele>1293.00</ele>
   <time>2014-04-05T16:43:37Z</time>
  </trkpt>
  <trkpt lat="33.345079" lon="-2.749303">
   <ele>1293.00</ele>
   <time>2014-04-05T16:43:39Z</time>
  </trkpt>
  <trkpt lat="33.345472" lon="-2.748811">
   <ele>1293.00</ele>
   <time>2014-04-05T16:43:45Z</time>
  </trkpt>
  <trkpt lat="33.345753" lon="-2.748488">
   <ele>1293.00</ele>
   <time>2014-04-05T16:43:49Z</time>
  </trkpt>
  <trkpt lat="33.346786" lon="-2.747321">
   <ele>1294.00</ele>
   <time>2014-04-05T16:44:03Z</time>
  </trkpt>
  <trkpt lat="33.346927" lon="-2.747144">
   <ele>1295.00</ele>
   <time>2014-04-05T16:44:05Z</time>
  </trkpt>
  <trkpt lat="33.347181" lon="-2.746806">
   <ele>1295.00</ele>
   <time>2014-04-05T16:44:09Z</time>
  </trkpt>
  <trkpt lat="33.347402" lon="-2.746636">
   <ele>1295.00</ele>
   <time>2014-04-05T16:44:12Z</time>
  </trkpt>
  <trkpt lat="33.347636" lon="-2.746505">
   <ele>1294.00</ele>
   <time>2014-04-05T16:44:15Z</time>
  </trkpt>
  <trkpt lat="33.347881" lon="-2.746370">
   <ele>1295.00</ele>
   <time>2014-04-05T16:44:18Z</time>
  </trkpt>
  <trkpt lat="33.348042" lon="-2.746250">
   <ele>1295.00</ele>
   <time>2014-04-05T16:44:20Z</time>
  </trkpt>
  <trkpt lat="33.348198" lon="-2.746131">
   <ele>1295.00</ele>
   <time>2014-04-05T16:44:22Z</time>
  </trkpt>
  <trkpt lat="33.348421" lon="-2.745962">
   <ele>1295.00</ele>
   <time>2014-04-05T16:44:25Z</time>
  </trkpt>
  <trkpt lat="33.348791" lon="-2.745596">
   <ele>1296.00</ele>
   <time>2014-04-05T16:44:30Z</time>
  </trkpt>
  <trkpt lat="33.349130" lon="-2.745283">
   <ele>1296.00</ele>
   <time>2014-04-05T16:44:34Z</time>
  </trkpt>
  <trkpt lat="33.349291" lon="-2.745117">
   <ele>1296.00</ele>
   <time>2014-04-05T16:44:36Z</time>
  </trkpt>
  <trkpt lat="33.349681" lon="-2.744702">
   <ele>1297.00</ele>
   <time>2014-04-05T16:44:41Z</time>
  </trkpt>
  <trkpt lat="33.349931" lon="-2.744472">
   <ele>1298.00</ele>
   <time>2014-04-05T16:44:44Z</time>
  </trkpt>
  <trkpt lat="33.350417" lon="-2.744054">
   <ele>1298.00</ele>
   <time>2014-04-05T16:44:50Z</time>
  </trkpt>
  <trkpt lat="33.350586" lon="-2.743931">
   <ele>1298.00</ele>
   <time>2014-04-05T16:44:52Z</time>
  </trkpt>
  <trkpt lat="33.350764" lon="-2.743825">
   <ele>1298.00</ele>
   <time>2014-04-05T16:44:54Z</time>
  </trkpt>
  <trkpt lat="33.351230" lon="-2.743563">
   <ele>1299.00</ele>
   <time>2014-04-05T16:44:59Z</time>
  </trkpt>
  <trkpt lat="33.351977" lon="-2.743193">
   <ele>1301.00</ele>
   <time>2014-04-05T16:45:07Z</time>
  </trkpt>
  <trkpt lat="33.352156" lon="-2.743074">
   <ele>1301.00</ele>
   <time>2014-04-05T16:45:09Z</time>
  </trkpt>
  <trkpt lat="33.352322" lon="-2.742937">
   <ele>1301.00</ele>
   <time>2014-04-05T16:45:11Z</time>
  </trkpt>
  <trkpt lat="33.352719" lon="-2.742602">
   <ele>1302.00</ele>
   <time>2014-04-05T16:45:16Z</time>
  </trkpt>
  <trkpt lat="33.352877" lon="-2.742492">
   <ele>1302.00</ele>
   <time>2014-04-05T16:45:18Z</time>
  </trkpt>
  <trkpt lat="33.353084" lon="-2.742344">
   <ele>1303.00</ele>
   <time>2014-04-05T16:45:21Z</time>
  </trkpt>
  <trkpt lat="33.353261" lon="-2.742186">
   <ele>1303.00</ele>
   <time>2014-04-05T16:45:24Z</time>
  </trkpt>
  <trkpt lat="33.353419" lon="-2.742065">
   <ele>1302.00</ele>
   <time>2014-04-05T16:45:27Z</time>
  </trkpt>
  <trkpt lat="33.353604" lon="-2.741951">
   <ele>1302.00</ele>
   <time>2014-04-05T16:45:32Z</time>
  </trkpt>
  <trkpt lat="33.353934" lon="-2.741704">
   <ele>1301.00</ele>
   <time>2014-04-05T16:45:42Z</time>
  </trkpt>
  <trkpt lat="33.354124" lon="-2.741605">
   <ele>1300.00</ele>
   <time>2014-04-05T16:45:48Z</time>
  </trkpt>
  <trkpt lat="33.354291" lon="-2.741518">
   <ele>1300.00</ele>
   <time>2014-04-05T16:45:54Z</time>
  </trkpt>
  <trkpt lat="33.354487" lon="-2.741555">
   <ele>1301.00</ele>
   <time>2014-04-05T16:46:00Z</time>
  </trkpt>
  <trkpt lat="33.354664" lon="-2.741605">
   <ele>1302.00</ele>
   <time>2014-04-05T16:46:05Z</time>
  </trkpt>
  <trkpt lat="33.354850" lon="-2.741622">
   <ele>1302.00</ele>
   <time>2014-04-05T16:46:10Z</time>
  </trkpt>
  <trkpt lat="33.355039" lon="-2.741714">
   <ele>1303.00</ele>
   <time>2014-04-05T16:46:16Z</time>
  </trkpt>
  <trkpt lat="33.355212" lon="-2.741783">
   <ele>1303.00</ele>
   <time>2014-04-05T16:46:21Z</time>
  </trkpt>
  <trkpt lat="33.355357" lon="-2.741923">
   <ele>1303.00</ele>
   <time>2014-04-05T16:46:28Z</time>
  </trkpt>
  <trkpt lat="33.355531" lon="-2.742023">
   <ele>1303.00</ele>
   <time>2014-04-05T16:46:36Z</time>
  </trkpt>
  <trkpt lat="33.355732" lon="-2.742054">
   <ele>1303.00</ele>
   <time>2014-04-05T16:46:43Z</time>
  </trkpt>
  <trkpt lat="33.355787" lon="-2.742081">
   <ele>1303.00</ele>
   <time>2014-04-05T16:46:58Z</time>
  </trkpt>
  <trkpt lat="33.355779" lon="-2.742083">
   <ele>1303.00</ele>
   <time>2014-04-05T16:47:14Z</time>
  </trkpt>
  <trkpt lat="33.355775" lon="-2.742091">
   <ele>1304.00</ele>
   <time>2014-04-05T16:47:29Z</time>
  </trkpt>
  <trkpt lat="33.355774" lon="-2.742092">
   <ele>1304.00</ele>
   <time>2014-04-05T16:47:44Z</time>
  </trkpt>
  <trkpt lat="33.355773" lon="-2.742092">
   <ele>1303.00</ele>
   <time>2014-04-05T16:47:59Z</time>
  </trkpt>
  <trkpt lat="33.355764" lon="-2.742079">
   <ele>1303.00</ele>
   <time>2014-04-05T16:48:08Z</time>
  </trkpt>
 </trkseg>
</trk>
<trk>
 <name>GPS_20140406</name>
 <trkseg>
  <trkpt lat="33.355538" lon="-2.741844">
   <ele>1291.00</ele>
   <time>2014-04-06T08:17:00Z</time>
  </trkpt>
  <trkpt lat="33.355538" lon="-2.741851">
   <ele>1291.00</ele>
   <time>2014-04-06T08:17:15Z</time>
  </trkpt>
  <trkpt lat="33.355538" lon="-2.741851">
   <ele>1291.00</ele>
   <time>2014-04-06T08:17:16Z</time>
  </trkpt>
  <trkpt lat="33.355540" lon="-2.741850">
   <ele>1289.00</ele>
   <time>2014-04-06T08:18:04Z</time>
  </trkpt>
 </trkseg>
 <trkseg>
  <trkpt lat="33.355539" lon="-2.741849">
   <ele>1289.00</ele>
   <time>2014-04-06T08:18:05Z</time>
  </trkpt>
  <trkpt lat="33.355539" lon="-2.741848">
   <ele>1290.00</ele>
   <time>2014-04-06T08:18:10Z</time>
  </trkpt>
 </trkseg>
 <trkseg>
  <trkpt lat="33.355539" lon="-2.741847">
   <ele>1290.00</ele>
   <time>2014-04-06T08:18:12Z</time>
  </trkpt>
  <trkpt lat="33.355539" lon="-2.741847">
   <ele>1290.00</ele>
   <time>2014-04-06T08:18:13Z</time>
  </trkpt>
 </trkseg>
 <trkseg>
  <trkpt lat="33.355539" lon="-2.741847">
   <ele>1290.00</ele>
   <time>2014-04-06T08:18:16Z</time>
  </trkpt>
  <trkpt lat="33.355538" lon="-2.741846">
   <ele>1290.00</ele>
   <time>2014-04-06T08:18:31Z</time>
  </trkpt>
  <trkpt lat="33.355469" lon="-2.741631">
   <ele>1289.00</ele>
   <time>2014-04-06T08:18:43Z</time>
  </trkpt>
  <trkpt lat="33.355564" lon="-2.741438">
   <ele>1288.00</ele>
   <time>2014-04-06T08:18:51Z</time>
  </trkpt>
  <trkpt lat="33.355642" lon="-2.741218">
   <ele>1287.00</ele>
   <time>2014-04-06T08:18:58Z</time>
  </trkpt>
  <trkpt lat="33.355710" lon="-2.741013">
   <ele>1286.00</ele>
   <time>2014-04-06T08:19:04Z</time>
  </trkpt>
  <trkpt lat="33.355764" lon="-2.740806">
   <ele>1285.00</ele>
   <time>2014-04-06T08:19:10Z</time>
  </trkpt>
  <trkpt lat="33.355918" lon="-2.740651">
   <ele>1284.00</ele>
   <time>2014-04-06T08:19:17Z</time>
  </trkpt>
  <trkpt lat="33.356012" lon="-2.740573">
   <ele>1284.00</ele>
   <time>2014-04-06T08:19:33Z</time>
  </trkpt>
  <trkpt lat="33.356011" lon="-2.740570">
   <ele>1285.00</ele>
   <time>2014-04-06T08:19:48Z</time>
  </trkpt>
  <trkpt lat="33.356006" lon="-2.740565">
   <ele>1285.00</ele>
   <time>2014-04-06T08:20:03Z</time>
  </trkpt>
  <trkpt lat="33.356004" lon="-2.740563">
   <ele>1286.00</ele>
   <time>2014-04-06T08:20:18Z</time>
  </trkpt>
  <trkpt lat="33.356005" lon="-2.740567">
   <ele>1285.00</ele>
   <time>2014-04-06T08:20:34Z</time>
  </trkpt>
  <trkpt lat="33.356004" lon="-2.740572">
   <ele>1284.00</ele>
   <time>2014-04-06T08:20:49Z</time>
  </trkpt>
  <trkpt lat="33.356003" lon="-2.740574">
   <ele>1283.00</ele>
   <time>2014-04-06T08:21:04Z</time>
  </trkpt>
  <trkpt lat="33.356000" lon="-2.740576">
   <ele>1283.00</ele>
   <time>2014-04-06T08:21:20Z</time>
  </trkpt>
  <trkpt lat="33.355996" lon="-2.740578">
   <ele>1282.00</ele>
   <time>2014-04-06T08:21:35Z</time>
  </trkpt>
  <trkpt lat="33.355998" lon="-2.740574">
   <ele>1281.00</ele>
   <time>2014-04-06T08:21:50Z</time>
  </trkpt>
  <trkpt lat="33.355999" lon="-2.740570">
   <ele>1282.00</ele>
   <time>2014-04-06T08:22:06Z</time>
  </trkpt>
  <trkpt lat="33.355999" lon="-2.740567">
   <ele>1283.00</ele>
   <time>2014-04-06T08:22:21Z</time>
  </trkpt>
  <trkpt lat="33.356000" lon="-2.740566">
   <ele>1284.00</ele>
   <time>2014-04-06T08:22:36Z</time>
  </trkpt>
  <trkpt lat="33.356001" lon="-2.740565">
   <ele>1285.00</ele>
   <time>2014-04-06T08:22:52Z</time>
  </trkpt>
  <trkpt lat="33.356005" lon="-2.740572">
   <ele>1283.00</ele>
   <time>2014-04-06T08:23:07Z</time>
  </trkpt>
  <trkpt lat="33.356009" lon="-2.740578">
   <ele>1282.00</ele>
   <time>2014-04-06T08:23:22Z</time>
  </trkpt>
  <trkpt lat="33.356200" lon="-2.740522">
   <ele>1280.00</ele>
   <time>2014-04-06T08:23:35Z</time>
  </trkpt>
  <trkpt lat="33.356395" lon="-2.740516">
   <ele>1279.00</ele>
   <time>2014-04-06T08:23:41Z</time>
  </trkpt>
  <trkpt lat="33.356798" lon="-2.740517">
   <ele>1278.00</ele>
   <time>2014-04-06T08:23:50Z</time>
  </trkpt>
  <trkpt lat="33.357015" lon="-2.740541">
   <ele>1278.00</ele>
   <time>2014-04-06T08:23:54Z</time>
  </trkpt>
  <trkpt lat="33.357244" lon="-2.740566">
   <ele>1278.00</ele>
   <time>2014-04-06T08:23:58Z</time>
  </trkpt>
  <trkpt lat="33.357541" lon="-2.740594">
   <ele>1278.00</ele>
   <time>2014-04-06T08:24:03Z</time>
  </trkpt>
  <trkpt lat="33.357857" lon="-2.740637">
   <ele>1278.00</ele>
   <time>2014-04-06T08:24:08Z</time>
  </trkpt>
  <trkpt lat="33.358088" lon="-2.740677">
   <ele>1278.00</ele>
   <time>2014-04-06T08:24:12Z</time>
  </trkpt>
  <trkpt lat="33.358368" lon="-2.740761">
   <ele>1278.00</ele>
   <time>2014-04-06T08:24:17Z</time>
  </trkpt>
  <trkpt lat="33.358552" lon="-2.740771">
   <ele>1277.00</ele>
   <time>2014-04-06T08:24:20Z</time>
  </trkpt>
  <trkpt lat="33.358741" lon="-2.740770">
   <ele>1277.00</ele>
   <time>2014-04-06T08:24:23Z</time>
  </trkpt>
  <trkpt lat="33.358927" lon="-2.740847">
   <ele>1276.00</ele>
   <time>2014-04-06T08:24:26Z</time>
  </trkpt>
  <trkpt lat="33.359127" lon="-2.740938">
   <ele>1275.00</ele>
   <time>2014-04-06T08:24:29Z</time>
  </trkpt>
  <trkpt lat="33.359348" lon="-2.740995">
   <ele>1274.00</ele>
   <time>2014-04-06T08:24:32Z</time>
  </trkpt>
  <trkpt lat="33.359579" lon="-2.741030">
   <ele>1274.00</ele>
   <time>2014-04-06T08:24:35Z</time>
  </trkpt>
  <trkpt lat="33.359818" lon="-2.741068">
   <ele>1274.00</ele>
   <time>2014-04-06T08:24:38Z</time>
  </trkpt>
  <trkpt lat="33.360057" lon="-2.741130">
   <ele>1274.00</ele>
   <time>2014-04-06T08:24:41Z</time>
  </trkpt>
  <trkpt lat="33.360286" lon="-2.741219">
   <ele>1273.00</ele>
   <time>2014-04-06T08:24:44Z</time>
  </trkpt>
  <trkpt lat="33.360505" lon="-2.741318">
   <ele>1272.00</ele>
   <time>2014-04-06T08:24:47Z</time>
  </trkpt>
  <trkpt lat="33.360731" lon="-2.741349">
   <ele>1271.00</ele>
   <time>2014-04-06T08:24:50Z</time>
  </trkpt>
  <trkpt lat="33.360935" lon="-2.741236">
   <ele>1271.00</ele>
   <time>2014-04-06T08:24:53Z</time>
  </trkpt>
  <trkpt lat="33.361095" lon="-2.741047">
   <ele>1271.00</ele>
   <time>2014-04-06T08:24:56Z</time>
  </trkpt>
  <trkpt lat="33.361269" lon="-2.740881">
   <ele>1271.00</ele>
   <time>2014-04-06T08:24:59Z</time>
  </trkpt>
  <trkpt lat="33.361478" lon="-2.740770">
   <ele>1270.00</ele>
   <time>2014-04-06T08:25:02Z</time>
  </trkpt>
  <trkpt lat="33.361719" lon="-2.740706">
   <ele>1270.00</ele>
   <time>2014-04-06T08:25:05Z</time>
  </trkpt>
  <trkpt lat="33.361974" lon="-2.740659">
   <ele>1269.00</ele>
   <time>2014-04-06T08:25:08Z</time>
  </trkpt>
  <trkpt lat="33.362227" lon="-2.740631">
   <ele>1269.00</ele>
   <time>2014-04-06T08:25:11Z</time>
  </trkpt>
  <trkpt lat="33.362477" lon="-2.740672">
   <ele>1268.00</ele>
   <time>2014-04-06T08:25:14Z</time>
  </trkpt>
  <trkpt lat="33.362722" lon="-2.740762">
   <ele>1268.00</ele>
   <time>2014-04-06T08:25:17Z</time>
  </trkpt>
  <trkpt lat="33.362957" lon="-2.740861">
   <ele>1268.00</ele>
   <time>2014-04-06T08:25:20Z</time>
  </trkpt>
  <trkpt lat="33.363180" lon="-2.740995">
   <ele>1267.00</ele>
   <time>2014-04-06T08:25:23Z</time>
  </trkpt>
  <trkpt lat="33.363412" lon="-2.741138">
   <ele>1266.00</ele>
   <time>2014-04-06T08:25:26Z</time>
  </trkpt>
  <trkpt lat="33.363888" lon="-2.741399">
   <ele>1264.00</ele>
   <time>2014-04-06T08:25:32Z</time>
  </trkpt>
  <trkpt lat="33.364300" lon="-2.741603">
   <ele>1263.00</ele>
   <time>2014-04-06T08:25:37Z</time>
  </trkpt>
  <trkpt lat="33.364477" lon="-2.741671">
   <ele>1262.00</ele>
   <time>2014-04-06T08:25:39Z</time>
  </trkpt>
  <trkpt lat="33.364740" lon="-2.741727">
   <ele>1262.00</ele>
   <time>2014-04-06T08:25:42Z</time>
  </trkpt>
  <trkpt lat="33.365078" lon="-2.741738">
   <ele>1262.00</ele>
   <time>2014-04-06T08:25:46Z</time>
  </trkpt>
  <trkpt lat="33.365309" lon="-2.741861">
   <ele>1261.00</ele>
   <time>2014-04-06T08:25:49Z</time>
  </trkpt>
  <trkpt lat="33.365550" lon="-2.742010">
   <ele>1261.00</ele>
   <time>2014-04-06T08:25:52Z</time>
  </trkpt>
  <trkpt lat="33.365810" lon="-2.742138">
   <ele>1260.00</ele>
   <time>2014-04-06T08:25:55Z</time>
  </trkpt>
  <trkpt lat="33.366146" lon="-2.742336">
   <ele>1259.00</ele>
   <time>2014-04-06T08:25:59Z</time>
  </trkpt>
  <trkpt lat="33.366305" lon="-2.742436">
   <ele>1259.00</ele>
   <time>2014-04-06T08:26:01Z</time>
  </trkpt>
  <trkpt lat="33.366558" lon="-2.742529">
   <ele>1258.00</ele>
   <time>2014-04-06T08:26:04Z</time>
  </trkpt>
  <trkpt lat="33.366814" lon="-2.742607">
   <ele>1258.00</ele>
   <time>2014-04-06T08:26:07Z</time>
  </trkpt>
  <trkpt lat="33.367075" lon="-2.742631">
   <ele>1258.00</ele>
   <time>2014-04-06T08:26:10Z</time>
  </trkpt>
  <trkpt lat="33.367321" lon="-2.742560">
   <ele>1258.00</ele>
   <time>2014-04-06T08:26:13Z</time>
  </trkpt>
  <trkpt lat="33.367575" lon="-2.742510">
   <ele>1257.00</ele>
   <time>2014-04-06T08:26:16Z</time>
  </trkpt>
  <trkpt lat="33.367833" lon="-2.742494">
   <ele>1257.00</ele>
   <time>2014-04-06T08:26:19Z</time>
  </trkpt>
  <trkpt lat="33.368101" lon="-2.742477">
   <ele>1256.00</ele>
   <time>2014-04-06T08:26:22Z</time>
  </trkpt>
  <trkpt lat="33.368382" lon="-2.742424">
   <ele>1256.00</ele>
   <time>2014-04-06T08:26:25Z</time>
  </trkpt>
  <trkpt lat="33.368664" lon="-2.742357">
   <ele>1255.00</ele>
   <time>2014-04-06T08:26:28Z</time>
  </trkpt>
  <trkpt lat="33.368858" lon="-2.742337">
   <ele>1255.00</ele>
   <time>2014-04-06T08:26:30Z</time>
  </trkpt>
  <trkpt lat="33.369050" lon="-2.742335">
   <ele>1255.00</ele>
   <time>2014-04-06T08:26:32Z</time>
  </trkpt>
  <trkpt lat="33.369243" lon="-2.742321">
   <ele>1254.00</ele>
   <time>2014-04-06T08:26:34Z</time>
  </trkpt>
  <trkpt lat="33.369443" lon="-2.742279">
   <ele>1254.00</ele>
   <time>2014-04-06T08:26:36Z</time>
  </trkpt>
  <trkpt lat="33.369752" lon="-2.742209">
   <ele>1253.00</ele>
   <time>2014-04-06T08:26:39Z</time>
  </trkpt>
  <trkpt lat="33.369962" lon="-2.742183">
   <ele>1253.00</ele>
   <time>2014-04-06T08:26:41Z</time>
  </trkpt>
  <trkpt lat="33.370175" lon="-2.742161">
   <ele>1252.00</ele>
   <time>2014-04-06T08:26:43Z</time>
  </trkpt>
  <trkpt lat="33.370387" lon="-2.742121">
   <ele>1252.00</ele>
   <time>2014-04-06T08:26:45Z</time>
  </trkpt>
  <trkpt lat="33.370596" lon="-2.742065">
   <ele>1252.00</ele>
   <time>2014-04-06T08:26:47Z</time>
  </trkpt>
  <trkpt lat="33.370811" lon="-2.741998">
   <ele>1251.00</ele>
   <time>2014-04-06T08:26:49Z</time>
  </trkpt>
  <trkpt lat="33.371034" lon="-2.741937">
   <ele>1251.00</ele>
   <time>2014-04-06T08:26:51Z</time>
  </trkpt>
  <trkpt lat="33.371268" lon="-2.741902">
   <ele>1250.00</ele>
   <time>2014-04-06T08:26:53Z</time>
  </trkpt>
  <trkpt lat="33.373047" lon="-2.741691">
   <ele>1246.00</ele>
   <time>2014-04-06T08:27:07Z</time>
  </trkpt>
  <trkpt lat="33.373301" lon="-2.741693">
   <ele>1245.00</ele>
   <time>2014-04-06T08:27:09Z</time>
  </trkpt>
  <trkpt lat="33.373545" lon="-2.741707">
   <ele>1245.00</ele>
   <time>2014-04-06T08:27:11Z</time>
  </trkpt>
  <trkpt lat="33.373782" lon="-2.741685">
   <ele>1244.00</ele>
   <time>2014-04-06T08:27:13Z</time>
  </trkpt>
  <trkpt lat="33.374021" lon="-2.741663">
   <ele>1244.00</ele>
   <time>2014-04-06T08:27:15Z</time>
  </trkpt>
  <trkpt lat="33.374260" lon="-2.741666">
   <ele>1243.00</ele>
   <time>2014-04-06T08:27:17Z</time>
  </trkpt>
  <trkpt lat="33.374490" lon="-2.741664">
   <ele>1243.00</ele>
   <time>2014-04-06T08:27:19Z</time>
  </trkpt>
  <trkpt lat="33.374689" lon="-2.741630">
   <ele>1243.00</ele>
   <time>2014-04-06T08:27:21Z</time>
  </trkpt>
  <trkpt lat="33.374918" lon="-2.741506">
   <ele>1243.00</ele>
   <time>2014-04-06T08:27:24Z</time>
  </trkpt>
  <trkpt lat="33.375152" lon="-2.741440">
   <ele>1242.00</ele>
   <time>2014-04-06T08:27:27Z</time>
  </trkpt>
  <trkpt lat="33.375419" lon="-2.741403">
   <ele>1242.00</ele>
   <time>2014-04-06T08:27:30Z</time>
  </trkpt>
  <trkpt lat="33.375613" lon="-2.741376">
   <ele>1242.00</ele>
   <time>2014-04-06T08:27:32Z</time>
  </trkpt>
  <trkpt lat="33.375923" lon="-2.741329">
   <ele>1241.00</ele>
   <time>2014-04-06T08:27:35Z</time>
  </trkpt>
  <trkpt lat="33.376139" lon="-2.741333">
   <ele>1241.00</ele>
   <time>2014-04-06T08:27:37Z</time>
  </trkpt>
  <trkpt lat="33.376718" lon="-2.741372">
   <ele>1240.00</ele>
   <time>2014-04-06T08:27:42Z</time>
  </trkpt>
  <trkpt lat="33.377097" lon="-2.741358">
   <ele>1240.00</ele>
   <time>2014-04-06T08:27:45Z</time>
  </trkpt>
  <trkpt lat="33.377350" lon="-2.741347">
   <ele>1240.00</ele>
   <time>2014-04-06T08:27:47Z</time>
  </trkpt>
  <trkpt lat="33.377604" lon="-2.741352">
   <ele>1239.00</ele>
   <time>2014-04-06T08:27:49Z</time>
  </trkpt>
  <trkpt lat="33.378098" lon="-2.741373">
   <ele>1239.00</ele>
   <time>2014-04-06T08:27:53Z</time>
  </trkpt>
  <trkpt lat="33.378340" lon="-2.741402">
   <ele>1239.00</ele>
   <time>2014-04-06T08:27:55Z</time>
  </trkpt>
  <trkpt lat="33.378816" lon="-2.741472">
   <ele>1239.00</ele>
   <time>2014-04-06T08:27:59Z</time>
  </trkpt>
  <trkpt lat="33.379244" lon="-2.741500">
   <ele>1239.00</ele>
   <time>2014-04-06T08:28:03Z</time>
  </trkpt>
  <trkpt lat="33.379434" lon="-2.741439">
   <ele>1239.00</ele>
   <time>2014-04-06T08:28:05Z</time>
  </trkpt>
  <trkpt lat="33.379625" lon="-2.741357">
   <ele>1239.00</ele>
   <time>2014-04-06T08:28:07Z</time>
  </trkpt>
  <trkpt lat="33.379832" lon="-2.741315">
   <ele>1238.00</ele>
   <time>2014-04-06T08:28:09Z</time>
  </trkpt>
  <trkpt lat="33.380026" lon="-2.741266">
   <ele>1238.00</ele>
   <time>2014-04-06T08:28:11Z</time>
  </trkpt>
  <trkpt lat="33.380232" lon="-2.741194">
   <ele>1238.00</ele>
   <time>2014-04-06T08:28:14Z</time>
  </trkpt>
  <trkpt lat="33.380444" lon="-2.741136">
   <ele>1238.00</ele>
   <time>2014-04-06T08:28:18Z</time>
  </trkpt>
  <trkpt lat="33.380626" lon="-2.741141">
   <ele>1238.00</ele>
   <time>2014-04-06T08:28:21Z</time>
  </trkpt>
  <trkpt lat="33.380827" lon="-2.741130">
   <ele>1238.00</ele>
   <time>2014-04-06T08:28:24Z</time>
  </trkpt>
  <trkpt lat="33.381048" lon="-2.741069">
   <ele>1238.00</ele>
   <time>2014-04-06T08:28:27Z</time>
  </trkpt>
  <trkpt lat="33.381263" lon="-2.740949">
   <ele>1238.00</ele>
   <time>2014-04-06T08:28:30Z</time>
  </trkpt>
  <trkpt lat="33.381727" lon="-2.740589">
   <ele>1237.00</ele>
   <time>2014-04-06T08:28:36Z</time>
  </trkpt>
  <trkpt lat="33.381891" lon="-2.740450">
   <ele>1237.00</ele>
   <time>2014-04-06T08:28:38Z</time>
  </trkpt>
  <trkpt lat="33.382473" lon="-2.739919">
   <ele>1238.00</ele>
   <time>2014-04-06T08:28:45Z</time>
  </trkpt>
  <trkpt lat="33.382638" lon="-2.739738">
   <ele>1238.00</ele>
   <time>2014-04-06T08:28:47Z</time>
  </trkpt>
  <trkpt lat="33.382790" lon="-2.739540">
   <ele>1238.00</ele>
   <time>2014-04-06T08:28:49Z</time>
  </trkpt>
  <trkpt lat="33.382920" lon="-2.739330">
   <ele>1238.00</ele>
   <time>2014-04-06T08:28:51Z</time>
  </trkpt>
  <trkpt lat="33.383249" lon="-2.738754">
   <ele>1238.00</ele>
   <time>2014-04-06T08:28:57Z</time>
  </trkpt>
  <trkpt lat="33.383661" lon="-2.737951">
   <ele>1239.00</ele>
   <time>2014-04-06T08:29:05Z</time>
  </trkpt>
  <trkpt lat="33.383801" lon="-2.737668">
   <ele>1239.00</ele>
   <time>2014-04-06T08:29:08Z</time>
  </trkpt>
  <trkpt lat="33.383995" lon="-2.737291">
   <ele>1240.00</ele>
   <time>2014-04-06T08:29:12Z</time>
  </trkpt>
  <trkpt lat="33.384082" lon="-2.737083">
   <ele>1240.00</ele>
   <time>2014-04-06T08:29:14Z</time>
  </trkpt>
  <trkpt lat="33.384205" lon="-2.736768">
   <ele>1240.00</ele>
   <time>2014-04-06T08:29:17Z</time>
  </trkpt>
  <trkpt lat="33.384312" lon="-2.736465">
   <ele>1240.00</ele>
   <time>2014-04-06T08:29:20Z</time>
  </trkpt>
  <trkpt lat="33.384420" lon="-2.736167">
   <ele>1240.00</ele>
   <time>2014-04-06T08:29:23Z</time>
  </trkpt>
  <trkpt lat="33.384470" lon="-2.735937">
   <ele>1240.00</ele>
   <time>2014-04-06T08:29:25Z</time>
  </trkpt>
  <trkpt lat="33.384570" lon="-2.735360">
   <ele>1240.00</ele>
   <time>2014-04-06T08:29:30Z</time>
  </trkpt>
  <trkpt lat="33.384625" lon="-2.735151">
   <ele>1241.00</ele>
   <time>2014-04-06T08:29:32Z</time>
  </trkpt>
  <trkpt lat="33.384818" lon="-2.734594">
   <ele>1240.00</ele>
   <time>2014-04-06T08:29:37Z</time>
  </trkpt>
  <trkpt lat="33.384871" lon="-2.734375">
   <ele>1240.00</ele>
   <time>2014-04-06T08:29:39Z</time>
  </trkpt>
  <trkpt lat="33.385080" lon="-2.733520">
   <ele>1240.00</ele>
   <time>2014-04-06T08:29:49Z</time>
  </trkpt>
  <trkpt lat="33.385171" lon="-2.733248">
   <ele>1240.00</ele>
   <time>2014-04-06T08:29:52Z</time>
  </trkpt>
  <trkpt lat="33.385314" lon="-2.733005">
   <ele>1239.00</ele>
   <time>2014-04-06T08:29:55Z</time>
  </trkpt>
  <trkpt lat="33.385435" lon="-2.732753">
   <ele>1239.00</ele>
   <time>2014-04-06T08:29:58Z</time>
  </trkpt>
  <trkpt lat="33.385488" lon="-2.732501">
   <ele>1240.00</ele>
   <time>2014-04-06T08:30:01Z</time>
  </trkpt>
  <trkpt lat="33.385588" lon="-2.732297">
   <ele>1239.00</ele>
   <time>2014-04-06T08:30:04Z</time>
  </trkpt>
  <trkpt lat="33.385711" lon="-2.732072">
   <ele>1239.00</ele>
   <time>2014-04-06T08:30:07Z</time>
  </trkpt>
  <trkpt lat="33.385808" lon="-2.731803">
   <ele>1240.00</ele>
   <time>2014-04-06T08:30:10Z</time>
  </trkpt>
  <trkpt lat="33.385976" lon="-2.731591">
   <ele>1240.00</ele>
   <time>2014-04-06T08:30:13Z</time>
  </trkpt>
  <trkpt lat="33.386160" lon="-2.731409">
   <ele>1240.00</ele>
   <time>2014-04-06T08:30:16Z</time>
  </trkpt>
  <trkpt lat="33.386302" lon="-2.731243">
   <ele>1240.00</ele>
   <time>2014-04-06T08:30:19Z</time>
  </trkpt>
  <trkpt lat="33.386459" lon="-2.731024">
   <ele>1240.00</ele>
   <time>2014-04-06T08:30:23Z</time>
  </trkpt>
  <trkpt lat="33.386588" lon="-2.730845">
   <ele>1240.00</ele>
   <time>2014-04-06T08:30:26Z</time>
  </trkpt>
  <trkpt lat="33.386736" lon="-2.730641">
   <ele>1241.00</ele>
   <time>2014-04-06T08:30:30Z</time>
  </trkpt>
  <trkpt lat="33.386914" lon="-2.730404">
   <ele>1241.00</ele>
   <time>2014-04-06T08:30:34Z</time>
  </trkpt>
  <trkpt lat="33.387108" lon="-2.730176">
   <ele>1241.00</ele>
   <time>2014-04-06T08:30:37Z</time>
  </trkpt>
  <trkpt lat="33.387249" lon="-2.730021">
   <ele>1241.00</ele>
   <time>2014-04-06T08:30:39Z</time>
  </trkpt>
  <trkpt lat="33.387407" lon="-2.729872">
   <ele>1241.00</ele>
   <time>2014-04-06T08:30:41Z</time>
  </trkpt>
  <trkpt lat="33.387569" lon="-2.729746">
   <ele>1242.00</ele>
   <time>2014-04-06T08:30:43Z</time>
  </trkpt>
  <trkpt lat="33.387747" lon="-2.729646">
   <ele>1242.00</ele>
   <time>2014-04-06T08:30:45Z</time>
  </trkpt>
  <trkpt lat="33.388134" lon="-2.729463">
   <ele>1241.00</ele>
   <time>2014-04-06T08:30:49Z</time>
  </trkpt>
  <trkpt lat="33.388508" lon="-2.729264">
   <ele>1241.00</ele>
   <time>2014-04-06T08:30:53Z</time>
  </trkpt>
  <trkpt lat="33.388859" lon="-2.729088">
   <ele>1241.00</ele>
   <time>2014-04-06T08:30:57Z</time>
  </trkpt>
  <trkpt lat="33.389101" lon="-2.728936">
   <ele>1241.00</ele>
   <time>2014-04-06T08:31:00Z</time>
  </trkpt>
  <trkpt lat="33.389321" lon="-2.728797">
   <ele>1241.00</ele>
   <time>2014-04-06T08:31:03Z</time>
  </trkpt>
  <trkpt lat="33.389571" lon="-2.728766">
   <ele>1241.00</ele>
   <time>2014-04-06T08:31:06Z</time>
  </trkpt>
  <trkpt lat="33.389752" lon="-2.728815">
   <ele>1241.00</ele>
   <time>2014-04-06T08:31:08Z</time>
  </trkpt>
  <trkpt lat="33.389940" lon="-2.728907">
   <ele>1241.00</ele>
   <time>2014-04-06T08:31:10Z</time>
  </trkpt>
  <trkpt lat="33.390134" lon="-2.729035">
   <ele>1240.00</ele>
   <time>2014-04-06T08:31:12Z</time>
  </trkpt>
  <trkpt lat="33.390739" lon="-2.729430">
   <ele>1237.00</ele>
   <time>2014-04-06T08:31:18Z</time>
  </trkpt>
  <trkpt lat="33.390938" lon="-2.729530">
   <ele>1237.00</ele>
   <time>2014-04-06T08:31:20Z</time>
  </trkpt>
  <trkpt lat="33.391139" lon="-2.729601">
   <ele>1237.00</ele>
   <time>2014-04-06T08:31:22Z</time>
  </trkpt>
  <trkpt lat="33.391335" lon="-2.729672">
   <ele>1237.00</ele>
   <time>2014-04-06T08:31:24Z</time>
  </trkpt>
  <trkpt lat="33.391520" lon="-2.729794">
   <ele>1236.00</ele>
   <time>2014-04-06T08:31:26Z</time>
  </trkpt>
  <trkpt lat="33.391691" lon="-2.729953">
   <ele>1235.00</ele>
   <time>2014-04-06T08:31:28Z</time>
  </trkpt>
  <trkpt lat="33.392100" lon="-2.730357">
   <ele>1234.00</ele>
   <time>2014-04-06T08:31:33Z</time>
  </trkpt>
  <trkpt lat="33.392244" lon="-2.730525">
   <ele>1234.00</ele>
   <time>2014-04-06T08:31:35Z</time>
  </trkpt>
  <trkpt lat="33.392378" lon="-2.730711">
   <ele>1233.00</ele>
   <time>2014-04-06T08:31:37Z</time>
  </trkpt>
  <trkpt lat="33.392477" lon="-2.730900">
   <ele>1233.00</ele>
   <time>2014-04-06T08:31:39Z</time>
  </trkpt>
  <trkpt lat="33.392570" lon="-2.731143">
   <ele>1232.00</ele>
   <time>2014-04-06T08:31:42Z</time>
  </trkpt>
  <trkpt lat="33.392752" lon="-2.731311">
   <ele>1232.00</ele>
   <time>2014-04-06T08:31:46Z</time>
  </trkpt>
  <trkpt lat="33.392902" lon="-2.731458">
   <ele>1232.00</ele>
   <time>2014-04-06T08:31:50Z</time>
  </trkpt>
  <trkpt lat="33.393004" lon="-2.731665">
   <ele>1232.00</ele>
   <time>2014-04-06T08:31:54Z</time>
  </trkpt>
  <trkpt lat="33.393131" lon="-2.731869">
   <ele>1231.00</ele>
   <time>2014-04-06T08:31:58Z</time>
  </trkpt>
  <trkpt lat="33.393278" lon="-2.732071">
   <ele>1232.00</ele>
   <time>2014-04-06T08:32:02Z</time>
  </trkpt>
  <trkpt lat="33.393428" lon="-2.732269">
   <ele>1232.00</ele>
   <time>2014-04-06T08:32:06Z</time>
  </trkpt>
  <trkpt lat="33.393615" lon="-2.732408">
   <ele>1232.00</ele>
   <time>2014-04-06T08:32:10Z</time>
  </trkpt>
  <trkpt lat="33.393826" lon="-2.732492">
   <ele>1231.00</ele>
   <time>2014-04-06T08:32:14Z</time>
  </trkpt>
  <trkpt lat="33.394031" lon="-2.732579">
   <ele>1231.00</ele>
   <time>2014-04-06T08:32:18Z</time>
  </trkpt>
  <trkpt lat="33.394223" lon="-2.732672">
   <ele>1231.00</ele>
   <time>2014-04-06T08:32:22Z</time>
  </trkpt>
  <trkpt lat="33.394384" lon="-2.732830">
   <ele>1231.00</ele>
   <time>2014-04-06T08:32:27Z</time>
  </trkpt>
  <trkpt lat="33.394324" lon="-2.733033">
   <ele>1231.00</ele>
   <time>2014-04-06T08:32:32Z</time>
  </trkpt>
  <trkpt lat="33.394168" lon="-2.733154">
   <ele>1231.00</ele>
   <time>2014-04-06T08:32:36Z</time>
  </trkpt>
  <trkpt lat="33.393972" lon="-2.733200">
   <ele>1231.00</ele>
   <time>2014-04-06T08:32:40Z</time>
  </trkpt>
  <trkpt lat="33.393792" lon="-2.733263">
   <ele>1231.00</ele>
   <time>2014-04-06T08:32:44Z</time>
  </trkpt>
  <trkpt lat="33.393646" lon="-2.733442">
   <ele>1231.00</ele>
   <time>2014-04-06T08:32:49Z</time>
  </trkpt>
  <trkpt lat="33.393462" lon="-2.733428">
   <ele>1231.00</ele>
   <time>2014-04-06T08:32:54Z</time>
  </trkpt>
  <trkpt lat="33.393266" lon="-2.733401">
   <ele>1232.00</ele>
   <time>2014-04-06T08:32:59Z</time>
  </trkpt>
  <trkpt lat="33.393064" lon="-2.733458">
   <ele>1232.00</ele>
   <time>2014-04-06T08:33:04Z</time>
  </trkpt>
  <trkpt lat="33.392892" lon="-2.733412">
   <ele>1232.00</ele>
   <time>2014-04-06T08:33:09Z</time>
  </trkpt>
  <trkpt lat="33.392760" lon="-2.733254">
   <ele>1232.00</ele>
   <time>2014-04-06T08:33:13Z</time>
  </trkpt>
  <trkpt lat="33.392594" lon="-2.733090">
   <ele>1232.00</ele>
   <time>2014-04-06T08:33:17Z</time>
  </trkpt>
  <trkpt lat="33.392411" lon="-2.733000">
   <ele>1232.00</ele>
   <time>2014-04-06T08:33:21Z</time>
  </trkpt>
  <trkpt lat="33.392199" lon="-2.732944">
   <ele>1232.00</ele>
   <time>2014-04-06T08:33:26Z</time>
  </trkpt>
  <trkpt lat="33.392022" lon="-2.732860">
   <ele>1232.00</ele>
   <time>2014-04-06T08:33:30Z</time>
  </trkpt>
  <trkpt lat="33.391824" lon="-2.732734">
   <ele>1232.00</ele>
   <time>2014-04-06T08:33:36Z</time>
  </trkpt>
  <trkpt lat="33.391704" lon="-2.732586">
   <ele>1233.00</ele>
   <time>2014-04-06T08:33:44Z</time>
  </trkpt>
  <trkpt lat="33.391591" lon="-2.732397">
   <ele>1233.00</ele>
   <time>2014-04-06T08:33:51Z</time>
  </trkpt>
  <trkpt lat="33.391414" lon="-2.732302">
   <ele>1234.00</ele>
   <time>2014-04-06T08:33:57Z</time>
  </trkpt>
  <trkpt lat="33.391236" lon="-2.732199">
   <ele>1235.00</ele>
   <time>2014-04-06T08:34:02Z</time>
  </trkpt>
  <trkpt lat="33.391026" lon="-2.732092">
   <ele>1235.00</ele>
   <time>2014-04-06T08:34:07Z</time>
  </trkpt>
  <trkpt lat="33.390841" lon="-2.731987">
   <ele>1236.00</ele>
   <time>2014-04-06T08:34:11Z</time>
  </trkpt>
  <trkpt lat="33.390632" lon="-2.731922">
   <ele>1236.00</ele>
   <time>2014-04-06T08:34:15Z</time>
  </trkpt>
  <trkpt lat="33.390434" lon="-2.731804">
   <ele>1237.00</ele>
   <time>2014-04-06T08:34:19Z</time>
  </trkpt>
  <trkpt lat="33.390283" lon="-2.731622">
   <ele>1237.00</ele>
   <time>2014-04-06T08:34:23Z</time>
  </trkpt>
  <trkpt lat="33.390235" lon="-2.731378">
   <ele>1237.00</ele>
   <time>2014-04-06T08:34:27Z</time>
  </trkpt>
  <trkpt lat="33.390304" lon="-2.731118">
   <ele>1237.00</ele>
   <time>2014-04-06T08:34:31Z</time>
  </trkpt>
  <trkpt lat="33.390454" lon="-2.730618">
   <ele>1237.00</ele>
   <time>2014-04-06T08:34:38Z</time>
  </trkpt>
  <trkpt lat="33.390382" lon="-2.730364">
   <ele>1238.00</ele>
   <time>2014-04-06T08:34:42Z</time>
  </trkpt>
  <trkpt lat="33.390210" lon="-2.730065">
   <ele>1238.00</ele>
   <time>2014-04-06T08:34:47Z</time>
  </trkpt>
  <trkpt lat="33.390120" lon="-2.729870">
   <ele>1239.00</ele>
   <time>2014-04-06T08:34:50Z</time>
  </trkpt>
  <trkpt lat="33.390052" lon="-2.729665">
   <ele>1239.00</ele>
   <time>2014-04-06T08:34:53Z</time>
  </trkpt>
  <trkpt lat="33.390004" lon="-2.729444">
   <ele>1240.00</ele>
   <time>2014-04-06T08:34:56Z</time>
  </trkpt>
  <trkpt lat="33.389977" lon="-2.729215">
   <ele>1240.00</ele>
   <time>2014-04-06T08:34:59Z</time>
  </trkpt>
  <trkpt lat="33.389974" lon="-2.728937">
   <ele>1241.00</ele>
   <time>2014-04-06T08:35:03Z</time>
  </trkpt>
  <trkpt lat="33.390043" lon="-2.728723">
   <ele>1240.00</ele>
   <time>2014-04-06T08:35:10Z</time>
  </trkpt>
  <trkpt lat="33.390028" lon="-2.728550">
   <ele>1241.00</ele>
   <time>2014-04-06T08:35:24Z</time>
  </trkpt>
  <trkpt lat="33.389813" lon="-2.728610">
   <ele>1241.00</ele>
   <time>2014-04-06T08:35:29Z</time>
  </trkpt>
  <trkpt lat="33.389314" lon="-2.728803">
   <ele>1240.00</ele>
   <time>2014-04-06T08:35:36Z</time>
  </trkpt>
  <trkpt lat="33.389101" lon="-2.728929">
   <ele>1240.00</ele>
   <time>2014-04-06T08:35:39Z</time>
  </trkpt>
  <trkpt lat="33.388882" lon="-2.729074">
   <ele>1239.00</ele>
   <time>2014-04-06T08:35:42Z</time>
  </trkpt>
  <trkpt lat="33.388637" lon="-2.729210">
   <ele>1239.00</ele>
   <time>2014-04-06T08:35:45Z</time>
  </trkpt>
  <trkpt lat="33.388181" lon="-2.729443">
   <ele>1240.00</ele>
   <time>2014-04-06T08:35:50Z</time>
  </trkpt>
  <trkpt lat="33.387894" lon="-2.729597">
   <ele>1240.00</ele>
   <time>2014-04-06T08:35:53Z</time>
  </trkpt>
  <trkpt lat="33.387694" lon="-2.729676">
   <ele>1240.00</ele>
   <time>2014-04-06T08:35:55Z</time>
  </trkpt>
  <trkpt lat="33.387501" lon="-2.729775">
   <ele>1240.00</ele>
   <time>2014-04-06T08:35:57Z</time>
  </trkpt>
  <trkpt lat="33.387321" lon="-2.729915">
   <ele>1240.00</ele>
   <time>2014-04-06T08:35:59Z</time>
  </trkpt>
  <trkpt lat="33.387152" lon="-2.730091">
   <ele>1240.00</ele>
   <time>2014-04-06T08:36:01Z</time>
  </trkpt>
  <trkpt lat="33.386909" lon="-2.730375">
   <ele>1240.00</ele>
   <time>2014-04-06T08:36:04Z</time>
  </trkpt>
  <trkpt lat="33.386755" lon="-2.730580">
   <ele>1240.00</ele>
   <time>2014-04-06T08:36:06Z</time>
  </trkpt>
  <trkpt lat="33.386536" lon="-2.730890">
   <ele>1240.00</ele>
   <time>2014-04-06T08:36:09Z</time>
  </trkpt>
  <trkpt lat="33.386388" lon="-2.731091">
   <ele>1240.00</ele>
   <time>2014-04-06T08:36:11Z</time>
  </trkpt>
  <trkpt lat="33.386169" lon="-2.731405">
   <ele>1240.00</ele>
   <time>2014-04-06T08:36:14Z</time>
  </trkpt>
  <trkpt lat="33.386002" lon="-2.731572">
   <ele>1240.00</ele>
   <time>2014-04-06T08:36:16Z</time>
  </trkpt>
  <trkpt lat="33.385845" lon="-2.731726">
   <ele>1240.00</ele>
   <time>2014-04-06T08:36:18Z</time>
  </trkpt>
  <trkpt lat="33.385739" lon="-2.731913">
   <ele>1240.00</ele>
   <time>2014-04-06T08:36:20Z</time>
  </trkpt>
  <trkpt lat="33.385611" lon="-2.732228">
   <ele>1240.00</ele>
   <time>2014-04-06T08:36:23Z</time>
  </trkpt>
  <trkpt lat="33.385451" lon="-2.732546">
   <ele>1240.00</ele>
   <time>2014-04-06T08:36:26Z</time>
  </trkpt>
  <trkpt lat="33.385365" lon="-2.732773">
   <ele>1240.00</ele>
   <time>2014-04-06T08:36:28Z</time>
  </trkpt>
  <trkpt lat="33.385128" lon="-2.733331">
   <ele>1240.00</ele>
   <time>2014-04-06T08:36:33Z</time>
  </trkpt>
  <trkpt lat="33.385049" lon="-2.733563">
   <ele>1240.00</ele>
   <time>2014-04-06T08:36:35Z</time>
  </trkpt>
  <trkpt lat="33.384984" lon="-2.733806">
   <ele>1240.00</ele>
   <time>2014-04-06T08:36:37Z</time>
  </trkpt>
  <trkpt lat="33.384715" lon="-2.734879">
   <ele>1241.00</ele>
   <time>2014-04-06T08:36:45Z</time>
  </trkpt>
  <trkpt lat="33.384514" lon="-2.735524">
   <ele>1241.00</ele>
   <time>2014-04-06T08:36:50Z</time>
  </trkpt>
  <trkpt lat="33.384464" lon="-2.735788">
   <ele>1241.00</ele>
   <time>2014-04-06T08:36:52Z</time>
  </trkpt>
  <trkpt lat="33.384415" lon="-2.736061">
   <ele>1241.00</ele>
   <time>2014-04-06T08:36:54Z</time>
  </trkpt>
  <trkpt lat="33.384346" lon="-2.736334">
   <ele>1241.00</ele>
   <time>2014-04-06T08:36:56Z</time>
  </trkpt>
  <trkpt lat="33.384256" lon="-2.736592">
   <ele>1241.00</ele>
   <time>2014-04-06T08:36:58Z</time>
  </trkpt>
  <trkpt lat="33.384163" lon="-2.736832">
   <ele>1241.00</ele>
   <time>2014-04-06T08:37:00Z</time>
  </trkpt>
  <trkpt lat="33.384026" lon="-2.737183">
   <ele>1241.00</ele>
   <time>2014-04-06T08:37:03Z</time>
  </trkpt>
  <trkpt lat="33.383877" lon="-2.737520">
   <ele>1241.00</ele>
   <time>2014-04-06T08:37:06Z</time>
  </trkpt>
  <trkpt lat="33.383768" lon="-2.737729">
   <ele>1241.00</ele>
   <time>2014-04-06T08:37:08Z</time>
  </trkpt>
  <trkpt lat="33.383662" lon="-2.737933">
   <ele>1241.00</ele>
   <time>2014-04-06T08:37:10Z</time>
  </trkpt>
  <trkpt lat="33.383393" lon="-2.738475">
   <ele>1241.00</ele>
   <time>2014-04-06T08:37:15Z</time>
  </trkpt>
  <trkpt lat="33.383196" lon="-2.738951">
   <ele>1240.00</ele>
   <time>2014-04-06T08:37:19Z</time>
  </trkpt>
  <trkpt lat="33.383070" lon="-2.739150">
   <ele>1240.00</ele>
   <time>2014-04-06T08:37:21Z</time>
  </trkpt>
  <trkpt lat="33.382737" lon="-2.739605">
   <ele>1240.00</ele>
   <time>2014-04-06T08:37:26Z</time>
  </trkpt>
  <trkpt lat="33.382426" lon="-2.739965">
   <ele>1240.00</ele>
   <time>2014-04-06T08:37:30Z</time>
  </trkpt>
  <trkpt lat="33.382264" lon="-2.740121">
   <ele>1239.00</ele>
   <time>2014-04-06T08:37:32Z</time>
  </trkpt>
  <trkpt lat="33.381872" lon="-2.740453">
   <ele>1239.00</ele>
   <time>2014-04-06T08:37:37Z</time>
  </trkpt>
  <trkpt lat="33.381649" lon="-2.740629">
   <ele>1239.00</ele>
   <time>2014-04-06T08:37:40Z</time>
  </trkpt>
  <trkpt lat="33.381416" lon="-2.740823">
   <ele>1239.00</ele>
   <time>2014-04-06T08:37:43Z</time>
  </trkpt>
  <trkpt lat="33.381251" lon="-2.740945">
   <ele>1239.00</ele>
   <time>2014-04-06T08:37:45Z</time>
  </trkpt>
  <trkpt lat="33.381024" lon="-2.741081">
   <ele>1240.00</ele>
   <time>2014-04-06T08:37:48Z</time>
  </trkpt>
  <trkpt lat="33.380911" lon="-2.741207">
   <ele>1240.00</ele>
   <time>2014-04-06T08:37:52Z</time>
  </trkpt>
  <trkpt lat="33.381076" lon="-2.741279">
   <ele>1239.00</ele>
   <time>2014-04-06T08:37:56Z</time>
  </trkpt>
  <trkpt lat="33.381282" lon="-2.741344">
   <ele>1238.00</ele>
   <time>2014-04-06T08:37:59Z</time>
  </trkpt>
  <trkpt lat="33.381492" lon="-2.741450">
   <ele>1238.00</ele>
   <time>2014-04-06T08:38:02Z</time>
  </trkpt>
  <trkpt lat="33.381694" lon="-2.741602">
   <ele>1237.00</ele>
   <time>2014-04-06T08:38:05Z</time>
  </trkpt>
  <trkpt lat="33.381933" lon="-2.741840">
   <ele>1237.00</ele>
   <time>2014-04-06T08:38:10Z</time>
  </trkpt>
  <trkpt lat="33.382097" lon="-2.741850">
   <ele>1237.00</ele>
   <time>2014-04-06T08:38:19Z</time>
  </trkpt>
  <trkpt lat="33.382040" lon="-2.741839">
   <ele>1237.00</ele>
   <time>2014-04-06T08:38:34Z</time>
  </trkpt>
  <trkpt lat="33.382071" lon="-2.742022">
   <ele>1237.00</ele>
   <time>2014-04-06T08:38:41Z</time>
  </trkpt>
  <trkpt lat="33.382234" lon="-2.742180">
   <ele>1237.00</ele>
   <time>2014-04-06T08:38:48Z</time>
  </trkpt>
  <trkpt lat="33.382435" lon="-2.742297">
   <ele>1237.00</ele>
   <time>2014-04-06T08:38:54Z</time>
  </trkpt>
  <trkpt lat="33.382601" lon="-2.742410">
   <ele>1237.00</ele>
   <time>2014-04-06T08:38:58Z</time>
  </trkpt>
  <trkpt lat="33.382815" lon="-2.742453">
   <ele>1236.00</ele>
   <time>2014-04-06T08:39:03Z</time>
  </trkpt>
  <trkpt lat="33.382979" lon="-2.742604">
   <ele>1237.00</ele>
   <time>2014-04-06T08:39:08Z</time>
  </trkpt>
  <trkpt lat="33.383120" lon="-2.742791">
   <ele>1237.00</ele>
   <time>2014-04-06T08:39:13Z</time>
  </trkpt>
  <trkpt lat="33.383276" lon="-2.742927">
   <ele>1237.00</ele>
   <time>2014-04-06T08:39:16Z</time>
  </trkpt>
  <trkpt lat="33.383473" lon="-2.743001">
   <ele>1236.00</ele>
   <time>2014-04-06T08:39:19Z</time>
  </trkpt>
  <trkpt lat="33.383695" lon="-2.743057">
   <ele>1236.00</ele>
   <time>2014-04-06T08:39:22Z</time>
  </trkpt>
  <trkpt lat="33.384010" lon="-2.743172">
   <ele>1236.00</ele>
   <time>2014-04-06T08:39:26Z</time>
  </trkpt>
  <trkpt lat="33.384190" lon="-2.743201">
   <ele>1236.00</ele>
   <time>2014-04-06T08:39:28Z</time>
  </trkpt>
  <trkpt lat="33.384380" lon="-2.743188">
   <ele>1236.00</ele>
   <time>2014-04-06T08:39:30Z</time>
  </trkpt>
  <trkpt lat="33.384575" lon="-2.743127">
   <ele>1235.00</ele>
   <time>2014-04-06T08:39:32Z</time>
  </trkpt>
  <trkpt lat="33.384769" lon="-2.743026">
   <ele>1235.00</ele>
   <time>2014-04-06T08:39:34Z</time>
  </trkpt>
  <trkpt lat="33.384967" lon="-2.742899">
   <ele>1235.00</ele>
   <time>2014-04-06T08:39:36Z</time>
  </trkpt>
  <trkpt lat="33.385266" lon="-2.742706">
   <ele>1235.00</ele>
   <time>2014-04-06T08:39:39Z</time>
  </trkpt>
  <trkpt lat="33.385467" lon="-2.742599">
   <ele>1234.00</ele>
   <time>2014-04-06T08:39:41Z</time>
  </trkpt>
  <trkpt lat="33.385673" lon="-2.742515">
   <ele>1234.00</ele>
   <time>2014-04-06T08:39:43Z</time>
  </trkpt>
  <trkpt lat="33.385878" lon="-2.742428">
   <ele>1235.00</ele>
   <time>2014-04-06T08:39:45Z</time>
  </trkpt>
  <trkpt lat="33.386074" lon="-2.742302">
   <ele>1235.00</ele>
   <time>2014-04-06T08:39:47Z</time>
  </trkpt>
  <trkpt lat="33.386272" lon="-2.742181">
   <ele>1235.00</ele>
   <time>2014-04-06T08:39:49Z</time>
  </trkpt>
  <trkpt lat="33.386476" lon="-2.742097">
   <ele>1235.00</ele>
   <time>2014-04-06T08:39:51Z</time>
  </trkpt>
  <trkpt lat="33.386688" lon="-2.742078">
   <ele>1235.00</ele>
   <time>2014-04-06T08:39:53Z</time>
  </trkpt>
  <trkpt lat="33.386911" lon="-2.742072">
   <ele>1235.00</ele>
   <time>2014-04-06T08:39:55Z</time>
  </trkpt>
  <trkpt lat="33.387144" lon="-2.742038">
   <ele>1235.00</ele>
   <time>2014-04-06T08:39:57Z</time>
  </trkpt>
  <trkpt lat="33.387381" lon="-2.741972">
   <ele>1235.00</ele>
   <time>2014-04-06T08:39:59Z</time>
  </trkpt>
  <trkpt lat="33.387625" lon="-2.741875">
   <ele>1235.00</ele>
   <time>2014-04-06T08:40:01Z</time>
  </trkpt>
  <trkpt lat="33.388004" lon="-2.741715">
   <ele>1235.00</ele>
   <time>2014-04-06T08:40:04Z</time>
  </trkpt>
  <trkpt lat="33.388787" lon="-2.741393">
   <ele>1236.00</ele>
   <time>2014-04-06T08:40:10Z</time>
  </trkpt>
  <trkpt lat="33.389025" lon="-2.741268">
   <ele>1236.00</ele>
   <time>2014-04-06T08:40:12Z</time>
  </trkpt>
  <trkpt lat="33.389237" lon="-2.741123">
   <ele>1236.00</ele>
   <time>2014-04-06T08:40:14Z</time>
  </trkpt>
  <trkpt lat="33.389642" lon="-2.740820">
   <ele>1236.00</ele>
   <time>2014-04-06T08:40:18Z</time>
  </trkpt>
  <trkpt lat="33.389858" lon="-2.740691">
   <ele>1236.00</ele>
   <time>2014-04-06T08:40:20Z</time>
  </trkpt>
  <trkpt lat="33.390066" lon="-2.740549">
   <ele>1236.00</ele>
   <time>2014-04-06T08:40:22Z</time>
  </trkpt>
  <trkpt lat="33.390619" lon="-2.740241">
   <ele>1235.00</ele>
   <time>2014-04-06T08:40:27Z</time>
  </trkpt>
  <trkpt lat="33.390851" lon="-2.740160">
   <ele>1235.00</ele>
   <time>2014-04-06T08:40:29Z</time>
  </trkpt>
  <trkpt lat="33.391090" lon="-2.740085">
   <ele>1234.00</ele>
   <time>2014-04-06T08:40:31Z</time>
  </trkpt>
  <trkpt lat="33.391321" lon="-2.739985">
   <ele>1234.00</ele>
   <time>2014-04-06T08:40:33Z</time>
  </trkpt>
  <trkpt lat="33.391649" lon="-2.739827">
   <ele>1234.00</ele>
   <time>2014-04-06T08:40:36Z</time>
  </trkpt>
  <trkpt lat="33.391877" lon="-2.739751">
   <ele>1234.00</ele>
   <time>2014-04-06T08:40:38Z</time>
  </trkpt>
  <trkpt lat="33.392108" lon="-2.739654">
   <ele>1234.00</ele>
   <time>2014-04-06T08:40:40Z</time>
  </trkpt>
  <trkpt lat="33.392342" lon="-2.739539">
   <ele>1234.00</ele>
   <time>2014-04-06T08:40:42Z</time>
  </trkpt>
  <trkpt lat="33.393615" lon="-2.738863">
   <ele>1233.00</ele>
   <time>2014-04-06T08:40:53Z</time>
  </trkpt>
  <trkpt lat="33.393847" lon="-2.738796">
   <ele>1233.00</ele>
   <time>2014-04-06T08:40:55Z</time>
  </trkpt>
  <trkpt lat="33.394200" lon="-2.738713">
   <ele>1233.00</ele>
   <time>2014-04-06T08:40:58Z</time>
  </trkpt>
  <trkpt lat="33.394428" lon="-2.738608">
   <ele>1232.00</ele>
   <time>2014-04-06T08:41:00Z</time>
  </trkpt>
  <trkpt lat="33.395417" lon="-2.738082">
   <ele>1232.00</ele>
   <time>2014-04-06T08:41:08Z</time>
  </trkpt>
  <trkpt lat="33.395822" lon="-2.737905">
   <ele>1232.00</ele>
   <time>2014-04-06T08:41:11Z</time>
  </trkpt>
  <trkpt lat="33.396086" lon="-2.737788">
   <ele>1232.00</ele>
   <time>2014-04-06T08:41:13Z</time>
  </trkpt>
  <trkpt lat="33.396615" lon="-2.737539">
   <ele>1232.00</ele>
   <time>2014-04-06T08:41:17Z</time>
  </trkpt>
  <trkpt lat="33.396890" lon="-2.737436">
   <ele>1232.00</ele>
   <time>2014-04-06T08:41:19Z</time>
  </trkpt>
  <trkpt lat="33.397715" lon="-2.737156">
   <ele>1232.00</ele>
   <time>2014-04-06T08:41:25Z</time>
  </trkpt>
  <trkpt lat="33.397985" lon="-2.737035">
   <ele>1232.00</ele>
   <time>2014-04-06T08:41:27Z</time>
  </trkpt>
  <trkpt lat="33.398668" lon="-2.736705">
   <ele>1232.00</ele>
   <time>2014-04-06T08:41:32Z</time>
  </trkpt>
  <trkpt lat="33.399220" lon="-2.736467">
   <ele>1232.00</ele>
   <time>2014-04-06T08:41:36Z</time>
  </trkpt>
  <trkpt lat="33.399487" lon="-2.736322">
   <ele>1232.00</ele>
   <time>2014-04-06T08:41:38Z</time>
  </trkpt>
  <trkpt lat="33.399750" lon="-2.736176">
   <ele>1232.00</ele>
   <time>2014-04-06T08:41:40Z</time>
  </trkpt>
  <trkpt lat="33.400136" lon="-2.735977">
   <ele>1232.00</ele>
   <time>2014-04-06T08:41:43Z</time>
  </trkpt>
  <trkpt lat="33.400383" lon="-2.735824">
   <ele>1233.00</ele>
   <time>2014-04-06T08:41:45Z</time>
  </trkpt>
  <trkpt lat="33.400739" lon="-2.735588">
   <ele>1233.00</ele>
   <time>2014-04-06T08:41:48Z</time>
  </trkpt>
  <trkpt lat="33.400989" lon="-2.735464">
   <ele>1233.00</ele>
   <time>2014-04-06T08:41:50Z</time>
  </trkpt>
  <trkpt lat="33.402049" lon="-2.735017">
   <ele>1233.00</ele>
   <time>2014-04-06T08:41:58Z</time>
  </trkpt>
  <trkpt lat="33.402596" lon="-2.734802">
   <ele>1234.00</ele>
   <time>2014-04-06T08:42:02Z</time>
  </trkpt>
  <trkpt lat="33.404289" lon="-2.734030">
   <ele>1232.00</ele>
   <time>2014-04-06T08:42:14Z</time>
  </trkpt>
  <trkpt lat="33.404848" lon="-2.733807">
   <ele>1232.00</ele>
   <time>2014-04-06T08:42:18Z</time>
  </trkpt>
  <trkpt lat="33.405240" lon="-2.733684">
   <ele>1231.00</ele>
   <time>2014-04-06T08:42:21Z</time>
  </trkpt>
  <trkpt lat="33.405485" lon="-2.733595">
   <ele>1231.00</ele>
   <time>2014-04-06T08:42:23Z</time>
  </trkpt>
  <trkpt lat="33.405737" lon="-2.733539">
   <ele>1231.00</ele>
   <time>2014-04-06T08:42:25Z</time>
  </trkpt>
  <trkpt lat="33.406120" lon="-2.733484">
   <ele>1230.00</ele>
   <time>2014-04-06T08:42:28Z</time>
  </trkpt>
  <trkpt lat="33.406356" lon="-2.733498">
   <ele>1230.00</ele>
   <time>2014-04-06T08:42:30Z</time>
  </trkpt>
  <trkpt lat="33.406581" lon="-2.733489">
   <ele>1230.00</ele>
   <time>2014-04-06T08:42:32Z</time>
  </trkpt>
  <trkpt lat="33.406802" lon="-2.733423">
   <ele>1229.00</ele>
   <time>2014-04-06T08:42:34Z</time>
  </trkpt>
  <trkpt lat="33.407027" lon="-2.733334">
   <ele>1229.00</ele>
   <time>2014-04-06T08:42:36Z</time>
  </trkpt>
  <trkpt lat="33.407269" lon="-2.733276">
   <ele>1229.00</ele>
   <time>2014-04-06T08:42:38Z</time>
  </trkpt>
  <trkpt lat="33.407524" lon="-2.733256">
   <ele>1229.00</ele>
   <time>2014-04-06T08:42:40Z</time>
  </trkpt>
  <trkpt lat="33.407789" lon="-2.733256">
   <ele>1229.00</ele>
   <time>2014-04-06T08:42:42Z</time>
  </trkpt>
  <trkpt lat="33.408060" lon="-2.733270">
   <ele>1228.00</ele>
   <time>2014-04-06T08:42:44Z</time>
  </trkpt>
  <trkpt lat="33.408451" lon="-2.733315">
   <ele>1228.00</ele>
   <time>2014-04-06T08:42:47Z</time>
  </trkpt>
  <trkpt lat="33.408697" lon="-2.733361">
   <ele>1228.00</ele>
   <time>2014-04-06T08:42:49Z</time>
  </trkpt>
  <trkpt lat="33.409077" lon="-2.733432">
   <ele>1227.00</ele>
   <time>2014-04-06T08:42:52Z</time>
  </trkpt>
  <trkpt lat="33.409476" lon="-2.733478">
   <ele>1227.00</ele>
   <time>2014-04-06T08:42:55Z</time>
  </trkpt>
  <trkpt lat="33.410002" lon="-2.733557">
   <ele>1227.00</ele>
   <time>2014-04-06T08:42:59Z</time>
  </trkpt>
  <trkpt lat="33.410545" lon="-2.733611">
   <ele>1226.00</ele>
   <time>2014-04-06T08:43:03Z</time>
  </trkpt>
  <trkpt lat="33.410828" lon="-2.733631">
   <ele>1226.00</ele>
   <time>2014-04-06T08:43:05Z</time>
  </trkpt>
  <trkpt lat="33.411107" lon="-2.733676">
   <ele>1226.00</ele>
   <time>2014-04-06T08:43:07Z</time>
  </trkpt>
  <trkpt lat="33.411376" lon="-2.733751">
   <ele>1226.00</ele>
   <time>2014-04-06T08:43:09Z</time>
  </trkpt>
  <trkpt lat="33.412297" lon="-2.734094">
   <ele>1225.00</ele>
   <time>2014-04-06T08:43:16Z</time>
  </trkpt>
  <trkpt lat="33.412649" lon="-2.734258">
   <ele>1225.00</ele>
   <time>2014-04-06T08:43:19Z</time>
  </trkpt>
  <trkpt lat="33.412903" lon="-2.734323">
   <ele>1225.00</ele>
   <time>2014-04-06T08:43:21Z</time>
  </trkpt>
  <trkpt lat="33.414353" lon="-2.734631">
   <ele>1224.00</ele>
   <time>2014-04-06T08:43:32Z</time>
  </trkpt>
  <trkpt lat="33.414749" lon="-2.734742">
   <ele>1224.00</ele>
   <time>2014-04-06T08:43:35Z</time>
  </trkpt>
  <trkpt lat="33.415391" lon="-2.734884">
   <ele>1223.00</ele>
   <time>2014-04-06T08:43:40Z</time>
  </trkpt>
  <trkpt lat="33.415611" lon="-2.734955">
   <ele>1223.00</ele>
   <time>2014-04-06T08:43:42Z</time>
  </trkpt>
  <trkpt lat="33.415962" lon="-2.735060">
   <ele>1222.00</ele>
   <time>2014-04-06T08:43:45Z</time>
  </trkpt>
  <trkpt lat="33.416573" lon="-2.735225">
   <ele>1222.00</ele>
   <time>2014-04-06T08:43:50Z</time>
  </trkpt>
  <trkpt lat="33.416801" lon="-2.735310">
   <ele>1222.00</ele>
   <time>2014-04-06T08:43:52Z</time>
  </trkpt>
  <trkpt lat="33.417020" lon="-2.735394">
   <ele>1222.00</ele>
   <time>2014-04-06T08:43:54Z</time>
  </trkpt>
  <trkpt lat="33.417660" lon="-2.735601">
   <ele>1222.00</ele>
   <time>2014-04-06T08:44:00Z</time>
  </trkpt>
  <trkpt lat="33.417852" lon="-2.735654">
   <ele>1221.00</ele>
   <time>2014-04-06T08:44:02Z</time>
  </trkpt>
  <trkpt lat="33.418182" lon="-2.735730">
   <ele>1221.00</ele>
   <time>2014-04-06T08:44:06Z</time>
  </trkpt>
  <trkpt lat="33.418384" lon="-2.735821">
   <ele>1222.00</ele>
   <time>2014-04-06T08:44:09Z</time>
  </trkpt>
  <trkpt lat="33.418572" lon="-2.735938">
   <ele>1222.00</ele>
   <time>2014-04-06T08:44:12Z</time>
  </trkpt>
  <trkpt lat="33.418794" lon="-2.735994">
   <ele>1222.00</ele>
   <time>2014-04-06T08:44:16Z</time>
  </trkpt>
  <trkpt lat="33.418977" lon="-2.735979">
   <ele>1222.00</ele>
   <time>2014-04-06T08:44:20Z</time>
  </trkpt>
  <trkpt lat="33.419183" lon="-2.735926">
   <ele>1222.00</ele>
   <time>2014-04-06T08:44:25Z</time>
  </trkpt>
  <trkpt lat="33.419370" lon="-2.735886">
   <ele>1222.00</ele>
   <time>2014-04-06T08:44:28Z</time>
  </trkpt>
  <trkpt lat="33.419588" lon="-2.735847">
   <ele>1221.00</ele>
   <time>2014-04-06T08:44:31Z</time>
  </trkpt>
  <trkpt lat="33.419838" lon="-2.735806">
   <ele>1221.00</ele>
   <time>2014-04-06T08:44:34Z</time>
  </trkpt>
  <trkpt lat="33.420100" lon="-2.735771">
   <ele>1221.00</ele>
   <time>2014-04-06T08:44:37Z</time>
  </trkpt>
  <trkpt lat="33.420368" lon="-2.735677">
   <ele>1221.00</ele>
   <time>2014-04-06T08:44:40Z</time>
  </trkpt>
  <trkpt lat="33.420573" lon="-2.735648">
   <ele>1221.00</ele>
   <time>2014-04-06T08:44:42Z</time>
  </trkpt>
  <trkpt lat="33.421146" lon="-2.735581">
   <ele>1220.00</ele>
   <time>2014-04-06T08:44:47Z</time>
  </trkpt>
  <trkpt lat="33.421385" lon="-2.735538">
   <ele>1220.00</ele>
   <time>2014-04-06T08:44:49Z</time>
  </trkpt>
  <trkpt lat="33.421627" lon="-2.735475">
   <ele>1220.00</ele>
   <time>2014-04-06T08:44:51Z</time>
  </trkpt>
  <trkpt lat="33.421872" lon="-2.735409">
   <ele>1220.00</ele>
   <time>2014-04-06T08:44:53Z</time>
  </trkpt>
  <trkpt lat="33.422129" lon="-2.735368">
   <ele>1220.00</ele>
   <time>2014-04-06T08:44:55Z</time>
  </trkpt>
  <trkpt lat="33.423089" lon="-2.735254">
   <ele>1219.00</ele>
   <time>2014-04-06T08:45:02Z</time>
  </trkpt>
  <trkpt lat="33.424652" lon="-2.734957">
   <ele>1218.00</ele>
   <time>2014-04-06T08:45:13Z</time>
  </trkpt>
  <trkpt lat="33.425319" lon="-2.734791">
   <ele>1218.00</ele>
   <time>2014-04-06T08:45:18Z</time>
  </trkpt>
  <trkpt lat="33.425597" lon="-2.734741">
   <ele>1218.00</ele>
   <time>2014-04-06T08:45:20Z</time>
  </trkpt>
  <trkpt lat="33.425867" lon="-2.734719">
   <ele>1217.00</ele>
   <time>2014-04-06T08:45:22Z</time>
  </trkpt>
  <trkpt lat="33.426121" lon="-2.734737">
   <ele>1217.00</ele>
   <time>2014-04-06T08:45:24Z</time>
  </trkpt>
  <trkpt lat="33.426361" lon="-2.734756">
   <ele>1217.00</ele>
   <time>2014-04-06T08:45:26Z</time>
  </trkpt>
  <trkpt lat="33.426602" lon="-2.734736">
   <ele>1217.00</ele>
   <time>2014-04-06T08:45:28Z</time>
  </trkpt>
  <trkpt lat="33.426843" lon="-2.734682">
   <ele>1217.00</ele>
   <time>2014-04-06T08:45:30Z</time>
  </trkpt>
  <trkpt lat="33.427066" lon="-2.734605">
   <ele>1217.00</ele>
   <time>2014-04-06T08:45:32Z</time>
  </trkpt>
  <trkpt lat="33.427286" lon="-2.734549">
   <ele>1217.00</ele>
   <time>2014-04-06T08:45:34Z</time>
  </trkpt>
  <trkpt lat="33.427522" lon="-2.734552">
   <ele>1216.00</ele>
   <time>2014-04-06T08:45:36Z</time>
  </trkpt>
  <trkpt lat="33.427770" lon="-2.734593">
   <ele>1216.00</ele>
   <time>2014-04-06T08:45:38Z</time>
  </trkpt>
  <trkpt lat="33.428030" lon="-2.734638">
   <ele>1216.00</ele>
   <time>2014-04-06T08:45:40Z</time>
  </trkpt>
  <trkpt lat="33.428297" lon="-2.734666">
   <ele>1216.00</ele>
   <time>2014-04-06T08:45:42Z</time>
  </trkpt>
  <trkpt lat="33.428568" lon="-2.734654">
   <ele>1216.00</ele>
   <time>2014-04-06T08:45:44Z</time>
  </trkpt>
  <trkpt lat="33.428829" lon="-2.734606">
   <ele>1216.00</ele>
   <time>2014-04-06T08:45:46Z</time>
  </trkpt>
  <trkpt lat="33.429075" lon="-2.734573">
   <ele>1216.00</ele>
   <time>2014-04-06T08:45:48Z</time>
  </trkpt>
  <trkpt lat="33.429306" lon="-2.734540">
   <ele>1216.00</ele>
   <time>2014-04-06T08:45:50Z</time>
  </trkpt>
  <trkpt lat="33.429533" lon="-2.734480">
   <ele>1216.00</ele>
   <time>2014-04-06T08:45:52Z</time>
  </trkpt>
  <trkpt lat="33.429755" lon="-2.734418">
   <ele>1216.00</ele>
   <time>2014-04-06T08:45:54Z</time>
  </trkpt>
  <trkpt lat="33.429966" lon="-2.734373">
   <ele>1216.00</ele>
   <time>2014-04-06T08:45:56Z</time>
  </trkpt>
  <trkpt lat="33.430162" lon="-2.734322">
   <ele>1216.00</ele>
   <time>2014-04-06T08:45:58Z</time>
  </trkpt>
  <trkpt lat="33.430331" lon="-2.734218">
   <ele>1216.00</ele>
   <time>2014-04-06T08:46:00Z</time>
  </trkpt>
  <trkpt lat="33.430466" lon="-2.734057">
   <ele>1216.00</ele>
   <time>2014-04-06T08:46:02Z</time>
  </trkpt>
  <trkpt lat="33.430614" lon="-2.733902">
   <ele>1216.00</ele>
   <time>2014-04-06T08:46:04Z</time>
  </trkpt>
  <trkpt lat="33.430798" lon="-2.733784">
   <ele>1216.00</ele>
   <time>2014-04-06T08:46:06Z</time>
  </trkpt>
  <trkpt lat="33.431087" lon="-2.733626">
   <ele>1216.00</ele>
   <time>2014-04-06T08:46:09Z</time>
  </trkpt>
  <trkpt lat="33.431274" lon="-2.733538">
   <ele>1216.00</ele>
   <time>2014-04-06T08:46:11Z</time>
  </trkpt>
  <trkpt lat="33.431465" lon="-2.733470">
   <ele>1216.00</ele>
   <time>2014-04-06T08:46:13Z</time>
  </trkpt>
  <trkpt lat="33.431665" lon="-2.733405">
   <ele>1216.00</ele>
   <time>2014-04-06T08:46:15Z</time>
  </trkpt>
  <trkpt lat="33.431990" lon="-2.733326">
   <ele>1216.00</ele>
   <time>2014-04-06T08:46:18Z</time>
  </trkpt>
  <trkpt lat="33.432224" lon="-2.733292">
   <ele>1216.00</ele>
   <time>2014-04-06T08:46:20Z</time>
  </trkpt>
  <trkpt lat="33.432467" lon="-2.733266">
   <ele>1216.00</ele>
   <time>2014-04-06T08:46:22Z</time>
  </trkpt>
  <trkpt lat="33.432705" lon="-2.733275">
   <ele>1215.00</ele>
   <time>2014-04-06T08:46:24Z</time>
  </trkpt>
  <trkpt lat="33.432937" lon="-2.733293">
   <ele>1215.00</ele>
   <time>2014-04-06T08:46:26Z</time>
  </trkpt>
  <trkpt lat="33.433168" lon="-2.733263">
   <ele>1215.00</ele>
   <time>2014-04-06T08:46:28Z</time>
  </trkpt>
  <trkpt lat="33.433393" lon="-2.733178">
   <ele>1215.00</ele>
   <time>2014-04-06T08:46:30Z</time>
  </trkpt>
  <trkpt lat="33.433624" lon="-2.733087">
   <ele>1214.00</ele>
   <time>2014-04-06T08:46:32Z</time>
  </trkpt>
  <trkpt lat="33.433859" lon="-2.733013">
   <ele>1214.00</ele>
   <time>2014-04-06T08:46:34Z</time>
  </trkpt>
  <trkpt lat="33.434098" lon="-2.732969">
   <ele>1214.00</ele>
   <time>2014-04-06T08:46:36Z</time>
  </trkpt>
  <trkpt lat="33.434335" lon="-2.732969">
   <ele>1214.00</ele>
   <time>2014-04-06T08:46:38Z</time>
  </trkpt>
  <trkpt lat="33.434578" lon="-2.732983">
   <ele>1214.00</ele>
   <time>2014-04-06T08:46:40Z</time>
  </trkpt>
  <trkpt lat="33.434828" lon="-2.732979">
   <ele>1214.00</ele>
   <time>2014-04-06T08:46:42Z</time>
  </trkpt>
  <trkpt lat="33.435081" lon="-2.732979">
   <ele>1213.00</ele>
   <time>2014-04-06T08:46:44Z</time>
  </trkpt>
  <trkpt lat="33.435738" lon="-2.733003">
   <ele>1213.00</ele>
   <time>2014-04-06T08:46:49Z</time>
  </trkpt>
  <trkpt lat="33.436010" lon="-2.732990">
   <ele>1213.00</ele>
   <time>2014-04-06T08:46:51Z</time>
  </trkpt>
  <trkpt lat="33.436288" lon="-2.732976">
   <ele>1213.00</ele>
   <time>2014-04-06T08:46:53Z</time>
  </trkpt>
  <trkpt lat="33.436569" lon="-2.732992">
   <ele>1213.00</ele>
   <time>2014-04-06T08:46:55Z</time>
  </trkpt>
  <trkpt lat="33.436855" lon="-2.733019">
   <ele>1212.00</ele>
   <time>2014-04-06T08:46:57Z</time>
  </trkpt>
  <trkpt lat="33.437416" lon="-2.733091">
   <ele>1212.00</ele>
   <time>2014-04-06T08:47:01Z</time>
  </trkpt>
  <trkpt lat="33.438389" lon="-2.733188">
   <ele>1212.00</ele>
   <time>2014-04-06T08:47:08Z</time>
  </trkpt>
  <trkpt lat="33.438661" lon="-2.733233">
   <ele>1212.00</ele>
   <time>2014-04-06T08:47:10Z</time>
  </trkpt>
  <trkpt lat="33.438930" lon="-2.733304">
   <ele>1212.00</ele>
   <time>2014-04-06T08:47:12Z</time>
  </trkpt>
  <trkpt lat="33.439576" lon="-2.733505">
   <ele>1212.00</ele>
   <time>2014-04-06T08:47:17Z</time>
  </trkpt>
  <trkpt lat="33.439964" lon="-2.733657">
   <ele>1212.00</ele>
   <time>2014-04-06T08:47:20Z</time>
  </trkpt>
  <trkpt lat="33.440217" lon="-2.733756">
   <ele>1212.00</ele>
   <time>2014-04-06T08:47:22Z</time>
  </trkpt>
  <trkpt lat="33.440461" lon="-2.733840">
   <ele>1212.00</ele>
   <time>2014-04-06T08:47:24Z</time>
  </trkpt>
  <trkpt lat="33.440689" lon="-2.733951">
   <ele>1212.00</ele>
   <time>2014-04-06T08:47:26Z</time>
  </trkpt>
  <trkpt lat="33.440920" lon="-2.734054">
   <ele>1212.00</ele>
   <time>2014-04-06T08:47:28Z</time>
  </trkpt>
  <trkpt lat="33.441159" lon="-2.734143">
   <ele>1212.00</ele>
   <time>2014-04-06T08:47:30Z</time>
  </trkpt>
  <trkpt lat="33.441408" lon="-2.734215">
   <ele>1212.00</ele>
   <time>2014-04-06T08:47:32Z</time>
  </trkpt>
  <trkpt lat="33.441664" lon="-2.734274">
   <ele>1212.00</ele>
   <time>2014-04-06T08:47:34Z</time>
  </trkpt>
  <trkpt lat="33.441927" lon="-2.734320">
   <ele>1212.00</ele>
   <time>2014-04-06T08:47:36Z</time>
  </trkpt>
  <trkpt lat="33.442197" lon="-2.734345">
   <ele>1212.00</ele>
   <time>2014-04-06T08:47:38Z</time>
  </trkpt>
  <trkpt lat="33.442470" lon="-2.734373">
   <ele>1212.00</ele>
   <time>2014-04-06T08:47:40Z</time>
  </trkpt>
  <trkpt lat="33.443544" lon="-2.734561">
   <ele>1211.00</ele>
   <time>2014-04-06T08:47:48Z</time>
  </trkpt>
  <trkpt lat="33.444243" lon="-2.734647">
   <ele>1211.00</ele>
   <time>2014-04-06T08:47:54Z</time>
  </trkpt>
  <trkpt lat="33.444440" lon="-2.734651">
   <ele>1211.00</ele>
   <time>2014-04-06T08:47:56Z</time>
  </trkpt>
  <trkpt lat="33.444742" lon="-2.734642">
   <ele>1211.00</ele>
   <time>2014-04-06T08:47:59Z</time>
  </trkpt>
  <trkpt lat="33.444956" lon="-2.734611">
   <ele>1210.00</ele>
   <time>2014-04-06T08:48:01Z</time>
  </trkpt>
  <trkpt lat="33.445301" lon="-2.734544">
   <ele>1211.00</ele>
   <time>2014-04-06T08:48:04Z</time>
  </trkpt>
  <trkpt lat="33.445549" lon="-2.734526">
   <ele>1210.00</ele>
   <time>2014-04-06T08:48:06Z</time>
  </trkpt>
  <trkpt lat="33.445813" lon="-2.734537">
   <ele>1210.00</ele>
   <time>2014-04-06T08:48:08Z</time>
  </trkpt>
  <trkpt lat="33.446081" lon="-2.734568">
   <ele>1210.00</ele>
   <time>2014-04-06T08:48:10Z</time>
  </trkpt>
  <trkpt lat="33.446459" lon="-2.734636">
   <ele>1209.00</ele>
   <time>2014-04-06T08:48:13Z</time>
  </trkpt>
  <trkpt lat="33.446708" lon="-2.734643">
   <ele>1209.00</ele>
   <time>2014-04-06T08:48:15Z</time>
  </trkpt>
  <trkpt lat="33.446948" lon="-2.734658">
   <ele>1209.00</ele>
   <time>2014-04-06T08:48:17Z</time>
  </trkpt>
  <trkpt lat="33.447182" lon="-2.734670">
   <ele>1209.00</ele>
   <time>2014-04-06T08:48:19Z</time>
  </trkpt>
  <trkpt lat="33.447545" lon="-2.734686">
   <ele>1209.00</ele>
   <time>2014-04-06T08:48:22Z</time>
  </trkpt>
  <trkpt lat="33.447793" lon="-2.734700">
   <ele>1209.00</ele>
   <time>2014-04-06T08:48:24Z</time>
  </trkpt>
  <trkpt lat="33.448038" lon="-2.734694">
   <ele>1208.00</ele>
   <time>2014-04-06T08:48:26Z</time>
  </trkpt>
  <trkpt lat="33.448398" lon="-2.734669">
   <ele>1208.00</ele>
   <time>2014-04-06T08:48:29Z</time>
  </trkpt>
  <trkpt lat="33.448646" lon="-2.734674">
   <ele>1208.00</ele>
   <time>2014-04-06T08:48:31Z</time>
  </trkpt>
  <trkpt lat="33.449018" lon="-2.734687">
   <ele>1208.00</ele>
   <time>2014-04-06T08:48:34Z</time>
  </trkpt>
  <trkpt lat="33.450206" lon="-2.734791">
   <ele>1207.00</ele>
   <time>2014-04-06T08:48:44Z</time>
  </trkpt>
  <trkpt lat="33.450437" lon="-2.734786">
   <ele>1207.00</ele>
   <time>2014-04-06T08:48:46Z</time>
  </trkpt>
  <trkpt lat="33.450666" lon="-2.734761">
   <ele>1207.00</ele>
   <time>2014-04-06T08:48:48Z</time>
  </trkpt>
  <trkpt lat="33.450887" lon="-2.734710">
   <ele>1207.00</ele>
   <time>2014-04-06T08:48:50Z</time>
  </trkpt>
  <trkpt lat="33.451089" lon="-2.734618">
   <ele>1207.00</ele>
   <time>2014-04-06T08:48:52Z</time>
  </trkpt>
  <trkpt lat="33.451269" lon="-2.734492">
   <ele>1207.00</ele>
   <time>2014-04-06T08:48:54Z</time>
  </trkpt>
  <trkpt lat="33.451445" lon="-2.734375">
   <ele>1207.00</ele>
   <time>2014-04-06T08:48:56Z</time>
  </trkpt>
  <trkpt lat="33.451640" lon="-2.734312">
   <ele>1206.00</ele>
   <time>2014-04-06T08:48:58Z</time>
  </trkpt>
  <trkpt lat="33.451845" lon="-2.734274">
   <ele>1206.00</ele>
   <time>2014-04-06T08:49:00Z</time>
  </trkpt>
  <trkpt lat="33.452037" lon="-2.734262">
   <ele>1206.00</ele>
   <time>2014-04-06T08:49:02Z</time>
  </trkpt>
  <trkpt lat="33.452256" lon="-2.734328">
   <ele>1206.00</ele>
   <time>2014-04-06T08:49:05Z</time>
  </trkpt>
  <trkpt lat="33.452416" lon="-2.734504">
   <ele>1205.00</ele>
   <time>2014-04-06T08:49:09Z</time>
  </trkpt>
  <trkpt lat="33.452589" lon="-2.734673">
   <ele>1205.00</ele>
   <time>2014-04-06T08:49:14Z</time>
  </trkpt>
  <trkpt lat="33.452852" lon="-2.734775">
   <ele>1206.00</ele>
   <time>2014-04-06T08:49:19Z</time>
  </trkpt>
  <trkpt lat="33.453025" lon="-2.734891">
   <ele>1206.00</ele>
   <time>2014-04-06T08:49:22Z</time>
  </trkpt>
  <trkpt lat="33.453172" lon="-2.735062">
   <ele>1206.00</ele>
   <time>2014-04-06T08:49:25Z</time>
  </trkpt>
  <trkpt lat="33.453329" lon="-2.735268">
   <ele>1206.00</ele>
   <time>2014-04-06T08:49:28Z</time>
  </trkpt>
  <trkpt lat="33.453520" lon="-2.735465">
   <ele>1206.00</ele>
   <time>2014-04-06T08:49:31Z</time>
  </trkpt>
  <trkpt lat="33.453877" lon="-2.735846">
   <ele>1206.00</ele>
   <time>2014-04-06T08:49:37Z</time>
  </trkpt>
  <trkpt lat="33.454029" lon="-2.735981">
   <ele>1206.00</ele>
   <time>2014-04-06T08:49:40Z</time>
  </trkpt>
  <trkpt lat="33.454220" lon="-2.736132">
   <ele>1206.00</ele>
   <time>2014-04-06T08:49:44Z</time>
  </trkpt>
  <trkpt lat="33.454389" lon="-2.736263">
   <ele>1207.00</ele>
   <time>2014-04-06T08:49:48Z</time>
  </trkpt>
  <trkpt lat="33.454534" lon="-2.736395">
   <ele>1207.00</ele>
   <time>2014-04-06T08:49:52Z</time>
  </trkpt>
  <trkpt lat="33.454683" lon="-2.736574">
   <ele>1207.00</ele>
   <time>2014-04-06T08:49:56Z</time>
  </trkpt>
  <trkpt lat="33.454790" lon="-2.736755">
   <ele>1207.00</ele>
   <time>2014-04-06T08:49:59Z</time>
  </trkpt>
  <trkpt lat="33.454934" lon="-2.736891">
   <ele>1207.00</ele>
   <time>2014-04-06T08:50:02Z</time>
  </trkpt>
  <trkpt lat="33.455116" lon="-2.736950">
   <ele>1206.00</ele>
   <time>2014-04-06T08:50:05Z</time>
  </trkpt>
  <trkpt lat="33.455295" lon="-2.737053">
   <ele>1206.00</ele>
   <time>2014-04-06T08:50:08Z</time>
  </trkpt>
  <trkpt lat="33.455516" lon="-2.737236">
   <ele>1206.00</ele>
   <time>2014-04-06T08:50:12Z</time>
  </trkpt>
  <trkpt lat="33.455681" lon="-2.737427">
   <ele>1206.00</ele>
   <time>2014-04-06T08:50:16Z</time>
  </trkpt>
  <trkpt lat="33.455857" lon="-2.737649">
   <ele>1205.00</ele>
   <time>2014-04-06T08:50:20Z</time>
  </trkpt>
  <trkpt lat="33.456024" lon="-2.737825">
   <ele>1205.00</ele>
   <time>2014-04-06T08:50:23Z</time>
  </trkpt>
  <trkpt lat="33.456204" lon="-2.737993">
   <ele>1205.00</ele>
   <time>2014-04-06T08:50:26Z</time>
  </trkpt>
  <trkpt lat="33.456398" lon="-2.738090">
   <ele>1206.00</ele>
   <time>2014-04-06T08:50:29Z</time>
  </trkpt>
  <trkpt lat="33.456587" lon="-2.738085">
   <ele>1206.00</ele>
   <time>2014-04-06T08:50:32Z</time>
  </trkpt>
  <trkpt lat="33.456697" lon="-2.738053">
   <ele>1206.00</ele>
   <time>2014-04-06T08:50:48Z</time>
  </trkpt>
  <trkpt lat="33.456688" lon="-2.738050">
   <ele>1205.00</ele>
   <time>2014-04-06T08:51:03Z</time>
  </trkpt>
  <trkpt lat="33.456681" lon="-2.738048">
   <ele>1204.00</ele>
   <time>2014-04-06T08:51:18Z</time>
  </trkpt>
  <trkpt lat="33.456862" lon="-2.738019">
   <ele>1203.00</ele>
   <time>2014-04-06T08:51:32Z</time>
  </trkpt>
  <trkpt lat="33.457103" lon="-2.737987">
   <ele>1202.00</ele>
   <time>2014-04-06T08:51:36Z</time>
  </trkpt>
  <trkpt lat="33.457316" lon="-2.738026">
   <ele>1202.00</ele>
   <time>2014-04-06T08:51:39Z</time>
  </trkpt>
  <trkpt lat="33.457567" lon="-2.738095">
   <ele>1202.00</ele>
   <time>2014-04-06T08:51:42Z</time>
  </trkpt>
  <trkpt lat="33.457758" lon="-2.738125">
   <ele>1202.00</ele>
   <time>2014-04-06T08:51:44Z</time>
  </trkpt>
  <trkpt lat="33.457958" lon="-2.738131">
   <ele>1202.00</ele>
   <time>2014-04-06T08:51:46Z</time>
  </trkpt>
  <trkpt lat="33.458162" lon="-2.738103">
   <ele>1202.00</ele>
   <time>2014-04-06T08:51:48Z</time>
  </trkpt>
  <trkpt lat="33.458370" lon="-2.738035">
   <ele>1202.00</ele>
   <time>2014-04-06T08:51:50Z</time>
  </trkpt>
  <trkpt lat="33.459099" lon="-2.737767">
   <ele>1204.00</ele>
   <time>2014-04-06T08:51:57Z</time>
  </trkpt>
  <trkpt lat="33.459298" lon="-2.737720">
   <ele>1204.00</ele>
   <time>2014-04-06T08:51:59Z</time>
  </trkpt>
  <trkpt lat="33.459597" lon="-2.737684">
   <ele>1204.00</ele>
   <time>2014-04-06T08:52:02Z</time>
  </trkpt>
  <trkpt lat="33.459798" lon="-2.737632">
   <ele>1203.00</ele>
   <time>2014-04-06T08:52:04Z</time>
  </trkpt>
  <trkpt lat="33.459998" lon="-2.737551">
   <ele>1203.00</ele>
   <time>2014-04-06T08:52:06Z</time>
  </trkpt>
  <trkpt lat="33.460284" lon="-2.737425">
   <ele>1204.00</ele>
   <time>2014-04-06T08:52:09Z</time>
  </trkpt>
  <trkpt lat="33.460530" lon="-2.737351">
   <ele>1203.00</ele>
   <time>2014-04-06T08:52:12Z</time>
  </trkpt>
  <trkpt lat="33.460789" lon="-2.737279">
   <ele>1203.00</ele>
   <time>2014-04-06T08:52:15Z</time>
  </trkpt>
  <trkpt lat="33.461079" lon="-2.737196">
   <ele>1203.00</ele>
   <time>2014-04-06T08:52:18Z</time>
  </trkpt>
  <trkpt lat="33.462053" lon="-2.736951">
   <ele>1203.00</ele>
   <time>2014-04-06T08:52:28Z</time>
  </trkpt>
  <trkpt lat="33.462328" lon="-2.736827">
   <ele>1203.00</ele>
   <time>2014-04-06T08:52:32Z</time>
  </trkpt>
  <trkpt lat="33.462766" lon="-2.736622">
   <ele>1203.00</ele>
   <time>2014-04-06T08:52:39Z</time>
  </trkpt>
  <trkpt lat="33.462989" lon="-2.736549">
   <ele>1203.00</ele>
   <time>2014-04-06T08:52:43Z</time>
  </trkpt>
  <trkpt lat="33.463169" lon="-2.736500">
   <ele>1203.00</ele>
   <time>2014-04-06T08:52:46Z</time>
  </trkpt>
  <trkpt lat="33.463361" lon="-2.736430">
   <ele>1203.00</ele>
   <time>2014-04-06T08:52:49Z</time>
  </trkpt>
  <trkpt lat="33.463581" lon="-2.736332">
   <ele>1203.00</ele>
   <time>2014-04-06T08:52:52Z</time>
  </trkpt>
  <trkpt lat="33.463801" lon="-2.736190">
   <ele>1203.00</ele>
   <time>2014-04-06T08:52:55Z</time>
  </trkpt>
  <trkpt lat="33.464007" lon="-2.735995">
   <ele>1203.00</ele>
   <time>2014-04-06T08:52:58Z</time>
  </trkpt>
  <trkpt lat="33.464147" lon="-2.735859">
   <ele>1203.00</ele>
   <time>2014-04-06T08:53:00Z</time>
  </trkpt>
  <trkpt lat="33.464304" lon="-2.735746">
   <ele>1203.00</ele>
   <time>2014-04-06T08:53:02Z</time>
  </trkpt>
  <trkpt lat="33.464483" lon="-2.735671">
   <ele>1203.00</ele>
   <time>2014-04-06T08:53:04Z</time>
  </trkpt>
  <trkpt lat="33.464677" lon="-2.735625">
   <ele>1204.00</ele>
   <time>2014-04-06T08:53:06Z</time>
  </trkpt>
  <trkpt lat="33.464876" lon="-2.735598">
   <ele>1204.00</ele>
   <time>2014-04-06T08:53:08Z</time>
  </trkpt>
  <trkpt lat="33.465075" lon="-2.735584">
   <ele>1203.00</ele>
   <time>2014-04-06T08:53:10Z</time>
  </trkpt>
  <trkpt lat="33.465273" lon="-2.735535">
   <ele>1203.00</ele>
   <time>2014-04-06T08:53:12Z</time>
  </trkpt>
  <trkpt lat="33.465467" lon="-2.735445">
   <ele>1203.00</ele>
   <time>2014-04-06T08:53:14Z</time>
  </trkpt>
  <trkpt lat="33.465649" lon="-2.735330">
   <ele>1203.00</ele>
   <time>2014-04-06T08:53:16Z</time>
  </trkpt>
  <trkpt lat="33.465821" lon="-2.735190">
   <ele>1203.00</ele>
   <time>2014-04-06T08:53:18Z</time>
  </trkpt>
  <trkpt lat="33.466004" lon="-2.735063">
   <ele>1203.00</ele>
   <time>2014-04-06T08:53:20Z</time>
  </trkpt>
  <trkpt lat="33.466194" lon="-2.734959">
   <ele>1203.00</ele>
   <time>2014-04-06T08:53:22Z</time>
  </trkpt>
  <trkpt lat="33.466557" lon="-2.734778">
   <ele>1202.00</ele>
   <time>2014-04-06T08:53:26Z</time>
  </trkpt>
  <trkpt lat="33.466738" lon="-2.734729">
   <ele>1202.00</ele>
   <time>2014-04-06T08:53:28Z</time>
  </trkpt>
  <trkpt lat="33.467000" lon="-2.734645">
   <ele>1203.00</ele>
   <time>2014-04-06T08:53:31Z</time>
  </trkpt>
  <trkpt lat="33.467167" lon="-2.734536">
   <ele>1203.00</ele>
   <time>2014-04-06T08:53:33Z</time>
  </trkpt>
  <trkpt lat="33.467496" lon="-2.734257">
   <ele>1203.00</ele>
   <time>2014-04-06T08:53:37Z</time>
  </trkpt>
  <trkpt lat="33.467646" lon="-2.734114">
   <ele>1203.00</ele>
   <time>2014-04-06T08:53:39Z</time>
  </trkpt>
  <trkpt lat="33.467854" lon="-2.733907">
   <ele>1203.00</ele>
   <time>2014-04-06T08:53:42Z</time>
  </trkpt>
  <trkpt lat="33.468016" lon="-2.733793">
   <ele>1203.00</ele>
   <time>2014-04-06T08:53:44Z</time>
  </trkpt>
  <trkpt lat="33.468182" lon="-2.733657">
   <ele>1203.00</ele>
   <time>2014-04-06T08:53:46Z</time>
  </trkpt>
  <trkpt lat="33.468534" lon="-2.733325">
   <ele>1202.00</ele>
   <time>2014-04-06T08:53:50Z</time>
  </trkpt>
  <trkpt lat="33.468729" lon="-2.733174">
   <ele>1202.00</ele>
   <time>2014-04-06T08:53:52Z</time>
  </trkpt>
  <trkpt lat="33.468932" lon="-2.733035">
   <ele>1202.00</ele>
   <time>2014-04-06T08:53:54Z</time>
  </trkpt>
  <trkpt lat="33.469447" lon="-2.732699">
   <ele>1202.00</ele>
   <time>2014-04-06T08:53:59Z</time>
  </trkpt>
  <trkpt lat="33.469650" lon="-2.732576">
   <ele>1203.00</ele>
   <time>2014-04-06T08:54:01Z</time>
  </trkpt>
  <trkpt lat="33.469952" lon="-2.732368">
   <ele>1202.00</ele>
   <time>2014-04-06T08:54:04Z</time>
  </trkpt>
  <trkpt lat="33.470370" lon="-2.732114">
   <ele>1202.00</ele>
   <time>2014-04-06T08:54:08Z</time>
  </trkpt>
  <trkpt lat="33.470572" lon="-2.731988">
   <ele>1202.00</ele>
   <time>2014-04-06T08:54:10Z</time>
  </trkpt>
  <trkpt lat="33.471249" lon="-2.731581">
   <ele>1202.00</ele>
   <time>2014-04-06T08:54:17Z</time>
  </trkpt>
  <trkpt lat="33.471421" lon="-2.731447">
   <ele>1202.00</ele>
   <time>2014-04-06T08:54:19Z</time>
  </trkpt>
  <trkpt lat="33.471588" lon="-2.731291">
   <ele>1202.00</ele>
   <time>2014-04-06T08:54:21Z</time>
  </trkpt>
  <trkpt lat="33.472119" lon="-2.730773">
   <ele>1202.00</ele>
   <time>2014-04-06T08:54:27Z</time>
  </trkpt>
  <trkpt lat="33.472812" lon="-2.730012">
   <ele>1202.00</ele>
   <time>2014-04-06T08:54:35Z</time>
  </trkpt>
  <trkpt lat="33.473188" lon="-2.729545">
   <ele>1201.00</ele>
   <time>2014-04-06T08:54:40Z</time>
  </trkpt>
  <trkpt lat="33.473355" lon="-2.729360">
   <ele>1201.00</ele>
   <time>2014-04-06T08:54:42Z</time>
  </trkpt>
  <trkpt lat="33.473536" lon="-2.729176">
   <ele>1201.00</ele>
   <time>2014-04-06T08:54:44Z</time>
  </trkpt>
  <trkpt lat="33.473729" lon="-2.728999">
   <ele>1202.00</ele>
   <time>2014-04-06T08:54:46Z</time>
  </trkpt>
  <trkpt lat="33.474218" lon="-2.728581">
   <ele>1201.00</ele>
   <time>2014-04-06T08:54:51Z</time>
  </trkpt>
  <trkpt lat="33.475357" lon="-2.727689">
   <ele>1200.00</ele>
   <time>2014-04-06T08:55:02Z</time>
  </trkpt>
  <trkpt lat="33.475578" lon="-2.727545">
   <ele>1200.00</ele>
   <time>2014-04-06T08:55:04Z</time>
  </trkpt>
  <trkpt lat="33.476257" lon="-2.727125">
   <ele>1200.00</ele>
   <time>2014-04-06T08:55:10Z</time>
  </trkpt>
  <trkpt lat="33.476703" lon="-2.726816">
   <ele>1199.00</ele>
   <time>2014-04-06T08:55:14Z</time>
  </trkpt>
  <trkpt lat="33.476922" lon="-2.726670">
   <ele>1199.00</ele>
   <time>2014-04-06T08:55:16Z</time>
  </trkpt>
  <trkpt lat="33.477131" lon="-2.726539">
   <ele>1199.00</ele>
   <time>2014-04-06T08:55:18Z</time>
  </trkpt>
  <trkpt lat="33.477438" lon="-2.726372">
   <ele>1198.00</ele>
   <time>2014-04-06T08:55:21Z</time>
  </trkpt>
  <trkpt lat="33.477833" lon="-2.726087">
   <ele>1198.00</ele>
   <time>2014-04-06T08:55:25Z</time>
  </trkpt>
  <trkpt lat="33.478036" lon="-2.725966">
   <ele>1198.00</ele>
   <time>2014-04-06T08:55:27Z</time>
  </trkpt>
  <trkpt lat="33.478637" lon="-2.725569">
   <ele>1197.00</ele>
   <time>2014-04-06T08:55:33Z</time>
  </trkpt>
  <trkpt lat="33.478836" lon="-2.725443">
   <ele>1197.00</ele>
   <time>2014-04-06T08:55:35Z</time>
  </trkpt>
  <trkpt lat="33.479131" lon="-2.725263">
   <ele>1197.00</ele>
   <time>2014-04-06T08:55:38Z</time>
  </trkpt>
  <trkpt lat="33.479504" lon="-2.725021">
   <ele>1197.00</ele>
   <time>2014-04-06T08:55:42Z</time>
  </trkpt>
  <trkpt lat="33.480294" lon="-2.724554">
   <ele>1197.00</ele>
   <time>2014-04-06T08:55:50Z</time>
  </trkpt>
  <trkpt lat="33.481874" lon="-2.723464">
   <ele>1197.00</ele>
   <time>2014-04-06T08:56:04Z</time>
  </trkpt>
  <trkpt lat="33.482061" lon="-2.723301">
   <ele>1197.00</ele>
   <time>2014-04-06T08:56:06Z</time>
  </trkpt>
  <trkpt lat="33.482226" lon="-2.723127">
   <ele>1197.00</ele>
   <time>2014-04-06T08:56:08Z</time>
  </trkpt>
  <trkpt lat="33.482395" lon="-2.722947">
   <ele>1197.00</ele>
   <time>2014-04-06T08:56:10Z</time>
  </trkpt>
  <trkpt lat="33.482666" lon="-2.722664">
   <ele>1197.00</ele>
   <time>2014-04-06T08:56:13Z</time>
  </trkpt>
  <trkpt lat="33.482853" lon="-2.722465">
   <ele>1196.00</ele>
   <time>2014-04-06T08:56:15Z</time>
  </trkpt>
  <trkpt lat="33.483050" lon="-2.722274">
   <ele>1196.00</ele>
   <time>2014-04-06T08:56:17Z</time>
  </trkpt>
  <trkpt lat="33.484580" lon="-2.720823">
   <ele>1196.00</ele>
   <time>2014-04-06T08:56:31Z</time>
  </trkpt>
  <trkpt lat="33.485401" lon="-2.719890">
   <ele>1195.00</ele>
   <time>2014-04-06T08:56:38Z</time>
  </trkpt>
  <trkpt lat="33.485630" lon="-2.719595">
   <ele>1195.00</ele>
   <time>2014-04-06T08:56:40Z</time>
  </trkpt>
  <trkpt lat="33.486364" lon="-2.718607">
   <ele>1195.00</ele>
   <time>2014-04-06T08:56:47Z</time>
  </trkpt>
  <trkpt lat="33.486644" lon="-2.718245">
   <ele>1195.00</ele>
   <time>2014-04-06T08:56:50Z</time>
  </trkpt>
  <trkpt lat="33.486885" lon="-2.717895">
   <ele>1195.00</ele>
   <time>2014-04-06T08:56:53Z</time>
  </trkpt>
  <trkpt lat="33.487200" lon="-2.717432">
   <ele>1195.00</ele>
   <time>2014-04-06T08:56:57Z</time>
  </trkpt>
  <trkpt lat="33.487372" lon="-2.717203">
   <ele>1195.00</ele>
   <time>2014-04-06T08:56:59Z</time>
  </trkpt>
  <trkpt lat="33.487519" lon="-2.716969">
   <ele>1195.00</ele>
   <time>2014-04-06T08:57:01Z</time>
  </trkpt>
  <trkpt lat="33.487679" lon="-2.716764">
   <ele>1195.00</ele>
   <time>2014-04-06T08:57:03Z</time>
  </trkpt>
  <trkpt lat="33.487941" lon="-2.716502">
   <ele>1195.00</ele>
   <time>2014-04-06T08:57:06Z</time>
  </trkpt>
  <trkpt lat="33.488379" lon="-2.716108">
   <ele>1195.00</ele>
   <time>2014-04-06T08:57:11Z</time>
  </trkpt>
  <trkpt lat="33.488638" lon="-2.715848">
   <ele>1194.00</ele>
   <time>2014-04-06T08:57:14Z</time>
  </trkpt>
  <trkpt lat="33.488903" lon="-2.715618">
   <ele>1194.00</ele>
   <time>2014-04-06T08:57:17Z</time>
  </trkpt>
  <trkpt lat="33.489068" lon="-2.715453">
   <ele>1194.00</ele>
   <time>2014-04-06T08:57:19Z</time>
  </trkpt>
  <trkpt lat="33.489323" lon="-2.715201">
   <ele>1193.00</ele>
   <time>2014-04-06T08:57:22Z</time>
  </trkpt>
  <trkpt lat="33.489481" lon="-2.715006">
   <ele>1193.00</ele>
   <time>2014-04-06T08:57:24Z</time>
  </trkpt>
  <trkpt lat="33.489797" lon="-2.714581">
   <ele>1193.00</ele>
   <time>2014-04-06T08:57:28Z</time>
  </trkpt>
  <trkpt lat="33.489960" lon="-2.714374">
   <ele>1193.00</ele>
   <time>2014-04-06T08:57:30Z</time>
  </trkpt>
  <trkpt lat="33.490352" lon="-2.713823">
   <ele>1193.00</ele>
   <time>2014-04-06T08:57:35Z</time>
  </trkpt>
  <trkpt lat="33.490499" lon="-2.713616">
   <ele>1192.00</ele>
   <time>2014-04-06T08:57:37Z</time>
  </trkpt>
  <trkpt lat="33.490660" lon="-2.713428">
   <ele>1192.00</ele>
   <time>2014-04-06T08:57:39Z</time>
  </trkpt>
  <trkpt lat="33.490841" lon="-2.713258">
   <ele>1192.00</ele>
   <time>2014-04-06T08:57:41Z</time>
  </trkpt>
  <trkpt lat="33.491042" lon="-2.713130">
   <ele>1192.00</ele>
   <time>2014-04-06T08:57:43Z</time>
  </trkpt>
  <trkpt lat="33.491405" lon="-2.712921">
   <ele>1192.00</ele>
   <time>2014-04-06T08:57:47Z</time>
  </trkpt>
  <trkpt lat="33.491644" lon="-2.712815">
   <ele>1192.00</ele>
   <time>2014-04-06T08:57:50Z</time>
  </trkpt>
  <trkpt lat="33.491882" lon="-2.712740">
   <ele>1191.00</ele>
   <time>2014-04-06T08:57:53Z</time>
  </trkpt>
  <trkpt lat="33.492186" lon="-2.712662">
   <ele>1191.00</ele>
   <time>2014-04-06T08:57:57Z</time>
  </trkpt>
  <trkpt lat="33.492408" lon="-2.712604">
   <ele>1191.00</ele>
   <time>2014-04-06T08:58:00Z</time>
  </trkpt>
  <trkpt lat="33.492607" lon="-2.712571">
   <ele>1191.00</ele>
   <time>2014-04-06T08:58:03Z</time>
  </trkpt>
  <trkpt lat="33.492787" lon="-2.712560">
   <ele>1191.00</ele>
   <time>2014-04-06T08:58:06Z</time>
  </trkpt>
  <trkpt lat="33.492979" lon="-2.712543">
   <ele>1191.00</ele>
   <time>2014-04-06T08:58:09Z</time>
  </trkpt>
  <trkpt lat="33.493183" lon="-2.712545">
   <ele>1191.00</ele>
   <time>2014-04-06T08:58:12Z</time>
  </trkpt>
  <trkpt lat="33.493380" lon="-2.712611">
   <ele>1190.00</ele>
   <time>2014-04-06T08:58:15Z</time>
  </trkpt>
  <trkpt lat="33.493589" lon="-2.712568">
   <ele>1189.00</ele>
   <time>2014-04-06T08:58:18Z</time>
  </trkpt>
  <trkpt lat="33.493787" lon="-2.712427">
   <ele>1189.00</ele>
   <time>2014-04-06T08:58:21Z</time>
  </trkpt>
  <trkpt lat="33.493957" lon="-2.712272">
   <ele>1188.00</ele>
   <time>2014-04-06T08:58:24Z</time>
  </trkpt>
  <trkpt lat="33.494130" lon="-2.712203">
   <ele>1187.00</ele>
   <time>2014-04-06T08:58:27Z</time>
  </trkpt>
  <trkpt lat="33.494323" lon="-2.712137">
   <ele>1187.00</ele>
   <time>2014-04-06T08:58:30Z</time>
  </trkpt>
  <trkpt lat="33.494523" lon="-2.712114">
   <ele>1187.00</ele>
   <time>2014-04-06T08:58:34Z</time>
  </trkpt>
  <trkpt lat="33.494701" lon="-2.712035">
   <ele>1187.00</ele>
   <time>2014-04-06T08:58:38Z</time>
  </trkpt>
  <trkpt lat="33.494936" lon="-2.711985">
   <ele>1187.00</ele>
   <time>2014-04-06T08:58:42Z</time>
  </trkpt>
  <trkpt lat="33.495330" lon="-2.711961">
   <ele>1186.00</ele>
   <time>2014-04-06T08:58:47Z</time>
  </trkpt>
  <trkpt lat="33.495512" lon="-2.711958">
   <ele>1186.00</ele>
   <time>2014-04-06T08:58:49Z</time>
  </trkpt>
  <trkpt lat="33.495786" lon="-2.711961">
   <ele>1186.00</ele>
   <time>2014-04-06T08:58:52Z</time>
  </trkpt>
  <trkpt lat="33.496060" lon="-2.711954">
   <ele>1186.00</ele>
   <time>2014-04-06T08:58:55Z</time>
  </trkpt>
  <trkpt lat="33.496363" lon="-2.711958">
   <ele>1186.00</ele>
   <time>2014-04-06T08:58:58Z</time>
  </trkpt>
  <trkpt lat="33.496579" lon="-2.711947">
   <ele>1186.00</ele>
   <time>2014-04-06T08:59:00Z</time>
  </trkpt>
  <trkpt lat="33.496798" lon="-2.711919">
   <ele>1186.00</ele>
   <time>2014-04-06T08:59:02Z</time>
  </trkpt>
  <trkpt lat="33.497232" lon="-2.711856">
   <ele>1186.00</ele>
   <time>2014-04-06T08:59:06Z</time>
  </trkpt>
  <trkpt lat="33.497549" lon="-2.711822">
   <ele>1186.00</ele>
   <time>2014-04-06T08:59:09Z</time>
  </trkpt>
  <trkpt lat="33.497748" lon="-2.711770">
   <ele>1185.00</ele>
   <time>2014-04-06T08:59:11Z</time>
  </trkpt>
  <trkpt lat="33.497945" lon="-2.711722">
   <ele>1185.00</ele>
   <time>2014-04-06T08:59:13Z</time>
  </trkpt>
  <trkpt lat="33.498146" lon="-2.711702">
   <ele>1185.00</ele>
   <time>2014-04-06T08:59:15Z</time>
  </trkpt>
  <trkpt lat="33.498390" lon="-2.711654">
   <ele>1185.00</ele>
   <time>2014-04-06T08:59:18Z</time>
  </trkpt>
  <trkpt lat="33.498536" lon="-2.711466">
   <ele>1185.00</ele>
   <time>2014-04-06T08:59:21Z</time>
  </trkpt>
  <trkpt lat="33.498694" lon="-2.711252">
   <ele>1185.00</ele>
   <time>2014-04-06T08:59:24Z</time>
  </trkpt>
  <trkpt lat="33.498922" lon="-2.711071">
   <ele>1185.00</ele>
   <time>2014-04-06T08:59:27Z</time>
  </trkpt>
  <trkpt lat="33.499081" lon="-2.710930">
   <ele>1185.00</ele>
   <time>2014-04-06T08:59:29Z</time>
  </trkpt>
  <trkpt lat="33.499320" lon="-2.710704">
   <ele>1186.00</ele>
   <time>2014-04-06T08:59:32Z</time>
  </trkpt>
  <trkpt lat="33.499545" lon="-2.710468">
   <ele>1186.00</ele>
   <time>2014-04-06T08:59:35Z</time>
  </trkpt>
  <trkpt lat="33.499753" lon="-2.710244">
   <ele>1186.00</ele>
   <time>2014-04-06T08:59:38Z</time>
  </trkpt>
  <trkpt lat="33.499913" lon="-2.710105">
   <ele>1186.00</ele>
   <time>2014-04-06T08:59:40Z</time>
  </trkpt>
  <trkpt lat="33.500084" lon="-2.709970">
   <ele>1186.00</ele>
   <time>2014-04-06T08:59:42Z</time>
  </trkpt>
  <trkpt lat="33.500263" lon="-2.709849">
   <ele>1186.00</ele>
   <time>2014-04-06T08:59:44Z</time>
  </trkpt>
  <trkpt lat="33.500454" lon="-2.709744">
   <ele>1186.00</ele>
   <time>2014-04-06T08:59:46Z</time>
  </trkpt>
  <trkpt lat="33.500643" lon="-2.709654">
   <ele>1186.00</ele>
   <time>2014-04-06T08:59:48Z</time>
  </trkpt>
  <trkpt lat="33.500828" lon="-2.709587">
   <ele>1186.00</ele>
   <time>2014-04-06T08:59:50Z</time>
  </trkpt>
  <trkpt lat="33.501023" lon="-2.709565">
   <ele>1186.00</ele>
   <time>2014-04-06T08:59:53Z</time>
  </trkpt>
  <trkpt lat="33.501028" lon="-2.709577">
   <ele>1186.00</ele>
   <time>2014-04-06T09:00:09Z</time>
  </trkpt>
  <trkpt lat="33.501016" lon="-2.709583">
   <ele>1186.00</ele>
   <time>2014-04-06T09:00:24Z</time>
  </trkpt>
  <trkpt lat="33.501010" lon="-2.709586">
   <ele>1186.00</ele>
   <time>2014-04-06T09:00:39Z</time>
  </trkpt>
  <trkpt lat="33.501006" lon="-2.709588">
   <ele>1186.00</ele>
   <time>2014-04-06T09:00:55Z</time>
  </trkpt>
  <trkpt lat="33.501003" lon="-2.709589">
   <ele>1186.00</ele>
   <time>2014-04-06T09:01:10Z</time>
  </trkpt>
  <trkpt lat="33.501003" lon="-2.709589">
   <ele>1186.00</ele>
   <time>2014-04-06T09:01:25Z</time>
  </trkpt>
  <trkpt lat="33.501213" lon="-2.709619">
   <ele>1186.00</ele>
   <time>2014-04-06T09:01:41Z</time>
  </trkpt>
  <trkpt lat="33.501390" lon="-2.709548">
   <ele>1185.00</ele>
   <time>2014-04-06T09:01:45Z</time>
  </trkpt>
  <trkpt lat="33.501459" lon="-2.709327">
   <ele>1184.00</ele>
   <time>2014-04-06T09:01:49Z</time>
  </trkpt>
  <trkpt lat="33.501422" lon="-2.709096">
   <ele>1184.00</ele>
   <time>2014-04-06T09:01:53Z</time>
  </trkpt>
  <trkpt lat="33.501476" lon="-2.708904">
   <ele>1184.00</ele>
   <time>2014-04-06T09:01:59Z</time>
  </trkpt>
  <trkpt lat="33.501626" lon="-2.708726">
   <ele>1184.00</ele>
   <time>2014-04-06T09:02:05Z</time>
  </trkpt>
  <trkpt lat="33.501781" lon="-2.708606">
   <ele>1185.00</ele>
   <time>2014-04-06T09:02:14Z</time>
  </trkpt>
  <trkpt lat="33.501913" lon="-2.708446">
   <ele>1185.00</ele>
   <time>2014-04-06T09:02:20Z</time>
  </trkpt>
  <trkpt lat="33.502080" lon="-2.708307">
   <ele>1185.00</ele>
   <time>2014-04-06T09:02:24Z</time>
  </trkpt>
  <trkpt lat="33.502274" lon="-2.708221">
   <ele>1186.00</ele>
   <time>2014-04-06T09:02:27Z</time>
  </trkpt>
  <trkpt lat="33.502498" lon="-2.708166">
   <ele>1186.00</ele>
   <time>2014-04-06T09:02:30Z</time>
  </trkpt>
  <trkpt lat="33.502758" lon="-2.708095">
   <ele>1186.00</ele>
   <time>2014-04-06T09:02:33Z</time>
  </trkpt>
  <trkpt lat="33.503054" lon="-2.707999">
   <ele>1186.00</ele>
   <time>2014-04-06T09:02:36Z</time>
  </trkpt>
  <trkpt lat="33.503277" lon="-2.707953">
   <ele>1186.00</ele>
   <time>2014-04-06T09:02:38Z</time>
  </trkpt>
  <trkpt lat="33.503512" lon="-2.707892">
   <ele>1185.00</ele>
   <time>2014-04-06T09:02:40Z</time>
  </trkpt>
  <trkpt lat="33.503748" lon="-2.707808">
   <ele>1185.00</ele>
   <time>2014-04-06T09:02:42Z</time>
  </trkpt>
  <trkpt lat="33.504241" lon="-2.707615">
   <ele>1184.00</ele>
   <time>2014-04-06T09:02:46Z</time>
  </trkpt>
  <trkpt lat="33.505100" lon="-2.707230">
   <ele>1184.00</ele>
   <time>2014-04-06T09:02:53Z</time>
  </trkpt>
  <trkpt lat="33.505350" lon="-2.707142">
   <ele>1184.00</ele>
   <time>2014-04-06T09:02:55Z</time>
  </trkpt>
  <trkpt lat="33.505586" lon="-2.707055">
   <ele>1184.00</ele>
   <time>2014-04-06T09:02:57Z</time>
  </trkpt>
  <trkpt lat="33.505803" lon="-2.706953">
   <ele>1184.00</ele>
   <time>2014-04-06T09:02:59Z</time>
  </trkpt>
  <trkpt lat="33.505998" lon="-2.706815">
   <ele>1184.00</ele>
   <time>2014-04-06T09:03:01Z</time>
  </trkpt>
  <trkpt lat="33.506175" lon="-2.706639">
   <ele>1184.00</ele>
   <time>2014-04-06T09:03:03Z</time>
  </trkpt>
  <trkpt lat="33.506330" lon="-2.706432">
   <ele>1183.00</ele>
   <time>2014-04-06T09:03:05Z</time>
  </trkpt>
  <trkpt lat="33.506463" lon="-2.706210">
   <ele>1183.00</ele>
   <time>2014-04-06T09:03:07Z</time>
  </trkpt>
  <trkpt lat="33.506629" lon="-2.705932">
   <ele>1183.00</ele>
   <time>2014-04-06T09:03:10Z</time>
  </trkpt>
  <trkpt lat="33.506806" lon="-2.705812">
   <ele>1183.00</ele>
   <time>2014-04-06T09:03:13Z</time>
  </trkpt>
  <trkpt lat="33.507037" lon="-2.705833">
   <ele>1183.00</ele>
   <time>2014-04-06T09:03:16Z</time>
  </trkpt>
  <trkpt lat="33.507289" lon="-2.705878">
   <ele>1184.00</ele>
   <time>2014-04-06T09:03:19Z</time>
  </trkpt>
  <trkpt lat="33.507524" lon="-2.705948">
   <ele>1183.00</ele>
   <time>2014-04-06T09:03:22Z</time>
  </trkpt>
  <trkpt lat="33.507741" lon="-2.706035">
   <ele>1183.00</ele>
   <time>2014-04-06T09:03:25Z</time>
  </trkpt>
  <trkpt lat="33.507965" lon="-2.706081">
   <ele>1183.00</ele>
   <time>2014-04-06T09:03:28Z</time>
  </trkpt>
  <trkpt lat="33.508198" lon="-2.706074">
   <ele>1183.00</ele>
   <time>2014-04-06T09:03:31Z</time>
  </trkpt>
  <trkpt lat="33.508450" lon="-2.706004">
   <ele>1183.00</ele>
   <time>2014-04-06T09:03:34Z</time>
  </trkpt>
  <trkpt lat="33.508714" lon="-2.705920">
   <ele>1183.00</ele>
   <time>2014-04-06T09:03:37Z</time>
  </trkpt>
  <trkpt lat="33.508884" lon="-2.705849">
   <ele>1182.00</ele>
   <time>2014-04-06T09:03:39Z</time>
  </trkpt>
  <trkpt lat="33.509123" lon="-2.705698">
   <ele>1182.00</ele>
   <time>2014-04-06T09:03:42Z</time>
  </trkpt>
  <trkpt lat="33.509349" lon="-2.705509">
   <ele>1182.00</ele>
   <time>2014-04-06T09:03:45Z</time>
  </trkpt>
  <trkpt lat="33.509497" lon="-2.705374">
   <ele>1182.00</ele>
   <time>2014-04-06T09:03:47Z</time>
  </trkpt>
  <trkpt lat="33.509715" lon="-2.705155">
   <ele>1182.00</ele>
   <time>2014-04-06T09:03:50Z</time>
  </trkpt>
  <trkpt lat="33.509845" lon="-2.704990">
   <ele>1182.00</ele>
   <time>2014-04-06T09:03:52Z</time>
  </trkpt>
  <trkpt lat="33.510340" lon="-2.704281">
   <ele>1182.00</ele>
   <time>2014-04-06T09:04:00Z</time>
  </trkpt>
  <trkpt lat="33.510481" lon="-2.704115">
   <ele>1182.00</ele>
   <time>2014-04-06T09:04:02Z</time>
  </trkpt>
  <trkpt lat="33.510638" lon="-2.703967">
   <ele>1182.00</ele>
   <time>2014-04-06T09:04:04Z</time>
  </trkpt>
  <trkpt lat="33.510811" lon="-2.703836">
   <ele>1182.00</ele>
   <time>2014-04-06T09:04:06Z</time>
  </trkpt>
  <trkpt lat="33.510995" lon="-2.703724">
   <ele>1182.00</ele>
   <time>2014-04-06T09:04:08Z</time>
  </trkpt>
  <trkpt lat="33.511183" lon="-2.703629">
   <ele>1182.00</ele>
   <time>2014-04-06T09:04:10Z</time>
  </trkpt>
  <trkpt lat="33.511484" lon="-2.703484">
   <ele>1182.00</ele>
   <time>2014-04-06T09:04:13Z</time>
  </trkpt>
  <trkpt lat="33.511684" lon="-2.703352">
   <ele>1182.00</ele>
   <time>2014-04-06T09:04:15Z</time>
  </trkpt>
  <trkpt lat="33.511890" lon="-2.703229">
   <ele>1182.00</ele>
   <time>2014-04-06T09:04:17Z</time>
  </trkpt>
  <trkpt lat="33.512109" lon="-2.703128">
   <ele>1182.00</ele>
   <time>2014-04-06T09:04:19Z</time>
  </trkpt>
  <trkpt lat="33.512753" lon="-2.702872">
   <ele>1182.00</ele>
   <time>2014-04-06T09:04:25Z</time>
  </trkpt>
  <trkpt lat="33.512935" lon="-2.702764">
   <ele>1182.00</ele>
   <time>2014-04-06T09:04:27Z</time>
  </trkpt>
  <trkpt lat="33.513124" lon="-2.702564">
   <ele>1183.00</ele>
   <time>2014-04-06T09:04:30Z</time>
  </trkpt>
  <trkpt lat="33.513274" lon="-2.702405">
   <ele>1183.00</ele>
   <time>2014-04-06T09:04:33Z</time>
  </trkpt>
  <trkpt lat="33.513450" lon="-2.702333">
   <ele>1183.00</ele>
   <time>2014-04-06T09:04:36Z</time>
  </trkpt>
  <trkpt lat="33.513678" lon="-2.702242">
   <ele>1184.00</ele>
   <time>2014-04-06T09:04:40Z</time>
  </trkpt>
  <trkpt lat="33.513871" lon="-2.702223">
   <ele>1184.00</ele>
   <time>2014-04-06T09:04:43Z</time>
  </trkpt>
  <trkpt lat="33.514077" lon="-2.702214">
   <ele>1183.00</ele>
   <time>2014-04-06T09:04:46Z</time>
  </trkpt>
  <trkpt lat="33.514281" lon="-2.702207">
   <ele>1183.00</ele>
   <time>2014-04-06T09:04:49Z</time>
  </trkpt>
  <trkpt lat="33.514467" lon="-2.702225">
   <ele>1183.00</ele>
   <time>2014-04-06T09:04:52Z</time>
  </trkpt>
  <trkpt lat="33.514644" lon="-2.702274">
   <ele>1183.00</ele>
   <time>2014-04-06T09:04:56Z</time>
  </trkpt>
  <trkpt lat="33.514790" lon="-2.702463">
   <ele>1182.00</ele>
   <time>2014-04-06T09:05:03Z</time>
  </trkpt>
  <trkpt lat="33.514815" lon="-2.702704">
   <ele>1181.00</ele>
   <time>2014-04-06T09:05:07Z</time>
  </trkpt>
  <trkpt lat="33.514854" lon="-2.702926">
   <ele>1181.00</ele>
   <time>2014-04-06T09:05:13Z</time>
  </trkpt>
  <trkpt lat="33.515007" lon="-2.702822">
   <ele>1181.00</ele>
   <time>2014-04-06T09:05:18Z</time>
  </trkpt>
  <trkpt lat="33.514975" lon="-2.702611">
   <ele>1181.00</ele>
   <time>2014-04-06T09:05:22Z</time>
  </trkpt>
  <trkpt lat="33.514823" lon="-2.702458">
   <ele>1182.00</ele>
   <time>2014-04-06T09:05:26Z</time>
  </trkpt>
  <trkpt lat="33.514705" lon="-2.702255">
   <ele>1182.00</ele>
   <time>2014-04-06T09:05:30Z</time>
  </trkpt>
  <trkpt lat="33.514640" lon="-2.702053">
   <ele>1182.00</ele>
   <time>2014-04-06T09:05:33Z</time>
  </trkpt>
  <trkpt lat="33.514613" lon="-2.701822">
   <ele>1182.00</ele>
   <time>2014-04-06T09:05:36Z</time>
  </trkpt>
  <trkpt lat="33.514639" lon="-2.701587">
   <ele>1183.00</ele>
   <time>2014-04-06T09:05:39Z</time>
  </trkpt>
  <trkpt lat="33.514692" lon="-2.701346">
   <ele>1183.00</ele>
   <time>2014-04-06T09:05:42Z</time>
  </trkpt>
  <trkpt lat="33.514761" lon="-2.701074">
   <ele>1183.00</ele>
   <time>2014-04-06T09:05:45Z</time>
  </trkpt>
  <trkpt lat="33.514854" lon="-2.700621">
   <ele>1184.00</ele>
   <time>2014-04-06T09:05:50Z</time>
  </trkpt>
  <trkpt lat="33.514941" lon="-2.700347">
   <ele>1184.00</ele>
   <time>2014-04-06T09:05:53Z</time>
  </trkpt>
  <trkpt lat="33.515048" lon="-2.700068">
   <ele>1184.00</ele>
   <time>2014-04-06T09:05:56Z</time>
  </trkpt>
  <trkpt lat="33.515274" lon="-2.699495">
   <ele>1183.00</ele>
   <time>2014-04-06T09:06:03Z</time>
  </trkpt>
  <trkpt lat="33.515387" lon="-2.699169">
   <ele>1182.00</ele>
   <time>2014-04-06T09:06:07Z</time>
  </trkpt>
  <trkpt lat="33.515460" lon="-2.698897">
   <ele>1183.00</ele>
   <time>2014-04-06T09:06:10Z</time>
  </trkpt>
  <trkpt lat="33.515499" lon="-2.698607">
   <ele>1183.00</ele>
   <time>2014-04-06T09:06:13Z</time>
  </trkpt>
  <trkpt lat="33.515570" lon="-2.698309">
   <ele>1183.00</ele>
   <time>2014-04-06T09:06:16Z</time>
  </trkpt>
  <trkpt lat="33.515658" lon="-2.698118">
   <ele>1182.00</ele>
   <time>2014-04-06T09:06:18Z</time>
  </trkpt>
  <trkpt lat="33.515769" lon="-2.697945">
   <ele>1182.00</ele>
   <time>2014-04-06T09:06:20Z</time>
  </trkpt>
  <trkpt lat="33.515898" lon="-2.697792">
   <ele>1182.00</ele>
   <time>2014-04-06T09:06:22Z</time>
  </trkpt>
  <trkpt lat="33.516041" lon="-2.697659">
   <ele>1182.00</ele>
   <time>2014-04-06T09:06:24Z</time>
  </trkpt>
  <trkpt lat="33.516198" lon="-2.697554">
   <ele>1182.00</ele>
   <time>2014-04-06T09:06:26Z</time>
  </trkpt>
  <trkpt lat="33.516442" lon="-2.697453">
   <ele>1182.00</ele>
   <time>2014-04-06T09:06:29Z</time>
  </trkpt>
  <trkpt lat="33.516818" lon="-2.697336">
   <ele>1181.00</ele>
   <time>2014-04-06T09:06:34Z</time>
  </trkpt>
  <trkpt lat="33.516996" lon="-2.697211">
   <ele>1181.00</ele>
   <time>2014-04-06T09:06:37Z</time>
  </trkpt>
  <trkpt lat="33.517179" lon="-2.697015">
   <ele>1182.00</ele>
   <time>2014-04-06T09:06:41Z</time>
  </trkpt>
  <trkpt lat="33.517392" lon="-2.697049">
   <ele>1181.00</ele>
   <time>2014-04-06T09:06:45Z</time>
  </trkpt>
  <trkpt lat="33.517573" lon="-2.697094">
   <ele>1180.00</ele>
   <time>2014-04-06T09:06:48Z</time>
  </trkpt>
  <trkpt lat="33.517773" lon="-2.697030">
   <ele>1181.00</ele>
   <time>2014-04-06T09:06:52Z</time>
  </trkpt>
  <trkpt lat="33.517849" lon="-2.696831">
   <ele>1181.00</ele>
   <time>2014-04-06T09:06:55Z</time>
  </trkpt>
  <trkpt lat="33.517937" lon="-2.696598">
   <ele>1181.00</ele>
   <time>2014-04-06T09:06:58Z</time>
  </trkpt>
  <trkpt lat="33.518051" lon="-2.696357">
   <ele>1181.00</ele>
   <time>2014-04-06T09:07:01Z</time>
  </trkpt>
  <trkpt lat="33.518193" lon="-2.696124">
   <ele>1181.00</ele>
   <time>2014-04-06T09:07:04Z</time>
  </trkpt>
  <trkpt lat="33.518369" lon="-2.695899">
   <ele>1181.00</ele>
   <time>2014-04-06T09:07:07Z</time>
  </trkpt>
  <trkpt lat="33.518809" lon="-2.695391">
   <ele>1180.00</ele>
   <time>2014-04-06T09:07:14Z</time>
  </trkpt>
  <trkpt lat="33.518984" lon="-2.695178">
   <ele>1180.00</ele>
   <time>2014-04-06T09:07:17Z</time>
  </trkpt>
  <trkpt lat="33.519193" lon="-2.695035">
   <ele>1180.00</ele>
   <time>2014-04-06T09:07:20Z</time>
  </trkpt>
  <trkpt lat="33.519415" lon="-2.694938">
   <ele>1180.00</ele>
   <time>2014-04-06T09:07:23Z</time>
  </trkpt>
  <trkpt lat="33.519634" lon="-2.694869">
   <ele>1179.00</ele>
   <time>2014-04-06T09:07:26Z</time>
  </trkpt>
  <trkpt lat="33.519861" lon="-2.694845">
   <ele>1179.00</ele>
   <time>2014-04-06T09:07:29Z</time>
  </trkpt>
  <trkpt lat="33.520092" lon="-2.694833">
   <ele>1178.00</ele>
   <time>2014-04-06T09:07:32Z</time>
  </trkpt>
  <trkpt lat="33.520280" lon="-2.694835">
   <ele>1178.00</ele>
   <time>2014-04-06T09:07:35Z</time>
  </trkpt>
  <trkpt lat="33.520446" lon="-2.694780">
   <ele>1178.00</ele>
   <time>2014-04-06T09:07:44Z</time>
  </trkpt>
  <trkpt lat="33.520585" lon="-2.694609">
   <ele>1177.00</ele>
   <time>2014-04-06T09:07:50Z</time>
  </trkpt>
  <trkpt lat="33.520706" lon="-2.694399">
   <ele>1178.00</ele>
   <time>2014-04-06T09:07:54Z</time>
  </trkpt>
  <trkpt lat="33.520788" lon="-2.694169">
   <ele>1178.00</ele>
   <time>2014-04-06T09:07:57Z</time>
  </trkpt>
  <trkpt lat="33.520876" lon="-2.693976">
   <ele>1179.00</ele>
   <time>2014-04-06T09:08:00Z</time>
  </trkpt>
  <trkpt lat="33.521048" lon="-2.693873">
   <ele>1179.00</ele>
   <time>2014-04-06T09:08:03Z</time>
  </trkpt>
  <trkpt lat="33.521269" lon="-2.693761">
   <ele>1179.00</ele>
   <time>2014-04-06T09:08:06Z</time>
  </trkpt>
  <trkpt lat="33.521491" lon="-2.693572">
   <ele>1179.00</ele>
   <time>2014-04-06T09:08:09Z</time>
  </trkpt>
  <trkpt lat="33.521652" lon="-2.693443">
   <ele>1179.00</ele>
   <time>2014-04-06T09:08:11Z</time>
  </trkpt>
  <trkpt lat="33.521909" lon="-2.693256">
   <ele>1179.00</ele>
   <time>2014-04-06T09:08:14Z</time>
  </trkpt>
  <trkpt lat="33.522370" lon="-2.692950">
   <ele>1178.00</ele>
   <time>2014-04-06T09:08:19Z</time>
  </trkpt>
  <trkpt lat="33.522545" lon="-2.692807">
   <ele>1178.00</ele>
   <time>2014-04-06T09:08:21Z</time>
  </trkpt>
  <trkpt lat="33.522708" lon="-2.692646">
   <ele>1178.00</ele>
   <time>2014-04-06T09:08:23Z</time>
  </trkpt>
  <trkpt lat="33.522945" lon="-2.692408">
   <ele>1178.00</ele>
   <time>2014-04-06T09:08:26Z</time>
  </trkpt>
  <trkpt lat="33.523133" lon="-2.692276">
   <ele>1178.00</ele>
   <time>2014-04-06T09:08:28Z</time>
  </trkpt>
  <trkpt lat="33.523346" lon="-2.692198">
   <ele>1178.00</ele>
   <time>2014-04-06T09:08:30Z</time>
  </trkpt>
  <trkpt lat="33.523672" lon="-2.692140">
   <ele>1178.00</ele>
   <time>2014-04-06T09:08:33Z</time>
  </trkpt>
  <trkpt lat="33.523890" lon="-2.692125">
   <ele>1178.00</ele>
   <time>2014-04-06T09:08:35Z</time>
  </trkpt>
  <trkpt lat="33.524231" lon="-2.692109">
   <ele>1177.00</ele>
   <time>2014-04-06T09:08:38Z</time>
  </trkpt>
  <trkpt lat="33.524460" lon="-2.692057">
   <ele>1177.00</ele>
   <time>2014-04-06T09:08:40Z</time>
  </trkpt>
  <trkpt lat="33.524917" lon="-2.691922">
   <ele>1177.00</ele>
   <time>2014-04-06T09:08:44Z</time>
  </trkpt>
  <trkpt lat="33.525157" lon="-2.691867">
   <ele>1176.00</ele>
   <time>2014-04-06T09:08:46Z</time>
  </trkpt>
  <trkpt lat="33.525777" lon="-2.691744">
   <ele>1175.00</ele>
   <time>2014-04-06T09:08:51Z</time>
  </trkpt>
  <trkpt lat="33.526731" lon="-2.691474">
   <ele>1176.00</ele>
   <time>2014-04-06T09:08:59Z</time>
  </trkpt>
  <trkpt lat="33.527209" lon="-2.691306">
   <ele>1175.00</ele>
   <time>2014-04-06T09:09:03Z</time>
  </trkpt>
  <trkpt lat="33.527438" lon="-2.691208">
   <ele>1175.00</ele>
   <time>2014-04-06T09:09:05Z</time>
  </trkpt>
  <trkpt lat="33.527652" lon="-2.691090">
   <ele>1175.00</ele>
   <time>2014-04-06T09:09:07Z</time>
  </trkpt>
  <trkpt lat="33.527850" lon="-2.690938">
   <ele>1175.00</ele>
   <time>2014-04-06T09:09:09Z</time>
  </trkpt>
  <trkpt lat="33.528035" lon="-2.690749">
   <ele>1175.00</ele>
   <time>2014-04-06T09:09:11Z</time>
  </trkpt>
  <trkpt lat="33.528226" lon="-2.690557">
   <ele>1175.00</ele>
   <time>2014-04-06T09:09:13Z</time>
  </trkpt>
  <trkpt lat="33.528434" lon="-2.690387">
   <ele>1175.00</ele>
   <time>2014-04-06T09:09:15Z</time>
  </trkpt>
  <trkpt lat="33.528661" lon="-2.690253">
   <ele>1175.00</ele>
   <time>2014-04-06T09:09:17Z</time>
  </trkpt>
  <trkpt lat="33.529129" lon="-2.690015">
   <ele>1175.00</ele>
   <time>2014-04-06T09:09:21Z</time>
  </trkpt>
  <trkpt lat="33.529355" lon="-2.689857">
   <ele>1175.00</ele>
   <time>2014-04-06T09:09:23Z</time>
  </trkpt>
  <trkpt lat="33.529578" lon="-2.689683">
   <ele>1175.00</ele>
   <time>2014-04-06T09:09:25Z</time>
  </trkpt>
  <trkpt lat="33.529795" lon="-2.689497">
   <ele>1175.00</ele>
   <time>2014-04-06T09:09:27Z</time>
  </trkpt>
  <trkpt lat="33.530301" lon="-2.689038">
   <ele>1175.00</ele>
   <time>2014-04-06T09:09:32Z</time>
  </trkpt>
  <trkpt lat="33.530517" lon="-2.688913">
   <ele>1175.00</ele>
   <time>2014-04-06T09:09:34Z</time>
  </trkpt>
  <trkpt lat="33.530853" lon="-2.688747">
   <ele>1174.00</ele>
   <time>2014-04-06T09:09:37Z</time>
  </trkpt>
  <trkpt lat="33.531072" lon="-2.688615">
   <ele>1175.00</ele>
   <time>2014-04-06T09:09:39Z</time>
  </trkpt>
  <trkpt lat="33.531278" lon="-2.688455">
   <ele>1174.00</ele>
   <time>2014-04-06T09:09:41Z</time>
  </trkpt>
  <trkpt lat="33.531881" lon="-2.687889">
   <ele>1174.00</ele>
   <time>2014-04-06T09:09:47Z</time>
  </trkpt>
  <trkpt lat="33.532081" lon="-2.687683">
   <ele>1174.00</ele>
   <time>2014-04-06T09:09:49Z</time>
  </trkpt>
  <trkpt lat="33.532757" lon="-2.686924">
   <ele>1174.00</ele>
   <time>2014-04-06T09:09:56Z</time>
  </trkpt>
  <trkpt lat="33.533115" lon="-2.686492">
   <ele>1173.00</ele>
   <time>2014-04-06T09:10:00Z</time>
  </trkpt>
  <trkpt lat="33.533270" lon="-2.686258">
   <ele>1173.00</ele>
   <time>2014-04-06T09:10:02Z</time>
  </trkpt>
  <trkpt lat="33.533429" lon="-2.686028">
   <ele>1173.00</ele>
   <time>2014-04-06T09:10:04Z</time>
  </trkpt>
  <trkpt lat="33.534618" lon="-2.684388">
   <ele>1172.00</ele>
   <time>2014-04-06T09:10:19Z</time>
  </trkpt>
  <trkpt lat="33.535590" lon="-2.683077">
   <ele>1171.00</ele>
   <time>2014-04-06T09:10:30Z</time>
  </trkpt>
  <trkpt lat="33.535786" lon="-2.682862">
   <ele>1171.00</ele>
   <time>2014-04-06T09:10:32Z</time>
  </trkpt>
  <trkpt lat="33.536270" lon="-2.682355">
   <ele>1171.00</ele>
   <time>2014-04-06T09:10:37Z</time>
  </trkpt>
  <trkpt lat="33.536467" lon="-2.682195">
   <ele>1171.00</ele>
   <time>2014-04-06T09:10:39Z</time>
  </trkpt>
  <trkpt lat="33.536667" lon="-2.682075">
   <ele>1170.00</ele>
   <time>2014-04-06T09:10:41Z</time>
  </trkpt>
  <trkpt lat="33.536864" lon="-2.681971">
   <ele>1170.00</ele>
   <time>2014-04-06T09:10:43Z</time>
  </trkpt>
  <trkpt lat="33.537049" lon="-2.681840">
   <ele>1170.00</ele>
   <time>2014-04-06T09:10:45Z</time>
  </trkpt>
  <trkpt lat="33.537223" lon="-2.681675">
   <ele>1169.00</ele>
   <time>2014-04-06T09:10:47Z</time>
  </trkpt>
  <trkpt lat="33.537489" lon="-2.681403">
   <ele>1169.00</ele>
   <time>2014-04-06T09:10:50Z</time>
  </trkpt>
  <trkpt lat="33.537692" lon="-2.681247">
   <ele>1169.00</ele>
   <time>2014-04-06T09:10:52Z</time>
  </trkpt>
  <trkpt lat="33.537912" lon="-2.681113">
   <ele>1169.00</ele>
   <time>2014-04-06T09:10:54Z</time>
  </trkpt>
  <trkpt lat="33.538606" lon="-2.680745">
   <ele>1169.00</ele>
   <time>2014-04-06T09:11:00Z</time>
  </trkpt>
  <trkpt lat="33.538843" lon="-2.680648">
   <ele>1170.00</ele>
   <time>2014-04-06T09:11:02Z</time>
  </trkpt>
  <trkpt lat="33.539072" lon="-2.680554">
   <ele>1170.00</ele>
   <time>2014-04-06T09:11:04Z</time>
  </trkpt>
  <trkpt lat="33.539292" lon="-2.680458">
   <ele>1170.00</ele>
   <time>2014-04-06T09:11:06Z</time>
  </trkpt>
  <trkpt lat="33.539511" lon="-2.680382">
   <ele>1169.00</ele>
   <time>2014-04-06T09:11:08Z</time>
  </trkpt>
  <trkpt lat="33.539728" lon="-2.680309">
   <ele>1169.00</ele>
   <time>2014-04-06T09:11:10Z</time>
  </trkpt>
  <trkpt lat="33.539937" lon="-2.680209">
   <ele>1169.00</ele>
   <time>2014-04-06T09:11:12Z</time>
  </trkpt>
  <trkpt lat="33.540143" lon="-2.680080">
   <ele>1169.00</ele>
   <time>2014-04-06T09:11:14Z</time>
  </trkpt>
  <trkpt lat="33.540454" lon="-2.679884">
   <ele>1169.00</ele>
   <time>2014-04-06T09:11:17Z</time>
  </trkpt>
  <trkpt lat="33.540672" lon="-2.679781">
   <ele>1169.00</ele>
   <time>2014-04-06T09:11:19Z</time>
  </trkpt>
  <trkpt lat="33.540899" lon="-2.679700">
   <ele>1169.00</ele>
   <time>2014-04-06T09:11:21Z</time>
  </trkpt>
  <trkpt lat="33.541136" lon="-2.679643">
   <ele>1169.00</ele>
   <time>2014-04-06T09:11:23Z</time>
  </trkpt>
  <trkpt lat="33.541754" lon="-2.679545">
   <ele>1169.00</ele>
   <time>2014-04-06T09:11:28Z</time>
  </trkpt>
  <trkpt lat="33.541991" lon="-2.679483">
   <ele>1169.00</ele>
   <time>2014-04-06T09:11:30Z</time>
  </trkpt>
  <trkpt lat="33.542322" lon="-2.679377">
   <ele>1168.00</ele>
   <time>2014-04-06T09:11:33Z</time>
  </trkpt>
  <trkpt lat="33.542530" lon="-2.679261">
   <ele>1168.00</ele>
   <time>2014-04-06T09:11:35Z</time>
  </trkpt>
  <trkpt lat="33.542733" lon="-2.679114">
   <ele>1168.00</ele>
   <time>2014-04-06T09:11:37Z</time>
  </trkpt>
  <trkpt lat="33.542918" lon="-2.678920">
   <ele>1168.00</ele>
   <time>2014-04-06T09:11:39Z</time>
  </trkpt>
  <trkpt lat="33.543093" lon="-2.678692">
   <ele>1168.00</ele>
   <time>2014-04-06T09:11:41Z</time>
  </trkpt>
  <trkpt lat="33.543442" lon="-2.678226">
   <ele>1168.00</ele>
   <time>2014-04-06T09:11:45Z</time>
  </trkpt>
  <trkpt lat="33.543636" lon="-2.678012">
   <ele>1168.00</ele>
   <time>2014-04-06T09:11:47Z</time>
  </trkpt>
  <trkpt lat="33.543846" lon="-2.677809">
   <ele>1167.00</ele>
   <time>2014-04-06T09:11:49Z</time>
  </trkpt>
  <trkpt lat="33.544389" lon="-2.677320">
   <ele>1167.00</ele>
   <time>2014-04-06T09:11:54Z</time>
  </trkpt>
  <trkpt lat="33.544591" lon="-2.677138">
   <ele>1167.00</ele>
   <time>2014-04-06T09:11:56Z</time>
  </trkpt>
  <trkpt lat="33.544756" lon="-2.676925">
   <ele>1167.00</ele>
   <time>2014-04-06T09:11:58Z</time>
  </trkpt>
  <trkpt lat="33.544895" lon="-2.676676">
   <ele>1167.00</ele>
   <time>2014-04-06T09:12:00Z</time>
  </trkpt>
  <trkpt lat="33.545006" lon="-2.676399">
   <ele>1167.00</ele>
   <time>2014-04-06T09:12:02Z</time>
  </trkpt>
  <trkpt lat="33.545093" lon="-2.676101">
   <ele>1167.00</ele>
   <time>2014-04-06T09:12:04Z</time>
  </trkpt>
  <trkpt lat="33.545161" lon="-2.675789">
   <ele>1167.00</ele>
   <time>2014-04-06T09:12:06Z</time>
  </trkpt>
  <trkpt lat="33.545340" lon="-2.674811">
   <ele>1167.00</ele>
   <time>2014-04-06T09:12:12Z</time>
  </trkpt>
  <trkpt lat="33.545425" lon="-2.674477">
   <ele>1167.00</ele>
   <time>2014-04-06T09:12:14Z</time>
  </trkpt>
  <trkpt lat="33.545524" lon="-2.674150">
   <ele>1167.00</ele>
   <time>2014-04-06T09:12:16Z</time>
  </trkpt>
  <trkpt lat="33.545736" lon="-2.673514">
   <ele>1167.00</ele>
   <time>2014-04-06T09:12:20Z</time>
  </trkpt>
  <trkpt lat="33.546078" lon="-2.672596">
   <ele>1168.00</ele>
   <time>2014-04-06T09:12:26Z</time>
  </trkpt>
  <trkpt lat="33.546156" lon="-2.672286">
   <ele>1168.00</ele>
   <time>2014-04-06T09:12:28Z</time>
  </trkpt>
  <trkpt lat="33.546253" lon="-2.671796">
   <ele>1168.00</ele>
   <time>2014-04-06T09:12:31Z</time>
  </trkpt>
  <trkpt lat="33.546357" lon="-2.671474">
   <ele>1168.00</ele>
   <time>2014-04-06T09:12:33Z</time>
  </trkpt>
  <trkpt lat="33.546772" lon="-2.670381">
   <ele>1168.00</ele>
   <time>2014-04-06T09:12:40Z</time>
  </trkpt>
  <trkpt lat="33.546973" lon="-2.669801">
   <ele>1168.00</ele>
   <time>2014-04-06T09:12:44Z</time>
  </trkpt>
  <trkpt lat="33.547112" lon="-2.669563">
   <ele>1168.00</ele>
   <time>2014-04-06T09:12:46Z</time>
  </trkpt>
  <trkpt lat="33.547289" lon="-2.669362">
   <ele>1168.00</ele>
   <time>2014-04-06T09:12:48Z</time>
  </trkpt>
  <trkpt lat="33.547476" lon="-2.669166">
   <ele>1168.00</ele>
   <time>2014-04-06T09:12:50Z</time>
  </trkpt>
  <trkpt lat="33.547656" lon="-2.668978">
   <ele>1168.00</ele>
   <time>2014-04-06T09:12:52Z</time>
  </trkpt>
  <trkpt lat="33.547862" lon="-2.668832">
   <ele>1168.00</ele>
   <time>2014-04-06T09:12:54Z</time>
  </trkpt>
  <trkpt lat="33.548650" lon="-2.668308">
   <ele>1167.00</ele>
   <time>2014-04-06T09:13:01Z</time>
  </trkpt>
  <trkpt lat="33.548859" lon="-2.668122">
   <ele>1167.00</ele>
   <time>2014-04-06T09:13:03Z</time>
  </trkpt>
  <trkpt lat="33.549049" lon="-2.667898">
   <ele>1167.00</ele>
   <time>2014-04-06T09:13:05Z</time>
  </trkpt>
  <trkpt lat="33.549222" lon="-2.667646">
   <ele>1167.00</ele>
   <time>2014-04-06T09:13:07Z</time>
  </trkpt>
  <trkpt lat="33.549652" lon="-2.666974">
   <ele>1167.00</ele>
   <time>2014-04-06T09:13:12Z</time>
  </trkpt>
  <trkpt lat="33.550666" lon="-2.665524">
   <ele>1166.00</ele>
   <time>2014-04-06T09:13:23Z</time>
  </trkpt>
  <trkpt lat="33.551352" lon="-2.664278">
   <ele>1166.00</ele>
   <time>2014-04-06T09:13:32Z</time>
  </trkpt>
  <trkpt lat="33.551522" lon="-2.664039">
   <ele>1166.00</ele>
   <time>2014-04-06T09:13:34Z</time>
  </trkpt>
  <trkpt lat="33.551706" lon="-2.663818">
   <ele>1165.00</ele>
   <time>2014-04-06T09:13:36Z</time>
  </trkpt>
  <trkpt lat="33.551903" lon="-2.663611">
   <ele>1165.00</ele>
   <time>2014-04-06T09:13:38Z</time>
  </trkpt>
  <trkpt lat="33.552810" lon="-2.662678">
   <ele>1164.00</ele>
   <time>2014-04-06T09:13:47Z</time>
  </trkpt>
  <trkpt lat="33.553336" lon="-2.662195">
   <ele>1164.00</ele>
   <time>2014-04-06T09:13:52Z</time>
  </trkpt>
  <trkpt lat="33.553538" lon="-2.661980">
   <ele>1163.00</ele>
   <time>2014-04-06T09:13:54Z</time>
  </trkpt>
  <trkpt lat="33.553838" lon="-2.661667">
   <ele>1163.00</ele>
   <time>2014-04-06T09:13:57Z</time>
  </trkpt>
  <trkpt lat="33.554044" lon="-2.661481">
   <ele>1163.00</ele>
   <time>2014-04-06T09:13:59Z</time>
  </trkpt>
  <trkpt lat="33.554358" lon="-2.661212">
   <ele>1163.00</ele>
   <time>2014-04-06T09:14:02Z</time>
  </trkpt>
  <trkpt lat="33.554541" lon="-2.661012">
   <ele>1163.00</ele>
   <time>2014-04-06T09:14:04Z</time>
  </trkpt>
  <trkpt lat="33.554727" lon="-2.660833">
   <ele>1163.00</ele>
   <time>2014-04-06T09:14:06Z</time>
  </trkpt>
  <trkpt lat="33.555331" lon="-2.660312">
   <ele>1162.00</ele>
   <time>2014-04-06T09:14:12Z</time>
  </trkpt>
  <trkpt lat="33.555507" lon="-2.660124">
   <ele>1162.00</ele>
   <time>2014-04-06T09:14:14Z</time>
  </trkpt>
  <trkpt lat="33.555891" lon="-2.659674">
   <ele>1162.00</ele>
   <time>2014-04-06T09:14:19Z</time>
  </trkpt>
  <trkpt lat="33.556068" lon="-2.659546">
   <ele>1162.00</ele>
   <time>2014-04-06T09:14:21Z</time>
  </trkpt>
  <trkpt lat="33.556251" lon="-2.659422">
   <ele>1162.00</ele>
   <time>2014-04-06T09:14:23Z</time>
  </trkpt>
  <trkpt lat="33.556408" lon="-2.659258">
   <ele>1162.00</ele>
   <time>2014-04-06T09:14:25Z</time>
  </trkpt>
  <trkpt lat="33.556634" lon="-2.658994">
   <ele>1162.00</ele>
   <time>2014-04-06T09:14:28Z</time>
  </trkpt>
  <trkpt lat="33.556807" lon="-2.658843">
   <ele>1162.00</ele>
   <time>2014-04-06T09:14:30Z</time>
  </trkpt>
  <trkpt lat="33.557248" lon="-2.658496">
   <ele>1162.00</ele>
   <time>2014-04-06T09:14:35Z</time>
  </trkpt>
  <trkpt lat="33.557426" lon="-2.658385">
   <ele>1162.00</ele>
   <time>2014-04-06T09:14:37Z</time>
  </trkpt>
  <trkpt lat="33.557591" lon="-2.658259">
   <ele>1162.00</ele>
   <time>2014-04-06T09:14:39Z</time>
  </trkpt>
  <trkpt lat="33.557725" lon="-2.658101">
   <ele>1162.00</ele>
   <time>2014-04-06T09:14:41Z</time>
  </trkpt>
  <trkpt lat="33.557823" lon="-2.657917">
   <ele>1161.00</ele>
   <time>2014-04-06T09:14:43Z</time>
  </trkpt>
  <trkpt lat="33.557891" lon="-2.657624">
   <ele>1161.00</ele>
   <time>2014-04-06T09:14:46Z</time>
  </trkpt>
  <trkpt lat="33.557929" lon="-2.657361">
   <ele>1161.00</ele>
   <time>2014-04-06T09:14:49Z</time>
  </trkpt>
  <trkpt lat="33.557868" lon="-2.657140">
   <ele>1161.00</ele>
   <time>2014-04-06T09:14:52Z</time>
  </trkpt>
  <trkpt lat="33.557742" lon="-2.656946">
   <ele>1161.00</ele>
   <time>2014-04-06T09:14:56Z</time>
  </trkpt>
  <trkpt lat="33.557735" lon="-2.656727">
   <ele>1161.00</ele>
   <time>2014-04-06T09:15:00Z</time>
  </trkpt>
  <trkpt lat="33.557917" lon="-2.656553">
   <ele>1161.00</ele>
   <time>2014-04-06T09:15:04Z</time>
  </trkpt>
  <trkpt lat="33.558085" lon="-2.656368">
   <ele>1161.00</ele>
   <time>2014-04-06T09:15:07Z</time>
  </trkpt>
  <trkpt lat="33.558262" lon="-2.656155">
   <ele>1161.00</ele>
   <time>2014-04-06T09:15:10Z</time>
  </trkpt>
  <trkpt lat="33.558409" lon="-2.656021">
   <ele>1161.00</ele>
   <time>2014-04-06T09:15:12Z</time>
  </trkpt>
  <trkpt lat="33.558652" lon="-2.655846">
   <ele>1161.00</ele>
   <time>2014-04-06T09:15:15Z</time>
  </trkpt>
  <trkpt lat="33.558876" lon="-2.655701">
   <ele>1161.00</ele>
   <time>2014-04-06T09:15:18Z</time>
  </trkpt>
  <trkpt lat="33.559077" lon="-2.655686">
   <ele>1161.00</ele>
   <time>2014-04-06T09:15:21Z</time>
  </trkpt>
  <trkpt lat="33.559256" lon="-2.655812">
   <ele>1161.00</ele>
   <time>2014-04-06T09:15:24Z</time>
  </trkpt>
  <trkpt lat="33.559454" lon="-2.655882">
   <ele>1161.00</ele>
   <time>2014-04-06T09:15:27Z</time>
  </trkpt>
  <trkpt lat="33.559752" lon="-2.655876">
   <ele>1160.00</ele>
   <time>2014-04-06T09:15:31Z</time>
  </trkpt>
  <trkpt lat="33.559999" lon="-2.655910">
   <ele>1160.00</ele>
   <time>2014-04-06T09:15:34Z</time>
  </trkpt>
  <trkpt lat="33.560247" lon="-2.655937">
   <ele>1160.00</ele>
   <time>2014-04-06T09:15:37Z</time>
  </trkpt>
  <trkpt lat="33.560486" lon="-2.655876">
   <ele>1160.00</ele>
   <time>2014-04-06T09:15:40Z</time>
  </trkpt>
  <trkpt lat="33.560736" lon="-2.655737">
   <ele>1160.00</ele>
   <time>2014-04-06T09:15:43Z</time>
  </trkpt>
  <trkpt lat="33.561011" lon="-2.655589">
   <ele>1160.00</ele>
   <time>2014-04-06T09:15:46Z</time>
  </trkpt>
  <trkpt lat="33.561198" lon="-2.655483">
   <ele>1160.00</ele>
   <time>2014-04-06T09:15:48Z</time>
  </trkpt>
  <trkpt lat="33.561384" lon="-2.655347">
   <ele>1160.00</ele>
   <time>2014-04-06T09:15:50Z</time>
  </trkpt>
  <trkpt lat="33.561553" lon="-2.655174">
   <ele>1160.00</ele>
   <time>2014-04-06T09:15:52Z</time>
  </trkpt>
  <trkpt lat="33.561707" lon="-2.654979">
   <ele>1160.00</ele>
   <time>2014-04-06T09:15:54Z</time>
  </trkpt>
  <trkpt lat="33.561855" lon="-2.654772">
   <ele>1160.00</ele>
   <time>2014-04-06T09:15:56Z</time>
  </trkpt>
  <trkpt lat="33.561993" lon="-2.654551">
   <ele>1160.00</ele>
   <time>2014-04-06T09:15:58Z</time>
  </trkpt>
  <trkpt lat="33.562124" lon="-2.654300">
   <ele>1160.00</ele>
   <time>2014-04-06T09:16:00Z</time>
  </trkpt>
  <trkpt lat="33.562242" lon="-2.654025">
   <ele>1160.00</ele>
   <time>2014-04-06T09:16:02Z</time>
  </trkpt>
  <trkpt lat="33.562700" lon="-2.652867">
   <ele>1159.00</ele>
   <time>2014-04-06T09:16:10Z</time>
  </trkpt>
  <trkpt lat="33.562864" lon="-2.652451">
   <ele>1159.00</ele>
   <time>2014-04-06T09:16:13Z</time>
  </trkpt>
  <trkpt lat="33.563102" lon="-2.651909">
   <ele>1159.00</ele>
   <time>2014-04-06T09:16:17Z</time>
  </trkpt>
  <trkpt lat="33.563247" lon="-2.651651">
   <ele>1159.00</ele>
   <time>2014-04-06T09:16:19Z</time>
  </trkpt>
  <trkpt lat="33.563419" lon="-2.651406">
   <ele>1160.00</ele>
   <time>2014-04-06T09:16:21Z</time>
  </trkpt>
  <trkpt lat="33.563607" lon="-2.651164">
   <ele>1160.00</ele>
   <time>2014-04-06T09:16:23Z</time>
  </trkpt>
  <trkpt lat="33.563818" lon="-2.650934">
   <ele>1160.00</ele>
   <time>2014-04-06T09:16:25Z</time>
  </trkpt>
  <trkpt lat="33.564620" lon="-2.650143">
   <ele>1160.00</ele>
   <time>2014-04-06T09:16:32Z</time>
  </trkpt>
  <trkpt lat="33.564819" lon="-2.649911">
   <ele>1160.00</ele>
   <time>2014-04-06T09:16:34Z</time>
  </trkpt>
  <trkpt lat="33.565003" lon="-2.649688">
   <ele>1160.00</ele>
   <time>2014-04-06T09:16:36Z</time>
  </trkpt>
  <trkpt lat="33.565200" lon="-2.649490">
   <ele>1160.00</ele>
   <time>2014-04-06T09:16:38Z</time>
  </trkpt>
  <trkpt lat="33.565417" lon="-2.649312">
   <ele>1160.00</ele>
   <time>2014-04-06T09:16:40Z</time>
  </trkpt>
  <trkpt lat="33.565749" lon="-2.649050">
   <ele>1160.00</ele>
   <time>2014-04-06T09:16:43Z</time>
  </trkpt>
  <trkpt lat="33.565954" lon="-2.648856">
   <ele>1160.00</ele>
   <time>2014-04-06T09:16:45Z</time>
  </trkpt>
  <trkpt lat="33.566144" lon="-2.648635">
   <ele>1160.00</ele>
   <time>2014-04-06T09:16:47Z</time>
  </trkpt>
  <trkpt lat="33.566331" lon="-2.648410">
   <ele>1159.00</ele>
   <time>2014-04-06T09:16:49Z</time>
  </trkpt>
  <trkpt lat="33.567498" lon="-2.647097">
   <ele>1159.00</ele>
   <time>2014-04-06T09:17:01Z</time>
  </trkpt>
  <trkpt lat="33.567643" lon="-2.646867">
   <ele>1159.00</ele>
   <time>2014-04-06T09:17:03Z</time>
  </trkpt>
  <trkpt lat="33.567757" lon="-2.646617">
   <ele>1159.00</ele>
   <time>2014-04-06T09:17:05Z</time>
  </trkpt>
  <trkpt lat="33.567888" lon="-2.646390">
   <ele>1159.00</ele>
   <time>2014-04-06T09:17:07Z</time>
  </trkpt>
  <trkpt lat="33.568054" lon="-2.646202">
   <ele>1159.00</ele>
   <time>2014-04-06T09:17:09Z</time>
  </trkpt>
  <trkpt lat="33.568196" lon="-2.645999">
   <ele>1159.00</ele>
   <time>2014-04-06T09:17:11Z</time>
  </trkpt>
  <trkpt lat="33.568320" lon="-2.645793">
   <ele>1159.00</ele>
   <time>2014-04-06T09:17:13Z</time>
  </trkpt>
  <trkpt lat="33.568449" lon="-2.645612">
   <ele>1158.00</ele>
   <time>2014-04-06T09:17:15Z</time>
  </trkpt>
  <trkpt lat="33.568709" lon="-2.645230">
   <ele>1158.00</ele>
   <time>2014-04-06T09:17:20Z</time>
  </trkpt>
  <trkpt lat="33.568838" lon="-2.645010">
   <ele>1158.00</ele>
   <time>2014-04-06T09:17:24Z</time>
  </trkpt>
  <trkpt lat="33.568992" lon="-2.644894">
   <ele>1157.00</ele>
   <time>2014-04-06T09:17:29Z</time>
  </trkpt>
  <trkpt lat="33.569157" lon="-2.644979">
   <ele>1154.00</ele>
   <time>2014-04-06T09:17:45Z</time>
  </trkpt>
  <trkpt lat="33.569351" lon="-2.645003">
   <ele>1156.00</ele>
   <time>2014-04-06T09:17:53Z</time>
  </trkpt>
  <trkpt lat="33.569528" lon="-2.644912">
   <ele>1156.00</ele>
   <time>2014-04-06T09:17:57Z</time>
  </trkpt>
  <trkpt lat="33.569753" lon="-2.644863">
   <ele>1156.00</ele>
   <time>2014-04-06T09:18:01Z</time>
  </trkpt>
  <trkpt lat="33.569978" lon="-2.644796">
   <ele>1156.00</ele>
   <time>2014-04-06T09:18:05Z</time>
  </trkpt>
  <trkpt lat="33.570151" lon="-2.644715">
   <ele>1156.00</ele>
   <time>2014-04-06T09:18:08Z</time>
  </trkpt>
  <trkpt lat="33.570926" lon="-2.644334">
   <ele>1155.00</ele>
   <time>2014-04-06T09:18:19Z</time>
  </trkpt>
  <trkpt lat="33.571085" lon="-2.644232">
   <ele>1156.00</ele>
   <time>2014-04-06T09:18:21Z</time>
  </trkpt>
  <trkpt lat="33.571242" lon="-2.644109">
   <ele>1156.00</ele>
   <time>2014-04-06T09:18:23Z</time>
  </trkpt>
  <trkpt lat="33.571374" lon="-2.643961">
   <ele>1156.00</ele>
   <time>2014-04-06T09:18:25Z</time>
  </trkpt>
  <trkpt lat="33.571502" lon="-2.643687">
   <ele>1156.00</ele>
   <time>2014-04-06T09:18:28Z</time>
  </trkpt>
  <trkpt lat="33.571756" lon="-2.643098">
   <ele>1155.00</ele>
   <time>2014-04-06T09:18:34Z</time>
  </trkpt>
  <trkpt lat="33.571852" lon="-2.642908">
   <ele>1156.00</ele>
   <time>2014-04-06T09:18:36Z</time>
  </trkpt>
  <trkpt lat="33.572211" lon="-2.642231">
   <ele>1155.00</ele>
   <time>2014-04-06T09:18:43Z</time>
  </trkpt>
  <trkpt lat="33.572801" lon="-2.641228">
   <ele>1156.00</ele>
   <time>2014-04-06T09:18:52Z</time>
  </trkpt>
  <trkpt lat="33.573020" lon="-2.640889">
   <ele>1156.00</ele>
   <time>2014-04-06T09:18:55Z</time>
  </trkpt>
  <trkpt lat="33.573176" lon="-2.640670">
   <ele>1156.00</ele>
   <time>2014-04-06T09:18:57Z</time>
  </trkpt>
  <trkpt lat="33.573501" lon="-2.640244">
   <ele>1156.00</ele>
   <time>2014-04-06T09:19:01Z</time>
  </trkpt>
  <trkpt lat="33.574106" lon="-2.639501">
   <ele>1156.00</ele>
   <time>2014-04-06T09:19:08Z</time>
  </trkpt>
  <trkpt lat="33.574269" lon="-2.639294">
   <ele>1156.00</ele>
   <time>2014-04-06T09:19:10Z</time>
  </trkpt>
  <trkpt lat="33.574413" lon="-2.639061">
   <ele>1156.00</ele>
   <time>2014-04-06T09:19:12Z</time>
  </trkpt>
  <trkpt lat="33.574554" lon="-2.638831">
   <ele>1156.00</ele>
   <time>2014-04-06T09:19:14Z</time>
  </trkpt>
  <trkpt lat="33.574715" lon="-2.638630">
   <ele>1156.00</ele>
   <time>2014-04-06T09:19:16Z</time>
  </trkpt>
  <trkpt lat="33.574906" lon="-2.638478">
   <ele>1155.00</ele>
   <time>2014-04-06T09:19:18Z</time>
  </trkpt>
  <trkpt lat="33.575121" lon="-2.638395">
   <ele>1155.00</ele>
   <time>2014-04-06T09:19:20Z</time>
  </trkpt>
  <trkpt lat="33.575353" lon="-2.638377">
   <ele>1155.00</ele>
   <time>2014-04-06T09:19:22Z</time>
  </trkpt>
  <trkpt lat="33.575595" lon="-2.638385">
   <ele>1155.00</ele>
   <time>2014-04-06T09:19:24Z</time>
  </trkpt>
  <trkpt lat="33.575840" lon="-2.638390">
   <ele>1155.00</ele>
   <time>2014-04-06T09:19:26Z</time>
  </trkpt>
  <trkpt lat="33.576080" lon="-2.638387">
   <ele>1155.00</ele>
   <time>2014-04-06T09:19:28Z</time>
  </trkpt>
  <trkpt lat="33.576307" lon="-2.638348">
   <ele>1154.00</ele>
   <time>2014-04-06T09:19:30Z</time>
  </trkpt>
  <trkpt lat="33.576532" lon="-2.638345">
   <ele>1154.00</ele>
   <time>2014-04-06T09:19:32Z</time>
  </trkpt>
  <trkpt lat="33.576762" lon="-2.638377">
   <ele>1153.00</ele>
   <time>2014-04-06T09:19:34Z</time>
  </trkpt>
  <trkpt lat="33.576984" lon="-2.638430">
   <ele>1153.00</ele>
   <time>2014-04-06T09:19:36Z</time>
  </trkpt>
  <trkpt lat="33.577205" lon="-2.638448">
   <ele>1153.00</ele>
   <time>2014-04-06T09:19:38Z</time>
  </trkpt>
  <trkpt lat="33.577432" lon="-2.638402">
   <ele>1153.00</ele>
   <time>2014-04-06T09:19:40Z</time>
  </trkpt>
  <trkpt lat="33.577653" lon="-2.638310">
   <ele>1153.00</ele>
   <time>2014-04-06T09:19:42Z</time>
  </trkpt>
  <trkpt lat="33.577858" lon="-2.638177">
   <ele>1153.00</ele>
   <time>2014-04-06T09:19:44Z</time>
  </trkpt>
  <trkpt lat="33.578045" lon="-2.638000">
   <ele>1153.00</ele>
   <time>2014-04-06T09:19:46Z</time>
  </trkpt>
  <trkpt lat="33.578224" lon="-2.637806">
   <ele>1153.00</ele>
   <time>2014-04-06T09:19:48Z</time>
  </trkpt>
  <trkpt lat="33.578421" lon="-2.637636">
   <ele>1153.00</ele>
   <time>2014-04-06T09:19:50Z</time>
  </trkpt>
  <trkpt lat="33.578929" lon="-2.637237">
   <ele>1154.00</ele>
   <time>2014-04-06T09:19:55Z</time>
  </trkpt>
  <trkpt lat="33.579088" lon="-2.637051">
   <ele>1154.00</ele>
   <time>2014-04-06T09:19:57Z</time>
  </trkpt>
  <trkpt lat="33.579223" lon="-2.636830">
   <ele>1153.00</ele>
   <time>2014-04-06T09:19:59Z</time>
  </trkpt>
  <trkpt lat="33.579341" lon="-2.636576">
   <ele>1153.00</ele>
   <time>2014-04-06T09:20:01Z</time>
  </trkpt>
  <trkpt lat="33.579467" lon="-2.636324">
   <ele>1153.00</ele>
   <time>2014-04-06T09:20:03Z</time>
  </trkpt>
  <trkpt lat="33.579630" lon="-2.636093">
   <ele>1153.00</ele>
   <time>2014-04-06T09:20:05Z</time>
  </trkpt>
  <trkpt lat="33.579815" lon="-2.635873">
   <ele>1153.00</ele>
   <time>2014-04-06T09:20:07Z</time>
  </trkpt>
  <trkpt lat="33.580011" lon="-2.635661">
   <ele>1153.00</ele>
   <time>2014-04-06T09:20:09Z</time>
  </trkpt>
  <trkpt lat="33.580523" lon="-2.635127">
   <ele>1153.00</ele>
   <time>2014-04-06T09:20:14Z</time>
  </trkpt>
  <trkpt lat="33.580743" lon="-2.634950">
   <ele>1153.00</ele>
   <time>2014-04-06T09:20:16Z</time>
  </trkpt>
  <trkpt lat="33.580964" lon="-2.634772">
   <ele>1153.00</ele>
   <time>2014-04-06T09:20:18Z</time>
  </trkpt>
  <trkpt lat="33.581175" lon="-2.634574">
   <ele>1153.00</ele>
   <time>2014-04-06T09:20:20Z</time>
  </trkpt>
  <trkpt lat="33.581386" lon="-2.634376">
   <ele>1153.00</ele>
   <time>2014-04-06T09:20:22Z</time>
  </trkpt>
  <trkpt lat="33.581607" lon="-2.634192">
   <ele>1153.00</ele>
   <time>2014-04-06T09:20:24Z</time>
  </trkpt>
  <trkpt lat="33.581834" lon="-2.634019">
   <ele>1153.00</ele>
   <time>2014-04-06T09:20:26Z</time>
  </trkpt>
  <trkpt lat="33.582062" lon="-2.633849">
   <ele>1153.00</ele>
   <time>2014-04-06T09:20:28Z</time>
  </trkpt>
  <trkpt lat="33.582276" lon="-2.633645">
   <ele>1153.00</ele>
   <time>2014-04-06T09:20:30Z</time>
  </trkpt>
  <trkpt lat="33.582474" lon="-2.633412">
   <ele>1153.00</ele>
   <time>2014-04-06T09:20:32Z</time>
  </trkpt>
  <trkpt lat="33.582685" lon="-2.633186">
   <ele>1153.00</ele>
   <time>2014-04-06T09:20:34Z</time>
  </trkpt>
  <trkpt lat="33.582897" lon="-2.632959">
   <ele>1153.00</ele>
   <time>2014-04-06T09:20:36Z</time>
  </trkpt>
  <trkpt lat="33.583483" lon="-2.632253">
   <ele>1153.00</ele>
   <time>2014-04-06T09:20:42Z</time>
  </trkpt>
  <trkpt lat="33.583663" lon="-2.632010">
   <ele>1153.00</ele>
   <time>2014-04-06T09:20:44Z</time>
  </trkpt>
  <trkpt lat="33.583832" lon="-2.631780">
   <ele>1153.00</ele>
   <time>2014-04-06T09:20:46Z</time>
  </trkpt>
  <trkpt lat="33.584007" lon="-2.631583">
   <ele>1153.00</ele>
   <time>2014-04-06T09:20:48Z</time>
  </trkpt>
  <trkpt lat="33.584196" lon="-2.631416">
   <ele>1153.00</ele>
   <time>2014-04-06T09:20:50Z</time>
  </trkpt>
  <trkpt lat="33.584396" lon="-2.631279">
   <ele>1154.00</ele>
   <time>2014-04-06T09:20:52Z</time>
  </trkpt>
  <trkpt lat="33.584600" lon="-2.631193">
   <ele>1154.00</ele>
   <time>2014-04-06T09:20:54Z</time>
  </trkpt>
  <trkpt lat="33.584801" lon="-2.631160">
   <ele>1154.00</ele>
   <time>2014-04-06T09:20:56Z</time>
  </trkpt>
  <trkpt lat="33.584991" lon="-2.631134">
   <ele>1154.00</ele>
   <time>2014-04-06T09:20:58Z</time>
  </trkpt>
  <trkpt lat="33.585172" lon="-2.631083">
   <ele>1154.00</ele>
   <time>2014-04-06T09:21:00Z</time>
  </trkpt>
  <trkpt lat="33.585359" lon="-2.631051">
   <ele>1154.00</ele>
   <time>2014-04-06T09:21:02Z</time>
  </trkpt>
  <trkpt lat="33.585550" lon="-2.631015">
   <ele>1153.00</ele>
   <time>2014-04-06T09:21:04Z</time>
  </trkpt>
  <trkpt lat="33.585745" lon="-2.630963">
   <ele>1153.00</ele>
   <time>2014-04-06T09:21:06Z</time>
  </trkpt>
  <trkpt lat="33.586760" lon="-2.630658">
   <ele>1153.00</ele>
   <time>2014-04-06T09:21:15Z</time>
  </trkpt>
  <trkpt lat="33.587144" lon="-2.630572">
   <ele>1153.00</ele>
   <time>2014-04-06T09:21:18Z</time>
  </trkpt>
  <trkpt lat="33.587413" lon="-2.630524">
   <ele>1153.00</ele>
   <time>2014-04-06T09:21:20Z</time>
  </trkpt>
  <trkpt lat="33.587687" lon="-2.630488">
   <ele>1153.00</ele>
   <time>2014-04-06T09:21:22Z</time>
  </trkpt>
  <trkpt lat="33.589035" lon="-2.630353">
   <ele>1154.00</ele>
   <time>2014-04-06T09:21:32Z</time>
  </trkpt>
  <trkpt lat="33.589412" lon="-2.630331">
   <ele>1154.00</ele>
   <time>2014-04-06T09:21:35Z</time>
  </trkpt>
  <trkpt lat="33.589653" lon="-2.630288">
   <ele>1154.00</ele>
   <time>2014-04-06T09:21:37Z</time>
  </trkpt>
  <trkpt lat="33.590268" lon="-2.630130">
   <ele>1154.00</ele>
   <time>2014-04-06T09:21:42Z</time>
  </trkpt>
  <trkpt lat="33.591038" lon="-2.630001">
   <ele>1154.00</ele>
   <time>2014-04-06T09:21:48Z</time>
  </trkpt>
  <trkpt lat="33.592070" lon="-2.629882">
   <ele>1154.00</ele>
   <time>2014-04-06T09:21:56Z</time>
  </trkpt>
  <trkpt lat="33.592312" lon="-2.629853">
   <ele>1154.00</ele>
   <time>2014-04-06T09:21:58Z</time>
  </trkpt>
  <trkpt lat="33.592550" lon="-2.629787">
   <ele>1154.00</ele>
   <time>2014-04-06T09:22:00Z</time>
  </trkpt>
  <trkpt lat="33.593418" lon="-2.629515">
   <ele>1154.00</ele>
   <time>2014-04-06T09:22:07Z</time>
  </trkpt>
  <trkpt lat="33.593666" lon="-2.629461">
   <ele>1154.00</ele>
   <time>2014-04-06T09:22:09Z</time>
  </trkpt>
  <trkpt lat="33.594806" lon="-2.629249">
   <ele>1154.00</ele>
   <time>2014-04-06T09:22:18Z</time>
  </trkpt>
  <trkpt lat="33.595394" lon="-2.629099">
   <ele>1153.00</ele>
   <time>2014-04-06T09:22:23Z</time>
  </trkpt>
  <trkpt lat="33.595634" lon="-2.629076">
   <ele>1153.00</ele>
   <time>2014-04-06T09:22:25Z</time>
  </trkpt>
  <trkpt lat="33.595876" lon="-2.629055">
   <ele>1153.00</ele>
   <time>2014-04-06T09:22:27Z</time>
  </trkpt>
  <trkpt lat="33.596116" lon="-2.629001">
   <ele>1153.00</ele>
   <time>2014-04-06T09:22:29Z</time>
  </trkpt>
  <trkpt lat="33.596348" lon="-2.628971">
   <ele>1153.00</ele>
   <time>2014-04-06T09:22:31Z</time>
  </trkpt>
  <trkpt lat="33.596651" lon="-2.628956">
   <ele>1153.00</ele>
   <time>2014-04-06T09:22:34Z</time>
  </trkpt>
  <trkpt lat="33.596847" lon="-2.628912">
   <ele>1153.00</ele>
   <time>2014-04-06T09:22:36Z</time>
  </trkpt>
  <trkpt lat="33.597049" lon="-2.628874">
   <ele>1153.00</ele>
   <time>2014-04-06T09:22:38Z</time>
  </trkpt>
  <trkpt lat="33.597477" lon="-2.628806">
   <ele>1153.00</ele>
   <time>2014-04-06T09:22:42Z</time>
  </trkpt>
  <trkpt lat="33.597680" lon="-2.628770">
   <ele>1153.00</ele>
   <time>2014-04-06T09:22:44Z</time>
  </trkpt>
  <trkpt lat="33.597870" lon="-2.628757">
   <ele>1153.00</ele>
   <time>2014-04-06T09:22:46Z</time>
  </trkpt>
  <trkpt lat="33.598053" lon="-2.628729">
   <ele>1152.00</ele>
   <time>2014-04-06T09:22:48Z</time>
  </trkpt>
  <trkpt lat="33.598235" lon="-2.628664">
   <ele>1152.00</ele>
   <time>2014-04-06T09:22:50Z</time>
  </trkpt>
  <trkpt lat="33.598513" lon="-2.628537">
   <ele>1152.00</ele>
   <time>2014-04-06T09:22:53Z</time>
  </trkpt>
  <trkpt lat="33.598704" lon="-2.628459">
   <ele>1152.00</ele>
   <time>2014-04-06T09:22:55Z</time>
  </trkpt>
  <trkpt lat="33.598890" lon="-2.628394">
   <ele>1152.00</ele>
   <time>2014-04-06T09:22:57Z</time>
  </trkpt>
  <trkpt lat="33.599058" lon="-2.628287">
   <ele>1152.00</ele>
   <time>2014-04-06T09:22:59Z</time>
  </trkpt>
  <trkpt lat="33.599226" lon="-2.628174">
   <ele>1152.00</ele>
   <time>2014-04-06T09:23:01Z</time>
  </trkpt>
  <trkpt lat="33.599405" lon="-2.628084">
   <ele>1152.00</ele>
   <time>2014-04-06T09:23:03Z</time>
  </trkpt>
  <trkpt lat="33.599794" lon="-2.627912">
   <ele>1151.00</ele>
   <time>2014-04-06T09:23:07Z</time>
  </trkpt>
  <trkpt lat="33.600209" lon="-2.627693">
   <ele>1151.00</ele>
   <time>2014-04-06T09:23:11Z</time>
  </trkpt>
  <trkpt lat="33.600438" lon="-2.627612">
   <ele>1151.00</ele>
   <time>2014-04-06T09:23:13Z</time>
  </trkpt>
  <trkpt lat="33.601300" lon="-2.627365">
   <ele>1151.00</ele>
   <time>2014-04-06T09:23:20Z</time>
  </trkpt>
  <trkpt lat="33.601557" lon="-2.627316">
   <ele>1151.00</ele>
   <time>2014-04-06T09:23:22Z</time>
  </trkpt>
  <trkpt lat="33.601942" lon="-2.627240">
   <ele>1150.00</ele>
   <time>2014-04-06T09:23:25Z</time>
  </trkpt>
  <trkpt lat="33.602198" lon="-2.627168">
   <ele>1150.00</ele>
   <time>2014-04-06T09:23:27Z</time>
  </trkpt>
  <trkpt lat="33.602843" lon="-2.626962">
   <ele>1150.00</ele>
   <time>2014-04-06T09:23:32Z</time>
  </trkpt>
  <trkpt lat="33.603112" lon="-2.626905">
   <ele>1150.00</ele>
   <time>2014-04-06T09:23:34Z</time>
  </trkpt>
  <trkpt lat="33.603667" lon="-2.626818">
   <ele>1150.00</ele>
   <time>2014-04-06T09:23:38Z</time>
  </trkpt>
  <trkpt lat="33.604214" lon="-2.626768">
   <ele>1150.00</ele>
   <time>2014-04-06T09:23:42Z</time>
  </trkpt>
  <trkpt lat="33.604479" lon="-2.626764">
   <ele>1150.00</ele>
   <time>2014-04-06T09:23:44Z</time>
  </trkpt>
  <trkpt lat="33.604739" lon="-2.626785">
   <ele>1150.00</ele>
   <time>2014-04-06T09:23:46Z</time>
  </trkpt>
  <trkpt lat="33.605359" lon="-2.626859">
   <ele>1150.00</ele>
   <time>2014-04-06T09:23:51Z</time>
  </trkpt>
  <trkpt lat="33.605595" lon="-2.626925">
   <ele>1150.00</ele>
   <time>2014-04-06T09:23:53Z</time>
  </trkpt>
  <trkpt lat="33.605837" lon="-2.626986">
   <ele>1150.00</ele>
   <time>2014-04-06T09:23:55Z</time>
  </trkpt>
  <trkpt lat="33.606089" lon="-2.627026">
   <ele>1150.00</ele>
   <time>2014-04-06T09:23:57Z</time>
  </trkpt>
  <trkpt lat="33.606347" lon="-2.627050">
   <ele>1150.00</ele>
   <time>2014-04-06T09:23:59Z</time>
  </trkpt>
  <trkpt lat="33.607149" lon="-2.627104">
   <ele>1150.00</ele>
   <time>2014-04-06T09:24:05Z</time>
  </trkpt>
  <trkpt lat="33.607558" lon="-2.627102">
   <ele>1150.00</ele>
   <time>2014-04-06T09:24:08Z</time>
  </trkpt>
  <trkpt lat="33.607829" lon="-2.627114">
   <ele>1150.00</ele>
   <time>2014-04-06T09:24:10Z</time>
  </trkpt>
  <trkpt lat="33.608099" lon="-2.627141">
   <ele>1150.00</ele>
   <time>2014-04-06T09:24:12Z</time>
  </trkpt>
  <trkpt lat="33.608372" lon="-2.627186">
   <ele>1150.00</ele>
   <time>2014-04-06T09:24:14Z</time>
  </trkpt>
  <trkpt lat="33.608653" lon="-2.627226">
   <ele>1150.00</ele>
   <time>2014-04-06T09:24:16Z</time>
  </trkpt>
  <trkpt lat="33.609088" lon="-2.627259">
   <ele>1150.00</ele>
   <time>2014-04-06T09:24:19Z</time>
  </trkpt>
  <trkpt lat="33.609381" lon="-2.627262">
   <ele>1150.00</ele>
   <time>2014-04-06T09:24:21Z</time>
  </trkpt>
  <trkpt lat="33.609801" lon="-2.627259">
   <ele>1150.00</ele>
   <time>2014-04-06T09:24:24Z</time>
  </trkpt>
  <trkpt lat="33.610068" lon="-2.627269">
   <ele>1149.00</ele>
   <time>2014-04-06T09:24:26Z</time>
  </trkpt>
  <trkpt lat="33.610326" lon="-2.627280">
   <ele>1149.00</ele>
   <time>2014-04-06T09:24:28Z</time>
  </trkpt>
  <trkpt lat="33.610577" lon="-2.627271">
   <ele>1149.00</ele>
   <time>2014-04-06T09:24:30Z</time>
  </trkpt>
  <trkpt lat="33.611980" lon="-2.627175">
   <ele>1149.00</ele>
   <time>2014-04-06T09:24:41Z</time>
  </trkpt>
  <trkpt lat="33.612240" lon="-2.627173">
   <ele>1149.00</ele>
   <time>2014-04-06T09:24:43Z</time>
  </trkpt>
  <trkpt lat="33.612502" lon="-2.627181">
   <ele>1149.00</ele>
   <time>2014-04-06T09:24:45Z</time>
  </trkpt>
  <trkpt lat="33.612764" lon="-2.627203">
   <ele>1149.00</ele>
   <time>2014-04-06T09:24:47Z</time>
  </trkpt>
  <trkpt lat="33.613027" lon="-2.627250">
   <ele>1149.00</ele>
   <time>2014-04-06T09:24:49Z</time>
  </trkpt>
  <trkpt lat="33.613292" lon="-2.627300">
   <ele>1149.00</ele>
   <time>2014-04-06T09:24:51Z</time>
  </trkpt>
  <trkpt lat="33.614098" lon="-2.627416">
   <ele>1149.00</ele>
   <time>2014-04-06T09:24:57Z</time>
  </trkpt>
  <trkpt lat="33.614763" lon="-2.627488">
   <ele>1149.00</ele>
   <time>2014-04-06T09:25:02Z</time>
  </trkpt>
  <trkpt lat="33.615163" lon="-2.627543">
   <ele>1149.00</ele>
   <time>2014-04-06T09:25:05Z</time>
  </trkpt>
  <trkpt lat="33.615955" lon="-2.627614">
   <ele>1149.00</ele>
   <time>2014-04-06T09:25:11Z</time>
  </trkpt>
  <trkpt lat="33.616198" lon="-2.627612">
   <ele>1149.00</ele>
   <time>2014-04-06T09:25:13Z</time>
  </trkpt>
  <trkpt lat="33.616410" lon="-2.627580">
   <ele>1149.00</ele>
   <time>2014-04-06T09:25:15Z</time>
  </trkpt>
  <trkpt lat="33.616609" lon="-2.627518">
   <ele>1149.00</ele>
   <time>2014-04-06T09:25:17Z</time>
  </trkpt>
  <trkpt lat="33.616924" lon="-2.627416">
   <ele>1148.00</ele>
   <time>2014-04-06T09:25:20Z</time>
  </trkpt>
  <trkpt lat="33.617147" lon="-2.627368">
   <ele>1148.00</ele>
   <time>2014-04-06T09:25:22Z</time>
  </trkpt>
  <trkpt lat="33.617344" lon="-2.627348">
   <ele>1148.00</ele>
   <time>2014-04-06T09:25:24Z</time>
  </trkpt>
  <trkpt lat="33.617729" lon="-2.627335">
   <ele>1148.00</ele>
   <time>2014-04-06T09:25:29Z</time>
  </trkpt>
  <trkpt lat="33.617987" lon="-2.627271">
   <ele>1147.00</ele>
   <time>2014-04-06T09:25:32Z</time>
  </trkpt>
  <trkpt lat="33.618408" lon="-2.627136">
   <ele>1147.00</ele>
   <time>2014-04-06T09:25:36Z</time>
  </trkpt>
  <trkpt lat="33.618629" lon="-2.627092">
   <ele>1147.00</ele>
   <time>2014-04-06T09:25:38Z</time>
  </trkpt>
  <trkpt lat="33.618854" lon="-2.627049">
   <ele>1147.00</ele>
   <time>2014-04-06T09:25:40Z</time>
  </trkpt>
  <trkpt lat="33.619077" lon="-2.626999">
   <ele>1147.00</ele>
   <time>2014-04-06T09:25:42Z</time>
  </trkpt>
  <trkpt lat="33.619300" lon="-2.626982">
   <ele>1147.00</ele>
   <time>2014-04-06T09:25:44Z</time>
  </trkpt>
  <trkpt lat="33.619530" lon="-2.626996">
   <ele>1147.00</ele>
   <time>2014-04-06T09:25:46Z</time>
  </trkpt>
  <trkpt lat="33.619768" lon="-2.627036">
   <ele>1147.00</ele>
   <time>2014-04-06T09:25:48Z</time>
  </trkpt>
  <trkpt lat="33.620204" lon="-2.627127">
   <ele>1147.00</ele>
   <time>2014-04-06T09:25:52Z</time>
  </trkpt>
  <trkpt lat="33.620393" lon="-2.627173">
   <ele>1147.00</ele>
   <time>2014-04-06T09:25:54Z</time>
  </trkpt>
  <trkpt lat="33.620570" lon="-2.627252">
   <ele>1147.00</ele>
   <time>2014-04-06T09:25:56Z</time>
  </trkpt>
  <trkpt lat="33.620756" lon="-2.627316">
   <ele>1147.00</ele>
   <time>2014-04-06T09:25:58Z</time>
  </trkpt>
  <trkpt lat="33.621336" lon="-2.627438">
   <ele>1147.00</ele>
   <time>2014-04-06T09:26:04Z</time>
  </trkpt>
  <trkpt lat="33.621602" lon="-2.627446">
   <ele>1147.00</ele>
   <time>2014-04-06T09:26:07Z</time>
  </trkpt>
  <trkpt lat="33.621848" lon="-2.627509">
   <ele>1147.00</ele>
   <time>2014-04-06T09:26:10Z</time>
  </trkpt>
  <trkpt lat="33.622069" lon="-2.627620">
   <ele>1147.00</ele>
   <time>2014-04-06T09:26:13Z</time>
  </trkpt>
  <trkpt lat="33.622271" lon="-2.627784">
   <ele>1147.00</ele>
   <time>2014-04-06T09:26:16Z</time>
  </trkpt>
  <trkpt lat="33.622512" lon="-2.627922">
   <ele>1147.00</ele>
   <time>2014-04-06T09:26:19Z</time>
  </trkpt>
  <trkpt lat="33.622704" lon="-2.627988">
   <ele>1147.00</ele>
   <time>2014-04-06T09:26:21Z</time>
  </trkpt>
  <trkpt lat="33.623528" lon="-2.628253">
   <ele>1146.00</ele>
   <time>2014-04-06T09:26:29Z</time>
  </trkpt>
  <trkpt lat="33.623718" lon="-2.628338">
   <ele>1146.00</ele>
   <time>2014-04-06T09:26:31Z</time>
  </trkpt>
  <trkpt lat="33.623903" lon="-2.628441">
   <ele>1146.00</ele>
   <time>2014-04-06T09:26:33Z</time>
  </trkpt>
  <trkpt lat="33.624181" lon="-2.628599">
   <ele>1147.00</ele>
   <time>2014-04-06T09:26:36Z</time>
  </trkpt>
  <trkpt lat="33.624375" lon="-2.628668">
   <ele>1147.00</ele>
   <time>2014-04-06T09:26:38Z</time>
  </trkpt>
  <trkpt lat="33.624578" lon="-2.628697">
   <ele>1147.00</ele>
   <time>2014-04-06T09:26:40Z</time>
  </trkpt>
  <trkpt lat="33.624781" lon="-2.628725">
   <ele>1147.00</ele>
   <time>2014-04-06T09:26:42Z</time>
  </trkpt>
  <trkpt lat="33.624984" lon="-2.628769">
   <ele>1146.00</ele>
   <time>2014-04-06T09:26:44Z</time>
  </trkpt>
  <trkpt lat="33.625187" lon="-2.628828">
   <ele>1146.00</ele>
   <time>2014-04-06T09:26:46Z</time>
  </trkpt>
  <trkpt lat="33.625384" lon="-2.628906">
   <ele>1146.00</ele>
   <time>2014-04-06T09:26:48Z</time>
  </trkpt>
  <trkpt lat="33.625745" lon="-2.629051">
   <ele>1146.00</ele>
   <time>2014-04-06T09:26:52Z</time>
  </trkpt>
  <trkpt lat="33.626005" lon="-2.629059">
   <ele>1146.00</ele>
   <time>2014-04-06T09:26:55Z</time>
  </trkpt>
  <trkpt lat="33.626275" lon="-2.629004">
   <ele>1145.00</ele>
   <time>2014-04-06T09:26:58Z</time>
  </trkpt>
  <trkpt lat="33.626465" lon="-2.629014">
   <ele>1145.00</ele>
   <time>2014-04-06T09:27:00Z</time>
  </trkpt>
  <trkpt lat="33.626658" lon="-2.629024">
   <ele>1145.00</ele>
   <time>2014-04-06T09:27:02Z</time>
  </trkpt>
  <trkpt lat="33.626855" lon="-2.629045">
   <ele>1145.00</ele>
   <time>2014-04-06T09:27:04Z</time>
  </trkpt>
  <trkpt lat="33.627055" lon="-2.629088">
   <ele>1145.00</ele>
   <time>2014-04-06T09:27:06Z</time>
  </trkpt>
  <trkpt lat="33.627860" lon="-2.629275">
   <ele>1145.00</ele>
   <time>2014-04-06T09:27:14Z</time>
  </trkpt>
  <trkpt lat="33.628124" lon="-2.629305">
   <ele>1145.00</ele>
   <time>2014-04-06T09:27:17Z</time>
  </trkpt>
  <trkpt lat="33.628395" lon="-2.629319">
   <ele>1145.00</ele>
   <time>2014-04-06T09:27:20Z</time>
  </trkpt>
  <trkpt lat="33.628582" lon="-2.629295">
   <ele>1145.00</ele>
   <time>2014-04-06T09:27:22Z</time>
  </trkpt>
  <trkpt lat="33.628774" lon="-2.629237">
   <ele>1145.00</ele>
   <time>2014-04-06T09:27:24Z</time>
  </trkpt>
  <trkpt lat="33.629270" lon="-2.629060">
   <ele>1145.00</ele>
   <time>2014-04-06T09:27:29Z</time>
  </trkpt>
  <trkpt lat="33.629467" lon="-2.629010">
   <ele>1146.00</ele>
   <time>2014-04-06T09:27:31Z</time>
  </trkpt>
  <trkpt lat="33.629754" lon="-2.628945">
   <ele>1146.00</ele>
   <time>2014-04-06T09:27:34Z</time>
  </trkpt>
  <trkpt lat="33.630517" lon="-2.628701">
   <ele>1146.00</ele>
   <time>2014-04-06T09:27:42Z</time>
  </trkpt>
  <trkpt lat="33.631244" lon="-2.628437">
   <ele>1146.00</ele>
   <time>2014-04-06T09:27:49Z</time>
  </trkpt>
  <trkpt lat="33.631943" lon="-2.628223">
   <ele>1147.00</ele>
   <time>2014-04-06T09:27:55Z</time>
  </trkpt>
  <trkpt lat="33.632530" lon="-2.628010">
   <ele>1146.00</ele>
   <time>2014-04-06T09:28:00Z</time>
  </trkpt>
  <trkpt lat="33.632763" lon="-2.627934">
   <ele>1146.00</ele>
   <time>2014-04-06T09:28:02Z</time>
  </trkpt>
  <trkpt lat="33.633216" lon="-2.627764">
   <ele>1146.00</ele>
   <time>2014-04-06T09:28:06Z</time>
  </trkpt>
  <trkpt lat="33.633443" lon="-2.627707">
   <ele>1146.00</ele>
   <time>2014-04-06T09:28:08Z</time>
  </trkpt>
  <trkpt lat="33.633999" lon="-2.627589">
   <ele>1146.00</ele>
   <time>2014-04-06T09:28:13Z</time>
  </trkpt>
  <trkpt lat="33.634423" lon="-2.627463">
   <ele>1145.00</ele>
   <time>2014-04-06T09:28:17Z</time>
  </trkpt>
  <trkpt lat="33.634630" lon="-2.627419">
   <ele>1145.00</ele>
   <time>2014-04-06T09:28:19Z</time>
  </trkpt>
  <trkpt lat="33.634837" lon="-2.627348">
   <ele>1145.00</ele>
   <time>2014-04-06T09:28:21Z</time>
  </trkpt>
  <trkpt lat="33.635048" lon="-2.627256">
   <ele>1145.00</ele>
   <time>2014-04-06T09:28:23Z</time>
  </trkpt>
  <trkpt lat="33.635458" lon="-2.627052">
   <ele>1145.00</ele>
   <time>2014-04-06T09:28:27Z</time>
  </trkpt>
  <trkpt lat="33.635758" lon="-2.626887">
   <ele>1145.00</ele>
   <time>2014-04-06T09:28:30Z</time>
  </trkpt>
  <trkpt lat="33.636942" lon="-2.626317">
   <ele>1144.00</ele>
   <time>2014-04-06T09:28:41Z</time>
  </trkpt>
  <trkpt lat="33.637147" lon="-2.626229">
   <ele>1144.00</ele>
   <time>2014-04-06T09:28:43Z</time>
  </trkpt>
  <trkpt lat="33.637346" lon="-2.626171">
   <ele>1144.00</ele>
   <time>2014-04-06T09:28:45Z</time>
  </trkpt>
  <trkpt lat="33.637585" lon="-2.626062">
   <ele>1144.00</ele>
   <time>2014-04-06T09:28:48Z</time>
  </trkpt>
  <trkpt lat="33.637776" lon="-2.625900">
   <ele>1144.00</ele>
   <time>2014-04-06T09:28:51Z</time>
  </trkpt>
  <trkpt lat="33.637977" lon="-2.625741">
   <ele>1144.00</ele>
   <time>2014-04-06T09:28:54Z</time>
  </trkpt>
  <trkpt lat="33.639119" lon="-2.624772">
   <ele>1143.00</ele>
   <time>2014-04-06T09:29:08Z</time>
  </trkpt>
  <trkpt lat="33.639295" lon="-2.624685">
   <ele>1143.00</ele>
   <time>2014-04-06T09:29:10Z</time>
  </trkpt>
  <trkpt lat="33.639548" lon="-2.624599">
   <ele>1143.00</ele>
   <time>2014-04-06T09:29:13Z</time>
  </trkpt>
  <trkpt lat="33.639713" lon="-2.624455">
   <ele>1143.00</ele>
   <time>2014-04-06T09:29:16Z</time>
  </trkpt>
  <trkpt lat="33.639744" lon="-2.624219">
   <ele>1142.00</ele>
   <time>2014-04-06T09:29:23Z</time>
  </trkpt>
  <trkpt lat="33.639741" lon="-2.623995">
   <ele>1142.00</ele>
   <time>2014-04-06T09:29:28Z</time>
  </trkpt>
  <trkpt lat="33.639803" lon="-2.623792">
   <ele>1142.00</ele>
   <time>2014-04-06T09:29:34Z</time>
  </trkpt>
  <trkpt lat="33.639834" lon="-2.623577">
   <ele>1142.00</ele>
   <time>2014-04-06T09:29:40Z</time>
  </trkpt>
  <trkpt lat="33.639668" lon="-2.623617">
   <ele>1141.00</ele>
   <time>2014-04-06T09:29:47Z</time>
  </trkpt>
  <trkpt lat="33.639552" lon="-2.623793">
   <ele>1139.00</ele>
   <time>2014-04-06T09:29:52Z</time>
  </trkpt>
  <trkpt lat="33.639542" lon="-2.624047">
   <ele>1139.00</ele>
   <time>2014-04-06T09:29:57Z</time>
  </trkpt>
  <trkpt lat="33.639515" lon="-2.624287">
   <ele>1138.00</ele>
   <time>2014-04-06T09:30:01Z</time>
  </trkpt>
  <trkpt lat="33.639375" lon="-2.624431">
   <ele>1138.00</ele>
   <time>2014-04-06T09:30:04Z</time>
  </trkpt>
  <trkpt lat="33.639157" lon="-2.624643">
   <ele>1137.00</ele>
   <time>2014-04-06T09:30:08Z</time>
  </trkpt>
  <trkpt lat="33.639001" lon="-2.624830">
   <ele>1137.00</ele>
   <time>2014-04-06T09:30:11Z</time>
  </trkpt>
  <trkpt lat="33.638808" lon="-2.625014">
   <ele>1137.00</ele>
   <time>2014-04-06T09:30:14Z</time>
  </trkpt>
  <trkpt lat="33.638616" lon="-2.625189">
   <ele>1136.00</ele>
   <time>2014-04-06T09:30:17Z</time>
  </trkpt>
  <trkpt lat="33.638406" lon="-2.625404">
   <ele>1136.00</ele>
   <time>2014-04-06T09:30:20Z</time>
  </trkpt>
  <trkpt lat="33.638183" lon="-2.625657">
   <ele>1136.00</ele>
   <time>2014-04-06T09:30:23Z</time>
  </trkpt>
  <trkpt lat="33.638046" lon="-2.625837">
   <ele>1135.00</ele>
   <time>2014-04-06T09:30:25Z</time>
  </trkpt>
  <trkpt lat="33.637857" lon="-2.626111">
   <ele>1135.00</ele>
   <time>2014-04-06T09:30:28Z</time>
  </trkpt>
  <trkpt lat="33.637748" lon="-2.626285">
   <ele>1135.00</ele>
   <time>2014-04-06T09:30:30Z</time>
  </trkpt>
  <trkpt lat="33.637621" lon="-2.626522">
   <ele>1135.00</ele>
   <time>2014-04-06T09:30:33Z</time>
  </trkpt>
  <trkpt lat="33.637709" lon="-2.626669">
   <ele>1135.00</ele>
   <time>2014-04-06T09:30:37Z</time>
  </trkpt>
  <trkpt lat="33.637897" lon="-2.626599">
   <ele>1135.00</ele>
   <time>2014-04-06T09:30:40Z</time>
  </trkpt>
  <trkpt lat="33.638151" lon="-2.626568">
   <ele>1136.00</ele>
   <time>2014-04-06T09:30:43Z</time>
  </trkpt>
  <trkpt lat="33.638518" lon="-2.626541">
   <ele>1137.00</ele>
   <time>2014-04-06T09:30:47Z</time>
  </trkpt>
  <trkpt lat="33.638776" lon="-2.626603">
   <ele>1138.00</ele>
   <time>2014-04-06T09:30:50Z</time>
  </trkpt>
  <trkpt lat="33.639015" lon="-2.626724">
   <ele>1138.00</ele>
   <time>2014-04-06T09:30:53Z</time>
  </trkpt>
  <trkpt lat="33.639215" lon="-2.626801">
   <ele>1138.00</ele>
   <time>2014-04-06T09:30:56Z</time>
  </trkpt>
  <trkpt lat="33.639405" lon="-2.626755">
   <ele>1138.00</ele>
   <time>2014-04-06T09:31:01Z</time>
  </trkpt>
  <trkpt lat="33.639578" lon="-2.626814">
   <ele>1139.00</ele>
   <time>2014-04-06T09:31:09Z</time>
  </trkpt>
  <trkpt lat="33.639749" lon="-2.626917">
   <ele>1139.00</ele>
   <time>2014-04-06T09:31:15Z</time>
  </trkpt>
  <trkpt lat="33.639911" lon="-2.626818">
   <ele>1140.00</ele>
   <time>2014-04-06T09:31:18Z</time>
  </trkpt>
  <trkpt lat="33.640125" lon="-2.626735">
   <ele>1140.00</ele>
   <time>2014-04-06T09:31:21Z</time>
  </trkpt>
  <trkpt lat="33.640341" lon="-2.626662">
   <ele>1140.00</ele>
   <time>2014-04-06T09:31:24Z</time>
  </trkpt>
  <trkpt lat="33.640654" lon="-2.626546">
   <ele>1140.00</ele>
   <time>2014-04-06T09:31:28Z</time>
  </trkpt>
  <trkpt lat="33.640887" lon="-2.626386">
   <ele>1140.00</ele>
   <time>2014-04-06T09:31:31Z</time>
  </trkpt>
  <trkpt lat="33.641041" lon="-2.626247">
   <ele>1141.00</ele>
   <time>2014-04-06T09:31:33Z</time>
  </trkpt>
  <trkpt lat="33.641193" lon="-2.626079">
   <ele>1141.00</ele>
   <time>2014-04-06T09:31:35Z</time>
  </trkpt>
  <trkpt lat="33.641337" lon="-2.625912">
   <ele>1142.00</ele>
   <time>2014-04-06T09:31:37Z</time>
  </trkpt>
  <trkpt lat="33.641448" lon="-2.625721">
   <ele>1142.00</ele>
   <time>2014-04-06T09:31:39Z</time>
  </trkpt>
  <trkpt lat="33.641531" lon="-2.625501">
   <ele>1142.00</ele>
   <time>2014-04-06T09:31:41Z</time>
  </trkpt>
  <trkpt lat="33.641593" lon="-2.625283">
   <ele>1142.00</ele>
   <time>2014-04-06T09:31:43Z</time>
  </trkpt>
  <trkpt lat="33.641691" lon="-2.625008">
   <ele>1142.00</ele>
   <time>2014-04-06T09:31:46Z</time>
  </trkpt>
  <trkpt lat="33.641855" lon="-2.624878">
   <ele>1142.00</ele>
   <time>2014-04-06T09:31:51Z</time>
  </trkpt>
  <trkpt lat="33.642090" lon="-2.624829">
   <ele>1142.00</ele>
   <time>2014-04-06T09:32:03Z</time>
  </trkpt>
  <trkpt lat="33.642266" lon="-2.624785">
   <ele>1141.00</ele>
   <time>2014-04-06T09:32:13Z</time>
  </trkpt>
  <trkpt lat="33.642497" lon="-2.624744">
   <ele>1141.00</ele>
   <time>2014-04-06T09:32:18Z</time>
  </trkpt>
  <trkpt lat="33.642849" lon="-2.624646">
   <ele>1141.00</ele>
   <time>2014-04-06T09:32:23Z</time>
  </trkpt>
  <trkpt lat="33.643614" lon="-2.624408">
   <ele>1141.00</ele>
   <time>2014-04-06T09:32:31Z</time>
  </trkpt>
  <trkpt lat="33.643932" lon="-2.624299">
   <ele>1141.00</ele>
   <time>2014-04-06T09:32:34Z</time>
  </trkpt>
  <trkpt lat="33.644650" lon="-2.624124">
   <ele>1141.00</ele>
   <time>2014-04-06T09:32:40Z</time>
  </trkpt>
  <trkpt lat="33.644896" lon="-2.624034">
   <ele>1141.00</ele>
   <time>2014-04-06T09:32:42Z</time>
  </trkpt>
  <trkpt lat="33.645727" lon="-2.623681">
   <ele>1141.00</ele>
   <time>2014-04-06T09:32:49Z</time>
  </trkpt>
  <trkpt lat="33.646599" lon="-2.623246">
   <ele>1141.00</ele>
   <time>2014-04-06T09:32:56Z</time>
  </trkpt>
  <trkpt lat="33.646837" lon="-2.623111">
   <ele>1141.00</ele>
   <time>2014-04-06T09:32:58Z</time>
  </trkpt>
  <trkpt lat="33.647062" lon="-2.622959">
   <ele>1141.00</ele>
   <time>2014-04-06T09:33:00Z</time>
  </trkpt>
  <trkpt lat="33.647865" lon="-2.622369">
   <ele>1141.00</ele>
   <time>2014-04-06T09:33:08Z</time>
  </trkpt>
  <trkpt lat="33.648140" lon="-2.622151">
   <ele>1141.00</ele>
   <time>2014-04-06T09:33:11Z</time>
  </trkpt>
  <trkpt lat="33.648330" lon="-2.622034">
   <ele>1141.00</ele>
   <time>2014-04-06T09:33:13Z</time>
  </trkpt>
  <trkpt lat="33.648523" lon="-2.621918">
   <ele>1141.00</ele>
   <time>2014-04-06T09:33:15Z</time>
  </trkpt>
  <trkpt lat="33.648701" lon="-2.621790">
   <ele>1141.00</ele>
   <time>2014-04-06T09:33:17Z</time>
  </trkpt>
  <trkpt lat="33.648851" lon="-2.621640">
   <ele>1141.00</ele>
   <time>2014-04-06T09:33:19Z</time>
  </trkpt>
  <trkpt lat="33.648968" lon="-2.621459">
   <ele>1140.00</ele>
   <time>2014-04-06T09:33:21Z</time>
  </trkpt>
  <trkpt lat="33.649038" lon="-2.621248">
   <ele>1140.00</ele>
   <time>2014-04-06T09:33:23Z</time>
  </trkpt>
  <trkpt lat="33.649115" lon="-2.620919">
   <ele>1139.00</ele>
   <time>2014-04-06T09:33:26Z</time>
  </trkpt>
  <trkpt lat="33.649210" lon="-2.620719">
   <ele>1139.00</ele>
   <time>2014-04-06T09:33:28Z</time>
  </trkpt>
  <trkpt lat="33.649339" lon="-2.620530">
   <ele>1139.00</ele>
   <time>2014-04-06T09:33:30Z</time>
  </trkpt>
  <trkpt lat="33.649491" lon="-2.620363">
   <ele>1139.00</ele>
   <time>2014-04-06T09:33:32Z</time>
  </trkpt>
  <trkpt lat="33.649648" lon="-2.620204">
   <ele>1139.00</ele>
   <time>2014-04-06T09:33:34Z</time>
  </trkpt>
  <trkpt lat="33.649800" lon="-2.620044">
   <ele>1139.00</ele>
   <time>2014-04-06T09:33:36Z</time>
  </trkpt>
  <trkpt lat="33.649949" lon="-2.619889">
   <ele>1139.00</ele>
   <time>2014-04-06T09:33:38Z</time>
  </trkpt>
  <trkpt lat="33.650157" lon="-2.619651">
   <ele>1139.00</ele>
   <time>2014-04-06T09:33:41Z</time>
  </trkpt>
  <trkpt lat="33.650310" lon="-2.619521">
   <ele>1139.00</ele>
   <time>2014-04-06T09:33:43Z</time>
  </trkpt>
  <trkpt lat="33.650461" lon="-2.619385">
   <ele>1139.00</ele>
   <time>2014-04-06T09:33:45Z</time>
  </trkpt>
  <trkpt lat="33.650609" lon="-2.619231">
   <ele>1139.00</ele>
   <time>2014-04-06T09:33:47Z</time>
  </trkpt>
  <trkpt lat="33.650750" lon="-2.619061">
   <ele>1139.00</ele>
   <time>2014-04-06T09:33:49Z</time>
  </trkpt>
  <trkpt lat="33.650864" lon="-2.618871">
   <ele>1139.00</ele>
   <time>2014-04-06T09:33:51Z</time>
  </trkpt>
  <trkpt lat="33.650975" lon="-2.618674">
   <ele>1139.00</ele>
   <time>2014-04-06T09:33:53Z</time>
  </trkpt>
  <trkpt lat="33.651156" lon="-2.618399">
   <ele>1139.00</ele>
   <time>2014-04-06T09:33:56Z</time>
  </trkpt>
  <trkpt lat="33.651282" lon="-2.618233">
   <ele>1138.00</ele>
   <time>2014-04-06T09:33:58Z</time>
  </trkpt>
  <trkpt lat="33.651539" lon="-2.617907">
   <ele>1138.00</ele>
   <time>2014-04-06T09:34:02Z</time>
  </trkpt>
  <trkpt lat="33.651676" lon="-2.617747">
   <ele>1138.00</ele>
   <time>2014-04-06T09:34:04Z</time>
  </trkpt>
  <trkpt lat="33.651793" lon="-2.617561">
   <ele>1138.00</ele>
   <time>2014-04-06T09:34:06Z</time>
  </trkpt>
  <trkpt lat="33.651904" lon="-2.617365">
   <ele>1138.00</ele>
   <time>2014-04-06T09:34:08Z</time>
  </trkpt>
  <trkpt lat="33.652024" lon="-2.617182">
   <ele>1138.00</ele>
   <time>2014-04-06T09:34:10Z</time>
  </trkpt>
  <trkpt lat="33.652161" lon="-2.617018">
   <ele>1138.00</ele>
   <time>2014-04-06T09:34:12Z</time>
  </trkpt>
  <trkpt lat="33.652296" lon="-2.616837">
   <ele>1138.00</ele>
   <time>2014-04-06T09:34:14Z</time>
  </trkpt>
  <trkpt lat="33.652418" lon="-2.616623">
   <ele>1138.00</ele>
   <time>2014-04-06T09:34:16Z</time>
  </trkpt>
  <trkpt lat="33.652593" lon="-2.616258">
   <ele>1137.00</ele>
   <time>2014-04-06T09:34:19Z</time>
  </trkpt>
  <trkpt lat="33.653059" lon="-2.615225">
   <ele>1137.00</ele>
   <time>2014-04-06T09:34:27Z</time>
  </trkpt>
  <trkpt lat="33.653219" lon="-2.614811">
   <ele>1137.00</ele>
   <time>2014-04-06T09:34:30Z</time>
  </trkpt>
  <trkpt lat="33.653297" lon="-2.614528">
   <ele>1136.00</ele>
   <time>2014-04-06T09:34:32Z</time>
  </trkpt>
  <trkpt lat="33.653399" lon="-2.614096">
   <ele>1136.00</ele>
   <time>2014-04-06T09:34:35Z</time>
  </trkpt>
  <trkpt lat="33.653483" lon="-2.613808">
   <ele>1136.00</ele>
   <time>2014-04-06T09:34:37Z</time>
  </trkpt>
  <trkpt lat="33.653643" lon="-2.613299">
   <ele>1137.00</ele>
   <time>2014-04-06T09:34:41Z</time>
  </trkpt>
  <trkpt lat="33.653681" lon="-2.613054">
   <ele>1136.00</ele>
   <time>2014-04-06T09:34:43Z</time>
  </trkpt>
  <trkpt lat="33.653708" lon="-2.612794">
   <ele>1136.00</ele>
   <time>2014-04-06T09:34:45Z</time>
  </trkpt>
  <trkpt lat="33.653770" lon="-2.612530">
   <ele>1136.00</ele>
   <time>2014-04-06T09:34:47Z</time>
  </trkpt>
  <trkpt lat="33.653824" lon="-2.612268">
   <ele>1136.00</ele>
   <time>2014-04-06T09:34:49Z</time>
  </trkpt>
  <trkpt lat="33.653877" lon="-2.612021">
   <ele>1136.00</ele>
   <time>2014-04-06T09:34:51Z</time>
  </trkpt>
  <trkpt lat="33.653974" lon="-2.611797">
   <ele>1137.00</ele>
   <time>2014-04-06T09:34:53Z</time>
  </trkpt>
  <trkpt lat="33.654109" lon="-2.611589">
   <ele>1137.00</ele>
   <time>2014-04-06T09:34:55Z</time>
  </trkpt>
  <trkpt lat="33.654264" lon="-2.611388">
   <ele>1137.00</ele>
   <time>2014-04-06T09:34:57Z</time>
  </trkpt>
  <trkpt lat="33.654433" lon="-2.611199">
   <ele>1137.00</ele>
   <time>2014-04-06T09:34:59Z</time>
  </trkpt>
  <trkpt lat="33.654617" lon="-2.611028">
   <ele>1137.00</ele>
   <time>2014-04-06T09:35:01Z</time>
  </trkpt>
  <trkpt lat="33.654801" lon="-2.610849">
   <ele>1137.00</ele>
   <time>2014-04-06T09:35:03Z</time>
  </trkpt>
  <trkpt lat="33.654971" lon="-2.610648">
   <ele>1137.00</ele>
   <time>2014-04-06T09:35:05Z</time>
  </trkpt>
  <trkpt lat="33.655229" lon="-2.610337">
   <ele>1137.00</ele>
   <time>2014-04-06T09:35:08Z</time>
  </trkpt>
  <trkpt lat="33.655417" lon="-2.610139">
   <ele>1137.00</ele>
   <time>2014-04-06T09:35:10Z</time>
  </trkpt>
  <trkpt lat="33.656340" lon="-2.609209">
   <ele>1137.00</ele>
   <time>2014-04-06T09:35:19Z</time>
  </trkpt>
  <trkpt lat="33.656572" lon="-2.609002">
   <ele>1136.00</ele>
   <time>2014-04-06T09:35:21Z</time>
  </trkpt>
  <trkpt lat="33.657425" lon="-2.608278">
   <ele>1135.00</ele>
   <time>2014-04-06T09:35:28Z</time>
  </trkpt>
  <trkpt lat="33.657676" lon="-2.608098">
   <ele>1135.00</ele>
   <time>2014-04-06T09:35:30Z</time>
  </trkpt>
  <trkpt lat="33.657929" lon="-2.607943">
   <ele>1135.00</ele>
   <time>2014-04-06T09:35:32Z</time>
  </trkpt>
  <trkpt lat="33.658188" lon="-2.607823">
   <ele>1135.00</ele>
   <time>2014-04-06T09:35:34Z</time>
  </trkpt>
  <trkpt lat="33.658848" lon="-2.607590">
   <ele>1135.00</ele>
   <time>2014-04-06T09:35:39Z</time>
  </trkpt>
  <trkpt lat="33.659095" lon="-2.607457">
   <ele>1135.00</ele>
   <time>2014-04-06T09:35:41Z</time>
  </trkpt>
  <trkpt lat="33.659335" lon="-2.607295">
   <ele>1136.00</ele>
   <time>2014-04-06T09:35:43Z</time>
  </trkpt>
  <trkpt lat="33.659565" lon="-2.607137">
   <ele>1136.00</ele>
   <time>2014-04-06T09:35:45Z</time>
  </trkpt>
  <trkpt lat="33.659892" lon="-2.606932">
   <ele>1136.00</ele>
   <time>2014-04-06T09:35:48Z</time>
  </trkpt>
  <trkpt lat="33.660360" lon="-2.606552">
   <ele>1136.00</ele>
   <time>2014-04-06T09:35:53Z</time>
  </trkpt>
  <trkpt lat="33.660555" lon="-2.606421">
   <ele>1136.00</ele>
   <time>2014-04-06T09:35:55Z</time>
  </trkpt>
  <trkpt lat="33.660852" lon="-2.606226">
   <ele>1136.00</ele>
   <time>2014-04-06T09:35:58Z</time>
  </trkpt>
  <trkpt lat="33.661034" lon="-2.606079">
   <ele>1136.00</ele>
   <time>2014-04-06T09:36:00Z</time>
  </trkpt>
  <trkpt lat="33.661212" lon="-2.605941">
   <ele>1136.00</ele>
   <time>2014-04-06T09:36:02Z</time>
  </trkpt>
  <trkpt lat="33.661395" lon="-2.605825">
   <ele>1136.00</ele>
   <time>2014-04-06T09:36:04Z</time>
  </trkpt>
  <trkpt lat="33.661574" lon="-2.605721">
   <ele>1136.00</ele>
   <time>2014-04-06T09:36:06Z</time>
  </trkpt>
  <trkpt lat="33.661817" lon="-2.605653">
   <ele>1136.00</ele>
   <time>2014-04-06T09:36:09Z</time>
  </trkpt>
  <trkpt lat="33.662008" lon="-2.605701">
   <ele>1136.00</ele>
   <time>2014-04-06T09:36:12Z</time>
  </trkpt>
  <trkpt lat="33.662225" lon="-2.605843">
   <ele>1136.00</ele>
   <time>2014-04-06T09:36:16Z</time>
  </trkpt>
  <trkpt lat="33.662587" lon="-2.606078">
   <ele>1136.00</ele>
   <time>2014-04-06T09:36:21Z</time>
  </trkpt>
  <trkpt lat="33.662855" lon="-2.606219">
   <ele>1136.00</ele>
   <time>2014-04-06T09:36:24Z</time>
  </trkpt>
  <trkpt lat="33.663036" lon="-2.606319">
   <ele>1135.00</ele>
   <time>2014-04-06T09:36:26Z</time>
  </trkpt>
  <trkpt lat="33.663210" lon="-2.606431">
   <ele>1135.00</ele>
   <time>2014-04-06T09:36:28Z</time>
  </trkpt>
  <trkpt lat="33.663368" lon="-2.606563">
   <ele>1135.00</ele>
   <time>2014-04-06T09:36:30Z</time>
  </trkpt>
  <trkpt lat="33.663505" lon="-2.606713">
   <ele>1135.00</ele>
   <time>2014-04-06T09:36:32Z</time>
  </trkpt>
  <trkpt lat="33.663711" lon="-2.606950">
   <ele>1136.00</ele>
   <time>2014-04-06T09:36:35Z</time>
  </trkpt>
  <trkpt lat="33.663910" lon="-2.607164">
   <ele>1136.00</ele>
   <time>2014-04-06T09:36:38Z</time>
  </trkpt>
  <trkpt lat="33.664103" lon="-2.607329">
   <ele>1136.00</ele>
   <time>2014-04-06T09:36:41Z</time>
  </trkpt>
  <trkpt lat="33.664260" lon="-2.607460">
   <ele>1136.00</ele>
   <time>2014-04-06T09:36:44Z</time>
  </trkpt>
  <trkpt lat="33.664419" lon="-2.607622">
   <ele>1136.00</ele>
   <time>2014-04-06T09:36:49Z</time>
  </trkpt>
  <trkpt lat="33.664577" lon="-2.607753">
   <ele>1135.00</ele>
   <time>2014-04-06T09:36:53Z</time>
  </trkpt>
  <trkpt lat="33.664768" lon="-2.607890">
   <ele>1135.00</ele>
   <time>2014-04-06T09:36:57Z</time>
  </trkpt>
  <trkpt lat="33.664952" lon="-2.608045">
   <ele>1135.00</ele>
   <time>2014-04-06T09:37:01Z</time>
  </trkpt>
  <trkpt lat="33.665114" lon="-2.608195">
   <ele>1135.00</ele>
   <time>2014-04-06T09:37:05Z</time>
  </trkpt>
  <trkpt lat="33.665272" lon="-2.608320">
   <ele>1135.00</ele>
   <time>2014-04-06T09:37:09Z</time>
  </trkpt>
  <trkpt lat="33.665471" lon="-2.608405">
   <ele>1135.00</ele>
   <time>2014-04-06T09:37:15Z</time>
  </trkpt>
  <trkpt lat="33.665661" lon="-2.608379">
   <ele>1135.00</ele>
   <time>2014-04-06T09:37:19Z</time>
  </trkpt>
  <trkpt lat="33.665852" lon="-2.608292">
   <ele>1135.00</ele>
   <time>2014-04-06T09:37:23Z</time>
  </trkpt>
  <trkpt lat="33.666065" lon="-2.608287">
   <ele>1135.00</ele>
   <time>2014-04-06T09:37:27Z</time>
  </trkpt>
  <trkpt lat="33.666244" lon="-2.608316">
   <ele>1135.00</ele>
   <time>2014-04-06T09:37:30Z</time>
  </trkpt>
  <trkpt lat="33.666588" lon="-2.608404">
   <ele>1134.00</ele>
   <time>2014-04-06T09:37:35Z</time>
  </trkpt>
  <trkpt lat="33.666852" lon="-2.608433">
   <ele>1135.00</ele>
   <time>2014-04-06T09:37:38Z</time>
  </trkpt>
  <trkpt lat="33.667037" lon="-2.608454">
   <ele>1135.00</ele>
   <time>2014-04-06T09:37:40Z</time>
  </trkpt>
  <trkpt lat="33.667222" lon="-2.608487">
   <ele>1135.00</ele>
   <time>2014-04-06T09:37:42Z</time>
  </trkpt>
  <trkpt lat="33.667409" lon="-2.608529">
   <ele>1135.00</ele>
   <time>2014-04-06T09:37:44Z</time>
  </trkpt>
  <trkpt lat="33.667596" lon="-2.608580">
   <ele>1135.00</ele>
   <time>2014-04-06T09:37:46Z</time>
  </trkpt>
  <trkpt lat="33.668432" lon="-2.608842">
   <ele>1134.00</ele>
   <time>2014-04-06T09:37:55Z</time>
  </trkpt>
  <trkpt lat="33.668695" lon="-2.608912">
   <ele>1134.00</ele>
   <time>2014-04-06T09:37:58Z</time>
  </trkpt>
  <trkpt lat="33.668949" lon="-2.608975">
   <ele>1134.00</ele>
   <time>2014-04-06T09:38:01Z</time>
  </trkpt>
  <trkpt lat="33.669197" lon="-2.608975">
   <ele>1134.00</ele>
   <time>2014-04-06T09:38:04Z</time>
  </trkpt>
  <trkpt lat="33.669436" lon="-2.608849">
   <ele>1134.00</ele>
   <time>2014-04-06T09:38:07Z</time>
  </trkpt>
  <trkpt lat="33.669587" lon="-2.608709">
   <ele>1134.00</ele>
   <time>2014-04-06T09:38:09Z</time>
  </trkpt>
  <trkpt lat="33.669811" lon="-2.608496">
   <ele>1135.00</ele>
   <time>2014-04-06T09:38:12Z</time>
  </trkpt>
  <trkpt lat="33.669941" lon="-2.608335">
   <ele>1135.00</ele>
   <time>2014-04-06T09:38:14Z</time>
  </trkpt>
  <trkpt lat="33.670043" lon="-2.608155">
   <ele>1135.00</ele>
   <time>2014-04-06T09:38:16Z</time>
  </trkpt>
  <trkpt lat="33.670121" lon="-2.607953">
   <ele>1135.00</ele>
   <time>2014-04-06T09:38:18Z</time>
  </trkpt>
  <trkpt lat="33.670184" lon="-2.607737">
   <ele>1135.00</ele>
   <time>2014-04-06T09:38:20Z</time>
  </trkpt>
  <trkpt lat="33.670234" lon="-2.607526">
   <ele>1135.00</ele>
   <time>2014-04-06T09:38:22Z</time>
  </trkpt>
  <trkpt lat="33.670272" lon="-2.607218">
   <ele>1134.00</ele>
   <time>2014-04-06T09:38:25Z</time>
  </trkpt>
  <trkpt lat="33.670252" lon="-2.606913">
   <ele>1133.00</ele>
   <time>2014-04-06T09:38:28Z</time>
  </trkpt>
  <trkpt lat="33.670253" lon="-2.606613">
   <ele>1133.00</ele>
   <time>2014-04-06T09:38:31Z</time>
  </trkpt>
  <trkpt lat="33.670310" lon="-2.606321">
   <ele>1133.00</ele>
   <time>2014-04-06T09:38:34Z</time>
  </trkpt>
  <trkpt lat="33.670439" lon="-2.606040">
   <ele>1132.00</ele>
   <time>2014-04-06T09:38:37Z</time>
  </trkpt>
  <trkpt lat="33.670607" lon="-2.605761">
   <ele>1132.00</ele>
   <time>2014-04-06T09:38:40Z</time>
  </trkpt>
  <trkpt lat="33.670716" lon="-2.605562">
   <ele>1132.00</ele>
   <time>2014-04-06T09:38:42Z</time>
  </trkpt>
  <trkpt lat="33.670811" lon="-2.605350">
   <ele>1132.00</ele>
   <time>2014-04-06T09:38:44Z</time>
  </trkpt>
  <trkpt lat="33.670874" lon="-2.605121">
   <ele>1131.00</ele>
   <time>2014-04-06T09:38:46Z</time>
  </trkpt>
  <trkpt lat="33.670919" lon="-2.604887">
   <ele>1130.00</ele>
   <time>2014-04-06T09:38:48Z</time>
  </trkpt>
  <trkpt lat="33.671015" lon="-2.604313">
   <ele>1130.00</ele>
   <time>2014-04-06T09:38:53Z</time>
  </trkpt>
  <trkpt lat="33.671039" lon="-2.603983">
   <ele>1130.00</ele>
   <time>2014-04-06T09:38:56Z</time>
  </trkpt>
  <trkpt lat="33.671085" lon="-2.603769">
   <ele>1130.00</ele>
   <time>2014-04-06T09:38:58Z</time>
  </trkpt>
  <trkpt lat="33.671151" lon="-2.603560">
   <ele>1130.00</ele>
   <time>2014-04-06T09:39:00Z</time>
  </trkpt>
  <trkpt lat="33.671253" lon="-2.603273">
   <ele>1131.00</ele>
   <time>2014-04-06T09:39:03Z</time>
  </trkpt>
  <trkpt lat="33.671384" lon="-2.603052">
   <ele>1132.00</ele>
   <time>2014-04-06T09:39:06Z</time>
  </trkpt>
  <trkpt lat="33.671575" lon="-2.602922">
   <ele>1132.00</ele>
   <time>2014-04-06T09:39:09Z</time>
  </trkpt>
  <trkpt lat="33.671688" lon="-2.602722">
   <ele>1133.00</ele>
   <time>2014-04-06T09:39:12Z</time>
  </trkpt>
  <trkpt lat="33.671771" lon="-2.602512">
   <ele>1133.00</ele>
   <time>2014-04-06T09:39:15Z</time>
  </trkpt>
  <trkpt lat="33.671943" lon="-2.602403">
   <ele>1133.00</ele>
   <time>2014-04-06T09:39:18Z</time>
  </trkpt>
  <trkpt lat="33.672100" lon="-2.602259">
   <ele>1133.00</ele>
   <time>2014-04-06T09:39:21Z</time>
  </trkpt>
  <trkpt lat="33.672181" lon="-2.602018">
   <ele>1133.00</ele>
   <time>2014-04-06T09:39:24Z</time>
  </trkpt>
  <trkpt lat="33.672263" lon="-2.601771">
   <ele>1133.00</ele>
   <time>2014-04-06T09:39:27Z</time>
  </trkpt>
  <trkpt lat="33.672415" lon="-2.601576">
   <ele>1133.00</ele>
   <time>2014-04-06T09:39:30Z</time>
  </trkpt>
  <trkpt lat="33.672534" lon="-2.601344">
   <ele>1133.00</ele>
   <time>2014-04-06T09:39:33Z</time>
  </trkpt>
  <trkpt lat="33.672664" lon="-2.601011">
   <ele>1132.00</ele>
   <time>2014-04-06T09:39:37Z</time>
  </trkpt>
  <trkpt lat="33.672883" lon="-2.600652">
   <ele>1131.00</ele>
   <time>2014-04-06T09:39:42Z</time>
  </trkpt>
  <trkpt lat="33.672976" lon="-2.600427">
   <ele>1131.00</ele>
   <time>2014-04-06T09:39:45Z</time>
  </trkpt>
  <trkpt lat="33.673026" lon="-2.600181">
   <ele>1132.00</ele>
   <time>2014-04-06T09:39:48Z</time>
  </trkpt>
  <trkpt lat="33.673112" lon="-2.599872">
   <ele>1132.00</ele>
   <time>2014-04-06T09:39:52Z</time>
  </trkpt>
  <trkpt lat="33.673131" lon="-2.599534">
   <ele>1131.00</ele>
   <time>2014-04-06T09:39:56Z</time>
  </trkpt>
  <trkpt lat="33.673238" lon="-2.599287">
   <ele>1131.00</ele>
   <time>2014-04-06T09:39:59Z</time>
  </trkpt>
  <trkpt lat="33.673365" lon="-2.599039">
   <ele>1131.00</ele>
   <time>2014-04-06T09:40:02Z</time>
  </trkpt>
  <trkpt lat="33.673536" lon="-2.598840">
   <ele>1131.00</ele>
   <time>2014-04-06T09:40:05Z</time>
  </trkpt>
  <trkpt lat="33.673663" lon="-2.598595">
   <ele>1131.00</ele>
   <time>2014-04-06T09:40:08Z</time>
  </trkpt>
  <trkpt lat="33.673787" lon="-2.598329">
   <ele>1131.00</ele>
   <time>2014-04-06T09:40:11Z</time>
  </trkpt>
  <trkpt lat="33.673943" lon="-2.598072">
   <ele>1131.00</ele>
   <time>2014-04-06T09:40:14Z</time>
  </trkpt>
  <trkpt lat="33.674109" lon="-2.597836">
   <ele>1131.00</ele>
   <time>2014-04-06T09:40:17Z</time>
  </trkpt>
  <trkpt lat="33.674306" lon="-2.597668">
   <ele>1131.00</ele>
   <time>2014-04-06T09:40:20Z</time>
  </trkpt>
  <trkpt lat="33.674569" lon="-2.597532">
   <ele>1132.00</ele>
   <time>2014-04-06T09:40:24Z</time>
  </trkpt>
  <trkpt lat="33.674688" lon="-2.597330">
   <ele>1132.00</ele>
   <time>2014-04-06T09:40:27Z</time>
  </trkpt>
  <trkpt lat="33.674832" lon="-2.597150">
   <ele>1131.00</ele>
   <time>2014-04-06T09:40:30Z</time>
  </trkpt>
  <trkpt lat="33.675013" lon="-2.596991">
   <ele>1131.00</ele>
   <time>2014-04-06T09:40:33Z</time>
  </trkpt>
  <trkpt lat="33.675315" lon="-2.596690">
   <ele>1131.00</ele>
   <time>2014-04-06T09:40:38Z</time>
  </trkpt>
  <trkpt lat="33.675495" lon="-2.596532">
   <ele>1131.00</ele>
   <time>2014-04-06T09:40:41Z</time>
  </trkpt>
  <trkpt lat="33.675721" lon="-2.596422">
   <ele>1131.00</ele>
   <time>2014-04-06T09:40:44Z</time>
  </trkpt>
  <trkpt lat="33.675894" lon="-2.596343">
   <ele>1131.00</ele>
   <time>2014-04-06T09:40:46Z</time>
  </trkpt>
  <trkpt lat="33.677144" lon="-2.595690">
   <ele>1132.00</ele>
   <time>2014-04-06T09:40:59Z</time>
  </trkpt>
  <trkpt lat="33.677307" lon="-2.595598">
   <ele>1132.00</ele>
   <time>2014-04-06T09:41:01Z</time>
  </trkpt>
  <trkpt lat="33.677554" lon="-2.595500">
   <ele>1132.00</ele>
   <time>2014-04-06T09:41:04Z</time>
  </trkpt>
  <trkpt lat="33.677889" lon="-2.595406">
   <ele>1132.00</ele>
   <time>2014-04-06T09:41:08Z</time>
  </trkpt>
  <trkpt lat="33.678107" lon="-2.595301">
   <ele>1132.00</ele>
   <time>2014-04-06T09:41:11Z</time>
  </trkpt>
  <trkpt lat="33.678266" lon="-2.595169">
   <ele>1132.00</ele>
   <time>2014-04-06T09:41:17Z</time>
  </trkpt>
  <trkpt lat="33.678453" lon="-2.595162">
   <ele>1132.00</ele>
   <time>2014-04-06T09:41:22Z</time>
  </trkpt>
  <trkpt lat="33.678684" lon="-2.595083">
   <ele>1132.00</ele>
   <time>2014-04-06T09:41:26Z</time>
  </trkpt>
  <trkpt lat="33.678867" lon="-2.594965">
   <ele>1132.00</ele>
   <time>2014-04-06T09:41:29Z</time>
  </trkpt>
  <trkpt lat="33.679071" lon="-2.594840">
   <ele>1132.00</ele>
   <time>2014-04-06T09:41:32Z</time>
  </trkpt>
  <trkpt lat="33.679269" lon="-2.594708">
   <ele>1132.00</ele>
   <time>2014-04-06T09:41:35Z</time>
  </trkpt>
  <trkpt lat="33.679445" lon="-2.594540">
   <ele>1132.00</ele>
   <time>2014-04-06T09:41:38Z</time>
  </trkpt>
  <trkpt lat="33.679567" lon="-2.594307">
   <ele>1132.00</ele>
   <time>2014-04-06T09:41:41Z</time>
  </trkpt>
  <trkpt lat="33.679642" lon="-2.594030">
   <ele>1131.00</ele>
   <time>2014-04-06T09:41:44Z</time>
  </trkpt>
  <trkpt lat="33.679816" lon="-2.593317">
   <ele>1130.00</ele>
   <time>2014-04-06T09:41:51Z</time>
  </trkpt>
  <trkpt lat="33.679913" lon="-2.593023">
   <ele>1130.00</ele>
   <time>2014-04-06T09:41:54Z</time>
  </trkpt>
  <trkpt lat="33.680002" lon="-2.592772">
   <ele>1130.00</ele>
   <time>2014-04-06T09:41:57Z</time>
  </trkpt>
  <trkpt lat="33.680136" lon="-2.592616">
   <ele>1130.00</ele>
   <time>2014-04-06T09:42:00Z</time>
  </trkpt>
  <trkpt lat="33.680331" lon="-2.592509">
   <ele>1130.00</ele>
   <time>2014-04-06T09:42:03Z</time>
  </trkpt>
  <trkpt lat="33.680543" lon="-2.592399">
   <ele>1131.00</ele>
   <time>2014-04-06T09:42:06Z</time>
  </trkpt>
  <trkpt lat="33.680720" lon="-2.592251">
   <ele>1131.00</ele>
   <time>2014-04-06T09:42:09Z</time>
  </trkpt>
  <trkpt lat="33.680877" lon="-2.592056">
   <ele>1131.00</ele>
   <time>2014-04-06T09:42:12Z</time>
  </trkpt>
  <trkpt lat="33.681242" lon="-2.591487">
   <ele>1130.00</ele>
   <time>2014-04-06T09:42:20Z</time>
  </trkpt>
  <trkpt lat="33.681385" lon="-2.591312">
   <ele>1130.00</ele>
   <time>2014-04-06T09:42:23Z</time>
  </trkpt>
  <trkpt lat="33.681793" lon="-2.590924">
   <ele>1129.00</ele>
   <time>2014-04-06T09:42:30Z</time>
  </trkpt>
  <trkpt lat="33.682093" lon="-2.590588">
   <ele>1129.00</ele>
   <time>2014-04-06T09:42:35Z</time>
  </trkpt>
  <trkpt lat="33.682382" lon="-2.590238">
   <ele>1129.00</ele>
   <time>2014-04-06T09:42:40Z</time>
  </trkpt>
  <trkpt lat="33.682515" lon="-2.589984">
   <ele>1129.00</ele>
   <time>2014-04-06T09:42:43Z</time>
  </trkpt>
  <trkpt lat="33.682634" lon="-2.589702">
   <ele>1129.00</ele>
   <time>2014-04-06T09:42:46Z</time>
  </trkpt>
  <trkpt lat="33.682752" lon="-2.589438">
   <ele>1128.00</ele>
   <time>2014-04-06T09:42:49Z</time>
  </trkpt>
  <trkpt lat="33.682840" lon="-2.589186">
   <ele>1128.00</ele>
   <time>2014-04-06T09:42:52Z</time>
  </trkpt>
  <trkpt lat="33.682864" lon="-2.588812">
   <ele>1127.00</ele>
   <time>2014-04-06T09:42:56Z</time>
  </trkpt>
  <trkpt lat="33.682888" lon="-2.588527">
   <ele>1127.00</ele>
   <time>2014-04-06T09:42:59Z</time>
  </trkpt>
  <trkpt lat="33.682944" lon="-2.588272">
   <ele>1127.00</ele>
   <time>2014-04-06T09:43:02Z</time>
  </trkpt>
  <trkpt lat="33.683061" lon="-2.588045">
   <ele>1126.00</ele>
   <time>2014-04-06T09:43:05Z</time>
  </trkpt>
  <trkpt lat="33.683141" lon="-2.587772">
   <ele>1127.00</ele>
   <time>2014-04-06T09:43:08Z</time>
  </trkpt>
  <trkpt lat="33.683213" lon="-2.587504">
   <ele>1127.00</ele>
   <time>2014-04-06T09:43:11Z</time>
  </trkpt>
  <trkpt lat="33.683296" lon="-2.587293">
   <ele>1128.00</ele>
   <time>2014-04-06T09:43:14Z</time>
  </trkpt>
  <trkpt lat="33.683414" lon="-2.587079">
   <ele>1128.00</ele>
   <time>2014-04-06T09:43:18Z</time>
  </trkpt>
  <trkpt lat="33.683537" lon="-2.586839">
   <ele>1128.00</ele>
   <time>2014-04-06T09:43:22Z</time>
  </trkpt>
  <trkpt lat="33.683647" lon="-2.586624">
   <ele>1128.00</ele>
   <time>2014-04-06T09:43:25Z</time>
  </trkpt>
  <trkpt lat="33.683796" lon="-2.586428">
   <ele>1127.00</ele>
   <time>2014-04-06T09:43:28Z</time>
  </trkpt>
  <trkpt lat="33.683933" lon="-2.586220">
   <ele>1127.00</ele>
   <time>2014-04-06T09:43:31Z</time>
  </trkpt>
  <trkpt lat="33.684053" lon="-2.585995">
   <ele>1127.00</ele>
   <time>2014-04-06T09:43:34Z</time>
  </trkpt>
  <trkpt lat="33.684135" lon="-2.585748">
   <ele>1127.00</ele>
   <time>2014-04-06T09:43:37Z</time>
  </trkpt>
  <trkpt lat="33.684207" lon="-2.585488">
   <ele>1127.00</ele>
   <time>2014-04-06T09:43:40Z</time>
  </trkpt>
  <trkpt lat="33.684339" lon="-2.585245">
   <ele>1127.00</ele>
   <time>2014-04-06T09:43:43Z</time>
  </trkpt>
  <trkpt lat="33.684477" lon="-2.585007">
   <ele>1127.00</ele>
   <time>2014-04-06T09:43:46Z</time>
  </trkpt>
  <trkpt lat="33.684600" lon="-2.584755">
   <ele>1127.00</ele>
   <time>2014-04-06T09:43:49Z</time>
  </trkpt>
  <trkpt lat="33.684685" lon="-2.584483">
   <ele>1127.00</ele>
   <time>2014-04-06T09:43:52Z</time>
  </trkpt>
  <trkpt lat="33.684709" lon="-2.584200">
   <ele>1127.00</ele>
   <time>2014-04-06T09:43:55Z</time>
  </trkpt>
  <trkpt lat="33.684736" lon="-2.583921">
   <ele>1127.00</ele>
   <time>2014-04-06T09:43:58Z</time>
  </trkpt>
  <trkpt lat="33.684798" lon="-2.583666">
   <ele>1127.00</ele>
   <time>2014-04-06T09:44:01Z</time>
  </trkpt>
  <trkpt lat="33.684938" lon="-2.583463">
   <ele>1127.00</ele>
   <time>2014-04-06T09:44:04Z</time>
  </trkpt>
  <trkpt lat="33.685067" lon="-2.583232">
   <ele>1127.00</ele>
   <time>2014-04-06T09:44:07Z</time>
  </trkpt>
  <trkpt lat="33.685201" lon="-2.582876">
   <ele>1126.00</ele>
   <time>2014-04-06T09:44:11Z</time>
  </trkpt>
  <trkpt lat="33.685341" lon="-2.582622">
   <ele>1126.00</ele>
   <time>2014-04-06T09:44:14Z</time>
  </trkpt>
  <trkpt lat="33.685497" lon="-2.582367">
   <ele>1126.00</ele>
   <time>2014-04-06T09:44:17Z</time>
  </trkpt>
  <trkpt lat="33.685814" lon="-2.581879">
   <ele>1125.00</ele>
   <time>2014-04-06T09:44:23Z</time>
  </trkpt>
  <trkpt lat="33.686057" lon="-2.581558">
   <ele>1124.00</ele>
   <time>2014-04-06T09:44:27Z</time>
  </trkpt>
  <trkpt lat="33.686184" lon="-2.581401">
   <ele>1124.00</ele>
   <time>2014-04-06T09:44:29Z</time>
  </trkpt>
  <trkpt lat="33.686370" lon="-2.581194">
   <ele>1125.00</ele>
   <time>2014-04-06T09:44:32Z</time>
  </trkpt>
  <trkpt lat="33.686594" lon="-2.580948">
   <ele>1125.00</ele>
   <time>2014-04-06T09:44:36Z</time>
  </trkpt>
  <trkpt lat="33.686724" lon="-2.580714">
   <ele>1126.00</ele>
   <time>2014-04-06T09:44:39Z</time>
  </trkpt>
  <trkpt lat="33.686874" lon="-2.580387">
   <ele>1126.00</ele>
   <time>2014-04-06T09:44:43Z</time>
  </trkpt>
  <trkpt lat="33.687015" lon="-2.580042">
   <ele>1126.00</ele>
   <time>2014-04-06T09:44:47Z</time>
  </trkpt>
  <trkpt lat="33.687151" lon="-2.579800">
   <ele>1126.00</ele>
   <time>2014-04-06T09:44:50Z</time>
  </trkpt>
  <trkpt lat="33.687300" lon="-2.579578">
   <ele>1125.00</ele>
   <time>2014-04-06T09:44:53Z</time>
  </trkpt>
  <trkpt lat="33.687491" lon="-2.579427">
   <ele>1126.00</ele>
   <time>2014-04-06T09:44:56Z</time>
  </trkpt>
  <trkpt lat="33.687717" lon="-2.579380">
   <ele>1126.00</ele>
   <time>2014-04-06T09:44:59Z</time>
  </trkpt>
  <trkpt lat="33.687929" lon="-2.579440">
   <ele>1127.00</ele>
   <time>2014-04-06T09:45:02Z</time>
  </trkpt>
  <trkpt lat="33.688130" lon="-2.579601">
   <ele>1127.00</ele>
   <time>2014-04-06T09:45:05Z</time>
  </trkpt>
  <trkpt lat="33.688357" lon="-2.579758">
   <ele>1127.00</ele>
   <time>2014-04-06T09:45:08Z</time>
  </trkpt>
  <trkpt lat="33.688993" lon="-2.580122">
   <ele>1128.00</ele>
   <time>2014-04-06T09:45:16Z</time>
  </trkpt>
  <trkpt lat="33.689222" lon="-2.580205">
   <ele>1128.00</ele>
   <time>2014-04-06T09:45:19Z</time>
  </trkpt>
  <trkpt lat="33.689457" lon="-2.580222">
   <ele>1128.00</ele>
   <time>2014-04-06T09:45:22Z</time>
  </trkpt>
  <trkpt lat="33.689699" lon="-2.580179">
   <ele>1127.00</ele>
   <time>2014-04-06T09:45:25Z</time>
  </trkpt>
  <trkpt lat="33.690124" lon="-2.580073">
   <ele>1127.00</ele>
   <time>2014-04-06T09:45:30Z</time>
  </trkpt>
  <trkpt lat="33.690344" lon="-2.580006">
   <ele>1127.00</ele>
   <time>2014-04-06T09:45:33Z</time>
  </trkpt>
  <trkpt lat="33.690573" lon="-2.579943">
   <ele>1127.00</ele>
   <time>2014-04-06T09:45:36Z</time>
  </trkpt>
  <trkpt lat="33.690836" lon="-2.579874">
   <ele>1127.00</ele>
   <time>2014-04-06T09:45:39Z</time>
  </trkpt>
  <trkpt lat="33.691026" lon="-2.579850">
   <ele>1127.00</ele>
   <time>2014-04-06T09:45:41Z</time>
  </trkpt>
  <trkpt lat="33.691216" lon="-2.579831">
   <ele>1127.00</ele>
   <time>2014-04-06T09:45:43Z</time>
  </trkpt>
  <trkpt lat="33.691400" lon="-2.579793">
   <ele>1127.00</ele>
   <time>2014-04-06T09:45:45Z</time>
  </trkpt>
  <trkpt lat="33.691576" lon="-2.579746">
   <ele>1127.00</ele>
   <time>2014-04-06T09:45:47Z</time>
  </trkpt>
  <trkpt lat="33.691757" lon="-2.579711">
   <ele>1127.00</ele>
   <time>2014-04-06T09:45:49Z</time>
  </trkpt>
  <trkpt lat="33.691942" lon="-2.579685">
   <ele>1127.00</ele>
   <time>2014-04-06T09:45:51Z</time>
  </trkpt>
  <trkpt lat="33.692225" lon="-2.579657">
   <ele>1128.00</ele>
   <time>2014-04-06T09:45:54Z</time>
  </trkpt>
  <trkpt lat="33.692834" lon="-2.579628">
   <ele>1128.00</ele>
   <time>2014-04-06T09:46:00Z</time>
  </trkpt>
  <trkpt lat="33.693452" lon="-2.579558">
   <ele>1128.00</ele>
   <time>2014-04-06T09:46:06Z</time>
  </trkpt>
  <trkpt lat="33.693783" lon="-2.579516">
   <ele>1128.00</ele>
   <time>2014-04-06T09:46:09Z</time>
  </trkpt>
  <trkpt lat="33.694009" lon="-2.579503">
   <ele>1128.00</ele>
   <time>2014-04-06T09:46:11Z</time>
  </trkpt>
  <trkpt lat="33.694355" lon="-2.579498">
   <ele>1128.00</ele>
   <time>2014-04-06T09:46:14Z</time>
  </trkpt>
  <trkpt lat="33.694688" lon="-2.579500">
   <ele>1128.00</ele>
   <time>2014-04-06T09:46:17Z</time>
  </trkpt>
  <trkpt lat="33.695112" lon="-2.579490">
   <ele>1128.00</ele>
   <time>2014-04-06T09:46:21Z</time>
  </trkpt>
  <trkpt lat="33.695314" lon="-2.579508">
   <ele>1128.00</ele>
   <time>2014-04-06T09:46:23Z</time>
  </trkpt>
  <trkpt lat="33.695504" lon="-2.579527">
   <ele>1128.00</ele>
   <time>2014-04-06T09:46:25Z</time>
  </trkpt>
  <trkpt lat="33.695773" lon="-2.579501">
   <ele>1128.00</ele>
   <time>2014-04-06T09:46:28Z</time>
  </trkpt>
  <trkpt lat="33.696056" lon="-2.579437">
   <ele>1128.00</ele>
   <time>2014-04-06T09:46:31Z</time>
  </trkpt>
  <trkpt lat="33.696253" lon="-2.579395">
   <ele>1128.00</ele>
   <time>2014-04-06T09:46:33Z</time>
  </trkpt>
  <trkpt lat="33.696549" lon="-2.579326">
   <ele>1128.00</ele>
   <time>2014-04-06T09:46:36Z</time>
  </trkpt>
  <trkpt lat="33.697050" lon="-2.579249">
   <ele>1128.00</ele>
   <time>2014-04-06T09:46:41Z</time>
  </trkpt>
  <trkpt lat="33.697252" lon="-2.579202">
   <ele>1128.00</ele>
   <time>2014-04-06T09:46:43Z</time>
  </trkpt>
  <trkpt lat="33.697546" lon="-2.579122">
   <ele>1127.00</ele>
   <time>2014-04-06T09:46:46Z</time>
  </trkpt>
  <trkpt lat="33.697735" lon="-2.579105">
   <ele>1127.00</ele>
   <time>2014-04-06T09:46:48Z</time>
  </trkpt>
  <trkpt lat="33.698006" lon="-2.579096">
   <ele>1127.00</ele>
   <time>2014-04-06T09:46:51Z</time>
  </trkpt>
  <trkpt lat="33.698271" lon="-2.579038">
   <ele>1127.00</ele>
   <time>2014-04-06T09:46:54Z</time>
  </trkpt>
  <trkpt lat="33.698929" lon="-2.578848">
   <ele>1127.00</ele>
   <time>2014-04-06T09:47:01Z</time>
  </trkpt>
  <trkpt lat="33.699132" lon="-2.578811">
   <ele>1127.00</ele>
   <time>2014-04-06T09:47:03Z</time>
  </trkpt>
  <trkpt lat="33.699443" lon="-2.578768">
   <ele>1127.00</ele>
   <time>2014-04-06T09:47:06Z</time>
  </trkpt>
  <trkpt lat="33.700155" lon="-2.578706">
   <ele>1127.00</ele>
   <time>2014-04-06T09:47:13Z</time>
  </trkpt>
  <trkpt lat="33.700347" lon="-2.578721">
   <ele>1127.00</ele>
   <time>2014-04-06T09:47:15Z</time>
  </trkpt>
  <trkpt lat="33.700535" lon="-2.578742">
   <ele>1127.00</ele>
   <time>2014-04-06T09:47:17Z</time>
  </trkpt>
  <trkpt lat="33.700723" lon="-2.578732">
   <ele>1127.00</ele>
   <time>2014-04-06T09:47:19Z</time>
  </trkpt>
  <trkpt lat="33.700917" lon="-2.578731">
   <ele>1127.00</ele>
   <time>2014-04-06T09:47:21Z</time>
  </trkpt>
  <trkpt lat="33.701117" lon="-2.578751">
   <ele>1127.00</ele>
   <time>2014-04-06T09:47:23Z</time>
  </trkpt>
  <trkpt lat="33.701324" lon="-2.578794">
   <ele>1128.00</ele>
   <time>2014-04-06T09:47:25Z</time>
  </trkpt>
  <trkpt lat="33.701536" lon="-2.578857">
   <ele>1128.00</ele>
   <time>2014-04-06T09:47:27Z</time>
  </trkpt>
  <trkpt lat="33.701750" lon="-2.578940">
   <ele>1128.00</ele>
   <time>2014-04-06T09:47:29Z</time>
  </trkpt>
  <trkpt lat="33.701963" lon="-2.579041">
   <ele>1128.00</ele>
   <time>2014-04-06T09:47:31Z</time>
  </trkpt>
  <trkpt lat="33.702178" lon="-2.579143">
   <ele>1128.00</ele>
   <time>2014-04-06T09:47:33Z</time>
  </trkpt>
  <trkpt lat="33.702405" lon="-2.579222">
   <ele>1128.00</ele>
   <time>2014-04-06T09:47:35Z</time>
  </trkpt>
  <trkpt lat="33.702863" lon="-2.579369">
   <ele>1128.00</ele>
   <time>2014-04-06T09:47:39Z</time>
  </trkpt>
  <trkpt lat="33.703082" lon="-2.579462">
   <ele>1128.00</ele>
   <time>2014-04-06T09:47:41Z</time>
  </trkpt>
  <trkpt lat="33.703507" lon="-2.579660">
   <ele>1128.00</ele>
   <time>2014-04-06T09:47:45Z</time>
  </trkpt>
  <trkpt lat="33.703723" lon="-2.579714">
   <ele>1128.00</ele>
   <time>2014-04-06T09:47:47Z</time>
  </trkpt>
  <trkpt lat="33.704286" lon="-2.579822">
   <ele>1128.00</ele>
   <time>2014-04-06T09:47:52Z</time>
  </trkpt>
  <trkpt lat="33.704860" lon="-2.579895">
   <ele>1128.00</ele>
   <time>2014-04-06T09:47:57Z</time>
  </trkpt>
  <trkpt lat="33.705082" lon="-2.579905">
   <ele>1128.00</ele>
   <time>2014-04-06T09:47:59Z</time>
  </trkpt>
  <trkpt lat="33.705382" lon="-2.579896">
   <ele>1128.00</ele>
   <time>2014-04-06T09:48:02Z</time>
  </trkpt>
  <trkpt lat="33.705719" lon="-2.579903">
   <ele>1127.00</ele>
   <time>2014-04-06T09:48:06Z</time>
  </trkpt>
  <trkpt lat="33.706068" lon="-2.579893">
   <ele>1127.00</ele>
   <time>2014-04-06T09:48:10Z</time>
  </trkpt>
  <trkpt lat="33.706331" lon="-2.579915">
   <ele>1127.00</ele>
   <time>2014-04-06T09:48:13Z</time>
  </trkpt>
  <trkpt lat="33.706513" lon="-2.579923">
   <ele>1127.00</ele>
   <time>2014-04-06T09:48:15Z</time>
  </trkpt>
  <trkpt lat="33.706697" lon="-2.579908">
   <ele>1127.00</ele>
   <time>2014-04-06T09:48:17Z</time>
  </trkpt>
  <trkpt lat="33.706878" lon="-2.579878">
   <ele>1127.00</ele>
   <time>2014-04-06T09:48:19Z</time>
  </trkpt>
  <trkpt lat="33.707056" lon="-2.579834">
   <ele>1127.00</ele>
   <time>2014-04-06T09:48:21Z</time>
  </trkpt>
  <trkpt lat="33.707665" lon="-2.579639">
   <ele>1127.00</ele>
   <time>2014-04-06T09:48:28Z</time>
  </trkpt>
  <trkpt lat="33.707883" lon="-2.579549">
   <ele>1127.00</ele>
   <time>2014-04-06T09:48:31Z</time>
  </trkpt>
  <trkpt lat="33.708441" lon="-2.579323">
   <ele>1127.00</ele>
   <time>2014-04-06T09:48:41Z</time>
  </trkpt>
  <trkpt lat="33.708627" lon="-2.579259">
   <ele>1127.00</ele>
   <time>2014-04-06T09:48:45Z</time>
  </trkpt>
  <trkpt lat="33.709269" lon="-2.579062">
   <ele>1126.00</ele>
   <time>2014-04-06T09:48:56Z</time>
  </trkpt>
  <trkpt lat="33.709459" lon="-2.578981">
   <ele>1126.00</ele>
   <time>2014-04-06T09:48:59Z</time>
  </trkpt>
  <trkpt lat="33.709727" lon="-2.578857">
   <ele>1126.00</ele>
   <time>2014-04-06T09:49:03Z</time>
  </trkpt>
  <trkpt lat="33.710265" lon="-2.578628">
   <ele>1126.00</ele>
   <time>2014-04-06T09:49:10Z</time>
  </trkpt>
  <trkpt lat="33.710524" lon="-2.578558">
   <ele>1126.00</ele>
   <time>2014-04-06T09:49:13Z</time>
  </trkpt>
  <trkpt lat="33.711742" lon="-2.578235">
   <ele>1126.00</ele>
   <time>2014-04-06T09:49:26Z</time>
  </trkpt>
  <trkpt lat="33.712414" lon="-2.578033">
   <ele>1126.00</ele>
   <time>2014-04-06T09:49:33Z</time>
  </trkpt>
  <trkpt lat="33.712681" lon="-2.577977">
   <ele>1126.00</ele>
   <time>2014-04-06T09:49:36Z</time>
  </trkpt>
  <trkpt lat="33.712926" lon="-2.577883">
   <ele>1126.00</ele>
   <time>2014-04-06T09:49:39Z</time>
  </trkpt>
  <trkpt lat="33.713537" lon="-2.577584">
   <ele>1125.00</ele>
   <time>2014-04-06T09:49:46Z</time>
  </trkpt>
  <trkpt lat="33.713902" lon="-2.577391">
   <ele>1125.00</ele>
   <time>2014-04-06T09:49:50Z</time>
  </trkpt>
  <trkpt lat="33.714097" lon="-2.577310">
   <ele>1125.00</ele>
   <time>2014-04-06T09:49:52Z</time>
  </trkpt>
  <trkpt lat="33.714296" lon="-2.577230">
   <ele>1125.00</ele>
   <time>2014-04-06T09:49:54Z</time>
  </trkpt>
  <trkpt lat="33.714487" lon="-2.577135">
   <ele>1125.00</ele>
   <time>2014-04-06T09:49:56Z</time>
  </trkpt>
  <trkpt lat="33.714665" lon="-2.577032">
   <ele>1125.00</ele>
   <time>2014-04-06T09:49:58Z</time>
  </trkpt>
  <trkpt lat="33.714924" lon="-2.576859">
   <ele>1125.00</ele>
   <time>2014-04-06T09:50:01Z</time>
  </trkpt>
  <trkpt lat="33.715712" lon="-2.576292">
   <ele>1125.00</ele>
   <time>2014-04-06T09:50:10Z</time>
  </trkpt>
  <trkpt lat="33.715953" lon="-2.576077">
   <ele>1125.00</ele>
   <time>2014-04-06T09:50:13Z</time>
  </trkpt>
  <trkpt lat="33.716130" lon="-2.575957">
   <ele>1125.00</ele>
   <time>2014-04-06T09:50:15Z</time>
  </trkpt>
  <trkpt lat="33.716321" lon="-2.575849">
   <ele>1125.00</ele>
   <time>2014-04-06T09:50:17Z</time>
  </trkpt>
  <trkpt lat="33.716511" lon="-2.575753">
   <ele>1125.00</ele>
   <time>2014-04-06T09:50:19Z</time>
  </trkpt>
  <trkpt lat="33.716698" lon="-2.575662">
   <ele>1125.00</ele>
   <time>2014-04-06T09:50:21Z</time>
  </trkpt>
  <trkpt lat="33.716877" lon="-2.575562">
   <ele>1125.00</ele>
   <time>2014-04-06T09:50:23Z</time>
  </trkpt>
  <trkpt lat="33.717051" lon="-2.575462">
   <ele>1125.00</ele>
   <time>2014-04-06T09:50:25Z</time>
  </trkpt>
  <trkpt lat="33.717227" lon="-2.575378">
   <ele>1125.00</ele>
   <time>2014-04-06T09:50:27Z</time>
  </trkpt>
  <trkpt lat="33.717405" lon="-2.575308">
   <ele>1125.00</ele>
   <time>2014-04-06T09:50:29Z</time>
  </trkpt>
  <trkpt lat="33.717592" lon="-2.575251">
   <ele>1125.00</ele>
   <time>2014-04-06T09:50:31Z</time>
  </trkpt>
  <trkpt lat="33.717883" lon="-2.575179">
   <ele>1125.00</ele>
   <time>2014-04-06T09:50:34Z</time>
  </trkpt>
  <trkpt lat="33.718072" lon="-2.575156">
   <ele>1125.00</ele>
   <time>2014-04-06T09:50:36Z</time>
  </trkpt>
  <trkpt lat="33.718341" lon="-2.575144">
   <ele>1125.00</ele>
   <time>2014-04-06T09:50:39Z</time>
  </trkpt>
  <trkpt lat="33.718607" lon="-2.575114">
   <ele>1126.00</ele>
   <time>2014-04-06T09:50:42Z</time>
  </trkpt>
  <trkpt lat="33.718977" lon="-2.575047">
   <ele>1127.00</ele>
   <time>2014-04-06T09:50:57Z</time>
  </trkpt>
  <trkpt lat="33.718965" lon="-2.575053">
   <ele>1127.00</ele>
   <time>2014-04-06T09:51:13Z</time>
  </trkpt>
  <trkpt lat="33.718957" lon="-2.575054">
   <ele>1127.00</ele>
   <time>2014-04-06T09:51:28Z</time>
  </trkpt>
  <trkpt lat="33.718952" lon="-2.575054">
   <ele>1126.00</ele>
   <time>2014-04-06T09:51:43Z</time>
  </trkpt>
  <trkpt lat="33.718943" lon="-2.575048">
   <ele>1126.00</ele>
   <time>2014-04-06T09:51:59Z</time>
  </trkpt>
  <trkpt lat="33.718949" lon="-2.575052">
   <ele>1126.00</ele>
   <time>2014-04-06T09:52:14Z</time>
  </trkpt>
  <trkpt lat="33.718952" lon="-2.575055">
   <ele>1126.00</ele>
   <time>2014-04-06T09:52:29Z</time>
  </trkpt>
  <trkpt lat="33.718953" lon="-2.575055">
   <ele>1126.00</ele>
   <time>2014-04-06T09:52:45Z</time>
  </trkpt>
  <trkpt lat="33.718953" lon="-2.575055">
   <ele>1126.00</ele>
   <time>2014-04-06T09:53:00Z</time>
  </trkpt>
  <trkpt lat="33.718952" lon="-2.575055">
   <ele>1126.00</ele>
   <time>2014-04-06T09:53:15Z</time>
  </trkpt>
  <trkpt lat="33.718952" lon="-2.575052">
   <ele>1125.00</ele>
   <time>2014-04-06T09:53:31Z</time>
  </trkpt>
  <trkpt lat="33.718951" lon="-2.575044">
   <ele>1123.00</ele>
   <time>2014-04-06T09:53:46Z</time>
  </trkpt>
  <trkpt lat="33.718949" lon="-2.575036">
   <ele>1122.00</ele>
   <time>2014-04-06T09:54:01Z</time>
  </trkpt>
  <trkpt lat="33.718948" lon="-2.575040">
   <ele>1123.00</ele>
   <time>2014-04-06T09:54:16Z</time>
  </trkpt>
  <trkpt lat="33.718949" lon="-2.575051">
   <ele>1125.00</ele>
   <time>2014-04-06T09:54:32Z</time>
  </trkpt>
  <trkpt lat="33.719163" lon="-2.575014">
   <ele>1126.00</ele>
   <time>2014-04-06T09:54:45Z</time>
  </trkpt>
  <trkpt lat="33.719880" lon="-2.574842">
   <ele>1126.00</ele>
   <time>2014-04-06T09:54:58Z</time>
  </trkpt>
  <trkpt lat="33.720206" lon="-2.574747">
   <ele>1125.00</ele>
   <time>2014-04-06T09:55:03Z</time>
  </trkpt>
  <trkpt lat="33.720718" lon="-2.574651">
   <ele>1126.00</ele>
   <time>2014-04-06T09:55:10Z</time>
  </trkpt>
  <trkpt lat="33.720933" lon="-2.574620">
   <ele>1126.00</ele>
   <time>2014-04-06T09:55:13Z</time>
  </trkpt>
  <trkpt lat="33.721423" lon="-2.574510">
   <ele>1126.00</ele>
   <time>2014-04-06T09:55:20Z</time>
  </trkpt>
  <trkpt lat="33.721639" lon="-2.574401">
   <ele>1126.00</ele>
   <time>2014-04-06T09:55:23Z</time>
  </trkpt>
  <trkpt lat="33.721872" lon="-2.574279">
   <ele>1126.00</ele>
   <time>2014-04-06T09:55:26Z</time>
  </trkpt>
  <trkpt lat="33.722120" lon="-2.574181">
   <ele>1126.00</ele>
   <time>2014-04-06T09:55:29Z</time>
  </trkpt>
  <trkpt lat="33.722368" lon="-2.574063">
   <ele>1127.00</ele>
   <time>2014-04-06T09:55:32Z</time>
  </trkpt>
  <trkpt lat="33.722746" lon="-2.573842">
   <ele>1127.00</ele>
   <time>2014-04-06T09:55:37Z</time>
  </trkpt>
  <trkpt lat="33.722965" lon="-2.573740">
   <ele>1127.00</ele>
   <time>2014-04-06T09:55:40Z</time>
  </trkpt>
  <trkpt lat="33.723323" lon="-2.573603">
   <ele>1127.00</ele>
   <time>2014-04-06T09:55:45Z</time>
  </trkpt>
  <trkpt lat="33.723514" lon="-2.573469">
   <ele>1127.00</ele>
   <time>2014-04-06T09:55:48Z</time>
  </trkpt>
  <trkpt lat="33.723699" lon="-2.573339">
   <ele>1127.00</ele>
   <time>2014-04-06T09:55:51Z</time>
  </trkpt>
  <trkpt lat="33.723903" lon="-2.573262">
   <ele>1127.00</ele>
   <time>2014-04-06T09:55:54Z</time>
  </trkpt>
  <trkpt lat="33.724121" lon="-2.573193">
   <ele>1127.00</ele>
   <time>2014-04-06T09:55:57Z</time>
  </trkpt>
  <trkpt lat="33.724420" lon="-2.573096">
   <ele>1127.00</ele>
   <time>2014-04-06T09:56:01Z</time>
  </trkpt>
  <trkpt lat="33.724664" lon="-2.573043">
   <ele>1127.00</ele>
   <time>2014-04-06T09:56:04Z</time>
  </trkpt>
  <trkpt lat="33.724923" lon="-2.573014">
   <ele>1127.00</ele>
   <time>2014-04-06T09:56:07Z</time>
  </trkpt>
  <trkpt lat="33.725186" lon="-2.573024">
   <ele>1127.00</ele>
   <time>2014-04-06T09:56:10Z</time>
  </trkpt>
  <trkpt lat="33.725541" lon="-2.573056">
   <ele>1127.00</ele>
   <time>2014-04-06T09:56:14Z</time>
  </trkpt>
  <trkpt lat="33.725797" lon="-2.573109">
   <ele>1127.00</ele>
   <time>2014-04-06T09:56:17Z</time>
  </trkpt>
  <trkpt lat="33.726046" lon="-2.573177">
   <ele>1127.00</ele>
   <time>2014-04-06T09:56:20Z</time>
  </trkpt>
  <trkpt lat="33.726297" lon="-2.573218">
   <ele>1127.00</ele>
   <time>2014-04-06T09:56:23Z</time>
  </trkpt>
  <trkpt lat="33.726542" lon="-2.573259">
   <ele>1127.00</ele>
   <time>2014-04-06T09:56:26Z</time>
  </trkpt>
  <trkpt lat="33.726871" lon="-2.573332">
   <ele>1127.00</ele>
   <time>2014-04-06T09:56:30Z</time>
  </trkpt>
  <trkpt lat="33.727130" lon="-2.573376">
   <ele>1127.00</ele>
   <time>2014-04-06T09:56:33Z</time>
  </trkpt>
  <trkpt lat="33.727393" lon="-2.573425">
   <ele>1127.00</ele>
   <time>2014-04-06T09:56:36Z</time>
  </trkpt>
  <trkpt lat="33.727573" lon="-2.573427">
   <ele>1127.00</ele>
   <time>2014-04-06T09:56:38Z</time>
  </trkpt>
  <trkpt lat="33.727835" lon="-2.573421">
   <ele>1127.00</ele>
   <time>2014-04-06T09:56:41Z</time>
  </trkpt>
  <trkpt lat="33.728083" lon="-2.573439">
   <ele>1127.00</ele>
   <time>2014-04-06T09:56:44Z</time>
  </trkpt>
  <trkpt lat="33.728326" lon="-2.573457">
   <ele>1127.00</ele>
   <time>2014-04-06T09:56:47Z</time>
  </trkpt>
  <trkpt lat="33.728571" lon="-2.573429">
   <ele>1127.00</ele>
   <time>2014-04-06T09:56:50Z</time>
  </trkpt>
  <trkpt lat="33.728818" lon="-2.573439">
   <ele>1127.00</ele>
   <time>2014-04-06T09:56:53Z</time>
  </trkpt>
  <trkpt lat="33.729068" lon="-2.573494">
   <ele>1127.00</ele>
   <time>2014-04-06T09:56:56Z</time>
  </trkpt>
  <trkpt lat="33.729322" lon="-2.573564">
   <ele>1127.00</ele>
   <time>2014-04-06T09:56:59Z</time>
  </trkpt>
  <trkpt lat="33.729581" lon="-2.573630">
   <ele>1127.00</ele>
   <time>2014-04-06T09:57:02Z</time>
  </trkpt>
  <trkpt lat="33.730284" lon="-2.573732">
   <ele>1127.00</ele>
   <time>2014-04-06T09:57:10Z</time>
  </trkpt>
  <trkpt lat="33.730517" lon="-2.573787">
   <ele>1127.00</ele>
   <time>2014-04-06T09:57:13Z</time>
  </trkpt>
  <trkpt lat="33.730744" lon="-2.573809">
   <ele>1127.00</ele>
   <time>2014-04-06T09:57:16Z</time>
  </trkpt>
  <trkpt lat="33.731284" lon="-2.573891">
   <ele>1126.00</ele>
   <time>2014-04-06T09:57:23Z</time>
  </trkpt>
  <trkpt lat="33.731605" lon="-2.573980">
   <ele>1126.00</ele>
   <time>2014-04-06T09:57:27Z</time>
  </trkpt>
  <trkpt lat="33.731860" lon="-2.574068">
   <ele>1126.00</ele>
   <time>2014-04-06T09:57:30Z</time>
  </trkpt>
  <trkpt lat="33.732109" lon="-2.574149">
   <ele>1126.00</ele>
   <time>2014-04-06T09:57:33Z</time>
  </trkpt>
  <trkpt lat="33.732445" lon="-2.574193">
   <ele>1126.00</ele>
   <time>2014-04-06T09:57:37Z</time>
  </trkpt>
  <trkpt lat="33.732681" lon="-2.574307">
   <ele>1126.00</ele>
   <time>2014-04-06T09:57:40Z</time>
  </trkpt>
  <trkpt lat="33.732908" lon="-2.574429">
   <ele>1126.00</ele>
   <time>2014-04-06T09:57:43Z</time>
  </trkpt>
  <trkpt lat="33.733133" lon="-2.574541">
   <ele>1126.00</ele>
   <time>2014-04-06T09:57:46Z</time>
  </trkpt>
  <trkpt lat="33.733385" lon="-2.574619">
   <ele>1126.00</ele>
   <time>2014-04-06T09:57:49Z</time>
  </trkpt>
  <trkpt lat="33.733636" lon="-2.574712">
   <ele>1126.00</ele>
   <time>2014-04-06T09:57:52Z</time>
  </trkpt>
  <trkpt lat="33.733887" lon="-2.574783">
   <ele>1126.00</ele>
   <time>2014-04-06T09:57:55Z</time>
  </trkpt>
  <trkpt lat="33.734153" lon="-2.574806">
   <ele>1126.00</ele>
   <time>2014-04-06T09:57:58Z</time>
  </trkpt>
  <trkpt lat="33.734336" lon="-2.574825">
   <ele>1126.00</ele>
   <time>2014-04-06T09:58:00Z</time>
  </trkpt>
  <trkpt lat="33.734699" lon="-2.574874">
   <ele>1126.00</ele>
   <time>2014-04-06T09:58:04Z</time>
  </trkpt>
  <trkpt lat="33.735072" lon="-2.574895">
   <ele>1126.00</ele>
   <time>2014-04-06T09:58:08Z</time>
  </trkpt>
  <trkpt lat="33.735263" lon="-2.574927">
   <ele>1126.00</ele>
   <time>2014-04-06T09:58:10Z</time>
  </trkpt>
  <trkpt lat="33.735661" lon="-2.575010">
   <ele>1126.00</ele>
   <time>2014-04-06T09:58:14Z</time>
  </trkpt>
  <trkpt lat="33.735862" lon="-2.575069">
   <ele>1126.00</ele>
   <time>2014-04-06T09:58:16Z</time>
  </trkpt>
  <trkpt lat="33.736355" lon="-2.575215">
   <ele>1126.00</ele>
   <time>2014-04-06T09:58:21Z</time>
  </trkpt>
  <trkpt lat="33.736546" lon="-2.575276">
   <ele>1126.00</ele>
   <time>2014-04-06T09:58:23Z</time>
  </trkpt>
  <trkpt lat="33.736839" lon="-2.575380">
   <ele>1126.00</ele>
   <time>2014-04-06T09:58:26Z</time>
  </trkpt>
  <trkpt lat="33.737038" lon="-2.575418">
   <ele>1126.00</ele>
   <time>2014-04-06T09:58:28Z</time>
  </trkpt>
  <trkpt lat="33.737233" lon="-2.575434">
   <ele>1126.00</ele>
   <time>2014-04-06T09:58:30Z</time>
  </trkpt>
  <trkpt lat="33.737427" lon="-2.575455">
   <ele>1126.00</ele>
   <time>2014-04-06T09:58:32Z</time>
  </trkpt>
  <trkpt lat="33.737622" lon="-2.575495">
   <ele>1126.00</ele>
   <time>2014-04-06T09:58:34Z</time>
  </trkpt>
  <trkpt lat="33.737816" lon="-2.575560">
   <ele>1126.00</ele>
   <time>2014-04-06T09:58:36Z</time>
  </trkpt>
  <trkpt lat="33.738021" lon="-2.575611">
   <ele>1126.00</ele>
   <time>2014-04-06T09:58:38Z</time>
  </trkpt>
  <trkpt lat="33.738234" lon="-2.575634">
   <ele>1126.00</ele>
   <time>2014-04-06T09:58:40Z</time>
  </trkpt>
  <trkpt lat="33.738451" lon="-2.575655">
   <ele>1126.00</ele>
   <time>2014-04-06T09:58:42Z</time>
  </trkpt>
  <trkpt lat="33.738667" lon="-2.575690">
   <ele>1126.00</ele>
   <time>2014-04-06T09:58:44Z</time>
  </trkpt>
  <trkpt lat="33.738874" lon="-2.575735">
   <ele>1126.00</ele>
   <time>2014-04-06T09:58:46Z</time>
  </trkpt>
  <trkpt lat="33.739068" lon="-2.575768">
   <ele>1126.00</ele>
   <time>2014-04-06T09:58:48Z</time>
  </trkpt>
  <trkpt lat="33.739260" lon="-2.575787">
   <ele>1126.00</ele>
   <time>2014-04-06T09:58:50Z</time>
  </trkpt>
  <trkpt lat="33.739443" lon="-2.575842">
   <ele>1126.00</ele>
   <time>2014-04-06T09:58:52Z</time>
  </trkpt>
  <trkpt lat="33.739626" lon="-2.575905">
   <ele>1126.00</ele>
   <time>2014-04-06T09:58:54Z</time>
  </trkpt>
  <trkpt lat="33.740012" lon="-2.576011">
   <ele>1127.00</ele>
   <time>2014-04-06T09:58:58Z</time>
  </trkpt>
  <trkpt lat="33.740204" lon="-2.576062">
   <ele>1127.00</ele>
   <time>2014-04-06T09:59:00Z</time>
  </trkpt>
  <trkpt lat="33.740603" lon="-2.576135">
   <ele>1127.00</ele>
   <time>2014-04-06T09:59:04Z</time>
  </trkpt>
  <trkpt lat="33.741177" lon="-2.576279">
   <ele>1127.00</ele>
   <time>2014-04-06T09:59:10Z</time>
  </trkpt>
  <trkpt lat="33.741606" lon="-2.576333">
   <ele>1126.00</ele>
   <time>2014-04-06T09:59:15Z</time>
  </trkpt>
  <trkpt lat="33.741851" lon="-2.576381">
   <ele>1126.00</ele>
   <time>2014-04-06T09:59:18Z</time>
  </trkpt>
  <trkpt lat="33.742094" lon="-2.576342">
   <ele>1126.00</ele>
   <time>2014-04-06T09:59:21Z</time>
  </trkpt>
  <trkpt lat="33.742345" lon="-2.576298">
   <ele>1126.00</ele>
   <time>2014-04-06T09:59:24Z</time>
  </trkpt>
  <trkpt lat="33.742594" lon="-2.576306">
   <ele>1126.00</ele>
   <time>2014-04-06T09:59:27Z</time>
  </trkpt>
  <trkpt lat="33.742843" lon="-2.576352">
   <ele>1126.00</ele>
   <time>2014-04-06T09:59:30Z</time>
  </trkpt>
  <trkpt lat="33.743089" lon="-2.576414">
   <ele>1126.00</ele>
   <time>2014-04-06T09:59:33Z</time>
  </trkpt>
  <trkpt lat="33.743342" lon="-2.576427">
   <ele>1126.00</ele>
   <time>2014-04-06T09:59:36Z</time>
  </trkpt>
  <trkpt lat="33.743594" lon="-2.576402">
   <ele>1126.00</ele>
   <time>2014-04-06T09:59:39Z</time>
  </trkpt>
  <trkpt lat="33.743809" lon="-2.576361">
   <ele>1126.00</ele>
   <time>2014-04-06T09:59:46Z</time>
  </trkpt>
  <trkpt lat="33.743989" lon="-2.576361">
   <ele>1127.00</ele>
   <time>2014-04-06T09:59:53Z</time>
  </trkpt>
  <trkpt lat="33.744182" lon="-2.576351">
   <ele>1127.00</ele>
   <time>2014-04-06T09:59:57Z</time>
  </trkpt>
  <trkpt lat="33.744734" lon="-2.576285">
   <ele>1126.00</ele>
   <time>2014-04-06T10:00:06Z</time>
  </trkpt>
  <trkpt lat="33.744933" lon="-2.576277">
   <ele>1126.00</ele>
   <time>2014-04-06T10:00:09Z</time>
  </trkpt>
  <trkpt lat="33.745130" lon="-2.576283">
   <ele>1127.00</ele>
   <time>2014-04-06T10:00:13Z</time>
  </trkpt>
  <trkpt lat="33.745308" lon="-2.576342">
   <ele>1126.00</ele>
   <time>2014-04-06T10:00:24Z</time>
  </trkpt>
  <trkpt lat="33.745495" lon="-2.576286">
   <ele>1126.00</ele>
   <time>2014-04-06T10:00:31Z</time>
  </trkpt>
  <trkpt lat="33.745827" lon="-2.576188">
   <ele>1126.00</ele>
   <time>2014-04-06T10:00:38Z</time>
  </trkpt>
  <trkpt lat="33.746014" lon="-2.576171">
   <ele>1126.00</ele>
   <time>2014-04-06T10:00:42Z</time>
  </trkpt>
  <trkpt lat="33.746217" lon="-2.576158">
   <ele>1126.00</ele>
   <time>2014-04-06T10:00:46Z</time>
  </trkpt>
  <trkpt lat="33.746433" lon="-2.576078">
   <ele>1126.00</ele>
   <time>2014-04-06T10:00:50Z</time>
  </trkpt>
  <trkpt lat="33.746626" lon="-2.576026">
   <ele>1126.00</ele>
   <time>2014-04-06T10:00:53Z</time>
  </trkpt>
  <trkpt lat="33.746849" lon="-2.576069">
   <ele>1126.00</ele>
   <time>2014-04-06T10:00:56Z</time>
  </trkpt>
  <trkpt lat="33.747091" lon="-2.576151">
   <ele>1126.00</ele>
   <time>2014-04-06T10:00:59Z</time>
  </trkpt>
  <trkpt lat="33.747285" lon="-2.576229">
   <ele>1126.00</ele>
   <time>2014-04-06T10:01:01Z</time>
  </trkpt>
  <trkpt lat="33.747497" lon="-2.576328">
   <ele>1125.00</ele>
   <time>2014-04-06T10:01:03Z</time>
  </trkpt>
  <trkpt lat="33.747917" lon="-2.576553">
   <ele>1125.00</ele>
   <time>2014-04-06T10:01:07Z</time>
  </trkpt>
  <trkpt lat="33.748722" lon="-2.577002">
   <ele>1124.00</ele>
   <time>2014-04-06T10:01:15Z</time>
  </trkpt>
  <trkpt lat="33.748925" lon="-2.577097">
   <ele>1124.00</ele>
   <time>2014-04-06T10:01:17Z</time>
  </trkpt>
  <trkpt lat="33.749121" lon="-2.577175">
   <ele>1124.00</ele>
   <time>2014-04-06T10:01:19Z</time>
  </trkpt>
  <trkpt lat="33.749315" lon="-2.577231">
   <ele>1124.00</ele>
   <time>2014-04-06T10:01:21Z</time>
  </trkpt>
  <trkpt lat="33.749520" lon="-2.577269">
   <ele>1124.00</ele>
   <time>2014-04-06T10:01:23Z</time>
  </trkpt>
  <trkpt lat="33.749801" lon="-2.577323">
   <ele>1124.00</ele>
   <time>2014-04-06T10:01:26Z</time>
  </trkpt>
  <trkpt lat="33.750436" lon="-2.577543">
   <ele>1125.00</ele>
   <time>2014-04-06T10:01:34Z</time>
  </trkpt>
  <trkpt lat="33.750606" lon="-2.577616">
   <ele>1125.00</ele>
   <time>2014-04-06T10:01:36Z</time>
  </trkpt>
  <trkpt lat="33.750834" lon="-2.577740">
   <ele>1125.00</ele>
   <time>2014-04-06T10:01:39Z</time>
  </trkpt>
  <trkpt lat="33.751279" lon="-2.578012">
   <ele>1125.00</ele>
   <time>2014-04-06T10:01:45Z</time>
  </trkpt>
  <trkpt lat="33.751531" lon="-2.578141">
   <ele>1125.00</ele>
   <time>2014-04-06T10:01:48Z</time>
  </trkpt>
  <trkpt lat="33.751704" lon="-2.578216">
   <ele>1125.00</ele>
   <time>2014-04-06T10:01:50Z</time>
  </trkpt>
  <trkpt lat="33.752038" lon="-2.578342">
   <ele>1124.00</ele>
   <time>2014-04-06T10:01:54Z</time>
  </trkpt>
  <trkpt lat="33.752363" lon="-2.578513">
   <ele>1124.00</ele>
   <time>2014-04-06T10:01:58Z</time>
  </trkpt>
  <trkpt lat="33.752676" lon="-2.578704">
   <ele>1124.00</ele>
   <time>2014-04-06T10:02:02Z</time>
  </trkpt>
  <trkpt lat="33.752884" lon="-2.578774">
   <ele>1124.00</ele>
   <time>2014-04-06T10:02:05Z</time>
  </trkpt>
  <trkpt lat="33.753099" lon="-2.578870">
   <ele>1124.00</ele>
   <time>2014-04-06T10:02:09Z</time>
  </trkpt>
  <trkpt lat="33.753288" lon="-2.578957">
   <ele>1124.00</ele>
   <time>2014-04-06T10:02:12Z</time>
  </trkpt>
  <trkpt lat="33.753464" lon="-2.579006">
   <ele>1125.00</ele>
   <time>2014-04-06T10:02:15Z</time>
  </trkpt>
  <trkpt lat="33.753631" lon="-2.579128">
   <ele>1125.00</ele>
   <time>2014-04-06T10:02:22Z</time>
  </trkpt>
  <trkpt lat="33.753802" lon="-2.579246">
   <ele>1124.00</ele>
   <time>2014-04-06T10:02:29Z</time>
  </trkpt>
  <trkpt lat="33.753994" lon="-2.579231">
   <ele>1124.00</ele>
   <time>2014-04-06T10:02:34Z</time>
  </trkpt>
  <trkpt lat="33.754175" lon="-2.579235">
   <ele>1124.00</ele>
   <time>2014-04-06T10:02:41Z</time>
  </trkpt>
  <trkpt lat="33.754361" lon="-2.579256">
   <ele>1124.00</ele>
   <time>2014-04-06T10:02:46Z</time>
  </trkpt>
  <trkpt lat="33.754554" lon="-2.579260">
   <ele>1125.00</ele>
   <time>2014-04-06T10:02:51Z</time>
  </trkpt>
  <trkpt lat="33.754732" lon="-2.579394">
   <ele>1124.00</ele>
   <time>2014-04-06T10:02:56Z</time>
  </trkpt>
  <trkpt lat="33.754918" lon="-2.579483">
   <ele>1124.00</ele>
   <time>2014-04-06T10:03:00Z</time>
  </trkpt>
  <trkpt lat="33.755096" lon="-2.579531">
   <ele>1125.00</ele>
   <time>2014-04-06T10:03:03Z</time>
  </trkpt>
  <trkpt lat="33.755296" lon="-2.579568">
   <ele>1125.00</ele>
   <time>2014-04-06T10:03:06Z</time>
  </trkpt>
  <trkpt lat="33.755673" lon="-2.579632">
   <ele>1125.00</ele>
   <time>2014-04-06T10:03:11Z</time>
  </trkpt>
  <trkpt lat="33.755920" lon="-2.579676">
   <ele>1125.00</ele>
   <time>2014-04-06T10:03:14Z</time>
  </trkpt>
  <trkpt lat="33.756189" lon="-2.579684">
   <ele>1125.00</ele>
   <time>2014-04-06T10:03:17Z</time>
  </trkpt>
  <trkpt lat="33.756438" lon="-2.579691">
   <ele>1125.00</ele>
   <time>2014-04-06T10:03:20Z</time>
  </trkpt>
  <trkpt lat="33.756634" lon="-2.579747">
   <ele>1125.00</ele>
   <time>2014-04-06T10:03:24Z</time>
  </trkpt>
  <trkpt lat="33.756924" lon="-2.579840">
   <ele>1126.00</ele>
   <time>2014-04-06T10:03:29Z</time>
  </trkpt>
  <trkpt lat="33.757131" lon="-2.579876">
   <ele>1126.00</ele>
   <time>2014-04-06T10:03:32Z</time>
  </trkpt>
  <trkpt lat="33.757336" lon="-2.579872">
   <ele>1126.00</ele>
   <time>2014-04-06T10:03:35Z</time>
  </trkpt>
  <trkpt lat="33.757517" lon="-2.579854">
   <ele>1126.00</ele>
   <time>2014-04-06T10:03:38Z</time>
  </trkpt>
  <trkpt lat="33.757714" lon="-2.579849">
   <ele>1126.00</ele>
   <time>2014-04-06T10:03:43Z</time>
  </trkpt>
  <trkpt lat="33.757905" lon="-2.579810">
   <ele>1126.00</ele>
   <time>2014-04-06T10:03:47Z</time>
  </trkpt>
  <trkpt lat="33.758079" lon="-2.579678">
   <ele>1126.00</ele>
   <time>2014-04-06T10:03:50Z</time>
  </trkpt>
  <trkpt lat="33.758253" lon="-2.579590">
   <ele>1126.00</ele>
   <time>2014-04-06T10:03:53Z</time>
  </trkpt>
  <trkpt lat="33.758479" lon="-2.579600">
   <ele>1126.00</ele>
   <time>2014-04-06T10:03:57Z</time>
  </trkpt>
  <trkpt lat="33.758677" lon="-2.579714">
   <ele>1126.00</ele>
   <time>2014-04-06T10:04:01Z</time>
  </trkpt>
  <trkpt lat="33.758873" lon="-2.579859">
   <ele>1125.00</ele>
   <time>2014-04-06T10:04:06Z</time>
  </trkpt>
  <trkpt lat="33.759008" lon="-2.580014">
   <ele>1125.00</ele>
   <time>2014-04-06T10:04:11Z</time>
  </trkpt>
  <trkpt lat="33.759223" lon="-2.580101">
   <ele>1124.00</ele>
   <time>2014-04-06T10:04:16Z</time>
  </trkpt>
  <trkpt lat="33.759444" lon="-2.580139">
   <ele>1124.00</ele>
   <time>2014-04-06T10:04:20Z</time>
  </trkpt>
  <trkpt lat="33.759643" lon="-2.580257">
   <ele>1124.00</ele>
   <time>2014-04-06T10:04:25Z</time>
  </trkpt>
  <trkpt lat="33.759833" lon="-2.580380">
   <ele>1124.00</ele>
   <time>2014-04-06T10:04:29Z</time>
  </trkpt>
  <trkpt lat="33.760013" lon="-2.580445">
   <ele>1124.00</ele>
   <time>2014-04-06T10:04:33Z</time>
  </trkpt>
  <trkpt lat="33.760195" lon="-2.580426">
   <ele>1125.00</ele>
   <time>2014-04-06T10:04:43Z</time>
  </trkpt>
  <trkpt lat="33.760402" lon="-2.580389">
   <ele>1126.00</ele>
   <time>2014-04-06T10:04:50Z</time>
  </trkpt>
  <trkpt lat="33.760616" lon="-2.580288">
   <ele>1126.00</ele>
   <time>2014-04-06T10:04:55Z</time>
  </trkpt>
  <trkpt lat="33.760855" lon="-2.580194">
   <ele>1126.00</ele>
   <time>2014-04-06T10:04:59Z</time>
  </trkpt>
  <trkpt lat="33.761072" lon="-2.580150">
   <ele>1126.00</ele>
   <time>2014-04-06T10:05:02Z</time>
  </trkpt>
  <trkpt lat="33.761313" lon="-2.580178">
   <ele>1125.00</ele>
   <time>2014-04-06T10:05:05Z</time>
  </trkpt>
  <trkpt lat="33.761537" lon="-2.580241">
   <ele>1125.00</ele>
   <time>2014-04-06T10:05:08Z</time>
  </trkpt>
  <trkpt lat="33.761819" lon="-2.580262">
   <ele>1125.00</ele>
   <time>2014-04-06T10:05:12Z</time>
  </trkpt>
  <trkpt lat="33.762018" lon="-2.580342">
   <ele>1124.00</ele>
   <time>2014-04-06T10:05:15Z</time>
  </trkpt>
  <trkpt lat="33.762226" lon="-2.580393">
   <ele>1124.00</ele>
   <time>2014-04-06T10:05:18Z</time>
  </trkpt>
  <trkpt lat="33.762408" lon="-2.580494">
   <ele>1124.00</ele>
   <time>2014-04-06T10:05:21Z</time>
  </trkpt>
  <trkpt lat="33.762570" lon="-2.580597">
   <ele>1123.00</ele>
   <time>2014-04-06T10:05:24Z</time>
  </trkpt>
  <trkpt lat="33.762800" lon="-2.580675">
   <ele>1123.00</ele>
   <time>2014-04-06T10:05:28Z</time>
  </trkpt>
  <trkpt lat="33.762982" lon="-2.580598">
   <ele>1123.00</ele>
   <time>2014-04-06T10:05:31Z</time>
  </trkpt>
  <trkpt lat="33.763211" lon="-2.580400">
   <ele>1123.00</ele>
   <time>2014-04-06T10:05:35Z</time>
  </trkpt>
  <trkpt lat="33.763421" lon="-2.580314">
   <ele>1123.00</ele>
   <time>2014-04-06T10:05:38Z</time>
  </trkpt>
  <trkpt lat="33.763632" lon="-2.580221">
   <ele>1123.00</ele>
   <time>2014-04-06T10:05:41Z</time>
  </trkpt>
  <trkpt lat="33.763858" lon="-2.580152">
   <ele>1123.00</ele>
   <time>2014-04-06T10:05:44Z</time>
  </trkpt>
  <trkpt lat="33.764108" lon="-2.580095">
   <ele>1123.00</ele>
   <time>2014-04-06T10:05:47Z</time>
  </trkpt>
  <trkpt lat="33.764345" lon="-2.580026">
   <ele>1123.00</ele>
   <time>2014-04-06T10:05:50Z</time>
  </trkpt>
  <trkpt lat="33.764551" lon="-2.580014">
   <ele>1123.00</ele>
   <time>2014-04-06T10:05:53Z</time>
  </trkpt>
  <trkpt lat="33.764777" lon="-2.580041">
   <ele>1123.00</ele>
   <time>2014-04-06T10:05:57Z</time>
  </trkpt>
  <trkpt lat="33.764985" lon="-2.580129">
   <ele>1124.00</ele>
   <time>2014-04-06T10:06:01Z</time>
  </trkpt>
  <trkpt lat="33.765181" lon="-2.580192">
   <ele>1124.00</ele>
   <time>2014-04-06T10:06:05Z</time>
  </trkpt>
  <trkpt lat="33.765517" lon="-2.580225">
   <ele>1124.00</ele>
   <time>2014-04-06T10:06:12Z</time>
  </trkpt>
  <trkpt lat="33.765722" lon="-2.580199">
   <ele>1124.00</ele>
   <time>2014-04-06T10:06:16Z</time>
  </trkpt>
  <trkpt lat="33.765923" lon="-2.580180">
   <ele>1124.00</ele>
   <time>2014-04-06T10:06:20Z</time>
  </trkpt>
  <trkpt lat="33.766084" lon="-2.580303">
   <ele>1124.00</ele>
   <time>2014-04-06T10:06:26Z</time>
  </trkpt>
  <trkpt lat="33.766261" lon="-2.580416">
   <ele>1123.00</ele>
   <time>2014-04-06T10:06:32Z</time>
  </trkpt>
  <trkpt lat="33.766440" lon="-2.580518">
   <ele>1122.00</ele>
   <time>2014-04-06T10:06:39Z</time>
  </trkpt>
  <trkpt lat="33.766633" lon="-2.580538">
   <ele>1122.00</ele>
   <time>2014-04-06T10:06:44Z</time>
  </trkpt>
  <trkpt lat="33.766808" lon="-2.580443">
   <ele>1122.00</ele>
   <time>2014-04-06T10:06:48Z</time>
  </trkpt>
  <trkpt lat="33.766966" lon="-2.580275">
   <ele>1122.00</ele>
   <time>2014-04-06T10:06:52Z</time>
  </trkpt>
  <trkpt lat="33.767144" lon="-2.580228">
   <ele>1121.00</ele>
   <time>2014-04-06T10:06:58Z</time>
  </trkpt>
  <trkpt lat="33.767325" lon="-2.580341">
   <ele>1120.00</ele>
   <time>2014-04-06T10:07:05Z</time>
  </trkpt>
  <trkpt lat="33.767529" lon="-2.580349">
   <ele>1122.00</ele>
   <time>2014-04-06T10:07:11Z</time>
  </trkpt>
  <trkpt lat="33.767726" lon="-2.580342">
   <ele>1123.00</ele>
   <time>2014-04-06T10:07:16Z</time>
  </trkpt>
  <trkpt lat="33.767917" lon="-2.580365">
   <ele>1123.00</ele>
   <time>2014-04-06T10:07:22Z</time>
  </trkpt>
  <trkpt lat="33.768135" lon="-2.580374">
   <ele>1124.00</ele>
   <time>2014-04-06T10:07:29Z</time>
  </trkpt>
  <trkpt lat="33.768342" lon="-2.580400">
   <ele>1124.00</ele>
   <time>2014-04-06T10:07:34Z</time>
  </trkpt>
  <trkpt lat="33.768523" lon="-2.580458">
   <ele>1124.00</ele>
   <time>2014-04-06T10:07:38Z</time>
  </trkpt>
  <trkpt lat="33.768690" lon="-2.580608">
   <ele>1124.00</ele>
   <time>2014-04-06T10:07:43Z</time>
  </trkpt>
  <trkpt lat="33.768760" lon="-2.580810">
   <ele>1122.00</ele>
   <time>2014-04-06T10:07:47Z</time>
  </trkpt>
  <trkpt lat="33.768860" lon="-2.581057">
   <ele>1121.00</ele>
   <time>2014-04-06T10:07:51Z</time>
  </trkpt>
  <trkpt lat="33.768986" lon="-2.581375">
   <ele>1120.00</ele>
   <time>2014-04-06T10:07:56Z</time>
  </trkpt>
  <trkpt lat="33.769166" lon="-2.581538">
   <ele>1120.00</ele>
   <time>2014-04-06T10:08:00Z</time>
  </trkpt>
  <trkpt lat="33.769357" lon="-2.581703">
   <ele>1119.00</ele>
   <time>2014-04-06T10:08:04Z</time>
  </trkpt>
  <trkpt lat="33.769581" lon="-2.581802">
   <ele>1119.00</ele>
   <time>2014-04-06T10:08:08Z</time>
  </trkpt>
  <trkpt lat="33.769793" lon="-2.581909">
   <ele>1119.00</ele>
   <time>2014-04-06T10:08:12Z</time>
  </trkpt>
  <trkpt lat="33.770078" lon="-2.582146">
   <ele>1119.00</ele>
   <time>2014-04-06T10:08:20Z</time>
  </trkpt>
  <trkpt lat="33.770380" lon="-2.582348">
   <ele>1118.00</ele>
   <time>2014-04-06T10:08:27Z</time>
  </trkpt>
  <trkpt lat="33.770542" lon="-2.582484">
   <ele>1119.00</ele>
   <time>2014-04-06T10:08:31Z</time>
  </trkpt>
  <trkpt lat="33.770655" lon="-2.582663">
   <ele>1118.00</ele>
   <time>2014-04-06T10:08:35Z</time>
  </trkpt>
  <trkpt lat="33.770797" lon="-2.582795">
   <ele>1118.00</ele>
   <time>2014-04-06T10:08:39Z</time>
  </trkpt>
  <trkpt lat="33.771005" lon="-2.582869">
   <ele>1119.00</ele>
   <time>2014-04-06T10:08:43Z</time>
  </trkpt>
  <trkpt lat="33.771269" lon="-2.583001">
   <ele>1120.00</ele>
   <time>2014-04-06T10:08:48Z</time>
  </trkpt>
  <trkpt lat="33.771483" lon="-2.583083">
   <ele>1120.00</ele>
   <time>2014-04-06T10:08:52Z</time>
  </trkpt>
  <trkpt lat="33.771687" lon="-2.583123">
   <ele>1120.00</ele>
   <time>2014-04-06T10:08:55Z</time>
  </trkpt>
  <trkpt lat="33.771902" lon="-2.583129">
   <ele>1121.00</ele>
   <time>2014-04-06T10:08:58Z</time>
  </trkpt>
  <trkpt lat="33.772096" lon="-2.583136">
   <ele>1121.00</ele>
   <time>2014-04-06T10:09:01Z</time>
  </trkpt>
  <trkpt lat="33.772304" lon="-2.583158">
   <ele>1122.00</ele>
   <time>2014-04-06T10:09:05Z</time>
  </trkpt>
  <trkpt lat="33.772502" lon="-2.583229">
   <ele>1122.00</ele>
   <time>2014-04-06T10:09:09Z</time>
  </trkpt>
  <trkpt lat="33.772686" lon="-2.583266">
   <ele>1123.00</ele>
   <time>2014-04-06T10:09:12Z</time>
  </trkpt>
  <trkpt lat="33.772920" lon="-2.583313">
   <ele>1123.00</ele>
   <time>2014-04-06T10:09:16Z</time>
  </trkpt>
  <trkpt lat="33.773110" lon="-2.583388">
   <ele>1124.00</ele>
   <time>2014-04-06T10:09:19Z</time>
  </trkpt>
  <trkpt lat="33.773311" lon="-2.583497">
   <ele>1123.00</ele>
   <time>2014-04-06T10:09:22Z</time>
  </trkpt>
  <trkpt lat="33.773521" lon="-2.583639">
   <ele>1123.00</ele>
   <time>2014-04-06T10:09:25Z</time>
  </trkpt>
  <trkpt lat="33.773724" lon="-2.583821">
   <ele>1122.00</ele>
   <time>2014-04-06T10:09:28Z</time>
  </trkpt>
  <trkpt lat="33.773916" lon="-2.584037">
   <ele>1122.00</ele>
   <time>2014-04-06T10:09:31Z</time>
  </trkpt>
  <trkpt lat="33.774083" lon="-2.584263">
   <ele>1122.00</ele>
   <time>2014-04-06T10:09:34Z</time>
  </trkpt>
  <trkpt lat="33.774246" lon="-2.584481">
   <ele>1122.00</ele>
   <time>2014-04-06T10:09:37Z</time>
  </trkpt>
  <trkpt lat="33.774445" lon="-2.584665">
   <ele>1122.00</ele>
   <time>2014-04-06T10:09:40Z</time>
  </trkpt>
  <trkpt lat="33.774656" lon="-2.584866">
   <ele>1123.00</ele>
   <time>2014-04-06T10:09:43Z</time>
  </trkpt>
  <trkpt lat="33.775651" lon="-2.585896">
   <ele>1125.00</ele>
   <time>2014-04-06T10:09:56Z</time>
  </trkpt>
  <trkpt lat="33.775809" lon="-2.586030">
   <ele>1125.00</ele>
   <time>2014-04-06T10:09:58Z</time>
  </trkpt>
  <trkpt lat="33.776048" lon="-2.586206">
   <ele>1125.00</ele>
   <time>2014-04-06T10:10:01Z</time>
  </trkpt>
  <trkpt lat="33.776379" lon="-2.586434">
   <ele>1125.00</ele>
   <time>2014-04-06T10:10:05Z</time>
  </trkpt>
  <trkpt lat="33.776556" lon="-2.586545">
   <ele>1125.00</ele>
   <time>2014-04-06T10:10:07Z</time>
  </trkpt>
  <trkpt lat="33.776915" lon="-2.586759">
   <ele>1124.00</ele>
   <time>2014-04-06T10:10:11Z</time>
  </trkpt>
  <trkpt lat="33.777078" lon="-2.586882">
   <ele>1124.00</ele>
   <time>2014-04-06T10:10:13Z</time>
  </trkpt>
  <trkpt lat="33.777359" lon="-2.587118">
   <ele>1123.00</ele>
   <time>2014-04-06T10:10:17Z</time>
  </trkpt>
  <trkpt lat="33.777553" lon="-2.587308">
   <ele>1123.00</ele>
   <time>2014-04-06T10:10:20Z</time>
  </trkpt>
  <trkpt lat="33.777765" lon="-2.587503">
   <ele>1123.00</ele>
   <time>2014-04-06T10:10:23Z</time>
  </trkpt>
  <trkpt lat="33.777921" lon="-2.587627">
   <ele>1123.00</ele>
   <time>2014-04-06T10:10:25Z</time>
  </trkpt>
  <trkpt lat="33.778087" lon="-2.587740">
   <ele>1123.00</ele>
   <time>2014-04-06T10:10:27Z</time>
  </trkpt>
  <trkpt lat="33.778263" lon="-2.587842">
   <ele>1123.00</ele>
   <time>2014-04-06T10:10:29Z</time>
  </trkpt>
  <trkpt lat="33.778436" lon="-2.587945">
   <ele>1122.00</ele>
   <time>2014-04-06T10:10:31Z</time>
  </trkpt>
  <trkpt lat="33.778601" lon="-2.588054">
   <ele>1122.00</ele>
   <time>2014-04-06T10:10:33Z</time>
  </trkpt>
  <trkpt lat="33.778885" lon="-2.588255">
   <ele>1122.00</ele>
   <time>2014-04-06T10:10:37Z</time>
  </trkpt>
  <trkpt lat="33.779044" lon="-2.588405">
   <ele>1122.00</ele>
   <time>2014-04-06T10:10:40Z</time>
  </trkpt>
  <trkpt lat="33.779216" lon="-2.588551">
   <ele>1122.00</ele>
   <time>2014-04-06T10:10:44Z</time>
  </trkpt>
  <trkpt lat="33.779393" lon="-2.588670">
   <ele>1122.00</ele>
   <time>2014-04-06T10:10:49Z</time>
  </trkpt>
  <trkpt lat="33.779555" lon="-2.588769">
   <ele>1122.00</ele>
   <time>2014-04-06T10:10:56Z</time>
  </trkpt>
  <trkpt lat="33.779548" lon="-2.588761">
   <ele>1122.00</ele>
   <time>2014-04-06T10:11:12Z</time>
  </trkpt>
  <trkpt lat="33.779542" lon="-2.588756">
   <ele>1121.00</ele>
   <time>2014-04-06T10:11:27Z</time>
  </trkpt>
  <trkpt lat="33.779538" lon="-2.588753">
   <ele>1121.00</ele>
   <time>2014-04-06T10:11:42Z</time>
  </trkpt>
  <trkpt lat="33.779537" lon="-2.588754">
   <ele>1120.00</ele>
   <time>2014-04-06T10:11:58Z</time>
  </trkpt>
  <trkpt lat="33.779537" lon="-2.588754">
   <ele>1120.00</ele>
   <time>2014-04-06T10:12:13Z</time>
  </trkpt>
  <trkpt lat="33.779537" lon="-2.588752">
   <ele>1120.00</ele>
   <time>2014-04-06T10:12:28Z</time>
  </trkpt>
  <trkpt lat="33.779537" lon="-2.588753">
   <ele>1121.00</ele>
   <time>2014-04-06T10:12:44Z</time>
  </trkpt>
  <trkpt lat="33.779538" lon="-2.588754">
   <ele>1121.00</ele>
   <time>2014-04-06T10:12:59Z</time>
  </trkpt>
  <trkpt lat="33.779536" lon="-2.588752">
   <ele>1121.00</ele>
   <time>2014-04-06T10:13:14Z</time>
  </trkpt>
  <trkpt lat="33.779534" lon="-2.588751">
   <ele>1121.00</ele>
   <time>2014-04-06T10:13:30Z</time>
  </trkpt>
  <trkpt lat="33.779532" lon="-2.588750">
   <ele>1121.00</ele>
   <time>2014-04-06T10:13:45Z</time>
  </trkpt>
  <trkpt lat="33.779534" lon="-2.588752">
   <ele>1122.00</ele>
   <time>2014-04-06T10:14:00Z</time>
  </trkpt>
  <trkpt lat="33.779530" lon="-2.588750">
   <ele>1122.00</ele>
   <time>2014-04-06T10:14:16Z</time>
  </trkpt>
  <trkpt lat="33.779530" lon="-2.588751">
   <ele>1122.00</ele>
   <time>2014-04-06T10:14:31Z</time>
  </trkpt>
  <trkpt lat="33.779524" lon="-2.588746">
   <ele>1121.00</ele>
   <time>2014-04-06T10:14:46Z</time>
  </trkpt>
  <trkpt lat="33.779520" lon="-2.588742">
   <ele>1119.00</ele>
   <time>2014-04-06T10:15:02Z</time>
  </trkpt>
  <trkpt lat="33.779519" lon="-2.588742">
   <ele>1119.00</ele>
   <time>2014-04-06T10:15:17Z</time>
  </trkpt>
  <trkpt lat="33.779518" lon="-2.588742">
   <ele>1118.00</ele>
   <time>2014-04-06T10:15:32Z</time>
  </trkpt>
  <trkpt lat="33.779663" lon="-2.588882">
   <ele>1119.00</ele>
   <time>2014-04-06T10:15:48Z</time>
  </trkpt>
  <trkpt lat="33.779825" lon="-2.589049">
   <ele>1120.00</ele>
   <time>2014-04-06T10:15:54Z</time>
  </trkpt>
  <trkpt lat="33.779985" lon="-2.589189">
   <ele>1120.00</ele>
   <time>2014-04-06T10:15:58Z</time>
  </trkpt>
  <trkpt lat="33.780138" lon="-2.589351">
   <ele>1121.00</ele>
   <time>2014-04-06T10:16:02Z</time>
  </trkpt>
  <trkpt lat="33.780281" lon="-2.589539">
   <ele>1121.00</ele>
   <time>2014-04-06T10:16:06Z</time>
  </trkpt>
  <trkpt lat="33.780573" lon="-2.589875">
   <ele>1122.00</ele>
   <time>2014-04-06T10:16:17Z</time>
  </trkpt>
  <trkpt lat="33.780582" lon="-2.589885">
   <ele>1122.00</ele>
   <time>2014-04-06T10:16:27Z</time>
  </trkpt>
 </trkseg>
 <trkseg>
  <trkpt lat="33.780585" lon="-2.589888">
   <ele>1124.00</ele>
   <time>2014-04-06T10:16:58Z</time>
  </trkpt>
  <trkpt lat="33.780585" lon="-2.589883">
   <ele>1124.00</ele>
   <time>2014-04-06T10:17:13Z</time>
  </trkpt>
  <trkpt lat="33.780583" lon="-2.589879">
   <ele>1124.00</ele>
   <time>2014-04-06T10:17:28Z</time>
  </trkpt>
  <trkpt lat="33.780583" lon="-2.589879">
   <ele>1124.00</ele>
   <time>2014-04-06T10:17:43Z</time>
  </trkpt>
  <trkpt lat="33.780717" lon="-2.590029">
   <ele>1124.00</ele>
   <time>2014-04-06T10:17:53Z</time>
  </trkpt>
  <trkpt lat="33.781018" lon="-2.590370">
   <ele>1123.00</ele>
   <time>2014-04-06T10:18:05Z</time>
  </trkpt>
  <trkpt lat="33.781160" lon="-2.590529">
   <ele>1123.00</ele>
   <time>2014-04-06T10:18:09Z</time>
  </trkpt>
  <trkpt lat="33.781328" lon="-2.590672">
   <ele>1123.00</ele>
   <time>2014-04-06T10:18:13Z</time>
  </trkpt>
  <trkpt lat="33.781534" lon="-2.590784">
   <ele>1123.00</ele>
   <time>2014-04-06T10:18:17Z</time>
  </trkpt>
  <trkpt lat="33.782206" lon="-2.591041">
   <ele>1122.00</ele>
   <time>2014-04-06T10:18:27Z</time>
  </trkpt>
  <trkpt lat="33.782447" lon="-2.591115">
   <ele>1122.00</ele>
   <time>2014-04-06T10:18:30Z</time>
  </trkpt>
  <trkpt lat="33.782714" lon="-2.591180">
   <ele>1122.00</ele>
   <time>2014-04-06T10:18:33Z</time>
  </trkpt>
  <trkpt lat="33.782902" lon="-2.591215">
   <ele>1122.00</ele>
   <time>2014-04-06T10:18:35Z</time>
  </trkpt>
  <trkpt lat="33.783088" lon="-2.591241">
   <ele>1122.00</ele>
   <time>2014-04-06T10:18:37Z</time>
  </trkpt>
  <trkpt lat="33.783273" lon="-2.591270">
   <ele>1122.00</ele>
   <time>2014-04-06T10:18:39Z</time>
  </trkpt>
  <trkpt lat="33.783457" lon="-2.591324">
   <ele>1122.00</ele>
   <time>2014-04-06T10:18:41Z</time>
  </trkpt>
  <trkpt lat="33.783824" lon="-2.591450">
   <ele>1123.00</ele>
   <time>2014-04-06T10:18:45Z</time>
  </trkpt>
  <trkpt lat="33.784013" lon="-2.591490">
   <ele>1123.00</ele>
   <time>2014-04-06T10:18:47Z</time>
  </trkpt>
  <trkpt lat="33.784207" lon="-2.591523">
   <ele>1123.00</ele>
   <time>2014-04-06T10:18:49Z</time>
  </trkpt>
  <trkpt lat="33.784396" lon="-2.591587">
   <ele>1123.00</ele>
   <time>2014-04-06T10:18:51Z</time>
  </trkpt>
  <trkpt lat="33.784589" lon="-2.591671">
   <ele>1123.00</ele>
   <time>2014-04-06T10:18:53Z</time>
  </trkpt>
  <trkpt lat="33.784794" lon="-2.591735">
   <ele>1123.00</ele>
   <time>2014-04-06T10:18:55Z</time>
  </trkpt>
  <trkpt lat="33.784998" lon="-2.591803">
   <ele>1123.00</ele>
   <time>2014-04-06T10:18:57Z</time>
  </trkpt>
  <trkpt lat="33.785296" lon="-2.591910">
   <ele>1123.00</ele>
   <time>2014-04-06T10:19:00Z</time>
  </trkpt>
  <trkpt lat="33.785579" lon="-2.591994">
   <ele>1123.00</ele>
   <time>2014-04-06T10:19:03Z</time>
  </trkpt>
  <trkpt lat="33.785761" lon="-2.591992">
   <ele>1123.00</ele>
   <time>2014-04-06T10:19:05Z</time>
  </trkpt>
  <trkpt lat="33.786027" lon="-2.591970">
   <ele>1123.00</ele>
   <time>2014-04-06T10:19:08Z</time>
  </trkpt>
  <trkpt lat="33.786288" lon="-2.592003">
   <ele>1124.00</ele>
   <time>2014-04-06T10:19:11Z</time>
  </trkpt>
  <trkpt lat="33.786526" lon="-2.592066">
   <ele>1124.00</ele>
   <time>2014-04-06T10:19:14Z</time>
  </trkpt>
  <trkpt lat="33.786751" lon="-2.592156">
   <ele>1124.00</ele>
   <time>2014-04-06T10:19:17Z</time>
  </trkpt>
  <trkpt lat="33.786983" lon="-2.592236">
   <ele>1124.00</ele>
   <time>2014-04-06T10:19:20Z</time>
  </trkpt>
  <trkpt lat="33.787236" lon="-2.592272">
   <ele>1125.00</ele>
   <time>2014-04-06T10:19:23Z</time>
  </trkpt>
  <trkpt lat="33.787570" lon="-2.592309">
   <ele>1125.00</ele>
   <time>2014-04-06T10:19:27Z</time>
  </trkpt>
  <trkpt lat="33.787805" lon="-2.592288">
   <ele>1125.00</ele>
   <time>2014-04-06T10:19:30Z</time>
  </trkpt>
  <trkpt lat="33.788035" lon="-2.592240">
   <ele>1125.00</ele>
   <time>2014-04-06T10:19:33Z</time>
  </trkpt>
  <trkpt lat="33.788247" lon="-2.592232">
   <ele>1126.00</ele>
   <time>2014-04-06T10:19:36Z</time>
  </trkpt>
  <trkpt lat="33.788444" lon="-2.592281">
   <ele>1126.00</ele>
   <time>2014-04-06T10:19:40Z</time>
  </trkpt>
  <trkpt lat="33.788674" lon="-2.592308">
   <ele>1127.00</ele>
   <time>2014-04-06T10:19:44Z</time>
  </trkpt>
  <trkpt lat="33.788880" lon="-2.592301">
   <ele>1127.00</ele>
   <time>2014-04-06T10:19:47Z</time>
  </trkpt>
  <trkpt lat="33.789098" lon="-2.592310">
   <ele>1127.00</ele>
   <time>2014-04-06T10:19:50Z</time>
  </trkpt>
  <trkpt lat="33.789388" lon="-2.592342">
   <ele>1127.00</ele>
   <time>2014-04-06T10:19:54Z</time>
  </trkpt>
  <trkpt lat="33.789583" lon="-2.592335">
   <ele>1128.00</ele>
   <time>2014-04-06T10:19:57Z</time>
  </trkpt>
  <trkpt lat="33.789766" lon="-2.592354">
   <ele>1128.00</ele>
   <time>2014-04-06T10:20:00Z</time>
  </trkpt>
  <trkpt lat="33.789948" lon="-2.592390">
   <ele>1128.00</ele>
   <time>2014-04-06T10:20:03Z</time>
  </trkpt>
  <trkpt lat="33.790138" lon="-2.592448">
   <ele>1128.00</ele>
   <time>2014-04-06T10:20:08Z</time>
  </trkpt>
  <trkpt lat="33.790355" lon="-2.592538">
   <ele>1128.00</ele>
   <time>2014-04-06T10:20:15Z</time>
  </trkpt>
  <trkpt lat="33.790537" lon="-2.592495">
   <ele>1128.00</ele>
   <time>2014-04-06T10:20:19Z</time>
  </trkpt>
  <trkpt lat="33.790745" lon="-2.592467">
   <ele>1129.00</ele>
   <time>2014-04-06T10:20:23Z</time>
  </trkpt>
  <trkpt lat="33.790943" lon="-2.592490">
   <ele>1129.00</ele>
   <time>2014-04-06T10:20:27Z</time>
  </trkpt>
  <trkpt lat="33.791124" lon="-2.592510">
   <ele>1129.00</ele>
   <time>2014-04-06T10:20:31Z</time>
  </trkpt>
  <trkpt lat="33.791346" lon="-2.592550">
   <ele>1129.00</ele>
   <time>2014-04-06T10:20:36Z</time>
  </trkpt>
  <trkpt lat="33.791521" lon="-2.592605">
   <ele>1129.00</ele>
   <time>2014-04-06T10:20:40Z</time>
  </trkpt>
  <trkpt lat="33.791727" lon="-2.592668">
   <ele>1129.00</ele>
   <time>2014-04-06T10:20:45Z</time>
  </trkpt>
  <trkpt lat="33.791923" lon="-2.592765">
   <ele>1129.00</ele>
   <time>2014-04-06T10:20:50Z</time>
  </trkpt>
  <trkpt lat="33.792110" lon="-2.592807">
   <ele>1129.00</ele>
   <time>2014-04-06T10:20:56Z</time>
  </trkpt>
  <trkpt lat="33.792295" lon="-2.592848">
   <ele>1129.00</ele>
   <time>2014-04-06T10:21:00Z</time>
  </trkpt>
  <trkpt lat="33.793430" lon="-2.593308">
   <ele>1129.00</ele>
   <time>2014-04-06T10:21:13Z</time>
  </trkpt>
  <trkpt lat="33.793866" lon="-2.593475">
   <ele>1129.00</ele>
   <time>2014-04-06T10:21:18Z</time>
  </trkpt>
  <trkpt lat="33.794192" lon="-2.593615">
   <ele>1129.00</ele>
   <time>2014-04-06T10:21:22Z</time>
  </trkpt>
  <trkpt lat="33.794398" lon="-2.593689">
   <ele>1129.00</ele>
   <time>2014-04-06T10:21:25Z</time>
  </trkpt>
  <trkpt lat="33.794582" lon="-2.593763">
   <ele>1129.00</ele>
   <time>2014-04-06T10:21:28Z</time>
  </trkpt>
  <trkpt lat="33.794771" lon="-2.593814">
   <ele>1129.00</ele>
   <time>2014-04-06T10:21:31Z</time>
  </trkpt>
  <trkpt lat="33.795077" lon="-2.593901">
   <ele>1129.00</ele>
   <time>2014-04-06T10:21:36Z</time>
  </trkpt>
  <trkpt lat="33.795256" lon="-2.593973">
   <ele>1129.00</ele>
   <time>2014-04-06T10:21:39Z</time>
  </trkpt>
  <trkpt lat="33.795441" lon="-2.594045">
   <ele>1129.00</ele>
   <time>2014-04-06T10:21:42Z</time>
  </trkpt>
  <trkpt lat="33.795620" lon="-2.594130">
   <ele>1129.00</ele>
   <time>2014-04-06T10:21:45Z</time>
  </trkpt>
  <trkpt lat="33.795768" lon="-2.594305">
   <ele>1128.00</ele>
   <time>2014-04-06T10:21:49Z</time>
  </trkpt>
  <trkpt lat="33.795928" lon="-2.594466">
   <ele>1128.00</ele>
   <time>2014-04-06T10:21:53Z</time>
  </trkpt>
  <trkpt lat="33.796099" lon="-2.594555">
   <ele>1128.00</ele>
   <time>2014-04-06T10:21:56Z</time>
  </trkpt>
  <trkpt lat="33.796292" lon="-2.594563">
   <ele>1128.00</ele>
   <time>2014-04-06T10:21:59Z</time>
  </trkpt>
  <trkpt lat="33.796498" lon="-2.594539">
   <ele>1128.00</ele>
   <time>2014-04-06T10:22:02Z</time>
  </trkpt>
  <trkpt lat="33.796708" lon="-2.594540">
   <ele>1128.00</ele>
   <time>2014-04-06T10:22:05Z</time>
  </trkpt>
  <trkpt lat="33.796920" lon="-2.594544">
   <ele>1128.00</ele>
   <time>2014-04-06T10:22:08Z</time>
  </trkpt>
  <trkpt lat="33.797135" lon="-2.594474">
   <ele>1128.00</ele>
   <time>2014-04-06T10:22:11Z</time>
  </trkpt>
  <trkpt lat="33.797649" lon="-2.594192">
   <ele>1128.00</ele>
   <time>2014-04-06T10:22:18Z</time>
  </trkpt>
  <trkpt lat="33.797871" lon="-2.594088">
   <ele>1129.00</ele>
   <time>2014-04-06T10:22:21Z</time>
  </trkpt>
  <trkpt lat="33.798072" lon="-2.593957">
   <ele>1129.00</ele>
   <time>2014-04-06T10:22:24Z</time>
  </trkpt>
  <trkpt lat="33.798262" lon="-2.593851">
   <ele>1129.00</ele>
   <time>2014-04-06T10:22:27Z</time>
  </trkpt>
  <trkpt lat="33.798442" lon="-2.593763">
   <ele>1129.00</ele>
   <time>2014-04-06T10:22:30Z</time>
  </trkpt>
  <trkpt lat="33.798674" lon="-2.593728">
   <ele>1129.00</ele>
   <time>2014-04-06T10:22:34Z</time>
  </trkpt>
  <trkpt lat="33.798880" lon="-2.593577">
   <ele>1129.00</ele>
   <time>2014-04-06T10:22:38Z</time>
  </trkpt>
  <trkpt lat="33.799046" lon="-2.593475">
   <ele>1129.00</ele>
   <time>2014-04-06T10:22:41Z</time>
  </trkpt>
  <trkpt lat="33.799212" lon="-2.593362">
   <ele>1129.00</ele>
   <time>2014-04-06T10:22:44Z</time>
  </trkpt>
  <trkpt lat="33.799381" lon="-2.593279">
   <ele>1129.00</ele>
   <time>2014-04-06T10:22:47Z</time>
  </trkpt>
  <trkpt lat="33.799779" lon="-2.593118">
   <ele>1129.00</ele>
   <time>2014-04-06T10:22:53Z</time>
  </trkpt>
  <trkpt lat="33.800043" lon="-2.592995">
   <ele>1129.00</ele>
   <time>2014-04-06T10:22:57Z</time>
  </trkpt>
  <trkpt lat="33.800268" lon="-2.592932">
   <ele>1129.00</ele>
   <time>2014-04-06T10:23:01Z</time>
  </trkpt>
  <trkpt lat="33.800460" lon="-2.592876">
   <ele>1129.00</ele>
   <time>2014-04-06T10:23:04Z</time>
  </trkpt>
  <trkpt lat="33.800833" lon="-2.592745">
   <ele>1129.00</ele>
   <time>2014-04-06T10:23:09Z</time>
  </trkpt>
  <trkpt lat="33.801129" lon="-2.592617">
   <ele>1129.00</ele>
   <time>2014-04-06T10:23:13Z</time>
  </trkpt>
  <trkpt lat="33.801393" lon="-2.592460">
   <ele>1129.00</ele>
   <time>2014-04-06T10:23:17Z</time>
  </trkpt>
  <trkpt lat="33.801588" lon="-2.592378">
   <ele>1129.00</ele>
   <time>2014-04-06T10:23:20Z</time>
  </trkpt>
  <trkpt lat="33.801903" lon="-2.592280">
   <ele>1129.00</ele>
   <time>2014-04-06T10:23:25Z</time>
  </trkpt>
  <trkpt lat="33.802129" lon="-2.592294">
   <ele>1128.00</ele>
   <time>2014-04-06T10:23:29Z</time>
  </trkpt>
  <trkpt lat="33.802335" lon="-2.592200">
   <ele>1128.00</ele>
   <time>2014-04-06T10:23:33Z</time>
  </trkpt>
  <trkpt lat="33.802550" lon="-2.592084">
   <ele>1128.00</ele>
   <time>2014-04-06T10:23:37Z</time>
  </trkpt>
  <trkpt lat="33.802774" lon="-2.592011">
   <ele>1128.00</ele>
   <time>2014-04-06T10:23:41Z</time>
  </trkpt>
  <trkpt lat="33.802950" lon="-2.591936">
   <ele>1128.00</ele>
   <time>2014-04-06T10:23:44Z</time>
  </trkpt>
  <trkpt lat="33.803209" lon="-2.591834">
   <ele>1128.00</ele>
   <time>2014-04-06T10:23:48Z</time>
  </trkpt>
  <trkpt lat="33.803473" lon="-2.591714">
   <ele>1128.00</ele>
   <time>2014-04-06T10:23:52Z</time>
  </trkpt>
  <trkpt lat="33.803672" lon="-2.591633">
   <ele>1128.00</ele>
   <time>2014-04-06T10:23:55Z</time>
  </trkpt>
  <trkpt lat="33.803910" lon="-2.591492">
   <ele>1129.00</ele>
   <time>2014-04-06T10:23:59Z</time>
  </trkpt>
  <trkpt lat="33.804097" lon="-2.591458">
   <ele>1129.00</ele>
   <time>2014-04-06T10:24:02Z</time>
  </trkpt>
  <trkpt lat="33.804293" lon="-2.591427">
   <ele>1128.00</ele>
   <time>2014-04-06T10:24:05Z</time>
  </trkpt>
  <trkpt lat="33.804493" lon="-2.591352">
   <ele>1128.00</ele>
   <time>2014-04-06T10:24:08Z</time>
  </trkpt>
  <trkpt lat="33.804682" lon="-2.591275">
   <ele>1129.00</ele>
   <time>2014-04-06T10:24:12Z</time>
  </trkpt>
  <trkpt lat="33.804897" lon="-2.591210">
   <ele>1129.00</ele>
   <time>2014-04-06T10:24:16Z</time>
  </trkpt>
  <trkpt lat="33.805089" lon="-2.591108">
   <ele>1129.00</ele>
   <time>2014-04-06T10:24:19Z</time>
  </trkpt>
  <trkpt lat="33.805302" lon="-2.591000">
   <ele>1129.00</ele>
   <time>2014-04-06T10:24:22Z</time>
  </trkpt>
  <trkpt lat="33.805530" lon="-2.590929">
   <ele>1129.00</ele>
   <time>2014-04-06T10:24:25Z</time>
  </trkpt>
  <trkpt lat="33.805750" lon="-2.590847">
   <ele>1129.00</ele>
   <time>2014-04-06T10:24:28Z</time>
  </trkpt>
  <trkpt lat="33.805945" lon="-2.590751">
   <ele>1129.00</ele>
   <time>2014-04-06T10:24:31Z</time>
  </trkpt>
  <trkpt lat="33.806140" lon="-2.590733">
   <ele>1129.00</ele>
   <time>2014-04-06T10:24:34Z</time>
  </trkpt>
  <trkpt lat="33.806349" lon="-2.590725">
   <ele>1129.00</ele>
   <time>2014-04-06T10:24:37Z</time>
  </trkpt>
  <trkpt lat="33.806554" lon="-2.590645">
   <ele>1128.00</ele>
   <time>2014-04-06T10:24:40Z</time>
  </trkpt>
  <trkpt lat="33.806755" lon="-2.590531">
   <ele>1128.00</ele>
   <time>2014-04-06T10:24:43Z</time>
  </trkpt>
  <trkpt lat="33.806949" lon="-2.590473">
   <ele>1128.00</ele>
   <time>2014-04-06T10:24:46Z</time>
  </trkpt>
  <trkpt lat="33.807149" lon="-2.590374">
   <ele>1128.00</ele>
   <time>2014-04-06T10:24:50Z</time>
  </trkpt>
  <trkpt lat="33.807340" lon="-2.590249">
   <ele>1128.00</ele>
   <time>2014-04-06T10:24:54Z</time>
  </trkpt>
  <trkpt lat="33.807901" lon="-2.590143">
   <ele>1128.00</ele>
   <time>2014-04-06T10:25:03Z</time>
  </trkpt>
  <trkpt lat="33.808120" lon="-2.590098">
   <ele>1128.00</ele>
   <time>2014-04-06T10:25:08Z</time>
  </trkpt>
  <trkpt lat="33.808324" lon="-2.590007">
   <ele>1129.00</ele>
   <time>2014-04-06T10:25:12Z</time>
  </trkpt>
  <trkpt lat="33.808497" lon="-2.589927">
   <ele>1129.00</ele>
   <time>2014-04-06T10:25:15Z</time>
  </trkpt>
  <trkpt lat="33.808689" lon="-2.589868">
   <ele>1129.00</ele>
   <time>2014-04-06T10:25:18Z</time>
  </trkpt>
  <trkpt lat="33.809242" lon="-2.589716">
   <ele>1129.00</ele>
   <time>2014-04-06T10:25:28Z</time>
  </trkpt>
  <trkpt lat="33.809432" lon="-2.589699">
   <ele>1129.00</ele>
   <time>2014-04-06T10:25:33Z</time>
  </trkpt>
  <trkpt lat="33.809634" lon="-2.589662">
   <ele>1129.00</ele>
   <time>2014-04-06T10:25:37Z</time>
  </trkpt>
  <trkpt lat="33.809841" lon="-2.589606">
   <ele>1129.00</ele>
   <time>2014-04-06T10:25:41Z</time>
  </trkpt>
  <trkpt lat="33.810039" lon="-2.589572">
   <ele>1129.00</ele>
   <time>2014-04-06T10:25:45Z</time>
  </trkpt>
  <trkpt lat="33.810244" lon="-2.589520">
   <ele>1129.00</ele>
   <time>2014-04-06T10:25:49Z</time>
  </trkpt>
  <trkpt lat="33.810597" lon="-2.589420">
   <ele>1129.00</ele>
   <time>2014-04-06T10:25:55Z</time>
  </trkpt>
  <trkpt lat="33.810786" lon="-2.589342">
   <ele>1129.00</ele>
   <time>2014-04-06T10:25:58Z</time>
  </trkpt>
  <trkpt lat="33.811141" lon="-2.589167">
   <ele>1129.00</ele>
   <time>2014-04-06T10:26:04Z</time>
  </trkpt>
  <trkpt lat="33.811361" lon="-2.589127">
   <ele>1129.00</ele>
   <time>2014-04-06T10:26:08Z</time>
  </trkpt>
  <trkpt lat="33.811590" lon="-2.589189">
   <ele>1129.00</ele>
   <time>2014-04-06T10:26:12Z</time>
  </trkpt>
  <trkpt lat="33.811818" lon="-2.589225">
   <ele>1129.00</ele>
   <time>2014-04-06T10:26:16Z</time>
  </trkpt>
  <trkpt lat="33.812030" lon="-2.589160">
   <ele>1129.00</ele>
   <time>2014-04-06T10:26:20Z</time>
  </trkpt>
  <trkpt lat="33.812213" lon="-2.589164">
   <ele>1129.00</ele>
   <time>2014-04-06T10:26:23Z</time>
  </trkpt>
  <trkpt lat="33.812415" lon="-2.589209">
   <ele>1129.00</ele>
   <time>2014-04-06T10:26:26Z</time>
  </trkpt>
  <trkpt lat="33.812698" lon="-2.589297">
   <ele>1130.00</ele>
   <time>2014-04-06T10:26:30Z</time>
  </trkpt>
  <trkpt lat="33.812905" lon="-2.589391">
   <ele>1130.00</ele>
   <time>2014-04-06T10:26:33Z</time>
  </trkpt>
  <trkpt lat="33.813103" lon="-2.589493">
   <ele>1130.00</ele>
   <time>2014-04-06T10:26:36Z</time>
  </trkpt>
  <trkpt lat="33.813322" lon="-2.589608">
   <ele>1130.00</ele>
   <time>2014-04-06T10:26:39Z</time>
  </trkpt>
  <trkpt lat="33.813578" lon="-2.589726">
   <ele>1130.00</ele>
   <time>2014-04-06T10:26:42Z</time>
  </trkpt>
  <trkpt lat="33.814194" lon="-2.590028">
   <ele>1130.00</ele>
   <time>2014-04-06T10:26:49Z</time>
  </trkpt>
  <trkpt lat="33.814442" lon="-2.590141">
   <ele>1130.00</ele>
   <time>2014-04-06T10:26:52Z</time>
  </trkpt>
  <trkpt lat="33.814666" lon="-2.590264">
   <ele>1131.00</ele>
   <time>2014-04-06T10:26:55Z</time>
  </trkpt>
  <trkpt lat="33.814880" lon="-2.590410">
   <ele>1131.00</ele>
   <time>2014-04-06T10:26:58Z</time>
  </trkpt>
  <trkpt lat="33.815086" lon="-2.590605">
   <ele>1132.00</ele>
   <time>2014-04-06T10:27:01Z</time>
  </trkpt>
  <trkpt lat="33.815969" lon="-2.591487">
   <ele>1134.00</ele>
   <time>2014-04-06T10:27:14Z</time>
  </trkpt>
  <trkpt lat="33.816171" lon="-2.591635">
   <ele>1134.00</ele>
   <time>2014-04-06T10:27:17Z</time>
  </trkpt>
  <trkpt lat="33.816385" lon="-2.591739">
   <ele>1135.00</ele>
   <time>2014-04-06T10:27:20Z</time>
  </trkpt>
  <trkpt lat="33.816705" lon="-2.591867">
   <ele>1135.00</ele>
   <time>2014-04-06T10:27:25Z</time>
  </trkpt>
  <trkpt lat="33.816913" lon="-2.591899">
   <ele>1136.00</ele>
   <time>2014-04-06T10:27:29Z</time>
  </trkpt>
  <trkpt lat="33.817117" lon="-2.591923">
   <ele>1136.00</ele>
   <time>2014-04-06T10:27:33Z</time>
  </trkpt>
  <trkpt lat="33.817339" lon="-2.591976">
   <ele>1137.00</ele>
   <time>2014-04-06T10:27:37Z</time>
  </trkpt>
  <trkpt lat="33.817523" lon="-2.592042">
   <ele>1137.00</ele>
   <time>2014-04-06T10:27:45Z</time>
  </trkpt>
  <trkpt lat="33.817692" lon="-2.592148">
   <ele>1137.00</ele>
   <time>2014-04-06T10:27:53Z</time>
  </trkpt>
  <trkpt lat="33.817843" lon="-2.592286">
   <ele>1137.00</ele>
   <time>2014-04-06T10:27:59Z</time>
  </trkpt>
  <trkpt lat="33.817996" lon="-2.592474">
   <ele>1136.00</ele>
   <time>2014-04-06T10:28:04Z</time>
  </trkpt>
  <trkpt lat="33.818184" lon="-2.592642">
   <ele>1136.00</ele>
   <time>2014-04-06T10:28:09Z</time>
  </trkpt>
  <trkpt lat="33.818306" lon="-2.592877">
   <ele>1137.00</ele>
   <time>2014-04-06T10:28:13Z</time>
  </trkpt>
  <trkpt lat="33.818427" lon="-2.593171">
   <ele>1136.00</ele>
   <time>2014-04-06T10:28:17Z</time>
  </trkpt>
  <trkpt lat="33.818547" lon="-2.593435">
   <ele>1136.00</ele>
   <time>2014-04-06T10:28:20Z</time>
  </trkpt>
  <trkpt lat="33.818723" lon="-2.593794">
   <ele>1137.00</ele>
   <time>2014-04-06T10:28:24Z</time>
  </trkpt>
  <trkpt lat="33.819017" lon="-2.594432">
   <ele>1137.00</ele>
   <time>2014-04-06T10:28:31Z</time>
  </trkpt>
  <trkpt lat="33.819154" lon="-2.594661">
   <ele>1137.00</ele>
   <time>2014-04-06T10:28:34Z</time>
  </trkpt>
  <trkpt lat="33.819314" lon="-2.594891">
   <ele>1138.00</ele>
   <time>2014-04-06T10:28:37Z</time>
  </trkpt>
  <trkpt lat="33.819446" lon="-2.595158">
   <ele>1138.00</ele>
   <time>2014-04-06T10:28:40Z</time>
  </trkpt>
  <trkpt lat="33.819561" lon="-2.595437">
   <ele>1138.00</ele>
   <time>2014-04-06T10:28:43Z</time>
  </trkpt>
  <trkpt lat="33.819680" lon="-2.595701">
   <ele>1139.00</ele>
   <time>2014-04-06T10:28:46Z</time>
  </trkpt>
  <trkpt lat="33.819814" lon="-2.595966">
   <ele>1139.00</ele>
   <time>2014-04-06T10:28:49Z</time>
  </trkpt>
  <trkpt lat="33.819968" lon="-2.596204">
   <ele>1139.00</ele>
   <time>2014-04-06T10:28:52Z</time>
  </trkpt>
  <trkpt lat="33.820121" lon="-2.596416">
   <ele>1140.00</ele>
   <time>2014-04-06T10:28:55Z</time>
  </trkpt>
  <trkpt lat="33.820246" lon="-2.596622">
   <ele>1140.00</ele>
   <time>2014-04-06T10:28:58Z</time>
  </trkpt>
  <trkpt lat="33.820366" lon="-2.596812">
   <ele>1141.00</ele>
   <time>2014-04-06T10:29:01Z</time>
  </trkpt>
  <trkpt lat="33.820561" lon="-2.596939">
   <ele>1141.00</ele>
   <time>2014-04-06T10:29:04Z</time>
  </trkpt>
  <trkpt lat="33.820964" lon="-2.597087">
   <ele>1142.00</ele>
   <time>2014-04-06T10:29:09Z</time>
  </trkpt>
  <trkpt lat="33.821217" lon="-2.597168">
   <ele>1143.00</ele>
   <time>2014-04-06T10:29:12Z</time>
  </trkpt>
  <trkpt lat="33.821464" lon="-2.597200">
   <ele>1144.00</ele>
   <time>2014-04-06T10:29:15Z</time>
  </trkpt>
  <trkpt lat="33.821694" lon="-2.597245">
   <ele>1144.00</ele>
   <time>2014-04-06T10:29:18Z</time>
  </trkpt>
  <trkpt lat="33.821928" lon="-2.597332">
   <ele>1144.00</ele>
   <time>2014-04-06T10:29:21Z</time>
  </trkpt>
  <trkpt lat="33.822517" lon="-2.597519">
   <ele>1145.00</ele>
   <time>2014-04-06T10:29:28Z</time>
  </trkpt>
  <trkpt lat="33.822877" lon="-2.597658">
   <ele>1146.00</ele>
   <time>2014-04-06T10:29:32Z</time>
  </trkpt>
  <trkpt lat="33.823750" lon="-2.597932">
   <ele>1148.00</ele>
   <time>2014-04-06T10:29:43Z</time>
  </trkpt>
  <trkpt lat="33.823940" lon="-2.598004">
   <ele>1148.00</ele>
   <time>2014-04-06T10:29:46Z</time>
  </trkpt>
  <trkpt lat="33.824126" lon="-2.598005">
   <ele>1149.00</ele>
   <time>2014-04-06T10:29:49Z</time>
  </trkpt>
  <trkpt lat="33.824298" lon="-2.598092">
   <ele>1149.00</ele>
   <time>2014-04-06T10:29:52Z</time>
  </trkpt>
  <trkpt lat="33.824501" lon="-2.598147">
   <ele>1149.00</ele>
   <time>2014-04-06T10:29:55Z</time>
  </trkpt>
  <trkpt lat="33.824717" lon="-2.598187">
   <ele>1150.00</ele>
   <time>2014-04-06T10:29:58Z</time>
  </trkpt>
  <trkpt lat="33.824934" lon="-2.598202">
   <ele>1150.00</ele>
   <time>2014-04-06T10:30:01Z</time>
  </trkpt>
  <trkpt lat="33.825133" lon="-2.598293">
   <ele>1151.00</ele>
   <time>2014-04-06T10:30:04Z</time>
  </trkpt>
  <trkpt lat="33.825336" lon="-2.598366">
   <ele>1151.00</ele>
   <time>2014-04-06T10:30:07Z</time>
  </trkpt>
  <trkpt lat="33.825761" lon="-2.598455">
   <ele>1152.00</ele>
   <time>2014-04-06T10:30:14Z</time>
  </trkpt>
  <trkpt lat="33.825935" lon="-2.598522">
   <ele>1153.00</ele>
   <time>2014-04-06T10:30:18Z</time>
  </trkpt>
  <trkpt lat="33.826071" lon="-2.598392">
   <ele>1154.00</ele>
   <time>2014-04-06T10:30:24Z</time>
  </trkpt>
  <trkpt lat="33.826134" lon="-2.598136">
   <ele>1154.00</ele>
   <time>2014-04-06T10:30:28Z</time>
  </trkpt>
  <trkpt lat="33.826273" lon="-2.597691">
   <ele>1155.00</ele>
   <time>2014-04-06T10:30:32Z</time>
  </trkpt>
  <trkpt lat="33.826725" lon="-2.596246">
   <ele>1156.00</ele>
   <time>2014-04-06T10:30:41Z</time>
  </trkpt>
  <trkpt lat="33.827316" lon="-2.594108">
   <ele>1154.00</ele>
   <time>2014-04-06T10:30:56Z</time>
  </trkpt>
  <trkpt lat="33.827872" lon="-2.592108">
   <ele>1153.00</ele>
   <time>2014-04-06T10:31:12Z</time>
  </trkpt>
  <trkpt lat="33.828341" lon="-2.590449">
   <ele>1152.00</ele>
   <time>2014-04-06T10:31:27Z</time>
  </trkpt>
  <trkpt lat="33.828686" lon="-2.589241">
   <ele>1150.00</ele>
   <time>2014-04-06T10:31:38Z</time>
  </trkpt>
  <trkpt lat="33.828808" lon="-2.588897">
   <ele>1150.00</ele>
   <time>2014-04-06T10:31:41Z</time>
  </trkpt>
  <trkpt lat="33.829131" lon="-2.588029">
   <ele>1149.00</ele>
   <time>2014-04-06T10:31:49Z</time>
  </trkpt>
  <trkpt lat="33.829759" lon="-2.586471">
   <ele>1148.00</ele>
   <time>2014-04-06T10:32:04Z</time>
  </trkpt>
  <trkpt lat="33.830617" lon="-2.584303">
   <ele>1148.00</ele>
   <time>2014-04-06T10:32:19Z</time>
  </trkpt>
  <trkpt lat="33.831396" lon="-2.582279">
   <ele>1149.00</ele>
   <time>2014-04-06T10:32:31Z</time>
  </trkpt>
  <trkpt lat="33.832378" lon="-2.579397">
   <ele>1149.00</ele>
   <time>2014-04-06T10:32:47Z</time>
  </trkpt>
  <trkpt lat="33.833288" lon="-2.576676">
   <ele>1149.00</ele>
   <time>2014-04-06T10:33:02Z</time>
  </trkpt>
  <trkpt lat="33.834271" lon="-2.573733">
   <ele>1147.00</ele>
   <time>2014-04-06T10:33:17Z</time>
  </trkpt>
  <trkpt lat="33.835257" lon="-2.570777">
   <ele>1144.00</ele>
   <time>2014-04-06T10:33:32Z</time>
  </trkpt>
  <trkpt lat="33.836400" lon="-2.567353">
   <ele>1142.00</ele>
   <time>2014-04-06T10:33:48Z</time>
  </trkpt>
  <trkpt lat="33.837529" lon="-2.563991">
   <ele>1141.00</ele>
   <time>2014-04-06T10:34:03Z</time>
  </trkpt>
  <trkpt lat="33.838675" lon="-2.560554">
   <ele>1141.00</ele>
   <time>2014-04-06T10:34:18Z</time>
  </trkpt>
  <trkpt lat="33.839904" lon="-2.556887">
   <ele>1140.00</ele>
   <time>2014-04-06T10:34:34Z</time>
  </trkpt>
  <trkpt lat="33.841039" lon="-2.553497">
   <ele>1139.00</ele>
   <time>2014-04-06T10:34:49Z</time>
  </trkpt>
  <trkpt lat="33.842172" lon="-2.550104">
   <ele>1138.00</ele>
   <time>2014-04-06T10:35:04Z</time>
  </trkpt>
  <trkpt lat="33.842602" lon="-2.548755">
   <ele>1138.00</ele>
   <time>2014-04-06T10:35:10Z</time>
  </trkpt>
  <trkpt lat="33.842913" lon="-2.547607">
   <ele>1137.00</ele>
   <time>2014-04-06T10:35:15Z</time>
  </trkpt>
  <trkpt lat="33.843790" lon="-2.544185">
   <ele>1136.00</ele>
   <time>2014-04-06T10:35:31Z</time>
  </trkpt>
  <trkpt lat="33.844298" lon="-2.542239">
   <ele>1134.00</ele>
   <time>2014-04-06T10:35:46Z</time>
  </trkpt>
  <trkpt lat="33.844496" lon="-2.541423">
   <ele>1134.00</ele>
   <time>2014-04-06T10:35:51Z</time>
  </trkpt>
  <trkpt lat="33.845310" lon="-2.538246">
   <ele>1134.00</ele>
   <time>2014-04-06T10:36:07Z</time>
  </trkpt>
  <trkpt lat="33.846127" lon="-2.535098">
   <ele>1133.00</ele>
   <time>2014-04-06T10:36:22Z</time>
  </trkpt>
  <trkpt lat="33.846598" lon="-2.533357">
   <ele>1132.00</ele>
   <time>2014-04-06T10:36:30Z</time>
  </trkpt>
  <trkpt lat="33.846735" lon="-2.532930">
   <ele>1132.00</ele>
   <time>2014-04-06T10:36:32Z</time>
  </trkpt>
  <trkpt lat="33.846893" lon="-2.532508">
   <ele>1132.00</ele>
   <time>2014-04-06T10:36:34Z</time>
  </trkpt>
  <trkpt lat="33.847063" lon="-2.532094">
   <ele>1132.00</ele>
   <time>2014-04-06T10:36:36Z</time>
  </trkpt>
  <trkpt lat="33.847251" lon="-2.531690">
   <ele>1131.00</ele>
   <time>2014-04-06T10:36:38Z</time>
  </trkpt>
  <trkpt lat="33.847560" lon="-2.531099">
   <ele>1131.00</ele>
   <time>2014-04-06T10:36:41Z</time>
  </trkpt>
  <trkpt lat="33.847897" lon="-2.530525">
   <ele>1130.00</ele>
   <time>2014-04-06T10:36:44Z</time>
  </trkpt>
  <trkpt lat="33.848145" lon="-2.530160">
   <ele>1130.00</ele>
   <time>2014-04-06T10:36:46Z</time>
  </trkpt>
  <trkpt lat="33.850106" lon="-2.527520">
   <ele>1127.00</ele>
   <time>2014-04-06T10:37:01Z</time>
  </trkpt>
  <trkpt lat="33.852017" lon="-2.524923">
   <ele>1125.00</ele>
   <time>2014-04-06T10:37:16Z</time>
  </trkpt>
  <trkpt lat="33.853906" lon="-2.522363">
   <ele>1125.00</ele>
   <time>2014-04-06T10:37:32Z</time>
  </trkpt>
  <trkpt lat="33.855734" lon="-2.519892">
   <ele>1125.00</ele>
   <time>2014-04-06T10:37:47Z</time>
  </trkpt>
  <trkpt lat="33.856685" lon="-2.518597">
   <ele>1126.00</ele>
   <time>2014-04-06T10:37:55Z</time>
  </trkpt>
  <trkpt lat="33.857585" lon="-2.517234">
   <ele>1125.00</ele>
   <time>2014-04-06T10:38:03Z</time>
  </trkpt>
  <trkpt lat="33.859349" lon="-2.514409">
   <ele>1122.00</ele>
   <time>2014-04-06T10:38:19Z</time>
  </trkpt>
  <trkpt lat="33.861002" lon="-2.511751">
   <ele>1121.00</ele>
   <time>2014-04-06T10:38:34Z</time>
  </trkpt>
  <trkpt lat="33.862682" lon="-2.509081">
   <ele>1121.00</ele>
   <time>2014-04-06T10:38:49Z</time>
  </trkpt>
  <trkpt lat="33.864307" lon="-2.506489">
   <ele>1121.00</ele>
   <time>2014-04-06T10:39:04Z</time>
  </trkpt>
  <trkpt lat="33.865409" lon="-2.504734">
   <ele>1121.00</ele>
   <time>2014-04-06T10:39:17Z</time>
  </trkpt>
  <trkpt lat="33.865480" lon="-2.504505">
   <ele>1120.00</ele>
   <time>2014-04-06T10:39:21Z</time>
  </trkpt>
  <trkpt lat="33.865304" lon="-2.504422">
   <ele>1117.00</ele>
   <time>2014-04-06T10:39:27Z</time>
  </trkpt>
  <trkpt lat="33.865085" lon="-2.504434">
   <ele>1116.00</ele>
   <time>2014-04-06T10:39:33Z</time>
  </trkpt>
  <trkpt lat="33.864769" lon="-2.504463">
   <ele>1115.00</ele>
   <time>2014-04-06T10:39:39Z</time>
  </trkpt>
  <trkpt lat="33.864537" lon="-2.504480">
   <ele>1115.00</ele>
   <time>2014-04-06T10:39:44Z</time>
  </trkpt>
  <trkpt lat="33.864433" lon="-2.504361">
   <ele>1115.00</ele>
   <time>2014-04-06T10:39:59Z</time>
  </trkpt>
  <trkpt lat="33.864435" lon="-2.504363">
   <ele>1114.00</ele>
   <time>2014-04-06T10:40:15Z</time>
  </trkpt>
  <trkpt lat="33.864435" lon="-2.504364">
   <ele>1115.00</ele>
   <time>2014-04-06T10:40:30Z</time>
  </trkpt>
  <trkpt lat="33.864434" lon="-2.504363">
   <ele>1114.00</ele>
   <time>2014-04-06T10:40:45Z</time>
  </trkpt>
  <trkpt lat="33.864434" lon="-2.504362">
   <ele>1114.00</ele>
   <time>2014-04-06T10:41:00Z</time>
  </trkpt>
  <trkpt lat="33.864434" lon="-2.504363">
   <ele>1114.00</ele>
   <time>2014-04-06T10:41:15Z</time>
  </trkpt>
  <trkpt lat="33.864434" lon="-2.504362">
   <ele>1113.00</ele>
   <time>2014-04-06T10:41:31Z</time>
  </trkpt>
  <trkpt lat="33.864434" lon="-2.504363">
   <ele>1113.00</ele>
   <time>2014-04-06T10:41:46Z</time>
  </trkpt>
  <trkpt lat="33.864435" lon="-2.504363">
   <ele>1113.00</ele>
   <time>2014-04-06T10:42:01Z</time>
  </trkpt>
  <trkpt lat="33.864435" lon="-2.504362">
   <ele>1113.00</ele>
   <time>2014-04-06T10:42:16Z</time>
  </trkpt>
  <trkpt lat="33.864436" lon="-2.504363">
   <ele>1113.00</ele>
   <time>2014-04-06T10:42:32Z</time>
  </trkpt>
  <trkpt lat="33.864434" lon="-2.504364">
   <ele>1113.00</ele>
   <time>2014-04-06T10:42:47Z</time>
  </trkpt>
  <trkpt lat="33.864433" lon="-2.504364">
   <ele>1113.00</ele>
   <time>2014-04-06T10:43:02Z</time>
  </trkpt>
  <trkpt lat="33.864431" lon="-2.504364">
   <ele>1113.00</ele>
   <time>2014-04-06T10:43:17Z</time>
  </trkpt>
  <trkpt lat="33.864533" lon="-2.504212">
   <ele>1114.00</ele>
   <time>2014-04-06T10:43:33Z</time>
  </trkpt>
  <trkpt lat="33.864727" lon="-2.504236">
   <ele>1114.00</ele>
   <time>2014-04-06T10:43:39Z</time>
  </trkpt>
  <trkpt lat="33.864929" lon="-2.504279">
   <ele>1114.00</ele>
   <time>2014-04-06T10:43:44Z</time>
  </trkpt>
  <trkpt lat="33.865139" lon="-2.504328">
   <ele>1115.00</ele>
   <time>2014-04-06T10:43:49Z</time>
  </trkpt>
  <trkpt lat="33.865319" lon="-2.504437">
   <ele>1115.00</ele>
   <time>2014-04-06T10:43:54Z</time>
  </trkpt>
  <trkpt lat="33.865457" lon="-2.504601">
   <ele>1115.00</ele>
   <time>2014-04-06T10:43:59Z</time>
  </trkpt>
  <trkpt lat="33.865616" lon="-2.504437">
   <ele>1116.00</ele>
   <time>2014-04-06T10:44:03Z</time>
  </trkpt>
  <trkpt lat="33.865792" lon="-2.504116">
   <ele>1116.00</ele>
   <time>2014-04-06T10:44:07Z</time>
  </trkpt>
  <trkpt lat="33.866841" lon="-2.502443">
   <ele>1117.00</ele>
   <time>2014-04-06T10:44:22Z</time>
  </trkpt>
  <trkpt lat="33.868431" lon="-2.499909">
   <ele>1116.00</ele>
   <time>2014-04-06T10:44:38Z</time>
  </trkpt>
  <trkpt lat="33.870155" lon="-2.497153">
   <ele>1116.00</ele>
   <time>2014-04-06T10:44:53Z</time>
  </trkpt>
  <trkpt lat="33.870868" lon="-2.496034">
   <ele>1116.00</ele>
   <time>2014-04-06T10:44:59Z</time>
  </trkpt>
  <trkpt lat="33.871375" lon="-2.495300">
   <ele>1116.00</ele>
   <time>2014-04-06T10:45:03Z</time>
  </trkpt>
  <trkpt lat="33.873545" lon="-2.492334">
   <ele>1116.00</ele>
   <time>2014-04-06T10:45:19Z</time>
  </trkpt>
  <trkpt lat="33.875669" lon="-2.489449">
   <ele>1114.00</ele>
   <time>2014-04-06T10:45:34Z</time>
  </trkpt>
  <trkpt lat="33.877812" lon="-2.486542">
   <ele>1112.00</ele>
   <time>2014-04-06T10:45:49Z</time>
  </trkpt>
  <trkpt lat="33.880085" lon="-2.483445">
   <ele>1112.00</ele>
   <time>2014-04-06T10:46:05Z</time>
  </trkpt>
  <trkpt lat="33.882215" lon="-2.480558">
   <ele>1111.00</ele>
   <time>2014-04-06T10:46:20Z</time>
  </trkpt>
  <trkpt lat="33.884366" lon="-2.477637">
   <ele>1112.00</ele>
   <time>2014-04-06T10:46:35Z</time>
  </trkpt>
  <trkpt lat="33.885180" lon="-2.476570">
   <ele>1112.00</ele>
   <time>2014-04-06T10:46:41Z</time>
  </trkpt>
  <trkpt lat="33.885906" lon="-2.475698">
   <ele>1111.00</ele>
   <time>2014-04-06T10:46:46Z</time>
  </trkpt>
  <trkpt lat="33.888365" lon="-2.472841">
   <ele>1113.00</ele>
   <time>2014-04-06T10:47:02Z</time>
  </trkpt>
  <trkpt lat="33.890719" lon="-2.470107">
   <ele>1114.00</ele>
   <time>2014-04-06T10:47:17Z</time>
  </trkpt>
  <trkpt lat="33.893042" lon="-2.467417">
   <ele>1114.00</ele>
   <time>2014-04-06T10:47:32Z</time>
  </trkpt>
  <trkpt lat="33.895370" lon="-2.464715">
   <ele>1115.00</ele>
   <time>2014-04-06T10:47:47Z</time>
  </trkpt>
  <trkpt lat="33.897910" lon="-2.461757">
   <ele>1116.00</ele>
   <time>2014-04-06T10:48:03Z</time>
  </trkpt>
  <trkpt lat="33.900353" lon="-2.458918">
   <ele>1116.00</ele>
   <time>2014-04-06T10:48:18Z</time>
  </trkpt>
  <trkpt lat="33.902828" lon="-2.456048">
   <ele>1116.00</ele>
   <time>2014-04-06T10:48:33Z</time>
  </trkpt>
  <trkpt lat="33.905246" lon="-2.453249">
   <ele>1116.00</ele>
   <time>2014-04-06T10:48:48Z</time>
  </trkpt>
  <trkpt lat="33.907829" lon="-2.450245">
   <ele>1115.00</ele>
   <time>2014-04-06T10:49:04Z</time>
  </trkpt>
  <trkpt lat="33.910284" lon="-2.447399">
   <ele>1113.00</ele>
   <time>2014-04-06T10:49:19Z</time>
  </trkpt>
  <trkpt lat="33.912687" lon="-2.444605">
   <ele>1115.00</ele>
   <time>2014-04-06T10:49:34Z</time>
  </trkpt>
  <trkpt lat="33.915251" lon="-2.441613">
   <ele>1115.00</ele>
   <time>2014-04-06T10:49:50Z</time>
  </trkpt>
  <trkpt lat="33.917677" lon="-2.438801">
   <ele>1114.00</ele>
   <time>2014-04-06T10:50:05Z</time>
  </trkpt>
  <trkpt lat="33.919831" lon="-2.436310">
   <ele>1113.00</ele>
   <time>2014-04-06T10:50:20Z</time>
  </trkpt>
  <trkpt lat="33.921779" lon="-2.434073">
   <ele>1111.00</ele>
   <time>2014-04-06T10:50:35Z</time>
  </trkpt>
  <trkpt lat="33.924106" lon="-2.431370">
   <ele>1110.00</ele>
   <time>2014-04-06T10:50:51Z</time>
  </trkpt>
  <trkpt lat="33.926475" lon="-2.428607">
   <ele>1109.00</ele>
   <time>2014-04-06T10:51:06Z</time>
  </trkpt>
  <trkpt lat="33.928873" lon="-2.425800">
   <ele>1110.00</ele>
   <time>2014-04-06T10:51:21Z</time>
  </trkpt>
  <trkpt lat="33.931268" lon="-2.423004">
   <ele>1110.00</ele>
   <time>2014-04-06T10:51:36Z</time>
  </trkpt>
  <trkpt lat="33.933891" lon="-2.419960">
   <ele>1110.00</ele>
   <time>2014-04-06T10:51:52Z</time>
  </trkpt>
  <trkpt lat="33.936425" lon="-2.417018">
   <ele>1110.00</ele>
   <time>2014-04-06T10:52:07Z</time>
  </trkpt>
  <trkpt lat="33.938952" lon="-2.414078">
   <ele>1109.00</ele>
   <time>2014-04-06T10:52:22Z</time>
  </trkpt>
  <trkpt lat="33.941599" lon="-2.411010">
   <ele>1108.00</ele>
   <time>2014-04-06T10:52:38Z</time>
  </trkpt>
  <trkpt lat="33.943978" lon="-2.408245">
   <ele>1109.00</ele>
   <time>2014-04-06T10:52:53Z</time>
  </trkpt>
  <trkpt lat="33.946377" lon="-2.405449">
   <ele>1109.00</ele>
   <time>2014-04-06T10:53:08Z</time>
  </trkpt>
  <trkpt lat="33.948778" lon="-2.402657">
   <ele>1108.00</ele>
   <time>2014-04-06T10:53:23Z</time>
  </trkpt>
  <trkpt lat="33.951356" lon="-2.399656">
   <ele>1106.00</ele>
   <time>2014-04-06T10:53:39Z</time>
  </trkpt>
  <trkpt lat="33.953683" lon="-2.396948">
   <ele>1108.00</ele>
   <time>2014-04-06T10:53:54Z</time>
  </trkpt>
  <trkpt lat="33.956095" lon="-2.394140">
   <ele>1110.00</ele>
   <time>2014-04-06T10:54:09Z</time>
  </trkpt>
  <trkpt lat="33.958687" lon="-2.391113">
   <ele>1110.00</ele>
   <time>2014-04-06T10:54:25Z</time>
  </trkpt>
  <trkpt lat="33.961178" lon="-2.388209">
   <ele>1109.00</ele>
   <time>2014-04-06T10:54:40Z</time>
  </trkpt>
  <trkpt lat="33.963664" lon="-2.385318">
   <ele>1109.00</ele>
   <time>2014-04-06T10:54:55Z</time>
  </trkpt>
  <trkpt lat="33.965252" lon="-2.383415">
   <ele>1111.00</ele>
   <time>2014-04-06T10:55:05Z</time>
  </trkpt>
  <trkpt lat="33.965538" lon="-2.383007">
   <ele>1111.00</ele>
   <time>2014-04-06T10:55:07Z</time>
  </trkpt>
  <trkpt lat="33.967722" lon="-2.379717">
   <ele>1104.00</ele>
   <time>2014-04-06T10:55:22Z</time>
  </trkpt>
  <trkpt lat="33.969925" lon="-2.376388">
   <ele>1102.00</ele>
   <time>2014-04-06T10:55:37Z</time>
  </trkpt>
  <trkpt lat="33.972093" lon="-2.373140">
   <ele>1101.00</ele>
   <time>2014-04-06T10:55:52Z</time>
  </trkpt>
  <trkpt lat="33.974425" lon="-2.369631">
   <ele>1099.00</ele>
   <time>2014-04-06T10:56:08Z</time>
  </trkpt>
  <trkpt lat="33.976582" lon="-2.366408">
   <ele>1098.00</ele>
   <time>2014-04-06T10:56:23Z</time>
  </trkpt>
  <trkpt lat="33.978708" lon="-2.363185">
   <ele>1097.00</ele>
   <time>2014-04-06T10:56:38Z</time>
  </trkpt>
  <trkpt lat="33.980883" lon="-2.359933">
   <ele>1096.00</ele>
   <time>2014-04-06T10:56:53Z</time>
  </trkpt>
  <trkpt lat="33.983091" lon="-2.356591">
   <ele>1095.00</ele>
   <time>2014-04-06T10:57:09Z</time>
  </trkpt>
  <trkpt lat="33.983312" lon="-2.356207">
   <ele>1095.00</ele>
   <time>2014-04-06T10:57:11Z</time>
  </trkpt>
  <trkpt lat="33.983713" lon="-2.355449">
   <ele>1095.00</ele>
   <time>2014-04-06T10:57:15Z</time>
  </trkpt>
  <trkpt lat="33.984285" lon="-2.354267">
   <ele>1095.00</ele>
   <time>2014-04-06T10:57:21Z</time>
  </trkpt>
  <trkpt lat="33.984635" lon="-2.353429">
   <ele>1094.00</ele>
   <time>2014-04-06T10:57:25Z</time>
  </trkpt>
  <trkpt lat="33.984882" lon="-2.352782">
   <ele>1094.00</ele>
   <time>2014-04-06T10:57:28Z</time>
  </trkpt>
  <trkpt lat="33.985256" lon="-2.351648">
   <ele>1094.00</ele>
   <time>2014-04-06T10:57:33Z</time>
  </trkpt>
  <trkpt lat="33.986371" lon="-2.347964">
   <ele>1091.00</ele>
   <time>2014-04-06T10:57:48Z</time>
  </trkpt>
  <trkpt lat="33.987533" lon="-2.344157">
   <ele>1089.00</ele>
   <time>2014-04-06T10:58:03Z</time>
  </trkpt>
  <trkpt lat="33.988821" lon="-2.339935">
   <ele>1087.00</ele>
   <time>2014-04-06T10:58:19Z</time>
  </trkpt>
  <trkpt lat="33.990058" lon="-2.335895">
   <ele>1086.00</ele>
   <time>2014-04-06T10:58:34Z</time>
  </trkpt>
  <trkpt lat="33.991282" lon="-2.331890">
   <ele>1084.00</ele>
   <time>2014-04-06T10:58:49Z</time>
  </trkpt>
  <trkpt lat="33.992500" lon="-2.327916">
   <ele>1082.00</ele>
   <time>2014-04-06T10:59:04Z</time>
  </trkpt>
  <trkpt lat="33.993805" lon="-2.323650">
   <ele>1080.00</ele>
   <time>2014-04-06T10:59:20Z</time>
  </trkpt>
  <trkpt lat="33.995034" lon="-2.319627">
   <ele>1078.00</ele>
   <time>2014-04-06T10:59:35Z</time>
  </trkpt>
  <trkpt lat="33.996281" lon="-2.315565">
   <ele>1078.00</ele>
   <time>2014-04-06T10:59:50Z</time>
  </trkpt>
  <trkpt lat="33.997514" lon="-2.311541">
   <ele>1077.00</ele>
   <time>2014-04-06T11:00:05Z</time>
  </trkpt>
  <trkpt lat="33.998763" lon="-2.307462">
   <ele>1076.00</ele>
   <time>2014-04-06T11:00:21Z</time>
  </trkpt>
  <trkpt lat="33.999968" lon="-2.303602">
   <ele>1073.00</ele>
   <time>2014-04-06T11:00:36Z</time>
  </trkpt>
  <trkpt lat="34.000514" lon="-2.301774">
   <ele>1073.00</ele>
   <time>2014-04-06T11:00:43Z</time>
  </trkpt>
  <trkpt lat="34.000977" lon="-2.300210">
   <ele>1072.00</ele>
   <time>2014-04-06T11:00:49Z</time>
  </trkpt>
  <trkpt lat="34.002251" lon="-2.296060">
   <ele>1071.00</ele>
   <time>2014-04-06T11:01:05Z</time>
  </trkpt>
  <trkpt lat="34.003456" lon="-2.292165">
   <ele>1070.00</ele>
   <time>2014-04-06T11:01:20Z</time>
  </trkpt>
  <trkpt lat="34.004637" lon="-2.288241">
   <ele>1068.00</ele>
   <time>2014-04-06T11:01:35Z</time>
  </trkpt>
  <trkpt lat="34.005836" lon="-2.284344">
   <ele>1067.00</ele>
   <time>2014-04-06T11:01:50Z</time>
  </trkpt>
  <trkpt lat="34.007131" lon="-2.280150">
   <ele>1065.00</ele>
   <time>2014-04-06T11:02:06Z</time>
  </trkpt>
  <trkpt lat="34.007415" lon="-2.279382">
   <ele>1064.00</ele>
   <time>2014-04-06T11:02:09Z</time>
  </trkpt>
  <trkpt lat="34.007936" lon="-2.278129">
   <ele>1064.00</ele>
   <time>2014-04-06T11:02:14Z</time>
  </trkpt>
  <trkpt lat="34.009622" lon="-2.274452">
   <ele>1063.00</ele>
   <time>2014-04-06T11:02:29Z</time>
  </trkpt>
  <trkpt lat="34.011290" lon="-2.270786">
   <ele>1062.00</ele>
   <time>2014-04-06T11:02:44Z</time>
  </trkpt>
  <trkpt lat="34.013075" lon="-2.266868">
   <ele>1061.00</ele>
   <time>2014-04-06T11:03:00Z</time>
  </trkpt>
  <trkpt lat="34.014756" lon="-2.263199">
   <ele>1060.00</ele>
   <time>2014-04-06T11:03:15Z</time>
  </trkpt>
  <trkpt lat="34.016416" lon="-2.259556">
   <ele>1060.00</ele>
   <time>2014-04-06T11:03:30Z</time>
  </trkpt>
  <trkpt lat="34.018069" lon="-2.255925">
   <ele>1059.00</ele>
   <time>2014-04-06T11:03:45Z</time>
  </trkpt>
  <trkpt lat="34.020065" lon="-2.251529">
   <ele>1058.00</ele>
   <time>2014-04-06T11:04:03Z</time>
  </trkpt>
  <trkpt lat="34.021750" lon="-2.247834">
   <ele>1057.00</ele>
   <time>2014-04-06T11:04:18Z</time>
  </trkpt>
  <trkpt lat="34.023558" lon="-2.243862">
   <ele>1055.00</ele>
   <time>2014-04-06T11:04:34Z</time>
  </trkpt>
  <trkpt lat="34.025284" lon="-2.240073">
   <ele>1053.00</ele>
   <time>2014-04-06T11:04:49Z</time>
  </trkpt>
  <trkpt lat="34.027001" lon="-2.236291">
   <ele>1051.00</ele>
   <time>2014-04-06T11:05:04Z</time>
  </trkpt>
  <trkpt lat="34.028701" lon="-2.232542">
   <ele>1050.00</ele>
   <time>2014-04-06T11:05:19Z</time>
  </trkpt>
  <trkpt lat="34.030507" lon="-2.228581">
   <ele>1049.00</ele>
   <time>2014-04-06T11:05:35Z</time>
  </trkpt>
  <trkpt lat="34.032187" lon="-2.224897">
   <ele>1049.00</ele>
   <time>2014-04-06T11:05:50Z</time>
  </trkpt>
  <trkpt lat="34.033857" lon="-2.221217">
   <ele>1049.00</ele>
   <time>2014-04-06T11:06:05Z</time>
  </trkpt>
  <trkpt lat="34.035665" lon="-2.217232">
   <ele>1047.00</ele>
   <time>2014-04-06T11:06:21Z</time>
  </trkpt>
  <trkpt lat="34.037367" lon="-2.213490">
   <ele>1047.00</ele>
   <time>2014-04-06T11:06:36Z</time>
  </trkpt>
  <trkpt lat="34.039043" lon="-2.209796">
   <ele>1047.00</ele>
   <time>2014-04-06T11:06:51Z</time>
  </trkpt>
  <trkpt lat="34.040724" lon="-2.206112">
   <ele>1046.00</ele>
   <time>2014-04-06T11:07:06Z</time>
  </trkpt>
  <trkpt lat="34.042509" lon="-2.202182">
   <ele>1045.00</ele>
   <time>2014-04-06T11:07:22Z</time>
  </trkpt>
  <trkpt lat="34.044144" lon="-2.198588">
   <ele>1044.00</ele>
   <time>2014-04-06T11:07:37Z</time>
  </trkpt>
  <trkpt lat="34.045822" lon="-2.194899">
   <ele>1043.00</ele>
   <time>2014-04-06T11:07:52Z</time>
  </trkpt>
  <trkpt lat="34.047514" lon="-2.191187">
   <ele>1042.00</ele>
   <time>2014-04-06T11:08:07Z</time>
  </trkpt>
  <trkpt lat="34.047838" lon="-2.190455">
   <ele>1042.00</ele>
   <time>2014-04-06T11:08:10Z</time>
  </trkpt>
  <trkpt lat="34.047935" lon="-2.190207">
   <ele>1042.00</ele>
   <time>2014-04-06T11:08:11Z</time>
  </trkpt>
  <trkpt lat="34.048024" lon="-2.189954">
   <ele>1041.00</ele>
   <time>2014-04-06T11:08:12Z</time>
  </trkpt>
  <trkpt lat="34.048103" lon="-2.189697">
   <ele>1042.00</ele>
   <time>2014-04-06T11:08:13Z</time>
  </trkpt>
  <trkpt lat="34.048172" lon="-2.189437">
   <ele>1041.00</ele>
   <time>2014-04-06T11:08:14Z</time>
  </trkpt>
  <trkpt lat="34.048230" lon="-2.189175">
   <ele>1041.00</ele>
   <time>2014-04-06T11:08:15Z</time>
  </trkpt>
  <trkpt lat="34.048279" lon="-2.188910">
   <ele>1041.00</ele>
   <time>2014-04-06T11:08:16Z</time>
  </trkpt>
  <trkpt lat="34.048317" lon="-2.188644">
   <ele>1040.00</ele>
   <time>2014-04-06T11:08:17Z</time>
  </trkpt>
  <trkpt lat="34.048345" lon="-2.188377">
   <ele>1039.00</ele>
   <time>2014-04-06T11:08:18Z</time>
  </trkpt>
  <trkpt lat="34.048363" lon="-2.188112">
   <ele>1038.00</ele>
   <time>2014-04-06T11:08:19Z</time>
  </trkpt>
  <trkpt lat="34.048373" lon="-2.187585">
   <ele>1036.00</ele>
   <time>2014-04-06T11:08:21Z</time>
  </trkpt>
  <trkpt lat="34.048367" lon="-2.187322">
   <ele>1035.00</ele>
   <time>2014-04-06T11:08:22Z</time>
  </trkpt>
  <trkpt lat="34.048353" lon="-2.187059">
   <ele>1034.00</ele>
   <time>2014-04-06T11:08:23Z</time>
  </trkpt>
  <trkpt lat="34.048301" lon="-2.186532">
   <ele>1032.00</ele>
   <time>2014-04-06T11:08:25Z</time>
  </trkpt>
  <trkpt lat="34.048215" lon="-2.186006">
   <ele>1029.00</ele>
   <time>2014-04-06T11:08:27Z</time>
  </trkpt>
  <trkpt lat="34.048157" lon="-2.185746">
   <ele>1028.00</ele>
   <time>2014-04-06T11:08:28Z</time>
  </trkpt>
  <trkpt lat="34.048090" lon="-2.185490">
   <ele>1027.00</ele>
   <time>2014-04-06T11:08:29Z</time>
  </trkpt>
  <trkpt lat="34.048013" lon="-2.185239">
   <ele>1025.00</ele>
   <time>2014-04-06T11:08:30Z</time>
  </trkpt>
  <trkpt lat="34.047926" lon="-2.184993">
   <ele>1024.00</ele>
   <time>2014-04-06T11:08:31Z</time>
  </trkpt>
  <trkpt lat="34.047830" lon="-2.184753">
   <ele>1024.00</ele>
   <time>2014-04-06T11:08:32Z</time>
  </trkpt>
  <trkpt lat="34.047618" lon="-2.184296">
   <ele>1021.00</ele>
   <time>2014-04-06T11:08:34Z</time>
  </trkpt>
  <trkpt lat="34.046017" lon="-2.180810">
   <ele>1006.00</ele>
   <time>2014-04-06T11:08:49Z</time>
  </trkpt>
  <trkpt lat="34.044366" lon="-2.177083">
   <ele>996.00</ele>
   <time>2014-04-06T11:09:04Z</time>
  </trkpt>
  <trkpt lat="34.042678" lon="-2.173288">
   <ele>991.00</ele>
   <time>2014-04-06T11:09:20Z</time>
  </trkpt>
  <trkpt lat="34.041947" lon="-2.171667">
   <ele>990.00</ele>
   <time>2014-04-06T11:09:27Z</time>
  </trkpt>
  <trkpt lat="34.041718" lon="-2.171226">
   <ele>990.00</ele>
   <time>2014-04-06T11:09:29Z</time>
  </trkpt>
  <trkpt lat="34.041472" lon="-2.170806">
   <ele>989.00</ele>
   <time>2014-04-06T11:09:31Z</time>
  </trkpt>
  <trkpt lat="34.041212" lon="-2.170403">
   <ele>989.00</ele>
   <time>2014-04-06T11:09:33Z</time>
  </trkpt>
  <trkpt lat="34.040940" lon="-2.170014">
   <ele>989.00</ele>
   <time>2014-04-06T11:09:35Z</time>
  </trkpt>
  <trkpt lat="34.040651" lon="-2.169640">
   <ele>989.00</ele>
   <time>2014-04-06T11:09:37Z</time>
  </trkpt>
  <trkpt lat="34.040343" lon="-2.169284">
   <ele>989.00</ele>
   <time>2014-04-06T11:09:39Z</time>
  </trkpt>
  <trkpt lat="34.040020" lon="-2.168943">
   <ele>989.00</ele>
   <time>2014-04-06T11:09:41Z</time>
  </trkpt>
  <trkpt lat="34.038034" lon="-2.167034">
   <ele>988.00</ele>
   <time>2014-04-06T11:09:53Z</time>
  </trkpt>
  <trkpt lat="34.035598" lon="-2.164680">
   <ele>974.00</ele>
   <time>2014-04-06T11:10:08Z</time>
  </trkpt>
  <trkpt lat="34.034193" lon="-2.163351">
   <ele>967.00</ele>
   <time>2014-04-06T11:10:17Z</time>
  </trkpt>
  <trkpt lat="34.033896" lon="-2.163173">
   <ele>966.00</ele>
   <time>2014-04-06T11:10:19Z</time>
  </trkpt>
  <trkpt lat="34.033576" lon="-2.163072">
   <ele>965.00</ele>
   <time>2014-04-06T11:10:21Z</time>
  </trkpt>
  <trkpt lat="34.033238" lon="-2.163026">
   <ele>964.00</ele>
   <time>2014-04-06T11:10:23Z</time>
  </trkpt>
  <trkpt lat="34.032885" lon="-2.163043">
   <ele>963.00</ele>
   <time>2014-04-06T11:10:25Z</time>
  </trkpt>
  <trkpt lat="34.032534" lon="-2.163103">
   <ele>962.00</ele>
   <time>2014-04-06T11:10:27Z</time>
  </trkpt>
  <trkpt lat="34.031219" lon="-2.163344">
   <ele>961.00</ele>
   <time>2014-04-06T11:10:35Z</time>
  </trkpt>
  <trkpt lat="34.030886" lon="-2.163331">
   <ele>961.00</ele>
   <time>2014-04-06T11:10:37Z</time>
  </trkpt>
  <trkpt lat="34.030555" lon="-2.163244">
   <ele>961.00</ele>
   <time>2014-04-06T11:10:39Z</time>
  </trkpt>
  <trkpt lat="34.030243" lon="-2.163087">
   <ele>960.00</ele>
   <time>2014-04-06T11:10:41Z</time>
  </trkpt>
  <trkpt lat="34.029978" lon="-2.162849">
   <ele>960.00</ele>
   <time>2014-04-06T11:10:43Z</time>
  </trkpt>
  <trkpt lat="34.029778" lon="-2.162541">
   <ele>960.00</ele>
   <time>2014-04-06T11:10:45Z</time>
  </trkpt>
  <trkpt lat="34.029632" lon="-2.162186">
   <ele>959.00</ele>
   <time>2014-04-06T11:10:47Z</time>
  </trkpt>
  <trkpt lat="34.029538" lon="-2.161799">
   <ele>959.00</ele>
   <time>2014-04-06T11:10:49Z</time>
  </trkpt>
  <trkpt lat="34.029515" lon="-2.161394">
   <ele>960.00</ele>
   <time>2014-04-06T11:10:51Z</time>
  </trkpt>
  <trkpt lat="34.029563" lon="-2.160989">
   <ele>960.00</ele>
   <time>2014-04-06T11:10:53Z</time>
  </trkpt>
  <trkpt lat="34.029649" lon="-2.160581">
   <ele>960.00</ele>
   <time>2014-04-06T11:10:55Z</time>
  </trkpt>
  <trkpt lat="34.030272" lon="-2.158014">
   <ele>960.00</ele>
   <time>2014-04-06T11:11:07Z</time>
  </trkpt>
  <trkpt lat="34.030482" lon="-2.157214">
   <ele>962.00</ele>
   <time>2014-04-06T11:11:11Z</time>
  </trkpt>
  <trkpt lat="34.030601" lon="-2.156614">
   <ele>962.00</ele>
   <time>2014-04-06T11:11:14Z</time>
  </trkpt>
  <trkpt lat="34.031035" lon="-2.154225">
   <ele>961.00</ele>
   <time>2014-04-06T11:11:25Z</time>
  </trkpt>
  <trkpt lat="34.031061" lon="-2.153996">
   <ele>961.00</ele>
   <time>2014-04-06T11:11:26Z</time>
  </trkpt>
  <trkpt lat="34.031078" lon="-2.153766">
   <ele>961.00</ele>
   <time>2014-04-06T11:11:27Z</time>
  </trkpt>
  <trkpt lat="34.031082" lon="-2.153536">
   <ele>961.00</ele>
   <time>2014-04-06T11:11:28Z</time>
  </trkpt>
  <trkpt lat="34.031069" lon="-2.153309">
   <ele>961.00</ele>
   <time>2014-04-06T11:11:29Z</time>
  </trkpt>
  <trkpt lat="34.031036" lon="-2.153086">
   <ele>961.00</ele>
   <time>2014-04-06T11:11:30Z</time>
  </trkpt>
  <trkpt lat="34.030985" lon="-2.152868">
   <ele>961.00</ele>
   <time>2014-04-06T11:11:31Z</time>
  </trkpt>
  <trkpt lat="34.030920" lon="-2.152653">
   <ele>961.00</ele>
   <time>2014-04-06T11:11:32Z</time>
  </trkpt>
  <trkpt lat="34.029659" lon="-2.149079">
   <ele>961.00</ele>
   <time>2014-04-06T11:11:48Z</time>
  </trkpt>
  <trkpt lat="34.028451" lon="-2.145589">
   <ele>958.00</ele>
   <time>2014-04-06T11:12:03Z</time>
  </trkpt>
  <trkpt lat="34.027260" lon="-2.142130">
   <ele>957.00</ele>
   <time>2014-04-06T11:12:18Z</time>
  </trkpt>
  <trkpt lat="34.025964" lon="-2.138385">
   <ele>957.00</ele>
   <time>2014-04-06T11:12:34Z</time>
  </trkpt>
  <trkpt lat="34.024745" lon="-2.134820">
   <ele>959.00</ele>
   <time>2014-04-06T11:12:49Z</time>
  </trkpt>
  <trkpt lat="34.023525" lon="-2.131283">
   <ele>959.00</ele>
   <time>2014-04-06T11:13:04Z</time>
  </trkpt>
  <trkpt lat="34.022308" lon="-2.127750">
   <ele>959.00</ele>
   <time>2014-04-06T11:13:19Z</time>
  </trkpt>
  <trkpt lat="34.022130" lon="-2.127280">
   <ele>959.00</ele>
   <time>2014-04-06T11:13:21Z</time>
  </trkpt>
  <trkpt lat="34.021935" lon="-2.126817">
   <ele>959.00</ele>
   <time>2014-04-06T11:13:23Z</time>
  </trkpt>
  <trkpt lat="34.020365" lon="-2.123433">
   <ele>958.00</ele>
   <time>2014-04-06T11:13:38Z</time>
  </trkpt>
  <trkpt lat="34.018797" lon="-2.120060">
   <ele>958.00</ele>
   <time>2014-04-06T11:13:53Z</time>
  </trkpt>
  <trkpt lat="34.017231" lon="-2.116698">
   <ele>957.00</ele>
   <time>2014-04-06T11:14:08Z</time>
  </trkpt>
  <trkpt lat="34.015563" lon="-2.113100">
   <ele>957.00</ele>
   <time>2014-04-06T11:14:24Z</time>
  </trkpt>
  <trkpt lat="34.013997" lon="-2.109719">
   <ele>956.00</ele>
   <time>2014-04-06T11:14:39Z</time>
  </trkpt>
  <trkpt lat="34.012411" lon="-2.106304">
   <ele>955.00</ele>
   <time>2014-04-06T11:14:54Z</time>
  </trkpt>
  <trkpt lat="34.010716" lon="-2.102649">
   <ele>954.00</ele>
   <time>2014-04-06T11:15:10Z</time>
  </trkpt>
  <trkpt lat="34.009129" lon="-2.099217">
   <ele>953.00</ele>
   <time>2014-04-06T11:15:25Z</time>
  </trkpt>
  <trkpt lat="34.007539" lon="-2.095766">
   <ele>953.00</ele>
   <time>2014-04-06T11:15:40Z</time>
  </trkpt>
  <trkpt lat="34.005893" lon="-2.092226">
   <ele>952.00</ele>
   <time>2014-04-06T11:15:55Z</time>
  </trkpt>
  <trkpt lat="34.004790" lon="-2.089861">
   <ele>952.00</ele>
   <time>2014-04-06T11:16:05Z</time>
  </trkpt>
  <trkpt lat="34.004555" lon="-2.089419">
   <ele>952.00</ele>
   <time>2014-04-06T11:16:07Z</time>
  </trkpt>
  <trkpt lat="34.004300" lon="-2.088995">
   <ele>952.00</ele>
   <time>2014-04-06T11:16:09Z</time>
  </trkpt>
  <trkpt lat="34.002256" lon="-2.085883">
   <ele>949.00</ele>
   <time>2014-04-06T11:16:24Z</time>
  </trkpt>
  <trkpt lat="34.000057" lon="-2.082553">
   <ele>945.00</ele>
   <time>2014-04-06T11:16:40Z</time>
  </trkpt>
  <trkpt lat="33.997925" lon="-2.079338">
   <ele>941.00</ele>
   <time>2014-04-06T11:16:55Z</time>
  </trkpt>
  <trkpt lat="33.997402" lon="-2.078509">
   <ele>939.00</ele>
   <time>2014-04-06T11:16:59Z</time>
  </trkpt>
  <trkpt lat="33.996219" lon="-2.076463">
   <ele>934.00</ele>
   <time>2014-04-06T11:17:11Z</time>
  </trkpt>
  <trkpt lat="33.996102" lon="-2.076268">
   <ele>934.00</ele>
   <time>2014-04-06T11:17:15Z</time>
  </trkpt>
  <trkpt lat="33.995753" lon="-2.075665">
   <ele>931.00</ele>
   <time>2014-04-06T11:17:26Z</time>
  </trkpt>
  <trkpt lat="33.995601" lon="-2.075396">
   <ele>931.00</ele>
   <time>2014-04-06T11:17:29Z</time>
  </trkpt>
  <trkpt lat="33.994331" lon="-2.073157">
   <ele>927.00</ele>
   <time>2014-04-06T11:17:45Z</time>
  </trkpt>
  <trkpt lat="33.993065" lon="-2.070980">
   <ele>928.00</ele>
   <time>2014-04-06T11:17:59Z</time>
  </trkpt>
  <trkpt lat="33.992880" lon="-2.070744">
   <ele>928.00</ele>
   <time>2014-04-06T11:18:01Z</time>
  </trkpt>
  <trkpt lat="33.992658" lon="-2.070573">
   <ele>928.00</ele>
   <time>2014-04-06T11:18:03Z</time>
  </trkpt>
  <trkpt lat="33.992421" lon="-2.070446">
   <ele>929.00</ele>
   <time>2014-04-06T11:18:05Z</time>
  </trkpt>
  <trkpt lat="33.992173" lon="-2.070351">
   <ele>928.00</ele>
   <time>2014-04-06T11:18:07Z</time>
  </trkpt>
  <trkpt lat="33.991924" lon="-2.070292">
   <ele>928.00</ele>
   <time>2014-04-06T11:18:09Z</time>
  </trkpt>
  <trkpt lat="33.990793" lon="-2.070069">
   <ele>928.00</ele>
   <time>2014-04-06T11:18:18Z</time>
  </trkpt>
  <trkpt lat="33.990514" lon="-2.069978">
   <ele>929.00</ele>
   <time>2014-04-06T11:18:20Z</time>
  </trkpt>
  <trkpt lat="33.990247" lon="-2.069834">
   <ele>929.00</ele>
   <time>2014-04-06T11:18:22Z</time>
  </trkpt>
  <trkpt lat="33.990010" lon="-2.069635">
   <ele>929.00</ele>
   <time>2014-04-06T11:18:24Z</time>
  </trkpt>
  <trkpt lat="33.989811" lon="-2.069386">
   <ele>929.00</ele>
   <time>2014-04-06T11:18:26Z</time>
  </trkpt>
  <trkpt lat="33.989659" lon="-2.069093">
   <ele>929.00</ele>
   <time>2014-04-06T11:18:28Z</time>
  </trkpt>
  <trkpt lat="33.989560" lon="-2.068769">
   <ele>928.00</ele>
   <time>2014-04-06T11:18:30Z</time>
  </trkpt>
  <trkpt lat="33.989502" lon="-2.068428">
   <ele>927.00</ele>
   <time>2014-04-06T11:18:32Z</time>
  </trkpt>
  <trkpt lat="33.989485" lon="-2.068085">
   <ele>928.00</ele>
   <time>2014-04-06T11:18:34Z</time>
  </trkpt>
  <trkpt lat="33.989528" lon="-2.067749">
   <ele>928.00</ele>
   <time>2014-04-06T11:18:36Z</time>
  </trkpt>
  <trkpt lat="33.989636" lon="-2.067431">
   <ele>927.00</ele>
   <time>2014-04-06T11:18:38Z</time>
  </trkpt>
  <trkpt lat="33.989791" lon="-2.067136">
   <ele>926.00</ele>
   <time>2014-04-06T11:18:40Z</time>
  </trkpt>
  <trkpt lat="33.989962" lon="-2.066848">
   <ele>926.00</ele>
   <time>2014-04-06T11:18:42Z</time>
  </trkpt>
  <trkpt lat="33.991393" lon="-2.064538">
   <ele>926.00</ele>
   <time>2014-04-06T11:18:58Z</time>
  </trkpt>
  <trkpt lat="33.992475" lon="-2.062747">
   <ele>926.00</ele>
   <time>2014-04-06T11:19:10Z</time>
  </trkpt>
  <trkpt lat="33.992651" lon="-2.062403">
   <ele>926.00</ele>
   <time>2014-04-06T11:19:12Z</time>
  </trkpt>
  <trkpt lat="33.992817" lon="-2.062039">
   <ele>925.00</ele>
   <time>2014-04-06T11:19:14Z</time>
  </trkpt>
  <trkpt lat="33.993996" lon="-2.059200">
   <ele>925.00</ele>
   <time>2014-04-06T11:19:29Z</time>
  </trkpt>
  <trkpt lat="33.995299" lon="-2.056058">
   <ele>926.00</ele>
   <time>2014-04-06T11:19:45Z</time>
  </trkpt>
  <trkpt lat="33.996558" lon="-2.053113">
   <ele>926.00</ele>
   <time>2014-04-06T11:20:00Z</time>
  </trkpt>
  <trkpt lat="33.996887" lon="-2.052313">
   <ele>926.00</ele>
   <time>2014-04-06T11:20:04Z</time>
  </trkpt>
  <trkpt lat="33.998111" lon="-2.049318">
   <ele>927.00</ele>
   <time>2014-04-06T11:20:19Z</time>
  </trkpt>
  <trkpt lat="33.999465" lon="-2.046074">
   <ele>927.00</ele>
   <time>2014-04-06T11:20:35Z</time>
  </trkpt>
  <trkpt lat="34.000697" lon="-2.043126">
   <ele>929.00</ele>
   <time>2014-04-06T11:20:50Z</time>
  </trkpt>
  <trkpt lat="34.001818" lon="-2.040447">
   <ele>931.00</ele>
   <time>2014-04-06T11:21:05Z</time>
  </trkpt>
  <trkpt lat="34.002882" lon="-2.037878">
   <ele>930.00</ele>
   <time>2014-04-06T11:21:20Z</time>
  </trkpt>
  <trkpt lat="34.004056" lon="-2.035068">
   <ele>931.00</ele>
   <time>2014-04-06T11:21:36Z</time>
  </trkpt>
  <trkpt lat="34.005136" lon="-2.032463">
   <ele>932.00</ele>
   <time>2014-04-06T11:21:51Z</time>
  </trkpt>
  <trkpt lat="34.005700" lon="-2.031080">
   <ele>933.00</ele>
   <time>2014-04-06T11:22:00Z</time>
  </trkpt>
  <trkpt lat="34.005805" lon="-2.030758">
   <ele>933.00</ele>
   <time>2014-04-06T11:22:02Z</time>
  </trkpt>
  <trkpt lat="34.006248" lon="-2.029165">
   <ele>933.00</ele>
   <time>2014-04-06T11:22:12Z</time>
  </trkpt>
  <trkpt lat="34.006354" lon="-2.028787">
   <ele>933.00</ele>
   <time>2014-04-06T11:22:18Z</time>
  </trkpt>
  <trkpt lat="34.006425" lon="-2.028579">
   <ele>932.00</ele>
   <time>2014-04-06T11:22:21Z</time>
  </trkpt>
  <trkpt lat="34.006970" lon="-2.026584">
   <ele>933.00</ele>
   <time>2014-04-06T11:22:37Z</time>
  </trkpt>
  <trkpt lat="34.007547" lon="-2.024530">
   <ele>932.00</ele>
   <time>2014-04-06T11:22:52Z</time>
  </trkpt>
  <trkpt lat="34.007696" lon="-2.023961">
   <ele>932.00</ele>
   <time>2014-04-06T11:22:57Z</time>
  </trkpt>
  <trkpt lat="34.007732" lon="-2.023711">
   <ele>932.00</ele>
   <time>2014-04-06T11:23:00Z</time>
  </trkpt>
  <trkpt lat="34.007749" lon="-2.023398">
   <ele>932.00</ele>
   <time>2014-04-06T11:23:05Z</time>
  </trkpt>
  <trkpt lat="34.007889" lon="-2.023168">
   <ele>932.00</ele>
   <time>2014-04-06T11:23:09Z</time>
  </trkpt>
  <trkpt lat="34.007990" lon="-2.022960">
   <ele>932.00</ele>
   <time>2014-04-06T11:23:12Z</time>
  </trkpt>
  <trkpt lat="34.008065" lon="-2.022718">
   <ele>933.00</ele>
   <time>2014-04-06T11:23:15Z</time>
  </trkpt>
  <trkpt lat="34.008282" lon="-2.021895">
   <ele>934.00</ele>
   <time>2014-04-06T11:23:25Z</time>
  </trkpt>
  <trkpt lat="34.008612" lon="-2.020719">
   <ele>937.00</ele>
   <time>2014-04-06T11:23:40Z</time>
  </trkpt>
  <trkpt lat="34.008707" lon="-2.020365">
   <ele>939.00</ele>
   <time>2014-04-06T11:23:47Z</time>
  </trkpt>
  <trkpt lat="34.008765" lon="-2.020127">
   <ele>940.00</ele>
   <time>2014-04-06T11:23:59Z</time>
  </trkpt>
  <trkpt lat="34.008846" lon="-2.019868">
   <ele>940.00</ele>
   <time>2014-04-06T11:24:04Z</time>
  </trkpt>
  <trkpt lat="34.008983" lon="-2.019370">
   <ele>940.00</ele>
   <time>2014-04-06T11:24:11Z</time>
  </trkpt>
  <trkpt lat="34.009027" lon="-2.019134">
   <ele>940.00</ele>
   <time>2014-04-06T11:24:14Z</time>
  </trkpt>
  <trkpt lat="34.009080" lon="-2.018821">
   <ele>940.00</ele>
   <time>2014-04-06T11:24:18Z</time>
  </trkpt>
  <trkpt lat="34.009105" lon="-2.018574">
   <ele>940.00</ele>
   <time>2014-04-06T11:24:21Z</time>
  </trkpt>
  <trkpt lat="34.009120" lon="-2.018312">
   <ele>941.00</ele>
   <time>2014-04-06T11:24:24Z</time>
  </trkpt>
  <trkpt lat="34.009122" lon="-2.017966">
   <ele>942.00</ele>
   <time>2014-04-06T11:24:28Z</time>
  </trkpt>
  <trkpt lat="34.009108" lon="-2.017476">
   <ele>943.00</ele>
   <time>2014-04-06T11:24:34Z</time>
  </trkpt>
  <trkpt lat="34.009081" lon="-2.017237">
   <ele>943.00</ele>
   <time>2014-04-06T11:24:37Z</time>
  </trkpt>
  <trkpt lat="34.008994" lon="-2.016773">
   <ele>945.00</ele>
   <time>2014-04-06T11:24:43Z</time>
  </trkpt>
  <trkpt lat="34.008896" lon="-2.016307">
   <ele>947.00</ele>
   <time>2014-04-06T11:24:51Z</time>
  </trkpt>
  <trkpt lat="34.008830" lon="-2.016088">
   <ele>948.00</ele>
   <time>2014-04-06T11:24:58Z</time>
  </trkpt>
  <trkpt lat="34.008927" lon="-2.016133">
   <ele>948.00</ele>
   <time>2014-04-06T11:25:07Z</time>
  </trkpt>
  <trkpt lat="34.008954" lon="-2.016382">
   <ele>947.00</ele>
   <time>2014-04-06T11:25:12Z</time>
  </trkpt>
  <trkpt lat="34.009015" lon="-2.016729">
   <ele>946.00</ele>
   <time>2014-04-06T11:25:18Z</time>
  </trkpt>
  <trkpt lat="34.009058" lon="-2.016960">
   <ele>946.00</ele>
   <time>2014-04-06T11:25:22Z</time>
  </trkpt>
  <trkpt lat="34.009104" lon="-2.017228">
   <ele>945.00</ele>
   <time>2014-04-06T11:25:29Z</time>
  </trkpt>
  <trkpt lat="34.009069" lon="-2.017487">
   <ele>944.00</ele>
   <time>2014-04-06T11:25:36Z</time>
  </trkpt>
  <trkpt lat="34.009079" lon="-2.017559">
   <ele>944.00</ele>
   <time>2014-04-06T11:25:48Z</time>
  </trkpt>
 </trkseg>
 <trkseg>
  <trkpt lat="34.007947" lon="-2.023283">
   <ele>934.00</ele>
   <time>2014-04-06T11:28:41Z</time>
  </trkpt>
  <trkpt lat="34.008034" lon="-2.023517">
   <ele>934.00</ele>
   <time>2014-04-06T11:28:45Z</time>
  </trkpt>
  <trkpt lat="34.008206" lon="-2.023631">
   <ele>934.00</ele>
   <time>2014-04-06T11:28:48Z</time>
  </trkpt>
  <trkpt lat="34.008431" lon="-2.023724">
   <ele>933.00</ele>
   <time>2014-04-06T11:28:51Z</time>
  </trkpt>
  <trkpt lat="34.009919" lon="-2.024318">
   <ele>932.00</ele>
   <time>2014-04-06T11:29:07Z</time>
  </trkpt>
  <trkpt lat="34.011585" lon="-2.024984">
   <ele>933.00</ele>
   <time>2014-04-06T11:29:22Z</time>
  </trkpt>
  <trkpt lat="34.012552" lon="-2.025355">
   <ele>934.00</ele>
   <time>2014-04-06T11:29:30Z</time>
  </trkpt>
  <trkpt lat="34.012796" lon="-2.025427">
   <ele>935.00</ele>
   <time>2014-04-06T11:29:32Z</time>
  </trkpt>
  <trkpt lat="34.013162" lon="-2.025534">
   <ele>936.00</ele>
   <time>2014-04-06T11:29:35Z</time>
  </trkpt>
  <trkpt lat="34.014822" lon="-2.025918">
   <ele>935.00</ele>
   <time>2014-04-06T11:29:51Z</time>
  </trkpt>
  <trkpt lat="34.015980" lon="-2.026190">
   <ele>934.00</ele>
   <time>2014-04-06T11:30:05Z</time>
  </trkpt>
  <trkpt lat="34.016370" lon="-2.026276">
   <ele>934.00</ele>
   <time>2014-04-06T11:30:10Z</time>
  </trkpt>
  <trkpt lat="34.016594" lon="-2.026335">
   <ele>934.00</ele>
   <time>2014-04-06T11:30:13Z</time>
  </trkpt>
  <trkpt lat="34.016798" lon="-2.026389">
   <ele>934.00</ele>
   <time>2014-04-06T11:30:16Z</time>
  </trkpt>
  <trkpt lat="34.017655" lon="-2.026576">
   <ele>936.00</ele>
   <time>2014-04-06T11:30:31Z</time>
  </trkpt>
  <trkpt lat="34.018736" lon="-2.026831">
   <ele>935.00</ele>
   <time>2014-04-06T11:30:47Z</time>
  </trkpt>
  <trkpt lat="34.019085" lon="-2.026912">
   <ele>935.00</ele>
   <time>2014-04-06T11:31:03Z</time>
  </trkpt>
  <trkpt lat="34.019483" lon="-2.027022">
   <ele>935.00</ele>
   <time>2014-04-06T11:31:09Z</time>
  </trkpt>
  <trkpt lat="34.019692" lon="-2.027100">
   <ele>934.00</ele>
   <time>2014-04-06T11:31:12Z</time>
  </trkpt>
  <trkpt lat="34.019902" lon="-2.027196">
   <ele>934.00</ele>
   <time>2014-04-06T11:31:15Z</time>
  </trkpt>
  <trkpt lat="34.020108" lon="-2.027311">
   <ele>934.00</ele>
   <time>2014-04-06T11:31:18Z</time>
  </trkpt>
  <trkpt lat="34.020307" lon="-2.027430">
   <ele>934.00</ele>
   <time>2014-04-06T11:31:21Z</time>
  </trkpt>
  <trkpt lat="34.020709" lon="-2.027632">
   <ele>934.00</ele>
   <time>2014-04-06T11:31:27Z</time>
  </trkpt>
  <trkpt lat="34.021018" lon="-2.027811">
   <ele>934.00</ele>
   <time>2014-04-06T11:31:32Z</time>
  </trkpt>
  <trkpt lat="34.021204" lon="-2.027909">
   <ele>934.00</ele>
   <time>2014-04-06T11:31:35Z</time>
  </trkpt>
  <trkpt lat="34.021456" lon="-2.028052">
   <ele>934.00</ele>
   <time>2014-04-06T11:31:39Z</time>
  </trkpt>
  <trkpt lat="34.022040" lon="-2.028349">
   <ele>934.00</ele>
   <time>2014-04-06T11:31:47Z</time>
  </trkpt>
  <trkpt lat="34.022338" lon="-2.028513">
   <ele>934.00</ele>
   <time>2014-04-06T11:31:51Z</time>
  </trkpt>
  <trkpt lat="34.023020" lon="-2.028880">
   <ele>933.00</ele>
   <time>2014-04-06T11:31:59Z</time>
  </trkpt>
  <trkpt lat="34.023620" lon="-2.029223">
   <ele>933.00</ele>
   <time>2014-04-06T11:32:06Z</time>
  </trkpt>
  <trkpt lat="34.024708" lon="-2.029784">
   <ele>933.00</ele>
   <time>2014-04-06T11:32:18Z</time>
  </trkpt>
  <trkpt lat="34.026089" lon="-2.030556">
   <ele>932.00</ele>
   <time>2014-04-06T11:32:33Z</time>
  </trkpt>
  <trkpt lat="34.027758" lon="-2.031491">
   <ele>929.00</ele>
   <time>2014-04-06T11:32:49Z</time>
  </trkpt>
  <trkpt lat="34.029260" lon="-2.032320">
   <ele>928.00</ele>
   <time>2014-04-06T11:33:04Z</time>
  </trkpt>
  <trkpt lat="34.030722" lon="-2.033131">
   <ele>927.00</ele>
   <time>2014-04-06T11:33:20Z</time>
  </trkpt>
  <trkpt lat="34.031365" lon="-2.033484">
   <ele>927.00</ele>
   <time>2014-04-06T11:33:35Z</time>
  </trkpt>
  <trkpt lat="34.031845" lon="-2.033740">
   <ele>926.00</ele>
   <time>2014-04-06T11:33:43Z</time>
  </trkpt>
  <trkpt lat="34.032448" lon="-2.034082">
   <ele>926.00</ele>
   <time>2014-04-06T11:33:50Z</time>
  </trkpt>
  <trkpt lat="34.032763" lon="-2.034258">
   <ele>926.00</ele>
   <time>2014-04-06T11:33:53Z</time>
  </trkpt>
  <trkpt lat="34.032984" lon="-2.034402">
   <ele>926.00</ele>
   <time>2014-04-06T11:33:55Z</time>
  </trkpt>
  <trkpt lat="34.033195" lon="-2.034560">
   <ele>926.00</ele>
   <time>2014-04-06T11:33:57Z</time>
  </trkpt>
  <trkpt lat="34.033403" lon="-2.034730">
   <ele>926.00</ele>
   <time>2014-04-06T11:33:59Z</time>
  </trkpt>
  <trkpt lat="34.035156" lon="-2.036263">
   <ele>927.00</ele>
   <time>2014-04-06T11:34:15Z</time>
  </trkpt>
  <trkpt lat="34.036961" lon="-2.037833">
   <ele>926.00</ele>
   <time>2014-04-06T11:34:31Z</time>
  </trkpt>
  <trkpt lat="34.037285" lon="-2.038099">
   <ele>926.00</ele>
   <time>2014-04-06T11:34:34Z</time>
  </trkpt>
  <trkpt lat="34.037512" lon="-2.038268">
   <ele>926.00</ele>
   <time>2014-04-06T11:34:36Z</time>
  </trkpt>
  <trkpt lat="34.038087" lon="-2.038654">
   <ele>926.00</ele>
   <time>2014-04-06T11:34:41Z</time>
  </trkpt>
  <trkpt lat="34.038769" lon="-2.039099">
   <ele>926.00</ele>
   <time>2014-04-06T11:34:47Z</time>
  </trkpt>
  <trkpt lat="34.039060" lon="-2.039294">
   <ele>926.00</ele>
   <time>2014-04-06T11:34:49Z</time>
  </trkpt>
  <trkpt lat="34.039371" lon="-2.039476">
   <ele>926.00</ele>
   <time>2014-04-06T11:34:51Z</time>
  </trkpt>
  <trkpt lat="34.041612" lon="-2.040841">
   <ele>923.00</ele>
   <time>2014-04-06T11:35:05Z</time>
  </trkpt>
  <trkpt lat="34.044207" lon="-2.042443">
   <ele>921.00</ele>
   <time>2014-04-06T11:35:21Z</time>
  </trkpt>
  <trkpt lat="34.046724" lon="-2.043994">
   <ele>920.00</ele>
   <time>2014-04-06T11:35:36Z</time>
  </trkpt>
  <trkpt lat="34.049279" lon="-2.045592">
   <ele>920.00</ele>
   <time>2014-04-06T11:35:52Z</time>
  </trkpt>
  <trkpt lat="34.051060" lon="-2.046685">
   <ele>921.00</ele>
   <time>2014-04-06T11:36:03Z</time>
  </trkpt>
  <trkpt lat="34.052541" lon="-2.047590">
   <ele>923.00</ele>
   <time>2014-04-06T11:36:13Z</time>
  </trkpt>
  <trkpt lat="34.053306" lon="-2.048053">
   <ele>923.00</ele>
   <time>2014-04-06T11:36:19Z</time>
  </trkpt>
  <trkpt lat="34.053567" lon="-2.048164">
   <ele>923.00</ele>
   <time>2014-04-06T11:36:21Z</time>
  </trkpt>
  <trkpt lat="34.053836" lon="-2.048240">
   <ele>923.00</ele>
   <time>2014-04-06T11:36:23Z</time>
  </trkpt>
  <trkpt lat="34.054116" lon="-2.048278">
   <ele>922.00</ele>
   <time>2014-04-06T11:36:25Z</time>
  </trkpt>
  <trkpt lat="34.054404" lon="-2.048291">
   <ele>922.00</ele>
   <time>2014-04-06T11:36:27Z</time>
  </trkpt>
  <trkpt lat="34.057116" lon="-2.048379">
   <ele>917.00</ele>
   <time>2014-04-06T11:36:43Z</time>
  </trkpt>
  <trkpt lat="34.060111" lon="-2.048473">
   <ele>914.00</ele>
   <time>2014-04-06T11:36:59Z</time>
  </trkpt>
  <trkpt lat="34.062860" lon="-2.048565">
   <ele>912.00</ele>
   <time>2014-04-06T11:37:14Z</time>
  </trkpt>
  <trkpt lat="34.064364" lon="-2.048612">
   <ele>912.00</ele>
   <time>2014-04-06T11:37:24Z</time>
  </trkpt>
  <trkpt lat="34.064497" lon="-2.048754">
   <ele>912.00</ele>
   <time>2014-04-06T11:37:27Z</time>
  </trkpt>
  <trkpt lat="34.064516" lon="-2.049020">
   <ele>912.00</ele>
   <time>2014-04-06T11:37:30Z</time>
  </trkpt>
  <trkpt lat="34.064537" lon="-2.049581">
   <ele>913.00</ele>
   <time>2014-04-06T11:37:35Z</time>
  </trkpt>
  <trkpt lat="34.064548" lon="-2.049983">
   <ele>913.00</ele>
   <time>2014-04-06T11:37:38Z</time>
  </trkpt>
  <trkpt lat="34.064677" lon="-2.052207">
   <ele>915.00</ele>
   <time>2014-04-06T11:37:54Z</time>
  </trkpt>
  <trkpt lat="34.064775" lon="-2.053897">
   <ele>915.00</ele>
   <time>2014-04-06T11:38:07Z</time>
  </trkpt>
  <trkpt lat="34.064819" lon="-2.054154">
   <ele>916.00</ele>
   <time>2014-04-06T11:38:09Z</time>
  </trkpt>
  <trkpt lat="34.064898" lon="-2.054408">
   <ele>916.00</ele>
   <time>2014-04-06T11:38:11Z</time>
  </trkpt>
  <trkpt lat="34.065003" lon="-2.054656">
   <ele>916.00</ele>
   <time>2014-04-06T11:38:13Z</time>
  </trkpt>
  <trkpt lat="34.065766" lon="-2.056330">
   <ele>914.00</ele>
   <time>2014-04-06T11:38:29Z</time>
  </trkpt>
  <trkpt lat="34.065869" lon="-2.056539">
   <ele>914.00</ele>
   <time>2014-04-06T11:38:31Z</time>
  </trkpt>
  <trkpt lat="34.065987" lon="-2.056751">
   <ele>914.00</ele>
   <time>2014-04-06T11:38:33Z</time>
  </trkpt>
  <trkpt lat="34.066180" lon="-2.057066">
   <ele>914.00</ele>
   <time>2014-04-06T11:38:36Z</time>
  </trkpt>
  <trkpt lat="34.066647" lon="-2.057791">
   <ele>913.00</ele>
   <time>2014-04-06T11:38:43Z</time>
  </trkpt>
  <trkpt lat="34.066914" lon="-2.058161">
   <ele>912.00</ele>
   <time>2014-04-06T11:38:47Z</time>
  </trkpt>
  <trkpt lat="34.067321" lon="-2.058709">
   <ele>912.00</ele>
   <time>2014-04-06T11:38:55Z</time>
  </trkpt>
  <trkpt lat="34.067226" lon="-2.058901">
   <ele>910.00</ele>
   <time>2014-04-06T11:39:01Z</time>
  </trkpt>
  <trkpt lat="34.067117" lon="-2.058840">
   <ele>910.00</ele>
   <time>2014-04-06T11:39:07Z</time>
  </trkpt>
  <trkpt lat="34.067291" lon="-2.058768">
   <ele>911.00</ele>
   <time>2014-04-06T11:39:15Z</time>
  </trkpt>
  <trkpt lat="34.067215" lon="-2.058575">
   <ele>911.00</ele>
   <time>2014-04-06T11:39:20Z</time>
  </trkpt>
  <trkpt lat="34.067058" lon="-2.058393">
   <ele>911.00</ele>
   <time>2014-04-06T11:39:24Z</time>
  </trkpt>
  <trkpt lat="34.066799" lon="-2.058043">
   <ele>911.00</ele>
   <time>2014-04-06T11:39:29Z</time>
  </trkpt>
  <trkpt lat="34.066450" lon="-2.057547">
   <ele>911.00</ele>
   <time>2014-04-06T11:39:35Z</time>
  </trkpt>
  <trkpt lat="34.065975" lon="-2.056797">
   <ele>911.00</ele>
   <time>2014-04-06T11:39:42Z</time>
  </trkpt>
  <trkpt lat="34.065849" lon="-2.056572">
   <ele>912.00</ele>
   <time>2014-04-06T11:39:44Z</time>
  </trkpt>
  <trkpt lat="34.065730" lon="-2.056339">
   <ele>912.00</ele>
   <time>2014-04-06T11:39:46Z</time>
  </trkpt>
  <trkpt lat="34.065372" lon="-2.055560">
   <ele>912.00</ele>
   <time>2014-04-06T11:39:52Z</time>
  </trkpt>
  <trkpt lat="34.064844" lon="-2.054375">
   <ele>912.00</ele>
   <time>2014-04-06T11:40:01Z</time>
  </trkpt>
  <trkpt lat="34.064754" lon="-2.054101">
   <ele>911.00</ele>
   <time>2014-04-06T11:40:03Z</time>
  </trkpt>
  <trkpt lat="34.064701" lon="-2.053814">
   <ele>911.00</ele>
   <time>2014-04-06T11:40:05Z</time>
  </trkpt>
  <trkpt lat="34.064674" lon="-2.053522">
   <ele>910.00</ele>
   <time>2014-04-06T11:40:07Z</time>
  </trkpt>
  <trkpt lat="34.064522" lon="-2.050843">
   <ele>912.00</ele>
   <time>2014-04-06T11:40:23Z</time>
  </trkpt>
  <trkpt lat="34.064400" lon="-2.048814">
   <ele>913.00</ele>
   <time>2014-04-06T11:40:37Z</time>
  </trkpt>
  <trkpt lat="34.064417" lon="-2.048585">
   <ele>914.00</ele>
   <time>2014-04-06T11:40:43Z</time>
  </trkpt>
  <trkpt lat="34.064646" lon="-2.048565">
   <ele>913.00</ele>
   <time>2014-04-06T11:40:48Z</time>
  </trkpt>
  <trkpt lat="34.066304" lon="-2.048656">
   <ele>911.00</ele>
   <time>2014-04-06T11:41:03Z</time>
  </trkpt>
  <trkpt lat="34.069144" lon="-2.048770">
   <ele>909.00</ele>
   <time>2014-04-06T11:41:19Z</time>
  </trkpt>
  <trkpt lat="34.072079" lon="-2.048880">
   <ele>906.00</ele>
   <time>2014-04-06T11:41:34Z</time>
  </trkpt>
  <trkpt lat="34.073384" lon="-2.048918">
   <ele>908.00</ele>
   <time>2014-04-06T11:41:41Z</time>
  </trkpt>
  <trkpt lat="34.073736" lon="-2.048887">
   <ele>909.00</ele>
   <time>2014-04-06T11:41:43Z</time>
  </trkpt>
  <trkpt lat="34.074089" lon="-2.048811">
   <ele>909.00</ele>
   <time>2014-04-06T11:41:45Z</time>
  </trkpt>
  <trkpt lat="34.074267" lon="-2.048755">
   <ele>909.00</ele>
   <time>2014-04-06T11:41:46Z</time>
  </trkpt>
  <trkpt lat="34.077282" lon="-2.047762">
   <ele>906.00</ele>
   <time>2014-04-06T11:42:02Z</time>
  </trkpt>
  <trkpt lat="34.080245" lon="-2.046795">
   <ele>906.00</ele>
   <time>2014-04-06T11:42:17Z</time>
  </trkpt>
  <trkpt lat="34.082830" lon="-2.045930">
   <ele>908.00</ele>
   <time>2014-04-06T11:42:30Z</time>
  </trkpt>
  <trkpt lat="34.083025" lon="-2.045839">
   <ele>908.00</ele>
   <time>2014-04-06T11:42:31Z</time>
  </trkpt>
  <trkpt lat="34.083215" lon="-2.045737">
   <ele>908.00</ele>
   <time>2014-04-06T11:42:32Z</time>
  </trkpt>
  <trkpt lat="34.083400" lon="-2.045622">
   <ele>908.00</ele>
   <time>2014-04-06T11:42:33Z</time>
  </trkpt>
  <trkpt lat="34.083580" lon="-2.045496">
   <ele>909.00</ele>
   <time>2014-04-06T11:42:34Z</time>
  </trkpt>
  <trkpt lat="34.083926" lon="-2.045223">
   <ele>909.00</ele>
   <time>2014-04-06T11:42:36Z</time>
  </trkpt>
  <trkpt lat="34.085532" lon="-2.043903">
   <ele>910.00</ele>
   <time>2014-04-06T11:42:46Z</time>
  </trkpt>
  <trkpt lat="34.085694" lon="-2.043791">
   <ele>910.00</ele>
   <time>2014-04-06T11:42:47Z</time>
  </trkpt>
  <trkpt lat="34.085865" lon="-2.043696">
   <ele>910.00</ele>
   <time>2014-04-06T11:42:48Z</time>
  </trkpt>
  <trkpt lat="34.086043" lon="-2.043619">
   <ele>910.00</ele>
   <time>2014-04-06T11:42:49Z</time>
  </trkpt>
  <trkpt lat="34.086226" lon="-2.043560">
   <ele>910.00</ele>
   <time>2014-04-06T11:42:50Z</time>
  </trkpt>
  <trkpt lat="34.086412" lon="-2.043517">
   <ele>910.00</ele>
   <time>2014-04-06T11:42:51Z</time>
  </trkpt>
  <trkpt lat="34.086599" lon="-2.043487">
   <ele>910.00</ele>
   <time>2014-04-06T11:42:52Z</time>
  </trkpt>
  <trkpt lat="34.086971" lon="-2.043451">
   <ele>910.00</ele>
   <time>2014-04-06T11:42:54Z</time>
  </trkpt>
  <trkpt lat="34.089831" lon="-2.043241">
   <ele>911.00</ele>
   <time>2014-04-06T11:43:09Z</time>
  </trkpt>
  <trkpt lat="34.091516" lon="-2.043133">
   <ele>911.00</ele>
   <time>2014-04-06T11:43:18Z</time>
  </trkpt>
  <trkpt lat="34.091891" lon="-2.043135">
   <ele>911.00</ele>
   <time>2014-04-06T11:43:20Z</time>
  </trkpt>
  <trkpt lat="34.092272" lon="-2.043157">
   <ele>911.00</ele>
   <time>2014-04-06T11:43:22Z</time>
  </trkpt>
  <trkpt lat="34.095155" lon="-2.043394">
   <ele>910.00</ele>
   <time>2014-04-06T11:43:37Z</time>
  </trkpt>
  <trkpt lat="34.096637" lon="-2.043497">
   <ele>908.00</ele>
   <time>2014-04-06T11:43:45Z</time>
  </trkpt>
  <trkpt lat="34.099387" lon="-2.043606">
   <ele>908.00</ele>
   <time>2014-04-06T11:44:00Z</time>
  </trkpt>
  <trkpt lat="34.099750" lon="-2.043649">
   <ele>908.00</ele>
   <time>2014-04-06T11:44:02Z</time>
  </trkpt>
  <trkpt lat="34.101359" lon="-2.043897">
   <ele>910.00</ele>
   <time>2014-04-06T11:44:11Z</time>
  </trkpt>
  <trkpt lat="34.104285" lon="-2.044136">
   <ele>911.00</ele>
   <time>2014-04-06T11:44:27Z</time>
  </trkpt>
  <trkpt lat="34.106875" lon="-2.044348">
   <ele>913.00</ele>
   <time>2014-04-06T11:44:42Z</time>
  </trkpt>
  <trkpt lat="34.109309" lon="-2.044542">
   <ele>913.00</ele>
   <time>2014-04-06T11:44:58Z</time>
  </trkpt>
  <trkpt lat="34.111706" lon="-2.044734">
   <ele>914.00</ele>
   <time>2014-04-06T11:45:13Z</time>
  </trkpt>
  <trkpt lat="34.114371" lon="-2.044955">
   <ele>915.00</ele>
   <time>2014-04-06T11:45:29Z</time>
  </trkpt>
  <trkpt lat="34.116984" lon="-2.045174">
   <ele>916.00</ele>
   <time>2014-04-06T11:45:44Z</time>
  </trkpt>
  <trkpt lat="34.119890" lon="-2.045421">
   <ele>916.00</ele>
   <time>2014-04-06T11:46:00Z</time>
  </trkpt>
  <trkpt lat="34.120640" lon="-2.045516">
   <ele>917.00</ele>
   <time>2014-04-06T11:46:04Z</time>
  </trkpt>
  <trkpt lat="34.121005" lon="-2.045592">
   <ele>918.00</ele>
   <time>2014-04-06T11:46:06Z</time>
  </trkpt>
  <trkpt lat="34.121183" lon="-2.045643">
   <ele>918.00</ele>
   <time>2014-04-06T11:46:07Z</time>
  </trkpt>
  <trkpt lat="34.121359" lon="-2.045706">
   <ele>918.00</ele>
   <time>2014-04-06T11:46:08Z</time>
  </trkpt>
  <trkpt lat="34.121532" lon="-2.045782">
   <ele>918.00</ele>
   <time>2014-04-06T11:46:09Z</time>
  </trkpt>
  <trkpt lat="34.121701" lon="-2.045875">
   <ele>919.00</ele>
   <time>2014-04-06T11:46:10Z</time>
  </trkpt>
  <trkpt lat="34.121865" lon="-2.045988">
   <ele>918.00</ele>
   <time>2014-04-06T11:46:11Z</time>
  </trkpt>
  <trkpt lat="34.122022" lon="-2.046117">
   <ele>918.00</ele>
   <time>2014-04-06T11:46:12Z</time>
  </trkpt>
  <trkpt lat="34.122175" lon="-2.046259">
   <ele>918.00</ele>
   <time>2014-04-06T11:46:13Z</time>
  </trkpt>
  <trkpt lat="34.122321" lon="-2.046413">
   <ele>918.00</ele>
   <time>2014-04-06T11:46:14Z</time>
  </trkpt>
  <trkpt lat="34.122742" lon="-2.046905">
   <ele>918.00</ele>
   <time>2014-04-06T11:46:17Z</time>
  </trkpt>
  <trkpt lat="34.124836" lon="-2.049445">
   <ele>917.00</ele>
   <time>2014-04-06T11:46:32Z</time>
  </trkpt>
  <trkpt lat="34.125379" lon="-2.050075">
   <ele>916.00</ele>
   <time>2014-04-06T11:46:36Z</time>
  </trkpt>
  <trkpt lat="34.125527" lon="-2.050219">
   <ele>916.00</ele>
   <time>2014-04-06T11:46:37Z</time>
  </trkpt>
  <trkpt lat="34.125683" lon="-2.050353">
   <ele>916.00</ele>
   <time>2014-04-06T11:46:38Z</time>
  </trkpt>
  <trkpt lat="34.126010" lon="-2.050599">
   <ele>915.00</ele>
   <time>2014-04-06T11:46:40Z</time>
  </trkpt>
  <trkpt lat="34.126180" lon="-2.050711">
   <ele>915.00</ele>
   <time>2014-04-06T11:46:41Z</time>
  </trkpt>
  <trkpt lat="34.126353" lon="-2.050813">
   <ele>915.00</ele>
   <time>2014-04-06T11:46:42Z</time>
  </trkpt>
  <trkpt lat="34.126529" lon="-2.050905">
   <ele>915.00</ele>
   <time>2014-04-06T11:46:43Z</time>
  </trkpt>
  <trkpt lat="34.127259" lon="-2.051236">
   <ele>915.00</ele>
   <time>2014-04-06T11:46:47Z</time>
  </trkpt>
  <trkpt lat="34.130100" lon="-2.052480">
   <ele>915.00</ele>
   <time>2014-04-06T11:47:02Z</time>
  </trkpt>
  <trkpt lat="34.133147" lon="-2.053829">
   <ele>916.00</ele>
   <time>2014-04-06T11:47:18Z</time>
  </trkpt>
  <trkpt lat="34.135717" lon="-2.054950">
   <ele>919.00</ele>
   <time>2014-04-06T11:47:33Z</time>
  </trkpt>
  <trkpt lat="34.136026" lon="-2.055063">
   <ele>919.00</ele>
   <time>2014-04-06T11:47:35Z</time>
  </trkpt>
  <trkpt lat="34.136338" lon="-2.055153">
   <ele>919.00</ele>
   <time>2014-04-06T11:47:37Z</time>
  </trkpt>
  <trkpt lat="34.136664" lon="-2.055218">
   <ele>919.00</ele>
   <time>2014-04-06T11:47:39Z</time>
  </trkpt>
  <trkpt lat="34.136999" lon="-2.055264">
   <ele>919.00</ele>
   <time>2014-04-06T11:47:41Z</time>
  </trkpt>
  <trkpt lat="34.139557" lon="-2.055621">
   <ele>919.00</ele>
   <time>2014-04-06T11:47:57Z</time>
  </trkpt>
  <trkpt lat="34.141839" lon="-2.055945">
   <ele>919.00</ele>
   <time>2014-04-06T11:48:12Z</time>
  </trkpt>
  <trkpt lat="34.143103" lon="-2.056130">
   <ele>918.00</ele>
   <time>2014-04-06T11:48:21Z</time>
  </trkpt>
  <trkpt lat="34.143196" lon="-2.056290">
   <ele>918.00</ele>
   <time>2014-04-06T11:48:26Z</time>
  </trkpt>
  <trkpt lat="34.143134" lon="-2.056512">
   <ele>918.00</ele>
   <time>2014-04-06T11:48:32Z</time>
  </trkpt>
  <trkpt lat="34.143053" lon="-2.056781">
   <ele>918.00</ele>
   <time>2014-04-06T11:48:36Z</time>
  </trkpt>
  <trkpt lat="34.142973" lon="-2.057014">
   <ele>919.00</ele>
   <time>2014-04-06T11:48:39Z</time>
  </trkpt>
  <trkpt lat="34.142868" lon="-2.057252">
   <ele>918.00</ele>
   <time>2014-04-06T11:48:42Z</time>
  </trkpt>
  <trkpt lat="34.142533" lon="-2.057913">
   <ele>918.00</ele>
   <time>2014-04-06T11:48:49Z</time>
  </trkpt>
  <trkpt lat="34.142268" lon="-2.058422">
   <ele>917.00</ele>
   <time>2014-04-06T11:48:54Z</time>
  </trkpt>
  <trkpt lat="34.142056" lon="-2.058867">
   <ele>917.00</ele>
   <time>2014-04-06T11:48:58Z</time>
  </trkpt>
  <trkpt lat="34.141931" lon="-2.059094">
   <ele>916.00</ele>
   <time>2014-04-06T11:49:00Z</time>
  </trkpt>
  <trkpt lat="34.141790" lon="-2.059311">
   <ele>916.00</ele>
   <time>2014-04-06T11:49:02Z</time>
  </trkpt>
  <trkpt lat="34.141638" lon="-2.059518">
   <ele>916.00</ele>
   <time>2014-04-06T11:49:04Z</time>
  </trkpt>
  <trkpt lat="34.141480" lon="-2.059714">
   <ele>916.00</ele>
   <time>2014-04-06T11:49:06Z</time>
  </trkpt>
  <trkpt lat="34.141328" lon="-2.059892">
   <ele>916.00</ele>
   <time>2014-04-06T11:49:08Z</time>
  </trkpt>
  <trkpt lat="34.141171" lon="-2.060045">
   <ele>916.00</ele>
   <time>2014-04-06T11:49:10Z</time>
  </trkpt>
  <trkpt lat="34.141005" lon="-2.060168">
   <ele>915.00</ele>
   <time>2014-04-06T11:49:12Z</time>
  </trkpt>
  <trkpt lat="34.140840" lon="-2.060289">
   <ele>915.00</ele>
   <time>2014-04-06T11:49:14Z</time>
  </trkpt>
  <trkpt lat="34.140695" lon="-2.060449">
   <ele>915.00</ele>
   <time>2014-04-06T11:49:16Z</time>
  </trkpt>
  <trkpt lat="34.140470" lon="-2.060739">
   <ele>915.00</ele>
   <time>2014-04-06T11:49:19Z</time>
  </trkpt>
  <trkpt lat="34.140293" lon="-2.060919">
   <ele>915.00</ele>
   <time>2014-04-06T11:49:21Z</time>
  </trkpt>
  <trkpt lat="34.138928" lon="-2.062183">
   <ele>914.00</ele>
   <time>2014-04-06T11:49:35Z</time>
  </trkpt>
  <trkpt lat="34.138742" lon="-2.062341">
   <ele>914.00</ele>
   <time>2014-04-06T11:49:37Z</time>
  </trkpt>
  <trkpt lat="34.138404" lon="-2.062611">
   <ele>913.00</ele>
   <time>2014-04-06T11:49:41Z</time>
  </trkpt>
  <trkpt lat="34.137348" lon="-2.063568">
   <ele>914.00</ele>
   <time>2014-04-06T11:49:57Z</time>
  </trkpt>
  <trkpt lat="34.137161" lon="-2.063783">
   <ele>914.00</ele>
   <time>2014-04-06T11:50:00Z</time>
  </trkpt>
  <trkpt lat="34.136989" lon="-2.063974">
   <ele>914.00</ele>
   <time>2014-04-06T11:50:03Z</time>
  </trkpt>
  <trkpt lat="34.136807" lon="-2.064165">
   <ele>914.00</ele>
   <time>2014-04-06T11:50:06Z</time>
  </trkpt>
  <trkpt lat="34.136639" lon="-2.064401">
   <ele>914.00</ele>
   <time>2014-04-06T11:50:09Z</time>
  </trkpt>
  <trkpt lat="34.136528" lon="-2.064575">
   <ele>914.00</ele>
   <time>2014-04-06T11:50:11Z</time>
  </trkpt>
  <trkpt lat="34.136397" lon="-2.064754">
   <ele>914.00</ele>
   <time>2014-04-06T11:50:13Z</time>
  </trkpt>
  <trkpt lat="34.136248" lon="-2.064937">
   <ele>914.00</ele>
   <time>2014-04-06T11:50:15Z</time>
  </trkpt>
  <trkpt lat="34.136091" lon="-2.065119">
   <ele>914.00</ele>
   <time>2014-04-06T11:50:17Z</time>
  </trkpt>
  <trkpt lat="34.135518" lon="-2.065742">
   <ele>913.00</ele>
   <time>2014-04-06T11:50:24Z</time>
  </trkpt>
  <trkpt lat="34.135349" lon="-2.065887">
   <ele>913.00</ele>
   <time>2014-04-06T11:50:26Z</time>
  </trkpt>
  <trkpt lat="34.135181" lon="-2.066034">
   <ele>913.00</ele>
   <time>2014-04-06T11:50:28Z</time>
  </trkpt>
  <trkpt lat="34.135017" lon="-2.066209">
   <ele>913.00</ele>
   <time>2014-04-06T11:50:30Z</time>
  </trkpt>
  <trkpt lat="34.134518" lon="-2.066758">
   <ele>913.00</ele>
   <time>2014-04-06T11:50:36Z</time>
  </trkpt>
  <trkpt lat="34.134343" lon="-2.066904">
   <ele>912.00</ele>
   <time>2014-04-06T11:50:38Z</time>
  </trkpt>
  <trkpt lat="34.134189" lon="-2.067071">
   <ele>912.00</ele>
   <time>2014-04-06T11:50:40Z</time>
  </trkpt>
  <trkpt lat="34.133815" lon="-2.067539">
   <ele>912.00</ele>
   <time>2014-04-06T11:50:45Z</time>
  </trkpt>
  <trkpt lat="34.133491" lon="-2.067924">
   <ele>911.00</ele>
   <time>2014-04-06T11:50:49Z</time>
  </trkpt>
  <trkpt lat="34.133322" lon="-2.068126">
   <ele>911.00</ele>
   <time>2014-04-06T11:50:51Z</time>
  </trkpt>
  <trkpt lat="34.133140" lon="-2.068320">
   <ele>911.00</ele>
   <time>2014-04-06T11:50:53Z</time>
  </trkpt>
  <trkpt lat="34.132957" lon="-2.068501">
   <ele>911.00</ele>
   <time>2014-04-06T11:50:55Z</time>
  </trkpt>
  <trkpt lat="34.132774" lon="-2.068676">
   <ele>910.00</ele>
   <time>2014-04-06T11:50:57Z</time>
  </trkpt>
  <trkpt lat="34.132598" lon="-2.068869">
   <ele>910.00</ele>
   <time>2014-04-06T11:50:59Z</time>
  </trkpt>
  <trkpt lat="34.131960" lon="-2.069553">
   <ele>909.00</ele>
   <time>2014-04-06T11:51:06Z</time>
  </trkpt>
  <trkpt lat="34.131591" lon="-2.069912">
   <ele>908.00</ele>
   <time>2014-04-06T11:51:10Z</time>
  </trkpt>
  <trkpt lat="34.131399" lon="-2.070080">
   <ele>907.00</ele>
   <time>2014-04-06T11:51:12Z</time>
  </trkpt>
  <trkpt lat="34.131203" lon="-2.070231">
   <ele>907.00</ele>
   <time>2014-04-06T11:51:14Z</time>
  </trkpt>
  <trkpt lat="34.131007" lon="-2.070377">
   <ele>907.00</ele>
   <time>2014-04-06T11:51:16Z</time>
  </trkpt>
  <trkpt lat="34.130830" lon="-2.070533">
   <ele>907.00</ele>
   <time>2014-04-06T11:51:18Z</time>
  </trkpt>
  <trkpt lat="34.130662" lon="-2.070698">
   <ele>907.00</ele>
   <time>2014-04-06T11:51:20Z</time>
  </trkpt>
  <trkpt lat="34.130494" lon="-2.070876">
   <ele>907.00</ele>
   <time>2014-04-06T11:51:22Z</time>
  </trkpt>
  <trkpt lat="34.129714" lon="-2.071742">
   <ele>906.00</ele>
   <time>2014-04-06T11:51:31Z</time>
  </trkpt>
  <trkpt lat="34.128995" lon="-2.072473">
   <ele>905.00</ele>
   <time>2014-04-06T11:51:41Z</time>
  </trkpt>
  <trkpt lat="34.128780" lon="-2.072673">
   <ele>905.00</ele>
   <time>2014-04-06T11:51:46Z</time>
  </trkpt>
  <trkpt lat="34.128602" lon="-2.072842">
   <ele>905.00</ele>
   <time>2014-04-06T11:51:50Z</time>
  </trkpt>
  <trkpt lat="34.128462" lon="-2.073024">
   <ele>905.00</ele>
   <time>2014-04-06T11:51:53Z</time>
  </trkpt>
  <trkpt lat="34.127199" lon="-2.074370">
   <ele>906.00</ele>
   <time>2014-04-06T11:52:09Z</time>
  </trkpt>
  <trkpt lat="34.127038" lon="-2.074533">
   <ele>906.00</ele>
   <time>2014-04-06T11:52:11Z</time>
  </trkpt>
  <trkpt lat="34.126894" lon="-2.074705">
   <ele>906.00</ele>
   <time>2014-04-06T11:52:13Z</time>
  </trkpt>
  <trkpt lat="34.126330" lon="-2.075444">
   <ele>906.00</ele>
   <time>2014-04-06T11:52:21Z</time>
  </trkpt>
  <trkpt lat="34.126050" lon="-2.075867">
   <ele>905.00</ele>
   <time>2014-04-06T11:52:25Z</time>
  </trkpt>
  <trkpt lat="34.125921" lon="-2.076096">
   <ele>905.00</ele>
   <time>2014-04-06T11:52:27Z</time>
  </trkpt>
  <trkpt lat="34.125806" lon="-2.076339">
   <ele>906.00</ele>
   <time>2014-04-06T11:52:29Z</time>
  </trkpt>
  <trkpt lat="34.125701" lon="-2.076584">
   <ele>906.00</ele>
   <time>2014-04-06T11:52:31Z</time>
  </trkpt>
  <trkpt lat="34.125615" lon="-2.076845">
   <ele>905.00</ele>
   <time>2014-04-06T11:52:33Z</time>
  </trkpt>
  <trkpt lat="34.125552" lon="-2.077122">
   <ele>905.00</ele>
   <time>2014-04-06T11:52:35Z</time>
  </trkpt>
  <trkpt lat="34.125488" lon="-2.077408">
   <ele>906.00</ele>
   <time>2014-04-06T11:52:37Z</time>
  </trkpt>
  <trkpt lat="34.125406" lon="-2.077699">
   <ele>906.00</ele>
   <time>2014-04-06T11:52:39Z</time>
  </trkpt>
  <trkpt lat="34.125312" lon="-2.077987">
   <ele>905.00</ele>
   <time>2014-04-06T11:52:41Z</time>
  </trkpt>
  <trkpt lat="34.125207" lon="-2.078273">
   <ele>905.00</ele>
   <time>2014-04-06T11:52:43Z</time>
  </trkpt>
  <trkpt lat="34.125092" lon="-2.078548">
   <ele>905.00</ele>
   <time>2014-04-06T11:52:45Z</time>
  </trkpt>
  <trkpt lat="34.124968" lon="-2.078805">
   <ele>905.00</ele>
   <time>2014-04-06T11:52:47Z</time>
  </trkpt>
  <trkpt lat="34.124712" lon="-2.079295">
   <ele>904.00</ele>
   <time>2014-04-06T11:52:51Z</time>
  </trkpt>
  <trkpt lat="34.124612" lon="-2.079557">
   <ele>904.00</ele>
   <time>2014-04-06T11:52:53Z</time>
  </trkpt>
  <trkpt lat="34.124533" lon="-2.079839">
   <ele>904.00</ele>
   <time>2014-04-06T11:52:55Z</time>
  </trkpt>
  <trkpt lat="34.124413" lon="-2.080283">
   <ele>903.00</ele>
   <time>2014-04-06T11:52:58Z</time>
  </trkpt>
  <trkpt lat="34.123931" lon="-2.081855">
   <ele>901.00</ele>
   <time>2014-04-06T11:53:09Z</time>
  </trkpt>
  <trkpt lat="34.123310" lon="-2.083720">
   <ele>900.00</ele>
   <time>2014-04-06T11:53:24Z</time>
  </trkpt>
  <trkpt lat="34.123222" lon="-2.083959">
   <ele>899.00</ele>
   <time>2014-04-06T11:53:26Z</time>
  </trkpt>
  <trkpt lat="34.123110" lon="-2.084178">
   <ele>899.00</ele>
   <time>2014-04-06T11:53:28Z</time>
  </trkpt>
  <trkpt lat="34.122997" lon="-2.084392">
   <ele>899.00</ele>
   <time>2014-04-06T11:53:30Z</time>
  </trkpt>
  <trkpt lat="34.122899" lon="-2.084616">
   <ele>898.00</ele>
   <time>2014-04-06T11:53:32Z</time>
  </trkpt>
  <trkpt lat="34.122755" lon="-2.084951">
   <ele>897.00</ele>
   <time>2014-04-06T11:53:35Z</time>
  </trkpt>
  <trkpt lat="34.122606" lon="-2.085252">
   <ele>897.00</ele>
   <time>2014-04-06T11:53:38Z</time>
  </trkpt>
  <trkpt lat="34.122545" lon="-2.085473">
   <ele>897.00</ele>
   <time>2014-04-06T11:53:40Z</time>
  </trkpt>
  <trkpt lat="34.122471" lon="-2.085806">
   <ele>897.00</ele>
   <time>2014-04-06T11:53:43Z</time>
  </trkpt>
  <trkpt lat="34.122414" lon="-2.086021">
   <ele>896.00</ele>
   <time>2014-04-06T11:53:45Z</time>
  </trkpt>
  <trkpt lat="34.122373" lon="-2.086241">
   <ele>896.00</ele>
   <time>2014-04-06T11:53:47Z</time>
  </trkpt>
  <trkpt lat="34.122350" lon="-2.086474">
   <ele>895.00</ele>
   <time>2014-04-06T11:53:49Z</time>
  </trkpt>
  <trkpt lat="34.122191" lon="-2.087915">
   <ele>894.00</ele>
   <time>2014-04-06T11:54:04Z</time>
  </trkpt>
  <trkpt lat="34.122122" lon="-2.088269">
   <ele>894.00</ele>
   <time>2014-04-06T11:54:08Z</time>
  </trkpt>
  <trkpt lat="34.122048" lon="-2.088529">
   <ele>894.00</ele>
   <time>2014-04-06T11:54:11Z</time>
  </trkpt>
  <trkpt lat="34.121928" lon="-2.088761">
   <ele>894.00</ele>
   <time>2014-04-06T11:54:14Z</time>
  </trkpt>
  <trkpt lat="34.121769" lon="-2.088970">
   <ele>893.00</ele>
   <time>2014-04-06T11:54:17Z</time>
  </trkpt>
  <trkpt lat="34.121605" lon="-2.089181">
   <ele>893.00</ele>
   <time>2014-04-06T11:54:20Z</time>
  </trkpt>
  <trkpt lat="34.121449" lon="-2.089398">
   <ele>892.00</ele>
   <time>2014-04-06T11:54:23Z</time>
  </trkpt>
  <trkpt lat="34.121154" lon="-2.089836">
   <ele>891.00</ele>
   <time>2014-04-06T11:54:29Z</time>
  </trkpt>
  <trkpt lat="34.120937" lon="-2.090195">
   <ele>890.00</ele>
   <time>2014-04-06T11:54:34Z</time>
  </trkpt>
  <trkpt lat="34.120748" lon="-2.090449">
   <ele>890.00</ele>
   <time>2014-04-06T11:54:38Z</time>
  </trkpt>
  <trkpt lat="34.120520" lon="-2.090798">
   <ele>889.00</ele>
   <time>2014-04-06T11:54:43Z</time>
  </trkpt>
  <trkpt lat="34.120393" lon="-2.091013">
   <ele>889.00</ele>
   <time>2014-04-06T11:54:46Z</time>
  </trkpt>
  <trkpt lat="34.120253" lon="-2.091207">
   <ele>888.00</ele>
   <time>2014-04-06T11:54:49Z</time>
  </trkpt>
  <trkpt lat="34.120106" lon="-2.091399">
   <ele>888.00</ele>
   <time>2014-04-06T11:54:52Z</time>
  </trkpt>
  <trkpt lat="34.119925" lon="-2.091560">
   <ele>887.00</ele>
   <time>2014-04-06T11:54:55Z</time>
  </trkpt>
  <trkpt lat="34.119729" lon="-2.091687">
   <ele>887.00</ele>
   <time>2014-04-06T11:54:58Z</time>
  </trkpt>
  <trkpt lat="34.119563" lon="-2.091825">
   <ele>886.00</ele>
   <time>2014-04-06T11:55:01Z</time>
  </trkpt>
  <trkpt lat="34.119421" lon="-2.091976">
   <ele>886.00</ele>
   <time>2014-04-06T11:55:04Z</time>
  </trkpt>
  <trkpt lat="34.119256" lon="-2.092068">
   <ele>886.00</ele>
   <time>2014-04-06T11:55:07Z</time>
  </trkpt>
  <trkpt lat="34.119051" lon="-2.092110">
   <ele>885.00</ele>
   <time>2014-04-06T11:55:11Z</time>
  </trkpt>
  <trkpt lat="34.118854" lon="-2.092045">
   <ele>885.00</ele>
   <time>2014-04-06T11:55:16Z</time>
  </trkpt>
  <trkpt lat="34.118740" lon="-2.091869">
   <ele>883.00</ele>
   <time>2014-04-06T11:55:21Z</time>
  </trkpt>
  <trkpt lat="34.118633" lon="-2.091676">
   <ele>882.00</ele>
   <time>2014-04-06T11:55:29Z</time>
  </trkpt>
  <trkpt lat="34.118436" lon="-2.091339">
   <ele>881.00</ele>
   <time>2014-04-06T11:55:44Z</time>
  </trkpt>
  <trkpt lat="34.118202" lon="-2.090954">
   <ele>882.00</ele>
   <time>2014-04-06T11:55:59Z</time>
  </trkpt>
  <trkpt lat="34.117935" lon="-2.090508">
   <ele>883.00</ele>
   <time>2014-04-06T11:56:14Z</time>
  </trkpt>
  <trkpt lat="34.117782" lon="-2.090254">
   <ele>884.00</ele>
   <time>2014-04-06T11:56:25Z</time>
  </trkpt>
  <trkpt lat="34.117619" lon="-2.090253">
   <ele>883.00</ele>
   <time>2014-04-06T11:56:31Z</time>
  </trkpt>
  <trkpt lat="34.117519" lon="-2.090459">
   <ele>884.00</ele>
   <time>2014-04-06T11:56:36Z</time>
  </trkpt>
  <trkpt lat="34.117412" lon="-2.090680">
   <ele>885.00</ele>
   <time>2014-04-06T11:56:41Z</time>
  </trkpt>
  <trkpt lat="34.117221" lon="-2.090675">
   <ele>885.00</ele>
   <time>2014-04-06T11:56:47Z</time>
  </trkpt>
  <trkpt lat="34.117196" lon="-2.090625">
   <ele>886.00</ele>
   <time>2014-04-06T11:57:03Z</time>
  </trkpt>
  <trkpt lat="34.117267" lon="-2.090707">
   <ele>886.00</ele>
   <time>2014-04-06T11:57:18Z</time>
  </trkpt>
  <trkpt lat="34.117369" lon="-2.090777">
   <ele>886.00</ele>
   <time>2014-04-06T11:57:29Z</time>
  </trkpt>
 </trkseg>
 <trkseg>
  <trkpt lat="34.117364" lon="-2.090785">
   <ele>884.00</ele>
   <time>2014-04-06T12:08:58Z</time>
  </trkpt>
  <trkpt lat="34.117355" lon="-2.090782">
   <ele>883.00</ele>
   <time>2014-04-06T12:09:14Z</time>
  </trkpt>
  <trkpt lat="34.117371" lon="-2.090746">
   <ele>883.00</ele>
   <time>2014-04-06T12:09:30Z</time>
  </trkpt>
  <trkpt lat="34.117370" lon="-2.090742">
   <ele>883.00</ele>
   <time>2014-04-06T12:09:45Z</time>
  </trkpt>
  <trkpt lat="34.117481" lon="-2.090544">
   <ele>883.00</ele>
   <time>2014-04-06T12:09:57Z</time>
  </trkpt>
  <trkpt lat="34.117572" lon="-2.090313">
   <ele>882.00</ele>
   <time>2014-04-06T12:10:03Z</time>
  </trkpt>
  <trkpt lat="34.117739" lon="-2.090215">
   <ele>881.00</ele>
   <time>2014-04-06T12:10:09Z</time>
  </trkpt>
  <trkpt lat="34.117864" lon="-2.090399">
   <ele>879.00</ele>
   <time>2014-04-06T12:10:15Z</time>
  </trkpt>
  <trkpt lat="34.117995" lon="-2.090617">
   <ele>880.00</ele>
   <time>2014-04-06T12:10:27Z</time>
  </trkpt>
  <trkpt lat="34.118210" lon="-2.090969">
   <ele>880.00</ele>
   <time>2014-04-06T12:10:42Z</time>
  </trkpt>
  <trkpt lat="34.118311" lon="-2.091131">
   <ele>880.00</ele>
   <time>2014-04-06T12:10:58Z</time>
  </trkpt>
  <trkpt lat="34.118432" lon="-2.091325">
   <ele>879.00</ele>
   <time>2014-04-06T12:11:08Z</time>
  </trkpt>
  <trkpt lat="34.118545" lon="-2.091503">
   <ele>879.00</ele>
   <time>2014-04-06T12:11:16Z</time>
  </trkpt>
  <trkpt lat="34.118695" lon="-2.091737">
   <ele>879.00</ele>
   <time>2014-04-06T12:11:26Z</time>
  </trkpt>
  <trkpt lat="34.118806" lon="-2.091917">
   <ele>880.00</ele>
   <time>2014-04-06T12:11:33Z</time>
  </trkpt>
  <trkpt lat="34.118950" lon="-2.092069">
   <ele>882.00</ele>
   <time>2014-04-06T12:11:39Z</time>
  </trkpt>
  <trkpt lat="34.119154" lon="-2.092094">
   <ele>882.00</ele>
   <time>2014-04-06T12:11:44Z</time>
  </trkpt>
  <trkpt lat="34.119346" lon="-2.092023">
   <ele>882.00</ele>
   <time>2014-04-06T12:11:48Z</time>
  </trkpt>
  <trkpt lat="34.119526" lon="-2.091874">
   <ele>883.00</ele>
   <time>2014-04-06T12:11:52Z</time>
  </trkpt>
  <trkpt lat="34.119694" lon="-2.091702">
   <ele>884.00</ele>
   <time>2014-04-06T12:11:56Z</time>
  </trkpt>
  <trkpt lat="34.119901" lon="-2.091591">
   <ele>884.00</ele>
   <time>2014-04-06T12:12:00Z</time>
  </trkpt>
  <trkpt lat="34.120088" lon="-2.091540">
   <ele>885.00</ele>
   <time>2014-04-06T12:12:04Z</time>
  </trkpt>
  <trkpt lat="34.120177" lon="-2.091356">
   <ele>885.00</ele>
   <time>2014-04-06T12:12:08Z</time>
  </trkpt>
  <trkpt lat="34.120301" lon="-2.091145">
   <ele>886.00</ele>
   <time>2014-04-06T12:12:12Z</time>
  </trkpt>
  <trkpt lat="34.120423" lon="-2.090971">
   <ele>887.00</ele>
   <time>2014-04-06T12:12:15Z</time>
  </trkpt>
  <trkpt lat="34.120536" lon="-2.090777">
   <ele>887.00</ele>
   <time>2014-04-06T12:12:18Z</time>
  </trkpt>
  <trkpt lat="34.120657" lon="-2.090586">
   <ele>888.00</ele>
   <time>2014-04-06T12:12:21Z</time>
  </trkpt>
  <trkpt lat="34.120743" lon="-2.090364">
   <ele>889.00</ele>
   <time>2014-04-06T12:12:24Z</time>
  </trkpt>
  <trkpt lat="34.120848" lon="-2.090155">
   <ele>889.00</ele>
   <time>2014-04-06T12:12:27Z</time>
  </trkpt>
  <trkpt lat="34.120998" lon="-2.089977">
   <ele>890.00</ele>
   <time>2014-04-06T12:12:30Z</time>
  </trkpt>
  <trkpt lat="34.121161" lon="-2.089816">
   <ele>891.00</ele>
   <time>2014-04-06T12:12:33Z</time>
  </trkpt>
  <trkpt lat="34.121577" lon="-2.089199">
   <ele>893.00</ele>
   <time>2014-04-06T12:12:41Z</time>
  </trkpt>
  <trkpt lat="34.121755" lon="-2.088965">
   <ele>894.00</ele>
   <time>2014-04-06T12:12:44Z</time>
  </trkpt>
  <trkpt lat="34.121936" lon="-2.088732">
   <ele>894.00</ele>
   <time>2014-04-06T12:12:47Z</time>
  </trkpt>
  <trkpt lat="34.122038" lon="-2.088551">
   <ele>895.00</ele>
   <time>2014-04-06T12:12:49Z</time>
  </trkpt>
  <trkpt lat="34.122117" lon="-2.088347">
   <ele>895.00</ele>
   <time>2014-04-06T12:12:51Z</time>
  </trkpt>
  <trkpt lat="34.122174" lon="-2.088123">
   <ele>895.00</ele>
   <time>2014-04-06T12:12:53Z</time>
  </trkpt>
  <trkpt lat="34.122249" lon="-2.087672">
   <ele>896.00</ele>
   <time>2014-04-06T12:12:57Z</time>
  </trkpt>
  <trkpt lat="34.122422" lon="-2.086083">
   <ele>897.00</ele>
   <time>2014-04-06T12:13:09Z</time>
  </trkpt>
  <trkpt lat="34.122479" lon="-2.085809">
   <ele>898.00</ele>
   <time>2014-04-06T12:13:11Z</time>
  </trkpt>
  <trkpt lat="34.122541" lon="-2.085553">
   <ele>899.00</ele>
   <time>2014-04-06T12:13:13Z</time>
  </trkpt>
  <trkpt lat="34.122629" lon="-2.085182">
   <ele>899.00</ele>
   <time>2014-04-06T12:13:16Z</time>
  </trkpt>
  <trkpt lat="34.122736" lon="-2.084951">
   <ele>899.00</ele>
   <time>2014-04-06T12:13:18Z</time>
  </trkpt>
  <trkpt lat="34.122853" lon="-2.084707">
   <ele>899.00</ele>
   <time>2014-04-06T12:13:20Z</time>
  </trkpt>
  <trkpt lat="34.123075" lon="-2.084189">
   <ele>899.00</ele>
   <time>2014-04-06T12:13:24Z</time>
  </trkpt>
  <trkpt lat="34.123252" lon="-2.083808">
   <ele>899.00</ele>
   <time>2014-04-06T12:13:27Z</time>
  </trkpt>
  <trkpt lat="34.123354" lon="-2.083562">
   <ele>900.00</ele>
   <time>2014-04-06T12:13:29Z</time>
  </trkpt>
  <trkpt lat="34.123445" lon="-2.083310">
   <ele>900.00</ele>
   <time>2014-04-06T12:13:31Z</time>
  </trkpt>
  <trkpt lat="34.123542" lon="-2.083048">
   <ele>901.00</ele>
   <time>2014-04-06T12:13:33Z</time>
  </trkpt>
  <trkpt lat="34.123654" lon="-2.082798">
   <ele>900.00</ele>
   <time>2014-04-06T12:13:35Z</time>
  </trkpt>
  <trkpt lat="34.123767" lon="-2.082546">
   <ele>900.00</ele>
   <time>2014-04-06T12:13:37Z</time>
  </trkpt>
  <trkpt lat="34.123862" lon="-2.082272">
   <ele>901.00</ele>
   <time>2014-04-06T12:13:39Z</time>
  </trkpt>
  <trkpt lat="34.124000" lon="-2.081847">
   <ele>901.00</ele>
   <time>2014-04-06T12:13:42Z</time>
  </trkpt>
  <trkpt lat="34.124209" lon="-2.081289">
   <ele>902.00</ele>
   <time>2014-04-06T12:13:46Z</time>
  </trkpt>
  <trkpt lat="34.124314" lon="-2.081030">
   <ele>902.00</ele>
   <time>2014-04-06T12:13:48Z</time>
  </trkpt>
  <trkpt lat="34.124402" lon="-2.080765">
   <ele>903.00</ele>
   <time>2014-04-06T12:13:50Z</time>
  </trkpt>
  <trkpt lat="34.124569" lon="-2.080217">
   <ele>904.00</ele>
   <time>2014-04-06T12:13:54Z</time>
  </trkpt>
  <trkpt lat="34.124904" lon="-2.079274">
   <ele>906.00</ele>
   <time>2014-04-06T12:14:01Z</time>
  </trkpt>
  <trkpt lat="34.125006" lon="-2.079036">
   <ele>905.00</ele>
   <time>2014-04-06T12:14:03Z</time>
  </trkpt>
  <trkpt lat="34.125164" lon="-2.078672">
   <ele>905.00</ele>
   <time>2014-04-06T12:14:06Z</time>
  </trkpt>
  <trkpt lat="34.125255" lon="-2.078410">
   <ele>905.00</ele>
   <time>2014-04-06T12:14:08Z</time>
  </trkpt>
  <trkpt lat="34.125332" lon="-2.078131">
   <ele>905.00</ele>
   <time>2014-04-06T12:14:10Z</time>
  </trkpt>
  <trkpt lat="34.125475" lon="-2.077547">
   <ele>906.00</ele>
   <time>2014-04-06T12:14:14Z</time>
  </trkpt>
  <trkpt lat="34.125553" lon="-2.077253">
   <ele>906.00</ele>
   <time>2014-04-06T12:14:16Z</time>
  </trkpt>
  <trkpt lat="34.125616" lon="-2.076959">
   <ele>907.00</ele>
   <time>2014-04-06T12:14:18Z</time>
  </trkpt>
  <trkpt lat="34.125674" lon="-2.076682">
   <ele>907.00</ele>
   <time>2014-04-06T12:14:20Z</time>
  </trkpt>
  <trkpt lat="34.125765" lon="-2.076433">
   <ele>908.00</ele>
   <time>2014-04-06T12:14:22Z</time>
  </trkpt>
  <trkpt lat="34.125929" lon="-2.076074">
   <ele>908.00</ele>
   <time>2014-04-06T12:14:25Z</time>
  </trkpt>
  <trkpt lat="34.126055" lon="-2.075836">
   <ele>907.00</ele>
   <time>2014-04-06T12:14:27Z</time>
  </trkpt>
  <trkpt lat="34.126202" lon="-2.075611">
   <ele>907.00</ele>
   <time>2014-04-06T12:14:29Z</time>
  </trkpt>
  <trkpt lat="34.126441" lon="-2.075273">
   <ele>907.00</ele>
   <time>2014-04-06T12:14:32Z</time>
  </trkpt>
  <trkpt lat="34.126612" lon="-2.075051">
   <ele>907.00</ele>
   <time>2014-04-06T12:14:34Z</time>
  </trkpt>
  <trkpt lat="34.127130" lon="-2.074396">
   <ele>907.00</ele>
   <time>2014-04-06T12:14:40Z</time>
  </trkpt>
  <trkpt lat="34.127708" lon="-2.073810">
   <ele>908.00</ele>
   <time>2014-04-06T12:14:46Z</time>
  </trkpt>
  <trkpt lat="34.128106" lon="-2.073372">
   <ele>908.00</ele>
   <time>2014-04-06T12:14:50Z</time>
  </trkpt>
  <trkpt lat="34.128562" lon="-2.072900">
   <ele>908.00</ele>
   <time>2014-04-06T12:14:55Z</time>
  </trkpt>
  <trkpt lat="34.128732" lon="-2.072676">
   <ele>908.00</ele>
   <time>2014-04-06T12:14:58Z</time>
  </trkpt>
  <trkpt lat="34.128918" lon="-2.072521">
   <ele>907.00</ele>
   <time>2014-04-06T12:15:02Z</time>
  </trkpt>
  <trkpt lat="34.129093" lon="-2.072356">
   <ele>907.00</ele>
   <time>2014-04-06T12:15:06Z</time>
  </trkpt>
  <trkpt lat="34.129649" lon="-2.071798">
   <ele>907.00</ele>
   <time>2014-04-06T12:15:18Z</time>
  </trkpt>
  <trkpt lat="34.129803" lon="-2.071649">
   <ele>907.00</ele>
   <time>2014-04-06T12:15:21Z</time>
  </trkpt>
  <trkpt lat="34.129968" lon="-2.071459">
   <ele>907.00</ele>
   <time>2014-04-06T12:15:24Z</time>
  </trkpt>
  <trkpt lat="34.130631" lon="-2.070715">
   <ele>908.00</ele>
   <time>2014-04-06T12:15:33Z</time>
  </trkpt>
  <trkpt lat="34.130864" lon="-2.070483">
   <ele>908.00</ele>
   <time>2014-04-06T12:15:36Z</time>
  </trkpt>
  <trkpt lat="34.131022" lon="-2.070333">
   <ele>908.00</ele>
   <time>2014-04-06T12:15:38Z</time>
  </trkpt>
  <trkpt lat="34.131195" lon="-2.070195">
   <ele>908.00</ele>
   <time>2014-04-06T12:15:40Z</time>
  </trkpt>
  <trkpt lat="34.131569" lon="-2.069904">
   <ele>908.00</ele>
   <time>2014-04-06T12:15:44Z</time>
  </trkpt>
  <trkpt lat="34.131750" lon="-2.069734">
   <ele>908.00</ele>
   <time>2014-04-06T12:15:46Z</time>
  </trkpt>
  <trkpt lat="34.132364" lon="-2.069106">
   <ele>909.00</ele>
   <time>2014-04-06T12:15:53Z</time>
  </trkpt>
  <trkpt lat="34.132902" lon="-2.068520">
   <ele>909.00</ele>
   <time>2014-04-06T12:15:59Z</time>
  </trkpt>
  <trkpt lat="34.133194" lon="-2.068253">
   <ele>909.00</ele>
   <time>2014-04-06T12:16:02Z</time>
  </trkpt>
  <trkpt lat="34.133479" lon="-2.067935">
   <ele>909.00</ele>
   <time>2014-04-06T12:16:05Z</time>
  </trkpt>
  <trkpt lat="34.133756" lon="-2.067628">
   <ele>909.00</ele>
   <time>2014-04-06T12:16:08Z</time>
  </trkpt>
  <trkpt lat="34.134142" lon="-2.067222">
   <ele>909.00</ele>
   <time>2014-04-06T12:16:12Z</time>
  </trkpt>
  <trkpt lat="34.135533" lon="-2.065712">
   <ele>912.00</ele>
   <time>2014-04-06T12:16:28Z</time>
  </trkpt>
  <trkpt lat="34.136289" lon="-2.064875">
   <ele>913.00</ele>
   <time>2014-04-06T12:16:37Z</time>
  </trkpt>
  <trkpt lat="34.136512" lon="-2.064598">
   <ele>913.00</ele>
   <time>2014-04-06T12:16:40Z</time>
  </trkpt>
  <trkpt lat="34.136643" lon="-2.064417">
   <ele>913.00</ele>
   <time>2014-04-06T12:16:42Z</time>
  </trkpt>
  <trkpt lat="34.136756" lon="-2.064229">
   <ele>913.00</ele>
   <time>2014-04-06T12:16:44Z</time>
  </trkpt>
  <trkpt lat="34.136879" lon="-2.064067">
   <ele>913.00</ele>
   <time>2014-04-06T12:16:46Z</time>
  </trkpt>
  <trkpt lat="34.137181" lon="-2.063753">
   <ele>913.00</ele>
   <time>2014-04-06T12:16:53Z</time>
  </trkpt>
  <trkpt lat="34.137315" lon="-2.063529">
   <ele>913.00</ele>
   <time>2014-04-06T12:16:58Z</time>
  </trkpt>
  <trkpt lat="34.137394" lon="-2.063249">
   <ele>914.00</ele>
   <time>2014-04-06T12:17:02Z</time>
  </trkpt>
  <trkpt lat="34.137437" lon="-2.062976">
   <ele>914.00</ele>
   <time>2014-04-06T12:17:05Z</time>
  </trkpt>
  <trkpt lat="34.137458" lon="-2.062743">
   <ele>915.00</ele>
   <time>2014-04-06T12:17:07Z</time>
  </trkpt>
  <trkpt lat="34.137476" lon="-2.062340">
   <ele>915.00</ele>
   <time>2014-04-06T12:17:10Z</time>
  </trkpt>
  <trkpt lat="34.137463" lon="-2.062075">
   <ele>915.00</ele>
   <time>2014-04-06T12:17:12Z</time>
  </trkpt>
  <trkpt lat="34.137442" lon="-2.061691">
   <ele>916.00</ele>
   <time>2014-04-06T12:17:15Z</time>
  </trkpt>
  <trkpt lat="34.137467" lon="-2.061438">
   <ele>916.00</ele>
   <time>2014-04-06T12:17:17Z</time>
  </trkpt>
  <trkpt lat="34.137489" lon="-2.061186">
   <ele>916.00</ele>
   <time>2014-04-06T12:17:19Z</time>
  </trkpt>
  <trkpt lat="34.137483" lon="-2.060941">
   <ele>917.00</ele>
   <time>2014-04-06T12:17:21Z</time>
  </trkpt>
  <trkpt lat="34.137446" lon="-2.060702">
   <ele>917.00</ele>
   <time>2014-04-06T12:17:23Z</time>
  </trkpt>
  <trkpt lat="34.137379" lon="-2.060357">
   <ele>917.00</ele>
   <time>2014-04-06T12:17:26Z</time>
  </trkpt>
  <trkpt lat="34.137357" lon="-2.060134">
   <ele>917.00</ele>
   <time>2014-04-06T12:17:28Z</time>
  </trkpt>
  <trkpt lat="34.137366" lon="-2.059908">
   <ele>917.00</ele>
   <time>2014-04-06T12:17:30Z</time>
  </trkpt>
  <trkpt lat="34.137371" lon="-2.059676">
   <ele>917.00</ele>
   <time>2014-04-06T12:17:32Z</time>
  </trkpt>
  <trkpt lat="34.137338" lon="-2.059439">
   <ele>918.00</ele>
   <time>2014-04-06T12:17:34Z</time>
  </trkpt>
  <trkpt lat="34.137308" lon="-2.059196">
   <ele>918.00</ele>
   <time>2014-04-06T12:17:36Z</time>
  </trkpt>
  <trkpt lat="34.137306" lon="-2.058939">
   <ele>918.00</ele>
   <time>2014-04-06T12:17:38Z</time>
  </trkpt>
  <trkpt lat="34.137315" lon="-2.058680">
   <ele>919.00</ele>
   <time>2014-04-06T12:17:40Z</time>
  </trkpt>
  <trkpt lat="34.137347" lon="-2.058176">
   <ele>920.00</ele>
   <time>2014-04-06T12:17:44Z</time>
  </trkpt>
  <trkpt lat="34.137347" lon="-2.057923">
   <ele>920.00</ele>
   <time>2014-04-06T12:17:46Z</time>
  </trkpt>
  <trkpt lat="34.137340" lon="-2.057554">
   <ele>920.00</ele>
   <time>2014-04-06T12:17:49Z</time>
  </trkpt>
  <trkpt lat="34.137379" lon="-2.057323">
   <ele>921.00</ele>
   <time>2014-04-06T12:17:51Z</time>
  </trkpt>
  <trkpt lat="34.137458" lon="-2.057116">
   <ele>920.00</ele>
   <time>2014-04-06T12:17:53Z</time>
  </trkpt>
  <trkpt lat="34.137538" lon="-2.056915">
   <ele>920.00</ele>
   <time>2014-04-06T12:17:55Z</time>
  </trkpt>
  <trkpt lat="34.137609" lon="-2.056700">
   <ele>920.00</ele>
   <time>2014-04-06T12:17:57Z</time>
  </trkpt>
  <trkpt lat="34.137674" lon="-2.056493">
   <ele>920.00</ele>
   <time>2014-04-06T12:17:59Z</time>
  </trkpt>
  <trkpt lat="34.137824" lon="-2.056248">
   <ele>920.00</ele>
   <time>2014-04-06T12:18:02Z</time>
  </trkpt>
  <trkpt lat="34.137951" lon="-2.056015">
   <ele>919.00</ele>
   <time>2014-04-06T12:18:05Z</time>
  </trkpt>
  <trkpt lat="34.137982" lon="-2.055734">
   <ele>920.00</ele>
   <time>2014-04-06T12:18:08Z</time>
  </trkpt>
  <trkpt lat="34.138032" lon="-2.055504">
   <ele>921.00</ele>
   <time>2014-04-06T12:18:11Z</time>
  </trkpt>
  <trkpt lat="34.137932" lon="-2.055351">
   <ele>922.00</ele>
   <time>2014-04-06T12:18:15Z</time>
  </trkpt>
  <trkpt lat="34.137692" lon="-2.055321">
   <ele>923.00</ele>
   <time>2014-04-06T12:18:18Z</time>
  </trkpt>
  <trkpt lat="34.136484" lon="-2.055156">
   <ele>925.00</ele>
   <time>2014-04-06T12:18:28Z</time>
  </trkpt>
  <trkpt lat="34.136190" lon="-2.055094">
   <ele>926.00</ele>
   <time>2014-04-06T12:18:30Z</time>
  </trkpt>
  <trkpt lat="34.135873" lon="-2.055002">
   <ele>927.00</ele>
   <time>2014-04-06T12:18:32Z</time>
  </trkpt>
  <trkpt lat="34.135534" lon="-2.054875">
   <ele>927.00</ele>
   <time>2014-04-06T12:18:34Z</time>
  </trkpt>
  <trkpt lat="34.132644" lon="-2.053608">
   <ele>924.00</ele>
   <time>2014-04-06T12:18:49Z</time>
  </trkpt>
  <trkpt lat="34.129483" lon="-2.052209">
   <ele>922.00</ele>
   <time>2014-04-06T12:19:04Z</time>
  </trkpt>
  <trkpt lat="34.126475" lon="-2.050875">
   <ele>921.00</ele>
   <time>2014-04-06T12:19:18Z</time>
  </trkpt>
  <trkpt lat="34.126072" lon="-2.050661">
   <ele>921.00</ele>
   <time>2014-04-06T12:19:20Z</time>
  </trkpt>
  <trkpt lat="34.125877" lon="-2.050539">
   <ele>921.00</ele>
   <time>2014-04-06T12:19:21Z</time>
  </trkpt>
  <trkpt lat="34.125689" lon="-2.050403">
   <ele>921.00</ele>
   <time>2014-04-06T12:19:22Z</time>
  </trkpt>
  <trkpt lat="34.125508" lon="-2.050255">
   <ele>921.00</ele>
   <time>2014-04-06T12:19:23Z</time>
  </trkpt>
  <trkpt lat="34.125332" lon="-2.050097">
   <ele>921.00</ele>
   <time>2014-04-06T12:19:24Z</time>
  </trkpt>
  <trkpt lat="34.125163" lon="-2.049929">
   <ele>921.00</ele>
   <time>2014-04-06T12:19:25Z</time>
  </trkpt>
  <trkpt lat="34.125000" lon="-2.049752">
   <ele>921.00</ele>
   <time>2014-04-06T12:19:26Z</time>
  </trkpt>
  <trkpt lat="34.124683" lon="-2.049378">
   <ele>921.00</ele>
   <time>2014-04-06T12:19:28Z</time>
  </trkpt>
  <trkpt lat="34.122308" lon="-2.046514">
   <ele>921.00</ele>
   <time>2014-04-06T12:19:44Z</time>
  </trkpt>
  <trkpt lat="34.122045" lon="-2.046228">
   <ele>921.00</ele>
   <time>2014-04-06T12:19:46Z</time>
  </trkpt>
  <trkpt lat="34.121770" lon="-2.045980">
   <ele>921.00</ele>
   <time>2014-04-06T12:19:48Z</time>
  </trkpt>
  <trkpt lat="34.121476" lon="-2.045779">
   <ele>921.00</ele>
   <time>2014-04-06T12:19:50Z</time>
  </trkpt>
  <trkpt lat="34.121166" lon="-2.045639">
   <ele>921.00</ele>
   <time>2014-04-06T12:19:52Z</time>
  </trkpt>
  <trkpt lat="34.120851" lon="-2.045543">
   <ele>920.00</ele>
   <time>2014-04-06T12:19:54Z</time>
  </trkpt>
  <trkpt lat="34.120534" lon="-2.045473">
   <ele>920.00</ele>
   <time>2014-04-06T12:19:56Z</time>
  </trkpt>
  <trkpt lat="34.120219" lon="-2.045424">
   <ele>920.00</ele>
   <time>2014-04-06T12:19:58Z</time>
  </trkpt>
  <trkpt lat="34.119245" lon="-2.045333">
   <ele>921.00</ele>
   <time>2014-04-06T12:20:04Z</time>
  </trkpt>
  <trkpt lat="34.116797" lon="-2.045140">
   <ele>924.00</ele>
   <time>2014-04-06T12:20:19Z</time>
  </trkpt>
  <trkpt lat="34.116411" lon="-2.045097">
   <ele>924.00</ele>
   <time>2014-04-06T12:20:21Z</time>
  </trkpt>
  <trkpt lat="34.115992" lon="-2.045058">
   <ele>924.00</ele>
   <time>2014-04-06T12:20:23Z</time>
  </trkpt>
  <trkpt lat="34.112617" lon="-2.044824">
   <ele>923.00</ele>
   <time>2014-04-06T12:20:38Z</time>
  </trkpt>
  <trkpt lat="34.109121" lon="-2.044545">
   <ele>922.00</ele>
   <time>2014-04-06T12:20:54Z</time>
  </trkpt>
  <trkpt lat="34.105849" lon="-2.044281">
   <ele>921.00</ele>
   <time>2014-04-06T12:21:09Z</time>
  </trkpt>
  <trkpt lat="34.102502" lon="-2.044033">
   <ele>917.00</ele>
   <time>2014-04-06T12:21:24Z</time>
  </trkpt>
  <trkpt lat="34.101049" lon="-2.043912">
   <ele>916.00</ele>
   <time>2014-04-06T12:21:31Z</time>
  </trkpt>
  <trkpt lat="34.100642" lon="-2.043851">
   <ele>915.00</ele>
   <time>2014-04-06T12:21:33Z</time>
  </trkpt>
  <trkpt lat="34.099407" lon="-2.043657">
   <ele>913.00</ele>
   <time>2014-04-06T12:21:39Z</time>
  </trkpt>
  <trkpt lat="34.098985" lon="-2.043618">
   <ele>912.00</ele>
   <time>2014-04-06T12:21:41Z</time>
  </trkpt>
  <trkpt lat="34.098140" lon="-2.043583">
   <ele>912.00</ele>
   <time>2014-04-06T12:21:45Z</time>
  </trkpt>
  <trkpt lat="34.095531" lon="-2.043480">
   <ele>912.00</ele>
   <time>2014-04-06T12:21:57Z</time>
  </trkpt>
  <trkpt lat="34.092310" lon="-2.043214">
   <ele>911.00</ele>
   <time>2014-04-06T12:22:12Z</time>
  </trkpt>
  <trkpt lat="34.091446" lon="-2.043180">
   <ele>912.00</ele>
   <time>2014-04-06T12:22:16Z</time>
  </trkpt>
  <trkpt lat="34.091015" lon="-2.043196">
   <ele>912.00</ele>
   <time>2014-04-06T12:22:18Z</time>
  </trkpt>
  <trkpt lat="34.087848" lon="-2.043434">
   <ele>910.00</ele>
   <time>2014-04-06T12:22:33Z</time>
  </trkpt>
  <trkpt lat="34.086428" lon="-2.043563">
   <ele>908.00</ele>
   <time>2014-04-06T12:22:40Z</time>
  </trkpt>
  <trkpt lat="34.086025" lon="-2.043644">
   <ele>908.00</ele>
   <time>2014-04-06T12:22:42Z</time>
  </trkpt>
  <trkpt lat="34.085828" lon="-2.043714">
   <ele>908.00</ele>
   <time>2014-04-06T12:22:43Z</time>
  </trkpt>
  <trkpt lat="34.085636" lon="-2.043808">
   <ele>908.00</ele>
   <time>2014-04-06T12:22:44Z</time>
  </trkpt>
  <trkpt lat="34.085450" lon="-2.043922">
   <ele>909.00</ele>
   <time>2014-04-06T12:22:45Z</time>
  </trkpt>
  <trkpt lat="34.085270" lon="-2.044055">
   <ele>909.00</ele>
   <time>2014-04-06T12:22:46Z</time>
  </trkpt>
  <trkpt lat="34.083284" lon="-2.045680">
   <ele>909.00</ele>
   <time>2014-04-06T12:22:57Z</time>
  </trkpt>
  <trkpt lat="34.083088" lon="-2.045804">
   <ele>908.00</ele>
   <time>2014-04-06T12:22:58Z</time>
  </trkpt>
  <trkpt lat="34.082886" lon="-2.045915">
   <ele>908.00</ele>
   <time>2014-04-06T12:22:59Z</time>
  </trkpt>
  <trkpt lat="34.082680" lon="-2.046012">
   <ele>908.00</ele>
   <time>2014-04-06T12:23:00Z</time>
  </trkpt>
  <trkpt lat="34.082470" lon="-2.046099">
   <ele>908.00</ele>
   <time>2014-04-06T12:23:01Z</time>
  </trkpt>
  <trkpt lat="34.081827" lon="-2.046322">
   <ele>908.00</ele>
   <time>2014-04-06T12:23:04Z</time>
  </trkpt>
  <trkpt lat="34.078312" lon="-2.047452">
   <ele>906.00</ele>
   <time>2014-04-06T12:23:20Z</time>
  </trkpt>
  <trkpt lat="34.075041" lon="-2.048511">
   <ele>908.00</ele>
   <time>2014-04-06T12:23:35Z</time>
  </trkpt>
  <trkpt lat="34.073668" lon="-2.048935">
   <ele>910.00</ele>
   <time>2014-04-06T12:23:42Z</time>
  </trkpt>
  <trkpt lat="34.073469" lon="-2.048969">
   <ele>910.00</ele>
   <time>2014-04-06T12:23:43Z</time>
  </trkpt>
  <trkpt lat="34.073266" lon="-2.048985">
   <ele>910.00</ele>
   <time>2014-04-06T12:23:44Z</time>
  </trkpt>
  <trkpt lat="34.073059" lon="-2.048986">
   <ele>909.00</ele>
   <time>2014-04-06T12:23:45Z</time>
  </trkpt>
  <trkpt lat="34.069567" lon="-2.048842">
   <ele>911.00</ele>
   <time>2014-04-06T12:24:01Z</time>
  </trkpt>
  <trkpt lat="34.066333" lon="-2.048726">
   <ele>913.00</ele>
   <time>2014-04-06T12:24:16Z</time>
  </trkpt>
  <trkpt lat="34.063127" lon="-2.048604">
   <ele>914.00</ele>
   <time>2014-04-06T12:24:31Z</time>
  </trkpt>
  <trkpt lat="34.059689" lon="-2.048480">
   <ele>916.00</ele>
   <time>2014-04-06T12:24:47Z</time>
  </trkpt>
  <trkpt lat="34.056502" lon="-2.048367">
   <ele>920.00</ele>
   <time>2014-04-06T12:25:02Z</time>
  </trkpt>
  <trkpt lat="34.054289" lon="-2.048288">
   <ele>924.00</ele>
   <time>2014-04-06T12:25:17Z</time>
  </trkpt>
  <trkpt lat="34.053935" lon="-2.048268">
   <ele>924.00</ele>
   <time>2014-04-06T12:25:20Z</time>
  </trkpt>
  <trkpt lat="34.053716" lon="-2.048240">
   <ele>924.00</ele>
   <time>2014-04-06T12:25:22Z</time>
  </trkpt>
  <trkpt lat="34.053535" lon="-2.048204">
   <ele>924.00</ele>
   <time>2014-04-06T12:25:24Z</time>
  </trkpt>
  <trkpt lat="34.053283" lon="-2.048112">
   <ele>924.00</ele>
   <time>2014-04-06T12:25:27Z</time>
  </trkpt>
  <trkpt lat="34.053076" lon="-2.047998">
   <ele>922.00</ele>
   <time>2014-04-06T12:25:29Z</time>
  </trkpt>
  <trkpt lat="34.052836" lon="-2.047855">
   <ele>922.00</ele>
   <time>2014-04-06T12:25:31Z</time>
  </trkpt>
  <trkpt lat="34.050478" lon="-2.046370">
   <ele>923.00</ele>
   <time>2014-04-06T12:25:47Z</time>
  </trkpt>
  <trkpt lat="34.047743" lon="-2.044668">
   <ele>924.00</ele>
   <time>2014-04-06T12:26:02Z</time>
  </trkpt>
  <trkpt lat="34.044631" lon="-2.042740">
   <ele>927.00</ele>
   <time>2014-04-06T12:26:18Z</time>
  </trkpt>
  <trkpt lat="34.041862" lon="-2.041017">
   <ele>930.00</ele>
   <time>2014-04-06T12:26:33Z</time>
  </trkpt>
  <trkpt lat="34.039452" lon="-2.039513">
   <ele>933.00</ele>
   <time>2014-04-06T12:26:48Z</time>
  </trkpt>
  <trkpt lat="34.037465" lon="-2.038265">
   <ele>935.00</ele>
   <time>2014-04-06T12:27:02Z</time>
  </trkpt>
  <trkpt lat="34.037200" lon="-2.038062">
   <ele>935.00</ele>
   <time>2014-04-06T12:27:04Z</time>
  </trkpt>
  <trkpt lat="34.036421" lon="-2.037404">
   <ele>934.00</ele>
   <time>2014-04-06T12:27:10Z</time>
  </trkpt>
  <trkpt lat="34.034610" lon="-2.035818">
   <ele>934.00</ele>
   <time>2014-04-06T12:27:25Z</time>
  </trkpt>
  <trkpt lat="34.033834" lon="-2.035126">
   <ele>934.00</ele>
   <time>2014-04-06T12:27:34Z</time>
  </trkpt>
  <trkpt lat="34.033810" lon="-2.034867">
   <ele>932.00</ele>
   <time>2014-04-06T12:27:38Z</time>
  </trkpt>
  <trkpt lat="34.033885" lon="-2.034641">
   <ele>930.00</ele>
   <time>2014-04-06T12:27:43Z</time>
  </trkpt>
  <trkpt lat="34.033865" lon="-2.034488">
   <ele>929.00</ele>
   <time>2014-04-06T12:27:51Z</time>
  </trkpt>
  <trkpt lat="34.033965" lon="-2.034452">
   <ele>929.00</ele>
   <time>2014-04-06T12:28:04Z</time>
  </trkpt>
  <trkpt lat="34.033976" lon="-2.034454">
   <ele>921.00</ele>
   <time>2014-04-06T12:28:20Z</time>
  </trkpt>
  <trkpt lat="34.033997" lon="-2.034458">
   <ele>918.00</ele>
   <time>2014-04-06T12:28:35Z</time>
  </trkpt>
  <trkpt lat="34.034011" lon="-2.034460">
   <ele>917.00</ele>
   <time>2014-04-06T12:28:50Z</time>
  </trkpt>
  <trkpt lat="34.034023" lon="-2.034461">
   <ele>916.00</ele>
   <time>2014-04-06T12:29:06Z</time>
  </trkpt>
  <trkpt lat="34.034016" lon="-2.034461">
   <ele>914.00</ele>
   <time>2014-04-06T12:29:21Z</time>
  </trkpt>
  <trkpt lat="34.034029" lon="-2.034466">
   <ele>913.00</ele>
   <time>2014-04-06T12:29:36Z</time>
  </trkpt>
  <trkpt lat="34.034028" lon="-2.034466">
   <ele>913.00</ele>
   <time>2014-04-06T12:29:51Z</time>
  </trkpt>
  <trkpt lat="34.034022" lon="-2.034463">
   <ele>912.00</ele>
   <time>2014-04-06T12:30:07Z</time>
  </trkpt>
  <trkpt lat="34.034024" lon="-2.034463">
   <ele>913.00</ele>
   <time>2014-04-06T12:30:22Z</time>
  </trkpt>
  <trkpt lat="34.034041" lon="-2.034470">
   <ele>914.00</ele>
   <time>2014-04-06T12:30:37Z</time>
  </trkpt>
  <trkpt lat="34.034045" lon="-2.034467">
   <ele>914.00</ele>
   <time>2014-04-06T12:30:52Z</time>
  </trkpt>
  <trkpt lat="34.034048" lon="-2.034465">
   <ele>915.00</ele>
   <time>2014-04-06T12:31:08Z</time>
  </trkpt>
  <trkpt lat="34.034030" lon="-2.034467">
   <ele>913.00</ele>
   <time>2014-04-06T12:31:23Z</time>
  </trkpt>
  <trkpt lat="34.033996" lon="-2.034462">
   <ele>911.00</ele>
   <time>2014-04-06T12:31:38Z</time>
  </trkpt>
  <trkpt lat="34.033981" lon="-2.034455">
   <ele>911.00</ele>
   <time>2014-04-06T12:31:54Z</time>
  </trkpt>
  <trkpt lat="34.033979" lon="-2.034556">
   <ele>911.00</ele>
   <time>2014-04-06T12:32:09Z</time>
  </trkpt>
  <trkpt lat="34.033944" lon="-2.034568">
   <ele>910.00</ele>
   <time>2014-04-06T12:32:25Z</time>
  </trkpt>
  <trkpt lat="34.033766" lon="-2.034569">
   <ele>915.00</ele>
   <time>2014-04-06T12:32:41Z</time>
  </trkpt>
  <trkpt lat="34.033608" lon="-2.034629">
   <ele>918.00</ele>
   <time>2014-04-06T12:32:49Z</time>
  </trkpt>
  <trkpt lat="34.033532" lon="-2.034765">
   <ele>921.00</ele>
   <time>2014-04-06T12:33:05Z</time>
  </trkpt>
  <trkpt lat="34.033515" lon="-2.034789">
   <ele>922.00</ele>
   <time>2014-04-06T12:33:20Z</time>
  </trkpt>
  <trkpt lat="34.033332" lon="-2.034772">
   <ele>923.00</ele>
   <time>2014-04-06T12:33:26Z</time>
  </trkpt>
  <trkpt lat="34.033170" lon="-2.034642">
   <ele>924.00</ele>
   <time>2014-04-06T12:33:29Z</time>
  </trkpt>
  <trkpt lat="34.032991" lon="-2.034497">
   <ele>926.00</ele>
   <time>2014-04-06T12:33:32Z</time>
  </trkpt>
  <trkpt lat="34.032776" lon="-2.034350">
   <ele>926.00</ele>
   <time>2014-04-06T12:33:35Z</time>
  </trkpt>
  <trkpt lat="34.032329" lon="-2.034084">
   <ele>927.00</ele>
   <time>2014-04-06T12:33:41Z</time>
  </trkpt>
  <trkpt lat="34.031665" lon="-2.033699">
   <ele>927.00</ele>
   <time>2014-04-06T12:33:53Z</time>
  </trkpt>
  <trkpt lat="34.031454" lon="-2.033569">
   <ele>927.00</ele>
   <time>2014-04-06T12:33:58Z</time>
  </trkpt>
  <trkpt lat="34.031258" lon="-2.033485">
   <ele>926.00</ele>
   <time>2014-04-06T12:34:05Z</time>
  </trkpt>
  <trkpt lat="34.031085" lon="-2.033398">
   <ele>926.00</ele>
   <time>2014-04-06T12:34:08Z</time>
  </trkpt>
  <trkpt lat="34.029829" lon="-2.032703">
   <ele>928.00</ele>
   <time>2014-04-06T12:34:23Z</time>
  </trkpt>
  <trkpt lat="34.028441" lon="-2.031934">
   <ele>930.00</ele>
   <time>2014-04-06T12:34:37Z</time>
  </trkpt>
  <trkpt lat="34.028020" lon="-2.031713">
   <ele>930.00</ele>
   <time>2014-04-06T12:34:41Z</time>
  </trkpt>
  <trkpt lat="34.026447" lon="-2.030844">
   <ele>930.00</ele>
   <time>2014-04-06T12:34:56Z</time>
  </trkpt>
  <trkpt lat="34.024873" lon="-2.029982">
   <ele>932.00</ele>
   <time>2014-04-06T12:35:11Z</time>
  </trkpt>
  <trkpt lat="34.023268" lon="-2.029102">
   <ele>932.00</ele>
   <time>2014-04-06T12:35:26Z</time>
  </trkpt>
  <trkpt lat="34.021785" lon="-2.028273">
   <ele>933.00</ele>
   <time>2014-04-06T12:35:42Z</time>
  </trkpt>
  <trkpt lat="34.021586" lon="-2.028162">
   <ele>933.00</ele>
   <time>2014-04-06T12:35:45Z</time>
  </trkpt>
  <trkpt lat="34.020721" lon="-2.027706">
   <ele>935.00</ele>
   <time>2014-04-06T12:36:00Z</time>
  </trkpt>
  <trkpt lat="34.020049" lon="-2.027327">
   <ele>935.00</ele>
   <time>2014-04-06T12:36:11Z</time>
  </trkpt>
  <trkpt lat="34.019752" lon="-2.027147">
   <ele>935.00</ele>
   <time>2014-04-06T12:36:16Z</time>
  </trkpt>
  <trkpt lat="34.019554" lon="-2.027071">
   <ele>935.00</ele>
   <time>2014-04-06T12:36:19Z</time>
  </trkpt>
  <trkpt lat="34.019336" lon="-2.027008">
   <ele>935.00</ele>
   <time>2014-04-06T12:36:22Z</time>
  </trkpt>
  <trkpt lat="34.018204" lon="-2.026742">
   <ele>937.00</ele>
   <time>2014-04-06T12:36:37Z</time>
  </trkpt>
  <trkpt lat="34.016897" lon="-2.026449">
   <ele>937.00</ele>
   <time>2014-04-06T12:36:53Z</time>
  </trkpt>
  <trkpt lat="34.015557" lon="-2.026129">
   <ele>935.00</ele>
   <time>2014-04-06T12:37:08Z</time>
  </trkpt>
  <trkpt lat="34.014094" lon="-2.025794">
   <ele>935.00</ele>
   <time>2014-04-06T12:37:23Z</time>
  </trkpt>
  <trkpt lat="34.012658" lon="-2.025458">
   <ele>935.00</ele>
   <time>2014-04-06T12:37:36Z</time>
  </trkpt>
  <trkpt lat="34.012420" lon="-2.025378">
   <ele>935.00</ele>
   <time>2014-04-06T12:37:38Z</time>
  </trkpt>
  <trkpt lat="34.012061" lon="-2.025242">
   <ele>936.00</ele>
   <time>2014-04-06T12:37:41Z</time>
  </trkpt>
  <trkpt lat="34.010497" lon="-2.024579">
   <ele>939.00</ele>
   <time>2014-04-06T12:37:54Z</time>
  </trkpt>
  <trkpt lat="34.009554" lon="-2.024227">
   <ele>939.00</ele>
   <time>2014-04-06T12:38:02Z</time>
  </trkpt>
  <trkpt lat="34.008183" lon="-2.023661">
   <ele>941.00</ele>
   <time>2014-04-06T12:38:15Z</time>
  </trkpt>
  <trkpt lat="34.007941" lon="-2.023632">
   <ele>940.00</ele>
   <time>2014-04-06T12:38:18Z</time>
  </trkpt>
  <trkpt lat="34.007756" lon="-2.023819">
   <ele>938.00</ele>
   <time>2014-04-06T12:38:21Z</time>
  </trkpt>
  <trkpt lat="34.007673" lon="-2.024019">
   <ele>938.00</ele>
   <time>2014-04-06T12:38:23Z</time>
  </trkpt>
  <trkpt lat="34.007600" lon="-2.024259">
   <ele>937.00</ele>
   <time>2014-04-06T12:38:25Z</time>
  </trkpt>
  <trkpt lat="34.007525" lon="-2.024531">
   <ele>937.00</ele>
   <time>2014-04-06T12:38:27Z</time>
  </trkpt>
  <trkpt lat="34.006836" lon="-2.027035">
   <ele>935.00</ele>
   <time>2014-04-06T12:38:42Z</time>
  </trkpt>
  <trkpt lat="34.006053" lon="-2.029800">
   <ele>934.00</ele>
   <time>2014-04-06T12:38:57Z</time>
  </trkpt>
  <trkpt lat="34.005663" lon="-2.031142">
   <ele>934.00</ele>
   <time>2014-04-06T12:39:04Z</time>
  </trkpt>
  <trkpt lat="34.005527" lon="-2.031527">
   <ele>934.00</ele>
   <time>2014-04-06T12:39:06Z</time>
  </trkpt>
  <trkpt lat="34.005379" lon="-2.031900">
   <ele>934.00</ele>
   <time>2014-04-06T12:39:08Z</time>
  </trkpt>
  <trkpt lat="34.004131" lon="-2.034875">
   <ele>932.00</ele>
   <time>2014-04-06T12:39:24Z</time>
  </trkpt>
  <trkpt lat="34.002932" lon="-2.037727">
   <ele>932.00</ele>
   <time>2014-04-06T12:39:39Z</time>
  </trkpt>
  <trkpt lat="34.001771" lon="-2.040522">
   <ele>932.00</ele>
   <time>2014-04-06T12:39:54Z</time>
  </trkpt>
  <trkpt lat="34.000513" lon="-2.043522">
   <ele>931.00</ele>
   <time>2014-04-06T12:40:10Z</time>
  </trkpt>
  <trkpt lat="33.999326" lon="-2.046362">
   <ele>929.00</ele>
   <time>2014-04-06T12:40:25Z</time>
  </trkpt>
  <trkpt lat="33.998118" lon="-2.049261">
   <ele>929.00</ele>
   <time>2014-04-06T12:40:40Z</time>
  </trkpt>
  <trkpt lat="33.996810" lon="-2.052400">
   <ele>929.00</ele>
   <time>2014-04-06T12:40:56Z</time>
  </trkpt>
  <trkpt lat="33.995560" lon="-2.055389">
   <ele>928.00</ele>
   <time>2014-04-06T12:41:11Z</time>
  </trkpt>
  <trkpt lat="33.994322" lon="-2.058366">
   <ele>928.00</ele>
   <time>2014-04-06T12:41:26Z</time>
  </trkpt>
  <trkpt lat="33.993093" lon="-2.061341">
   <ele>928.00</ele>
   <time>2014-04-06T12:41:41Z</time>
  </trkpt>
  <trkpt lat="33.992669" lon="-2.062312">
   <ele>928.00</ele>
   <time>2014-04-06T12:41:46Z</time>
  </trkpt>
  <trkpt lat="33.992487" lon="-2.062690">
   <ele>928.00</ele>
   <time>2014-04-06T12:41:48Z</time>
  </trkpt>
  <trkpt lat="33.992291" lon="-2.063060">
   <ele>929.00</ele>
   <time>2014-04-06T12:41:50Z</time>
  </trkpt>
  <trkpt lat="33.992082" lon="-2.063419">
   <ele>929.00</ele>
   <time>2014-04-06T12:41:52Z</time>
  </trkpt>
  <trkpt lat="33.990502" lon="-2.066014">
   <ele>930.00</ele>
   <time>2014-04-06T12:42:07Z</time>
  </trkpt>
  <trkpt lat="33.989787" lon="-2.067211">
   <ele>931.00</ele>
   <time>2014-04-06T12:42:14Z</time>
  </trkpt>
  <trkpt lat="33.989616" lon="-2.067557">
   <ele>931.00</ele>
   <time>2014-04-06T12:42:16Z</time>
  </trkpt>
  <trkpt lat="33.989503" lon="-2.067920">
   <ele>931.00</ele>
   <time>2014-04-06T12:42:18Z</time>
  </trkpt>
  <trkpt lat="33.989470" lon="-2.068299">
   <ele>930.00</ele>
   <time>2014-04-06T12:42:20Z</time>
  </trkpt>
  <trkpt lat="33.989511" lon="-2.068682">
   <ele>930.00</ele>
   <time>2014-04-06T12:42:22Z</time>
  </trkpt>
  <trkpt lat="33.989613" lon="-2.069052">
   <ele>929.00</ele>
   <time>2014-04-06T12:42:24Z</time>
  </trkpt>
  <trkpt lat="33.989781" lon="-2.069386">
   <ele>929.00</ele>
   <time>2014-04-06T12:42:26Z</time>
  </trkpt>
  <trkpt lat="33.990007" lon="-2.069669">
   <ele>929.00</ele>
   <time>2014-04-06T12:42:28Z</time>
  </trkpt>
  <trkpt lat="33.990281" lon="-2.069889">
   <ele>928.00</ele>
   <time>2014-04-06T12:42:30Z</time>
  </trkpt>
  <trkpt lat="33.990584" lon="-2.070045">
   <ele>926.00</ele>
   <time>2014-04-06T12:42:32Z</time>
  </trkpt>
  <trkpt lat="33.990906" lon="-2.070142">
   <ele>925.00</ele>
   <time>2014-04-06T12:42:34Z</time>
  </trkpt>
  <trkpt lat="33.991219" lon="-2.070216">
   <ele>924.00</ele>
   <time>2014-04-06T12:42:36Z</time>
  </trkpt>
  <trkpt lat="33.991806" lon="-2.070327">
   <ele>923.00</ele>
   <time>2014-04-06T12:42:40Z</time>
  </trkpt>
  <trkpt lat="33.992080" lon="-2.070374">
   <ele>923.00</ele>
   <time>2014-04-06T12:42:42Z</time>
  </trkpt>
  <trkpt lat="33.992338" lon="-2.070447">
   <ele>923.00</ele>
   <time>2014-04-06T12:42:44Z</time>
  </trkpt>
  <trkpt lat="33.992578" lon="-2.070547">
   <ele>924.00</ele>
   <time>2014-04-06T12:42:46Z</time>
  </trkpt>
  <trkpt lat="33.992792" lon="-2.070672">
   <ele>924.00</ele>
   <time>2014-04-06T12:42:48Z</time>
  </trkpt>
  <trkpt lat="33.992967" lon="-2.070823">
   <ele>924.00</ele>
   <time>2014-04-06T12:42:50Z</time>
  </trkpt>
  <trkpt lat="33.993103" lon="-2.070995">
   <ele>924.00</ele>
   <time>2014-04-06T12:42:52Z</time>
  </trkpt>
  <trkpt lat="33.993208" lon="-2.071172">
   <ele>925.00</ele>
   <time>2014-04-06T12:42:54Z</time>
  </trkpt>
  <trkpt lat="33.993342" lon="-2.071401">
   <ele>925.00</ele>
   <time>2014-04-06T12:42:57Z</time>
  </trkpt>
  <trkpt lat="33.993510" lon="-2.071543">
   <ele>925.00</ele>
   <time>2014-04-06T12:43:01Z</time>
  </trkpt>
  <trkpt lat="33.993668" lon="-2.071672">
   <ele>926.00</ele>
   <time>2014-04-06T12:43:09Z</time>
  </trkpt>
  <trkpt lat="33.993730" lon="-2.071619">
   <ele>926.00</ele>
   <time>2014-04-06T12:43:24Z</time>
  </trkpt>
  <trkpt lat="33.993669" lon="-2.071544">
   <ele>928.00</ele>
   <time>2014-04-06T12:43:34Z</time>
  </trkpt>
 </trkseg>
 <trkseg>
  <trkpt lat="33.999868" lon="-2.082141">
   <ele>943.00</ele>
   <time>2014-04-06T14:16:59Z</time>
  </trkpt>
  <trkpt lat="34.001718" lon="-2.084952">
   <ele>945.00</ele>
   <time>2014-04-06T14:17:15Z</time>
  </trkpt>
  <trkpt lat="34.003645" lon="-2.087882">
   <ele>948.00</ele>
   <time>2014-04-06T14:17:31Z</time>
  </trkpt>
  <trkpt lat="34.004706" lon="-2.089530">
   <ele>950.00</ele>
   <time>2014-04-06T14:17:40Z</time>
  </trkpt>
  <trkpt lat="34.004813" lon="-2.089726">
   <ele>950.00</ele>
   <time>2014-04-06T14:17:41Z</time>
  </trkpt>
  <trkpt lat="34.005013" lon="-2.090134">
   <ele>951.00</ele>
   <time>2014-04-06T14:17:43Z</time>
  </trkpt>
  <trkpt lat="34.006486" lon="-2.093319">
   <ele>951.00</ele>
   <time>2014-04-06T14:17:58Z</time>
  </trkpt>
  <trkpt lat="34.008108" lon="-2.096826">
   <ele>951.00</ele>
   <time>2014-04-06T14:18:14Z</time>
  </trkpt>
  <trkpt lat="34.009637" lon="-2.100139">
   <ele>952.00</ele>
   <time>2014-04-06T14:18:29Z</time>
  </trkpt>
  <trkpt lat="34.011188" lon="-2.103493">
   <ele>953.00</ele>
   <time>2014-04-06T14:18:44Z</time>
  </trkpt>
  <trkpt lat="34.012813" lon="-2.106996">
   <ele>954.00</ele>
   <time>2014-04-06T14:18:59Z</time>
  </trkpt>
  <trkpt lat="34.014549" lon="-2.110742">
   <ele>955.00</ele>
   <time>2014-04-06T14:19:15Z</time>
  </trkpt>
  <trkpt lat="34.016184" lon="-2.114271">
   <ele>956.00</ele>
   <time>2014-04-06T14:19:30Z</time>
  </trkpt>
  <trkpt lat="34.017853" lon="-2.117871">
   <ele>956.00</ele>
   <time>2014-04-06T14:19:45Z</time>
  </trkpt>
  <trkpt lat="34.019506" lon="-2.121432">
   <ele>956.00</ele>
   <time>2014-04-06T14:20:00Z</time>
  </trkpt>
  <trkpt lat="34.021275" lon="-2.125229">
   <ele>957.00</ele>
   <time>2014-04-06T14:20:16Z</time>
  </trkpt>
  <trkpt lat="34.022247" lon="-2.127378">
   <ele>957.00</ele>
   <time>2014-04-06T14:20:25Z</time>
  </trkpt>
  <trkpt lat="34.022438" lon="-2.127869">
   <ele>958.00</ele>
   <time>2014-04-06T14:20:27Z</time>
  </trkpt>
  <trkpt lat="34.023749" lon="-2.131671">
   <ele>959.00</ele>
   <time>2014-04-06T14:20:42Z</time>
  </trkpt>
  <trkpt lat="34.025142" lon="-2.135775">
   <ele>959.00</ele>
   <time>2014-04-06T14:20:58Z</time>
  </trkpt>
  <trkpt lat="34.026443" lon="-2.139584">
   <ele>958.00</ele>
   <time>2014-04-06T14:21:13Z</time>
  </trkpt>
  <trkpt lat="34.027745" lon="-2.143337">
   <ele>959.00</ele>
   <time>2014-04-06T14:21:28Z</time>
  </trkpt>
  <trkpt lat="34.029131" lon="-2.147337">
   <ele>962.00</ele>
   <time>2014-04-06T14:21:44Z</time>
  </trkpt>
  <trkpt lat="34.030402" lon="-2.151085">
   <ele>963.00</ele>
   <time>2014-04-06T14:21:59Z</time>
  </trkpt>
  <trkpt lat="34.031052" lon="-2.153015">
   <ele>964.00</ele>
   <time>2014-04-06T14:22:07Z</time>
  </trkpt>
  <trkpt lat="34.031106" lon="-2.153246">
   <ele>965.00</ele>
   <time>2014-04-06T14:22:08Z</time>
  </trkpt>
  <trkpt lat="34.031139" lon="-2.153479">
   <ele>965.00</ele>
   <time>2014-04-06T14:22:09Z</time>
  </trkpt>
  <trkpt lat="34.031153" lon="-2.153714">
   <ele>964.00</ele>
   <time>2014-04-06T14:22:10Z</time>
  </trkpt>
  <trkpt lat="34.031146" lon="-2.153951">
   <ele>964.00</ele>
   <time>2014-04-06T14:22:11Z</time>
  </trkpt>
  <trkpt lat="34.031098" lon="-2.154425">
   <ele>964.00</ele>
   <time>2014-04-06T14:22:13Z</time>
  </trkpt>
  <trkpt lat="34.031060" lon="-2.154663">
   <ele>964.00</ele>
   <time>2014-04-06T14:22:14Z</time>
  </trkpt>
  <trkpt lat="34.030880" lon="-2.155613">
   <ele>965.00</ele>
   <time>2014-04-06T14:22:18Z</time>
  </trkpt>
  <trkpt lat="34.030494" lon="-2.157493">
   <ele>966.00</ele>
   <time>2014-04-06T14:22:26Z</time>
  </trkpt>
  <trkpt lat="34.029672" lon="-2.160908">
   <ele>964.00</ele>
   <time>2014-04-06T14:22:41Z</time>
  </trkpt>
  <trkpt lat="34.029587" lon="-2.161352">
   <ele>963.00</ele>
   <time>2014-04-06T14:22:43Z</time>
  </trkpt>
  <trkpt lat="34.029571" lon="-2.161578">
   <ele>963.00</ele>
   <time>2014-04-06T14:22:44Z</time>
  </trkpt>
  <trkpt lat="34.029578" lon="-2.161805">
   <ele>962.00</ele>
   <time>2014-04-06T14:22:45Z</time>
  </trkpt>
  <trkpt lat="34.029614" lon="-2.162025">
   <ele>962.00</ele>
   <time>2014-04-06T14:22:46Z</time>
  </trkpt>
  <trkpt lat="34.029687" lon="-2.162230">
   <ele>961.00</ele>
   <time>2014-04-06T14:22:47Z</time>
  </trkpt>
  <trkpt lat="34.029781" lon="-2.162427">
   <ele>961.00</ele>
   <time>2014-04-06T14:22:48Z</time>
  </trkpt>
  <trkpt lat="34.029883" lon="-2.162619">
   <ele>961.00</ele>
   <time>2014-04-06T14:22:49Z</time>
  </trkpt>
  <trkpt lat="34.029995" lon="-2.162802">
   <ele>962.00</ele>
   <time>2014-04-06T14:22:50Z</time>
  </trkpt>
  <trkpt lat="34.030132" lon="-2.162959">
   <ele>961.00</ele>
   <time>2014-04-06T14:22:51Z</time>
  </trkpt>
  <trkpt lat="34.030286" lon="-2.163078">
   <ele>961.00</ele>
   <time>2014-04-06T14:22:52Z</time>
  </trkpt>
  <trkpt lat="34.030609" lon="-2.163251">
   <ele>961.00</ele>
   <time>2014-04-06T14:22:54Z</time>
  </trkpt>
  <trkpt lat="34.030953" lon="-2.163350">
   <ele>960.00</ele>
   <time>2014-04-06T14:22:56Z</time>
  </trkpt>
  <trkpt lat="34.031304" lon="-2.163367">
   <ele>960.00</ele>
   <time>2014-04-06T14:22:58Z</time>
  </trkpt>
  <trkpt lat="34.031651" lon="-2.163322">
   <ele>960.00</ele>
   <time>2014-04-06T14:23:00Z</time>
  </trkpt>
  <trkpt lat="34.033056" lon="-2.163074">
   <ele>960.00</ele>
   <time>2014-04-06T14:23:08Z</time>
  </trkpt>
  <trkpt lat="34.033404" lon="-2.163070">
   <ele>961.00</ele>
   <time>2014-04-06T14:23:10Z</time>
  </trkpt>
  <trkpt lat="34.033749" lon="-2.163134">
   <ele>961.00</ele>
   <time>2014-04-06T14:23:12Z</time>
  </trkpt>
  <trkpt lat="34.034088" lon="-2.163259">
   <ele>962.00</ele>
   <time>2014-04-06T14:23:14Z</time>
  </trkpt>
  <trkpt lat="34.034251" lon="-2.163352">
   <ele>963.00</ele>
   <time>2014-04-06T14:23:15Z</time>
  </trkpt>
  <trkpt lat="34.034407" lon="-2.163467">
   <ele>964.00</ele>
   <time>2014-04-06T14:23:16Z</time>
  </trkpt>
  <trkpt lat="34.034552" lon="-2.163600">
   <ele>965.00</ele>
   <time>2014-04-06T14:23:17Z</time>
  </trkpt>
  <trkpt lat="34.036827" lon="-2.165806">
   <ele>974.00</ele>
   <time>2014-04-06T14:23:32Z</time>
  </trkpt>
  <trkpt lat="34.039064" lon="-2.167997">
   <ele>987.00</ele>
   <time>2014-04-06T14:23:47Z</time>
  </trkpt>
  <trkpt lat="34.040470" lon="-2.169384">
   <ele>987.00</ele>
   <time>2014-04-06T14:23:56Z</time>
  </trkpt>
  <trkpt lat="34.040764" lon="-2.169727">
   <ele>987.00</ele>
   <time>2014-04-06T14:23:58Z</time>
  </trkpt>
  <trkpt lat="34.041046" lon="-2.170087">
   <ele>987.00</ele>
   <time>2014-04-06T14:24:00Z</time>
  </trkpt>
  <trkpt lat="34.041313" lon="-2.170467">
   <ele>987.00</ele>
   <time>2014-04-06T14:24:02Z</time>
  </trkpt>
  <trkpt lat="34.041567" lon="-2.170866">
   <ele>988.00</ele>
   <time>2014-04-06T14:24:04Z</time>
  </trkpt>
  <trkpt lat="34.041812" lon="-2.171278">
   <ele>987.00</ele>
   <time>2014-04-06T14:24:06Z</time>
  </trkpt>
  <trkpt lat="34.041927" lon="-2.171491">
   <ele>987.00</ele>
   <time>2014-04-06T14:24:07Z</time>
  </trkpt>
  <trkpt lat="34.042145" lon="-2.171933">
   <ele>987.00</ele>
   <time>2014-04-06T14:24:09Z</time>
  </trkpt>
  <trkpt lat="34.042766" lon="-2.173308">
   <ele>988.00</ele>
   <time>2014-04-06T14:24:15Z</time>
  </trkpt>
  <trkpt lat="34.044378" lon="-2.177018">
   <ele>994.00</ele>
   <time>2014-04-06T14:24:31Z</time>
  </trkpt>
  <trkpt lat="34.045847" lon="-2.180375">
   <ele>1001.00</ele>
   <time>2014-04-06T14:24:46Z</time>
  </trkpt>
  <trkpt lat="34.047324" lon="-2.183715">
   <ele>1013.00</ele>
   <time>2014-04-06T14:25:01Z</time>
  </trkpt>
  <trkpt lat="34.047902" lon="-2.185026">
   <ele>1017.00</ele>
   <time>2014-04-06T14:25:07Z</time>
  </trkpt>
  <trkpt lat="34.048060" lon="-2.185459">
   <ele>1019.00</ele>
   <time>2014-04-06T14:25:09Z</time>
  </trkpt>
  <trkpt lat="34.048124" lon="-2.185680">
   <ele>1020.00</ele>
   <time>2014-04-06T14:25:10Z</time>
  </trkpt>
  <trkpt lat="34.048180" lon="-2.185902">
   <ele>1021.00</ele>
   <time>2014-04-06T14:25:11Z</time>
  </trkpt>
  <trkpt lat="34.048229" lon="-2.186127">
   <ele>1022.00</ele>
   <time>2014-04-06T14:25:12Z</time>
  </trkpt>
  <trkpt lat="34.048308" lon="-2.186580">
   <ele>1025.00</ele>
   <time>2014-04-06T14:25:14Z</time>
  </trkpt>
  <trkpt lat="34.048360" lon="-2.187035">
   <ele>1027.00</ele>
   <time>2014-04-06T14:25:16Z</time>
  </trkpt>
  <trkpt lat="34.048388" lon="-2.187493">
   <ele>1030.00</ele>
   <time>2014-04-06T14:25:18Z</time>
  </trkpt>
  <trkpt lat="34.048390" lon="-2.187722">
   <ele>1031.00</ele>
   <time>2014-04-06T14:25:19Z</time>
  </trkpt>
  <trkpt lat="34.048381" lon="-2.188177">
   <ele>1033.00</ele>
   <time>2014-04-06T14:25:21Z</time>
  </trkpt>
  <trkpt lat="34.048368" lon="-2.188402">
   <ele>1034.00</ele>
   <time>2014-04-06T14:25:22Z</time>
  </trkpt>
  <trkpt lat="34.048348" lon="-2.188625">
   <ele>1035.00</ele>
   <time>2014-04-06T14:25:23Z</time>
  </trkpt>
  <trkpt lat="34.048288" lon="-2.189068">
   <ele>1036.00</ele>
   <time>2014-04-06T14:25:25Z</time>
  </trkpt>
  <trkpt lat="34.048247" lon="-2.189290">
   <ele>1037.00</ele>
   <time>2014-04-06T14:25:26Z</time>
  </trkpt>
  <trkpt lat="34.048200" lon="-2.189511">
   <ele>1037.00</ele>
   <time>2014-04-06T14:25:27Z</time>
  </trkpt>
  <trkpt lat="34.048145" lon="-2.189732">
   <ele>1037.00</ele>
   <time>2014-04-06T14:25:28Z</time>
  </trkpt>
  <trkpt lat="34.048082" lon="-2.189952">
   <ele>1037.00</ele>
   <time>2014-04-06T14:25:29Z</time>
  </trkpt>
  <trkpt lat="34.047933" lon="-2.190388">
   <ele>1038.00</ele>
   <time>2014-04-06T14:25:31Z</time>
  </trkpt>
  <trkpt lat="34.047848" lon="-2.190603">
   <ele>1038.00</ele>
   <time>2014-04-06T14:25:32Z</time>
  </trkpt>
  <trkpt lat="34.047659" lon="-2.191029">
   <ele>1038.00</ele>
   <time>2014-04-06T14:25:34Z</time>
  </trkpt>
  <trkpt lat="34.046120" lon="-2.194359">
   <ele>1038.00</ele>
   <time>2014-04-06T14:25:49Z</time>
  </trkpt>
  <trkpt lat="34.044533" lon="-2.197818">
   <ele>1038.00</ele>
   <time>2014-04-06T14:26:04Z</time>
  </trkpt>
  <trkpt lat="34.042970" lon="-2.201244">
   <ele>1038.00</ele>
   <time>2014-04-06T14:26:19Z</time>
  </trkpt>
  <trkpt lat="34.041330" lon="-2.204845">
   <ele>1039.00</ele>
   <time>2014-04-06T14:26:35Z</time>
  </trkpt>
  <trkpt lat="34.039773" lon="-2.208268">
   <ele>1040.00</ele>
   <time>2014-04-06T14:26:50Z</time>
  </trkpt>
  <trkpt lat="34.038187" lon="-2.211752">
   <ele>1039.00</ele>
   <time>2014-04-06T14:27:05Z</time>
  </trkpt>
  <trkpt lat="34.036479" lon="-2.215515">
   <ele>1039.00</ele>
   <time>2014-04-06T14:27:21Z</time>
  </trkpt>
  <trkpt lat="34.034840" lon="-2.219115">
   <ele>1040.00</ele>
   <time>2014-04-06T14:27:36Z</time>
  </trkpt>
  <trkpt lat="34.033198" lon="-2.222729">
   <ele>1042.00</ele>
   <time>2014-04-06T14:27:51Z</time>
  </trkpt>
  <trkpt lat="34.031445" lon="-2.226590">
   <ele>1042.00</ele>
   <time>2014-04-06T14:28:07Z</time>
  </trkpt>
  <trkpt lat="34.029808" lon="-2.230186">
   <ele>1043.00</ele>
   <time>2014-04-06T14:28:22Z</time>
  </trkpt>
  <trkpt lat="34.028142" lon="-2.233838">
   <ele>1045.00</ele>
   <time>2014-04-06T14:28:37Z</time>
  </trkpt>
  <trkpt lat="34.026528" lon="-2.237401">
   <ele>1046.00</ele>
   <time>2014-04-06T14:28:52Z</time>
  </trkpt>
  <trkpt lat="34.024819" lon="-2.241146">
   <ele>1047.00</ele>
   <time>2014-04-06T14:29:08Z</time>
  </trkpt>
  <trkpt lat="34.023160" lon="-2.244791">
   <ele>1049.00</ele>
   <time>2014-04-06T14:29:23Z</time>
  </trkpt>
  <trkpt lat="34.021358" lon="-2.248747">
   <ele>1051.00</ele>
   <time>2014-04-06T14:29:39Z</time>
  </trkpt>
  <trkpt lat="34.019651" lon="-2.252503">
   <ele>1051.00</ele>
   <time>2014-04-06T14:29:54Z</time>
  </trkpt>
  <trkpt lat="34.017954" lon="-2.256238">
   <ele>1052.00</ele>
   <time>2014-04-06T14:30:09Z</time>
  </trkpt>
  <trkpt lat="34.016239" lon="-2.260008">
   <ele>1053.00</ele>
   <time>2014-04-06T14:30:24Z</time>
  </trkpt>
  <trkpt lat="34.014364" lon="-2.264125">
   <ele>1054.00</ele>
   <time>2014-04-06T14:30:40Z</time>
  </trkpt>
  <trkpt lat="34.012644" lon="-2.267899">
   <ele>1054.00</ele>
   <time>2014-04-06T14:30:55Z</time>
  </trkpt>
  <trkpt lat="34.011037" lon="-2.271433">
   <ele>1055.00</ele>
   <time>2014-04-06T14:31:10Z</time>
  </trkpt>
  <trkpt lat="34.009269" lon="-2.275314">
   <ele>1057.00</ele>
   <time>2014-04-06T14:31:26Z</time>
  </trkpt>
  <trkpt lat="34.007640" lon="-2.278920">
   <ele>1058.00</ele>
   <time>2014-04-06T14:31:41Z</time>
  </trkpt>
  <trkpt lat="34.007249" lon="-2.279882">
   <ele>1058.00</ele>
   <time>2014-04-06T14:31:45Z</time>
  </trkpt>
  <trkpt lat="34.006987" lon="-2.280623">
   <ele>1060.00</ele>
   <time>2014-04-06T14:31:48Z</time>
  </trkpt>
  <trkpt lat="34.006754" lon="-2.281385">
   <ele>1062.00</ele>
   <time>2014-04-06T14:31:51Z</time>
  </trkpt>
  <trkpt lat="34.005587" lon="-2.285257">
   <ele>1066.00</ele>
   <time>2014-04-06T14:32:06Z</time>
  </trkpt>
  <trkpt lat="34.004413" lon="-2.289092">
   <ele>1068.00</ele>
   <time>2014-04-06T14:32:21Z</time>
  </trkpt>
  <trkpt lat="34.003105" lon="-2.293352">
   <ele>1069.00</ele>
   <time>2014-04-06T14:32:37Z</time>
  </trkpt>
  <trkpt lat="34.001863" lon="-2.297401">
   <ele>1070.00</ele>
   <time>2014-04-06T14:32:53Z</time>
  </trkpt>
  <trkpt lat="34.000708" lon="-2.301149">
   <ele>1070.00</ele>
   <time>2014-04-06T14:33:08Z</time>
  </trkpt>
  <trkpt lat="33.999544" lon="-2.304937">
   <ele>1072.00</ele>
   <time>2014-04-06T14:33:23Z</time>
  </trkpt>
  <trkpt lat="33.998338" lon="-2.308900">
   <ele>1073.00</ele>
   <time>2014-04-06T14:33:38Z</time>
  </trkpt>
  <trkpt lat="33.997024" lon="-2.313181">
   <ele>1076.00</ele>
   <time>2014-04-06T14:33:54Z</time>
  </trkpt>
  <trkpt lat="33.995814" lon="-2.317200">
   <ele>1079.00</ele>
   <time>2014-04-06T14:34:09Z</time>
  </trkpt>
  <trkpt lat="33.994570" lon="-2.321267">
   <ele>1082.00</ele>
   <time>2014-04-06T14:34:24Z</time>
  </trkpt>
  <trkpt lat="33.993264" lon="-2.325547">
   <ele>1085.00</ele>
   <time>2014-04-06T14:34:40Z</time>
  </trkpt>
  <trkpt lat="33.992017" lon="-2.329614">
   <ele>1087.00</ele>
   <time>2014-04-06T14:34:55Z</time>
  </trkpt>
  <trkpt lat="33.990751" lon="-2.333751">
   <ele>1088.00</ele>
   <time>2014-04-06T14:35:10Z</time>
  </trkpt>
  <trkpt lat="33.989488" lon="-2.337914">
   <ele>1090.00</ele>
   <time>2014-04-06T14:35:25Z</time>
  </trkpt>
  <trkpt lat="33.988139" lon="-2.342347">
   <ele>1092.00</ele>
   <time>2014-04-06T14:35:41Z</time>
  </trkpt>
  <trkpt lat="33.986901" lon="-2.346390">
   <ele>1093.00</ele>
   <time>2014-04-06T14:35:56Z</time>
  </trkpt>
  <trkpt lat="33.985705" lon="-2.350344">
   <ele>1095.00</ele>
   <time>2014-04-06T14:36:11Z</time>
  </trkpt>
  <trkpt lat="33.984942" lon="-2.352759">
   <ele>1095.00</ele>
   <time>2014-04-06T14:36:21Z</time>
  </trkpt>
  <trkpt lat="33.984677" lon="-2.353456">
   <ele>1095.00</ele>
   <time>2014-04-06T14:36:24Z</time>
  </trkpt>
  <trkpt lat="33.984392" lon="-2.354129">
   <ele>1095.00</ele>
   <time>2014-04-06T14:36:27Z</time>
  </trkpt>
  <trkpt lat="33.984112" lon="-2.354728">
   <ele>1095.00</ele>
   <time>2014-04-06T14:36:30Z</time>
  </trkpt>
  <trkpt lat="33.983617" lon="-2.355731">
   <ele>1094.00</ele>
   <time>2014-04-06T14:36:37Z</time>
  </trkpt>
  <trkpt lat="33.983574" lon="-2.355983">
   <ele>1094.00</ele>
   <time>2014-04-06T14:36:39Z</time>
  </trkpt>
  <trkpt lat="33.983650" lon="-2.356225">
   <ele>1094.00</ele>
   <time>2014-04-06T14:36:41Z</time>
  </trkpt>
  <trkpt lat="33.983790" lon="-2.356441">
   <ele>1094.00</ele>
   <time>2014-04-06T14:36:43Z</time>
  </trkpt>
  <trkpt lat="33.983963" lon="-2.356659">
   <ele>1094.00</ele>
   <time>2014-04-06T14:36:45Z</time>
  </trkpt>
  <trkpt lat="33.985678" lon="-2.358894">
   <ele>1095.00</ele>
   <time>2014-04-06T14:37:00Z</time>
  </trkpt>
  <trkpt lat="33.987764" lon="-2.361650">
   <ele>1095.00</ele>
   <time>2014-04-06T14:37:15Z</time>
  </trkpt>
  <trkpt lat="33.990028" lon="-2.364656">
   <ele>1096.00</ele>
   <time>2014-04-06T14:37:30Z</time>
  </trkpt>
  <trkpt lat="33.992398" lon="-2.367818">
   <ele>1097.00</ele>
   <time>2014-04-06T14:37:46Z</time>
  </trkpt>
  <trkpt lat="33.992708" lon="-2.368200">
   <ele>1097.00</ele>
   <time>2014-04-06T14:37:48Z</time>
  </trkpt>
  <trkpt lat="33.993039" lon="-2.368564">
   <ele>1097.00</ele>
   <time>2014-04-06T14:37:50Z</time>
  </trkpt>
  <trkpt lat="33.993216" lon="-2.368733">
   <ele>1097.00</ele>
   <time>2014-04-06T14:37:51Z</time>
  </trkpt>
  <trkpt lat="33.993400" lon="-2.368893">
   <ele>1097.00</ele>
   <time>2014-04-06T14:37:52Z</time>
  </trkpt>
  <trkpt lat="33.996367" lon="-2.371259">
   <ele>1098.00</ele>
   <time>2014-04-06T14:38:07Z</time>
  </trkpt>
  <trkpt lat="33.999483" lon="-2.373746">
   <ele>1099.00</ele>
   <time>2014-04-06T14:38:23Z</time>
  </trkpt>
  <trkpt lat="34.002354" lon="-2.376095">
   <ele>1101.00</ele>
   <time>2014-04-06T14:38:38Z</time>
  </trkpt>
  <trkpt lat="34.003973" lon="-2.377326">
   <ele>1101.00</ele>
   <time>2014-04-06T14:38:46Z</time>
  </trkpt>
  <trkpt lat="34.004170" lon="-2.377451">
   <ele>1101.00</ele>
   <time>2014-04-06T14:38:47Z</time>
  </trkpt>
  <trkpt lat="34.004373" lon="-2.377560">
   <ele>1101.00</ele>
   <time>2014-04-06T14:38:48Z</time>
  </trkpt>
  <trkpt lat="34.004580" lon="-2.377657">
   <ele>1101.00</ele>
   <time>2014-04-06T14:38:49Z</time>
  </trkpt>
  <trkpt lat="34.005001" lon="-2.377832">
   <ele>1101.00</ele>
   <time>2014-04-06T14:38:51Z</time>
  </trkpt>
  <trkpt lat="34.008451" lon="-2.379129">
   <ele>1098.00</ele>
   <time>2014-04-06T14:39:07Z</time>
  </trkpt>
  <trkpt lat="34.011275" lon="-2.380205">
   <ele>1095.00</ele>
   <time>2014-04-06T14:39:22Z</time>
  </trkpt>
  <trkpt lat="34.012545" lon="-2.380670">
   <ele>1093.00</ele>
   <time>2014-04-06T14:39:30Z</time>
  </trkpt>
  <trkpt lat="34.012849" lon="-2.380753">
   <ele>1093.00</ele>
   <time>2014-04-06T14:39:32Z</time>
  </trkpt>
  <trkpt lat="34.013151" lon="-2.380796">
   <ele>1093.00</ele>
   <time>2014-04-06T14:39:34Z</time>
  </trkpt>
  <trkpt lat="34.014712" lon="-2.380891">
   <ele>1091.00</ele>
   <time>2014-04-06T14:39:45Z</time>
  </trkpt>
  <trkpt lat="34.014980" lon="-2.380912">
   <ele>1091.00</ele>
   <time>2014-04-06T14:39:47Z</time>
  </trkpt>
  <trkpt lat="34.016473" lon="-2.381033">
   <ele>1090.00</ele>
   <time>2014-04-06T14:39:58Z</time>
  </trkpt>
  <trkpt lat="34.016751" lon="-2.381086">
   <ele>1089.00</ele>
   <time>2014-04-06T14:40:00Z</time>
  </trkpt>
  <trkpt lat="34.017026" lon="-2.381158">
   <ele>1089.00</ele>
   <time>2014-04-06T14:40:02Z</time>
  </trkpt>
  <trkpt lat="34.017440" lon="-2.381290">
   <ele>1088.00</ele>
   <time>2014-04-06T14:40:05Z</time>
  </trkpt>
  <trkpt lat="34.019514" lon="-2.382051">
   <ele>1081.00</ele>
   <time>2014-04-06T14:40:20Z</time>
  </trkpt>
  <trkpt lat="34.021434" lon="-2.382752">
   <ele>1081.00</ele>
   <time>2014-04-06T14:40:36Z</time>
  </trkpt>
  <trkpt lat="34.023038" lon="-2.383337">
   <ele>1081.00</ele>
   <time>2014-04-06T14:40:51Z</time>
  </trkpt>
  <trkpt lat="34.024656" lon="-2.383930">
   <ele>1082.00</ele>
   <time>2014-04-06T14:41:04Z</time>
  </trkpt>
  <trkpt lat="34.024917" lon="-2.384056">
   <ele>1082.00</ele>
   <time>2014-04-06T14:41:06Z</time>
  </trkpt>
  <trkpt lat="34.025180" lon="-2.384203">
   <ele>1082.00</ele>
   <time>2014-04-06T14:41:08Z</time>
  </trkpt>
  <trkpt lat="34.025449" lon="-2.384371">
   <ele>1083.00</ele>
   <time>2014-04-06T14:41:10Z</time>
  </trkpt>
  <trkpt lat="34.026292" lon="-2.384944">
   <ele>1085.00</ele>
   <time>2014-04-06T14:41:16Z</time>
  </trkpt>
  <trkpt lat="34.028208" lon="-2.386296">
   <ele>1094.00</ele>
   <time>2014-04-06T14:41:29Z</time>
  </trkpt>
  <trkpt lat="34.028463" lon="-2.386548">
   <ele>1094.00</ele>
   <time>2014-04-06T14:41:31Z</time>
  </trkpt>
  <trkpt lat="34.028705" lon="-2.386839">
   <ele>1095.00</ele>
   <time>2014-04-06T14:41:33Z</time>
  </trkpt>
  <trkpt lat="34.028937" lon="-2.387148">
   <ele>1095.00</ele>
   <time>2014-04-06T14:41:35Z</time>
  </trkpt>
  <trkpt lat="34.029139" lon="-2.387489">
   <ele>1095.00</ele>
   <time>2014-04-06T14:41:37Z</time>
  </trkpt>
  <trkpt lat="34.029297" lon="-2.387859">
   <ele>1095.00</ele>
   <time>2014-04-06T14:41:39Z</time>
  </trkpt>
  <trkpt lat="34.029425" lon="-2.388243">
   <ele>1095.00</ele>
   <time>2014-04-06T14:41:41Z</time>
  </trkpt>
  <trkpt lat="34.029528" lon="-2.388627">
   <ele>1095.00</ele>
   <time>2014-04-06T14:41:43Z</time>
  </trkpt>
  <trkpt lat="34.029606" lon="-2.389017">
   <ele>1095.00</ele>
   <time>2014-04-06T14:41:45Z</time>
  </trkpt>
  <trkpt lat="34.029651" lon="-2.389412">
   <ele>1095.00</ele>
   <time>2014-04-06T14:41:47Z</time>
  </trkpt>
  <trkpt lat="34.029664" lon="-2.389812">
   <ele>1095.00</ele>
   <time>2014-04-06T14:41:49Z</time>
  </trkpt>
  <trkpt lat="34.029645" lon="-2.390215">
   <ele>1095.00</ele>
   <time>2014-04-06T14:41:51Z</time>
  </trkpt>
  <trkpt lat="34.029581" lon="-2.390833">
   <ele>1096.00</ele>
   <time>2014-04-06T14:41:54Z</time>
  </trkpt>
  <trkpt lat="34.029227" lon="-2.393998">
   <ele>1098.00</ele>
   <time>2014-04-06T14:42:09Z</time>
  </trkpt>
  <trkpt lat="34.029153" lon="-2.394840">
   <ele>1100.00</ele>
   <time>2014-04-06T14:42:13Z</time>
  </trkpt>
  <trkpt lat="34.029134" lon="-2.395268">
   <ele>1100.00</ele>
   <time>2014-04-06T14:42:15Z</time>
  </trkpt>
  <trkpt lat="34.029129" lon="-2.396126">
   <ele>1101.00</ele>
   <time>2014-04-06T14:42:19Z</time>
  </trkpt>
  <trkpt lat="34.029145" lon="-2.399336">
   <ele>1103.00</ele>
   <time>2014-04-06T14:42:34Z</time>
  </trkpt>
  <trkpt lat="34.029159" lon="-2.402574">
   <ele>1106.00</ele>
   <time>2014-04-06T14:42:49Z</time>
  </trkpt>
  <trkpt lat="34.029141" lon="-2.406083">
   <ele>1108.00</ele>
   <time>2014-04-06T14:43:05Z</time>
  </trkpt>
  <trkpt lat="34.029111" lon="-2.409453">
   <ele>1108.00</ele>
   <time>2014-04-06T14:43:20Z</time>
  </trkpt>
  <trkpt lat="34.029090" lon="-2.412891">
   <ele>1109.00</ele>
   <time>2014-04-06T14:43:35Z</time>
  </trkpt>
  <trkpt lat="34.029081" lon="-2.416334">
   <ele>1108.00</ele>
   <time>2014-04-06T14:43:50Z</time>
  </trkpt>
  <trkpt lat="34.029073" lon="-2.420056">
   <ele>1104.00</ele>
   <time>2014-04-06T14:44:06Z</time>
  </trkpt>
  <trkpt lat="34.029075" lon="-2.423524">
   <ele>1109.00</ele>
   <time>2014-04-06T14:44:21Z</time>
  </trkpt>
  <trkpt lat="34.029075" lon="-2.426997">
   <ele>1114.00</ele>
   <time>2014-04-06T14:44:36Z</time>
  </trkpt>
  <trkpt lat="34.029069" lon="-2.430483">
   <ele>1117.00</ele>
   <time>2014-04-06T14:44:51Z</time>
  </trkpt>
  <trkpt lat="34.029087" lon="-2.434138">
   <ele>1118.00</ele>
   <time>2014-04-06T14:45:07Z</time>
  </trkpt>
  <trkpt lat="34.029084" lon="-2.435390">
   <ele>1119.00</ele>
   <time>2014-04-06T14:45:13Z</time>
  </trkpt>
  <trkpt lat="34.029071" lon="-2.436028">
   <ele>1119.00</ele>
   <time>2014-04-06T14:45:16Z</time>
  </trkpt>
  <trkpt lat="34.029086" lon="-2.439477">
   <ele>1121.00</ele>
   <time>2014-04-06T14:45:32Z</time>
  </trkpt>
  <trkpt lat="34.029097" lon="-2.440040">
   <ele>1122.00</ele>
   <time>2014-04-06T14:45:35Z</time>
  </trkpt>
  <trkpt lat="34.029105" lon="-2.440413">
   <ele>1122.00</ele>
   <time>2014-04-06T14:45:37Z</time>
  </trkpt>
  <trkpt lat="34.029100" lon="-2.441182">
   <ele>1122.00</ele>
   <time>2014-04-06T14:45:41Z</time>
  </trkpt>
  <trkpt lat="34.029085" lon="-2.441979">
   <ele>1123.00</ele>
   <time>2014-04-06T14:45:45Z</time>
  </trkpt>
  <trkpt lat="34.029099" lon="-2.445308">
   <ele>1124.00</ele>
   <time>2014-04-06T14:46:01Z</time>
  </trkpt>
  <trkpt lat="34.029108" lon="-2.448663">
   <ele>1127.00</ele>
   <time>2014-04-06T14:46:16Z</time>
  </trkpt>
  <trkpt lat="34.029111" lon="-2.452400">
   <ele>1124.00</ele>
   <time>2014-04-06T14:46:32Z</time>
  </trkpt>
  <trkpt lat="34.029119" lon="-2.455888">
   <ele>1124.00</ele>
   <time>2014-04-06T14:46:47Z</time>
  </trkpt>
  <trkpt lat="34.029130" lon="-2.459357">
   <ele>1126.00</ele>
   <time>2014-04-06T14:47:02Z</time>
  </trkpt>
  <trkpt lat="34.029136" lon="-2.462852">
   <ele>1129.00</ele>
   <time>2014-04-06T14:47:17Z</time>
  </trkpt>
  <trkpt lat="34.029154" lon="-2.466308">
   <ele>1133.00</ele>
   <time>2014-04-06T14:47:32Z</time>
  </trkpt>
  <trkpt lat="34.029155" lon="-2.468524">
   <ele>1134.00</ele>
   <time>2014-04-06T14:47:42Z</time>
  </trkpt>
  <trkpt lat="34.029174" lon="-2.469197">
   <ele>1135.00</ele>
   <time>2014-04-06T14:47:45Z</time>
  </trkpt>
  <trkpt lat="34.029194" lon="-2.472551">
   <ele>1137.00</ele>
   <time>2014-04-06T14:48:00Z</time>
  </trkpt>
  <trkpt lat="34.029168" lon="-2.473215">
   <ele>1137.00</ele>
   <time>2014-04-06T14:48:03Z</time>
  </trkpt>
  <trkpt lat="34.029020" lon="-2.476647">
   <ele>1139.00</ele>
   <time>2014-04-06T14:48:18Z</time>
  </trkpt>
  <trkpt lat="34.028864" lon="-2.480367">
   <ele>1141.00</ele>
   <time>2014-04-06T14:48:34Z</time>
  </trkpt>
  <trkpt lat="34.028714" lon="-2.483878">
   <ele>1143.00</ele>
   <time>2014-04-06T14:48:49Z</time>
  </trkpt>
  <trkpt lat="34.028565" lon="-2.487427">
   <ele>1146.00</ele>
   <time>2014-04-06T14:49:04Z</time>
  </trkpt>
  <trkpt lat="34.028383" lon="-2.490942">
   <ele>1149.00</ele>
   <time>2014-04-06T14:49:19Z</time>
  </trkpt>
  <trkpt lat="34.028132" lon="-2.494812">
   <ele>1148.00</ele>
   <time>2014-04-06T14:49:35Z</time>
  </trkpt>
  <trkpt lat="34.027892" lon="-2.498635">
   <ele>1143.00</ele>
   <time>2014-04-06T14:49:50Z</time>
  </trkpt>
  <trkpt lat="34.027665" lon="-2.502346">
   <ele>1145.00</ele>
   <time>2014-04-06T14:50:05Z</time>
  </trkpt>
  <trkpt lat="34.027423" lon="-2.506356">
   <ele>1150.00</ele>
   <time>2014-04-06T14:50:21Z</time>
  </trkpt>
  <trkpt lat="34.027283" lon="-2.508550">
   <ele>1153.00</ele>
   <time>2014-04-06T14:50:30Z</time>
  </trkpt>
  <trkpt lat="34.027251" lon="-2.508785">
   <ele>1153.00</ele>
   <time>2014-04-06T14:50:31Z</time>
  </trkpt>
  <trkpt lat="34.026912" lon="-2.510687">
   <ele>1153.00</ele>
   <time>2014-04-06T14:50:39Z</time>
  </trkpt>
  <trkpt lat="34.026248" lon="-2.514416">
   <ele>1152.00</ele>
   <time>2014-04-06T14:50:54Z</time>
  </trkpt>
  <trkpt lat="34.025583" lon="-2.518153">
   <ele>1155.00</ele>
   <time>2014-04-06T14:51:09Z</time>
  </trkpt>
  <trkpt lat="34.024863" lon="-2.522236">
   <ele>1159.00</ele>
   <time>2014-04-06T14:51:25Z</time>
  </trkpt>
  <trkpt lat="34.024425" lon="-2.524594">
   <ele>1159.00</ele>
   <time>2014-04-06T14:51:34Z</time>
  </trkpt>
  <trkpt lat="34.023513" lon="-2.528483">
   <ele>1161.00</ele>
   <time>2014-04-06T14:51:49Z</time>
  </trkpt>
  <trkpt lat="34.022636" lon="-2.532219">
   <ele>1162.00</ele>
   <time>2014-04-06T14:52:04Z</time>
  </trkpt>
  <trkpt lat="34.021870" lon="-2.535476">
   <ele>1164.00</ele>
   <time>2014-04-06T14:52:19Z</time>
  </trkpt>
  <trkpt lat="34.021028" lon="-2.539020">
   <ele>1167.00</ele>
   <time>2014-04-06T14:52:35Z</time>
  </trkpt>
  <trkpt lat="34.020209" lon="-2.542513">
   <ele>1170.00</ele>
   <time>2014-04-06T14:52:50Z</time>
  </trkpt>
  <trkpt lat="34.019380" lon="-2.546037">
   <ele>1173.00</ele>
   <time>2014-04-06T14:53:05Z</time>
  </trkpt>
  <trkpt lat="34.019293" lon="-2.546496">
   <ele>1173.00</ele>
   <time>2014-04-06T14:53:07Z</time>
  </trkpt>
  <trkpt lat="34.019263" lon="-2.546727">
   <ele>1173.00</ele>
   <time>2014-04-06T14:53:08Z</time>
  </trkpt>
  <trkpt lat="34.019241" lon="-2.546960">
   <ele>1173.00</ele>
   <time>2014-04-06T14:53:09Z</time>
  </trkpt>
  <trkpt lat="34.019228" lon="-2.547194">
   <ele>1174.00</ele>
   <time>2014-04-06T14:53:10Z</time>
  </trkpt>
  <trkpt lat="34.019215" lon="-2.547889">
   <ele>1174.00</ele>
   <time>2014-04-06T14:53:13Z</time>
  </trkpt>
  <trkpt lat="34.019169" lon="-2.551387">
   <ele>1178.00</ele>
   <time>2014-04-06T14:53:28Z</time>
  </trkpt>
  <trkpt lat="34.019114" lon="-2.555022">
   <ele>1181.00</ele>
   <time>2014-04-06T14:53:43Z</time>
  </trkpt>
  <trkpt lat="34.019116" lon="-2.555750">
   <ele>1182.00</ele>
   <time>2014-04-06T14:53:46Z</time>
  </trkpt>
  <trkpt lat="34.019138" lon="-2.556235">
   <ele>1182.00</ele>
   <time>2014-04-06T14:53:48Z</time>
  </trkpt>
  <trkpt lat="34.019317" lon="-2.558656">
   <ele>1185.00</ele>
   <time>2014-04-06T14:53:58Z</time>
  </trkpt>
  <trkpt lat="34.019451" lon="-2.559891">
   <ele>1186.00</ele>
   <time>2014-04-06T14:54:03Z</time>
  </trkpt>
  <trkpt lat="34.019531" lon="-2.560385">
   <ele>1187.00</ele>
   <time>2014-04-06T14:54:05Z</time>
  </trkpt>
  <trkpt lat="34.020334" lon="-2.564650">
   <ele>1191.00</ele>
   <time>2014-04-06T14:54:22Z</time>
  </trkpt>
  <trkpt lat="34.021059" lon="-2.568492">
   <ele>1195.00</ele>
   <time>2014-04-06T14:54:37Z</time>
  </trkpt>
  <trkpt lat="34.021839" lon="-2.572617">
   <ele>1199.00</ele>
   <time>2014-04-06T14:54:53Z</time>
  </trkpt>
  <trkpt lat="34.022558" lon="-2.576444">
   <ele>1206.00</ele>
   <time>2014-04-06T14:55:08Z</time>
  </trkpt>
  <trkpt lat="34.023382" lon="-2.580268">
   <ele>1210.00</ele>
   <time>2014-04-06T14:55:23Z</time>
  </trkpt>
  <trkpt lat="34.023589" lon="-2.581273">
   <ele>1213.00</ele>
   <time>2014-04-06T14:55:27Z</time>
  </trkpt>
  <trkpt lat="34.023625" lon="-2.581527">
   <ele>1213.00</ele>
   <time>2014-04-06T14:55:28Z</time>
  </trkpt>
  <trkpt lat="34.023651" lon="-2.581783">
   <ele>1213.00</ele>
   <time>2014-04-06T14:55:29Z</time>
  </trkpt>
  <trkpt lat="34.023666" lon="-2.582041">
   <ele>1214.00</ele>
   <time>2014-04-06T14:55:30Z</time>
  </trkpt>
  <trkpt lat="34.023671" lon="-2.582299">
   <ele>1214.00</ele>
   <time>2014-04-06T14:55:31Z</time>
  </trkpt>
  <trkpt lat="34.023636" lon="-2.584379">
   <ele>1217.00</ele>
   <time>2014-04-06T14:55:39Z</time>
  </trkpt>
  <trkpt lat="34.023592" lon="-2.587885">
   <ele>1226.00</ele>
   <time>2014-04-06T14:55:53Z</time>
  </trkpt>
  <trkpt lat="34.023603" lon="-2.588120">
   <ele>1227.00</ele>
   <time>2014-04-06T14:55:54Z</time>
  </trkpt>
  <trkpt lat="34.023624" lon="-2.588354">
   <ele>1227.00</ele>
   <time>2014-04-06T14:55:55Z</time>
  </trkpt>
  <trkpt lat="34.023688" lon="-2.588824">
   <ele>1228.00</ele>
   <time>2014-04-06T14:55:57Z</time>
  </trkpt>
  <trkpt lat="34.024319" lon="-2.592674">
   <ele>1234.00</ele>
   <time>2014-04-06T14:56:13Z</time>
  </trkpt>
  <trkpt lat="34.024579" lon="-2.594349">
   <ele>1236.00</ele>
   <time>2014-04-06T14:56:20Z</time>
  </trkpt>
  <trkpt lat="34.024620" lon="-2.594836">
   <ele>1236.00</ele>
   <time>2014-04-06T14:56:22Z</time>
  </trkpt>
  <trkpt lat="34.024861" lon="-2.598647">
   <ele>1246.00</ele>
   <time>2014-04-06T14:56:38Z</time>
  </trkpt>
  <trkpt lat="34.024861" lon="-2.598878">
   <ele>1247.00</ele>
   <time>2014-04-06T14:56:39Z</time>
  </trkpt>
  <trkpt lat="34.024848" lon="-2.599105">
   <ele>1247.00</ele>
   <time>2014-04-06T14:56:40Z</time>
  </trkpt>
  <trkpt lat="34.024818" lon="-2.599332">
   <ele>1248.00</ele>
   <time>2014-04-06T14:56:41Z</time>
  </trkpt>
  <trkpt lat="34.024773" lon="-2.599557">
   <ele>1248.00</ele>
   <time>2014-04-06T14:56:42Z</time>
  </trkpt>
  <trkpt lat="34.024715" lon="-2.599781">
   <ele>1248.00</ele>
   <time>2014-04-06T14:56:43Z</time>
  </trkpt>
  <trkpt lat="34.024645" lon="-2.600000">
   <ele>1248.00</ele>
   <time>2014-04-06T14:56:44Z</time>
  </trkpt>
  <trkpt lat="34.024488" lon="-2.600428">
   <ele>1248.00</ele>
   <time>2014-04-06T14:56:46Z</time>
  </trkpt>
  <trkpt lat="34.024188" lon="-2.601251">
   <ele>1246.00</ele>
   <time>2014-04-06T14:56:50Z</time>
  </trkpt>
  <trkpt lat="34.024136" lon="-2.601461">
   <ele>1246.00</ele>
   <time>2014-04-06T14:56:51Z</time>
  </trkpt>
  <trkpt lat="34.024082" lon="-2.601884">
   <ele>1246.00</ele>
   <time>2014-04-06T14:56:53Z</time>
  </trkpt>
  <trkpt lat="34.024090" lon="-2.602305">
   <ele>1246.00</ele>
   <time>2014-04-06T14:56:55Z</time>
  </trkpt>
  <trkpt lat="34.024138" lon="-2.602727">
   <ele>1246.00</ele>
   <time>2014-04-06T14:56:57Z</time>
  </trkpt>
  <trkpt lat="34.024231" lon="-2.603335">
   <ele>1246.00</ele>
   <time>2014-04-06T14:57:00Z</time>
  </trkpt>
  <trkpt lat="34.024315" lon="-2.603726">
   <ele>1245.00</ele>
   <time>2014-04-06T14:57:02Z</time>
  </trkpt>
  <trkpt lat="34.024433" lon="-2.604115">
   <ele>1244.00</ele>
   <time>2014-04-06T14:57:04Z</time>
  </trkpt>
  <trkpt lat="34.024571" lon="-2.604498">
   <ele>1243.00</ele>
   <time>2014-04-06T14:57:06Z</time>
  </trkpt>
  <trkpt lat="34.024786" lon="-2.605058">
   <ele>1240.00</ele>
   <time>2014-04-06T14:57:09Z</time>
  </trkpt>
  <trkpt lat="34.024907" lon="-2.605461">
   <ele>1239.00</ele>
   <time>2014-04-06T14:57:11Z</time>
  </trkpt>
  <trkpt lat="34.025004" lon="-2.605873">
   <ele>1238.00</ele>
   <time>2014-04-06T14:57:13Z</time>
  </trkpt>
  <trkpt lat="34.025163" lon="-2.606618">
   <ele>1235.00</ele>
   <time>2014-04-06T14:57:17Z</time>
  </trkpt>
  <trkpt lat="34.025280" lon="-2.606926">
   <ele>1233.00</ele>
   <time>2014-04-06T14:57:19Z</time>
  </trkpt>
  <trkpt lat="34.025485" lon="-2.607162">
   <ele>1229.00</ele>
   <time>2014-04-06T14:57:21Z</time>
  </trkpt>
  <trkpt lat="34.025757" lon="-2.607339">
   <ele>1225.00</ele>
   <time>2014-04-06T14:57:23Z</time>
  </trkpt>
  <trkpt lat="34.026054" lon="-2.607504">
   <ele>1222.00</ele>
   <time>2014-04-06T14:57:25Z</time>
  </trkpt>
  <trkpt lat="34.026844" lon="-2.607932">
   <ele>1214.00</ele>
   <time>2014-04-06T14:57:30Z</time>
  </trkpt>
  <trkpt lat="34.027109" lon="-2.608150">
   <ele>1211.00</ele>
   <time>2014-04-06T14:57:32Z</time>
  </trkpt>
  <trkpt lat="34.027308" lon="-2.608446">
   <ele>1210.00</ele>
   <time>2014-04-06T14:57:34Z</time>
  </trkpt>
  <trkpt lat="34.027449" lon="-2.608796">
   <ele>1210.00</ele>
   <time>2014-04-06T14:57:36Z</time>
  </trkpt>
  <trkpt lat="34.027659" lon="-2.609485">
   <ele>1212.00</ele>
   <time>2014-04-06T14:57:40Z</time>
  </trkpt>
  <trkpt lat="34.027748" lon="-2.609816">
   <ele>1213.00</ele>
   <time>2014-04-06T14:57:42Z</time>
  </trkpt>
  <trkpt lat="34.027995" lon="-2.610807">
   <ele>1217.00</ele>
   <time>2014-04-06T14:57:48Z</time>
  </trkpt>
  <trkpt lat="34.028112" lon="-2.611122">
   <ele>1218.00</ele>
   <time>2014-04-06T14:57:50Z</time>
  </trkpt>
  <trkpt lat="34.028257" lon="-2.611422">
   <ele>1219.00</ele>
   <time>2014-04-06T14:57:52Z</time>
  </trkpt>
  <trkpt lat="34.028444" lon="-2.611683">
   <ele>1218.00</ele>
   <time>2014-04-06T14:57:54Z</time>
  </trkpt>
  <trkpt lat="34.028767" lon="-2.612049">
   <ele>1213.00</ele>
   <time>2014-04-06T14:57:57Z</time>
  </trkpt>
  <trkpt lat="34.029182" lon="-2.612512">
   <ele>1206.00</ele>
   <time>2014-04-06T14:58:01Z</time>
  </trkpt>
  <trkpt lat="34.029424" lon="-2.612798">
   <ele>1201.00</ele>
   <time>2014-04-06T14:58:04Z</time>
  </trkpt>
  <trkpt lat="34.029597" lon="-2.612922">
   <ele>1198.00</ele>
   <time>2014-04-06T14:58:06Z</time>
  </trkpt>
  <trkpt lat="34.029812" lon="-2.612962">
   <ele>1195.00</ele>
   <time>2014-04-06T14:58:08Z</time>
  </trkpt>
  <trkpt lat="34.030040" lon="-2.612948">
   <ele>1193.00</ele>
   <time>2014-04-06T14:58:10Z</time>
  </trkpt>
  <trkpt lat="34.030375" lon="-2.612932">
   <ele>1189.00</ele>
   <time>2014-04-06T14:58:13Z</time>
  </trkpt>
  <trkpt lat="34.030556" lon="-2.613002">
   <ele>1187.00</ele>
   <time>2014-04-06T14:58:15Z</time>
  </trkpt>
  <trkpt lat="34.030685" lon="-2.613175">
   <ele>1185.00</ele>
   <time>2014-04-06T14:58:17Z</time>
  </trkpt>
  <trkpt lat="34.030748" lon="-2.613424">
   <ele>1183.00</ele>
   <time>2014-04-06T14:58:19Z</time>
  </trkpt>
  <trkpt lat="34.030790" lon="-2.613702">
   <ele>1180.00</ele>
   <time>2014-04-06T14:58:21Z</time>
  </trkpt>
  <trkpt lat="34.030846" lon="-2.614159">
   <ele>1176.00</ele>
   <time>2014-04-06T14:58:24Z</time>
  </trkpt>
  <trkpt lat="34.030889" lon="-2.614484">
   <ele>1174.00</ele>
   <time>2014-04-06T14:58:26Z</time>
  </trkpt>
  <trkpt lat="34.030959" lon="-2.614814">
   <ele>1171.00</ele>
   <time>2014-04-06T14:58:28Z</time>
  </trkpt>
  <trkpt lat="34.031061" lon="-2.615140">
   <ele>1169.00</ele>
   <time>2014-04-06T14:58:30Z</time>
  </trkpt>
  <trkpt lat="34.031186" lon="-2.615457">
   <ele>1167.00</ele>
   <time>2014-04-06T14:58:32Z</time>
  </trkpt>
  <trkpt lat="34.032124" lon="-2.617790">
   <ele>1159.00</ele>
   <time>2014-04-06T14:58:47Z</time>
  </trkpt>
  <trkpt lat="34.032218" lon="-2.618068">
   <ele>1159.00</ele>
   <time>2014-04-06T14:58:49Z</time>
  </trkpt>
  <trkpt lat="34.032302" lon="-2.618350">
   <ele>1158.00</ele>
   <time>2014-04-06T14:58:51Z</time>
  </trkpt>
  <trkpt lat="34.032716" lon="-2.619817">
   <ele>1154.00</ele>
   <time>2014-04-06T14:59:01Z</time>
  </trkpt>
  <trkpt lat="34.032820" lon="-2.620123">
   <ele>1153.00</ele>
   <time>2014-04-06T14:59:03Z</time>
  </trkpt>
  <trkpt lat="34.032958" lon="-2.620415">
   <ele>1151.00</ele>
   <time>2014-04-06T14:59:05Z</time>
  </trkpt>
  <trkpt lat="34.033136" lon="-2.620693">
   <ele>1149.00</ele>
   <time>2014-04-06T14:59:07Z</time>
  </trkpt>
  <trkpt lat="34.033333" lon="-2.620970">
   <ele>1146.00</ele>
   <time>2014-04-06T14:59:09Z</time>
  </trkpt>
  <trkpt lat="34.033745" lon="-2.621534">
   <ele>1142.00</ele>
   <time>2014-04-06T14:59:13Z</time>
  </trkpt>
  <trkpt lat="34.033925" lon="-2.621844">
   <ele>1141.00</ele>
   <time>2014-04-06T14:59:15Z</time>
  </trkpt>
  <trkpt lat="34.034086" lon="-2.622161">
   <ele>1141.00</ele>
   <time>2014-04-06T14:59:17Z</time>
  </trkpt>
  <trkpt lat="34.034226" lon="-2.622488">
   <ele>1141.00</ele>
   <time>2014-04-06T14:59:19Z</time>
  </trkpt>
  <trkpt lat="34.034340" lon="-2.622829">
   <ele>1141.00</ele>
   <time>2014-04-06T14:59:21Z</time>
  </trkpt>
  <trkpt lat="34.034417" lon="-2.623187">
   <ele>1140.00</ele>
   <time>2014-04-06T14:59:23Z</time>
  </trkpt>
  <trkpt lat="34.034474" lon="-2.623548">
   <ele>1140.00</ele>
   <time>2014-04-06T14:59:25Z</time>
  </trkpt>
  <trkpt lat="34.034560" lon="-2.624082">
   <ele>1140.00</ele>
   <time>2014-04-06T14:59:28Z</time>
  </trkpt>
  <trkpt lat="34.034636" lon="-2.624435">
   <ele>1140.00</ele>
   <time>2014-04-06T14:59:30Z</time>
  </trkpt>
  <trkpt lat="34.034751" lon="-2.624775">
   <ele>1140.00</ele>
   <time>2014-04-06T14:59:32Z</time>
  </trkpt>
  <trkpt lat="34.034909" lon="-2.625086">
   <ele>1139.00</ele>
   <time>2014-04-06T14:59:34Z</time>
  </trkpt>
  <trkpt lat="34.035108" lon="-2.625362">
   <ele>1138.00</ele>
   <time>2014-04-06T14:59:36Z</time>
  </trkpt>
  <trkpt lat="34.035339" lon="-2.625608">
   <ele>1137.00</ele>
   <time>2014-04-06T14:59:38Z</time>
  </trkpt>
  <trkpt lat="34.035594" lon="-2.625830">
   <ele>1137.00</ele>
   <time>2014-04-06T14:59:40Z</time>
  </trkpt>
  <trkpt lat="34.037492" lon="-2.627451">
   <ele>1132.00</ele>
   <time>2014-04-06T14:59:55Z</time>
  </trkpt>
  <trkpt lat="34.037737" lon="-2.627702">
   <ele>1132.00</ele>
   <time>2014-04-06T14:59:57Z</time>
  </trkpt>
  <trkpt lat="34.037959" lon="-2.628001">
   <ele>1132.00</ele>
   <time>2014-04-06T14:59:59Z</time>
  </trkpt>
  <trkpt lat="34.038159" lon="-2.628339">
   <ele>1131.00</ele>
   <time>2014-04-06T15:00:01Z</time>
  </trkpt>
  <trkpt lat="34.038457" lon="-2.628851">
   <ele>1129.00</ele>
   <time>2014-04-06T15:00:04Z</time>
  </trkpt>
  <trkpt lat="34.038677" lon="-2.629187">
   <ele>1128.00</ele>
   <time>2014-04-06T15:00:06Z</time>
  </trkpt>
  <trkpt lat="34.039030" lon="-2.629673">
   <ele>1127.00</ele>
   <time>2014-04-06T15:00:09Z</time>
  </trkpt>
  <trkpt lat="34.040178" lon="-2.631125">
   <ele>1123.00</ele>
   <time>2014-04-06T15:00:18Z</time>
  </trkpt>
  <trkpt lat="34.042182" lon="-2.633604">
   <ele>1117.00</ele>
   <time>2014-04-06T15:00:33Z</time>
  </trkpt>
  <trkpt lat="34.043317" lon="-2.635004">
   <ele>1113.00</ele>
   <time>2014-04-06T15:00:42Z</time>
  </trkpt>
  <trkpt lat="34.043528" lon="-2.635358">
   <ele>1112.00</ele>
   <time>2014-04-06T15:00:44Z</time>
  </trkpt>
  <trkpt lat="34.043620" lon="-2.635551">
   <ele>1112.00</ele>
   <time>2014-04-06T15:00:45Z</time>
  </trkpt>
  <trkpt lat="34.043707" lon="-2.635751">
   <ele>1111.00</ele>
   <time>2014-04-06T15:00:46Z</time>
  </trkpt>
  <trkpt lat="34.044546" lon="-2.637813">
   <ele>1110.00</ele>
   <time>2014-04-06T15:00:56Z</time>
  </trkpt>
  <trkpt lat="34.044642" lon="-2.638013">
   <ele>1110.00</ele>
   <time>2014-04-06T15:00:57Z</time>
  </trkpt>
  <trkpt lat="34.044852" lon="-2.638398">
   <ele>1111.00</ele>
   <time>2014-04-06T15:00:59Z</time>
  </trkpt>
  <trkpt lat="34.044968" lon="-2.638581">
   <ele>1111.00</ele>
   <time>2014-04-06T15:01:00Z</time>
  </trkpt>
  <trkpt lat="34.045212" lon="-2.638935">
   <ele>1111.00</ele>
   <time>2014-04-06T15:01:02Z</time>
  </trkpt>
  <trkpt lat="34.045599" lon="-2.639453">
   <ele>1111.00</ele>
   <time>2014-04-06T15:01:05Z</time>
  </trkpt>
  <trkpt lat="34.046264" lon="-2.640284">
   <ele>1108.00</ele>
   <time>2014-04-06T15:01:10Z</time>
  </trkpt>
  <trkpt lat="34.046530" lon="-2.640606">
   <ele>1107.00</ele>
   <time>2014-04-06T15:01:12Z</time>
  </trkpt>
  <trkpt lat="34.047027" lon="-2.641269">
   <ele>1106.00</ele>
   <time>2014-04-06T15:01:16Z</time>
  </trkpt>
  <trkpt lat="34.047474" lon="-2.641940">
   <ele>1104.00</ele>
   <time>2014-04-06T15:01:20Z</time>
  </trkpt>
  <trkpt lat="34.048588" lon="-2.643670">
   <ele>1094.00</ele>
   <time>2014-04-06T15:01:35Z</time>
  </trkpt>
  <trkpt lat="34.048559" lon="-2.643876">
   <ele>1092.00</ele>
   <time>2014-04-06T15:01:40Z</time>
  </trkpt>
  <trkpt lat="34.048393" lon="-2.644041">
   <ele>1091.00</ele>
   <time>2014-04-06T15:01:45Z</time>
  </trkpt>
  <trkpt lat="34.048126" lon="-2.644312">
   <ele>1089.00</ele>
   <time>2014-04-06T15:01:50Z</time>
  </trkpt>
  <trkpt lat="34.048012" lon="-2.644544">
   <ele>1088.00</ele>
   <time>2014-04-06T15:01:53Z</time>
  </trkpt>
  <trkpt lat="34.047944" lon="-2.644848">
   <ele>1087.00</ele>
   <time>2014-04-06T15:01:56Z</time>
  </trkpt>
  <trkpt lat="34.047853" lon="-2.645148">
   <ele>1086.00</ele>
   <time>2014-04-06T15:01:59Z</time>
  </trkpt>
  <trkpt lat="34.047721" lon="-2.645407">
   <ele>1084.00</ele>
   <time>2014-04-06T15:02:02Z</time>
  </trkpt>
  <trkpt lat="34.047577" lon="-2.645622">
   <ele>1082.00</ele>
   <time>2014-04-06T15:02:05Z</time>
  </trkpt>
  <trkpt lat="34.047460" lon="-2.645820">
   <ele>1081.00</ele>
   <time>2014-04-06T15:02:08Z</time>
  </trkpt>
  <trkpt lat="34.047443" lon="-2.646031">
   <ele>1079.00</ele>
   <time>2014-04-06T15:02:11Z</time>
  </trkpt>
  <trkpt lat="34.047561" lon="-2.646233">
   <ele>1078.00</ele>
   <time>2014-04-06T15:02:14Z</time>
  </trkpt>
  <trkpt lat="34.047730" lon="-2.646405">
   <ele>1076.00</ele>
   <time>2014-04-06T15:02:17Z</time>
  </trkpt>
  <trkpt lat="34.048005" lon="-2.646681">
   <ele>1074.00</ele>
   <time>2014-04-06T15:02:23Z</time>
  </trkpt>
  <trkpt lat="34.048218" lon="-2.646815">
   <ele>1075.00</ele>
   <time>2014-04-06T15:02:27Z</time>
  </trkpt>
  <trkpt lat="34.048374" lon="-2.646984">
   <ele>1077.00</ele>
   <time>2014-04-06T15:02:30Z</time>
  </trkpt>
  <trkpt lat="34.048408" lon="-2.647224">
   <ele>1078.00</ele>
   <time>2014-04-06T15:02:33Z</time>
  </trkpt>
  <trkpt lat="34.048317" lon="-2.647500">
   <ele>1079.00</ele>
   <time>2014-04-06T15:02:36Z</time>
  </trkpt>
  <trkpt lat="34.048200" lon="-2.647778">
   <ele>1079.00</ele>
   <time>2014-04-06T15:02:39Z</time>
  </trkpt>
  <trkpt lat="34.048036" lon="-2.648023">
   <ele>1080.00</ele>
   <time>2014-04-06T15:02:42Z</time>
  </trkpt>
  <trkpt lat="34.047874" lon="-2.648146">
   <ele>1080.00</ele>
   <time>2014-04-06T15:02:44Z</time>
  </trkpt>
  <trkpt lat="34.047624" lon="-2.648310">
   <ele>1081.00</ele>
   <time>2014-04-06T15:02:47Z</time>
  </trkpt>
  <trkpt lat="34.047421" lon="-2.648468">
   <ele>1082.00</ele>
   <time>2014-04-06T15:02:50Z</time>
  </trkpt>
  <trkpt lat="34.047102" lon="-2.648739">
   <ele>1082.00</ele>
   <time>2014-04-06T15:02:55Z</time>
  </trkpt>
  <trkpt lat="34.046907" lon="-2.648923">
   <ele>1083.00</ele>
   <time>2014-04-06T15:02:58Z</time>
  </trkpt>
  <trkpt lat="34.046728" lon="-2.649141">
   <ele>1084.00</ele>
   <time>2014-04-06T15:03:01Z</time>
  </trkpt>
  <trkpt lat="34.046597" lon="-2.649399">
   <ele>1085.00</ele>
   <time>2014-04-06T15:03:04Z</time>
  </trkpt>
  <trkpt lat="34.046323" lon="-2.650032">
   <ele>1086.00</ele>
   <time>2014-04-06T15:03:11Z</time>
  </trkpt>
  <trkpt lat="34.046197" lon="-2.650297">
   <ele>1087.00</ele>
   <time>2014-04-06T15:03:14Z</time>
  </trkpt>
  <trkpt lat="34.046057" lon="-2.650649">
   <ele>1088.00</ele>
   <time>2014-04-06T15:03:18Z</time>
  </trkpt>
  <trkpt lat="34.045659" lon="-2.651700">
   <ele>1093.00</ele>
   <time>2014-04-06T15:03:28Z</time>
  </trkpt>
  <trkpt lat="34.045587" lon="-2.651926">
   <ele>1095.00</ele>
   <time>2014-04-06T15:03:30Z</time>
  </trkpt>
  <trkpt lat="34.045530" lon="-2.652155">
   <ele>1097.00</ele>
   <time>2014-04-06T15:03:32Z</time>
  </trkpt>
  <trkpt lat="34.045491" lon="-2.652387">
   <ele>1098.00</ele>
   <time>2014-04-06T15:03:34Z</time>
  </trkpt>
  <trkpt lat="34.045445" lon="-2.652737">
   <ele>1099.00</ele>
   <time>2014-04-06T15:03:37Z</time>
  </trkpt>
  <trkpt lat="34.045412" lon="-2.653095">
   <ele>1100.00</ele>
   <time>2014-04-06T15:03:40Z</time>
  </trkpt>
  <trkpt lat="34.045373" lon="-2.653339">
   <ele>1101.00</ele>
   <time>2014-04-06T15:03:42Z</time>
  </trkpt>
  <trkpt lat="34.045323" lon="-2.653580">
   <ele>1103.00</ele>
   <time>2014-04-06T15:03:44Z</time>
  </trkpt>
  <trkpt lat="34.045254" lon="-2.653806">
   <ele>1104.00</ele>
   <time>2014-04-06T15:03:46Z</time>
  </trkpt>
  <trkpt lat="34.045143" lon="-2.654005">
   <ele>1105.00</ele>
   <time>2014-04-06T15:03:48Z</time>
  </trkpt>
  <trkpt lat="34.044985" lon="-2.654173">
   <ele>1105.00</ele>
   <time>2014-04-06T15:03:50Z</time>
  </trkpt>
  <trkpt lat="34.044804" lon="-2.654316">
   <ele>1107.00</ele>
   <time>2014-04-06T15:03:52Z</time>
  </trkpt>
  <trkpt lat="34.044612" lon="-2.654441">
   <ele>1108.00</ele>
   <time>2014-04-06T15:03:54Z</time>
  </trkpt>
  <trkpt lat="34.044231" lon="-2.654683">
   <ele>1107.00</ele>
   <time>2014-04-06T15:03:58Z</time>
  </trkpt>
  <trkpt lat="34.044039" lon="-2.654823">
   <ele>1106.00</ele>
   <time>2014-04-06T15:04:00Z</time>
  </trkpt>
  <trkpt lat="34.043857" lon="-2.654988">
   <ele>1105.00</ele>
   <time>2014-04-06T15:04:02Z</time>
  </trkpt>
  <trkpt lat="34.043707" lon="-2.655195">
   <ele>1104.00</ele>
   <time>2014-04-06T15:04:04Z</time>
  </trkpt>
  <trkpt lat="34.043596" lon="-2.655434">
   <ele>1103.00</ele>
   <time>2014-04-06T15:04:06Z</time>
  </trkpt>
  <trkpt lat="34.043513" lon="-2.655682">
   <ele>1103.00</ele>
   <time>2014-04-06T15:04:08Z</time>
  </trkpt>
  <trkpt lat="34.043424" lon="-2.655927">
   <ele>1102.00</ele>
   <time>2014-04-06T15:04:10Z</time>
  </trkpt>
  <trkpt lat="34.043014" lon="-2.656911">
   <ele>1100.00</ele>
   <time>2014-04-06T15:04:18Z</time>
  </trkpt>
  <trkpt lat="34.042897" lon="-2.657123">
   <ele>1099.00</ele>
   <time>2014-04-06T15:04:20Z</time>
  </trkpt>
  <trkpt lat="34.042700" lon="-2.657424">
   <ele>1099.00</ele>
   <time>2014-04-06T15:04:23Z</time>
  </trkpt>
  <trkpt lat="34.042143" lon="-2.658254">
   <ele>1097.00</ele>
   <time>2014-04-06T15:04:32Z</time>
  </trkpt>
  <trkpt lat="34.042050" lon="-2.658442">
   <ele>1096.00</ele>
   <time>2014-04-06T15:04:34Z</time>
  </trkpt>
  <trkpt lat="34.041990" lon="-2.658647">
   <ele>1096.00</ele>
   <time>2014-04-06T15:04:36Z</time>
  </trkpt>
  <trkpt lat="34.041964" lon="-2.658949">
   <ele>1095.00</ele>
   <time>2014-04-06T15:04:39Z</time>
  </trkpt>
  <trkpt lat="34.041876" lon="-2.659232">
   <ele>1095.00</ele>
   <time>2014-04-06T15:04:42Z</time>
  </trkpt>
  <trkpt lat="34.041680" lon="-2.659426">
   <ele>1094.00</ele>
   <time>2014-04-06T15:04:45Z</time>
  </trkpt>
  <trkpt lat="34.041506" lon="-2.659490">
   <ele>1094.00</ele>
   <time>2014-04-06T15:04:47Z</time>
  </trkpt>
  <trkpt lat="34.041260" lon="-2.659613">
   <ele>1093.00</ele>
   <time>2014-04-06T15:04:50Z</time>
  </trkpt>
  <trkpt lat="34.041078" lon="-2.659825">
   <ele>1093.00</ele>
   <time>2014-04-06T15:04:53Z</time>
  </trkpt>
  <trkpt lat="34.040877" lon="-2.660007">
   <ele>1093.00</ele>
   <time>2014-04-06T15:04:56Z</time>
  </trkpt>
  <trkpt lat="34.040569" lon="-2.660207">
   <ele>1092.00</ele>
   <time>2014-04-06T15:05:00Z</time>
  </trkpt>
  <trkpt lat="34.040400" lon="-2.660429">
   <ele>1091.00</ele>
   <time>2014-04-06T15:05:03Z</time>
  </trkpt>
  <trkpt lat="34.040289" lon="-2.660726">
   <ele>1089.00</ele>
   <time>2014-04-06T15:05:06Z</time>
  </trkpt>
  <trkpt lat="34.040235" lon="-2.660947">
   <ele>1089.00</ele>
   <time>2014-04-06T15:05:08Z</time>
  </trkpt>
  <trkpt lat="34.040198" lon="-2.661170">
   <ele>1088.00</ele>
   <time>2014-04-06T15:05:10Z</time>
  </trkpt>
  <trkpt lat="34.040185" lon="-2.661395">
   <ele>1087.00</ele>
   <time>2014-04-06T15:05:12Z</time>
  </trkpt>
  <trkpt lat="34.040191" lon="-2.661714">
   <ele>1086.00</ele>
   <time>2014-04-06T15:05:15Z</time>
  </trkpt>
  <trkpt lat="34.040162" lon="-2.662035">
   <ele>1087.00</ele>
   <time>2014-04-06T15:05:18Z</time>
  </trkpt>
  <trkpt lat="34.040096" lon="-2.662247">
   <ele>1088.00</ele>
   <time>2014-04-06T15:05:20Z</time>
  </trkpt>
  <trkpt lat="34.039983" lon="-2.662415">
   <ele>1089.00</ele>
   <time>2014-04-06T15:05:22Z</time>
  </trkpt>
  <trkpt lat="34.039823" lon="-2.662523">
   <ele>1090.00</ele>
   <time>2014-04-06T15:05:24Z</time>
  </trkpt>
  <trkpt lat="34.039647" lon="-2.662578">
   <ele>1090.00</ele>
   <time>2014-04-06T15:05:26Z</time>
  </trkpt>
  <trkpt lat="34.039387" lon="-2.662611">
   <ele>1091.00</ele>
   <time>2014-04-06T15:05:29Z</time>
  </trkpt>
  <trkpt lat="34.038679" lon="-2.662650">
   <ele>1094.00</ele>
   <time>2014-04-06T15:05:37Z</time>
  </trkpt>
  <trkpt lat="34.038324" lon="-2.662705">
   <ele>1095.00</ele>
   <time>2014-04-06T15:05:41Z</time>
  </trkpt>
  <trkpt lat="34.037620" lon="-2.662880">
   <ele>1098.00</ele>
   <time>2014-04-06T15:05:48Z</time>
  </trkpt>
  <trkpt lat="34.037339" lon="-2.662923">
   <ele>1099.00</ele>
   <time>2014-04-06T15:05:51Z</time>
  </trkpt>
  <trkpt lat="34.037163" lon="-2.663003">
   <ele>1100.00</ele>
   <time>2014-04-06T15:05:53Z</time>
  </trkpt>
  <trkpt lat="34.037006" lon="-2.663140">
   <ele>1101.00</ele>
   <time>2014-04-06T15:05:55Z</time>
  </trkpt>
  <trkpt lat="34.036874" lon="-2.663320">
   <ele>1102.00</ele>
   <time>2014-04-06T15:05:57Z</time>
  </trkpt>
  <trkpt lat="34.036699" lon="-2.663582">
   <ele>1103.00</ele>
   <time>2014-04-06T15:06:00Z</time>
  </trkpt>
  <trkpt lat="34.036474" lon="-2.663741">
   <ele>1103.00</ele>
   <time>2014-04-06T15:06:03Z</time>
  </trkpt>
  <trkpt lat="34.036288" lon="-2.663806">
   <ele>1103.00</ele>
   <time>2014-04-06T15:06:05Z</time>
  </trkpt>
  <trkpt lat="34.035578" lon="-2.664013">
   <ele>1102.00</ele>
   <time>2014-04-06T15:06:12Z</time>
  </trkpt>
  <trkpt lat="34.034669" lon="-2.664344">
   <ele>1104.00</ele>
   <time>2014-04-06T15:06:21Z</time>
  </trkpt>
  <trkpt lat="34.034481" lon="-2.664426">
   <ele>1104.00</ele>
   <time>2014-04-06T15:06:23Z</time>
  </trkpt>
  <trkpt lat="34.034259" lon="-2.664582">
   <ele>1105.00</ele>
   <time>2014-04-06T15:06:26Z</time>
  </trkpt>
  <trkpt lat="34.034075" lon="-2.664722">
   <ele>1105.00</ele>
   <time>2014-04-06T15:06:29Z</time>
  </trkpt>
  <trkpt lat="34.033782" lon="-2.664886">
   <ele>1105.00</ele>
   <time>2014-04-06T15:06:33Z</time>
  </trkpt>
  <trkpt lat="34.033564" lon="-2.665022">
   <ele>1105.00</ele>
   <time>2014-04-06T15:06:36Z</time>
  </trkpt>
  <trkpt lat="34.033139" lon="-2.665325">
   <ele>1106.00</ele>
   <time>2014-04-06T15:06:42Z</time>
  </trkpt>
  <trkpt lat="34.032860" lon="-2.665535">
   <ele>1106.00</ele>
   <time>2014-04-06T15:06:46Z</time>
  </trkpt>
  <trkpt lat="34.032639" lon="-2.665652">
   <ele>1106.00</ele>
   <time>2014-04-06T15:06:49Z</time>
  </trkpt>
  <trkpt lat="34.032408" lon="-2.665803">
   <ele>1104.00</ele>
   <time>2014-04-06T15:06:52Z</time>
  </trkpt>
  <trkpt lat="34.032266" lon="-2.665949">
   <ele>1104.00</ele>
   <time>2014-04-06T15:06:54Z</time>
  </trkpt>
  <trkpt lat="34.032136" lon="-2.666115">
   <ele>1103.00</ele>
   <time>2014-04-06T15:06:56Z</time>
  </trkpt>
  <trkpt lat="34.032005" lon="-2.666276">
   <ele>1103.00</ele>
   <time>2014-04-06T15:06:58Z</time>
  </trkpt>
  <trkpt lat="34.031609" lon="-2.666741">
   <ele>1106.00</ele>
   <time>2014-04-06T15:07:04Z</time>
  </trkpt>
  <trkpt lat="34.031443" lon="-2.666892">
   <ele>1107.00</ele>
   <time>2014-04-06T15:07:06Z</time>
  </trkpt>
  <trkpt lat="34.031253" lon="-2.667031">
   <ele>1109.00</ele>
   <time>2014-04-06T15:07:08Z</time>
  </trkpt>
  <trkpt lat="34.030367" lon="-2.667597">
   <ele>1112.00</ele>
   <time>2014-04-06T15:07:17Z</time>
  </trkpt>
  <trkpt lat="34.030165" lon="-2.667710">
   <ele>1112.00</ele>
   <time>2014-04-06T15:07:19Z</time>
  </trkpt>
  <trkpt lat="34.029965" lon="-2.667808">
   <ele>1112.00</ele>
   <time>2014-04-06T15:07:21Z</time>
  </trkpt>
  <trkpt lat="34.029766" lon="-2.667888">
   <ele>1112.00</ele>
   <time>2014-04-06T15:07:23Z</time>
  </trkpt>
  <trkpt lat="34.029562" lon="-2.667925">
   <ele>1111.00</ele>
   <time>2014-04-06T15:07:25Z</time>
  </trkpt>
  <trkpt lat="34.029362" lon="-2.667904">
   <ele>1110.00</ele>
   <time>2014-04-06T15:07:27Z</time>
  </trkpt>
  <trkpt lat="34.029170" lon="-2.667815">
   <ele>1108.00</ele>
   <time>2014-04-06T15:07:29Z</time>
  </trkpt>
  <trkpt lat="34.028898" lon="-2.667666">
   <ele>1106.00</ele>
   <time>2014-04-06T15:07:32Z</time>
  </trkpt>
  <trkpt lat="34.028718" lon="-2.667632">
   <ele>1105.00</ele>
   <time>2014-04-06T15:07:34Z</time>
  </trkpt>
  <trkpt lat="34.028490" lon="-2.667729">
   <ele>1104.00</ele>
   <time>2014-04-06T15:07:37Z</time>
  </trkpt>
  <trkpt lat="34.028324" lon="-2.667926">
   <ele>1104.00</ele>
   <time>2014-04-06T15:07:40Z</time>
  </trkpt>
  <trkpt lat="34.028140" lon="-2.668091">
   <ele>1105.00</ele>
   <time>2014-04-06T15:07:43Z</time>
  </trkpt>
  <trkpt lat="34.027874" lon="-2.668091">
   <ele>1106.00</ele>
   <time>2014-04-06T15:07:46Z</time>
  </trkpt>
  <trkpt lat="34.027673" lon="-2.668080">
   <ele>1107.00</ele>
   <time>2014-04-06T15:07:48Z</time>
  </trkpt>
  <trkpt lat="34.027477" lon="-2.668087">
   <ele>1109.00</ele>
   <time>2014-04-06T15:07:50Z</time>
  </trkpt>
  <trkpt lat="34.027242" lon="-2.668184">
   <ele>1111.00</ele>
   <time>2014-04-06T15:07:53Z</time>
  </trkpt>
  <trkpt lat="34.027154" lon="-2.668403">
   <ele>1113.00</ele>
   <time>2014-04-06T15:07:56Z</time>
  </trkpt>
  <trkpt lat="34.027232" lon="-2.668646">
   <ele>1116.00</ele>
   <time>2014-04-06T15:07:59Z</time>
  </trkpt>
  <trkpt lat="34.027261" lon="-2.668903">
   <ele>1118.00</ele>
   <time>2014-04-06T15:08:02Z</time>
  </trkpt>
  <trkpt lat="34.027213" lon="-2.669385">
   <ele>1121.00</ele>
   <time>2014-04-06T15:08:09Z</time>
  </trkpt>
  <trkpt lat="34.027122" lon="-2.669591">
   <ele>1122.00</ele>
   <time>2014-04-06T15:08:13Z</time>
  </trkpt>
  <trkpt lat="34.026955" lon="-2.669686">
   <ele>1123.00</ele>
   <time>2014-04-06T15:08:18Z</time>
  </trkpt>
  <trkpt lat="34.026865" lon="-2.669699">
   <ele>1124.00</ele>
   <time>2014-04-06T15:08:34Z</time>
  </trkpt>
  <trkpt lat="34.026671" lon="-2.669728">
   <ele>1125.00</ele>
   <time>2014-04-06T15:08:46Z</time>
  </trkpt>
  <trkpt lat="34.026459" lon="-2.669760">
   <ele>1125.00</ele>
   <time>2014-04-06T15:08:49Z</time>
  </trkpt>
  <trkpt lat="34.025770" lon="-2.669885">
   <ele>1127.00</ele>
   <time>2014-04-06T15:08:56Z</time>
  </trkpt>
  <trkpt lat="34.025541" lon="-2.669961">
   <ele>1127.00</ele>
   <time>2014-04-06T15:08:58Z</time>
  </trkpt>
  <trkpt lat="34.025321" lon="-2.670094">
   <ele>1127.00</ele>
   <time>2014-04-06T15:09:00Z</time>
  </trkpt>
  <trkpt lat="34.025117" lon="-2.670265">
   <ele>1128.00</ele>
   <time>2014-04-06T15:09:02Z</time>
  </trkpt>
  <trkpt lat="34.024930" lon="-2.670454">
   <ele>1129.00</ele>
   <time>2014-04-06T15:09:04Z</time>
  </trkpt>
  <trkpt lat="34.024747" lon="-2.670660">
   <ele>1129.00</ele>
   <time>2014-04-06T15:09:06Z</time>
  </trkpt>
  <trkpt lat="34.024304" lon="-2.671181">
   <ele>1130.00</ele>
   <time>2014-04-06T15:09:11Z</time>
  </trkpt>
  <trkpt lat="34.024115" lon="-2.671381">
   <ele>1131.00</ele>
   <time>2014-04-06T15:09:13Z</time>
  </trkpt>
  <trkpt lat="34.023933" lon="-2.671599">
   <ele>1131.00</ele>
   <time>2014-04-06T15:09:15Z</time>
  </trkpt>
  <trkpt lat="34.023766" lon="-2.671834">
   <ele>1132.00</ele>
   <time>2014-04-06T15:09:17Z</time>
  </trkpt>
  <trkpt lat="34.023622" lon="-2.672085">
   <ele>1133.00</ele>
   <time>2014-04-06T15:09:19Z</time>
  </trkpt>
  <trkpt lat="34.023413" lon="-2.672486">
   <ele>1134.00</ele>
   <time>2014-04-06T15:09:22Z</time>
  </trkpt>
  <trkpt lat="34.023199" lon="-2.672867">
   <ele>1135.00</ele>
   <time>2014-04-06T15:09:25Z</time>
  </trkpt>
  <trkpt lat="34.023074" lon="-2.673107">
   <ele>1136.00</ele>
   <time>2014-04-06T15:09:27Z</time>
  </trkpt>
  <trkpt lat="34.022006" lon="-2.674955">
   <ele>1147.00</ele>
   <time>2014-04-06T15:09:42Z</time>
  </trkpt>
  <trkpt lat="34.020925" lon="-2.676894">
   <ele>1158.00</ele>
   <time>2014-04-06T15:09:58Z</time>
  </trkpt>
  <trkpt lat="34.020512" lon="-2.677657">
   <ele>1163.00</ele>
   <time>2014-04-06T15:10:04Z</time>
  </trkpt>
  <trkpt lat="34.019398" lon="-2.679576">
   <ele>1175.00</ele>
   <time>2014-04-06T15:10:19Z</time>
  </trkpt>
  <trkpt lat="34.019285" lon="-2.679782">
   <ele>1176.00</ele>
   <time>2014-04-06T15:10:21Z</time>
  </trkpt>
  <trkpt lat="34.019193" lon="-2.679970">
   <ele>1178.00</ele>
   <time>2014-04-06T15:10:23Z</time>
  </trkpt>
  <trkpt lat="34.019091" lon="-2.680243">
   <ele>1179.00</ele>
   <time>2014-04-06T15:10:26Z</time>
  </trkpt>
  <trkpt lat="34.019010" lon="-2.680545">
   <ele>1181.00</ele>
   <time>2014-04-06T15:10:29Z</time>
  </trkpt>
  <trkpt lat="34.018930" lon="-2.680845">
   <ele>1183.00</ele>
   <time>2014-04-06T15:10:32Z</time>
  </trkpt>
  <trkpt lat="34.018814" lon="-2.681105">
   <ele>1184.00</ele>
   <time>2014-04-06T15:10:35Z</time>
  </trkpt>
  <trkpt lat="34.018625" lon="-2.681303">
   <ele>1186.00</ele>
   <time>2014-04-06T15:10:38Z</time>
  </trkpt>
  <trkpt lat="34.018499" lon="-2.681458">
   <ele>1187.00</ele>
   <time>2014-04-06T15:10:40Z</time>
  </trkpt>
  <trkpt lat="34.018392" lon="-2.681644">
   <ele>1189.00</ele>
   <time>2014-04-06T15:10:42Z</time>
  </trkpt>
  <trkpt lat="34.018306" lon="-2.681846">
   <ele>1190.00</ele>
   <time>2014-04-06T15:10:44Z</time>
  </trkpt>
  <trkpt lat="34.018229" lon="-2.682048">
   <ele>1191.00</ele>
   <time>2014-04-06T15:10:46Z</time>
  </trkpt>
  <trkpt lat="34.018044" lon="-2.682270">
   <ele>1193.00</ele>
   <time>2014-04-06T15:10:49Z</time>
  </trkpt>
  <trkpt lat="34.017862" lon="-2.682340">
   <ele>1194.00</ele>
   <time>2014-04-06T15:10:51Z</time>
  </trkpt>
  <trkpt lat="34.017657" lon="-2.682319">
   <ele>1195.00</ele>
   <time>2014-04-06T15:10:53Z</time>
  </trkpt>
  <trkpt lat="34.017441" lon="-2.682220">
   <ele>1196.00</ele>
   <time>2014-04-06T15:10:55Z</time>
  </trkpt>
  <trkpt lat="34.017220" lon="-2.682096">
   <ele>1197.00</ele>
   <time>2014-04-06T15:10:57Z</time>
  </trkpt>
  <trkpt lat="34.016767" lon="-2.681822">
   <ele>1199.00</ele>
   <time>2014-04-06T15:11:01Z</time>
  </trkpt>
  <trkpt lat="34.016557" lon="-2.681717">
   <ele>1201.00</ele>
   <time>2014-04-06T15:11:03Z</time>
  </trkpt>
  <trkpt lat="34.016347" lon="-2.681698">
   <ele>1202.00</ele>
   <time>2014-04-06T15:11:05Z</time>
  </trkpt>
  <trkpt lat="34.016142" lon="-2.681825">
   <ele>1203.00</ele>
   <time>2014-04-06T15:11:07Z</time>
  </trkpt>
  <trkpt lat="34.015934" lon="-2.681966">
   <ele>1205.00</ele>
   <time>2014-04-06T15:11:09Z</time>
  </trkpt>
  <trkpt lat="34.015708" lon="-2.682010">
   <ele>1206.00</ele>
   <time>2014-04-06T15:11:11Z</time>
  </trkpt>
  <trkpt lat="34.015492" lon="-2.682007">
   <ele>1207.00</ele>
   <time>2014-04-06T15:11:13Z</time>
  </trkpt>
  <trkpt lat="34.015224" lon="-2.681996">
   <ele>1209.00</ele>
   <time>2014-04-06T15:11:16Z</time>
  </trkpt>
  <trkpt lat="34.015062" lon="-2.682166">
   <ele>1211.00</ele>
   <time>2014-04-06T15:11:19Z</time>
  </trkpt>
  <trkpt lat="34.014944" lon="-2.682380">
   <ele>1212.00</ele>
   <time>2014-04-06T15:11:22Z</time>
  </trkpt>
  <trkpt lat="34.014756" lon="-2.682442">
   <ele>1214.00</ele>
   <time>2014-04-06T15:11:25Z</time>
  </trkpt>
  <trkpt lat="34.014587" lon="-2.682541">
   <ele>1215.00</ele>
   <time>2014-04-06T15:11:28Z</time>
  </trkpt>
  <trkpt lat="34.014510" lon="-2.682763">
   <ele>1216.00</ele>
   <time>2014-04-06T15:11:31Z</time>
  </trkpt>
  <trkpt lat="34.014437" lon="-2.682974">
   <ele>1216.00</ele>
   <time>2014-04-06T15:11:34Z</time>
  </trkpt>
  <trkpt lat="34.014215" lon="-2.683004">
   <ele>1217.00</ele>
   <time>2014-04-06T15:11:38Z</time>
  </trkpt>
  <trkpt lat="34.014025" lon="-2.682947">
   <ele>1219.00</ele>
   <time>2014-04-06T15:11:41Z</time>
  </trkpt>
  <trkpt lat="34.013815" lon="-2.682914">
   <ele>1221.00</ele>
   <time>2014-04-06T15:11:44Z</time>
  </trkpt>
  <trkpt lat="34.013593" lon="-2.682934">
   <ele>1222.00</ele>
   <time>2014-04-06T15:11:47Z</time>
  </trkpt>
  <trkpt lat="34.013381" lon="-2.683021">
   <ele>1223.00</ele>
   <time>2014-04-06T15:11:50Z</time>
  </trkpt>
  <trkpt lat="34.013196" lon="-2.683157">
   <ele>1225.00</ele>
   <time>2014-04-06T15:11:53Z</time>
  </trkpt>
  <trkpt lat="34.013047" lon="-2.683323">
   <ele>1227.00</ele>
   <time>2014-04-06T15:11:56Z</time>
  </trkpt>
  <trkpt lat="34.012917" lon="-2.683508">
   <ele>1229.00</ele>
   <time>2014-04-06T15:11:59Z</time>
  </trkpt>
  <trkpt lat="34.012739" lon="-2.683567">
   <ele>1230.00</ele>
   <time>2014-04-06T15:12:02Z</time>
  </trkpt>
  <trkpt lat="34.012448" lon="-2.683505">
   <ele>1232.00</ele>
   <time>2014-04-06T15:12:06Z</time>
  </trkpt>
  <trkpt lat="34.012225" lon="-2.683606">
   <ele>1233.00</ele>
   <time>2014-04-06T15:12:09Z</time>
  </trkpt>
  <trkpt lat="34.012059" lon="-2.683802">
   <ele>1236.00</ele>
   <time>2014-04-06T15:12:12Z</time>
  </trkpt>
  <trkpt lat="34.011912" lon="-2.683974">
   <ele>1238.00</ele>
   <time>2014-04-06T15:12:15Z</time>
  </trkpt>
  <trkpt lat="34.011712" lon="-2.683966">
   <ele>1239.00</ele>
   <time>2014-04-06T15:12:18Z</time>
  </trkpt>
  <trkpt lat="34.011510" lon="-2.683873">
   <ele>1240.00</ele>
   <time>2014-04-06T15:12:21Z</time>
  </trkpt>
  <trkpt lat="34.011275" lon="-2.683768">
   <ele>1242.00</ele>
   <time>2014-04-06T15:12:25Z</time>
  </trkpt>
  <trkpt lat="34.011078" lon="-2.683752">
   <ele>1244.00</ele>
   <time>2014-04-06T15:12:28Z</time>
  </trkpt>
  <trkpt lat="34.010909" lon="-2.683845">
   <ele>1246.00</ele>
   <time>2014-04-06T15:12:31Z</time>
  </trkpt>
  <trkpt lat="34.010861" lon="-2.684071">
   <ele>1247.00</ele>
   <time>2014-04-06T15:12:34Z</time>
  </trkpt>
  <trkpt lat="34.010897" lon="-2.684787">
   <ele>1250.00</ele>
   <time>2014-04-06T15:12:39Z</time>
  </trkpt>
  <trkpt lat="34.010858" lon="-2.685103">
   <ele>1252.00</ele>
   <time>2014-04-06T15:12:41Z</time>
  </trkpt>
  <trkpt lat="34.010765" lon="-2.685381">
   <ele>1255.00</ele>
   <time>2014-04-06T15:12:43Z</time>
  </trkpt>
  <trkpt lat="34.010655" lon="-2.685631">
   <ele>1257.00</ele>
   <time>2014-04-06T15:12:45Z</time>
  </trkpt>
  <trkpt lat="34.010499" lon="-2.685845">
   <ele>1259.00</ele>
   <time>2014-04-06T15:12:47Z</time>
  </trkpt>
  <trkpt lat="34.010302" lon="-2.686029">
   <ele>1261.00</ele>
   <time>2014-04-06T15:12:49Z</time>
  </trkpt>
  <trkpt lat="34.009729" lon="-2.686573">
   <ele>1266.00</ele>
   <time>2014-04-06T15:12:55Z</time>
  </trkpt>
  <trkpt lat="34.009571" lon="-2.686725">
   <ele>1267.00</ele>
   <time>2014-04-06T15:12:57Z</time>
  </trkpt>
  <trkpt lat="34.009393" lon="-2.686740">
   <ele>1269.00</ele>
   <time>2014-04-06T15:12:59Z</time>
  </trkpt>
  <trkpt lat="34.009266" lon="-2.686591">
   <ele>1270.00</ele>
   <time>2014-04-06T15:13:01Z</time>
  </trkpt>
  <trkpt lat="34.009222" lon="-2.686347">
   <ele>1272.00</ele>
   <time>2014-04-06T15:13:03Z</time>
  </trkpt>
  <trkpt lat="34.009200" lon="-2.686090">
   <ele>1273.00</ele>
   <time>2014-04-06T15:13:05Z</time>
  </trkpt>
  <trkpt lat="34.009108" lon="-2.685876">
   <ele>1274.00</ele>
   <time>2014-04-06T15:13:07Z</time>
  </trkpt>
  <trkpt lat="34.008920" lon="-2.685790">
   <ele>1274.00</ele>
   <time>2014-04-06T15:13:09Z</time>
  </trkpt>
  <trkpt lat="34.008706" lon="-2.685732">
   <ele>1275.00</ele>
   <time>2014-04-06T15:13:11Z</time>
  </trkpt>
  <trkpt lat="34.008494" lon="-2.685725">
   <ele>1276.00</ele>
   <time>2014-04-06T15:13:13Z</time>
  </trkpt>
  <trkpt lat="34.008286" lon="-2.685816">
   <ele>1277.00</ele>
   <time>2014-04-06T15:13:15Z</time>
  </trkpt>
  <trkpt lat="34.008089" lon="-2.685994">
   <ele>1279.00</ele>
   <time>2014-04-06T15:13:17Z</time>
  </trkpt>
  <trkpt lat="34.007891" lon="-2.686204">
   <ele>1281.00</ele>
   <time>2014-04-06T15:13:19Z</time>
  </trkpt>
  <trkpt lat="34.007567" lon="-2.686541">
   <ele>1283.00</ele>
   <time>2014-04-06T15:13:22Z</time>
  </trkpt>
  <trkpt lat="34.007233" lon="-2.686862">
   <ele>1286.00</ele>
   <time>2014-04-06T15:13:25Z</time>
  </trkpt>
  <trkpt lat="34.007011" lon="-2.687017">
   <ele>1288.00</ele>
   <time>2014-04-06T15:13:27Z</time>
  </trkpt>
  <trkpt lat="34.006777" lon="-2.687090">
   <ele>1289.00</ele>
   <time>2014-04-06T15:13:29Z</time>
  </trkpt>
  <trkpt lat="34.006532" lon="-2.687129">
   <ele>1291.00</ele>
   <time>2014-04-06T15:13:31Z</time>
  </trkpt>
  <trkpt lat="34.006296" lon="-2.687213">
   <ele>1293.00</ele>
   <time>2014-04-06T15:13:33Z</time>
  </trkpt>
  <trkpt lat="34.006070" lon="-2.687358">
   <ele>1294.00</ele>
   <time>2014-04-06T15:13:35Z</time>
  </trkpt>
  <trkpt lat="34.005792" lon="-2.687590">
   <ele>1297.00</ele>
   <time>2014-04-06T15:13:38Z</time>
  </trkpt>
  <trkpt lat="34.005655" lon="-2.687767">
   <ele>1298.00</ele>
   <time>2014-04-06T15:13:40Z</time>
  </trkpt>
  <trkpt lat="34.005566" lon="-2.688005">
   <ele>1300.00</ele>
   <time>2014-04-06T15:13:42Z</time>
  </trkpt>
  <trkpt lat="34.005517" lon="-2.688239">
   <ele>1302.00</ele>
   <time>2014-04-06T15:13:44Z</time>
  </trkpt>
  <trkpt lat="34.005547" lon="-2.688451">
   <ele>1304.00</ele>
   <time>2014-04-06T15:13:46Z</time>
  </trkpt>
  <trkpt lat="34.005759" lon="-2.688654">
   <ele>1304.00</ele>
   <time>2014-04-06T15:13:49Z</time>
  </trkpt>
  <trkpt lat="34.005958" lon="-2.688676">
   <ele>1304.00</ele>
   <time>2014-04-06T15:13:51Z</time>
  </trkpt>
  <trkpt lat="34.006140" lon="-2.688596">
   <ele>1305.00</ele>
   <time>2014-04-06T15:13:53Z</time>
  </trkpt>
  <trkpt lat="34.006352" lon="-2.688527">
   <ele>1307.00</ele>
   <time>2014-04-06T15:13:56Z</time>
  </trkpt>
  <trkpt lat="34.006406" lon="-2.688749">
   <ele>1308.00</ele>
   <time>2014-04-06T15:13:59Z</time>
  </trkpt>
  <trkpt lat="34.006306" lon="-2.688948">
   <ele>1310.00</ele>
   <time>2014-04-06T15:14:01Z</time>
  </trkpt>
  <trkpt lat="34.006070" lon="-2.689370">
   <ele>1314.00</ele>
   <time>2014-04-06T15:14:05Z</time>
  </trkpt>
  <trkpt lat="34.005924" lon="-2.689534">
   <ele>1316.00</ele>
   <time>2014-04-06T15:14:07Z</time>
  </trkpt>
  <trkpt lat="34.005733" lon="-2.689640">
   <ele>1317.00</ele>
   <time>2014-04-06T15:14:09Z</time>
  </trkpt>
  <trkpt lat="34.005549" lon="-2.689765">
   <ele>1319.00</ele>
   <time>2014-04-06T15:14:11Z</time>
  </trkpt>
  <trkpt lat="34.005395" lon="-2.689931">
   <ele>1321.00</ele>
   <time>2014-04-06T15:14:13Z</time>
  </trkpt>
  <trkpt lat="34.005258" lon="-2.690097">
   <ele>1322.00</ele>
   <time>2014-04-06T15:14:15Z</time>
  </trkpt>
  <trkpt lat="34.005071" lon="-2.690271">
   <ele>1324.00</ele>
   <time>2014-04-06T15:14:18Z</time>
  </trkpt>
  <trkpt lat="34.004821" lon="-2.690170">
   <ele>1326.00</ele>
   <time>2014-04-06T15:14:21Z</time>
  </trkpt>
  <trkpt lat="34.004638" lon="-2.690054">
   <ele>1327.00</ele>
   <time>2014-04-06T15:14:23Z</time>
  </trkpt>
  <trkpt lat="34.004444" lon="-2.689931">
   <ele>1328.00</ele>
   <time>2014-04-06T15:14:25Z</time>
  </trkpt>
  <trkpt lat="34.004257" lon="-2.689839">
   <ele>1330.00</ele>
   <time>2014-04-06T15:14:27Z</time>
  </trkpt>
  <trkpt lat="34.004081" lon="-2.689858">
   <ele>1331.00</ele>
   <time>2014-04-06T15:14:29Z</time>
  </trkpt>
  <trkpt lat="34.003915" lon="-2.689978">
   <ele>1332.00</ele>
   <time>2014-04-06T15:14:31Z</time>
  </trkpt>
  <trkpt lat="34.003747" lon="-2.690112">
   <ele>1334.00</ele>
   <time>2014-04-06T15:14:33Z</time>
  </trkpt>
  <trkpt lat="34.003544" lon="-2.690156">
   <ele>1335.00</ele>
   <time>2014-04-06T15:14:35Z</time>
  </trkpt>
  <trkpt lat="34.003312" lon="-2.690131">
   <ele>1336.00</ele>
   <time>2014-04-06T15:14:37Z</time>
  </trkpt>
  <trkpt lat="34.003070" lon="-2.690101">
   <ele>1338.00</ele>
   <time>2014-04-06T15:14:39Z</time>
  </trkpt>
  <trkpt lat="34.002831" lon="-2.690039">
   <ele>1340.00</ele>
   <time>2014-04-06T15:14:41Z</time>
  </trkpt>
  <trkpt lat="34.002492" lon="-2.689921">
   <ele>1342.00</ele>
   <time>2014-04-06T15:14:44Z</time>
  </trkpt>
  <trkpt lat="34.002293" lon="-2.689828">
   <ele>1344.00</ele>
   <time>2014-04-06T15:14:46Z</time>
  </trkpt>
  <trkpt lat="34.002107" lon="-2.689738">
   <ele>1346.00</ele>
   <time>2014-04-06T15:14:48Z</time>
  </trkpt>
  <trkpt lat="34.001912" lon="-2.689705">
   <ele>1348.00</ele>
   <time>2014-04-06T15:14:50Z</time>
  </trkpt>
  <trkpt lat="34.001700" lon="-2.689725">
   <ele>1349.00</ele>
   <time>2014-04-06T15:14:52Z</time>
  </trkpt>
  <trkpt lat="34.001475" lon="-2.689764">
   <ele>1351.00</ele>
   <time>2014-04-06T15:14:54Z</time>
  </trkpt>
  <trkpt lat="34.001242" lon="-2.689815">
   <ele>1353.00</ele>
   <time>2014-04-06T15:14:56Z</time>
  </trkpt>
  <trkpt lat="34.001000" lon="-2.689881">
   <ele>1355.00</ele>
   <time>2014-04-06T15:14:58Z</time>
  </trkpt>
  <trkpt lat="34.000531" lon="-2.690009">
   <ele>1359.00</ele>
   <time>2014-04-06T15:15:02Z</time>
  </trkpt>
  <trkpt lat="34.000249" lon="-2.690073">
   <ele>1361.00</ele>
   <time>2014-04-06T15:15:05Z</time>
  </trkpt>
  <trkpt lat="34.000045" lon="-2.690158">
   <ele>1363.00</ele>
   <time>2014-04-06T15:15:08Z</time>
  </trkpt>
  <trkpt lat="33.999878" lon="-2.690099">
   <ele>1365.00</ele>
   <time>2014-04-06T15:15:11Z</time>
  </trkpt>
  <trkpt lat="33.999711" lon="-2.689798">
   <ele>1367.00</ele>
   <time>2014-04-06T15:15:15Z</time>
  </trkpt>
  <trkpt lat="33.999505" lon="-2.689670">
   <ele>1368.00</ele>
   <time>2014-04-06T15:15:18Z</time>
  </trkpt>
  <trkpt lat="33.999270" lon="-2.689635">
   <ele>1369.00</ele>
   <time>2014-04-06T15:15:21Z</time>
  </trkpt>
  <trkpt lat="33.999032" lon="-2.689672">
   <ele>1371.00</ele>
   <time>2014-04-06T15:15:24Z</time>
  </trkpt>
  <trkpt lat="33.998836" lon="-2.689760">
   <ele>1374.00</ele>
   <time>2014-04-06T15:15:27Z</time>
  </trkpt>
  <trkpt lat="33.998649" lon="-2.689824">
   <ele>1376.00</ele>
   <time>2014-04-06T15:15:30Z</time>
  </trkpt>
  <trkpt lat="33.998442" lon="-2.689846">
   <ele>1377.00</ele>
   <time>2014-04-06T15:15:33Z</time>
  </trkpt>
  <trkpt lat="33.998142" lon="-2.689842">
   <ele>1379.00</ele>
   <time>2014-04-06T15:15:37Z</time>
  </trkpt>
  <trkpt lat="33.997894" lon="-2.689887">
   <ele>1380.00</ele>
   <time>2014-04-06T15:15:40Z</time>
  </trkpt>
  <trkpt lat="33.997653" lon="-2.689972">
   <ele>1383.00</ele>
   <time>2014-04-06T15:15:43Z</time>
  </trkpt>
  <trkpt lat="33.997431" lon="-2.690119">
   <ele>1385.00</ele>
   <time>2014-04-06T15:15:46Z</time>
  </trkpt>
  <trkpt lat="33.997225" lon="-2.690246">
   <ele>1387.00</ele>
   <time>2014-04-06T15:15:49Z</time>
  </trkpt>
  <trkpt lat="33.997030" lon="-2.690381">
   <ele>1389.00</ele>
   <time>2014-04-06T15:15:52Z</time>
  </trkpt>
  <trkpt lat="33.996810" lon="-2.690478">
   <ele>1391.00</ele>
   <time>2014-04-06T15:15:55Z</time>
  </trkpt>
  <trkpt lat="33.996488" lon="-2.690535">
   <ele>1393.00</ele>
   <time>2014-04-06T15:15:59Z</time>
  </trkpt>
  <trkpt lat="33.996272" lon="-2.690597">
   <ele>1395.00</ele>
   <time>2014-04-06T15:16:02Z</time>
  </trkpt>
  <trkpt lat="33.996108" lon="-2.690689">
   <ele>1397.00</ele>
   <time>2014-04-06T15:16:05Z</time>
  </trkpt>
  <trkpt lat="33.996014" lon="-2.690913">
   <ele>1398.00</ele>
   <time>2014-04-06T15:16:09Z</time>
  </trkpt>
  <trkpt lat="33.995954" lon="-2.691155">
   <ele>1400.00</ele>
   <time>2014-04-06T15:16:15Z</time>
  </trkpt>
  <trkpt lat="33.996142" lon="-2.691193">
   <ele>1398.00</ele>
   <time>2014-04-06T15:16:25Z</time>
  </trkpt>
  <trkpt lat="33.996342" lon="-2.691217">
   <ele>1395.00</ele>
   <time>2014-04-06T15:16:30Z</time>
  </trkpt>
  <trkpt lat="33.996530" lon="-2.691261">
   <ele>1394.00</ele>
   <time>2014-04-06T15:16:34Z</time>
  </trkpt>
  <trkpt lat="33.996726" lon="-2.691321">
   <ele>1393.00</ele>
   <time>2014-04-06T15:16:38Z</time>
  </trkpt>
  <trkpt lat="33.996928" lon="-2.691416">
   <ele>1392.00</ele>
   <time>2014-04-06T15:16:42Z</time>
  </trkpt>
  <trkpt lat="33.997111" lon="-2.691583">
   <ele>1391.00</ele>
   <time>2014-04-06T15:16:46Z</time>
  </trkpt>
  <trkpt lat="33.997240" lon="-2.691815">
   <ele>1391.00</ele>
   <time>2014-04-06T15:16:50Z</time>
  </trkpt>
  <trkpt lat="33.997338" lon="-2.692039">
   <ele>1390.00</ele>
   <time>2014-04-06T15:16:53Z</time>
  </trkpt>
  <trkpt lat="33.997483" lon="-2.692269">
   <ele>1389.00</ele>
   <time>2014-04-06T15:16:56Z</time>
  </trkpt>
  <trkpt lat="33.997881" lon="-2.692895">
   <ele>1386.00</ele>
   <time>2014-04-06T15:17:04Z</time>
  </trkpt>
  <trkpt lat="33.998011" lon="-2.693127">
   <ele>1385.00</ele>
   <time>2014-04-06T15:17:07Z</time>
  </trkpt>
  <trkpt lat="33.998122" lon="-2.693378">
   <ele>1385.00</ele>
   <time>2014-04-06T15:17:10Z</time>
  </trkpt>
  <trkpt lat="33.998271" lon="-2.693747">
   <ele>1382.00</ele>
   <time>2014-04-06T15:17:14Z</time>
  </trkpt>
  <trkpt lat="33.998419" lon="-2.694006">
   <ele>1381.00</ele>
   <time>2014-04-06T15:17:17Z</time>
  </trkpt>
  <trkpt lat="33.998609" lon="-2.694231">
   <ele>1380.00</ele>
   <time>2014-04-06T15:17:20Z</time>
  </trkpt>
  <trkpt lat="33.998782" lon="-2.694464">
   <ele>1379.00</ele>
   <time>2014-04-06T15:17:23Z</time>
  </trkpt>
  <trkpt lat="33.998884" lon="-2.694715">
   <ele>1378.00</ele>
   <time>2014-04-06T15:17:26Z</time>
  </trkpt>
  <trkpt lat="33.998860" lon="-2.694940">
   <ele>1377.00</ele>
   <time>2014-04-06T15:17:29Z</time>
  </trkpt>
  <trkpt lat="33.998771" lon="-2.695151">
   <ele>1377.00</ele>
   <time>2014-04-06T15:17:33Z</time>
  </trkpt>
  <trkpt lat="33.998926" lon="-2.695217">
   <ele>1376.00</ele>
   <time>2014-04-06T15:17:38Z</time>
  </trkpt>
  <trkpt lat="33.999097" lon="-2.695144">
   <ele>1375.00</ele>
   <time>2014-04-06T15:17:41Z</time>
  </trkpt>
  <trkpt lat="33.999306" lon="-2.695108">
   <ele>1374.00</ele>
   <time>2014-04-06T15:17:44Z</time>
  </trkpt>
  <trkpt lat="33.999531" lon="-2.695149">
   <ele>1373.00</ele>
   <time>2014-04-06T15:17:47Z</time>
  </trkpt>
  <trkpt lat="33.999742" lon="-2.695244">
   <ele>1372.00</ele>
   <time>2014-04-06T15:17:50Z</time>
  </trkpt>
  <trkpt lat="33.999958" lon="-2.695347">
   <ele>1372.00</ele>
   <time>2014-04-06T15:18:06Z</time>
  </trkpt>
  <trkpt lat="34.000166" lon="-2.695426">
   <ele>1371.00</ele>
   <time>2014-04-06T15:18:13Z</time>
  </trkpt>
  <trkpt lat="34.000349" lon="-2.695482">
   <ele>1370.00</ele>
   <time>2014-04-06T15:18:16Z</time>
  </trkpt>
  <trkpt lat="34.000543" lon="-2.695526">
   <ele>1369.00</ele>
   <time>2014-04-06T15:18:19Z</time>
  </trkpt>
  <trkpt lat="34.000757" lon="-2.695569">
   <ele>1368.00</ele>
   <time>2014-04-06T15:18:22Z</time>
  </trkpt>
  <trkpt lat="34.000970" lon="-2.695668">
   <ele>1367.00</ele>
   <time>2014-04-06T15:18:25Z</time>
  </trkpt>
  <trkpt lat="34.001141" lon="-2.695884">
   <ele>1366.00</ele>
   <time>2014-04-06T15:18:28Z</time>
  </trkpt>
  <trkpt lat="34.001220" lon="-2.696081">
   <ele>1365.00</ele>
   <time>2014-04-06T15:18:30Z</time>
  </trkpt>
  <trkpt lat="34.001324" lon="-2.696374">
   <ele>1364.00</ele>
   <time>2014-04-06T15:18:33Z</time>
  </trkpt>
  <trkpt lat="34.001446" lon="-2.696647">
   <ele>1363.00</ele>
   <time>2014-04-06T15:18:36Z</time>
  </trkpt>
  <trkpt lat="34.001550" lon="-2.696913">
   <ele>1362.00</ele>
   <time>2014-04-06T15:18:39Z</time>
  </trkpt>
  <trkpt lat="34.001591" lon="-2.697214">
   <ele>1362.00</ele>
   <time>2014-04-06T15:18:42Z</time>
  </trkpt>
  <trkpt lat="34.001569" lon="-2.697446">
   <ele>1362.00</ele>
   <time>2014-04-06T15:18:44Z</time>
  </trkpt>
  <trkpt lat="34.001483" lon="-2.697907">
   <ele>1362.00</ele>
   <time>2014-04-06T15:18:48Z</time>
  </trkpt>
  <trkpt lat="34.001424" lon="-2.698127">
   <ele>1361.00</ele>
   <time>2014-04-06T15:18:50Z</time>
  </trkpt>
  <trkpt lat="34.001359" lon="-2.698338">
   <ele>1360.00</ele>
   <time>2014-04-06T15:18:52Z</time>
  </trkpt>
  <trkpt lat="34.001290" lon="-2.698540">
   <ele>1359.00</ele>
   <time>2014-04-06T15:18:54Z</time>
  </trkpt>
  <trkpt lat="34.001187" lon="-2.698816">
   <ele>1358.00</ele>
   <time>2014-04-06T15:18:57Z</time>
  </trkpt>
  <trkpt lat="34.001051" lon="-2.699026">
   <ele>1357.00</ele>
   <time>2014-04-06T15:19:00Z</time>
  </trkpt>
  <trkpt lat="34.000926" lon="-2.699199">
   <ele>1355.00</ele>
   <time>2014-04-06T15:19:03Z</time>
  </trkpt>
  <trkpt lat="34.000994" lon="-2.699399">
   <ele>1353.00</ele>
   <time>2014-04-06T15:19:06Z</time>
  </trkpt>
  <trkpt lat="34.001178" lon="-2.699623">
   <ele>1350.00</ele>
   <time>2014-04-06T15:19:09Z</time>
  </trkpt>
  <trkpt lat="34.001255" lon="-2.699841">
   <ele>1349.00</ele>
   <time>2014-04-06T15:19:11Z</time>
  </trkpt>
  <trkpt lat="34.001306" lon="-2.700088">
   <ele>1348.00</ele>
   <time>2014-04-06T15:19:13Z</time>
  </trkpt>
  <trkpt lat="34.001332" lon="-2.700341">
   <ele>1347.00</ele>
   <time>2014-04-06T15:19:15Z</time>
  </trkpt>
  <trkpt lat="34.001331" lon="-2.700592">
   <ele>1346.00</ele>
   <time>2014-04-06T15:19:17Z</time>
  </trkpt>
  <trkpt lat="34.001306" lon="-2.700848">
   <ele>1345.00</ele>
   <time>2014-04-06T15:19:19Z</time>
  </trkpt>
  <trkpt lat="34.001245" lon="-2.701128">
   <ele>1344.00</ele>
   <time>2014-04-06T15:19:21Z</time>
  </trkpt>
  <trkpt lat="34.001168" lon="-2.701417">
   <ele>1343.00</ele>
   <time>2014-04-06T15:19:23Z</time>
  </trkpt>
  <trkpt lat="34.001049" lon="-2.701840">
   <ele>1342.00</ele>
   <time>2014-04-06T15:19:26Z</time>
  </trkpt>
  <trkpt lat="34.000994" lon="-2.702123">
   <ele>1342.00</ele>
   <time>2014-04-06T15:19:28Z</time>
  </trkpt>
  <trkpt lat="34.000968" lon="-2.702403">
   <ele>1342.00</ele>
   <time>2014-04-06T15:19:30Z</time>
  </trkpt>
  <trkpt lat="34.000958" lon="-2.702812">
   <ele>1341.00</ele>
   <time>2014-04-06T15:19:33Z</time>
  </trkpt>
  <trkpt lat="34.000916" lon="-2.703069">
   <ele>1341.00</ele>
   <time>2014-04-06T15:19:35Z</time>
  </trkpt>
  <trkpt lat="34.000840" lon="-2.703322">
   <ele>1340.00</ele>
   <time>2014-04-06T15:19:37Z</time>
  </trkpt>
  <trkpt lat="34.000747" lon="-2.703561">
   <ele>1339.00</ele>
   <time>2014-04-06T15:19:39Z</time>
  </trkpt>
  <trkpt lat="34.000639" lon="-2.703774">
   <ele>1338.00</ele>
   <time>2014-04-06T15:19:41Z</time>
  </trkpt>
  <trkpt lat="34.000514" lon="-2.703958">
   <ele>1337.00</ele>
   <time>2014-04-06T15:19:43Z</time>
  </trkpt>
  <trkpt lat="34.000302" lon="-2.704131">
   <ele>1336.00</ele>
   <time>2014-04-06T15:19:46Z</time>
  </trkpt>
  <trkpt lat="34.000087" lon="-2.704168">
   <ele>1335.00</ele>
   <time>2014-04-06T15:19:49Z</time>
  </trkpt>
  <trkpt lat="33.999924" lon="-2.704299">
   <ele>1335.00</ele>
   <time>2014-04-06T15:19:53Z</time>
  </trkpt>
  <trkpt lat="34.000053" lon="-2.704476">
   <ele>1335.00</ele>
   <time>2014-04-06T15:19:58Z</time>
  </trkpt>
  <trkpt lat="34.000550" lon="-2.705171">
   <ele>1332.00</ele>
   <time>2014-04-06T15:20:09Z</time>
  </trkpt>
  <trkpt lat="34.000691" lon="-2.705438">
   <ele>1330.00</ele>
   <time>2014-04-06T15:20:12Z</time>
  </trkpt>
  <trkpt lat="34.000765" lon="-2.705649">
   <ele>1329.00</ele>
   <time>2014-04-06T15:20:14Z</time>
  </trkpt>
  <trkpt lat="34.000825" lon="-2.705868">
   <ele>1328.00</ele>
   <time>2014-04-06T15:20:16Z</time>
  </trkpt>
  <trkpt lat="34.000878" lon="-2.706091">
   <ele>1327.00</ele>
   <time>2014-04-06T15:20:18Z</time>
  </trkpt>
  <trkpt lat="34.000919" lon="-2.706316">
   <ele>1326.00</ele>
   <time>2014-04-06T15:20:20Z</time>
  </trkpt>
  <trkpt lat="34.000986" lon="-2.706768">
   <ele>1325.00</ele>
   <time>2014-04-06T15:20:24Z</time>
  </trkpt>
  <trkpt lat="34.001006" lon="-2.706998">
   <ele>1325.00</ele>
   <time>2014-04-06T15:20:26Z</time>
  </trkpt>
  <trkpt lat="34.001013" lon="-2.707224">
   <ele>1324.00</ele>
   <time>2014-04-06T15:20:28Z</time>
  </trkpt>
  <trkpt lat="34.001008" lon="-2.707453">
   <ele>1323.00</ele>
   <time>2014-04-06T15:20:30Z</time>
  </trkpt>
  <trkpt lat="34.000986" lon="-2.707681">
   <ele>1322.00</ele>
   <time>2014-04-06T15:20:32Z</time>
  </trkpt>
  <trkpt lat="34.000947" lon="-2.707910">
   <ele>1321.00</ele>
   <time>2014-04-06T15:20:34Z</time>
  </trkpt>
  <trkpt lat="34.000887" lon="-2.708131">
   <ele>1320.00</ele>
   <time>2014-04-06T15:20:36Z</time>
  </trkpt>
  <trkpt lat="34.000801" lon="-2.708343">
   <ele>1319.00</ele>
   <time>2014-04-06T15:20:38Z</time>
  </trkpt>
  <trkpt lat="34.000697" lon="-2.708540">
   <ele>1318.00</ele>
   <time>2014-04-06T15:20:40Z</time>
  </trkpt>
  <trkpt lat="34.000597" lon="-2.708722">
   <ele>1317.00</ele>
   <time>2014-04-06T15:20:42Z</time>
  </trkpt>
  <trkpt lat="34.000415" lon="-2.708942">
   <ele>1316.00</ele>
   <time>2014-04-06T15:20:45Z</time>
  </trkpt>
  <trkpt lat="34.000192" lon="-2.709104">
   <ele>1315.00</ele>
   <time>2014-04-06T15:20:48Z</time>
  </trkpt>
  <trkpt lat="33.999939" lon="-2.709205">
   <ele>1313.00</ele>
   <time>2014-04-06T15:20:51Z</time>
  </trkpt>
  <trkpt lat="33.999752" lon="-2.709241">
   <ele>1312.00</ele>
   <time>2014-04-06T15:20:53Z</time>
  </trkpt>
  <trkpt lat="33.999457" lon="-2.709290">
   <ele>1311.00</ele>
   <time>2014-04-06T15:20:56Z</time>
  </trkpt>
  <trkpt lat="33.999263" lon="-2.709349">
   <ele>1310.00</ele>
   <time>2014-04-06T15:20:58Z</time>
  </trkpt>
  <trkpt lat="33.999081" lon="-2.709440">
   <ele>1310.00</ele>
   <time>2014-04-06T15:21:00Z</time>
  </trkpt>
  <trkpt lat="33.998901" lon="-2.709514">
   <ele>1309.00</ele>
   <time>2014-04-06T15:21:02Z</time>
  </trkpt>
  <trkpt lat="33.998715" lon="-2.709548">
   <ele>1309.00</ele>
   <time>2014-04-06T15:21:04Z</time>
  </trkpt>
  <trkpt lat="33.998533" lon="-2.709576">
   <ele>1309.00</ele>
   <time>2014-04-06T15:21:06Z</time>
  </trkpt>
  <trkpt lat="33.998369" lon="-2.709669">
   <ele>1309.00</ele>
   <time>2014-04-06T15:21:08Z</time>
  </trkpt>
  <trkpt lat="33.998246" lon="-2.709830">
   <ele>1309.00</ele>
   <time>2014-04-06T15:21:10Z</time>
  </trkpt>
  <trkpt lat="33.998048" lon="-2.710029">
   <ele>1308.00</ele>
   <time>2014-04-06T15:21:13Z</time>
  </trkpt>
  <trkpt lat="33.997873" lon="-2.710085">
   <ele>1308.00</ele>
   <time>2014-04-06T15:21:15Z</time>
  </trkpt>
  <trkpt lat="33.997596" lon="-2.710160">
   <ele>1306.00</ele>
   <time>2014-04-06T15:21:18Z</time>
  </trkpt>
  <trkpt lat="33.997420" lon="-2.710251">
   <ele>1305.00</ele>
   <time>2014-04-06T15:21:20Z</time>
  </trkpt>
  <trkpt lat="33.997263" lon="-2.710371">
   <ele>1304.00</ele>
   <time>2014-04-06T15:21:22Z</time>
  </trkpt>
  <trkpt lat="33.997024" lon="-2.710465">
   <ele>1302.00</ele>
   <time>2014-04-06T15:21:25Z</time>
  </trkpt>
  <trkpt lat="33.996778" lon="-2.710383">
   <ele>1300.00</ele>
   <time>2014-04-06T15:21:28Z</time>
  </trkpt>
  <trkpt lat="33.996608" lon="-2.710309">
   <ele>1299.00</ele>
   <time>2014-04-06T15:21:30Z</time>
  </trkpt>
  <trkpt lat="33.996261" lon="-2.710180">
   <ele>1297.00</ele>
   <time>2014-04-06T15:21:34Z</time>
  </trkpt>
  <trkpt lat="33.996093" lon="-2.710095">
   <ele>1296.00</ele>
   <time>2014-04-06T15:21:36Z</time>
  </trkpt>
  <trkpt lat="33.995833" lon="-2.709958">
   <ele>1295.00</ele>
   <time>2014-04-06T15:21:39Z</time>
  </trkpt>
  <trkpt lat="33.995672" lon="-2.709832">
   <ele>1293.00</ele>
   <time>2014-04-06T15:21:41Z</time>
  </trkpt>
  <trkpt lat="33.995541" lon="-2.709674">
   <ele>1291.00</ele>
   <time>2014-04-06T15:21:43Z</time>
  </trkpt>
  <trkpt lat="33.995316" lon="-2.709560">
   <ele>1290.00</ele>
   <time>2014-04-06T15:21:46Z</time>
  </trkpt>
  <trkpt lat="33.995078" lon="-2.709562">
   <ele>1289.00</ele>
   <time>2014-04-06T15:21:49Z</time>
  </trkpt>
  <trkpt lat="33.994890" lon="-2.709414">
   <ele>1288.00</ele>
   <time>2014-04-06T15:21:52Z</time>
  </trkpt>
  <trkpt lat="33.994777" lon="-2.709240">
   <ele>1287.00</ele>
   <time>2014-04-06T15:21:54Z</time>
  </trkpt>
  <trkpt lat="33.994628" lon="-2.709094">
   <ele>1285.00</ele>
   <time>2014-04-06T15:21:56Z</time>
  </trkpt>
  <trkpt lat="33.994458" lon="-2.708988">
   <ele>1285.00</ele>
   <time>2014-04-06T15:21:58Z</time>
  </trkpt>
  <trkpt lat="33.994242" lon="-2.708849">
   <ele>1283.00</ele>
   <time>2014-04-06T15:22:01Z</time>
  </trkpt>
  <trkpt lat="33.994059" lon="-2.708793">
   <ele>1283.00</ele>
   <time>2014-04-06T15:22:05Z</time>
  </trkpt>
  <trkpt lat="33.993934" lon="-2.709012">
   <ele>1283.00</ele>
   <time>2014-04-06T15:22:09Z</time>
  </trkpt>
  <trkpt lat="33.993838" lon="-2.709288">
   <ele>1283.00</ele>
   <time>2014-04-06T15:22:12Z</time>
  </trkpt>
  <trkpt lat="33.993803" lon="-2.709502">
   <ele>1283.00</ele>
   <time>2014-04-06T15:22:14Z</time>
  </trkpt>
  <trkpt lat="33.993764" lon="-2.709745">
   <ele>1283.00</ele>
   <time>2014-04-06T15:22:16Z</time>
  </trkpt>
  <trkpt lat="33.993681" lon="-2.709997">
   <ele>1284.00</ele>
   <time>2014-04-06T15:22:18Z</time>
  </trkpt>
  <trkpt lat="33.993564" lon="-2.710204">
   <ele>1285.00</ele>
   <time>2014-04-06T15:22:20Z</time>
  </trkpt>
  <trkpt lat="33.993376" lon="-2.710437">
   <ele>1286.00</ele>
   <time>2014-04-06T15:22:23Z</time>
  </trkpt>
  <trkpt lat="33.993362" lon="-2.710735">
   <ele>1286.00</ele>
   <time>2014-04-06T15:22:26Z</time>
  </trkpt>
  <trkpt lat="33.993381" lon="-2.710955">
   <ele>1287.00</ele>
   <time>2014-04-06T15:22:28Z</time>
  </trkpt>
  <trkpt lat="33.993404" lon="-2.711172">
   <ele>1286.00</ele>
   <time>2014-04-06T15:22:30Z</time>
  </trkpt>
  <trkpt lat="33.993535" lon="-2.711453">
   <ele>1286.00</ele>
   <time>2014-04-06T15:22:33Z</time>
  </trkpt>
  <trkpt lat="33.993657" lon="-2.711724">
   <ele>1287.00</ele>
   <time>2014-04-06T15:22:36Z</time>
  </trkpt>
  <trkpt lat="33.993621" lon="-2.712036">
   <ele>1287.00</ele>
   <time>2014-04-06T15:22:39Z</time>
  </trkpt>
  <trkpt lat="33.993524" lon="-2.712223">
   <ele>1287.00</ele>
   <time>2014-04-06T15:22:41Z</time>
  </trkpt>
  <trkpt lat="33.993381" lon="-2.712357">
   <ele>1288.00</ele>
   <time>2014-04-06T15:22:43Z</time>
  </trkpt>
  <trkpt lat="33.993149" lon="-2.712484">
   <ele>1287.00</ele>
   <time>2014-04-06T15:22:46Z</time>
  </trkpt>
  <trkpt lat="33.993008" lon="-2.712731">
   <ele>1287.00</ele>
   <time>2014-04-06T15:22:49Z</time>
  </trkpt>
  <trkpt lat="33.992969" lon="-2.713023">
   <ele>1287.00</ele>
   <time>2014-04-06T15:22:52Z</time>
  </trkpt>
  <trkpt lat="33.992783" lon="-2.713259">
   <ele>1287.00</ele>
   <time>2014-04-06T15:22:55Z</time>
  </trkpt>
  <trkpt lat="33.992635" lon="-2.713391">
   <ele>1288.00</ele>
   <time>2014-04-06T15:22:57Z</time>
  </trkpt>
  <trkpt lat="33.992397" lon="-2.713522">
   <ele>1288.00</ele>
   <time>2014-04-06T15:23:00Z</time>
  </trkpt>
  <trkpt lat="33.992219" lon="-2.713568">
   <ele>1288.00</ele>
   <time>2014-04-06T15:23:02Z</time>
  </trkpt>
  <trkpt lat="33.991967" lon="-2.713576">
   <ele>1288.00</ele>
   <time>2014-04-06T15:23:05Z</time>
  </trkpt>
  <trkpt lat="33.991762" lon="-2.713536">
   <ele>1288.00</ele>
   <time>2014-04-06T15:23:08Z</time>
  </trkpt>
  <trkpt lat="33.991671" lon="-2.713776">
   <ele>1287.00</ele>
   <time>2014-04-06T15:23:11Z</time>
  </trkpt>
  <trkpt lat="33.991698" lon="-2.714060">
   <ele>1288.00</ele>
   <time>2014-04-06T15:23:14Z</time>
  </trkpt>
  <trkpt lat="33.991721" lon="-2.714368">
   <ele>1288.00</ele>
   <time>2014-04-06T15:23:17Z</time>
  </trkpt>
  <trkpt lat="33.991680" lon="-2.714608">
   <ele>1288.00</ele>
   <time>2014-04-06T15:23:19Z</time>
  </trkpt>
  <trkpt lat="33.991566" lon="-2.715060">
   <ele>1288.00</ele>
   <time>2014-04-06T15:23:23Z</time>
  </trkpt>
  <trkpt lat="33.991420" lon="-2.715319">
   <ele>1287.00</ele>
   <time>2014-04-06T15:23:26Z</time>
  </trkpt>
  <trkpt lat="33.991338" lon="-2.715598">
   <ele>1287.00</ele>
   <time>2014-04-06T15:23:29Z</time>
  </trkpt>
  <trkpt lat="33.991145" lon="-2.715821">
   <ele>1287.00</ele>
   <time>2014-04-06T15:23:32Z</time>
  </trkpt>
  <trkpt lat="33.990914" lon="-2.715967">
   <ele>1287.00</ele>
   <time>2014-04-06T15:23:35Z</time>
  </trkpt>
  <trkpt lat="33.990699" lon="-2.716015">
   <ele>1286.00</ele>
   <time>2014-04-06T15:23:38Z</time>
  </trkpt>
  <trkpt lat="33.990612" lon="-2.716256">
   <ele>1286.00</ele>
   <time>2014-04-06T15:23:42Z</time>
  </trkpt>
  <trkpt lat="33.990519" lon="-2.716496">
   <ele>1286.00</ele>
   <time>2014-04-06T15:23:45Z</time>
  </trkpt>
  <trkpt lat="33.990390" lon="-2.716737">
   <ele>1286.00</ele>
   <time>2014-04-06T15:23:48Z</time>
  </trkpt>
  <trkpt lat="33.990266" lon="-2.717000">
   <ele>1287.00</ele>
   <time>2014-04-06T15:23:51Z</time>
  </trkpt>
  <trkpt lat="33.990091" lon="-2.717239">
   <ele>1286.00</ele>
   <time>2014-04-06T15:23:54Z</time>
  </trkpt>
  <trkpt lat="33.989965" lon="-2.717497">
   <ele>1285.00</ele>
   <time>2014-04-06T15:23:57Z</time>
  </trkpt>
  <trkpt lat="33.989767" lon="-2.717649">
   <ele>1284.00</ele>
   <time>2014-04-06T15:24:00Z</time>
  </trkpt>
  <trkpt lat="33.989620" lon="-2.717808">
   <ele>1283.00</ele>
   <time>2014-04-06T15:24:03Z</time>
  </trkpt>
  <trkpt lat="33.989670" lon="-2.718016">
   <ele>1282.00</ele>
   <time>2014-04-06T15:24:06Z</time>
  </trkpt>
  <trkpt lat="33.989682" lon="-2.718256">
   <ele>1282.00</ele>
   <time>2014-04-06T15:24:09Z</time>
  </trkpt>
  <trkpt lat="33.989646" lon="-2.718535">
   <ele>1282.00</ele>
   <time>2014-04-06T15:24:12Z</time>
  </trkpt>
  <trkpt lat="33.989631" lon="-2.718843">
   <ele>1283.00</ele>
   <time>2014-04-06T15:24:15Z</time>
  </trkpt>
  <trkpt lat="33.989579" lon="-2.719058">
   <ele>1283.00</ele>
   <time>2014-04-06T15:24:17Z</time>
  </trkpt>
  <trkpt lat="33.989519" lon="-2.719272">
   <ele>1283.00</ele>
   <time>2014-04-06T15:24:19Z</time>
  </trkpt>
  <trkpt lat="33.989396" lon="-2.719554">
   <ele>1283.00</ele>
   <time>2014-04-06T15:24:22Z</time>
  </trkpt>
  <trkpt lat="33.989192" lon="-2.719742">
   <ele>1284.00</ele>
   <time>2014-04-06T15:24:25Z</time>
  </trkpt>
  <trkpt lat="33.988944" lon="-2.719851">
   <ele>1284.00</ele>
   <time>2014-04-06T15:24:28Z</time>
  </trkpt>
  <trkpt lat="33.988711" lon="-2.719919">
   <ele>1284.00</ele>
   <time>2014-04-06T15:24:31Z</time>
  </trkpt>
  <trkpt lat="33.988535" lon="-2.720010">
   <ele>1284.00</ele>
   <time>2014-04-06T15:24:34Z</time>
  </trkpt>
  <trkpt lat="33.988467" lon="-2.720236">
   <ele>1284.00</ele>
   <time>2014-04-06T15:24:37Z</time>
  </trkpt>
  <trkpt lat="33.988379" lon="-2.720520">
   <ele>1284.00</ele>
   <time>2014-04-06T15:24:40Z</time>
  </trkpt>
  <trkpt lat="33.988270" lon="-2.720826">
   <ele>1284.00</ele>
   <time>2014-04-06T15:24:43Z</time>
  </trkpt>
  <trkpt lat="33.988162" lon="-2.721007">
   <ele>1284.00</ele>
   <time>2014-04-06T15:24:45Z</time>
  </trkpt>
  <trkpt lat="33.988018" lon="-2.721160">
   <ele>1284.00</ele>
   <time>2014-04-06T15:24:47Z</time>
  </trkpt>
  <trkpt lat="33.987732" lon="-2.721423">
   <ele>1284.00</ele>
   <time>2014-04-06T15:24:51Z</time>
  </trkpt>
  <trkpt lat="33.987601" lon="-2.721639">
   <ele>1284.00</ele>
   <time>2014-04-06T15:24:54Z</time>
  </trkpt>
  <trkpt lat="33.987644" lon="-2.721843">
   <ele>1283.00</ele>
   <time>2014-04-06T15:24:57Z</time>
  </trkpt>
  <trkpt lat="33.987792" lon="-2.722018">
   <ele>1281.00</ele>
   <time>2014-04-06T15:25:00Z</time>
  </trkpt>
  <trkpt lat="33.987887" lon="-2.722290">
   <ele>1279.00</ele>
   <time>2014-04-06T15:25:03Z</time>
  </trkpt>
  <trkpt lat="33.987945" lon="-2.722598">
   <ele>1277.00</ele>
   <time>2014-04-06T15:25:06Z</time>
  </trkpt>
  <trkpt lat="33.987881" lon="-2.722819">
   <ele>1277.00</ele>
   <time>2014-04-06T15:25:09Z</time>
  </trkpt>
  <trkpt lat="33.987693" lon="-2.722839">
   <ele>1276.00</ele>
   <time>2014-04-06T15:25:12Z</time>
  </trkpt>
  <trkpt lat="33.987488" lon="-2.722847">
   <ele>1275.00</ele>
   <time>2014-04-06T15:25:16Z</time>
  </trkpt>
  <trkpt lat="33.987547" lon="-2.723098">
   <ele>1275.00</ele>
   <time>2014-04-06T15:25:20Z</time>
  </trkpt>
  <trkpt lat="33.987630" lon="-2.723319">
   <ele>1276.00</ele>
   <time>2014-04-06T15:25:23Z</time>
  </trkpt>
  <trkpt lat="33.987643" lon="-2.723574">
   <ele>1276.00</ele>
   <time>2014-04-06T15:25:26Z</time>
  </trkpt>
  <trkpt lat="33.987492" lon="-2.723751">
   <ele>1276.00</ele>
   <time>2014-04-06T15:25:29Z</time>
  </trkpt>
  <trkpt lat="33.987306" lon="-2.723907">
   <ele>1276.00</ele>
   <time>2014-04-06T15:25:32Z</time>
  </trkpt>
  <trkpt lat="33.987189" lon="-2.724162">
   <ele>1276.00</ele>
   <time>2014-04-06T15:25:35Z</time>
  </trkpt>
  <trkpt lat="33.987075" lon="-2.724440">
   <ele>1276.00</ele>
   <time>2014-04-06T15:25:38Z</time>
  </trkpt>
  <trkpt lat="33.986947" lon="-2.724667">
   <ele>1277.00</ele>
   <time>2014-04-06T15:25:41Z</time>
  </trkpt>
  <trkpt lat="33.986807" lon="-2.724839">
   <ele>1278.00</ele>
   <time>2014-04-06T15:25:44Z</time>
  </trkpt>
  <trkpt lat="33.986756" lon="-2.725066">
   <ele>1278.00</ele>
   <time>2014-04-06T15:25:47Z</time>
  </trkpt>
  <trkpt lat="33.986651" lon="-2.725256">
   <ele>1279.00</ele>
   <time>2014-04-06T15:25:50Z</time>
  </trkpt>
  <trkpt lat="33.986476" lon="-2.725374">
   <ele>1279.00</ele>
   <time>2014-04-06T15:25:53Z</time>
  </trkpt>
  <trkpt lat="33.986278" lon="-2.725460">
   <ele>1279.00</ele>
   <time>2014-04-06T15:25:56Z</time>
  </trkpt>
  <trkpt lat="33.986076" lon="-2.725514">
   <ele>1279.00</ele>
   <time>2014-04-06T15:25:59Z</time>
  </trkpt>
  <trkpt lat="33.985878" lon="-2.725496">
   <ele>1278.00</ele>
   <time>2014-04-06T15:26:02Z</time>
  </trkpt>
  <trkpt lat="33.985712" lon="-2.725405">
   <ele>1278.00</ele>
   <time>2014-04-06T15:26:05Z</time>
  </trkpt>
  <trkpt lat="33.985614" lon="-2.725516">
   <ele>1277.00</ele>
   <time>2014-04-06T15:26:11Z</time>
  </trkpt>
  <trkpt lat="33.985744" lon="-2.725828">
   <ele>1277.00</ele>
   <time>2014-04-06T15:26:17Z</time>
  </trkpt>
  <trkpt lat="33.985729" lon="-2.726107">
   <ele>1277.00</ele>
   <time>2014-04-06T15:26:21Z</time>
  </trkpt>
  <trkpt lat="33.985603" lon="-2.726317">
   <ele>1277.00</ele>
   <time>2014-04-06T15:26:25Z</time>
  </trkpt>
  <trkpt lat="33.985642" lon="-2.726533">
   <ele>1277.00</ele>
   <time>2014-04-06T15:26:29Z</time>
  </trkpt>
  <trkpt lat="33.985679" lon="-2.726772">
   <ele>1277.00</ele>
   <time>2014-04-06T15:26:32Z</time>
  </trkpt>
  <trkpt lat="33.985630" lon="-2.727049">
   <ele>1277.00</ele>
   <time>2014-04-06T15:26:35Z</time>
  </trkpt>
  <trkpt lat="33.985508" lon="-2.727309">
   <ele>1277.00</ele>
   <time>2014-04-06T15:26:38Z</time>
  </trkpt>
  <trkpt lat="33.985371" lon="-2.727550">
   <ele>1277.00</ele>
   <time>2014-04-06T15:26:41Z</time>
  </trkpt>
  <trkpt lat="33.985320" lon="-2.727812">
   <ele>1277.00</ele>
   <time>2014-04-06T15:26:44Z</time>
  </trkpt>
  <trkpt lat="33.985300" lon="-2.728085">
   <ele>1277.00</ele>
   <time>2014-04-06T15:26:47Z</time>
  </trkpt>
  <trkpt lat="33.985228" lon="-2.728356">
   <ele>1277.00</ele>
   <time>2014-04-06T15:26:50Z</time>
  </trkpt>
  <trkpt lat="33.985090" lon="-2.728599">
   <ele>1278.00</ele>
   <time>2014-04-06T15:26:53Z</time>
  </trkpt>
  <trkpt lat="33.984898" lon="-2.728780">
   <ele>1278.00</ele>
   <time>2014-04-06T15:26:56Z</time>
  </trkpt>
  <trkpt lat="33.984690" lon="-2.728902">
   <ele>1277.00</ele>
   <time>2014-04-06T15:26:59Z</time>
  </trkpt>
  <trkpt lat="33.984497" lon="-2.728917">
   <ele>1277.00</ele>
   <time>2014-04-06T15:27:02Z</time>
  </trkpt>
  <trkpt lat="33.984410" lon="-2.729085">
   <ele>1277.00</ele>
   <time>2014-04-06T15:27:06Z</time>
  </trkpt>
  <trkpt lat="33.984424" lon="-2.729315">
   <ele>1278.00</ele>
   <time>2014-04-06T15:27:09Z</time>
  </trkpt>
  <trkpt lat="33.984398" lon="-2.729598">
   <ele>1279.00</ele>
   <time>2014-04-06T15:27:12Z</time>
  </trkpt>
  <trkpt lat="33.984297" lon="-2.729849">
   <ele>1278.00</ele>
   <time>2014-04-06T15:27:15Z</time>
  </trkpt>
  <trkpt lat="33.984104" lon="-2.729981">
   <ele>1279.00</ele>
   <time>2014-04-06T15:27:18Z</time>
  </trkpt>
  <trkpt lat="33.983813" lon="-2.730069">
   <ele>1277.00</ele>
   <time>2014-04-06T15:27:22Z</time>
  </trkpt>
  <trkpt lat="33.983742" lon="-2.730291">
   <ele>1277.00</ele>
   <time>2014-04-06T15:27:26Z</time>
  </trkpt>
  <trkpt lat="33.983789" lon="-2.730567">
   <ele>1277.00</ele>
   <time>2014-04-06T15:27:30Z</time>
  </trkpt>
  <trkpt lat="33.983666" lon="-2.730770">
   <ele>1278.00</ele>
   <time>2014-04-06T15:27:33Z</time>
  </trkpt>
  <trkpt lat="33.983488" lon="-2.730927">
   <ele>1277.00</ele>
   <time>2014-04-06T15:27:36Z</time>
  </trkpt>
  <trkpt lat="33.983398" lon="-2.731150">
   <ele>1276.00</ele>
   <time>2014-04-06T15:27:39Z</time>
  </trkpt>
  <trkpt lat="33.983454" lon="-2.731388">
   <ele>1277.00</ele>
   <time>2014-04-06T15:27:42Z</time>
  </trkpt>
  <trkpt lat="33.983516" lon="-2.731657">
   <ele>1277.00</ele>
   <time>2014-04-06T15:27:45Z</time>
  </trkpt>
  <trkpt lat="33.983462" lon="-2.731913">
   <ele>1277.00</ele>
   <time>2014-04-06T15:27:48Z</time>
  </trkpt>
  <trkpt lat="33.983281" lon="-2.732082">
   <ele>1277.00</ele>
   <time>2014-04-06T15:27:51Z</time>
  </trkpt>
  <trkpt lat="33.983065" lon="-2.732196">
   <ele>1276.00</ele>
   <time>2014-04-06T15:27:54Z</time>
  </trkpt>
  <trkpt lat="33.982860" lon="-2.732225">
   <ele>1276.00</ele>
   <time>2014-04-06T15:27:57Z</time>
  </trkpt>
  <trkpt lat="33.982700" lon="-2.732097">
   <ele>1274.00</ele>
   <time>2014-04-06T15:28:00Z</time>
  </trkpt>
  <trkpt lat="33.982533" lon="-2.732044">
   <ele>1273.00</ele>
   <time>2014-04-06T15:28:03Z</time>
  </trkpt>
  <trkpt lat="33.982520" lon="-2.732289">
   <ele>1273.00</ele>
   <time>2014-04-06T15:28:07Z</time>
  </trkpt>
  <trkpt lat="33.982530" lon="-2.732527">
   <ele>1274.00</ele>
   <time>2014-04-06T15:28:10Z</time>
  </trkpt>
  <trkpt lat="33.982400" lon="-2.732725">
   <ele>1274.00</ele>
   <time>2014-04-06T15:28:13Z</time>
  </trkpt>
  <trkpt lat="33.982183" lon="-2.732781">
   <ele>1275.00</ele>
   <time>2014-04-06T15:28:16Z</time>
  </trkpt>
  <trkpt lat="33.981959" lon="-2.732655">
   <ele>1274.00</ele>
   <time>2014-04-06T15:28:19Z</time>
  </trkpt>
  <trkpt lat="33.981763" lon="-2.732455">
   <ele>1274.00</ele>
   <time>2014-04-06T15:28:22Z</time>
  </trkpt>
  <trkpt lat="33.981618" lon="-2.732250">
   <ele>1274.00</ele>
   <time>2014-04-06T15:28:25Z</time>
  </trkpt>
  <trkpt lat="33.981568" lon="-2.731981">
   <ele>1274.00</ele>
   <time>2014-04-06T15:28:29Z</time>
  </trkpt>
  <trkpt lat="33.981379" lon="-2.731958">
   <ele>1274.00</ele>
   <time>2014-04-06T15:28:33Z</time>
  </trkpt>
  <trkpt lat="33.981215" lon="-2.732092">
   <ele>1274.00</ele>
   <time>2014-04-06T15:28:36Z</time>
  </trkpt>
  <trkpt lat="33.981063" lon="-2.732288">
   <ele>1274.00</ele>
   <time>2014-04-06T15:28:39Z</time>
  </trkpt>
  <trkpt lat="33.980869" lon="-2.732430">
   <ele>1273.00</ele>
   <time>2014-04-06T15:28:42Z</time>
  </trkpt>
  <trkpt lat="33.980781" lon="-2.732626">
   <ele>1273.00</ele>
   <time>2014-04-06T15:28:45Z</time>
  </trkpt>
  <trkpt lat="33.980908" lon="-2.732803">
   <ele>1273.00</ele>
   <time>2014-04-06T15:28:48Z</time>
  </trkpt>
  <trkpt lat="33.980952" lon="-2.733015">
   <ele>1273.00</ele>
   <time>2014-04-06T15:28:51Z</time>
  </trkpt>
  <trkpt lat="33.980805" lon="-2.733142">
   <ele>1273.00</ele>
   <time>2014-04-06T15:28:54Z</time>
  </trkpt>
  <trkpt lat="33.980570" lon="-2.733115">
   <ele>1274.00</ele>
   <time>2014-04-06T15:28:58Z</time>
  </trkpt>
  <trkpt lat="33.980479" lon="-2.733327">
   <ele>1274.00</ele>
   <time>2014-04-06T15:29:02Z</time>
  </trkpt>
  <trkpt lat="33.980529" lon="-2.733655">
   <ele>1274.00</ele>
   <time>2014-04-06T15:29:06Z</time>
  </trkpt>
  <trkpt lat="33.980557" lon="-2.734041">
   <ele>1274.00</ele>
   <time>2014-04-06T15:29:10Z</time>
  </trkpt>
  <trkpt lat="33.980487" lon="-2.734288">
   <ele>1276.00</ele>
   <time>2014-04-06T15:29:13Z</time>
  </trkpt>
  <trkpt lat="33.980287" lon="-2.734341">
   <ele>1276.00</ele>
   <time>2014-04-06T15:29:16Z</time>
  </trkpt>
  <trkpt lat="33.980079" lon="-2.734256">
   <ele>1277.00</ele>
   <time>2014-04-06T15:29:19Z</time>
  </trkpt>
  <trkpt lat="33.979926" lon="-2.734411">
   <ele>1277.00</ele>
   <time>2014-04-06T15:29:23Z</time>
  </trkpt>
  <trkpt lat="33.979942" lon="-2.734668">
   <ele>1277.00</ele>
   <time>2014-04-06T15:29:26Z</time>
  </trkpt>
  <trkpt lat="33.979918" lon="-2.734959">
   <ele>1277.00</ele>
   <time>2014-04-06T15:29:29Z</time>
  </trkpt>
  <trkpt lat="33.979845" lon="-2.735240">
   <ele>1278.00</ele>
   <time>2014-04-06T15:29:32Z</time>
  </trkpt>
  <trkpt lat="33.979697" lon="-2.735483">
   <ele>1278.00</ele>
   <time>2014-04-06T15:29:35Z</time>
  </trkpt>
  <trkpt lat="33.979489" lon="-2.735610">
   <ele>1279.00</ele>
   <time>2014-04-06T15:29:38Z</time>
  </trkpt>
  <trkpt lat="33.979336" lon="-2.735746">
   <ele>1280.00</ele>
   <time>2014-04-06T15:29:41Z</time>
  </trkpt>
  <trkpt lat="33.979359" lon="-2.735967">
   <ele>1281.00</ele>
   <time>2014-04-06T15:29:44Z</time>
  </trkpt>
  <trkpt lat="33.979334" lon="-2.736196">
   <ele>1281.00</ele>
   <time>2014-04-06T15:29:47Z</time>
  </trkpt>
  <trkpt lat="33.979121" lon="-2.736326">
   <ele>1282.00</ele>
   <time>2014-04-06T15:29:50Z</time>
  </trkpt>
  <trkpt lat="33.978891" lon="-2.736471">
   <ele>1282.00</ele>
   <time>2014-04-06T15:29:53Z</time>
  </trkpt>
  <trkpt lat="33.978774" lon="-2.736731">
   <ele>1282.00</ele>
   <time>2014-04-06T15:29:56Z</time>
  </trkpt>
  <trkpt lat="33.978729" lon="-2.737050">
   <ele>1284.00</ele>
   <time>2014-04-06T15:29:59Z</time>
  </trkpt>
  <trkpt lat="33.978643" lon="-2.737265">
   <ele>1284.00</ele>
   <time>2014-04-06T15:30:01Z</time>
  </trkpt>
  <trkpt lat="33.978564" lon="-2.737493">
   <ele>1284.00</ele>
   <time>2014-04-06T15:30:03Z</time>
  </trkpt>
  <trkpt lat="33.978532" lon="-2.737744">
   <ele>1285.00</ele>
   <time>2014-04-06T15:30:05Z</time>
  </trkpt>
  <trkpt lat="33.978500" lon="-2.738004">
   <ele>1285.00</ele>
   <time>2014-04-06T15:30:07Z</time>
  </trkpt>
  <trkpt lat="33.978432" lon="-2.738262">
   <ele>1285.00</ele>
   <time>2014-04-06T15:30:09Z</time>
  </trkpt>
  <trkpt lat="33.978273" lon="-2.738743">
   <ele>1285.00</ele>
   <time>2014-04-06T15:30:13Z</time>
  </trkpt>
  <trkpt lat="33.978217" lon="-2.738984">
   <ele>1285.00</ele>
   <time>2014-04-06T15:30:15Z</time>
  </trkpt>
  <trkpt lat="33.978141" lon="-2.739341">
   <ele>1285.00</ele>
   <time>2014-04-06T15:30:18Z</time>
  </trkpt>
  <trkpt lat="33.978042" lon="-2.739565">
   <ele>1286.00</ele>
   <time>2014-04-06T15:30:20Z</time>
  </trkpt>
  <trkpt lat="33.977910" lon="-2.739752">
   <ele>1286.00</ele>
   <time>2014-04-06T15:30:22Z</time>
  </trkpt>
  <trkpt lat="33.977774" lon="-2.739895">
   <ele>1287.00</ele>
   <time>2014-04-06T15:30:24Z</time>
  </trkpt>
  <trkpt lat="33.977575" lon="-2.740014">
   <ele>1287.00</ele>
   <time>2014-04-06T15:30:27Z</time>
  </trkpt>
  <trkpt lat="33.977535" lon="-2.740221">
   <ele>1288.00</ele>
   <time>2014-04-06T15:30:30Z</time>
  </trkpt>
  <trkpt lat="33.977619" lon="-2.740762">
   <ele>1289.00</ele>
   <time>2014-04-06T15:30:35Z</time>
  </trkpt>
  <trkpt lat="33.977646" lon="-2.740983">
   <ele>1290.00</ele>
   <time>2014-04-06T15:30:37Z</time>
  </trkpt>
  <trkpt lat="33.977557" lon="-2.741264">
   <ele>1289.00</ele>
   <time>2014-04-06T15:30:40Z</time>
  </trkpt>
  <trkpt lat="33.977339" lon="-2.741402">
   <ele>1289.00</ele>
   <time>2014-04-06T15:30:43Z</time>
  </trkpt>
  <trkpt lat="33.977120" lon="-2.741356">
   <ele>1288.00</ele>
   <time>2014-04-06T15:30:46Z</time>
  </trkpt>
  <trkpt lat="33.976943" lon="-2.741284">
   <ele>1287.00</ele>
   <time>2014-04-06T15:30:49Z</time>
  </trkpt>
  <trkpt lat="33.976911" lon="-2.741452">
   <ele>1286.00</ele>
   <time>2014-04-06T15:30:53Z</time>
  </trkpt>
  <trkpt lat="33.977018" lon="-2.741661">
   <ele>1286.00</ele>
   <time>2014-04-06T15:30:56Z</time>
  </trkpt>
  <trkpt lat="33.977042" lon="-2.741949">
   <ele>1286.00</ele>
   <time>2014-04-06T15:30:59Z</time>
  </trkpt>
  <trkpt lat="33.977024" lon="-2.742230">
   <ele>1286.00</ele>
   <time>2014-04-06T15:31:02Z</time>
  </trkpt>
  <trkpt lat="33.976892" lon="-2.742501">
   <ele>1286.00</ele>
   <time>2014-04-06T15:31:05Z</time>
  </trkpt>
  <trkpt lat="33.976699" lon="-2.742889">
   <ele>1285.00</ele>
   <time>2014-04-06T15:31:09Z</time>
  </trkpt>
  <trkpt lat="33.976587" lon="-2.743063">
   <ele>1284.00</ele>
   <time>2014-04-06T15:31:11Z</time>
  </trkpt>
  <trkpt lat="33.976506" lon="-2.743291">
   <ele>1284.00</ele>
   <time>2014-04-06T15:31:14Z</time>
  </trkpt>
  <trkpt lat="33.976632" lon="-2.743495">
   <ele>1283.00</ele>
   <time>2014-04-06T15:31:17Z</time>
  </trkpt>
  <trkpt lat="33.976731" lon="-2.743787">
   <ele>1283.00</ele>
   <time>2014-04-06T15:31:20Z</time>
  </trkpt>
  <trkpt lat="33.976797" lon="-2.744007">
   <ele>1283.00</ele>
   <time>2014-04-06T15:31:22Z</time>
  </trkpt>
  <trkpt lat="33.976844" lon="-2.744217">
   <ele>1283.00</ele>
   <time>2014-04-06T15:31:24Z</time>
  </trkpt>
  <trkpt lat="33.976802" lon="-2.744493">
   <ele>1283.00</ele>
   <time>2014-04-06T15:31:27Z</time>
  </trkpt>
  <trkpt lat="33.976628" lon="-2.744595">
   <ele>1284.00</ele>
   <time>2014-04-06T15:31:30Z</time>
  </trkpt>
  <trkpt lat="33.976468" lon="-2.744462">
   <ele>1284.00</ele>
   <time>2014-04-06T15:31:33Z</time>
  </trkpt>
  <trkpt lat="33.976295" lon="-2.744423">
   <ele>1285.00</ele>
   <time>2014-04-06T15:31:37Z</time>
  </trkpt>
  <trkpt lat="33.976207" lon="-2.744615">
   <ele>1286.00</ele>
   <time>2014-04-06T15:31:40Z</time>
  </trkpt>
  <trkpt lat="33.976041" lon="-2.744746">
   <ele>1285.00</ele>
   <time>2014-04-06T15:31:43Z</time>
  </trkpt>
  <trkpt lat="33.975819" lon="-2.744776">
   <ele>1285.00</ele>
   <time>2014-04-06T15:31:47Z</time>
  </trkpt>
  <trkpt lat="33.975817" lon="-2.745041">
   <ele>1285.00</ele>
   <time>2014-04-06T15:31:51Z</time>
  </trkpt>
  <trkpt lat="33.975962" lon="-2.745210">
   <ele>1285.00</ele>
   <time>2014-04-06T15:31:54Z</time>
  </trkpt>
  <trkpt lat="33.976044" lon="-2.745412">
   <ele>1285.00</ele>
   <time>2014-04-06T15:31:57Z</time>
  </trkpt>
  <trkpt lat="33.975978" lon="-2.745653">
   <ele>1284.00</ele>
   <time>2014-04-06T15:32:00Z</time>
  </trkpt>
  <trkpt lat="33.975858" lon="-2.745860">
   <ele>1284.00</ele>
   <time>2014-04-06T15:32:03Z</time>
  </trkpt>
  <trkpt lat="33.975678" lon="-2.745937">
   <ele>1284.00</ele>
   <time>2014-04-06T15:32:06Z</time>
  </trkpt>
  <trkpt lat="33.975468" lon="-2.745850">
   <ele>1285.00</ele>
   <time>2014-04-06T15:32:09Z</time>
  </trkpt>
  <trkpt lat="33.975248" lon="-2.745787">
   <ele>1286.00</ele>
   <time>2014-04-06T15:32:12Z</time>
  </trkpt>
  <trkpt lat="33.975063" lon="-2.745892">
   <ele>1286.00</ele>
   <time>2014-04-06T15:32:16Z</time>
  </trkpt>
  <trkpt lat="33.975121" lon="-2.746105">
   <ele>1287.00</ele>
   <time>2014-04-06T15:32:19Z</time>
  </trkpt>
  <trkpt lat="33.975097" lon="-2.746370">
   <ele>1286.00</ele>
   <time>2014-04-06T15:32:22Z</time>
  </trkpt>
  <trkpt lat="33.975001" lon="-2.746654">
   <ele>1287.00</ele>
   <time>2014-04-06T15:32:25Z</time>
  </trkpt>
  <trkpt lat="33.974910" lon="-2.746935">
   <ele>1287.00</ele>
   <time>2014-04-06T15:32:28Z</time>
  </trkpt>
  <trkpt lat="33.974820" lon="-2.747208">
   <ele>1287.00</ele>
   <time>2014-04-06T15:32:31Z</time>
  </trkpt>
  <trkpt lat="33.974667" lon="-2.747406">
   <ele>1287.00</ele>
   <time>2014-04-06T15:32:34Z</time>
  </trkpt>
  <trkpt lat="33.974436" lon="-2.747486">
   <ele>1287.00</ele>
   <time>2014-04-06T15:32:37Z</time>
  </trkpt>
  <trkpt lat="33.974179" lon="-2.747565">
   <ele>1287.00</ele>
   <time>2014-04-06T15:32:40Z</time>
  </trkpt>
  <trkpt lat="33.973941" lon="-2.747644">
   <ele>1287.00</ele>
   <time>2014-04-06T15:32:43Z</time>
  </trkpt>
  <trkpt lat="33.973736" lon="-2.747698">
   <ele>1286.00</ele>
   <time>2014-04-06T15:32:46Z</time>
  </trkpt>
  <trkpt lat="33.973602" lon="-2.747930">
   <ele>1286.00</ele>
   <time>2014-04-06T15:32:50Z</time>
  </trkpt>
  <trkpt lat="33.973480" lon="-2.748151">
   <ele>1286.00</ele>
   <time>2014-04-06T15:32:53Z</time>
  </trkpt>
  <trkpt lat="33.973335" lon="-2.748427">
   <ele>1286.00</ele>
   <time>2014-04-06T15:32:56Z</time>
  </trkpt>
  <trkpt lat="33.973221" lon="-2.748613">
   <ele>1285.00</ele>
   <time>2014-04-06T15:32:58Z</time>
  </trkpt>
  <trkpt lat="33.973032" lon="-2.748826">
   <ele>1285.00</ele>
   <time>2014-04-06T15:33:01Z</time>
  </trkpt>
  <trkpt lat="33.972957" lon="-2.749060">
   <ele>1285.00</ele>
   <time>2014-04-06T15:33:04Z</time>
  </trkpt>
  <trkpt lat="33.972888" lon="-2.749278">
   <ele>1285.00</ele>
   <time>2014-04-06T15:33:07Z</time>
  </trkpt>
  <trkpt lat="33.972749" lon="-2.749444">
   <ele>1284.00</ele>
   <time>2014-04-06T15:33:11Z</time>
  </trkpt>
  <trkpt lat="33.972945" lon="-2.749564">
   <ele>1283.00</ele>
   <time>2014-04-06T15:33:15Z</time>
  </trkpt>
  <trkpt lat="33.973126" lon="-2.749689">
   <ele>1282.00</ele>
   <time>2014-04-06T15:33:18Z</time>
  </trkpt>
  <trkpt lat="33.973240" lon="-2.749912">
   <ele>1281.00</ele>
   <time>2014-04-06T15:33:21Z</time>
  </trkpt>
  <trkpt lat="33.973238" lon="-2.750167">
   <ele>1281.00</ele>
   <time>2014-04-06T15:33:24Z</time>
  </trkpt>
  <trkpt lat="33.973111" lon="-2.750364">
   <ele>1280.00</ele>
   <time>2014-04-06T15:33:27Z</time>
  </trkpt>
  <trkpt lat="33.972935" lon="-2.750422">
   <ele>1280.00</ele>
   <time>2014-04-06T15:33:30Z</time>
  </trkpt>
  <trkpt lat="33.972791" lon="-2.750598">
   <ele>1279.00</ele>
   <time>2014-04-06T15:33:34Z</time>
  </trkpt>
  <trkpt lat="33.972781" lon="-2.750818">
   <ele>1279.00</ele>
   <time>2014-04-06T15:33:37Z</time>
  </trkpt>
  <trkpt lat="33.972570" lon="-2.750894">
   <ele>1278.00</ele>
   <time>2014-04-06T15:33:41Z</time>
  </trkpt>
  <trkpt lat="33.972380" lon="-2.750956">
   <ele>1277.00</ele>
   <time>2014-04-06T15:33:45Z</time>
  </trkpt>
  <trkpt lat="33.972512" lon="-2.751175">
   <ele>1277.00</ele>
   <time>2014-04-06T15:33:49Z</time>
  </trkpt>
  <trkpt lat="33.972666" lon="-2.751363">
   <ele>1277.00</ele>
   <time>2014-04-06T15:33:52Z</time>
  </trkpt>
  <trkpt lat="33.972839" lon="-2.751558">
   <ele>1276.00</ele>
   <time>2014-04-06T15:33:55Z</time>
  </trkpt>
  <trkpt lat="33.972987" lon="-2.751766">
   <ele>1276.00</ele>
   <time>2014-04-06T15:33:58Z</time>
  </trkpt>
  <trkpt lat="33.973029" lon="-2.752002">
   <ele>1276.00</ele>
   <time>2014-04-06T15:34:01Z</time>
  </trkpt>
  <trkpt lat="33.972933" lon="-2.752259">
   <ele>1276.00</ele>
   <time>2014-04-06T15:34:05Z</time>
  </trkpt>
  <trkpt lat="33.972893" lon="-2.752480">
   <ele>1275.00</ele>
   <time>2014-04-06T15:34:08Z</time>
  </trkpt>
  <trkpt lat="33.972939" lon="-2.752725">
   <ele>1275.00</ele>
   <time>2014-04-06T15:34:11Z</time>
  </trkpt>
  <trkpt lat="33.973005" lon="-2.752986">
   <ele>1274.00</ele>
   <time>2014-04-06T15:34:14Z</time>
  </trkpt>
  <trkpt lat="33.973027" lon="-2.753273">
   <ele>1272.00</ele>
   <time>2014-04-06T15:34:17Z</time>
  </trkpt>
  <trkpt lat="33.972987" lon="-2.753578">
   <ele>1272.00</ele>
   <time>2014-04-06T15:34:20Z</time>
  </trkpt>
  <trkpt lat="33.973005" lon="-2.753887">
   <ele>1270.00</ele>
   <time>2014-04-06T15:34:23Z</time>
  </trkpt>
  <trkpt lat="33.972997" lon="-2.754188">
   <ele>1269.00</ele>
   <time>2014-04-06T15:34:26Z</time>
  </trkpt>
  <trkpt lat="33.972866" lon="-2.754411">
   <ele>1268.00</ele>
   <time>2014-04-06T15:34:29Z</time>
  </trkpt>
  <trkpt lat="33.972673" lon="-2.754574">
   <ele>1267.00</ele>
   <time>2014-04-06T15:34:32Z</time>
  </trkpt>
  <trkpt lat="33.972540" lon="-2.754721">
   <ele>1266.00</ele>
   <time>2014-04-06T15:34:35Z</time>
  </trkpt>
  <trkpt lat="33.972612" lon="-2.754889">
   <ele>1265.00</ele>
   <time>2014-04-06T15:34:39Z</time>
  </trkpt>
  <trkpt lat="33.972804" lon="-2.754862">
   <ele>1264.00</ele>
   <time>2014-04-06T15:34:43Z</time>
  </trkpt>
  <trkpt lat="33.972986" lon="-2.754871">
   <ele>1263.00</ele>
   <time>2014-04-06T15:34:46Z</time>
  </trkpt>
  <trkpt lat="33.973221" lon="-2.754942">
   <ele>1261.00</ele>
   <time>2014-04-06T15:34:49Z</time>
  </trkpt>
  <trkpt lat="33.973474" lon="-2.755007">
   <ele>1259.00</ele>
   <time>2014-04-06T15:34:52Z</time>
  </trkpt>
  <trkpt lat="33.973699" lon="-2.755129">
   <ele>1257.00</ele>
   <time>2014-04-06T15:34:55Z</time>
  </trkpt>
  <trkpt lat="33.973881" lon="-2.755361">
   <ele>1255.00</ele>
   <time>2014-04-06T15:34:58Z</time>
  </trkpt>
  <trkpt lat="33.973989" lon="-2.755540">
   <ele>1254.00</ele>
   <time>2014-04-06T15:35:00Z</time>
  </trkpt>
  <trkpt lat="33.974083" lon="-2.755734">
   <ele>1253.00</ele>
   <time>2014-04-06T15:35:02Z</time>
  </trkpt>
  <trkpt lat="33.974235" lon="-2.756070">
   <ele>1252.00</ele>
   <time>2014-04-06T15:35:06Z</time>
  </trkpt>
  <trkpt lat="33.974214" lon="-2.756277">
   <ele>1251.00</ele>
   <time>2014-04-06T15:35:09Z</time>
  </trkpt>
  <trkpt lat="33.974033" lon="-2.756366">
   <ele>1250.00</ele>
   <time>2014-04-06T15:35:12Z</time>
  </trkpt>
  <trkpt lat="33.973844" lon="-2.756437">
   <ele>1250.00</ele>
   <time>2014-04-06T15:35:15Z</time>
  </trkpt>
  <trkpt lat="33.973840" lon="-2.756650">
   <ele>1250.00</ele>
   <time>2014-04-06T15:35:19Z</time>
  </trkpt>
  <trkpt lat="33.973999" lon="-2.756870">
   <ele>1249.00</ele>
   <time>2014-04-06T15:35:23Z</time>
  </trkpt>
  <trkpt lat="33.974082" lon="-2.757111">
   <ele>1249.00</ele>
   <time>2014-04-06T15:35:26Z</time>
  </trkpt>
  <trkpt lat="33.974075" lon="-2.757384">
   <ele>1248.00</ele>
   <time>2014-04-06T15:35:29Z</time>
  </trkpt>
  <trkpt lat="33.974040" lon="-2.757683">
   <ele>1247.00</ele>
   <time>2014-04-06T15:35:32Z</time>
  </trkpt>
  <trkpt lat="33.974098" lon="-2.757995">
   <ele>1245.00</ele>
   <time>2014-04-06T15:35:35Z</time>
  </trkpt>
  <trkpt lat="33.974176" lon="-2.758199">
   <ele>1244.00</ele>
   <time>2014-04-06T15:35:37Z</time>
  </trkpt>
  <trkpt lat="33.974236" lon="-2.758420">
   <ele>1242.00</ele>
   <time>2014-04-06T15:35:39Z</time>
  </trkpt>
  <trkpt lat="33.974299" lon="-2.758726">
   <ele>1241.00</ele>
   <time>2014-04-06T15:35:42Z</time>
  </trkpt>
  <trkpt lat="33.974244" lon="-2.758964">
   <ele>1239.00</ele>
   <time>2014-04-06T15:35:45Z</time>
  </trkpt>
  <trkpt lat="33.974128" lon="-2.759179">
   <ele>1238.00</ele>
   <time>2014-04-06T15:35:49Z</time>
  </trkpt>
  <trkpt lat="33.974218" lon="-2.759429">
   <ele>1237.00</ele>
   <time>2014-04-06T15:35:53Z</time>
  </trkpt>
  <trkpt lat="33.974237" lon="-2.759685">
   <ele>1236.00</ele>
   <time>2014-04-06T15:35:56Z</time>
  </trkpt>
  <trkpt lat="33.974267" lon="-2.760028">
   <ele>1234.00</ele>
   <time>2014-04-06T15:36:00Z</time>
  </trkpt>
  <trkpt lat="33.974228" lon="-2.760270">
   <ele>1233.00</ele>
   <time>2014-04-06T15:36:03Z</time>
  </trkpt>
  <trkpt lat="33.974109" lon="-2.760464">
   <ele>1232.00</ele>
   <time>2014-04-06T15:36:06Z</time>
  </trkpt>
  <trkpt lat="33.973908" lon="-2.760696">
   <ele>1231.00</ele>
   <time>2014-04-06T15:36:10Z</time>
  </trkpt>
  <trkpt lat="33.973746" lon="-2.760812">
   <ele>1231.00</ele>
   <time>2014-04-06T15:36:13Z</time>
  </trkpt>
  <trkpt lat="33.973592" lon="-2.760975">
   <ele>1231.00</ele>
   <time>2014-04-06T15:36:17Z</time>
  </trkpt>
  <trkpt lat="33.973708" lon="-2.761205">
   <ele>1232.00</ele>
   <time>2014-04-06T15:36:21Z</time>
  </trkpt>
  <trkpt lat="33.973873" lon="-2.761379">
   <ele>1232.00</ele>
   <time>2014-04-06T15:36:24Z</time>
  </trkpt>
  <trkpt lat="33.973959" lon="-2.761633">
   <ele>1233.00</ele>
   <time>2014-04-06T15:36:27Z</time>
  </trkpt>
  <trkpt lat="33.973912" lon="-2.761880">
   <ele>1234.00</ele>
   <time>2014-04-06T15:36:30Z</time>
  </trkpt>
  <trkpt lat="33.973735" lon="-2.762043">
   <ele>1235.00</ele>
   <time>2014-04-06T15:36:33Z</time>
  </trkpt>
  <trkpt lat="33.973488" lon="-2.762150">
   <ele>1236.00</ele>
   <time>2014-04-06T15:36:36Z</time>
  </trkpt>
  <trkpt lat="33.973306" lon="-2.762209">
   <ele>1236.00</ele>
   <time>2014-04-06T15:36:38Z</time>
  </trkpt>
  <trkpt lat="33.973137" lon="-2.762323">
   <ele>1237.00</ele>
   <time>2014-04-06T15:36:40Z</time>
  </trkpt>
  <trkpt lat="33.972993" lon="-2.762481">
   <ele>1238.00</ele>
   <time>2014-04-06T15:36:42Z</time>
  </trkpt>
  <trkpt lat="33.972848" lon="-2.762612">
   <ele>1239.00</ele>
   <time>2014-04-06T15:36:44Z</time>
  </trkpt>
  <trkpt lat="33.972668" lon="-2.762814">
   <ele>1239.00</ele>
   <time>2014-04-06T15:36:47Z</time>
  </trkpt>
  <trkpt lat="33.972515" lon="-2.763082">
   <ele>1239.00</ele>
   <time>2014-04-06T15:36:50Z</time>
  </trkpt>
  <trkpt lat="33.972399" lon="-2.763269">
   <ele>1240.00</ele>
   <time>2014-04-06T15:36:52Z</time>
  </trkpt>
  <trkpt lat="33.972241" lon="-2.763530">
   <ele>1240.00</ele>
   <time>2014-04-06T15:36:55Z</time>
  </trkpt>
  <trkpt lat="33.972215" lon="-2.763807">
   <ele>1240.00</ele>
   <time>2014-04-06T15:36:58Z</time>
  </trkpt>
  <trkpt lat="33.972184" lon="-2.764062">
   <ele>1240.00</ele>
   <time>2014-04-06T15:37:01Z</time>
  </trkpt>
  <trkpt lat="33.972003" lon="-2.764245">
   <ele>1239.00</ele>
   <time>2014-04-06T15:37:04Z</time>
  </trkpt>
  <trkpt lat="33.971533" lon="-2.764752">
   <ele>1239.00</ele>
   <time>2014-04-06T15:37:11Z</time>
  </trkpt>
  <trkpt lat="33.971380" lon="-2.764935">
   <ele>1239.00</ele>
   <time>2014-04-06T15:37:13Z</time>
  </trkpt>
  <trkpt lat="33.971167" lon="-2.765196">
   <ele>1239.00</ele>
   <time>2014-04-06T15:37:16Z</time>
  </trkpt>
  <trkpt lat="33.970937" lon="-2.765312">
   <ele>1239.00</ele>
   <time>2014-04-06T15:37:19Z</time>
  </trkpt>
  <trkpt lat="33.970759" lon="-2.765422">
   <ele>1240.00</ele>
   <time>2014-04-06T15:37:23Z</time>
  </trkpt>
  <trkpt lat="33.970780" lon="-2.765680">
   <ele>1239.00</ele>
   <time>2014-04-06T15:37:29Z</time>
  </trkpt>
  <trkpt lat="33.970796" lon="-2.765953">
   <ele>1239.00</ele>
   <time>2014-04-06T15:37:33Z</time>
  </trkpt>
  <trkpt lat="33.970726" lon="-2.766173">
   <ele>1239.00</ele>
   <time>2014-04-06T15:37:36Z</time>
  </trkpt>
  <trkpt lat="33.970618" lon="-2.766367">
   <ele>1239.00</ele>
   <time>2014-04-06T15:37:39Z</time>
  </trkpt>
  <trkpt lat="33.970563" lon="-2.766595">
   <ele>1238.00</ele>
   <time>2014-04-06T15:37:42Z</time>
  </trkpt>
  <trkpt lat="33.970667" lon="-2.766826">
   <ele>1238.00</ele>
   <time>2014-04-06T15:37:45Z</time>
  </trkpt>
  <trkpt lat="33.970848" lon="-2.766990">
   <ele>1237.00</ele>
   <time>2014-04-06T15:37:48Z</time>
  </trkpt>
  <trkpt lat="33.970977" lon="-2.767215">
   <ele>1236.00</ele>
   <time>2014-04-06T15:37:51Z</time>
  </trkpt>
  <trkpt lat="33.971040" lon="-2.767511">
   <ele>1234.00</ele>
   <time>2014-04-06T15:37:54Z</time>
  </trkpt>
  <trkpt lat="33.971223" lon="-2.768333">
   <ele>1228.00</ele>
   <time>2014-04-06T15:38:02Z</time>
  </trkpt>
  <trkpt lat="33.971233" lon="-2.768581">
   <ele>1227.00</ele>
   <time>2014-04-06T15:38:05Z</time>
  </trkpt>
  <trkpt lat="33.971149" lon="-2.768792">
   <ele>1227.00</ele>
   <time>2014-04-06T15:38:08Z</time>
  </trkpt>
  <trkpt lat="33.971101" lon="-2.768999">
   <ele>1226.00</ele>
   <time>2014-04-06T15:38:11Z</time>
  </trkpt>
  <trkpt lat="33.971223" lon="-2.769168">
   <ele>1224.00</ele>
   <time>2014-04-06T15:38:14Z</time>
  </trkpt>
  <trkpt lat="33.971400" lon="-2.769299">
   <ele>1223.00</ele>
   <time>2014-04-06T15:38:17Z</time>
  </trkpt>
  <trkpt lat="33.971586" lon="-2.769421">
   <ele>1222.00</ele>
   <time>2014-04-06T15:38:20Z</time>
  </trkpt>
  <trkpt lat="33.971750" lon="-2.769517">
   <ele>1221.00</ele>
   <time>2014-04-06T15:38:23Z</time>
  </trkpt>
  <trkpt lat="33.971942" lon="-2.769532">
   <ele>1219.00</ele>
   <time>2014-04-06T15:38:26Z</time>
  </trkpt>
  <trkpt lat="33.972158" lon="-2.769538">
   <ele>1216.00</ele>
   <time>2014-04-06T15:38:29Z</time>
  </trkpt>
  <trkpt lat="33.972366" lon="-2.769623">
   <ele>1216.00</ele>
   <time>2014-04-06T15:38:32Z</time>
  </trkpt>
  <trkpt lat="33.972553" lon="-2.769732">
   <ele>1216.00</ele>
   <time>2014-04-06T15:38:35Z</time>
  </trkpt>
  <trkpt lat="33.972903" lon="-2.770010">
   <ele>1216.00</ele>
   <time>2014-04-06T15:38:41Z</time>
  </trkpt>
  <trkpt lat="33.973057" lon="-2.770140">
   <ele>1216.00</ele>
   <time>2014-04-06T15:38:44Z</time>
  </trkpt>
  <trkpt lat="33.973129" lon="-2.770401">
   <ele>1215.00</ele>
   <time>2014-04-06T15:38:48Z</time>
  </trkpt>
  <trkpt lat="33.973092" lon="-2.770633">
   <ele>1216.00</ele>
   <time>2014-04-06T15:38:51Z</time>
  </trkpt>
  <trkpt lat="33.973055" lon="-2.770871">
   <ele>1216.00</ele>
   <time>2014-04-06T15:38:54Z</time>
  </trkpt>
  <trkpt lat="33.973036" lon="-2.771107">
   <ele>1216.00</ele>
   <time>2014-04-06T15:38:57Z</time>
  </trkpt>
  <trkpt lat="33.973050" lon="-2.771325">
   <ele>1215.00</ele>
   <time>2014-04-06T15:39:00Z</time>
  </trkpt>
  <trkpt lat="33.973101" lon="-2.771588">
   <ele>1214.00</ele>
   <time>2014-04-06T15:39:04Z</time>
  </trkpt>
  <trkpt lat="33.973193" lon="-2.771817">
   <ele>1214.00</ele>
   <time>2014-04-06T15:39:08Z</time>
  </trkpt>
  <trkpt lat="33.973334" lon="-2.772006">
   <ele>1215.00</ele>
   <time>2014-04-06T15:39:14Z</time>
  </trkpt>
  <trkpt lat="33.973483" lon="-2.772203">
   <ele>1215.00</ele>
   <time>2014-04-06T15:39:18Z</time>
  </trkpt>
  <trkpt lat="33.973609" lon="-2.772382">
   <ele>1215.00</ele>
   <time>2014-04-06T15:39:21Z</time>
  </trkpt>
  <trkpt lat="33.973839" lon="-2.772709">
   <ele>1216.00</ele>
   <time>2014-04-06T15:39:26Z</time>
  </trkpt>
  <trkpt lat="33.974236" lon="-2.773323">
   <ele>1220.00</ele>
   <time>2014-04-06T15:39:35Z</time>
  </trkpt>
  <trkpt lat="33.974367" lon="-2.773544">
   <ele>1222.00</ele>
   <time>2014-04-06T15:39:38Z</time>
  </trkpt>
  <trkpt lat="33.974529" lon="-2.773844">
   <ele>1224.00</ele>
   <time>2014-04-06T15:39:42Z</time>
  </trkpt>
  <trkpt lat="33.974582" lon="-2.774071">
   <ele>1225.00</ele>
   <time>2014-04-06T15:39:45Z</time>
  </trkpt>
  <trkpt lat="33.974535" lon="-2.774308">
   <ele>1227.00</ele>
   <time>2014-04-06T15:39:48Z</time>
  </trkpt>
  <trkpt lat="33.974368" lon="-2.774768">
   <ele>1227.00</ele>
   <time>2014-04-06T15:39:54Z</time>
  </trkpt>
  <trkpt lat="33.974298" lon="-2.775010">
   <ele>1227.00</ele>
   <time>2014-04-06T15:39:57Z</time>
  </trkpt>
  <trkpt lat="33.974245" lon="-2.775266">
   <ele>1227.00</ele>
   <time>2014-04-06T15:40:00Z</time>
  </trkpt>
  <trkpt lat="33.974208" lon="-2.775531">
   <ele>1228.00</ele>
   <time>2014-04-06T15:40:03Z</time>
  </trkpt>
  <trkpt lat="33.974181" lon="-2.775813">
   <ele>1229.00</ele>
   <time>2014-04-06T15:40:06Z</time>
  </trkpt>
  <trkpt lat="33.974187" lon="-2.776098">
   <ele>1229.00</ele>
   <time>2014-04-06T15:40:09Z</time>
  </trkpt>
  <trkpt lat="33.974204" lon="-2.776670">
   <ele>1231.00</ele>
   <time>2014-04-06T15:40:15Z</time>
  </trkpt>
  <trkpt lat="33.974169" lon="-2.776962">
   <ele>1233.00</ele>
   <time>2014-04-06T15:40:18Z</time>
  </trkpt>
  <trkpt lat="33.974117" lon="-2.777254">
   <ele>1234.00</ele>
   <time>2014-04-06T15:40:21Z</time>
  </trkpt>
  <trkpt lat="33.974055" lon="-2.777541">
   <ele>1235.00</ele>
   <time>2014-04-06T15:40:24Z</time>
  </trkpt>
  <trkpt lat="33.973940" lon="-2.777801">
   <ele>1236.00</ele>
   <time>2014-04-06T15:40:27Z</time>
  </trkpt>
  <trkpt lat="33.973822" lon="-2.778067">
   <ele>1237.00</ele>
   <time>2014-04-06T15:40:30Z</time>
  </trkpt>
  <trkpt lat="33.973725" lon="-2.778349">
   <ele>1237.00</ele>
   <time>2014-04-06T15:40:33Z</time>
  </trkpt>
  <trkpt lat="33.973652" lon="-2.778655">
   <ele>1236.00</ele>
   <time>2014-04-06T15:40:36Z</time>
  </trkpt>
  <trkpt lat="33.973529" lon="-2.779236">
   <ele>1238.00</ele>
   <time>2014-04-06T15:40:42Z</time>
  </trkpt>
  <trkpt lat="33.973504" lon="-2.779535">
   <ele>1240.00</ele>
   <time>2014-04-06T15:40:45Z</time>
  </trkpt>
  <trkpt lat="33.973388" lon="-2.780605">
   <ele>1245.00</ele>
   <time>2014-04-06T15:40:55Z</time>
  </trkpt>
  <trkpt lat="33.973315" lon="-2.781156">
   <ele>1248.00</ele>
   <time>2014-04-06T15:41:00Z</time>
  </trkpt>
  <trkpt lat="33.973232" lon="-2.781701">
   <ele>1249.00</ele>
   <time>2014-04-06T15:41:05Z</time>
  </trkpt>
  <trkpt lat="33.973170" lon="-2.782444">
   <ele>1252.00</ele>
   <time>2014-04-06T15:41:12Z</time>
  </trkpt>
  <trkpt lat="33.973186" lon="-2.782743">
   <ele>1252.00</ele>
   <time>2014-04-06T15:41:15Z</time>
  </trkpt>
  <trkpt lat="33.973212" lon="-2.783037">
   <ele>1252.00</ele>
   <time>2014-04-06T15:41:18Z</time>
  </trkpt>
  <trkpt lat="33.973222" lon="-2.783324">
   <ele>1253.00</ele>
   <time>2014-04-06T15:41:21Z</time>
  </trkpt>
  <trkpt lat="33.973202" lon="-2.783602">
   <ele>1253.00</ele>
   <time>2014-04-06T15:41:24Z</time>
  </trkpt>
  <trkpt lat="33.973172" lon="-2.783877">
   <ele>1254.00</ele>
   <time>2014-04-06T15:41:27Z</time>
  </trkpt>
  <trkpt lat="33.973166" lon="-2.784156">
   <ele>1255.00</ele>
   <time>2014-04-06T15:41:30Z</time>
  </trkpt>
  <trkpt lat="33.973154" lon="-2.784434">
   <ele>1255.00</ele>
   <time>2014-04-06T15:41:33Z</time>
  </trkpt>
  <trkpt lat="33.973127" lon="-2.784889">
   <ele>1256.00</ele>
   <time>2014-04-06T15:41:38Z</time>
  </trkpt>
  <trkpt lat="33.973141" lon="-2.785152">
   <ele>1256.00</ele>
   <time>2014-04-06T15:41:41Z</time>
  </trkpt>
  <trkpt lat="33.973204" lon="-2.785395">
   <ele>1256.00</ele>
   <time>2014-04-06T15:41:44Z</time>
  </trkpt>
  <trkpt lat="33.973230" lon="-2.785652">
   <ele>1256.00</ele>
   <time>2014-04-06T15:41:47Z</time>
  </trkpt>
  <trkpt lat="33.973235" lon="-2.785911">
   <ele>1256.00</ele>
   <time>2014-04-06T15:41:50Z</time>
  </trkpt>
  <trkpt lat="33.973246" lon="-2.786177">
   <ele>1257.00</ele>
   <time>2014-04-06T15:41:53Z</time>
  </trkpt>
  <trkpt lat="33.973248" lon="-2.786438">
   <ele>1257.00</ele>
   <time>2014-04-06T15:41:56Z</time>
  </trkpt>
  <trkpt lat="33.973274" lon="-2.786683">
   <ele>1258.00</ele>
   <time>2014-04-06T15:41:59Z</time>
  </trkpt>
  <trkpt lat="33.973231" lon="-2.786916">
   <ele>1258.00</ele>
   <time>2014-04-06T15:42:02Z</time>
  </trkpt>
  <trkpt lat="33.973217" lon="-2.787160">
   <ele>1259.00</ele>
   <time>2014-04-06T15:42:05Z</time>
  </trkpt>
  <trkpt lat="33.973236" lon="-2.787415">
   <ele>1259.00</ele>
   <time>2014-04-06T15:42:08Z</time>
  </trkpt>
  <trkpt lat="33.973280" lon="-2.787667">
   <ele>1258.00</ele>
   <time>2014-04-06T15:42:11Z</time>
  </trkpt>
  <trkpt lat="33.973308" lon="-2.787925">
   <ele>1257.00</ele>
   <time>2014-04-06T15:42:14Z</time>
  </trkpt>
  <trkpt lat="33.973307" lon="-2.788178">
   <ele>1258.00</ele>
   <time>2014-04-06T15:42:17Z</time>
  </trkpt>
  <trkpt lat="33.973287" lon="-2.788437">
   <ele>1260.00</ele>
   <time>2014-04-06T15:42:20Z</time>
  </trkpt>
  <trkpt lat="33.973264" lon="-2.788711">
   <ele>1262.00</ele>
   <time>2014-04-06T15:42:23Z</time>
  </trkpt>
  <trkpt lat="33.973223" lon="-2.789461">
   <ele>1265.00</ele>
   <time>2014-04-06T15:42:31Z</time>
  </trkpt>
  <trkpt lat="33.973231" lon="-2.789737">
   <ele>1265.00</ele>
   <time>2014-04-06T15:42:34Z</time>
  </trkpt>
  <trkpt lat="33.973258" lon="-2.790012">
   <ele>1265.00</ele>
   <time>2014-04-06T15:42:37Z</time>
  </trkpt>
  <trkpt lat="33.973309" lon="-2.790282">
   <ele>1264.00</ele>
   <time>2014-04-06T15:42:40Z</time>
  </trkpt>
  <trkpt lat="33.973395" lon="-2.790653">
   <ele>1263.00</ele>
   <time>2014-04-06T15:42:44Z</time>
  </trkpt>
  <trkpt lat="33.973418" lon="-2.790931">
   <ele>1263.00</ele>
   <time>2014-04-06T15:42:47Z</time>
  </trkpt>
  <trkpt lat="33.973421" lon="-2.791210">
   <ele>1264.00</ele>
   <time>2014-04-06T15:42:50Z</time>
  </trkpt>
  <trkpt lat="33.973448" lon="-2.791489">
   <ele>1264.00</ele>
   <time>2014-04-06T15:42:53Z</time>
  </trkpt>
  <trkpt lat="33.973524" lon="-2.791752">
   <ele>1264.00</ele>
   <time>2014-04-06T15:42:56Z</time>
  </trkpt>
  <trkpt lat="33.973618" lon="-2.791999">
   <ele>1264.00</ele>
   <time>2014-04-06T15:42:59Z</time>
  </trkpt>
  <trkpt lat="33.973848" lon="-2.792559">
   <ele>1265.00</ele>
   <time>2014-04-06T15:43:06Z</time>
  </trkpt>
  <trkpt lat="33.973915" lon="-2.792814">
   <ele>1265.00</ele>
   <time>2014-04-06T15:43:09Z</time>
  </trkpt>
  <trkpt lat="33.973984" lon="-2.793149">
   <ele>1266.00</ele>
   <time>2014-04-06T15:43:13Z</time>
  </trkpt>
  <trkpt lat="33.974065" lon="-2.793388">
   <ele>1266.00</ele>
   <time>2014-04-06T15:43:16Z</time>
  </trkpt>
  <trkpt lat="33.974153" lon="-2.793597">
   <ele>1266.00</ele>
   <time>2014-04-06T15:43:19Z</time>
  </trkpt>
  <trkpt lat="33.974251" lon="-2.793843">
   <ele>1267.00</ele>
   <time>2014-04-06T15:43:23Z</time>
  </trkpt>
  <trkpt lat="33.974369" lon="-2.794050">
   <ele>1267.00</ele>
   <time>2014-04-06T15:43:27Z</time>
  </trkpt>
  <trkpt lat="33.974459" lon="-2.794305">
   <ele>1267.00</ele>
   <time>2014-04-06T15:43:31Z</time>
  </trkpt>
  <trkpt lat="33.974506" lon="-2.794518">
   <ele>1268.00</ele>
   <time>2014-04-06T15:43:34Z</time>
  </trkpt>
  <trkpt lat="33.974553" lon="-2.794730">
   <ele>1269.00</ele>
   <time>2014-04-06T15:43:37Z</time>
  </trkpt>
  <trkpt lat="33.974615" lon="-2.794938">
   <ele>1269.00</ele>
   <time>2014-04-06T15:43:40Z</time>
  </trkpt>
  <trkpt lat="33.974740" lon="-2.795181">
   <ele>1270.00</ele>
   <time>2014-04-06T15:43:44Z</time>
  </trkpt>
  <trkpt lat="33.974888" lon="-2.795329">
   <ele>1270.00</ele>
   <time>2014-04-06T15:43:47Z</time>
  </trkpt>
  <trkpt lat="33.975009" lon="-2.795490">
   <ele>1270.00</ele>
   <time>2014-04-06T15:43:50Z</time>
  </trkpt>
  <trkpt lat="33.975142" lon="-2.795785">
   <ele>1271.00</ele>
   <time>2014-04-06T15:43:55Z</time>
  </trkpt>
  <trkpt lat="33.975242" lon="-2.795990">
   <ele>1272.00</ele>
   <time>2014-04-06T15:43:59Z</time>
  </trkpt>
  <trkpt lat="33.975327" lon="-2.796228">
   <ele>1273.00</ele>
   <time>2014-04-06T15:44:03Z</time>
  </trkpt>
  <trkpt lat="33.975396" lon="-2.796431">
   <ele>1274.00</ele>
   <time>2014-04-06T15:44:06Z</time>
  </trkpt>
  <trkpt lat="33.975524" lon="-2.796749">
   <ele>1275.00</ele>
   <time>2014-04-06T15:44:11Z</time>
  </trkpt>
  <trkpt lat="33.975629" lon="-2.797067">
   <ele>1275.00</ele>
   <time>2014-04-06T15:44:16Z</time>
  </trkpt>
  <trkpt lat="33.975714" lon="-2.797341">
   <ele>1275.00</ele>
   <time>2014-04-06T15:44:21Z</time>
  </trkpt>
  <trkpt lat="33.975915" lon="-2.798166">
   <ele>1275.00</ele>
   <time>2014-04-06T15:44:35Z</time>
  </trkpt>
  <trkpt lat="33.976009" lon="-2.798388">
   <ele>1274.00</ele>
   <time>2014-04-06T15:44:39Z</time>
  </trkpt>
  <trkpt lat="33.976033" lon="-2.798630">
   <ele>1274.00</ele>
   <time>2014-04-06T15:44:43Z</time>
  </trkpt>
  <trkpt lat="33.976046" lon="-2.798885">
   <ele>1274.00</ele>
   <time>2014-04-06T15:44:47Z</time>
  </trkpt>
  <trkpt lat="33.976056" lon="-2.799147">
   <ele>1275.00</ele>
   <time>2014-04-06T15:44:51Z</time>
  </trkpt>
  <trkpt lat="33.976044" lon="-2.799421">
   <ele>1275.00</ele>
   <time>2014-04-06T15:44:55Z</time>
  </trkpt>
  <trkpt lat="33.976025" lon="-2.799752">
   <ele>1276.00</ele>
   <time>2014-04-06T15:45:00Z</time>
  </trkpt>
  <trkpt lat="33.976002" lon="-2.800024">
   <ele>1276.00</ele>
   <time>2014-04-06T15:45:04Z</time>
  </trkpt>
  <trkpt lat="33.976005" lon="-2.800243">
   <ele>1277.00</ele>
   <time>2014-04-06T15:45:07Z</time>
  </trkpt>
  <trkpt lat="33.976029" lon="-2.800467">
   <ele>1277.00</ele>
   <time>2014-04-06T15:45:10Z</time>
  </trkpt>
  <trkpt lat="33.976065" lon="-2.800698">
   <ele>1278.00</ele>
   <time>2014-04-06T15:45:13Z</time>
  </trkpt>
  <trkpt lat="33.976121" lon="-2.801002">
   <ele>1278.00</ele>
   <time>2014-04-06T15:45:17Z</time>
  </trkpt>
  <trkpt lat="33.976188" lon="-2.801304">
   <ele>1279.00</ele>
   <time>2014-04-06T15:45:21Z</time>
  </trkpt>
  <trkpt lat="33.976346" lon="-2.802189">
   <ele>1278.00</ele>
   <time>2014-04-06T15:45:33Z</time>
  </trkpt>
  <trkpt lat="33.976393" lon="-2.802561">
   <ele>1278.00</ele>
   <time>2014-04-06T15:45:39Z</time>
  </trkpt>
  <trkpt lat="33.976422" lon="-2.802815">
   <ele>1279.00</ele>
   <time>2014-04-06T15:45:46Z</time>
  </trkpt>
  <trkpt lat="33.976497" lon="-2.803285">
   <ele>1280.00</ele>
   <time>2014-04-06T15:45:54Z</time>
  </trkpt>
  <trkpt lat="33.976537" lon="-2.803556">
   <ele>1281.00</ele>
   <time>2014-04-06T15:45:58Z</time>
  </trkpt>
  <trkpt lat="33.976579" lon="-2.803770">
   <ele>1282.00</ele>
   <time>2014-04-06T15:46:01Z</time>
  </trkpt>
  <trkpt lat="33.976682" lon="-2.804021">
   <ele>1284.00</ele>
   <time>2014-04-06T15:46:05Z</time>
  </trkpt>
  <trkpt lat="33.976824" lon="-2.804306">
   <ele>1286.00</ele>
   <time>2014-04-06T15:46:10Z</time>
  </trkpt>
  <trkpt lat="33.976913" lon="-2.804571">
   <ele>1287.00</ele>
   <time>2014-04-06T15:46:14Z</time>
  </trkpt>
  <trkpt lat="33.976991" lon="-2.804787">
   <ele>1288.00</ele>
   <time>2014-04-06T15:46:17Z</time>
  </trkpt>
  <trkpt lat="33.977076" lon="-2.804985">
   <ele>1289.00</ele>
   <time>2014-04-06T15:46:20Z</time>
  </trkpt>
  <trkpt lat="33.977198" lon="-2.805157">
   <ele>1290.00</ele>
   <time>2014-04-06T15:46:23Z</time>
  </trkpt>
  <trkpt lat="33.977550" lon="-2.805560">
   <ele>1293.00</ele>
   <time>2014-04-06T15:46:31Z</time>
  </trkpt>
  <trkpt lat="33.977690" lon="-2.805706">
   <ele>1293.00</ele>
   <time>2014-04-06T15:46:35Z</time>
  </trkpt>
  <trkpt lat="33.977794" lon="-2.805886">
   <ele>1293.00</ele>
   <time>2014-04-06T15:46:39Z</time>
  </trkpt>
  <trkpt lat="33.977844" lon="-2.806136">
   <ele>1292.00</ele>
   <time>2014-04-06T15:46:43Z</time>
  </trkpt>
  <trkpt lat="33.977862" lon="-2.806390">
   <ele>1294.00</ele>
   <time>2014-04-06T15:46:48Z</time>
  </trkpt>
  <trkpt lat="33.977931" lon="-2.806619">
   <ele>1296.00</ele>
   <time>2014-04-06T15:46:54Z</time>
  </trkpt>
  <trkpt lat="33.978042" lon="-2.806806">
   <ele>1297.00</ele>
   <time>2014-04-06T15:47:01Z</time>
  </trkpt>
  <trkpt lat="33.978163" lon="-2.807039">
   <ele>1298.00</ele>
   <time>2014-04-06T15:47:06Z</time>
  </trkpt>
  <trkpt lat="33.978324" lon="-2.807208">
   <ele>1299.00</ele>
   <time>2014-04-06T15:47:10Z</time>
  </trkpt>
  <trkpt lat="33.978471" lon="-2.807362">
   <ele>1298.00</ele>
   <time>2014-04-06T15:47:14Z</time>
  </trkpt>
  <trkpt lat="33.978502" lon="-2.807575">
   <ele>1298.00</ele>
   <time>2014-04-06T15:47:19Z</time>
  </trkpt>
  <trkpt lat="33.978291" lon="-2.807622">
   <ele>1299.00</ele>
   <time>2014-04-06T15:47:25Z</time>
  </trkpt>
  <trkpt lat="33.978113" lon="-2.807745">
   <ele>1300.00</ele>
   <time>2014-04-06T15:47:30Z</time>
  </trkpt>
  <trkpt lat="33.978059" lon="-2.807954">
   <ele>1299.00</ele>
   <time>2014-04-06T15:47:34Z</time>
  </trkpt>
  <trkpt lat="33.978012" lon="-2.808181">
   <ele>1298.00</ele>
   <time>2014-04-06T15:47:38Z</time>
  </trkpt>
  <trkpt lat="33.977907" lon="-2.808413">
   <ele>1298.00</ele>
   <time>2014-04-06T15:47:43Z</time>
  </trkpt>
  <trkpt lat="33.977750" lon="-2.808597">
   <ele>1298.00</ele>
   <time>2014-04-06T15:47:48Z</time>
  </trkpt>
  <trkpt lat="33.977540" lon="-2.808739">
   <ele>1299.00</ele>
   <time>2014-04-06T15:47:53Z</time>
  </trkpt>
  <trkpt lat="33.977400" lon="-2.808910">
   <ele>1299.00</ele>
   <time>2014-04-06T15:47:57Z</time>
  </trkpt>
  <trkpt lat="33.977297" lon="-2.809113">
   <ele>1300.00</ele>
   <time>2014-04-06T15:48:01Z</time>
  </trkpt>
  <trkpt lat="33.977216" lon="-2.809356">
   <ele>1300.00</ele>
   <time>2014-04-06T15:48:06Z</time>
  </trkpt>
  <trkpt lat="33.977153" lon="-2.809569">
   <ele>1301.00</ele>
   <time>2014-04-06T15:48:10Z</time>
  </trkpt>
  <trkpt lat="33.977134" lon="-2.809836">
   <ele>1302.00</ele>
   <time>2014-04-06T15:48:14Z</time>
  </trkpt>
  <trkpt lat="33.977113" lon="-2.810216">
   <ele>1303.00</ele>
   <time>2014-04-06T15:48:19Z</time>
  </trkpt>
  <trkpt lat="33.977090" lon="-2.810452">
   <ele>1304.00</ele>
   <time>2014-04-06T15:48:22Z</time>
  </trkpt>
  <trkpt lat="33.977059" lon="-2.810742">
   <ele>1305.00</ele>
   <time>2014-04-06T15:48:26Z</time>
  </trkpt>
  <trkpt lat="33.977049" lon="-2.811029">
   <ele>1306.00</ele>
   <time>2014-04-06T15:48:30Z</time>
  </trkpt>
  <trkpt lat="33.977019" lon="-2.811249">
   <ele>1307.00</ele>
   <time>2014-04-06T15:48:33Z</time>
  </trkpt>
  <trkpt lat="33.976944" lon="-2.811512">
   <ele>1310.00</ele>
   <time>2014-04-06T15:48:37Z</time>
  </trkpt>
  <trkpt lat="33.976826" lon="-2.811761">
   <ele>1310.00</ele>
   <time>2014-04-06T15:48:41Z</time>
  </trkpt>
  <trkpt lat="33.976749" lon="-2.811965">
   <ele>1310.00</ele>
   <time>2014-04-06T15:48:44Z</time>
  </trkpt>
  <trkpt lat="33.976708" lon="-2.812182">
   <ele>1311.00</ele>
   <time>2014-04-06T15:48:47Z</time>
  </trkpt>
  <trkpt lat="33.976671" lon="-2.812606">
   <ele>1311.00</ele>
   <time>2014-04-06T15:48:53Z</time>
  </trkpt>
  <trkpt lat="33.976732" lon="-2.812828">
   <ele>1311.00</ele>
   <time>2014-04-06T15:48:59Z</time>
  </trkpt>
  <trkpt lat="33.976798" lon="-2.813051">
   <ele>1312.00</ele>
   <time>2014-04-06T15:49:04Z</time>
  </trkpt>
  <trkpt lat="33.976772" lon="-2.813291">
   <ele>1314.00</ele>
   <time>2014-04-06T15:49:08Z</time>
  </trkpt>
  <trkpt lat="33.976740" lon="-2.813507">
   <ele>1317.00</ele>
   <time>2014-04-06T15:49:11Z</time>
  </trkpt>
  <trkpt lat="33.976670" lon="-2.813710">
   <ele>1318.00</ele>
   <time>2014-04-06T15:49:14Z</time>
  </trkpt>
  <trkpt lat="33.976575" lon="-2.813981">
   <ele>1319.00</ele>
   <time>2014-04-06T15:49:18Z</time>
  </trkpt>
  <trkpt lat="33.976499" lon="-2.814211">
   <ele>1319.00</ele>
   <time>2014-04-06T15:49:21Z</time>
  </trkpt>
  <trkpt lat="33.976348" lon="-2.814567">
   <ele>1320.00</ele>
   <time>2014-04-06T15:49:26Z</time>
  </trkpt>
  <trkpt lat="33.976278" lon="-2.814793">
   <ele>1320.00</ele>
   <time>2014-04-06T15:49:29Z</time>
  </trkpt>
  <trkpt lat="33.976193" lon="-2.815084">
   <ele>1321.00</ele>
   <time>2014-04-06T15:49:33Z</time>
  </trkpt>
  <trkpt lat="33.976093" lon="-2.815398">
   <ele>1321.00</ele>
   <time>2014-04-06T15:49:39Z</time>
  </trkpt>
  <trkpt lat="33.976037" lon="-2.815623">
   <ele>1321.00</ele>
   <time>2014-04-06T15:49:42Z</time>
  </trkpt>
  <trkpt lat="33.975975" lon="-2.815860">
   <ele>1322.00</ele>
   <time>2014-04-06T15:49:45Z</time>
  </trkpt>
  <trkpt lat="33.975873" lon="-2.816078">
   <ele>1323.00</ele>
   <time>2014-04-06T15:49:48Z</time>
  </trkpt>
  <trkpt lat="33.975686" lon="-2.816412">
   <ele>1324.00</ele>
   <time>2014-04-06T15:49:54Z</time>
  </trkpt>
  <trkpt lat="33.975595" lon="-2.816603">
   <ele>1325.00</ele>
   <time>2014-04-06T15:49:57Z</time>
  </trkpt>
  <trkpt lat="33.975491" lon="-2.816871">
   <ele>1326.00</ele>
   <time>2014-04-06T15:50:02Z</time>
  </trkpt>
  <trkpt lat="33.975426" lon="-2.817091">
   <ele>1328.00</ele>
   <time>2014-04-06T15:50:06Z</time>
  </trkpt>
  <trkpt lat="33.975338" lon="-2.817338">
   <ele>1329.00</ele>
   <time>2014-04-06T15:50:10Z</time>
  </trkpt>
  <trkpt lat="33.975248" lon="-2.817593">
   <ele>1330.00</ele>
   <time>2014-04-06T15:50:14Z</time>
  </trkpt>
  <trkpt lat="33.975146" lon="-2.817828">
   <ele>1332.00</ele>
   <time>2014-04-06T15:50:19Z</time>
  </trkpt>
  <trkpt lat="33.975014" lon="-2.818007">
   <ele>1333.00</ele>
   <time>2014-04-06T15:50:25Z</time>
  </trkpt>
  <trkpt lat="33.974883" lon="-2.818193">
   <ele>1333.00</ele>
   <time>2014-04-06T15:50:29Z</time>
  </trkpt>
  <trkpt lat="33.974760" lon="-2.818382">
   <ele>1336.00</ele>
   <time>2014-04-06T15:50:34Z</time>
  </trkpt>
  <trkpt lat="33.974639" lon="-2.818588">
   <ele>1338.00</ele>
   <time>2014-04-06T15:50:39Z</time>
  </trkpt>
  <trkpt lat="33.974522" lon="-2.818774">
   <ele>1340.00</ele>
   <time>2014-04-06T15:50:44Z</time>
  </trkpt>
  <trkpt lat="33.974457" lon="-2.818956">
   <ele>1341.00</ele>
   <time>2014-04-06T15:50:59Z</time>
  </trkpt>
  <trkpt lat="33.974458" lon="-2.818945">
   <ele>1341.00</ele>
   <time>2014-04-06T15:51:15Z</time>
  </trkpt>
  <trkpt lat="33.974457" lon="-2.818937">
   <ele>1341.00</ele>
   <time>2014-04-06T15:51:30Z</time>
  </trkpt>
  <trkpt lat="33.974457" lon="-2.818932">
   <ele>1341.00</ele>
   <time>2014-04-06T15:51:45Z</time>
  </trkpt>
  <trkpt lat="33.974457" lon="-2.818930">
   <ele>1341.00</ele>
   <time>2014-04-06T15:52:00Z</time>
  </trkpt>
  <trkpt lat="33.974458" lon="-2.818929">
   <ele>1341.00</ele>
   <time>2014-04-06T15:52:16Z</time>
  </trkpt>
  <trkpt lat="33.974460" lon="-2.818935">
   <ele>1340.00</ele>
   <time>2014-04-06T15:52:31Z</time>
  </trkpt>
  <trkpt lat="33.974459" lon="-2.818930">
   <ele>1340.00</ele>
   <time>2014-04-06T15:52:46Z</time>
  </trkpt>
  <trkpt lat="33.974458" lon="-2.818930">
   <ele>1340.00</ele>
   <time>2014-04-06T15:53:01Z</time>
  </trkpt>
  <trkpt lat="33.974458" lon="-2.818929">
   <ele>1340.00</ele>
   <time>2014-04-06T15:53:17Z</time>
  </trkpt>
  <trkpt lat="33.974460" lon="-2.818934">
   <ele>1340.00</ele>
   <time>2014-04-06T15:53:32Z</time>
  </trkpt>
  <trkpt lat="33.974459" lon="-2.818940">
   <ele>1339.00</ele>
   <time>2014-04-06T15:53:47Z</time>
  </trkpt>
  <trkpt lat="33.974461" lon="-2.818943">
   <ele>1339.00</ele>
   <time>2014-04-06T15:54:02Z</time>
  </trkpt>
  <trkpt lat="33.974462" lon="-2.818944">
   <ele>1338.00</ele>
   <time>2014-04-06T15:54:17Z</time>
  </trkpt>
  <trkpt lat="33.974462" lon="-2.818943">
   <ele>1338.00</ele>
   <time>2014-04-06T15:54:33Z</time>
  </trkpt>
  <trkpt lat="33.974461" lon="-2.818942">
   <ele>1339.00</ele>
   <time>2014-04-06T15:54:48Z</time>
  </trkpt>
  <trkpt lat="33.974462" lon="-2.818942">
   <ele>1339.00</ele>
   <time>2014-04-06T15:55:03Z</time>
  </trkpt>
  <trkpt lat="33.974464" lon="-2.818938">
   <ele>1339.00</ele>
   <time>2014-04-06T15:55:18Z</time>
  </trkpt>
  <trkpt lat="33.974465" lon="-2.818939">
   <ele>1339.00</ele>
   <time>2014-04-06T15:55:34Z</time>
  </trkpt>
  <trkpt lat="33.974463" lon="-2.818945">
   <ele>1339.00</ele>
   <time>2014-04-06T15:55:49Z</time>
  </trkpt>
  <trkpt lat="33.974466" lon="-2.818947">
   <ele>1339.00</ele>
   <time>2014-04-06T15:56:04Z</time>
  </trkpt>
  <trkpt lat="33.974470" lon="-2.818942">
   <ele>1339.00</ele>
   <time>2014-04-06T15:56:19Z</time>
  </trkpt>
  <trkpt lat="33.974468" lon="-2.818949">
   <ele>1339.00</ele>
   <time>2014-04-06T15:56:35Z</time>
  </trkpt>
  <trkpt lat="33.974471" lon="-2.818942">
   <ele>1340.00</ele>
   <time>2014-04-06T15:56:50Z</time>
  </trkpt>
  <trkpt lat="33.974471" lon="-2.818942">
   <ele>1340.00</ele>
   <time>2014-04-06T15:57:05Z</time>
  </trkpt>
  <trkpt lat="33.974471" lon="-2.818938">
   <ele>1341.00</ele>
   <time>2014-04-06T15:57:21Z</time>
  </trkpt>
  <trkpt lat="33.974471" lon="-2.818934">
   <ele>1341.00</ele>
   <time>2014-04-06T15:57:36Z</time>
  </trkpt>
  <trkpt lat="33.974471" lon="-2.818934">
   <ele>1340.00</ele>
   <time>2014-04-06T15:57:51Z</time>
  </trkpt>
  <trkpt lat="33.974469" lon="-2.818932">
   <ele>1340.00</ele>
   <time>2014-04-06T15:58:06Z</time>
  </trkpt>
  <trkpt lat="33.974468" lon="-2.818928">
   <ele>1340.00</ele>
   <time>2014-04-06T15:58:22Z</time>
  </trkpt>
  <trkpt lat="33.974469" lon="-2.818933">
   <ele>1339.00</ele>
   <time>2014-04-06T15:58:37Z</time>
  </trkpt>
  <trkpt lat="33.974471" lon="-2.818935">
   <ele>1339.00</ele>
   <time>2014-04-06T15:58:52Z</time>
  </trkpt>
  <trkpt lat="33.974471" lon="-2.818937">
   <ele>1339.00</ele>
   <time>2014-04-06T15:59:07Z</time>
  </trkpt>
  <trkpt lat="33.974469" lon="-2.818936">
   <ele>1339.00</ele>
   <time>2014-04-06T15:59:23Z</time>
  </trkpt>
  <trkpt lat="33.974469" lon="-2.818943">
   <ele>1338.00</ele>
   <time>2014-04-06T15:59:38Z</time>
  </trkpt>
  <trkpt lat="33.974469" lon="-2.818945">
   <ele>1338.00</ele>
   <time>2014-04-06T15:59:53Z</time>
  </trkpt>
  <trkpt lat="33.974467" lon="-2.818945">
   <ele>1337.00</ele>
   <time>2014-04-06T16:00:08Z</time>
  </trkpt>
  <trkpt lat="33.974469" lon="-2.818943">
   <ele>1338.00</ele>
   <time>2014-04-06T16:00:24Z</time>
  </trkpt>
  <trkpt lat="33.974469" lon="-2.818941">
   <ele>1338.00</ele>
   <time>2014-04-06T16:00:39Z</time>
  </trkpt>
  <trkpt lat="33.974469" lon="-2.818945">
   <ele>1338.00</ele>
   <time>2014-04-06T16:00:54Z</time>
  </trkpt>
  <trkpt lat="33.974467" lon="-2.818942">
   <ele>1339.00</ele>
   <time>2014-04-06T16:01:09Z</time>
  </trkpt>
  <trkpt lat="33.974460" lon="-2.818944">
   <ele>1340.00</ele>
   <time>2014-04-06T16:01:25Z</time>
  </trkpt>
  <trkpt lat="33.974452" lon="-2.818947">
   <ele>1343.00</ele>
   <time>2014-04-06T16:01:40Z</time>
  </trkpt>
  <trkpt lat="33.974446" lon="-2.818953">
   <ele>1344.00</ele>
   <time>2014-04-06T16:01:55Z</time>
  </trkpt>
  <trkpt lat="33.974443" lon="-2.818956">
   <ele>1345.00</ele>
   <time>2014-04-06T16:02:10Z</time>
  </trkpt>
  <trkpt lat="33.974442" lon="-2.818959">
   <ele>1346.00</ele>
   <time>2014-04-06T16:02:26Z</time>
  </trkpt>
  <trkpt lat="33.974445" lon="-2.818961">
   <ele>1346.00</ele>
   <time>2014-04-06T16:02:41Z</time>
  </trkpt>
  <trkpt lat="33.974452" lon="-2.818962">
   <ele>1344.00</ele>
   <time>2014-04-06T16:02:56Z</time>
  </trkpt>
  <trkpt lat="33.974460" lon="-2.818961">
   <ele>1343.00</ele>
   <time>2014-04-06T16:03:11Z</time>
  </trkpt>
  <trkpt lat="33.974469" lon="-2.818952">
   <ele>1339.00</ele>
   <time>2014-04-06T16:03:27Z</time>
  </trkpt>
  <trkpt lat="33.974469" lon="-2.818949">
   <ele>1337.00</ele>
   <time>2014-04-06T16:03:42Z</time>
  </trkpt>
  <trkpt lat="33.974450" lon="-2.819069">
   <ele>1337.00</ele>
   <time>2014-04-06T16:03:57Z</time>
  </trkpt>
  <trkpt lat="33.974366" lon="-2.819401">
   <ele>1338.00</ele>
   <time>2014-04-06T16:04:05Z</time>
  </trkpt>
  <trkpt lat="33.974348" lon="-2.819621">
   <ele>1341.00</ele>
   <time>2014-04-06T16:04:09Z</time>
  </trkpt>
  <trkpt lat="33.974362" lon="-2.819838">
   <ele>1342.00</ele>
   <time>2014-04-06T16:04:13Z</time>
  </trkpt>
  <trkpt lat="33.974329" lon="-2.820075">
   <ele>1343.00</ele>
   <time>2014-04-06T16:04:17Z</time>
  </trkpt>
  <trkpt lat="33.974265" lon="-2.820336">
   <ele>1343.00</ele>
   <time>2014-04-06T16:04:21Z</time>
  </trkpt>
  <trkpt lat="33.974273" lon="-2.820623">
   <ele>1344.00</ele>
   <time>2014-04-06T16:04:25Z</time>
  </trkpt>
  <trkpt lat="33.974347" lon="-2.820886">
   <ele>1346.00</ele>
   <time>2014-04-06T16:04:29Z</time>
  </trkpt>
  <trkpt lat="33.974460" lon="-2.821121">
   <ele>1347.00</ele>
   <time>2014-04-06T16:04:33Z</time>
  </trkpt>
  <trkpt lat="33.974512" lon="-2.821362">
   <ele>1349.00</ele>
   <time>2014-04-06T16:04:37Z</time>
  </trkpt>
  <trkpt lat="33.974518" lon="-2.821626">
   <ele>1349.00</ele>
   <time>2014-04-06T16:04:41Z</time>
  </trkpt>
  <trkpt lat="33.974511" lon="-2.822050">
   <ele>1351.00</ele>
   <time>2014-04-06T16:04:47Z</time>
  </trkpt>
  <trkpt lat="33.974500" lon="-2.822490">
   <ele>1352.00</ele>
   <time>2014-04-06T16:04:53Z</time>
  </trkpt>
  <trkpt lat="33.974497" lon="-2.823019">
   <ele>1354.00</ele>
   <time>2014-04-06T16:05:00Z</time>
  </trkpt>
  <trkpt lat="33.974472" lon="-2.823244">
   <ele>1355.00</ele>
   <time>2014-04-06T16:05:04Z</time>
  </trkpt>
  <trkpt lat="33.974428" lon="-2.823466">
   <ele>1357.00</ele>
   <time>2014-04-06T16:05:09Z</time>
  </trkpt>
  <trkpt lat="33.974416" lon="-2.823549">
   <ele>1359.00</ele>
   <time>2014-04-06T16:05:25Z</time>
  </trkpt>
  <trkpt lat="33.974450" lon="-2.823326">
   <ele>1357.00</ele>
   <time>2014-04-06T16:05:36Z</time>
  </trkpt>
  <trkpt lat="33.974491" lon="-2.823099">
   <ele>1356.00</ele>
   <time>2014-04-06T16:05:44Z</time>
  </trkpt>
  <trkpt lat="33.974498" lon="-2.822858">
   <ele>1356.00</ele>
   <time>2014-04-06T16:05:52Z</time>
  </trkpt>
  <trkpt lat="33.974498" lon="-2.822781">
   <ele>1355.00</ele>
   <time>2014-04-06T16:06:08Z</time>
  </trkpt>
  <trkpt lat="33.974498" lon="-2.822780">
   <ele>1355.00</ele>
   <time>2014-04-06T16:06:23Z</time>
  </trkpt>
  <trkpt lat="33.974495" lon="-2.822779">
   <ele>1356.00</ele>
   <time>2014-04-06T16:06:38Z</time>
  </trkpt>
  <trkpt lat="33.974494" lon="-2.822781">
   <ele>1357.00</ele>
   <time>2014-04-06T16:06:54Z</time>
  </trkpt>
  <trkpt lat="33.974492" lon="-2.822786">
   <ele>1357.00</ele>
   <time>2014-04-06T16:07:09Z</time>
  </trkpt>
  <trkpt lat="33.974491" lon="-2.822789">
   <ele>1357.00</ele>
   <time>2014-04-06T16:07:24Z</time>
  </trkpt>
  <trkpt lat="33.974487" lon="-2.822790">
   <ele>1358.00</ele>
   <time>2014-04-06T16:07:39Z</time>
  </trkpt>
  <trkpt lat="33.974486" lon="-2.822789">
   <ele>1358.00</ele>
   <time>2014-04-06T16:07:55Z</time>
  </trkpt>
  <trkpt lat="33.974487" lon="-2.822788">
   <ele>1359.00</ele>
   <time>2014-04-06T16:08:10Z</time>
  </trkpt>
  <trkpt lat="33.974492" lon="-2.822786">
   <ele>1358.00</ele>
   <time>2014-04-06T16:08:25Z</time>
  </trkpt>
  <trkpt lat="33.974497" lon="-2.822786">
   <ele>1357.00</ele>
   <time>2014-04-06T16:08:40Z</time>
  </trkpt>
  <trkpt lat="33.974499" lon="-2.822786">
   <ele>1357.00</ele>
   <time>2014-04-06T16:08:56Z</time>
  </trkpt>
  <trkpt lat="33.974502" lon="-2.822787">
   <ele>1356.00</ele>
   <time>2014-04-06T16:09:11Z</time>
  </trkpt>
  <trkpt lat="33.974504" lon="-2.822788">
   <ele>1356.00</ele>
   <time>2014-04-06T16:09:26Z</time>
  </trkpt>
  <trkpt lat="33.974505" lon="-2.822789">
   <ele>1356.00</ele>
   <time>2014-04-06T16:09:41Z</time>
  </trkpt>
  <trkpt lat="33.974506" lon="-2.822790">
   <ele>1356.00</ele>
   <time>2014-04-06T16:09:57Z</time>
  </trkpt>
  <trkpt lat="33.974505" lon="-2.822789">
   <ele>1356.00</ele>
   <time>2014-04-06T16:10:12Z</time>
  </trkpt>
  <trkpt lat="33.974505" lon="-2.822789">
   <ele>1356.00</ele>
   <time>2014-04-06T16:10:27Z</time>
  </trkpt>
  <trkpt lat="33.974497" lon="-2.823004">
   <ele>1357.00</ele>
   <time>2014-04-06T16:10:42Z</time>
  </trkpt>
  <trkpt lat="33.974467" lon="-2.823259">
   <ele>1359.00</ele>
   <time>2014-04-06T16:10:47Z</time>
  </trkpt>
  <trkpt lat="33.974423" lon="-2.823499">
   <ele>1360.00</ele>
   <time>2014-04-06T16:10:51Z</time>
  </trkpt>
  <trkpt lat="33.974424" lon="-2.823761">
   <ele>1361.00</ele>
   <time>2014-04-06T16:10:55Z</time>
  </trkpt>
  <trkpt lat="33.974449" lon="-2.824166">
   <ele>1363.00</ele>
   <time>2014-04-06T16:11:01Z</time>
  </trkpt>
  <trkpt lat="33.974455" lon="-2.824442">
   <ele>1364.00</ele>
   <time>2014-04-06T16:11:05Z</time>
  </trkpt>
  <trkpt lat="33.974484" lon="-2.824658">
   <ele>1365.00</ele>
   <time>2014-04-06T16:11:08Z</time>
  </trkpt>
  <trkpt lat="33.974586" lon="-2.825299">
   <ele>1368.00</ele>
   <time>2014-04-06T16:11:17Z</time>
  </trkpt>
  <trkpt lat="33.974646" lon="-2.825504">
   <ele>1370.00</ele>
   <time>2014-04-06T16:11:20Z</time>
  </trkpt>
  <trkpt lat="33.974695" lon="-2.825749">
   <ele>1371.00</ele>
   <time>2014-04-06T16:11:24Z</time>
  </trkpt>
  <trkpt lat="33.974612" lon="-2.825980">
   <ele>1372.00</ele>
   <time>2014-04-06T16:11:28Z</time>
  </trkpt>
  <trkpt lat="33.974488" lon="-2.826205">
   <ele>1373.00</ele>
   <time>2014-04-06T16:11:32Z</time>
  </trkpt>
  <trkpt lat="33.974430" lon="-2.826472">
   <ele>1374.00</ele>
   <time>2014-04-06T16:11:36Z</time>
  </trkpt>
  <trkpt lat="33.974422" lon="-2.826731">
   <ele>1376.00</ele>
   <time>2014-04-06T16:11:40Z</time>
  </trkpt>
  <trkpt lat="33.974404" lon="-2.826990">
   <ele>1377.00</ele>
   <time>2014-04-06T16:11:44Z</time>
  </trkpt>
  <trkpt lat="33.974309" lon="-2.827237">
   <ele>1377.00</ele>
   <time>2014-04-06T16:11:48Z</time>
  </trkpt>
  <trkpt lat="33.974174" lon="-2.827464">
   <ele>1377.00</ele>
   <time>2014-04-06T16:11:52Z</time>
  </trkpt>
  <trkpt lat="33.974067" lon="-2.827717">
   <ele>1377.00</ele>
   <time>2014-04-06T16:11:56Z</time>
  </trkpt>
  <trkpt lat="33.973991" lon="-2.827972">
   <ele>1377.00</ele>
   <time>2014-04-06T16:12:00Z</time>
  </trkpt>
  <trkpt lat="33.973800" lon="-2.828429">
   <ele>1377.00</ele>
   <time>2014-04-06T16:12:07Z</time>
  </trkpt>
  <trkpt lat="33.973729" lon="-2.828654">
   <ele>1378.00</ele>
   <time>2014-04-06T16:12:10Z</time>
  </trkpt>
  <trkpt lat="33.973659" lon="-2.828877">
   <ele>1378.00</ele>
   <time>2014-04-06T16:12:13Z</time>
  </trkpt>
  <trkpt lat="33.973566" lon="-2.829155">
   <ele>1378.00</ele>
   <time>2014-04-06T16:12:17Z</time>
  </trkpt>
  <trkpt lat="33.973533" lon="-2.829372">
   <ele>1378.00</ele>
   <time>2014-04-06T16:12:20Z</time>
  </trkpt>
  <trkpt lat="33.973516" lon="-2.829676">
   <ele>1378.00</ele>
   <time>2014-04-06T16:12:24Z</time>
  </trkpt>
  <trkpt lat="33.973526" lon="-2.829902">
   <ele>1379.00</ele>
   <time>2014-04-06T16:12:27Z</time>
  </trkpt>
  <trkpt lat="33.973583" lon="-2.830430">
   <ele>1381.00</ele>
   <time>2014-04-06T16:12:34Z</time>
  </trkpt>
  <trkpt lat="33.973637" lon="-2.830651">
   <ele>1382.00</ele>
   <time>2014-04-06T16:12:37Z</time>
  </trkpt>
  <trkpt lat="33.973694" lon="-2.830891">
   <ele>1383.00</ele>
   <time>2014-04-06T16:12:40Z</time>
  </trkpt>
  <trkpt lat="33.973716" lon="-2.831141">
   <ele>1384.00</ele>
   <time>2014-04-06T16:12:43Z</time>
  </trkpt>
  <trkpt lat="33.973719" lon="-2.831393">
   <ele>1386.00</ele>
   <time>2014-04-06T16:12:46Z</time>
  </trkpt>
  <trkpt lat="33.973699" lon="-2.831630">
   <ele>1386.00</ele>
   <time>2014-04-06T16:12:49Z</time>
  </trkpt>
  <trkpt lat="33.973702" lon="-2.831923">
   <ele>1388.00</ele>
   <time>2014-04-06T16:12:53Z</time>
  </trkpt>
  <trkpt lat="33.973657" lon="-2.832133">
   <ele>1390.00</ele>
   <time>2014-04-06T16:12:56Z</time>
  </trkpt>
  <trkpt lat="33.973633" lon="-2.832350">
   <ele>1391.00</ele>
   <time>2014-04-06T16:12:59Z</time>
  </trkpt>
  <trkpt lat="33.973640" lon="-2.832615">
   <ele>1393.00</ele>
   <time>2014-04-06T16:13:03Z</time>
  </trkpt>
  <trkpt lat="33.973717" lon="-2.832819">
   <ele>1393.00</ele>
   <time>2014-04-06T16:13:07Z</time>
  </trkpt>
  <trkpt lat="33.973852" lon="-2.833025">
   <ele>1395.00</ele>
   <time>2014-04-06T16:13:12Z</time>
  </trkpt>
  <trkpt lat="33.973780" lon="-2.833194">
   <ele>1395.00</ele>
   <time>2014-04-06T16:13:17Z</time>
  </trkpt>
  <trkpt lat="33.973590" lon="-2.833277">
   <ele>1396.00</ele>
   <time>2014-04-06T16:13:21Z</time>
  </trkpt>
  <trkpt lat="33.973430" lon="-2.833414">
   <ele>1396.00</ele>
   <time>2014-04-06T16:13:25Z</time>
  </trkpt>
  <trkpt lat="33.973321" lon="-2.833642">
   <ele>1397.00</ele>
   <time>2014-04-06T16:13:30Z</time>
  </trkpt>
  <trkpt lat="33.973301" lon="-2.833951">
   <ele>1398.00</ele>
   <time>2014-04-06T16:13:35Z</time>
  </trkpt>
  <trkpt lat="33.973227" lon="-2.834168">
   <ele>1399.00</ele>
   <time>2014-04-06T16:13:39Z</time>
  </trkpt>
  <trkpt lat="33.973185" lon="-2.834406">
   <ele>1400.00</ele>
   <time>2014-04-06T16:13:43Z</time>
  </trkpt>
  <trkpt lat="33.973151" lon="-2.834643">
   <ele>1402.00</ele>
   <time>2014-04-06T16:13:47Z</time>
  </trkpt>
  <trkpt lat="33.973057" lon="-2.834886">
   <ele>1404.00</ele>
   <time>2014-04-06T16:13:51Z</time>
  </trkpt>
  <trkpt lat="33.973007" lon="-2.835167">
   <ele>1407.00</ele>
   <time>2014-04-06T16:13:55Z</time>
  </trkpt>
  <trkpt lat="33.973035" lon="-2.835453">
   <ele>1409.00</ele>
   <time>2014-04-06T16:13:59Z</time>
  </trkpt>
  <trkpt lat="33.973101" lon="-2.835740">
   <ele>1410.00</ele>
   <time>2014-04-06T16:14:03Z</time>
  </trkpt>
  <trkpt lat="33.973166" lon="-2.835959">
   <ele>1412.00</ele>
   <time>2014-04-06T16:14:06Z</time>
  </trkpt>
  <trkpt lat="33.973247" lon="-2.836227">
   <ele>1413.00</ele>
   <time>2014-04-06T16:14:10Z</time>
  </trkpt>
  <trkpt lat="33.973284" lon="-2.836490">
   <ele>1415.00</ele>
   <time>2014-04-06T16:14:14Z</time>
  </trkpt>
  <trkpt lat="33.973333" lon="-2.836748">
   <ele>1416.00</ele>
   <time>2014-04-06T16:14:18Z</time>
  </trkpt>
  <trkpt lat="33.973460" lon="-2.836973">
   <ele>1418.00</ele>
   <time>2014-04-06T16:14:22Z</time>
  </trkpt>
  <trkpt lat="33.973603" lon="-2.837107">
   <ele>1419.00</ele>
   <time>2014-04-06T16:14:25Z</time>
  </trkpt>
  <trkpt lat="33.973768" lon="-2.837233">
   <ele>1420.00</ele>
   <time>2014-04-06T16:14:28Z</time>
  </trkpt>
  <trkpt lat="33.973940" lon="-2.837345">
   <ele>1421.00</ele>
   <time>2014-04-06T16:14:31Z</time>
  </trkpt>
  <trkpt lat="33.974263" lon="-2.837519">
   <ele>1423.00</ele>
   <time>2014-04-06T16:14:38Z</time>
  </trkpt>
  <trkpt lat="33.974467" lon="-2.837590">
   <ele>1423.00</ele>
   <time>2014-04-06T16:14:43Z</time>
  </trkpt>
  <trkpt lat="33.974667" lon="-2.837625">
   <ele>1424.00</ele>
   <time>2014-04-06T16:14:47Z</time>
  </trkpt>
  <trkpt lat="33.974845" lon="-2.837566">
   <ele>1425.00</ele>
   <time>2014-04-06T16:14:51Z</time>
  </trkpt>
  <trkpt lat="33.975012" lon="-2.837466">
   <ele>1426.00</ele>
   <time>2014-04-06T16:14:55Z</time>
  </trkpt>
  <trkpt lat="33.975262" lon="-2.837257">
   <ele>1429.00</ele>
   <time>2014-04-06T16:15:01Z</time>
  </trkpt>
  <trkpt lat="33.975427" lon="-2.837144">
   <ele>1431.00</ele>
   <time>2014-04-06T16:15:05Z</time>
  </trkpt>
  <trkpt lat="33.975592" lon="-2.837034">
   <ele>1433.00</ele>
   <time>2014-04-06T16:15:09Z</time>
  </trkpt>
  <trkpt lat="33.975758" lon="-2.836935">
   <ele>1435.00</ele>
   <time>2014-04-06T16:15:13Z</time>
  </trkpt>
  <trkpt lat="33.975937" lon="-2.836873">
   <ele>1436.00</ele>
   <time>2014-04-06T16:15:17Z</time>
  </trkpt>
  <trkpt lat="33.976148" lon="-2.836824">
   <ele>1438.00</ele>
   <time>2014-04-06T16:15:21Z</time>
  </trkpt>
  <trkpt lat="33.976363" lon="-2.836795">
   <ele>1440.00</ele>
   <time>2014-04-06T16:15:25Z</time>
  </trkpt>
  <trkpt lat="33.976572" lon="-2.836791">
   <ele>1442.00</ele>
   <time>2014-04-06T16:15:29Z</time>
  </trkpt>
  <trkpt lat="33.976769" lon="-2.836806">
   <ele>1444.00</ele>
   <time>2014-04-06T16:15:33Z</time>
  </trkpt>
  <trkpt lat="33.977015" lon="-2.836827">
   <ele>1447.00</ele>
   <time>2014-04-06T16:15:38Z</time>
  </trkpt>
  <trkpt lat="33.977279" lon="-2.836843">
   <ele>1449.00</ele>
   <time>2014-04-06T16:15:43Z</time>
  </trkpt>
  <trkpt lat="33.977781" lon="-2.836893">
   <ele>1453.00</ele>
   <time>2014-04-06T16:15:52Z</time>
  </trkpt>
  <trkpt lat="33.978146" lon="-2.836918">
   <ele>1456.00</ele>
   <time>2014-04-06T16:15:58Z</time>
  </trkpt>
  <trkpt lat="33.978325" lon="-2.836959">
   <ele>1457.00</ele>
   <time>2014-04-06T16:16:01Z</time>
  </trkpt>
  <trkpt lat="33.978563" lon="-2.836990">
   <ele>1459.00</ele>
   <time>2014-04-06T16:16:05Z</time>
  </trkpt>
  <trkpt lat="33.978750" lon="-2.836989">
   <ele>1460.00</ele>
   <time>2014-04-06T16:16:08Z</time>
  </trkpt>
  <trkpt lat="33.978938" lon="-2.836990">
   <ele>1462.00</ele>
   <time>2014-04-06T16:16:11Z</time>
  </trkpt>
  <trkpt lat="33.979123" lon="-2.836991">
   <ele>1464.00</ele>
   <time>2014-04-06T16:16:14Z</time>
  </trkpt>
  <trkpt lat="33.979305" lon="-2.836973">
   <ele>1466.00</ele>
   <time>2014-04-06T16:16:17Z</time>
  </trkpt>
  <trkpt lat="33.979605" lon="-2.836934">
   <ele>1469.00</ele>
   <time>2014-04-06T16:16:22Z</time>
  </trkpt>
  <trkpt lat="33.979849" lon="-2.836920">
   <ele>1470.00</ele>
   <time>2014-04-06T16:16:26Z</time>
  </trkpt>
  <trkpt lat="33.980077" lon="-2.836936">
   <ele>1472.00</ele>
   <time>2014-04-06T16:16:30Z</time>
  </trkpt>
  <trkpt lat="33.980399" lon="-2.836988">
   <ele>1473.00</ele>
   <time>2014-04-06T16:16:36Z</time>
  </trkpt>
  <trkpt lat="33.981203" lon="-2.837085">
   <ele>1478.00</ele>
   <time>2014-04-06T16:16:52Z</time>
  </trkpt>
  <trkpt lat="33.981405" lon="-2.837107">
   <ele>1480.00</ele>
   <time>2014-04-06T16:16:56Z</time>
  </trkpt>
  <trkpt lat="33.981609" lon="-2.837084">
   <ele>1481.00</ele>
   <time>2014-04-06T16:17:00Z</time>
  </trkpt>
  <trkpt lat="33.981799" lon="-2.837088">
   <ele>1481.00</ele>
   <time>2014-04-06T16:17:04Z</time>
  </trkpt>
  <trkpt lat="33.982012" lon="-2.837159">
   <ele>1481.00</ele>
   <time>2014-04-06T16:17:08Z</time>
  </trkpt>
  <trkpt lat="33.982206" lon="-2.837315">
   <ele>1480.00</ele>
   <time>2014-04-06T16:17:12Z</time>
  </trkpt>
  <trkpt lat="33.982318" lon="-2.837486">
   <ele>1480.00</ele>
   <time>2014-04-06T16:17:15Z</time>
  </trkpt>
  <trkpt lat="33.982498" lon="-2.837762">
   <ele>1483.00</ele>
   <time>2014-04-06T16:17:20Z</time>
  </trkpt>
  <trkpt lat="33.982676" lon="-2.837829">
   <ele>1486.00</ele>
   <time>2014-04-06T16:17:24Z</time>
  </trkpt>
  <trkpt lat="33.983075" lon="-2.837740">
   <ele>1491.00</ele>
   <time>2014-04-06T16:17:32Z</time>
  </trkpt>
  <trkpt lat="33.983254" lon="-2.837713">
   <ele>1493.00</ele>
   <time>2014-04-06T16:17:36Z</time>
  </trkpt>
  <trkpt lat="33.983478" lon="-2.837684">
   <ele>1495.00</ele>
   <time>2014-04-06T16:17:42Z</time>
  </trkpt>
  <trkpt lat="33.983514" lon="-2.837692">
   <ele>1496.00</ele>
   <time>2014-04-06T16:17:58Z</time>
  </trkpt>
  <trkpt lat="33.983513" lon="-2.837695">
   <ele>1496.00</ele>
   <time>2014-04-06T16:18:13Z</time>
  </trkpt>
  <trkpt lat="33.983510" lon="-2.837695">
   <ele>1495.00</ele>
   <time>2014-04-06T16:18:28Z</time>
  </trkpt>
  <trkpt lat="33.983514" lon="-2.837698">
   <ele>1495.00</ele>
   <time>2014-04-06T16:18:43Z</time>
  </trkpt>
  <trkpt lat="33.983516" lon="-2.837699">
   <ele>1495.00</ele>
   <time>2014-04-06T16:18:58Z</time>
  </trkpt>
  <trkpt lat="33.983514" lon="-2.837697">
   <ele>1495.00</ele>
   <time>2014-04-06T16:19:14Z</time>
  </trkpt>
  <trkpt lat="33.983514" lon="-2.837696">
   <ele>1495.00</ele>
   <time>2014-04-06T16:19:29Z</time>
  </trkpt>
  <trkpt lat="33.983512" lon="-2.837695">
   <ele>1495.00</ele>
   <time>2014-04-06T16:19:44Z</time>
  </trkpt>
  <trkpt lat="33.983501" lon="-2.837686">
   <ele>1494.00</ele>
   <time>2014-04-06T16:19:59Z</time>
  </trkpt>
  <trkpt lat="33.983497" lon="-2.837683">
   <ele>1494.00</ele>
   <time>2014-04-06T16:20:15Z</time>
  </trkpt>
  <trkpt lat="33.983499" lon="-2.837684">
   <ele>1494.00</ele>
   <time>2014-04-06T16:20:30Z</time>
  </trkpt>
  <trkpt lat="33.983499" lon="-2.837684">
   <ele>1495.00</ele>
   <time>2014-04-06T16:20:45Z</time>
  </trkpt>
  <trkpt lat="33.983512" lon="-2.837692">
   <ele>1495.00</ele>
   <time>2014-04-06T16:21:00Z</time>
  </trkpt>
  <trkpt lat="33.983498" lon="-2.837685">
   <ele>1494.00</ele>
   <time>2014-04-06T16:21:16Z</time>
  </trkpt>
  <trkpt lat="33.983505" lon="-2.837690">
   <ele>1495.00</ele>
   <time>2014-04-06T16:21:31Z</time>
  </trkpt>
  <trkpt lat="33.983505" lon="-2.837689">
   <ele>1494.00</ele>
   <time>2014-04-06T16:21:46Z</time>
  </trkpt>
  <trkpt lat="33.983508" lon="-2.837691">
   <ele>1495.00</ele>
   <time>2014-04-06T16:22:02Z</time>
  </trkpt>
  <trkpt lat="33.983510" lon="-2.837692">
   <ele>1495.00</ele>
   <time>2014-04-06T16:22:17Z</time>
  </trkpt>
  <trkpt lat="33.983688" lon="-2.837722">
   <ele>1494.00</ele>
   <time>2014-04-06T16:22:31Z</time>
  </trkpt>
  <trkpt lat="33.983881" lon="-2.837792">
   <ele>1492.00</ele>
   <time>2014-04-06T16:22:37Z</time>
  </trkpt>
  <trkpt lat="33.984042" lon="-2.837927">
   <ele>1492.00</ele>
   <time>2014-04-06T16:22:43Z</time>
  </trkpt>
  <trkpt lat="33.984087" lon="-2.838172">
   <ele>1493.00</ele>
   <time>2014-04-06T16:22:48Z</time>
  </trkpt>
  <trkpt lat="33.984132" lon="-2.838738">
   <ele>1494.00</ele>
   <time>2014-04-06T16:22:57Z</time>
  </trkpt>
  <trkpt lat="33.984176" lon="-2.839072">
   <ele>1495.00</ele>
   <time>2014-04-06T16:23:02Z</time>
  </trkpt>
  <trkpt lat="33.984196" lon="-2.839337">
   <ele>1496.00</ele>
   <time>2014-04-06T16:23:06Z</time>
  </trkpt>
  <trkpt lat="33.984186" lon="-2.839612">
   <ele>1497.00</ele>
   <time>2014-04-06T16:23:10Z</time>
  </trkpt>
  <trkpt lat="33.984161" lon="-2.839880">
   <ele>1498.00</ele>
   <time>2014-04-06T16:23:14Z</time>
  </trkpt>
  <trkpt lat="33.984123" lon="-2.840155">
   <ele>1499.00</ele>
   <time>2014-04-06T16:23:18Z</time>
  </trkpt>
  <trkpt lat="33.984075" lon="-2.840399">
   <ele>1500.00</ele>
   <time>2014-04-06T16:23:22Z</time>
  </trkpt>
  <trkpt lat="33.984019" lon="-2.840649">
   <ele>1501.00</ele>
   <time>2014-04-06T16:23:26Z</time>
  </trkpt>
  <trkpt lat="33.983989" lon="-2.840928">
   <ele>1502.00</ele>
   <time>2014-04-06T16:23:30Z</time>
  </trkpt>
  <trkpt lat="33.983996" lon="-2.841152">
   <ele>1502.00</ele>
   <time>2014-04-06T16:23:33Z</time>
  </trkpt>
  <trkpt lat="33.984022" lon="-2.841380">
   <ele>1503.00</ele>
   <time>2014-04-06T16:23:36Z</time>
  </trkpt>
  <trkpt lat="33.984081" lon="-2.841605">
   <ele>1504.00</ele>
   <time>2014-04-06T16:23:39Z</time>
  </trkpt>
  <trkpt lat="33.984164" lon="-2.841823">
   <ele>1505.00</ele>
   <time>2014-04-06T16:23:42Z</time>
  </trkpt>
  <trkpt lat="33.984247" lon="-2.842026">
   <ele>1506.00</ele>
   <time>2014-04-06T16:23:45Z</time>
  </trkpt>
  <trkpt lat="33.984344" lon="-2.842255">
   <ele>1507.00</ele>
   <time>2014-04-06T16:23:49Z</time>
  </trkpt>
  <trkpt lat="33.984320" lon="-2.842492">
   <ele>1507.00</ele>
   <time>2014-04-06T16:23:53Z</time>
  </trkpt>
  <trkpt lat="33.984212" lon="-2.842743">
   <ele>1507.00</ele>
   <time>2014-04-06T16:23:57Z</time>
  </trkpt>
  <trkpt lat="33.984079" lon="-2.843028">
   <ele>1508.00</ele>
   <time>2014-04-06T16:24:01Z</time>
  </trkpt>
  <trkpt lat="33.984001" lon="-2.843248">
   <ele>1509.00</ele>
   <time>2014-04-06T16:24:04Z</time>
  </trkpt>
  <trkpt lat="33.983971" lon="-2.843474">
   <ele>1510.00</ele>
   <time>2014-04-06T16:24:07Z</time>
  </trkpt>
  <trkpt lat="33.983964" lon="-2.843702">
   <ele>1511.00</ele>
   <time>2014-04-06T16:24:10Z</time>
  </trkpt>
  <trkpt lat="33.983997" lon="-2.843938">
   <ele>1511.00</ele>
   <time>2014-04-06T16:24:13Z</time>
  </trkpt>
  <trkpt lat="33.984066" lon="-2.844184">
   <ele>1512.00</ele>
   <time>2014-04-06T16:24:16Z</time>
  </trkpt>
  <trkpt lat="33.984157" lon="-2.844415">
   <ele>1513.00</ele>
   <time>2014-04-06T16:24:19Z</time>
  </trkpt>
  <trkpt lat="33.984289" lon="-2.844619">
   <ele>1514.00</ele>
   <time>2014-04-06T16:24:22Z</time>
  </trkpt>
  <trkpt lat="33.984406" lon="-2.844803">
   <ele>1515.00</ele>
   <time>2014-04-06T16:24:25Z</time>
  </trkpt>
  <trkpt lat="33.984476" lon="-2.845009">
   <ele>1515.00</ele>
   <time>2014-04-06T16:24:28Z</time>
  </trkpt>
  <trkpt lat="33.984681" lon="-2.845732">
   <ele>1517.00</ele>
   <time>2014-04-06T16:24:37Z</time>
  </trkpt>
  <trkpt lat="33.984783" lon="-2.845993">
   <ele>1518.00</ele>
   <time>2014-04-06T16:24:40Z</time>
  </trkpt>
  <trkpt lat="33.984933" lon="-2.846340">
   <ele>1519.00</ele>
   <time>2014-04-06T16:24:44Z</time>
  </trkpt>
  <trkpt lat="33.985099" lon="-2.846780">
   <ele>1521.00</ele>
   <time>2014-04-06T16:24:49Z</time>
  </trkpt>
  <trkpt lat="33.985241" lon="-2.846986">
   <ele>1521.00</ele>
   <time>2014-04-06T16:24:52Z</time>
  </trkpt>
  <trkpt lat="33.985344" lon="-2.847215">
   <ele>1522.00</ele>
   <time>2014-04-06T16:24:55Z</time>
  </trkpt>
  <trkpt lat="33.985392" lon="-2.847496">
   <ele>1521.00</ele>
   <time>2014-04-06T16:24:58Z</time>
  </trkpt>
  <trkpt lat="33.985443" lon="-2.847893">
   <ele>1521.00</ele>
   <time>2014-04-06T16:25:02Z</time>
  </trkpt>
  <trkpt lat="33.985478" lon="-2.848185">
   <ele>1521.00</ele>
   <time>2014-04-06T16:25:05Z</time>
  </trkpt>
  <trkpt lat="33.985449" lon="-2.848472">
   <ele>1521.00</ele>
   <time>2014-04-06T16:25:08Z</time>
  </trkpt>
  <trkpt lat="33.985355" lon="-2.848739">
   <ele>1521.00</ele>
   <time>2014-04-06T16:25:11Z</time>
  </trkpt>
  <trkpt lat="33.985186" lon="-2.849179">
   <ele>1520.00</ele>
   <time>2014-04-06T16:25:16Z</time>
  </trkpt>
  <trkpt lat="33.985115" lon="-2.849442">
   <ele>1520.00</ele>
   <time>2014-04-06T16:25:19Z</time>
  </trkpt>
  <trkpt lat="33.985094" lon="-2.849723">
   <ele>1520.00</ele>
   <time>2014-04-06T16:25:22Z</time>
  </trkpt>
  <trkpt lat="33.985092" lon="-2.850016">
   <ele>1520.00</ele>
   <time>2014-04-06T16:25:25Z</time>
  </trkpt>
  <trkpt lat="33.985113" lon="-2.850305">
   <ele>1520.00</ele>
   <time>2014-04-06T16:25:28Z</time>
  </trkpt>
  <trkpt lat="33.985164" lon="-2.850581">
   <ele>1521.00</ele>
   <time>2014-04-06T16:25:31Z</time>
  </trkpt>
  <trkpt lat="33.985274" lon="-2.850808">
   <ele>1521.00</ele>
   <time>2014-04-06T16:25:34Z</time>
  </trkpt>
  <trkpt lat="33.985454" lon="-2.850963">
   <ele>1521.00</ele>
   <time>2014-04-06T16:25:37Z</time>
  </trkpt>
  <trkpt lat="33.985695" lon="-2.851039">
   <ele>1521.00</ele>
   <time>2014-04-06T16:25:40Z</time>
  </trkpt>
  <trkpt lat="33.985953" lon="-2.851073">
   <ele>1521.00</ele>
   <time>2014-04-06T16:25:43Z</time>
  </trkpt>
  <trkpt lat="33.986298" lon="-2.851096">
   <ele>1520.00</ele>
   <time>2014-04-06T16:25:47Z</time>
  </trkpt>
  <trkpt lat="33.986537" lon="-2.851164">
   <ele>1520.00</ele>
   <time>2014-04-06T16:25:50Z</time>
  </trkpt>
  <trkpt lat="33.986761" lon="-2.851252">
   <ele>1520.00</ele>
   <time>2014-04-06T16:25:53Z</time>
  </trkpt>
  <trkpt lat="33.986915" lon="-2.851394">
   <ele>1520.00</ele>
   <time>2014-04-06T16:25:56Z</time>
  </trkpt>
  <trkpt lat="33.986974" lon="-2.851602">
   <ele>1520.00</ele>
   <time>2014-04-06T16:25:59Z</time>
  </trkpt>
  <trkpt lat="33.986986" lon="-2.851832">
   <ele>1520.00</ele>
   <time>2014-04-06T16:26:02Z</time>
  </trkpt>
  <trkpt lat="33.986950" lon="-2.852070">
   <ele>1519.00</ele>
   <time>2014-04-06T16:26:05Z</time>
  </trkpt>
  <trkpt lat="33.986857" lon="-2.852306">
   <ele>1520.00</ele>
   <time>2014-04-06T16:26:08Z</time>
  </trkpt>
  <trkpt lat="33.986705" lon="-2.852498">
   <ele>1520.00</ele>
   <time>2014-04-06T16:26:11Z</time>
  </trkpt>
  <trkpt lat="33.986410" lon="-2.852790">
   <ele>1520.00</ele>
   <time>2014-04-06T16:26:16Z</time>
  </trkpt>
  <trkpt lat="33.986271" lon="-2.853034">
   <ele>1520.00</ele>
   <time>2014-04-06T16:26:19Z</time>
  </trkpt>
  <trkpt lat="33.986206" lon="-2.853323">
   <ele>1521.00</ele>
   <time>2014-04-06T16:26:22Z</time>
  </trkpt>
  <trkpt lat="33.986202" lon="-2.853627">
   <ele>1522.00</ele>
   <time>2014-04-06T16:26:25Z</time>
  </trkpt>
  <trkpt lat="33.986238" lon="-2.853935">
   <ele>1522.00</ele>
   <time>2014-04-06T16:26:28Z</time>
  </trkpt>
  <trkpt lat="33.986311" lon="-2.854453">
   <ele>1523.00</ele>
   <time>2014-04-06T16:26:33Z</time>
  </trkpt>
  <trkpt lat="33.986326" lon="-2.854763">
   <ele>1524.00</ele>
   <time>2014-04-06T16:26:36Z</time>
  </trkpt>
  <trkpt lat="33.986304" lon="-2.855063">
   <ele>1525.00</ele>
   <time>2014-04-06T16:26:39Z</time>
  </trkpt>
  <trkpt lat="33.986276" lon="-2.855340">
   <ele>1526.00</ele>
   <time>2014-04-06T16:26:42Z</time>
  </trkpt>
  <trkpt lat="33.986311" lon="-2.855621">
   <ele>1527.00</ele>
   <time>2014-04-06T16:26:45Z</time>
  </trkpt>
  <trkpt lat="33.986377" lon="-2.856006">
   <ele>1528.00</ele>
   <time>2014-04-06T16:26:49Z</time>
  </trkpt>
  <trkpt lat="33.986393" lon="-2.856292">
   <ele>1529.00</ele>
   <time>2014-04-06T16:26:52Z</time>
  </trkpt>
  <trkpt lat="33.986412" lon="-2.856572">
   <ele>1529.00</ele>
   <time>2014-04-06T16:26:55Z</time>
  </trkpt>
  <trkpt lat="33.986510" lon="-2.856828">
   <ele>1530.00</ele>
   <time>2014-04-06T16:26:58Z</time>
  </trkpt>
  <trkpt lat="33.986765" lon="-2.857274">
   <ele>1533.00</ele>
   <time>2014-04-06T16:27:04Z</time>
  </trkpt>
  <trkpt lat="33.986952" lon="-2.857362">
   <ele>1533.00</ele>
   <time>2014-04-06T16:27:07Z</time>
  </trkpt>
  <trkpt lat="33.987156" lon="-2.857390">
   <ele>1534.00</ele>
   <time>2014-04-06T16:27:10Z</time>
  </trkpt>
  <trkpt lat="33.987317" lon="-2.857524">
   <ele>1535.00</ele>
   <time>2014-04-06T16:27:14Z</time>
  </trkpt>
  <trkpt lat="33.987376" lon="-2.857740">
   <ele>1535.00</ele>
   <time>2014-04-06T16:27:18Z</time>
  </trkpt>
  <trkpt lat="33.987451" lon="-2.858010">
   <ele>1536.00</ele>
   <time>2014-04-06T16:27:22Z</time>
  </trkpt>
  <trkpt lat="33.987594" lon="-2.858525">
   <ele>1538.00</ele>
   <time>2014-04-06T16:27:29Z</time>
  </trkpt>
  <trkpt lat="33.987617" lon="-2.858765">
   <ele>1539.00</ele>
   <time>2014-04-06T16:27:32Z</time>
  </trkpt>
  <trkpt lat="33.987639" lon="-2.859027">
   <ele>1540.00</ele>
   <time>2014-04-06T16:27:35Z</time>
  </trkpt>
  <trkpt lat="33.987710" lon="-2.859744">
   <ele>1540.00</ele>
   <time>2014-04-06T16:27:44Z</time>
  </trkpt>
  <trkpt lat="33.987743" lon="-2.860020">
   <ele>1539.00</ele>
   <time>2014-04-06T16:27:48Z</time>
  </trkpt>
  <trkpt lat="33.987748" lon="-2.860295">
   <ele>1538.00</ele>
   <time>2014-04-06T16:27:52Z</time>
  </trkpt>
  <trkpt lat="33.987749" lon="-2.860621">
   <ele>1537.00</ele>
   <time>2014-04-06T16:27:57Z</time>
  </trkpt>
  <trkpt lat="33.987807" lon="-2.860840">
   <ele>1536.00</ele>
   <time>2014-04-06T16:28:01Z</time>
  </trkpt>
  <trkpt lat="33.987926" lon="-2.861035">
   <ele>1534.00</ele>
   <time>2014-04-06T16:28:05Z</time>
  </trkpt>
  <trkpt lat="33.988020" lon="-2.861244">
   <ele>1533.00</ele>
   <time>2014-04-06T16:28:09Z</time>
  </trkpt>
  <trkpt lat="33.988057" lon="-2.861468">
   <ele>1532.00</ele>
   <time>2014-04-06T16:28:13Z</time>
  </trkpt>
  <trkpt lat="33.988082" lon="-2.861828">
   <ele>1531.00</ele>
   <time>2014-04-06T16:28:19Z</time>
  </trkpt>
  <trkpt lat="33.988052" lon="-2.862085">
   <ele>1529.00</ele>
   <time>2014-04-06T16:28:23Z</time>
  </trkpt>
  <trkpt lat="33.987940" lon="-2.862316">
   <ele>1529.00</ele>
   <time>2014-04-06T16:28:27Z</time>
  </trkpt>
  <trkpt lat="33.987681" lon="-2.862762">
   <ele>1527.00</ele>
   <time>2014-04-06T16:28:35Z</time>
  </trkpt>
  <trkpt lat="33.987612" lon="-2.863007">
   <ele>1526.00</ele>
   <time>2014-04-06T16:28:39Z</time>
  </trkpt>
  <trkpt lat="33.987648" lon="-2.863246">
   <ele>1525.00</ele>
   <time>2014-04-06T16:28:43Z</time>
  </trkpt>
  <trkpt lat="33.987826" lon="-2.863411">
   <ele>1524.00</ele>
   <time>2014-04-06T16:28:47Z</time>
  </trkpt>
  <trkpt lat="33.988336" lon="-2.863769">
   <ele>1520.00</ele>
   <time>2014-04-06T16:28:56Z</time>
  </trkpt>
  <trkpt lat="33.988564" lon="-2.863914">
   <ele>1519.00</ele>
   <time>2014-04-06T16:29:00Z</time>
  </trkpt>
  <trkpt lat="33.988728" lon="-2.864008">
   <ele>1518.00</ele>
   <time>2014-04-06T16:29:03Z</time>
  </trkpt>
  <trkpt lat="33.989008" lon="-2.864195">
   <ele>1516.00</ele>
   <time>2014-04-06T16:29:08Z</time>
  </trkpt>
  <trkpt lat="33.989267" lon="-2.864395">
   <ele>1514.00</ele>
   <time>2014-04-06T16:29:13Z</time>
  </trkpt>
  <trkpt lat="33.989405" lon="-2.864563">
   <ele>1512.00</ele>
   <time>2014-04-06T16:29:17Z</time>
  </trkpt>
  <trkpt lat="33.989291" lon="-2.864731">
   <ele>1512.00</ele>
   <time>2014-04-06T16:29:23Z</time>
  </trkpt>
  <trkpt lat="33.989106" lon="-2.864777">
   <ele>1513.00</ele>
   <time>2014-04-06T16:29:27Z</time>
  </trkpt>
  <trkpt lat="33.988908" lon="-2.864847">
   <ele>1514.00</ele>
   <time>2014-04-06T16:29:31Z</time>
  </trkpt>
  <trkpt lat="33.988715" lon="-2.864951">
   <ele>1515.00</ele>
   <time>2014-04-06T16:29:35Z</time>
  </trkpt>
  <trkpt lat="33.988547" lon="-2.865145">
   <ele>1516.00</ele>
   <time>2014-04-06T16:29:39Z</time>
  </trkpt>
  <trkpt lat="33.988441" lon="-2.865328">
   <ele>1517.00</ele>
   <time>2014-04-06T16:29:42Z</time>
  </trkpt>
  <trkpt lat="33.988322" lon="-2.865510">
   <ele>1518.00</ele>
   <time>2014-04-06T16:29:45Z</time>
  </trkpt>
  <trkpt lat="33.988175" lon="-2.865690">
   <ele>1519.00</ele>
   <time>2014-04-06T16:29:48Z</time>
  </trkpt>
  <trkpt lat="33.988024" lon="-2.865840">
   <ele>1521.00</ele>
   <time>2014-04-06T16:29:51Z</time>
  </trkpt>
  <trkpt lat="33.987881" lon="-2.865974">
   <ele>1522.00</ele>
   <time>2014-04-06T16:29:54Z</time>
  </trkpt>
  <trkpt lat="33.987775" lon="-2.866190">
   <ele>1524.00</ele>
   <time>2014-04-06T16:29:58Z</time>
  </trkpt>
  <trkpt lat="33.987784" lon="-2.866442">
   <ele>1525.00</ele>
   <time>2014-04-06T16:30:02Z</time>
  </trkpt>
  <trkpt lat="33.987850" lon="-2.866697">
   <ele>1527.00</ele>
   <time>2014-04-06T16:30:07Z</time>
  </trkpt>
  <trkpt lat="33.987919" lon="-2.866946">
   <ele>1529.00</ele>
   <time>2014-04-06T16:30:12Z</time>
  </trkpt>
  <trkpt lat="33.987990" lon="-2.867199">
   <ele>1530.00</ele>
   <time>2014-04-06T16:30:17Z</time>
  </trkpt>
  <trkpt lat="33.988022" lon="-2.867419">
   <ele>1532.00</ele>
   <time>2014-04-06T16:30:21Z</time>
  </trkpt>
  <trkpt lat="33.988020" lon="-2.867633">
   <ele>1533.00</ele>
   <time>2014-04-06T16:30:25Z</time>
  </trkpt>
  <trkpt lat="33.987920" lon="-2.867837">
   <ele>1534.00</ele>
   <time>2014-04-06T16:30:29Z</time>
  </trkpt>
  <trkpt lat="33.987779" lon="-2.867993">
   <ele>1536.00</ele>
   <time>2014-04-06T16:30:33Z</time>
  </trkpt>
  <trkpt lat="33.987615" lon="-2.868134">
   <ele>1537.00</ele>
   <time>2014-04-06T16:30:37Z</time>
  </trkpt>
  <trkpt lat="33.987426" lon="-2.868261">
   <ele>1539.00</ele>
   <time>2014-04-06T16:30:41Z</time>
  </trkpt>
  <trkpt lat="33.987215" lon="-2.868315">
   <ele>1540.00</ele>
   <time>2014-04-06T16:30:45Z</time>
  </trkpt>
  <trkpt lat="33.987021" lon="-2.868388">
   <ele>1541.00</ele>
   <time>2014-04-06T16:30:49Z</time>
  </trkpt>
  <trkpt lat="33.986891" lon="-2.868558">
   <ele>1542.00</ele>
   <time>2014-04-06T16:30:53Z</time>
  </trkpt>
  <trkpt lat="33.986823" lon="-2.868795">
   <ele>1542.00</ele>
   <time>2014-04-06T16:30:57Z</time>
  </trkpt>
  <trkpt lat="33.986748" lon="-2.869043">
   <ele>1541.00</ele>
   <time>2014-04-06T16:31:01Z</time>
  </trkpt>
  <trkpt lat="33.986715" lon="-2.869315">
   <ele>1541.00</ele>
   <time>2014-04-06T16:31:05Z</time>
  </trkpt>
  <trkpt lat="33.986690" lon="-2.869637">
   <ele>1539.00</ele>
   <time>2014-04-06T16:31:10Z</time>
  </trkpt>
  <trkpt lat="33.986691" lon="-2.869905">
   <ele>1538.00</ele>
   <time>2014-04-06T16:31:14Z</time>
  </trkpt>
  <trkpt lat="33.986683" lon="-2.870184">
   <ele>1537.00</ele>
   <time>2014-04-06T16:31:18Z</time>
  </trkpt>
  <trkpt lat="33.986680" lon="-2.870460">
   <ele>1536.00</ele>
   <time>2014-04-06T16:31:22Z</time>
  </trkpt>
  <trkpt lat="33.986692" lon="-2.870784">
   <ele>1535.00</ele>
   <time>2014-04-06T16:31:27Z</time>
  </trkpt>
  <trkpt lat="33.986731" lon="-2.871092">
   <ele>1533.00</ele>
   <time>2014-04-06T16:31:32Z</time>
  </trkpt>
  <trkpt lat="33.986787" lon="-2.871340">
   <ele>1532.00</ele>
   <time>2014-04-06T16:31:36Z</time>
  </trkpt>
  <trkpt lat="33.986830" lon="-2.871584">
   <ele>1532.00</ele>
   <time>2014-04-06T16:31:40Z</time>
  </trkpt>
  <trkpt lat="33.986783" lon="-2.871842">
   <ele>1531.00</ele>
   <time>2014-04-06T16:31:44Z</time>
  </trkpt>
  <trkpt lat="33.986694" lon="-2.872033">
   <ele>1530.00</ele>
   <time>2014-04-06T16:31:47Z</time>
  </trkpt>
  <trkpt lat="33.986519" lon="-2.872391">
   <ele>1529.00</ele>
   <time>2014-04-06T16:31:52Z</time>
  </trkpt>
  <trkpt lat="33.986428" lon="-2.872628">
   <ele>1529.00</ele>
   <time>2014-04-06T16:31:55Z</time>
  </trkpt>
  <trkpt lat="33.986361" lon="-2.872838">
   <ele>1528.00</ele>
   <time>2014-04-06T16:31:58Z</time>
  </trkpt>
  <trkpt lat="33.986327" lon="-2.873055">
   <ele>1528.00</ele>
   <time>2014-04-06T16:32:01Z</time>
  </trkpt>
  <trkpt lat="33.986361" lon="-2.873273">
   <ele>1527.00</ele>
   <time>2014-04-06T16:32:04Z</time>
  </trkpt>
  <trkpt lat="33.986446" lon="-2.873476">
   <ele>1526.00</ele>
   <time>2014-04-06T16:32:07Z</time>
  </trkpt>
  <trkpt lat="33.986570" lon="-2.873721">
   <ele>1525.00</ele>
   <time>2014-04-06T16:32:11Z</time>
  </trkpt>
  <trkpt lat="33.986702" lon="-2.873920">
   <ele>1524.00</ele>
   <time>2014-04-06T16:32:15Z</time>
  </trkpt>
  <trkpt lat="33.986809" lon="-2.874136">
   <ele>1523.00</ele>
   <time>2014-04-06T16:32:19Z</time>
  </trkpt>
  <trkpt lat="33.986835" lon="-2.874406">
   <ele>1523.00</ele>
   <time>2014-04-06T16:32:23Z</time>
  </trkpt>
  <trkpt lat="33.986733" lon="-2.874657">
   <ele>1523.00</ele>
   <time>2014-04-06T16:32:27Z</time>
  </trkpt>
  <trkpt lat="33.986585" lon="-2.874885">
   <ele>1523.00</ele>
   <time>2014-04-06T16:32:31Z</time>
  </trkpt>
  <trkpt lat="33.986417" lon="-2.875076">
   <ele>1523.00</ele>
   <time>2014-04-06T16:32:35Z</time>
  </trkpt>
  <trkpt lat="33.986269" lon="-2.875212">
   <ele>1523.00</ele>
   <time>2014-04-06T16:32:38Z</time>
  </trkpt>
  <trkpt lat="33.986108" lon="-2.875320">
   <ele>1524.00</ele>
   <time>2014-04-06T16:32:41Z</time>
  </trkpt>
  <trkpt lat="33.985899" lon="-2.875420">
   <ele>1525.00</ele>
   <time>2014-04-06T16:32:45Z</time>
  </trkpt>
  <trkpt lat="33.985735" lon="-2.875607">
   <ele>1526.00</ele>
   <time>2014-04-06T16:32:49Z</time>
  </trkpt>
  <trkpt lat="33.985569" lon="-2.875757">
   <ele>1527.00</ele>
   <time>2014-04-06T16:32:53Z</time>
  </trkpt>
  <trkpt lat="33.985412" lon="-2.875922">
   <ele>1528.00</ele>
   <time>2014-04-06T16:32:57Z</time>
  </trkpt>
  <trkpt lat="33.985297" lon="-2.876162">
   <ele>1529.00</ele>
   <time>2014-04-06T16:33:01Z</time>
  </trkpt>
  <trkpt lat="33.985250" lon="-2.876443">
   <ele>1530.00</ele>
   <time>2014-04-06T16:33:05Z</time>
  </trkpt>
  <trkpt lat="33.985179" lon="-2.876709">
   <ele>1531.00</ele>
   <time>2014-04-06T16:33:09Z</time>
  </trkpt>
  <trkpt lat="33.985043" lon="-2.876910">
   <ele>1532.00</ele>
   <time>2014-04-06T16:33:13Z</time>
  </trkpt>
  <trkpt lat="33.984917" lon="-2.877116">
   <ele>1533.00</ele>
   <time>2014-04-06T16:33:17Z</time>
  </trkpt>
  <trkpt lat="33.984902" lon="-2.877350">
   <ele>1534.00</ele>
   <time>2014-04-06T16:33:21Z</time>
  </trkpt>
  <trkpt lat="33.984981" lon="-2.877576">
   <ele>1536.00</ele>
   <time>2014-04-06T16:33:27Z</time>
  </trkpt>
  <trkpt lat="33.984931" lon="-2.877782">
   <ele>1537.00</ele>
   <time>2014-04-06T16:33:31Z</time>
  </trkpt>
  <trkpt lat="33.984843" lon="-2.877990">
   <ele>1537.00</ele>
   <time>2014-04-06T16:33:35Z</time>
  </trkpt>
  <trkpt lat="33.984872" lon="-2.878222">
   <ele>1537.00</ele>
   <time>2014-04-06T16:33:39Z</time>
  </trkpt>
  <trkpt lat="33.985017" lon="-2.878439">
   <ele>1537.00</ele>
   <time>2014-04-06T16:33:43Z</time>
  </trkpt>
  <trkpt lat="33.985134" lon="-2.878684">
   <ele>1537.00</ele>
   <time>2014-04-06T16:33:47Z</time>
  </trkpt>
  <trkpt lat="33.985197" lon="-2.878895">
   <ele>1537.00</ele>
   <time>2014-04-06T16:33:50Z</time>
  </trkpt>
  <trkpt lat="33.985246" lon="-2.879124">
   <ele>1538.00</ele>
   <time>2014-04-06T16:33:53Z</time>
  </trkpt>
  <trkpt lat="33.985262" lon="-2.879339">
   <ele>1538.00</ele>
   <time>2014-04-06T16:33:56Z</time>
  </trkpt>
  <trkpt lat="33.985229" lon="-2.879628">
   <ele>1539.00</ele>
   <time>2014-04-06T16:34:00Z</time>
  </trkpt>
  <trkpt lat="33.985227" lon="-2.879852">
   <ele>1539.00</ele>
   <time>2014-04-06T16:34:03Z</time>
  </trkpt>
  <trkpt lat="33.985179" lon="-2.880071">
   <ele>1540.00</ele>
   <time>2014-04-06T16:34:06Z</time>
  </trkpt>
  <trkpt lat="33.985071" lon="-2.880293">
   <ele>1540.00</ele>
   <time>2014-04-06T16:34:10Z</time>
  </trkpt>
  <trkpt lat="33.984872" lon="-2.880220">
   <ele>1540.00</ele>
   <time>2014-04-06T16:34:14Z</time>
  </trkpt>
  <trkpt lat="33.984708" lon="-2.880053">
   <ele>1540.00</ele>
   <time>2014-04-06T16:34:18Z</time>
  </trkpt>
  <trkpt lat="33.984510" lon="-2.880025">
   <ele>1540.00</ele>
   <time>2014-04-06T16:34:22Z</time>
  </trkpt>
  <trkpt lat="33.984311" lon="-2.880035">
   <ele>1541.00</ele>
   <time>2014-04-06T16:34:26Z</time>
  </trkpt>
  <trkpt lat="33.984085" lon="-2.879999">
   <ele>1543.00</ele>
   <time>2014-04-06T16:34:31Z</time>
  </trkpt>
  <trkpt lat="33.983885" lon="-2.880053">
   <ele>1544.00</ele>
   <time>2014-04-06T16:34:35Z</time>
  </trkpt>
  <trkpt lat="33.983704" lon="-2.880161">
   <ele>1544.00</ele>
   <time>2014-04-06T16:34:39Z</time>
  </trkpt>
  <trkpt lat="33.983553" lon="-2.880315">
   <ele>1545.00</ele>
   <time>2014-04-06T16:34:43Z</time>
  </trkpt>
  <trkpt lat="33.983465" lon="-2.880539">
   <ele>1546.00</ele>
   <time>2014-04-06T16:34:47Z</time>
  </trkpt>
  <trkpt lat="33.983435" lon="-2.880789">
   <ele>1546.00</ele>
   <time>2014-04-06T16:34:51Z</time>
  </trkpt>
  <trkpt lat="33.983352" lon="-2.881008">
   <ele>1547.00</ele>
   <time>2014-04-06T16:34:55Z</time>
  </trkpt>
  <trkpt lat="33.983201" lon="-2.881183">
   <ele>1548.00</ele>
   <time>2014-04-06T16:34:59Z</time>
  </trkpt>
  <trkpt lat="33.983046" lon="-2.881349">
   <ele>1548.00</ele>
   <time>2014-04-06T16:35:03Z</time>
  </trkpt>
  <trkpt lat="33.982866" lon="-2.881541">
   <ele>1547.00</ele>
   <time>2014-04-06T16:35:08Z</time>
  </trkpt>
  <trkpt lat="33.982700" lon="-2.881716">
   <ele>1546.00</ele>
   <time>2014-04-06T16:35:13Z</time>
  </trkpt>
  <trkpt lat="33.982555" lon="-2.881879">
   <ele>1546.00</ele>
   <time>2014-04-06T16:35:18Z</time>
  </trkpt>
  <trkpt lat="33.982442" lon="-2.882089">
   <ele>1545.00</ele>
   <time>2014-04-06T16:35:23Z</time>
  </trkpt>
  <trkpt lat="33.982363" lon="-2.882311">
   <ele>1545.00</ele>
   <time>2014-04-06T16:35:28Z</time>
  </trkpt>
  <trkpt lat="33.982258" lon="-2.882535">
   <ele>1544.00</ele>
   <time>2014-04-06T16:35:33Z</time>
  </trkpt>
  <trkpt lat="33.982159" lon="-2.882744">
   <ele>1543.00</ele>
   <time>2014-04-06T16:35:38Z</time>
  </trkpt>
  <trkpt lat="33.982101" lon="-2.883009">
   <ele>1542.00</ele>
   <time>2014-04-06T16:35:43Z</time>
  </trkpt>
  <trkpt lat="33.982041" lon="-2.883360">
   <ele>1540.00</ele>
   <time>2014-04-06T16:35:49Z</time>
  </trkpt>
  <trkpt lat="33.982021" lon="-2.883590">
   <ele>1539.00</ele>
   <time>2014-04-06T16:35:53Z</time>
  </trkpt>
  <trkpt lat="33.981993" lon="-2.883821">
   <ele>1538.00</ele>
   <time>2014-04-06T16:35:57Z</time>
  </trkpt>
  <trkpt lat="33.981886" lon="-2.884009">
   <ele>1537.00</ele>
   <time>2014-04-06T16:36:01Z</time>
  </trkpt>
  <trkpt lat="33.981702" lon="-2.884133">
   <ele>1536.00</ele>
   <time>2014-04-06T16:36:05Z</time>
  </trkpt>
  <trkpt lat="33.981532" lon="-2.884276">
   <ele>1535.00</ele>
   <time>2014-04-06T16:36:09Z</time>
  </trkpt>
  <trkpt lat="33.981458" lon="-2.884515">
   <ele>1534.00</ele>
   <time>2014-04-06T16:36:13Z</time>
  </trkpt>
  <trkpt lat="33.981476" lon="-2.884764">
   <ele>1533.00</ele>
   <time>2014-04-06T16:36:17Z</time>
  </trkpt>
  <trkpt lat="33.981581" lon="-2.884962">
   <ele>1532.00</ele>
   <time>2014-04-06T16:36:21Z</time>
  </trkpt>
  <trkpt lat="33.981727" lon="-2.885111">
   <ele>1531.00</ele>
   <time>2014-04-06T16:36:25Z</time>
  </trkpt>
  <trkpt lat="33.981885" lon="-2.885255">
   <ele>1530.00</ele>
   <time>2014-04-06T16:36:29Z</time>
  </trkpt>
  <trkpt lat="33.982057" lon="-2.885395">
   <ele>1529.00</ele>
   <time>2014-04-06T16:36:33Z</time>
  </trkpt>
  <trkpt lat="33.982225" lon="-2.885527">
   <ele>1528.00</ele>
   <time>2014-04-06T16:36:37Z</time>
  </trkpt>
  <trkpt lat="33.982404" lon="-2.885650">
   <ele>1527.00</ele>
   <time>2014-04-06T16:36:41Z</time>
  </trkpt>
  <trkpt lat="33.982575" lon="-2.885782">
   <ele>1526.00</ele>
   <time>2014-04-06T16:36:45Z</time>
  </trkpt>
  <trkpt lat="33.982715" lon="-2.885964">
   <ele>1526.00</ele>
   <time>2014-04-06T16:36:49Z</time>
  </trkpt>
  <trkpt lat="33.982782" lon="-2.886166">
   <ele>1526.00</ele>
   <time>2014-04-06T16:36:53Z</time>
  </trkpt>
  <trkpt lat="33.982684" lon="-2.886395">
   <ele>1526.00</ele>
   <time>2014-04-06T16:36:58Z</time>
  </trkpt>
  <trkpt lat="33.982636" lon="-2.886613">
   <ele>1527.00</ele>
   <time>2014-04-06T16:37:02Z</time>
  </trkpt>
  <trkpt lat="33.982624" lon="-2.886868">
   <ele>1527.00</ele>
   <time>2014-04-06T16:37:06Z</time>
  </trkpt>
  <trkpt lat="33.982561" lon="-2.887126">
   <ele>1528.00</ele>
   <time>2014-04-06T16:37:10Z</time>
  </trkpt>
  <trkpt lat="33.982539" lon="-2.887387">
   <ele>1529.00</ele>
   <time>2014-04-06T16:37:14Z</time>
  </trkpt>
  <trkpt lat="33.982620" lon="-2.887625">
   <ele>1530.00</ele>
   <time>2014-04-06T16:37:18Z</time>
  </trkpt>
  <trkpt lat="33.982699" lon="-2.887853">
   <ele>1531.00</ele>
   <time>2014-04-06T16:37:22Z</time>
  </trkpt>
  <trkpt lat="33.982805" lon="-2.888060">
   <ele>1532.00</ele>
   <time>2014-04-06T16:37:26Z</time>
  </trkpt>
  <trkpt lat="33.982935" lon="-2.888236">
   <ele>1533.00</ele>
   <time>2014-04-06T16:37:30Z</time>
  </trkpt>
  <trkpt lat="33.983017" lon="-2.888518">
   <ele>1534.00</ele>
   <time>2014-04-06T16:37:35Z</time>
  </trkpt>
  <trkpt lat="33.983100" lon="-2.888747">
   <ele>1535.00</ele>
   <time>2014-04-06T16:37:39Z</time>
  </trkpt>
  <trkpt lat="33.983057" lon="-2.888963">
   <ele>1535.00</ele>
   <time>2014-04-06T16:37:43Z</time>
  </trkpt>
  <trkpt lat="33.982895" lon="-2.889082">
   <ele>1536.00</ele>
   <time>2014-04-06T16:37:47Z</time>
  </trkpt>
  <trkpt lat="33.982781" lon="-2.889291">
   <ele>1537.00</ele>
   <time>2014-04-06T16:37:52Z</time>
  </trkpt>
  <trkpt lat="33.982796" lon="-2.889520">
   <ele>1538.00</ele>
   <time>2014-04-06T16:37:56Z</time>
  </trkpt>
  <trkpt lat="33.982853" lon="-2.889759">
   <ele>1539.00</ele>
   <time>2014-04-06T16:38:00Z</time>
  </trkpt>
  <trkpt lat="33.982903" lon="-2.890002">
   <ele>1540.00</ele>
   <time>2014-04-06T16:38:04Z</time>
  </trkpt>
  <trkpt lat="33.982883" lon="-2.890262">
   <ele>1541.00</ele>
   <time>2014-04-06T16:38:08Z</time>
  </trkpt>
  <trkpt lat="33.982860" lon="-2.890502">
   <ele>1543.00</ele>
   <time>2014-04-06T16:38:12Z</time>
  </trkpt>
  <trkpt lat="33.982861" lon="-2.890854">
   <ele>1545.00</ele>
   <time>2014-04-06T16:38:18Z</time>
  </trkpt>
  <trkpt lat="33.982793" lon="-2.891093">
   <ele>1548.00</ele>
   <time>2014-04-06T16:38:23Z</time>
  </trkpt>
  <trkpt lat="33.982739" lon="-2.891311">
   <ele>1549.00</ele>
   <time>2014-04-06T16:38:27Z</time>
  </trkpt>
  <trkpt lat="33.982720" lon="-2.891574">
   <ele>1551.00</ele>
   <time>2014-04-06T16:38:32Z</time>
  </trkpt>
  <trkpt lat="33.982728" lon="-2.891636">
   <ele>1552.00</ele>
   <time>2014-04-06T16:38:42Z</time>
  </trkpt>
  <trkpt lat="33.982744" lon="-2.891851">
   <ele>1553.00</ele>
   <time>2014-04-06T16:38:53Z</time>
  </trkpt>
  <trkpt lat="33.982705" lon="-2.892064">
   <ele>1554.00</ele>
   <time>2014-04-06T16:38:57Z</time>
  </trkpt>
  <trkpt lat="33.982641" lon="-2.892460">
   <ele>1556.00</ele>
   <time>2014-04-06T16:39:04Z</time>
  </trkpt>
  <trkpt lat="33.982644" lon="-2.892705">
   <ele>1557.00</ele>
   <time>2014-04-06T16:39:08Z</time>
  </trkpt>
  <trkpt lat="33.982659" lon="-2.892956">
   <ele>1558.00</ele>
   <time>2014-04-06T16:39:12Z</time>
  </trkpt>
  <trkpt lat="33.982651" lon="-2.893471">
   <ele>1559.00</ele>
   <time>2014-04-06T16:39:21Z</time>
  </trkpt>
  <trkpt lat="33.982730" lon="-2.893660">
   <ele>1560.00</ele>
   <time>2014-04-06T16:39:25Z</time>
  </trkpt>
  <trkpt lat="33.982873" lon="-2.893844">
   <ele>1561.00</ele>
   <time>2014-04-06T16:39:30Z</time>
  </trkpt>
  <trkpt lat="33.982874" lon="-2.893854">
   <ele>1562.00</ele>
   <time>2014-04-06T16:39:46Z</time>
  </trkpt>
  <trkpt lat="33.982884" lon="-2.893845">
   <ele>1559.00</ele>
   <time>2014-04-06T16:40:01Z</time>
  </trkpt>
  <trkpt lat="33.982881" lon="-2.893846">
   <ele>1558.00</ele>
   <time>2014-04-06T16:40:16Z</time>
  </trkpt>
  <trkpt lat="33.982843" lon="-2.893951">
   <ele>1559.00</ele>
   <time>2014-04-06T16:40:32Z</time>
  </trkpt>
  <trkpt lat="33.982733" lon="-2.894150">
   <ele>1561.00</ele>
   <time>2014-04-06T16:40:38Z</time>
  </trkpt>
  <trkpt lat="33.982574" lon="-2.894328">
   <ele>1563.00</ele>
   <time>2014-04-06T16:40:43Z</time>
  </trkpt>
  <trkpt lat="33.982365" lon="-2.894311">
   <ele>1564.00</ele>
   <time>2014-04-06T16:40:47Z</time>
  </trkpt>
  <trkpt lat="33.982199" lon="-2.894201">
   <ele>1565.00</ele>
   <time>2014-04-06T16:40:51Z</time>
  </trkpt>
  <trkpt lat="33.982069" lon="-2.894040">
   <ele>1569.00</ele>
   <time>2014-04-06T16:40:55Z</time>
  </trkpt>
  <trkpt lat="33.981901" lon="-2.893926">
   <ele>1572.00</ele>
   <time>2014-04-06T16:40:59Z</time>
  </trkpt>
  <trkpt lat="33.981686" lon="-2.893939">
   <ele>1573.00</ele>
   <time>2014-04-06T16:41:03Z</time>
  </trkpt>
  <trkpt lat="33.981489" lon="-2.893979">
   <ele>1574.00</ele>
   <time>2014-04-06T16:41:07Z</time>
  </trkpt>
  <trkpt lat="33.981317" lon="-2.894084">
   <ele>1574.00</ele>
   <time>2014-04-06T16:41:11Z</time>
  </trkpt>
  <trkpt lat="33.981170" lon="-2.894279">
   <ele>1573.00</ele>
   <time>2014-04-06T16:41:16Z</time>
  </trkpt>
  <trkpt lat="33.981037" lon="-2.894446">
   <ele>1573.00</ele>
   <time>2014-04-06T16:41:20Z</time>
  </trkpt>
  <trkpt lat="33.980838" lon="-2.894560">
   <ele>1574.00</ele>
   <time>2014-04-06T16:41:25Z</time>
  </trkpt>
  <trkpt lat="33.980654" lon="-2.894669">
   <ele>1575.00</ele>
   <time>2014-04-06T16:41:30Z</time>
  </trkpt>
  <trkpt lat="33.980542" lon="-2.894892">
   <ele>1576.00</ele>
   <time>2014-04-06T16:41:35Z</time>
  </trkpt>
  <trkpt lat="33.980560" lon="-2.895163">
   <ele>1577.00</ele>
   <time>2014-04-06T16:41:39Z</time>
  </trkpt>
  <trkpt lat="33.980657" lon="-2.895377">
   <ele>1578.00</ele>
   <time>2014-04-06T16:41:42Z</time>
  </trkpt>
  <trkpt lat="33.980797" lon="-2.895549">
   <ele>1578.00</ele>
   <time>2014-04-06T16:41:45Z</time>
  </trkpt>
  <trkpt lat="33.980980" lon="-2.895775">
   <ele>1579.00</ele>
   <time>2014-04-06T16:41:49Z</time>
  </trkpt>
  <trkpt lat="33.981242" lon="-2.896056">
   <ele>1580.00</ele>
   <time>2014-04-06T16:41:55Z</time>
  </trkpt>
  <trkpt lat="33.981421" lon="-2.896184">
   <ele>1580.00</ele>
   <time>2014-04-06T16:41:59Z</time>
  </trkpt>
  <trkpt lat="33.981663" lon="-2.896361">
   <ele>1580.00</ele>
   <time>2014-04-06T16:42:05Z</time>
  </trkpt>
  <trkpt lat="33.981838" lon="-2.896503">
   <ele>1580.00</ele>
   <time>2014-04-06T16:42:09Z</time>
  </trkpt>
  <trkpt lat="33.982045" lon="-2.896544">
   <ele>1581.00</ele>
   <time>2014-04-06T16:42:13Z</time>
  </trkpt>
  <trkpt lat="33.982235" lon="-2.896642">
   <ele>1581.00</ele>
   <time>2014-04-06T16:42:17Z</time>
  </trkpt>
  <trkpt lat="33.982427" lon="-2.896777">
   <ele>1582.00</ele>
   <time>2014-04-06T16:42:21Z</time>
  </trkpt>
  <trkpt lat="33.982576" lon="-2.896975">
   <ele>1583.00</ele>
   <time>2014-04-06T16:42:25Z</time>
  </trkpt>
  <trkpt lat="33.982773" lon="-2.897091">
   <ele>1584.00</ele>
   <time>2014-04-06T16:42:29Z</time>
  </trkpt>
  <trkpt lat="33.983057" lon="-2.897118">
   <ele>1585.00</ele>
   <time>2014-04-06T16:42:34Z</time>
  </trkpt>
  <trkpt lat="33.983249" lon="-2.897200">
   <ele>1586.00</ele>
   <time>2014-04-06T16:42:38Z</time>
  </trkpt>
  <trkpt lat="33.983417" lon="-2.897286">
   <ele>1588.00</ele>
   <time>2014-04-06T16:42:42Z</time>
  </trkpt>
  <trkpt lat="33.983406" lon="-2.897282">
   <ele>1591.00</ele>
   <time>2014-04-06T16:42:58Z</time>
  </trkpt>
  <trkpt lat="33.983230" lon="-2.897200">
   <ele>1590.00</ele>
   <time>2014-04-06T16:43:10Z</time>
  </trkpt>
  <trkpt lat="33.983058" lon="-2.897110">
   <ele>1588.00</ele>
   <time>2014-04-06T16:43:22Z</time>
  </trkpt>
  <trkpt lat="33.983165" lon="-2.897023">
   <ele>1588.00</ele>
   <time>2014-04-06T16:43:35Z</time>
  </trkpt>
  <trkpt lat="33.983228" lon="-2.896875">
   <ele>1589.00</ele>
   <time>2014-04-06T16:43:50Z</time>
  </trkpt>
  <trkpt lat="33.983130" lon="-2.896809">
   <ele>1591.00</ele>
   <time>2014-04-06T16:44:05Z</time>
  </trkpt>
  <trkpt lat="33.983122" lon="-2.896802">
   <ele>1593.00</ele>
   <time>2014-04-06T16:44:18Z</time>
  </trkpt>
 </trkseg>
 <trkseg>
  <trkpt lat="33.983195" lon="-2.897215">
   <ele>1590.00</ele>
   <time>2014-04-06T18:41:27Z</time>
  </trkpt>
  <trkpt lat="33.983390" lon="-2.897303">
   <ele>1590.00</ele>
   <time>2014-04-06T18:41:34Z</time>
  </trkpt>
  <trkpt lat="33.983587" lon="-2.897284">
   <ele>1590.00</ele>
   <time>2014-04-06T18:41:40Z</time>
  </trkpt>
  <trkpt lat="33.983741" lon="-2.897408">
   <ele>1591.00</ele>
   <time>2014-04-06T18:41:46Z</time>
  </trkpt>
  <trkpt lat="33.983858" lon="-2.897493">
   <ele>1591.00</ele>
   <time>2014-04-06T18:42:02Z</time>
  </trkpt>
  <trkpt lat="33.983986" lon="-2.897632">
   <ele>1591.00</ele>
   <time>2014-04-06T18:42:10Z</time>
  </trkpt>
  <trkpt lat="33.984055" lon="-2.897844">
   <ele>1591.00</ele>
   <time>2014-04-06T18:42:15Z</time>
  </trkpt>
  <trkpt lat="33.984130" lon="-2.898060">
   <ele>1592.00</ele>
   <time>2014-04-06T18:42:20Z</time>
  </trkpt>
  <trkpt lat="33.984169" lon="-2.898311">
   <ele>1594.00</ele>
   <time>2014-04-06T18:42:25Z</time>
  </trkpt>
  <trkpt lat="33.984300" lon="-2.898464">
   <ele>1594.00</ele>
   <time>2014-04-06T18:42:30Z</time>
  </trkpt>
  <trkpt lat="33.984365" lon="-2.898701">
   <ele>1594.00</ele>
   <time>2014-04-06T18:42:35Z</time>
  </trkpt>
  <trkpt lat="33.984327" lon="-2.898977">
   <ele>1595.00</ele>
   <time>2014-04-06T18:42:39Z</time>
  </trkpt>
  <trkpt lat="33.984264" lon="-2.899192">
   <ele>1595.00</ele>
   <time>2014-04-06T18:42:42Z</time>
  </trkpt>
  <trkpt lat="33.984160" lon="-2.899441">
   <ele>1597.00</ele>
   <time>2014-04-06T18:42:46Z</time>
  </trkpt>
  <trkpt lat="33.984043" lon="-2.899638">
   <ele>1597.00</ele>
   <time>2014-04-06T18:42:50Z</time>
  </trkpt>
  <trkpt lat="33.983942" lon="-2.899832">
   <ele>1597.00</ele>
   <time>2014-04-06T18:42:54Z</time>
  </trkpt>
  <trkpt lat="33.983801" lon="-2.900037">
   <ele>1597.00</ele>
   <time>2014-04-06T18:42:58Z</time>
  </trkpt>
  <trkpt lat="33.983631" lon="-2.900316">
   <ele>1596.00</ele>
   <time>2014-04-06T18:43:03Z</time>
  </trkpt>
  <trkpt lat="33.983538" lon="-2.900553">
   <ele>1596.00</ele>
   <time>2014-04-06T18:43:07Z</time>
  </trkpt>
  <trkpt lat="33.983493" lon="-2.900798">
   <ele>1596.00</ele>
   <time>2014-04-06T18:43:11Z</time>
  </trkpt>
  <trkpt lat="33.983476" lon="-2.901050">
   <ele>1596.00</ele>
   <time>2014-04-06T18:43:15Z</time>
  </trkpt>
  <trkpt lat="33.983475" lon="-2.901316">
   <ele>1595.00</ele>
   <time>2014-04-06T18:43:19Z</time>
  </trkpt>
  <trkpt lat="33.983473" lon="-2.901575">
   <ele>1594.00</ele>
   <time>2014-04-06T18:43:23Z</time>
  </trkpt>
  <trkpt lat="33.983545" lon="-2.901823">
   <ele>1592.00</ele>
   <time>2014-04-06T18:43:27Z</time>
  </trkpt>
  <trkpt lat="33.983615" lon="-2.902154">
   <ele>1591.00</ele>
   <time>2014-04-06T18:43:32Z</time>
  </trkpt>
  <trkpt lat="33.983675" lon="-2.902429">
   <ele>1590.00</ele>
   <time>2014-04-06T18:43:36Z</time>
  </trkpt>
  <trkpt lat="33.983734" lon="-2.902848">
   <ele>1588.00</ele>
   <time>2014-04-06T18:43:42Z</time>
  </trkpt>
  <trkpt lat="33.983815" lon="-2.903110">
   <ele>1588.00</ele>
   <time>2014-04-06T18:43:46Z</time>
  </trkpt>
  <trkpt lat="33.983906" lon="-2.903361">
   <ele>1587.00</ele>
   <time>2014-04-06T18:43:50Z</time>
  </trkpt>
  <trkpt lat="33.984017" lon="-2.903589">
   <ele>1586.00</ele>
   <time>2014-04-06T18:43:54Z</time>
  </trkpt>
  <trkpt lat="33.984030" lon="-2.903863">
   <ele>1585.00</ele>
   <time>2014-04-06T18:43:58Z</time>
  </trkpt>
  <trkpt lat="33.984031" lon="-2.904091">
   <ele>1585.00</ele>
   <time>2014-04-06T18:44:01Z</time>
  </trkpt>
  <trkpt lat="33.984081" lon="-2.904311">
   <ele>1585.00</ele>
   <time>2014-04-06T18:44:04Z</time>
  </trkpt>
  <trkpt lat="33.984129" lon="-2.904557">
   <ele>1585.00</ele>
   <time>2014-04-06T18:44:08Z</time>
  </trkpt>
  <trkpt lat="33.984065" lon="-2.904802">
   <ele>1586.00</ele>
   <time>2014-04-06T18:44:12Z</time>
  </trkpt>
  <trkpt lat="33.983905" lon="-2.904982">
   <ele>1587.00</ele>
   <time>2014-04-06T18:44:16Z</time>
  </trkpt>
  <trkpt lat="33.983734" lon="-2.905065">
   <ele>1587.00</ele>
   <time>2014-04-06T18:44:19Z</time>
  </trkpt>
  <trkpt lat="33.983546" lon="-2.905129">
   <ele>1586.00</ele>
   <time>2014-04-06T18:44:22Z</time>
  </trkpt>
  <trkpt lat="33.983284" lon="-2.905205">
   <ele>1587.00</ele>
   <time>2014-04-06T18:44:26Z</time>
  </trkpt>
  <trkpt lat="33.983093" lon="-2.905200">
   <ele>1587.00</ele>
   <time>2014-04-06T18:44:29Z</time>
  </trkpt>
  <trkpt lat="33.982850" lon="-2.905180">
   <ele>1588.00</ele>
   <time>2014-04-06T18:44:33Z</time>
  </trkpt>
  <trkpt lat="33.982622" lon="-2.905139">
   <ele>1588.00</ele>
   <time>2014-04-06T18:44:37Z</time>
  </trkpt>
  <trkpt lat="33.982320" lon="-2.905051">
   <ele>1588.00</ele>
   <time>2014-04-06T18:44:43Z</time>
  </trkpt>
  <trkpt lat="33.982122" lon="-2.905030">
   <ele>1588.00</ele>
   <time>2014-04-06T18:44:47Z</time>
  </trkpt>
  <trkpt lat="33.981769" lon="-2.905018">
   <ele>1589.00</ele>
   <time>2014-04-06T18:44:54Z</time>
  </trkpt>
  <trkpt lat="33.981476" lon="-2.905034">
   <ele>1589.00</ele>
   <time>2014-04-06T18:44:59Z</time>
  </trkpt>
  <trkpt lat="33.981240" lon="-2.905063">
   <ele>1589.00</ele>
   <time>2014-04-06T18:45:03Z</time>
  </trkpt>
  <trkpt lat="33.981000" lon="-2.905103">
   <ele>1588.00</ele>
   <time>2014-04-06T18:45:07Z</time>
  </trkpt>
  <trkpt lat="33.980800" lon="-2.905219">
   <ele>1589.00</ele>
   <time>2014-04-06T18:45:11Z</time>
  </trkpt>
  <trkpt lat="33.980687" lon="-2.905430">
   <ele>1589.00</ele>
   <time>2014-04-06T18:45:15Z</time>
  </trkpt>
  <trkpt lat="33.980601" lon="-2.905634">
   <ele>1590.00</ele>
   <time>2014-04-06T18:45:19Z</time>
  </trkpt>
  <trkpt lat="33.980558" lon="-2.905857">
   <ele>1591.00</ele>
   <time>2014-04-06T18:45:23Z</time>
  </trkpt>
  <trkpt lat="33.980563" lon="-2.906111">
   <ele>1591.00</ele>
   <time>2014-04-06T18:45:28Z</time>
  </trkpt>
  <trkpt lat="33.980602" lon="-2.906353">
   <ele>1592.00</ele>
   <time>2014-04-06T18:45:33Z</time>
  </trkpt>
  <trkpt lat="33.980666" lon="-2.906561">
   <ele>1593.00</ele>
   <time>2014-04-06T18:45:37Z</time>
  </trkpt>
  <trkpt lat="33.980737" lon="-2.906784">
   <ele>1594.00</ele>
   <time>2014-04-06T18:45:41Z</time>
  </trkpt>
  <trkpt lat="33.980857" lon="-2.906986">
   <ele>1594.00</ele>
   <time>2014-04-06T18:45:45Z</time>
  </trkpt>
  <trkpt lat="33.981005" lon="-2.907194">
   <ele>1593.00</ele>
   <time>2014-04-06T18:45:49Z</time>
  </trkpt>
  <trkpt lat="33.981136" lon="-2.907417">
   <ele>1593.00</ele>
   <time>2014-04-06T18:45:53Z</time>
  </trkpt>
  <trkpt lat="33.981268" lon="-2.907630">
   <ele>1594.00</ele>
   <time>2014-04-06T18:45:57Z</time>
  </trkpt>
  <trkpt lat="33.981444" lon="-2.907817">
   <ele>1594.00</ele>
   <time>2014-04-06T18:46:01Z</time>
  </trkpt>
  <trkpt lat="33.981600" lon="-2.907944">
   <ele>1594.00</ele>
   <time>2014-04-06T18:46:04Z</time>
  </trkpt>
  <trkpt lat="33.981773" lon="-2.908072">
   <ele>1594.00</ele>
   <time>2014-04-06T18:46:07Z</time>
  </trkpt>
  <trkpt lat="33.981929" lon="-2.908212">
   <ele>1594.00</ele>
   <time>2014-04-06T18:46:10Z</time>
  </trkpt>
  <trkpt lat="33.982074" lon="-2.908356">
   <ele>1595.00</ele>
   <time>2014-04-06T18:46:13Z</time>
  </trkpt>
  <trkpt lat="33.982220" lon="-2.908516">
   <ele>1595.00</ele>
   <time>2014-04-06T18:46:16Z</time>
  </trkpt>
  <trkpt lat="33.982519" lon="-2.908841">
   <ele>1596.00</ele>
   <time>2014-04-06T18:46:22Z</time>
  </trkpt>
  <trkpt lat="33.982659" lon="-2.909010">
   <ele>1596.00</ele>
   <time>2014-04-06T18:46:25Z</time>
  </trkpt>
  <trkpt lat="33.982891" lon="-2.909327">
   <ele>1596.00</ele>
   <time>2014-04-06T18:46:30Z</time>
  </trkpt>
  <trkpt lat="33.983074" lon="-2.909584">
   <ele>1596.00</ele>
   <time>2014-04-06T18:46:34Z</time>
  </trkpt>
  <trkpt lat="33.983204" lon="-2.909785">
   <ele>1596.00</ele>
   <time>2014-04-06T18:46:37Z</time>
  </trkpt>
  <trkpt lat="33.983284" lon="-2.909984">
   <ele>1596.00</ele>
   <time>2014-04-06T18:46:40Z</time>
  </trkpt>
  <trkpt lat="33.983386" lon="-2.910242">
   <ele>1598.00</ele>
   <time>2014-04-06T18:46:44Z</time>
  </trkpt>
  <trkpt lat="33.983509" lon="-2.910471">
   <ele>1599.00</ele>
   <time>2014-04-06T18:46:48Z</time>
  </trkpt>
  <trkpt lat="33.983633" lon="-2.910666">
   <ele>1600.00</ele>
   <time>2014-04-06T18:46:52Z</time>
  </trkpt>
  <trkpt lat="33.983786" lon="-2.910833">
   <ele>1602.00</ele>
   <time>2014-04-06T18:46:56Z</time>
  </trkpt>
  <trkpt lat="33.984137" lon="-2.911214">
   <ele>1605.00</ele>
   <time>2014-04-06T18:47:04Z</time>
  </trkpt>
  <trkpt lat="33.984288" lon="-2.911374">
   <ele>1606.00</ele>
   <time>2014-04-06T18:47:07Z</time>
  </trkpt>
  <trkpt lat="33.984437" lon="-2.911539">
   <ele>1607.00</ele>
   <time>2014-04-06T18:47:10Z</time>
  </trkpt>
  <trkpt lat="33.984629" lon="-2.911786">
   <ele>1607.00</ele>
   <time>2014-04-06T18:47:14Z</time>
  </trkpt>
  <trkpt lat="33.984876" lon="-2.912038">
   <ele>1608.00</ele>
   <time>2014-04-06T18:47:19Z</time>
  </trkpt>
  <trkpt lat="33.985040" lon="-2.912192">
   <ele>1609.00</ele>
   <time>2014-04-06T18:47:23Z</time>
  </trkpt>
  <trkpt lat="33.985216" lon="-2.912406">
   <ele>1609.00</ele>
   <time>2014-04-06T18:47:28Z</time>
  </trkpt>
  <trkpt lat="33.985317" lon="-2.912620">
   <ele>1609.00</ele>
   <time>2014-04-06T18:47:32Z</time>
  </trkpt>
  <trkpt lat="33.985371" lon="-2.912867">
   <ele>1610.00</ele>
   <time>2014-04-06T18:47:36Z</time>
  </trkpt>
  <trkpt lat="33.985372" lon="-2.913141">
   <ele>1611.00</ele>
   <time>2014-04-06T18:47:40Z</time>
  </trkpt>
  <trkpt lat="33.985356" lon="-2.913415">
   <ele>1611.00</ele>
   <time>2014-04-06T18:47:44Z</time>
  </trkpt>
  <trkpt lat="33.985337" lon="-2.913698">
   <ele>1612.00</ele>
   <time>2014-04-06T18:47:48Z</time>
  </trkpt>
  <trkpt lat="33.985333" lon="-2.913957">
   <ele>1613.00</ele>
   <time>2014-04-06T18:47:52Z</time>
  </trkpt>
  <trkpt lat="33.985302" lon="-2.914236">
   <ele>1614.00</ele>
   <time>2014-04-06T18:47:56Z</time>
  </trkpt>
  <trkpt lat="33.985257" lon="-2.914587">
   <ele>1615.00</ele>
   <time>2014-04-06T18:48:01Z</time>
  </trkpt>
  <trkpt lat="33.985259" lon="-2.914804">
   <ele>1615.00</ele>
   <time>2014-04-06T18:48:04Z</time>
  </trkpt>
  <trkpt lat="33.985287" lon="-2.915034">
   <ele>1616.00</ele>
   <time>2014-04-06T18:48:07Z</time>
  </trkpt>
  <trkpt lat="33.985342" lon="-2.915422">
   <ele>1617.00</ele>
   <time>2014-04-06T18:48:12Z</time>
  </trkpt>
  <trkpt lat="33.985376" lon="-2.915778">
   <ele>1617.00</ele>
   <time>2014-04-06T18:48:17Z</time>
  </trkpt>
  <trkpt lat="33.985456" lon="-2.916048">
   <ele>1618.00</ele>
   <time>2014-04-06T18:48:21Z</time>
  </trkpt>
  <trkpt lat="33.985540" lon="-2.916314">
   <ele>1619.00</ele>
   <time>2014-04-06T18:48:25Z</time>
  </trkpt>
  <trkpt lat="33.985575" lon="-2.916595">
   <ele>1620.00</ele>
   <time>2014-04-06T18:48:29Z</time>
  </trkpt>
  <trkpt lat="33.985629" lon="-2.916812">
   <ele>1621.00</ele>
   <time>2014-04-06T18:48:32Z</time>
  </trkpt>
  <trkpt lat="33.985749" lon="-2.917088">
   <ele>1622.00</ele>
   <time>2014-04-06T18:48:36Z</time>
  </trkpt>
  <trkpt lat="33.985801" lon="-2.917321">
   <ele>1622.00</ele>
   <time>2014-04-06T18:48:39Z</time>
  </trkpt>
  <trkpt lat="33.985831" lon="-2.917560">
   <ele>1623.00</ele>
   <time>2014-04-06T18:48:42Z</time>
  </trkpt>
  <trkpt lat="33.985800" lon="-2.917795">
   <ele>1624.00</ele>
   <time>2014-04-06T18:48:45Z</time>
  </trkpt>
  <trkpt lat="33.985698" lon="-2.918033">
   <ele>1626.00</ele>
   <time>2014-04-06T18:48:48Z</time>
  </trkpt>
  <trkpt lat="33.985543" lon="-2.918333">
   <ele>1627.00</ele>
   <time>2014-04-06T18:48:52Z</time>
  </trkpt>
  <trkpt lat="33.985458" lon="-2.918569">
   <ele>1628.00</ele>
   <time>2014-04-06T18:48:55Z</time>
  </trkpt>
  <trkpt lat="33.985354" lon="-2.918794">
   <ele>1628.00</ele>
   <time>2014-04-06T18:48:58Z</time>
  </trkpt>
  <trkpt lat="33.985218" lon="-2.918995">
   <ele>1627.00</ele>
   <time>2014-04-06T18:49:01Z</time>
  </trkpt>
  <trkpt lat="33.985063" lon="-2.919174">
   <ele>1627.00</ele>
   <time>2014-04-06T18:49:04Z</time>
  </trkpt>
  <trkpt lat="33.984852" lon="-2.919381">
   <ele>1626.00</ele>
   <time>2014-04-06T18:49:08Z</time>
  </trkpt>
  <trkpt lat="33.984703" lon="-2.919554">
   <ele>1625.00</ele>
   <time>2014-04-06T18:49:11Z</time>
  </trkpt>
  <trkpt lat="33.984556" lon="-2.919728">
   <ele>1624.00</ele>
   <time>2014-04-06T18:49:14Z</time>
  </trkpt>
  <trkpt lat="33.984416" lon="-2.919895">
   <ele>1623.00</ele>
   <time>2014-04-06T18:49:17Z</time>
  </trkpt>
  <trkpt lat="33.984286" lon="-2.920086">
   <ele>1622.00</ele>
   <time>2014-04-06T18:49:20Z</time>
  </trkpt>
  <trkpt lat="33.983921" lon="-2.920579">
   <ele>1620.00</ele>
   <time>2014-04-06T18:49:28Z</time>
  </trkpt>
  <trkpt lat="33.983762" lon="-2.920787">
   <ele>1618.00</ele>
   <time>2014-04-06T18:49:32Z</time>
  </trkpt>
  <trkpt lat="33.983636" lon="-2.920962">
   <ele>1619.00</ele>
   <time>2014-04-06T18:49:35Z</time>
  </trkpt>
  <trkpt lat="33.983472" lon="-2.921171">
   <ele>1618.00</ele>
   <time>2014-04-06T18:49:39Z</time>
  </trkpt>
  <trkpt lat="33.983341" lon="-2.921337">
   <ele>1618.00</ele>
   <time>2014-04-06T18:49:43Z</time>
  </trkpt>
  <trkpt lat="33.983230" lon="-2.921512">
   <ele>1617.00</ele>
   <time>2014-04-06T18:49:47Z</time>
  </trkpt>
  <trkpt lat="33.983084" lon="-2.921791">
   <ele>1614.00</ele>
   <time>2014-04-06T18:49:53Z</time>
  </trkpt>
  <trkpt lat="33.982972" lon="-2.922016">
   <ele>1614.00</ele>
   <time>2014-04-06T18:49:58Z</time>
  </trkpt>
  <trkpt lat="33.982887" lon="-2.922254">
   <ele>1613.00</ele>
   <time>2014-04-06T18:50:03Z</time>
  </trkpt>
  <trkpt lat="33.982775" lon="-2.922455">
   <ele>1613.00</ele>
   <time>2014-04-06T18:50:08Z</time>
  </trkpt>
  <trkpt lat="33.982678" lon="-2.922638">
   <ele>1611.00</ele>
   <time>2014-04-06T18:50:12Z</time>
  </trkpt>
  <trkpt lat="33.982524" lon="-2.922894">
   <ele>1611.00</ele>
   <time>2014-04-06T18:50:17Z</time>
  </trkpt>
  <trkpt lat="33.982436" lon="-2.923100">
   <ele>1611.00</ele>
   <time>2014-04-06T18:50:21Z</time>
  </trkpt>
  <trkpt lat="33.982324" lon="-2.923323">
   <ele>1609.00</ele>
   <time>2014-04-06T18:50:28Z</time>
  </trkpt>
  <trkpt lat="33.982237" lon="-2.923548">
   <ele>1609.00</ele>
   <time>2014-04-06T18:50:32Z</time>
  </trkpt>
  <trkpt lat="33.982157" lon="-2.923748">
   <ele>1609.00</ele>
   <time>2014-04-06T18:50:35Z</time>
  </trkpt>
  <trkpt lat="33.982057" lon="-2.923989">
   <ele>1609.00</ele>
   <time>2014-04-06T18:50:38Z</time>
  </trkpt>
  <trkpt lat="33.981897" lon="-2.924440">
   <ele>1610.00</ele>
   <time>2014-04-06T18:50:43Z</time>
  </trkpt>
  <trkpt lat="33.981795" lon="-2.924780">
   <ele>1609.00</ele>
   <time>2014-04-06T18:50:48Z</time>
  </trkpt>
  <trkpt lat="33.981761" lon="-2.924833">
   <ele>1608.00</ele>
   <time>2014-04-06T18:51:04Z</time>
  </trkpt>
  <trkpt lat="33.981771" lon="-2.924827">
   <ele>1609.00</ele>
   <time>2014-04-06T18:51:20Z</time>
  </trkpt>
  <trkpt lat="33.981778" lon="-2.924826">
   <ele>1611.00</ele>
   <time>2014-04-06T18:51:35Z</time>
  </trkpt>
  <trkpt lat="33.981698" lon="-2.925017">
   <ele>1612.00</ele>
   <time>2014-04-06T18:51:51Z</time>
  </trkpt>
  <trkpt lat="33.981572" lon="-2.925181">
   <ele>1611.00</ele>
   <time>2014-04-06T18:51:56Z</time>
  </trkpt>
  <trkpt lat="33.981437" lon="-2.925366">
   <ele>1611.00</ele>
   <time>2014-04-06T18:52:00Z</time>
  </trkpt>
  <trkpt lat="33.981289" lon="-2.925555">
   <ele>1611.00</ele>
   <time>2014-04-06T18:52:04Z</time>
  </trkpt>
  <trkpt lat="33.981142" lon="-2.925723">
   <ele>1611.00</ele>
   <time>2014-04-06T18:52:08Z</time>
  </trkpt>
  <trkpt lat="33.980621" lon="-2.926389">
   <ele>1609.00</ele>
   <time>2014-04-06T18:52:23Z</time>
  </trkpt>
  <trkpt lat="33.980487" lon="-2.926598">
   <ele>1609.00</ele>
   <time>2014-04-06T18:52:27Z</time>
  </trkpt>
  <trkpt lat="33.980386" lon="-2.926849">
   <ele>1609.00</ele>
   <time>2014-04-06T18:52:31Z</time>
  </trkpt>
  <trkpt lat="33.980272" lon="-2.927227">
   <ele>1610.00</ele>
   <time>2014-04-06T18:52:37Z</time>
  </trkpt>
  <trkpt lat="33.980222" lon="-2.927458">
   <ele>1609.00</ele>
   <time>2014-04-06T18:52:41Z</time>
  </trkpt>
  <trkpt lat="33.980128" lon="-2.927683">
   <ele>1609.00</ele>
   <time>2014-04-06T18:52:45Z</time>
  </trkpt>
  <trkpt lat="33.979910" lon="-2.928128">
   <ele>1607.00</ele>
   <time>2014-04-06T18:52:53Z</time>
  </trkpt>
  <trkpt lat="33.979817" lon="-2.928363">
   <ele>1607.00</ele>
   <time>2014-04-06T18:52:57Z</time>
  </trkpt>
  <trkpt lat="33.979738" lon="-2.928599">
   <ele>1607.00</ele>
   <time>2014-04-06T18:53:01Z</time>
  </trkpt>
  <trkpt lat="33.979648" lon="-2.928830">
   <ele>1605.00</ele>
   <time>2014-04-06T18:53:05Z</time>
  </trkpt>
  <trkpt lat="33.979551" lon="-2.929056">
   <ele>1605.00</ele>
   <time>2014-04-06T18:53:09Z</time>
  </trkpt>
  <trkpt lat="33.979451" lon="-2.929284">
   <ele>1604.00</ele>
   <time>2014-04-06T18:53:13Z</time>
  </trkpt>
  <trkpt lat="33.979331" lon="-2.929647">
   <ele>1604.00</ele>
   <time>2014-04-06T18:53:19Z</time>
  </trkpt>
  <trkpt lat="33.979246" lon="-2.929879">
   <ele>1603.00</ele>
   <time>2014-04-06T18:53:23Z</time>
  </trkpt>
  <trkpt lat="33.979176" lon="-2.930117">
   <ele>1603.00</ele>
   <time>2014-04-06T18:53:27Z</time>
  </trkpt>
  <trkpt lat="33.979089" lon="-2.930378">
   <ele>1602.00</ele>
   <time>2014-04-06T18:53:32Z</time>
  </trkpt>
  <trkpt lat="33.978998" lon="-2.930581">
   <ele>1601.00</ele>
   <time>2014-04-06T18:53:36Z</time>
  </trkpt>
  <trkpt lat="33.978890" lon="-2.930790">
   <ele>1601.00</ele>
   <time>2014-04-06T18:53:40Z</time>
  </trkpt>
  <trkpt lat="33.978512" lon="-2.931396">
   <ele>1601.00</ele>
   <time>2014-04-06T18:53:51Z</time>
  </trkpt>
  <trkpt lat="33.978390" lon="-2.931560">
   <ele>1600.00</ele>
   <time>2014-04-06T18:53:54Z</time>
  </trkpt>
  <trkpt lat="33.978036" lon="-2.931996">
   <ele>1598.00</ele>
   <time>2014-04-06T18:54:02Z</time>
  </trkpt>
  <trkpt lat="33.977802" lon="-2.932285">
   <ele>1597.00</ele>
   <time>2014-04-06T18:54:07Z</time>
  </trkpt>
  <trkpt lat="33.977171" lon="-2.933107">
   <ele>1595.00</ele>
   <time>2014-04-06T18:54:21Z</time>
  </trkpt>
  <trkpt lat="33.976957" lon="-2.933358">
   <ele>1595.00</ele>
   <time>2014-04-06T18:54:26Z</time>
  </trkpt>
  <trkpt lat="33.976844" lon="-2.933529">
   <ele>1595.00</ele>
   <time>2014-04-06T18:54:29Z</time>
  </trkpt>
  <trkpt lat="33.976629" lon="-2.933931">
   <ele>1596.00</ele>
   <time>2014-04-06T18:54:35Z</time>
  </trkpt>
  <trkpt lat="33.976528" lon="-2.934165">
   <ele>1597.00</ele>
   <time>2014-04-06T18:54:38Z</time>
  </trkpt>
  <trkpt lat="33.976402" lon="-2.934484">
   <ele>1599.00</ele>
   <time>2014-04-06T18:54:42Z</time>
  </trkpt>
  <trkpt lat="33.976185" lon="-2.935058">
   <ele>1602.00</ele>
   <time>2014-04-06T18:54:49Z</time>
  </trkpt>
  <trkpt lat="33.976095" lon="-2.935259">
   <ele>1601.00</ele>
   <time>2014-04-06T18:54:52Z</time>
  </trkpt>
  <trkpt lat="33.975965" lon="-2.935418">
   <ele>1600.00</ele>
   <time>2014-04-06T18:54:55Z</time>
  </trkpt>
  <trkpt lat="33.975821" lon="-2.935561">
   <ele>1600.00</ele>
   <time>2014-04-06T18:54:58Z</time>
  </trkpt>
  <trkpt lat="33.975479" lon="-2.935969">
   <ele>1601.00</ele>
   <time>2014-04-06T18:55:05Z</time>
  </trkpt>
  <trkpt lat="33.975333" lon="-2.936160">
   <ele>1601.00</ele>
   <time>2014-04-06T18:55:08Z</time>
  </trkpt>
  <trkpt lat="33.975051" lon="-2.936538">
   <ele>1601.00</ele>
   <time>2014-04-06T18:55:15Z</time>
  </trkpt>
  <trkpt lat="33.974917" lon="-2.936740">
   <ele>1601.00</ele>
   <time>2014-04-06T18:55:19Z</time>
  </trkpt>
  <trkpt lat="33.974785" lon="-2.936905">
   <ele>1602.00</ele>
   <time>2014-04-06T18:55:24Z</time>
  </trkpt>
  <trkpt lat="33.974653" lon="-2.937098">
   <ele>1604.00</ele>
   <time>2014-04-06T18:55:28Z</time>
  </trkpt>
  <trkpt lat="33.974517" lon="-2.937327">
   <ele>1603.00</ele>
   <time>2014-04-06T18:55:32Z</time>
  </trkpt>
  <trkpt lat="33.974444" lon="-2.937528">
   <ele>1602.00</ele>
   <time>2014-04-06T18:55:35Z</time>
  </trkpt>
  <trkpt lat="33.974387" lon="-2.937752">
   <ele>1602.00</ele>
   <time>2014-04-06T18:55:38Z</time>
  </trkpt>
  <trkpt lat="33.974321" lon="-2.937954">
   <ele>1600.00</ele>
   <time>2014-04-06T18:55:41Z</time>
  </trkpt>
  <trkpt lat="33.974204" lon="-2.938184">
   <ele>1598.00</ele>
   <time>2014-04-06T18:55:45Z</time>
  </trkpt>
  <trkpt lat="33.974060" lon="-2.938481">
   <ele>1597.00</ele>
   <time>2014-04-06T18:55:50Z</time>
  </trkpt>
  <trkpt lat="33.973959" lon="-2.938736">
   <ele>1595.00</ele>
   <time>2014-04-06T18:55:54Z</time>
  </trkpt>
  <trkpt lat="33.973895" lon="-2.938964">
   <ele>1596.00</ele>
   <time>2014-04-06T18:55:57Z</time>
  </trkpt>
  <trkpt lat="33.973721" lon="-2.939648">
   <ele>1598.00</ele>
   <time>2014-04-06T18:56:05Z</time>
  </trkpt>
  <trkpt lat="33.973484" lon="-2.940481">
   <ele>1601.00</ele>
   <time>2014-04-06T18:56:15Z</time>
  </trkpt>
  <trkpt lat="33.973403" lon="-2.940679">
   <ele>1601.00</ele>
   <time>2014-04-06T18:56:18Z</time>
  </trkpt>
  <trkpt lat="33.973316" lon="-2.940870">
   <ele>1601.00</ele>
   <time>2014-04-06T18:56:21Z</time>
  </trkpt>
  <trkpt lat="33.973250" lon="-2.941113">
   <ele>1601.00</ele>
   <time>2014-04-06T18:56:25Z</time>
  </trkpt>
  <trkpt lat="33.973173" lon="-2.941321">
   <ele>1602.00</ele>
   <time>2014-04-06T18:56:28Z</time>
  </trkpt>
  <trkpt lat="33.973015" lon="-2.941824">
   <ele>1605.00</ele>
   <time>2014-04-06T18:56:34Z</time>
  </trkpt>
  <trkpt lat="33.972937" lon="-2.942094">
   <ele>1606.00</ele>
   <time>2014-04-06T18:56:37Z</time>
  </trkpt>
  <trkpt lat="33.972879" lon="-2.942386">
   <ele>1608.00</ele>
   <time>2014-04-06T18:56:40Z</time>
  </trkpt>
  <trkpt lat="33.972841" lon="-2.942684">
   <ele>1607.00</ele>
   <time>2014-04-06T18:56:43Z</time>
  </trkpt>
  <trkpt lat="33.972796" lon="-2.942989">
   <ele>1607.00</ele>
   <time>2014-04-06T18:56:46Z</time>
  </trkpt>
  <trkpt lat="33.972743" lon="-2.943286">
   <ele>1607.00</ele>
   <time>2014-04-06T18:56:49Z</time>
  </trkpt>
  <trkpt lat="33.972666" lon="-2.943578">
   <ele>1607.00</ele>
   <time>2014-04-06T18:56:52Z</time>
  </trkpt>
  <trkpt lat="33.972558" lon="-2.943877">
   <ele>1605.00</ele>
   <time>2014-04-06T18:56:55Z</time>
  </trkpt>
  <trkpt lat="33.972383" lon="-2.944387">
   <ele>1603.00</ele>
   <time>2014-04-06T18:57:00Z</time>
  </trkpt>
  <trkpt lat="33.972333" lon="-2.944601">
   <ele>1603.00</ele>
   <time>2014-04-06T18:57:02Z</time>
  </trkpt>
  <trkpt lat="33.972298" lon="-2.944904">
   <ele>1603.00</ele>
   <time>2014-04-06T18:57:05Z</time>
  </trkpt>
  <trkpt lat="33.972249" lon="-2.945254">
   <ele>1602.00</ele>
   <time>2014-04-06T18:57:09Z</time>
  </trkpt>
  <trkpt lat="33.972184" lon="-2.946175">
   <ele>1605.00</ele>
   <time>2014-04-06T18:57:19Z</time>
  </trkpt>
  <trkpt lat="33.972151" lon="-2.946444">
   <ele>1605.00</ele>
   <time>2014-04-06T18:57:22Z</time>
  </trkpt>
  <trkpt lat="33.972091" lon="-2.946810">
   <ele>1603.00</ele>
   <time>2014-04-06T18:57:26Z</time>
  </trkpt>
  <trkpt lat="33.971996" lon="-2.947360">
   <ele>1603.00</ele>
   <time>2014-04-06T18:57:32Z</time>
  </trkpt>
  <trkpt lat="33.971952" lon="-2.947660">
   <ele>1602.00</ele>
   <time>2014-04-06T18:57:36Z</time>
  </trkpt>
  <trkpt lat="33.971887" lon="-2.948441">
   <ele>1604.00</ele>
   <time>2014-04-06T18:57:45Z</time>
  </trkpt>
  <trkpt lat="33.971859" lon="-2.949094">
   <ele>1607.00</ele>
   <time>2014-04-06T18:57:51Z</time>
  </trkpt>
  <trkpt lat="33.971850" lon="-2.949644">
   <ele>1609.00</ele>
   <time>2014-04-06T18:57:56Z</time>
  </trkpt>
  <trkpt lat="33.971834" lon="-2.949911">
   <ele>1610.00</ele>
   <time>2014-04-06T18:57:59Z</time>
  </trkpt>
  <trkpt lat="33.971845" lon="-2.950229">
   <ele>1608.00</ele>
   <time>2014-04-06T18:58:04Z</time>
  </trkpt>
  <trkpt lat="33.971850" lon="-2.950530">
   <ele>1607.00</ele>
   <time>2014-04-06T18:58:08Z</time>
  </trkpt>
  <trkpt lat="33.971811" lon="-2.950783">
   <ele>1609.00</ele>
   <time>2014-04-06T18:58:11Z</time>
  </trkpt>
  <trkpt lat="33.971718" lon="-2.950998">
   <ele>1610.00</ele>
   <time>2014-04-06T18:58:14Z</time>
  </trkpt>
  <trkpt lat="33.971502" lon="-2.951355">
   <ele>1610.00</ele>
   <time>2014-04-06T18:58:20Z</time>
  </trkpt>
  <trkpt lat="33.971364" lon="-2.951516">
   <ele>1612.00</ele>
   <time>2014-04-06T18:58:23Z</time>
  </trkpt>
  <trkpt lat="33.971211" lon="-2.951668">
   <ele>1612.00</ele>
   <time>2014-04-06T18:58:26Z</time>
  </trkpt>
  <trkpt lat="33.971066" lon="-2.951846">
   <ele>1614.00</ele>
   <time>2014-04-06T18:58:29Z</time>
  </trkpt>
  <trkpt lat="33.970827" lon="-2.952053">
   <ele>1614.00</ele>
   <time>2014-04-06T18:58:34Z</time>
  </trkpt>
  <trkpt lat="33.970746" lon="-2.952314">
   <ele>1614.00</ele>
   <time>2014-04-06T18:58:38Z</time>
  </trkpt>
  <trkpt lat="33.970815" lon="-2.952524">
   <ele>1615.00</ele>
   <time>2014-04-06T18:58:41Z</time>
  </trkpt>
  <trkpt lat="33.971024" lon="-2.952991">
   <ele>1613.00</ele>
   <time>2014-04-06T18:58:48Z</time>
  </trkpt>
  <trkpt lat="33.971154" lon="-2.953235">
   <ele>1613.00</ele>
   <time>2014-04-06T18:58:51Z</time>
  </trkpt>
  <trkpt lat="33.971272" lon="-2.953483">
   <ele>1613.00</ele>
   <time>2014-04-06T18:58:54Z</time>
  </trkpt>
  <trkpt lat="33.971332" lon="-2.953718">
   <ele>1614.00</ele>
   <time>2014-04-06T18:58:57Z</time>
  </trkpt>
  <trkpt lat="33.971367" lon="-2.953974">
   <ele>1616.00</ele>
   <time>2014-04-06T18:59:01Z</time>
  </trkpt>
  <trkpt lat="33.971347" lon="-2.954195">
   <ele>1618.00</ele>
   <time>2014-04-06T18:59:04Z</time>
  </trkpt>
  <trkpt lat="33.971302" lon="-2.954408">
   <ele>1621.00</ele>
   <time>2014-04-06T18:59:07Z</time>
  </trkpt>
  <trkpt lat="33.971218" lon="-2.954608">
   <ele>1621.00</ele>
   <time>2014-04-06T18:59:10Z</time>
  </trkpt>
  <trkpt lat="33.971100" lon="-2.954955">
   <ele>1621.00</ele>
   <time>2014-04-06T18:59:15Z</time>
  </trkpt>
  <trkpt lat="33.971020" lon="-2.955288">
   <ele>1624.00</ele>
   <time>2014-04-06T18:59:20Z</time>
  </trkpt>
  <trkpt lat="33.970939" lon="-2.955540">
   <ele>1627.00</ele>
   <time>2014-04-06T18:59:24Z</time>
  </trkpt>
  <trkpt lat="33.970844" lon="-2.955795">
   <ele>1628.00</ele>
   <time>2014-04-06T18:59:28Z</time>
  </trkpt>
  <trkpt lat="33.970704" lon="-2.956053">
   <ele>1628.00</ele>
   <time>2014-04-06T18:59:32Z</time>
  </trkpt>
  <trkpt lat="33.970596" lon="-2.956271">
   <ele>1629.00</ele>
   <time>2014-04-06T18:59:35Z</time>
  </trkpt>
  <trkpt lat="33.970511" lon="-2.956523">
   <ele>1630.00</ele>
   <time>2014-04-06T18:59:38Z</time>
  </trkpt>
  <trkpt lat="33.970335" lon="-2.957214">
   <ele>1630.00</ele>
   <time>2014-04-06T18:59:46Z</time>
  </trkpt>
  <trkpt lat="33.970265" lon="-2.957419">
   <ele>1630.00</ele>
   <time>2014-04-06T18:59:49Z</time>
  </trkpt>
  <trkpt lat="33.970198" lon="-2.957660">
   <ele>1629.00</ele>
   <time>2014-04-06T18:59:52Z</time>
  </trkpt>
  <trkpt lat="33.970108" lon="-2.958040">
   <ele>1628.00</ele>
   <time>2014-04-06T18:59:56Z</time>
  </trkpt>
  <trkpt lat="33.969852" lon="-2.959158">
   <ele>1625.00</ele>
   <time>2014-04-06T19:00:08Z</time>
  </trkpt>
  <trkpt lat="33.969752" lon="-2.959504">
   <ele>1624.00</ele>
   <time>2014-04-06T19:00:15Z</time>
  </trkpt>
  <trkpt lat="33.969609" lon="-2.959903">
   <ele>1622.00</ele>
   <time>2014-04-06T19:00:21Z</time>
  </trkpt>
  <trkpt lat="33.969555" lon="-2.960136">
   <ele>1622.00</ele>
   <time>2014-04-06T19:00:24Z</time>
  </trkpt>
  <trkpt lat="33.969519" lon="-2.960391">
   <ele>1623.00</ele>
   <time>2014-04-06T19:00:27Z</time>
  </trkpt>
  <trkpt lat="33.969480" lon="-2.960750">
   <ele>1626.00</ele>
   <time>2014-04-06T19:00:31Z</time>
  </trkpt>
  <trkpt lat="33.969475" lon="-2.961010">
   <ele>1626.00</ele>
   <time>2014-04-06T19:00:34Z</time>
  </trkpt>
  <trkpt lat="33.969485" lon="-2.961260">
   <ele>1626.00</ele>
   <time>2014-04-06T19:00:37Z</time>
  </trkpt>
  <trkpt lat="33.969481" lon="-2.961499">
   <ele>1626.00</ele>
   <time>2014-04-06T19:00:40Z</time>
  </trkpt>
  <trkpt lat="33.969391" lon="-2.961730">
   <ele>1628.00</ele>
   <time>2014-04-06T19:00:43Z</time>
  </trkpt>
  <trkpt lat="33.969266" lon="-2.961908">
   <ele>1628.00</ele>
   <time>2014-04-06T19:00:46Z</time>
  </trkpt>
  <trkpt lat="33.969110" lon="-2.962156">
   <ele>1627.00</ele>
   <time>2014-04-06T19:00:50Z</time>
  </trkpt>
  <trkpt lat="33.969000" lon="-2.962375">
   <ele>1628.00</ele>
   <time>2014-04-06T19:00:53Z</time>
  </trkpt>
  <trkpt lat="33.968912" lon="-2.962632">
   <ele>1629.00</ele>
   <time>2014-04-06T19:00:56Z</time>
  </trkpt>
  <trkpt lat="33.968825" lon="-2.962890">
   <ele>1630.00</ele>
   <time>2014-04-06T19:00:59Z</time>
  </trkpt>
  <trkpt lat="33.968727" lon="-2.963139">
   <ele>1631.00</ele>
   <time>2014-04-06T19:01:02Z</time>
  </trkpt>
  <trkpt lat="33.968678" lon="-2.963383">
   <ele>1633.00</ele>
   <time>2014-04-06T19:01:05Z</time>
  </trkpt>
  <trkpt lat="33.968677" lon="-2.963610">
   <ele>1632.00</ele>
   <time>2014-04-06T19:01:08Z</time>
  </trkpt>
  <trkpt lat="33.968708" lon="-2.964215">
   <ele>1630.00</ele>
   <time>2014-04-06T19:01:15Z</time>
  </trkpt>
  <trkpt lat="33.968709" lon="-2.964463">
   <ele>1630.00</ele>
   <time>2014-04-06T19:01:18Z</time>
  </trkpt>
  <trkpt lat="33.968678" lon="-2.964686">
   <ele>1629.00</ele>
   <time>2014-04-06T19:01:21Z</time>
  </trkpt>
  <trkpt lat="33.968622" lon="-2.964892">
   <ele>1628.00</ele>
   <time>2014-04-06T19:01:24Z</time>
  </trkpt>
  <trkpt lat="33.968525" lon="-2.965121">
   <ele>1630.00</ele>
   <time>2014-04-06T19:01:27Z</time>
  </trkpt>
  <trkpt lat="33.968287" lon="-2.965455">
   <ele>1629.00</ele>
   <time>2014-04-06T19:01:32Z</time>
  </trkpt>
  <trkpt lat="33.968121" lon="-2.965650">
   <ele>1629.00</ele>
   <time>2014-04-06T19:01:35Z</time>
  </trkpt>
  <trkpt lat="33.967954" lon="-2.965846">
   <ele>1630.00</ele>
   <time>2014-04-06T19:01:38Z</time>
  </trkpt>
  <trkpt lat="33.967802" lon="-2.966065">
   <ele>1632.00</ele>
   <time>2014-04-06T19:01:41Z</time>
  </trkpt>
  <trkpt lat="33.967666" lon="-2.966284">
   <ele>1632.00</ele>
   <time>2014-04-06T19:01:44Z</time>
  </trkpt>
  <trkpt lat="33.967591" lon="-2.966503">
   <ele>1634.00</ele>
   <time>2014-04-06T19:01:47Z</time>
  </trkpt>
  <trkpt lat="33.967596" lon="-2.966751">
   <ele>1636.00</ele>
   <time>2014-04-06T19:01:51Z</time>
  </trkpt>
  <trkpt lat="33.967600" lon="-2.967004">
   <ele>1634.00</ele>
   <time>2014-04-06T19:01:56Z</time>
  </trkpt>
  <trkpt lat="33.967590" lon="-2.967222">
   <ele>1633.00</ele>
   <time>2014-04-06T19:02:01Z</time>
  </trkpt>
  <trkpt lat="33.967566" lon="-2.967492">
   <ele>1635.00</ele>
   <time>2014-04-06T19:02:07Z</time>
  </trkpt>
  <trkpt lat="33.967540" lon="-2.967746">
   <ele>1635.00</ele>
   <time>2014-04-06T19:02:12Z</time>
  </trkpt>
  <trkpt lat="33.967540" lon="-2.968064">
   <ele>1631.00</ele>
   <time>2014-04-06T19:02:18Z</time>
  </trkpt>
  <trkpt lat="33.967500" lon="-2.968298">
   <ele>1631.00</ele>
   <time>2014-04-06T19:02:22Z</time>
  </trkpt>
  <trkpt lat="33.967435" lon="-2.968619">
   <ele>1631.00</ele>
   <time>2014-04-06T19:02:27Z</time>
  </trkpt>
  <trkpt lat="33.967442" lon="-2.968885">
   <ele>1630.00</ele>
   <time>2014-04-06T19:02:31Z</time>
  </trkpt>
  <trkpt lat="33.967535" lon="-2.969137">
   <ele>1628.00</ele>
   <time>2014-04-06T19:02:35Z</time>
  </trkpt>
  <trkpt lat="33.967628" lon="-2.969333">
   <ele>1627.00</ele>
   <time>2014-04-06T19:02:39Z</time>
  </trkpt>
  <trkpt lat="33.967675" lon="-2.969361">
   <ele>1621.00</ele>
   <time>2014-04-06T19:02:55Z</time>
  </trkpt>
  <trkpt lat="33.967589" lon="-2.969286">
   <ele>1618.00</ele>
   <time>2014-04-06T19:03:10Z</time>
  </trkpt>
  <trkpt lat="33.967667" lon="-2.969474">
   <ele>1614.00</ele>
   <time>2014-04-06T19:03:23Z</time>
  </trkpt>
  <trkpt lat="33.967793" lon="-2.969639">
   <ele>1613.00</ele>
   <time>2014-04-06T19:03:31Z</time>
  </trkpt>
  <trkpt lat="33.967911" lon="-2.969728">
   <ele>1612.00</ele>
   <time>2014-04-06T19:03:46Z</time>
  </trkpt>
  <trkpt lat="33.967894" lon="-2.969712">
   <ele>1613.00</ele>
   <time>2014-04-06T19:04:01Z</time>
  </trkpt>
  <trkpt lat="33.967894" lon="-2.969710">
   <ele>1613.00</ele>
   <time>2014-04-06T19:04:16Z</time>
  </trkpt>
  <trkpt lat="33.967893" lon="-2.969708">
   <ele>1614.00</ele>
   <time>2014-04-06T19:04:32Z</time>
  </trkpt>
  <trkpt lat="33.967893" lon="-2.969706">
   <ele>1614.00</ele>
   <time>2014-04-06T19:04:47Z</time>
  </trkpt>
  <trkpt lat="33.967894" lon="-2.969704">
   <ele>1614.00</ele>
   <time>2014-04-06T19:05:02Z</time>
  </trkpt>
  <trkpt lat="33.967894" lon="-2.969699">
   <ele>1614.00</ele>
   <time>2014-04-06T19:05:17Z</time>
  </trkpt>
  <trkpt lat="33.967893" lon="-2.969697">
   <ele>1614.00</ele>
   <time>2014-04-06T19:05:33Z</time>
  </trkpt>
  <trkpt lat="33.967894" lon="-2.969700">
   <ele>1615.00</ele>
   <time>2014-04-06T19:05:48Z</time>
  </trkpt>
  <trkpt lat="33.967894" lon="-2.969703">
   <ele>1616.00</ele>
   <time>2014-04-06T19:06:03Z</time>
  </trkpt>
  <trkpt lat="33.967894" lon="-2.969706">
   <ele>1616.00</ele>
   <time>2014-04-06T19:06:18Z</time>
  </trkpt>
  <trkpt lat="33.967893" lon="-2.969706">
   <ele>1616.00</ele>
   <time>2014-04-06T19:06:34Z</time>
  </trkpt>
  <trkpt lat="33.967894" lon="-2.969705">
   <ele>1616.00</ele>
   <time>2014-04-06T19:06:49Z</time>
  </trkpt>
  <trkpt lat="33.967892" lon="-2.969704">
   <ele>1616.00</ele>
   <time>2014-04-06T19:07:04Z</time>
  </trkpt>
  <trkpt lat="33.967889" lon="-2.969699">
   <ele>1615.00</ele>
   <time>2014-04-06T19:07:19Z</time>
  </trkpt>
  <trkpt lat="33.967888" lon="-2.969700">
   <ele>1615.00</ele>
   <time>2014-04-06T19:07:34Z</time>
  </trkpt>
  <trkpt lat="33.968043" lon="-2.969637">
   <ele>1617.00</ele>
   <time>2014-04-06T19:07:49Z</time>
  </trkpt>
  <trkpt lat="33.968121" lon="-2.969471">
   <ele>1619.00</ele>
   <time>2014-04-06T19:08:00Z</time>
  </trkpt>
  <trkpt lat="33.968120" lon="-2.969263">
   <ele>1622.00</ele>
   <time>2014-04-06T19:08:12Z</time>
  </trkpt>
  <trkpt lat="33.968150" lon="-2.969277">
   <ele>1626.00</ele>
   <time>2014-04-06T19:08:27Z</time>
  </trkpt>
  <trkpt lat="33.968105" lon="-2.969295">
   <ele>1622.00</ele>
   <time>2014-04-06T19:08:43Z</time>
  </trkpt>
  <trkpt lat="33.968152" lon="-2.969412">
   <ele>1621.00</ele>
   <time>2014-04-06T19:08:59Z</time>
  </trkpt>
  <trkpt lat="33.968148" lon="-2.969414">
   <ele>1620.00</ele>
   <time>2014-04-06T19:09:11Z</time>
  </trkpt>
 </trkseg>
</trk>
<trk>
 <name>GPS_20140407</name>
 <trkseg>
  <trkpt lat="33.968102" lon="-2.969393">
   <ele>1617.00</ele>
   <time>2014-04-07T07:41:13Z</time>
  </trkpt>
  <trkpt lat="33.968106" lon="-2.969401">
   <ele>1616.00</ele>
   <time>2014-04-07T07:41:28Z</time>
  </trkpt>
  <trkpt lat="33.968114" lon="-2.969412">
   <ele>1615.00</ele>
   <time>2014-04-07T07:41:43Z</time>
  </trkpt>
  <trkpt lat="33.968118" lon="-2.969416">
   <ele>1615.00</ele>
   <time>2014-04-07T07:41:59Z</time>
  </trkpt>
  <trkpt lat="33.968113" lon="-2.969414">
   <ele>1616.00</ele>
   <time>2014-04-07T07:42:15Z</time>
  </trkpt>
  <trkpt lat="33.968106" lon="-2.969409">
   <ele>1616.00</ele>
   <time>2014-04-07T07:42:30Z</time>
  </trkpt>
  <trkpt lat="33.968109" lon="-2.969412">
   <ele>1616.00</ele>
   <time>2014-04-07T07:42:46Z</time>
  </trkpt>
  <trkpt lat="33.968108" lon="-2.969409">
   <ele>1616.00</ele>
   <time>2014-04-07T07:43:01Z</time>
  </trkpt>
  <trkpt lat="33.968110" lon="-2.969407">
   <ele>1616.00</ele>
   <time>2014-04-07T07:43:17Z</time>
  </trkpt>
  <trkpt lat="33.968115" lon="-2.969409">
   <ele>1616.00</ele>
   <time>2014-04-07T07:43:32Z</time>
  </trkpt>
  <trkpt lat="33.968117" lon="-2.969408">
   <ele>1616.00</ele>
   <time>2014-04-07T07:43:48Z</time>
  </trkpt>
  <trkpt lat="33.968118" lon="-2.969407">
   <ele>1616.00</ele>
   <time>2014-04-07T07:44:04Z</time>
  </trkpt>
  <trkpt lat="33.968118" lon="-2.969406">
   <ele>1616.00</ele>
   <time>2014-04-07T07:44:19Z</time>
  </trkpt>
  <trkpt lat="33.968096" lon="-2.969393">
   <ele>1616.00</ele>
   <time>2014-04-07T07:44:34Z</time>
  </trkpt>
  <trkpt lat="33.968094" lon="-2.969549">
   <ele>1616.00</ele>
   <time>2014-04-07T07:44:50Z</time>
  </trkpt>
  <trkpt lat="33.967967" lon="-2.969657">
   <ele>1615.00</ele>
   <time>2014-04-07T07:45:06Z</time>
  </trkpt>
  <trkpt lat="33.967841" lon="-2.969797">
   <ele>1614.00</ele>
   <time>2014-04-07T07:45:21Z</time>
  </trkpt>
  <trkpt lat="33.967843" lon="-2.969889">
   <ele>1614.00</ele>
   <time>2014-04-07T07:45:36Z</time>
  </trkpt>
  <trkpt lat="33.967846" lon="-2.969889">
   <ele>1613.00</ele>
   <time>2014-04-07T07:45:51Z</time>
  </trkpt>
  <trkpt lat="33.967851" lon="-2.969887">
   <ele>1613.00</ele>
   <time>2014-04-07T07:46:07Z</time>
  </trkpt>
  <trkpt lat="33.967854" lon="-2.969887">
   <ele>1613.00</ele>
   <time>2014-04-07T07:46:23Z</time>
  </trkpt>
  <trkpt lat="33.967854" lon="-2.969887">
   <ele>1613.00</ele>
   <time>2014-04-07T07:46:38Z</time>
  </trkpt>
  <trkpt lat="33.967850" lon="-2.969885">
   <ele>1613.00</ele>
   <time>2014-04-07T07:46:54Z</time>
  </trkpt>
  <trkpt lat="33.967909" lon="-2.970100">
   <ele>1613.00</ele>
   <time>2014-04-07T07:47:09Z</time>
  </trkpt>
  <trkpt lat="33.968021" lon="-2.970360">
   <ele>1612.00</ele>
   <time>2014-04-07T07:47:17Z</time>
  </trkpt>
  <trkpt lat="33.968099" lon="-2.970565">
   <ele>1612.00</ele>
   <time>2014-04-07T07:47:25Z</time>
  </trkpt>
  <trkpt lat="33.968246" lon="-2.971041">
   <ele>1610.00</ele>
   <time>2014-04-07T07:47:37Z</time>
  </trkpt>
  <trkpt lat="33.968313" lon="-2.971262">
   <ele>1609.00</ele>
   <time>2014-04-07T07:47:42Z</time>
  </trkpt>
  <trkpt lat="33.968325" lon="-2.971520">
   <ele>1608.00</ele>
   <time>2014-04-07T07:47:47Z</time>
  </trkpt>
  <trkpt lat="33.968308" lon="-2.971751">
   <ele>1608.00</ele>
   <time>2014-04-07T07:47:51Z</time>
  </trkpt>
  <trkpt lat="33.968285" lon="-2.971970">
   <ele>1608.00</ele>
   <time>2014-04-07T07:47:55Z</time>
  </trkpt>
  <trkpt lat="33.968275" lon="-2.972196">
   <ele>1609.00</ele>
   <time>2014-04-07T07:47:59Z</time>
  </trkpt>
  <trkpt lat="33.968243" lon="-2.972567">
   <ele>1609.00</ele>
   <time>2014-04-07T07:48:05Z</time>
  </trkpt>
  <trkpt lat="33.968242" lon="-2.972804">
   <ele>1609.00</ele>
   <time>2014-04-07T07:48:09Z</time>
  </trkpt>
  <trkpt lat="33.968254" lon="-2.972977">
   <ele>1610.00</ele>
   <time>2014-04-07T07:48:24Z</time>
  </trkpt>
  <trkpt lat="33.968250" lon="-2.972969">
   <ele>1609.00</ele>
   <time>2014-04-07T07:48:40Z</time>
  </trkpt>
  <trkpt lat="33.968251" lon="-2.972963">
   <ele>1610.00</ele>
   <time>2014-04-07T07:48:55Z</time>
  </trkpt>
  <trkpt lat="33.968281" lon="-2.973182">
   <ele>1610.00</ele>
   <time>2014-04-07T07:49:11Z</time>
  </trkpt>
  <trkpt lat="33.968322" lon="-2.973414">
   <ele>1609.00</ele>
   <time>2014-04-07T07:49:16Z</time>
  </trkpt>
  <trkpt lat="33.968365" lon="-2.973637">
   <ele>1609.00</ele>
   <time>2014-04-07T07:49:20Z</time>
  </trkpt>
  <trkpt lat="33.968415" lon="-2.973906">
   <ele>1607.00</ele>
   <time>2014-04-07T07:49:24Z</time>
  </trkpt>
  <trkpt lat="33.968484" lon="-2.974331">
   <ele>1606.00</ele>
   <time>2014-04-07T07:49:30Z</time>
  </trkpt>
  <trkpt lat="33.968557" lon="-2.974601">
   <ele>1606.00</ele>
   <time>2014-04-07T07:49:34Z</time>
  </trkpt>
  <trkpt lat="33.968715" lon="-2.974998">
   <ele>1605.00</ele>
   <time>2014-04-07T07:49:40Z</time>
  </trkpt>
  <trkpt lat="33.968760" lon="-2.975211">
   <ele>1605.00</ele>
   <time>2014-04-07T07:49:43Z</time>
  </trkpt>
  <trkpt lat="33.968873" lon="-2.975893">
   <ele>1604.00</ele>
   <time>2014-04-07T07:49:52Z</time>
  </trkpt>
  <trkpt lat="33.968898" lon="-2.976130">
   <ele>1604.00</ele>
   <time>2014-04-07T07:49:55Z</time>
  </trkpt>
  <trkpt lat="33.968922" lon="-2.976360">
   <ele>1604.00</ele>
   <time>2014-04-07T07:49:58Z</time>
  </trkpt>
  <trkpt lat="33.968955" lon="-2.976897">
   <ele>1605.00</ele>
   <time>2014-04-07T07:50:04Z</time>
  </trkpt>
  <trkpt lat="33.969001" lon="-2.977285">
   <ele>1605.00</ele>
   <time>2014-04-07T07:50:08Z</time>
  </trkpt>
  <trkpt lat="33.969054" lon="-2.977561">
   <ele>1605.00</ele>
   <time>2014-04-07T07:50:11Z</time>
  </trkpt>
  <trkpt lat="33.969105" lon="-2.977821">
   <ele>1606.00</ele>
   <time>2014-04-07T07:50:14Z</time>
  </trkpt>
  <trkpt lat="33.969120" lon="-2.978075">
   <ele>1606.00</ele>
   <time>2014-04-07T07:50:17Z</time>
  </trkpt>
  <trkpt lat="33.969115" lon="-2.978329">
   <ele>1606.00</ele>
   <time>2014-04-07T07:50:20Z</time>
  </trkpt>
  <trkpt lat="33.969084" lon="-2.978861">
   <ele>1607.00</ele>
   <time>2014-04-07T07:50:26Z</time>
  </trkpt>
  <trkpt lat="33.969078" lon="-2.979323">
   <ele>1608.00</ele>
   <time>2014-04-07T07:50:31Z</time>
  </trkpt>
  <trkpt lat="33.969097" lon="-2.979602">
   <ele>1608.00</ele>
   <time>2014-04-07T07:50:34Z</time>
  </trkpt>
  <trkpt lat="33.969205" lon="-2.980353">
   <ele>1609.00</ele>
   <time>2014-04-07T07:50:42Z</time>
  </trkpt>
  <trkpt lat="33.969265" lon="-2.980750">
   <ele>1610.00</ele>
   <time>2014-04-07T07:50:46Z</time>
  </trkpt>
  <trkpt lat="33.969350" lon="-2.981411">
   <ele>1612.00</ele>
   <time>2014-04-07T07:50:53Z</time>
  </trkpt>
  <trkpt lat="33.969409" lon="-2.981708">
   <ele>1612.00</ele>
   <time>2014-04-07T07:50:56Z</time>
  </trkpt>
  <trkpt lat="33.969465" lon="-2.982002">
   <ele>1613.00</ele>
   <time>2014-04-07T07:50:59Z</time>
  </trkpt>
  <trkpt lat="33.969524" lon="-2.982286">
   <ele>1613.00</ele>
   <time>2014-04-07T07:51:02Z</time>
  </trkpt>
  <trkpt lat="33.969619" lon="-2.982546">
   <ele>1615.00</ele>
   <time>2014-04-07T07:51:05Z</time>
  </trkpt>
  <trkpt lat="33.969772" lon="-2.982740">
   <ele>1616.00</ele>
   <time>2014-04-07T07:51:08Z</time>
  </trkpt>
  <trkpt lat="33.969992" lon="-2.982919">
   <ele>1617.00</ele>
   <time>2014-04-07T07:51:12Z</time>
  </trkpt>
  <trkpt lat="33.970221" lon="-2.983148">
   <ele>1617.00</ele>
   <time>2014-04-07T07:51:17Z</time>
  </trkpt>
  <trkpt lat="33.970383" lon="-2.983345">
   <ele>1618.00</ele>
   <time>2014-04-07T07:51:21Z</time>
  </trkpt>
  <trkpt lat="33.970444" lon="-2.983624">
   <ele>1619.00</ele>
   <time>2014-04-07T07:51:25Z</time>
  </trkpt>
  <trkpt lat="33.970393" lon="-2.983867">
   <ele>1621.00</ele>
   <time>2014-04-07T07:51:29Z</time>
  </trkpt>
  <trkpt lat="33.970233" lon="-2.983975">
   <ele>1622.00</ele>
   <time>2014-04-07T07:51:33Z</time>
  </trkpt>
  <trkpt lat="33.969864" lon="-2.984206">
   <ele>1626.00</ele>
   <time>2014-04-07T07:51:40Z</time>
  </trkpt>
  <trkpt lat="33.969674" lon="-2.984350">
   <ele>1628.00</ele>
   <time>2014-04-07T07:51:44Z</time>
  </trkpt>
  <trkpt lat="33.969498" lon="-2.984522">
   <ele>1630.00</ele>
   <time>2014-04-07T07:51:48Z</time>
  </trkpt>
  <trkpt lat="33.969379" lon="-2.984716">
   <ele>1631.00</ele>
   <time>2014-04-07T07:51:52Z</time>
  </trkpt>
  <trkpt lat="33.969311" lon="-2.984922">
   <ele>1630.00</ele>
   <time>2014-04-07T07:51:56Z</time>
  </trkpt>
  <trkpt lat="33.969286" lon="-2.985136">
   <ele>1629.00</ele>
   <time>2014-04-07T07:51:59Z</time>
  </trkpt>
  <trkpt lat="33.969294" lon="-2.985369">
   <ele>1629.00</ele>
   <time>2014-04-07T07:52:02Z</time>
  </trkpt>
  <trkpt lat="33.969298" lon="-2.985600">
   <ele>1628.00</ele>
   <time>2014-04-07T07:52:05Z</time>
  </trkpt>
  <trkpt lat="33.969279" lon="-2.985823">
   <ele>1626.00</ele>
   <time>2014-04-07T07:52:08Z</time>
  </trkpt>
  <trkpt lat="33.969230" lon="-2.986039">
   <ele>1625.00</ele>
   <time>2014-04-07T07:52:11Z</time>
  </trkpt>
  <trkpt lat="33.969177" lon="-2.986253">
   <ele>1623.00</ele>
   <time>2014-04-07T07:52:14Z</time>
  </trkpt>
  <trkpt lat="33.969129" lon="-2.986482">
   <ele>1622.00</ele>
   <time>2014-04-07T07:52:17Z</time>
  </trkpt>
  <trkpt lat="33.969073" lon="-2.986703">
   <ele>1621.00</ele>
   <time>2014-04-07T07:52:20Z</time>
  </trkpt>
  <trkpt lat="33.969053" lon="-2.986930">
   <ele>1620.00</ele>
   <time>2014-04-07T07:52:23Z</time>
  </trkpt>
  <trkpt lat="33.969064" lon="-2.987175">
   <ele>1620.00</ele>
   <time>2014-04-07T07:52:26Z</time>
  </trkpt>
  <trkpt lat="33.969108" lon="-2.987426">
   <ele>1620.00</ele>
   <time>2014-04-07T07:52:29Z</time>
  </trkpt>
  <trkpt lat="33.969151" lon="-2.987676">
   <ele>1619.00</ele>
   <time>2014-04-07T07:52:32Z</time>
  </trkpt>
  <trkpt lat="33.969199" lon="-2.987994">
   <ele>1618.00</ele>
   <time>2014-04-07T07:52:36Z</time>
  </trkpt>
  <trkpt lat="33.969244" lon="-2.988209">
   <ele>1617.00</ele>
   <time>2014-04-07T07:52:39Z</time>
  </trkpt>
  <trkpt lat="33.969314" lon="-2.988468">
   <ele>1616.00</ele>
   <time>2014-04-07T07:52:43Z</time>
  </trkpt>
  <trkpt lat="33.969428" lon="-2.988809">
   <ele>1615.00</ele>
   <time>2014-04-07T07:52:48Z</time>
  </trkpt>
  <trkpt lat="33.969837" lon="-2.989827">
   <ele>1617.00</ele>
   <time>2014-04-07T07:53:00Z</time>
  </trkpt>
  <trkpt lat="33.969923" lon="-2.990122">
   <ele>1617.00</ele>
   <time>2014-04-07T07:53:03Z</time>
  </trkpt>
  <trkpt lat="33.970001" lon="-2.990428">
   <ele>1617.00</ele>
   <time>2014-04-07T07:53:06Z</time>
  </trkpt>
  <trkpt lat="33.970093" lon="-2.990730">
   <ele>1617.00</ele>
   <time>2014-04-07T07:53:09Z</time>
  </trkpt>
  <trkpt lat="33.970155" lon="-2.991017">
   <ele>1619.00</ele>
   <time>2014-04-07T07:53:12Z</time>
  </trkpt>
  <trkpt lat="33.970207" lon="-2.991285">
   <ele>1620.00</ele>
   <time>2014-04-07T07:53:15Z</time>
  </trkpt>
  <trkpt lat="33.970275" lon="-2.991536">
   <ele>1621.00</ele>
   <time>2014-04-07T07:53:18Z</time>
  </trkpt>
  <trkpt lat="33.970468" lon="-2.992089">
   <ele>1622.00</ele>
   <time>2014-04-07T07:53:25Z</time>
  </trkpt>
  <trkpt lat="33.970546" lon="-2.992343">
   <ele>1623.00</ele>
   <time>2014-04-07T07:53:28Z</time>
  </trkpt>
  <trkpt lat="33.970701" lon="-2.992823">
   <ele>1625.00</ele>
   <time>2014-04-07T07:53:34Z</time>
  </trkpt>
  <trkpt lat="33.970790" lon="-2.993028">
   <ele>1625.00</ele>
   <time>2014-04-07T07:53:37Z</time>
  </trkpt>
  <trkpt lat="33.970843" lon="-2.993246">
   <ele>1625.00</ele>
   <time>2014-04-07T07:53:41Z</time>
  </trkpt>
  <trkpt lat="33.970908" lon="-2.993501">
   <ele>1624.00</ele>
   <time>2014-04-07T07:53:45Z</time>
  </trkpt>
  <trkpt lat="33.971119" lon="-2.994100">
   <ele>1622.00</ele>
   <time>2014-04-07T07:53:53Z</time>
  </trkpt>
  <trkpt lat="33.971213" lon="-2.994346">
   <ele>1621.00</ele>
   <time>2014-04-07T07:53:56Z</time>
  </trkpt>
  <trkpt lat="33.971331" lon="-2.994686">
   <ele>1621.00</ele>
   <time>2014-04-07T07:54:00Z</time>
  </trkpt>
  <trkpt lat="33.971378" lon="-2.994931">
   <ele>1621.00</ele>
   <time>2014-04-07T07:54:03Z</time>
  </trkpt>
  <trkpt lat="33.971423" lon="-2.995174">
   <ele>1621.00</ele>
   <time>2014-04-07T07:54:06Z</time>
  </trkpt>
  <trkpt lat="33.971479" lon="-2.995391">
   <ele>1621.00</ele>
   <time>2014-04-07T07:54:09Z</time>
  </trkpt>
  <trkpt lat="33.971615" lon="-2.995622">
   <ele>1620.00</ele>
   <time>2014-04-07T07:54:13Z</time>
  </trkpt>
  <trkpt lat="33.971705" lon="-2.995819">
   <ele>1619.00</ele>
   <time>2014-04-07T07:54:16Z</time>
  </trkpt>
  <trkpt lat="33.971741" lon="-2.996053">
   <ele>1617.00</ele>
   <time>2014-04-07T07:54:19Z</time>
  </trkpt>
  <trkpt lat="33.971782" lon="-2.996336">
   <ele>1616.00</ele>
   <time>2014-04-07T07:54:22Z</time>
  </trkpt>
  <trkpt lat="33.971868" lon="-2.996616">
   <ele>1615.00</ele>
   <time>2014-04-07T07:54:25Z</time>
  </trkpt>
  <trkpt lat="33.971995" lon="-2.996982">
   <ele>1615.00</ele>
   <time>2014-04-07T07:54:29Z</time>
  </trkpt>
  <trkpt lat="33.972147" lon="-2.997459">
   <ele>1615.00</ele>
   <time>2014-04-07T07:54:34Z</time>
  </trkpt>
  <trkpt lat="33.972283" lon="-2.997822">
   <ele>1616.00</ele>
   <time>2014-04-07T07:54:38Z</time>
  </trkpt>
  <trkpt lat="33.972370" lon="-2.998060">
   <ele>1617.00</ele>
   <time>2014-04-07T07:54:41Z</time>
  </trkpt>
  <trkpt lat="33.972469" lon="-2.998293">
   <ele>1617.00</ele>
   <time>2014-04-07T07:54:44Z</time>
  </trkpt>
  <trkpt lat="33.972533" lon="-2.998543">
   <ele>1619.00</ele>
   <time>2014-04-07T07:54:47Z</time>
  </trkpt>
  <trkpt lat="33.972631" lon="-2.998753">
   <ele>1621.00</ele>
   <time>2014-04-07T07:54:50Z</time>
  </trkpt>
  <trkpt lat="33.972724" lon="-2.998991">
   <ele>1623.00</ele>
   <time>2014-04-07T07:54:54Z</time>
  </trkpt>
  <trkpt lat="33.972776" lon="-2.999239">
   <ele>1625.00</ele>
   <time>2014-04-07T07:54:58Z</time>
  </trkpt>
  <trkpt lat="33.972848" lon="-2.999438">
   <ele>1626.00</ele>
   <time>2014-04-07T07:55:01Z</time>
  </trkpt>
  <trkpt lat="33.972932" lon="-2.999644">
   <ele>1627.00</ele>
   <time>2014-04-07T07:55:04Z</time>
  </trkpt>
  <trkpt lat="33.972994" lon="-2.999852">
   <ele>1628.00</ele>
   <time>2014-04-07T07:55:07Z</time>
  </trkpt>
  <trkpt lat="33.973083" lon="-3.000141">
   <ele>1628.00</ele>
   <time>2014-04-07T07:55:11Z</time>
  </trkpt>
  <trkpt lat="33.973146" lon="-3.000364">
   <ele>1629.00</ele>
   <time>2014-04-07T07:55:14Z</time>
  </trkpt>
  <trkpt lat="33.973214" lon="-3.000660">
   <ele>1631.00</ele>
   <time>2014-04-07T07:55:18Z</time>
  </trkpt>
  <trkpt lat="33.973253" lon="-3.000877">
   <ele>1631.00</ele>
   <time>2014-04-07T07:55:21Z</time>
  </trkpt>
  <trkpt lat="33.973326" lon="-3.001135">
   <ele>1631.00</ele>
   <time>2014-04-07T07:55:25Z</time>
  </trkpt>
  <trkpt lat="33.973367" lon="-3.001420">
   <ele>1629.00</ele>
   <time>2014-04-07T07:55:29Z</time>
  </trkpt>
  <trkpt lat="33.973352" lon="-3.001642">
   <ele>1628.00</ele>
   <time>2014-04-07T07:55:32Z</time>
  </trkpt>
  <trkpt lat="33.973342" lon="-3.001871">
   <ele>1627.00</ele>
   <time>2014-04-07T07:55:35Z</time>
  </trkpt>
  <trkpt lat="33.973341" lon="-3.002271">
   <ele>1626.00</ele>
   <time>2014-04-07T07:55:40Z</time>
  </trkpt>
  <trkpt lat="33.973313" lon="-3.002516">
   <ele>1624.00</ele>
   <time>2014-04-07T07:55:43Z</time>
  </trkpt>
  <trkpt lat="33.973286" lon="-3.002759">
   <ele>1623.00</ele>
   <time>2014-04-07T07:55:46Z</time>
  </trkpt>
  <trkpt lat="33.973214" lon="-3.003672">
   <ele>1625.00</ele>
   <time>2014-04-07T07:55:57Z</time>
  </trkpt>
  <trkpt lat="33.973175" lon="-3.004071">
   <ele>1628.00</ele>
   <time>2014-04-07T07:56:02Z</time>
  </trkpt>
  <trkpt lat="33.973188" lon="-3.004315">
   <ele>1629.00</ele>
   <time>2014-04-07T07:56:05Z</time>
  </trkpt>
  <trkpt lat="33.973216" lon="-3.004743">
   <ele>1631.00</ele>
   <time>2014-04-07T07:56:11Z</time>
  </trkpt>
  <trkpt lat="33.973243" lon="-3.004961">
   <ele>1631.00</ele>
   <time>2014-04-07T07:56:14Z</time>
  </trkpt>
  <trkpt lat="33.973266" lon="-3.005252">
   <ele>1630.00</ele>
   <time>2014-04-07T07:56:18Z</time>
  </trkpt>
  <trkpt lat="33.973282" lon="-3.005719">
   <ele>1626.00</ele>
   <time>2014-04-07T07:56:24Z</time>
  </trkpt>
  <trkpt lat="33.973292" lon="-3.005963">
   <ele>1625.00</ele>
   <time>2014-04-07T07:56:27Z</time>
  </trkpt>
  <trkpt lat="33.973276" lon="-3.006377">
   <ele>1622.00</ele>
   <time>2014-04-07T07:56:32Z</time>
  </trkpt>
  <trkpt lat="33.973272" lon="-3.006700">
   <ele>1621.00</ele>
   <time>2014-04-07T07:56:36Z</time>
  </trkpt>
  <trkpt lat="33.973241" lon="-3.006931">
   <ele>1620.00</ele>
   <time>2014-04-07T07:56:39Z</time>
  </trkpt>
  <trkpt lat="33.973224" lon="-3.007162">
   <ele>1619.00</ele>
   <time>2014-04-07T07:56:42Z</time>
  </trkpt>
  <trkpt lat="33.973218" lon="-3.007483">
   <ele>1619.00</ele>
   <time>2014-04-07T07:56:46Z</time>
  </trkpt>
  <trkpt lat="33.973194" lon="-3.007714">
   <ele>1618.00</ele>
   <time>2014-04-07T07:56:49Z</time>
  </trkpt>
  <trkpt lat="33.973168" lon="-3.007949">
   <ele>1617.00</ele>
   <time>2014-04-07T07:56:52Z</time>
  </trkpt>
  <trkpt lat="33.973134" lon="-3.008174">
   <ele>1617.00</ele>
   <time>2014-04-07T07:56:55Z</time>
  </trkpt>
  <trkpt lat="33.973025" lon="-3.008625">
   <ele>1617.00</ele>
   <time>2014-04-07T07:57:01Z</time>
  </trkpt>
  <trkpt lat="33.972937" lon="-3.008966">
   <ele>1617.00</ele>
   <time>2014-04-07T07:57:06Z</time>
  </trkpt>
  <trkpt lat="33.972859" lon="-3.009213">
   <ele>1617.00</ele>
   <time>2014-04-07T07:57:10Z</time>
  </trkpt>
  <trkpt lat="33.972810" lon="-3.009432">
   <ele>1617.00</ele>
   <time>2014-04-07T07:57:13Z</time>
  </trkpt>
  <trkpt lat="33.972742" lon="-3.009663">
   <ele>1617.00</ele>
   <time>2014-04-07T07:57:16Z</time>
  </trkpt>
  <trkpt lat="33.972680" lon="-3.009874">
   <ele>1618.00</ele>
   <time>2014-04-07T07:57:19Z</time>
  </trkpt>
  <trkpt lat="33.972583" lon="-3.010340">
   <ele>1621.00</ele>
   <time>2014-04-07T07:57:25Z</time>
  </trkpt>
  <trkpt lat="33.972519" lon="-3.010580">
   <ele>1622.00</ele>
   <time>2014-04-07T07:57:28Z</time>
  </trkpt>
  <trkpt lat="33.972478" lon="-3.010820">
   <ele>1623.00</ele>
   <time>2014-04-07T07:57:31Z</time>
  </trkpt>
  <trkpt lat="33.972465" lon="-3.011180">
   <ele>1625.00</ele>
   <time>2014-04-07T07:57:35Z</time>
  </trkpt>
  <trkpt lat="33.972441" lon="-3.011434">
   <ele>1627.00</ele>
   <time>2014-04-07T07:57:38Z</time>
  </trkpt>
  <trkpt lat="33.972395" lon="-3.011808">
   <ele>1628.00</ele>
   <time>2014-04-07T07:57:43Z</time>
  </trkpt>
  <trkpt lat="33.972314" lon="-3.012056">
   <ele>1628.00</ele>
   <time>2014-04-07T07:57:46Z</time>
  </trkpt>
  <trkpt lat="33.972200" lon="-3.012277">
   <ele>1627.00</ele>
   <time>2014-04-07T07:57:49Z</time>
  </trkpt>
  <trkpt lat="33.972080" lon="-3.012510">
   <ele>1627.00</ele>
   <time>2014-04-07T07:57:52Z</time>
  </trkpt>
  <trkpt lat="33.971966" lon="-3.012756">
   <ele>1627.00</ele>
   <time>2014-04-07T07:57:55Z</time>
  </trkpt>
  <trkpt lat="33.971862" lon="-3.013003">
   <ele>1626.00</ele>
   <time>2014-04-07T07:57:58Z</time>
  </trkpt>
  <trkpt lat="33.971713" lon="-3.013330">
   <ele>1625.00</ele>
   <time>2014-04-07T07:58:02Z</time>
  </trkpt>
  <trkpt lat="33.971610" lon="-3.013591">
   <ele>1625.00</ele>
   <time>2014-04-07T07:58:05Z</time>
  </trkpt>
  <trkpt lat="33.971471" lon="-3.013918">
   <ele>1624.00</ele>
   <time>2014-04-07T07:58:09Z</time>
  </trkpt>
  <trkpt lat="33.971325" lon="-3.014381">
   <ele>1623.00</ele>
   <time>2014-04-07T07:58:14Z</time>
  </trkpt>
  <trkpt lat="33.971121" lon="-3.015033">
   <ele>1622.00</ele>
   <time>2014-04-07T07:58:23Z</time>
  </trkpt>
  <trkpt lat="33.970999" lon="-3.015376">
   <ele>1623.00</ele>
   <time>2014-04-07T07:58:27Z</time>
  </trkpt>
  <trkpt lat="33.970879" lon="-3.015640">
   <ele>1623.00</ele>
   <time>2014-04-07T07:58:30Z</time>
  </trkpt>
  <trkpt lat="33.970753" lon="-3.015916">
   <ele>1624.00</ele>
   <time>2014-04-07T07:58:33Z</time>
  </trkpt>
  <trkpt lat="33.970628" lon="-3.016183">
   <ele>1624.00</ele>
   <time>2014-04-07T07:58:36Z</time>
  </trkpt>
  <trkpt lat="33.970509" lon="-3.016450">
   <ele>1624.00</ele>
   <time>2014-04-07T07:58:39Z</time>
  </trkpt>
  <trkpt lat="33.970374" lon="-3.016712">
   <ele>1624.00</ele>
   <time>2014-04-07T07:58:42Z</time>
  </trkpt>
  <trkpt lat="33.970246" lon="-3.017002">
   <ele>1625.00</ele>
   <time>2014-04-07T07:58:45Z</time>
  </trkpt>
  <trkpt lat="33.969761" lon="-3.018147">
   <ele>1627.00</ele>
   <time>2014-04-07T07:58:56Z</time>
  </trkpt>
  <trkpt lat="33.969694" lon="-3.018353">
   <ele>1627.00</ele>
   <time>2014-04-07T07:58:58Z</time>
  </trkpt>
  <trkpt lat="33.969540" lon="-3.018868">
   <ele>1629.00</ele>
   <time>2014-04-07T07:59:03Z</time>
  </trkpt>
  <trkpt lat="33.969459" lon="-3.019140">
   <ele>1631.00</ele>
   <time>2014-04-07T07:59:06Z</time>
  </trkpt>
  <trkpt lat="33.969393" lon="-3.019405">
   <ele>1632.00</ele>
   <time>2014-04-07T07:59:09Z</time>
  </trkpt>
  <trkpt lat="33.969325" lon="-3.019660">
   <ele>1633.00</ele>
   <time>2014-04-07T07:59:12Z</time>
  </trkpt>
  <trkpt lat="33.969276" lon="-3.019917">
   <ele>1634.00</ele>
   <time>2014-04-07T07:59:15Z</time>
  </trkpt>
  <trkpt lat="33.969166" lon="-3.020384">
   <ele>1636.00</ele>
   <time>2014-04-07T07:59:21Z</time>
  </trkpt>
  <trkpt lat="33.969092" lon="-3.020731">
   <ele>1636.00</ele>
   <time>2014-04-07T07:59:25Z</time>
  </trkpt>
  <trkpt lat="33.969006" lon="-3.020984">
   <ele>1636.00</ele>
   <time>2014-04-07T07:59:28Z</time>
  </trkpt>
  <trkpt lat="33.968914" lon="-3.021248">
   <ele>1635.00</ele>
   <time>2014-04-07T07:59:31Z</time>
  </trkpt>
  <trkpt lat="33.968846" lon="-3.021512">
   <ele>1634.00</ele>
   <time>2014-04-07T07:59:34Z</time>
  </trkpt>
  <trkpt lat="33.968612" lon="-3.022482">
   <ele>1630.00</ele>
   <time>2014-04-07T07:59:45Z</time>
  </trkpt>
  <trkpt lat="33.968503" lon="-3.022845">
   <ele>1628.00</ele>
   <time>2014-04-07T07:59:49Z</time>
  </trkpt>
  <trkpt lat="33.968232" lon="-3.023598">
   <ele>1627.00</ele>
   <time>2014-04-07T07:59:57Z</time>
  </trkpt>
  <trkpt lat="33.968141" lon="-3.023871">
   <ele>1626.00</ele>
   <time>2014-04-07T08:00:00Z</time>
  </trkpt>
  <trkpt lat="33.968051" lon="-3.024140">
   <ele>1626.00</ele>
   <time>2014-04-07T08:00:03Z</time>
  </trkpt>
  <trkpt lat="33.967915" lon="-3.024465">
   <ele>1624.00</ele>
   <time>2014-04-07T08:00:07Z</time>
  </trkpt>
  <trkpt lat="33.967803" lon="-3.024684">
   <ele>1623.00</ele>
   <time>2014-04-07T08:00:10Z</time>
  </trkpt>
  <trkpt lat="33.967659" lon="-3.025010">
   <ele>1623.00</ele>
   <time>2014-04-07T08:00:15Z</time>
  </trkpt>
  <trkpt lat="33.967509" lon="-3.025262">
   <ele>1623.00</ele>
   <time>2014-04-07T08:00:21Z</time>
  </trkpt>
  <trkpt lat="33.967380" lon="-3.025458">
   <ele>1622.00</ele>
   <time>2014-04-07T08:00:27Z</time>
  </trkpt>
  <trkpt lat="33.967355" lon="-3.025704">
   <ele>1620.00</ele>
   <time>2014-04-07T08:00:32Z</time>
  </trkpt>
  <trkpt lat="33.967385" lon="-3.025995">
   <ele>1619.00</ele>
   <time>2014-04-07T08:00:37Z</time>
  </trkpt>
  <trkpt lat="33.967347" lon="-3.026243">
   <ele>1618.00</ele>
   <time>2014-04-07T08:00:41Z</time>
  </trkpt>
  <trkpt lat="33.967248" lon="-3.026458">
   <ele>1617.00</ele>
   <time>2014-04-07T08:00:45Z</time>
  </trkpt>
  <trkpt lat="33.967131" lon="-3.026661">
   <ele>1616.00</ele>
   <time>2014-04-07T08:00:50Z</time>
  </trkpt>
  <trkpt lat="33.967022" lon="-3.026844">
   <ele>1615.00</ele>
   <time>2014-04-07T08:00:54Z</time>
  </trkpt>
  <trkpt lat="33.966858" lon="-3.027064">
   <ele>1615.00</ele>
   <time>2014-04-07T08:00:58Z</time>
  </trkpt>
  <trkpt lat="33.966644" lon="-3.027337">
   <ele>1614.00</ele>
   <time>2014-04-07T08:01:04Z</time>
  </trkpt>
  <trkpt lat="33.966491" lon="-3.027454">
   <ele>1614.00</ele>
   <time>2014-04-07T08:01:07Z</time>
  </trkpt>
  <trkpt lat="33.966334" lon="-3.027564">
   <ele>1613.00</ele>
   <time>2014-04-07T08:01:10Z</time>
  </trkpt>
  <trkpt lat="33.966195" lon="-3.027731">
   <ele>1612.00</ele>
   <time>2014-04-07T08:01:13Z</time>
  </trkpt>
  <trkpt lat="33.966037" lon="-3.027990">
   <ele>1611.00</ele>
   <time>2014-04-07T08:01:17Z</time>
  </trkpt>
  <trkpt lat="33.965864" lon="-3.028133">
   <ele>1611.00</ele>
   <time>2014-04-07T08:01:20Z</time>
  </trkpt>
  <trkpt lat="33.965657" lon="-3.028247">
   <ele>1610.00</ele>
   <time>2014-04-07T08:01:23Z</time>
  </trkpt>
  <trkpt lat="33.965434" lon="-3.028380">
   <ele>1610.00</ele>
   <time>2014-04-07T08:01:26Z</time>
  </trkpt>
  <trkpt lat="33.965218" lon="-3.028518">
   <ele>1610.00</ele>
   <time>2014-04-07T08:01:29Z</time>
  </trkpt>
  <trkpt lat="33.965000" lon="-3.028642">
   <ele>1609.00</ele>
   <time>2014-04-07T08:01:32Z</time>
  </trkpt>
  <trkpt lat="33.964777" lon="-3.028722">
   <ele>1609.00</ele>
   <time>2014-04-07T08:01:35Z</time>
  </trkpt>
  <trkpt lat="33.964549" lon="-3.028742">
   <ele>1609.00</ele>
   <time>2014-04-07T08:01:38Z</time>
  </trkpt>
  <trkpt lat="33.964117" lon="-3.028744">
   <ele>1609.00</ele>
   <time>2014-04-07T08:01:44Z</time>
  </trkpt>
  <trkpt lat="33.963887" lon="-3.028722">
   <ele>1610.00</ele>
   <time>2014-04-07T08:01:47Z</time>
  </trkpt>
  <trkpt lat="33.963641" lon="-3.028711">
   <ele>1610.00</ele>
   <time>2014-04-07T08:01:50Z</time>
  </trkpt>
  <trkpt lat="33.963388" lon="-3.028741">
   <ele>1611.00</ele>
   <time>2014-04-07T08:01:53Z</time>
  </trkpt>
  <trkpt lat="33.963158" lon="-3.028809">
   <ele>1612.00</ele>
   <time>2014-04-07T08:01:56Z</time>
  </trkpt>
  <trkpt lat="33.962938" lon="-3.028954">
   <ele>1610.00</ele>
   <time>2014-04-07T08:01:59Z</time>
  </trkpt>
  <trkpt lat="33.962711" lon="-3.029122">
   <ele>1609.00</ele>
   <time>2014-04-07T08:02:02Z</time>
  </trkpt>
  <trkpt lat="33.962486" lon="-3.029307">
   <ele>1609.00</ele>
   <time>2014-04-07T08:02:05Z</time>
  </trkpt>
  <trkpt lat="33.962117" lon="-3.029620">
   <ele>1609.00</ele>
   <time>2014-04-07T08:02:10Z</time>
  </trkpt>
  <trkpt lat="33.961919" lon="-3.029798">
   <ele>1608.00</ele>
   <time>2014-04-07T08:02:13Z</time>
  </trkpt>
  <trkpt lat="33.961740" lon="-3.030011">
   <ele>1606.00</ele>
   <time>2014-04-07T08:02:16Z</time>
  </trkpt>
  <trkpt lat="33.961559" lon="-3.030233">
   <ele>1605.00</ele>
   <time>2014-04-07T08:02:19Z</time>
  </trkpt>
  <trkpt lat="33.961364" lon="-3.030399">
   <ele>1605.00</ele>
   <time>2014-04-07T08:02:22Z</time>
  </trkpt>
  <trkpt lat="33.961176" lon="-3.030604">
   <ele>1605.00</ele>
   <time>2014-04-07T08:02:25Z</time>
  </trkpt>
  <trkpt lat="33.960990" lon="-3.030807">
   <ele>1604.00</ele>
   <time>2014-04-07T08:02:28Z</time>
  </trkpt>
  <trkpt lat="33.960264" lon="-3.031507">
   <ele>1608.00</ele>
   <time>2014-04-07T08:02:39Z</time>
  </trkpt>
  <trkpt lat="33.960093" lon="-3.031721">
   <ele>1608.00</ele>
   <time>2014-04-07T08:02:42Z</time>
  </trkpt>
  <trkpt lat="33.959752" lon="-3.032175">
   <ele>1607.00</ele>
   <time>2014-04-07T08:02:48Z</time>
  </trkpt>
  <trkpt lat="33.959561" lon="-3.032411">
   <ele>1606.00</ele>
   <time>2014-04-07T08:02:51Z</time>
  </trkpt>
  <trkpt lat="33.959120" lon="-3.033014">
   <ele>1603.00</ele>
   <time>2014-04-07T08:02:58Z</time>
  </trkpt>
  <trkpt lat="33.959011" lon="-3.033195">
   <ele>1602.00</ele>
   <time>2014-04-07T08:03:00Z</time>
  </trkpt>
  <trkpt lat="33.958905" lon="-3.033373">
   <ele>1601.00</ele>
   <time>2014-04-07T08:03:02Z</time>
  </trkpt>
  <trkpt lat="33.958785" lon="-3.033536">
   <ele>1600.00</ele>
   <time>2014-04-07T08:03:04Z</time>
  </trkpt>
  <trkpt lat="33.958492" lon="-3.033940">
   <ele>1599.00</ele>
   <time>2014-04-07T08:03:09Z</time>
  </trkpt>
  <trkpt lat="33.958360" lon="-3.034193">
   <ele>1598.00</ele>
   <time>2014-04-07T08:03:12Z</time>
  </trkpt>
  <trkpt lat="33.958241" lon="-3.034412">
   <ele>1598.00</ele>
   <time>2014-04-07T08:03:16Z</time>
  </trkpt>
  <trkpt lat="33.957987" lon="-3.034850">
   <ele>1598.00</ele>
   <time>2014-04-07T08:03:23Z</time>
  </trkpt>
  <trkpt lat="33.957880" lon="-3.035088">
   <ele>1598.00</ele>
   <time>2014-04-07T08:03:26Z</time>
  </trkpt>
  <trkpt lat="33.957841" lon="-3.035364">
   <ele>1598.00</ele>
   <time>2014-04-07T08:03:29Z</time>
  </trkpt>
  <trkpt lat="33.957869" lon="-3.035633">
   <ele>1598.00</ele>
   <time>2014-04-07T08:03:32Z</time>
  </trkpt>
  <trkpt lat="33.957911" lon="-3.035989">
   <ele>1599.00</ele>
   <time>2014-04-07T08:03:36Z</time>
  </trkpt>
  <trkpt lat="33.957855" lon="-3.036223">
   <ele>1599.00</ele>
   <time>2014-04-07T08:03:39Z</time>
  </trkpt>
  <trkpt lat="33.957733" lon="-3.036420">
   <ele>1600.00</ele>
   <time>2014-04-07T08:03:42Z</time>
  </trkpt>
  <trkpt lat="33.957608" lon="-3.036652">
   <ele>1600.00</ele>
   <time>2014-04-07T08:03:45Z</time>
  </trkpt>
  <trkpt lat="33.957353" lon="-3.037128">
   <ele>1602.00</ele>
   <time>2014-04-07T08:03:51Z</time>
  </trkpt>
  <trkpt lat="33.957279" lon="-3.037370">
   <ele>1603.00</ele>
   <time>2014-04-07T08:03:54Z</time>
  </trkpt>
  <trkpt lat="33.957323" lon="-3.037630">
   <ele>1603.00</ele>
   <time>2014-04-07T08:03:57Z</time>
  </trkpt>
  <trkpt lat="33.957452" lon="-3.037865">
   <ele>1604.00</ele>
   <time>2014-04-07T08:04:00Z</time>
  </trkpt>
  <trkpt lat="33.957597" lon="-3.038102">
   <ele>1604.00</ele>
   <time>2014-04-07T08:04:03Z</time>
  </trkpt>
  <trkpt lat="33.957736" lon="-3.038338">
   <ele>1605.00</ele>
   <time>2014-04-07T08:04:06Z</time>
  </trkpt>
  <trkpt lat="33.957844" lon="-3.038593">
   <ele>1605.00</ele>
   <time>2014-04-07T08:04:09Z</time>
  </trkpt>
  <trkpt lat="33.957977" lon="-3.038816">
   <ele>1605.00</ele>
   <time>2014-04-07T08:04:12Z</time>
  </trkpt>
  <trkpt lat="33.958092" lon="-3.039034">
   <ele>1605.00</ele>
   <time>2014-04-07T08:04:15Z</time>
  </trkpt>
  <trkpt lat="33.958209" lon="-3.039448">
   <ele>1607.00</ele>
   <time>2014-04-07T08:04:20Z</time>
  </trkpt>
  <trkpt lat="33.958335" lon="-3.039671">
   <ele>1608.00</ele>
   <time>2014-04-07T08:04:23Z</time>
  </trkpt>
  <trkpt lat="33.958523" lon="-3.039819">
   <ele>1608.00</ele>
   <time>2014-04-07T08:04:26Z</time>
  </trkpt>
  <trkpt lat="33.958799" lon="-3.040007">
   <ele>1609.00</ele>
   <time>2014-04-07T08:04:31Z</time>
  </trkpt>
  <trkpt lat="33.958901" lon="-3.040231">
   <ele>1609.00</ele>
   <time>2014-04-07T08:04:35Z</time>
  </trkpt>
  <trkpt lat="33.958852" lon="-3.040494">
   <ele>1609.00</ele>
   <time>2014-04-07T08:04:39Z</time>
  </trkpt>
  <trkpt lat="33.958722" lon="-3.040657">
   <ele>1608.00</ele>
   <time>2014-04-07T08:04:42Z</time>
  </trkpt>
  <trkpt lat="33.958576" lon="-3.040821">
   <ele>1609.00</ele>
   <time>2014-04-07T08:04:45Z</time>
  </trkpt>
  <trkpt lat="33.958424" lon="-3.040976">
   <ele>1609.00</ele>
   <time>2014-04-07T08:04:48Z</time>
  </trkpt>
  <trkpt lat="33.958234" lon="-3.041076">
   <ele>1610.00</ele>
   <time>2014-04-07T08:04:51Z</time>
  </trkpt>
  <trkpt lat="33.958019" lon="-3.041123">
   <ele>1610.00</ele>
   <time>2014-04-07T08:04:54Z</time>
  </trkpt>
  <trkpt lat="33.957796" lon="-3.041212">
   <ele>1610.00</ele>
   <time>2014-04-07T08:04:57Z</time>
  </trkpt>
  <trkpt lat="33.957237" lon="-3.041521">
   <ele>1609.00</ele>
   <time>2014-04-07T08:05:05Z</time>
  </trkpt>
  <trkpt lat="33.957033" lon="-3.041612">
   <ele>1608.00</ele>
   <time>2014-04-07T08:05:08Z</time>
  </trkpt>
  <trkpt lat="33.956025" lon="-3.042024">
   <ele>1602.00</ele>
   <time>2014-04-07T08:05:23Z</time>
  </trkpt>
  <trkpt lat="33.955819" lon="-3.042093">
   <ele>1602.00</ele>
   <time>2014-04-07T08:05:26Z</time>
  </trkpt>
  <trkpt lat="33.955545" lon="-3.042207">
   <ele>1601.00</ele>
   <time>2014-04-07T08:05:30Z</time>
  </trkpt>
  <trkpt lat="33.955351" lon="-3.042324">
   <ele>1601.00</ele>
   <time>2014-04-07T08:05:33Z</time>
  </trkpt>
  <trkpt lat="33.955195" lon="-3.042510">
   <ele>1600.00</ele>
   <time>2014-04-07T08:05:36Z</time>
  </trkpt>
  <trkpt lat="33.955079" lon="-3.042758">
   <ele>1599.00</ele>
   <time>2014-04-07T08:05:39Z</time>
  </trkpt>
  <trkpt lat="33.954957" lon="-3.043012">
   <ele>1599.00</ele>
   <time>2014-04-07T08:05:42Z</time>
  </trkpt>
  <trkpt lat="33.954681" lon="-3.043546">
   <ele>1600.00</ele>
   <time>2014-04-07T08:05:49Z</time>
  </trkpt>
  <trkpt lat="33.954621" lon="-3.043781">
   <ele>1601.00</ele>
   <time>2014-04-07T08:05:52Z</time>
  </trkpt>
  <trkpt lat="33.954581" lon="-3.044035">
   <ele>1601.00</ele>
   <time>2014-04-07T08:05:55Z</time>
  </trkpt>
  <trkpt lat="33.954570" lon="-3.044302">
   <ele>1600.00</ele>
   <time>2014-04-07T08:05:58Z</time>
  </trkpt>
  <trkpt lat="33.954595" lon="-3.044560">
   <ele>1600.00</ele>
   <time>2014-04-07T08:06:01Z</time>
  </trkpt>
  <trkpt lat="33.954646" lon="-3.044803">
   <ele>1600.00</ele>
   <time>2014-04-07T08:06:04Z</time>
  </trkpt>
  <trkpt lat="33.954700" lon="-3.045072">
   <ele>1599.00</ele>
   <time>2014-04-07T08:06:08Z</time>
  </trkpt>
  <trkpt lat="33.954521" lon="-3.045208">
   <ele>1598.00</ele>
   <time>2014-04-07T08:06:12Z</time>
  </trkpt>
  <trkpt lat="33.954321" lon="-3.045144">
   <ele>1598.00</ele>
   <time>2014-04-07T08:06:15Z</time>
  </trkpt>
  <trkpt lat="33.954116" lon="-3.045069">
   <ele>1598.00</ele>
   <time>2014-04-07T08:06:18Z</time>
  </trkpt>
  <trkpt lat="33.953915" lon="-3.044993">
   <ele>1599.00</ele>
   <time>2014-04-07T08:06:21Z</time>
  </trkpt>
  <trkpt lat="33.953715" lon="-3.044934">
   <ele>1599.00</ele>
   <time>2014-04-07T08:06:24Z</time>
  </trkpt>
  <trkpt lat="33.953354" lon="-3.044837">
   <ele>1600.00</ele>
   <time>2014-04-07T08:06:29Z</time>
  </trkpt>
  <trkpt lat="33.953163" lon="-3.044809">
   <ele>1600.00</ele>
   <time>2014-04-07T08:06:32Z</time>
  </trkpt>
  <trkpt lat="33.952973" lon="-3.044880">
   <ele>1600.00</ele>
   <time>2014-04-07T08:06:35Z</time>
  </trkpt>
  <trkpt lat="33.952807" lon="-3.045027">
   <ele>1600.00</ele>
   <time>2014-04-07T08:06:38Z</time>
  </trkpt>
  <trkpt lat="33.952653" lon="-3.045184">
   <ele>1599.00</ele>
   <time>2014-04-07T08:06:41Z</time>
  </trkpt>
  <trkpt lat="33.952506" lon="-3.045320">
   <ele>1599.00</ele>
   <time>2014-04-07T08:06:44Z</time>
  </trkpt>
  <trkpt lat="33.952382" lon="-3.045487">
   <ele>1598.00</ele>
   <time>2014-04-07T08:06:47Z</time>
  </trkpt>
  <trkpt lat="33.952292" lon="-3.045679">
   <ele>1597.00</ele>
   <time>2014-04-07T08:06:50Z</time>
  </trkpt>
  <trkpt lat="33.952159" lon="-3.045826">
   <ele>1595.00</ele>
   <time>2014-04-07T08:06:54Z</time>
  </trkpt>
  <trkpt lat="33.951921" lon="-3.045875">
   <ele>1594.00</ele>
   <time>2014-04-07T08:06:58Z</time>
  </trkpt>
  <trkpt lat="33.951675" lon="-3.045927">
   <ele>1594.00</ele>
   <time>2014-04-07T08:07:02Z</time>
  </trkpt>
  <trkpt lat="33.951446" lon="-3.046036">
   <ele>1594.00</ele>
   <time>2014-04-07T08:07:06Z</time>
  </trkpt>
  <trkpt lat="33.951265" lon="-3.046130">
   <ele>1594.00</ele>
   <time>2014-04-07T08:07:09Z</time>
  </trkpt>
  <trkpt lat="33.951089" lon="-3.046198">
   <ele>1594.00</ele>
   <time>2014-04-07T08:07:12Z</time>
  </trkpt>
  <trkpt lat="33.950902" lon="-3.046314">
   <ele>1594.00</ele>
   <time>2014-04-07T08:07:17Z</time>
  </trkpt>
  <trkpt lat="33.950727" lon="-3.046421">
   <ele>1594.00</ele>
   <time>2014-04-07T08:07:21Z</time>
  </trkpt>
  <trkpt lat="33.950555" lon="-3.046514">
   <ele>1594.00</ele>
   <time>2014-04-07T08:07:24Z</time>
  </trkpt>
  <trkpt lat="33.950381" lon="-3.046644">
   <ele>1594.00</ele>
   <time>2014-04-07T08:07:27Z</time>
  </trkpt>
  <trkpt lat="33.950263" lon="-3.046852">
   <ele>1595.00</ele>
   <time>2014-04-07T08:07:30Z</time>
  </trkpt>
  <trkpt lat="33.950234" lon="-3.047121">
   <ele>1595.00</ele>
   <time>2014-04-07T08:07:33Z</time>
  </trkpt>
  <trkpt lat="33.950296" lon="-3.047386">
   <ele>1595.00</ele>
   <time>2014-04-07T08:07:36Z</time>
  </trkpt>
  <trkpt lat="33.950445" lon="-3.047613">
   <ele>1595.00</ele>
   <time>2014-04-07T08:07:39Z</time>
  </trkpt>
  <trkpt lat="33.950663" lon="-3.047872">
   <ele>1595.00</ele>
   <time>2014-04-07T08:07:43Z</time>
  </trkpt>
  <trkpt lat="33.950837" lon="-3.048069">
   <ele>1596.00</ele>
   <time>2014-04-07T08:07:47Z</time>
  </trkpt>
  <trkpt lat="33.951041" lon="-3.048310">
   <ele>1597.00</ele>
   <time>2014-04-07T08:07:51Z</time>
  </trkpt>
  <trkpt lat="33.951198" lon="-3.048501">
   <ele>1597.00</ele>
   <time>2014-04-07T08:07:54Z</time>
  </trkpt>
  <trkpt lat="33.951379" lon="-3.048721">
   <ele>1597.00</ele>
   <time>2014-04-07T08:07:58Z</time>
  </trkpt>
  <trkpt lat="33.951551" lon="-3.048917">
   <ele>1598.00</ele>
   <time>2014-04-07T08:08:02Z</time>
  </trkpt>
  <trkpt lat="33.952270" lon="-3.049817">
   <ele>1599.00</ele>
   <time>2014-04-07T08:08:18Z</time>
  </trkpt>
  <trkpt lat="33.952446" lon="-3.050003">
   <ele>1599.00</ele>
   <time>2014-04-07T08:08:21Z</time>
  </trkpt>
  <trkpt lat="33.952633" lon="-3.050175">
   <ele>1599.00</ele>
   <time>2014-04-07T08:08:24Z</time>
  </trkpt>
  <trkpt lat="33.952823" lon="-3.050302">
   <ele>1600.00</ele>
   <time>2014-04-07T08:08:27Z</time>
  </trkpt>
  <trkpt lat="33.953023" lon="-3.050368">
   <ele>1600.00</ele>
   <time>2014-04-07T08:08:30Z</time>
  </trkpt>
  <trkpt lat="33.953253" lon="-3.050348">
   <ele>1600.00</ele>
   <time>2014-04-07T08:08:33Z</time>
  </trkpt>
  <trkpt lat="33.953517" lon="-3.050252">
   <ele>1600.00</ele>
   <time>2014-04-07T08:08:36Z</time>
  </trkpt>
  <trkpt lat="33.954021" lon="-3.050063">
   <ele>1600.00</ele>
   <time>2014-04-07T08:08:41Z</time>
  </trkpt>
  <trkpt lat="33.954236" lon="-3.050016">
   <ele>1600.00</ele>
   <time>2014-04-07T08:08:43Z</time>
  </trkpt>
  <trkpt lat="33.954457" lon="-3.050066">
   <ele>1599.00</ele>
   <time>2014-04-07T08:08:45Z</time>
  </trkpt>
  <trkpt lat="33.954672" lon="-3.050224">
   <ele>1599.00</ele>
   <time>2014-04-07T08:08:47Z</time>
  </trkpt>
  <trkpt lat="33.955641" lon="-3.051048">
   <ele>1597.00</ele>
   <time>2014-04-07T08:08:56Z</time>
  </trkpt>
  <trkpt lat="33.955844" lon="-3.051134">
   <ele>1596.00</ele>
   <time>2014-04-07T08:08:58Z</time>
  </trkpt>
  <trkpt lat="33.956066" lon="-3.051138">
   <ele>1595.00</ele>
   <time>2014-04-07T08:09:00Z</time>
  </trkpt>
  <trkpt lat="33.956294" lon="-3.051108">
   <ele>1593.00</ele>
   <time>2014-04-07T08:09:02Z</time>
  </trkpt>
  <trkpt lat="33.956514" lon="-3.051043">
   <ele>1592.00</ele>
   <time>2014-04-07T08:09:04Z</time>
  </trkpt>
  <trkpt lat="33.956810" lon="-3.050918">
   <ele>1590.00</ele>
   <time>2014-04-07T08:09:07Z</time>
  </trkpt>
  <trkpt lat="33.957008" lon="-3.050924">
   <ele>1588.00</ele>
   <time>2014-04-07T08:09:09Z</time>
  </trkpt>
  <trkpt lat="33.957204" lon="-3.050963">
   <ele>1587.00</ele>
   <time>2014-04-07T08:09:11Z</time>
  </trkpt>
  <trkpt lat="33.957391" lon="-3.050934">
   <ele>1585.00</ele>
   <time>2014-04-07T08:09:13Z</time>
  </trkpt>
  <trkpt lat="33.957557" lon="-3.050827">
   <ele>1584.00</ele>
   <time>2014-04-07T08:09:15Z</time>
  </trkpt>
  <trkpt lat="33.957701" lon="-3.050664">
   <ele>1583.00</ele>
   <time>2014-04-07T08:09:17Z</time>
  </trkpt>
  <trkpt lat="33.957845" lon="-3.050492">
   <ele>1581.00</ele>
   <time>2014-04-07T08:09:19Z</time>
  </trkpt>
  <trkpt lat="33.958016" lon="-3.050350">
   <ele>1579.00</ele>
   <time>2014-04-07T08:09:21Z</time>
  </trkpt>
  <trkpt lat="33.958210" lon="-3.050242">
   <ele>1578.00</ele>
   <time>2014-04-07T08:09:23Z</time>
  </trkpt>
  <trkpt lat="33.958606" lon="-3.050017">
   <ele>1575.00</ele>
   <time>2014-04-07T08:09:27Z</time>
  </trkpt>
  <trkpt lat="33.958894" lon="-3.049832">
   <ele>1572.00</ele>
   <time>2014-04-07T08:09:30Z</time>
  </trkpt>
  <trkpt lat="33.959075" lon="-3.049695">
   <ele>1571.00</ele>
   <time>2014-04-07T08:09:32Z</time>
  </trkpt>
  <trkpt lat="33.959424" lon="-3.049407">
   <ele>1568.00</ele>
   <time>2014-04-07T08:09:36Z</time>
  </trkpt>
  <trkpt lat="33.959592" lon="-3.049290">
   <ele>1566.00</ele>
   <time>2014-04-07T08:09:38Z</time>
  </trkpt>
  <trkpt lat="33.959770" lon="-3.049191">
   <ele>1564.00</ele>
   <time>2014-04-07T08:09:40Z</time>
  </trkpt>
  <trkpt lat="33.959952" lon="-3.049106">
   <ele>1563.00</ele>
   <time>2014-04-07T08:09:42Z</time>
  </trkpt>
  <trkpt lat="33.960122" lon="-3.049017">
   <ele>1562.00</ele>
   <time>2014-04-07T08:09:44Z</time>
  </trkpt>
  <trkpt lat="33.960265" lon="-3.048884">
   <ele>1561.00</ele>
   <time>2014-04-07T08:09:46Z</time>
  </trkpt>
  <trkpt lat="33.960377" lon="-3.048713">
   <ele>1561.00</ele>
   <time>2014-04-07T08:09:48Z</time>
  </trkpt>
  <trkpt lat="33.960459" lon="-3.048520">
   <ele>1560.00</ele>
   <time>2014-04-07T08:09:50Z</time>
  </trkpt>
  <trkpt lat="33.960520" lon="-3.048313">
   <ele>1559.00</ele>
   <time>2014-04-07T08:09:52Z</time>
  </trkpt>
  <trkpt lat="33.960560" lon="-3.048095">
   <ele>1559.00</ele>
   <time>2014-04-07T08:09:54Z</time>
  </trkpt>
  <trkpt lat="33.960581" lon="-3.047857">
   <ele>1558.00</ele>
   <time>2014-04-07T08:09:56Z</time>
  </trkpt>
  <trkpt lat="33.960594" lon="-3.047486">
   <ele>1557.00</ele>
   <time>2014-04-07T08:09:59Z</time>
  </trkpt>
  <trkpt lat="33.960586" lon="-3.047239">
   <ele>1556.00</ele>
   <time>2014-04-07T08:10:01Z</time>
  </trkpt>
  <trkpt lat="33.960579" lon="-3.046996">
   <ele>1555.00</ele>
   <time>2014-04-07T08:10:03Z</time>
  </trkpt>
  <trkpt lat="33.960606" lon="-3.046759">
   <ele>1554.00</ele>
   <time>2014-04-07T08:10:05Z</time>
  </trkpt>
  <trkpt lat="33.960661" lon="-3.046520">
   <ele>1553.00</ele>
   <time>2014-04-07T08:10:07Z</time>
  </trkpt>
  <trkpt lat="33.960727" lon="-3.046276">
   <ele>1552.00</ele>
   <time>2014-04-07T08:10:09Z</time>
  </trkpt>
  <trkpt lat="33.960819" lon="-3.046041">
   <ele>1551.00</ele>
   <time>2014-04-07T08:10:11Z</time>
  </trkpt>
  <trkpt lat="33.960952" lon="-3.045832">
   <ele>1550.00</ele>
   <time>2014-04-07T08:10:13Z</time>
  </trkpt>
  <trkpt lat="33.961116" lon="-3.045654">
   <ele>1549.00</ele>
   <time>2014-04-07T08:10:15Z</time>
  </trkpt>
  <trkpt lat="33.961293" lon="-3.045492">
   <ele>1548.00</ele>
   <time>2014-04-07T08:10:17Z</time>
  </trkpt>
  <trkpt lat="33.961476" lon="-3.045342">
   <ele>1547.00</ele>
   <time>2014-04-07T08:10:19Z</time>
  </trkpt>
  <trkpt lat="33.961657" lon="-3.045195">
   <ele>1545.00</ele>
   <time>2014-04-07T08:10:21Z</time>
  </trkpt>
  <trkpt lat="33.961798" lon="-3.045014">
   <ele>1544.00</ele>
   <time>2014-04-07T08:10:23Z</time>
  </trkpt>
  <trkpt lat="33.961871" lon="-3.044793">
   <ele>1543.00</ele>
   <time>2014-04-07T08:10:25Z</time>
  </trkpt>
  <trkpt lat="33.961875" lon="-3.044552">
   <ele>1542.00</ele>
   <time>2014-04-07T08:10:27Z</time>
  </trkpt>
  <trkpt lat="33.961761" lon="-3.044208">
   <ele>1538.00</ele>
   <time>2014-04-07T08:10:30Z</time>
  </trkpt>
  <trkpt lat="33.961630" lon="-3.044008">
   <ele>1536.00</ele>
   <time>2014-04-07T08:10:32Z</time>
  </trkpt>
  <trkpt lat="33.961481" lon="-3.043833">
   <ele>1534.00</ele>
   <time>2014-04-07T08:10:34Z</time>
  </trkpt>
  <trkpt lat="33.961336" lon="-3.043687">
   <ele>1532.00</ele>
   <time>2014-04-07T08:10:36Z</time>
  </trkpt>
  <trkpt lat="33.961271" lon="-3.043404">
   <ele>1530.00</ele>
   <time>2014-04-07T08:10:39Z</time>
  </trkpt>
  <trkpt lat="33.961334" lon="-3.043193">
   <ele>1529.00</ele>
   <time>2014-04-07T08:10:41Z</time>
  </trkpt>
  <trkpt lat="33.961448" lon="-3.042877">
   <ele>1527.00</ele>
   <time>2014-04-07T08:10:44Z</time>
  </trkpt>
  <trkpt lat="33.961574" lon="-3.042718">
   <ele>1526.00</ele>
   <time>2014-04-07T08:10:46Z</time>
  </trkpt>
  <trkpt lat="33.961746" lon="-3.042611">
   <ele>1524.00</ele>
   <time>2014-04-07T08:10:48Z</time>
  </trkpt>
  <trkpt lat="33.961925" lon="-3.042504">
   <ele>1523.00</ele>
   <time>2014-04-07T08:10:50Z</time>
  </trkpt>
  <trkpt lat="33.962097" lon="-3.042375">
   <ele>1521.00</ele>
   <time>2014-04-07T08:10:52Z</time>
  </trkpt>
  <trkpt lat="33.962267" lon="-3.042266">
   <ele>1520.00</ele>
   <time>2014-04-07T08:10:54Z</time>
  </trkpt>
  <trkpt lat="33.962445" lon="-3.042228">
   <ele>1519.00</ele>
   <time>2014-04-07T08:10:56Z</time>
  </trkpt>
  <trkpt lat="33.962705" lon="-3.042181">
   <ele>1517.00</ele>
   <time>2014-04-07T08:10:59Z</time>
  </trkpt>
  <trkpt lat="33.962939" lon="-3.042022">
   <ele>1515.00</ele>
   <time>2014-04-07T08:11:02Z</time>
  </trkpt>
  <trkpt lat="33.963168" lon="-3.041838">
   <ele>1514.00</ele>
   <time>2014-04-07T08:11:05Z</time>
  </trkpt>
  <trkpt lat="33.963411" lon="-3.041668">
   <ele>1512.00</ele>
   <time>2014-04-07T08:11:08Z</time>
  </trkpt>
  <trkpt lat="33.963558" lon="-3.041523">
   <ele>1511.00</ele>
   <time>2014-04-07T08:11:10Z</time>
  </trkpt>
  <trkpt lat="33.963675" lon="-3.041341">
   <ele>1510.00</ele>
   <time>2014-04-07T08:11:12Z</time>
  </trkpt>
  <trkpt lat="33.963773" lon="-3.041136">
   <ele>1509.00</ele>
   <time>2014-04-07T08:11:14Z</time>
  </trkpt>
  <trkpt lat="33.963980" lon="-3.040691">
   <ele>1507.00</ele>
   <time>2014-04-07T08:11:18Z</time>
  </trkpt>
  <trkpt lat="33.964104" lon="-3.040474">
   <ele>1506.00</ele>
   <time>2014-04-07T08:11:20Z</time>
  </trkpt>
  <trkpt lat="33.964608" lon="-3.039578">
   <ele>1500.00</ele>
   <time>2014-04-07T08:11:28Z</time>
  </trkpt>
  <trkpt lat="33.964876" lon="-3.039075">
   <ele>1495.00</ele>
   <time>2014-04-07T08:11:33Z</time>
  </trkpt>
  <trkpt lat="33.964995" lon="-3.038910">
   <ele>1494.00</ele>
   <time>2014-04-07T08:11:35Z</time>
  </trkpt>
  <trkpt lat="33.965205" lon="-3.038750">
   <ele>1492.00</ele>
   <time>2014-04-07T08:11:38Z</time>
  </trkpt>
  <trkpt lat="33.965455" lon="-3.038616">
   <ele>1489.00</ele>
   <time>2014-04-07T08:11:41Z</time>
  </trkpt>
  <trkpt lat="33.965728" lon="-3.038434">
   <ele>1487.00</ele>
   <time>2014-04-07T08:11:44Z</time>
  </trkpt>
  <trkpt lat="33.965998" lon="-3.038220">
   <ele>1484.00</ele>
   <time>2014-04-07T08:11:47Z</time>
  </trkpt>
  <trkpt lat="33.966170" lon="-3.038067">
   <ele>1483.00</ele>
   <time>2014-04-07T08:11:49Z</time>
  </trkpt>
  <trkpt lat="33.966320" lon="-3.037907">
   <ele>1481.00</ele>
   <time>2014-04-07T08:11:51Z</time>
  </trkpt>
  <trkpt lat="33.966425" lon="-3.037722">
   <ele>1480.00</ele>
   <time>2014-04-07T08:11:53Z</time>
  </trkpt>
  <trkpt lat="33.966530" lon="-3.037425">
   <ele>1479.00</ele>
   <time>2014-04-07T08:11:56Z</time>
  </trkpt>
  <trkpt lat="33.966677" lon="-3.037192">
   <ele>1476.00</ele>
   <time>2014-04-07T08:11:59Z</time>
  </trkpt>
  <trkpt lat="33.966873" lon="-3.037059">
   <ele>1473.00</ele>
   <time>2014-04-07T08:12:02Z</time>
  </trkpt>
  <trkpt lat="33.967064" lon="-3.036848">
   <ele>1470.00</ele>
   <time>2014-04-07T08:12:05Z</time>
  </trkpt>
  <trkpt lat="33.967153" lon="-3.036550">
   <ele>1470.00</ele>
   <time>2014-04-07T08:12:08Z</time>
  </trkpt>
  <trkpt lat="33.967241" lon="-3.036250">
   <ele>1469.00</ele>
   <time>2014-04-07T08:12:11Z</time>
  </trkpt>
  <trkpt lat="33.967374" lon="-3.035994">
   <ele>1469.00</ele>
   <time>2014-04-07T08:12:14Z</time>
  </trkpt>
  <trkpt lat="33.967573" lon="-3.035837">
   <ele>1467.00</ele>
   <time>2014-04-07T08:12:17Z</time>
  </trkpt>
  <trkpt lat="33.967738" lon="-3.035745">
   <ele>1466.00</ele>
   <time>2014-04-07T08:12:19Z</time>
  </trkpt>
  <trkpt lat="33.968107" lon="-3.035576">
   <ele>1465.00</ele>
   <time>2014-04-07T08:12:23Z</time>
  </trkpt>
  <trkpt lat="33.968289" lon="-3.035511">
   <ele>1465.00</ele>
   <time>2014-04-07T08:12:25Z</time>
  </trkpt>
  <trkpt lat="33.968552" lon="-3.035433">
   <ele>1465.00</ele>
   <time>2014-04-07T08:12:28Z</time>
  </trkpt>
  <trkpt lat="33.968869" lon="-3.035340">
   <ele>1464.00</ele>
   <time>2014-04-07T08:12:32Z</time>
  </trkpt>
  <trkpt lat="33.969022" lon="-3.035176">
   <ele>1462.00</ele>
   <time>2014-04-07T08:12:35Z</time>
  </trkpt>
  <trkpt lat="33.969035" lon="-3.034922">
   <ele>1461.00</ele>
   <time>2014-04-07T08:12:38Z</time>
  </trkpt>
  <trkpt lat="33.968986" lon="-3.034623">
   <ele>1460.00</ele>
   <time>2014-04-07T08:12:41Z</time>
  </trkpt>
  <trkpt lat="33.968942" lon="-3.034164">
   <ele>1458.00</ele>
   <time>2014-04-07T08:12:45Z</time>
  </trkpt>
  <trkpt lat="33.968938" lon="-3.033919">
   <ele>1456.00</ele>
   <time>2014-04-07T08:12:47Z</time>
  </trkpt>
  <trkpt lat="33.968970" lon="-3.033666">
   <ele>1454.00</ele>
   <time>2014-04-07T08:12:49Z</time>
  </trkpt>
  <trkpt lat="33.969023" lon="-3.033411">
   <ele>1453.00</ele>
   <time>2014-04-07T08:12:51Z</time>
  </trkpt>
  <trkpt lat="33.969089" lon="-3.033146">
   <ele>1451.00</ele>
   <time>2014-04-07T08:12:53Z</time>
  </trkpt>
  <trkpt lat="33.969223" lon="-3.032599">
   <ele>1446.00</ele>
   <time>2014-04-07T08:12:57Z</time>
  </trkpt>
  <trkpt lat="33.969336" lon="-3.032067">
   <ele>1443.00</ele>
   <time>2014-04-07T08:13:01Z</time>
  </trkpt>
  <trkpt lat="33.969418" lon="-3.031811">
   <ele>1441.00</ele>
   <time>2014-04-07T08:13:03Z</time>
  </trkpt>
  <trkpt lat="33.969516" lon="-3.031558">
   <ele>1439.00</ele>
   <time>2014-04-07T08:13:05Z</time>
  </trkpt>
  <trkpt lat="33.969607" lon="-3.031302">
   <ele>1437.00</ele>
   <time>2014-04-07T08:13:07Z</time>
  </trkpt>
  <trkpt lat="33.969786" lon="-3.030647">
   <ele>1432.00</ele>
   <time>2014-04-07T08:13:12Z</time>
  </trkpt>
  <trkpt lat="33.969829" lon="-3.030383">
   <ele>1430.00</ele>
   <time>2014-04-07T08:13:14Z</time>
  </trkpt>
  <trkpt lat="33.969865" lon="-3.029996">
   <ele>1427.00</ele>
   <time>2014-04-07T08:13:17Z</time>
  </trkpt>
  <trkpt lat="33.969941" lon="-3.029753">
   <ele>1426.00</ele>
   <time>2014-04-07T08:13:19Z</time>
  </trkpt>
  <trkpt lat="33.970055" lon="-3.029522">
   <ele>1424.00</ele>
   <time>2014-04-07T08:13:21Z</time>
  </trkpt>
  <trkpt lat="33.970177" lon="-3.029290">
   <ele>1421.00</ele>
   <time>2014-04-07T08:13:23Z</time>
  </trkpt>
  <trkpt lat="33.970299" lon="-3.029055">
   <ele>1419.00</ele>
   <time>2014-04-07T08:13:25Z</time>
  </trkpt>
  <trkpt lat="33.970452" lon="-3.028839">
   <ele>1417.00</ele>
   <time>2014-04-07T08:13:27Z</time>
  </trkpt>
  <trkpt lat="33.970626" lon="-3.028631">
   <ele>1415.00</ele>
   <time>2014-04-07T08:13:29Z</time>
  </trkpt>
  <trkpt lat="33.971387" lon="-3.027770">
   <ele>1407.00</ele>
   <time>2014-04-07T08:13:37Z</time>
  </trkpt>
  <trkpt lat="33.971610" lon="-3.027577">
   <ele>1404.00</ele>
   <time>2014-04-07T08:13:39Z</time>
  </trkpt>
  <trkpt lat="33.971844" lon="-3.027399">
   <ele>1402.00</ele>
   <time>2014-04-07T08:13:41Z</time>
  </trkpt>
  <trkpt lat="33.972183" lon="-3.027163">
   <ele>1399.00</ele>
   <time>2014-04-07T08:13:44Z</time>
  </trkpt>
  <trkpt lat="33.972405" lon="-3.027034">
   <ele>1396.00</ele>
   <time>2014-04-07T08:13:46Z</time>
  </trkpt>
  <trkpt lat="33.972724" lon="-3.026847">
   <ele>1392.00</ele>
   <time>2014-04-07T08:13:49Z</time>
  </trkpt>
  <trkpt lat="33.973022" lon="-3.026649">
   <ele>1389.00</ele>
   <time>2014-04-07T08:13:52Z</time>
  </trkpt>
  <trkpt lat="33.973215" lon="-3.026496">
   <ele>1387.00</ele>
   <time>2014-04-07T08:13:54Z</time>
  </trkpt>
  <trkpt lat="33.973400" lon="-3.026326">
   <ele>1385.00</ele>
   <time>2014-04-07T08:13:56Z</time>
  </trkpt>
  <trkpt lat="33.973784" lon="-3.025940">
   <ele>1380.00</ele>
   <time>2014-04-07T08:14:01Z</time>
  </trkpt>
  <trkpt lat="33.973906" lon="-3.025763">
   <ele>1378.00</ele>
   <time>2014-04-07T08:14:03Z</time>
  </trkpt>
  <trkpt lat="33.974001" lon="-3.025554">
   <ele>1377.00</ele>
   <time>2014-04-07T08:14:05Z</time>
  </trkpt>
  <trkpt lat="33.974073" lon="-3.025324">
   <ele>1375.00</ele>
   <time>2014-04-07T08:14:07Z</time>
  </trkpt>
  <trkpt lat="33.974173" lon="-3.024959">
   <ele>1372.00</ele>
   <time>2014-04-07T08:14:10Z</time>
  </trkpt>
  <trkpt lat="33.974228" lon="-3.024698">
   <ele>1370.00</ele>
   <time>2014-04-07T08:14:12Z</time>
  </trkpt>
  <trkpt lat="33.974264" lon="-3.024430">
   <ele>1368.00</ele>
   <time>2014-04-07T08:14:14Z</time>
  </trkpt>
  <trkpt lat="33.974284" lon="-3.024170">
   <ele>1367.00</ele>
   <time>2014-04-07T08:14:16Z</time>
  </trkpt>
  <trkpt lat="33.974318" lon="-3.023926">
   <ele>1365.00</ele>
   <time>2014-04-07T08:14:18Z</time>
  </trkpt>
  <trkpt lat="33.974414" lon="-3.023707">
   <ele>1363.00</ele>
   <time>2014-04-07T08:14:20Z</time>
  </trkpt>
  <trkpt lat="33.974568" lon="-3.023536">
   <ele>1361.00</ele>
   <time>2014-04-07T08:14:22Z</time>
  </trkpt>
  <trkpt lat="33.974731" lon="-3.023376">
   <ele>1359.00</ele>
   <time>2014-04-07T08:14:24Z</time>
  </trkpt>
  <trkpt lat="33.974876" lon="-3.023191">
   <ele>1357.00</ele>
   <time>2014-04-07T08:14:26Z</time>
  </trkpt>
  <trkpt lat="33.975089" lon="-3.022914">
   <ele>1355.00</ele>
   <time>2014-04-07T08:14:29Z</time>
  </trkpt>
  <trkpt lat="33.975251" lon="-3.022790">
   <ele>1354.00</ele>
   <time>2014-04-07T08:14:31Z</time>
  </trkpt>
  <trkpt lat="33.975434" lon="-3.022746">
   <ele>1354.00</ele>
   <time>2014-04-07T08:14:33Z</time>
  </trkpt>
  <trkpt lat="33.975622" lon="-3.022743">
   <ele>1354.00</ele>
   <time>2014-04-07T08:14:35Z</time>
  </trkpt>
  <trkpt lat="33.975811" lon="-3.022768">
   <ele>1353.00</ele>
   <time>2014-04-07T08:14:37Z</time>
  </trkpt>
  <trkpt lat="33.975998" lon="-3.022810">
   <ele>1354.00</ele>
   <time>2014-04-07T08:14:39Z</time>
  </trkpt>
  <trkpt lat="33.976546" lon="-3.022914">
   <ele>1354.00</ele>
   <time>2014-04-07T08:14:45Z</time>
  </trkpt>
  <trkpt lat="33.976793" lon="-3.022922">
   <ele>1354.00</ele>
   <time>2014-04-07T08:14:48Z</time>
  </trkpt>
  <trkpt lat="33.977001" lon="-3.022786">
   <ele>1354.00</ele>
   <time>2014-04-07T08:14:51Z</time>
  </trkpt>
  <trkpt lat="33.977167" lon="-3.022523">
   <ele>1354.00</ele>
   <time>2014-04-07T08:14:54Z</time>
  </trkpt>
  <trkpt lat="33.977294" lon="-3.022327">
   <ele>1354.00</ele>
   <time>2014-04-07T08:14:56Z</time>
  </trkpt>
  <trkpt lat="33.977445" lon="-3.022129">
   <ele>1354.00</ele>
   <time>2014-04-07T08:14:58Z</time>
  </trkpt>
  <trkpt lat="33.977955" lon="-3.021545">
   <ele>1353.00</ele>
   <time>2014-04-07T08:15:04Z</time>
  </trkpt>
  <trkpt lat="33.978151" lon="-3.021378">
   <ele>1352.00</ele>
   <time>2014-04-07T08:15:06Z</time>
  </trkpt>
  <trkpt lat="33.978564" lon="-3.021073">
   <ele>1352.00</ele>
   <time>2014-04-07T08:15:10Z</time>
  </trkpt>
  <trkpt lat="33.978779" lon="-3.020955">
   <ele>1352.00</ele>
   <time>2014-04-07T08:15:12Z</time>
  </trkpt>
  <trkpt lat="33.979011" lon="-3.020890">
   <ele>1351.00</ele>
   <time>2014-04-07T08:15:14Z</time>
  </trkpt>
  <trkpt lat="33.979254" lon="-3.020863">
   <ele>1351.00</ele>
   <time>2014-04-07T08:15:16Z</time>
  </trkpt>
  <trkpt lat="33.979632" lon="-3.020839">
   <ele>1351.00</ele>
   <time>2014-04-07T08:15:19Z</time>
  </trkpt>
  <trkpt lat="33.979888" lon="-3.020818">
   <ele>1350.00</ele>
   <time>2014-04-07T08:15:21Z</time>
  </trkpt>
  <trkpt lat="33.980137" lon="-3.020811">
   <ele>1350.00</ele>
   <time>2014-04-07T08:15:23Z</time>
  </trkpt>
  <trkpt lat="33.980375" lon="-3.020801">
   <ele>1350.00</ele>
   <time>2014-04-07T08:15:25Z</time>
  </trkpt>
  <trkpt lat="33.980601" lon="-3.020770">
   <ele>1350.00</ele>
   <time>2014-04-07T08:15:27Z</time>
  </trkpt>
  <trkpt lat="33.980813" lon="-3.020718">
   <ele>1350.00</ele>
   <time>2014-04-07T08:15:29Z</time>
  </trkpt>
  <trkpt lat="33.980994" lon="-3.020608">
   <ele>1350.00</ele>
   <time>2014-04-07T08:15:31Z</time>
  </trkpt>
  <trkpt lat="33.981142" lon="-3.020440">
   <ele>1350.00</ele>
   <time>2014-04-07T08:15:33Z</time>
  </trkpt>
  <trkpt lat="33.981356" lon="-3.020175">
   <ele>1350.00</ele>
   <time>2014-04-07T08:15:36Z</time>
  </trkpt>
  <trkpt lat="33.981494" lon="-3.020008">
   <ele>1350.00</ele>
   <time>2014-04-07T08:15:38Z</time>
  </trkpt>
  <trkpt lat="33.981584" lon="-3.019807">
   <ele>1349.00</ele>
   <time>2014-04-07T08:15:40Z</time>
  </trkpt>
  <trkpt lat="33.981619" lon="-3.019561">
   <ele>1349.00</ele>
   <time>2014-04-07T08:15:42Z</time>
  </trkpt>
  <trkpt lat="33.981670" lon="-3.019305">
   <ele>1349.00</ele>
   <time>2014-04-07T08:15:44Z</time>
  </trkpt>
  <trkpt lat="33.981752" lon="-3.019064">
   <ele>1349.00</ele>
   <time>2014-04-07T08:15:46Z</time>
  </trkpt>
  <trkpt lat="33.981880" lon="-3.018861">
   <ele>1348.00</ele>
   <time>2014-04-07T08:15:48Z</time>
  </trkpt>
  <trkpt lat="33.982061" lon="-3.018702">
   <ele>1347.00</ele>
   <time>2014-04-07T08:15:50Z</time>
  </trkpt>
  <trkpt lat="33.982475" lon="-3.018381">
   <ele>1346.00</ele>
   <time>2014-04-07T08:15:54Z</time>
  </trkpt>
  <trkpt lat="33.982703" lon="-3.018244">
   <ele>1346.00</ele>
   <time>2014-04-07T08:15:56Z</time>
  </trkpt>
  <trkpt lat="33.982934" lon="-3.018115">
   <ele>1345.00</ele>
   <time>2014-04-07T08:15:58Z</time>
  </trkpt>
  <trkpt lat="33.983155" lon="-3.017969">
   <ele>1344.00</ele>
   <time>2014-04-07T08:16:00Z</time>
  </trkpt>
  <trkpt lat="33.983797" lon="-3.017527">
   <ele>1343.00</ele>
   <time>2014-04-07T08:16:07Z</time>
  </trkpt>
  <trkpt lat="33.983888" lon="-3.017330">
   <ele>1342.00</ele>
   <time>2014-04-07T08:16:10Z</time>
  </trkpt>
  <trkpt lat="33.983797" lon="-3.017074">
   <ele>1340.00</ele>
   <time>2014-04-07T08:16:13Z</time>
  </trkpt>
  <trkpt lat="33.983719" lon="-3.016878">
   <ele>1339.00</ele>
   <time>2014-04-07T08:16:15Z</time>
  </trkpt>
  <trkpt lat="33.983581" lon="-3.016426">
   <ele>1336.00</ele>
   <time>2014-04-07T08:16:19Z</time>
  </trkpt>
  <trkpt lat="33.983531" lon="-3.016184">
   <ele>1335.00</ele>
   <time>2014-04-07T08:16:21Z</time>
  </trkpt>
  <trkpt lat="33.983506" lon="-3.015936">
   <ele>1334.00</ele>
   <time>2014-04-07T08:16:23Z</time>
  </trkpt>
  <trkpt lat="33.983481" lon="-3.015690">
   <ele>1332.00</ele>
   <time>2014-04-07T08:16:25Z</time>
  </trkpt>
  <trkpt lat="33.983446" lon="-3.015441">
   <ele>1331.00</ele>
   <time>2014-04-07T08:16:27Z</time>
  </trkpt>
  <trkpt lat="33.983414" lon="-3.015187">
   <ele>1330.00</ele>
   <time>2014-04-07T08:16:29Z</time>
  </trkpt>
  <trkpt lat="33.983414" lon="-3.014944">
   <ele>1329.00</ele>
   <time>2014-04-07T08:16:31Z</time>
  </trkpt>
  <trkpt lat="33.983461" lon="-3.014728">
   <ele>1328.00</ele>
   <time>2014-04-07T08:16:33Z</time>
  </trkpt>
  <trkpt lat="33.983621" lon="-3.014498">
   <ele>1326.00</ele>
   <time>2014-04-07T08:16:36Z</time>
  </trkpt>
  <trkpt lat="33.983861" lon="-3.014411">
   <ele>1323.00</ele>
   <time>2014-04-07T08:16:39Z</time>
  </trkpt>
  <trkpt lat="33.984129" lon="-3.014446">
   <ele>1321.00</ele>
   <time>2014-04-07T08:16:42Z</time>
  </trkpt>
  <trkpt lat="33.984279" lon="-3.014564">
   <ele>1320.00</ele>
   <time>2014-04-07T08:16:44Z</time>
  </trkpt>
  <trkpt lat="33.984384" lon="-3.014742">
   <ele>1319.00</ele>
   <time>2014-04-07T08:16:46Z</time>
  </trkpt>
  <trkpt lat="33.984423" lon="-3.014953">
   <ele>1317.00</ele>
   <time>2014-04-07T08:16:48Z</time>
  </trkpt>
  <trkpt lat="33.984337" lon="-3.015255">
   <ele>1314.00</ele>
   <time>2014-04-07T08:16:51Z</time>
  </trkpt>
  <trkpt lat="33.984167" lon="-3.015533">
   <ele>1311.00</ele>
   <time>2014-04-07T08:16:54Z</time>
  </trkpt>
  <trkpt lat="33.983952" lon="-3.015890">
   <ele>1308.00</ele>
   <time>2014-04-07T08:16:58Z</time>
  </trkpt>
  <trkpt lat="33.983949" lon="-3.016171">
   <ele>1305.00</ele>
   <time>2014-04-07T08:17:01Z</time>
  </trkpt>
  <trkpt lat="33.984084" lon="-3.016450">
   <ele>1304.00</ele>
   <time>2014-04-07T08:17:04Z</time>
  </trkpt>
  <trkpt lat="33.984201" lon="-3.016633">
   <ele>1302.00</ele>
   <time>2014-04-07T08:17:06Z</time>
  </trkpt>
  <trkpt lat="33.984354" lon="-3.016784">
   <ele>1301.00</ele>
   <time>2014-04-07T08:17:08Z</time>
  </trkpt>
  <trkpt lat="33.984538" lon="-3.016898">
   <ele>1299.00</ele>
   <time>2014-04-07T08:17:10Z</time>
  </trkpt>
  <trkpt lat="33.985044" lon="-3.017153">
   <ele>1295.00</ele>
   <time>2014-04-07T08:17:15Z</time>
  </trkpt>
  <trkpt lat="33.985249" lon="-3.017243">
   <ele>1293.00</ele>
   <time>2014-04-07T08:17:17Z</time>
  </trkpt>
  <trkpt lat="33.985430" lon="-3.017372">
   <ele>1292.00</ele>
   <time>2014-04-07T08:17:19Z</time>
  </trkpt>
  <trkpt lat="33.985692" lon="-3.017592">
   <ele>1289.00</ele>
   <time>2014-04-07T08:17:22Z</time>
  </trkpt>
  <trkpt lat="33.985846" lon="-3.017708">
   <ele>1287.00</ele>
   <time>2014-04-07T08:17:24Z</time>
  </trkpt>
  <trkpt lat="33.985953" lon="-3.017923">
   <ele>1285.00</ele>
   <time>2014-04-07T08:17:27Z</time>
  </trkpt>
  <trkpt lat="33.985888" lon="-3.018180">
   <ele>1283.00</ele>
   <time>2014-04-07T08:17:30Z</time>
  </trkpt>
  <trkpt lat="33.985728" lon="-3.018408">
   <ele>1280.00</ele>
   <time>2014-04-07T08:17:33Z</time>
  </trkpt>
  <trkpt lat="33.985530" lon="-3.018580">
   <ele>1278.00</ele>
   <time>2014-04-07T08:17:36Z</time>
  </trkpt>
  <trkpt lat="33.985278" lon="-3.018660">
   <ele>1276.00</ele>
   <time>2014-04-07T08:17:39Z</time>
  </trkpt>
  <trkpt lat="33.984475" lon="-3.018876">
   <ele>1270.00</ele>
   <time>2014-04-07T08:17:47Z</time>
  </trkpt>
  <trkpt lat="33.984301" lon="-3.018988">
   <ele>1269.00</ele>
   <time>2014-04-07T08:17:49Z</time>
  </trkpt>
  <trkpt lat="33.984174" lon="-3.019163">
   <ele>1268.00</ele>
   <time>2014-04-07T08:17:51Z</time>
  </trkpt>
  <trkpt lat="33.984039" lon="-3.019342">
   <ele>1267.00</ele>
   <time>2014-04-07T08:17:53Z</time>
  </trkpt>
  <trkpt lat="33.983333" lon="-3.020204">
   <ele>1259.00</ele>
   <time>2014-04-07T08:18:03Z</time>
  </trkpt>
  <trkpt lat="33.983271" lon="-3.020407">
   <ele>1258.00</ele>
   <time>2014-04-07T08:18:06Z</time>
  </trkpt>
  <trkpt lat="33.983430" lon="-3.020581">
   <ele>1255.00</ele>
   <time>2014-04-07T08:18:09Z</time>
  </trkpt>
  <trkpt lat="33.983637" lon="-3.020774">
   <ele>1253.00</ele>
   <time>2014-04-07T08:18:12Z</time>
  </trkpt>
  <trkpt lat="33.983779" lon="-3.021004">
   <ele>1252.00</ele>
   <time>2014-04-07T08:18:15Z</time>
  </trkpt>
  <trkpt lat="33.983768" lon="-3.021246">
   <ele>1250.00</ele>
   <time>2014-04-07T08:18:18Z</time>
  </trkpt>
  <trkpt lat="33.983617" lon="-3.021356">
   <ele>1249.00</ele>
   <time>2014-04-07T08:18:21Z</time>
  </trkpt>
  <trkpt lat="33.983395" lon="-3.021373">
   <ele>1247.00</ele>
   <time>2014-04-07T08:18:24Z</time>
  </trkpt>
  <trkpt lat="33.983155" lon="-3.021428">
   <ele>1245.00</ele>
   <time>2014-04-07T08:18:27Z</time>
  </trkpt>
  <trkpt lat="33.982979" lon="-3.021627">
   <ele>1243.00</ele>
   <time>2014-04-07T08:18:30Z</time>
  </trkpt>
  <trkpt lat="33.982835" lon="-3.021850">
   <ele>1241.00</ele>
   <time>2014-04-07T08:18:33Z</time>
  </trkpt>
  <trkpt lat="33.982740" lon="-3.022056">
   <ele>1240.00</ele>
   <time>2014-04-07T08:18:36Z</time>
  </trkpt>
  <trkpt lat="33.982784" lon="-3.022334">
   <ele>1238.00</ele>
   <time>2014-04-07T08:18:39Z</time>
  </trkpt>
  <trkpt lat="33.982821" lon="-3.022553">
   <ele>1237.00</ele>
   <time>2014-04-07T08:18:41Z</time>
  </trkpt>
  <trkpt lat="33.982841" lon="-3.022783">
   <ele>1236.00</ele>
   <time>2014-04-07T08:18:43Z</time>
  </trkpt>
  <trkpt lat="33.982831" lon="-3.023006">
   <ele>1235.00</ele>
   <time>2014-04-07T08:18:45Z</time>
  </trkpt>
  <trkpt lat="33.982726" lon="-3.023250">
   <ele>1232.00</ele>
   <time>2014-04-07T08:18:48Z</time>
  </trkpt>
  <trkpt lat="33.982528" lon="-3.023332">
   <ele>1230.00</ele>
   <time>2014-04-07T08:18:51Z</time>
  </trkpt>
  <trkpt lat="33.982301" lon="-3.023371">
   <ele>1228.00</ele>
   <time>2014-04-07T08:18:54Z</time>
  </trkpt>
  <trkpt lat="33.982069" lon="-3.023499">
   <ele>1227.00</ele>
   <time>2014-04-07T08:18:57Z</time>
  </trkpt>
  <trkpt lat="33.981830" lon="-3.023612">
   <ele>1226.00</ele>
   <time>2014-04-07T08:19:00Z</time>
  </trkpt>
  <trkpt lat="33.981674" lon="-3.023768">
   <ele>1226.00</ele>
   <time>2014-04-07T08:19:03Z</time>
  </trkpt>
  <trkpt lat="33.981699" lon="-3.024035">
   <ele>1225.00</ele>
   <time>2014-04-07T08:19:06Z</time>
  </trkpt>
  <trkpt lat="33.981759" lon="-3.024241">
   <ele>1224.00</ele>
   <time>2014-04-07T08:19:08Z</time>
  </trkpt>
  <trkpt lat="33.981823" lon="-3.024464">
   <ele>1223.00</ele>
   <time>2014-04-07T08:19:10Z</time>
  </trkpt>
  <trkpt lat="33.981870" lon="-3.024695">
   <ele>1221.00</ele>
   <time>2014-04-07T08:19:12Z</time>
  </trkpt>
  <trkpt lat="33.981882" lon="-3.024976">
   <ele>1220.00</ele>
   <time>2014-04-07T08:19:15Z</time>
  </trkpt>
  <trkpt lat="33.981727" lon="-3.025089">
   <ele>1219.00</ele>
   <time>2014-04-07T08:19:18Z</time>
  </trkpt>
  <trkpt lat="33.981481" lon="-3.025048">
   <ele>1218.00</ele>
   <time>2014-04-07T08:19:21Z</time>
  </trkpt>
  <trkpt lat="33.981309" lon="-3.024957">
   <ele>1217.00</ele>
   <time>2014-04-07T08:19:23Z</time>
  </trkpt>
  <trkpt lat="33.981140" lon="-3.024849">
   <ele>1216.00</ele>
   <time>2014-04-07T08:19:25Z</time>
  </trkpt>
  <trkpt lat="33.980810" lon="-3.024621">
   <ele>1214.00</ele>
   <time>2014-04-07T08:19:29Z</time>
  </trkpt>
  <trkpt lat="33.980633" lon="-3.024560">
   <ele>1213.00</ele>
   <time>2014-04-07T08:19:31Z</time>
  </trkpt>
  <trkpt lat="33.980449" lon="-3.024547">
   <ele>1212.00</ele>
   <time>2014-04-07T08:19:33Z</time>
  </trkpt>
  <trkpt lat="33.980270" lon="-3.024508">
   <ele>1211.00</ele>
   <time>2014-04-07T08:19:35Z</time>
  </trkpt>
  <trkpt lat="33.980099" lon="-3.024435">
   <ele>1211.00</ele>
   <time>2014-04-07T08:19:37Z</time>
  </trkpt>
  <trkpt lat="33.979859" lon="-3.024394">
   <ele>1209.00</ele>
   <time>2014-04-07T08:19:40Z</time>
  </trkpt>
  <trkpt lat="33.979719" lon="-3.024602">
   <ele>1207.00</ele>
   <time>2014-04-07T08:19:43Z</time>
  </trkpt>
  <trkpt lat="33.979707" lon="-3.024933">
   <ele>1206.00</ele>
   <time>2014-04-07T08:19:46Z</time>
  </trkpt>
  <trkpt lat="33.979698" lon="-3.025168">
   <ele>1205.00</ele>
   <time>2014-04-07T08:19:48Z</time>
  </trkpt>
  <trkpt lat="33.979664" lon="-3.025401">
   <ele>1204.00</ele>
   <time>2014-04-07T08:19:50Z</time>
  </trkpt>
  <trkpt lat="33.979653" lon="-3.025642">
   <ele>1203.00</ele>
   <time>2014-04-07T08:19:52Z</time>
  </trkpt>
  <trkpt lat="33.979684" lon="-3.025878">
   <ele>1201.00</ele>
   <time>2014-04-07T08:19:54Z</time>
  </trkpt>
  <trkpt lat="33.979666" lon="-3.026168">
   <ele>1200.00</ele>
   <time>2014-04-07T08:19:57Z</time>
  </trkpt>
  <trkpt lat="33.979487" lon="-3.026323">
   <ele>1199.00</ele>
   <time>2014-04-07T08:20:00Z</time>
  </trkpt>
  <trkpt lat="33.979254" lon="-3.026404">
   <ele>1197.00</ele>
   <time>2014-04-07T08:20:03Z</time>
  </trkpt>
  <trkpt lat="33.979102" lon="-3.026638">
   <ele>1195.00</ele>
   <time>2014-04-07T08:20:06Z</time>
  </trkpt>
  <trkpt lat="33.978938" lon="-3.026871">
   <ele>1194.00</ele>
   <time>2014-04-07T08:20:09Z</time>
  </trkpt>
  <trkpt lat="33.978728" lon="-3.027047">
   <ele>1193.00</ele>
   <time>2014-04-07T08:20:12Z</time>
  </trkpt>
  <trkpt lat="33.978620" lon="-3.027235">
   <ele>1192.00</ele>
   <time>2014-04-07T08:20:15Z</time>
  </trkpt>
  <trkpt lat="33.978725" lon="-3.027420">
   <ele>1190.00</ele>
   <time>2014-04-07T08:20:18Z</time>
  </trkpt>
  <trkpt lat="33.978941" lon="-3.027607">
   <ele>1188.00</ele>
   <time>2014-04-07T08:20:21Z</time>
  </trkpt>
  <trkpt lat="33.979085" lon="-3.027779">
   <ele>1187.00</ele>
   <time>2014-04-07T08:20:23Z</time>
  </trkpt>
  <trkpt lat="33.979220" lon="-3.027977">
   <ele>1185.00</ele>
   <time>2014-04-07T08:20:25Z</time>
  </trkpt>
  <trkpt lat="33.979344" lon="-3.028189">
   <ele>1184.00</ele>
   <time>2014-04-07T08:20:27Z</time>
  </trkpt>
  <trkpt lat="33.979430" lon="-3.028391">
   <ele>1183.00</ele>
   <time>2014-04-07T08:20:29Z</time>
  </trkpt>
  <trkpt lat="33.979396" lon="-3.028629">
   <ele>1181.00</ele>
   <time>2014-04-07T08:20:32Z</time>
  </trkpt>
  <trkpt lat="33.979185" lon="-3.028730">
   <ele>1179.00</ele>
   <time>2014-04-07T08:20:35Z</time>
  </trkpt>
  <trkpt lat="33.978921" lon="-3.028802">
   <ele>1177.00</ele>
   <time>2014-04-07T08:20:38Z</time>
  </trkpt>
  <trkpt lat="33.978730" lon="-3.028838">
   <ele>1175.00</ele>
   <time>2014-04-07T08:20:40Z</time>
  </trkpt>
  <trkpt lat="33.978533" lon="-3.028855">
   <ele>1174.00</ele>
   <time>2014-04-07T08:20:42Z</time>
  </trkpt>
  <trkpt lat="33.978248" lon="-3.028867">
   <ele>1172.00</ele>
   <time>2014-04-07T08:20:45Z</time>
  </trkpt>
  <trkpt lat="33.978018" lon="-3.029014">
   <ele>1170.00</ele>
   <time>2014-04-07T08:20:48Z</time>
  </trkpt>
  <trkpt lat="33.977872" lon="-3.029144">
   <ele>1169.00</ele>
   <time>2014-04-07T08:20:50Z</time>
  </trkpt>
  <trkpt lat="33.977670" lon="-3.029283">
   <ele>1168.00</ele>
   <time>2014-04-07T08:20:53Z</time>
  </trkpt>
  <trkpt lat="33.977644" lon="-3.029497">
   <ele>1166.00</ele>
   <time>2014-04-07T08:20:56Z</time>
  </trkpt>
  <trkpt lat="33.977847" lon="-3.029703">
   <ele>1164.00</ele>
   <time>2014-04-07T08:20:59Z</time>
  </trkpt>
  <trkpt lat="33.978053" lon="-3.029816">
   <ele>1162.00</ele>
   <time>2014-04-07T08:21:01Z</time>
  </trkpt>
  <trkpt lat="33.978389" lon="-3.030010">
   <ele>1160.00</ele>
   <time>2014-04-07T08:21:04Z</time>
  </trkpt>
  <trkpt lat="33.978610" lon="-3.030156">
   <ele>1158.00</ele>
   <time>2014-04-07T08:21:06Z</time>
  </trkpt>
  <trkpt lat="33.978815" lon="-3.030334">
   <ele>1157.00</ele>
   <time>2014-04-07T08:21:08Z</time>
  </trkpt>
  <trkpt lat="33.979019" lon="-3.030490">
   <ele>1155.00</ele>
   <time>2014-04-07T08:21:10Z</time>
  </trkpt>
  <trkpt lat="33.979237" lon="-3.030579">
   <ele>1154.00</ele>
   <time>2014-04-07T08:21:12Z</time>
  </trkpt>
  <trkpt lat="33.979442" lon="-3.030695">
   <ele>1153.00</ele>
   <time>2014-04-07T08:21:14Z</time>
  </trkpt>
  <trkpt lat="33.979620" lon="-3.030867">
   <ele>1151.00</ele>
   <time>2014-04-07T08:21:16Z</time>
  </trkpt>
  <trkpt lat="33.979769" lon="-3.031081">
   <ele>1150.00</ele>
   <time>2014-04-07T08:21:18Z</time>
  </trkpt>
  <trkpt lat="33.979906" lon="-3.031292">
   <ele>1148.00</ele>
   <time>2014-04-07T08:21:20Z</time>
  </trkpt>
  <trkpt lat="33.980116" lon="-3.031563">
   <ele>1147.00</ele>
   <time>2014-04-07T08:21:23Z</time>
  </trkpt>
  <trkpt lat="33.980179" lon="-3.031795">
   <ele>1145.00</ele>
   <time>2014-04-07T08:21:25Z</time>
  </trkpt>
  <trkpt lat="33.980208" lon="-3.032044">
   <ele>1144.00</ele>
   <time>2014-04-07T08:21:27Z</time>
  </trkpt>
  <trkpt lat="33.980249" lon="-3.032293">
   <ele>1143.00</ele>
   <time>2014-04-07T08:21:29Z</time>
  </trkpt>
  <trkpt lat="33.980308" lon="-3.032539">
   <ele>1142.00</ele>
   <time>2014-04-07T08:21:31Z</time>
  </trkpt>
  <trkpt lat="33.980323" lon="-3.032792">
   <ele>1141.00</ele>
   <time>2014-04-07T08:21:33Z</time>
  </trkpt>
  <trkpt lat="33.980287" lon="-3.033039">
   <ele>1140.00</ele>
   <time>2014-04-07T08:21:35Z</time>
  </trkpt>
  <trkpt lat="33.980214" lon="-3.033265">
   <ele>1140.00</ele>
   <time>2014-04-07T08:21:37Z</time>
  </trkpt>
  <trkpt lat="33.980126" lon="-3.033471">
   <ele>1139.00</ele>
   <time>2014-04-07T08:21:39Z</time>
  </trkpt>
  <trkpt lat="33.980040" lon="-3.033668">
   <ele>1138.00</ele>
   <time>2014-04-07T08:21:41Z</time>
  </trkpt>
  <trkpt lat="33.979985" lon="-3.033963">
   <ele>1138.00</ele>
   <time>2014-04-07T08:21:44Z</time>
  </trkpt>
  <trkpt lat="33.980079" lon="-3.034245">
   <ele>1137.00</ele>
   <time>2014-04-07T08:21:47Z</time>
  </trkpt>
  <trkpt lat="33.980276" lon="-3.034419">
   <ele>1135.00</ele>
   <time>2014-04-07T08:21:50Z</time>
  </trkpt>
  <trkpt lat="33.980514" lon="-3.034341">
   <ele>1132.00</ele>
   <time>2014-04-07T08:21:53Z</time>
  </trkpt>
  <trkpt lat="33.980663" lon="-3.034212">
   <ele>1130.00</ele>
   <time>2014-04-07T08:21:55Z</time>
  </trkpt>
  <trkpt lat="33.980800" lon="-3.033989">
   <ele>1128.00</ele>
   <time>2014-04-07T08:21:58Z</time>
  </trkpt>
  <trkpt lat="33.980747" lon="-3.033691">
   <ele>1126.00</ele>
   <time>2014-04-07T08:22:01Z</time>
  </trkpt>
  <trkpt lat="33.980686" lon="-3.033468">
   <ele>1125.00</ele>
   <time>2014-04-07T08:22:03Z</time>
  </trkpt>
  <trkpt lat="33.980639" lon="-3.033233">
   <ele>1123.00</ele>
   <time>2014-04-07T08:22:05Z</time>
  </trkpt>
  <trkpt lat="33.980640" lon="-3.032993">
   <ele>1121.00</ele>
   <time>2014-04-07T08:22:07Z</time>
  </trkpt>
  <trkpt lat="33.980695" lon="-3.032761">
   <ele>1120.00</ele>
   <time>2014-04-07T08:22:09Z</time>
  </trkpt>
  <trkpt lat="33.980751" lon="-3.032524">
   <ele>1118.00</ele>
   <time>2014-04-07T08:22:11Z</time>
  </trkpt>
  <trkpt lat="33.980778" lon="-3.032272">
   <ele>1116.00</ele>
   <time>2014-04-07T08:22:13Z</time>
  </trkpt>
  <trkpt lat="33.980774" lon="-3.032010">
   <ele>1115.00</ele>
   <time>2014-04-07T08:22:15Z</time>
  </trkpt>
  <trkpt lat="33.980786" lon="-3.031744">
   <ele>1113.00</ele>
   <time>2014-04-07T08:22:17Z</time>
  </trkpt>
  <trkpt lat="33.980815" lon="-3.031339">
   <ele>1111.00</ele>
   <time>2014-04-07T08:22:20Z</time>
  </trkpt>
  <trkpt lat="33.980813" lon="-3.031068">
   <ele>1109.00</ele>
   <time>2014-04-07T08:22:22Z</time>
  </trkpt>
  <trkpt lat="33.980777" lon="-3.030823">
   <ele>1108.00</ele>
   <time>2014-04-07T08:22:24Z</time>
  </trkpt>
  <trkpt lat="33.980716" lon="-3.030603">
   <ele>1107.00</ele>
   <time>2014-04-07T08:22:26Z</time>
  </trkpt>
  <trkpt lat="33.980680" lon="-3.030343">
   <ele>1105.00</ele>
   <time>2014-04-07T08:22:29Z</time>
  </trkpt>
  <trkpt lat="33.980853" lon="-3.030231">
   <ele>1104.00</ele>
   <time>2014-04-07T08:22:32Z</time>
  </trkpt>
  <trkpt lat="33.981092" lon="-3.030326">
   <ele>1103.00</ele>
   <time>2014-04-07T08:22:35Z</time>
  </trkpt>
  <trkpt lat="33.981260" lon="-3.030455">
   <ele>1101.00</ele>
   <time>2014-04-07T08:22:37Z</time>
  </trkpt>
  <trkpt lat="33.981436" lon="-3.030619">
   <ele>1100.00</ele>
   <time>2014-04-07T08:22:39Z</time>
  </trkpt>
  <trkpt lat="33.981615" lon="-3.030805">
   <ele>1098.00</ele>
   <time>2014-04-07T08:22:41Z</time>
  </trkpt>
  <trkpt lat="33.981988" lon="-3.031214">
   <ele>1095.00</ele>
   <time>2014-04-07T08:22:45Z</time>
  </trkpt>
  <trkpt lat="33.982191" lon="-3.031410">
   <ele>1093.00</ele>
   <time>2014-04-07T08:22:47Z</time>
  </trkpt>
  <trkpt lat="33.982386" lon="-3.031548">
   <ele>1091.00</ele>
   <time>2014-04-07T08:22:49Z</time>
  </trkpt>
  <trkpt lat="33.982639" lon="-3.031521">
   <ele>1089.00</ele>
   <time>2014-04-07T08:22:52Z</time>
  </trkpt>
  <trkpt lat="33.982751" lon="-3.031345">
   <ele>1087.00</ele>
   <time>2014-04-07T08:22:54Z</time>
  </trkpt>
  <trkpt lat="33.982848" lon="-3.031130">
   <ele>1085.00</ele>
   <time>2014-04-07T08:22:56Z</time>
  </trkpt>
  <trkpt lat="33.982978" lon="-3.030920">
   <ele>1083.00</ele>
   <time>2014-04-07T08:22:58Z</time>
  </trkpt>
  <trkpt lat="33.983108" lon="-3.030725">
   <ele>1082.00</ele>
   <time>2014-04-07T08:23:00Z</time>
  </trkpt>
  <trkpt lat="33.983238" lon="-3.030497">
   <ele>1081.00</ele>
   <time>2014-04-07T08:23:03Z</time>
  </trkpt>
  <trkpt lat="33.983422" lon="-3.030430">
   <ele>1080.00</ele>
   <time>2014-04-07T08:23:06Z</time>
  </trkpt>
  <trkpt lat="33.983607" lon="-3.030580">
   <ele>1079.00</ele>
   <time>2014-04-07T08:23:09Z</time>
  </trkpt>
  <trkpt lat="33.983752" lon="-3.030850">
   <ele>1077.00</ele>
   <time>2014-04-07T08:23:12Z</time>
  </trkpt>
  <trkpt lat="33.983865" lon="-3.031033">
   <ele>1075.00</ele>
   <time>2014-04-07T08:23:14Z</time>
  </trkpt>
  <trkpt lat="33.983992" lon="-3.031210">
   <ele>1073.00</ele>
   <time>2014-04-07T08:23:16Z</time>
  </trkpt>
  <trkpt lat="33.984114" lon="-3.031383">
   <ele>1072.00</ele>
   <time>2014-04-07T08:23:18Z</time>
  </trkpt>
  <trkpt lat="33.984192" lon="-3.031583">
   <ele>1071.00</ele>
   <time>2014-04-07T08:23:20Z</time>
  </trkpt>
  <trkpt lat="33.984255" lon="-3.031790">
   <ele>1070.00</ele>
   <time>2014-04-07T08:23:22Z</time>
  </trkpt>
  <trkpt lat="33.984437" lon="-3.031994">
   <ele>1068.00</ele>
   <time>2014-04-07T08:23:25Z</time>
  </trkpt>
  <trkpt lat="33.984672" lon="-3.032080">
   <ele>1067.00</ele>
   <time>2014-04-07T08:23:28Z</time>
  </trkpt>
  <trkpt lat="33.984867" lon="-3.032396">
   <ele>1064.00</ele>
   <time>2014-04-07T08:23:32Z</time>
  </trkpt>
  <trkpt lat="33.985048" lon="-3.032618">
   <ele>1062.00</ele>
   <time>2014-04-07T08:23:35Z</time>
  </trkpt>
  <trkpt lat="33.985274" lon="-3.032783">
   <ele>1060.00</ele>
   <time>2014-04-07T08:23:38Z</time>
  </trkpt>
  <trkpt lat="33.985520" lon="-3.032910">
   <ele>1058.00</ele>
   <time>2014-04-07T08:23:41Z</time>
  </trkpt>
  <trkpt lat="33.985683" lon="-3.033011">
   <ele>1056.00</ele>
   <time>2014-04-07T08:23:43Z</time>
  </trkpt>
  <trkpt lat="33.985827" lon="-3.033153">
   <ele>1055.00</ele>
   <time>2014-04-07T08:23:45Z</time>
  </trkpt>
  <trkpt lat="33.986036" lon="-3.033382">
   <ele>1052.00</ele>
   <time>2014-04-07T08:23:48Z</time>
  </trkpt>
  <trkpt lat="33.986268" lon="-3.033515">
   <ele>1051.00</ele>
   <time>2014-04-07T08:23:51Z</time>
  </trkpt>
  <trkpt lat="33.986496" lon="-3.033441">
   <ele>1049.00</ele>
   <time>2014-04-07T08:23:54Z</time>
  </trkpt>
  <trkpt lat="33.986728" lon="-3.033268">
   <ele>1047.00</ele>
   <time>2014-04-07T08:23:57Z</time>
  </trkpt>
  <trkpt lat="33.986905" lon="-3.033176">
   <ele>1046.00</ele>
   <time>2014-04-07T08:23:59Z</time>
  </trkpt>
  <trkpt lat="33.987094" lon="-3.033104">
   <ele>1045.00</ele>
   <time>2014-04-07T08:24:01Z</time>
  </trkpt>
  <trkpt lat="33.987292" lon="-3.033089">
   <ele>1043.00</ele>
   <time>2014-04-07T08:24:03Z</time>
  </trkpt>
  <trkpt lat="33.987482" lon="-3.033166">
   <ele>1042.00</ele>
   <time>2014-04-07T08:24:05Z</time>
  </trkpt>
  <trkpt lat="33.987652" lon="-3.033287">
   <ele>1039.00</ele>
   <time>2014-04-07T08:24:07Z</time>
  </trkpt>
  <trkpt lat="33.987794" lon="-3.033424">
   <ele>1038.00</ele>
   <time>2014-04-07T08:24:09Z</time>
  </trkpt>
  <trkpt lat="33.987901" lon="-3.033689">
   <ele>1036.00</ele>
   <time>2014-04-07T08:24:12Z</time>
  </trkpt>
  <trkpt lat="33.987834" lon="-3.033926">
   <ele>1035.00</ele>
   <time>2014-04-07T08:24:15Z</time>
  </trkpt>
  <trkpt lat="33.987648" lon="-3.033997">
   <ele>1034.00</ele>
   <time>2014-04-07T08:24:18Z</time>
  </trkpt>
  <trkpt lat="33.987474" lon="-3.033853">
   <ele>1032.00</ele>
   <time>2014-04-07T08:24:21Z</time>
  </trkpt>
  <trkpt lat="33.987305" lon="-3.033637">
   <ele>1031.00</ele>
   <time>2014-04-07T08:24:24Z</time>
  </trkpt>
  <trkpt lat="33.987090" lon="-3.033547">
   <ele>1031.00</ele>
   <time>2014-04-07T08:24:27Z</time>
  </trkpt>
  <trkpt lat="33.986863" lon="-3.033624">
   <ele>1032.00</ele>
   <time>2014-04-07T08:24:30Z</time>
  </trkpt>
  <trkpt lat="33.986687" lon="-3.033829">
   <ele>1033.00</ele>
   <time>2014-04-07T08:24:33Z</time>
  </trkpt>
  <trkpt lat="33.986518" lon="-3.034034">
   <ele>1033.00</ele>
   <time>2014-04-07T08:24:36Z</time>
  </trkpt>
  <trkpt lat="33.986299" lon="-3.034149">
   <ele>1034.00</ele>
   <time>2014-04-07T08:24:39Z</time>
  </trkpt>
  <trkpt lat="33.986051" lon="-3.034156">
   <ele>1034.00</ele>
   <time>2014-04-07T08:24:42Z</time>
  </trkpt>
  <trkpt lat="33.985805" lon="-3.034139">
   <ele>1034.00</ele>
   <time>2014-04-07T08:24:45Z</time>
  </trkpt>
  <trkpt lat="33.985572" lon="-3.034197">
   <ele>1035.00</ele>
   <time>2014-04-07T08:24:48Z</time>
  </trkpt>
  <trkpt lat="33.985354" lon="-3.034338">
   <ele>1035.00</ele>
   <time>2014-04-07T08:24:51Z</time>
  </trkpt>
  <trkpt lat="33.985191" lon="-3.034545">
   <ele>1035.00</ele>
   <time>2014-04-07T08:24:54Z</time>
  </trkpt>
  <trkpt lat="33.985097" lon="-3.034824">
   <ele>1034.00</ele>
   <time>2014-04-07T08:24:57Z</time>
  </trkpt>
  <trkpt lat="33.985013" lon="-3.035283">
   <ele>1031.00</ele>
   <time>2014-04-07T08:25:01Z</time>
  </trkpt>
  <trkpt lat="33.984981" lon="-3.035535">
   <ele>1030.00</ele>
   <time>2014-04-07T08:25:03Z</time>
  </trkpt>
  <trkpt lat="33.985001" lon="-3.035790">
   <ele>1027.00</ele>
   <time>2014-04-07T08:25:05Z</time>
  </trkpt>
  <trkpt lat="33.985084" lon="-3.036034">
   <ele>1024.00</ele>
   <time>2014-04-07T08:25:07Z</time>
  </trkpt>
  <trkpt lat="33.985200" lon="-3.036282">
   <ele>1022.00</ele>
   <time>2014-04-07T08:25:09Z</time>
  </trkpt>
  <trkpt lat="33.986079" lon="-3.037989">
   <ele>1004.00</ele>
   <time>2014-04-07T08:25:25Z</time>
  </trkpt>
  <trkpt lat="33.986437" lon="-3.038638">
   <ele>999.00</ele>
   <time>2014-04-07T08:25:35Z</time>
  </trkpt>
  <trkpt lat="33.986619" lon="-3.038922">
   <ele>996.00</ele>
   <time>2014-04-07T08:25:42Z</time>
  </trkpt>
  <trkpt lat="33.986644" lon="-3.038943">
   <ele>996.00</ele>
   <time>2014-04-07T08:25:58Z</time>
  </trkpt>
  <trkpt lat="33.986641" lon="-3.038933">
   <ele>997.00</ele>
   <time>2014-04-07T08:26:13Z</time>
  </trkpt>
  <trkpt lat="33.986638" lon="-3.038931">
   <ele>997.00</ele>
   <time>2014-04-07T08:26:29Z</time>
  </trkpt>
  <trkpt lat="33.986646" lon="-3.038934">
   <ele>997.00</ele>
   <time>2014-04-07T08:26:45Z</time>
  </trkpt>
  <trkpt lat="33.986644" lon="-3.038931">
   <ele>997.00</ele>
   <time>2014-04-07T08:27:00Z</time>
  </trkpt>
  <trkpt lat="33.986770" lon="-3.039103">
   <ele>995.00</ele>
   <time>2014-04-07T08:27:15Z</time>
  </trkpt>
  <trkpt lat="33.986954" lon="-3.039177">
   <ele>994.00</ele>
   <time>2014-04-07T08:27:23Z</time>
  </trkpt>
  <trkpt lat="33.987161" lon="-3.039137">
   <ele>993.00</ele>
   <time>2014-04-07T08:27:28Z</time>
  </trkpt>
  <trkpt lat="33.987382" lon="-3.039076">
   <ele>992.00</ele>
   <time>2014-04-07T08:27:32Z</time>
  </trkpt>
  <trkpt lat="33.988569" lon="-3.038659">
   <ele>985.00</ele>
   <time>2014-04-07T08:27:48Z</time>
  </trkpt>
  <trkpt lat="33.989486" lon="-3.038346">
   <ele>981.00</ele>
   <time>2014-04-07T08:28:00Z</time>
  </trkpt>
  <trkpt lat="33.990385" lon="-3.038076">
   <ele>976.00</ele>
   <time>2014-04-07T08:28:11Z</time>
  </trkpt>
  <trkpt lat="33.991235" lon="-3.037759">
   <ele>971.00</ele>
   <time>2014-04-07T08:28:21Z</time>
  </trkpt>
  <trkpt lat="33.992867" lon="-3.037126">
   <ele>958.00</ele>
   <time>2014-04-07T08:28:37Z</time>
  </trkpt>
  <trkpt lat="33.993351" lon="-3.036946">
   <ele>957.00</ele>
   <time>2014-04-07T08:28:44Z</time>
  </trkpt>
  <trkpt lat="33.993524" lon="-3.036842">
   <ele>957.00</ele>
   <time>2014-04-07T08:28:47Z</time>
  </trkpt>
  <trkpt lat="33.994758" lon="-3.035919">
   <ele>946.00</ele>
   <time>2014-04-07T08:29:02Z</time>
  </trkpt>
  <trkpt lat="33.996438" lon="-3.034659">
   <ele>936.00</ele>
   <time>2014-04-07T08:29:18Z</time>
  </trkpt>
  <trkpt lat="33.997198" lon="-3.034082">
   <ele>931.00</ele>
   <time>2014-04-07T08:29:25Z</time>
  </trkpt>
  <trkpt lat="33.997523" lon="-3.033830">
   <ele>929.00</ele>
   <time>2014-04-07T08:29:28Z</time>
  </trkpt>
  <trkpt lat="33.999163" lon="-3.032586">
   <ele>920.00</ele>
   <time>2014-04-07T08:29:44Z</time>
  </trkpt>
  <trkpt lat="33.999355" lon="-3.032424">
   <ele>920.00</ele>
   <time>2014-04-07T08:29:46Z</time>
  </trkpt>
  <trkpt lat="33.999540" lon="-3.032244">
   <ele>920.00</ele>
   <time>2014-04-07T08:29:48Z</time>
  </trkpt>
  <trkpt lat="33.999718" lon="-3.032046">
   <ele>919.00</ele>
   <time>2014-04-07T08:29:50Z</time>
  </trkpt>
  <trkpt lat="33.999889" lon="-3.031837">
   <ele>919.00</ele>
   <time>2014-04-07T08:29:52Z</time>
  </trkpt>
  <trkpt lat="34.000134" lon="-3.031510">
   <ele>918.00</ele>
   <time>2014-04-07T08:29:55Z</time>
  </trkpt>
  <trkpt lat="34.000368" lon="-3.031170">
   <ele>917.00</ele>
   <time>2014-04-07T08:29:58Z</time>
  </trkpt>
  <trkpt lat="34.001640" lon="-3.029306">
   <ele>913.00</ele>
   <time>2014-04-07T08:30:14Z</time>
  </trkpt>
  <trkpt lat="34.001994" lon="-3.028835">
   <ele>912.00</ele>
   <time>2014-04-07T08:30:18Z</time>
  </trkpt>
  <trkpt lat="34.002177" lon="-3.028629">
   <ele>911.00</ele>
   <time>2014-04-07T08:30:20Z</time>
  </trkpt>
  <trkpt lat="34.002461" lon="-3.028342">
   <ele>910.00</ele>
   <time>2014-04-07T08:30:23Z</time>
  </trkpt>
  <trkpt lat="34.002665" lon="-3.028167">
   <ele>909.00</ele>
   <time>2014-04-07T08:30:25Z</time>
  </trkpt>
  <trkpt lat="34.002883" lon="-3.028010">
   <ele>907.00</ele>
   <time>2014-04-07T08:30:27Z</time>
  </trkpt>
  <trkpt lat="34.003114" lon="-3.027876">
   <ele>906.00</ele>
   <time>2014-04-07T08:30:29Z</time>
  </trkpt>
  <trkpt lat="34.003351" lon="-3.027759">
   <ele>904.00</ele>
   <time>2014-04-07T08:30:31Z</time>
  </trkpt>
  <trkpt lat="34.004118" lon="-3.027406">
   <ele>900.00</ele>
   <time>2014-04-07T08:30:38Z</time>
  </trkpt>
  <trkpt lat="34.004317" lon="-3.027363">
   <ele>899.00</ele>
   <time>2014-04-07T08:30:40Z</time>
  </trkpt>
  <trkpt lat="34.004535" lon="-3.027380">
   <ele>897.00</ele>
   <time>2014-04-07T08:30:42Z</time>
  </trkpt>
  <trkpt lat="34.004772" lon="-3.027432">
   <ele>896.00</ele>
   <time>2014-04-07T08:30:44Z</time>
  </trkpt>
  <trkpt lat="34.005141" lon="-3.027531">
   <ele>893.00</ele>
   <time>2014-04-07T08:30:47Z</time>
  </trkpt>
  <trkpt lat="34.005629" lon="-3.027675">
   <ele>891.00</ele>
   <time>2014-04-07T08:30:51Z</time>
  </trkpt>
  <trkpt lat="34.005866" lon="-3.027763">
   <ele>890.00</ele>
   <time>2014-04-07T08:30:53Z</time>
  </trkpt>
  <trkpt lat="34.006407" lon="-3.027970">
   <ele>889.00</ele>
   <time>2014-04-07T08:30:58Z</time>
  </trkpt>
  <trkpt lat="34.006596" lon="-3.027962">
   <ele>890.00</ele>
   <time>2014-04-07T08:31:00Z</time>
  </trkpt>
  <trkpt lat="34.006786" lon="-3.027879">
   <ele>890.00</ele>
   <time>2014-04-07T08:31:02Z</time>
  </trkpt>
  <trkpt lat="34.006970" lon="-3.027726">
   <ele>889.00</ele>
   <time>2014-04-07T08:31:04Z</time>
  </trkpt>
  <trkpt lat="34.007131" lon="-3.027518">
   <ele>889.00</ele>
   <time>2014-04-07T08:31:06Z</time>
  </trkpt>
  <trkpt lat="34.007598" lon="-3.026835">
   <ele>889.00</ele>
   <time>2014-04-07T08:31:12Z</time>
  </trkpt>
  <trkpt lat="34.008348" lon="-3.025693">
   <ele>886.00</ele>
   <time>2014-04-07T08:31:21Z</time>
  </trkpt>
  <trkpt lat="34.008728" lon="-3.025190">
   <ele>885.00</ele>
   <time>2014-04-07T08:31:25Z</time>
  </trkpt>
  <trkpt lat="34.009028" lon="-3.024826">
   <ele>885.00</ele>
   <time>2014-04-07T08:31:28Z</time>
  </trkpt>
  <trkpt lat="34.010340" lon="-3.023325">
   <ele>880.00</ele>
   <time>2014-04-07T08:31:44Z</time>
  </trkpt>
  <trkpt lat="34.010908" lon="-3.022672">
   <ele>880.00</ele>
   <time>2014-04-07T08:31:51Z</time>
  </trkpt>
  <trkpt lat="34.011098" lon="-3.022503">
   <ele>880.00</ele>
   <time>2014-04-07T08:31:53Z</time>
  </trkpt>
  <trkpt lat="34.012276" lon="-3.021618">
   <ele>876.00</ele>
   <time>2014-04-07T08:32:03Z</time>
  </trkpt>
  <trkpt lat="34.012863" lon="-3.021193">
   <ele>875.00</ele>
   <time>2014-04-07T08:32:08Z</time>
  </trkpt>
  <trkpt lat="34.013115" lon="-3.021063">
   <ele>874.00</ele>
   <time>2014-04-07T08:32:10Z</time>
  </trkpt>
  <trkpt lat="34.013381" lon="-3.020955">
   <ele>873.00</ele>
   <time>2014-04-07T08:32:12Z</time>
  </trkpt>
  <trkpt lat="34.013938" lon="-3.020756">
   <ele>872.00</ele>
   <time>2014-04-07T08:32:16Z</time>
  </trkpt>
  <trkpt lat="34.014797" lon="-3.020470">
   <ele>870.00</ele>
   <time>2014-04-07T08:32:22Z</time>
  </trkpt>
  <trkpt lat="34.015213" lon="-3.020304">
   <ele>870.00</ele>
   <time>2014-04-07T08:32:25Z</time>
  </trkpt>
  <trkpt lat="34.015452" lon="-3.020135">
   <ele>870.00</ele>
   <time>2014-04-07T08:32:27Z</time>
  </trkpt>
  <trkpt lat="34.015635" lon="-3.019886">
   <ele>870.00</ele>
   <time>2014-04-07T08:32:29Z</time>
  </trkpt>
  <trkpt lat="34.015790" lon="-3.019597">
   <ele>870.00</ele>
   <time>2014-04-07T08:32:31Z</time>
  </trkpt>
  <trkpt lat="34.016022" lon="-3.019157">
   <ele>870.00</ele>
   <time>2014-04-07T08:32:34Z</time>
  </trkpt>
  <trkpt lat="34.016205" lon="-3.018879">
   <ele>869.00</ele>
   <time>2014-04-07T08:32:36Z</time>
  </trkpt>
  <trkpt lat="34.016409" lon="-3.018611">
   <ele>868.00</ele>
   <time>2014-04-07T08:32:38Z</time>
  </trkpt>
  <trkpt lat="34.016836" lon="-3.018100">
   <ele>866.00</ele>
   <time>2014-04-07T08:32:42Z</time>
  </trkpt>
  <trkpt lat="34.018360" lon="-3.016319">
   <ele>862.00</ele>
   <time>2014-04-07T08:32:57Z</time>
  </trkpt>
  <trkpt lat="34.019289" lon="-3.015232">
   <ele>859.00</ele>
   <time>2014-04-07T08:33:06Z</time>
  </trkpt>
  <trkpt lat="34.019516" lon="-3.015020">
   <ele>858.00</ele>
   <time>2014-04-07T08:33:08Z</time>
  </trkpt>
  <trkpt lat="34.019761" lon="-3.014841">
   <ele>857.00</ele>
   <time>2014-04-07T08:33:10Z</time>
  </trkpt>
  <trkpt lat="34.020008" lon="-3.014671">
   <ele>855.00</ele>
   <time>2014-04-07T08:33:12Z</time>
  </trkpt>
  <trkpt lat="34.020238" lon="-3.014479">
   <ele>854.00</ele>
   <time>2014-04-07T08:33:14Z</time>
  </trkpt>
  <trkpt lat="34.020534" lon="-3.014197">
   <ele>853.00</ele>
   <time>2014-04-07T08:33:17Z</time>
  </trkpt>
  <trkpt lat="34.020671" lon="-3.014052">
   <ele>852.00</ele>
   <time>2014-04-07T08:33:19Z</time>
  </trkpt>
  <trkpt lat="34.020813" lon="-3.013895">
   <ele>851.00</ele>
   <time>2014-04-07T08:33:24Z</time>
  </trkpt>
  <trkpt lat="34.020826" lon="-3.013884">
   <ele>852.00</ele>
   <time>2014-04-07T08:33:39Z</time>
  </trkpt>
  <trkpt lat="34.020814" lon="-3.013894">
   <ele>852.00</ele>
   <time>2014-04-07T08:33:55Z</time>
  </trkpt>
  <trkpt lat="34.020809" lon="-3.013903">
   <ele>853.00</ele>
   <time>2014-04-07T08:34:10Z</time>
  </trkpt>
  <trkpt lat="34.020805" lon="-3.013907">
   <ele>853.00</ele>
   <time>2014-04-07T08:34:26Z</time>
  </trkpt>
  <trkpt lat="34.020802" lon="-3.013909">
   <ele>853.00</ele>
   <time>2014-04-07T08:34:42Z</time>
  </trkpt>
  <trkpt lat="34.020802" lon="-3.013909">
   <ele>854.00</ele>
   <time>2014-04-07T08:34:57Z</time>
  </trkpt>
  <trkpt lat="34.020803" lon="-3.013909">
   <ele>855.00</ele>
   <time>2014-04-07T08:35:13Z</time>
  </trkpt>
  <trkpt lat="34.020803" lon="-3.013908">
   <ele>855.00</ele>
   <time>2014-04-07T08:35:28Z</time>
  </trkpt>
  <trkpt lat="34.020804" lon="-3.013909">
   <ele>855.00</ele>
   <time>2014-04-07T08:35:44Z</time>
  </trkpt>
  <trkpt lat="34.020805" lon="-3.013909">
   <ele>855.00</ele>
   <time>2014-04-07T08:36:00Z</time>
  </trkpt>
  <trkpt lat="34.020805" lon="-3.013910">
   <ele>855.00</ele>
   <time>2014-04-07T08:36:15Z</time>
  </trkpt>
  <trkpt lat="34.020804" lon="-3.013911">
   <ele>856.00</ele>
   <time>2014-04-07T08:36:31Z</time>
  </trkpt>
  <trkpt lat="34.020803" lon="-3.013912">
   <ele>855.00</ele>
   <time>2014-04-07T08:36:47Z</time>
  </trkpt>
  <trkpt lat="34.020800" lon="-3.013911">
   <ele>854.00</ele>
   <time>2014-04-07T08:37:02Z</time>
  </trkpt>
  <trkpt lat="34.020795" lon="-3.013911">
   <ele>853.00</ele>
   <time>2014-04-07T08:37:18Z</time>
  </trkpt>
  <trkpt lat="34.020814" lon="-3.013894">
   <ele>853.00</ele>
   <time>2014-04-07T08:37:33Z</time>
  </trkpt>
  <trkpt lat="34.020991" lon="-3.013748">
   <ele>853.00</ele>
   <time>2014-04-07T08:37:39Z</time>
  </trkpt>
  <trkpt lat="34.021419" lon="-3.013389">
   <ele>852.00</ele>
   <time>2014-04-07T08:37:46Z</time>
  </trkpt>
  <trkpt lat="34.021579" lon="-3.013278">
   <ele>851.00</ele>
   <time>2014-04-07T08:37:48Z</time>
  </trkpt>
  <trkpt lat="34.021762" lon="-3.013163">
   <ele>850.00</ele>
   <time>2014-04-07T08:37:50Z</time>
  </trkpt>
  <trkpt lat="34.022067" lon="-3.012995">
   <ele>849.00</ele>
   <time>2014-04-07T08:37:53Z</time>
  </trkpt>
  <trkpt lat="34.022488" lon="-3.012772">
   <ele>847.00</ele>
   <time>2014-04-07T08:37:57Z</time>
  </trkpt>
  <trkpt lat="34.022703" lon="-3.012642">
   <ele>846.00</ele>
   <time>2014-04-07T08:37:59Z</time>
  </trkpt>
  <trkpt lat="34.022905" lon="-3.012484">
   <ele>846.00</ele>
   <time>2014-04-07T08:38:01Z</time>
  </trkpt>
  <trkpt lat="34.023087" lon="-3.012287">
   <ele>845.00</ele>
   <time>2014-04-07T08:38:03Z</time>
  </trkpt>
  <trkpt lat="34.023247" lon="-3.012059">
   <ele>845.00</ele>
   <time>2014-04-07T08:38:05Z</time>
  </trkpt>
  <trkpt lat="34.023408" lon="-3.011826">
   <ele>845.00</ele>
   <time>2014-04-07T08:38:07Z</time>
  </trkpt>
  <trkpt lat="34.023600" lon="-3.011610">
   <ele>844.00</ele>
   <time>2014-04-07T08:38:09Z</time>
  </trkpt>
  <trkpt lat="34.023824" lon="-3.011406">
   <ele>843.00</ele>
   <time>2014-04-07T08:38:11Z</time>
  </trkpt>
  <trkpt lat="34.024073" lon="-3.011208">
   <ele>842.00</ele>
   <time>2014-04-07T08:38:13Z</time>
  </trkpt>
  <trkpt lat="34.026032" lon="-3.009717">
   <ele>842.00</ele>
   <time>2014-04-07T08:38:28Z</time>
  </trkpt>
  <trkpt lat="34.027593" lon="-3.008496">
   <ele>838.00</ele>
   <time>2014-04-07T08:38:40Z</time>
  </trkpt>
  <trkpt lat="34.028702" lon="-3.007476">
   <ele>837.00</ele>
   <time>2014-04-07T08:38:49Z</time>
  </trkpt>
  <trkpt lat="34.028975" lon="-3.007290">
   <ele>836.00</ele>
   <time>2014-04-07T08:38:51Z</time>
  </trkpt>
  <trkpt lat="34.029973" lon="-3.006680">
   <ele>833.00</ele>
   <time>2014-04-07T08:38:58Z</time>
  </trkpt>
  <trkpt lat="34.030387" lon="-3.006381">
   <ele>832.00</ele>
   <time>2014-04-07T08:39:01Z</time>
  </trkpt>
  <trkpt lat="34.031873" lon="-3.005256">
   <ele>829.00</ele>
   <time>2014-04-07T08:39:12Z</time>
  </trkpt>
  <trkpt lat="34.032125" lon="-3.005033">
   <ele>828.00</ele>
   <time>2014-04-07T08:39:14Z</time>
  </trkpt>
  <trkpt lat="34.032360" lon="-3.004781">
   <ele>827.00</ele>
   <time>2014-04-07T08:39:16Z</time>
  </trkpt>
  <trkpt lat="34.032937" lon="-3.004134">
   <ele>825.00</ele>
   <time>2014-04-07T08:39:21Z</time>
  </trkpt>
  <trkpt lat="34.033190" lon="-3.003909">
   <ele>824.00</ele>
   <time>2014-04-07T08:39:23Z</time>
  </trkpt>
  <trkpt lat="34.033574" lon="-3.003579">
   <ele>823.00</ele>
   <time>2014-04-07T08:39:26Z</time>
  </trkpt>
  <trkpt lat="34.033807" lon="-3.003330">
   <ele>823.00</ele>
   <time>2014-04-07T08:39:28Z</time>
  </trkpt>
  <trkpt lat="34.034459" lon="-3.002592">
   <ele>822.00</ele>
   <time>2014-04-07T08:39:34Z</time>
  </trkpt>
  <trkpt lat="34.034703" lon="-3.002392">
   <ele>821.00</ele>
   <time>2014-04-07T08:39:36Z</time>
  </trkpt>
  <trkpt lat="34.034967" lon="-3.002217">
   <ele>821.00</ele>
   <time>2014-04-07T08:39:38Z</time>
  </trkpt>
  <trkpt lat="34.035248" lon="-3.002062">
   <ele>820.00</ele>
   <time>2014-04-07T08:39:40Z</time>
  </trkpt>
  <trkpt lat="34.035553" lon="-3.001936">
   <ele>819.00</ele>
   <time>2014-04-07T08:39:42Z</time>
  </trkpt>
  <trkpt lat="34.035875" lon="-3.001834">
   <ele>818.00</ele>
   <time>2014-04-07T08:39:44Z</time>
  </trkpt>
  <trkpt lat="34.037798" lon="-3.001244">
   <ele>813.00</ele>
   <time>2014-04-07T08:39:56Z</time>
  </trkpt>
  <trkpt lat="34.038098" lon="-3.001113">
   <ele>813.00</ele>
   <time>2014-04-07T08:39:58Z</time>
  </trkpt>
  <trkpt lat="34.038389" lon="-3.000953">
   <ele>813.00</ele>
   <time>2014-04-07T08:40:00Z</time>
  </trkpt>
  <trkpt lat="34.038961" lon="-3.000609">
   <ele>813.00</ele>
   <time>2014-04-07T08:40:04Z</time>
  </trkpt>
  <trkpt lat="34.039261" lon="-3.000469">
   <ele>812.00</ele>
   <time>2014-04-07T08:40:06Z</time>
  </trkpt>
  <trkpt lat="34.040031" lon="-3.000169">
   <ele>812.00</ele>
   <time>2014-04-07T08:40:11Z</time>
  </trkpt>
  <trkpt lat="34.040951" lon="-2.999819">
   <ele>811.00</ele>
   <time>2014-04-07T08:40:17Z</time>
  </trkpt>
  <trkpt lat="34.041256" lon="-2.999679">
   <ele>810.00</ele>
   <time>2014-04-07T08:40:19Z</time>
  </trkpt>
  <trkpt lat="34.041549" lon="-2.999511">
   <ele>810.00</ele>
   <time>2014-04-07T08:40:21Z</time>
  </trkpt>
  <trkpt lat="34.041833" lon="-2.999305">
   <ele>810.00</ele>
   <time>2014-04-07T08:40:23Z</time>
  </trkpt>
  <trkpt lat="34.044043" lon="-2.997545">
   <ele>804.00</ele>
   <time>2014-04-07T08:40:38Z</time>
  </trkpt>
  <trkpt lat="34.046497" lon="-2.995668">
   <ele>794.00</ele>
   <time>2014-04-07T08:40:54Z</time>
  </trkpt>
  <trkpt lat="34.047246" lon="-2.995101">
   <ele>791.00</ele>
   <time>2014-04-07T08:40:59Z</time>
  </trkpt>
  <trkpt lat="34.049708" lon="-2.993296">
   <ele>789.00</ele>
   <time>2014-04-07T08:41:15Z</time>
  </trkpt>
  <trkpt lat="34.051993" lon="-2.991737">
   <ele>784.00</ele>
   <time>2014-04-07T08:41:29Z</time>
  </trkpt>
  <trkpt lat="34.052598" lon="-2.991344">
   <ele>782.00</ele>
   <time>2014-04-07T08:41:32Z</time>
  </trkpt>
  <trkpt lat="34.053937" lon="-2.990403">
   <ele>780.00</ele>
   <time>2014-04-07T08:41:39Z</time>
  </trkpt>
  <trkpt lat="34.054295" lon="-2.990195">
   <ele>781.00</ele>
   <time>2014-04-07T08:41:41Z</time>
  </trkpt>
  <trkpt lat="34.054473" lon="-2.990108">
   <ele>781.00</ele>
   <time>2014-04-07T08:41:42Z</time>
  </trkpt>
  <trkpt lat="34.054651" lon="-2.990034">
   <ele>781.00</ele>
   <time>2014-04-07T08:41:43Z</time>
  </trkpt>
  <trkpt lat="34.054829" lon="-2.989969">
   <ele>781.00</ele>
   <time>2014-04-07T08:41:44Z</time>
  </trkpt>
  <trkpt lat="34.055009" lon="-2.989913">
   <ele>781.00</ele>
   <time>2014-04-07T08:41:45Z</time>
  </trkpt>
  <trkpt lat="34.055375" lon="-2.989825">
   <ele>781.00</ele>
   <time>2014-04-07T08:41:47Z</time>
  </trkpt>
  <trkpt lat="34.055561" lon="-2.989794">
   <ele>780.00</ele>
   <time>2014-04-07T08:41:48Z</time>
  </trkpt>
  <trkpt lat="34.056671" lon="-2.989619">
   <ele>779.00</ele>
   <time>2014-04-07T08:41:54Z</time>
  </trkpt>
  <trkpt lat="34.056856" lon="-2.989579">
   <ele>779.00</ele>
   <time>2014-04-07T08:41:55Z</time>
  </trkpt>
  <trkpt lat="34.057039" lon="-2.989531">
   <ele>780.00</ele>
   <time>2014-04-07T08:41:56Z</time>
  </trkpt>
  <trkpt lat="34.057220" lon="-2.989475">
   <ele>780.00</ele>
   <time>2014-04-07T08:41:57Z</time>
  </trkpt>
  <trkpt lat="34.057398" lon="-2.989411">
   <ele>780.00</ele>
   <time>2014-04-07T08:41:58Z</time>
  </trkpt>
  <trkpt lat="34.057574" lon="-2.989337">
   <ele>780.00</ele>
   <time>2014-04-07T08:41:59Z</time>
  </trkpt>
  <trkpt lat="34.057747" lon="-2.989253">
   <ele>780.00</ele>
   <time>2014-04-07T08:42:00Z</time>
  </trkpt>
  <trkpt lat="34.057917" lon="-2.989161">
   <ele>781.00</ele>
   <time>2014-04-07T08:42:01Z</time>
  </trkpt>
  <trkpt lat="34.058085" lon="-2.989060">
   <ele>781.00</ele>
   <time>2014-04-07T08:42:02Z</time>
  </trkpt>
  <trkpt lat="34.058250" lon="-2.988950">
   <ele>781.00</ele>
   <time>2014-04-07T08:42:03Z</time>
  </trkpt>
  <trkpt lat="34.058410" lon="-2.988831">
   <ele>781.00</ele>
   <time>2014-04-07T08:42:04Z</time>
  </trkpt>
  <trkpt lat="34.058721" lon="-2.988569">
   <ele>780.00</ele>
   <time>2014-04-07T08:42:06Z</time>
  </trkpt>
  <trkpt lat="34.058871" lon="-2.988425">
   <ele>780.00</ele>
   <time>2014-04-07T08:42:07Z</time>
  </trkpt>
  <trkpt lat="34.059017" lon="-2.988272">
   <ele>780.00</ele>
   <time>2014-04-07T08:42:08Z</time>
  </trkpt>
  <trkpt lat="34.059158" lon="-2.988111">
   <ele>780.00</ele>
   <time>2014-04-07T08:42:09Z</time>
  </trkpt>
  <trkpt lat="34.060953" lon="-2.985978">
   <ele>774.00</ele>
   <time>2014-04-07T08:42:22Z</time>
  </trkpt>
  <trkpt lat="34.061253" lon="-2.985685">
   <ele>774.00</ele>
   <time>2014-04-07T08:42:24Z</time>
  </trkpt>
  <trkpt lat="34.062648" lon="-2.984454">
   <ele>769.00</ele>
   <time>2014-04-07T08:42:33Z</time>
  </trkpt>
  <trkpt lat="34.063649" lon="-2.983576">
   <ele>764.00</ele>
   <time>2014-04-07T08:42:40Z</time>
  </trkpt>
  <trkpt lat="34.063904" lon="-2.983292">
   <ele>762.00</ele>
   <time>2014-04-07T08:42:42Z</time>
  </trkpt>
  <trkpt lat="34.064132" lon="-2.982967">
   <ele>760.00</ele>
   <time>2014-04-07T08:42:44Z</time>
  </trkpt>
  <trkpt lat="34.064326" lon="-2.982598">
   <ele>758.00</ele>
   <time>2014-04-07T08:42:46Z</time>
  </trkpt>
  <trkpt lat="34.064499" lon="-2.982211">
   <ele>756.00</ele>
   <time>2014-04-07T08:42:48Z</time>
  </trkpt>
  <trkpt lat="34.064904" lon="-2.981282">
   <ele>754.00</ele>
   <time>2014-04-07T08:42:53Z</time>
  </trkpt>
  <trkpt lat="34.065102" lon="-2.980938">
   <ele>754.00</ele>
   <time>2014-04-07T08:42:55Z</time>
  </trkpt>
  <trkpt lat="34.065326" lon="-2.980611">
   <ele>754.00</ele>
   <time>2014-04-07T08:42:57Z</time>
  </trkpt>
  <trkpt lat="34.065573" lon="-2.980302">
   <ele>754.00</ele>
   <time>2014-04-07T08:42:59Z</time>
  </trkpt>
  <trkpt lat="34.065707" lon="-2.980156">
   <ele>754.00</ele>
   <time>2014-04-07T08:43:00Z</time>
  </trkpt>
  <trkpt lat="34.065993" lon="-2.979876">
   <ele>754.00</ele>
   <time>2014-04-07T08:43:02Z</time>
  </trkpt>
  <trkpt lat="34.068433" lon="-2.977663">
   <ele>750.00</ele>
   <time>2014-04-07T08:43:18Z</time>
  </trkpt>
  <trkpt lat="34.069783" lon="-2.976441">
   <ele>750.00</ele>
   <time>2014-04-07T08:43:27Z</time>
  </trkpt>
  <trkpt lat="34.070098" lon="-2.976199">
   <ele>749.00</ele>
   <time>2014-04-07T08:43:29Z</time>
  </trkpt>
  <trkpt lat="34.070430" lon="-2.975981">
   <ele>749.00</ele>
   <time>2014-04-07T08:43:31Z</time>
  </trkpt>
  <trkpt lat="34.070776" lon="-2.975787">
   <ele>749.00</ele>
   <time>2014-04-07T08:43:33Z</time>
  </trkpt>
  <trkpt lat="34.070953" lon="-2.975700">
   <ele>749.00</ele>
   <time>2014-04-07T08:43:34Z</time>
  </trkpt>
  <trkpt lat="34.071134" lon="-2.975621">
   <ele>749.00</ele>
   <time>2014-04-07T08:43:35Z</time>
  </trkpt>
  <trkpt lat="34.071318" lon="-2.975550">
   <ele>749.00</ele>
   <time>2014-04-07T08:43:36Z</time>
  </trkpt>
  <trkpt lat="34.071504" lon="-2.975490">
   <ele>749.00</ele>
   <time>2014-04-07T08:43:37Z</time>
  </trkpt>
  <trkpt lat="34.071876" lon="-2.975390">
   <ele>748.00</ele>
   <time>2014-04-07T08:43:39Z</time>
  </trkpt>
  <trkpt lat="34.074567" lon="-2.974721">
   <ele>745.00</ele>
   <time>2014-04-07T08:43:54Z</time>
  </trkpt>
  <trkpt lat="34.076991" lon="-2.974125">
   <ele>740.00</ele>
   <time>2014-04-07T08:44:10Z</time>
  </trkpt>
  <trkpt lat="34.078447" lon="-2.973760">
   <ele>739.00</ele>
   <time>2014-04-07T08:44:20Z</time>
  </trkpt>
  <trkpt lat="34.079072" lon="-2.973623">
   <ele>738.00</ele>
   <time>2014-04-07T08:44:24Z</time>
  </trkpt>
  <trkpt lat="34.081373" lon="-2.972982">
   <ele>735.00</ele>
   <time>2014-04-07T08:44:38Z</time>
  </trkpt>
  <trkpt lat="34.081705" lon="-2.972854">
   <ele>734.00</ele>
   <time>2014-04-07T08:44:40Z</time>
  </trkpt>
  <trkpt lat="34.082029" lon="-2.972698">
   <ele>734.00</ele>
   <time>2014-04-07T08:44:42Z</time>
  </trkpt>
  <trkpt lat="34.082350" lon="-2.972512">
   <ele>733.00</ele>
   <time>2014-04-07T08:44:44Z</time>
  </trkpt>
  <trkpt lat="34.082830" lon="-2.972205">
   <ele>733.00</ele>
   <time>2014-04-07T08:44:47Z</time>
  </trkpt>
  <trkpt lat="34.083310" lon="-2.971893">
   <ele>733.00</ele>
   <time>2014-04-07T08:44:50Z</time>
  </trkpt>
  <trkpt lat="34.083475" lon="-2.971799">
   <ele>733.00</ele>
   <time>2014-04-07T08:44:51Z</time>
  </trkpt>
  <trkpt lat="34.083814" lon="-2.971628">
   <ele>734.00</ele>
   <time>2014-04-07T08:44:53Z</time>
  </trkpt>
  <trkpt lat="34.084693" lon="-2.971240">
   <ele>735.00</ele>
   <time>2014-04-07T08:44:58Z</time>
  </trkpt>
  <trkpt lat="34.087562" lon="-2.970032">
   <ele>736.00</ele>
   <time>2014-04-07T08:45:14Z</time>
  </trkpt>
  <trkpt lat="34.089530" lon="-2.969200">
   <ele>738.00</ele>
   <time>2014-04-07T08:45:26Z</time>
  </trkpt>
  <trkpt lat="34.090024" lon="-2.969032">
   <ele>738.00</ele>
   <time>2014-04-07T08:45:29Z</time>
  </trkpt>
  <trkpt lat="34.090349" lon="-2.968941">
   <ele>738.00</ele>
   <time>2014-04-07T08:45:31Z</time>
  </trkpt>
  <trkpt lat="34.090836" lon="-2.968829">
   <ele>737.00</ele>
   <time>2014-04-07T08:45:34Z</time>
  </trkpt>
  <trkpt lat="34.091163" lon="-2.968774">
   <ele>736.00</ele>
   <time>2014-04-07T08:45:36Z</time>
  </trkpt>
  <trkpt lat="34.091659" lon="-2.968723">
   <ele>733.00</ele>
   <time>2014-04-07T08:45:39Z</time>
  </trkpt>
  <trkpt lat="34.092172" lon="-2.968699">
   <ele>732.00</ele>
   <time>2014-04-07T08:45:42Z</time>
  </trkpt>
  <trkpt lat="34.093123" lon="-2.968663">
   <ele>733.00</ele>
   <time>2014-04-07T08:45:48Z</time>
  </trkpt>
  <trkpt lat="34.093570" lon="-2.968609">
   <ele>734.00</ele>
   <time>2014-04-07T08:45:51Z</time>
  </trkpt>
  <trkpt lat="34.093886" lon="-2.968554">
   <ele>734.00</ele>
   <time>2014-04-07T08:45:53Z</time>
  </trkpt>
  <trkpt lat="34.094212" lon="-2.968480">
   <ele>734.00</ele>
   <time>2014-04-07T08:45:55Z</time>
  </trkpt>
  <trkpt lat="34.094534" lon="-2.968394">
   <ele>734.00</ele>
   <time>2014-04-07T08:45:57Z</time>
  </trkpt>
  <trkpt lat="34.095010" lon="-2.968237">
   <ele>734.00</ele>
   <time>2014-04-07T08:46:00Z</time>
  </trkpt>
  <trkpt lat="34.095328" lon="-2.968116">
   <ele>734.00</ele>
   <time>2014-04-07T08:46:02Z</time>
  </trkpt>
  <trkpt lat="34.097974" lon="-2.966995">
   <ele>734.00</ele>
   <time>2014-04-07T08:46:18Z</time>
  </trkpt>
  <trkpt lat="34.100579" lon="-2.965895">
   <ele>732.00</ele>
   <time>2014-04-07T08:46:34Z</time>
  </trkpt>
  <trkpt lat="34.103119" lon="-2.964820">
   <ele>726.00</ele>
   <time>2014-04-07T08:46:49Z</time>
  </trkpt>
  <trkpt lat="34.104210" lon="-2.964352">
   <ele>725.00</ele>
   <time>2014-04-07T08:46:58Z</time>
  </trkpt>
  <trkpt lat="34.104386" lon="-2.964245">
   <ele>724.00</ele>
   <time>2014-04-07T08:47:03Z</time>
  </trkpt>
  <trkpt lat="34.104398" lon="-2.964238">
   <ele>724.00</ele>
   <time>2014-04-07T08:47:19Z</time>
  </trkpt>
  <trkpt lat="34.104384" lon="-2.964243">
   <ele>724.00</ele>
   <time>2014-04-07T08:47:35Z</time>
  </trkpt>
  <trkpt lat="34.104377" lon="-2.964246">
   <ele>724.00</ele>
   <time>2014-04-07T08:47:50Z</time>
  </trkpt>
  <trkpt lat="34.104372" lon="-2.964249">
   <ele>725.00</ele>
   <time>2014-04-07T08:48:06Z</time>
  </trkpt>
  <trkpt lat="34.104370" lon="-2.964250">
   <ele>725.00</ele>
   <time>2014-04-07T08:48:21Z</time>
  </trkpt>
  <trkpt lat="34.104397" lon="-2.964243">
   <ele>726.00</ele>
   <time>2014-04-07T08:48:37Z</time>
  </trkpt>
  <trkpt lat="34.104592" lon="-2.964186">
   <ele>726.00</ele>
   <time>2014-04-07T08:48:42Z</time>
  </trkpt>
  <trkpt lat="34.104791" lon="-2.964111">
   <ele>727.00</ele>
   <time>2014-04-07T08:48:45Z</time>
  </trkpt>
  <trkpt lat="34.106634" lon="-2.963338">
   <ele>727.00</ele>
   <time>2014-04-07T08:49:01Z</time>
  </trkpt>
  <trkpt lat="34.108906" lon="-2.962374">
   <ele>725.00</ele>
   <time>2014-04-07T08:49:16Z</time>
  </trkpt>
  <trkpt lat="34.111580" lon="-2.961242">
   <ele>725.00</ele>
   <time>2014-04-07T08:49:32Z</time>
  </trkpt>
  <trkpt lat="34.114451" lon="-2.960035">
   <ele>721.00</ele>
   <time>2014-04-07T08:49:48Z</time>
  </trkpt>
  <trkpt lat="34.117082" lon="-2.958923">
   <ele>719.00</ele>
   <time>2014-04-07T08:50:03Z</time>
  </trkpt>
  <trkpt lat="34.120029" lon="-2.957678">
   <ele>716.00</ele>
   <time>2014-04-07T08:50:19Z</time>
  </trkpt>
  <trkpt lat="34.123011" lon="-2.956406">
   <ele>711.00</ele>
   <time>2014-04-07T08:50:35Z</time>
  </trkpt>
  <trkpt lat="34.125822" lon="-2.955233">
   <ele>706.00</ele>
   <time>2014-04-07T08:50:50Z</time>
  </trkpt>
  <trkpt lat="34.128908" lon="-2.953928">
   <ele>702.00</ele>
   <time>2014-04-07T08:51:06Z</time>
  </trkpt>
  <trkpt lat="34.131803" lon="-2.952689">
   <ele>697.00</ele>
   <time>2014-04-07T08:51:21Z</time>
  </trkpt>
  <trkpt lat="34.132168" lon="-2.952499">
   <ele>696.00</ele>
   <time>2014-04-07T08:51:23Z</time>
  </trkpt>
  <trkpt lat="34.132892" lon="-2.952068">
   <ele>695.00</ele>
   <time>2014-04-07T08:51:27Z</time>
  </trkpt>
  <trkpt lat="34.135261" lon="-2.950609">
   <ele>693.00</ele>
   <time>2014-04-07T08:51:40Z</time>
  </trkpt>
  <trkpt lat="34.135625" lon="-2.950422">
   <ele>692.00</ele>
   <time>2014-04-07T08:51:42Z</time>
  </trkpt>
  <trkpt lat="34.136555" lon="-2.949995">
   <ele>691.00</ele>
   <time>2014-04-07T08:51:47Z</time>
  </trkpt>
  <trkpt lat="34.139540" lon="-2.948702">
   <ele>688.00</ele>
   <time>2014-04-07T08:52:03Z</time>
  </trkpt>
  <trkpt lat="34.142457" lon="-2.947449">
   <ele>683.00</ele>
   <time>2014-04-07T08:52:19Z</time>
  </trkpt>
  <trkpt lat="34.144960" lon="-2.946371">
   <ele>679.00</ele>
   <time>2014-04-07T08:52:34Z</time>
  </trkpt>
  <trkpt lat="34.147281" lon="-2.945384">
   <ele>675.00</ele>
   <time>2014-04-07T08:52:47Z</time>
  </trkpt>
  <trkpt lat="34.147931" lon="-2.945118">
   <ele>674.00</ele>
   <time>2014-04-07T08:52:50Z</time>
  </trkpt>
  <trkpt lat="34.150626" lon="-2.943918">
   <ele>670.00</ele>
   <time>2014-04-07T08:53:04Z</time>
  </trkpt>
  <trkpt lat="34.150995" lon="-2.943771">
   <ele>669.00</ele>
   <time>2014-04-07T08:53:06Z</time>
  </trkpt>
  <trkpt lat="34.151368" lon="-2.943648">
   <ele>669.00</ele>
   <time>2014-04-07T08:53:08Z</time>
  </trkpt>
  <trkpt lat="34.151923" lon="-2.943498">
   <ele>668.00</ele>
   <time>2014-04-07T08:53:11Z</time>
  </trkpt>
  <trkpt lat="34.154728" lon="-2.942851">
   <ele>663.00</ele>
   <time>2014-04-07T08:53:26Z</time>
  </trkpt>
  <trkpt lat="34.157809" lon="-2.942134">
   <ele>659.00</ele>
   <time>2014-04-07T08:53:42Z</time>
  </trkpt>
  <trkpt lat="34.160051" lon="-2.941600">
   <ele>654.00</ele>
   <time>2014-04-07T08:53:54Z</time>
  </trkpt>
  <trkpt lat="34.160229" lon="-2.941547">
   <ele>654.00</ele>
   <time>2014-04-07T08:53:55Z</time>
  </trkpt>
  <trkpt lat="34.160404" lon="-2.941482">
   <ele>653.00</ele>
   <time>2014-04-07T08:53:56Z</time>
  </trkpt>
  <trkpt lat="34.160576" lon="-2.941406">
   <ele>653.00</ele>
   <time>2014-04-07T08:53:57Z</time>
  </trkpt>
  <trkpt lat="34.160746" lon="-2.941320">
   <ele>653.00</ele>
   <time>2014-04-07T08:53:58Z</time>
  </trkpt>
  <trkpt lat="34.161080" lon="-2.941133">
   <ele>652.00</ele>
   <time>2014-04-07T08:54:00Z</time>
  </trkpt>
  <trkpt lat="34.161406" lon="-2.940933">
   <ele>652.00</ele>
   <time>2014-04-07T08:54:02Z</time>
  </trkpt>
  <trkpt lat="34.163844" lon="-2.939334">
   <ele>656.00</ele>
   <time>2014-04-07T08:54:18Z</time>
  </trkpt>
  <trkpt lat="34.166205" lon="-2.937806">
   <ele>657.00</ele>
   <time>2014-04-07T08:54:34Z</time>
  </trkpt>
  <trkpt lat="34.168600" lon="-2.936246">
   <ele>658.00</ele>
   <time>2014-04-07T08:54:49Z</time>
  </trkpt>
  <trkpt lat="34.171298" lon="-2.934511">
   <ele>658.00</ele>
   <time>2014-04-07T08:55:05Z</time>
  </trkpt>
  <trkpt lat="34.173120" lon="-2.933310">
   <ele>658.00</ele>
   <time>2014-04-07T08:55:15Z</time>
  </trkpt>
  <trkpt lat="34.173465" lon="-2.933040">
   <ele>658.00</ele>
   <time>2014-04-07T08:55:17Z</time>
  </trkpt>
  <trkpt lat="34.176098" lon="-2.930822">
   <ele>656.00</ele>
   <time>2014-04-07T08:55:32Z</time>
  </trkpt>
  <trkpt lat="34.176996" lon="-2.930107">
   <ele>656.00</ele>
   <time>2014-04-07T08:55:37Z</time>
  </trkpt>
  <trkpt lat="34.179707" lon="-2.928144">
   <ele>653.00</ele>
   <time>2014-04-07T08:55:50Z</time>
  </trkpt>
  <trkpt lat="34.180339" lon="-2.927736">
   <ele>653.00</ele>
   <time>2014-04-07T08:55:53Z</time>
  </trkpt>
  <trkpt lat="34.180767" lon="-2.927496">
   <ele>653.00</ele>
   <time>2014-04-07T08:55:55Z</time>
  </trkpt>
  <trkpt lat="34.181206" lon="-2.927300">
   <ele>652.00</ele>
   <time>2014-04-07T08:55:57Z</time>
  </trkpt>
  <trkpt lat="34.181873" lon="-2.927050">
   <ele>652.00</ele>
   <time>2014-04-07T08:56:00Z</time>
  </trkpt>
  <trkpt lat="34.182323" lon="-2.926908">
   <ele>652.00</ele>
   <time>2014-04-07T08:56:02Z</time>
  </trkpt>
  <trkpt lat="34.182551" lon="-2.926852">
   <ele>651.00</ele>
   <time>2014-04-07T08:56:03Z</time>
  </trkpt>
  <trkpt lat="34.183009" lon="-2.926768">
   <ele>651.00</ele>
   <time>2014-04-07T08:56:05Z</time>
  </trkpt>
  <trkpt lat="34.183467" lon="-2.926714">
   <ele>651.00</ele>
   <time>2014-04-07T08:56:07Z</time>
  </trkpt>
  <trkpt lat="34.183925" lon="-2.926687">
   <ele>651.00</ele>
   <time>2014-04-07T08:56:09Z</time>
  </trkpt>
  <trkpt lat="34.185292" lon="-2.926683">
   <ele>649.00</ele>
   <time>2014-04-07T08:56:15Z</time>
  </trkpt>
  <trkpt lat="34.185971" lon="-2.926690">
   <ele>649.00</ele>
   <time>2014-04-07T08:56:18Z</time>
  </trkpt>
  <trkpt lat="34.186416" lon="-2.926675">
   <ele>649.00</ele>
   <time>2014-04-07T08:56:20Z</time>
  </trkpt>
  <trkpt lat="34.186850" lon="-2.926637">
   <ele>650.00</ele>
   <time>2014-04-07T08:56:22Z</time>
  </trkpt>
  <trkpt lat="34.187257" lon="-2.926582">
   <ele>651.00</ele>
   <time>2014-04-07T08:56:24Z</time>
  </trkpt>
  <trkpt lat="34.187634" lon="-2.926512">
   <ele>653.00</ele>
   <time>2014-04-07T08:56:26Z</time>
  </trkpt>
  <trkpt lat="34.188005" lon="-2.926427">
   <ele>654.00</ele>
   <time>2014-04-07T08:56:28Z</time>
  </trkpt>
  <trkpt lat="34.188378" lon="-2.926318">
   <ele>655.00</ele>
   <time>2014-04-07T08:56:30Z</time>
  </trkpt>
  <trkpt lat="34.191494" lon="-2.925264">
   <ele>656.00</ele>
   <time>2014-04-07T08:56:46Z</time>
  </trkpt>
  <trkpt lat="34.194451" lon="-2.924252">
   <ele>656.00</ele>
   <time>2014-04-07T08:57:01Z</time>
  </trkpt>
  <trkpt lat="34.197550" lon="-2.923192">
   <ele>656.00</ele>
   <time>2014-04-07T08:57:17Z</time>
  </trkpt>
  <trkpt lat="34.200210" lon="-2.922286">
   <ele>654.00</ele>
   <time>2014-04-07T08:57:32Z</time>
  </trkpt>
  <trkpt lat="34.202567" lon="-2.921482">
   <ele>652.00</ele>
   <time>2014-04-07T08:57:48Z</time>
  </trkpt>
  <trkpt lat="34.203246" lon="-2.921251">
   <ele>651.00</ele>
   <time>2014-04-07T08:57:54Z</time>
  </trkpt>
  <trkpt lat="34.203440" lon="-2.921307">
   <ele>651.00</ele>
   <time>2014-04-07T08:57:57Z</time>
  </trkpt>
  <trkpt lat="34.203491" lon="-2.921526">
   <ele>650.00</ele>
   <time>2014-04-07T08:58:00Z</time>
  </trkpt>
  <trkpt lat="34.203469" lon="-2.921810">
   <ele>649.00</ele>
   <time>2014-04-07T08:58:03Z</time>
  </trkpt>
  <trkpt lat="34.203407" lon="-2.924240">
   <ele>649.00</ele>
   <time>2014-04-07T08:58:19Z</time>
  </trkpt>
  <trkpt lat="34.203348" lon="-2.927626">
   <ele>649.00</ele>
   <time>2014-04-07T08:58:35Z</time>
  </trkpt>
  <trkpt lat="34.203328" lon="-2.930235">
   <ele>649.00</ele>
   <time>2014-04-07T08:58:46Z</time>
  </trkpt>
  <trkpt lat="34.203352" lon="-2.930706">
   <ele>649.00</ele>
   <time>2014-04-07T08:58:48Z</time>
  </trkpt>
  <trkpt lat="34.203571" lon="-2.933525">
   <ele>648.00</ele>
   <time>2014-04-07T08:59:00Z</time>
  </trkpt>
  <trkpt lat="34.203580" lon="-2.934010">
   <ele>648.00</ele>
   <time>2014-04-07T08:59:02Z</time>
  </trkpt>
  <trkpt lat="34.203577" lon="-2.934253">
   <ele>648.00</ele>
   <time>2014-04-07T08:59:03Z</time>
  </trkpt>
  <trkpt lat="34.203565" lon="-2.934493">
   <ele>647.00</ele>
   <time>2014-04-07T08:59:04Z</time>
  </trkpt>
  <trkpt lat="34.203530" lon="-2.935198">
   <ele>647.00</ele>
   <time>2014-04-07T08:59:07Z</time>
  </trkpt>
  <trkpt lat="34.203536" lon="-2.935434">
   <ele>647.00</ele>
   <time>2014-04-07T08:59:08Z</time>
  </trkpt>
  <trkpt lat="34.203608" lon="-2.936901">
   <ele>646.00</ele>
   <time>2014-04-07T08:59:14Z</time>
  </trkpt>
  <trkpt lat="34.203712" lon="-2.938696">
   <ele>645.00</ele>
   <time>2014-04-07T08:59:21Z</time>
  </trkpt>
  <trkpt lat="34.203877" lon="-2.942551">
   <ele>642.00</ele>
   <time>2014-04-07T08:59:37Z</time>
  </trkpt>
  <trkpt lat="34.203932" lon="-2.943527">
   <ele>642.00</ele>
   <time>2014-04-07T08:59:41Z</time>
  </trkpt>
  <trkpt lat="34.204006" lon="-2.944269">
   <ele>641.00</ele>
   <time>2014-04-07T08:59:44Z</time>
  </trkpt>
  <trkpt lat="34.204379" lon="-2.947252">
   <ele>641.00</ele>
   <time>2014-04-07T08:59:56Z</time>
  </trkpt>
  <trkpt lat="34.204749" lon="-2.949668">
   <ele>640.00</ele>
   <time>2014-04-07T09:00:07Z</time>
  </trkpt>
  <trkpt lat="34.205187" lon="-2.951833">
   <ele>640.00</ele>
   <time>2014-04-07T09:00:18Z</time>
  </trkpt>
  <trkpt lat="34.205816" lon="-2.954907">
   <ele>641.00</ele>
   <time>2014-04-07T09:00:33Z</time>
  </trkpt>
  <trkpt lat="34.206241" lon="-2.956951">
   <ele>643.00</ele>
   <time>2014-04-07T09:00:43Z</time>
  </trkpt>
  <trkpt lat="34.206370" lon="-2.957331">
   <ele>644.00</ele>
   <time>2014-04-07T09:00:45Z</time>
  </trkpt>
  <trkpt lat="34.206531" lon="-2.957705">
   <ele>644.00</ele>
   <time>2014-04-07T09:00:47Z</time>
  </trkpt>
  <trkpt lat="34.206723" lon="-2.958072">
   <ele>644.00</ele>
   <time>2014-04-07T09:00:49Z</time>
  </trkpt>
  <trkpt lat="34.208254" lon="-2.960752">
   <ele>641.00</ele>
   <time>2014-04-07T09:01:03Z</time>
  </trkpt>
  <trkpt lat="34.208453" lon="-2.961165">
   <ele>641.00</ele>
   <time>2014-04-07T09:01:05Z</time>
  </trkpt>
  <trkpt lat="34.208638" lon="-2.961590">
   <ele>641.00</ele>
   <time>2014-04-07T09:01:07Z</time>
  </trkpt>
  <trkpt lat="34.209682" lon="-2.964212">
   <ele>638.00</ele>
   <time>2014-04-07T09:01:19Z</time>
  </trkpt>
  <trkpt lat="34.209831" lon="-2.964647">
   <ele>637.00</ele>
   <time>2014-04-07T09:01:21Z</time>
  </trkpt>
  <trkpt lat="34.209895" lon="-2.964870">
   <ele>636.00</ele>
   <time>2014-04-07T09:01:22Z</time>
  </trkpt>
  <trkpt lat="34.209953" lon="-2.965098">
   <ele>635.00</ele>
   <time>2014-04-07T09:01:23Z</time>
  </trkpt>
  <trkpt lat="34.210731" lon="-2.968604">
   <ele>624.00</ele>
   <time>2014-04-07T09:01:38Z</time>
  </trkpt>
  <trkpt lat="34.210818" lon="-2.969076">
   <ele>622.00</ele>
   <time>2014-04-07T09:01:40Z</time>
  </trkpt>
  <trkpt lat="34.210849" lon="-2.969314">
   <ele>622.00</ele>
   <time>2014-04-07T09:01:41Z</time>
  </trkpt>
  <trkpt lat="34.210870" lon="-2.969554">
   <ele>621.00</ele>
   <time>2014-04-07T09:01:42Z</time>
  </trkpt>
  <trkpt lat="34.210892" lon="-2.970032">
   <ele>620.00</ele>
   <time>2014-04-07T09:01:44Z</time>
  </trkpt>
  <trkpt lat="34.210932" lon="-2.971416">
   <ele>616.00</ele>
   <time>2014-04-07T09:01:50Z</time>
  </trkpt>
  <trkpt lat="34.210957" lon="-2.971637">
   <ele>616.00</ele>
   <time>2014-04-07T09:01:51Z</time>
  </trkpt>
  <trkpt lat="34.210998" lon="-2.971855">
   <ele>615.00</ele>
   <time>2014-04-07T09:01:52Z</time>
  </trkpt>
  <trkpt lat="34.211059" lon="-2.972065">
   <ele>615.00</ele>
   <time>2014-04-07T09:01:53Z</time>
  </trkpt>
  <trkpt lat="34.211140" lon="-2.972268">
   <ele>615.00</ele>
   <time>2014-04-07T09:01:54Z</time>
  </trkpt>
  <trkpt lat="34.211237" lon="-2.972463">
   <ele>614.00</ele>
   <time>2014-04-07T09:01:55Z</time>
  </trkpt>
  <trkpt lat="34.211346" lon="-2.972654">
   <ele>614.00</ele>
   <time>2014-04-07T09:01:56Z</time>
  </trkpt>
  <trkpt lat="34.212313" lon="-2.974202">
   <ele>612.00</ele>
   <time>2014-04-07T09:02:04Z</time>
  </trkpt>
  <trkpt lat="34.212705" lon="-2.974782">
   <ele>611.00</ele>
   <time>2014-04-07T09:02:07Z</time>
  </trkpt>
  <trkpt lat="34.214894" lon="-2.977840">
   <ele>608.00</ele>
   <time>2014-04-07T09:02:23Z</time>
  </trkpt>
  <trkpt lat="34.215290" lon="-2.978391">
   <ele>607.00</ele>
   <time>2014-04-07T09:02:26Z</time>
  </trkpt>
  <trkpt lat="34.215529" lon="-2.978774">
   <ele>607.00</ele>
   <time>2014-04-07T09:02:28Z</time>
  </trkpt>
  <trkpt lat="34.215635" lon="-2.978976">
   <ele>607.00</ele>
   <time>2014-04-07T09:02:29Z</time>
  </trkpt>
  <trkpt lat="34.215730" lon="-2.979185">
   <ele>606.00</ele>
   <time>2014-04-07T09:02:30Z</time>
  </trkpt>
  <trkpt lat="34.215813" lon="-2.979402">
   <ele>606.00</ele>
   <time>2014-04-07T09:02:31Z</time>
  </trkpt>
  <trkpt lat="34.215884" lon="-2.979625">
   <ele>606.00</ele>
   <time>2014-04-07T09:02:32Z</time>
  </trkpt>
  <trkpt lat="34.215941" lon="-2.979854">
   <ele>606.00</ele>
   <time>2014-04-07T09:02:33Z</time>
  </trkpt>
  <trkpt lat="34.215984" lon="-2.980089">
   <ele>606.00</ele>
   <time>2014-04-07T09:02:34Z</time>
  </trkpt>
  <trkpt lat="34.216014" lon="-2.980327">
   <ele>605.00</ele>
   <time>2014-04-07T09:02:35Z</time>
  </trkpt>
  <trkpt lat="34.216052" lon="-2.980809">
   <ele>605.00</ele>
   <time>2014-04-07T09:02:37Z</time>
  </trkpt>
  <trkpt lat="34.216216" lon="-2.983639">
   <ele>602.00</ele>
   <time>2014-04-07T09:02:49Z</time>
  </trkpt>
  <trkpt lat="34.216247" lon="-2.983860">
   <ele>602.00</ele>
   <time>2014-04-07T09:02:50Z</time>
  </trkpt>
  <trkpt lat="34.216289" lon="-2.984078">
   <ele>602.00</ele>
   <time>2014-04-07T09:02:51Z</time>
  </trkpt>
  <trkpt lat="34.216345" lon="-2.984291">
   <ele>601.00</ele>
   <time>2014-04-07T09:02:52Z</time>
  </trkpt>
  <trkpt lat="34.216411" lon="-2.984501">
   <ele>601.00</ele>
   <time>2014-04-07T09:02:53Z</time>
  </trkpt>
  <trkpt lat="34.216631" lon="-2.985127">
   <ele>600.00</ele>
   <time>2014-04-07T09:02:56Z</time>
  </trkpt>
  <trkpt lat="34.217403" lon="-2.987160">
   <ele>598.00</ele>
   <time>2014-04-07T09:03:06Z</time>
  </trkpt>
  <trkpt lat="34.217502" lon="-2.987576">
   <ele>597.00</ele>
   <time>2014-04-07T09:03:08Z</time>
  </trkpt>
  <trkpt lat="34.217553" lon="-2.988006">
   <ele>597.00</ele>
   <time>2014-04-07T09:03:10Z</time>
  </trkpt>
  <trkpt lat="34.217613" lon="-2.988886">
   <ele>595.00</ele>
   <time>2014-04-07T09:03:14Z</time>
  </trkpt>
  <trkpt lat="34.217616" lon="-2.989109">
   <ele>595.00</ele>
   <time>2014-04-07T09:03:15Z</time>
  </trkpt>
  <trkpt lat="34.217611" lon="-2.989332">
   <ele>595.00</ele>
   <time>2014-04-07T09:03:16Z</time>
  </trkpt>
  <trkpt lat="34.217595" lon="-2.989554">
   <ele>594.00</ele>
   <time>2014-04-07T09:03:17Z</time>
  </trkpt>
  <trkpt lat="34.217569" lon="-2.989776">
   <ele>594.00</ele>
   <time>2014-04-07T09:03:18Z</time>
  </trkpt>
  <trkpt lat="34.217467" lon="-2.990434">
   <ele>594.00</ele>
   <time>2014-04-07T09:03:21Z</time>
  </trkpt>
  <trkpt lat="34.217176" lon="-2.992140">
   <ele>593.00</ele>
   <time>2014-04-07T09:03:29Z</time>
  </trkpt>
  <trkpt lat="34.217157" lon="-2.992559">
   <ele>592.00</ele>
   <time>2014-04-07T09:03:31Z</time>
  </trkpt>
  <trkpt lat="34.217190" lon="-2.992979">
   <ele>592.00</ele>
   <time>2014-04-07T09:03:33Z</time>
  </trkpt>
  <trkpt lat="34.217288" lon="-2.993620">
   <ele>592.00</ele>
   <time>2014-04-07T09:03:36Z</time>
  </trkpt>
  <trkpt lat="34.217828" lon="-2.997001">
   <ele>590.00</ele>
   <time>2014-04-07T09:03:51Z</time>
  </trkpt>
  <trkpt lat="34.218436" lon="-3.000762">
   <ele>588.00</ele>
   <time>2014-04-07T09:04:07Z</time>
  </trkpt>
  <trkpt lat="34.218650" lon="-3.001946">
   <ele>587.00</ele>
   <time>2014-04-07T09:04:12Z</time>
  </trkpt>
  <trkpt lat="34.218708" lon="-3.002179">
   <ele>587.00</ele>
   <time>2014-04-07T09:04:13Z</time>
  </trkpt>
  <trkpt lat="34.218842" lon="-3.002642">
   <ele>586.00</ele>
   <time>2014-04-07T09:04:15Z</time>
  </trkpt>
  <trkpt lat="34.220066" lon="-3.006362">
   <ele>582.00</ele>
   <time>2014-04-07T09:04:31Z</time>
  </trkpt>
  <trkpt lat="34.221288" lon="-3.010142">
   <ele>579.00</ele>
   <time>2014-04-07T09:04:47Z</time>
  </trkpt>
  <trkpt lat="34.221542" lon="-3.010828">
   <ele>579.00</ele>
   <time>2014-04-07T09:04:50Z</time>
  </trkpt>
  <trkpt lat="34.222299" lon="-3.012618">
   <ele>577.00</ele>
   <time>2014-04-07T09:04:58Z</time>
  </trkpt>
  <trkpt lat="34.223843" lon="-3.016223">
   <ele>574.00</ele>
   <time>2014-04-07T09:05:14Z</time>
  </trkpt>
  <trkpt lat="34.224052" lon="-3.016659">
   <ele>574.00</ele>
   <time>2014-04-07T09:05:16Z</time>
  </trkpt>
  <trkpt lat="34.225851" lon="-3.020147">
   <ele>571.00</ele>
   <time>2014-04-07T09:05:32Z</time>
  </trkpt>
  <trkpt lat="34.227502" lon="-3.023721">
   <ele>569.00</ele>
   <time>2014-04-07T09:05:48Z</time>
  </trkpt>
  <trkpt lat="34.227787" lon="-3.024384">
   <ele>569.00</ele>
   <time>2014-04-07T09:05:51Z</time>
  </trkpt>
  <trkpt lat="34.227954" lon="-3.024822">
   <ele>568.00</ele>
   <time>2014-04-07T09:05:53Z</time>
  </trkpt>
  <trkpt lat="34.228018" lon="-3.025043">
   <ele>568.00</ele>
   <time>2014-04-07T09:05:54Z</time>
  </trkpt>
  <trkpt lat="34.228065" lon="-3.025267">
   <ele>568.00</ele>
   <time>2014-04-07T09:05:55Z</time>
  </trkpt>
  <trkpt lat="34.228095" lon="-3.025494">
   <ele>567.00</ele>
   <time>2014-04-07T09:05:56Z</time>
  </trkpt>
  <trkpt lat="34.228115" lon="-3.025723">
   <ele>567.00</ele>
   <time>2014-04-07T09:05:57Z</time>
  </trkpt>
  <trkpt lat="34.228138" lon="-3.026184">
   <ele>566.00</ele>
   <time>2014-04-07T09:05:59Z</time>
  </trkpt>
  <trkpt lat="34.228198" lon="-3.028840">
   <ele>557.00</ele>
   <time>2014-04-07T09:06:10Z</time>
  </trkpt>
  <trkpt lat="34.228189" lon="-3.029329">
   <ele>556.00</ele>
   <time>2014-04-07T09:06:12Z</time>
  </trkpt>
  <trkpt lat="34.228110" lon="-3.031014">
   <ele>553.00</ele>
   <time>2014-04-07T09:06:19Z</time>
  </trkpt>
  <trkpt lat="34.228028" lon="-3.032357">
   <ele>551.00</ele>
   <time>2014-04-07T09:06:25Z</time>
  </trkpt>
  <trkpt lat="34.228051" lon="-3.032782">
   <ele>550.00</ele>
   <time>2014-04-07T09:06:27Z</time>
  </trkpt>
  <trkpt lat="34.228124" lon="-3.033203">
   <ele>550.00</ele>
   <time>2014-04-07T09:06:29Z</time>
  </trkpt>
  <trkpt lat="34.228175" lon="-3.033414">
   <ele>550.00</ele>
   <time>2014-04-07T09:06:30Z</time>
  </trkpt>
  <trkpt lat="34.228236" lon="-3.033621">
   <ele>549.00</ele>
   <time>2014-04-07T09:06:31Z</time>
  </trkpt>
  <trkpt lat="34.228307" lon="-3.033826">
   <ele>549.00</ele>
   <time>2014-04-07T09:06:32Z</time>
  </trkpt>
  <trkpt lat="34.228386" lon="-3.034028">
   <ele>549.00</ele>
   <time>2014-04-07T09:06:33Z</time>
  </trkpt>
  <trkpt lat="34.228474" lon="-3.034225">
   <ele>549.00</ele>
   <time>2014-04-07T09:06:34Z</time>
  </trkpt>
  <trkpt lat="34.228571" lon="-3.034417">
   <ele>548.00</ele>
   <time>2014-04-07T09:06:35Z</time>
  </trkpt>
  <trkpt lat="34.228676" lon="-3.034600">
   <ele>548.00</ele>
   <time>2014-04-07T09:06:36Z</time>
  </trkpt>
  <trkpt lat="34.228789" lon="-3.034773">
   <ele>548.00</ele>
   <time>2014-04-07T09:06:37Z</time>
  </trkpt>
  <trkpt lat="34.228912" lon="-3.034934">
   <ele>547.00</ele>
   <time>2014-04-07T09:06:38Z</time>
  </trkpt>
  <trkpt lat="34.229043" lon="-3.035085">
   <ele>547.00</ele>
   <time>2014-04-07T09:06:39Z</time>
  </trkpt>
  <trkpt lat="34.229569" lon="-3.035655">
   <ele>546.00</ele>
   <time>2014-04-07T09:06:43Z</time>
  </trkpt>
  <trkpt lat="34.229805" lon="-3.035977">
   <ele>545.00</ele>
   <time>2014-04-07T09:06:45Z</time>
  </trkpt>
  <trkpt lat="34.231539" lon="-3.038568">
   <ele>542.00</ele>
   <time>2014-04-07T09:07:00Z</time>
  </trkpt>
  <trkpt lat="34.231844" lon="-3.039095">
   <ele>540.00</ele>
   <time>2014-04-07T09:07:03Z</time>
  </trkpt>
  <trkpt lat="34.232027" lon="-3.039444">
   <ele>540.00</ele>
   <time>2014-04-07T09:07:05Z</time>
  </trkpt>
  <trkpt lat="34.232182" lon="-3.039795">
   <ele>539.00</ele>
   <time>2014-04-07T09:07:07Z</time>
  </trkpt>
  <trkpt lat="34.232313" lon="-3.040145">
   <ele>538.00</ele>
   <time>2014-04-07T09:07:09Z</time>
  </trkpt>
  <trkpt lat="34.232417" lon="-3.040490">
   <ele>538.00</ele>
   <time>2014-04-07T09:07:11Z</time>
  </trkpt>
  <trkpt lat="34.232491" lon="-3.040828">
   <ele>537.00</ele>
   <time>2014-04-07T09:07:13Z</time>
  </trkpt>
  <trkpt lat="34.232546" lon="-3.041160">
   <ele>537.00</ele>
   <time>2014-04-07T09:07:15Z</time>
  </trkpt>
  <trkpt lat="34.232626" lon="-3.041637">
   <ele>537.00</ele>
   <time>2014-04-07T09:07:18Z</time>
  </trkpt>
  <trkpt lat="34.232733" lon="-3.041919">
   <ele>537.00</ele>
   <time>2014-04-07T09:07:20Z</time>
  </trkpt>
  <trkpt lat="34.232917" lon="-3.042123">
   <ele>538.00</ele>
   <time>2014-04-07T09:07:22Z</time>
  </trkpt>
  <trkpt lat="34.233146" lon="-3.042262">
   <ele>538.00</ele>
   <time>2014-04-07T09:07:24Z</time>
  </trkpt>
  <trkpt lat="34.234959" lon="-3.043211">
   <ele>537.00</ele>
   <time>2014-04-07T09:07:37Z</time>
  </trkpt>
  <trkpt lat="34.235232" lon="-3.043410">
   <ele>537.00</ele>
   <time>2014-04-07T09:07:39Z</time>
  </trkpt>
  <trkpt lat="34.235485" lon="-3.043644">
   <ele>536.00</ele>
   <time>2014-04-07T09:07:41Z</time>
  </trkpt>
  <trkpt lat="34.235854" lon="-3.044025">
   <ele>536.00</ele>
   <time>2014-04-07T09:07:44Z</time>
  </trkpt>
  <trkpt lat="34.237655" lon="-3.046015">
   <ele>533.00</ele>
   <time>2014-04-07T09:07:59Z</time>
  </trkpt>
  <trkpt lat="34.239664" lon="-3.048295">
   <ele>528.00</ele>
   <time>2014-04-07T09:08:15Z</time>
  </trkpt>
  <trkpt lat="34.240301" lon="-3.049033">
   <ele>527.00</ele>
   <time>2014-04-07T09:08:20Z</time>
  </trkpt>
  <trkpt lat="34.240662" lon="-3.049492">
   <ele>527.00</ele>
   <time>2014-04-07T09:08:23Z</time>
  </trkpt>
  <trkpt lat="34.242075" lon="-3.051415">
   <ele>524.00</ele>
   <time>2014-04-07T09:08:35Z</time>
  </trkpt>
  <trkpt lat="34.243093" lon="-3.052915">
   <ele>521.00</ele>
   <time>2014-04-07T09:08:44Z</time>
  </trkpt>
  <trkpt lat="34.243816" lon="-3.054009">
   <ele>520.00</ele>
   <time>2014-04-07T09:08:51Z</time>
  </trkpt>
  <trkpt lat="34.244037" lon="-3.054300">
   <ele>520.00</ele>
   <time>2014-04-07T09:08:53Z</time>
  </trkpt>
  <trkpt lat="34.244280" lon="-3.054569">
   <ele>519.00</ele>
   <time>2014-04-07T09:08:55Z</time>
  </trkpt>
  <trkpt lat="34.245013" lon="-3.055272">
   <ele>518.00</ele>
   <time>2014-04-07T09:09:01Z</time>
  </trkpt>
  <trkpt lat="34.245268" lon="-3.055431">
   <ele>518.00</ele>
   <time>2014-04-07T09:09:03Z</time>
  </trkpt>
  <trkpt lat="34.245649" lon="-3.055601">
   <ele>517.00</ele>
   <time>2014-04-07T09:09:06Z</time>
  </trkpt>
  <trkpt lat="34.245870" lon="-3.055788">
   <ele>517.00</ele>
   <time>2014-04-07T09:09:08Z</time>
  </trkpt>
  <trkpt lat="34.247913" lon="-3.057673">
   <ele>513.00</ele>
   <time>2014-04-07T09:09:24Z</time>
  </trkpt>
  <trkpt lat="34.249972" lon="-3.059582">
   <ele>512.00</ele>
   <time>2014-04-07T09:09:40Z</time>
  </trkpt>
  <trkpt lat="34.250342" lon="-3.059912">
   <ele>512.00</ele>
   <time>2014-04-07T09:09:43Z</time>
  </trkpt>
  <trkpt lat="34.250619" lon="-3.060089">
   <ele>511.00</ele>
   <time>2014-04-07T09:09:45Z</time>
  </trkpt>
  <trkpt lat="34.250919" lon="-3.060240">
   <ele>511.00</ele>
   <time>2014-04-07T09:09:47Z</time>
  </trkpt>
  <trkpt lat="34.253127" lon="-3.061285">
   <ele>514.00</ele>
   <time>2014-04-07T09:10:01Z</time>
  </trkpt>
  <trkpt lat="34.253447" lon="-3.061410">
   <ele>514.00</ele>
   <time>2014-04-07T09:10:03Z</time>
  </trkpt>
  <trkpt lat="34.253772" lon="-3.061491">
   <ele>514.00</ele>
   <time>2014-04-07T09:10:05Z</time>
  </trkpt>
  <trkpt lat="34.254103" lon="-3.061495">
   <ele>514.00</ele>
   <time>2014-04-07T09:10:07Z</time>
  </trkpt>
  <trkpt lat="34.254429" lon="-3.061433">
   <ele>514.00</ele>
   <time>2014-04-07T09:10:09Z</time>
  </trkpt>
  <trkpt lat="34.254747" lon="-3.061333">
   <ele>513.00</ele>
   <time>2014-04-07T09:10:11Z</time>
  </trkpt>
  <trkpt lat="34.257729" lon="-3.060256">
   <ele>507.00</ele>
   <time>2014-04-07T09:10:27Z</time>
  </trkpt>
  <trkpt lat="34.260744" lon="-3.059177">
   <ele>507.00</ele>
   <time>2014-04-07T09:10:43Z</time>
  </trkpt>
  <trkpt lat="34.261102" lon="-3.059065">
   <ele>506.00</ele>
   <time>2014-04-07T09:10:45Z</time>
  </trkpt>
  <trkpt lat="34.261282" lon="-3.059038">
   <ele>505.00</ele>
   <time>2014-04-07T09:10:46Z</time>
  </trkpt>
  <trkpt lat="34.261622" lon="-3.059088">
   <ele>505.00</ele>
   <time>2014-04-07T09:10:48Z</time>
  </trkpt>
  <trkpt lat="34.261898" lon="-3.059283">
   <ele>504.00</ele>
   <time>2014-04-07T09:10:50Z</time>
  </trkpt>
  <trkpt lat="34.262132" lon="-3.059560">
   <ele>503.00</ele>
   <time>2014-04-07T09:10:52Z</time>
  </trkpt>
  <trkpt lat="34.262358" lon="-3.059875">
   <ele>502.00</ele>
   <time>2014-04-07T09:10:54Z</time>
  </trkpt>
  <trkpt lat="34.262927" lon="-3.060687">
   <ele>501.00</ele>
   <time>2014-04-07T09:10:59Z</time>
  </trkpt>
  <trkpt lat="34.263259" lon="-3.061172">
   <ele>500.00</ele>
   <time>2014-04-07T09:11:02Z</time>
  </trkpt>
  <trkpt lat="34.263502" lon="-3.061461">
   <ele>497.00</ele>
   <time>2014-04-07T09:11:04Z</time>
  </trkpt>
  <trkpt lat="34.264000" lon="-3.062005">
   <ele>494.00</ele>
   <time>2014-04-07T09:11:08Z</time>
  </trkpt>
  <trkpt lat="34.264252" lon="-3.062213">
   <ele>494.00</ele>
   <time>2014-04-07T09:11:10Z</time>
  </trkpt>
  <trkpt lat="34.264510" lon="-3.062296">
   <ele>494.00</ele>
   <time>2014-04-07T09:11:12Z</time>
  </trkpt>
  <trkpt lat="34.264781" lon="-3.062302">
   <ele>494.00</ele>
   <time>2014-04-07T09:11:14Z</time>
  </trkpt>
  <trkpt lat="34.267392" lon="-3.062245">
   <ele>499.00</ele>
   <time>2014-04-07T09:11:30Z</time>
  </trkpt>
  <trkpt lat="34.269245" lon="-3.062222">
   <ele>500.00</ele>
   <time>2014-04-07T09:11:40Z</time>
  </trkpt>
  <trkpt lat="34.269999" lon="-3.062228">
   <ele>501.00</ele>
   <time>2014-04-07T09:11:44Z</time>
  </trkpt>
  <trkpt lat="34.271298" lon="-3.062213">
   <ele>505.00</ele>
   <time>2014-04-07T09:11:51Z</time>
  </trkpt>
  <trkpt lat="34.272022" lon="-3.062215">
   <ele>508.00</ele>
   <time>2014-04-07T09:11:55Z</time>
  </trkpt>
  <trkpt lat="34.273356" lon="-3.062192">
   <ele>514.00</ele>
   <time>2014-04-07T09:12:03Z</time>
  </trkpt>
  <trkpt lat="34.273750" lon="-3.062165">
   <ele>516.00</ele>
   <time>2014-04-07T09:12:06Z</time>
  </trkpt>
  <trkpt lat="34.274303" lon="-3.062114">
   <ele>517.00</ele>
   <time>2014-04-07T09:12:12Z</time>
  </trkpt>
  <trkpt lat="34.274301" lon="-3.062365">
   <ele>518.00</ele>
   <time>2014-04-07T09:12:16Z</time>
  </trkpt>
  <trkpt lat="34.274137" lon="-3.062742">
   <ele>517.00</ele>
   <time>2014-04-07T09:12:20Z</time>
  </trkpt>
  <trkpt lat="34.273666" lon="-3.063877">
   <ele>515.00</ele>
   <time>2014-04-07T09:12:28Z</time>
  </trkpt>
  <trkpt lat="34.273573" lon="-3.064239">
   <ele>515.00</ele>
   <time>2014-04-07T09:12:30Z</time>
  </trkpt>
  <trkpt lat="34.273516" lon="-3.064633">
   <ele>516.00</ele>
   <time>2014-04-07T09:12:32Z</time>
  </trkpt>
  <trkpt lat="34.273154" lon="-3.068016">
   <ele>513.00</ele>
   <time>2014-04-07T09:12:47Z</time>
  </trkpt>
  <trkpt lat="34.273124" lon="-3.068479">
   <ele>512.00</ele>
   <time>2014-04-07T09:12:49Z</time>
  </trkpt>
  <trkpt lat="34.273102" lon="-3.069640">
   <ele>511.00</ele>
   <time>2014-04-07T09:12:54Z</time>
  </trkpt>
  <trkpt lat="34.273092" lon="-3.072098">
   <ele>506.00</ele>
   <time>2014-04-07T09:13:05Z</time>
  </trkpt>
  <trkpt lat="34.273081" lon="-3.072321">
   <ele>505.00</ele>
   <time>2014-04-07T09:13:06Z</time>
  </trkpt>
  <trkpt lat="34.273062" lon="-3.072542">
   <ele>505.00</ele>
   <time>2014-04-07T09:13:07Z</time>
  </trkpt>
  <trkpt lat="34.273032" lon="-3.072758">
   <ele>504.00</ele>
   <time>2014-04-07T09:13:08Z</time>
  </trkpt>
  <trkpt lat="34.272948" lon="-3.073179">
   <ele>502.00</ele>
   <time>2014-04-07T09:13:10Z</time>
  </trkpt>
  <trkpt lat="34.272844" lon="-3.073591">
   <ele>501.00</ele>
   <time>2014-04-07T09:13:12Z</time>
  </trkpt>
  <trkpt lat="34.272523" lon="-3.074783">
   <ele>496.00</ele>
   <time>2014-04-07T09:13:18Z</time>
  </trkpt>
  <trkpt lat="34.272478" lon="-3.075152">
   <ele>494.00</ele>
   <time>2014-04-07T09:13:20Z</time>
  </trkpt>
  <trkpt lat="34.272520" lon="-3.075524">
   <ele>494.00</ele>
   <time>2014-04-07T09:13:22Z</time>
  </trkpt>
  <trkpt lat="34.272633" lon="-3.075902">
   <ele>493.00</ele>
   <time>2014-04-07T09:13:24Z</time>
  </trkpt>
  <trkpt lat="34.273507" lon="-3.078569">
   <ele>491.00</ele>
   <time>2014-04-07T09:13:37Z</time>
  </trkpt>
  <trkpt lat="34.273677" lon="-3.078975">
   <ele>491.00</ele>
   <time>2014-04-07T09:13:39Z</time>
  </trkpt>
  <trkpt lat="34.274119" lon="-3.079896">
   <ele>491.00</ele>
   <time>2014-04-07T09:13:44Z</time>
  </trkpt>
  <trkpt lat="34.274309" lon="-3.080204">
   <ele>491.00</ele>
   <time>2014-04-07T09:13:46Z</time>
  </trkpt>
  <trkpt lat="34.274555" lon="-3.080442">
   <ele>491.00</ele>
   <time>2014-04-07T09:13:48Z</time>
  </trkpt>
  <trkpt lat="34.274984" lon="-3.080768">
   <ele>490.00</ele>
   <time>2014-04-07T09:13:51Z</time>
  </trkpt>
  <trkpt lat="34.275278" lon="-3.080993">
   <ele>490.00</ele>
   <time>2014-04-07T09:13:53Z</time>
  </trkpt>
  <trkpt lat="34.275559" lon="-3.081234">
   <ele>489.00</ele>
   <time>2014-04-07T09:13:55Z</time>
  </trkpt>
  <trkpt lat="34.275837" lon="-3.081474">
   <ele>489.00</ele>
   <time>2014-04-07T09:13:57Z</time>
  </trkpt>
  <trkpt lat="34.276128" lon="-3.081689">
   <ele>488.00</ele>
   <time>2014-04-07T09:13:59Z</time>
  </trkpt>
  <trkpt lat="34.276426" lon="-3.081872">
   <ele>488.00</ele>
   <time>2014-04-07T09:14:01Z</time>
  </trkpt>
  <trkpt lat="34.276726" lon="-3.082017">
   <ele>488.00</ele>
   <time>2014-04-07T09:14:03Z</time>
  </trkpt>
  <trkpt lat="34.277148" lon="-3.082219">
   <ele>488.00</ele>
   <time>2014-04-07T09:14:06Z</time>
  </trkpt>
  <trkpt lat="34.277367" lon="-3.082435">
   <ele>488.00</ele>
   <time>2014-04-07T09:14:08Z</time>
  </trkpt>
  <trkpt lat="34.277504" lon="-3.082743">
   <ele>488.00</ele>
   <time>2014-04-07T09:14:10Z</time>
  </trkpt>
  <trkpt lat="34.277607" lon="-3.083094">
   <ele>488.00</ele>
   <time>2014-04-07T09:14:12Z</time>
  </trkpt>
  <trkpt lat="34.278106" lon="-3.084876">
   <ele>487.00</ele>
   <time>2014-04-07T09:14:21Z</time>
  </trkpt>
  <trkpt lat="34.278855" lon="-3.087861">
   <ele>485.00</ele>
   <time>2014-04-07T09:14:35Z</time>
  </trkpt>
  <trkpt lat="34.279048" lon="-3.088507">
   <ele>484.00</ele>
   <time>2014-04-07T09:14:38Z</time>
  </trkpt>
  <trkpt lat="34.280120" lon="-3.091735">
   <ele>482.00</ele>
   <time>2014-04-07T09:14:53Z</time>
  </trkpt>
  <trkpt lat="34.280366" lon="-3.092350">
   <ele>482.00</ele>
   <time>2014-04-07T09:14:56Z</time>
  </trkpt>
  <trkpt lat="34.280635" lon="-3.092952">
   <ele>481.00</ele>
   <time>2014-04-07T09:14:59Z</time>
  </trkpt>
  <trkpt lat="34.280825" lon="-3.093327">
   <ele>481.00</ele>
   <time>2014-04-07T09:15:01Z</time>
  </trkpt>
  <trkpt lat="34.281229" lon="-3.094047">
   <ele>479.00</ele>
   <time>2014-04-07T09:15:05Z</time>
  </trkpt>
  <trkpt lat="34.281344" lon="-3.094217">
   <ele>479.00</ele>
   <time>2014-04-07T09:15:06Z</time>
  </trkpt>
  <trkpt lat="34.281469" lon="-3.094380">
   <ele>478.00</ele>
   <time>2014-04-07T09:15:07Z</time>
  </trkpt>
  <trkpt lat="34.281873" lon="-3.094852">
   <ele>477.00</ele>
   <time>2014-04-07T09:15:10Z</time>
  </trkpt>
  <trkpt lat="34.283930" lon="-3.097158">
   <ele>473.00</ele>
   <time>2014-04-07T09:15:25Z</time>
  </trkpt>
  <trkpt lat="34.284545" lon="-3.097834">
   <ele>475.00</ele>
   <time>2014-04-07T09:15:30Z</time>
  </trkpt>
  <trkpt lat="34.284804" lon="-3.098085">
   <ele>476.00</ele>
   <time>2014-04-07T09:15:32Z</time>
  </trkpt>
  <trkpt lat="34.285086" lon="-3.098306">
   <ele>476.00</ele>
   <time>2014-04-07T09:15:34Z</time>
  </trkpt>
  <trkpt lat="34.285395" lon="-3.098486">
   <ele>476.00</ele>
   <time>2014-04-07T09:15:36Z</time>
  </trkpt>
  <trkpt lat="34.285720" lon="-3.098642">
   <ele>476.00</ele>
   <time>2014-04-07T09:15:38Z</time>
  </trkpt>
  <trkpt lat="34.287388" lon="-3.099412">
   <ele>474.00</ele>
   <time>2014-04-07T09:15:48Z</time>
  </trkpt>
  <trkpt lat="34.287689" lon="-3.099603">
   <ele>474.00</ele>
   <time>2014-04-07T09:15:50Z</time>
  </trkpt>
  <trkpt lat="34.287967" lon="-3.099850">
   <ele>474.00</ele>
   <time>2014-04-07T09:15:52Z</time>
  </trkpt>
  <trkpt lat="34.288226" lon="-3.100138">
   <ele>473.00</ele>
   <time>2014-04-07T09:15:54Z</time>
  </trkpt>
  <trkpt lat="34.288476" lon="-3.100449">
   <ele>473.00</ele>
   <time>2014-04-07T09:15:56Z</time>
  </trkpt>
  <trkpt lat="34.288715" lon="-3.100779">
   <ele>473.00</ele>
   <time>2014-04-07T09:15:58Z</time>
  </trkpt>
  <trkpt lat="34.288945" lon="-3.101125">
   <ele>472.00</ele>
   <time>2014-04-07T09:16:00Z</time>
  </trkpt>
  <trkpt lat="34.289824" lon="-3.102563">
   <ele>471.00</ele>
   <time>2014-04-07T09:16:08Z</time>
  </trkpt>
  <trkpt lat="34.290035" lon="-3.102931">
   <ele>471.00</ele>
   <time>2014-04-07T09:16:10Z</time>
  </trkpt>
  <trkpt lat="34.290133" lon="-3.103121">
   <ele>471.00</ele>
   <time>2014-04-07T09:16:11Z</time>
  </trkpt>
  <trkpt lat="34.290316" lon="-3.103513">
   <ele>470.00</ele>
   <time>2014-04-07T09:16:13Z</time>
  </trkpt>
  <trkpt lat="34.291783" lon="-3.106653">
   <ele>468.00</ele>
   <time>2014-04-07T09:16:29Z</time>
  </trkpt>
  <trkpt lat="34.292627" lon="-3.108395">
   <ele>468.00</ele>
   <time>2014-04-07T09:16:39Z</time>
  </trkpt>
  <trkpt lat="34.292813" lon="-3.108654">
   <ele>468.00</ele>
   <time>2014-04-07T09:16:41Z</time>
  </trkpt>
  <trkpt lat="34.293056" lon="-3.108853">
   <ele>467.00</ele>
   <time>2014-04-07T09:16:43Z</time>
  </trkpt>
  <trkpt lat="34.294764" lon="-3.110134">
   <ele>466.00</ele>
   <time>2014-04-07T09:16:55Z</time>
  </trkpt>
  <trkpt lat="34.296782" lon="-3.111857">
   <ele>467.00</ele>
   <time>2014-04-07T09:17:09Z</time>
  </trkpt>
  <trkpt lat="34.297633" lon="-3.112591">
   <ele>469.00</ele>
   <time>2014-04-07T09:17:15Z</time>
  </trkpt>
  <trkpt lat="34.297929" lon="-3.112807">
   <ele>470.00</ele>
   <time>2014-04-07T09:17:17Z</time>
  </trkpt>
  <trkpt lat="34.298539" lon="-3.113234">
   <ele>470.00</ele>
   <time>2014-04-07T09:17:21Z</time>
  </trkpt>
  <trkpt lat="34.298828" lon="-3.113474">
   <ele>470.00</ele>
   <time>2014-04-07T09:17:23Z</time>
  </trkpt>
  <trkpt lat="34.300666" lon="-3.115144">
   <ele>467.00</ele>
   <time>2014-04-07T09:17:38Z</time>
  </trkpt>
  <trkpt lat="34.300833" lon="-3.115275">
   <ele>466.00</ele>
   <time>2014-04-07T09:17:41Z</time>
  </trkpt>
  <trkpt lat="34.300944" lon="-3.115485">
   <ele>465.00</ele>
   <time>2014-04-07T09:17:45Z</time>
  </trkpt>
  <trkpt lat="34.300939" lon="-3.115780">
   <ele>465.00</ele>
   <time>2014-04-07T09:17:48Z</time>
  </trkpt>
  <trkpt lat="34.300833" lon="-3.118645">
   <ele>459.00</ele>
   <time>2014-04-07T09:18:04Z</time>
  </trkpt>
  <trkpt lat="34.300722" lon="-3.122360">
   <ele>447.00</ele>
   <time>2014-04-07T09:18:19Z</time>
  </trkpt>
  <trkpt lat="34.300601" lon="-3.126522">
   <ele>443.00</ele>
   <time>2014-04-07T09:18:35Z</time>
  </trkpt>
  <trkpt lat="34.300491" lon="-3.130258">
   <ele>439.00</ele>
   <time>2014-04-07T09:18:50Z</time>
  </trkpt>
  <trkpt lat="34.300466" lon="-3.130754">
   <ele>438.00</ele>
   <time>2014-04-07T09:18:52Z</time>
  </trkpt>
  <trkpt lat="34.300397" lon="-3.131502">
   <ele>437.00</ele>
   <time>2014-04-07T09:18:55Z</time>
  </trkpt>
  <trkpt lat="34.299987" lon="-3.135237">
   <ele>428.00</ele>
   <time>2014-04-07T09:19:10Z</time>
  </trkpt>
  <trkpt lat="34.299785" lon="-3.137258">
   <ele>425.00</ele>
   <time>2014-04-07T09:19:18Z</time>
  </trkpt>
  <trkpt lat="34.299759" lon="-3.137764">
   <ele>425.00</ele>
   <time>2014-04-07T09:19:20Z</time>
  </trkpt>
  <trkpt lat="34.299760" lon="-3.138270">
   <ele>425.00</ele>
   <time>2014-04-07T09:19:22Z</time>
  </trkpt>
  <trkpt lat="34.299828" lon="-3.141015">
   <ele>423.00</ele>
   <time>2014-04-07T09:19:33Z</time>
  </trkpt>
  <trkpt lat="34.299806" lon="-3.141480">
   <ele>422.00</ele>
   <time>2014-04-07T09:19:35Z</time>
  </trkpt>
  <trkpt lat="34.299784" lon="-3.141708">
   <ele>422.00</ele>
   <time>2014-04-07T09:19:36Z</time>
  </trkpt>
  <trkpt lat="34.299753" lon="-3.141932">
   <ele>422.00</ele>
   <time>2014-04-07T09:19:37Z</time>
  </trkpt>
  <trkpt lat="34.299710" lon="-3.142153">
   <ele>421.00</ele>
   <time>2014-04-07T09:19:38Z</time>
  </trkpt>
  <trkpt lat="34.299657" lon="-3.142372">
   <ele>421.00</ele>
   <time>2014-04-07T09:19:39Z</time>
  </trkpt>
  <trkpt lat="34.299593" lon="-3.142588">
   <ele>420.00</ele>
   <time>2014-04-07T09:19:40Z</time>
  </trkpt>
  <trkpt lat="34.299518" lon="-3.142801">
   <ele>420.00</ele>
   <time>2014-04-07T09:19:41Z</time>
  </trkpt>
  <trkpt lat="34.299431" lon="-3.143008">
   <ele>420.00</ele>
   <time>2014-04-07T09:19:42Z</time>
  </trkpt>
  <trkpt lat="34.299333" lon="-3.143209">
   <ele>420.00</ele>
   <time>2014-04-07T09:19:43Z</time>
  </trkpt>
  <trkpt lat="34.299226" lon="-3.143405">
   <ele>419.00</ele>
   <time>2014-04-07T09:19:44Z</time>
  </trkpt>
  <trkpt lat="34.299110" lon="-3.143594">
   <ele>419.00</ele>
   <time>2014-04-07T09:19:45Z</time>
  </trkpt>
  <trkpt lat="34.298989" lon="-3.143776">
   <ele>419.00</ele>
   <time>2014-04-07T09:19:46Z</time>
  </trkpt>
  <trkpt lat="34.298119" lon="-3.145011">
   <ele>420.00</ele>
   <time>2014-04-07T09:19:53Z</time>
  </trkpt>
  <trkpt lat="34.297985" lon="-3.145176">
   <ele>420.00</ele>
   <time>2014-04-07T09:19:54Z</time>
  </trkpt>
  <trkpt lat="34.297842" lon="-3.145333">
   <ele>421.00</ele>
   <time>2014-04-07T09:19:55Z</time>
  </trkpt>
  <trkpt lat="34.297693" lon="-3.145481">
   <ele>421.00</ele>
   <time>2014-04-07T09:19:56Z</time>
  </trkpt>
  <trkpt lat="34.297538" lon="-3.145621">
   <ele>421.00</ele>
   <time>2014-04-07T09:19:57Z</time>
  </trkpt>
  <trkpt lat="34.297379" lon="-3.145753">
   <ele>421.00</ele>
   <time>2014-04-07T09:19:58Z</time>
  </trkpt>
  <trkpt lat="34.297217" lon="-3.145876">
   <ele>422.00</ele>
   <time>2014-04-07T09:19:59Z</time>
  </trkpt>
  <trkpt lat="34.297050" lon="-3.145986">
   <ele>422.00</ele>
   <time>2014-04-07T09:20:00Z</time>
  </trkpt>
  <trkpt lat="34.296878" lon="-3.146083">
   <ele>422.00</ele>
   <time>2014-04-07T09:20:01Z</time>
  </trkpt>
  <trkpt lat="34.296701" lon="-3.146166">
   <ele>423.00</ele>
   <time>2014-04-07T09:20:02Z</time>
  </trkpt>
  <trkpt lat="34.296519" lon="-3.146234">
   <ele>423.00</ele>
   <time>2014-04-07T09:20:03Z</time>
  </trkpt>
  <trkpt lat="34.296333" lon="-3.146289">
   <ele>423.00</ele>
   <time>2014-04-07T09:20:04Z</time>
  </trkpt>
  <trkpt lat="34.296146" lon="-3.146333">
   <ele>423.00</ele>
   <time>2014-04-07T09:20:05Z</time>
  </trkpt>
  <trkpt lat="34.295773" lon="-3.146400">
   <ele>423.00</ele>
   <time>2014-04-07T09:20:07Z</time>
  </trkpt>
  <trkpt lat="34.295398" lon="-3.146449">
   <ele>422.00</ele>
   <time>2014-04-07T09:20:09Z</time>
  </trkpt>
  <trkpt lat="34.294243" lon="-3.146619">
   <ele>421.00</ele>
   <time>2014-04-07T09:20:15Z</time>
  </trkpt>
  <trkpt lat="34.293271" lon="-3.146798">
   <ele>421.00</ele>
   <time>2014-04-07T09:20:20Z</time>
  </trkpt>
  <trkpt lat="34.293082" lon="-3.146852">
   <ele>421.00</ele>
   <time>2014-04-07T09:20:21Z</time>
  </trkpt>
  <trkpt lat="34.292897" lon="-3.146919">
   <ele>421.00</ele>
   <time>2014-04-07T09:20:22Z</time>
  </trkpt>
  <trkpt lat="34.292713" lon="-3.146996">
   <ele>422.00</ele>
   <time>2014-04-07T09:20:23Z</time>
  </trkpt>
  <trkpt lat="34.292354" lon="-3.147175">
   <ele>422.00</ele>
   <time>2014-04-07T09:20:25Z</time>
  </trkpt>
  <trkpt lat="34.292179" lon="-3.147278">
   <ele>423.00</ele>
   <time>2014-04-07T09:20:26Z</time>
  </trkpt>
  <trkpt lat="34.292009" lon="-3.147390">
   <ele>424.00</ele>
   <time>2014-04-07T09:20:27Z</time>
  </trkpt>
  <trkpt lat="34.291843" lon="-3.147511">
   <ele>424.00</ele>
   <time>2014-04-07T09:20:28Z</time>
  </trkpt>
  <trkpt lat="34.291681" lon="-3.147642">
   <ele>425.00</ele>
   <time>2014-04-07T09:20:29Z</time>
  </trkpt>
  <trkpt lat="34.291525" lon="-3.147785">
   <ele>425.00</ele>
   <time>2014-04-07T09:20:30Z</time>
  </trkpt>
  <trkpt lat="34.291375" lon="-3.147940">
   <ele>426.00</ele>
   <time>2014-04-07T09:20:31Z</time>
  </trkpt>
  <trkpt lat="34.291230" lon="-3.148104">
   <ele>426.00</ele>
   <time>2014-04-07T09:20:32Z</time>
  </trkpt>
  <trkpt lat="34.291091" lon="-3.148277">
   <ele>427.00</ele>
   <time>2014-04-07T09:20:33Z</time>
  </trkpt>
  <trkpt lat="34.290826" lon="-3.148643">
   <ele>428.00</ele>
   <time>2014-04-07T09:20:35Z</time>
  </trkpt>
  <trkpt lat="34.290700" lon="-3.148833">
   <ele>428.00</ele>
   <time>2014-04-07T09:20:36Z</time>
  </trkpt>
  <trkpt lat="34.290579" lon="-3.149030">
   <ele>428.00</ele>
   <time>2014-04-07T09:20:37Z</time>
  </trkpt>
  <trkpt lat="34.290466" lon="-3.149233">
   <ele>429.00</ele>
   <time>2014-04-07T09:20:38Z</time>
  </trkpt>
  <trkpt lat="34.290360" lon="-3.149441">
   <ele>429.00</ele>
   <time>2014-04-07T09:20:39Z</time>
  </trkpt>
  <trkpt lat="34.290264" lon="-3.149656">
   <ele>428.00</ele>
   <time>2014-04-07T09:20:40Z</time>
  </trkpt>
  <trkpt lat="34.290179" lon="-3.149881">
   <ele>428.00</ele>
   <time>2014-04-07T09:20:41Z</time>
  </trkpt>
  <trkpt lat="34.290103" lon="-3.150113">
   <ele>428.00</ele>
   <time>2014-04-07T09:20:42Z</time>
  </trkpt>
  <trkpt lat="34.289972" lon="-3.150591">
   <ele>427.00</ele>
   <time>2014-04-07T09:20:44Z</time>
  </trkpt>
  <trkpt lat="34.289918" lon="-3.150837">
   <ele>427.00</ele>
   <time>2014-04-07T09:20:45Z</time>
  </trkpt>
  <trkpt lat="34.289137" lon="-3.154916">
   <ele>426.00</ele>
   <time>2014-04-07T09:21:01Z</time>
  </trkpt>
  <trkpt lat="34.288358" lon="-3.159001">
   <ele>427.00</ele>
   <time>2014-04-07T09:21:17Z</time>
  </trkpt>
  <trkpt lat="34.287613" lon="-3.162859">
   <ele>427.00</ele>
   <time>2014-04-07T09:21:32Z</time>
  </trkpt>
  <trkpt lat="34.286816" lon="-3.166972">
   <ele>427.00</ele>
   <time>2014-04-07T09:21:48Z</time>
  </trkpt>
  <trkpt lat="34.286010" lon="-3.171098">
   <ele>424.00</ele>
   <time>2014-04-07T09:22:04Z</time>
  </trkpt>
  <trkpt lat="34.285795" lon="-3.172125">
   <ele>424.00</ele>
   <time>2014-04-07T09:22:08Z</time>
  </trkpt>
  <trkpt lat="34.285540" lon="-3.173141">
   <ele>424.00</ele>
   <time>2014-04-07T09:22:12Z</time>
  </trkpt>
  <trkpt lat="34.285391" lon="-3.173643">
   <ele>424.00</ele>
   <time>2014-04-07T09:22:14Z</time>
  </trkpt>
  <trkpt lat="34.285223" lon="-3.174137">
   <ele>424.00</ele>
   <time>2014-04-07T09:22:16Z</time>
  </trkpt>
  <trkpt lat="34.284854" lon="-3.175106">
   <ele>424.00</ele>
   <time>2014-04-07T09:22:20Z</time>
  </trkpt>
  <trkpt lat="34.284651" lon="-3.175576">
   <ele>423.00</ele>
   <time>2014-04-07T09:22:22Z</time>
  </trkpt>
  <trkpt lat="34.284213" lon="-3.176489">
   <ele>423.00</ele>
   <time>2014-04-07T09:22:26Z</time>
  </trkpt>
  <trkpt lat="34.282362" lon="-3.180077">
   <ele>421.00</ele>
   <time>2014-04-07T09:22:42Z</time>
  </trkpt>
  <trkpt lat="34.280604" lon="-3.183509">
   <ele>420.00</ele>
   <time>2014-04-07T09:22:57Z</time>
  </trkpt>
  <trkpt lat="34.278728" lon="-3.187172">
   <ele>419.00</ele>
   <time>2014-04-07T09:23:13Z</time>
  </trkpt>
  <trkpt lat="34.277153" lon="-3.190250">
   <ele>419.00</ele>
   <time>2014-04-07T09:23:28Z</time>
  </trkpt>
  <trkpt lat="34.276337" lon="-3.191865">
   <ele>418.00</ele>
   <time>2014-04-07T09:23:36Z</time>
  </trkpt>
  <trkpt lat="34.276144" lon="-3.192291">
   <ele>418.00</ele>
   <time>2014-04-07T09:23:38Z</time>
  </trkpt>
  <trkpt lat="34.275965" lon="-3.192734">
   <ele>417.00</ele>
   <time>2014-04-07T09:23:40Z</time>
  </trkpt>
  <trkpt lat="34.275802" lon="-3.193195">
   <ele>417.00</ele>
   <time>2014-04-07T09:23:42Z</time>
  </trkpt>
  <trkpt lat="34.274570" lon="-3.197011">
   <ele>414.00</ele>
   <time>2014-04-07T09:23:58Z</time>
  </trkpt>
  <trkpt lat="34.273402" lon="-3.200646">
   <ele>412.00</ele>
   <time>2014-04-07T09:24:13Z</time>
  </trkpt>
  <trkpt lat="34.272131" lon="-3.204582">
   <ele>412.00</ele>
   <time>2014-04-07T09:24:29Z</time>
  </trkpt>
  <trkpt lat="34.270879" lon="-3.208478">
   <ele>412.00</ele>
   <time>2014-04-07T09:24:45Z</time>
  </trkpt>
  <trkpt lat="34.269674" lon="-3.212223">
   <ele>412.00</ele>
   <time>2014-04-07T09:25:00Z</time>
  </trkpt>
  <trkpt lat="34.268399" lon="-3.216162">
   <ele>411.00</ele>
   <time>2014-04-07T09:25:16Z</time>
  </trkpt>
  <trkpt lat="34.267208" lon="-3.219894">
   <ele>411.00</ele>
   <time>2014-04-07T09:25:31Z</time>
  </trkpt>
  <trkpt lat="34.265990" lon="-3.223662">
   <ele>410.00</ele>
   <time>2014-04-07T09:25:47Z</time>
  </trkpt>
  <trkpt lat="34.264821" lon="-3.227296">
   <ele>409.00</ele>
   <time>2014-04-07T09:26:03Z</time>
  </trkpt>
  <trkpt lat="34.263719" lon="-3.230709">
   <ele>409.00</ele>
   <time>2014-04-07T09:26:18Z</time>
  </trkpt>
  <trkpt lat="34.262541" lon="-3.234346">
   <ele>408.00</ele>
   <time>2014-04-07T09:26:34Z</time>
  </trkpt>
  <trkpt lat="34.262337" lon="-3.235014">
   <ele>408.00</ele>
   <time>2014-04-07T09:26:37Z</time>
  </trkpt>
  <trkpt lat="34.262217" lon="-3.235470">
   <ele>408.00</ele>
   <time>2014-04-07T09:26:39Z</time>
  </trkpt>
  <trkpt lat="34.262112" lon="-3.235937">
   <ele>408.00</ele>
   <time>2014-04-07T09:26:41Z</time>
  </trkpt>
  <trkpt lat="34.262022" lon="-3.236416">
   <ele>407.00</ele>
   <time>2014-04-07T09:26:43Z</time>
  </trkpt>
  <trkpt lat="34.261414" lon="-3.240356">
   <ele>404.00</ele>
   <time>2014-04-07T09:26:59Z</time>
  </trkpt>
  <trkpt lat="34.260787" lon="-3.244487">
   <ele>399.00</ele>
   <time>2014-04-07T09:27:15Z</time>
  </trkpt>
  <trkpt lat="34.260445" lon="-3.246752">
   <ele>395.00</ele>
   <time>2014-04-07T09:27:24Z</time>
  </trkpt>
  <trkpt lat="34.260294" lon="-3.247963">
   <ele>394.00</ele>
   <time>2014-04-07T09:27:29Z</time>
  </trkpt>
  <trkpt lat="34.260250" lon="-3.248201">
   <ele>394.00</ele>
   <time>2014-04-07T09:27:30Z</time>
  </trkpt>
  <trkpt lat="34.260198" lon="-3.248437">
   <ele>393.00</ele>
   <time>2014-04-07T09:27:31Z</time>
  </trkpt>
  <trkpt lat="34.260136" lon="-3.248669">
   <ele>393.00</ele>
   <time>2014-04-07T09:27:32Z</time>
  </trkpt>
  <trkpt lat="34.260066" lon="-3.248899">
   <ele>393.00</ele>
   <time>2014-04-07T09:27:33Z</time>
  </trkpt>
  <trkpt lat="34.259912" lon="-3.249350">
   <ele>393.00</ele>
   <time>2014-04-07T09:27:35Z</time>
  </trkpt>
  <trkpt lat="34.259745" lon="-3.249789">
   <ele>393.00</ele>
   <time>2014-04-07T09:27:37Z</time>
  </trkpt>
  <trkpt lat="34.259654" lon="-3.250004">
   <ele>393.00</ele>
   <time>2014-04-07T09:27:38Z</time>
  </trkpt>
  <trkpt lat="34.259555" lon="-3.250213">
   <ele>394.00</ele>
   <time>2014-04-07T09:27:39Z</time>
  </trkpt>
  <trkpt lat="34.259447" lon="-3.250415">
   <ele>394.00</ele>
   <time>2014-04-07T09:27:40Z</time>
  </trkpt>
  <trkpt lat="34.259330" lon="-3.250610">
   <ele>395.00</ele>
   <time>2014-04-07T09:27:41Z</time>
  </trkpt>
  <trkpt lat="34.258827" lon="-3.251377">
   <ele>396.00</ele>
   <time>2014-04-07T09:27:45Z</time>
  </trkpt>
  <trkpt lat="34.256791" lon="-3.254461">
   <ele>398.00</ele>
   <time>2014-04-07T09:28:01Z</time>
  </trkpt>
  <trkpt lat="34.255999" lon="-3.255596">
   <ele>397.00</ele>
   <time>2014-04-07T09:28:07Z</time>
  </trkpt>
  <trkpt lat="34.253818" lon="-3.258575">
   <ele>401.00</ele>
   <time>2014-04-07T09:28:23Z</time>
  </trkpt>
  <trkpt lat="34.252140" lon="-3.260837">
   <ele>403.00</ele>
   <time>2014-04-07T09:28:35Z</time>
  </trkpt>
  <trkpt lat="34.251842" lon="-3.261188">
   <ele>404.00</ele>
   <time>2014-04-07T09:28:37Z</time>
  </trkpt>
  <trkpt lat="34.251528" lon="-3.261521">
   <ele>405.00</ele>
   <time>2014-04-07T09:28:39Z</time>
  </trkpt>
  <trkpt lat="34.250875" lon="-3.262156">
   <ele>406.00</ele>
   <time>2014-04-07T09:28:43Z</time>
  </trkpt>
  <trkpt lat="34.248227" lon="-3.264647">
   <ele>405.00</ele>
   <time>2014-04-07T09:28:59Z</time>
  </trkpt>
  <trkpt lat="34.246059" lon="-3.266707">
   <ele>399.00</ele>
   <time>2014-04-07T09:29:12Z</time>
  </trkpt>
  <trkpt lat="34.245906" lon="-3.266881">
   <ele>398.00</ele>
   <time>2014-04-07T09:29:13Z</time>
  </trkpt>
  <trkpt lat="34.245762" lon="-3.267064">
   <ele>398.00</ele>
   <time>2014-04-07T09:29:14Z</time>
  </trkpt>
  <trkpt lat="34.245624" lon="-3.267255">
   <ele>397.00</ele>
   <time>2014-04-07T09:29:15Z</time>
  </trkpt>
  <trkpt lat="34.245491" lon="-3.267453">
   <ele>397.00</ele>
   <time>2014-04-07T09:29:16Z</time>
  </trkpt>
  <trkpt lat="34.245365" lon="-3.267659">
   <ele>396.00</ele>
   <time>2014-04-07T09:29:17Z</time>
  </trkpt>
  <trkpt lat="34.245246" lon="-3.267873">
   <ele>396.00</ele>
   <time>2014-04-07T09:29:18Z</time>
  </trkpt>
  <trkpt lat="34.245136" lon="-3.268094">
   <ele>395.00</ele>
   <time>2014-04-07T09:29:19Z</time>
  </trkpt>
  <trkpt lat="34.245037" lon="-3.268324">
   <ele>394.00</ele>
   <time>2014-04-07T09:29:20Z</time>
  </trkpt>
  <trkpt lat="34.244951" lon="-3.268560">
   <ele>394.00</ele>
   <time>2014-04-07T09:29:21Z</time>
  </trkpt>
  <trkpt lat="34.244877" lon="-3.268802">
   <ele>394.00</ele>
   <time>2014-04-07T09:29:22Z</time>
  </trkpt>
  <trkpt lat="34.244814" lon="-3.269047">
   <ele>394.00</ele>
   <time>2014-04-07T09:29:23Z</time>
  </trkpt>
  <trkpt lat="34.244706" lon="-3.269531">
   <ele>393.00</ele>
   <time>2014-04-07T09:29:25Z</time>
  </trkpt>
  <trkpt lat="34.244068" lon="-3.272733">
   <ele>390.00</ele>
   <time>2014-04-07T09:29:40Z</time>
  </trkpt>
  <trkpt lat="34.243406" lon="-3.276062">
   <ele>385.00</ele>
   <time>2014-04-07T09:29:56Z</time>
  </trkpt>
  <trkpt lat="34.242687" lon="-3.279590">
   <ele>379.00</ele>
   <time>2014-04-07T09:30:12Z</time>
  </trkpt>
  <trkpt lat="34.241996" lon="-3.282976">
   <ele>377.00</ele>
   <time>2014-04-07T09:30:27Z</time>
  </trkpt>
  <trkpt lat="34.241240" lon="-3.286571">
   <ele>373.00</ele>
   <time>2014-04-07T09:30:43Z</time>
  </trkpt>
  <trkpt lat="34.240544" lon="-3.289959">
   <ele>370.00</ele>
   <time>2014-04-07T09:30:58Z</time>
  </trkpt>
  <trkpt lat="34.239984" lon="-3.292736">
   <ele>372.00</ele>
   <time>2014-04-07T09:31:10Z</time>
  </trkpt>
  <trkpt lat="34.239879" lon="-3.293436">
   <ele>373.00</ele>
   <time>2014-04-07T09:31:13Z</time>
  </trkpt>
  <trkpt lat="34.239825" lon="-3.293910">
   <ele>374.00</ele>
   <time>2014-04-07T09:31:15Z</time>
  </trkpt>
  <trkpt lat="34.239788" lon="-3.294390">
   <ele>375.00</ele>
   <time>2014-04-07T09:31:17Z</time>
  </trkpt>
  <trkpt lat="34.239543" lon="-3.298262">
   <ele>373.00</ele>
   <time>2014-04-07T09:31:33Z</time>
  </trkpt>
  <trkpt lat="34.239296" lon="-3.301923">
   <ele>371.00</ele>
   <time>2014-04-07T09:31:49Z</time>
  </trkpt>
  <trkpt lat="34.239104" lon="-3.304840">
   <ele>368.00</ele>
   <time>2014-04-07T09:32:04Z</time>
  </trkpt>
  <trkpt lat="34.238931" lon="-3.307334">
   <ele>365.00</ele>
   <time>2014-04-07T09:32:20Z</time>
  </trkpt>
  <trkpt lat="34.238766" lon="-3.309820">
   <ele>361.00</ele>
   <time>2014-04-07T09:32:36Z</time>
  </trkpt>
  <trkpt lat="34.238653" lon="-3.311717">
   <ele>361.00</ele>
   <time>2014-04-07T09:32:48Z</time>
  </trkpt>
  <trkpt lat="34.238652" lon="-3.312026">
   <ele>360.00</ele>
   <time>2014-04-07T09:32:50Z</time>
  </trkpt>
  <trkpt lat="34.238676" lon="-3.312338">
   <ele>361.00</ele>
   <time>2014-04-07T09:32:52Z</time>
  </trkpt>
  <trkpt lat="34.238724" lon="-3.312643">
   <ele>361.00</ele>
   <time>2014-04-07T09:32:54Z</time>
  </trkpt>
  <trkpt lat="34.238793" lon="-3.312935">
   <ele>361.00</ele>
   <time>2014-04-07T09:32:56Z</time>
  </trkpt>
  <trkpt lat="34.238886" lon="-3.313214">
   <ele>361.00</ele>
   <time>2014-04-07T09:32:58Z</time>
  </trkpt>
  <trkpt lat="34.239004" lon="-3.313483">
   <ele>361.00</ele>
   <time>2014-04-07T09:33:00Z</time>
  </trkpt>
  <trkpt lat="34.239141" lon="-3.313730">
   <ele>360.00</ele>
   <time>2014-04-07T09:33:02Z</time>
  </trkpt>
  <trkpt lat="34.239291" lon="-3.313965">
   <ele>359.00</ele>
   <time>2014-04-07T09:33:04Z</time>
  </trkpt>
  <trkpt lat="34.239447" lon="-3.314182">
   <ele>359.00</ele>
   <time>2014-04-07T09:33:06Z</time>
  </trkpt>
  <trkpt lat="34.239839" lon="-3.314693">
   <ele>358.00</ele>
   <time>2014-04-07T09:33:11Z</time>
  </trkpt>
  <trkpt lat="34.240434" lon="-3.315457">
   <ele>359.00</ele>
   <time>2014-04-07T09:33:18Z</time>
  </trkpt>
  <trkpt lat="34.240603" lon="-3.315698">
   <ele>359.00</ele>
   <time>2014-04-07T09:33:20Z</time>
  </trkpt>
  <trkpt lat="34.240853" lon="-3.316086">
   <ele>359.00</ele>
   <time>2014-04-07T09:33:23Z</time>
  </trkpt>
  <trkpt lat="34.241011" lon="-3.316361">
   <ele>359.00</ele>
   <time>2014-04-07T09:33:25Z</time>
  </trkpt>
  <trkpt lat="34.241158" lon="-3.316654">
   <ele>359.00</ele>
   <time>2014-04-07T09:33:27Z</time>
  </trkpt>
  <trkpt lat="34.241362" lon="-3.317116">
   <ele>360.00</ele>
   <time>2014-04-07T09:33:30Z</time>
  </trkpt>
  <trkpt lat="34.241480" lon="-3.317435">
   <ele>360.00</ele>
   <time>2014-04-07T09:33:32Z</time>
  </trkpt>
  <trkpt lat="34.241583" lon="-3.317762">
   <ele>361.00</ele>
   <time>2014-04-07T09:33:34Z</time>
  </trkpt>
  <trkpt lat="34.241670" lon="-3.318088">
   <ele>361.00</ele>
   <time>2014-04-07T09:33:36Z</time>
  </trkpt>
  <trkpt lat="34.241745" lon="-3.318415">
   <ele>362.00</ele>
   <time>2014-04-07T09:33:38Z</time>
  </trkpt>
  <trkpt lat="34.241803" lon="-3.318745">
   <ele>362.00</ele>
   <time>2014-04-07T09:33:40Z</time>
  </trkpt>
  <trkpt lat="34.241843" lon="-3.319073">
   <ele>363.00</ele>
   <time>2014-04-07T09:33:42Z</time>
  </trkpt>
  <trkpt lat="34.241864" lon="-3.319394">
   <ele>363.00</ele>
   <time>2014-04-07T09:33:44Z</time>
  </trkpt>
  <trkpt lat="34.241932" lon="-3.321768">
   <ele>364.00</ele>
   <time>2014-04-07T09:34:00Z</time>
  </trkpt>
  <trkpt lat="34.241933" lon="-3.322068">
   <ele>364.00</ele>
   <time>2014-04-07T09:34:02Z</time>
  </trkpt>
  <trkpt lat="34.241908" lon="-3.322366">
   <ele>364.00</ele>
   <time>2014-04-07T09:34:04Z</time>
  </trkpt>
  <trkpt lat="34.241851" lon="-3.322664">
   <ele>363.00</ele>
   <time>2014-04-07T09:34:06Z</time>
  </trkpt>
  <trkpt lat="34.241766" lon="-3.322957">
   <ele>362.00</ele>
   <time>2014-04-07T09:34:08Z</time>
  </trkpt>
  <trkpt lat="34.241655" lon="-3.323236">
   <ele>362.00</ele>
   <time>2014-04-07T09:34:10Z</time>
  </trkpt>
  <trkpt lat="34.241520" lon="-3.323498">
   <ele>361.00</ele>
   <time>2014-04-07T09:34:12Z</time>
  </trkpt>
  <trkpt lat="34.241362" lon="-3.323737">
   <ele>361.00</ele>
   <time>2014-04-07T09:34:14Z</time>
  </trkpt>
  <trkpt lat="34.241185" lon="-3.323953">
   <ele>361.00</ele>
   <time>2014-04-07T09:34:16Z</time>
  </trkpt>
  <trkpt lat="34.240992" lon="-3.324151">
   <ele>362.00</ele>
   <time>2014-04-07T09:34:18Z</time>
  </trkpt>
  <trkpt lat="34.240590" lon="-3.324531">
   <ele>362.00</ele>
   <time>2014-04-07T09:34:22Z</time>
  </trkpt>
  <trkpt lat="34.239988" lon="-3.325083">
   <ele>362.00</ele>
   <time>2014-04-07T09:34:28Z</time>
  </trkpt>
  <trkpt lat="34.239710" lon="-3.325377">
   <ele>362.00</ele>
   <time>2014-04-07T09:34:31Z</time>
  </trkpt>
  <trkpt lat="34.239548" lon="-3.325588">
   <ele>362.00</ele>
   <time>2014-04-07T09:34:33Z</time>
  </trkpt>
  <trkpt lat="34.239410" lon="-3.325802">
   <ele>362.00</ele>
   <time>2014-04-07T09:34:35Z</time>
  </trkpt>
  <trkpt lat="34.239177" lon="-3.326216">
   <ele>362.00</ele>
   <time>2014-04-07T09:34:39Z</time>
  </trkpt>
  <trkpt lat="34.238412" lon="-3.327625">
   <ele>362.00</ele>
   <time>2014-04-07T09:34:54Z</time>
  </trkpt>
  <trkpt lat="34.237521" lon="-3.329237">
   <ele>362.00</ele>
   <time>2014-04-07T09:35:10Z</time>
  </trkpt>
  <trkpt lat="34.236664" lon="-3.330799">
   <ele>363.00</ele>
   <time>2014-04-07T09:35:25Z</time>
  </trkpt>
  <trkpt lat="34.235745" lon="-3.332454">
   <ele>363.00</ele>
   <time>2014-04-07T09:35:41Z</time>
  </trkpt>
  <trkpt lat="34.235634" lon="-3.332653">
   <ele>363.00</ele>
   <time>2014-04-07T09:35:43Z</time>
  </trkpt>
  <trkpt lat="34.234828" lon="-3.334133">
   <ele>364.00</ele>
   <time>2014-04-07T09:35:57Z</time>
  </trkpt>
  <trkpt lat="34.233968" lon="-3.335680">
   <ele>365.00</ele>
   <time>2014-04-07T09:36:13Z</time>
  </trkpt>
  <trkpt lat="34.233062" lon="-3.337349">
   <ele>366.00</ele>
   <time>2014-04-07T09:36:28Z</time>
  </trkpt>
  <trkpt lat="34.232029" lon="-3.339241">
   <ele>366.00</ele>
   <time>2014-04-07T09:36:44Z</time>
  </trkpt>
  <trkpt lat="34.231281" lon="-3.340632">
   <ele>366.00</ele>
   <time>2014-04-07T09:36:58Z</time>
  </trkpt>
  <trkpt lat="34.231182" lon="-3.340852">
   <ele>366.00</ele>
   <time>2014-04-07T09:37:01Z</time>
  </trkpt>
  <trkpt lat="34.231098" lon="-3.341146">
   <ele>367.00</ele>
   <time>2014-04-07T09:37:06Z</time>
  </trkpt>
  <trkpt lat="34.230945" lon="-3.341338">
   <ele>367.00</ele>
   <time>2014-04-07T09:37:09Z</time>
  </trkpt>
  <trkpt lat="34.230797" lon="-3.341573">
   <ele>367.00</ele>
   <time>2014-04-07T09:37:12Z</time>
  </trkpt>
  <trkpt lat="34.229995" lon="-3.343138">
   <ele>368.00</ele>
   <time>2014-04-07T09:37:28Z</time>
  </trkpt>
  <trkpt lat="34.229714" lon="-3.343686">
   <ele>369.00</ele>
   <time>2014-04-07T09:37:34Z</time>
  </trkpt>
  <trkpt lat="34.229529" lon="-3.344061">
   <ele>368.00</ele>
   <time>2014-04-07T09:37:38Z</time>
  </trkpt>
  <trkpt lat="34.228747" lon="-3.345586">
   <ele>368.00</ele>
   <time>2014-04-07T09:37:54Z</time>
  </trkpt>
  <trkpt lat="34.228030" lon="-3.347001">
   <ele>368.00</ele>
   <time>2014-04-07T09:38:09Z</time>
  </trkpt>
  <trkpt lat="34.227870" lon="-3.347343">
   <ele>368.00</ele>
   <time>2014-04-07T09:38:13Z</time>
  </trkpt>
  <trkpt lat="34.227169" lon="-3.348668">
   <ele>370.00</ele>
   <time>2014-04-07T09:38:28Z</time>
  </trkpt>
  <trkpt lat="34.226611" lon="-3.349756">
   <ele>372.00</ele>
   <time>2014-04-07T09:38:41Z</time>
  </trkpt>
  <trkpt lat="34.226512" lon="-3.349981">
   <ele>372.00</ele>
   <time>2014-04-07T09:38:44Z</time>
  </trkpt>
  <trkpt lat="34.226438" lon="-3.350240">
   <ele>373.00</ele>
   <time>2014-04-07T09:38:47Z</time>
  </trkpt>
  <trkpt lat="34.226403" lon="-3.350525">
   <ele>373.00</ele>
   <time>2014-04-07T09:38:50Z</time>
  </trkpt>
  <trkpt lat="34.226348" lon="-3.351064">
   <ele>373.00</ele>
   <time>2014-04-07T09:38:57Z</time>
  </trkpt>
  <trkpt lat="34.226339" lon="-3.351308">
   <ele>374.00</ele>
   <time>2014-04-07T09:39:02Z</time>
  </trkpt>
  <trkpt lat="34.226352" lon="-3.351438">
   <ele>374.00</ele>
   <time>2014-04-07T09:39:18Z</time>
  </trkpt>
  <trkpt lat="34.226384" lon="-3.351687">
   <ele>374.00</ele>
   <time>2014-04-07T09:39:26Z</time>
  </trkpt>
  <trkpt lat="34.226287" lon="-3.351911">
   <ele>373.00</ele>
   <time>2014-04-07T09:39:30Z</time>
  </trkpt>
  <trkpt lat="34.226218" lon="-3.352152">
   <ele>373.00</ele>
   <time>2014-04-07T09:39:33Z</time>
  </trkpt>
  <trkpt lat="34.226179" lon="-3.352448">
   <ele>373.00</ele>
   <time>2014-04-07T09:39:36Z</time>
  </trkpt>
  <trkpt lat="34.226086" lon="-3.353179">
   <ele>373.00</ele>
   <time>2014-04-07T09:39:43Z</time>
  </trkpt>
  <trkpt lat="34.226048" lon="-3.353406">
   <ele>373.00</ele>
   <time>2014-04-07T09:39:45Z</time>
  </trkpt>
  <trkpt lat="34.225996" lon="-3.353636">
   <ele>373.00</ele>
   <time>2014-04-07T09:39:47Z</time>
  </trkpt>
  <trkpt lat="34.225927" lon="-3.353858">
   <ele>373.00</ele>
   <time>2014-04-07T09:39:49Z</time>
  </trkpt>
  <trkpt lat="34.225844" lon="-3.354067">
   <ele>373.00</ele>
   <time>2014-04-07T09:39:51Z</time>
  </trkpt>
  <trkpt lat="34.225744" lon="-3.354269">
   <ele>373.00</ele>
   <time>2014-04-07T09:39:53Z</time>
  </trkpt>
  <trkpt lat="34.225631" lon="-3.354470">
   <ele>373.00</ele>
   <time>2014-04-07T09:39:55Z</time>
  </trkpt>
  <trkpt lat="34.225270" lon="-3.355056">
   <ele>374.00</ele>
   <time>2014-04-07T09:40:01Z</time>
  </trkpt>
  <trkpt lat="34.224327" lon="-3.356510">
   <ele>379.00</ele>
   <time>2014-04-07T09:40:16Z</time>
  </trkpt>
  <trkpt lat="34.224155" lon="-3.356795">
   <ele>380.00</ele>
   <time>2014-04-07T09:40:19Z</time>
  </trkpt>
  <trkpt lat="34.224057" lon="-3.356990">
   <ele>380.00</ele>
   <time>2014-04-07T09:40:21Z</time>
  </trkpt>
  <trkpt lat="34.223967" lon="-3.357198">
   <ele>380.00</ele>
   <time>2014-04-07T09:40:23Z</time>
  </trkpt>
  <trkpt lat="34.223894" lon="-3.357414">
   <ele>380.00</ele>
   <time>2014-04-07T09:40:25Z</time>
  </trkpt>
  <trkpt lat="34.223844" lon="-3.357635">
   <ele>380.00</ele>
   <time>2014-04-07T09:40:27Z</time>
  </trkpt>
  <trkpt lat="34.223810" lon="-3.357855">
   <ele>380.00</ele>
   <time>2014-04-07T09:40:29Z</time>
  </trkpt>
  <trkpt lat="34.223785" lon="-3.358179">
   <ele>379.00</ele>
   <time>2014-04-07T09:40:32Z</time>
  </trkpt>
  <trkpt lat="34.223725" lon="-3.359752">
   <ele>378.00</ele>
   <time>2014-04-07T09:40:47Z</time>
  </trkpt>
  <trkpt lat="34.223692" lon="-3.361090">
   <ele>378.00</ele>
   <time>2014-04-07T09:41:00Z</time>
  </trkpt>
  <trkpt lat="34.223687" lon="-3.361561">
   <ele>377.00</ele>
   <time>2014-04-07T09:41:07Z</time>
  </trkpt>
  <trkpt lat="34.223668" lon="-3.362107">
   <ele>377.00</ele>
   <time>2014-04-07T09:41:18Z</time>
  </trkpt>
  <trkpt lat="34.223650" lon="-3.362336">
   <ele>377.00</ele>
   <time>2014-04-07T09:41:22Z</time>
  </trkpt>
  <trkpt lat="34.223649" lon="-3.362568">
   <ele>377.00</ele>
   <time>2014-04-07T09:41:25Z</time>
  </trkpt>
  <trkpt lat="34.223654" lon="-3.362951">
   <ele>377.00</ele>
   <time>2014-04-07T09:41:29Z</time>
  </trkpt>
  <trkpt lat="34.223611" lon="-3.365035">
   <ele>382.00</ele>
   <time>2014-04-07T09:41:45Z</time>
  </trkpt>
  <trkpt lat="34.223621" lon="-3.365327">
   <ele>382.00</ele>
   <time>2014-04-07T09:41:47Z</time>
  </trkpt>
  <trkpt lat="34.223692" lon="-3.367180">
   <ele>381.00</ele>
   <time>2014-04-07T09:41:59Z</time>
  </trkpt>
  <trkpt lat="34.223676" lon="-3.367518">
   <ele>381.00</ele>
   <time>2014-04-07T09:42:01Z</time>
  </trkpt>
  <trkpt lat="34.223633" lon="-3.367862">
   <ele>381.00</ele>
   <time>2014-04-07T09:42:03Z</time>
  </trkpt>
  <trkpt lat="34.223575" lon="-3.368205">
   <ele>381.00</ele>
   <time>2014-04-07T09:42:05Z</time>
  </trkpt>
  <trkpt lat="34.223289" lon="-3.369637">
   <ele>380.00</ele>
   <time>2014-04-07T09:42:13Z</time>
  </trkpt>
  <trkpt lat="34.222679" lon="-3.372534">
   <ele>384.00</ele>
   <time>2014-04-07T09:42:29Z</time>
  </trkpt>
  <trkpt lat="34.222131" lon="-3.375207">
   <ele>389.00</ele>
   <time>2014-04-07T09:42:44Z</time>
  </trkpt>
  <trkpt lat="34.221586" lon="-3.377827">
   <ele>390.00</ele>
   <time>2014-04-07T09:43:00Z</time>
  </trkpt>
  <trkpt lat="34.221070" lon="-3.380312">
   <ele>392.00</ele>
   <time>2014-04-07T09:43:15Z</time>
  </trkpt>
  <trkpt lat="34.220492" lon="-3.383128">
   <ele>397.00</ele>
   <time>2014-04-07T09:43:31Z</time>
  </trkpt>
  <trkpt lat="34.220200" lon="-3.384604">
   <ele>399.00</ele>
   <time>2014-04-07T09:43:39Z</time>
  </trkpt>
  <trkpt lat="34.219732" lon="-3.387684">
   <ele>400.00</ele>
   <time>2014-04-07T09:43:55Z</time>
  </trkpt>
  <trkpt lat="34.219273" lon="-3.390708">
   <ele>402.00</ele>
   <time>2014-04-07T09:44:10Z</time>
  </trkpt>
  <trkpt lat="34.218818" lon="-3.393726">
   <ele>405.00</ele>
   <time>2014-04-07T09:44:26Z</time>
  </trkpt>
  <trkpt lat="34.218345" lon="-3.396863">
   <ele>408.00</ele>
   <time>2014-04-07T09:44:42Z</time>
  </trkpt>
  <trkpt lat="34.218257" lon="-3.397478">
   <ele>411.00</ele>
   <time>2014-04-07T09:44:45Z</time>
  </trkpt>
  <trkpt lat="34.218225" lon="-3.397897">
   <ele>412.00</ele>
   <time>2014-04-07T09:44:47Z</time>
  </trkpt>
  <trkpt lat="34.218225" lon="-3.398327">
   <ele>412.00</ele>
   <time>2014-04-07T09:44:49Z</time>
  </trkpt>
  <trkpt lat="34.218401" lon="-3.401964">
   <ele>414.00</ele>
   <time>2014-04-07T09:45:05Z</time>
  </trkpt>
  <trkpt lat="34.218399" lon="-3.402192">
   <ele>414.00</ele>
   <time>2014-04-07T09:45:06Z</time>
  </trkpt>
  <trkpt lat="34.218389" lon="-3.402421">
   <ele>413.00</ele>
   <time>2014-04-07T09:45:07Z</time>
  </trkpt>
  <trkpt lat="34.218346" lon="-3.402877">
   <ele>413.00</ele>
   <time>2014-04-07T09:45:09Z</time>
  </trkpt>
  <trkpt lat="34.218312" lon="-3.403103">
   <ele>413.00</ele>
   <time>2014-04-07T09:45:10Z</time>
  </trkpt>
  <trkpt lat="34.218270" lon="-3.403327">
   <ele>413.00</ele>
   <time>2014-04-07T09:45:11Z</time>
  </trkpt>
  <trkpt lat="34.218221" lon="-3.403549">
   <ele>413.00</ele>
   <time>2014-04-07T09:45:12Z</time>
  </trkpt>
  <trkpt lat="34.218164" lon="-3.403769">
   <ele>413.00</ele>
   <time>2014-04-07T09:45:13Z</time>
  </trkpt>
  <trkpt lat="34.218099" lon="-3.403986">
   <ele>413.00</ele>
   <time>2014-04-07T09:45:14Z</time>
  </trkpt>
  <trkpt lat="34.218028" lon="-3.404201">
   <ele>413.00</ele>
   <time>2014-04-07T09:45:15Z</time>
  </trkpt>
  <trkpt lat="34.217865" lon="-3.404625">
   <ele>413.00</ele>
   <time>2014-04-07T09:45:17Z</time>
  </trkpt>
  <trkpt lat="34.216363" lon="-3.408122">
   <ele>411.00</ele>
   <time>2014-04-07T09:45:33Z</time>
  </trkpt>
  <trkpt lat="34.214983" lon="-3.411381">
   <ele>413.00</ele>
   <time>2014-04-07T09:45:48Z</time>
  </trkpt>
  <trkpt lat="34.214902" lon="-3.411605">
   <ele>413.00</ele>
   <time>2014-04-07T09:45:49Z</time>
  </trkpt>
  <trkpt lat="34.214358" lon="-3.413285">
   <ele>412.00</ele>
   <time>2014-04-07T09:45:56Z</time>
  </trkpt>
  <trkpt lat="34.213107" lon="-3.417291">
   <ele>412.00</ele>
   <time>2014-04-07T09:46:12Z</time>
  </trkpt>
  <trkpt lat="34.212056" lon="-3.420710">
   <ele>416.00</ele>
   <time>2014-04-07T09:46:26Z</time>
  </trkpt>
  <trkpt lat="34.211542" lon="-3.422937">
   <ele>418.00</ele>
   <time>2014-04-07T09:46:35Z</time>
  </trkpt>
  <trkpt lat="34.211446" lon="-3.423437">
   <ele>418.00</ele>
   <time>2014-04-07T09:46:37Z</time>
  </trkpt>
  <trkpt lat="34.211374" lon="-3.423947">
   <ele>418.00</ele>
   <time>2014-04-07T09:46:39Z</time>
  </trkpt>
  <trkpt lat="34.211325" lon="-3.424462">
   <ele>419.00</ele>
   <time>2014-04-07T09:46:41Z</time>
  </trkpt>
  <trkpt lat="34.211188" lon="-3.425967">
   <ele>421.00</ele>
   <time>2014-04-07T09:46:47Z</time>
  </trkpt>
  <trkpt lat="34.211112" lon="-3.426449">
   <ele>422.00</ele>
   <time>2014-04-07T09:46:49Z</time>
  </trkpt>
  <trkpt lat="34.211014" lon="-3.426924">
   <ele>422.00</ele>
   <time>2014-04-07T09:46:51Z</time>
  </trkpt>
  <trkpt lat="34.210053" lon="-3.430823">
   <ele>423.00</ele>
   <time>2014-04-07T09:47:07Z</time>
  </trkpt>
  <trkpt lat="34.209132" lon="-3.434577">
   <ele>426.00</ele>
   <time>2014-04-07T09:47:22Z</time>
  </trkpt>
  <trkpt lat="34.209033" lon="-3.435092">
   <ele>426.00</ele>
   <time>2014-04-07T09:47:24Z</time>
  </trkpt>
  <trkpt lat="34.208957" lon="-3.435612">
   <ele>426.00</ele>
   <time>2014-04-07T09:47:26Z</time>
  </trkpt>
  <trkpt lat="34.208929" lon="-3.435872">
   <ele>426.00</ele>
   <time>2014-04-07T09:47:27Z</time>
  </trkpt>
  <trkpt lat="34.208910" lon="-3.436133">
   <ele>426.00</ele>
   <time>2014-04-07T09:47:28Z</time>
  </trkpt>
  <trkpt lat="34.208901" lon="-3.436395">
   <ele>426.00</ele>
   <time>2014-04-07T09:47:29Z</time>
  </trkpt>
  <trkpt lat="34.208902" lon="-3.436920">
   <ele>426.00</ele>
   <time>2014-04-07T09:47:31Z</time>
  </trkpt>
  <trkpt lat="34.209060" lon="-3.441106">
   <ele>425.00</ele>
   <time>2014-04-07T09:47:47Z</time>
  </trkpt>
  <trkpt lat="34.209199" lon="-3.444986">
   <ele>425.00</ele>
   <time>2014-04-07T09:48:02Z</time>
  </trkpt>
  <trkpt lat="34.209314" lon="-3.447831">
   <ele>425.00</ele>
   <time>2014-04-07T09:48:13Z</time>
  </trkpt>
  <trkpt lat="34.209361" lon="-3.448337">
   <ele>426.00</ele>
   <time>2014-04-07T09:48:15Z</time>
  </trkpt>
  <trkpt lat="34.209397" lon="-3.448584">
   <ele>426.00</ele>
   <time>2014-04-07T09:48:16Z</time>
  </trkpt>
  <trkpt lat="34.209443" lon="-3.448826">
   <ele>427.00</ele>
   <time>2014-04-07T09:48:17Z</time>
  </trkpt>
  <trkpt lat="34.209498" lon="-3.449064">
   <ele>427.00</ele>
   <time>2014-04-07T09:48:18Z</time>
  </trkpt>
  <trkpt lat="34.209560" lon="-3.449297">
   <ele>428.00</ele>
   <time>2014-04-07T09:48:19Z</time>
  </trkpt>
  <trkpt lat="34.209630" lon="-3.449524">
   <ele>429.00</ele>
   <time>2014-04-07T09:48:20Z</time>
  </trkpt>
  <trkpt lat="34.209784" lon="-3.449965">
   <ele>430.00</ele>
   <time>2014-04-07T09:48:22Z</time>
  </trkpt>
  <trkpt lat="34.209948" lon="-3.450390">
   <ele>430.00</ele>
   <time>2014-04-07T09:48:24Z</time>
  </trkpt>
  <trkpt lat="34.210267" lon="-3.451226">
   <ele>430.00</ele>
   <time>2014-04-07T09:48:28Z</time>
  </trkpt>
  <trkpt lat="34.210552" lon="-3.452085">
   <ele>429.00</ele>
   <time>2014-04-07T09:48:32Z</time>
  </trkpt>
  <trkpt lat="34.210607" lon="-3.452307">
   <ele>429.00</ele>
   <time>2014-04-07T09:48:33Z</time>
  </trkpt>
  <trkpt lat="34.210653" lon="-3.452532">
   <ele>429.00</ele>
   <time>2014-04-07T09:48:34Z</time>
  </trkpt>
  <trkpt lat="34.210689" lon="-3.452762">
   <ele>428.00</ele>
   <time>2014-04-07T09:48:35Z</time>
  </trkpt>
  <trkpt lat="34.210715" lon="-3.452995">
   <ele>428.00</ele>
   <time>2014-04-07T09:48:36Z</time>
  </trkpt>
  <trkpt lat="34.210731" lon="-3.453230">
   <ele>428.00</ele>
   <time>2014-04-07T09:48:37Z</time>
  </trkpt>
  <trkpt lat="34.210741" lon="-3.453704">
   <ele>427.00</ele>
   <time>2014-04-07T09:48:39Z</time>
  </trkpt>
  <trkpt lat="34.210732" lon="-3.453942">
   <ele>427.00</ele>
   <time>2014-04-07T09:48:40Z</time>
  </trkpt>
  <trkpt lat="34.210712" lon="-3.454182">
   <ele>427.00</ele>
   <time>2014-04-07T09:48:41Z</time>
  </trkpt>
  <trkpt lat="34.210684" lon="-3.454421">
   <ele>426.00</ele>
   <time>2014-04-07T09:48:42Z</time>
  </trkpt>
  <trkpt lat="34.210646" lon="-3.454661">
   <ele>426.00</ele>
   <time>2014-04-07T09:48:43Z</time>
  </trkpt>
  <trkpt lat="34.210601" lon="-3.454899">
   <ele>426.00</ele>
   <time>2014-04-07T09:48:44Z</time>
  </trkpt>
  <trkpt lat="34.210494" lon="-3.455374">
   <ele>426.00</ele>
   <time>2014-04-07T09:48:46Z</time>
  </trkpt>
  <trkpt lat="34.209508" lon="-3.459238">
   <ele>426.00</ele>
   <time>2014-04-07T09:49:02Z</time>
  </trkpt>
  <trkpt lat="34.209154" lon="-3.460721">
   <ele>427.00</ele>
   <time>2014-04-07T09:49:08Z</time>
  </trkpt>
  <trkpt lat="34.209063" lon="-3.461222">
   <ele>427.00</ele>
   <time>2014-04-07T09:49:10Z</time>
  </trkpt>
  <trkpt lat="34.208991" lon="-3.461730">
   <ele>428.00</ele>
   <time>2014-04-07T09:49:12Z</time>
  </trkpt>
  <trkpt lat="34.208937" lon="-3.462240">
   <ele>428.00</ele>
   <time>2014-04-07T09:49:14Z</time>
  </trkpt>
  <trkpt lat="34.208899" lon="-3.462753">
   <ele>429.00</ele>
   <time>2014-04-07T09:49:16Z</time>
  </trkpt>
  <trkpt lat="34.208688" lon="-3.466870">
   <ele>435.00</ele>
   <time>2014-04-07T09:49:32Z</time>
  </trkpt>
  <trkpt lat="34.208482" lon="-3.470981">
   <ele>444.00</ele>
   <time>2014-04-07T09:49:48Z</time>
  </trkpt>
  <trkpt lat="34.208284" lon="-3.474826">
   <ele>449.00</ele>
   <time>2014-04-07T09:50:03Z</time>
  </trkpt>
  <trkpt lat="34.208205" lon="-3.476611">
   <ele>451.00</ele>
   <time>2014-04-07T09:50:10Z</time>
  </trkpt>
  <trkpt lat="34.208210" lon="-3.477116">
   <ele>452.00</ele>
   <time>2014-04-07T09:50:12Z</time>
  </trkpt>
  <trkpt lat="34.208223" lon="-3.477366">
   <ele>452.00</ele>
   <time>2014-04-07T09:50:13Z</time>
  </trkpt>
  <trkpt lat="34.208272" lon="-3.477863">
   <ele>453.00</ele>
   <time>2014-04-07T09:50:15Z</time>
  </trkpt>
  <trkpt lat="34.208344" lon="-3.478354">
   <ele>454.00</ele>
   <time>2014-04-07T09:50:17Z</time>
  </trkpt>
  <trkpt lat="34.208664" lon="-3.480295">
   <ele>457.00</ele>
   <time>2014-04-07T09:50:25Z</time>
  </trkpt>
  <trkpt lat="34.208715" lon="-3.480788">
   <ele>457.00</ele>
   <time>2014-04-07T09:50:27Z</time>
  </trkpt>
  <trkpt lat="34.208740" lon="-3.481289">
   <ele>457.00</ele>
   <time>2014-04-07T09:50:29Z</time>
  </trkpt>
  <trkpt lat="34.208735" lon="-3.481795">
   <ele>456.00</ele>
   <time>2014-04-07T09:50:31Z</time>
  </trkpt>
  <trkpt lat="34.208702" lon="-3.482302">
   <ele>456.00</ele>
   <time>2014-04-07T09:50:33Z</time>
  </trkpt>
  <trkpt lat="34.208674" lon="-3.482556">
   <ele>456.00</ele>
   <time>2014-04-07T09:50:34Z</time>
  </trkpt>
  <trkpt lat="34.208596" lon="-3.483063">
   <ele>455.00</ele>
   <time>2014-04-07T09:50:36Z</time>
  </trkpt>
  <trkpt lat="34.207993" lon="-3.486130">
   <ele>449.00</ele>
   <time>2014-04-07T09:50:48Z</time>
  </trkpt>
  <trkpt lat="34.207591" lon="-3.488129">
   <ele>447.00</ele>
   <time>2014-04-07T09:50:56Z</time>
  </trkpt>
  <trkpt lat="34.206799" lon="-3.492238">
   <ele>445.00</ele>
   <time>2014-04-07T09:51:12Z</time>
  </trkpt>
  <trkpt lat="34.206041" lon="-3.496130">
   <ele>444.00</ele>
   <time>2014-04-07T09:51:27Z</time>
  </trkpt>
  <trkpt lat="34.205244" lon="-3.500253">
   <ele>442.00</ele>
   <time>2014-04-07T09:51:43Z</time>
  </trkpt>
  <trkpt lat="34.204450" lon="-3.504307">
   <ele>442.00</ele>
   <time>2014-04-07T09:51:59Z</time>
  </trkpt>
  <trkpt lat="34.204268" lon="-3.505330">
   <ele>441.00</ele>
   <time>2014-04-07T09:52:03Z</time>
  </trkpt>
  <trkpt lat="34.204200" lon="-3.505847">
   <ele>441.00</ele>
   <time>2014-04-07T09:52:05Z</time>
  </trkpt>
  <trkpt lat="34.204153" lon="-3.506366">
   <ele>442.00</ele>
   <time>2014-04-07T09:52:07Z</time>
  </trkpt>
  <trkpt lat="34.204142" lon="-3.506626">
   <ele>442.00</ele>
   <time>2014-04-07T09:52:08Z</time>
  </trkpt>
  <trkpt lat="34.204140" lon="-3.506887">
   <ele>442.00</ele>
   <time>2014-04-07T09:52:09Z</time>
  </trkpt>
  <trkpt lat="34.204161" lon="-3.507409">
   <ele>443.00</ele>
   <time>2014-04-07T09:52:11Z</time>
  </trkpt>
  <trkpt lat="34.204183" lon="-3.507669">
   <ele>443.00</ele>
   <time>2014-04-07T09:52:12Z</time>
  </trkpt>
  <trkpt lat="34.204250" lon="-3.508187">
   <ele>443.00</ele>
   <time>2014-04-07T09:52:14Z</time>
  </trkpt>
  <trkpt lat="34.204339" lon="-3.508698">
   <ele>444.00</ele>
   <time>2014-04-07T09:52:16Z</time>
  </trkpt>
  <trkpt lat="34.204520" lon="-3.509717">
   <ele>445.00</ele>
   <time>2014-04-07T09:52:20Z</time>
  </trkpt>
  <trkpt lat="34.204585" lon="-3.510231">
   <ele>445.00</ele>
   <time>2014-04-07T09:52:22Z</time>
  </trkpt>
  <trkpt lat="34.204646" lon="-3.511014">
   <ele>445.00</ele>
   <time>2014-04-07T09:52:25Z</time>
  </trkpt>
  <trkpt lat="34.204846" lon="-3.515193">
   <ele>443.00</ele>
   <time>2014-04-07T09:52:41Z</time>
  </trkpt>
  <trkpt lat="34.204900" lon="-3.515711">
   <ele>443.00</ele>
   <time>2014-04-07T09:52:43Z</time>
  </trkpt>
  <trkpt lat="34.204980" lon="-3.516225">
   <ele>443.00</ele>
   <time>2014-04-07T09:52:45Z</time>
  </trkpt>
  <trkpt lat="34.205744" lon="-3.520279">
   <ele>439.00</ele>
   <time>2014-04-07T09:53:01Z</time>
  </trkpt>
  <trkpt lat="34.206155" lon="-3.522542">
   <ele>437.00</ele>
   <time>2014-04-07T09:53:10Z</time>
  </trkpt>
  <trkpt lat="34.206217" lon="-3.523054">
   <ele>436.00</ele>
   <time>2014-04-07T09:53:12Z</time>
  </trkpt>
  <trkpt lat="34.206251" lon="-3.523571">
   <ele>436.00</ele>
   <time>2014-04-07T09:53:14Z</time>
  </trkpt>
  <trkpt lat="34.206255" lon="-3.523830">
   <ele>436.00</ele>
   <time>2014-04-07T09:53:15Z</time>
  </trkpt>
  <trkpt lat="34.206229" lon="-3.524856">
   <ele>436.00</ele>
   <time>2014-04-07T09:53:19Z</time>
  </trkpt>
  <trkpt lat="34.206102" lon="-3.528197">
   <ele>436.00</ele>
   <time>2014-04-07T09:53:34Z</time>
  </trkpt>
  <trkpt lat="34.206096" lon="-3.528799">
   <ele>436.00</ele>
   <time>2014-04-07T09:53:37Z</time>
  </trkpt>
  <trkpt lat="34.206111" lon="-3.529210">
   <ele>436.00</ele>
   <time>2014-04-07T09:53:39Z</time>
  </trkpt>
  <trkpt lat="34.206148" lon="-3.529622">
   <ele>436.00</ele>
   <time>2014-04-07T09:53:41Z</time>
  </trkpt>
  <trkpt lat="34.206202" lon="-3.530034">
   <ele>437.00</ele>
   <time>2014-04-07T09:53:43Z</time>
  </trkpt>
  <trkpt lat="34.206727" lon="-3.533374">
   <ele>438.00</ele>
   <time>2014-04-07T09:53:59Z</time>
  </trkpt>
  <trkpt lat="34.207240" lon="-3.536583">
   <ele>439.00</ele>
   <time>2014-04-07T09:54:14Z</time>
  </trkpt>
  <trkpt lat="34.207823" lon="-3.540299">
   <ele>441.00</ele>
   <time>2014-04-07T09:54:30Z</time>
  </trkpt>
  <trkpt lat="34.208369" lon="-3.543774">
   <ele>441.00</ele>
   <time>2014-04-07T09:54:44Z</time>
  </trkpt>
  <trkpt lat="34.209110" lon="-3.548443">
   <ele>441.00</ele>
   <time>2014-04-07T09:55:02Z</time>
  </trkpt>
  <trkpt lat="34.209774" lon="-3.552658">
   <ele>442.00</ele>
   <time>2014-04-07T09:55:18Z</time>
  </trkpt>
  <trkpt lat="34.210391" lon="-3.556601">
   <ele>442.00</ele>
   <time>2014-04-07T09:55:33Z</time>
  </trkpt>
  <trkpt lat="34.211062" lon="-3.560763">
   <ele>445.00</ele>
   <time>2014-04-07T09:55:49Z</time>
  </trkpt>
  <trkpt lat="34.211498" lon="-3.563457">
   <ele>447.00</ele>
   <time>2014-04-07T09:56:00Z</time>
  </trkpt>
  <trkpt lat="34.212252" lon="-3.567087">
   <ele>447.00</ele>
   <time>2014-04-07T09:56:16Z</time>
  </trkpt>
  <trkpt lat="34.212987" lon="-3.570609">
   <ele>447.00</ele>
   <time>2014-04-07T09:56:32Z</time>
  </trkpt>
  <trkpt lat="34.213583" lon="-3.573451">
   <ele>447.00</ele>
   <time>2014-04-07T09:56:47Z</time>
  </trkpt>
  <trkpt lat="34.214079" lon="-3.575814">
   <ele>447.00</ele>
   <time>2014-04-07T09:57:03Z</time>
  </trkpt>
  <trkpt lat="34.214605" lon="-3.578339">
   <ele>447.00</ele>
   <time>2014-04-07T09:57:18Z</time>
  </trkpt>
  <trkpt lat="34.215166" lon="-3.581008">
   <ele>448.00</ele>
   <time>2014-04-07T09:57:34Z</time>
  </trkpt>
  <trkpt lat="34.215581" lon="-3.582992">
   <ele>449.00</ele>
   <time>2014-04-07T09:57:50Z</time>
  </trkpt>
  <trkpt lat="34.215711" lon="-3.583625">
   <ele>449.00</ele>
   <time>2014-04-07T09:57:57Z</time>
  </trkpt>
  <trkpt lat="34.215838" lon="-3.584153">
   <ele>449.00</ele>
   <time>2014-04-07T09:58:03Z</time>
  </trkpt>
  <trkpt lat="34.215931" lon="-3.584509">
   <ele>448.00</ele>
   <time>2014-04-07T09:58:07Z</time>
  </trkpt>
  <trkpt lat="34.216047" lon="-3.584846">
   <ele>448.00</ele>
   <time>2014-04-07T09:58:11Z</time>
  </trkpt>
  <trkpt lat="34.216093" lon="-3.585259">
   <ele>448.00</ele>
   <time>2014-04-07T09:58:15Z</time>
  </trkpt>
  <trkpt lat="34.216230" lon="-3.585921">
   <ele>448.00</ele>
   <time>2014-04-07T09:58:21Z</time>
  </trkpt>
  <trkpt lat="34.216661" lon="-3.587876">
   <ele>449.00</ele>
   <time>2014-04-07T09:58:37Z</time>
  </trkpt>
  <trkpt lat="34.217010" lon="-3.589508">
   <ele>448.00</ele>
   <time>2014-04-07T09:58:48Z</time>
  </trkpt>
  <trkpt lat="34.217073" lon="-3.589837">
   <ele>448.00</ele>
   <time>2014-04-07T09:58:50Z</time>
  </trkpt>
  <trkpt lat="34.217676" lon="-3.592561">
   <ele>451.00</ele>
   <time>2014-04-07T09:59:06Z</time>
  </trkpt>
  <trkpt lat="34.218323" lon="-3.595521">
   <ele>452.00</ele>
   <time>2014-04-07T09:59:22Z</time>
  </trkpt>
  <trkpt lat="34.218980" lon="-3.598492">
   <ele>453.00</ele>
   <time>2014-04-07T09:59:37Z</time>
  </trkpt>
  <trkpt lat="34.219673" lon="-3.601660">
   <ele>453.00</ele>
   <time>2014-04-07T09:59:53Z</time>
  </trkpt>
  <trkpt lat="34.220421" lon="-3.604949">
   <ele>454.00</ele>
   <time>2014-04-07T10:00:09Z</time>
  </trkpt>
  <trkpt lat="34.221178" lon="-3.608077">
   <ele>455.00</ele>
   <time>2014-04-07T10:00:24Z</time>
  </trkpt>
  <trkpt lat="34.222005" lon="-3.611430">
   <ele>457.00</ele>
   <time>2014-04-07T10:00:40Z</time>
  </trkpt>
  <trkpt lat="34.222859" lon="-3.614910">
   <ele>458.00</ele>
   <time>2014-04-07T10:00:56Z</time>
  </trkpt>
  <trkpt lat="34.223638" lon="-3.618120">
   <ele>460.00</ele>
   <time>2014-04-07T10:01:11Z</time>
  </trkpt>
  <trkpt lat="34.224477" lon="-3.621540">
   <ele>463.00</ele>
   <time>2014-04-07T10:01:27Z</time>
  </trkpt>
  <trkpt lat="34.225256" lon="-3.624776">
   <ele>465.00</ele>
   <time>2014-04-07T10:01:42Z</time>
  </trkpt>
  <trkpt lat="34.226104" lon="-3.628254">
   <ele>468.00</ele>
   <time>2014-04-07T10:01:58Z</time>
  </trkpt>
  <trkpt lat="34.226950" lon="-3.631753">
   <ele>471.00</ele>
   <time>2014-04-07T10:02:14Z</time>
  </trkpt>
  <trkpt lat="34.227396" lon="-3.633509">
   <ele>473.00</ele>
   <time>2014-04-07T10:02:22Z</time>
  </trkpt>
  <trkpt lat="34.227545" lon="-3.633931">
   <ele>473.00</ele>
   <time>2014-04-07T10:02:24Z</time>
  </trkpt>
  <trkpt lat="34.227713" lon="-3.634343">
   <ele>473.00</ele>
   <time>2014-04-07T10:02:26Z</time>
  </trkpt>
  <trkpt lat="34.227897" lon="-3.634745">
   <ele>474.00</ele>
   <time>2014-04-07T10:02:28Z</time>
  </trkpt>
  <trkpt lat="34.228099" lon="-3.635135">
   <ele>474.00</ele>
   <time>2014-04-07T10:02:30Z</time>
  </trkpt>
  <trkpt lat="34.228322" lon="-3.635509">
   <ele>475.00</ele>
   <time>2014-04-07T10:02:32Z</time>
  </trkpt>
  <trkpt lat="34.228564" lon="-3.635868">
   <ele>475.00</ele>
   <time>2014-04-07T10:02:34Z</time>
  </trkpt>
  <trkpt lat="34.228821" lon="-3.636213">
   <ele>475.00</ele>
   <time>2014-04-07T10:02:36Z</time>
  </trkpt>
  <trkpt lat="34.229094" lon="-3.636543">
   <ele>475.00</ele>
   <time>2014-04-07T10:02:38Z</time>
  </trkpt>
  <trkpt lat="34.230776" lon="-3.638510">
   <ele>475.00</ele>
   <time>2014-04-07T10:02:50Z</time>
  </trkpt>
  <trkpt lat="34.230902" lon="-3.638689">
   <ele>476.00</ele>
   <time>2014-04-07T10:02:51Z</time>
  </trkpt>
  <trkpt lat="34.231015" lon="-3.638878">
   <ele>476.00</ele>
   <time>2014-04-07T10:02:52Z</time>
  </trkpt>
  <trkpt lat="34.231115" lon="-3.639076">
   <ele>476.00</ele>
   <time>2014-04-07T10:02:53Z</time>
  </trkpt>
  <trkpt lat="34.231205" lon="-3.639284">
   <ele>476.00</ele>
   <time>2014-04-07T10:02:54Z</time>
  </trkpt>
  <trkpt lat="34.231285" lon="-3.639499">
   <ele>477.00</ele>
   <time>2014-04-07T10:02:55Z</time>
  </trkpt>
  <trkpt lat="34.231357" lon="-3.639721">
   <ele>477.00</ele>
   <time>2014-04-07T10:02:56Z</time>
  </trkpt>
  <trkpt lat="34.231487" lon="-3.640177">
   <ele>477.00</ele>
   <time>2014-04-07T10:02:58Z</time>
  </trkpt>
  <trkpt lat="34.232422" lon="-3.643724">
   <ele>477.00</ele>
   <time>2014-04-07T10:03:13Z</time>
  </trkpt>
  <trkpt lat="34.232473" lon="-3.643958">
   <ele>477.00</ele>
   <time>2014-04-07T10:03:14Z</time>
  </trkpt>
  <trkpt lat="34.232511" lon="-3.644194">
   <ele>477.00</ele>
   <time>2014-04-07T10:03:15Z</time>
  </trkpt>
  <trkpt lat="34.232532" lon="-3.644434">
   <ele>477.00</ele>
   <time>2014-04-07T10:03:16Z</time>
  </trkpt>
  <trkpt lat="34.232537" lon="-3.644678">
   <ele>477.00</ele>
   <time>2014-04-07T10:03:17Z</time>
  </trkpt>
  <trkpt lat="34.232529" lon="-3.644926">
   <ele>477.00</ele>
   <time>2014-04-07T10:03:18Z</time>
  </trkpt>
  <trkpt lat="34.232508" lon="-3.645177">
   <ele>477.00</ele>
   <time>2014-04-07T10:03:19Z</time>
  </trkpt>
  <trkpt lat="34.232476" lon="-3.645433">
   <ele>477.00</ele>
   <time>2014-04-07T10:03:20Z</time>
  </trkpt>
  <trkpt lat="34.231884" lon="-3.649668">
   <ele>481.00</ele>
   <time>2014-04-07T10:03:35Z</time>
  </trkpt>
  <trkpt lat="34.231230" lon="-3.654509">
   <ele>489.00</ele>
   <time>2014-04-07T10:03:51Z</time>
  </trkpt>
  <trkpt lat="34.230616" lon="-3.659018">
   <ele>498.00</ele>
   <time>2014-04-07T10:04:07Z</time>
  </trkpt>
  <trkpt lat="34.230482" lon="-3.660074">
   <ele>501.00</ele>
   <time>2014-04-07T10:04:11Z</time>
  </trkpt>
  <trkpt lat="34.230464" lon="-3.660339">
   <ele>501.00</ele>
   <time>2014-04-07T10:04:12Z</time>
  </trkpt>
  <trkpt lat="34.230456" lon="-3.660606">
   <ele>501.00</ele>
   <time>2014-04-07T10:04:13Z</time>
  </trkpt>
  <trkpt lat="34.230459" lon="-3.661141">
   <ele>502.00</ele>
   <time>2014-04-07T10:04:15Z</time>
  </trkpt>
  <trkpt lat="34.230540" lon="-3.665511">
   <ele>505.00</ele>
   <time>2014-04-07T10:04:31Z</time>
  </trkpt>
  <trkpt lat="34.230604" lon="-3.669790">
   <ele>512.00</ele>
   <time>2014-04-07T10:04:47Z</time>
  </trkpt>
  <trkpt lat="34.230614" lon="-3.670589">
   <ele>512.00</ele>
   <time>2014-04-07T10:04:50Z</time>
  </trkpt>
  <trkpt lat="34.230657" lon="-3.671386">
   <ele>511.00</ele>
   <time>2014-04-07T10:04:53Z</time>
  </trkpt>
  <trkpt lat="34.230709" lon="-3.671914">
   <ele>511.00</ele>
   <time>2014-04-07T10:04:55Z</time>
  </trkpt>
  <trkpt lat="34.230751" lon="-3.672175">
   <ele>511.00</ele>
   <time>2014-04-07T10:04:56Z</time>
  </trkpt>
  <trkpt lat="34.230801" lon="-3.672435">
   <ele>511.00</ele>
   <time>2014-04-07T10:04:57Z</time>
  </trkpt>
  <trkpt lat="34.230862" lon="-3.672692">
   <ele>511.00</ele>
   <time>2014-04-07T10:04:58Z</time>
  </trkpt>
  <trkpt lat="34.230936" lon="-3.672946">
   <ele>512.00</ele>
   <time>2014-04-07T10:04:59Z</time>
  </trkpt>
  <trkpt lat="34.231021" lon="-3.673194">
   <ele>512.00</ele>
   <time>2014-04-07T10:05:00Z</time>
  </trkpt>
  <trkpt lat="34.231119" lon="-3.673437">
   <ele>512.00</ele>
   <time>2014-04-07T10:05:01Z</time>
  </trkpt>
  <trkpt lat="34.231226" lon="-3.673673">
   <ele>512.00</ele>
   <time>2014-04-07T10:05:02Z</time>
  </trkpt>
  <trkpt lat="34.232928" lon="-3.677132">
   <ele>503.00</ele>
   <time>2014-04-07T10:05:17Z</time>
  </trkpt>
  <trkpt lat="34.234746" lon="-3.680845">
   <ele>496.00</ele>
   <time>2014-04-07T10:05:33Z</time>
  </trkpt>
  <trkpt lat="34.235836" lon="-3.683087">
   <ele>497.00</ele>
   <time>2014-04-07T10:05:43Z</time>
  </trkpt>
  <trkpt lat="34.235932" lon="-3.683315">
   <ele>497.00</ele>
   <time>2014-04-07T10:05:44Z</time>
  </trkpt>
  <trkpt lat="34.236019" lon="-3.683547">
   <ele>497.00</ele>
   <time>2014-04-07T10:05:45Z</time>
  </trkpt>
  <trkpt lat="34.236097" lon="-3.683783">
   <ele>497.00</ele>
   <time>2014-04-07T10:05:46Z</time>
  </trkpt>
  <trkpt lat="34.236166" lon="-3.684022">
   <ele>497.00</ele>
   <time>2014-04-07T10:05:47Z</time>
  </trkpt>
  <trkpt lat="34.236226" lon="-3.684265">
   <ele>497.00</ele>
   <time>2014-04-07T10:05:48Z</time>
  </trkpt>
  <trkpt lat="34.236275" lon="-3.684512">
   <ele>498.00</ele>
   <time>2014-04-07T10:05:49Z</time>
  </trkpt>
  <trkpt lat="34.236315" lon="-3.684763">
   <ele>498.00</ele>
   <time>2014-04-07T10:05:50Z</time>
  </trkpt>
  <trkpt lat="34.236345" lon="-3.685016">
   <ele>498.00</ele>
   <time>2014-04-07T10:05:51Z</time>
  </trkpt>
  <trkpt lat="34.236366" lon="-3.685271">
   <ele>499.00</ele>
   <time>2014-04-07T10:05:52Z</time>
  </trkpt>
  <trkpt lat="34.236377" lon="-3.685529">
   <ele>499.00</ele>
   <time>2014-04-07T10:05:53Z</time>
  </trkpt>
  <trkpt lat="34.236378" lon="-3.685788">
   <ele>499.00</ele>
   <time>2014-04-07T10:05:54Z</time>
  </trkpt>
  <trkpt lat="34.236358" lon="-3.686310">
   <ele>500.00</ele>
   <time>2014-04-07T10:05:56Z</time>
  </trkpt>
  <trkpt lat="34.236127" lon="-3.690220">
   <ele>500.00</ele>
   <time>2014-04-07T10:06:11Z</time>
  </trkpt>
  <trkpt lat="34.236130" lon="-3.690473">
   <ele>499.00</ele>
   <time>2014-04-07T10:06:12Z</time>
  </trkpt>
  <trkpt lat="34.236144" lon="-3.690724">
   <ele>499.00</ele>
   <time>2014-04-07T10:06:13Z</time>
  </trkpt>
  <trkpt lat="34.236169" lon="-3.690974">
   <ele>499.00</ele>
   <time>2014-04-07T10:06:14Z</time>
  </trkpt>
  <trkpt lat="34.236203" lon="-3.691222">
   <ele>499.00</ele>
   <time>2014-04-07T10:06:15Z</time>
  </trkpt>
  <trkpt lat="34.236247" lon="-3.691470">
   <ele>498.00</ele>
   <time>2014-04-07T10:06:16Z</time>
  </trkpt>
  <trkpt lat="34.236299" lon="-3.691716">
   <ele>498.00</ele>
   <time>2014-04-07T10:06:17Z</time>
  </trkpt>
  <trkpt lat="34.236361" lon="-3.691958">
   <ele>498.00</ele>
   <time>2014-04-07T10:06:18Z</time>
  </trkpt>
  <trkpt lat="34.236434" lon="-3.692195">
   <ele>498.00</ele>
   <time>2014-04-07T10:06:19Z</time>
  </trkpt>
  <trkpt lat="34.236601" lon="-3.692664">
   <ele>497.00</ele>
   <time>2014-04-07T10:06:21Z</time>
  </trkpt>
  <trkpt lat="34.236979" lon="-3.693591">
   <ele>497.00</ele>
   <time>2014-04-07T10:06:25Z</time>
  </trkpt>
  <trkpt lat="34.238093" lon="-3.696357">
   <ele>503.00</ele>
   <time>2014-04-07T10:06:37Z</time>
  </trkpt>
  <trkpt lat="34.238171" lon="-3.696588">
   <ele>503.00</ele>
   <time>2014-04-07T10:06:38Z</time>
  </trkpt>
  <trkpt lat="34.238242" lon="-3.696826">
   <ele>503.00</ele>
   <time>2014-04-07T10:06:39Z</time>
  </trkpt>
  <trkpt lat="34.238820" lon="-3.699089">
   <ele>501.00</ele>
   <time>2014-04-07T10:06:48Z</time>
  </trkpt>
  <trkpt lat="34.239640" lon="-3.702332">
   <ele>501.00</ele>
   <time>2014-04-07T10:07:01Z</time>
  </trkpt>
  <trkpt lat="34.239714" lon="-3.702568">
   <ele>501.00</ele>
   <time>2014-04-07T10:07:02Z</time>
  </trkpt>
  <trkpt lat="34.239800" lon="-3.702798">
   <ele>501.00</ele>
   <time>2014-04-07T10:07:03Z</time>
  </trkpt>
  <trkpt lat="34.239896" lon="-3.703023">
   <ele>501.00</ele>
   <time>2014-04-07T10:07:04Z</time>
  </trkpt>
  <trkpt lat="34.240110" lon="-3.703463">
   <ele>501.00</ele>
   <time>2014-04-07T10:07:06Z</time>
  </trkpt>
  <trkpt lat="34.241846" lon="-3.706964">
   <ele>502.00</ele>
   <time>2014-04-07T10:07:22Z</time>
  </trkpt>
  <trkpt lat="34.243491" lon="-3.710285">
   <ele>506.00</ele>
   <time>2014-04-07T10:07:38Z</time>
  </trkpt>
  <trkpt lat="34.244296" lon="-3.711921">
   <ele>506.00</ele>
   <time>2014-04-07T10:07:46Z</time>
  </trkpt>
  <trkpt lat="34.244457" lon="-3.712346">
   <ele>505.00</ele>
   <time>2014-04-07T10:07:48Z</time>
  </trkpt>
  <trkpt lat="34.244524" lon="-3.712567">
   <ele>505.00</ele>
   <time>2014-04-07T10:07:49Z</time>
  </trkpt>
  <trkpt lat="34.244962" lon="-3.714168">
   <ele>504.00</ele>
   <time>2014-04-07T10:07:56Z</time>
  </trkpt>
  <trkpt lat="34.245120" lon="-3.714617">
   <ele>504.00</ele>
   <time>2014-04-07T10:07:58Z</time>
  </trkpt>
  <trkpt lat="34.245294" lon="-3.715059">
   <ele>504.00</ele>
   <time>2014-04-07T10:08:00Z</time>
  </trkpt>
  <trkpt lat="34.245490" lon="-3.715486">
   <ele>504.00</ele>
   <time>2014-04-07T10:08:02Z</time>
  </trkpt>
  <trkpt lat="34.245703" lon="-3.715899">
   <ele>504.00</ele>
   <time>2014-04-07T10:08:04Z</time>
  </trkpt>
  <trkpt lat="34.246042" lon="-3.716491">
   <ele>504.00</ele>
   <time>2014-04-07T10:08:07Z</time>
  </trkpt>
  <trkpt lat="34.247960" lon="-3.719598">
   <ele>509.00</ele>
   <time>2014-04-07T10:08:23Z</time>
  </trkpt>
  <trkpt lat="34.249060" lon="-3.721353">
   <ele>510.00</ele>
   <time>2014-04-07T10:08:32Z</time>
  </trkpt>
  <trkpt lat="34.249174" lon="-3.721562">
   <ele>509.00</ele>
   <time>2014-04-07T10:08:33Z</time>
  </trkpt>
  <trkpt lat="34.249281" lon="-3.721777">
   <ele>509.00</ele>
   <time>2014-04-07T10:08:34Z</time>
  </trkpt>
  <trkpt lat="34.249477" lon="-3.722219">
   <ele>509.00</ele>
   <time>2014-04-07T10:08:36Z</time>
  </trkpt>
  <trkpt lat="34.250564" lon="-3.724912">
   <ele>508.00</ele>
   <time>2014-04-07T10:08:48Z</time>
  </trkpt>
  <trkpt lat="34.250668" lon="-3.725115">
   <ele>508.00</ele>
   <time>2014-04-07T10:08:49Z</time>
  </trkpt>
  <trkpt lat="34.250782" lon="-3.725308">
   <ele>508.00</ele>
   <time>2014-04-07T10:08:50Z</time>
  </trkpt>
  <trkpt lat="34.250906" lon="-3.725490">
   <ele>508.00</ele>
   <time>2014-04-07T10:08:51Z</time>
  </trkpt>
  <trkpt lat="34.251044" lon="-3.725656">
   <ele>508.00</ele>
   <time>2014-04-07T10:08:52Z</time>
  </trkpt>
  <trkpt lat="34.251194" lon="-3.725806">
   <ele>508.00</ele>
   <time>2014-04-07T10:08:53Z</time>
  </trkpt>
  <trkpt lat="34.251356" lon="-3.725939">
   <ele>508.00</ele>
   <time>2014-04-07T10:08:54Z</time>
  </trkpt>
  <trkpt lat="34.251527" lon="-3.726059">
   <ele>508.00</ele>
   <time>2014-04-07T10:08:55Z</time>
  </trkpt>
  <trkpt lat="34.251703" lon="-3.726170">
   <ele>508.00</ele>
   <time>2014-04-07T10:08:56Z</time>
  </trkpt>
  <trkpt lat="34.254736" lon="-3.727929">
   <ele>513.00</ele>
   <time>2014-04-07T10:09:12Z</time>
  </trkpt>
  <trkpt lat="34.256785" lon="-3.729166">
   <ele>515.00</ele>
   <time>2014-04-07T10:09:23Z</time>
  </trkpt>
  <trkpt lat="34.257143" lon="-3.729429">
   <ele>515.00</ele>
   <time>2014-04-07T10:09:25Z</time>
  </trkpt>
  <trkpt lat="34.257480" lon="-3.729712">
   <ele>515.00</ele>
   <time>2014-04-07T10:09:27Z</time>
  </trkpt>
  <trkpt lat="34.257788" lon="-3.730008">
   <ele>515.00</ele>
   <time>2014-04-07T10:09:29Z</time>
  </trkpt>
  <trkpt lat="34.258068" lon="-3.730308">
   <ele>516.00</ele>
   <time>2014-04-07T10:09:31Z</time>
  </trkpt>
  <trkpt lat="34.258322" lon="-3.730609">
   <ele>516.00</ele>
   <time>2014-04-07T10:09:33Z</time>
  </trkpt>
  <trkpt lat="34.258555" lon="-3.730908">
   <ele>516.00</ele>
   <time>2014-04-07T10:09:35Z</time>
  </trkpt>
  <trkpt lat="34.258763" lon="-3.731212">
   <ele>517.00</ele>
   <time>2014-04-07T10:09:37Z</time>
  </trkpt>
  <trkpt lat="34.258942" lon="-3.731515">
   <ele>516.00</ele>
   <time>2014-04-07T10:09:39Z</time>
  </trkpt>
  <trkpt lat="34.259108" lon="-3.731818">
   <ele>516.00</ele>
   <time>2014-04-07T10:09:41Z</time>
  </trkpt>
  <trkpt lat="34.259335" lon="-3.732263">
   <ele>516.00</ele>
   <time>2014-04-07T10:09:44Z</time>
  </trkpt>
  <trkpt lat="34.260458" lon="-3.734655">
   <ele>516.00</ele>
   <time>2014-04-07T10:10:00Z</time>
  </trkpt>
  <trkpt lat="34.261011" lon="-3.735865">
   <ele>517.00</ele>
   <time>2014-04-07T10:10:07Z</time>
  </trkpt>
  <trkpt lat="34.261149" lon="-3.736238">
   <ele>517.00</ele>
   <time>2014-04-07T10:10:09Z</time>
  </trkpt>
  <trkpt lat="34.261250" lon="-3.736619">
   <ele>518.00</ele>
   <time>2014-04-07T10:10:11Z</time>
  </trkpt>
  <trkpt lat="34.261317" lon="-3.737002">
   <ele>519.00</ele>
   <time>2014-04-07T10:10:13Z</time>
  </trkpt>
  <trkpt lat="34.261352" lon="-3.737385">
   <ele>519.00</ele>
   <time>2014-04-07T10:10:15Z</time>
  </trkpt>
  <trkpt lat="34.261350" lon="-3.737773">
   <ele>520.00</ele>
   <time>2014-04-07T10:10:17Z</time>
  </trkpt>
  <trkpt lat="34.261316" lon="-3.738172">
   <ele>520.00</ele>
   <time>2014-04-07T10:10:19Z</time>
  </trkpt>
  <trkpt lat="34.260887" lon="-3.741635">
   <ele>523.00</ele>
   <time>2014-04-07T10:10:35Z</time>
  </trkpt>
  <trkpt lat="34.260705" lon="-3.742986">
   <ele>524.00</ele>
   <time>2014-04-07T10:10:41Z</time>
  </trkpt>
  <trkpt lat="34.260659" lon="-3.743205">
   <ele>524.00</ele>
   <time>2014-04-07T10:10:42Z</time>
  </trkpt>
  <trkpt lat="34.260599" lon="-3.743419">
   <ele>524.00</ele>
   <time>2014-04-07T10:10:43Z</time>
  </trkpt>
  <trkpt lat="34.260525" lon="-3.743626">
   <ele>524.00</ele>
   <time>2014-04-07T10:10:44Z</time>
  </trkpt>
  <trkpt lat="34.260441" lon="-3.743830">
   <ele>524.00</ele>
   <time>2014-04-07T10:10:45Z</time>
  </trkpt>
  <trkpt lat="34.259560" lon="-3.745819">
   <ele>521.00</ele>
   <time>2014-04-07T10:10:55Z</time>
  </trkpt>
  <trkpt lat="34.259486" lon="-3.746023">
   <ele>521.00</ele>
   <time>2014-04-07T10:10:56Z</time>
  </trkpt>
  <trkpt lat="34.259357" lon="-3.746436">
   <ele>520.00</ele>
   <time>2014-04-07T10:10:58Z</time>
  </trkpt>
  <trkpt lat="34.259072" lon="-3.747489">
   <ele>517.00</ele>
   <time>2014-04-07T10:11:03Z</time>
  </trkpt>
  <trkpt lat="34.258132" lon="-3.751124">
   <ele>514.00</ele>
   <time>2014-04-07T10:11:19Z</time>
  </trkpt>
  <trkpt lat="34.257442" lon="-3.753838">
   <ele>520.00</ele>
   <time>2014-04-07T10:11:31Z</time>
  </trkpt>
  <trkpt lat="34.257356" lon="-3.754301">
   <ele>520.00</ele>
   <time>2014-04-07T10:11:33Z</time>
  </trkpt>
  <trkpt lat="34.257325" lon="-3.754538">
   <ele>520.00</ele>
   <time>2014-04-07T10:11:34Z</time>
  </trkpt>
  <trkpt lat="34.257301" lon="-3.754777">
   <ele>520.00</ele>
   <time>2014-04-07T10:11:35Z</time>
  </trkpt>
  <trkpt lat="34.257257" lon="-3.755504">
   <ele>520.00</ele>
   <time>2014-04-07T10:11:38Z</time>
  </trkpt>
  <trkpt lat="34.257104" lon="-3.758943">
   <ele>521.00</ele>
   <time>2014-04-07T10:11:52Z</time>
  </trkpt>
  <trkpt lat="34.257110" lon="-3.759198">
   <ele>521.00</ele>
   <time>2014-04-07T10:11:53Z</time>
  </trkpt>
  <trkpt lat="34.257140" lon="-3.759711">
   <ele>521.00</ele>
   <time>2014-04-07T10:11:55Z</time>
  </trkpt>
  <trkpt lat="34.257413" lon="-3.763566">
   <ele>528.00</ele>
   <time>2014-04-07T10:12:10Z</time>
  </trkpt>
  <trkpt lat="34.257710" lon="-3.767812">
   <ele>528.00</ele>
   <time>2014-04-07T10:12:26Z</time>
  </trkpt>
  <trkpt lat="34.257795" lon="-3.769114">
   <ele>527.00</ele>
   <time>2014-04-07T10:12:31Z</time>
  </trkpt>
  <trkpt lat="34.257794" lon="-3.769377">
   <ele>527.00</ele>
   <time>2014-04-07T10:12:32Z</time>
  </trkpt>
  <trkpt lat="34.257773" lon="-3.769640">
   <ele>527.00</ele>
   <time>2014-04-07T10:12:33Z</time>
  </trkpt>
  <trkpt lat="34.257735" lon="-3.769900">
   <ele>527.00</ele>
   <time>2014-04-07T10:12:34Z</time>
  </trkpt>
  <trkpt lat="34.257680" lon="-3.770156">
   <ele>527.00</ele>
   <time>2014-04-07T10:12:35Z</time>
  </trkpt>
  <trkpt lat="34.257611" lon="-3.770409">
   <ele>527.00</ele>
   <time>2014-04-07T10:12:36Z</time>
  </trkpt>
  <trkpt lat="34.256305" lon="-3.774433">
   <ele>530.00</ele>
   <time>2014-04-07T10:12:52Z</time>
  </trkpt>
  <trkpt lat="34.255092" lon="-3.778164">
   <ele>532.00</ele>
   <time>2014-04-07T10:13:07Z</time>
  </trkpt>
  <trkpt lat="34.254468" lon="-3.780114">
   <ele>535.00</ele>
   <time>2014-04-07T10:13:15Z</time>
  </trkpt>
  <trkpt lat="34.254406" lon="-3.780352">
   <ele>536.00</ele>
   <time>2014-04-07T10:13:16Z</time>
  </trkpt>
  <trkpt lat="34.254357" lon="-3.780590">
   <ele>537.00</ele>
   <time>2014-04-07T10:13:17Z</time>
  </trkpt>
  <trkpt lat="34.254322" lon="-3.780828">
   <ele>537.00</ele>
   <time>2014-04-07T10:13:18Z</time>
  </trkpt>
  <trkpt lat="34.254297" lon="-3.781068">
   <ele>538.00</ele>
   <time>2014-04-07T10:13:19Z</time>
  </trkpt>
  <trkpt lat="34.253919" lon="-3.785092">
   <ele>538.00</ele>
   <time>2014-04-07T10:13:35Z</time>
  </trkpt>
  <trkpt lat="34.253509" lon="-3.789369">
   <ele>542.00</ele>
   <time>2014-04-07T10:13:51Z</time>
  </trkpt>
  <trkpt lat="34.253131" lon="-3.793379">
   <ele>543.00</ele>
   <time>2014-04-07T10:14:06Z</time>
  </trkpt>
  <trkpt lat="34.253063" lon="-3.793894">
   <ele>544.00</ele>
   <time>2014-04-07T10:14:08Z</time>
  </trkpt>
  <trkpt lat="34.252938" lon="-3.794656">
   <ele>544.00</ele>
   <time>2014-04-07T10:14:11Z</time>
  </trkpt>
  <trkpt lat="34.252571" lon="-3.796690">
   <ele>547.00</ele>
   <time>2014-04-07T10:14:19Z</time>
  </trkpt>
  <trkpt lat="34.252488" lon="-3.797481">
   <ele>547.00</ele>
   <time>2014-04-07T10:14:22Z</time>
  </trkpt>
  <trkpt lat="34.252124" lon="-3.801839">
   <ele>551.00</ele>
   <time>2014-04-07T10:14:38Z</time>
  </trkpt>
  <trkpt lat="34.251778" lon="-3.805840">
   <ele>554.00</ele>
   <time>2014-04-07T10:14:53Z</time>
  </trkpt>
  <trkpt lat="34.251404" lon="-3.810270">
   <ele>557.00</ele>
   <time>2014-04-07T10:15:09Z</time>
  </trkpt>
  <trkpt lat="34.251050" lon="-3.814427">
   <ele>560.00</ele>
   <time>2014-04-07T10:15:24Z</time>
  </trkpt>
  <trkpt lat="34.250699" lon="-3.818446">
   <ele>564.00</ele>
   <time>2014-04-07T10:15:40Z</time>
  </trkpt>
  <trkpt lat="34.250633" lon="-3.819351">
   <ele>565.00</ele>
   <time>2014-04-07T10:15:44Z</time>
  </trkpt>
  <trkpt lat="34.250628" lon="-3.819576">
   <ele>565.00</ele>
   <time>2014-04-07T10:15:45Z</time>
  </trkpt>
  <trkpt lat="34.250630" lon="-3.819798">
   <ele>565.00</ele>
   <time>2014-04-07T10:15:46Z</time>
  </trkpt>
  <trkpt lat="34.250641" lon="-3.820016">
   <ele>566.00</ele>
   <time>2014-04-07T10:15:47Z</time>
  </trkpt>
  <trkpt lat="34.250694" lon="-3.820444">
   <ele>567.00</ele>
   <time>2014-04-07T10:15:49Z</time>
  </trkpt>
  <trkpt lat="34.250782" lon="-3.820852">
   <ele>568.00</ele>
   <time>2014-04-07T10:15:51Z</time>
  </trkpt>
  <trkpt lat="34.250903" lon="-3.821237">
   <ele>569.00</ele>
   <time>2014-04-07T10:15:53Z</time>
  </trkpt>
  <trkpt lat="34.251030" lon="-3.821622">
   <ele>570.00</ele>
   <time>2014-04-07T10:15:55Z</time>
  </trkpt>
  <trkpt lat="34.251128" lon="-3.822027">
   <ele>571.00</ele>
   <time>2014-04-07T10:15:57Z</time>
  </trkpt>
  <trkpt lat="34.251170" lon="-3.822453">
   <ele>571.00</ele>
   <time>2014-04-07T10:15:59Z</time>
  </trkpt>
  <trkpt lat="34.251157" lon="-3.822885">
   <ele>571.00</ele>
   <time>2014-04-07T10:16:01Z</time>
  </trkpt>
  <trkpt lat="34.251098" lon="-3.823305">
   <ele>571.00</ele>
   <time>2014-04-07T10:16:03Z</time>
  </trkpt>
  <trkpt lat="34.250981" lon="-3.823699">
   <ele>571.00</ele>
   <time>2014-04-07T10:16:05Z</time>
  </trkpt>
  <trkpt lat="34.250815" lon="-3.824056">
   <ele>571.00</ele>
   <time>2014-04-07T10:16:07Z</time>
  </trkpt>
  <trkpt lat="34.250617" lon="-3.824371">
   <ele>571.00</ele>
   <time>2014-04-07T10:16:09Z</time>
  </trkpt>
  <trkpt lat="34.250395" lon="-3.824643">
   <ele>571.00</ele>
   <time>2014-04-07T10:16:11Z</time>
  </trkpt>
  <trkpt lat="34.250156" lon="-3.824880">
   <ele>571.00</ele>
   <time>2014-04-07T10:16:13Z</time>
  </trkpt>
  <trkpt lat="34.249796" lon="-3.825221">
   <ele>570.00</ele>
   <time>2014-04-07T10:16:16Z</time>
  </trkpt>
  <trkpt lat="34.249581" lon="-3.825486">
   <ele>569.00</ele>
   <time>2014-04-07T10:16:18Z</time>
  </trkpt>
  <trkpt lat="34.249410" lon="-3.825802">
   <ele>568.00</ele>
   <time>2014-04-07T10:16:20Z</time>
  </trkpt>
  <trkpt lat="34.249291" lon="-3.826162">
   <ele>567.00</ele>
   <time>2014-04-07T10:16:22Z</time>
  </trkpt>
  <trkpt lat="34.249224" lon="-3.826552">
   <ele>567.00</ele>
   <time>2014-04-07T10:16:24Z</time>
  </trkpt>
  <trkpt lat="34.249209" lon="-3.826965">
   <ele>566.00</ele>
   <time>2014-04-07T10:16:26Z</time>
  </trkpt>
  <trkpt lat="34.249310" lon="-3.830216">
   <ele>560.00</ele>
   <time>2014-04-07T10:16:40Z</time>
  </trkpt>
  <trkpt lat="34.249350" lon="-3.830939">
   <ele>560.00</ele>
   <time>2014-04-07T10:16:43Z</time>
  </trkpt>
  <trkpt lat="34.249398" lon="-3.831419">
   <ele>560.00</ele>
   <time>2014-04-07T10:16:45Z</time>
  </trkpt>
  <trkpt lat="34.249903" lon="-3.835124">
   <ele>556.00</ele>
   <time>2014-04-07T10:17:01Z</time>
  </trkpt>
  <trkpt lat="34.249941" lon="-3.835541">
   <ele>556.00</ele>
   <time>2014-04-07T10:17:03Z</time>
  </trkpt>
  <trkpt lat="34.249948" lon="-3.835950">
   <ele>556.00</ele>
   <time>2014-04-07T10:17:05Z</time>
  </trkpt>
  <trkpt lat="34.249918" lon="-3.836346">
   <ele>557.00</ele>
   <time>2014-04-07T10:17:07Z</time>
  </trkpt>
  <trkpt lat="34.249784" lon="-3.837656">
   <ele>557.00</ele>
   <time>2014-04-07T10:17:14Z</time>
  </trkpt>
  <trkpt lat="34.249759" lon="-3.838244">
   <ele>557.00</ele>
   <time>2014-04-07T10:17:17Z</time>
  </trkpt>
  <trkpt lat="34.249753" lon="-3.838643">
   <ele>557.00</ele>
   <time>2014-04-07T10:17:19Z</time>
  </trkpt>
  <trkpt lat="34.249769" lon="-3.839042">
   <ele>557.00</ele>
   <time>2014-04-07T10:17:21Z</time>
  </trkpt>
  <trkpt lat="34.249818" lon="-3.839438">
   <ele>557.00</ele>
   <time>2014-04-07T10:17:23Z</time>
  </trkpt>
  <trkpt lat="34.249911" lon="-3.839833">
   <ele>557.00</ele>
   <time>2014-04-07T10:17:25Z</time>
  </trkpt>
  <trkpt lat="34.250044" lon="-3.840228">
   <ele>556.00</ele>
   <time>2014-04-07T10:17:27Z</time>
  </trkpt>
  <trkpt lat="34.250325" lon="-3.841039">
   <ele>555.00</ele>
   <time>2014-04-07T10:17:31Z</time>
  </trkpt>
  <trkpt lat="34.250386" lon="-3.841250">
   <ele>555.00</ele>
   <time>2014-04-07T10:17:32Z</time>
  </trkpt>
  <trkpt lat="34.250437" lon="-3.841463">
   <ele>555.00</ele>
   <time>2014-04-07T10:17:33Z</time>
  </trkpt>
  <trkpt lat="34.250477" lon="-3.841679">
   <ele>554.00</ele>
   <time>2014-04-07T10:17:34Z</time>
  </trkpt>
  <trkpt lat="34.250507" lon="-3.841894">
   <ele>554.00</ele>
   <time>2014-04-07T10:17:35Z</time>
  </trkpt>
  <trkpt lat="34.250538" lon="-3.842321">
   <ele>554.00</ele>
   <time>2014-04-07T10:17:37Z</time>
  </trkpt>
  <trkpt lat="34.250533" lon="-3.842739">
   <ele>555.00</ele>
   <time>2014-04-07T10:17:39Z</time>
  </trkpt>
  <trkpt lat="34.250505" lon="-3.843140">
   <ele>555.00</ele>
   <time>2014-04-07T10:17:41Z</time>
  </trkpt>
  <trkpt lat="34.250462" lon="-3.843731">
   <ele>555.00</ele>
   <time>2014-04-07T10:17:44Z</time>
  </trkpt>
  <trkpt lat="34.250476" lon="-3.844129">
   <ele>556.00</ele>
   <time>2014-04-07T10:17:46Z</time>
  </trkpt>
  <trkpt lat="34.250532" lon="-3.844531">
   <ele>556.00</ele>
   <time>2014-04-07T10:17:48Z</time>
  </trkpt>
  <trkpt lat="34.250874" lon="-3.846337">
   <ele>554.00</ele>
   <time>2014-04-07T10:17:56Z</time>
  </trkpt>
  <trkpt lat="34.250904" lon="-3.846569">
   <ele>553.00</ele>
   <time>2014-04-07T10:17:57Z</time>
  </trkpt>
  <trkpt lat="34.250922" lon="-3.846800">
   <ele>553.00</ele>
   <time>2014-04-07T10:17:58Z</time>
  </trkpt>
  <trkpt lat="34.250929" lon="-3.847029">
   <ele>553.00</ele>
   <time>2014-04-07T10:17:59Z</time>
  </trkpt>
  <trkpt lat="34.250923" lon="-3.847255">
   <ele>553.00</ele>
   <time>2014-04-07T10:18:00Z</time>
  </trkpt>
  <trkpt lat="34.250907" lon="-3.847475">
   <ele>553.00</ele>
   <time>2014-04-07T10:18:01Z</time>
  </trkpt>
  <trkpt lat="34.250792" lon="-3.848899">
   <ele>554.00</ele>
   <time>2014-04-07T10:18:08Z</time>
  </trkpt>
  <trkpt lat="34.250737" lon="-3.850326">
   <ele>551.00</ele>
   <time>2014-04-07T10:18:16Z</time>
  </trkpt>
  <trkpt lat="34.250695" lon="-3.850669">
   <ele>551.00</ele>
   <time>2014-04-07T10:18:18Z</time>
  </trkpt>
  <trkpt lat="34.250628" lon="-3.851010">
   <ele>550.00</ele>
   <time>2014-04-07T10:18:20Z</time>
  </trkpt>
  <trkpt lat="34.250523" lon="-3.851343">
   <ele>549.00</ele>
   <time>2014-04-07T10:18:22Z</time>
  </trkpt>
  <trkpt lat="34.250388" lon="-3.851678">
   <ele>549.00</ele>
   <time>2014-04-07T10:18:24Z</time>
  </trkpt>
  <trkpt lat="34.250109" lon="-3.852389">
   <ele>549.00</ele>
   <time>2014-04-07T10:18:28Z</time>
  </trkpt>
  <trkpt lat="34.249996" lon="-3.852765">
   <ele>549.00</ele>
   <time>2014-04-07T10:18:30Z</time>
  </trkpt>
  <trkpt lat="34.249928" lon="-3.853167">
   <ele>547.00</ele>
   <time>2014-04-07T10:18:32Z</time>
  </trkpt>
  <trkpt lat="34.249887" lon="-3.853588">
   <ele>546.00</ele>
   <time>2014-04-07T10:18:34Z</time>
  </trkpt>
  <trkpt lat="34.249606" lon="-3.857074">
   <ele>541.00</ele>
   <time>2014-04-07T10:18:50Z</time>
  </trkpt>
  <trkpt lat="34.249592" lon="-3.857511">
   <ele>541.00</ele>
   <time>2014-04-07T10:18:52Z</time>
  </trkpt>
  <trkpt lat="34.249600" lon="-3.857731">
   <ele>541.00</ele>
   <time>2014-04-07T10:18:53Z</time>
  </trkpt>
  <trkpt lat="34.249617" lon="-3.857953">
   <ele>540.00</ele>
   <time>2014-04-07T10:18:54Z</time>
  </trkpt>
  <trkpt lat="34.249652" lon="-3.858404">
   <ele>540.00</ele>
   <time>2014-04-07T10:18:56Z</time>
  </trkpt>
  <trkpt lat="34.249657" lon="-3.858631">
   <ele>539.00</ele>
   <time>2014-04-07T10:18:57Z</time>
  </trkpt>
  <trkpt lat="34.249647" lon="-3.858859">
   <ele>539.00</ele>
   <time>2014-04-07T10:18:58Z</time>
  </trkpt>
  <trkpt lat="34.249624" lon="-3.859085">
   <ele>538.00</ele>
   <time>2014-04-07T10:18:59Z</time>
  </trkpt>
  <trkpt lat="34.249375" lon="-3.860662">
   <ele>533.00</ele>
   <time>2014-04-07T10:19:06Z</time>
  </trkpt>
  <trkpt lat="34.248939" lon="-3.863272">
   <ele>531.00</ele>
   <time>2014-04-07T10:19:18Z</time>
  </trkpt>
  <trkpt lat="34.248844" lon="-3.863801">
   <ele>531.00</ele>
   <time>2014-04-07T10:19:20Z</time>
  </trkpt>
  <trkpt lat="34.248564" lon="-3.865675">
   <ele>534.00</ele>
   <time>2014-04-07T10:19:27Z</time>
  </trkpt>
  <trkpt lat="34.248453" lon="-3.866193">
   <ele>534.00</ele>
   <time>2014-04-07T10:19:29Z</time>
  </trkpt>
  <trkpt lat="34.248322" lon="-3.866701">
   <ele>534.00</ele>
   <time>2014-04-07T10:19:31Z</time>
  </trkpt>
  <trkpt lat="34.247887" lon="-3.868216">
   <ele>530.00</ele>
   <time>2014-04-07T10:19:37Z</time>
  </trkpt>
  <trkpt lat="34.247717" lon="-3.868707">
   <ele>529.00</ele>
   <time>2014-04-07T10:19:39Z</time>
  </trkpt>
  <trkpt lat="34.247621" lon="-3.868942">
   <ele>529.00</ele>
   <time>2014-04-07T10:19:40Z</time>
  </trkpt>
  <trkpt lat="34.247518" lon="-3.869170">
   <ele>528.00</ele>
   <time>2014-04-07T10:19:41Z</time>
  </trkpt>
  <trkpt lat="34.247408" lon="-3.869390">
   <ele>528.00</ele>
   <time>2014-04-07T10:19:42Z</time>
  </trkpt>
  <trkpt lat="34.247291" lon="-3.869603">
   <ele>528.00</ele>
   <time>2014-04-07T10:19:43Z</time>
  </trkpt>
  <trkpt lat="34.247165" lon="-3.869808">
   <ele>528.00</ele>
   <time>2014-04-07T10:19:44Z</time>
  </trkpt>
  <trkpt lat="34.247032" lon="-3.870006">
   <ele>528.00</ele>
   <time>2014-04-07T10:19:45Z</time>
  </trkpt>
  <trkpt lat="34.246890" lon="-3.870195">
   <ele>528.00</ele>
   <time>2014-04-07T10:19:46Z</time>
  </trkpt>
  <trkpt lat="34.246741" lon="-3.870377">
   <ele>529.00</ele>
   <time>2014-04-07T10:19:47Z</time>
  </trkpt>
  <trkpt lat="34.246583" lon="-3.870550">
   <ele>529.00</ele>
   <time>2014-04-07T10:19:48Z</time>
  </trkpt>
  <trkpt lat="34.246417" lon="-3.870710">
   <ele>529.00</ele>
   <time>2014-04-07T10:19:49Z</time>
  </trkpt>
  <trkpt lat="34.246242" lon="-3.870857">
   <ele>528.00</ele>
   <time>2014-04-07T10:19:50Z</time>
  </trkpt>
  <trkpt lat="34.246061" lon="-3.870995">
   <ele>528.00</ele>
   <time>2014-04-07T10:19:51Z</time>
  </trkpt>
  <trkpt lat="34.245873" lon="-3.871125">
   <ele>528.00</ele>
   <time>2014-04-07T10:19:52Z</time>
  </trkpt>
  <trkpt lat="34.245682" lon="-3.871247">
   <ele>528.00</ele>
   <time>2014-04-07T10:19:53Z</time>
  </trkpt>
  <trkpt lat="34.242931" lon="-3.872868">
   <ele>524.00</ele>
   <time>2014-04-07T10:20:07Z</time>
  </trkpt>
  <trkpt lat="34.242744" lon="-3.873011">
   <ele>524.00</ele>
   <time>2014-04-07T10:20:08Z</time>
  </trkpt>
  <trkpt lat="34.242386" lon="-3.873321">
   <ele>524.00</ele>
   <time>2014-04-07T10:20:10Z</time>
  </trkpt>
  <trkpt lat="34.242218" lon="-3.873488">
   <ele>524.00</ele>
   <time>2014-04-07T10:20:11Z</time>
  </trkpt>
  <trkpt lat="34.242058" lon="-3.873665">
   <ele>524.00</ele>
   <time>2014-04-07T10:20:12Z</time>
  </trkpt>
  <trkpt lat="34.241905" lon="-3.873850">
   <ele>524.00</ele>
   <time>2014-04-07T10:20:13Z</time>
  </trkpt>
  <trkpt lat="34.241762" lon="-3.874043">
   <ele>524.00</ele>
   <time>2014-04-07T10:20:14Z</time>
  </trkpt>
  <trkpt lat="34.241628" lon="-3.874244">
   <ele>524.00</ele>
   <time>2014-04-07T10:20:15Z</time>
  </trkpt>
  <trkpt lat="34.241507" lon="-3.874450">
   <ele>523.00</ele>
   <time>2014-04-07T10:20:16Z</time>
  </trkpt>
  <trkpt lat="34.241398" lon="-3.874660">
   <ele>523.00</ele>
   <time>2014-04-07T10:20:17Z</time>
  </trkpt>
  <trkpt lat="34.241203" lon="-3.875087">
   <ele>523.00</ele>
   <time>2014-04-07T10:20:19Z</time>
  </trkpt>
  <trkpt lat="34.241036" lon="-3.875514">
   <ele>523.00</ele>
   <time>2014-04-07T10:20:21Z</time>
  </trkpt>
  <trkpt lat="34.240965" lon="-3.875728">
   <ele>523.00</ele>
   <time>2014-04-07T10:20:22Z</time>
  </trkpt>
  <trkpt lat="34.240902" lon="-3.875944">
   <ele>523.00</ele>
   <time>2014-04-07T10:20:23Z</time>
  </trkpt>
  <trkpt lat="34.240847" lon="-3.876161">
   <ele>523.00</ele>
   <time>2014-04-07T10:20:24Z</time>
  </trkpt>
  <trkpt lat="34.240752" lon="-3.876593">
   <ele>523.00</ele>
   <time>2014-04-07T10:20:26Z</time>
  </trkpt>
  <trkpt lat="34.240380" lon="-3.878445">
   <ele>523.00</ele>
   <time>2014-04-07T10:20:35Z</time>
  </trkpt>
  <trkpt lat="34.240235" lon="-3.878777">
   <ele>523.00</ele>
   <time>2014-04-07T10:20:37Z</time>
  </trkpt>
  <trkpt lat="34.240021" lon="-3.879053">
   <ele>523.00</ele>
   <time>2014-04-07T10:20:39Z</time>
  </trkpt>
  <trkpt lat="34.239770" lon="-3.879300">
   <ele>523.00</ele>
   <time>2014-04-07T10:20:41Z</time>
  </trkpt>
  <trkpt lat="34.238782" lon="-3.880176">
   <ele>522.00</ele>
   <time>2014-04-07T10:20:48Z</time>
  </trkpt>
  <trkpt lat="34.238513" lon="-3.880459">
   <ele>522.00</ele>
   <time>2014-04-07T10:20:50Z</time>
  </trkpt>
  <trkpt lat="34.238017" lon="-3.881034">
   <ele>521.00</ele>
   <time>2014-04-07T10:20:54Z</time>
  </trkpt>
  <trkpt lat="34.237684" lon="-3.881464">
   <ele>520.00</ele>
   <time>2014-04-07T10:20:57Z</time>
  </trkpt>
  <trkpt lat="34.237523" lon="-3.881792">
   <ele>520.00</ele>
   <time>2014-04-07T10:20:59Z</time>
  </trkpt>
  <trkpt lat="34.237436" lon="-3.882164">
   <ele>520.00</ele>
   <time>2014-04-07T10:21:01Z</time>
  </trkpt>
  <trkpt lat="34.237393" lon="-3.882563">
   <ele>520.00</ele>
   <time>2014-04-07T10:21:03Z</time>
  </trkpt>
  <trkpt lat="34.237071" lon="-3.885816">
   <ele>519.00</ele>
   <time>2014-04-07T10:21:19Z</time>
  </trkpt>
  <trkpt lat="34.236971" lon="-3.886735">
   <ele>519.00</ele>
   <time>2014-04-07T10:21:24Z</time>
  </trkpt>
  <trkpt lat="34.236907" lon="-3.887114">
   <ele>520.00</ele>
   <time>2014-04-07T10:21:26Z</time>
  </trkpt>
  <trkpt lat="34.236826" lon="-3.887498">
   <ele>520.00</ele>
   <time>2014-04-07T10:21:28Z</time>
  </trkpt>
  <trkpt lat="34.236721" lon="-3.887887">
   <ele>519.00</ele>
   <time>2014-04-07T10:21:30Z</time>
  </trkpt>
  <trkpt lat="34.236586" lon="-3.888279">
   <ele>519.00</ele>
   <time>2014-04-07T10:21:32Z</time>
  </trkpt>
  <trkpt lat="34.236423" lon="-3.888667">
   <ele>519.00</ele>
   <time>2014-04-07T10:21:34Z</time>
  </trkpt>
  <trkpt lat="34.236151" lon="-3.889223">
   <ele>519.00</ele>
   <time>2014-04-07T10:21:37Z</time>
  </trkpt>
  <trkpt lat="34.235633" lon="-3.890282">
   <ele>519.00</ele>
   <time>2014-04-07T10:21:43Z</time>
  </trkpt>
  <trkpt lat="34.235477" lon="-3.890650">
   <ele>519.00</ele>
   <time>2014-04-07T10:21:45Z</time>
  </trkpt>
  <trkpt lat="34.235338" lon="-3.891033">
   <ele>520.00</ele>
   <time>2014-04-07T10:21:47Z</time>
  </trkpt>
  <trkpt lat="34.235160" lon="-3.891626">
   <ele>520.00</ele>
   <time>2014-04-07T10:21:50Z</time>
  </trkpt>
  <trkpt lat="34.235059" lon="-3.892033">
   <ele>520.00</ele>
   <time>2014-04-07T10:21:52Z</time>
  </trkpt>
  <trkpt lat="34.234979" lon="-3.892444">
   <ele>521.00</ele>
   <time>2014-04-07T10:21:54Z</time>
  </trkpt>
  <trkpt lat="34.234915" lon="-3.892854">
   <ele>521.00</ele>
   <time>2014-04-07T10:21:56Z</time>
  </trkpt>
  <trkpt lat="34.234870" lon="-3.893258">
   <ele>520.00</ele>
   <time>2014-04-07T10:21:58Z</time>
  </trkpt>
  <trkpt lat="34.234847" lon="-3.893662">
   <ele>520.00</ele>
   <time>2014-04-07T10:22:00Z</time>
  </trkpt>
  <trkpt lat="34.234841" lon="-3.894063">
   <ele>519.00</ele>
   <time>2014-04-07T10:22:02Z</time>
  </trkpt>
  <trkpt lat="34.234855" lon="-3.894676">
   <ele>518.00</ele>
   <time>2014-04-07T10:22:05Z</time>
  </trkpt>
  <trkpt lat="34.234886" lon="-3.895097">
   <ele>518.00</ele>
   <time>2014-04-07T10:22:07Z</time>
  </trkpt>
  <trkpt lat="34.234956" lon="-3.895742">
   <ele>518.00</ele>
   <time>2014-04-07T10:22:10Z</time>
  </trkpt>
  <trkpt lat="34.235016" lon="-3.896176">
   <ele>518.00</ele>
   <time>2014-04-07T10:22:12Z</time>
  </trkpt>
  <trkpt lat="34.235091" lon="-3.896609">
   <ele>517.00</ele>
   <time>2014-04-07T10:22:14Z</time>
  </trkpt>
  <trkpt lat="34.235139" lon="-3.896824">
   <ele>517.00</ele>
   <time>2014-04-07T10:22:15Z</time>
  </trkpt>
  <trkpt lat="34.235249" lon="-3.897252">
   <ele>516.00</ele>
   <time>2014-04-07T10:22:17Z</time>
  </trkpt>
  <trkpt lat="34.235528" lon="-3.898311">
   <ele>516.00</ele>
   <time>2014-04-07T10:22:22Z</time>
  </trkpt>
  <trkpt lat="34.235571" lon="-3.898524">
   <ele>516.00</ele>
   <time>2014-04-07T10:22:23Z</time>
  </trkpt>
  <trkpt lat="34.235597" lon="-3.898741">
   <ele>515.00</ele>
   <time>2014-04-07T10:22:24Z</time>
  </trkpt>
  <trkpt lat="34.235606" lon="-3.898962">
   <ele>515.00</ele>
   <time>2014-04-07T10:22:25Z</time>
  </trkpt>
  <trkpt lat="34.235599" lon="-3.899186">
   <ele>515.00</ele>
   <time>2014-04-07T10:22:26Z</time>
  </trkpt>
  <trkpt lat="34.235577" lon="-3.899413">
   <ele>515.00</ele>
   <time>2014-04-07T10:22:27Z</time>
  </trkpt>
  <trkpt lat="34.235509" lon="-3.899873">
   <ele>515.00</ele>
   <time>2014-04-07T10:22:29Z</time>
  </trkpt>
  <trkpt lat="34.235421" lon="-3.900339">
   <ele>515.00</ele>
   <time>2014-04-07T10:22:31Z</time>
  </trkpt>
  <trkpt lat="34.234695" lon="-3.903774">
   <ele>506.00</ele>
   <time>2014-04-07T10:22:46Z</time>
  </trkpt>
  <trkpt lat="34.233997" lon="-3.907318">
   <ele>514.00</ele>
   <time>2014-04-07T10:23:02Z</time>
  </trkpt>
  <trkpt lat="34.233802" lon="-3.908385">
   <ele>519.00</ele>
   <time>2014-04-07T10:23:07Z</time>
  </trkpt>
  <trkpt lat="34.233783" lon="-3.908604">
   <ele>519.00</ele>
   <time>2014-04-07T10:23:08Z</time>
  </trkpt>
  <trkpt lat="34.233779" lon="-3.908822">
   <ele>520.00</ele>
   <time>2014-04-07T10:23:09Z</time>
  </trkpt>
  <trkpt lat="34.233823" lon="-3.909251">
   <ele>521.00</ele>
   <time>2014-04-07T10:23:11Z</time>
  </trkpt>
  <trkpt lat="34.233931" lon="-3.909664">
   <ele>523.00</ele>
   <time>2014-04-07T10:23:13Z</time>
  </trkpt>
  <trkpt lat="34.234088" lon="-3.910055">
   <ele>524.00</ele>
   <time>2014-04-07T10:23:15Z</time>
  </trkpt>
  <trkpt lat="34.235123" lon="-3.912362">
   <ele>519.00</ele>
   <time>2014-04-07T10:23:27Z</time>
  </trkpt>
  <trkpt lat="34.235190" lon="-3.912569">
   <ele>518.00</ele>
   <time>2014-04-07T10:23:28Z</time>
  </trkpt>
  <trkpt lat="34.235272" lon="-3.912982">
   <ele>515.00</ele>
   <time>2014-04-07T10:23:30Z</time>
  </trkpt>
  <trkpt lat="34.235284" lon="-3.913382">
   <ele>513.00</ele>
   <time>2014-04-07T10:23:32Z</time>
  </trkpt>
  <trkpt lat="34.235232" lon="-3.913776">
   <ele>511.00</ele>
   <time>2014-04-07T10:23:34Z</time>
  </trkpt>
  <trkpt lat="34.235136" lon="-3.914156">
   <ele>510.00</ele>
   <time>2014-04-07T10:23:36Z</time>
  </trkpt>
  <trkpt lat="34.234548" lon="-3.916167">
   <ele>517.00</ele>
   <time>2014-04-07T10:23:47Z</time>
  </trkpt>
  <trkpt lat="34.234448" lon="-3.916456">
   <ele>518.00</ele>
   <time>2014-04-07T10:23:49Z</time>
  </trkpt>
  <trkpt lat="34.234341" lon="-3.916713">
   <ele>520.00</ele>
   <time>2014-04-07T10:23:51Z</time>
  </trkpt>
  <trkpt lat="34.234219" lon="-3.916955">
   <ele>522.00</ele>
   <time>2014-04-07T10:23:53Z</time>
  </trkpt>
  <trkpt lat="34.234084" lon="-3.917178">
   <ele>524.00</ele>
   <time>2014-04-07T10:23:55Z</time>
  </trkpt>
  <trkpt lat="34.233743" lon="-3.917695">
   <ele>527.00</ele>
   <time>2014-04-07T10:23:59Z</time>
  </trkpt>
  <trkpt lat="34.233530" lon="-3.918008">
   <ele>529.00</ele>
   <time>2014-04-07T10:24:01Z</time>
  </trkpt>
  <trkpt lat="34.232988" lon="-3.918902">
   <ele>532.00</ele>
   <time>2014-04-07T10:24:07Z</time>
  </trkpt>
  <trkpt lat="34.232827" lon="-3.919218">
   <ele>533.00</ele>
   <time>2014-04-07T10:24:09Z</time>
  </trkpt>
  <trkpt lat="34.232701" lon="-3.919549">
   <ele>535.00</ele>
   <time>2014-04-07T10:24:11Z</time>
  </trkpt>
  <trkpt lat="34.232611" lon="-3.919902">
   <ele>536.00</ele>
   <time>2014-04-07T10:24:13Z</time>
  </trkpt>
  <trkpt lat="34.232551" lon="-3.920288">
   <ele>538.00</ele>
   <time>2014-04-07T10:24:15Z</time>
  </trkpt>
  <trkpt lat="34.232523" lon="-3.920698">
   <ele>539.00</ele>
   <time>2014-04-07T10:24:17Z</time>
  </trkpt>
  <trkpt lat="34.232419" lon="-3.923466">
   <ele>541.00</ele>
   <time>2014-04-07T10:24:31Z</time>
  </trkpt>
  <trkpt lat="34.232382" lon="-3.923830">
   <ele>540.00</ele>
   <time>2014-04-07T10:24:33Z</time>
  </trkpt>
  <trkpt lat="34.231985" lon="-3.926653">
   <ele>528.00</ele>
   <time>2014-04-07T10:24:48Z</time>
  </trkpt>
  <trkpt lat="34.231507" lon="-3.930037">
   <ele>532.00</ele>
   <time>2014-04-07T10:25:03Z</time>
  </trkpt>
  <trkpt lat="34.231077" lon="-3.933172">
   <ele>548.00</ele>
   <time>2014-04-07T10:25:19Z</time>
  </trkpt>
  <trkpt lat="34.230855" lon="-3.934770">
   <ele>555.00</ele>
   <time>2014-04-07T10:25:27Z</time>
  </trkpt>
  <trkpt lat="34.230774" lon="-3.935160">
   <ele>556.00</ele>
   <time>2014-04-07T10:25:29Z</time>
  </trkpt>
  <trkpt lat="34.230676" lon="-3.935551">
   <ele>557.00</ele>
   <time>2014-04-07T10:25:31Z</time>
  </trkpt>
  <trkpt lat="34.230201" lon="-3.937249">
   <ele>563.00</ele>
   <time>2014-04-07T10:25:39Z</time>
  </trkpt>
  <trkpt lat="34.229979" lon="-3.938023">
   <ele>565.00</ele>
   <time>2014-04-07T10:25:42Z</time>
  </trkpt>
  <trkpt lat="34.229308" lon="-3.940562">
   <ele>571.00</ele>
   <time>2014-04-07T10:25:52Z</time>
  </trkpt>
  <trkpt lat="34.229229" lon="-3.940787">
   <ele>571.00</ele>
   <time>2014-04-07T10:25:53Z</time>
  </trkpt>
  <trkpt lat="34.229138" lon="-3.941005">
   <ele>571.00</ele>
   <time>2014-04-07T10:25:54Z</time>
  </trkpt>
  <trkpt lat="34.229036" lon="-3.941211">
   <ele>572.00</ele>
   <time>2014-04-07T10:25:55Z</time>
  </trkpt>
  <trkpt lat="34.228922" lon="-3.941406">
   <ele>572.00</ele>
   <time>2014-04-07T10:25:56Z</time>
  </trkpt>
  <trkpt lat="34.228796" lon="-3.941591">
   <ele>572.00</ele>
   <time>2014-04-07T10:25:57Z</time>
  </trkpt>
  <trkpt lat="34.228658" lon="-3.941764">
   <ele>572.00</ele>
   <time>2014-04-07T10:25:58Z</time>
  </trkpt>
  <trkpt lat="34.228509" lon="-3.941923">
   <ele>573.00</ele>
   <time>2014-04-07T10:25:59Z</time>
  </trkpt>
  <trkpt lat="34.228351" lon="-3.942070">
   <ele>573.00</ele>
   <time>2014-04-07T10:26:00Z</time>
  </trkpt>
  <trkpt lat="34.228183" lon="-3.942203">
   <ele>574.00</ele>
   <time>2014-04-07T10:26:01Z</time>
  </trkpt>
  <trkpt lat="34.228009" lon="-3.942326">
   <ele>575.00</ele>
   <time>2014-04-07T10:26:02Z</time>
  </trkpt>
  <trkpt lat="34.226950" lon="-3.943018">
   <ele>578.00</ele>
   <time>2014-04-07T10:26:08Z</time>
  </trkpt>
  <trkpt lat="34.226622" lon="-3.943276">
   <ele>579.00</ele>
   <time>2014-04-07T10:26:10Z</time>
  </trkpt>
  <trkpt lat="34.226469" lon="-3.943420">
   <ele>579.00</ele>
   <time>2014-04-07T10:26:11Z</time>
  </trkpt>
  <trkpt lat="34.226324" lon="-3.943576">
   <ele>579.00</ele>
   <time>2014-04-07T10:26:12Z</time>
  </trkpt>
  <trkpt lat="34.226045" lon="-3.943911">
   <ele>578.00</ele>
   <time>2014-04-07T10:26:14Z</time>
  </trkpt>
  <trkpt lat="34.225642" lon="-3.944429">
   <ele>577.00</ele>
   <time>2014-04-07T10:26:17Z</time>
  </trkpt>
  <trkpt lat="34.225522" lon="-3.944615">
   <ele>576.00</ele>
   <time>2014-04-07T10:26:18Z</time>
  </trkpt>
  <trkpt lat="34.225411" lon="-3.944811">
   <ele>575.00</ele>
   <time>2014-04-07T10:26:19Z</time>
  </trkpt>
  <trkpt lat="34.225313" lon="-3.945017">
   <ele>574.00</ele>
   <time>2014-04-07T10:26:20Z</time>
  </trkpt>
  <trkpt lat="34.225228" lon="-3.945232">
   <ele>573.00</ele>
   <time>2014-04-07T10:26:21Z</time>
  </trkpt>
  <trkpt lat="34.225155" lon="-3.945455">
   <ele>572.00</ele>
   <time>2014-04-07T10:26:22Z</time>
  </trkpt>
  <trkpt lat="34.225094" lon="-3.945684">
   <ele>571.00</ele>
   <time>2014-04-07T10:26:23Z</time>
  </trkpt>
  <trkpt lat="34.225046" lon="-3.945919">
   <ele>570.00</ele>
   <time>2014-04-07T10:26:24Z</time>
  </trkpt>
  <trkpt lat="34.225012" lon="-3.946156">
   <ele>568.00</ele>
   <time>2014-04-07T10:26:25Z</time>
  </trkpt>
  <trkpt lat="34.224991" lon="-3.946397">
   <ele>567.00</ele>
   <time>2014-04-07T10:26:26Z</time>
  </trkpt>
  <trkpt lat="34.224908" lon="-3.947569">
   <ele>559.00</ele>
   <time>2014-04-07T10:26:31Z</time>
  </trkpt>
  <trkpt lat="34.224915" lon="-3.947797">
   <ele>558.00</ele>
   <time>2014-04-07T10:26:32Z</time>
  </trkpt>
  <trkpt lat="34.224938" lon="-3.948026">
   <ele>556.00</ele>
   <time>2014-04-07T10:26:33Z</time>
  </trkpt>
  <trkpt lat="34.224972" lon="-3.948254">
   <ele>555.00</ele>
   <time>2014-04-07T10:26:34Z</time>
  </trkpt>
  <trkpt lat="34.225205" lon="-3.949653">
   <ele>546.00</ele>
   <time>2014-04-07T10:26:40Z</time>
  </trkpt>
  <trkpt lat="34.225227" lon="-3.949895">
   <ele>544.00</ele>
   <time>2014-04-07T10:26:41Z</time>
  </trkpt>
  <trkpt lat="34.225235" lon="-3.950139">
   <ele>543.00</ele>
   <time>2014-04-07T10:26:42Z</time>
  </trkpt>
  <trkpt lat="34.225227" lon="-3.950385">
   <ele>541.00</ele>
   <time>2014-04-07T10:26:43Z</time>
  </trkpt>
  <trkpt lat="34.225203" lon="-3.950630">
   <ele>540.00</ele>
   <time>2014-04-07T10:26:44Z</time>
  </trkpt>
  <trkpt lat="34.225168" lon="-3.950874">
   <ele>539.00</ele>
   <time>2014-04-07T10:26:45Z</time>
  </trkpt>
  <trkpt lat="34.224498" lon="-3.954647">
   <ele>523.00</ele>
   <time>2014-04-07T10:27:00Z</time>
  </trkpt>
  <trkpt lat="34.223962" lon="-3.957718">
   <ele>515.00</ele>
   <time>2014-04-07T10:27:12Z</time>
  </trkpt>
  <trkpt lat="34.223902" lon="-3.958225">
   <ele>515.00</ele>
   <time>2014-04-07T10:27:14Z</time>
  </trkpt>
  <trkpt lat="34.223859" lon="-3.958730">
   <ele>513.00</ele>
   <time>2014-04-07T10:27:16Z</time>
  </trkpt>
  <trkpt lat="34.223653" lon="-3.961892">
   <ele>508.00</ele>
   <time>2014-04-07T10:27:31Z</time>
  </trkpt>
  <trkpt lat="34.223440" lon="-3.964899">
   <ele>502.00</ele>
   <time>2014-04-07T10:27:46Z</time>
  </trkpt>
  <trkpt lat="34.223215" lon="-3.968043">
   <ele>497.00</ele>
   <time>2014-04-07T10:28:02Z</time>
  </trkpt>
  <trkpt lat="34.223025" lon="-3.970583">
   <ele>495.00</ele>
   <time>2014-04-07T10:28:17Z</time>
  </trkpt>
  <trkpt lat="34.222877" lon="-3.972944">
   <ele>490.00</ele>
   <time>2014-04-07T10:28:30Z</time>
  </trkpt>
  <trkpt lat="34.222876" lon="-3.973315">
   <ele>489.00</ele>
   <time>2014-04-07T10:28:32Z</time>
  </trkpt>
  <trkpt lat="34.222897" lon="-3.973682">
   <ele>489.00</ele>
   <time>2014-04-07T10:28:34Z</time>
  </trkpt>
  <trkpt lat="34.222941" lon="-3.974038">
   <ele>488.00</ele>
   <time>2014-04-07T10:28:36Z</time>
  </trkpt>
  <trkpt lat="34.223003" lon="-3.974387">
   <ele>488.00</ele>
   <time>2014-04-07T10:28:38Z</time>
  </trkpt>
  <trkpt lat="34.223082" lon="-3.974728">
   <ele>488.00</ele>
   <time>2014-04-07T10:28:40Z</time>
  </trkpt>
  <trkpt lat="34.223176" lon="-3.975057">
   <ele>489.00</ele>
   <time>2014-04-07T10:28:42Z</time>
  </trkpt>
  <trkpt lat="34.223288" lon="-3.975376">
   <ele>489.00</ele>
   <time>2014-04-07T10:28:44Z</time>
  </trkpt>
  <trkpt lat="34.223419" lon="-3.975687">
   <ele>489.00</ele>
   <time>2014-04-07T10:28:46Z</time>
  </trkpt>
  <trkpt lat="34.223566" lon="-3.975981">
   <ele>489.00</ele>
   <time>2014-04-07T10:28:48Z</time>
  </trkpt>
  <trkpt lat="34.223728" lon="-3.976255">
   <ele>488.00</ele>
   <time>2014-04-07T10:28:50Z</time>
  </trkpt>
  <trkpt lat="34.225009" lon="-3.978272">
   <ele>485.00</ele>
   <time>2014-04-07T10:29:06Z</time>
  </trkpt>
  <trkpt lat="34.225825" lon="-3.979549">
   <ele>482.00</ele>
   <time>2014-04-07T10:29:21Z</time>
  </trkpt>
  <trkpt lat="34.225972" lon="-3.979778">
   <ele>481.00</ele>
   <time>2014-04-07T10:29:28Z</time>
  </trkpt>
  <trkpt lat="34.226072" lon="-3.979975">
   <ele>480.00</ele>
   <time>2014-04-07T10:29:32Z</time>
  </trkpt>
  <trkpt lat="34.226184" lon="-3.980153">
   <ele>480.00</ele>
   <time>2014-04-07T10:29:35Z</time>
  </trkpt>
  <trkpt lat="34.226357" lon="-3.980356">
   <ele>479.00</ele>
   <time>2014-04-07T10:29:38Z</time>
  </trkpt>
  <trkpt lat="34.226472" lon="-3.980537">
   <ele>478.00</ele>
   <time>2014-04-07T10:29:40Z</time>
  </trkpt>
  <trkpt lat="34.226578" lon="-3.980730">
   <ele>477.00</ele>
   <time>2014-04-07T10:29:42Z</time>
  </trkpt>
  <trkpt lat="34.226737" lon="-3.981039">
   <ele>476.00</ele>
   <time>2014-04-07T10:29:45Z</time>
  </trkpt>
  <trkpt lat="34.226840" lon="-3.981267">
   <ele>476.00</ele>
   <time>2014-04-07T10:29:47Z</time>
  </trkpt>
  <trkpt lat="34.226933" lon="-3.981521">
   <ele>475.00</ele>
   <time>2014-04-07T10:29:49Z</time>
  </trkpt>
  <trkpt lat="34.227009" lon="-3.981787">
   <ele>475.00</ele>
   <time>2014-04-07T10:29:51Z</time>
  </trkpt>
  <trkpt lat="34.227070" lon="-3.982055">
   <ele>474.00</ele>
   <time>2014-04-07T10:29:53Z</time>
  </trkpt>
  <trkpt lat="34.227107" lon="-3.982327">
   <ele>475.00</ele>
   <time>2014-04-07T10:29:55Z</time>
  </trkpt>
  <trkpt lat="34.227122" lon="-3.982599">
   <ele>475.00</ele>
   <time>2014-04-07T10:29:57Z</time>
  </trkpt>
  <trkpt lat="34.227120" lon="-3.982866">
   <ele>475.00</ele>
   <time>2014-04-07T10:29:59Z</time>
  </trkpt>
  <trkpt lat="34.227096" lon="-3.983130">
   <ele>475.00</ele>
   <time>2014-04-07T10:30:01Z</time>
  </trkpt>
  <trkpt lat="34.226841" lon="-3.985154">
   <ele>481.00</ele>
   <time>2014-04-07T10:30:16Z</time>
  </trkpt>
  <trkpt lat="34.226807" lon="-3.985536">
   <ele>482.00</ele>
   <time>2014-04-07T10:30:19Z</time>
  </trkpt>
  <trkpt lat="34.226790" lon="-3.985860">
   <ele>483.00</ele>
   <time>2014-04-07T10:30:22Z</time>
  </trkpt>
  <trkpt lat="34.226815" lon="-3.986080">
   <ele>483.00</ele>
   <time>2014-04-07T10:30:25Z</time>
  </trkpt>
  <trkpt lat="34.226881" lon="-3.986324">
   <ele>483.00</ele>
   <time>2014-04-07T10:30:32Z</time>
  </trkpt>
  <trkpt lat="34.226855" lon="-3.986540">
   <ele>484.00</ele>
   <time>2014-04-07T10:30:36Z</time>
  </trkpt>
  <trkpt lat="34.226829" lon="-3.986810">
   <ele>484.00</ele>
   <time>2014-04-07T10:30:40Z</time>
  </trkpt>
  <trkpt lat="34.226858" lon="-3.987064">
   <ele>484.00</ele>
   <time>2014-04-07T10:30:43Z</time>
  </trkpt>
  <trkpt lat="34.227179" lon="-3.988875">
   <ele>482.00</ele>
   <time>2014-04-07T10:30:59Z</time>
  </trkpt>
  <trkpt lat="34.227534" lon="-3.990869">
   <ele>478.00</ele>
   <time>2014-04-07T10:31:15Z</time>
  </trkpt>
  <trkpt lat="34.227711" lon="-3.991869">
   <ele>475.00</ele>
   <time>2014-04-07T10:31:24Z</time>
  </trkpt>
  <trkpt lat="34.227782" lon="-3.992158">
   <ele>475.00</ele>
   <time>2014-04-07T10:31:27Z</time>
  </trkpt>
  <trkpt lat="34.227847" lon="-3.992368">
   <ele>474.00</ele>
   <time>2014-04-07T10:31:30Z</time>
  </trkpt>
  <trkpt lat="34.227948" lon="-3.992614">
   <ele>472.00</ele>
   <time>2014-04-07T10:31:34Z</time>
  </trkpt>
  <trkpt lat="34.228075" lon="-3.992853">
   <ele>471.00</ele>
   <time>2014-04-07T10:31:38Z</time>
  </trkpt>
  <trkpt lat="34.228206" lon="-3.993087">
   <ele>470.00</ele>
   <time>2014-04-07T10:31:42Z</time>
  </trkpt>
  <trkpt lat="34.228409" lon="-3.993410">
   <ele>468.00</ele>
   <time>2014-04-07T10:31:50Z</time>
  </trkpt>
  <trkpt lat="34.228550" lon="-3.993600">
   <ele>467.00</ele>
   <time>2014-04-07T10:31:54Z</time>
  </trkpt>
  <trkpt lat="34.228693" lon="-3.993791">
   <ele>467.00</ele>
   <time>2014-04-07T10:31:58Z</time>
  </trkpt>
  <trkpt lat="34.228848" lon="-3.993996">
   <ele>466.00</ele>
   <time>2014-04-07T10:32:02Z</time>
  </trkpt>
  <trkpt lat="34.229048" lon="-3.994271">
   <ele>466.00</ele>
   <time>2014-04-07T10:32:07Z</time>
  </trkpt>
  <trkpt lat="34.229245" lon="-3.994542">
   <ele>466.00</ele>
   <time>2014-04-07T10:32:12Z</time>
  </trkpt>
  <trkpt lat="34.229568" lon="-3.994982">
   <ele>464.00</ele>
   <time>2014-04-07T10:32:20Z</time>
  </trkpt>
  <trkpt lat="34.229725" lon="-3.995166">
   <ele>463.00</ele>
   <time>2014-04-07T10:32:24Z</time>
  </trkpt>
  <trkpt lat="34.229881" lon="-3.995300">
   <ele>461.00</ele>
   <time>2014-04-07T10:32:32Z</time>
  </trkpt>
  <trkpt lat="34.230002" lon="-3.995470">
   <ele>460.00</ele>
   <time>2014-04-07T10:32:36Z</time>
  </trkpt>
  <trkpt lat="34.230101" lon="-3.995797">
   <ele>459.00</ele>
   <time>2014-04-07T10:32:40Z</time>
  </trkpt>
  <trkpt lat="34.230285" lon="-3.996237">
   <ele>459.00</ele>
   <time>2014-04-07T10:32:45Z</time>
  </trkpt>
  <trkpt lat="34.230358" lon="-3.996445">
   <ele>458.00</ele>
   <time>2014-04-07T10:32:47Z</time>
  </trkpt>
  <trkpt lat="34.230422" lon="-3.996654">
   <ele>458.00</ele>
   <time>2014-04-07T10:32:49Z</time>
  </trkpt>
  <trkpt lat="34.230484" lon="-3.996948">
   <ele>458.00</ele>
   <time>2014-04-07T10:32:52Z</time>
  </trkpt>
  <trkpt lat="34.230590" lon="-3.997618">
   <ele>458.00</ele>
   <time>2014-04-07T10:33:02Z</time>
  </trkpt>
  <trkpt lat="34.230627" lon="-3.997836">
   <ele>459.00</ele>
   <time>2014-04-07T10:33:07Z</time>
  </trkpt>
  <trkpt lat="34.230666" lon="-3.998068">
   <ele>458.00</ele>
   <time>2014-04-07T10:33:17Z</time>
  </trkpt>
  <trkpt lat="34.230718" lon="-3.998297">
   <ele>456.00</ele>
   <time>2014-04-07T10:33:28Z</time>
  </trkpt>
  <trkpt lat="34.230787" lon="-3.998519">
   <ele>456.00</ele>
   <time>2014-04-07T10:33:37Z</time>
  </trkpt>
  <trkpt lat="34.230867" lon="-3.998738">
   <ele>456.00</ele>
   <time>2014-04-07T10:33:43Z</time>
  </trkpt>
  <trkpt lat="34.230951" lon="-3.998946">
   <ele>456.00</ele>
   <time>2014-04-07T10:33:47Z</time>
  </trkpt>
  <trkpt lat="34.231072" lon="-3.999181">
   <ele>456.00</ele>
   <time>2014-04-07T10:33:52Z</time>
  </trkpt>
  <trkpt lat="34.231238" lon="-3.999449">
   <ele>456.00</ele>
   <time>2014-04-07T10:34:02Z</time>
  </trkpt>
  <trkpt lat="34.232004" lon="-4.000634">
   <ele>457.00</ele>
   <time>2014-04-07T10:34:17Z</time>
  </trkpt>
  <trkpt lat="34.232129" lon="-4.000895">
   <ele>458.00</ele>
   <time>2014-04-07T10:34:20Z</time>
  </trkpt>
  <trkpt lat="34.232209" lon="-4.001170">
   <ele>458.00</ele>
   <time>2014-04-07T10:34:23Z</time>
  </trkpt>
  <trkpt lat="34.232252" lon="-4.001450">
   <ele>457.00</ele>
   <time>2014-04-07T10:34:26Z</time>
  </trkpt>
  <trkpt lat="34.232267" lon="-4.001771">
   <ele>457.00</ele>
   <time>2014-04-07T10:34:29Z</time>
  </trkpt>
  <trkpt lat="34.232283" lon="-4.003714">
   <ele>455.00</ele>
   <time>2014-04-07T10:34:44Z</time>
  </trkpt>
  <trkpt lat="34.232284" lon="-4.004977">
   <ele>453.00</ele>
   <time>2014-04-07T10:34:54Z</time>
  </trkpt>
  <trkpt lat="34.232262" lon="-4.005239">
   <ele>453.00</ele>
   <time>2014-04-07T10:34:56Z</time>
  </trkpt>
  <trkpt lat="34.232214" lon="-4.005499">
   <ele>453.00</ele>
   <time>2014-04-07T10:34:58Z</time>
  </trkpt>
  <trkpt lat="34.232151" lon="-4.005747">
   <ele>453.00</ele>
   <time>2014-04-07T10:35:00Z</time>
  </trkpt>
  <trkpt lat="34.231753" lon="-4.007068">
   <ele>454.00</ele>
   <time>2014-04-07T10:35:15Z</time>
  </trkpt>
  <trkpt lat="34.231634" lon="-4.007475">
   <ele>455.00</ele>
   <time>2014-04-07T10:35:21Z</time>
  </trkpt>
  <trkpt lat="34.231586" lon="-4.007722">
   <ele>455.00</ele>
   <time>2014-04-07T10:35:24Z</time>
  </trkpt>
  <trkpt lat="34.231520" lon="-4.008091">
   <ele>455.00</ele>
   <time>2014-04-07T10:35:29Z</time>
  </trkpt>
  <trkpt lat="34.231440" lon="-4.008316">
   <ele>455.00</ele>
   <time>2014-04-07T10:35:32Z</time>
  </trkpt>
  <trkpt lat="34.231343" lon="-4.008532">
   <ele>455.00</ele>
   <time>2014-04-07T10:35:35Z</time>
  </trkpt>
  <trkpt lat="34.231225" lon="-4.008828">
   <ele>455.00</ele>
   <time>2014-04-07T10:35:39Z</time>
  </trkpt>
  <trkpt lat="34.231151" lon="-4.009072">
   <ele>454.00</ele>
   <time>2014-04-07T10:35:42Z</time>
  </trkpt>
  <trkpt lat="34.231081" lon="-4.009342">
   <ele>454.00</ele>
   <time>2014-04-07T10:35:45Z</time>
  </trkpt>
  <trkpt lat="34.231023" lon="-4.009615">
   <ele>454.00</ele>
   <time>2014-04-07T10:35:48Z</time>
  </trkpt>
  <trkpt lat="34.230995" lon="-4.009868">
   <ele>453.00</ele>
   <time>2014-04-07T10:35:51Z</time>
  </trkpt>
  <trkpt lat="34.230994" lon="-4.010130">
   <ele>453.00</ele>
   <time>2014-04-07T10:35:55Z</time>
  </trkpt>
  <trkpt lat="34.231010" lon="-4.010368">
   <ele>453.00</ele>
   <time>2014-04-07T10:35:59Z</time>
  </trkpt>
  <trkpt lat="34.231043" lon="-4.010601">
   <ele>453.00</ele>
   <time>2014-04-07T10:36:04Z</time>
  </trkpt>
  <trkpt lat="34.231088" lon="-4.010852">
   <ele>453.00</ele>
   <time>2014-04-07T10:36:09Z</time>
  </trkpt>
  <trkpt lat="34.231179" lon="-4.011143">
   <ele>454.00</ele>
   <time>2014-04-07T10:36:14Z</time>
  </trkpt>
  <trkpt lat="34.231223" lon="-4.011360">
   <ele>453.00</ele>
   <time>2014-04-07T10:36:17Z</time>
  </trkpt>
  <trkpt lat="34.231504" lon="-4.012707">
   <ele>448.00</ele>
   <time>2014-04-07T10:36:32Z</time>
  </trkpt>
  <trkpt lat="34.231588" lon="-4.013087">
   <ele>447.00</ele>
   <time>2014-04-07T10:36:36Z</time>
  </trkpt>
  <trkpt lat="34.231980" lon="-4.014823">
   <ele>445.00</ele>
   <time>2014-04-07T10:36:51Z</time>
  </trkpt>
  <trkpt lat="34.232300" lon="-4.016281">
   <ele>446.00</ele>
   <time>2014-04-07T10:37:07Z</time>
  </trkpt>
  <trkpt lat="34.232463" lon="-4.016966">
   <ele>444.00</ele>
   <time>2014-04-07T10:37:16Z</time>
  </trkpt>
  <trkpt lat="34.232522" lon="-4.017185">
   <ele>444.00</ele>
   <time>2014-04-07T10:37:27Z</time>
  </trkpt>
  <trkpt lat="34.232839" lon="-4.018644">
   <ele>442.00</ele>
   <time>2014-04-07T10:37:42Z</time>
  </trkpt>
  <trkpt lat="34.233135" lon="-4.019873">
   <ele>442.00</ele>
   <time>2014-04-07T10:37:52Z</time>
  </trkpt>
  <trkpt lat="34.233278" lon="-4.020367">
   <ele>441.00</ele>
   <time>2014-04-07T10:37:56Z</time>
  </trkpt>
  <trkpt lat="34.233563" lon="-4.021236">
   <ele>440.00</ele>
   <time>2014-04-07T10:38:03Z</time>
  </trkpt>
  <trkpt lat="34.233830" lon="-4.022009">
   <ele>439.00</ele>
   <time>2014-04-07T10:38:09Z</time>
  </trkpt>
  <trkpt lat="34.233908" lon="-4.022296">
   <ele>438.00</ele>
   <time>2014-04-07T10:38:11Z</time>
  </trkpt>
  <trkpt lat="34.233963" lon="-4.022610">
   <ele>437.00</ele>
   <time>2014-04-07T10:38:13Z</time>
  </trkpt>
  <trkpt lat="34.233980" lon="-4.022944">
   <ele>435.00</ele>
   <time>2014-04-07T10:38:15Z</time>
  </trkpt>
  <trkpt lat="34.233971" lon="-4.023296">
   <ele>434.00</ele>
   <time>2014-04-07T10:38:17Z</time>
  </trkpt>
  <trkpt lat="34.233872" lon="-4.024603">
   <ele>435.00</ele>
   <time>2014-04-07T10:38:24Z</time>
  </trkpt>
  <trkpt lat="34.233814" lon="-4.024972">
   <ele>436.00</ele>
   <time>2014-04-07T10:38:26Z</time>
  </trkpt>
  <trkpt lat="34.233700" lon="-4.025320">
   <ele>437.00</ele>
   <time>2014-04-07T10:38:28Z</time>
  </trkpt>
  <trkpt lat="34.233533" lon="-4.025621">
   <ele>437.00</ele>
   <time>2014-04-07T10:38:30Z</time>
  </trkpt>
  <trkpt lat="34.233335" lon="-4.025877">
   <ele>438.00</ele>
   <time>2014-04-07T10:38:32Z</time>
  </trkpt>
  <trkpt lat="34.233143" lon="-4.026124">
   <ele>438.00</ele>
   <time>2014-04-07T10:38:34Z</time>
  </trkpt>
  <trkpt lat="34.232970" lon="-4.026392">
   <ele>437.00</ele>
   <time>2014-04-07T10:38:36Z</time>
  </trkpt>
  <trkpt lat="34.232837" lon="-4.026695">
   <ele>437.00</ele>
   <time>2014-04-07T10:38:38Z</time>
  </trkpt>
  <trkpt lat="34.232738" lon="-4.027019">
   <ele>437.00</ele>
   <time>2014-04-07T10:38:40Z</time>
  </trkpt>
  <trkpt lat="34.232666" lon="-4.027351">
   <ele>437.00</ele>
   <time>2014-04-07T10:38:42Z</time>
  </trkpt>
  <trkpt lat="34.232615" lon="-4.027683">
   <ele>437.00</ele>
   <time>2014-04-07T10:38:44Z</time>
  </trkpt>
  <trkpt lat="34.232317" lon="-4.029848">
   <ele>436.00</ele>
   <time>2014-04-07T10:38:59Z</time>
  </trkpt>
  <trkpt lat="34.232071" lon="-4.031669">
   <ele>436.00</ele>
   <time>2014-04-07T10:39:15Z</time>
  </trkpt>
  <trkpt lat="34.232078" lon="-4.031913">
   <ele>435.00</ele>
   <time>2014-04-07T10:39:18Z</time>
  </trkpt>
  <trkpt lat="34.232087" lon="-4.032177">
   <ele>435.00</ele>
   <time>2014-04-07T10:39:23Z</time>
  </trkpt>
  <trkpt lat="34.232004" lon="-4.032382">
   <ele>435.00</ele>
   <time>2014-04-07T10:39:26Z</time>
  </trkpt>
  <trkpt lat="34.231948" lon="-4.032665">
   <ele>434.00</ele>
   <time>2014-04-07T10:39:29Z</time>
  </trkpt>
  <trkpt lat="34.231664" lon="-4.034750">
   <ele>433.00</ele>
   <time>2014-04-07T10:39:43Z</time>
  </trkpt>
  <trkpt lat="34.231642" lon="-4.035089">
   <ele>433.00</ele>
   <time>2014-04-07T10:39:45Z</time>
  </trkpt>
  <trkpt lat="34.231642" lon="-4.035439">
   <ele>433.00</ele>
   <time>2014-04-07T10:39:47Z</time>
  </trkpt>
  <trkpt lat="34.231662" lon="-4.035792">
   <ele>433.00</ele>
   <time>2014-04-07T10:39:49Z</time>
  </trkpt>
  <trkpt lat="34.231706" lon="-4.036146">
   <ele>432.00</ele>
   <time>2014-04-07T10:39:51Z</time>
  </trkpt>
  <trkpt lat="34.231774" lon="-4.036517">
   <ele>432.00</ele>
   <time>2014-04-07T10:39:53Z</time>
  </trkpt>
  <trkpt lat="34.232339" lon="-4.039442">
   <ele>431.00</ele>
   <time>2014-04-07T10:40:08Z</time>
  </trkpt>
  <trkpt lat="34.232393" lon="-4.039845">
   <ele>431.00</ele>
   <time>2014-04-07T10:40:10Z</time>
  </trkpt>
  <trkpt lat="34.232429" lon="-4.040258">
   <ele>430.00</ele>
   <time>2014-04-07T10:40:12Z</time>
  </trkpt>
  <trkpt lat="34.232446" lon="-4.040677">
   <ele>429.00</ele>
   <time>2014-04-07T10:40:14Z</time>
  </trkpt>
  <trkpt lat="34.232439" lon="-4.041096">
   <ele>428.00</ele>
   <time>2014-04-07T10:40:16Z</time>
  </trkpt>
  <trkpt lat="34.232416" lon="-4.041506">
   <ele>427.00</ele>
   <time>2014-04-07T10:40:18Z</time>
  </trkpt>
  <trkpt lat="34.232225" lon="-4.043637">
   <ele>422.00</ele>
   <time>2014-04-07T10:40:31Z</time>
  </trkpt>
  <trkpt lat="34.232221" lon="-4.043951">
   <ele>422.00</ele>
   <time>2014-04-07T10:40:34Z</time>
  </trkpt>
  <trkpt lat="34.232235" lon="-4.044172">
   <ele>422.00</ele>
   <time>2014-04-07T10:40:37Z</time>
  </trkpt>
  <trkpt lat="34.232272" lon="-4.044395">
   <ele>422.00</ele>
   <time>2014-04-07T10:40:41Z</time>
  </trkpt>
  <trkpt lat="34.232343" lon="-4.044732">
   <ele>422.00</ele>
   <time>2014-04-07T10:40:44Z</time>
  </trkpt>
  <trkpt lat="34.232422" lon="-4.045165">
   <ele>422.00</ele>
   <time>2014-04-07T10:40:47Z</time>
  </trkpt>
  <trkpt lat="34.232541" lon="-4.045502">
   <ele>422.00</ele>
   <time>2014-04-07T10:40:49Z</time>
  </trkpt>
  <trkpt lat="34.232702" lon="-4.045844">
   <ele>421.00</ele>
   <time>2014-04-07T10:40:51Z</time>
  </trkpt>
  <trkpt lat="34.232894" lon="-4.046165">
   <ele>421.00</ele>
   <time>2014-04-07T10:40:53Z</time>
  </trkpt>
  <trkpt lat="34.233111" lon="-4.046459">
   <ele>421.00</ele>
   <time>2014-04-07T10:40:55Z</time>
  </trkpt>
  <trkpt lat="34.233346" lon="-4.046738">
   <ele>422.00</ele>
   <time>2014-04-07T10:40:57Z</time>
  </trkpt>
  <trkpt lat="34.233814" lon="-4.047277">
   <ele>423.00</ele>
   <time>2014-04-07T10:41:01Z</time>
  </trkpt>
  <trkpt lat="34.234020" lon="-4.047565">
   <ele>424.00</ele>
   <time>2014-04-07T10:41:03Z</time>
  </trkpt>
  <trkpt lat="34.234196" lon="-4.047877">
   <ele>424.00</ele>
   <time>2014-04-07T10:41:05Z</time>
  </trkpt>
  <trkpt lat="34.234329" lon="-4.048218">
   <ele>424.00</ele>
   <time>2014-04-07T10:41:07Z</time>
  </trkpt>
  <trkpt lat="34.234432" lon="-4.048596">
   <ele>424.00</ele>
   <time>2014-04-07T10:41:09Z</time>
  </trkpt>
  <trkpt lat="34.234507" lon="-4.049001">
   <ele>424.00</ele>
   <time>2014-04-07T10:41:11Z</time>
  </trkpt>
  <trkpt lat="34.234538" lon="-4.049422">
   <ele>423.00</ele>
   <time>2014-04-07T10:41:13Z</time>
  </trkpt>
  <trkpt lat="34.234524" lon="-4.049853">
   <ele>422.00</ele>
   <time>2014-04-07T10:41:15Z</time>
  </trkpt>
  <trkpt lat="34.234498" lon="-4.050070">
   <ele>422.00</ele>
   <time>2014-04-07T10:41:16Z</time>
  </trkpt>
  <trkpt lat="34.234461" lon="-4.050288">
   <ele>421.00</ele>
   <time>2014-04-07T10:41:17Z</time>
  </trkpt>
  <trkpt lat="34.234254" lon="-4.051397">
   <ele>420.00</ele>
   <time>2014-04-07T10:41:22Z</time>
  </trkpt>
  <trkpt lat="34.234224" lon="-4.051624">
   <ele>420.00</ele>
   <time>2014-04-07T10:41:23Z</time>
  </trkpt>
  <trkpt lat="34.234204" lon="-4.051854">
   <ele>420.00</ele>
   <time>2014-04-07T10:41:24Z</time>
  </trkpt>
  <trkpt lat="34.234194" lon="-4.052085">
   <ele>420.00</ele>
   <time>2014-04-07T10:41:25Z</time>
  </trkpt>
  <trkpt lat="34.234195" lon="-4.052315">
   <ele>420.00</ele>
   <time>2014-04-07T10:41:26Z</time>
  </trkpt>
  <trkpt lat="34.234215" lon="-4.052772">
   <ele>419.00</ele>
   <time>2014-04-07T10:41:28Z</time>
  </trkpt>
  <trkpt lat="34.234429" lon="-4.056181">
   <ele>416.00</ele>
   <time>2014-04-07T10:41:43Z</time>
  </trkpt>
  <trkpt lat="34.234394" lon="-4.056607">
   <ele>417.00</ele>
   <time>2014-04-07T10:41:45Z</time>
  </trkpt>
  <trkpt lat="34.234302" lon="-4.057018">
   <ele>417.00</ele>
   <time>2014-04-07T10:41:47Z</time>
  </trkpt>
  <trkpt lat="34.234217" lon="-4.057425">
   <ele>417.00</ele>
   <time>2014-04-07T10:41:49Z</time>
  </trkpt>
  <trkpt lat="34.234188" lon="-4.057835">
   <ele>417.00</ele>
   <time>2014-04-07T10:41:51Z</time>
  </trkpt>
  <trkpt lat="34.234208" lon="-4.058238">
   <ele>417.00</ele>
   <time>2014-04-07T10:41:53Z</time>
  </trkpt>
  <trkpt lat="34.234218" lon="-4.058639">
   <ele>416.00</ele>
   <time>2014-04-07T10:41:55Z</time>
  </trkpt>
  <trkpt lat="34.234167" lon="-4.059038">
   <ele>415.00</ele>
   <time>2014-04-07T10:41:57Z</time>
  </trkpt>
  <trkpt lat="34.234069" lon="-4.059426">
   <ele>415.00</ele>
   <time>2014-04-07T10:41:59Z</time>
  </trkpt>
  <trkpt lat="34.233942" lon="-4.059786">
   <ele>414.00</ele>
   <time>2014-04-07T10:42:01Z</time>
  </trkpt>
  <trkpt lat="34.233793" lon="-4.060110">
   <ele>414.00</ele>
   <time>2014-04-07T10:42:03Z</time>
  </trkpt>
  <trkpt lat="34.233506" lon="-4.060691">
   <ele>412.00</ele>
   <time>2014-04-07T10:42:07Z</time>
  </trkpt>
  <trkpt lat="34.233416" lon="-4.060960">
   <ele>412.00</ele>
   <time>2014-04-07T10:42:09Z</time>
  </trkpt>
  <trkpt lat="34.233364" lon="-4.061221">
   <ele>411.00</ele>
   <time>2014-04-07T10:42:11Z</time>
  </trkpt>
  <trkpt lat="34.233335" lon="-4.061457">
   <ele>411.00</ele>
   <time>2014-04-07T10:42:13Z</time>
  </trkpt>
  <trkpt lat="34.233322" lon="-4.061734">
   <ele>411.00</ele>
   <time>2014-04-07T10:42:16Z</time>
  </trkpt>
  <trkpt lat="34.233292" lon="-4.062692">
   <ele>412.00</ele>
   <time>2014-04-07T10:42:31Z</time>
  </trkpt>
  <trkpt lat="34.233289" lon="-4.063202">
   <ele>412.00</ele>
   <time>2014-04-07T10:42:41Z</time>
  </trkpt>
  <trkpt lat="34.233307" lon="-4.063818">
   <ele>412.00</ele>
   <time>2014-04-07T10:42:51Z</time>
  </trkpt>
  <trkpt lat="34.233349" lon="-4.065354">
   <ele>412.00</ele>
   <time>2014-04-07T10:43:06Z</time>
  </trkpt>
  <trkpt lat="34.233389" lon="-4.067002">
   <ele>411.00</ele>
   <time>2014-04-07T10:43:17Z</time>
  </trkpt>
  <trkpt lat="34.233380" lon="-4.067829">
   <ele>411.00</ele>
   <time>2014-04-07T10:43:22Z</time>
  </trkpt>
  <trkpt lat="34.233350" lon="-4.068179">
   <ele>411.00</ele>
   <time>2014-04-07T10:43:24Z</time>
  </trkpt>
  <trkpt lat="34.233293" lon="-4.068542">
   <ele>411.00</ele>
   <time>2014-04-07T10:43:26Z</time>
  </trkpt>
  <trkpt lat="34.233210" lon="-4.068911">
   <ele>411.00</ele>
   <time>2014-04-07T10:43:28Z</time>
  </trkpt>
  <trkpt lat="34.233109" lon="-4.069268">
   <ele>412.00</ele>
   <time>2014-04-07T10:43:30Z</time>
  </trkpt>
  <trkpt lat="34.232995" lon="-4.069603">
   <ele>412.00</ele>
   <time>2014-04-07T10:43:32Z</time>
  </trkpt>
  <trkpt lat="34.232866" lon="-4.069917">
   <ele>412.00</ele>
   <time>2014-04-07T10:43:34Z</time>
  </trkpt>
  <trkpt lat="34.232724" lon="-4.070213">
   <ele>412.00</ele>
   <time>2014-04-07T10:43:36Z</time>
  </trkpt>
  <trkpt lat="34.232571" lon="-4.070497">
   <ele>412.00</ele>
   <time>2014-04-07T10:43:38Z</time>
  </trkpt>
  <trkpt lat="34.232411" lon="-4.070761">
   <ele>412.00</ele>
   <time>2014-04-07T10:43:40Z</time>
  </trkpt>
  <trkpt lat="34.232242" lon="-4.071005">
   <ele>412.00</ele>
   <time>2014-04-07T10:43:42Z</time>
  </trkpt>
  <trkpt lat="34.232062" lon="-4.071235">
   <ele>412.00</ele>
   <time>2014-04-07T10:43:44Z</time>
  </trkpt>
  <trkpt lat="34.231584" lon="-4.071801">
   <ele>412.00</ele>
   <time>2014-04-07T10:43:49Z</time>
  </trkpt>
  <trkpt lat="34.230675" lon="-4.072831">
   <ele>411.00</ele>
   <time>2014-04-07T10:43:58Z</time>
  </trkpt>
  <trkpt lat="34.230458" lon="-4.073048">
   <ele>411.00</ele>
   <time>2014-04-07T10:44:00Z</time>
  </trkpt>
  <trkpt lat="34.230230" lon="-4.073249">
   <ele>411.00</ele>
   <time>2014-04-07T10:44:02Z</time>
  </trkpt>
  <trkpt lat="34.228540" lon="-4.074577">
   <ele>412.00</ele>
   <time>2014-04-07T10:44:18Z</time>
  </trkpt>
  <trkpt lat="34.227863" lon="-4.075105">
   <ele>413.00</ele>
   <time>2014-04-07T10:44:25Z</time>
  </trkpt>
  <trkpt lat="34.227665" lon="-4.075295">
   <ele>412.00</ele>
   <time>2014-04-07T10:44:27Z</time>
  </trkpt>
  <trkpt lat="34.227463" lon="-4.075519">
   <ele>411.00</ele>
   <time>2014-04-07T10:44:29Z</time>
  </trkpt>
  <trkpt lat="34.226809" lon="-4.076313">
   <ele>410.00</ele>
   <time>2014-04-07T10:44:35Z</time>
  </trkpt>
  <trkpt lat="34.226582" lon="-4.076611">
   <ele>409.00</ele>
   <time>2014-04-07T10:44:37Z</time>
  </trkpt>
  <trkpt lat="34.226369" lon="-4.076928">
   <ele>409.00</ele>
   <time>2014-04-07T10:44:39Z</time>
  </trkpt>
  <trkpt lat="34.226176" lon="-4.077253">
   <ele>408.00</ele>
   <time>2014-04-07T10:44:41Z</time>
  </trkpt>
  <trkpt lat="34.226006" lon="-4.077586">
   <ele>408.00</ele>
   <time>2014-04-07T10:44:43Z</time>
  </trkpt>
  <trkpt lat="34.225860" lon="-4.077935">
   <ele>408.00</ele>
   <time>2014-04-07T10:44:45Z</time>
  </trkpt>
  <trkpt lat="34.225095" lon="-4.080034">
   <ele>406.00</ele>
   <time>2014-04-07T10:44:56Z</time>
  </trkpt>
  <trkpt lat="34.224976" lon="-4.080430">
   <ele>405.00</ele>
   <time>2014-04-07T10:44:58Z</time>
  </trkpt>
  <trkpt lat="34.224888" lon="-4.080840">
   <ele>404.00</ele>
   <time>2014-04-07T10:45:00Z</time>
  </trkpt>
  <trkpt lat="34.224844" lon="-4.081263">
   <ele>404.00</ele>
   <time>2014-04-07T10:45:02Z</time>
  </trkpt>
  <trkpt lat="34.224828" lon="-4.081695">
   <ele>404.00</ele>
   <time>2014-04-07T10:45:04Z</time>
  </trkpt>
  <trkpt lat="34.224763" lon="-4.083234">
   <ele>405.00</ele>
   <time>2014-04-07T10:45:11Z</time>
  </trkpt>
  <trkpt lat="34.224737" lon="-4.083452">
   <ele>405.00</ele>
   <time>2014-04-07T10:45:12Z</time>
  </trkpt>
  <trkpt lat="34.224700" lon="-4.083668">
   <ele>405.00</ele>
   <time>2014-04-07T10:45:13Z</time>
  </trkpt>
  <trkpt lat="34.224649" lon="-4.083883">
   <ele>405.00</ele>
   <time>2014-04-07T10:45:14Z</time>
  </trkpt>
  <trkpt lat="34.224583" lon="-4.084093">
   <ele>406.00</ele>
   <time>2014-04-07T10:45:15Z</time>
  </trkpt>
  <trkpt lat="34.224504" lon="-4.084300">
   <ele>406.00</ele>
   <time>2014-04-07T10:45:16Z</time>
  </trkpt>
  <trkpt lat="34.224414" lon="-4.084506">
   <ele>406.00</ele>
   <time>2014-04-07T10:45:17Z</time>
  </trkpt>
  <trkpt lat="34.224213" lon="-4.084920">
   <ele>406.00</ele>
   <time>2014-04-07T10:45:19Z</time>
  </trkpt>
  <trkpt lat="34.222646" lon="-4.088007">
   <ele>409.00</ele>
   <time>2014-04-07T10:45:34Z</time>
  </trkpt>
  <trkpt lat="34.221007" lon="-4.091215">
   <ele>410.00</ele>
   <time>2014-04-07T10:45:49Z</time>
  </trkpt>
  <trkpt lat="34.220596" lon="-4.092061">
   <ele>410.00</ele>
   <time>2014-04-07T10:45:53Z</time>
  </trkpt>
  <trkpt lat="34.220505" lon="-4.092278">
   <ele>409.00</ele>
   <time>2014-04-07T10:45:54Z</time>
  </trkpt>
  <trkpt lat="34.220424" lon="-4.092504">
   <ele>409.00</ele>
   <time>2014-04-07T10:45:55Z</time>
  </trkpt>
  <trkpt lat="34.220362" lon="-4.092736">
   <ele>409.00</ele>
   <time>2014-04-07T10:45:56Z</time>
  </trkpt>
  <trkpt lat="34.220314" lon="-4.092975">
   <ele>408.00</ele>
   <time>2014-04-07T10:45:57Z</time>
  </trkpt>
  <trkpt lat="34.220280" lon="-4.093218">
   <ele>408.00</ele>
   <time>2014-04-07T10:45:58Z</time>
  </trkpt>
  <trkpt lat="34.220255" lon="-4.093465">
   <ele>407.00</ele>
   <time>2014-04-07T10:45:59Z</time>
  </trkpt>
  <trkpt lat="34.220227" lon="-4.093965">
   <ele>406.00</ele>
   <time>2014-04-07T10:46:01Z</time>
  </trkpt>
  <trkpt lat="34.220128" lon="-4.096648">
   <ele>400.00</ele>
   <time>2014-04-07T10:46:12Z</time>
  </trkpt>
  <trkpt lat="34.220094" lon="-4.096881">
   <ele>399.00</ele>
   <time>2014-04-07T10:46:13Z</time>
  </trkpt>
  <trkpt lat="34.220047" lon="-4.097112">
   <ele>399.00</ele>
   <time>2014-04-07T10:46:14Z</time>
  </trkpt>
  <trkpt lat="34.219987" lon="-4.097338">
   <ele>398.00</ele>
   <time>2014-04-07T10:46:15Z</time>
  </trkpt>
  <trkpt lat="34.219913" lon="-4.097558">
   <ele>398.00</ele>
   <time>2014-04-07T10:46:16Z</time>
  </trkpt>
  <trkpt lat="34.219831" lon="-4.097771">
   <ele>398.00</ele>
   <time>2014-04-07T10:46:17Z</time>
  </trkpt>
  <trkpt lat="34.219229" lon="-4.099220">
   <ele>397.00</ele>
   <time>2014-04-07T10:46:24Z</time>
  </trkpt>
  <trkpt lat="34.219161" lon="-4.099441">
   <ele>397.00</ele>
   <time>2014-04-07T10:46:25Z</time>
  </trkpt>
  <trkpt lat="34.219103" lon="-4.099664">
   <ele>397.00</ele>
   <time>2014-04-07T10:46:26Z</time>
  </trkpt>
  <trkpt lat="34.218643" lon="-4.101570">
   <ele>396.00</ele>
   <time>2014-04-07T10:46:35Z</time>
  </trkpt>
  <trkpt lat="34.218527" lon="-4.101913">
   <ele>396.00</ele>
   <time>2014-04-07T10:46:37Z</time>
  </trkpt>
  <trkpt lat="34.218406" lon="-4.102216">
   <ele>397.00</ele>
   <time>2014-04-07T10:46:39Z</time>
  </trkpt>
  <trkpt lat="34.217806" lon="-4.103682">
   <ele>400.00</ele>
   <time>2014-04-07T10:46:52Z</time>
  </trkpt>
  <trkpt lat="34.217680" lon="-4.104000">
   <ele>400.00</ele>
   <time>2014-04-07T10:46:55Z</time>
  </trkpt>
  <trkpt lat="34.217604" lon="-4.104246">
   <ele>399.00</ele>
   <time>2014-04-07T10:46:57Z</time>
  </trkpt>
  <trkpt lat="34.217550" lon="-4.104510">
   <ele>398.00</ele>
   <time>2014-04-07T10:46:59Z</time>
  </trkpt>
  <trkpt lat="34.217518" lon="-4.104796">
   <ele>397.00</ele>
   <time>2014-04-07T10:47:01Z</time>
  </trkpt>
  <trkpt lat="34.217503" lon="-4.105108">
   <ele>397.00</ele>
   <time>2014-04-07T10:47:03Z</time>
  </trkpt>
  <trkpt lat="34.217492" lon="-4.106244">
   <ele>395.00</ele>
   <time>2014-04-07T10:47:10Z</time>
  </trkpt>
  <trkpt lat="34.217474" lon="-4.109179">
   <ele>395.00</ele>
   <time>2014-04-07T10:47:26Z</time>
  </trkpt>
  <trkpt lat="34.217457" lon="-4.110652">
   <ele>396.00</ele>
   <time>2014-04-07T10:47:34Z</time>
  </trkpt>
  <trkpt lat="34.217433" lon="-4.111016">
   <ele>396.00</ele>
   <time>2014-04-07T10:47:36Z</time>
  </trkpt>
  <trkpt lat="34.217379" lon="-4.111373">
   <ele>395.00</ele>
   <time>2014-04-07T10:47:38Z</time>
  </trkpt>
  <trkpt lat="34.217297" lon="-4.111704">
   <ele>395.00</ele>
   <time>2014-04-07T10:47:40Z</time>
  </trkpt>
  <trkpt lat="34.217192" lon="-4.112002">
   <ele>396.00</ele>
   <time>2014-04-07T10:47:42Z</time>
  </trkpt>
  <trkpt lat="34.217070" lon="-4.112266">
   <ele>396.00</ele>
   <time>2014-04-07T10:47:44Z</time>
  </trkpt>
  <trkpt lat="34.216944" lon="-4.112488">
   <ele>397.00</ele>
   <time>2014-04-07T10:47:46Z</time>
  </trkpt>
  <trkpt lat="34.216823" lon="-4.112671">
   <ele>397.00</ele>
   <time>2014-04-07T10:47:48Z</time>
  </trkpt>
  <trkpt lat="34.216269" lon="-4.113419">
   <ele>398.00</ele>
   <time>2014-04-07T10:47:59Z</time>
  </trkpt>
  <trkpt lat="34.215802" lon="-4.114038">
   <ele>399.00</ele>
   <time>2014-04-07T10:48:06Z</time>
  </trkpt>
  <trkpt lat="34.215643" lon="-4.114287">
   <ele>399.00</ele>
   <time>2014-04-07T10:48:08Z</time>
  </trkpt>
  <trkpt lat="34.215489" lon="-4.114563">
   <ele>399.00</ele>
   <time>2014-04-07T10:48:10Z</time>
  </trkpt>
  <trkpt lat="34.215355" lon="-4.114869">
   <ele>398.00</ele>
   <time>2014-04-07T10:48:12Z</time>
  </trkpt>
  <trkpt lat="34.215246" lon="-4.115208">
   <ele>398.00</ele>
   <time>2014-04-07T10:48:14Z</time>
  </trkpt>
  <trkpt lat="34.215162" lon="-4.115567">
   <ele>397.00</ele>
   <time>2014-04-07T10:48:16Z</time>
  </trkpt>
  <trkpt lat="34.215101" lon="-4.115937">
   <ele>397.00</ele>
   <time>2014-04-07T10:48:18Z</time>
  </trkpt>
  <trkpt lat="34.214837" lon="-4.117862">
   <ele>396.00</ele>
   <time>2014-04-07T10:48:28Z</time>
  </trkpt>
  <trkpt lat="34.214729" lon="-4.118253">
   <ele>396.00</ele>
   <time>2014-04-07T10:48:30Z</time>
  </trkpt>
  <trkpt lat="34.214588" lon="-4.118629">
   <ele>396.00</ele>
   <time>2014-04-07T10:48:32Z</time>
  </trkpt>
  <trkpt lat="34.214108" lon="-4.119714">
   <ele>397.00</ele>
   <time>2014-04-07T10:48:38Z</time>
  </trkpt>
  <trkpt lat="34.213619" lon="-4.120763">
   <ele>400.00</ele>
   <time>2014-04-07T10:48:44Z</time>
  </trkpt>
  <trkpt lat="34.213437" lon="-4.121100">
   <ele>401.00</ele>
   <time>2014-04-07T10:48:46Z</time>
  </trkpt>
  <trkpt lat="34.213231" lon="-4.121435">
   <ele>402.00</ele>
   <time>2014-04-07T10:48:48Z</time>
  </trkpt>
  <trkpt lat="34.213001" lon="-4.121763">
   <ele>403.00</ele>
   <time>2014-04-07T10:48:50Z</time>
  </trkpt>
  <trkpt lat="34.211687" lon="-4.123531">
   <ele>405.00</ele>
   <time>2014-04-07T10:49:01Z</time>
  </trkpt>
  <trkpt lat="34.211437" lon="-4.123822">
   <ele>405.00</ele>
   <time>2014-04-07T10:49:03Z</time>
  </trkpt>
  <trkpt lat="34.211160" lon="-4.124072">
   <ele>405.00</ele>
   <time>2014-04-07T10:49:05Z</time>
  </trkpt>
  <trkpt lat="34.210728" lon="-4.124407">
   <ele>405.00</ele>
   <time>2014-04-07T10:49:08Z</time>
  </trkpt>
  <trkpt lat="34.210016" lon="-4.124963">
   <ele>405.00</ele>
   <time>2014-04-07T10:49:13Z</time>
  </trkpt>
  <trkpt lat="34.209747" lon="-4.125206">
   <ele>405.00</ele>
   <time>2014-04-07T10:49:15Z</time>
  </trkpt>
  <trkpt lat="34.209501" lon="-4.125481">
   <ele>404.00</ele>
   <time>2014-04-07T10:49:17Z</time>
  </trkpt>
  <trkpt lat="34.209281" lon="-4.125789">
   <ele>404.00</ele>
   <time>2014-04-07T10:49:19Z</time>
  </trkpt>
  <trkpt lat="34.209099" lon="-4.126125">
   <ele>404.00</ele>
   <time>2014-04-07T10:49:21Z</time>
  </trkpt>
  <trkpt lat="34.208956" lon="-4.126484">
   <ele>404.00</ele>
   <time>2014-04-07T10:49:23Z</time>
  </trkpt>
  <trkpt lat="34.208854" lon="-4.126867">
   <ele>404.00</ele>
   <time>2014-04-07T10:49:25Z</time>
  </trkpt>
  <trkpt lat="34.208794" lon="-4.127264">
   <ele>402.00</ele>
   <time>2014-04-07T10:49:27Z</time>
  </trkpt>
  <trkpt lat="34.208762" lon="-4.127667">
   <ele>402.00</ele>
   <time>2014-04-07T10:49:29Z</time>
  </trkpt>
  <trkpt lat="34.208773" lon="-4.128064">
   <ele>401.00</ele>
   <time>2014-04-07T10:49:31Z</time>
  </trkpt>
  <trkpt lat="34.208838" lon="-4.128452">
   <ele>401.00</ele>
   <time>2014-04-07T10:49:33Z</time>
  </trkpt>
  <trkpt lat="34.208945" lon="-4.128830">
   <ele>400.00</ele>
   <time>2014-04-07T10:49:35Z</time>
  </trkpt>
  <trkpt lat="34.209085" lon="-4.129192">
   <ele>400.00</ele>
   <time>2014-04-07T10:49:37Z</time>
  </trkpt>
  <trkpt lat="34.209263" lon="-4.129524">
   <ele>399.00</ele>
   <time>2014-04-07T10:49:39Z</time>
  </trkpt>
  <trkpt lat="34.209477" lon="-4.129821">
   <ele>399.00</ele>
   <time>2014-04-07T10:49:41Z</time>
  </trkpt>
  <trkpt lat="34.209711" lon="-4.130097">
   <ele>398.00</ele>
   <time>2014-04-07T10:49:43Z</time>
  </trkpt>
  <trkpt lat="34.210427" lon="-4.130937">
   <ele>396.00</ele>
   <time>2014-04-07T10:49:49Z</time>
  </trkpt>
  <trkpt lat="34.210645" lon="-4.131252">
   <ele>395.00</ele>
   <time>2014-04-07T10:49:51Z</time>
  </trkpt>
  <trkpt lat="34.210855" lon="-4.131586">
   <ele>395.00</ele>
   <time>2014-04-07T10:49:53Z</time>
  </trkpt>
  <trkpt lat="34.211052" lon="-4.131929">
   <ele>394.00</ele>
   <time>2014-04-07T10:49:55Z</time>
  </trkpt>
  <trkpt lat="34.211232" lon="-4.132279">
   <ele>394.00</ele>
   <time>2014-04-07T10:49:57Z</time>
  </trkpt>
  <trkpt lat="34.211394" lon="-4.132633">
   <ele>393.00</ele>
   <time>2014-04-07T10:49:59Z</time>
  </trkpt>
  <trkpt lat="34.211540" lon="-4.132985">
   <ele>393.00</ele>
   <time>2014-04-07T10:50:01Z</time>
  </trkpt>
  <trkpt lat="34.211666" lon="-4.133321">
   <ele>393.00</ele>
   <time>2014-04-07T10:50:03Z</time>
  </trkpt>
  <trkpt lat="34.211773" lon="-4.133645">
   <ele>393.00</ele>
   <time>2014-04-07T10:50:05Z</time>
  </trkpt>
  <trkpt lat="34.211859" lon="-4.133968">
   <ele>393.00</ele>
   <time>2014-04-07T10:50:07Z</time>
  </trkpt>
  <trkpt lat="34.211937" lon="-4.134302">
   <ele>393.00</ele>
   <time>2014-04-07T10:50:09Z</time>
  </trkpt>
  <trkpt lat="34.212003" lon="-4.134646">
   <ele>393.00</ele>
   <time>2014-04-07T10:50:11Z</time>
  </trkpt>
  <trkpt lat="34.212060" lon="-4.134993">
   <ele>393.00</ele>
   <time>2014-04-07T10:50:13Z</time>
  </trkpt>
  <trkpt lat="34.212104" lon="-4.135344">
   <ele>393.00</ele>
   <time>2014-04-07T10:50:15Z</time>
  </trkpt>
  <trkpt lat="34.212137" lon="-4.135706">
   <ele>393.00</ele>
   <time>2014-04-07T10:50:17Z</time>
  </trkpt>
  <trkpt lat="34.212159" lon="-4.136246">
   <ele>393.00</ele>
   <time>2014-04-07T10:50:20Z</time>
  </trkpt>
  <trkpt lat="34.212162" lon="-4.136599">
   <ele>394.00</ele>
   <time>2014-04-07T10:50:22Z</time>
  </trkpt>
  <trkpt lat="34.212153" lon="-4.136958">
   <ele>394.00</ele>
   <time>2014-04-07T10:50:24Z</time>
  </trkpt>
  <trkpt lat="34.212125" lon="-4.137324">
   <ele>394.00</ele>
   <time>2014-04-07T10:50:26Z</time>
  </trkpt>
  <trkpt lat="34.212057" lon="-4.137867">
   <ele>394.00</ele>
   <time>2014-04-07T10:50:29Z</time>
  </trkpt>
  <trkpt lat="34.211945" lon="-4.138545">
   <ele>395.00</ele>
   <time>2014-04-07T10:50:33Z</time>
  </trkpt>
  <trkpt lat="34.211589" lon="-4.140429">
   <ele>404.00</ele>
   <time>2014-04-07T10:50:45Z</time>
  </trkpt>
  <trkpt lat="34.211100" lon="-4.142885">
   <ele>415.00</ele>
   <time>2014-04-07T10:51:00Z</time>
  </trkpt>
  <trkpt lat="34.211004" lon="-4.143290">
   <ele>416.00</ele>
   <time>2014-04-07T10:51:03Z</time>
  </trkpt>
  <trkpt lat="34.210931" lon="-4.143518">
   <ele>416.00</ele>
   <time>2014-04-07T10:51:05Z</time>
  </trkpt>
  <trkpt lat="34.210852" lon="-4.143720">
   <ele>416.00</ele>
   <time>2014-04-07T10:51:07Z</time>
  </trkpt>
  <trkpt lat="34.210709" lon="-4.143998">
   <ele>416.00</ele>
   <time>2014-04-07T10:51:10Z</time>
  </trkpt>
  <trkpt lat="34.210025" lon="-4.145092">
   <ele>417.00</ele>
   <time>2014-04-07T10:51:23Z</time>
  </trkpt>
  <trkpt lat="34.209881" lon="-4.145303">
   <ele>418.00</ele>
   <time>2014-04-07T10:51:27Z</time>
  </trkpt>
  <trkpt lat="34.209742" lon="-4.145492">
   <ele>418.00</ele>
   <time>2014-04-07T10:51:30Z</time>
  </trkpt>
  <trkpt lat="34.209630" lon="-4.145686">
   <ele>419.00</ele>
   <time>2014-04-07T10:51:32Z</time>
  </trkpt>
  <trkpt lat="34.209490" lon="-4.145924">
   <ele>419.00</ele>
   <time>2014-04-07T10:51:34Z</time>
  </trkpt>
  <trkpt lat="34.209035" lon="-4.146636">
   <ele>419.00</ele>
   <time>2014-04-07T10:51:39Z</time>
  </trkpt>
  <trkpt lat="34.208697" lon="-4.147124">
   <ele>420.00</ele>
   <time>2014-04-07T10:51:42Z</time>
  </trkpt>
  <trkpt lat="34.208436" lon="-4.147473">
   <ele>421.00</ele>
   <time>2014-04-07T10:51:44Z</time>
  </trkpt>
  <trkpt lat="34.208145" lon="-4.147827">
   <ele>422.00</ele>
   <time>2014-04-07T10:51:46Z</time>
  </trkpt>
  <trkpt lat="34.207694" lon="-4.148336">
   <ele>423.00</ele>
   <time>2014-04-07T10:51:49Z</time>
  </trkpt>
  <trkpt lat="34.205305" lon="-4.150901">
   <ele>428.00</ele>
   <time>2014-04-07T10:52:04Z</time>
  </trkpt>
  <trkpt lat="34.203729" lon="-4.152623">
   <ele>433.00</ele>
   <time>2014-04-07T10:52:14Z</time>
  </trkpt>
  <trkpt lat="34.203591" lon="-4.152804">
   <ele>434.00</ele>
   <time>2014-04-07T10:52:15Z</time>
  </trkpt>
  <trkpt lat="34.203465" lon="-4.152996">
   <ele>435.00</ele>
   <time>2014-04-07T10:52:16Z</time>
  </trkpt>
  <trkpt lat="34.203350" lon="-4.153200">
   <ele>436.00</ele>
   <time>2014-04-07T10:52:17Z</time>
  </trkpt>
  <trkpt lat="34.203242" lon="-4.153410">
   <ele>437.00</ele>
   <time>2014-04-07T10:52:18Z</time>
  </trkpt>
  <trkpt lat="34.202941" lon="-4.154066">
   <ele>440.00</ele>
   <time>2014-04-07T10:52:21Z</time>
  </trkpt>
  <trkpt lat="34.202449" lon="-4.155146">
   <ele>446.00</ele>
   <time>2014-04-07T10:52:26Z</time>
  </trkpt>
  <trkpt lat="34.202344" lon="-4.155347">
   <ele>447.00</ele>
   <time>2014-04-07T10:52:27Z</time>
  </trkpt>
  <trkpt lat="34.202227" lon="-4.155532">
   <ele>448.00</ele>
   <time>2014-04-07T10:52:28Z</time>
  </trkpt>
  <trkpt lat="34.202095" lon="-4.155699">
   <ele>449.00</ele>
   <time>2014-04-07T10:52:29Z</time>
  </trkpt>
  <trkpt lat="34.201950" lon="-4.155849">
   <ele>450.00</ele>
   <time>2014-04-07T10:52:30Z</time>
  </trkpt>
  <trkpt lat="34.201793" lon="-4.155977">
   <ele>451.00</ele>
   <time>2014-04-07T10:52:31Z</time>
  </trkpt>
  <trkpt lat="34.201624" lon="-4.156085">
   <ele>452.00</ele>
   <time>2014-04-07T10:52:32Z</time>
  </trkpt>
  <trkpt lat="34.201447" lon="-4.156172">
   <ele>452.00</ele>
   <time>2014-04-07T10:52:33Z</time>
  </trkpt>
  <trkpt lat="34.201263" lon="-4.156239">
   <ele>453.00</ele>
   <time>2014-04-07T10:52:34Z</time>
  </trkpt>
  <trkpt lat="34.201073" lon="-4.156284">
   <ele>454.00</ele>
   <time>2014-04-07T10:52:35Z</time>
  </trkpt>
  <trkpt lat="34.200880" lon="-4.156305">
   <ele>455.00</ele>
   <time>2014-04-07T10:52:36Z</time>
  </trkpt>
  <trkpt lat="34.200687" lon="-4.156299">
   <ele>456.00</ele>
   <time>2014-04-07T10:52:37Z</time>
  </trkpt>
  <trkpt lat="34.200498" lon="-4.156266">
   <ele>457.00</ele>
   <time>2014-04-07T10:52:38Z</time>
  </trkpt>
  <trkpt lat="34.200311" lon="-4.156217">
   <ele>458.00</ele>
   <time>2014-04-07T10:52:39Z</time>
  </trkpt>
  <trkpt lat="34.199430" lon="-4.155961">
   <ele>463.00</ele>
   <time>2014-04-07T10:52:44Z</time>
  </trkpt>
  <trkpt lat="34.199078" lon="-4.155907">
   <ele>466.00</ele>
   <time>2014-04-07T10:52:46Z</time>
  </trkpt>
  <trkpt lat="34.198728" lon="-4.155927">
   <ele>468.00</ele>
   <time>2014-04-07T10:52:48Z</time>
  </trkpt>
  <trkpt lat="34.198384" lon="-4.156027">
   <ele>470.00</ele>
   <time>2014-04-07T10:52:50Z</time>
  </trkpt>
  <trkpt lat="34.198060" lon="-4.156214">
   <ele>472.00</ele>
   <time>2014-04-07T10:52:52Z</time>
  </trkpt>
  <trkpt lat="34.197911" lon="-4.156338">
   <ele>474.00</ele>
   <time>2014-04-07T10:52:53Z</time>
  </trkpt>
  <trkpt lat="34.197772" lon="-4.156481">
   <ele>475.00</ele>
   <time>2014-04-07T10:52:54Z</time>
  </trkpt>
  <trkpt lat="34.197644" lon="-4.156642">
   <ele>476.00</ele>
   <time>2014-04-07T10:52:55Z</time>
  </trkpt>
  <trkpt lat="34.197531" lon="-4.156820">
   <ele>477.00</ele>
   <time>2014-04-07T10:52:56Z</time>
  </trkpt>
  <trkpt lat="34.197436" lon="-4.157015">
   <ele>479.00</ele>
   <time>2014-04-07T10:52:57Z</time>
  </trkpt>
  <trkpt lat="34.197361" lon="-4.157223">
   <ele>480.00</ele>
   <time>2014-04-07T10:52:58Z</time>
  </trkpt>
  <trkpt lat="34.197305" lon="-4.157439">
   <ele>481.00</ele>
   <time>2014-04-07T10:52:59Z</time>
  </trkpt>
  <trkpt lat="34.197263" lon="-4.157659">
   <ele>482.00</ele>
   <time>2014-04-07T10:53:00Z</time>
  </trkpt>
  <trkpt lat="34.197240" lon="-4.157882">
   <ele>483.00</ele>
   <time>2014-04-07T10:53:01Z</time>
  </trkpt>
  <trkpt lat="34.197238" lon="-4.158106">
   <ele>485.00</ele>
   <time>2014-04-07T10:53:02Z</time>
  </trkpt>
  <trkpt lat="34.197257" lon="-4.158327">
   <ele>485.00</ele>
   <time>2014-04-07T10:53:03Z</time>
  </trkpt>
  <trkpt lat="34.197293" lon="-4.158541">
   <ele>486.00</ele>
   <time>2014-04-07T10:53:04Z</time>
  </trkpt>
  <trkpt lat="34.197345" lon="-4.158750">
   <ele>487.00</ele>
   <time>2014-04-07T10:53:05Z</time>
  </trkpt>
  <trkpt lat="34.197506" lon="-4.159139">
   <ele>489.00</ele>
   <time>2014-04-07T10:53:07Z</time>
  </trkpt>
  <trkpt lat="34.197609" lon="-4.159319">
   <ele>490.00</ele>
   <time>2014-04-07T10:53:08Z</time>
  </trkpt>
  <trkpt lat="34.197725" lon="-4.159489">
   <ele>491.00</ele>
   <time>2014-04-07T10:53:09Z</time>
  </trkpt>
  <trkpt lat="34.197850" lon="-4.159651">
   <ele>492.00</ele>
   <time>2014-04-07T10:53:10Z</time>
  </trkpt>
  <trkpt lat="34.198478" lon="-4.160454">
   <ele>498.00</ele>
   <time>2014-04-07T10:53:15Z</time>
  </trkpt>
  <trkpt lat="34.198709" lon="-4.160792">
   <ele>501.00</ele>
   <time>2014-04-07T10:53:17Z</time>
  </trkpt>
  <trkpt lat="34.198808" lon="-4.160976">
   <ele>502.00</ele>
   <time>2014-04-07T10:53:18Z</time>
  </trkpt>
  <trkpt lat="34.198889" lon="-4.161173">
   <ele>503.00</ele>
   <time>2014-04-07T10:53:19Z</time>
  </trkpt>
  <trkpt lat="34.198952" lon="-4.161378">
   <ele>504.00</ele>
   <time>2014-04-07T10:53:20Z</time>
  </trkpt>
  <trkpt lat="34.198996" lon="-4.161591">
   <ele>506.00</ele>
   <time>2014-04-07T10:53:21Z</time>
  </trkpt>
  <trkpt lat="34.199020" lon="-4.161808">
   <ele>507.00</ele>
   <time>2014-04-07T10:53:22Z</time>
  </trkpt>
  <trkpt lat="34.199015" lon="-4.162232">
   <ele>510.00</ele>
   <time>2014-04-07T10:53:24Z</time>
  </trkpt>
  <trkpt lat="34.198952" lon="-4.162625">
   <ele>513.00</ele>
   <time>2014-04-07T10:53:26Z</time>
  </trkpt>
  <trkpt lat="34.198845" lon="-4.162968">
   <ele>515.00</ele>
   <time>2014-04-07T10:53:28Z</time>
  </trkpt>
  <trkpt lat="34.198710" lon="-4.163251">
   <ele>517.00</ele>
   <time>2014-04-07T10:53:30Z</time>
  </trkpt>
  <trkpt lat="34.198564" lon="-4.163478">
   <ele>519.00</ele>
   <time>2014-04-07T10:53:32Z</time>
  </trkpt>
  <trkpt lat="34.198417" lon="-4.163653">
   <ele>521.00</ele>
   <time>2014-04-07T10:53:34Z</time>
  </trkpt>
  <trkpt lat="34.198268" lon="-4.163796">
   <ele>522.00</ele>
   <time>2014-04-07T10:53:36Z</time>
  </trkpt>
  <trkpt lat="34.198103" lon="-4.163919">
   <ele>524.00</ele>
   <time>2014-04-07T10:53:38Z</time>
  </trkpt>
  <trkpt lat="34.197923" lon="-4.164018">
   <ele>525.00</ele>
   <time>2014-04-07T10:53:40Z</time>
  </trkpt>
  <trkpt lat="34.197742" lon="-4.164099">
   <ele>526.00</ele>
   <time>2014-04-07T10:53:42Z</time>
  </trkpt>
  <trkpt lat="34.197468" lon="-4.164203">
   <ele>528.00</ele>
   <time>2014-04-07T10:53:45Z</time>
  </trkpt>
  <trkpt lat="34.197022" lon="-4.164354">
   <ele>531.00</ele>
   <time>2014-04-07T10:53:50Z</time>
  </trkpt>
  <trkpt lat="34.196661" lon="-4.164458">
   <ele>534.00</ele>
   <time>2014-04-07T10:53:53Z</time>
  </trkpt>
  <trkpt lat="34.196374" lon="-4.164575">
   <ele>536.00</ele>
   <time>2014-04-07T10:53:55Z</time>
  </trkpt>
  <trkpt lat="34.195707" lon="-4.164866">
   <ele>541.00</ele>
   <time>2014-04-07T10:54:00Z</time>
  </trkpt>
  <trkpt lat="34.194923" lon="-4.165180">
   <ele>547.00</ele>
   <time>2014-04-07T10:54:07Z</time>
  </trkpt>
  <trkpt lat="34.194713" lon="-4.165293">
   <ele>549.00</ele>
   <time>2014-04-07T10:54:09Z</time>
  </trkpt>
  <trkpt lat="34.194510" lon="-4.165434">
   <ele>550.00</ele>
   <time>2014-04-07T10:54:11Z</time>
  </trkpt>
  <trkpt lat="34.194322" lon="-4.165597">
   <ele>552.00</ele>
   <time>2014-04-07T10:54:13Z</time>
  </trkpt>
  <trkpt lat="34.194149" lon="-4.165781">
   <ele>553.00</ele>
   <time>2014-04-07T10:54:15Z</time>
  </trkpt>
  <trkpt lat="34.193988" lon="-4.165982">
   <ele>554.00</ele>
   <time>2014-04-07T10:54:17Z</time>
  </trkpt>
  <trkpt lat="34.193836" lon="-4.166198">
   <ele>556.00</ele>
   <time>2014-04-07T10:54:19Z</time>
  </trkpt>
  <trkpt lat="34.193702" lon="-4.166430">
   <ele>558.00</ele>
   <time>2014-04-07T10:54:21Z</time>
  </trkpt>
  <trkpt lat="34.193592" lon="-4.166668">
   <ele>560.00</ele>
   <time>2014-04-07T10:54:23Z</time>
  </trkpt>
  <trkpt lat="34.193500" lon="-4.166912">
   <ele>561.00</ele>
   <time>2014-04-07T10:54:25Z</time>
  </trkpt>
  <trkpt lat="34.193424" lon="-4.167162">
   <ele>563.00</ele>
   <time>2014-04-07T10:54:27Z</time>
  </trkpt>
  <trkpt lat="34.193368" lon="-4.167421">
   <ele>564.00</ele>
   <time>2014-04-07T10:54:29Z</time>
  </trkpt>
  <trkpt lat="34.193328" lon="-4.167690">
   <ele>564.00</ele>
   <time>2014-04-07T10:54:31Z</time>
  </trkpt>
  <trkpt lat="34.193028" lon="-4.169819">
   <ele>561.00</ele>
   <time>2014-04-07T10:54:46Z</time>
  </trkpt>
  <trkpt lat="34.192995" lon="-4.170159">
   <ele>559.00</ele>
   <time>2014-04-07T10:54:48Z</time>
  </trkpt>
  <trkpt lat="34.192985" lon="-4.170519">
   <ele>557.00</ele>
   <time>2014-04-07T10:54:50Z</time>
  </trkpt>
  <trkpt lat="34.193004" lon="-4.170891">
   <ele>555.00</ele>
   <time>2014-04-07T10:54:52Z</time>
  </trkpt>
  <trkpt lat="34.193061" lon="-4.171460">
   <ele>552.00</ele>
   <time>2014-04-07T10:54:55Z</time>
  </trkpt>
  <trkpt lat="34.193138" lon="-4.172041">
   <ele>548.00</ele>
   <time>2014-04-07T10:54:58Z</time>
  </trkpt>
  <trkpt lat="34.193226" lon="-4.172427">
   <ele>545.00</ele>
   <time>2014-04-07T10:55:00Z</time>
  </trkpt>
  <trkpt lat="34.193364" lon="-4.172796">
   <ele>543.00</ele>
   <time>2014-04-07T10:55:02Z</time>
  </trkpt>
  <trkpt lat="34.193554" lon="-4.173144">
   <ele>540.00</ele>
   <time>2014-04-07T10:55:04Z</time>
  </trkpt>
  <trkpt lat="34.193791" lon="-4.173452">
   <ele>538.00</ele>
   <time>2014-04-07T10:55:06Z</time>
  </trkpt>
  <trkpt lat="34.194064" lon="-4.173711">
   <ele>536.00</ele>
   <time>2014-04-07T10:55:08Z</time>
  </trkpt>
  <trkpt lat="34.194361" lon="-4.173917">
   <ele>535.00</ele>
   <time>2014-04-07T10:55:10Z</time>
  </trkpt>
  <trkpt lat="34.194675" lon="-4.174073">
   <ele>533.00</ele>
   <time>2014-04-07T10:55:12Z</time>
  </trkpt>
  <trkpt lat="34.197005" lon="-4.175016">
   <ele>522.00</ele>
   <time>2014-04-07T10:55:27Z</time>
  </trkpt>
  <trkpt lat="34.197302" lon="-4.175185">
   <ele>521.00</ele>
   <time>2014-04-07T10:55:29Z</time>
  </trkpt>
  <trkpt lat="34.197558" lon="-4.175432">
   <ele>519.00</ele>
   <time>2014-04-07T10:55:31Z</time>
  </trkpt>
  <trkpt lat="34.197764" lon="-4.175747">
   <ele>517.00</ele>
   <time>2014-04-07T10:55:33Z</time>
  </trkpt>
  <trkpt lat="34.197899" lon="-4.176120">
   <ele>515.00</ele>
   <time>2014-04-07T10:55:35Z</time>
  </trkpt>
  <trkpt lat="34.197954" lon="-4.176529">
   <ele>513.00</ele>
   <time>2014-04-07T10:55:37Z</time>
  </trkpt>
  <trkpt lat="34.197935" lon="-4.176941">
   <ele>511.00</ele>
   <time>2014-04-07T10:55:39Z</time>
  </trkpt>
  <trkpt lat="34.197841" lon="-4.177320">
   <ele>509.00</ele>
   <time>2014-04-07T10:55:41Z</time>
  </trkpt>
  <trkpt lat="34.197673" lon="-4.177654">
   <ele>507.00</ele>
   <time>2014-04-07T10:55:43Z</time>
  </trkpt>
  <trkpt lat="34.197441" lon="-4.177933">
   <ele>505.00</ele>
   <time>2014-04-07T10:55:45Z</time>
  </trkpt>
  <trkpt lat="34.197165" lon="-4.178145">
   <ele>503.00</ele>
   <time>2014-04-07T10:55:47Z</time>
  </trkpt>
  <trkpt lat="34.196874" lon="-4.178270">
   <ele>501.00</ele>
   <time>2014-04-07T10:55:49Z</time>
  </trkpt>
  <trkpt lat="34.196574" lon="-4.178319">
   <ele>500.00</ele>
   <time>2014-04-07T10:55:51Z</time>
  </trkpt>
  <trkpt lat="34.196275" lon="-4.178289">
   <ele>498.00</ele>
   <time>2014-04-07T10:55:53Z</time>
  </trkpt>
  <trkpt lat="34.195984" lon="-4.178198">
   <ele>496.00</ele>
   <time>2014-04-07T10:55:55Z</time>
  </trkpt>
  <trkpt lat="34.195692" lon="-4.178091">
   <ele>495.00</ele>
   <time>2014-04-07T10:55:57Z</time>
  </trkpt>
  <trkpt lat="34.195392" lon="-4.178025">
   <ele>494.00</ele>
   <time>2014-04-07T10:55:59Z</time>
  </trkpt>
  <trkpt lat="34.195094" lon="-4.178033">
   <ele>493.00</ele>
   <time>2014-04-07T10:56:01Z</time>
  </trkpt>
  <trkpt lat="34.194820" lon="-4.178121">
   <ele>492.00</ele>
   <time>2014-04-07T10:56:03Z</time>
  </trkpt>
  <trkpt lat="34.194570" lon="-4.178280">
   <ele>490.00</ele>
   <time>2014-04-07T10:56:05Z</time>
  </trkpt>
  <trkpt lat="34.194349" lon="-4.178497">
   <ele>489.00</ele>
   <time>2014-04-07T10:56:07Z</time>
  </trkpt>
  <trkpt lat="34.194164" lon="-4.178768">
   <ele>487.00</ele>
   <time>2014-04-07T10:56:09Z</time>
  </trkpt>
  <trkpt lat="34.194039" lon="-4.179093">
   <ele>486.00</ele>
   <time>2014-04-07T10:56:11Z</time>
  </trkpt>
  <trkpt lat="34.193963" lon="-4.179452">
   <ele>485.00</ele>
   <time>2014-04-07T10:56:13Z</time>
  </trkpt>
  <trkpt lat="34.193579" lon="-4.181874">
   <ele>471.00</ele>
   <time>2014-04-07T10:56:25Z</time>
  </trkpt>
  <trkpt lat="34.193529" lon="-4.182304">
   <ele>469.00</ele>
   <time>2014-04-07T10:56:27Z</time>
  </trkpt>
  <trkpt lat="34.193495" lon="-4.182736">
   <ele>467.00</ele>
   <time>2014-04-07T10:56:29Z</time>
  </trkpt>
  <trkpt lat="34.193475" lon="-4.183170">
   <ele>464.00</ele>
   <time>2014-04-07T10:56:31Z</time>
  </trkpt>
  <trkpt lat="34.193470" lon="-4.183609">
   <ele>462.00</ele>
   <time>2014-04-07T10:56:33Z</time>
  </trkpt>
  <trkpt lat="34.193497" lon="-4.187319">
   <ele>441.00</ele>
   <time>2014-04-07T10:56:48Z</time>
  </trkpt>
  <trkpt lat="34.193505" lon="-4.187976">
   <ele>438.00</ele>
   <time>2014-04-07T10:56:50Z</time>
  </trkpt>
  <trkpt lat="34.193597" lon="-4.191936">
   <ele>417.00</ele>
   <time>2014-04-07T10:57:03Z</time>
  </trkpt>
  <trkpt lat="34.193584" lon="-4.192485">
   <ele>415.00</ele>
   <time>2014-04-07T10:57:05Z</time>
  </trkpt>
  <trkpt lat="34.193548" lon="-4.193032">
   <ele>412.00</ele>
   <time>2014-04-07T10:57:07Z</time>
  </trkpt>
  <trkpt lat="34.193461" lon="-4.193847">
   <ele>408.00</ele>
   <time>2014-04-07T10:57:10Z</time>
  </trkpt>
  <trkpt lat="34.192968" lon="-4.198110">
   <ele>384.00</ele>
   <time>2014-04-07T10:57:26Z</time>
  </trkpt>
  <trkpt lat="34.192772" lon="-4.199961">
   <ele>373.00</ele>
   <time>2014-04-07T10:57:34Z</time>
  </trkpt>
  <trkpt lat="34.192771" lon="-4.200383">
   <ele>370.00</ele>
   <time>2014-04-07T10:57:36Z</time>
  </trkpt>
  <trkpt lat="34.192834" lon="-4.200795">
   <ele>368.00</ele>
   <time>2014-04-07T10:57:38Z</time>
  </trkpt>
  <trkpt lat="34.192977" lon="-4.201182">
   <ele>365.00</ele>
   <time>2014-04-07T10:57:40Z</time>
  </trkpt>
  <trkpt lat="34.193208" lon="-4.201515">
   <ele>360.00</ele>
   <time>2014-04-07T10:57:42Z</time>
  </trkpt>
  <trkpt lat="34.193341" lon="-4.201663">
   <ele>358.00</ele>
   <time>2014-04-07T10:57:43Z</time>
  </trkpt>
  <trkpt lat="34.193490" lon="-4.201795">
   <ele>356.00</ele>
   <time>2014-04-07T10:57:44Z</time>
  </trkpt>
  <trkpt lat="34.193649" lon="-4.201912">
   <ele>354.00</ele>
   <time>2014-04-07T10:57:45Z</time>
  </trkpt>
  <trkpt lat="34.193819" lon="-4.202012">
   <ele>352.00</ele>
   <time>2014-04-07T10:57:46Z</time>
  </trkpt>
  <trkpt lat="34.193998" lon="-4.202093">
   <ele>351.00</ele>
   <time>2014-04-07T10:57:47Z</time>
  </trkpt>
  <trkpt lat="34.194185" lon="-4.202152">
   <ele>349.00</ele>
   <time>2014-04-07T10:57:48Z</time>
  </trkpt>
  <trkpt lat="34.194376" lon="-4.202193">
   <ele>347.00</ele>
   <time>2014-04-07T10:57:49Z</time>
  </trkpt>
  <trkpt lat="34.194569" lon="-4.202222">
   <ele>346.00</ele>
   <time>2014-04-07T10:57:50Z</time>
  </trkpt>
  <trkpt lat="34.196135" lon="-4.202453">
   <ele>334.00</ele>
   <time>2014-04-07T10:57:58Z</time>
  </trkpt>
  <trkpt lat="34.196534" lon="-4.202559">
   <ele>331.00</ele>
   <time>2014-04-07T10:58:00Z</time>
  </trkpt>
  <trkpt lat="34.196734" lon="-4.202631">
   <ele>329.00</ele>
   <time>2014-04-07T10:58:01Z</time>
  </trkpt>
  <trkpt lat="34.196935" lon="-4.202718">
   <ele>328.00</ele>
   <time>2014-04-07T10:58:02Z</time>
  </trkpt>
  <trkpt lat="34.197131" lon="-4.202821">
   <ele>327.00</ele>
   <time>2014-04-07T10:58:03Z</time>
  </trkpt>
  <trkpt lat="34.197325" lon="-4.202937">
   <ele>325.00</ele>
   <time>2014-04-07T10:58:04Z</time>
  </trkpt>
  <trkpt lat="34.197514" lon="-4.203066">
   <ele>324.00</ele>
   <time>2014-04-07T10:58:05Z</time>
  </trkpt>
  <trkpt lat="34.197699" lon="-4.203205">
   <ele>323.00</ele>
   <time>2014-04-07T10:58:06Z</time>
  </trkpt>
  <trkpt lat="34.197879" lon="-4.203351">
   <ele>323.00</ele>
   <time>2014-04-07T10:58:07Z</time>
  </trkpt>
  <trkpt lat="34.198575" lon="-4.203974">
   <ele>320.00</ele>
   <time>2014-04-07T10:58:11Z</time>
  </trkpt>
  <trkpt lat="34.199744" lon="-4.205029">
   <ele>320.00</ele>
   <time>2014-04-07T10:58:18Z</time>
  </trkpt>
  <trkpt lat="34.199915" lon="-4.205158">
   <ele>320.00</ele>
   <time>2014-04-07T10:58:19Z</time>
  </trkpt>
  <trkpt lat="34.200091" lon="-4.205278">
   <ele>321.00</ele>
   <time>2014-04-07T10:58:20Z</time>
  </trkpt>
  <trkpt lat="34.201685" lon="-4.206299">
   <ele>324.00</ele>
   <time>2014-04-07T10:58:29Z</time>
  </trkpt>
  <trkpt lat="34.201850" lon="-4.206428">
   <ele>324.00</ele>
   <time>2014-04-07T10:58:30Z</time>
  </trkpt>
  <trkpt lat="34.202007" lon="-4.206570">
   <ele>324.00</ele>
   <time>2014-04-07T10:58:31Z</time>
  </trkpt>
  <trkpt lat="34.202154" lon="-4.206728">
   <ele>324.00</ele>
   <time>2014-04-07T10:58:32Z</time>
  </trkpt>
  <trkpt lat="34.202290" lon="-4.206900">
   <ele>324.00</ele>
   <time>2014-04-07T10:58:33Z</time>
  </trkpt>
  <trkpt lat="34.202413" lon="-4.207085">
   <ele>324.00</ele>
   <time>2014-04-07T10:58:34Z</time>
  </trkpt>
  <trkpt lat="34.202527" lon="-4.207280">
   <ele>324.00</ele>
   <time>2014-04-07T10:58:35Z</time>
  </trkpt>
  <trkpt lat="34.202629" lon="-4.207485">
   <ele>324.00</ele>
   <time>2014-04-07T10:58:36Z</time>
  </trkpt>
  <trkpt lat="34.202719" lon="-4.207701">
   <ele>324.00</ele>
   <time>2014-04-07T10:58:37Z</time>
  </trkpt>
  <trkpt lat="34.202797" lon="-4.207925">
   <ele>324.00</ele>
   <time>2014-04-07T10:58:38Z</time>
  </trkpt>
  <trkpt lat="34.202861" lon="-4.208156">
   <ele>324.00</ele>
   <time>2014-04-07T10:58:39Z</time>
  </trkpt>
  <trkpt lat="34.202907" lon="-4.208396">
   <ele>324.00</ele>
   <time>2014-04-07T10:58:40Z</time>
  </trkpt>
  <trkpt lat="34.202936" lon="-4.208640">
   <ele>324.00</ele>
   <time>2014-04-07T10:58:41Z</time>
  </trkpt>
  <trkpt lat="34.202953" lon="-4.208888">
   <ele>324.00</ele>
   <time>2014-04-07T10:58:42Z</time>
  </trkpt>
  <trkpt lat="34.202959" lon="-4.209138">
   <ele>324.00</ele>
   <time>2014-04-07T10:58:43Z</time>
  </trkpt>
  <trkpt lat="34.202950" lon="-4.213020">
   <ele>320.00</ele>
   <time>2014-04-07T10:58:58Z</time>
  </trkpt>
  <trkpt lat="34.202945" lon="-4.217097">
   <ele>320.00</ele>
   <time>2014-04-07T10:59:14Z</time>
  </trkpt>
  <trkpt lat="34.202934" lon="-4.217343">
   <ele>320.00</ele>
   <time>2014-04-07T10:59:15Z</time>
  </trkpt>
  <trkpt lat="34.202912" lon="-4.217585">
   <ele>320.00</ele>
   <time>2014-04-07T10:59:16Z</time>
  </trkpt>
  <trkpt lat="34.202876" lon="-4.217823">
   <ele>320.00</ele>
   <time>2014-04-07T10:59:17Z</time>
  </trkpt>
  <trkpt lat="34.202824" lon="-4.218056">
   <ele>320.00</ele>
   <time>2014-04-07T10:59:18Z</time>
  </trkpt>
  <trkpt lat="34.202758" lon="-4.218283">
   <ele>321.00</ele>
   <time>2014-04-07T10:59:19Z</time>
  </trkpt>
  <trkpt lat="34.202682" lon="-4.218505">
   <ele>321.00</ele>
   <time>2014-04-07T10:59:20Z</time>
  </trkpt>
  <trkpt lat="34.202596" lon="-4.218720">
   <ele>321.00</ele>
   <time>2014-04-07T10:59:21Z</time>
  </trkpt>
  <trkpt lat="34.202500" lon="-4.218929">
   <ele>322.00</ele>
   <time>2014-04-07T10:59:22Z</time>
  </trkpt>
  <trkpt lat="34.202397" lon="-4.219130">
   <ele>323.00</ele>
   <time>2014-04-07T10:59:23Z</time>
  </trkpt>
  <trkpt lat="34.202284" lon="-4.219322">
   <ele>324.00</ele>
   <time>2014-04-07T10:59:24Z</time>
  </trkpt>
  <trkpt lat="34.202159" lon="-4.219501">
   <ele>325.00</ele>
   <time>2014-04-07T10:59:25Z</time>
  </trkpt>
  <trkpt lat="34.202025" lon="-4.219668">
   <ele>325.00</ele>
   <time>2014-04-07T10:59:26Z</time>
  </trkpt>
  <trkpt lat="34.201884" lon="-4.219828">
   <ele>326.00</ele>
   <time>2014-04-07T10:59:27Z</time>
  </trkpt>
  <trkpt lat="34.199625" lon="-4.222216">
   <ele>336.00</ele>
   <time>2014-04-07T10:59:43Z</time>
  </trkpt>
  <trkpt lat="34.199205" lon="-4.222679">
   <ele>335.00</ele>
   <time>2014-04-07T10:59:46Z</time>
  </trkpt>
  <trkpt lat="34.198939" lon="-4.223007">
   <ele>335.00</ele>
   <time>2014-04-07T10:59:48Z</time>
  </trkpt>
  <trkpt lat="34.198817" lon="-4.223182">
   <ele>335.00</ele>
   <time>2014-04-07T10:59:49Z</time>
  </trkpt>
  <trkpt lat="34.198704" lon="-4.223364">
   <ele>335.00</ele>
   <time>2014-04-07T10:59:50Z</time>
  </trkpt>
  <trkpt lat="34.198599" lon="-4.223552">
   <ele>335.00</ele>
   <time>2014-04-07T10:59:51Z</time>
  </trkpt>
  <trkpt lat="34.198402" lon="-4.223944">
   <ele>335.00</ele>
   <time>2014-04-07T10:59:53Z</time>
  </trkpt>
  <trkpt lat="34.198313" lon="-4.224150">
   <ele>335.00</ele>
   <time>2014-04-07T10:59:54Z</time>
  </trkpt>
  <trkpt lat="34.198165" lon="-4.224583">
   <ele>334.00</ele>
   <time>2014-04-07T10:59:56Z</time>
  </trkpt>
  <trkpt lat="34.198105" lon="-4.224810">
   <ele>333.00</ele>
   <time>2014-04-07T10:59:57Z</time>
  </trkpt>
  <trkpt lat="34.197997" lon="-4.225279">
   <ele>332.00</ele>
   <time>2014-04-07T10:59:59Z</time>
  </trkpt>
  <trkpt lat="34.197241" lon="-4.228865">
   <ele>332.00</ele>
   <time>2014-04-07T11:00:14Z</time>
  </trkpt>
  <trkpt lat="34.196513" lon="-4.232320">
   <ele>332.00</ele>
   <time>2014-04-07T11:00:29Z</time>
  </trkpt>
  <trkpt lat="34.195703" lon="-4.236108">
   <ele>330.00</ele>
   <time>2014-04-07T11:00:45Z</time>
  </trkpt>
  <trkpt lat="34.194938" lon="-4.239704">
   <ele>329.00</ele>
   <time>2014-04-07T11:01:00Z</time>
  </trkpt>
  <trkpt lat="34.194404" lon="-4.242248">
   <ele>324.00</ele>
   <time>2014-04-07T11:01:11Z</time>
  </trkpt>
  <trkpt lat="34.194330" lon="-4.242734">
   <ele>322.00</ele>
   <time>2014-04-07T11:01:13Z</time>
  </trkpt>
  <trkpt lat="34.194303" lon="-4.242982">
   <ele>321.00</ele>
   <time>2014-04-07T11:01:14Z</time>
  </trkpt>
  <trkpt lat="34.194284" lon="-4.243234">
   <ele>320.00</ele>
   <time>2014-04-07T11:01:15Z</time>
  </trkpt>
  <trkpt lat="34.194273" lon="-4.243487">
   <ele>319.00</ele>
   <time>2014-04-07T11:01:16Z</time>
  </trkpt>
  <trkpt lat="34.194273" lon="-4.243997">
   <ele>317.00</ele>
   <time>2014-04-07T11:01:18Z</time>
  </trkpt>
  <trkpt lat="34.194328" lon="-4.246255">
   <ele>311.00</ele>
   <time>2014-04-07T11:01:27Z</time>
  </trkpt>
  <trkpt lat="34.194316" lon="-4.246506">
   <ele>311.00</ele>
   <time>2014-04-07T11:01:28Z</time>
  </trkpt>
  <trkpt lat="34.194275" lon="-4.247006">
   <ele>311.00</ele>
   <time>2014-04-07T11:01:30Z</time>
  </trkpt>
  <trkpt lat="34.193842" lon="-4.251016">
   <ele>311.00</ele>
   <time>2014-04-07T11:01:46Z</time>
  </trkpt>
  <trkpt lat="34.193771" lon="-4.251768">
   <ele>311.00</ele>
   <time>2014-04-07T11:01:49Z</time>
  </trkpt>
  <trkpt lat="34.193679" lon="-4.253527">
   <ele>310.00</ele>
   <time>2014-04-07T11:01:56Z</time>
  </trkpt>
  <trkpt lat="34.193597" lon="-4.255144">
   <ele>308.00</ele>
   <time>2014-04-07T11:02:03Z</time>
  </trkpt>
  <trkpt lat="34.193349" lon="-4.257670">
   <ele>307.00</ele>
   <time>2014-04-07T11:02:19Z</time>
  </trkpt>
  <trkpt lat="34.193168" lon="-4.259391">
   <ele>307.00</ele>
   <time>2014-04-07T11:02:34Z</time>
  </trkpt>
  <trkpt lat="34.193040" lon="-4.260671">
   <ele>306.00</ele>
   <time>2014-04-07T11:02:50Z</time>
  </trkpt>
  <trkpt lat="34.192914" lon="-4.261706">
   <ele>306.00</ele>
   <time>2014-04-07T11:03:00Z</time>
  </trkpt>
  <trkpt lat="34.192872" lon="-4.262157">
   <ele>305.00</ele>
   <time>2014-04-07T11:03:05Z</time>
  </trkpt>
  <trkpt lat="34.192760" lon="-4.263162">
   <ele>305.00</ele>
   <time>2014-04-07T11:03:19Z</time>
  </trkpt>
  <trkpt lat="34.192745" lon="-4.263397">
   <ele>305.00</ele>
   <time>2014-04-07T11:03:24Z</time>
  </trkpt>
  <trkpt lat="34.192851" lon="-4.263574">
   <ele>301.00</ele>
   <time>2014-04-07T11:03:34Z</time>
  </trkpt>
  <trkpt lat="34.192782" lon="-4.263704">
   <ele>302.00</ele>
   <time>2014-04-07T11:03:49Z</time>
  </trkpt>
  <trkpt lat="34.192785" lon="-4.263665">
   <ele>302.00</ele>
   <time>2014-04-07T11:04:04Z</time>
  </trkpt>
 </trkseg>
 <trkseg>
  <trkpt lat="34.192814" lon="-4.263801">
   <ele>303.00</ele>
   <time>2014-04-07T11:50:38Z</time>
  </trkpt>
  <trkpt lat="34.192715" lon="-4.263996">
   <ele>303.00</ele>
   <time>2014-04-07T11:50:49Z</time>
  </trkpt>
  <trkpt lat="34.192645" lon="-4.264223">
   <ele>303.00</ele>
   <time>2014-04-07T11:50:55Z</time>
  </trkpt>
  <trkpt lat="34.192517" lon="-4.265383">
   <ele>303.00</ele>
   <time>2014-04-07T11:51:11Z</time>
  </trkpt>
  <trkpt lat="34.192360" lon="-4.266932">
   <ele>302.00</ele>
   <time>2014-04-07T11:51:26Z</time>
  </trkpt>
  <trkpt lat="34.192157" lon="-4.268891">
   <ele>301.00</ele>
   <time>2014-04-07T11:51:41Z</time>
  </trkpt>
  <trkpt lat="34.191987" lon="-4.270594">
   <ele>300.00</ele>
   <time>2014-04-07T11:51:56Z</time>
  </trkpt>
  <trkpt lat="34.191975" lon="-4.270851">
   <ele>300.00</ele>
   <time>2014-04-07T11:52:01Z</time>
  </trkpt>
  <trkpt lat="34.191972" lon="-4.271114">
   <ele>300.00</ele>
   <time>2014-04-07T11:52:12Z</time>
  </trkpt>
  <trkpt lat="34.191979" lon="-4.271373">
   <ele>300.00</ele>
   <time>2014-04-07T11:52:16Z</time>
  </trkpt>
  <trkpt lat="34.191904" lon="-4.271581">
   <ele>299.00</ele>
   <time>2014-04-07T11:52:19Z</time>
  </trkpt>
  <trkpt lat="34.191821" lon="-4.271824">
   <ele>299.00</ele>
   <time>2014-04-07T11:52:22Z</time>
  </trkpt>
  <trkpt lat="34.191762" lon="-4.272093">
   <ele>299.00</ele>
   <time>2014-04-07T11:52:25Z</time>
  </trkpt>
  <trkpt lat="34.191519" lon="-4.273290">
   <ele>298.00</ele>
   <time>2014-04-07T11:52:36Z</time>
  </trkpt>
  <trkpt lat="34.191315" lon="-4.274119">
   <ele>297.00</ele>
   <time>2014-04-07T11:52:43Z</time>
  </trkpt>
  <trkpt lat="34.191246" lon="-4.274365">
   <ele>297.00</ele>
   <time>2014-04-07T11:52:45Z</time>
  </trkpt>
  <trkpt lat="34.191164" lon="-4.274619">
   <ele>297.00</ele>
   <time>2014-04-07T11:52:47Z</time>
  </trkpt>
  <trkpt lat="34.190925" lon="-4.275274">
   <ele>296.00</ele>
   <time>2014-04-07T11:52:52Z</time>
  </trkpt>
  <trkpt lat="34.190005" lon="-4.277537">
   <ele>295.00</ele>
   <time>2014-04-07T11:53:08Z</time>
  </trkpt>
  <trkpt lat="34.189403" lon="-4.278934">
   <ele>295.00</ele>
   <time>2014-04-07T11:53:18Z</time>
  </trkpt>
  <trkpt lat="34.189149" lon="-4.279454">
   <ele>295.00</ele>
   <time>2014-04-07T11:53:22Z</time>
  </trkpt>
  <trkpt lat="34.188162" lon="-4.281371">
   <ele>296.00</ele>
   <time>2014-04-07T11:53:37Z</time>
  </trkpt>
  <trkpt lat="34.187965" lon="-4.281772">
   <ele>296.00</ele>
   <time>2014-04-07T11:53:40Z</time>
  </trkpt>
  <trkpt lat="34.187846" lon="-4.282047">
   <ele>296.00</ele>
   <time>2014-04-07T11:53:42Z</time>
  </trkpt>
  <trkpt lat="34.187747" lon="-4.282328">
   <ele>296.00</ele>
   <time>2014-04-07T11:53:44Z</time>
  </trkpt>
  <trkpt lat="34.187671" lon="-4.282617">
   <ele>296.00</ele>
   <time>2014-04-07T11:53:46Z</time>
  </trkpt>
  <trkpt lat="34.187610" lon="-4.282917">
   <ele>296.00</ele>
   <time>2014-04-07T11:53:48Z</time>
  </trkpt>
  <trkpt lat="34.187564" lon="-4.283228">
   <ele>296.00</ele>
   <time>2014-04-07T11:53:50Z</time>
  </trkpt>
  <trkpt lat="34.187233" lon="-4.285694">
   <ele>293.00</ele>
   <time>2014-04-07T11:54:06Z</time>
  </trkpt>
  <trkpt lat="34.186910" lon="-4.288084">
   <ele>292.00</ele>
   <time>2014-04-07T11:54:21Z</time>
  </trkpt>
  <trkpt lat="34.186854" lon="-4.288404">
   <ele>292.00</ele>
   <time>2014-04-07T11:54:23Z</time>
  </trkpt>
  <trkpt lat="34.186784" lon="-4.288710">
   <ele>292.00</ele>
   <time>2014-04-07T11:54:25Z</time>
  </trkpt>
  <trkpt lat="34.186704" lon="-4.289002">
   <ele>293.00</ele>
   <time>2014-04-07T11:54:27Z</time>
  </trkpt>
  <trkpt lat="34.186617" lon="-4.289281">
   <ele>293.00</ele>
   <time>2014-04-07T11:54:29Z</time>
  </trkpt>
  <trkpt lat="34.185959" lon="-4.291314">
   <ele>292.00</ele>
   <time>2014-04-07T11:54:44Z</time>
  </trkpt>
  <trkpt lat="34.185300" lon="-4.293254">
   <ele>291.00</ele>
   <time>2014-04-07T11:54:57Z</time>
  </trkpt>
  <trkpt lat="34.185183" lon="-4.293541">
   <ele>291.00</ele>
   <time>2014-04-07T11:54:59Z</time>
  </trkpt>
  <trkpt lat="34.185056" lon="-4.293819">
   <ele>291.00</ele>
   <time>2014-04-07T11:55:01Z</time>
  </trkpt>
  <trkpt lat="34.184919" lon="-4.294088">
   <ele>291.00</ele>
   <time>2014-04-07T11:55:03Z</time>
  </trkpt>
  <trkpt lat="34.184768" lon="-4.294351">
   <ele>291.00</ele>
   <time>2014-04-07T11:55:05Z</time>
  </trkpt>
  <trkpt lat="34.183841" lon="-4.295882">
   <ele>294.00</ele>
   <time>2014-04-07T11:55:16Z</time>
  </trkpt>
  <trkpt lat="34.183710" lon="-4.296181">
   <ele>295.00</ele>
   <time>2014-04-07T11:55:18Z</time>
  </trkpt>
  <trkpt lat="34.183616" lon="-4.296490">
   <ele>296.00</ele>
   <time>2014-04-07T11:55:20Z</time>
  </trkpt>
  <trkpt lat="34.183547" lon="-4.296805">
   <ele>297.00</ele>
   <time>2014-04-07T11:55:22Z</time>
  </trkpt>
  <trkpt lat="34.183514" lon="-4.297119">
   <ele>298.00</ele>
   <time>2014-04-07T11:55:24Z</time>
  </trkpt>
  <trkpt lat="34.183518" lon="-4.297425">
   <ele>298.00</ele>
   <time>2014-04-07T11:55:26Z</time>
  </trkpt>
  <trkpt lat="34.183566" lon="-4.298195">
   <ele>297.00</ele>
   <time>2014-04-07T11:55:31Z</time>
  </trkpt>
  <trkpt lat="34.183539" lon="-4.298531">
   <ele>297.00</ele>
   <time>2014-04-07T11:55:33Z</time>
  </trkpt>
  <trkpt lat="34.183463" lon="-4.298870">
   <ele>296.00</ele>
   <time>2014-04-07T11:55:35Z</time>
  </trkpt>
  <trkpt lat="34.183341" lon="-4.299199">
   <ele>295.00</ele>
   <time>2014-04-07T11:55:37Z</time>
  </trkpt>
  <trkpt lat="34.183198" lon="-4.299514">
   <ele>295.00</ele>
   <time>2014-04-07T11:55:39Z</time>
  </trkpt>
  <trkpt lat="34.182096" lon="-4.301860">
   <ele>293.00</ele>
   <time>2014-04-07T11:55:54Z</time>
  </trkpt>
  <trkpt lat="34.181031" lon="-4.304125">
   <ele>292.00</ele>
   <time>2014-04-07T11:56:09Z</time>
  </trkpt>
  <trkpt lat="34.179868" lon="-4.306628">
   <ele>290.00</ele>
   <time>2014-04-07T11:56:25Z</time>
  </trkpt>
  <trkpt lat="34.178787" lon="-4.308928">
   <ele>288.00</ele>
   <time>2014-04-07T11:56:40Z</time>
  </trkpt>
  <trkpt lat="34.178659" lon="-4.309217">
   <ele>288.00</ele>
   <time>2014-04-07T11:56:42Z</time>
  </trkpt>
  <trkpt lat="34.178525" lon="-4.309508">
   <ele>288.00</ele>
   <time>2014-04-07T11:56:44Z</time>
  </trkpt>
  <trkpt lat="34.178358" lon="-4.309795">
   <ele>288.00</ele>
   <time>2014-04-07T11:56:46Z</time>
  </trkpt>
  <trkpt lat="34.178169" lon="-4.310069">
   <ele>288.00</ele>
   <time>2014-04-07T11:56:48Z</time>
  </trkpt>
  <trkpt lat="34.177965" lon="-4.310322">
   <ele>287.00</ele>
   <time>2014-04-07T11:56:50Z</time>
  </trkpt>
  <trkpt lat="34.177731" lon="-4.310559">
   <ele>287.00</ele>
   <time>2014-04-07T11:56:52Z</time>
  </trkpt>
  <trkpt lat="34.176371" lon="-4.311780">
   <ele>286.00</ele>
   <time>2014-04-07T11:57:03Z</time>
  </trkpt>
  <trkpt lat="34.175668" lon="-4.312370">
   <ele>285.00</ele>
   <time>2014-04-07T11:57:08Z</time>
  </trkpt>
  <trkpt lat="34.175335" lon="-4.312651">
   <ele>285.00</ele>
   <time>2014-04-07T11:57:10Z</time>
  </trkpt>
  <trkpt lat="34.174833" lon="-4.313130">
   <ele>285.00</ele>
   <time>2014-04-07T11:57:13Z</time>
  </trkpt>
  <trkpt lat="34.174347" lon="-4.313583">
   <ele>284.00</ele>
   <time>2014-04-07T11:57:16Z</time>
  </trkpt>
  <trkpt lat="34.172661" lon="-4.315107">
   <ele>284.00</ele>
   <time>2014-04-07T11:57:27Z</time>
  </trkpt>
  <trkpt lat="34.172520" lon="-4.315255">
   <ele>284.00</ele>
   <time>2014-04-07T11:57:28Z</time>
  </trkpt>
  <trkpt lat="34.172386" lon="-4.315413">
   <ele>284.00</ele>
   <time>2014-04-07T11:57:29Z</time>
  </trkpt>
  <trkpt lat="34.172260" lon="-4.315581">
   <ele>284.00</ele>
   <time>2014-04-07T11:57:30Z</time>
  </trkpt>
  <trkpt lat="34.172143" lon="-4.315758">
   <ele>284.00</ele>
   <time>2014-04-07T11:57:31Z</time>
  </trkpt>
  <trkpt lat="34.172038" lon="-4.315944">
   <ele>285.00</ele>
   <time>2014-04-07T11:57:32Z</time>
  </trkpt>
  <trkpt lat="34.171873" lon="-4.316295">
   <ele>285.00</ele>
   <time>2014-04-07T11:57:34Z</time>
  </trkpt>
  <trkpt lat="34.171285" lon="-4.317636">
   <ele>285.00</ele>
   <time>2014-04-07T11:57:46Z</time>
  </trkpt>
  <trkpt lat="34.171133" lon="-4.317953">
   <ele>285.00</ele>
   <time>2014-04-07T11:57:50Z</time>
  </trkpt>
  <trkpt lat="34.170972" lon="-4.318340">
   <ele>285.00</ele>
   <time>2014-04-07T11:57:55Z</time>
  </trkpt>
  <trkpt lat="34.170904" lon="-4.318659">
   <ele>285.00</ele>
   <time>2014-04-07T11:57:58Z</time>
  </trkpt>
  <trkpt lat="34.170821" lon="-4.319216">
   <ele>284.00</ele>
   <time>2014-04-07T11:58:02Z</time>
  </trkpt>
  <trkpt lat="34.170800" lon="-4.319533">
   <ele>284.00</ele>
   <time>2014-04-07T11:58:04Z</time>
  </trkpt>
  <trkpt lat="34.170792" lon="-4.319872">
   <ele>283.00</ele>
   <time>2014-04-07T11:58:06Z</time>
  </trkpt>
  <trkpt lat="34.170781" lon="-4.322707">
   <ele>283.00</ele>
   <time>2014-04-07T11:58:21Z</time>
  </trkpt>
  <trkpt lat="34.170748" lon="-4.325640">
   <ele>284.00</ele>
   <time>2014-04-07T11:58:36Z</time>
  </trkpt>
  <trkpt lat="34.170698" lon="-4.326024">
   <ele>284.00</ele>
   <time>2014-04-07T11:58:38Z</time>
  </trkpt>
  <trkpt lat="34.170605" lon="-4.326402">
   <ele>284.00</ele>
   <time>2014-04-07T11:58:40Z</time>
  </trkpt>
  <trkpt lat="34.170477" lon="-4.326773">
   <ele>283.00</ele>
   <time>2014-04-07T11:58:42Z</time>
  </trkpt>
  <trkpt lat="34.170325" lon="-4.327140">
   <ele>283.00</ele>
   <time>2014-04-07T11:58:44Z</time>
  </trkpt>
  <trkpt lat="34.169732" lon="-4.328484">
   <ele>281.00</ele>
   <time>2014-04-07T11:58:51Z</time>
  </trkpt>
  <trkpt lat="34.169431" lon="-4.329299">
   <ele>280.00</ele>
   <time>2014-04-07T11:58:55Z</time>
  </trkpt>
  <trkpt lat="34.168502" lon="-4.331888">
   <ele>280.00</ele>
   <time>2014-04-07T11:59:08Z</time>
  </trkpt>
  <trkpt lat="34.168342" lon="-4.332249">
   <ele>280.00</ele>
   <time>2014-04-07T11:59:10Z</time>
  </trkpt>
  <trkpt lat="34.168152" lon="-4.332586">
   <ele>280.00</ele>
   <time>2014-04-07T11:59:12Z</time>
  </trkpt>
  <trkpt lat="34.167921" lon="-4.332882">
   <ele>280.00</ele>
   <time>2014-04-07T11:59:14Z</time>
  </trkpt>
  <trkpt lat="34.167651" lon="-4.333129">
   <ele>280.00</ele>
   <time>2014-04-07T11:59:16Z</time>
  </trkpt>
  <trkpt lat="34.167359" lon="-4.333327">
   <ele>280.00</ele>
   <time>2014-04-07T11:59:18Z</time>
  </trkpt>
  <trkpt lat="34.167048" lon="-4.333467">
   <ele>279.00</ele>
   <time>2014-04-07T11:59:20Z</time>
  </trkpt>
  <trkpt lat="34.166721" lon="-4.333555">
   <ele>279.00</ele>
   <time>2014-04-07T11:59:22Z</time>
  </trkpt>
  <trkpt lat="34.166388" lon="-4.333585">
   <ele>279.00</ele>
   <time>2014-04-07T11:59:24Z</time>
  </trkpt>
  <trkpt lat="34.166056" lon="-4.333560">
   <ele>279.00</ele>
   <time>2014-04-07T11:59:26Z</time>
  </trkpt>
  <trkpt lat="34.165722" lon="-4.333500">
   <ele>278.00</ele>
   <time>2014-04-07T11:59:28Z</time>
  </trkpt>
  <trkpt lat="34.163237" lon="-4.332937">
   <ele>286.00</ele>
   <time>2014-04-07T11:59:43Z</time>
  </trkpt>
  <trkpt lat="34.160710" lon="-4.332344">
   <ele>301.00</ele>
   <time>2014-04-07T11:59:59Z</time>
  </trkpt>
  <trkpt lat="34.159092" lon="-4.331994">
   <ele>308.00</ele>
   <time>2014-04-07T12:00:09Z</time>
  </trkpt>
  <trkpt lat="34.158766" lon="-4.331949">
   <ele>310.00</ele>
   <time>2014-04-07T12:00:11Z</time>
  </trkpt>
  <trkpt lat="34.158436" lon="-4.331934">
   <ele>311.00</ele>
   <time>2014-04-07T12:00:13Z</time>
  </trkpt>
  <trkpt lat="34.158102" lon="-4.331949">
   <ele>312.00</ele>
   <time>2014-04-07T12:00:15Z</time>
  </trkpt>
  <trkpt lat="34.157768" lon="-4.331998">
   <ele>313.00</ele>
   <time>2014-04-07T12:00:17Z</time>
  </trkpt>
  <trkpt lat="34.157438" lon="-4.332081">
   <ele>314.00</ele>
   <time>2014-04-07T12:00:19Z</time>
  </trkpt>
  <trkpt lat="34.157110" lon="-4.332198">
   <ele>314.00</ele>
   <time>2014-04-07T12:00:21Z</time>
  </trkpt>
  <trkpt lat="34.156784" lon="-4.332343">
   <ele>314.00</ele>
   <time>2014-04-07T12:00:23Z</time>
  </trkpt>
  <trkpt lat="34.156466" lon="-4.332512">
   <ele>314.00</ele>
   <time>2014-04-07T12:00:25Z</time>
  </trkpt>
  <trkpt lat="34.156161" lon="-4.332714">
   <ele>314.00</ele>
   <time>2014-04-07T12:00:27Z</time>
  </trkpt>
  <trkpt lat="34.155874" lon="-4.332958">
   <ele>313.00</ele>
   <time>2014-04-07T12:00:29Z</time>
  </trkpt>
  <trkpt lat="34.155597" lon="-4.333231">
   <ele>312.00</ele>
   <time>2014-04-07T12:00:31Z</time>
  </trkpt>
  <trkpt lat="34.155333" lon="-4.333531">
   <ele>312.00</ele>
   <time>2014-04-07T12:00:33Z</time>
  </trkpt>
  <trkpt lat="34.155207" lon="-4.333692">
   <ele>312.00</ele>
   <time>2014-04-07T12:00:34Z</time>
  </trkpt>
  <trkpt lat="34.154967" lon="-4.334032">
   <ele>311.00</ele>
   <time>2014-04-07T12:00:36Z</time>
  </trkpt>
  <trkpt lat="34.154854" lon="-4.334211">
   <ele>311.00</ele>
   <time>2014-04-07T12:00:37Z</time>
  </trkpt>
  <trkpt lat="34.154748" lon="-4.334396">
   <ele>311.00</ele>
   <time>2014-04-07T12:00:38Z</time>
  </trkpt>
  <trkpt lat="34.154648" lon="-4.334589">
   <ele>311.00</ele>
   <time>2014-04-07T12:00:39Z</time>
  </trkpt>
  <trkpt lat="34.154467" lon="-4.334989">
   <ele>311.00</ele>
   <time>2014-04-07T12:00:41Z</time>
  </trkpt>
  <trkpt lat="34.153131" lon="-4.338068">
   <ele>317.00</ele>
   <time>2014-04-07T12:00:56Z</time>
  </trkpt>
  <trkpt lat="34.151762" lon="-4.341182">
   <ele>317.00</ele>
   <time>2014-04-07T12:01:11Z</time>
  </trkpt>
  <trkpt lat="34.150285" lon="-4.344544">
   <ele>315.00</ele>
   <time>2014-04-07T12:01:27Z</time>
  </trkpt>
  <trkpt lat="34.149419" lon="-4.346518">
   <ele>305.00</ele>
   <time>2014-04-07T12:01:36Z</time>
  </trkpt>
  <trkpt lat="34.149336" lon="-4.346749">
   <ele>303.00</ele>
   <time>2014-04-07T12:01:37Z</time>
  </trkpt>
  <trkpt lat="34.149266" lon="-4.346985">
   <ele>302.00</ele>
   <time>2014-04-07T12:01:38Z</time>
  </trkpt>
  <trkpt lat="34.149211" lon="-4.347227">
   <ele>301.00</ele>
   <time>2014-04-07T12:01:39Z</time>
  </trkpt>
  <trkpt lat="34.149171" lon="-4.347472">
   <ele>300.00</ele>
   <time>2014-04-07T12:01:40Z</time>
  </trkpt>
  <trkpt lat="34.149145" lon="-4.347719">
   <ele>299.00</ele>
   <time>2014-04-07T12:01:41Z</time>
  </trkpt>
  <trkpt lat="34.149136" lon="-4.347965">
   <ele>298.00</ele>
   <time>2014-04-07T12:01:42Z</time>
  </trkpt>
  <trkpt lat="34.149139" lon="-4.348207">
   <ele>298.00</ele>
   <time>2014-04-07T12:01:43Z</time>
  </trkpt>
  <trkpt lat="34.149168" lon="-4.348678">
   <ele>298.00</ele>
   <time>2014-04-07T12:01:45Z</time>
  </trkpt>
  <trkpt lat="34.149205" lon="-4.349366">
   <ele>296.00</ele>
   <time>2014-04-07T12:01:48Z</time>
  </trkpt>
  <trkpt lat="34.149205" lon="-4.349597">
   <ele>296.00</ele>
   <time>2014-04-07T12:01:49Z</time>
  </trkpt>
  <trkpt lat="34.149195" lon="-4.349829">
   <ele>296.00</ele>
   <time>2014-04-07T12:01:50Z</time>
  </trkpt>
  <trkpt lat="34.149173" lon="-4.350062">
   <ele>295.00</ele>
   <time>2014-04-07T12:01:51Z</time>
  </trkpt>
  <trkpt lat="34.149140" lon="-4.350295">
   <ele>295.00</ele>
   <time>2014-04-07T12:01:52Z</time>
  </trkpt>
  <trkpt lat="34.148516" lon="-4.353486">
   <ele>285.00</ele>
   <time>2014-04-07T12:02:06Z</time>
  </trkpt>
  <trkpt lat="34.148221" lon="-4.355009">
   <ele>278.00</ele>
   <time>2014-04-07T12:02:13Z</time>
  </trkpt>
  <trkpt lat="34.148087" lon="-4.355408">
   <ele>277.00</ele>
   <time>2014-04-07T12:02:15Z</time>
  </trkpt>
  <trkpt lat="34.148002" lon="-4.355602">
   <ele>276.00</ele>
   <time>2014-04-07T12:02:16Z</time>
  </trkpt>
  <trkpt lat="34.147907" lon="-4.355792">
   <ele>276.00</ele>
   <time>2014-04-07T12:02:17Z</time>
  </trkpt>
  <trkpt lat="34.147802" lon="-4.355977">
   <ele>275.00</ele>
   <time>2014-04-07T12:02:18Z</time>
  </trkpt>
  <trkpt lat="34.147576" lon="-4.356337">
   <ele>273.00</ele>
   <time>2014-04-07T12:02:20Z</time>
  </trkpt>
  <trkpt lat="34.147359" lon="-4.356710">
   <ele>271.00</ele>
   <time>2014-04-07T12:02:22Z</time>
  </trkpt>
  <trkpt lat="34.147264" lon="-4.356908">
   <ele>270.00</ele>
   <time>2014-04-07T12:02:23Z</time>
  </trkpt>
  <trkpt lat="34.147180" lon="-4.357115">
   <ele>270.00</ele>
   <time>2014-04-07T12:02:24Z</time>
  </trkpt>
  <trkpt lat="34.147107" lon="-4.357327">
   <ele>269.00</ele>
   <time>2014-04-07T12:02:25Z</time>
  </trkpt>
  <trkpt lat="34.147045" lon="-4.357544">
   <ele>268.00</ele>
   <time>2014-04-07T12:02:26Z</time>
  </trkpt>
  <trkpt lat="34.146994" lon="-4.357764">
   <ele>268.00</ele>
   <time>2014-04-07T12:02:27Z</time>
  </trkpt>
  <trkpt lat="34.146952" lon="-4.357985">
   <ele>267.00</ele>
   <time>2014-04-07T12:02:28Z</time>
  </trkpt>
  <trkpt lat="34.146921" lon="-4.358207">
   <ele>267.00</ele>
   <time>2014-04-07T12:02:29Z</time>
  </trkpt>
  <trkpt lat="34.146875" lon="-4.358653">
   <ele>267.00</ele>
   <time>2014-04-07T12:02:31Z</time>
  </trkpt>
  <trkpt lat="34.146802" lon="-4.359555">
   <ele>266.00</ele>
   <time>2014-04-07T12:02:35Z</time>
  </trkpt>
  <trkpt lat="34.146794" lon="-4.359781">
   <ele>266.00</ele>
   <time>2014-04-07T12:02:36Z</time>
  </trkpt>
  <trkpt lat="34.146796" lon="-4.360009">
   <ele>266.00</ele>
   <time>2014-04-07T12:02:37Z</time>
  </trkpt>
  <trkpt lat="34.146807" lon="-4.360237">
   <ele>266.00</ele>
   <time>2014-04-07T12:02:38Z</time>
  </trkpt>
  <trkpt lat="34.146827" lon="-4.360466">
   <ele>266.00</ele>
   <time>2014-04-07T12:02:39Z</time>
  </trkpt>
  <trkpt lat="34.146883" lon="-4.360924">
   <ele>266.00</ele>
   <time>2014-04-07T12:02:41Z</time>
  </trkpt>
  <trkpt lat="34.146919" lon="-4.361152">
   <ele>266.00</ele>
   <time>2014-04-07T12:02:42Z</time>
  </trkpt>
  <trkpt lat="34.147007" lon="-4.361604">
   <ele>266.00</ele>
   <time>2014-04-07T12:02:44Z</time>
  </trkpt>
  <trkpt lat="34.147277" lon="-4.362959">
   <ele>267.00</ele>
   <time>2014-04-07T12:02:50Z</time>
  </trkpt>
  <trkpt lat="34.147336" lon="-4.363414">
   <ele>267.00</ele>
   <time>2014-04-07T12:02:52Z</time>
  </trkpt>
  <trkpt lat="34.147653" lon="-4.366674">
   <ele>267.00</ele>
   <time>2014-04-07T12:03:07Z</time>
  </trkpt>
  <trkpt lat="34.147687" lon="-4.367267">
   <ele>267.00</ele>
   <time>2014-04-07T12:03:10Z</time>
  </trkpt>
  <trkpt lat="34.147683" lon="-4.367652">
   <ele>267.00</ele>
   <time>2014-04-07T12:03:12Z</time>
  </trkpt>
  <trkpt lat="34.147651" lon="-4.368019">
   <ele>268.00</ele>
   <time>2014-04-07T12:03:14Z</time>
  </trkpt>
  <trkpt lat="34.147604" lon="-4.368360">
   <ele>268.00</ele>
   <time>2014-04-07T12:03:16Z</time>
  </trkpt>
  <trkpt lat="34.147547" lon="-4.368678">
   <ele>269.00</ele>
   <time>2014-04-07T12:03:18Z</time>
  </trkpt>
  <trkpt lat="34.147107" lon="-4.370895">
   <ele>271.00</ele>
   <time>2014-04-07T12:03:34Z</time>
  </trkpt>
  <trkpt lat="34.146698" lon="-4.372858">
   <ele>273.00</ele>
   <time>2014-04-07T12:03:47Z</time>
  </trkpt>
  <trkpt lat="34.146437" lon="-4.374065">
   <ele>273.00</ele>
   <time>2014-04-07T12:03:54Z</time>
  </trkpt>
  <trkpt lat="34.146376" lon="-4.374431">
   <ele>274.00</ele>
   <time>2014-04-07T12:03:56Z</time>
  </trkpt>
  <trkpt lat="34.146333" lon="-4.374805">
   <ele>275.00</ele>
   <time>2014-04-07T12:03:58Z</time>
  </trkpt>
  <trkpt lat="34.146306" lon="-4.375189">
   <ele>276.00</ele>
   <time>2014-04-07T12:04:00Z</time>
  </trkpt>
  <trkpt lat="34.146299" lon="-4.375581">
   <ele>276.00</ele>
   <time>2014-04-07T12:04:02Z</time>
  </trkpt>
  <trkpt lat="34.146322" lon="-4.376368">
   <ele>279.00</ele>
   <time>2014-04-07T12:04:06Z</time>
  </trkpt>
  <trkpt lat="34.146336" lon="-4.376948">
   <ele>281.00</ele>
   <time>2014-04-07T12:04:09Z</time>
  </trkpt>
  <trkpt lat="34.146330" lon="-4.377332">
   <ele>283.00</ele>
   <time>2014-04-07T12:04:11Z</time>
  </trkpt>
  <trkpt lat="34.146302" lon="-4.377711">
   <ele>284.00</ele>
   <time>2014-04-07T12:04:13Z</time>
  </trkpt>
  <trkpt lat="34.146253" lon="-4.378084">
   <ele>284.00</ele>
   <time>2014-04-07T12:04:15Z</time>
  </trkpt>
  <trkpt lat="34.146180" lon="-4.378451">
   <ele>284.00</ele>
   <time>2014-04-07T12:04:17Z</time>
  </trkpt>
  <trkpt lat="34.146088" lon="-4.378817">
   <ele>284.00</ele>
   <time>2014-04-07T12:04:19Z</time>
  </trkpt>
  <trkpt lat="34.145309" lon="-4.381664">
   <ele>280.00</ele>
   <time>2014-04-07T12:04:34Z</time>
  </trkpt>
  <trkpt lat="34.144361" lon="-4.385112">
   <ele>278.00</ele>
   <time>2014-04-07T12:04:50Z</time>
  </trkpt>
  <trkpt lat="34.143394" lon="-4.388639">
   <ele>277.00</ele>
   <time>2014-04-07T12:05:05Z</time>
  </trkpt>
  <trkpt lat="34.142371" lon="-4.392333">
   <ele>278.00</ele>
   <time>2014-04-07T12:05:20Z</time>
  </trkpt>
  <trkpt lat="34.142225" lon="-4.392808">
   <ele>278.00</ele>
   <time>2014-04-07T12:05:22Z</time>
  </trkpt>
  <trkpt lat="34.141982" lon="-4.393506">
   <ele>278.00</ele>
   <time>2014-04-07T12:05:25Z</time>
  </trkpt>
  <trkpt lat="34.140700" lon="-4.396962">
   <ele>280.00</ele>
   <time>2014-04-07T12:05:40Z</time>
  </trkpt>
  <trkpt lat="34.139433" lon="-4.400376">
   <ele>279.00</ele>
   <time>2014-04-07T12:05:55Z</time>
  </trkpt>
  <trkpt lat="34.138598" lon="-4.402579">
   <ele>280.00</ele>
   <time>2014-04-07T12:06:06Z</time>
  </trkpt>
  <trkpt lat="34.138437" lon="-4.402937">
   <ele>280.00</ele>
   <time>2014-04-07T12:06:08Z</time>
  </trkpt>
  <trkpt lat="34.138248" lon="-4.403276">
   <ele>280.00</ele>
   <time>2014-04-07T12:06:10Z</time>
  </trkpt>
  <trkpt lat="34.138038" lon="-4.403579">
   <ele>280.00</ele>
   <time>2014-04-07T12:06:12Z</time>
  </trkpt>
  <trkpt lat="34.137813" lon="-4.403847">
   <ele>279.00</ele>
   <time>2014-04-07T12:06:14Z</time>
  </trkpt>
  <trkpt lat="34.137579" lon="-4.404086">
   <ele>279.00</ele>
   <time>2014-04-07T12:06:16Z</time>
  </trkpt>
  <trkpt lat="34.137340" lon="-4.404304">
   <ele>278.00</ele>
   <time>2014-04-07T12:06:18Z</time>
  </trkpt>
  <trkpt lat="34.135696" lon="-4.405718">
   <ele>273.00</ele>
   <time>2014-04-07T12:06:33Z</time>
  </trkpt>
  <trkpt lat="34.134042" lon="-4.407113">
   <ele>268.00</ele>
   <time>2014-04-07T12:06:49Z</time>
  </trkpt>
  <trkpt lat="34.133355" lon="-4.407704">
   <ele>268.00</ele>
   <time>2014-04-07T12:06:55Z</time>
  </trkpt>
  <trkpt lat="34.132965" lon="-4.408070">
   <ele>268.00</ele>
   <time>2014-04-07T12:06:58Z</time>
  </trkpt>
  <trkpt lat="34.131924" lon="-4.409124">
   <ele>268.00</ele>
   <time>2014-04-07T12:07:06Z</time>
  </trkpt>
  <trkpt lat="34.131409" lon="-4.409692">
   <ele>268.00</ele>
   <time>2014-04-07T12:07:10Z</time>
  </trkpt>
  <trkpt lat="34.131162" lon="-4.410002">
   <ele>269.00</ele>
   <time>2014-04-07T12:07:12Z</time>
  </trkpt>
  <trkpt lat="34.130948" lon="-4.410345">
   <ele>271.00</ele>
   <time>2014-04-07T12:07:14Z</time>
  </trkpt>
  <trkpt lat="34.130778" lon="-4.410710">
   <ele>272.00</ele>
   <time>2014-04-07T12:07:16Z</time>
  </trkpt>
  <trkpt lat="34.130647" lon="-4.411086">
   <ele>274.00</ele>
   <time>2014-04-07T12:07:18Z</time>
  </trkpt>
  <trkpt lat="34.130552" lon="-4.411480">
   <ele>275.00</ele>
   <time>2014-04-07T12:07:20Z</time>
  </trkpt>
  <trkpt lat="34.130499" lon="-4.411897">
   <ele>276.00</ele>
   <time>2014-04-07T12:07:22Z</time>
  </trkpt>
  <trkpt lat="34.130491" lon="-4.412330">
   <ele>276.00</ele>
   <time>2014-04-07T12:07:24Z</time>
  </trkpt>
  <trkpt lat="34.130534" lon="-4.412754">
   <ele>277.00</ele>
   <time>2014-04-07T12:07:26Z</time>
  </trkpt>
  <trkpt lat="34.130616" lon="-4.413154">
   <ele>277.00</ele>
   <time>2014-04-07T12:07:28Z</time>
  </trkpt>
  <trkpt lat="34.130734" lon="-4.413535">
   <ele>277.00</ele>
   <time>2014-04-07T12:07:30Z</time>
  </trkpt>
  <trkpt lat="34.130878" lon="-4.413908">
   <ele>277.00</ele>
   <time>2014-04-07T12:07:32Z</time>
  </trkpt>
  <trkpt lat="34.131323" lon="-4.415087">
   <ele>275.00</ele>
   <time>2014-04-07T12:07:38Z</time>
  </trkpt>
  <trkpt lat="34.131391" lon="-4.415309">
   <ele>275.00</ele>
   <time>2014-04-07T12:07:39Z</time>
  </trkpt>
  <trkpt lat="34.131453" lon="-4.415542">
   <ele>275.00</ele>
   <time>2014-04-07T12:07:40Z</time>
  </trkpt>
  <trkpt lat="34.131505" lon="-4.415780">
   <ele>275.00</ele>
   <time>2014-04-07T12:07:41Z</time>
  </trkpt>
  <trkpt lat="34.131546" lon="-4.416017">
   <ele>275.00</ele>
   <time>2014-04-07T12:07:42Z</time>
  </trkpt>
  <trkpt lat="34.131577" lon="-4.416256">
   <ele>275.00</ele>
   <time>2014-04-07T12:07:43Z</time>
  </trkpt>
  <trkpt lat="34.131600" lon="-4.416498">
   <ele>274.00</ele>
   <time>2014-04-07T12:07:44Z</time>
  </trkpt>
  <trkpt lat="34.131628" lon="-4.416999">
   <ele>274.00</ele>
   <time>2014-04-07T12:07:46Z</time>
  </trkpt>
  <trkpt lat="34.131669" lon="-4.418314">
   <ele>275.00</ele>
   <time>2014-04-07T12:07:51Z</time>
  </trkpt>
  <trkpt lat="34.131712" lon="-4.422270">
   <ele>277.00</ele>
   <time>2014-04-07T12:08:06Z</time>
  </trkpt>
  <trkpt lat="34.131771" lon="-4.426440">
   <ele>284.00</ele>
   <time>2014-04-07T12:08:22Z</time>
  </trkpt>
  <trkpt lat="34.131807" lon="-4.430465">
   <ele>290.00</ele>
   <time>2014-04-07T12:08:37Z</time>
  </trkpt>
  <trkpt lat="34.131839" lon="-4.434797">
   <ele>292.00</ele>
   <time>2014-04-07T12:08:52Z</time>
  </trkpt>
  <trkpt lat="34.131872" lon="-4.439593">
   <ele>296.00</ele>
   <time>2014-04-07T12:09:08Z</time>
  </trkpt>
  <trkpt lat="34.131898" lon="-4.443733">
   <ele>298.00</ele>
   <time>2014-04-07T12:09:23Z</time>
  </trkpt>
  <trkpt lat="34.131926" lon="-4.445555">
   <ele>303.00</ele>
   <time>2014-04-07T12:09:30Z</time>
  </trkpt>
  <trkpt lat="34.131943" lon="-4.445803">
   <ele>304.00</ele>
   <time>2014-04-07T12:09:31Z</time>
  </trkpt>
  <trkpt lat="34.131996" lon="-4.446289">
   <ele>305.00</ele>
   <time>2014-04-07T12:09:33Z</time>
  </trkpt>
  <trkpt lat="34.132350" lon="-4.448875">
   <ele>308.00</ele>
   <time>2014-04-07T12:09:44Z</time>
  </trkpt>
  <trkpt lat="34.132365" lon="-4.449103">
   <ele>309.00</ele>
   <time>2014-04-07T12:09:45Z</time>
  </trkpt>
  <trkpt lat="34.132371" lon="-4.449332">
   <ele>309.00</ele>
   <time>2014-04-07T12:09:46Z</time>
  </trkpt>
  <trkpt lat="34.132368" lon="-4.449560">
   <ele>310.00</ele>
   <time>2014-04-07T12:09:47Z</time>
  </trkpt>
  <trkpt lat="34.132354" lon="-4.449788">
   <ele>310.00</ele>
   <time>2014-04-07T12:09:48Z</time>
  </trkpt>
  <trkpt lat="34.132327" lon="-4.450016">
   <ele>310.00</ele>
   <time>2014-04-07T12:09:49Z</time>
  </trkpt>
  <trkpt lat="34.132287" lon="-4.450243">
   <ele>310.00</ele>
   <time>2014-04-07T12:09:50Z</time>
  </trkpt>
  <trkpt lat="34.132235" lon="-4.450470">
   <ele>310.00</ele>
   <time>2014-04-07T12:09:51Z</time>
  </trkpt>
  <trkpt lat="34.132175" lon="-4.450696">
   <ele>310.00</ele>
   <time>2014-04-07T12:09:52Z</time>
  </trkpt>
  <trkpt lat="34.132105" lon="-4.450921">
   <ele>310.00</ele>
   <time>2014-04-07T12:09:53Z</time>
  </trkpt>
  <trkpt lat="34.132025" lon="-4.451145">
   <ele>309.00</ele>
   <time>2014-04-07T12:09:54Z</time>
  </trkpt>
  <trkpt lat="34.130992" lon="-4.453845">
   <ele>300.00</ele>
   <time>2014-04-07T12:10:06Z</time>
  </trkpt>
  <trkpt lat="34.130927" lon="-4.454087">
   <ele>299.00</ele>
   <time>2014-04-07T12:10:07Z</time>
  </trkpt>
  <trkpt lat="34.130871" lon="-4.454334">
   <ele>298.00</ele>
   <time>2014-04-07T12:10:08Z</time>
  </trkpt>
  <trkpt lat="34.130776" lon="-4.454839">
   <ele>296.00</ele>
   <time>2014-04-07T12:10:10Z</time>
  </trkpt>
  <trkpt lat="34.130703" lon="-4.455350">
   <ele>295.00</ele>
   <time>2014-04-07T12:10:12Z</time>
  </trkpt>
  <trkpt lat="34.130682" lon="-4.455607">
   <ele>295.00</ele>
   <time>2014-04-07T12:10:13Z</time>
  </trkpt>
  <trkpt lat="34.130679" lon="-4.455863">
   <ele>295.00</ele>
   <time>2014-04-07T12:10:14Z</time>
  </trkpt>
  <trkpt lat="34.130697" lon="-4.456117">
   <ele>296.00</ele>
   <time>2014-04-07T12:10:15Z</time>
  </trkpt>
  <trkpt lat="34.130782" lon="-4.456610">
   <ele>297.00</ele>
   <time>2014-04-07T12:10:17Z</time>
  </trkpt>
  <trkpt lat="34.130844" lon="-4.456849">
   <ele>298.00</ele>
   <time>2014-04-07T12:10:18Z</time>
  </trkpt>
  <trkpt lat="34.131101" lon="-4.457761">
   <ele>301.00</ele>
   <time>2014-04-07T12:10:22Z</time>
  </trkpt>
  <trkpt lat="34.131144" lon="-4.457994">
   <ele>301.00</ele>
   <time>2014-04-07T12:10:23Z</time>
  </trkpt>
  <trkpt lat="34.131176" lon="-4.458231">
   <ele>302.00</ele>
   <time>2014-04-07T12:10:24Z</time>
  </trkpt>
  <trkpt lat="34.131192" lon="-4.458473">
   <ele>302.00</ele>
   <time>2014-04-07T12:10:25Z</time>
  </trkpt>
  <trkpt lat="34.131193" lon="-4.458720">
   <ele>303.00</ele>
   <time>2014-04-07T12:10:26Z</time>
  </trkpt>
  <trkpt lat="34.131178" lon="-4.458969">
   <ele>303.00</ele>
   <time>2014-04-07T12:10:27Z</time>
  </trkpt>
  <trkpt lat="34.131127" lon="-4.459476">
   <ele>304.00</ele>
   <time>2014-04-07T12:10:29Z</time>
  </trkpt>
  <trkpt lat="34.130599" lon="-4.463746">
   <ele>301.00</ele>
   <time>2014-04-07T12:10:45Z</time>
  </trkpt>
  <trkpt lat="34.130107" lon="-4.467751">
   <ele>298.00</ele>
   <time>2014-04-07T12:11:00Z</time>
  </trkpt>
  <trkpt lat="34.129599" lon="-4.471880">
   <ele>294.00</ele>
   <time>2014-04-07T12:11:15Z</time>
  </trkpt>
  <trkpt lat="34.129322" lon="-4.474174">
   <ele>291.00</ele>
   <time>2014-04-07T12:11:24Z</time>
  </trkpt>
  <trkpt lat="34.129305" lon="-4.474412">
   <ele>291.00</ele>
   <time>2014-04-07T12:11:25Z</time>
  </trkpt>
  <trkpt lat="34.129295" lon="-4.474879">
   <ele>290.00</ele>
   <time>2014-04-07T12:11:27Z</time>
  </trkpt>
  <trkpt lat="34.129303" lon="-4.475107">
   <ele>290.00</ele>
   <time>2014-04-07T12:11:28Z</time>
  </trkpt>
  <trkpt lat="34.129319" lon="-4.475331">
   <ele>290.00</ele>
   <time>2014-04-07T12:11:29Z</time>
  </trkpt>
  <trkpt lat="34.129345" lon="-4.475550">
   <ele>289.00</ele>
   <time>2014-04-07T12:11:30Z</time>
  </trkpt>
  <trkpt lat="34.129377" lon="-4.475764">
   <ele>289.00</ele>
   <time>2014-04-07T12:11:31Z</time>
  </trkpt>
  <trkpt lat="34.129465" lon="-4.476180">
   <ele>288.00</ele>
   <time>2014-04-07T12:11:33Z</time>
  </trkpt>
  <trkpt lat="34.129574" lon="-4.476585">
   <ele>288.00</ele>
   <time>2014-04-07T12:11:35Z</time>
  </trkpt>
  <trkpt lat="34.129707" lon="-4.476986">
   <ele>287.00</ele>
   <time>2014-04-07T12:11:37Z</time>
  </trkpt>
  <trkpt lat="34.129787" lon="-4.477183">
   <ele>287.00</ele>
   <time>2014-04-07T12:11:38Z</time>
  </trkpt>
  <trkpt lat="34.129876" lon="-4.477378">
   <ele>286.00</ele>
   <time>2014-04-07T12:11:39Z</time>
  </trkpt>
  <trkpt lat="34.129973" lon="-4.477568">
   <ele>286.00</ele>
   <time>2014-04-07T12:11:40Z</time>
  </trkpt>
  <trkpt lat="34.130077" lon="-4.477755">
   <ele>285.00</ele>
   <time>2014-04-07T12:11:41Z</time>
  </trkpt>
  <trkpt lat="34.130306" lon="-4.478118">
   <ele>285.00</ele>
   <time>2014-04-07T12:11:43Z</time>
  </trkpt>
  <trkpt lat="34.130431" lon="-4.478292">
   <ele>284.00</ele>
   <time>2014-04-07T12:11:44Z</time>
  </trkpt>
  <trkpt lat="34.130696" lon="-4.478626">
   <ele>285.00</ele>
   <time>2014-04-07T12:11:46Z</time>
  </trkpt>
  <trkpt lat="34.132693" lon="-4.481062">
   <ele>293.00</ele>
   <time>2014-04-07T12:12:01Z</time>
  </trkpt>
  <trkpt lat="34.133425" lon="-4.481963">
   <ele>297.00</ele>
   <time>2014-04-07T12:12:07Z</time>
  </trkpt>
  <trkpt lat="34.133633" lon="-4.482258">
   <ele>297.00</ele>
   <time>2014-04-07T12:12:09Z</time>
  </trkpt>
  <trkpt lat="34.133809" lon="-4.482557">
   <ele>298.00</ele>
   <time>2014-04-07T12:12:11Z</time>
  </trkpt>
  <trkpt lat="34.133964" lon="-4.482858">
   <ele>298.00</ele>
   <time>2014-04-07T12:12:13Z</time>
  </trkpt>
  <trkpt lat="34.134173" lon="-4.483321">
   <ele>298.00</ele>
   <time>2014-04-07T12:12:16Z</time>
  </trkpt>
  <trkpt lat="34.135071" lon="-4.485426">
   <ele>292.00</ele>
   <time>2014-04-07T12:12:31Z</time>
  </trkpt>
  <trkpt lat="34.135182" lon="-4.485699">
   <ele>290.00</ele>
   <time>2014-04-07T12:12:33Z</time>
  </trkpt>
  <trkpt lat="34.135280" lon="-4.485984">
   <ele>289.00</ele>
   <time>2014-04-07T12:12:35Z</time>
  </trkpt>
  <trkpt lat="34.135356" lon="-4.486264">
   <ele>287.00</ele>
   <time>2014-04-07T12:12:37Z</time>
  </trkpt>
  <trkpt lat="34.135406" lon="-4.486535">
   <ele>286.00</ele>
   <time>2014-04-07T12:12:39Z</time>
  </trkpt>
  <trkpt lat="34.135437" lon="-4.486811">
   <ele>284.00</ele>
   <time>2014-04-07T12:12:41Z</time>
  </trkpt>
  <trkpt lat="34.135450" lon="-4.487096">
   <ele>282.00</ele>
   <time>2014-04-07T12:12:43Z</time>
  </trkpt>
  <trkpt lat="34.135439" lon="-4.487388">
   <ele>281.00</ele>
   <time>2014-04-07T12:12:45Z</time>
  </trkpt>
  <trkpt lat="34.135405" lon="-4.487679">
   <ele>279.00</ele>
   <time>2014-04-07T12:12:47Z</time>
  </trkpt>
  <trkpt lat="34.135352" lon="-4.487962">
   <ele>278.00</ele>
   <time>2014-04-07T12:12:49Z</time>
  </trkpt>
  <trkpt lat="34.135279" lon="-4.488239">
   <ele>276.00</ele>
   <time>2014-04-07T12:12:51Z</time>
  </trkpt>
  <trkpt lat="34.135194" lon="-4.488511">
   <ele>274.00</ele>
   <time>2014-04-07T12:12:53Z</time>
  </trkpt>
  <trkpt lat="34.134720" lon="-4.489913">
   <ele>268.00</ele>
   <time>2014-04-07T12:13:04Z</time>
  </trkpt>
  <trkpt lat="34.134630" lon="-4.490176">
   <ele>268.00</ele>
   <time>2014-04-07T12:13:06Z</time>
  </trkpt>
  <trkpt lat="34.134046" lon="-4.491929">
   <ele>264.00</ele>
   <time>2014-04-07T12:13:21Z</time>
  </trkpt>
  <trkpt lat="34.133498" lon="-4.493573">
   <ele>263.00</ele>
   <time>2014-04-07T12:13:37Z</time>
  </trkpt>
  <trkpt lat="34.133209" lon="-4.494437">
   <ele>261.00</ele>
   <time>2014-04-07T12:13:52Z</time>
  </trkpt>
  <trkpt lat="34.133116" lon="-4.494749">
   <ele>260.00</ele>
   <time>2014-04-07T12:13:56Z</time>
  </trkpt>
  <trkpt lat="34.133056" lon="-4.495006">
   <ele>260.00</ele>
   <time>2014-04-07T12:13:59Z</time>
  </trkpt>
  <trkpt lat="34.132999" lon="-4.495318">
   <ele>259.00</ele>
   <time>2014-04-07T12:14:02Z</time>
  </trkpt>
  <trkpt lat="34.132926" lon="-4.495867">
   <ele>257.00</ele>
   <time>2014-04-07T12:14:06Z</time>
  </trkpt>
  <trkpt lat="34.132858" lon="-4.496525">
   <ele>255.00</ele>
   <time>2014-04-07T12:14:10Z</time>
  </trkpt>
  <trkpt lat="34.132844" lon="-4.496894">
   <ele>253.00</ele>
   <time>2014-04-07T12:14:12Z</time>
  </trkpt>
  <trkpt lat="34.132861" lon="-4.497274">
   <ele>253.00</ele>
   <time>2014-04-07T12:14:14Z</time>
  </trkpt>
  <trkpt lat="34.132910" lon="-4.497649">
   <ele>252.00</ele>
   <time>2014-04-07T12:14:16Z</time>
  </trkpt>
  <trkpt lat="34.132980" lon="-4.498011">
   <ele>251.00</ele>
   <time>2014-04-07T12:14:18Z</time>
  </trkpt>
  <trkpt lat="34.133098" lon="-4.498531">
   <ele>249.00</ele>
   <time>2014-04-07T12:14:21Z</time>
  </trkpt>
  <trkpt lat="34.133193" lon="-4.498860">
   <ele>248.00</ele>
   <time>2014-04-07T12:14:23Z</time>
  </trkpt>
  <trkpt lat="34.133305" lon="-4.499172">
   <ele>246.00</ele>
   <time>2014-04-07T12:14:25Z</time>
  </trkpt>
  <trkpt lat="34.133436" lon="-4.499470">
   <ele>245.00</ele>
   <time>2014-04-07T12:14:27Z</time>
  </trkpt>
  <trkpt lat="34.133580" lon="-4.499743">
   <ele>244.00</ele>
   <time>2014-04-07T12:14:29Z</time>
  </trkpt>
  <trkpt lat="34.134101" lon="-4.500697">
   <ele>238.00</ele>
   <time>2014-04-07T12:14:37Z</time>
  </trkpt>
  <trkpt lat="34.134206" lon="-4.500928">
   <ele>237.00</ele>
   <time>2014-04-07T12:14:39Z</time>
  </trkpt>
  <trkpt lat="34.134291" lon="-4.501170">
   <ele>236.00</ele>
   <time>2014-04-07T12:14:41Z</time>
  </trkpt>
  <trkpt lat="34.134357" lon="-4.501419">
   <ele>235.00</ele>
   <time>2014-04-07T12:14:43Z</time>
  </trkpt>
  <trkpt lat="34.134408" lon="-4.501678">
   <ele>234.00</ele>
   <time>2014-04-07T12:14:45Z</time>
  </trkpt>
  <trkpt lat="34.134447" lon="-4.501952">
   <ele>234.00</ele>
   <time>2014-04-07T12:14:47Z</time>
  </trkpt>
  <trkpt lat="34.134466" lon="-4.502227">
   <ele>234.00</ele>
   <time>2014-04-07T12:14:49Z</time>
  </trkpt>
  <trkpt lat="34.134467" lon="-4.502503">
   <ele>234.00</ele>
   <time>2014-04-07T12:14:51Z</time>
  </trkpt>
  <trkpt lat="34.134450" lon="-4.502788">
   <ele>234.00</ele>
   <time>2014-04-07T12:14:53Z</time>
  </trkpt>
  <trkpt lat="34.134404" lon="-4.503074">
   <ele>234.00</ele>
   <time>2014-04-07T12:14:55Z</time>
  </trkpt>
  <trkpt lat="34.134331" lon="-4.503364">
   <ele>235.00</ele>
   <time>2014-04-07T12:14:57Z</time>
  </trkpt>
  <trkpt lat="34.134230" lon="-4.503674">
   <ele>235.00</ele>
   <time>2014-04-07T12:14:59Z</time>
  </trkpt>
  <trkpt lat="34.134093" lon="-4.503993">
   <ele>235.00</ele>
   <time>2014-04-07T12:15:01Z</time>
  </trkpt>
  <trkpt lat="34.133918" lon="-4.504305">
   <ele>235.00</ele>
   <time>2014-04-07T12:15:03Z</time>
  </trkpt>
  <trkpt lat="34.133403" lon="-4.505086">
   <ele>236.00</ele>
   <time>2014-04-07T12:15:08Z</time>
  </trkpt>
  <trkpt lat="34.131722" lon="-4.507596">
   <ele>237.00</ele>
   <time>2014-04-07T12:15:23Z</time>
  </trkpt>
  <trkpt lat="34.129729" lon="-4.510581">
   <ele>237.00</ele>
   <time>2014-04-07T12:15:39Z</time>
  </trkpt>
  <trkpt lat="34.128172" lon="-4.512932">
   <ele>237.00</ele>
   <time>2014-04-07T12:15:54Z</time>
  </trkpt>
  <trkpt lat="34.127764" lon="-4.513607">
   <ele>237.00</ele>
   <time>2014-04-07T12:15:58Z</time>
  </trkpt>
  <trkpt lat="34.127578" lon="-4.513961">
   <ele>238.00</ele>
   <time>2014-04-07T12:16:00Z</time>
  </trkpt>
  <trkpt lat="34.126929" lon="-4.515290">
   <ele>239.00</ele>
   <time>2014-04-07T12:16:07Z</time>
  </trkpt>
  <trkpt lat="34.126714" lon="-4.515652">
   <ele>240.00</ele>
   <time>2014-04-07T12:16:09Z</time>
  </trkpt>
  <trkpt lat="34.126369" lon="-4.516154">
   <ele>240.00</ele>
   <time>2014-04-07T12:16:12Z</time>
  </trkpt>
  <trkpt lat="34.126123" lon="-4.516490">
   <ele>240.00</ele>
   <time>2014-04-07T12:16:14Z</time>
  </trkpt>
  <trkpt lat="34.125590" lon="-4.517179">
   <ele>240.00</ele>
   <time>2014-04-07T12:16:18Z</time>
  </trkpt>
  <trkpt lat="34.125289" lon="-4.517570">
   <ele>241.00</ele>
   <time>2014-04-07T12:16:20Z</time>
  </trkpt>
  <trkpt lat="34.124995" lon="-4.517991">
   <ele>241.00</ele>
   <time>2014-04-07T12:16:22Z</time>
  </trkpt>
  <trkpt lat="34.124565" lon="-4.518601">
   <ele>240.00</ele>
   <time>2014-04-07T12:16:25Z</time>
  </trkpt>
  <trkpt lat="34.122337" lon="-4.521594">
   <ele>239.00</ele>
   <time>2014-04-07T12:16:41Z</time>
  </trkpt>
  <trkpt lat="34.120282" lon="-4.524344">
   <ele>241.00</ele>
   <time>2014-04-07T12:16:56Z</time>
  </trkpt>
  <trkpt lat="34.118709" lon="-4.526438">
   <ele>240.00</ele>
   <time>2014-04-07T12:17:11Z</time>
  </trkpt>
  <trkpt lat="34.117330" lon="-4.528244">
   <ele>240.00</ele>
   <time>2014-04-07T12:17:27Z</time>
  </trkpt>
  <trkpt lat="34.116135" lon="-4.529822">
   <ele>244.00</ele>
   <time>2014-04-07T12:17:42Z</time>
  </trkpt>
  <trkpt lat="34.114776" lon="-4.531600">
   <ele>248.00</ele>
   <time>2014-04-07T12:17:57Z</time>
  </trkpt>
  <trkpt lat="34.114393" lon="-4.532137">
   <ele>247.00</ele>
   <time>2014-04-07T12:18:01Z</time>
  </trkpt>
  <trkpt lat="34.114216" lon="-4.532421">
   <ele>246.00</ele>
   <time>2014-04-07T12:18:03Z</time>
  </trkpt>
  <trkpt lat="34.114055" lon="-4.532727">
   <ele>245.00</ele>
   <time>2014-04-07T12:18:05Z</time>
  </trkpt>
  <trkpt lat="34.113918" lon="-4.533056">
   <ele>243.00</ele>
   <time>2014-04-07T12:18:07Z</time>
  </trkpt>
  <trkpt lat="34.113815" lon="-4.533411">
   <ele>242.00</ele>
   <time>2014-04-07T12:18:09Z</time>
  </trkpt>
  <trkpt lat="34.113748" lon="-4.533783">
   <ele>240.00</ele>
   <time>2014-04-07T12:18:11Z</time>
  </trkpt>
  <trkpt lat="34.113714" lon="-4.534170">
   <ele>237.00</ele>
   <time>2014-04-07T12:18:13Z</time>
  </trkpt>
  <trkpt lat="34.113724" lon="-4.534573">
   <ele>236.00</ele>
   <time>2014-04-07T12:18:15Z</time>
  </trkpt>
  <trkpt lat="34.113769" lon="-4.534992">
   <ele>234.00</ele>
   <time>2014-04-07T12:18:17Z</time>
  </trkpt>
  <trkpt lat="34.114311" lon="-4.538564">
   <ele>231.00</ele>
   <time>2014-04-07T12:18:33Z</time>
  </trkpt>
  <trkpt lat="34.114353" lon="-4.539026">
   <ele>231.00</ele>
   <time>2014-04-07T12:18:35Z</time>
  </trkpt>
  <trkpt lat="34.114372" lon="-4.539479">
   <ele>232.00</ele>
   <time>2014-04-07T12:18:37Z</time>
  </trkpt>
  <trkpt lat="34.114367" lon="-4.539907">
   <ele>233.00</ele>
   <time>2014-04-07T12:18:39Z</time>
  </trkpt>
  <trkpt lat="34.114308" lon="-4.540320">
   <ele>234.00</ele>
   <time>2014-04-07T12:18:41Z</time>
  </trkpt>
  <trkpt lat="34.114186" lon="-4.540724">
   <ele>235.00</ele>
   <time>2014-04-07T12:18:43Z</time>
  </trkpt>
  <trkpt lat="34.114030" lon="-4.541121">
   <ele>236.00</ele>
   <time>2014-04-07T12:18:45Z</time>
  </trkpt>
  <trkpt lat="34.113941" lon="-4.541312">
   <ele>236.00</ele>
   <time>2014-04-07T12:18:46Z</time>
  </trkpt>
  <trkpt lat="34.113843" lon="-4.541499">
   <ele>236.00</ele>
   <time>2014-04-07T12:18:47Z</time>
  </trkpt>
  <trkpt lat="34.113736" lon="-4.541680">
   <ele>236.00</ele>
   <time>2014-04-07T12:18:48Z</time>
  </trkpt>
  <trkpt lat="34.113621" lon="-4.541856">
   <ele>236.00</ele>
   <time>2014-04-07T12:18:49Z</time>
  </trkpt>
  <trkpt lat="34.113497" lon="-4.542025">
   <ele>236.00</ele>
   <time>2014-04-07T12:18:50Z</time>
  </trkpt>
  <trkpt lat="34.113366" lon="-4.542187">
   <ele>236.00</ele>
   <time>2014-04-07T12:18:51Z</time>
  </trkpt>
  <trkpt lat="34.113088" lon="-4.542498">
   <ele>236.00</ele>
   <time>2014-04-07T12:18:53Z</time>
  </trkpt>
  <trkpt lat="34.110913" lon="-4.544827">
   <ele>234.00</ele>
   <time>2014-04-07T12:19:08Z</time>
  </trkpt>
  <trkpt lat="34.110781" lon="-4.544990">
   <ele>234.00</ele>
   <time>2014-04-07T12:19:09Z</time>
  </trkpt>
  <trkpt lat="34.110540" lon="-4.545327">
   <ele>235.00</ele>
   <time>2014-04-07T12:19:11Z</time>
  </trkpt>
  <trkpt lat="34.110429" lon="-4.545505">
   <ele>235.00</ele>
   <time>2014-04-07T12:19:12Z</time>
  </trkpt>
  <trkpt lat="34.110216" lon="-4.545877">
   <ele>235.00</ele>
   <time>2014-04-07T12:19:14Z</time>
  </trkpt>
  <trkpt lat="34.109177" lon="-4.547830">
   <ele>238.00</ele>
   <time>2014-04-07T12:19:24Z</time>
  </trkpt>
  <trkpt lat="34.109061" lon="-4.548016">
   <ele>238.00</ele>
   <time>2014-04-07T12:19:25Z</time>
  </trkpt>
  <trkpt lat="34.108939" lon="-4.548194">
   <ele>238.00</ele>
   <time>2014-04-07T12:19:26Z</time>
  </trkpt>
  <trkpt lat="34.108682" lon="-4.548533">
   <ele>238.00</ele>
   <time>2014-04-07T12:19:28Z</time>
  </trkpt>
  <trkpt lat="34.108410" lon="-4.548856">
   <ele>239.00</ele>
   <time>2014-04-07T12:19:30Z</time>
  </trkpt>
  <trkpt lat="34.108265" lon="-4.549005">
   <ele>239.00</ele>
   <time>2014-04-07T12:19:31Z</time>
  </trkpt>
  <trkpt lat="34.108113" lon="-4.549143">
   <ele>239.00</ele>
   <time>2014-04-07T12:19:32Z</time>
  </trkpt>
  <trkpt lat="34.107954" lon="-4.549268">
   <ele>239.00</ele>
   <time>2014-04-07T12:19:33Z</time>
  </trkpt>
  <trkpt lat="34.107788" lon="-4.549383">
   <ele>239.00</ele>
   <time>2014-04-07T12:19:34Z</time>
  </trkpt>
  <trkpt lat="34.107619" lon="-4.549489">
   <ele>239.00</ele>
   <time>2014-04-07T12:19:35Z</time>
  </trkpt>
  <trkpt lat="34.107267" lon="-4.549681">
   <ele>240.00</ele>
   <time>2014-04-07T12:19:37Z</time>
  </trkpt>
  <trkpt lat="34.106905" lon="-4.549851">
   <ele>239.00</ele>
   <time>2014-04-07T12:19:39Z</time>
  </trkpt>
  <trkpt lat="34.105474" lon="-4.550452">
   <ele>237.00</ele>
   <time>2014-04-07T12:19:47Z</time>
  </trkpt>
  <trkpt lat="34.105133" lon="-4.550635">
   <ele>236.00</ele>
   <time>2014-04-07T12:19:49Z</time>
  </trkpt>
  <trkpt lat="34.104800" lon="-4.550842">
   <ele>236.00</ele>
   <time>2014-04-07T12:19:51Z</time>
  </trkpt>
  <trkpt lat="34.104639" lon="-4.550959">
   <ele>235.00</ele>
   <time>2014-04-07T12:19:52Z</time>
  </trkpt>
  <trkpt lat="34.104485" lon="-4.551086">
   <ele>235.00</ele>
   <time>2014-04-07T12:19:53Z</time>
  </trkpt>
  <trkpt lat="34.104340" lon="-4.551227">
   <ele>235.00</ele>
   <time>2014-04-07T12:19:54Z</time>
  </trkpt>
  <trkpt lat="34.104204" lon="-4.551379">
   <ele>235.00</ele>
   <time>2014-04-07T12:19:55Z</time>
  </trkpt>
  <trkpt lat="34.103949" lon="-4.551700">
   <ele>234.00</ele>
   <time>2014-04-07T12:19:57Z</time>
  </trkpt>
  <trkpt lat="34.103716" lon="-4.552032">
   <ele>234.00</ele>
   <time>2014-04-07T12:19:59Z</time>
  </trkpt>
  <trkpt lat="34.103516" lon="-4.552388">
   <ele>234.00</ele>
   <time>2014-04-07T12:20:01Z</time>
  </trkpt>
  <trkpt lat="34.103349" lon="-4.552767">
   <ele>234.00</ele>
   <time>2014-04-07T12:20:03Z</time>
  </trkpt>
  <trkpt lat="34.103213" lon="-4.553155">
   <ele>234.00</ele>
   <time>2014-04-07T12:20:05Z</time>
  </trkpt>
  <trkpt lat="34.103108" lon="-4.553553">
   <ele>234.00</ele>
   <time>2014-04-07T12:20:07Z</time>
  </trkpt>
  <trkpt lat="34.103033" lon="-4.553962">
   <ele>234.00</ele>
   <time>2014-04-07T12:20:09Z</time>
  </trkpt>
  <trkpt lat="34.102987" lon="-4.554376">
   <ele>234.00</ele>
   <time>2014-04-07T12:20:11Z</time>
  </trkpt>
  <trkpt lat="34.102962" lon="-4.554789">
   <ele>234.00</ele>
   <time>2014-04-07T12:20:13Z</time>
  </trkpt>
  <trkpt lat="34.102813" lon="-4.557700">
   <ele>232.00</ele>
   <time>2014-04-07T12:20:27Z</time>
  </trkpt>
  <trkpt lat="34.102821" lon="-4.558324">
   <ele>232.00</ele>
   <time>2014-04-07T12:20:30Z</time>
  </trkpt>
  <trkpt lat="34.102845" lon="-4.558733">
   <ele>233.00</ele>
   <time>2014-04-07T12:20:32Z</time>
  </trkpt>
  <trkpt lat="34.102895" lon="-4.559134">
   <ele>233.00</ele>
   <time>2014-04-07T12:20:34Z</time>
  </trkpt>
  <trkpt lat="34.102972" lon="-4.559526">
   <ele>235.00</ele>
   <time>2014-04-07T12:20:36Z</time>
  </trkpt>
  <trkpt lat="34.103665" lon="-4.562455">
   <ele>240.00</ele>
   <time>2014-04-07T12:20:51Z</time>
  </trkpt>
  <trkpt lat="34.103729" lon="-4.562868">
   <ele>240.00</ele>
   <time>2014-04-07T12:20:53Z</time>
  </trkpt>
  <trkpt lat="34.103859" lon="-4.563921">
   <ele>240.00</ele>
   <time>2014-04-07T12:20:58Z</time>
  </trkpt>
  <trkpt lat="34.103904" lon="-4.564559">
   <ele>240.00</ele>
   <time>2014-04-07T12:21:01Z</time>
  </trkpt>
  <trkpt lat="34.103924" lon="-4.565185">
   <ele>240.00</ele>
   <time>2014-04-07T12:21:04Z</time>
  </trkpt>
  <trkpt lat="34.103908" lon="-4.566003">
   <ele>239.00</ele>
   <time>2014-04-07T12:21:08Z</time>
  </trkpt>
  <trkpt lat="34.103881" lon="-4.566600">
   <ele>238.00</ele>
   <time>2014-04-07T12:21:11Z</time>
  </trkpt>
  <trkpt lat="34.103850" lon="-4.566997">
   <ele>237.00</ele>
   <time>2014-04-07T12:21:13Z</time>
  </trkpt>
  <trkpt lat="34.103784" lon="-4.567587">
   <ele>235.00</ele>
   <time>2014-04-07T12:21:16Z</time>
  </trkpt>
  <trkpt lat="34.103700" lon="-4.568171">
   <ele>234.00</ele>
   <time>2014-04-07T12:21:19Z</time>
  </trkpt>
  <trkpt lat="34.103321" lon="-4.570597">
   <ele>228.00</ele>
   <time>2014-04-07T12:21:31Z</time>
  </trkpt>
  <trkpt lat="34.103234" lon="-4.571388">
   <ele>228.00</ele>
   <time>2014-04-07T12:21:35Z</time>
  </trkpt>
  <trkpt lat="34.103205" lon="-4.571780">
   <ele>228.00</ele>
   <time>2014-04-07T12:21:37Z</time>
  </trkpt>
  <trkpt lat="34.103188" lon="-4.572173">
   <ele>228.00</ele>
   <time>2014-04-07T12:21:39Z</time>
  </trkpt>
  <trkpt lat="34.103188" lon="-4.572570">
   <ele>228.00</ele>
   <time>2014-04-07T12:21:41Z</time>
  </trkpt>
  <trkpt lat="34.103210" lon="-4.573178">
   <ele>228.00</ele>
   <time>2014-04-07T12:21:44Z</time>
  </trkpt>
  <trkpt lat="34.103244" lon="-4.573590">
   <ele>228.00</ele>
   <time>2014-04-07T12:21:46Z</time>
  </trkpt>
  <trkpt lat="34.103325" lon="-4.574215">
   <ele>230.00</ele>
   <time>2014-04-07T12:21:49Z</time>
  </trkpt>
  <trkpt lat="34.103758" lon="-4.577406">
   <ele>235.00</ele>
   <time>2014-04-07T12:22:04Z</time>
  </trkpt>
  <trkpt lat="34.104073" lon="-4.579984">
   <ele>234.00</ele>
   <time>2014-04-07T12:22:19Z</time>
  </trkpt>
  <trkpt lat="34.104317" lon="-4.582082">
   <ele>232.00</ele>
   <time>2014-04-07T12:22:35Z</time>
  </trkpt>
  <trkpt lat="34.104583" lon="-4.584330">
   <ele>230.00</ele>
   <time>2014-04-07T12:22:49Z</time>
  </trkpt>
  <trkpt lat="34.104608" lon="-4.584670">
   <ele>230.00</ele>
   <time>2014-04-07T12:22:51Z</time>
  </trkpt>
  <trkpt lat="34.104619" lon="-4.585019">
   <ele>230.00</ele>
   <time>2014-04-07T12:22:53Z</time>
  </trkpt>
  <trkpt lat="34.104615" lon="-4.585379">
   <ele>230.00</ele>
   <time>2014-04-07T12:22:55Z</time>
  </trkpt>
  <trkpt lat="34.104593" lon="-4.585741">
   <ele>230.00</ele>
   <time>2014-04-07T12:22:57Z</time>
  </trkpt>
  <trkpt lat="34.104547" lon="-4.586097">
   <ele>229.00</ele>
   <time>2014-04-07T12:22:59Z</time>
  </trkpt>
  <trkpt lat="34.104486" lon="-4.586447">
   <ele>230.00</ele>
   <time>2014-04-07T12:23:01Z</time>
  </trkpt>
  <trkpt lat="34.104403" lon="-4.586801">
   <ele>230.00</ele>
   <time>2014-04-07T12:23:03Z</time>
  </trkpt>
  <trkpt lat="34.104288" lon="-4.587159">
   <ele>229.00</ele>
   <time>2014-04-07T12:23:05Z</time>
  </trkpt>
  <trkpt lat="34.104149" lon="-4.587517">
   <ele>229.00</ele>
   <time>2014-04-07T12:23:07Z</time>
  </trkpt>
  <trkpt lat="34.103914" lon="-4.588052">
   <ele>229.00</ele>
   <time>2014-04-07T12:23:10Z</time>
  </trkpt>
  <trkpt lat="34.103725" lon="-4.588392">
   <ele>230.00</ele>
   <time>2014-04-07T12:23:12Z</time>
  </trkpt>
  <trkpt lat="34.103492" lon="-4.588702">
   <ele>231.00</ele>
   <time>2014-04-07T12:23:14Z</time>
  </trkpt>
  <trkpt lat="34.102475" lon="-4.589946">
   <ele>233.00</ele>
   <time>2014-04-07T12:23:22Z</time>
  </trkpt>
  <trkpt lat="34.102235" lon="-4.590276">
   <ele>234.00</ele>
   <time>2014-04-07T12:23:24Z</time>
  </trkpt>
  <trkpt lat="34.102122" lon="-4.590449">
   <ele>234.00</ele>
   <time>2014-04-07T12:23:25Z</time>
  </trkpt>
  <trkpt lat="34.101912" lon="-4.590803">
   <ele>234.00</ele>
   <time>2014-04-07T12:23:27Z</time>
  </trkpt>
  <trkpt lat="34.100454" lon="-4.593402">
   <ele>231.00</ele>
   <time>2014-04-07T12:23:42Z</time>
  </trkpt>
  <trkpt lat="34.099510" lon="-4.595114">
   <ele>230.00</ele>
   <time>2014-04-07T12:23:52Z</time>
  </trkpt>
  <trkpt lat="34.099352" lon="-4.595490">
   <ele>231.00</ele>
   <time>2014-04-07T12:23:54Z</time>
  </trkpt>
  <trkpt lat="34.099236" lon="-4.595887">
   <ele>233.00</ele>
   <time>2014-04-07T12:23:56Z</time>
  </trkpt>
  <trkpt lat="34.099152" lon="-4.596292">
   <ele>236.00</ele>
   <time>2014-04-07T12:23:58Z</time>
  </trkpt>
  <trkpt lat="34.099054" lon="-4.596908">
   <ele>238.00</ele>
   <time>2014-04-07T12:24:01Z</time>
  </trkpt>
  <trkpt lat="34.098560" lon="-4.600297">
   <ele>249.00</ele>
   <time>2014-04-07T12:24:17Z</time>
  </trkpt>
  <trkpt lat="34.098428" lon="-4.601114">
   <ele>249.00</ele>
   <time>2014-04-07T12:24:21Z</time>
  </trkpt>
  <trkpt lat="34.098337" lon="-4.601531">
   <ele>250.00</ele>
   <time>2014-04-07T12:24:23Z</time>
  </trkpt>
  <trkpt lat="34.098281" lon="-4.601740">
   <ele>250.00</ele>
   <time>2014-04-07T12:24:24Z</time>
  </trkpt>
  <trkpt lat="34.098217" lon="-4.601947">
   <ele>251.00</ele>
   <time>2014-04-07T12:24:25Z</time>
  </trkpt>
  <trkpt lat="34.098144" lon="-4.602150">
   <ele>252.00</ele>
   <time>2014-04-07T12:24:26Z</time>
  </trkpt>
  <trkpt lat="34.098059" lon="-4.602348">
   <ele>252.00</ele>
   <time>2014-04-07T12:24:27Z</time>
  </trkpt>
  <trkpt lat="34.097963" lon="-4.602538">
   <ele>253.00</ele>
   <time>2014-04-07T12:24:28Z</time>
  </trkpt>
  <trkpt lat="34.097856" lon="-4.602722">
   <ele>254.00</ele>
   <time>2014-04-07T12:24:29Z</time>
  </trkpt>
  <trkpt lat="34.097740" lon="-4.602898">
   <ele>255.00</ele>
   <time>2014-04-07T12:24:30Z</time>
  </trkpt>
  <trkpt lat="34.097615" lon="-4.603065">
   <ele>256.00</ele>
   <time>2014-04-07T12:24:31Z</time>
  </trkpt>
  <trkpt lat="34.097483" lon="-4.603223">
   <ele>257.00</ele>
   <time>2014-04-07T12:24:32Z</time>
  </trkpt>
  <trkpt lat="34.097210" lon="-4.603512">
   <ele>259.00</ele>
   <time>2014-04-07T12:24:34Z</time>
  </trkpt>
  <trkpt lat="34.096797" lon="-4.603901">
   <ele>262.00</ele>
   <time>2014-04-07T12:24:37Z</time>
  </trkpt>
  <trkpt lat="34.096394" lon="-4.604248">
   <ele>265.00</ele>
   <time>2014-04-07T12:24:40Z</time>
  </trkpt>
  <trkpt lat="34.096134" lon="-4.604449">
   <ele>268.00</ele>
   <time>2014-04-07T12:24:42Z</time>
  </trkpt>
  <trkpt lat="34.095904" lon="-4.604585">
   <ele>269.00</ele>
   <time>2014-04-07T12:24:44Z</time>
  </trkpt>
  <trkpt lat="34.095732" lon="-4.604664">
   <ele>271.00</ele>
   <time>2014-04-07T12:24:46Z</time>
  </trkpt>
  <trkpt lat="34.095529" lon="-4.604742">
   <ele>272.00</ele>
   <time>2014-04-07T12:24:49Z</time>
  </trkpt>
  <trkpt lat="34.095339" lon="-4.604796">
   <ele>275.00</ele>
   <time>2014-04-07T12:24:52Z</time>
  </trkpt>
  <trkpt lat="34.095107" lon="-4.604837">
   <ele>278.00</ele>
   <time>2014-04-07T12:24:56Z</time>
  </trkpt>
  <trkpt lat="34.094916" lon="-4.604851">
   <ele>281.00</ele>
   <time>2014-04-07T12:25:02Z</time>
  </trkpt>
  <trkpt lat="34.094717" lon="-4.604828">
   <ele>280.00</ele>
   <time>2014-04-07T12:25:12Z</time>
  </trkpt>
  <trkpt lat="34.094536" lon="-4.604801">
   <ele>280.00</ele>
   <time>2014-04-07T12:25:16Z</time>
  </trkpt>
  <trkpt lat="34.094299" lon="-4.604764">
   <ele>281.00</ele>
   <time>2014-04-07T12:25:19Z</time>
  </trkpt>
  <trkpt lat="34.094031" lon="-4.604688">
   <ele>281.00</ele>
   <time>2014-04-07T12:25:22Z</time>
  </trkpt>
  <trkpt lat="34.093825" lon="-4.604605">
   <ele>282.00</ele>
   <time>2014-04-07T12:25:24Z</time>
  </trkpt>
  <trkpt lat="34.093609" lon="-4.604487">
   <ele>284.00</ele>
   <time>2014-04-07T12:25:26Z</time>
  </trkpt>
  <trkpt lat="34.093385" lon="-4.604333">
   <ele>285.00</ele>
   <time>2014-04-07T12:25:28Z</time>
  </trkpt>
  <trkpt lat="34.092995" lon="-4.604041">
   <ele>288.00</ele>
   <time>2014-04-07T12:25:31Z</time>
  </trkpt>
  <trkpt lat="34.091063" lon="-4.602599">
   <ele>302.00</ele>
   <time>2014-04-07T12:25:43Z</time>
  </trkpt>
  <trkpt lat="34.090877" lon="-4.602498">
   <ele>303.00</ele>
   <time>2014-04-07T12:25:44Z</time>
  </trkpt>
  <trkpt lat="34.090684" lon="-4.602414">
   <ele>304.00</ele>
   <time>2014-04-07T12:25:45Z</time>
  </trkpt>
  <trkpt lat="34.090488" lon="-4.602346">
   <ele>305.00</ele>
   <time>2014-04-07T12:25:46Z</time>
  </trkpt>
  <trkpt lat="34.089919" lon="-4.602150">
   <ele>308.00</ele>
   <time>2014-04-07T12:25:49Z</time>
  </trkpt>
  <trkpt lat="34.089740" lon="-4.602067">
   <ele>309.00</ele>
   <time>2014-04-07T12:25:50Z</time>
  </trkpt>
  <trkpt lat="34.087370" lon="-4.600880">
   <ele>319.00</ele>
   <time>2014-04-07T12:26:05Z</time>
  </trkpt>
  <trkpt lat="34.087063" lon="-4.600731">
   <ele>319.00</ele>
   <time>2014-04-07T12:26:07Z</time>
  </trkpt>
  <trkpt lat="34.086748" lon="-4.600600">
   <ele>320.00</ele>
   <time>2014-04-07T12:26:09Z</time>
  </trkpt>
  <trkpt lat="34.086427" lon="-4.600496">
   <ele>320.00</ele>
   <time>2014-04-07T12:26:11Z</time>
  </trkpt>
  <trkpt lat="34.086099" lon="-4.600419">
   <ele>319.00</ele>
   <time>2014-04-07T12:26:13Z</time>
  </trkpt>
  <trkpt lat="34.085768" lon="-4.600373">
   <ele>319.00</ele>
   <time>2014-04-07T12:26:15Z</time>
  </trkpt>
  <trkpt lat="34.083903" lon="-4.600251">
   <ele>318.00</ele>
   <time>2014-04-07T12:26:27Z</time>
  </trkpt>
  <trkpt lat="34.081821" lon="-4.600137">
   <ele>322.00</ele>
   <time>2014-04-07T12:26:43Z</time>
  </trkpt>
  <trkpt lat="34.079925" lon="-4.600026">
   <ele>324.00</ele>
   <time>2014-04-07T12:26:58Z</time>
  </trkpt>
  <trkpt lat="34.078169" lon="-4.599923">
   <ele>327.00</ele>
   <time>2014-04-07T12:27:13Z</time>
  </trkpt>
  <trkpt lat="34.076247" lon="-4.599807">
   <ele>330.00</ele>
   <time>2014-04-07T12:27:29Z</time>
  </trkpt>
  <trkpt lat="34.074306" lon="-4.599698">
   <ele>333.00</ele>
   <time>2014-04-07T12:27:44Z</time>
  </trkpt>
  <trkpt lat="34.072086" lon="-4.599548">
   <ele>340.00</ele>
   <time>2014-04-07T12:27:59Z</time>
  </trkpt>
  <trkpt lat="34.069501" lon="-4.599386">
   <ele>346.00</ele>
   <time>2014-04-07T12:28:15Z</time>
  </trkpt>
  <trkpt lat="34.066839" lon="-4.599223">
   <ele>356.00</ele>
   <time>2014-04-07T12:28:30Z</time>
  </trkpt>
  <trkpt lat="34.064080" lon="-4.599044">
   <ele>368.00</ele>
   <time>2014-04-07T12:28:45Z</time>
  </trkpt>
  <trkpt lat="34.061549" lon="-4.598902">
   <ele>378.00</ele>
   <time>2014-04-07T12:28:58Z</time>
  </trkpt>
  <trkpt lat="34.061160" lon="-4.598907">
   <ele>380.00</ele>
   <time>2014-04-07T12:29:00Z</time>
  </trkpt>
  <trkpt lat="34.060967" lon="-4.598919">
   <ele>381.00</ele>
   <time>2014-04-07T12:29:01Z</time>
  </trkpt>
  <trkpt lat="34.060775" lon="-4.598940">
   <ele>382.00</ele>
   <time>2014-04-07T12:29:02Z</time>
  </trkpt>
  <trkpt lat="34.060392" lon="-4.599005">
   <ele>384.00</ele>
   <time>2014-04-07T12:29:04Z</time>
  </trkpt>
  <trkpt lat="34.057249" lon="-4.599691">
   <ele>398.00</ele>
   <time>2014-04-07T12:29:20Z</time>
  </trkpt>
  <trkpt lat="34.054336" lon="-4.600375">
   <ele>398.00</ele>
   <time>2014-04-07T12:29:35Z</time>
  </trkpt>
  <trkpt lat="34.051337" lon="-4.601082">
   <ele>402.00</ele>
   <time>2014-04-07T12:29:50Z</time>
  </trkpt>
  <trkpt lat="34.049847" lon="-4.601428">
   <ele>410.00</ele>
   <time>2014-04-07T12:29:58Z</time>
  </trkpt>
  <trkpt lat="34.049321" lon="-4.601509">
   <ele>413.00</ele>
   <time>2014-04-07T12:30:01Z</time>
  </trkpt>
  <trkpt lat="34.047634" lon="-4.601689">
   <ele>421.00</ele>
   <time>2014-04-07T12:30:11Z</time>
  </trkpt>
  <trkpt lat="34.045529" lon="-4.601920">
   <ele>423.00</ele>
   <time>2014-04-07T12:30:24Z</time>
  </trkpt>
  <trkpt lat="34.045061" lon="-4.602004">
   <ele>422.00</ele>
   <time>2014-04-07T12:30:27Z</time>
  </trkpt>
  <trkpt lat="34.044600" lon="-4.602115">
   <ele>421.00</ele>
   <time>2014-04-07T12:30:30Z</time>
  </trkpt>
  <trkpt lat="34.044298" lon="-4.602208">
   <ele>421.00</ele>
   <time>2014-04-07T12:30:32Z</time>
  </trkpt>
  <trkpt lat="34.043996" lon="-4.602316">
   <ele>421.00</ele>
   <time>2014-04-07T12:30:34Z</time>
  </trkpt>
  <trkpt lat="34.042570" lon="-4.602911">
   <ele>422.00</ele>
   <time>2014-04-07T12:30:43Z</time>
  </trkpt>
  <trkpt lat="34.041597" lon="-4.603340">
   <ele>424.00</ele>
   <time>2014-04-07T12:30:49Z</time>
  </trkpt>
  <trkpt lat="34.041288" lon="-4.603516">
   <ele>424.00</ele>
   <time>2014-04-07T12:30:51Z</time>
  </trkpt>
  <trkpt lat="34.040994" lon="-4.603715">
   <ele>425.00</ele>
   <time>2014-04-07T12:30:53Z</time>
  </trkpt>
  <trkpt lat="34.040713" lon="-4.603928">
   <ele>425.00</ele>
   <time>2014-04-07T12:30:55Z</time>
  </trkpt>
  <trkpt lat="34.039180" lon="-4.605176">
   <ele>425.00</ele>
   <time>2014-04-07T12:31:06Z</time>
  </trkpt>
  <trkpt lat="34.038889" lon="-4.605364">
   <ele>425.00</ele>
   <time>2014-04-07T12:31:08Z</time>
  </trkpt>
  <trkpt lat="34.038587" lon="-4.605528">
   <ele>426.00</ele>
   <time>2014-04-07T12:31:10Z</time>
  </trkpt>
  <trkpt lat="34.038285" lon="-4.605668">
   <ele>427.00</ele>
   <time>2014-04-07T12:31:12Z</time>
  </trkpt>
  <trkpt lat="34.037983" lon="-4.605785">
   <ele>428.00</ele>
   <time>2014-04-07T12:31:14Z</time>
  </trkpt>
  <trkpt lat="34.035677" lon="-4.606572">
   <ele>442.00</ele>
   <time>2014-04-07T12:31:30Z</time>
  </trkpt>
  <trkpt lat="34.033768" lon="-4.607238">
   <ele>452.00</ele>
   <time>2014-04-07T12:31:45Z</time>
  </trkpt>
  <trkpt lat="34.031392" lon="-4.608132">
   <ele>458.00</ele>
   <time>2014-04-07T12:32:00Z</time>
  </trkpt>
  <trkpt lat="34.028960" lon="-4.609055">
   <ele>465.00</ele>
   <time>2014-04-07T12:32:16Z</time>
  </trkpt>
  <trkpt lat="34.026846" lon="-4.609862">
   <ele>471.00</ele>
   <time>2014-04-07T12:32:31Z</time>
  </trkpt>
  <trkpt lat="34.024726" lon="-4.610685">
   <ele>478.00</ele>
   <time>2014-04-07T12:32:46Z</time>
  </trkpt>
  <trkpt lat="34.022250" lon="-4.611628">
   <ele>485.00</ele>
   <time>2014-04-07T12:33:02Z</time>
  </trkpt>
  <trkpt lat="34.019878" lon="-4.612543">
   <ele>494.00</ele>
   <time>2014-04-07T12:33:17Z</time>
  </trkpt>
  <trkpt lat="34.017437" lon="-4.613479">
   <ele>504.00</ele>
   <time>2014-04-07T12:33:32Z</time>
  </trkpt>
  <trkpt lat="34.014886" lon="-4.614457">
   <ele>516.00</ele>
   <time>2014-04-07T12:33:48Z</time>
  </trkpt>
  <trkpt lat="34.012461" lon="-4.615364">
   <ele>521.00</ele>
   <time>2014-04-07T12:34:03Z</time>
  </trkpt>
  <trkpt lat="34.011201" lon="-4.615858">
   <ele>525.00</ele>
   <time>2014-04-07T12:34:11Z</time>
  </trkpt>
  <trkpt lat="34.010904" lon="-4.616000">
   <ele>526.00</ele>
   <time>2014-04-07T12:34:13Z</time>
  </trkpt>
  <trkpt lat="34.010616" lon="-4.616162">
   <ele>528.00</ele>
   <time>2014-04-07T12:34:15Z</time>
  </trkpt>
  <trkpt lat="34.010335" lon="-4.616336">
   <ele>529.00</ele>
   <time>2014-04-07T12:34:17Z</time>
  </trkpt>
  <trkpt lat="34.009653" lon="-4.616799">
   <ele>532.00</ele>
   <time>2014-04-07T12:34:22Z</time>
  </trkpt>
  <trkpt lat="34.007731" lon="-4.618151">
   <ele>536.00</ele>
   <time>2014-04-07T12:34:37Z</time>
  </trkpt>
  <trkpt lat="34.005706" lon="-4.619563">
   <ele>542.00</ele>
   <time>2014-04-07T12:34:52Z</time>
  </trkpt>
  <trkpt lat="34.003404" lon="-4.621176">
   <ele>549.00</ele>
   <time>2014-04-07T12:35:08Z</time>
  </trkpt>
  <trkpt lat="34.001286" lon="-4.622657">
   <ele>559.00</ele>
   <time>2014-04-07T12:35:23Z</time>
  </trkpt>
  <trkpt lat="34.000155" lon="-4.623482">
   <ele>560.00</ele>
   <time>2014-04-07T12:35:32Z</time>
  </trkpt>
  <trkpt lat="33.999914" lon="-4.623699">
   <ele>560.00</ele>
   <time>2014-04-07T12:35:34Z</time>
  </trkpt>
  <trkpt lat="33.999696" lon="-4.623954">
   <ele>560.00</ele>
   <time>2014-04-07T12:35:36Z</time>
  </trkpt>
  <trkpt lat="33.999503" lon="-4.624242">
   <ele>560.00</ele>
   <time>2014-04-07T12:35:38Z</time>
  </trkpt>
  <trkpt lat="33.999337" lon="-4.624552">
   <ele>560.00</ele>
   <time>2014-04-07T12:35:40Z</time>
  </trkpt>
  <trkpt lat="33.999196" lon="-4.624880">
   <ele>560.00</ele>
   <time>2014-04-07T12:35:42Z</time>
  </trkpt>
  <trkpt lat="33.999073" lon="-4.625229">
   <ele>560.00</ele>
   <time>2014-04-07T12:35:44Z</time>
  </trkpt>
  <trkpt lat="33.998902" lon="-4.625779">
   <ele>561.00</ele>
   <time>2014-04-07T12:35:47Z</time>
  </trkpt>
  <trkpt lat="33.998783" lon="-4.626143">
   <ele>561.00</ele>
   <time>2014-04-07T12:35:49Z</time>
  </trkpt>
  <trkpt lat="33.998644" lon="-4.626483">
   <ele>561.00</ele>
   <time>2014-04-07T12:35:51Z</time>
  </trkpt>
  <trkpt lat="33.998491" lon="-4.626800">
   <ele>561.00</ele>
   <time>2014-04-07T12:35:53Z</time>
  </trkpt>
  <trkpt lat="33.998328" lon="-4.627098">
   <ele>561.00</ele>
   <time>2014-04-07T12:35:55Z</time>
  </trkpt>
  <trkpt lat="33.997788" lon="-4.628068">
   <ele>562.00</ele>
   <time>2014-04-07T12:36:02Z</time>
  </trkpt>
  <trkpt lat="33.997652" lon="-4.628362">
   <ele>562.00</ele>
   <time>2014-04-07T12:36:04Z</time>
  </trkpt>
  <trkpt lat="33.997533" lon="-4.628666">
   <ele>563.00</ele>
   <time>2014-04-07T12:36:06Z</time>
  </trkpt>
  <trkpt lat="33.997253" lon="-4.629445">
   <ele>562.00</ele>
   <time>2014-04-07T12:36:11Z</time>
  </trkpt>
  <trkpt lat="33.997154" lon="-4.629768">
   <ele>562.00</ele>
   <time>2014-04-07T12:36:13Z</time>
  </trkpt>
  <trkpt lat="33.997081" lon="-4.630102">
   <ele>562.00</ele>
   <time>2014-04-07T12:36:15Z</time>
  </trkpt>
  <trkpt lat="33.997053" lon="-4.630450">
   <ele>562.00</ele>
   <time>2014-04-07T12:36:17Z</time>
  </trkpt>
  <trkpt lat="33.997052" lon="-4.630985">
   <ele>562.00</ele>
   <time>2014-04-07T12:36:20Z</time>
  </trkpt>
  <trkpt lat="33.997047" lon="-4.631835">
   <ele>563.00</ele>
   <time>2014-04-07T12:36:25Z</time>
  </trkpt>
  <trkpt lat="33.997016" lon="-4.632360">
   <ele>564.00</ele>
   <time>2014-04-07T12:36:28Z</time>
  </trkpt>
  <trkpt lat="33.996953" lon="-4.632715">
   <ele>565.00</ele>
   <time>2014-04-07T12:36:30Z</time>
  </trkpt>
  <trkpt lat="33.996843" lon="-4.633062">
   <ele>565.00</ele>
   <time>2014-04-07T12:36:32Z</time>
  </trkpt>
  <trkpt lat="33.996706" lon="-4.633400">
   <ele>565.00</ele>
   <time>2014-04-07T12:36:34Z</time>
  </trkpt>
  <trkpt lat="33.996544" lon="-4.633725">
   <ele>565.00</ele>
   <time>2014-04-07T12:36:36Z</time>
  </trkpt>
  <trkpt lat="33.996350" lon="-4.634024">
   <ele>565.00</ele>
   <time>2014-04-07T12:36:38Z</time>
  </trkpt>
  <trkpt lat="33.996128" lon="-4.634290">
   <ele>564.00</ele>
   <time>2014-04-07T12:36:40Z</time>
  </trkpt>
  <trkpt lat="33.995881" lon="-4.634518">
   <ele>563.00</ele>
   <time>2014-04-07T12:36:42Z</time>
  </trkpt>
  <trkpt lat="33.995607" lon="-4.634712">
   <ele>562.00</ele>
   <time>2014-04-07T12:36:44Z</time>
  </trkpt>
  <trkpt lat="33.995317" lon="-4.634878">
   <ele>561.00</ele>
   <time>2014-04-07T12:36:46Z</time>
  </trkpt>
  <trkpt lat="33.995020" lon="-4.635032">
   <ele>560.00</ele>
   <time>2014-04-07T12:36:48Z</time>
  </trkpt>
  <trkpt lat="33.992774" lon="-4.636139">
   <ele>553.00</ele>
   <time>2014-04-07T12:37:03Z</time>
  </trkpt>
  <trkpt lat="33.990774" lon="-4.637142">
   <ele>558.00</ele>
   <time>2014-04-07T12:37:19Z</time>
  </trkpt>
  <trkpt lat="33.989313" lon="-4.637864">
   <ele>557.00</ele>
   <time>2014-04-07T12:37:35Z</time>
  </trkpt>
  <trkpt lat="33.988191" lon="-4.638430">
   <ele>560.00</ele>
   <time>2014-04-07T12:37:50Z</time>
  </trkpt>
  <trkpt lat="33.986361" lon="-4.639357">
   <ele>565.00</ele>
   <time>2014-04-07T12:38:05Z</time>
  </trkpt>
  <trkpt lat="33.984491" lon="-4.640289">
   <ele>571.00</ele>
   <time>2014-04-07T12:38:21Z</time>
  </trkpt>
  <trkpt lat="33.984144" lon="-4.640476">
   <ele>572.00</ele>
   <time>2014-04-07T12:38:24Z</time>
  </trkpt>
  <trkpt lat="33.983915" lon="-4.640619">
   <ele>573.00</ele>
   <time>2014-04-07T12:38:26Z</time>
  </trkpt>
  <trkpt lat="33.983688" lon="-4.640778">
   <ele>573.00</ele>
   <time>2014-04-07T12:38:28Z</time>
  </trkpt>
  <trkpt lat="33.983469" lon="-4.640950">
   <ele>574.00</ele>
   <time>2014-04-07T12:38:30Z</time>
  </trkpt>
  <trkpt lat="33.983261" lon="-4.641133">
   <ele>575.00</ele>
   <time>2014-04-07T12:38:32Z</time>
  </trkpt>
  <trkpt lat="33.982099" lon="-4.642260">
   <ele>581.00</ele>
   <time>2014-04-07T12:38:44Z</time>
  </trkpt>
  <trkpt lat="33.981932" lon="-4.642436">
   <ele>581.00</ele>
   <time>2014-04-07T12:38:46Z</time>
  </trkpt>
  <trkpt lat="33.981684" lon="-4.642692">
   <ele>582.00</ele>
   <time>2014-04-07T12:38:49Z</time>
  </trkpt>
  <trkpt lat="33.980961" lon="-4.643397">
   <ele>585.00</ele>
   <time>2014-04-07T12:39:00Z</time>
  </trkpt>
  <trkpt lat="33.980751" lon="-4.643606">
   <ele>586.00</ele>
   <time>2014-04-07T12:39:03Z</time>
  </trkpt>
  <trkpt lat="33.980583" lon="-4.643757">
   <ele>586.00</ele>
   <time>2014-04-07T12:39:05Z</time>
  </trkpt>
  <trkpt lat="33.980096" lon="-4.644195">
   <ele>586.00</ele>
   <time>2014-04-07T12:39:10Z</time>
  </trkpt>
  <trkpt lat="33.979487" lon="-4.644794">
   <ele>586.00</ele>
   <time>2014-04-07T12:39:16Z</time>
  </trkpt>
  <trkpt lat="33.979281" lon="-4.645032">
   <ele>586.00</ele>
   <time>2014-04-07T12:39:18Z</time>
  </trkpt>
  <trkpt lat="33.979099" lon="-4.645289">
   <ele>586.00</ele>
   <time>2014-04-07T12:39:20Z</time>
  </trkpt>
  <trkpt lat="33.978950" lon="-4.645587">
   <ele>585.00</ele>
   <time>2014-04-07T12:39:22Z</time>
  </trkpt>
  <trkpt lat="33.978824" lon="-4.645901">
   <ele>583.00</ele>
   <time>2014-04-07T12:39:24Z</time>
  </trkpt>
  <trkpt lat="33.978720" lon="-4.646230">
   <ele>581.00</ele>
   <time>2014-04-07T12:39:26Z</time>
  </trkpt>
  <trkpt lat="33.978646" lon="-4.646577">
   <ele>579.00</ele>
   <time>2014-04-07T12:39:28Z</time>
  </trkpt>
  <trkpt lat="33.978600" lon="-4.646940">
   <ele>577.00</ele>
   <time>2014-04-07T12:39:30Z</time>
  </trkpt>
  <trkpt lat="33.978587" lon="-4.647315">
   <ele>575.00</ele>
   <time>2014-04-07T12:39:32Z</time>
  </trkpt>
  <trkpt lat="33.978611" lon="-4.647698">
   <ele>573.00</ele>
   <time>2014-04-07T12:39:34Z</time>
  </trkpt>
  <trkpt lat="33.978765" lon="-4.648964">
   <ele>568.00</ele>
   <time>2014-04-07T12:39:40Z</time>
  </trkpt>
  <trkpt lat="33.979189" lon="-4.652237">
   <ele>559.00</ele>
   <time>2014-04-07T12:39:56Z</time>
  </trkpt>
  <trkpt lat="33.979537" lon="-4.654915">
   <ele>556.00</ele>
   <time>2014-04-07T12:40:11Z</time>
  </trkpt>
  <trkpt lat="33.979812" lon="-4.657076">
   <ele>554.00</ele>
   <time>2014-04-07T12:40:26Z</time>
  </trkpt>
  <trkpt lat="33.980157" lon="-4.659807">
   <ele>552.00</ele>
   <time>2014-04-07T12:40:42Z</time>
  </trkpt>
  <trkpt lat="33.980450" lon="-4.662103">
   <ele>551.00</ele>
   <time>2014-04-07T12:40:57Z</time>
  </trkpt>
  <trkpt lat="33.980489" lon="-4.662407">
   <ele>551.00</ele>
   <time>2014-04-07T12:41:00Z</time>
  </trkpt>
  <trkpt lat="33.980388" lon="-4.662420">
   <ele>551.00</ele>
   <time>2014-04-07T12:41:05Z</time>
  </trkpt>
  <trkpt lat="33.980410" lon="-4.662167">
   <ele>551.00</ele>
   <time>2014-04-07T12:41:09Z</time>
  </trkpt>
  <trkpt lat="33.980391" lon="-4.661878">
   <ele>553.00</ele>
   <time>2014-04-07T12:41:12Z</time>
  </trkpt>
  <trkpt lat="33.980097" lon="-4.659395">
   <ele>558.00</ele>
   <time>2014-04-07T12:41:28Z</time>
  </trkpt>
  <trkpt lat="33.979674" lon="-4.655998">
   <ele>562.00</ele>
   <time>2014-04-07T12:41:43Z</time>
  </trkpt>
  <trkpt lat="33.979192" lon="-4.652185">
   <ele>567.00</ele>
   <time>2014-04-07T12:41:59Z</time>
  </trkpt>
  <trkpt lat="33.978760" lon="-4.648752">
   <ele>576.00</ele>
   <time>2014-04-07T12:42:14Z</time>
  </trkpt>
  <trkpt lat="33.978603" lon="-4.647415">
   <ele>582.00</ele>
   <time>2014-04-07T12:42:20Z</time>
  </trkpt>
  <trkpt lat="33.978586" lon="-4.647000">
   <ele>585.00</ele>
   <time>2014-04-07T12:42:22Z</time>
  </trkpt>
  <trkpt lat="33.978614" lon="-4.646597">
   <ele>586.00</ele>
   <time>2014-04-07T12:42:24Z</time>
  </trkpt>
  <trkpt lat="33.978681" lon="-4.646211">
   <ele>588.00</ele>
   <time>2014-04-07T12:42:26Z</time>
  </trkpt>
  <trkpt lat="33.978785" lon="-4.645842">
   <ele>589.00</ele>
   <time>2014-04-07T12:42:28Z</time>
  </trkpt>
  <trkpt lat="33.978926" lon="-4.645494">
   <ele>591.00</ele>
   <time>2014-04-07T12:42:30Z</time>
  </trkpt>
  <trkpt lat="33.979095" lon="-4.645171">
   <ele>592.00</ele>
   <time>2014-04-07T12:42:32Z</time>
  </trkpt>
  <trkpt lat="33.979291" lon="-4.644885">
   <ele>592.00</ele>
   <time>2014-04-07T12:42:34Z</time>
  </trkpt>
  <trkpt lat="33.979505" lon="-4.644634">
   <ele>592.00</ele>
   <time>2014-04-07T12:42:36Z</time>
  </trkpt>
  <trkpt lat="33.979723" lon="-4.644415">
   <ele>592.00</ele>
   <time>2014-04-07T12:42:38Z</time>
  </trkpt>
  <trkpt lat="33.980314" lon="-4.643857">
   <ele>591.00</ele>
   <time>2014-04-07T12:42:44Z</time>
  </trkpt>
  <trkpt lat="33.980891" lon="-4.643247">
   <ele>589.00</ele>
   <time>2014-04-07T12:42:52Z</time>
  </trkpt>
  <trkpt lat="33.980901" lon="-4.643026">
   <ele>589.00</ele>
   <time>2014-04-07T12:42:55Z</time>
  </trkpt>
  <trkpt lat="33.980780" lon="-4.642816">
   <ele>589.00</ele>
   <time>2014-04-07T12:42:58Z</time>
  </trkpt>
  <trkpt lat="33.980625" lon="-4.642655">
   <ele>589.00</ele>
   <time>2014-04-07T12:43:01Z</time>
  </trkpt>
  <trkpt lat="33.980465" lon="-4.642529">
   <ele>588.00</ele>
   <time>2014-04-07T12:43:04Z</time>
  </trkpt>
  <trkpt lat="33.980328" lon="-4.642350">
   <ele>588.00</ele>
   <time>2014-04-07T12:43:10Z</time>
  </trkpt>
  <trkpt lat="33.980165" lon="-4.642188">
   <ele>588.00</ele>
   <time>2014-04-07T12:43:14Z</time>
  </trkpt>
  <trkpt lat="33.979988" lon="-4.642058">
   <ele>588.00</ele>
   <time>2014-04-07T12:43:17Z</time>
  </trkpt>
  <trkpt lat="33.979771" lon="-4.641964">
   <ele>588.00</ele>
   <time>2014-04-07T12:43:20Z</time>
  </trkpt>
  <trkpt lat="33.979529" lon="-4.641911">
   <ele>589.00</ele>
   <time>2014-04-07T12:43:23Z</time>
  </trkpt>
  <trkpt lat="33.978356" lon="-4.641750">
   <ele>594.00</ele>
   <time>2014-04-07T12:43:39Z</time>
  </trkpt>
  <trkpt lat="33.977089" lon="-4.641554">
   <ele>595.00</ele>
   <time>2014-04-07T12:43:52Z</time>
  </trkpt>
  <trkpt lat="33.976834" lon="-4.641488">
   <ele>597.00</ele>
   <time>2014-04-07T12:43:54Z</time>
  </trkpt>
  <trkpt lat="33.976438" lon="-4.641357">
   <ele>598.00</ele>
   <time>2014-04-07T12:43:57Z</time>
  </trkpt>
  <trkpt lat="33.974288" lon="-4.640550">
   <ele>602.00</ele>
   <time>2014-04-07T12:44:12Z</time>
  </trkpt>
  <trkpt lat="33.973691" lon="-4.640369">
   <ele>604.00</ele>
   <time>2014-04-07T12:44:16Z</time>
  </trkpt>
  <trkpt lat="33.973159" lon="-4.640244">
   <ele>605.00</ele>
   <time>2014-04-07T12:44:20Z</time>
  </trkpt>
  <trkpt lat="33.972938" lon="-4.640204">
   <ele>606.00</ele>
   <time>2014-04-07T12:44:22Z</time>
  </trkpt>
  <trkpt lat="33.972747" lon="-4.640194">
   <ele>606.00</ele>
   <time>2014-04-07T12:44:24Z</time>
  </trkpt>
  <trkpt lat="33.972511" lon="-4.640305">
   <ele>606.00</ele>
   <time>2014-04-07T12:44:27Z</time>
  </trkpt>
  <trkpt lat="33.972362" lon="-4.640429">
   <ele>606.00</ele>
   <time>2014-04-07T12:44:29Z</time>
  </trkpt>
  <trkpt lat="33.971421" lon="-4.641244">
   <ele>604.00</ele>
   <time>2014-04-07T12:44:39Z</time>
  </trkpt>
  <trkpt lat="33.971208" lon="-4.641426">
   <ele>604.00</ele>
   <time>2014-04-07T12:44:41Z</time>
  </trkpt>
  <trkpt lat="33.970981" lon="-4.641598">
   <ele>604.00</ele>
   <time>2014-04-07T12:44:43Z</time>
  </trkpt>
  <trkpt lat="33.970738" lon="-4.641742">
   <ele>604.00</ele>
   <time>2014-04-07T12:44:45Z</time>
  </trkpt>
  <trkpt lat="33.970480" lon="-4.641856">
   <ele>604.00</ele>
   <time>2014-04-07T12:44:47Z</time>
  </trkpt>
  <trkpt lat="33.970208" lon="-4.641941">
   <ele>604.00</ele>
   <time>2014-04-07T12:44:49Z</time>
  </trkpt>
  <trkpt lat="33.969929" lon="-4.641993">
   <ele>604.00</ele>
   <time>2014-04-07T12:44:51Z</time>
  </trkpt>
  <trkpt lat="33.969508" lon="-4.642059">
   <ele>604.00</ele>
   <time>2014-04-07T12:44:54Z</time>
  </trkpt>
  <trkpt lat="33.969221" lon="-4.642140">
   <ele>604.00</ele>
   <time>2014-04-07T12:44:56Z</time>
  </trkpt>
  <trkpt lat="33.967382" lon="-4.642849">
   <ele>598.00</ele>
   <time>2014-04-07T12:45:08Z</time>
  </trkpt>
  <trkpt lat="33.967050" lon="-4.642919">
   <ele>597.00</ele>
   <time>2014-04-07T12:45:10Z</time>
  </trkpt>
  <trkpt lat="33.966716" lon="-4.642938">
   <ele>596.00</ele>
   <time>2014-04-07T12:45:12Z</time>
  </trkpt>
  <trkpt lat="33.966386" lon="-4.642916">
   <ele>596.00</ele>
   <time>2014-04-07T12:45:14Z</time>
  </trkpt>
  <trkpt lat="33.966060" lon="-4.642868">
   <ele>597.00</ele>
   <time>2014-04-07T12:45:16Z</time>
  </trkpt>
  <trkpt lat="33.964379" lon="-4.642584">
   <ele>608.00</ele>
   <time>2014-04-07T12:45:27Z</time>
  </trkpt>
  <trkpt lat="33.963930" lon="-4.642548">
   <ele>611.00</ele>
   <time>2014-04-07T12:45:30Z</time>
  </trkpt>
  <trkpt lat="33.963636" lon="-4.642559">
   <ele>613.00</ele>
   <time>2014-04-07T12:45:32Z</time>
  </trkpt>
  <trkpt lat="33.963346" lon="-4.642608">
   <ele>615.00</ele>
   <time>2014-04-07T12:45:34Z</time>
  </trkpt>
  <trkpt lat="33.961899" lon="-4.642929">
   <ele>624.00</ele>
   <time>2014-04-07T12:45:44Z</time>
  </trkpt>
  <trkpt lat="33.961596" lon="-4.642967">
   <ele>625.00</ele>
   <time>2014-04-07T12:45:46Z</time>
  </trkpt>
  <trkpt lat="33.960117" lon="-4.643132">
   <ele>623.00</ele>
   <time>2014-04-07T12:45:55Z</time>
  </trkpt>
  <trkpt lat="33.957947" lon="-4.643583">
   <ele>617.00</ele>
   <time>2014-04-07T12:46:08Z</time>
  </trkpt>
  <trkpt lat="33.957630" lon="-4.643698">
   <ele>616.00</ele>
   <time>2014-04-07T12:46:10Z</time>
  </trkpt>
  <trkpt lat="33.957333" lon="-4.643878">
   <ele>615.00</ele>
   <time>2014-04-07T12:46:12Z</time>
  </trkpt>
  <trkpt lat="33.957056" lon="-4.644108">
   <ele>613.00</ele>
   <time>2014-04-07T12:46:14Z</time>
  </trkpt>
  <trkpt lat="33.956220" lon="-4.644860">
   <ele>608.00</ele>
   <time>2014-04-07T12:46:20Z</time>
  </trkpt>
  <trkpt lat="33.955907" lon="-4.645076">
   <ele>606.00</ele>
   <time>2014-04-07T12:46:22Z</time>
  </trkpt>
  <trkpt lat="33.955742" lon="-4.645168">
   <ele>606.00</ele>
   <time>2014-04-07T12:46:23Z</time>
  </trkpt>
  <trkpt lat="33.955574" lon="-4.645250">
   <ele>606.00</ele>
   <time>2014-04-07T12:46:24Z</time>
  </trkpt>
  <trkpt lat="33.953348" lon="-4.646245">
   <ele>604.00</ele>
   <time>2014-04-07T12:46:38Z</time>
  </trkpt>
  <trkpt lat="33.953056" lon="-4.646435">
   <ele>603.00</ele>
   <time>2014-04-07T12:46:40Z</time>
  </trkpt>
  <trkpt lat="33.952808" lon="-4.646672">
   <ele>604.00</ele>
   <time>2014-04-07T12:46:42Z</time>
  </trkpt>
  <trkpt lat="33.952609" lon="-4.646951">
   <ele>605.00</ele>
   <time>2014-04-07T12:46:44Z</time>
  </trkpt>
  <trkpt lat="33.952452" lon="-4.647280">
   <ele>604.00</ele>
   <time>2014-04-07T12:46:46Z</time>
  </trkpt>
  <trkpt lat="33.951629" lon="-4.649194">
   <ele>606.00</ele>
   <time>2014-04-07T12:46:57Z</time>
  </trkpt>
  <trkpt lat="33.951441" lon="-4.649465">
   <ele>606.00</ele>
   <time>2014-04-07T12:46:59Z</time>
  </trkpt>
  <trkpt lat="33.951206" lon="-4.649663">
   <ele>606.00</ele>
   <time>2014-04-07T12:47:01Z</time>
  </trkpt>
  <trkpt lat="33.950939" lon="-4.649774">
   <ele>606.00</ele>
   <time>2014-04-07T12:47:03Z</time>
  </trkpt>
  <trkpt lat="33.950651" lon="-4.649804">
   <ele>605.00</ele>
   <time>2014-04-07T12:47:05Z</time>
  </trkpt>
  <trkpt lat="33.950358" lon="-4.649746">
   <ele>604.00</ele>
   <time>2014-04-07T12:47:07Z</time>
  </trkpt>
  <trkpt lat="33.950086" lon="-4.649587">
   <ele>603.00</ele>
   <time>2014-04-07T12:47:09Z</time>
  </trkpt>
  <trkpt lat="33.949835" lon="-4.649377">
   <ele>604.00</ele>
   <time>2014-04-07T12:47:11Z</time>
  </trkpt>
  <trkpt lat="33.949593" lon="-4.649166">
   <ele>604.00</ele>
   <time>2014-04-07T12:47:13Z</time>
  </trkpt>
  <trkpt lat="33.949335" lon="-4.648991">
   <ele>603.00</ele>
   <time>2014-04-07T12:47:15Z</time>
  </trkpt>
  <trkpt lat="33.949057" lon="-4.648876">
   <ele>603.00</ele>
   <time>2014-04-07T12:47:17Z</time>
  </trkpt>
  <trkpt lat="33.948767" lon="-4.648826">
   <ele>603.00</ele>
   <time>2014-04-07T12:47:19Z</time>
  </trkpt>
  <trkpt lat="33.948471" lon="-4.648844">
   <ele>602.00</ele>
   <time>2014-04-07T12:47:21Z</time>
  </trkpt>
  <trkpt lat="33.948179" lon="-4.648919">
   <ele>601.00</ele>
   <time>2014-04-07T12:47:23Z</time>
  </trkpt>
  <trkpt lat="33.947905" lon="-4.649059">
   <ele>600.00</ele>
   <time>2014-04-07T12:47:25Z</time>
  </trkpt>
  <trkpt lat="33.947661" lon="-4.649267">
   <ele>599.00</ele>
   <time>2014-04-07T12:47:27Z</time>
  </trkpt>
  <trkpt lat="33.947449" lon="-4.649531">
   <ele>597.00</ele>
   <time>2014-04-07T12:47:29Z</time>
  </trkpt>
  <trkpt lat="33.947273" lon="-4.649847">
   <ele>594.00</ele>
   <time>2014-04-07T12:47:31Z</time>
  </trkpt>
  <trkpt lat="33.947147" lon="-4.650205">
   <ele>591.00</ele>
   <time>2014-04-07T12:47:33Z</time>
  </trkpt>
  <trkpt lat="33.947041" lon="-4.650564">
   <ele>588.00</ele>
   <time>2014-04-07T12:47:35Z</time>
  </trkpt>
  <trkpt lat="33.946889" lon="-4.650885">
   <ele>586.00</ele>
   <time>2014-04-07T12:47:37Z</time>
  </trkpt>
  <trkpt lat="33.946687" lon="-4.651154">
   <ele>584.00</ele>
   <time>2014-04-07T12:47:39Z</time>
  </trkpt>
  <trkpt lat="33.946435" lon="-4.651334">
   <ele>583.00</ele>
   <time>2014-04-07T12:47:41Z</time>
  </trkpt>
  <trkpt lat="33.946154" lon="-4.651422">
   <ele>584.00</ele>
   <time>2014-04-07T12:47:43Z</time>
  </trkpt>
  <trkpt lat="33.945861" lon="-4.651411">
   <ele>587.00</ele>
   <time>2014-04-07T12:47:45Z</time>
  </trkpt>
  <trkpt lat="33.945575" lon="-4.651342">
   <ele>588.00</ele>
   <time>2014-04-07T12:47:47Z</time>
  </trkpt>
  <trkpt lat="33.944740" lon="-4.651131">
   <ele>594.00</ele>
   <time>2014-04-07T12:47:53Z</time>
  </trkpt>
  <trkpt lat="33.944465" lon="-4.651126">
   <ele>596.00</ele>
   <time>2014-04-07T12:47:55Z</time>
  </trkpt>
  <trkpt lat="33.944198" lon="-4.651200">
   <ele>597.00</ele>
   <time>2014-04-07T12:47:57Z</time>
  </trkpt>
  <trkpt lat="33.943948" lon="-4.651354">
   <ele>598.00</ele>
   <time>2014-04-07T12:47:59Z</time>
  </trkpt>
  <trkpt lat="33.943736" lon="-4.651586">
   <ele>598.00</ele>
   <time>2014-04-07T12:48:01Z</time>
  </trkpt>
  <trkpt lat="33.943576" lon="-4.651884">
   <ele>597.00</ele>
   <time>2014-04-07T12:48:03Z</time>
  </trkpt>
  <trkpt lat="33.943450" lon="-4.652213">
   <ele>597.00</ele>
   <time>2014-04-07T12:48:05Z</time>
  </trkpt>
  <trkpt lat="33.943299" lon="-4.652517">
   <ele>597.00</ele>
   <time>2014-04-07T12:48:07Z</time>
  </trkpt>
  <trkpt lat="33.943098" lon="-4.652760">
   <ele>596.00</ele>
   <time>2014-04-07T12:48:09Z</time>
  </trkpt>
  <trkpt lat="33.942860" lon="-4.652929">
   <ele>596.00</ele>
   <time>2014-04-07T12:48:11Z</time>
  </trkpt>
  <trkpt lat="33.942590" lon="-4.653020">
   <ele>596.00</ele>
   <time>2014-04-07T12:48:13Z</time>
  </trkpt>
  <trkpt lat="33.942298" lon="-4.653029">
   <ele>596.00</ele>
   <time>2014-04-07T12:48:15Z</time>
  </trkpt>
  <trkpt lat="33.941997" lon="-4.652961">
   <ele>596.00</ele>
   <time>2014-04-07T12:48:17Z</time>
  </trkpt>
  <trkpt lat="33.941383" lon="-4.652750">
   <ele>595.00</ele>
   <time>2014-04-07T12:48:21Z</time>
  </trkpt>
  <trkpt lat="33.940337" lon="-4.652394">
   <ele>594.00</ele>
   <time>2014-04-07T12:48:28Z</time>
  </trkpt>
  <trkpt lat="33.940048" lon="-4.652325">
   <ele>593.00</ele>
   <time>2014-04-07T12:48:30Z</time>
  </trkpt>
  <trkpt lat="33.939752" lon="-4.652277">
   <ele>591.00</ele>
   <time>2014-04-07T12:48:32Z</time>
  </trkpt>
  <trkpt lat="33.937824" lon="-4.652006">
   <ele>578.00</ele>
   <time>2014-04-07T12:48:44Z</time>
  </trkpt>
  <trkpt lat="33.937512" lon="-4.651907">
   <ele>575.00</ele>
   <time>2014-04-07T12:48:46Z</time>
  </trkpt>
  <trkpt lat="33.937207" lon="-4.651761">
   <ele>573.00</ele>
   <time>2014-04-07T12:48:48Z</time>
  </trkpt>
  <trkpt lat="33.936903" lon="-4.651586">
   <ele>571.00</ele>
   <time>2014-04-07T12:48:50Z</time>
  </trkpt>
  <trkpt lat="33.935548" lon="-4.650791">
   <ele>560.00</ele>
   <time>2014-04-07T12:48:59Z</time>
  </trkpt>
  <trkpt lat="33.935250" lon="-4.650671">
   <ele>559.00</ele>
   <time>2014-04-07T12:49:01Z</time>
  </trkpt>
  <trkpt lat="33.934946" lon="-4.650636">
   <ele>558.00</ele>
   <time>2014-04-07T12:49:03Z</time>
  </trkpt>
  <trkpt lat="33.934645" lon="-4.650687">
   <ele>557.00</ele>
   <time>2014-04-07T12:49:05Z</time>
  </trkpt>
  <trkpt lat="33.934360" lon="-4.650823">
   <ele>557.00</ele>
   <time>2014-04-07T12:49:07Z</time>
  </trkpt>
  <trkpt lat="33.934111" lon="-4.651032">
   <ele>557.00</ele>
   <time>2014-04-07T12:49:09Z</time>
  </trkpt>
  <trkpt lat="33.933907" lon="-4.651288">
   <ele>557.00</ele>
   <time>2014-04-07T12:49:11Z</time>
  </trkpt>
  <trkpt lat="33.933023" lon="-4.652468">
   <ele>558.00</ele>
   <time>2014-04-07T12:49:20Z</time>
  </trkpt>
  <trkpt lat="33.932797" lon="-4.652666">
   <ele>558.00</ele>
   <time>2014-04-07T12:49:22Z</time>
  </trkpt>
  <trkpt lat="33.932545" lon="-4.652789">
   <ele>558.00</ele>
   <time>2014-04-07T12:49:24Z</time>
  </trkpt>
  <trkpt lat="33.932277" lon="-4.652851">
   <ele>558.00</ele>
   <time>2014-04-07T12:49:26Z</time>
  </trkpt>
  <trkpt lat="33.931997" lon="-4.652843">
   <ele>557.00</ele>
   <time>2014-04-07T12:49:28Z</time>
  </trkpt>
  <trkpt lat="33.931716" lon="-4.652794">
   <ele>555.00</ele>
   <time>2014-04-07T12:49:30Z</time>
  </trkpt>
  <trkpt lat="33.931448" lon="-4.652753">
   <ele>553.00</ele>
   <time>2014-04-07T12:49:32Z</time>
  </trkpt>
  <trkpt lat="33.931199" lon="-4.652774">
   <ele>551.00</ele>
   <time>2014-04-07T12:49:34Z</time>
  </trkpt>
  <trkpt lat="33.930963" lon="-4.652880">
   <ele>549.00</ele>
   <time>2014-04-07T12:49:36Z</time>
  </trkpt>
  <trkpt lat="33.930741" lon="-4.653051">
   <ele>546.00</ele>
   <time>2014-04-07T12:49:38Z</time>
  </trkpt>
  <trkpt lat="33.930549" lon="-4.653295">
   <ele>543.00</ele>
   <time>2014-04-07T12:49:40Z</time>
  </trkpt>
  <trkpt lat="33.930378" lon="-4.653582">
   <ele>540.00</ele>
   <time>2014-04-07T12:49:42Z</time>
  </trkpt>
  <trkpt lat="33.929597" lon="-4.654929">
   <ele>527.00</ele>
   <time>2014-04-07T12:49:51Z</time>
  </trkpt>
  <trkpt lat="33.929462" lon="-4.655276">
   <ele>524.00</ele>
   <time>2014-04-07T12:49:53Z</time>
  </trkpt>
  <trkpt lat="33.929358" lon="-4.655656">
   <ele>521.00</ele>
   <time>2014-04-07T12:49:55Z</time>
  </trkpt>
  <trkpt lat="33.928634" lon="-4.658662">
   <ele>507.00</ele>
   <time>2014-04-07T12:50:10Z</time>
  </trkpt>
  <trkpt lat="33.928332" lon="-4.659931">
   <ele>503.00</ele>
   <time>2014-04-07T12:50:17Z</time>
  </trkpt>
  <trkpt lat="33.928290" lon="-4.660247">
   <ele>502.00</ele>
   <time>2014-04-07T12:50:19Z</time>
  </trkpt>
  <trkpt lat="33.928277" lon="-4.660560">
   <ele>502.00</ele>
   <time>2014-04-07T12:50:21Z</time>
  </trkpt>
  <trkpt lat="33.928269" lon="-4.661167">
   <ele>500.00</ele>
   <time>2014-04-07T12:50:25Z</time>
  </trkpt>
  <trkpt lat="33.928283" lon="-4.661610">
   <ele>498.00</ele>
   <time>2014-04-07T12:50:28Z</time>
  </trkpt>
  <trkpt lat="33.928305" lon="-4.661915">
   <ele>496.00</ele>
   <time>2014-04-07T12:50:30Z</time>
  </trkpt>
  <trkpt lat="33.928340" lon="-4.662371">
   <ele>492.00</ele>
   <time>2014-04-07T12:50:33Z</time>
  </trkpt>
  <trkpt lat="33.928352" lon="-4.662988">
   <ele>488.00</ele>
   <time>2014-04-07T12:50:37Z</time>
  </trkpt>
  <trkpt lat="33.928333" lon="-4.663267">
   <ele>486.00</ele>
   <time>2014-04-07T12:50:39Z</time>
  </trkpt>
  <trkpt lat="33.928257" lon="-4.663498">
   <ele>484.00</ele>
   <time>2014-04-07T12:50:41Z</time>
  </trkpt>
  <trkpt lat="33.928116" lon="-4.663680">
   <ele>482.00</ele>
   <time>2014-04-07T12:50:43Z</time>
  </trkpt>
  <trkpt lat="33.927942" lon="-4.663822">
   <ele>480.00</ele>
   <time>2014-04-07T12:50:45Z</time>
  </trkpt>
  <trkpt lat="33.927749" lon="-4.663938">
   <ele>478.00</ele>
   <time>2014-04-07T12:50:47Z</time>
  </trkpt>
  <trkpt lat="33.927547" lon="-4.664030">
   <ele>476.00</ele>
   <time>2014-04-07T12:50:49Z</time>
  </trkpt>
  <trkpt lat="33.927336" lon="-4.664094">
   <ele>473.00</ele>
   <time>2014-04-07T12:50:51Z</time>
  </trkpt>
  <trkpt lat="33.927135" lon="-4.664157">
   <ele>470.00</ele>
   <time>2014-04-07T12:50:53Z</time>
  </trkpt>
  <trkpt lat="33.926961" lon="-4.664274">
   <ele>468.00</ele>
   <time>2014-04-07T12:50:55Z</time>
  </trkpt>
  <trkpt lat="33.926475" lon="-4.664702">
   <ele>461.00</ele>
   <time>2014-04-07T12:51:02Z</time>
  </trkpt>
  <trkpt lat="33.926439" lon="-4.664960">
   <ele>457.00</ele>
   <time>2014-04-07T12:51:06Z</time>
  </trkpt>
  <trkpt lat="33.926629" lon="-4.665045">
   <ele>454.00</ele>
   <time>2014-04-07T12:51:09Z</time>
  </trkpt>
  <trkpt lat="33.926867" lon="-4.665041">
   <ele>451.00</ele>
   <time>2014-04-07T12:51:12Z</time>
  </trkpt>
  <trkpt lat="33.927111" lon="-4.665066">
   <ele>449.00</ele>
   <time>2014-04-07T12:51:15Z</time>
  </trkpt>
  <trkpt lat="33.927314" lon="-4.665180">
   <ele>448.00</ele>
   <time>2014-04-07T12:51:18Z</time>
  </trkpt>
  <trkpt lat="33.927426" lon="-4.665371">
   <ele>446.00</ele>
   <time>2014-04-07T12:51:23Z</time>
  </trkpt>
  <trkpt lat="33.927574" lon="-4.665557">
   <ele>444.00</ele>
   <time>2014-04-07T12:51:28Z</time>
  </trkpt>
  <trkpt lat="33.927704" lon="-4.665781">
   <ele>442.00</ele>
   <time>2014-04-07T12:51:32Z</time>
  </trkpt>
  <trkpt lat="33.927748" lon="-4.666019">
   <ele>439.00</ele>
   <time>2014-04-07T12:51:36Z</time>
  </trkpt>
  <trkpt lat="33.927685" lon="-4.666238">
   <ele>436.00</ele>
   <time>2014-04-07T12:51:40Z</time>
  </trkpt>
  <trkpt lat="33.927615" lon="-4.666469">
   <ele>433.00</ele>
   <time>2014-04-07T12:51:46Z</time>
  </trkpt>
  <trkpt lat="33.927683" lon="-4.666639">
   <ele>433.00</ele>
   <time>2014-04-07T12:52:02Z</time>
  </trkpt>
  <trkpt lat="33.927680" lon="-4.666629">
   <ele>433.00</ele>
   <time>2014-04-07T12:52:17Z</time>
  </trkpt>
  <trkpt lat="33.927683" lon="-4.666615">
   <ele>437.00</ele>
   <time>2014-04-07T12:52:33Z</time>
  </trkpt>
  <trkpt lat="33.927681" lon="-4.666617">
   <ele>438.00</ele>
   <time>2014-04-07T12:52:48Z</time>
  </trkpt>
  <trkpt lat="33.927679" lon="-4.666622">
   <ele>437.00</ele>
   <time>2014-04-07T12:53:02Z</time>
  </trkpt>
  <trkpt lat="33.927679" lon="-4.666626">
   <ele>438.00</ele>
   <time>2014-04-07T12:53:19Z</time>
  </trkpt>
 </trkseg>
 <trkseg>
  <trkpt lat="33.927772" lon="-4.666156">
   <ele>442.00</ele>
   <time>2014-04-07T14:10:11Z</time>
  </trkpt>
  <trkpt lat="33.927790" lon="-4.665911">
   <ele>444.00</ele>
   <time>2014-04-07T14:10:17Z</time>
  </trkpt>
  <trkpt lat="33.927721" lon="-4.665695">
   <ele>445.00</ele>
   <time>2014-04-07T14:10:22Z</time>
  </trkpt>
  <trkpt lat="33.927604" lon="-4.665511">
   <ele>447.00</ele>
   <time>2014-04-07T14:10:27Z</time>
  </trkpt>
  <trkpt lat="33.927463" lon="-4.665348">
   <ele>449.00</ele>
   <time>2014-04-07T14:10:33Z</time>
  </trkpt>
  <trkpt lat="33.927543" lon="-4.665273">
   <ele>449.00</ele>
   <time>2014-04-07T14:10:43Z</time>
  </trkpt>
  <trkpt lat="33.927708" lon="-4.665376">
   <ele>448.00</ele>
   <time>2014-04-07T14:10:47Z</time>
  </trkpt>
  <trkpt lat="33.927937" lon="-4.665412">
   <ele>449.00</ele>
   <time>2014-04-07T14:10:51Z</time>
  </trkpt>
  <trkpt lat="33.928175" lon="-4.665364">
   <ele>450.00</ele>
   <time>2014-04-07T14:10:55Z</time>
  </trkpt>
  <trkpt lat="33.928360" lon="-4.665274">
   <ele>452.00</ele>
   <time>2014-04-07T14:10:58Z</time>
  </trkpt>
  <trkpt lat="33.928548" lon="-4.665140">
   <ele>453.00</ele>
   <time>2014-04-07T14:11:01Z</time>
  </trkpt>
  <trkpt lat="33.928694" lon="-4.664929">
   <ele>455.00</ele>
   <time>2014-04-07T14:11:04Z</time>
  </trkpt>
  <trkpt lat="33.928768" lon="-4.664655">
   <ele>456.00</ele>
   <time>2014-04-07T14:11:07Z</time>
  </trkpt>
  <trkpt lat="33.928930" lon="-4.663899">
   <ele>456.00</ele>
   <time>2014-04-07T14:11:14Z</time>
  </trkpt>
  <trkpt lat="33.928996" lon="-4.663668">
   <ele>454.00</ele>
   <time>2014-04-07T14:11:16Z</time>
  </trkpt>
  <trkpt lat="33.929088" lon="-4.663439">
   <ele>453.00</ele>
   <time>2014-04-07T14:11:18Z</time>
  </trkpt>
  <trkpt lat="33.929205" lon="-4.663212">
   <ele>451.00</ele>
   <time>2014-04-07T14:11:20Z</time>
  </trkpt>
  <trkpt lat="33.929335" lon="-4.662987">
   <ele>449.00</ele>
   <time>2014-04-07T14:11:22Z</time>
  </trkpt>
  <trkpt lat="33.929462" lon="-4.662794">
   <ele>446.00</ele>
   <time>2014-04-07T14:11:24Z</time>
  </trkpt>
  <trkpt lat="33.929672" lon="-4.662731">
   <ele>444.00</ele>
   <time>2014-04-07T14:11:27Z</time>
  </trkpt>
  <trkpt lat="33.929852" lon="-4.662941">
   <ele>440.00</ele>
   <time>2014-04-07T14:11:30Z</time>
  </trkpt>
  <trkpt lat="33.929911" lon="-4.663166">
   <ele>438.00</ele>
   <time>2014-04-07T14:11:32Z</time>
  </trkpt>
  <trkpt lat="33.929951" lon="-4.663416">
   <ele>437.00</ele>
   <time>2014-04-07T14:11:34Z</time>
  </trkpt>
  <trkpt lat="33.929985" lon="-4.663681">
   <ele>436.00</ele>
   <time>2014-04-07T14:11:36Z</time>
  </trkpt>
  <trkpt lat="33.930007" lon="-4.663959">
   <ele>436.00</ele>
   <time>2014-04-07T14:11:38Z</time>
  </trkpt>
  <trkpt lat="33.930010" lon="-4.664227">
   <ele>436.00</ele>
   <time>2014-04-07T14:11:40Z</time>
  </trkpt>
  <trkpt lat="33.929997" lon="-4.664490">
   <ele>438.00</ele>
   <time>2014-04-07T14:11:42Z</time>
  </trkpt>
  <trkpt lat="33.929978" lon="-4.664887">
   <ele>441.00</ele>
   <time>2014-04-07T14:11:45Z</time>
  </trkpt>
  <trkpt lat="33.929981" lon="-4.665289">
   <ele>445.00</ele>
   <time>2014-04-07T14:11:48Z</time>
  </trkpt>
  <trkpt lat="33.930005" lon="-4.665552">
   <ele>448.00</ele>
   <time>2014-04-07T14:11:50Z</time>
  </trkpt>
  <trkpt lat="33.930048" lon="-4.665807">
   <ele>450.00</ele>
   <time>2014-04-07T14:11:52Z</time>
  </trkpt>
  <trkpt lat="33.930110" lon="-4.666055">
   <ele>451.00</ele>
   <time>2014-04-07T14:11:54Z</time>
  </trkpt>
  <trkpt lat="33.930195" lon="-4.666292">
   <ele>452.00</ele>
   <time>2014-04-07T14:11:56Z</time>
  </trkpt>
  <trkpt lat="33.930356" lon="-4.666717">
   <ele>453.00</ele>
   <time>2014-04-07T14:12:00Z</time>
  </trkpt>
  <trkpt lat="33.930383" lon="-4.666946">
   <ele>453.00</ele>
   <time>2014-04-07T14:12:02Z</time>
  </trkpt>
  <trkpt lat="33.930342" lon="-4.667187">
   <ele>452.00</ele>
   <time>2014-04-07T14:12:04Z</time>
  </trkpt>
  <trkpt lat="33.930243" lon="-4.667415">
   <ele>452.00</ele>
   <time>2014-04-07T14:12:06Z</time>
  </trkpt>
  <trkpt lat="33.929917" lon="-4.668009">
   <ele>450.00</ele>
   <time>2014-04-07T14:12:11Z</time>
  </trkpt>
  <trkpt lat="33.929799" lon="-4.668267">
   <ele>451.00</ele>
   <time>2014-04-07T14:12:13Z</time>
  </trkpt>
  <trkpt lat="33.929513" lon="-4.668899">
   <ele>456.00</ele>
   <time>2014-04-07T14:12:18Z</time>
  </trkpt>
  <trkpt lat="33.929380" lon="-4.669131">
   <ele>457.00</ele>
   <time>2014-04-07T14:12:20Z</time>
  </trkpt>
  <trkpt lat="33.929224" lon="-4.669344">
   <ele>457.00</ele>
   <time>2014-04-07T14:12:22Z</time>
  </trkpt>
  <trkpt lat="33.929041" lon="-4.669531">
   <ele>456.00</ele>
   <time>2014-04-07T14:12:24Z</time>
  </trkpt>
  <trkpt lat="33.928830" lon="-4.669692">
   <ele>455.00</ele>
   <time>2014-04-07T14:12:26Z</time>
  </trkpt>
  <trkpt lat="33.928600" lon="-4.669843">
   <ele>454.00</ele>
   <time>2014-04-07T14:12:28Z</time>
  </trkpt>
  <trkpt lat="33.927979" lon="-4.670233">
   <ele>449.00</ele>
   <time>2014-04-07T14:12:33Z</time>
  </trkpt>
  <trkpt lat="33.927731" lon="-4.670416">
   <ele>448.00</ele>
   <time>2014-04-07T14:12:35Z</time>
  </trkpt>
  <trkpt lat="33.927488" lon="-4.670615">
   <ele>446.00</ele>
   <time>2014-04-07T14:12:37Z</time>
  </trkpt>
  <trkpt lat="33.927250" lon="-4.670828">
   <ele>446.00</ele>
   <time>2014-04-07T14:12:39Z</time>
  </trkpt>
  <trkpt lat="33.927025" lon="-4.671053">
   <ele>445.00</ele>
   <time>2014-04-07T14:12:41Z</time>
  </trkpt>
  <trkpt lat="33.926820" lon="-4.671298">
   <ele>445.00</ele>
   <time>2014-04-07T14:12:43Z</time>
  </trkpt>
  <trkpt lat="33.926655" lon="-4.671544">
   <ele>446.00</ele>
   <time>2014-04-07T14:12:45Z</time>
  </trkpt>
  <trkpt lat="33.926547" lon="-4.671769">
   <ele>447.00</ele>
   <time>2014-04-07T14:12:47Z</time>
  </trkpt>
  <trkpt lat="33.926542" lon="-4.672027">
   <ele>448.00</ele>
   <time>2014-04-07T14:12:50Z</time>
  </trkpt>
  <trkpt lat="33.926696" lon="-4.672138">
   <ele>451.00</ele>
   <time>2014-04-07T14:12:53Z</time>
  </trkpt>
  <trkpt lat="33.926940" lon="-4.672220">
   <ele>453.00</ele>
   <time>2014-04-07T14:12:56Z</time>
  </trkpt>
  <trkpt lat="33.927173" lon="-4.672359">
   <ele>456.00</ele>
   <time>2014-04-07T14:12:59Z</time>
  </trkpt>
  <trkpt lat="33.927307" lon="-4.672504">
   <ele>457.00</ele>
   <time>2014-04-07T14:13:01Z</time>
  </trkpt>
  <trkpt lat="33.927436" lon="-4.672677">
   <ele>459.00</ele>
   <time>2014-04-07T14:13:03Z</time>
  </trkpt>
  <trkpt lat="33.927694" lon="-4.673052">
   <ele>463.00</ele>
   <time>2014-04-07T14:13:07Z</time>
  </trkpt>
  <trkpt lat="33.927836" lon="-4.673230">
   <ele>465.00</ele>
   <time>2014-04-07T14:13:09Z</time>
  </trkpt>
  <trkpt lat="33.927994" lon="-4.673402">
   <ele>467.00</ele>
   <time>2014-04-07T14:13:11Z</time>
  </trkpt>
  <trkpt lat="33.928170" lon="-4.673553">
   <ele>468.00</ele>
   <time>2014-04-07T14:13:13Z</time>
  </trkpt>
  <trkpt lat="33.928360" lon="-4.673671">
   <ele>468.00</ele>
   <time>2014-04-07T14:13:15Z</time>
  </trkpt>
  <trkpt lat="33.928558" lon="-4.673758">
   <ele>469.00</ele>
   <time>2014-04-07T14:13:17Z</time>
  </trkpt>
  <trkpt lat="33.928770" lon="-4.673805">
   <ele>469.00</ele>
   <time>2014-04-07T14:13:19Z</time>
  </trkpt>
  <trkpt lat="33.928993" lon="-4.673813">
   <ele>468.00</ele>
   <time>2014-04-07T14:13:21Z</time>
  </trkpt>
  <trkpt lat="33.929229" lon="-4.673795">
   <ele>467.00</ele>
   <time>2014-04-07T14:13:23Z</time>
  </trkpt>
  <trkpt lat="33.929471" lon="-4.673757">
   <ele>467.00</ele>
   <time>2014-04-07T14:13:25Z</time>
  </trkpt>
  <trkpt lat="33.929711" lon="-4.673711">
   <ele>466.00</ele>
   <time>2014-04-07T14:13:27Z</time>
  </trkpt>
  <trkpt lat="33.929949" lon="-4.673709">
   <ele>464.00</ele>
   <time>2014-04-07T14:13:29Z</time>
  </trkpt>
  <trkpt lat="33.930520" lon="-4.673747">
   <ele>461.00</ele>
   <time>2014-04-07T14:13:34Z</time>
  </trkpt>
  <trkpt lat="33.930865" lon="-4.673810">
   <ele>458.00</ele>
   <time>2014-04-07T14:13:37Z</time>
  </trkpt>
  <trkpt lat="33.931089" lon="-4.673884">
   <ele>457.00</ele>
   <time>2014-04-07T14:13:39Z</time>
  </trkpt>
  <trkpt lat="33.931305" lon="-4.673981">
   <ele>455.00</ele>
   <time>2014-04-07T14:13:41Z</time>
  </trkpt>
  <trkpt lat="33.931523" lon="-4.674074">
   <ele>452.00</ele>
   <time>2014-04-07T14:13:43Z</time>
  </trkpt>
  <trkpt lat="33.931754" lon="-4.674125">
   <ele>450.00</ele>
   <time>2014-04-07T14:13:45Z</time>
  </trkpt>
  <trkpt lat="33.931978" lon="-4.674136">
   <ele>447.00</ele>
   <time>2014-04-07T14:13:47Z</time>
  </trkpt>
  <trkpt lat="33.932172" lon="-4.674164">
   <ele>445.00</ele>
   <time>2014-04-07T14:13:49Z</time>
  </trkpt>
  <trkpt lat="33.932374" lon="-4.674327">
   <ele>441.00</ele>
   <time>2014-04-07T14:13:52Z</time>
  </trkpt>
  <trkpt lat="33.932389" lon="-4.674614">
   <ele>439.00</ele>
   <time>2014-04-07T14:13:55Z</time>
  </trkpt>
  <trkpt lat="33.932381" lon="-4.674917">
   <ele>436.00</ele>
   <time>2014-04-07T14:13:58Z</time>
  </trkpt>
  <trkpt lat="33.932464" lon="-4.675222">
   <ele>434.00</ele>
   <time>2014-04-07T14:14:01Z</time>
  </trkpt>
  <trkpt lat="33.932553" lon="-4.675422">
   <ele>432.00</ele>
   <time>2014-04-07T14:14:03Z</time>
  </trkpt>
  <trkpt lat="33.932655" lon="-4.675617">
   <ele>431.00</ele>
   <time>2014-04-07T14:14:05Z</time>
  </trkpt>
  <trkpt lat="33.932798" lon="-4.675864">
   <ele>430.00</ele>
   <time>2014-04-07T14:14:08Z</time>
  </trkpt>
  <trkpt lat="33.932846" lon="-4.676103">
   <ele>429.00</ele>
   <time>2014-04-07T14:14:12Z</time>
  </trkpt>
  <trkpt lat="33.932668" lon="-4.676290">
   <ele>429.00</ele>
   <time>2014-04-07T14:14:16Z</time>
  </trkpt>
  <trkpt lat="33.931750" lon="-4.677195">
   <ele>433.00</ele>
   <time>2014-04-07T14:14:31Z</time>
  </trkpt>
  <trkpt lat="33.931104" lon="-4.677833">
   <ele>435.00</ele>
   <time>2014-04-07T14:14:42Z</time>
  </trkpt>
  <trkpt lat="33.930940" lon="-4.677973">
   <ele>436.00</ele>
   <time>2014-04-07T14:14:45Z</time>
  </trkpt>
  <trkpt lat="33.930627" lon="-4.678204">
   <ele>435.00</ele>
   <time>2014-04-07T14:14:51Z</time>
  </trkpt>
  <trkpt lat="33.930446" lon="-4.678163">
   <ele>435.00</ele>
   <time>2014-04-07T14:14:54Z</time>
  </trkpt>
  <trkpt lat="33.930314" lon="-4.678010">
   <ele>436.00</ele>
   <time>2014-04-07T14:14:57Z</time>
  </trkpt>
  <trkpt lat="33.930118" lon="-4.677930">
   <ele>437.00</ele>
   <time>2014-04-07T14:15:01Z</time>
  </trkpt>
  <trkpt lat="33.929944" lon="-4.677993">
   <ele>438.00</ele>
   <time>2014-04-07T14:15:04Z</time>
  </trkpt>
  <trkpt lat="33.929784" lon="-4.678158">
   <ele>439.00</ele>
   <time>2014-04-07T14:15:07Z</time>
  </trkpt>
  <trkpt lat="33.929452" lon="-4.678611">
   <ele>442.00</ele>
   <time>2014-04-07T14:15:13Z</time>
  </trkpt>
  <trkpt lat="33.928895" lon="-4.679284">
   <ele>448.00</ele>
   <time>2014-04-07T14:15:24Z</time>
  </trkpt>
  <trkpt lat="33.928923" lon="-4.679487">
   <ele>453.00</ele>
   <time>2014-04-07T14:15:30Z</time>
  </trkpt>
  <trkpt lat="33.929118" lon="-4.679467">
   <ele>455.00</ele>
   <time>2014-04-07T14:15:34Z</time>
  </trkpt>
  <trkpt lat="33.929662" lon="-4.679383">
   <ele>460.00</ele>
   <time>2014-04-07T14:15:41Z</time>
  </trkpt>
  <trkpt lat="33.929983" lon="-4.679322">
   <ele>462.00</ele>
   <time>2014-04-07T14:15:45Z</time>
  </trkpt>
  <trkpt lat="33.930165" lon="-4.679373">
   <ele>463.00</ele>
   <time>2014-04-07T14:15:48Z</time>
  </trkpt>
  <trkpt lat="33.930199" lon="-4.679584">
   <ele>465.00</ele>
   <time>2014-04-07T14:15:51Z</time>
  </trkpt>
  <trkpt lat="33.930043" lon="-4.679768">
   <ele>466.00</ele>
   <time>2014-04-07T14:15:54Z</time>
  </trkpt>
  <trkpt lat="33.929801" lon="-4.679886">
   <ele>468.00</ele>
   <time>2014-04-07T14:15:57Z</time>
  </trkpt>
  <trkpt lat="33.929433" lon="-4.680025">
   <ele>470.00</ele>
   <time>2014-04-07T14:16:01Z</time>
  </trkpt>
  <trkpt lat="33.928718" lon="-4.680265">
   <ele>476.00</ele>
   <time>2014-04-07T14:16:09Z</time>
  </trkpt>
  <trkpt lat="33.928463" lon="-4.680221">
   <ele>479.00</ele>
   <time>2014-04-07T14:16:12Z</time>
  </trkpt>
  <trkpt lat="33.928316" lon="-4.680094">
   <ele>480.00</ele>
   <time>2014-04-07T14:16:14Z</time>
  </trkpt>
  <trkpt lat="33.927863" lon="-4.679657">
   <ele>482.00</ele>
   <time>2014-04-07T14:16:20Z</time>
  </trkpt>
  <trkpt lat="33.927719" lon="-4.679497">
   <ele>482.00</ele>
   <time>2014-04-07T14:16:22Z</time>
  </trkpt>
  <trkpt lat="33.927583" lon="-4.679324">
   <ele>482.00</ele>
   <time>2014-04-07T14:16:24Z</time>
  </trkpt>
  <trkpt lat="33.927457" lon="-4.679139">
   <ele>482.00</ele>
   <time>2014-04-07T14:16:26Z</time>
  </trkpt>
  <trkpt lat="33.927333" lon="-4.678942">
   <ele>481.00</ele>
   <time>2014-04-07T14:16:28Z</time>
  </trkpt>
  <trkpt lat="33.927214" lon="-4.678736">
   <ele>481.00</ele>
   <time>2014-04-07T14:16:30Z</time>
  </trkpt>
  <trkpt lat="33.926976" lon="-4.678300">
   <ele>483.00</ele>
   <time>2014-04-07T14:16:34Z</time>
  </trkpt>
  <trkpt lat="33.926835" lon="-4.678086">
   <ele>483.00</ele>
   <time>2014-04-07T14:16:36Z</time>
  </trkpt>
  <trkpt lat="33.926681" lon="-4.677883">
   <ele>485.00</ele>
   <time>2014-04-07T14:16:38Z</time>
  </trkpt>
  <trkpt lat="33.926380" lon="-4.677503">
   <ele>489.00</ele>
   <time>2014-04-07T14:16:42Z</time>
  </trkpt>
  <trkpt lat="33.926112" lon="-4.677136">
   <ele>492.00</ele>
   <time>2014-04-07T14:16:46Z</time>
  </trkpt>
  <trkpt lat="33.925959" lon="-4.677010">
   <ele>494.00</ele>
   <time>2014-04-07T14:16:48Z</time>
  </trkpt>
  <trkpt lat="33.925701" lon="-4.677005">
   <ele>497.00</ele>
   <time>2014-04-07T14:16:51Z</time>
  </trkpt>
  <trkpt lat="33.925557" lon="-4.677168">
   <ele>500.00</ele>
   <time>2014-04-07T14:16:54Z</time>
  </trkpt>
  <trkpt lat="33.925613" lon="-4.677403">
   <ele>503.00</ele>
   <time>2014-04-07T14:16:57Z</time>
  </trkpt>
  <trkpt lat="33.925806" lon="-4.677608">
   <ele>505.00</ele>
   <time>2014-04-07T14:17:00Z</time>
  </trkpt>
  <trkpt lat="33.926083" lon="-4.677894">
   <ele>510.00</ele>
   <time>2014-04-07T14:17:04Z</time>
  </trkpt>
  <trkpt lat="33.926213" lon="-4.678066">
   <ele>511.00</ele>
   <time>2014-04-07T14:17:06Z</time>
  </trkpt>
  <trkpt lat="33.926321" lon="-4.678265">
   <ele>514.00</ele>
   <time>2014-04-07T14:17:08Z</time>
  </trkpt>
  <trkpt lat="33.926384" lon="-4.678492">
   <ele>516.00</ele>
   <time>2014-04-07T14:17:10Z</time>
  </trkpt>
  <trkpt lat="33.926409" lon="-4.678733">
   <ele>519.00</ele>
   <time>2014-04-07T14:17:12Z</time>
  </trkpt>
  <trkpt lat="33.926415" lon="-4.678979">
   <ele>521.00</ele>
   <time>2014-04-07T14:17:14Z</time>
  </trkpt>
  <trkpt lat="33.926432" lon="-4.679345">
   <ele>525.00</ele>
   <time>2014-04-07T14:17:17Z</time>
  </trkpt>
  <trkpt lat="33.926482" lon="-4.679581">
   <ele>527.00</ele>
   <time>2014-04-07T14:17:19Z</time>
  </trkpt>
  <trkpt lat="33.926561" lon="-4.679802">
   <ele>529.00</ele>
   <time>2014-04-07T14:17:21Z</time>
  </trkpt>
  <trkpt lat="33.926681" lon="-4.680001">
   <ele>532.00</ele>
   <time>2014-04-07T14:17:23Z</time>
  </trkpt>
  <trkpt lat="33.926864" lon="-4.680293">
   <ele>536.00</ele>
   <time>2014-04-07T14:17:26Z</time>
  </trkpt>
  <trkpt lat="33.926948" lon="-4.680509">
   <ele>539.00</ele>
   <time>2014-04-07T14:17:28Z</time>
  </trkpt>
  <trkpt lat="33.926972" lon="-4.680751">
   <ele>541.00</ele>
   <time>2014-04-07T14:17:30Z</time>
  </trkpt>
  <trkpt lat="33.927005" lon="-4.681404">
   <ele>548.00</ele>
   <time>2014-04-07T14:17:35Z</time>
  </trkpt>
  <trkpt lat="33.927034" lon="-4.681672">
   <ele>551.00</ele>
   <time>2014-04-07T14:17:37Z</time>
  </trkpt>
  <trkpt lat="33.927075" lon="-4.681936">
   <ele>554.00</ele>
   <time>2014-04-07T14:17:39Z</time>
  </trkpt>
  <trkpt lat="33.927133" lon="-4.682194">
   <ele>557.00</ele>
   <time>2014-04-07T14:17:41Z</time>
  </trkpt>
  <trkpt lat="33.927212" lon="-4.682433">
   <ele>560.00</ele>
   <time>2014-04-07T14:17:43Z</time>
  </trkpt>
  <trkpt lat="33.927330" lon="-4.682652">
   <ele>562.00</ele>
   <time>2014-04-07T14:17:45Z</time>
  </trkpt>
  <trkpt lat="33.927473" lon="-4.682865">
   <ele>565.00</ele>
   <time>2014-04-07T14:17:47Z</time>
  </trkpt>
  <trkpt lat="33.927630" lon="-4.683069">
   <ele>567.00</ele>
   <time>2014-04-07T14:17:49Z</time>
  </trkpt>
  <trkpt lat="33.927798" lon="-4.683265">
   <ele>570.00</ele>
   <time>2014-04-07T14:17:51Z</time>
  </trkpt>
  <trkpt lat="33.928240" lon="-4.683745">
   <ele>575.00</ele>
   <time>2014-04-07T14:17:56Z</time>
  </trkpt>
  <trkpt lat="33.928444" lon="-4.683893">
   <ele>577.00</ele>
   <time>2014-04-07T14:17:58Z</time>
  </trkpt>
  <trkpt lat="33.928753" lon="-4.684090">
   <ele>581.00</ele>
   <time>2014-04-07T14:18:01Z</time>
  </trkpt>
  <trkpt lat="33.928932" lon="-4.684259">
   <ele>583.00</ele>
   <time>2014-04-07T14:18:03Z</time>
  </trkpt>
  <trkpt lat="33.929079" lon="-4.684476">
   <ele>585.00</ele>
   <time>2014-04-07T14:18:05Z</time>
  </trkpt>
  <trkpt lat="33.929212" lon="-4.684721">
   <ele>587.00</ele>
   <time>2014-04-07T14:18:07Z</time>
  </trkpt>
  <trkpt lat="33.929349" lon="-4.684959">
   <ele>589.00</ele>
   <time>2014-04-07T14:18:09Z</time>
  </trkpt>
  <trkpt lat="33.929508" lon="-4.685149">
   <ele>590.00</ele>
   <time>2014-04-07T14:18:11Z</time>
  </trkpt>
  <trkpt lat="33.929666" lon="-4.685304">
   <ele>592.00</ele>
   <time>2014-04-07T14:18:13Z</time>
  </trkpt>
  <trkpt lat="33.929769" lon="-4.685540">
   <ele>596.00</ele>
   <time>2014-04-07T14:18:16Z</time>
  </trkpt>
  <trkpt lat="33.929590" lon="-4.685672">
   <ele>599.00</ele>
   <time>2014-04-07T14:18:19Z</time>
  </trkpt>
  <trkpt lat="33.929360" lon="-4.685547">
   <ele>600.00</ele>
   <time>2014-04-07T14:18:22Z</time>
  </trkpt>
  <trkpt lat="33.929226" lon="-4.685374">
   <ele>600.00</ele>
   <time>2014-04-07T14:18:24Z</time>
  </trkpt>
  <trkpt lat="33.928889" lon="-4.684910">
   <ele>604.00</ele>
   <time>2014-04-07T14:18:29Z</time>
  </trkpt>
  <trkpt lat="33.928741" lon="-4.684743">
   <ele>605.00</ele>
   <time>2014-04-07T14:18:31Z</time>
  </trkpt>
  <trkpt lat="33.928563" lon="-4.684638">
   <ele>607.00</ele>
   <time>2014-04-07T14:18:33Z</time>
  </trkpt>
  <trkpt lat="33.928364" lon="-4.684572">
   <ele>608.00</ele>
   <time>2014-04-07T14:18:35Z</time>
  </trkpt>
  <trkpt lat="33.928172" lon="-4.684508">
   <ele>609.00</ele>
   <time>2014-04-07T14:18:37Z</time>
  </trkpt>
  <trkpt lat="33.927995" lon="-4.684419">
   <ele>610.00</ele>
   <time>2014-04-07T14:18:39Z</time>
  </trkpt>
  <trkpt lat="33.927832" lon="-4.684314">
   <ele>611.00</ele>
   <time>2014-04-07T14:18:41Z</time>
  </trkpt>
  <trkpt lat="33.927616" lon="-4.684177">
   <ele>613.00</ele>
   <time>2014-04-07T14:18:44Z</time>
  </trkpt>
  <trkpt lat="33.927389" lon="-4.684174">
   <ele>614.00</ele>
   <time>2014-04-07T14:18:47Z</time>
  </trkpt>
  <trkpt lat="33.927262" lon="-4.684420">
   <ele>615.00</ele>
   <time>2014-04-07T14:18:50Z</time>
  </trkpt>
  <trkpt lat="33.927341" lon="-4.684729">
   <ele>616.00</ele>
   <time>2014-04-07T14:18:53Z</time>
  </trkpt>
  <trkpt lat="33.927446" lon="-4.684924">
   <ele>617.00</ele>
   <time>2014-04-07T14:18:55Z</time>
  </trkpt>
  <trkpt lat="33.927617" lon="-4.685218">
   <ele>619.00</ele>
   <time>2014-04-07T14:18:58Z</time>
  </trkpt>
  <trkpt lat="33.927754" lon="-4.685400">
   <ele>620.00</ele>
   <time>2014-04-07T14:19:00Z</time>
  </trkpt>
  <trkpt lat="33.927911" lon="-4.685565">
   <ele>622.00</ele>
   <time>2014-04-07T14:19:02Z</time>
  </trkpt>
  <trkpt lat="33.928064" lon="-4.685731">
   <ele>624.00</ele>
   <time>2014-04-07T14:19:04Z</time>
  </trkpt>
  <trkpt lat="33.928204" lon="-4.685912">
   <ele>625.00</ele>
   <time>2014-04-07T14:19:06Z</time>
  </trkpt>
  <trkpt lat="33.928313" lon="-4.686108">
   <ele>626.00</ele>
   <time>2014-04-07T14:19:08Z</time>
  </trkpt>
  <trkpt lat="33.928353" lon="-4.686318">
   <ele>627.00</ele>
   <time>2014-04-07T14:19:10Z</time>
  </trkpt>
  <trkpt lat="33.928262" lon="-4.686625">
   <ele>629.00</ele>
   <time>2014-04-07T14:19:13Z</time>
  </trkpt>
  <trkpt lat="33.928152" lon="-4.686818">
   <ele>630.00</ele>
   <time>2014-04-07T14:19:15Z</time>
  </trkpt>
  <trkpt lat="33.927558" lon="-4.687717">
   <ele>636.00</ele>
   <time>2014-04-07T14:19:24Z</time>
  </trkpt>
  <trkpt lat="33.927414" lon="-4.687914">
   <ele>639.00</ele>
   <time>2014-04-07T14:19:26Z</time>
  </trkpt>
  <trkpt lat="33.927188" lon="-4.688194">
   <ele>642.00</ele>
   <time>2014-04-07T14:19:29Z</time>
  </trkpt>
  <trkpt lat="33.926960" lon="-4.688480">
   <ele>645.00</ele>
   <time>2014-04-07T14:19:32Z</time>
  </trkpt>
  <trkpt lat="33.926822" lon="-4.688688">
   <ele>647.00</ele>
   <time>2014-04-07T14:19:34Z</time>
  </trkpt>
  <trkpt lat="33.926574" lon="-4.689123">
   <ele>651.00</ele>
   <time>2014-04-07T14:19:38Z</time>
  </trkpt>
  <trkpt lat="33.926431" lon="-4.689317">
   <ele>653.00</ele>
   <time>2014-04-07T14:19:40Z</time>
  </trkpt>
  <trkpt lat="33.926269" lon="-4.689477">
   <ele>656.00</ele>
   <time>2014-04-07T14:19:42Z</time>
  </trkpt>
  <trkpt lat="33.926095" lon="-4.689607">
   <ele>659.00</ele>
   <time>2014-04-07T14:19:44Z</time>
  </trkpt>
  <trkpt lat="33.925922" lon="-4.689736">
   <ele>662.00</ele>
   <time>2014-04-07T14:19:46Z</time>
  </trkpt>
  <trkpt lat="33.925754" lon="-4.689882">
   <ele>664.00</ele>
   <time>2014-04-07T14:19:48Z</time>
  </trkpt>
  <trkpt lat="33.925602" lon="-4.690055">
   <ele>666.00</ele>
   <time>2014-04-07T14:19:50Z</time>
  </trkpt>
  <trkpt lat="33.925387" lon="-4.690340">
   <ele>669.00</ele>
   <time>2014-04-07T14:19:53Z</time>
  </trkpt>
  <trkpt lat="33.925250" lon="-4.690538">
   <ele>671.00</ele>
   <time>2014-04-07T14:19:55Z</time>
  </trkpt>
  <trkpt lat="33.925121" lon="-4.690743">
   <ele>673.00</ele>
   <time>2014-04-07T14:19:57Z</time>
  </trkpt>
  <trkpt lat="33.925020" lon="-4.690967">
   <ele>675.00</ele>
   <time>2014-04-07T14:19:59Z</time>
  </trkpt>
  <trkpt lat="33.924964" lon="-4.691210">
   <ele>677.00</ele>
   <time>2014-04-07T14:20:01Z</time>
  </trkpt>
  <trkpt lat="33.924948" lon="-4.691460">
   <ele>679.00</ele>
   <time>2014-04-07T14:20:03Z</time>
  </trkpt>
  <trkpt lat="33.924968" lon="-4.691709">
   <ele>682.00</ele>
   <time>2014-04-07T14:20:05Z</time>
  </trkpt>
  <trkpt lat="33.925242" lon="-4.693864">
   <ele>693.00</ele>
   <time>2014-04-07T14:20:21Z</time>
  </trkpt>
  <trkpt lat="33.925279" lon="-4.694139">
   <ele>695.00</ele>
   <time>2014-04-07T14:20:23Z</time>
  </trkpt>
  <trkpt lat="33.925327" lon="-4.694415">
   <ele>696.00</ele>
   <time>2014-04-07T14:20:25Z</time>
  </trkpt>
  <trkpt lat="33.925391" lon="-4.694688">
   <ele>696.00</ele>
   <time>2014-04-07T14:20:27Z</time>
  </trkpt>
  <trkpt lat="33.925471" lon="-4.694960">
   <ele>697.00</ele>
   <time>2014-04-07T14:20:29Z</time>
  </trkpt>
  <trkpt lat="33.925706" lon="-4.695789">
   <ele>699.00</ele>
   <time>2014-04-07T14:20:35Z</time>
  </trkpt>
  <trkpt lat="33.925773" lon="-4.696070">
   <ele>700.00</ele>
   <time>2014-04-07T14:20:37Z</time>
  </trkpt>
  <trkpt lat="33.925820" lon="-4.696356">
   <ele>702.00</ele>
   <time>2014-04-07T14:20:39Z</time>
  </trkpt>
  <trkpt lat="33.925844" lon="-4.696646">
   <ele>704.00</ele>
   <time>2014-04-07T14:20:41Z</time>
  </trkpt>
  <trkpt lat="33.925846" lon="-4.696944">
   <ele>706.00</ele>
   <time>2014-04-07T14:20:43Z</time>
  </trkpt>
  <trkpt lat="33.925827" lon="-4.697246">
   <ele>708.00</ele>
   <time>2014-04-07T14:20:45Z</time>
  </trkpt>
  <trkpt lat="33.925789" lon="-4.697544">
   <ele>710.00</ele>
   <time>2014-04-07T14:20:47Z</time>
  </trkpt>
  <trkpt lat="33.925725" lon="-4.697822">
   <ele>712.00</ele>
   <time>2014-04-07T14:20:49Z</time>
  </trkpt>
  <trkpt lat="33.925592" lon="-4.698047">
   <ele>713.00</ele>
   <time>2014-04-07T14:20:51Z</time>
  </trkpt>
  <trkpt lat="33.925385" lon="-4.698185">
   <ele>715.00</ele>
   <time>2014-04-07T14:20:53Z</time>
  </trkpt>
  <trkpt lat="33.925148" lon="-4.698259">
   <ele>717.00</ele>
   <time>2014-04-07T14:20:55Z</time>
  </trkpt>
  <trkpt lat="33.924905" lon="-4.698298">
   <ele>720.00</ele>
   <time>2014-04-07T14:20:57Z</time>
  </trkpt>
  <trkpt lat="33.924542" lon="-4.698333">
   <ele>724.00</ele>
   <time>2014-04-07T14:21:00Z</time>
  </trkpt>
  <trkpt lat="33.924316" lon="-4.698422">
   <ele>726.00</ele>
   <time>2014-04-07T14:21:02Z</time>
  </trkpt>
  <trkpt lat="33.924118" lon="-4.698580">
   <ele>727.00</ele>
   <time>2014-04-07T14:21:04Z</time>
  </trkpt>
  <trkpt lat="33.923623" lon="-4.699063">
   <ele>731.00</ele>
   <time>2014-04-07T14:21:09Z</time>
  </trkpt>
  <trkpt lat="33.923398" lon="-4.699231">
   <ele>733.00</ele>
   <time>2014-04-07T14:21:11Z</time>
  </trkpt>
  <trkpt lat="33.923154" lon="-4.699339">
   <ele>735.00</ele>
   <time>2014-04-07T14:21:13Z</time>
  </trkpt>
  <trkpt lat="33.922903" lon="-4.699382">
   <ele>738.00</ele>
   <time>2014-04-07T14:21:15Z</time>
  </trkpt>
  <trkpt lat="33.922653" lon="-4.699362">
   <ele>741.00</ele>
   <time>2014-04-07T14:21:17Z</time>
  </trkpt>
  <trkpt lat="33.922401" lon="-4.699305">
   <ele>743.00</ele>
   <time>2014-04-07T14:21:19Z</time>
  </trkpt>
  <trkpt lat="33.921780" lon="-4.699141">
   <ele>748.00</ele>
   <time>2014-04-07T14:21:24Z</time>
  </trkpt>
  <trkpt lat="33.921415" lon="-4.699046">
   <ele>750.00</ele>
   <time>2014-04-07T14:21:27Z</time>
  </trkpt>
  <trkpt lat="33.921181" lon="-4.699034">
   <ele>752.00</ele>
   <time>2014-04-07T14:21:29Z</time>
  </trkpt>
  <trkpt lat="33.920955" lon="-4.699085">
   <ele>753.00</ele>
   <time>2014-04-07T14:21:31Z</time>
  </trkpt>
  <trkpt lat="33.920742" lon="-4.699191">
   <ele>754.00</ele>
   <time>2014-04-07T14:21:33Z</time>
  </trkpt>
  <trkpt lat="33.920545" lon="-4.699352">
   <ele>755.00</ele>
   <time>2014-04-07T14:21:35Z</time>
  </trkpt>
  <trkpt lat="33.920364" lon="-4.699552">
   <ele>755.00</ele>
   <time>2014-04-07T14:21:37Z</time>
  </trkpt>
  <trkpt lat="33.920193" lon="-4.699772">
   <ele>756.00</ele>
   <time>2014-04-07T14:21:39Z</time>
  </trkpt>
  <trkpt lat="33.919779" lon="-4.700342">
   <ele>760.00</ele>
   <time>2014-04-07T14:21:44Z</time>
  </trkpt>
  <trkpt lat="33.919626" lon="-4.700583">
   <ele>761.00</ele>
   <time>2014-04-07T14:21:46Z</time>
  </trkpt>
  <trkpt lat="33.919481" lon="-4.700835">
   <ele>762.00</ele>
   <time>2014-04-07T14:21:48Z</time>
  </trkpt>
  <trkpt lat="33.919280" lon="-4.701227">
   <ele>764.00</ele>
   <time>2014-04-07T14:21:51Z</time>
  </trkpt>
  <trkpt lat="33.919012" lon="-4.701763">
   <ele>767.00</ele>
   <time>2014-04-07T14:21:55Z</time>
  </trkpt>
  <trkpt lat="33.918865" lon="-4.702012">
   <ele>769.00</ele>
   <time>2014-04-07T14:21:57Z</time>
  </trkpt>
  <trkpt lat="33.918713" lon="-4.702242">
   <ele>771.00</ele>
   <time>2014-04-07T14:21:59Z</time>
  </trkpt>
  <trkpt lat="33.918553" lon="-4.702452">
   <ele>773.00</ele>
   <time>2014-04-07T14:22:01Z</time>
  </trkpt>
  <trkpt lat="33.918063" lon="-4.703064">
   <ele>778.00</ele>
   <time>2014-04-07T14:22:07Z</time>
  </trkpt>
  <trkpt lat="33.917885" lon="-4.703255">
   <ele>780.00</ele>
   <time>2014-04-07T14:22:09Z</time>
  </trkpt>
  <trkpt lat="33.917693" lon="-4.703433">
   <ele>781.00</ele>
   <time>2014-04-07T14:22:11Z</time>
  </trkpt>
  <trkpt lat="33.917479" lon="-4.703587">
   <ele>781.00</ele>
   <time>2014-04-07T14:22:13Z</time>
  </trkpt>
  <trkpt lat="33.917241" lon="-4.703715">
   <ele>782.00</ele>
   <time>2014-04-07T14:22:15Z</time>
  </trkpt>
  <trkpt lat="33.916986" lon="-4.703818">
   <ele>782.00</ele>
   <time>2014-04-07T14:22:17Z</time>
  </trkpt>
  <trkpt lat="33.916466" lon="-4.703987">
   <ele>783.00</ele>
   <time>2014-04-07T14:22:21Z</time>
  </trkpt>
  <trkpt lat="33.916051" lon="-4.704115">
   <ele>783.00</ele>
   <time>2014-04-07T14:22:24Z</time>
  </trkpt>
  <trkpt lat="33.915360" lon="-4.704379">
   <ele>784.00</ele>
   <time>2014-04-07T14:22:29Z</time>
  </trkpt>
  <trkpt lat="33.914957" lon="-4.704558">
   <ele>784.00</ele>
   <time>2014-04-07T14:22:32Z</time>
  </trkpt>
  <trkpt lat="33.914275" lon="-4.704896">
   <ele>783.00</ele>
   <time>2014-04-07T14:22:37Z</time>
  </trkpt>
  <trkpt lat="33.912085" lon="-4.706029">
   <ele>776.00</ele>
   <time>2014-04-07T14:22:53Z</time>
  </trkpt>
  <trkpt lat="33.910009" lon="-4.707111">
   <ele>756.00</ele>
   <time>2014-04-07T14:23:08Z</time>
  </trkpt>
  <trkpt lat="33.909730" lon="-4.707261">
   <ele>754.00</ele>
   <time>2014-04-07T14:23:10Z</time>
  </trkpt>
  <trkpt lat="33.909460" lon="-4.707433">
   <ele>752.00</ele>
   <time>2014-04-07T14:23:12Z</time>
  </trkpt>
  <trkpt lat="33.909218" lon="-4.707640">
   <ele>751.00</ele>
   <time>2014-04-07T14:23:14Z</time>
  </trkpt>
  <trkpt lat="33.909012" lon="-4.707891">
   <ele>751.00</ele>
   <time>2014-04-07T14:23:16Z</time>
  </trkpt>
  <trkpt lat="33.908830" lon="-4.708170">
   <ele>751.00</ele>
   <time>2014-04-07T14:23:18Z</time>
  </trkpt>
  <trkpt lat="33.908679" lon="-4.708468">
   <ele>752.00</ele>
   <time>2014-04-07T14:23:20Z</time>
  </trkpt>
  <trkpt lat="33.908559" lon="-4.708783">
   <ele>754.00</ele>
   <time>2014-04-07T14:23:22Z</time>
  </trkpt>
  <trkpt lat="33.908450" lon="-4.709103">
   <ele>756.00</ele>
   <time>2014-04-07T14:23:24Z</time>
  </trkpt>
  <trkpt lat="33.908359" lon="-4.709432">
   <ele>758.00</ele>
   <time>2014-04-07T14:23:26Z</time>
  </trkpt>
  <trkpt lat="33.908290" lon="-4.709776">
   <ele>759.00</ele>
   <time>2014-04-07T14:23:28Z</time>
  </trkpt>
  <trkpt lat="33.908209" lon="-4.710302">
   <ele>759.00</ele>
   <time>2014-04-07T14:23:31Z</time>
  </trkpt>
  <trkpt lat="33.908170" lon="-4.710652">
   <ele>758.00</ele>
   <time>2014-04-07T14:23:33Z</time>
  </trkpt>
  <trkpt lat="33.908094" lon="-4.711355">
   <ele>757.00</ele>
   <time>2014-04-07T14:23:37Z</time>
  </trkpt>
  <trkpt lat="33.908005" lon="-4.711685">
   <ele>757.00</ele>
   <time>2014-04-07T14:23:39Z</time>
  </trkpt>
  <trkpt lat="33.907867" lon="-4.711985">
   <ele>758.00</ele>
   <time>2014-04-07T14:23:41Z</time>
  </trkpt>
  <trkpt lat="33.907688" lon="-4.712258">
   <ele>760.00</ele>
   <time>2014-04-07T14:23:43Z</time>
  </trkpt>
  <trkpt lat="33.907491" lon="-4.712514">
   <ele>762.00</ele>
   <time>2014-04-07T14:23:45Z</time>
  </trkpt>
  <trkpt lat="33.906678" lon="-4.713533">
   <ele>772.00</ele>
   <time>2014-04-07T14:23:53Z</time>
  </trkpt>
  <trkpt lat="33.905476" lon="-4.715206">
   <ele>774.00</ele>
   <time>2014-04-07T14:24:05Z</time>
  </trkpt>
  <trkpt lat="33.904222" lon="-4.717062">
   <ele>773.00</ele>
   <time>2014-04-07T14:24:18Z</time>
  </trkpt>
  <trkpt lat="33.904043" lon="-4.717369">
   <ele>773.00</ele>
   <time>2014-04-07T14:24:20Z</time>
  </trkpt>
  <trkpt lat="33.903523" lon="-4.718323">
   <ele>770.00</ele>
   <time>2014-04-07T14:24:26Z</time>
  </trkpt>
  <trkpt lat="33.902864" lon="-4.719442">
   <ele>765.00</ele>
   <time>2014-04-07T14:24:33Z</time>
  </trkpt>
  <trkpt lat="33.902657" lon="-4.719746">
   <ele>764.00</ele>
   <time>2014-04-07T14:24:35Z</time>
  </trkpt>
  <trkpt lat="33.901698" lon="-4.721019">
   <ele>763.00</ele>
   <time>2014-04-07T14:24:44Z</time>
  </trkpt>
  <trkpt lat="33.901254" lon="-4.721561">
   <ele>762.00</ele>
   <time>2014-04-07T14:24:48Z</time>
  </trkpt>
  <trkpt lat="33.901022" lon="-4.721836">
   <ele>761.00</ele>
   <time>2014-04-07T14:24:50Z</time>
  </trkpt>
  <trkpt lat="33.900448" lon="-4.722531">
   <ele>760.00</ele>
   <time>2014-04-07T14:24:55Z</time>
  </trkpt>
  <trkpt lat="33.900199" lon="-4.722794">
   <ele>760.00</ele>
   <time>2014-04-07T14:24:57Z</time>
  </trkpt>
  <trkpt lat="33.899687" lon="-4.723304">
   <ele>761.00</ele>
   <time>2014-04-07T14:25:01Z</time>
  </trkpt>
  <trkpt lat="33.899287" lon="-4.723660">
   <ele>762.00</ele>
   <time>2014-04-07T14:25:04Z</time>
  </trkpt>
  <trkpt lat="33.899014" lon="-4.723876">
   <ele>763.00</ele>
   <time>2014-04-07T14:25:06Z</time>
  </trkpt>
  <trkpt lat="33.898732" lon="-4.724075">
   <ele>764.00</ele>
   <time>2014-04-07T14:25:08Z</time>
  </trkpt>
  <trkpt lat="33.898293" lon="-4.724352">
   <ele>764.00</ele>
   <time>2014-04-07T14:25:11Z</time>
  </trkpt>
  <trkpt lat="33.897990" lon="-4.724509">
   <ele>764.00</ele>
   <time>2014-04-07T14:25:13Z</time>
  </trkpt>
  <trkpt lat="33.896201" lon="-4.725350">
   <ele>763.00</ele>
   <time>2014-04-07T14:25:25Z</time>
  </trkpt>
  <trkpt lat="33.895906" lon="-4.725461">
   <ele>764.00</ele>
   <time>2014-04-07T14:25:27Z</time>
  </trkpt>
  <trkpt lat="33.894609" lon="-4.725916">
   <ele>769.00</ele>
   <time>2014-04-07T14:25:36Z</time>
  </trkpt>
  <trkpt lat="33.893893" lon="-4.726194">
   <ele>768.00</ele>
   <time>2014-04-07T14:25:41Z</time>
  </trkpt>
  <trkpt lat="33.892386" lon="-4.726673">
   <ele>759.00</ele>
   <time>2014-04-07T14:25:51Z</time>
  </trkpt>
  <trkpt lat="33.891926" lon="-4.726852">
   <ele>757.00</ele>
   <time>2014-04-07T14:25:54Z</time>
  </trkpt>
  <trkpt lat="33.891337" lon="-4.727101">
   <ele>755.00</ele>
   <time>2014-04-07T14:25:58Z</time>
  </trkpt>
  <trkpt lat="33.891047" lon="-4.727179">
   <ele>754.00</ele>
   <time>2014-04-07T14:26:00Z</time>
  </trkpt>
  <trkpt lat="33.890757" lon="-4.727194">
   <ele>753.00</ele>
   <time>2014-04-07T14:26:02Z</time>
  </trkpt>
  <trkpt lat="33.890473" lon="-4.727148">
   <ele>752.00</ele>
   <time>2014-04-07T14:26:04Z</time>
  </trkpt>
  <trkpt lat="33.890188" lon="-4.727074">
   <ele>751.00</ele>
   <time>2014-04-07T14:26:06Z</time>
  </trkpt>
  <trkpt lat="33.889745" lon="-4.726961">
   <ele>748.00</ele>
   <time>2014-04-07T14:26:09Z</time>
  </trkpt>
  <trkpt lat="33.889438" lon="-4.726905">
   <ele>746.00</ele>
   <time>2014-04-07T14:26:11Z</time>
  </trkpt>
  <trkpt lat="33.888656" lon="-4.726809">
   <ele>742.00</ele>
   <time>2014-04-07T14:26:16Z</time>
  </trkpt>
  <trkpt lat="33.888183" lon="-4.726776">
   <ele>740.00</ele>
   <time>2014-04-07T14:26:19Z</time>
  </trkpt>
  <trkpt lat="33.887711" lon="-4.726769">
   <ele>737.00</ele>
   <time>2014-04-07T14:26:22Z</time>
  </trkpt>
  <trkpt lat="33.887237" lon="-4.726787">
   <ele>735.00</ele>
   <time>2014-04-07T14:26:25Z</time>
  </trkpt>
  <trkpt lat="33.885974" lon="-4.726893">
   <ele>731.00</ele>
   <time>2014-04-07T14:26:33Z</time>
  </trkpt>
  <trkpt lat="33.885671" lon="-4.726936">
   <ele>731.00</ele>
   <time>2014-04-07T14:26:35Z</time>
  </trkpt>
  <trkpt lat="33.885377" lon="-4.726996">
   <ele>731.00</ele>
   <time>2014-04-07T14:26:37Z</time>
  </trkpt>
  <trkpt lat="33.885098" lon="-4.727085">
   <ele>730.00</ele>
   <time>2014-04-07T14:26:39Z</time>
  </trkpt>
  <trkpt lat="33.884828" lon="-4.727195">
   <ele>730.00</ele>
   <time>2014-04-07T14:26:41Z</time>
  </trkpt>
  <trkpt lat="33.884267" lon="-4.727448">
   <ele>727.00</ele>
   <time>2014-04-07T14:26:45Z</time>
  </trkpt>
  <trkpt lat="33.883979" lon="-4.727608">
   <ele>725.00</ele>
   <time>2014-04-07T14:26:47Z</time>
  </trkpt>
  <trkpt lat="33.883548" lon="-4.727880">
   <ele>723.00</ele>
   <time>2014-04-07T14:26:50Z</time>
  </trkpt>
  <trkpt lat="33.881367" lon="-4.729299">
   <ele>726.00</ele>
   <time>2014-04-07T14:27:05Z</time>
  </trkpt>
  <trkpt lat="33.880670" lon="-4.729719">
   <ele>730.00</ele>
   <time>2014-04-07T14:27:10Z</time>
  </trkpt>
  <trkpt lat="33.880392" lon="-4.729862">
   <ele>731.00</ele>
   <time>2014-04-07T14:27:12Z</time>
  </trkpt>
  <trkpt lat="33.880114" lon="-4.729975">
   <ele>731.00</ele>
   <time>2014-04-07T14:27:14Z</time>
  </trkpt>
  <trkpt lat="33.879827" lon="-4.730031">
   <ele>730.00</ele>
   <time>2014-04-07T14:27:16Z</time>
  </trkpt>
  <trkpt lat="33.879538" lon="-4.730056">
   <ele>729.00</ele>
   <time>2014-04-07T14:27:18Z</time>
  </trkpt>
  <trkpt lat="33.879256" lon="-4.730096">
   <ele>729.00</ele>
   <time>2014-04-07T14:27:20Z</time>
  </trkpt>
  <trkpt lat="33.878990" lon="-4.730202">
   <ele>728.00</ele>
   <time>2014-04-07T14:27:22Z</time>
  </trkpt>
  <trkpt lat="33.878508" lon="-4.730477">
   <ele>726.00</ele>
   <time>2014-04-07T14:27:26Z</time>
  </trkpt>
  <trkpt lat="33.878108" lon="-4.730716">
   <ele>724.00</ele>
   <time>2014-04-07T14:27:32Z</time>
  </trkpt>
  <trkpt lat="33.877980" lon="-4.730885">
   <ele>723.00</ele>
   <time>2014-04-07T14:27:36Z</time>
  </trkpt>
  <trkpt lat="33.877935" lon="-4.731124">
   <ele>722.00</ele>
   <time>2014-04-07T14:27:39Z</time>
  </trkpt>
  <trkpt lat="33.877748" lon="-4.733370">
   <ele>727.00</ele>
   <time>2014-04-07T14:27:55Z</time>
  </trkpt>
  <trkpt lat="33.877646" lon="-4.734521">
   <ele>732.00</ele>
   <time>2014-04-07T14:28:02Z</time>
  </trkpt>
  <trkpt lat="33.877578" lon="-4.735025">
   <ele>735.00</ele>
   <time>2014-04-07T14:28:05Z</time>
  </trkpt>
  <trkpt lat="33.877488" lon="-4.735534">
   <ele>737.00</ele>
   <time>2014-04-07T14:28:08Z</time>
  </trkpt>
  <trkpt lat="33.877410" lon="-4.735875">
   <ele>738.00</ele>
   <time>2014-04-07T14:28:10Z</time>
  </trkpt>
  <trkpt lat="33.877317" lon="-4.736219">
   <ele>740.00</ele>
   <time>2014-04-07T14:28:12Z</time>
  </trkpt>
  <trkpt lat="33.877208" lon="-4.736562">
   <ele>741.00</ele>
   <time>2014-04-07T14:28:14Z</time>
  </trkpt>
  <trkpt lat="33.877082" lon="-4.736903">
   <ele>742.00</ele>
   <time>2014-04-07T14:28:16Z</time>
  </trkpt>
  <trkpt lat="33.876797" lon="-4.737586">
   <ele>745.00</ele>
   <time>2014-04-07T14:28:20Z</time>
  </trkpt>
  <trkpt lat="33.876633" lon="-4.737920">
   <ele>746.00</ele>
   <time>2014-04-07T14:28:22Z</time>
  </trkpt>
  <trkpt lat="33.876456" lon="-4.738241">
   <ele>747.00</ele>
   <time>2014-04-07T14:28:24Z</time>
  </trkpt>
  <trkpt lat="33.876174" lon="-4.738705">
   <ele>749.00</ele>
   <time>2014-04-07T14:28:27Z</time>
  </trkpt>
  <trkpt lat="33.875970" lon="-4.739006">
   <ele>750.00</ele>
   <time>2014-04-07T14:28:29Z</time>
  </trkpt>
  <trkpt lat="33.875425" lon="-4.739745">
   <ele>750.00</ele>
   <time>2014-04-07T14:28:34Z</time>
  </trkpt>
  <trkpt lat="33.873625" lon="-4.742119">
   <ele>741.00</ele>
   <time>2014-04-07T14:28:50Z</time>
  </trkpt>
  <trkpt lat="33.871953" lon="-4.744329">
   <ele>746.00</ele>
   <time>2014-04-07T14:29:05Z</time>
  </trkpt>
  <trkpt lat="33.870096" lon="-4.746791">
   <ele>750.00</ele>
   <time>2014-04-07T14:29:21Z</time>
  </trkpt>
  <trkpt lat="33.868298" lon="-4.749169">
   <ele>754.00</ele>
   <time>2014-04-07T14:29:36Z</time>
  </trkpt>
  <trkpt lat="33.866505" lon="-4.751546">
   <ele>761.00</ele>
   <time>2014-04-07T14:29:51Z</time>
  </trkpt>
  <trkpt lat="33.866040" lon="-4.752146">
   <ele>764.00</ele>
   <time>2014-04-07T14:29:55Z</time>
  </trkpt>
  <trkpt lat="33.865794" lon="-4.752429">
   <ele>765.00</ele>
   <time>2014-04-07T14:29:57Z</time>
  </trkpt>
  <trkpt lat="33.865535" lon="-4.752700">
   <ele>766.00</ele>
   <time>2014-04-07T14:29:59Z</time>
  </trkpt>
  <trkpt lat="33.865124" lon="-4.753093">
   <ele>768.00</ele>
   <time>2014-04-07T14:30:02Z</time>
  </trkpt>
  <trkpt lat="33.864697" lon="-4.753464">
   <ele>769.00</ele>
   <time>2014-04-07T14:30:05Z</time>
  </trkpt>
  <trkpt lat="33.862554" lon="-4.755262">
   <ele>763.00</ele>
   <time>2014-04-07T14:30:20Z</time>
  </trkpt>
  <trkpt lat="33.860566" lon="-4.756941">
   <ele>750.00</ele>
   <time>2014-04-07T14:30:34Z</time>
  </trkpt>
  <trkpt lat="33.860150" lon="-4.757344">
   <ele>747.00</ele>
   <time>2014-04-07T14:30:37Z</time>
  </trkpt>
  <trkpt lat="33.859881" lon="-4.757633">
   <ele>744.00</ele>
   <time>2014-04-07T14:30:39Z</time>
  </trkpt>
  <trkpt lat="33.859620" lon="-4.757938">
   <ele>741.00</ele>
   <time>2014-04-07T14:30:41Z</time>
  </trkpt>
  <trkpt lat="33.859370" lon="-4.758258">
   <ele>739.00</ele>
   <time>2014-04-07T14:30:43Z</time>
  </trkpt>
  <trkpt lat="33.859015" lon="-4.758755">
   <ele>737.00</ele>
   <time>2014-04-07T14:30:46Z</time>
  </trkpt>
  <trkpt lat="33.858793" lon="-4.759094">
   <ele>735.00</ele>
   <time>2014-04-07T14:30:48Z</time>
  </trkpt>
  <trkpt lat="33.858586" lon="-4.759441">
   <ele>733.00</ele>
   <time>2014-04-07T14:30:50Z</time>
  </trkpt>
  <trkpt lat="33.858393" lon="-4.759800">
   <ele>732.00</ele>
   <time>2014-04-07T14:30:52Z</time>
  </trkpt>
  <trkpt lat="33.857058" lon="-4.762518">
   <ele>727.00</ele>
   <time>2014-04-07T14:31:07Z</time>
  </trkpt>
  <trkpt lat="33.855658" lon="-4.765362">
   <ele>728.00</ele>
   <time>2014-04-07T14:31:23Z</time>
  </trkpt>
  <trkpt lat="33.854323" lon="-4.768062">
   <ele>730.00</ele>
   <time>2014-04-07T14:31:38Z</time>
  </trkpt>
  <trkpt lat="33.852974" lon="-4.770778">
   <ele>734.00</ele>
   <time>2014-04-07T14:31:53Z</time>
  </trkpt>
  <trkpt lat="33.851641" lon="-4.773481">
   <ele>739.00</ele>
   <time>2014-04-07T14:32:08Z</time>
  </trkpt>
  <trkpt lat="33.850292" lon="-4.776192">
   <ele>743.00</ele>
   <time>2014-04-07T14:32:23Z</time>
  </trkpt>
  <trkpt lat="33.849523" lon="-4.777737">
   <ele>749.00</ele>
   <time>2014-04-07T14:32:32Z</time>
  </trkpt>
  <trkpt lat="33.849129" lon="-4.778476">
   <ele>753.00</ele>
   <time>2014-04-07T14:32:37Z</time>
  </trkpt>
  <trkpt lat="33.848944" lon="-4.778744">
   <ele>754.00</ele>
   <time>2014-04-07T14:32:39Z</time>
  </trkpt>
  <trkpt lat="33.848742" lon="-4.778993">
   <ele>755.00</ele>
   <time>2014-04-07T14:32:41Z</time>
  </trkpt>
  <trkpt lat="33.848515" lon="-4.779212">
   <ele>756.00</ele>
   <time>2014-04-07T14:32:43Z</time>
  </trkpt>
  <trkpt lat="33.848267" lon="-4.779405">
   <ele>757.00</ele>
   <time>2014-04-07T14:32:45Z</time>
  </trkpt>
  <trkpt lat="33.848000" lon="-4.779571">
   <ele>758.00</ele>
   <time>2014-04-07T14:32:47Z</time>
  </trkpt>
  <trkpt lat="33.847718" lon="-4.779718">
   <ele>758.00</ele>
   <time>2014-04-07T14:32:49Z</time>
  </trkpt>
  <trkpt lat="33.845488" lon="-4.780794">
   <ele>765.00</ele>
   <time>2014-04-07T14:33:04Z</time>
  </trkpt>
  <trkpt lat="33.843071" lon="-4.781972">
   <ele>771.00</ele>
   <time>2014-04-07T14:33:20Z</time>
  </trkpt>
  <trkpt lat="33.840836" lon="-4.783062">
   <ele>777.00</ele>
   <time>2014-04-07T14:33:35Z</time>
  </trkpt>
  <trkpt lat="33.838881" lon="-4.784025">
   <ele>780.00</ele>
   <time>2014-04-07T14:33:50Z</time>
  </trkpt>
  <trkpt lat="33.836921" lon="-4.784987">
   <ele>784.00</ele>
   <time>2014-04-07T14:34:05Z</time>
  </trkpt>
  <trkpt lat="33.834941" lon="-4.785964">
   <ele>788.00</ele>
   <time>2014-04-07T14:34:20Z</time>
  </trkpt>
  <trkpt lat="33.834362" lon="-4.786250">
   <ele>791.00</ele>
   <time>2014-04-07T14:34:25Z</time>
  </trkpt>
  <trkpt lat="33.833877" lon="-4.786441">
   <ele>792.00</ele>
   <time>2014-04-07T14:34:29Z</time>
  </trkpt>
  <trkpt lat="33.833619" lon="-4.786521">
   <ele>793.00</ele>
   <time>2014-04-07T14:34:31Z</time>
  </trkpt>
  <trkpt lat="33.833345" lon="-4.786566">
   <ele>794.00</ele>
   <time>2014-04-07T14:34:33Z</time>
  </trkpt>
  <trkpt lat="33.833063" lon="-4.786578">
   <ele>794.00</ele>
   <time>2014-04-07T14:34:35Z</time>
  </trkpt>
  <trkpt lat="33.832782" lon="-4.786552">
   <ele>794.00</ele>
   <time>2014-04-07T14:34:37Z</time>
  </trkpt>
  <trkpt lat="33.832498" lon="-4.786491">
   <ele>794.00</ele>
   <time>2014-04-07T14:34:39Z</time>
  </trkpt>
  <trkpt lat="33.832212" lon="-4.786399">
   <ele>794.00</ele>
   <time>2014-04-07T14:34:41Z</time>
  </trkpt>
  <trkpt lat="33.831928" lon="-4.786279">
   <ele>794.00</ele>
   <time>2014-04-07T14:34:43Z</time>
  </trkpt>
  <trkpt lat="33.829715" lon="-4.785226">
   <ele>797.00</ele>
   <time>2014-04-07T14:34:59Z</time>
  </trkpt>
  <trkpt lat="33.828762" lon="-4.784779">
   <ele>797.00</ele>
   <time>2014-04-07T14:35:06Z</time>
  </trkpt>
  <trkpt lat="33.828493" lon="-4.784677">
   <ele>798.00</ele>
   <time>2014-04-07T14:35:08Z</time>
  </trkpt>
  <trkpt lat="33.828214" lon="-4.784606">
   <ele>798.00</ele>
   <time>2014-04-07T14:35:10Z</time>
  </trkpt>
  <trkpt lat="33.827928" lon="-4.784568">
   <ele>798.00</ele>
   <time>2014-04-07T14:35:12Z</time>
  </trkpt>
  <trkpt lat="33.827646" lon="-4.784564">
   <ele>799.00</ele>
   <time>2014-04-07T14:35:14Z</time>
  </trkpt>
  <trkpt lat="33.827376" lon="-4.784595">
   <ele>800.00</ele>
   <time>2014-04-07T14:35:16Z</time>
  </trkpt>
  <trkpt lat="33.827116" lon="-4.784654">
   <ele>802.00</ele>
   <time>2014-04-07T14:35:18Z</time>
  </trkpt>
  <trkpt lat="33.826861" lon="-4.784746">
   <ele>803.00</ele>
   <time>2014-04-07T14:35:20Z</time>
  </trkpt>
  <trkpt lat="33.826611" lon="-4.784861">
   <ele>805.00</ele>
   <time>2014-04-07T14:35:22Z</time>
  </trkpt>
  <trkpt lat="33.825864" lon="-4.785255">
   <ele>810.00</ele>
   <time>2014-04-07T14:35:28Z</time>
  </trkpt>
  <trkpt lat="33.823949" lon="-4.786289">
   <ele>821.00</ele>
   <time>2014-04-07T14:35:43Z</time>
  </trkpt>
  <trkpt lat="33.821769" lon="-4.787448">
   <ele>824.00</ele>
   <time>2014-04-07T14:35:58Z</time>
  </trkpt>
  <trkpt lat="33.821328" lon="-4.787690">
   <ele>825.00</ele>
   <time>2014-04-07T14:36:01Z</time>
  </trkpt>
  <trkpt lat="33.821048" lon="-4.787868">
   <ele>826.00</ele>
   <time>2014-04-07T14:36:03Z</time>
  </trkpt>
  <trkpt lat="33.820777" lon="-4.788083">
   <ele>826.00</ele>
   <time>2014-04-07T14:36:05Z</time>
  </trkpt>
  <trkpt lat="33.820527" lon="-4.788347">
   <ele>826.00</ele>
   <time>2014-04-07T14:36:07Z</time>
  </trkpt>
  <trkpt lat="33.820303" lon="-4.788660">
   <ele>827.00</ele>
   <time>2014-04-07T14:36:09Z</time>
  </trkpt>
  <trkpt lat="33.820105" lon="-4.789007">
   <ele>827.00</ele>
   <time>2014-04-07T14:36:11Z</time>
  </trkpt>
  <trkpt lat="33.819932" lon="-4.789379">
   <ele>827.00</ele>
   <time>2014-04-07T14:36:13Z</time>
  </trkpt>
  <trkpt lat="33.819277" lon="-4.790895">
   <ele>832.00</ele>
   <time>2014-04-07T14:36:21Z</time>
  </trkpt>
  <trkpt lat="33.819065" lon="-4.791457">
   <ele>835.00</ele>
   <time>2014-04-07T14:36:24Z</time>
  </trkpt>
  <trkpt lat="33.818947" lon="-4.791836">
   <ele>837.00</ele>
   <time>2014-04-07T14:36:26Z</time>
  </trkpt>
  <trkpt lat="33.818870" lon="-4.792228">
   <ele>838.00</ele>
   <time>2014-04-07T14:36:28Z</time>
  </trkpt>
  <trkpt lat="33.818832" lon="-4.792630">
   <ele>840.00</ele>
   <time>2014-04-07T14:36:30Z</time>
  </trkpt>
  <trkpt lat="33.818834" lon="-4.793030">
   <ele>841.00</ele>
   <time>2014-04-07T14:36:32Z</time>
  </trkpt>
  <trkpt lat="33.818879" lon="-4.793417">
   <ele>842.00</ele>
   <time>2014-04-07T14:36:34Z</time>
  </trkpt>
  <trkpt lat="33.818960" lon="-4.793796">
   <ele>843.00</ele>
   <time>2014-04-07T14:36:36Z</time>
  </trkpt>
  <trkpt lat="33.819069" lon="-4.794168">
   <ele>843.00</ele>
   <time>2014-04-07T14:36:38Z</time>
  </trkpt>
  <trkpt lat="33.819948" lon="-4.796767">
   <ele>845.00</ele>
   <time>2014-04-07T14:36:53Z</time>
  </trkpt>
  <trkpt lat="33.820799" lon="-4.799266">
   <ele>846.00</ele>
   <time>2014-04-07T14:37:08Z</time>
  </trkpt>
  <trkpt lat="33.821777" lon="-4.802180">
   <ele>845.00</ele>
   <time>2014-04-07T14:37:24Z</time>
  </trkpt>
  <trkpt lat="33.822743" lon="-4.805074">
   <ele>838.00</ele>
   <time>2014-04-07T14:37:39Z</time>
  </trkpt>
  <trkpt lat="33.823492" lon="-4.807309">
   <ele>835.00</ele>
   <time>2014-04-07T14:37:54Z</time>
  </trkpt>
  <trkpt lat="33.824140" lon="-4.809261">
   <ele>828.00</ele>
   <time>2014-04-07T14:38:09Z</time>
  </trkpt>
  <trkpt lat="33.824837" lon="-4.811361">
   <ele>819.00</ele>
   <time>2014-04-07T14:38:25Z</time>
  </trkpt>
  <trkpt lat="33.824976" lon="-4.811767">
   <ele>817.00</ele>
   <time>2014-04-07T14:38:28Z</time>
  </trkpt>
  <trkpt lat="33.825217" lon="-4.812467">
   <ele>813.00</ele>
   <time>2014-04-07T14:38:33Z</time>
  </trkpt>
  <trkpt lat="33.825435" lon="-4.813184">
   <ele>810.00</ele>
   <time>2014-04-07T14:38:38Z</time>
  </trkpt>
  <trkpt lat="33.825505" lon="-4.813456">
   <ele>809.00</ele>
   <time>2014-04-07T14:38:40Z</time>
  </trkpt>
  <trkpt lat="33.825560" lon="-4.813716">
   <ele>808.00</ele>
   <time>2014-04-07T14:38:42Z</time>
  </trkpt>
  <trkpt lat="33.825601" lon="-4.813969">
   <ele>807.00</ele>
   <time>2014-04-07T14:38:44Z</time>
  </trkpt>
  <trkpt lat="33.825631" lon="-4.814220">
   <ele>807.00</ele>
   <time>2014-04-07T14:38:46Z</time>
  </trkpt>
  <trkpt lat="33.825661" lon="-4.814593">
   <ele>805.00</ele>
   <time>2014-04-07T14:38:49Z</time>
  </trkpt>
  <trkpt lat="33.825698" lon="-4.815173">
   <ele>804.00</ele>
   <time>2014-04-07T14:38:54Z</time>
  </trkpt>
  <trkpt lat="33.825752" lon="-4.815567">
   <ele>803.00</ele>
   <time>2014-04-07T14:38:58Z</time>
  </trkpt>
  <trkpt lat="33.825706" lon="-4.815937">
   <ele>802.00</ele>
   <time>2014-04-07T14:39:02Z</time>
  </trkpt>
  <trkpt lat="33.825715" lon="-4.816242">
   <ele>802.00</ele>
   <time>2014-04-07T14:39:05Z</time>
  </trkpt>
  <trkpt lat="33.825802" lon="-4.818124">
   <ele>805.00</ele>
   <time>2014-04-07T14:39:20Z</time>
  </trkpt>
  <trkpt lat="33.825861" lon="-4.819540">
   <ele>807.00</ele>
   <time>2014-04-07T14:39:31Z</time>
  </trkpt>
  <trkpt lat="33.825891" lon="-4.819789">
   <ele>807.00</ele>
   <time>2014-04-07T14:39:33Z</time>
  </trkpt>
  <trkpt lat="33.825940" lon="-4.820035">
   <ele>807.00</ele>
   <time>2014-04-07T14:39:35Z</time>
  </trkpt>
  <trkpt lat="33.826004" lon="-4.820280">
   <ele>808.00</ele>
   <time>2014-04-07T14:39:37Z</time>
  </trkpt>
  <trkpt lat="33.826309" lon="-4.821366">
   <ele>809.00</ele>
   <time>2014-04-07T14:39:47Z</time>
  </trkpt>
  <trkpt lat="33.826384" lon="-4.821649">
   <ele>810.00</ele>
   <time>2014-04-07T14:39:50Z</time>
  </trkpt>
  <trkpt lat="33.826498" lon="-4.822044">
   <ele>810.00</ele>
   <time>2014-04-07T14:39:54Z</time>
  </trkpt>
  <trkpt lat="33.826570" lon="-4.822357">
   <ele>810.00</ele>
   <time>2014-04-07T14:39:57Z</time>
  </trkpt>
  <trkpt lat="33.826605" lon="-4.822572">
   <ele>810.00</ele>
   <time>2014-04-07T14:39:59Z</time>
  </trkpt>
  <trkpt lat="33.826770" lon="-4.823849">
   <ele>811.00</ele>
   <time>2014-04-07T14:40:12Z</time>
  </trkpt>
  <trkpt lat="33.826825" lon="-4.824056">
   <ele>811.00</ele>
   <time>2014-04-07T14:40:15Z</time>
  </trkpt>
  <trkpt lat="33.826847" lon="-4.824279">
   <ele>811.00</ele>
   <time>2014-04-07T14:40:19Z</time>
  </trkpt>
  <trkpt lat="33.826663" lon="-4.824331">
   <ele>811.00</ele>
   <time>2014-04-07T14:40:24Z</time>
  </trkpt>
  <trkpt lat="33.826483" lon="-4.824323">
   <ele>810.00</ele>
   <time>2014-04-07T14:40:27Z</time>
  </trkpt>
  <trkpt lat="33.826263" lon="-4.824376">
   <ele>811.00</ele>
   <time>2014-04-07T14:40:30Z</time>
  </trkpt>
  <trkpt lat="33.825542" lon="-4.824588">
   <ele>816.00</ele>
   <time>2014-04-07T14:40:38Z</time>
  </trkpt>
  <trkpt lat="33.823719" lon="-4.825152">
   <ele>826.00</ele>
   <time>2014-04-07T14:40:54Z</time>
  </trkpt>
  <trkpt lat="33.821879" lon="-4.825724">
   <ele>833.00</ele>
   <time>2014-04-07T14:41:10Z</time>
  </trkpt>
  <trkpt lat="33.821241" lon="-4.825925">
   <ele>836.00</ele>
   <time>2014-04-07T14:41:16Z</time>
  </trkpt>
  <trkpt lat="33.820663" lon="-4.826136">
   <ele>838.00</ele>
   <time>2014-04-07T14:41:22Z</time>
  </trkpt>
  <trkpt lat="33.820386" lon="-4.826256">
   <ele>840.00</ele>
   <time>2014-04-07T14:41:25Z</time>
  </trkpt>
  <trkpt lat="33.820103" lon="-4.826397">
   <ele>841.00</ele>
   <time>2014-04-07T14:41:28Z</time>
  </trkpt>
  <trkpt lat="33.819718" lon="-4.826612">
   <ele>843.00</ele>
   <time>2014-04-07T14:41:32Z</time>
  </trkpt>
  <trkpt lat="33.819528" lon="-4.826740">
   <ele>843.00</ele>
   <time>2014-04-07T14:41:34Z</time>
  </trkpt>
  <trkpt lat="33.819345" lon="-4.826886">
   <ele>844.00</ele>
   <time>2014-04-07T14:41:36Z</time>
  </trkpt>
  <trkpt lat="33.819167" lon="-4.827048">
   <ele>845.00</ele>
   <time>2014-04-07T14:41:38Z</time>
  </trkpt>
  <trkpt lat="33.818905" lon="-4.827306">
   <ele>847.00</ele>
   <time>2014-04-07T14:41:41Z</time>
  </trkpt>
  <trkpt lat="33.818655" lon="-4.827580">
   <ele>849.00</ele>
   <time>2014-04-07T14:41:44Z</time>
  </trkpt>
  <trkpt lat="33.818498" lon="-4.827776">
   <ele>851.00</ele>
   <time>2014-04-07T14:41:46Z</time>
  </trkpt>
  <trkpt lat="33.818352" lon="-4.827984">
   <ele>852.00</ele>
   <time>2014-04-07T14:41:48Z</time>
  </trkpt>
  <trkpt lat="33.818147" lon="-4.828304">
   <ele>855.00</ele>
   <time>2014-04-07T14:41:51Z</time>
  </trkpt>
  <trkpt lat="33.818018" lon="-4.828522">
   <ele>856.00</ele>
   <time>2014-04-07T14:41:53Z</time>
  </trkpt>
  <trkpt lat="33.817778" lon="-4.828961">
   <ele>858.00</ele>
   <time>2014-04-07T14:41:57Z</time>
  </trkpt>
  <trkpt lat="33.817609" lon="-4.829279">
   <ele>860.00</ele>
   <time>2014-04-07T14:42:00Z</time>
  </trkpt>
  <trkpt lat="33.817453" lon="-4.829542">
   <ele>863.00</ele>
   <time>2014-04-07T14:42:03Z</time>
  </trkpt>
  <trkpt lat="33.817257" lon="-4.829860">
   <ele>865.00</ele>
   <time>2014-04-07T14:42:07Z</time>
  </trkpt>
  <trkpt lat="33.817103" lon="-4.830140">
   <ele>866.00</ele>
   <time>2014-04-07T14:42:10Z</time>
  </trkpt>
  <trkpt lat="33.816714" lon="-4.830885">
   <ele>868.00</ele>
   <time>2014-04-07T14:42:17Z</time>
  </trkpt>
  <trkpt lat="33.816614" lon="-4.831103">
   <ele>869.00</ele>
   <time>2014-04-07T14:42:19Z</time>
  </trkpt>
  <trkpt lat="33.816348" lon="-4.831746">
   <ele>869.00</ele>
   <time>2014-04-07T14:42:26Z</time>
  </trkpt>
  <trkpt lat="33.816302" lon="-4.831953">
   <ele>869.00</ele>
   <time>2014-04-07T14:42:31Z</time>
  </trkpt>
  <trkpt lat="33.816464" lon="-4.832093">
   <ele>867.00</ele>
   <time>2014-04-07T14:42:37Z</time>
  </trkpt>
  <trkpt lat="33.816988" lon="-4.832336">
   <ele>863.00</ele>
   <time>2014-04-07T14:42:45Z</time>
  </trkpt>
  <trkpt lat="33.817563" lon="-4.832632">
   <ele>859.00</ele>
   <time>2014-04-07T14:42:52Z</time>
  </trkpt>
  <trkpt lat="33.818026" lon="-4.832850">
   <ele>857.00</ele>
   <time>2014-04-07T14:42:57Z</time>
  </trkpt>
  <trkpt lat="33.818577" lon="-4.833138">
   <ele>854.00</ele>
   <time>2014-04-07T14:43:03Z</time>
  </trkpt>
  <trkpt lat="33.818830" lon="-4.833298">
   <ele>852.00</ele>
   <time>2014-04-07T14:43:06Z</time>
  </trkpt>
  <trkpt lat="33.819174" lon="-4.833530">
   <ele>850.00</ele>
   <time>2014-04-07T14:43:11Z</time>
  </trkpt>
  <trkpt lat="33.819418" lon="-4.833663">
   <ele>849.00</ele>
   <time>2014-04-07T14:43:15Z</time>
  </trkpt>
  <trkpt lat="33.819859" lon="-4.834001">
   <ele>846.00</ele>
   <time>2014-04-07T14:43:21Z</time>
  </trkpt>
  <trkpt lat="33.820671" lon="-4.834568">
   <ele>843.00</ele>
   <time>2014-04-07T14:43:30Z</time>
  </trkpt>
  <trkpt lat="33.821179" lon="-4.834935">
   <ele>842.00</ele>
   <time>2014-04-07T14:43:36Z</time>
  </trkpt>
  <trkpt lat="33.821586" lon="-4.835209">
   <ele>842.00</ele>
   <time>2014-04-07T14:43:42Z</time>
  </trkpt>
  <trkpt lat="33.821789" lon="-4.835292">
   <ele>842.00</ele>
   <time>2014-04-07T14:43:46Z</time>
  </trkpt>
  <trkpt lat="33.821849" lon="-4.835480">
   <ele>842.00</ele>
   <time>2014-04-07T14:43:52Z</time>
  </trkpt>
  <trkpt lat="33.821732" lon="-4.835696">
   <ele>843.00</ele>
   <time>2014-04-07T14:43:56Z</time>
  </trkpt>
  <trkpt lat="33.821658" lon="-4.835925">
   <ele>845.00</ele>
   <time>2014-04-07T14:43:59Z</time>
  </trkpt>
  <trkpt lat="33.821605" lon="-4.836183">
   <ele>846.00</ele>
   <time>2014-04-07T14:44:02Z</time>
  </trkpt>
  <trkpt lat="33.821579" lon="-4.836457">
   <ele>848.00</ele>
   <time>2014-04-07T14:44:05Z</time>
  </trkpt>
  <trkpt lat="33.821586" lon="-4.836739">
   <ele>850.00</ele>
   <time>2014-04-07T14:44:08Z</time>
  </trkpt>
  <trkpt lat="33.821626" lon="-4.837012">
   <ele>852.00</ele>
   <time>2014-04-07T14:44:11Z</time>
  </trkpt>
  <trkpt lat="33.821706" lon="-4.837284">
   <ele>855.00</ele>
   <time>2014-04-07T14:44:14Z</time>
  </trkpt>
  <trkpt lat="33.821822" lon="-4.837569">
   <ele>857.00</ele>
   <time>2014-04-07T14:44:17Z</time>
  </trkpt>
  <trkpt lat="33.822154" lon="-4.838317">
   <ele>859.00</ele>
   <time>2014-04-07T14:44:30Z</time>
  </trkpt>
  <trkpt lat="33.822000" lon="-4.838440">
   <ele>860.00</ele>
   <time>2014-04-07T14:44:40Z</time>
  </trkpt>
  <trkpt lat="33.821794" lon="-4.838502">
   <ele>860.00</ele>
   <time>2014-04-07T14:44:45Z</time>
  </trkpt>
  <trkpt lat="33.821239" lon="-4.838576">
   <ele>865.00</ele>
   <time>2014-04-07T14:44:54Z</time>
  </trkpt>
  <trkpt lat="33.820742" lon="-4.838613">
   <ele>870.00</ele>
   <time>2014-04-07T14:45:00Z</time>
  </trkpt>
  <trkpt lat="33.820050" lon="-4.838707">
   <ele>878.00</ele>
   <time>2014-04-07T14:45:09Z</time>
  </trkpt>
  <trkpt lat="33.819767" lon="-4.838750">
   <ele>883.00</ele>
   <time>2014-04-07T14:45:13Z</time>
  </trkpt>
  <trkpt lat="33.819583" lon="-4.838815">
   <ele>886.00</ele>
   <time>2014-04-07T14:45:16Z</time>
  </trkpt>
  <trkpt lat="33.819445" lon="-4.839007">
   <ele>887.00</ele>
   <time>2014-04-07T14:45:19Z</time>
  </trkpt>
  <trkpt lat="33.819376" lon="-4.839296">
   <ele>889.00</ele>
   <time>2014-04-07T14:45:22Z</time>
  </trkpt>
  <trkpt lat="33.819350" lon="-4.839608">
   <ele>890.00</ele>
   <time>2014-04-07T14:45:25Z</time>
  </trkpt>
  <trkpt lat="33.819405" lon="-4.839913">
   <ele>892.00</ele>
   <time>2014-04-07T14:45:28Z</time>
  </trkpt>
  <trkpt lat="33.819527" lon="-4.840185">
   <ele>893.00</ele>
   <time>2014-04-07T14:45:31Z</time>
  </trkpt>
  <trkpt lat="33.819662" lon="-4.840430">
   <ele>894.00</ele>
   <time>2014-04-07T14:45:34Z</time>
  </trkpt>
  <trkpt lat="33.819802" lon="-4.840659">
   <ele>896.00</ele>
   <time>2014-04-07T14:45:37Z</time>
  </trkpt>
  <trkpt lat="33.819985" lon="-4.840869">
   <ele>897.00</ele>
   <time>2014-04-07T14:45:40Z</time>
  </trkpt>
  <trkpt lat="33.820149" lon="-4.840969">
   <ele>898.00</ele>
   <time>2014-04-07T14:45:42Z</time>
  </trkpt>
  <trkpt lat="33.820322" lon="-4.841047">
   <ele>898.00</ele>
   <time>2014-04-07T14:45:44Z</time>
  </trkpt>
  <trkpt lat="33.821518" lon="-4.841560">
   <ele>900.00</ele>
   <time>2014-04-07T14:45:59Z</time>
  </trkpt>
  <trkpt lat="33.822069" lon="-4.841809">
   <ele>901.00</ele>
   <time>2014-04-07T14:46:09Z</time>
  </trkpt>
  <trkpt lat="33.822304" lon="-4.841878">
   <ele>901.00</ele>
   <time>2014-04-07T14:46:12Z</time>
  </trkpt>
  <trkpt lat="33.822558" lon="-4.841898">
   <ele>900.00</ele>
   <time>2014-04-07T14:46:15Z</time>
  </trkpt>
  <trkpt lat="33.823458" lon="-4.841867">
   <ele>894.00</ele>
   <time>2014-04-07T14:46:25Z</time>
  </trkpt>
  <trkpt lat="33.823656" lon="-4.841818">
   <ele>893.00</ele>
   <time>2014-04-07T14:46:28Z</time>
  </trkpt>
  <trkpt lat="33.823843" lon="-4.841776">
   <ele>891.00</ele>
   <time>2014-04-07T14:46:34Z</time>
  </trkpt>
  <trkpt lat="33.823914" lon="-4.841976">
   <ele>891.00</ele>
   <time>2014-04-07T14:46:38Z</time>
  </trkpt>
  <trkpt lat="33.823935" lon="-4.842266">
   <ele>894.00</ele>
   <time>2014-04-07T14:46:42Z</time>
  </trkpt>
  <trkpt lat="33.823930" lon="-4.842519">
   <ele>896.00</ele>
   <time>2014-04-07T14:46:45Z</time>
  </trkpt>
  <trkpt lat="33.823919" lon="-4.842777">
   <ele>898.00</ele>
   <time>2014-04-07T14:46:48Z</time>
  </trkpt>
  <trkpt lat="33.823890" lon="-4.843039">
   <ele>900.00</ele>
   <time>2014-04-07T14:46:51Z</time>
  </trkpt>
  <trkpt lat="33.823818" lon="-4.843279">
   <ele>902.00</ele>
   <time>2014-04-07T14:46:54Z</time>
  </trkpt>
  <trkpt lat="33.823692" lon="-4.843458">
   <ele>905.00</ele>
   <time>2014-04-07T14:46:57Z</time>
  </trkpt>
  <trkpt lat="33.823472" lon="-4.843545">
   <ele>907.00</ele>
   <time>2014-04-07T14:47:01Z</time>
  </trkpt>
  <trkpt lat="33.823242" lon="-4.843487">
   <ele>911.00</ele>
   <time>2014-04-07T14:47:05Z</time>
  </trkpt>
  <trkpt lat="33.823070" lon="-4.843367">
   <ele>913.00</ele>
   <time>2014-04-07T14:47:09Z</time>
  </trkpt>
  <trkpt lat="33.822936" lon="-4.843203">
   <ele>915.00</ele>
   <time>2014-04-07T14:47:14Z</time>
  </trkpt>
  <trkpt lat="33.822776" lon="-4.843065">
   <ele>918.00</ele>
   <time>2014-04-07T14:47:18Z</time>
  </trkpt>
  <trkpt lat="33.822559" lon="-4.843035">
   <ele>920.00</ele>
   <time>2014-04-07T14:47:22Z</time>
  </trkpt>
  <trkpt lat="33.822362" lon="-4.843121">
   <ele>922.00</ele>
   <time>2014-04-07T14:47:26Z</time>
  </trkpt>
  <trkpt lat="33.822169" lon="-4.843160">
   <ele>924.00</ele>
   <time>2014-04-07T14:47:30Z</time>
  </trkpt>
  <trkpt lat="33.821909" lon="-4.843107">
   <ele>926.00</ele>
   <time>2014-04-07T14:47:35Z</time>
  </trkpt>
  <trkpt lat="33.821424" lon="-4.843036">
   <ele>929.00</ele>
   <time>2014-04-07T14:47:43Z</time>
  </trkpt>
  <trkpt lat="33.821243" lon="-4.843003">
   <ele>931.00</ele>
   <time>2014-04-07T14:47:46Z</time>
  </trkpt>
  <trkpt lat="33.821023" lon="-4.843015">
   <ele>936.00</ele>
   <time>2014-04-07T14:47:50Z</time>
  </trkpt>
  <trkpt lat="33.820845" lon="-4.843080">
   <ele>939.00</ele>
   <time>2014-04-07T14:47:55Z</time>
  </trkpt>
  <trkpt lat="33.820660" lon="-4.843025">
   <ele>941.00</ele>
   <time>2014-04-07T14:48:00Z</time>
  </trkpt>
  <trkpt lat="33.820460" lon="-4.842987">
   <ele>943.00</ele>
   <time>2014-04-07T14:48:07Z</time>
  </trkpt>
  <trkpt lat="33.820413" lon="-4.843098">
   <ele>944.00</ele>
   <time>2014-04-07T14:48:15Z</time>
  </trkpt>
  <trkpt lat="33.820629" lon="-4.843189">
   <ele>944.00</ele>
   <time>2014-04-07T14:48:22Z</time>
  </trkpt>
  <trkpt lat="33.820688" lon="-4.843322">
   <ele>944.00</ele>
   <time>2014-04-07T14:48:30Z</time>
  </trkpt>
  <trkpt lat="33.820436" lon="-4.843353">
   <ele>947.00</ele>
   <time>2014-04-07T14:48:38Z</time>
  </trkpt>
  <trkpt lat="33.820232" lon="-4.843400">
   <ele>948.00</ele>
   <time>2014-04-07T14:48:44Z</time>
  </trkpt>
  <trkpt lat="33.820136" lon="-4.843607">
   <ele>950.00</ele>
   <time>2014-04-07T14:48:51Z</time>
  </trkpt>
  <trkpt lat="33.820019" lon="-4.843783">
   <ele>951.00</ele>
   <time>2014-04-07T14:48:57Z</time>
  </trkpt>
  <trkpt lat="33.819859" lon="-4.843891">
   <ele>950.00</ele>
   <time>2014-04-07T14:49:04Z</time>
  </trkpt>
  <trkpt lat="33.819835" lon="-4.843878">
   <ele>951.00</ele>
   <time>2014-04-07T14:49:20Z</time>
  </trkpt>
  <trkpt lat="33.819837" lon="-4.843865">
   <ele>953.00</ele>
   <time>2014-04-07T14:49:35Z</time>
  </trkpt>
  <trkpt lat="33.819836" lon="-4.843855">
   <ele>954.00</ele>
   <time>2014-04-07T14:49:50Z</time>
  </trkpt>
  <trkpt lat="33.819832" lon="-4.843850">
   <ele>953.00</ele>
   <time>2014-04-07T14:50:06Z</time>
  </trkpt>
  <trkpt lat="33.819817" lon="-4.843857">
   <ele>952.00</ele>
   <time>2014-04-07T14:50:21Z</time>
  </trkpt>
  <trkpt lat="33.819781" lon="-4.843888">
   <ele>958.00</ele>
   <time>2014-04-07T14:50:37Z</time>
  </trkpt>
  <trkpt lat="33.819799" lon="-4.843865">
   <ele>962.00</ele>
   <time>2014-04-07T14:50:52Z</time>
  </trkpt>
  <trkpt lat="33.819813" lon="-4.843841">
   <ele>964.00</ele>
   <time>2014-04-07T14:51:07Z</time>
  </trkpt>
  <trkpt lat="33.819810" lon="-4.843843">
   <ele>966.00</ele>
   <time>2014-04-07T14:51:22Z</time>
  </trkpt>
  <trkpt lat="33.819792" lon="-4.843844">
   <ele>969.00</ele>
   <time>2014-04-07T14:51:38Z</time>
  </trkpt>
  <trkpt lat="33.819734" lon="-4.843893">
   <ele>975.00</ele>
   <time>2014-04-07T14:51:53Z</time>
  </trkpt>
  <trkpt lat="33.819719" lon="-4.843905">
   <ele>979.00</ele>
   <time>2014-04-07T14:52:09Z</time>
  </trkpt>
  <trkpt lat="33.819789" lon="-4.843846">
   <ele>968.00</ele>
   <time>2014-04-07T14:52:24Z</time>
  </trkpt>
  <trkpt lat="33.819814" lon="-4.843833">
   <ele>965.00</ele>
   <time>2014-04-07T14:52:39Z</time>
  </trkpt>
  <trkpt lat="33.819832" lon="-4.843822">
   <ele>964.00</ele>
   <time>2014-04-07T14:52:54Z</time>
  </trkpt>
  <trkpt lat="33.819835" lon="-4.843834">
   <ele>962.00</ele>
   <time>2014-04-07T14:53:10Z</time>
  </trkpt>
  <trkpt lat="33.819831" lon="-4.843849">
   <ele>960.00</ele>
   <time>2014-04-07T14:53:25Z</time>
  </trkpt>
  <trkpt lat="33.819830" lon="-4.843858">
   <ele>958.00</ele>
   <time>2014-04-07T14:53:40Z</time>
  </trkpt>
  <trkpt lat="33.819845" lon="-4.843853">
   <ele>957.00</ele>
   <time>2014-04-07T14:53:55Z</time>
  </trkpt>
  <trkpt lat="33.819846" lon="-4.843859">
   <ele>955.00</ele>
   <time>2014-04-07T14:54:11Z</time>
  </trkpt>
  <trkpt lat="33.819869" lon="-4.843838">
   <ele>953.00</ele>
   <time>2014-04-07T14:54:26Z</time>
  </trkpt>
  <trkpt lat="33.819846" lon="-4.843684">
   <ele>950.00</ele>
   <time>2014-04-07T14:54:42Z</time>
  </trkpt>
  <trkpt lat="33.820028" lon="-4.843637">
   <ele>951.00</ele>
   <time>2014-04-07T14:54:51Z</time>
  </trkpt>
  <trkpt lat="33.820189" lon="-4.843511">
   <ele>951.00</ele>
   <time>2014-04-07T14:54:58Z</time>
  </trkpt>
  <trkpt lat="33.820326" lon="-4.843369">
   <ele>948.00</ele>
   <time>2014-04-07T14:55:04Z</time>
  </trkpt>
  <trkpt lat="33.820603" lon="-4.843324">
   <ele>944.00</ele>
   <time>2014-04-07T14:55:11Z</time>
  </trkpt>
  <trkpt lat="33.820813" lon="-4.843253">
   <ele>942.00</ele>
   <time>2014-04-07T14:55:16Z</time>
  </trkpt>
  <trkpt lat="33.820967" lon="-4.843073">
   <ele>939.00</ele>
   <time>2014-04-07T14:55:21Z</time>
  </trkpt>
  <trkpt lat="33.821149" lon="-4.842999">
   <ele>935.00</ele>
   <time>2014-04-07T14:55:27Z</time>
  </trkpt>
  <trkpt lat="33.821335" lon="-4.843006">
   <ele>932.00</ele>
   <time>2014-04-07T14:55:30Z</time>
  </trkpt>
  <trkpt lat="33.821710" lon="-4.843057">
   <ele>929.00</ele>
   <time>2014-04-07T14:55:35Z</time>
  </trkpt>
  <trkpt lat="33.821990" lon="-4.843098">
   <ele>927.00</ele>
   <time>2014-04-07T14:55:39Z</time>
  </trkpt>
  <trkpt lat="33.822177" lon="-4.843129">
   <ele>925.00</ele>
   <time>2014-04-07T14:55:42Z</time>
  </trkpt>
  <trkpt lat="33.822382" lon="-4.843088">
   <ele>922.00</ele>
   <time>2014-04-07T14:55:46Z</time>
  </trkpt>
  <trkpt lat="33.822570" lon="-4.843007">
   <ele>920.00</ele>
   <time>2014-04-07T14:55:49Z</time>
  </trkpt>
  <trkpt lat="33.822777" lon="-4.843013">
   <ele>917.00</ele>
   <time>2014-04-07T14:55:52Z</time>
  </trkpt>
  <trkpt lat="33.822958" lon="-4.843149">
   <ele>914.00</ele>
   <time>2014-04-07T14:55:55Z</time>
  </trkpt>
  <trkpt lat="33.823122" lon="-4.843339">
   <ele>911.00</ele>
   <time>2014-04-07T14:55:58Z</time>
  </trkpt>
  <trkpt lat="33.823317" lon="-4.843450">
   <ele>908.00</ele>
   <time>2014-04-07T14:56:01Z</time>
  </trkpt>
  <trkpt lat="33.823514" lon="-4.843489">
   <ele>906.00</ele>
   <time>2014-04-07T14:56:04Z</time>
  </trkpt>
  <trkpt lat="33.823690" lon="-4.843419">
   <ele>904.00</ele>
   <time>2014-04-07T14:56:07Z</time>
  </trkpt>
  <trkpt lat="33.823820" lon="-4.843224">
   <ele>901.00</ele>
   <time>2014-04-07T14:56:10Z</time>
  </trkpt>
  <trkpt lat="33.823886" lon="-4.842957">
   <ele>898.00</ele>
   <time>2014-04-07T14:56:13Z</time>
  </trkpt>
  <trkpt lat="33.823908" lon="-4.842659">
   <ele>895.00</ele>
   <time>2014-04-07T14:56:16Z</time>
  </trkpt>
  <trkpt lat="33.823911" lon="-4.842343">
   <ele>892.00</ele>
   <time>2014-04-07T14:56:19Z</time>
  </trkpt>
  <trkpt lat="33.823892" lon="-4.842036">
   <ele>890.00</ele>
   <time>2014-04-07T14:56:22Z</time>
  </trkpt>
  <trkpt lat="33.823842" lon="-4.841765">
   <ele>889.00</ele>
   <time>2014-04-07T14:56:25Z</time>
  </trkpt>
  <trkpt lat="33.823813" lon="-4.841496">
   <ele>886.00</ele>
   <time>2014-04-07T14:56:28Z</time>
  </trkpt>
  <trkpt lat="33.823879" lon="-4.841242">
   <ele>884.00</ele>
   <time>2014-04-07T14:56:31Z</time>
  </trkpt>
  <trkpt lat="33.824047" lon="-4.841056">
   <ele>883.00</ele>
   <time>2014-04-07T14:56:34Z</time>
  </trkpt>
  <trkpt lat="33.824205" lon="-4.840951">
   <ele>881.00</ele>
   <time>2014-04-07T14:56:37Z</time>
  </trkpt>
  <trkpt lat="33.824421" lon="-4.841021">
   <ele>880.00</ele>
   <time>2014-04-07T14:56:41Z</time>
  </trkpt>
  <trkpt lat="33.824612" lon="-4.841134">
   <ele>880.00</ele>
   <time>2014-04-07T14:56:44Z</time>
  </trkpt>
  <trkpt lat="33.824803" lon="-4.841161">
   <ele>880.00</ele>
   <time>2014-04-07T14:56:47Z</time>
  </trkpt>
  <trkpt lat="33.825060" lon="-4.841155">
   <ele>878.00</ele>
   <time>2014-04-07T14:56:51Z</time>
  </trkpt>
  <trkpt lat="33.825232" lon="-4.841226">
   <ele>878.00</ele>
   <time>2014-04-07T14:56:55Z</time>
  </trkpt>
  <trkpt lat="33.825374" lon="-4.841095">
   <ele>875.00</ele>
   <time>2014-04-07T14:57:01Z</time>
  </trkpt>
  <trkpt lat="33.825507" lon="-4.840864">
   <ele>873.00</ele>
   <time>2014-04-07T14:57:05Z</time>
  </trkpt>
  <trkpt lat="33.825627" lon="-4.840673">
   <ele>869.00</ele>
   <time>2014-04-07T14:57:08Z</time>
  </trkpt>
  <trkpt lat="33.825693" lon="-4.840434">
   <ele>866.00</ele>
   <time>2014-04-07T14:57:11Z</time>
  </trkpt>
  <trkpt lat="33.825720" lon="-4.840176">
   <ele>864.00</ele>
   <time>2014-04-07T14:57:14Z</time>
  </trkpt>
  <trkpt lat="33.825760" lon="-4.839744">
   <ele>860.00</ele>
   <time>2014-04-07T14:57:19Z</time>
  </trkpt>
  <trkpt lat="33.825719" lon="-4.839478">
   <ele>858.00</ele>
   <time>2014-04-07T14:57:23Z</time>
  </trkpt>
  <trkpt lat="33.825722" lon="-4.839258">
   <ele>857.00</ele>
   <time>2014-04-07T14:57:27Z</time>
  </trkpt>
  <trkpt lat="33.825848" lon="-4.839036">
   <ele>855.00</ele>
   <time>2014-04-07T14:57:31Z</time>
  </trkpt>
  <trkpt lat="33.825963" lon="-4.838813">
   <ele>852.00</ele>
   <time>2014-04-07T14:57:35Z</time>
  </trkpt>
  <trkpt lat="33.826025" lon="-4.838607">
   <ele>850.00</ele>
   <time>2014-04-07T14:57:41Z</time>
  </trkpt>
  <trkpt lat="33.826088" lon="-4.838400">
   <ele>850.00</ele>
   <time>2014-04-07T14:57:47Z</time>
  </trkpt>
  <trkpt lat="33.826182" lon="-4.838172">
   <ele>848.00</ele>
   <time>2014-04-07T14:57:52Z</time>
  </trkpt>
  <trkpt lat="33.826292" lon="-4.837938">
   <ele>847.00</ele>
   <time>2014-04-07T14:57:56Z</time>
  </trkpt>
  <trkpt lat="33.826371" lon="-4.837737">
   <ele>845.00</ele>
   <time>2014-04-07T14:57:59Z</time>
  </trkpt>
  <trkpt lat="33.826459" lon="-4.837455">
   <ele>844.00</ele>
   <time>2014-04-07T14:58:03Z</time>
  </trkpt>
  <trkpt lat="33.826586" lon="-4.837042">
   <ele>841.00</ele>
   <time>2014-04-07T14:58:09Z</time>
  </trkpt>
  <trkpt lat="33.826688" lon="-4.836846">
   <ele>840.00</ele>
   <time>2014-04-07T14:58:12Z</time>
  </trkpt>
  <trkpt lat="33.826836" lon="-4.836661">
   <ele>839.00</ele>
   <time>2014-04-07T14:58:15Z</time>
  </trkpt>
  <trkpt lat="33.827115" lon="-4.836368">
   <ele>837.00</ele>
   <time>2014-04-07T14:58:20Z</time>
  </trkpt>
  <trkpt lat="33.827274" lon="-4.836195">
   <ele>835.00</ele>
   <time>2014-04-07T14:58:23Z</time>
  </trkpt>
  <trkpt lat="33.827505" lon="-4.835934">
   <ele>834.00</ele>
   <time>2014-04-07T14:58:28Z</time>
  </trkpt>
  <trkpt lat="33.827628" lon="-4.835741">
   <ele>831.00</ele>
   <time>2014-04-07T14:58:34Z</time>
  </trkpt>
  <trkpt lat="33.827757" lon="-4.835484">
   <ele>829.00</ele>
   <time>2014-04-07T14:58:41Z</time>
  </trkpt>
  <trkpt lat="33.827815" lon="-4.835226">
   <ele>827.00</ele>
   <time>2014-04-07T14:58:46Z</time>
  </trkpt>
  <trkpt lat="33.827853" lon="-4.834837">
   <ele>825.00</ele>
   <time>2014-04-07T14:58:53Z</time>
  </trkpt>
  <trkpt lat="33.827866" lon="-4.834612">
   <ele>824.00</ele>
   <time>2014-04-07T14:58:57Z</time>
  </trkpt>
  <trkpt lat="33.827869" lon="-4.834331">
   <ele>822.00</ele>
   <time>2014-04-07T14:59:02Z</time>
  </trkpt>
  <trkpt lat="33.827864" lon="-4.834110">
   <ele>820.00</ele>
   <time>2014-04-07T14:59:06Z</time>
  </trkpt>
  <trkpt lat="33.827865" lon="-4.833870">
   <ele>819.00</ele>
   <time>2014-04-07T14:59:10Z</time>
  </trkpt>
  <trkpt lat="33.827875" lon="-4.833612">
   <ele>818.00</ele>
   <time>2014-04-07T14:59:14Z</time>
  </trkpt>
  <trkpt lat="33.827873" lon="-4.833290">
   <ele>817.00</ele>
   <time>2014-04-07T14:59:19Z</time>
  </trkpt>
  <trkpt lat="33.827965" lon="-4.833027">
   <ele>816.00</ele>
   <time>2014-04-07T14:59:23Z</time>
  </trkpt>
  <trkpt lat="33.828040" lon="-4.832794">
   <ele>816.00</ele>
   <time>2014-04-07T14:59:26Z</time>
  </trkpt>
  <trkpt lat="33.828119" lon="-4.832551">
   <ele>815.00</ele>
   <time>2014-04-07T14:59:29Z</time>
  </trkpt>
  <trkpt lat="33.828253" lon="-4.832129">
   <ele>815.00</ele>
   <time>2014-04-07T14:59:34Z</time>
  </trkpt>
  <trkpt lat="33.828310" lon="-4.831876">
   <ele>815.00</ele>
   <time>2014-04-07T14:59:37Z</time>
  </trkpt>
  <trkpt lat="33.828334" lon="-4.831607">
   <ele>814.00</ele>
   <time>2014-04-07T14:59:40Z</time>
  </trkpt>
  <trkpt lat="33.828331" lon="-4.831342">
   <ele>814.00</ele>
   <time>2014-04-07T14:59:43Z</time>
  </trkpt>
  <trkpt lat="33.828301" lon="-4.831086">
   <ele>814.00</ele>
   <time>2014-04-07T14:59:46Z</time>
  </trkpt>
  <trkpt lat="33.828264" lon="-4.830865">
   <ele>814.00</ele>
   <time>2014-04-07T14:59:49Z</time>
  </trkpt>
  <trkpt lat="33.828158" lon="-4.830648">
   <ele>814.00</ele>
   <time>2014-04-07T14:59:55Z</time>
  </trkpt>
  <trkpt lat="33.828078" lon="-4.830436">
   <ele>815.00</ele>
   <time>2014-04-07T15:00:00Z</time>
  </trkpt>
  <trkpt lat="33.828229" lon="-4.830322">
   <ele>815.00</ele>
   <time>2014-04-07T15:00:05Z</time>
  </trkpt>
  <trkpt lat="33.828398" lon="-4.830458">
   <ele>815.00</ele>
   <time>2014-04-07T15:00:09Z</time>
  </trkpt>
  <trkpt lat="33.828569" lon="-4.830568">
   <ele>817.00</ele>
   <time>2014-04-07T15:00:12Z</time>
  </trkpt>
  <trkpt lat="33.828770" lon="-4.830677">
   <ele>817.00</ele>
   <time>2014-04-07T15:00:15Z</time>
  </trkpt>
  <trkpt lat="33.829312" lon="-4.830958">
   <ele>818.00</ele>
   <time>2014-04-07T15:00:23Z</time>
  </trkpt>
  <trkpt lat="33.829624" lon="-4.831130">
   <ele>819.00</ele>
   <time>2014-04-07T15:00:28Z</time>
  </trkpt>
  <trkpt lat="33.829822" lon="-4.831245">
   <ele>819.00</ele>
   <time>2014-04-07T15:00:32Z</time>
  </trkpt>
  <trkpt lat="33.829983" lon="-4.831357">
   <ele>819.00</ele>
   <time>2014-04-07T15:00:36Z</time>
  </trkpt>
  <trkpt lat="33.830152" lon="-4.831485">
   <ele>819.00</ele>
   <time>2014-04-07T15:00:40Z</time>
  </trkpt>
  <trkpt lat="33.830830" lon="-4.831960">
   <ele>819.00</ele>
   <time>2014-04-07T15:00:52Z</time>
  </trkpt>
  <trkpt lat="33.831001" lon="-4.832141">
   <ele>818.00</ele>
   <time>2014-04-07T15:00:55Z</time>
  </trkpt>
  <trkpt lat="33.831157" lon="-4.832359">
   <ele>817.00</ele>
   <time>2014-04-07T15:00:58Z</time>
  </trkpt>
  <trkpt lat="33.831291" lon="-4.832622">
   <ele>816.00</ele>
   <time>2014-04-07T15:01:01Z</time>
  </trkpt>
  <trkpt lat="33.831529" lon="-4.833150">
   <ele>816.00</ele>
   <time>2014-04-07T15:01:07Z</time>
  </trkpt>
  <trkpt lat="33.831674" lon="-4.833387">
   <ele>817.00</ele>
   <time>2014-04-07T15:01:10Z</time>
  </trkpt>
  <trkpt lat="33.831848" lon="-4.833578">
   <ele>818.00</ele>
   <time>2014-04-07T15:01:13Z</time>
  </trkpt>
  <trkpt lat="33.832035" lon="-4.833730">
   <ele>820.00</ele>
   <time>2014-04-07T15:01:16Z</time>
  </trkpt>
  <trkpt lat="33.832327" lon="-4.833956">
   <ele>822.00</ele>
   <time>2014-04-07T15:01:22Z</time>
  </trkpt>
  <trkpt lat="33.832492" lon="-4.834074">
   <ele>822.00</ele>
   <time>2014-04-07T15:01:26Z</time>
  </trkpt>
  <trkpt lat="33.832681" lon="-4.834238">
   <ele>824.00</ele>
   <time>2014-04-07T15:01:30Z</time>
  </trkpt>
  <trkpt lat="33.833163" lon="-4.834664">
   <ele>823.00</ele>
   <time>2014-04-07T15:01:38Z</time>
  </trkpt>
  <trkpt lat="33.833337" lon="-4.834884">
   <ele>823.00</ele>
   <time>2014-04-07T15:01:41Z</time>
  </trkpt>
  <trkpt lat="33.833493" lon="-4.835152">
   <ele>823.00</ele>
   <time>2014-04-07T15:01:44Z</time>
  </trkpt>
  <trkpt lat="33.833587" lon="-4.835352">
   <ele>822.00</ele>
   <time>2014-04-07T15:01:46Z</time>
  </trkpt>
  <trkpt lat="33.833672" lon="-4.835550">
   <ele>822.00</ele>
   <time>2014-04-07T15:01:48Z</time>
  </trkpt>
  <trkpt lat="33.833780" lon="-4.835828">
   <ele>821.00</ele>
   <time>2014-04-07T15:01:51Z</time>
  </trkpt>
  <trkpt lat="33.833867" lon="-4.836099">
   <ele>822.00</ele>
   <time>2014-04-07T15:01:54Z</time>
  </trkpt>
  <trkpt lat="33.834244" lon="-4.837543">
   <ele>823.00</ele>
   <time>2014-04-07T15:02:09Z</time>
  </trkpt>
  <trkpt lat="33.834347" lon="-4.838073">
   <ele>825.00</ele>
   <time>2014-04-07T15:02:14Z</time>
  </trkpt>
  <trkpt lat="33.834358" lon="-4.838290">
   <ele>826.00</ele>
   <time>2014-04-07T15:02:16Z</time>
  </trkpt>
  <trkpt lat="33.834349" lon="-4.838509">
   <ele>827.00</ele>
   <time>2014-04-07T15:02:18Z</time>
  </trkpt>
  <trkpt lat="33.834320" lon="-4.838730">
   <ele>828.00</ele>
   <time>2014-04-07T15:02:20Z</time>
  </trkpt>
  <trkpt lat="33.834265" lon="-4.838942">
   <ele>829.00</ele>
   <time>2014-04-07T15:02:22Z</time>
  </trkpt>
  <trkpt lat="33.834159" lon="-4.839233">
   <ele>831.00</ele>
   <time>2014-04-07T15:02:25Z</time>
  </trkpt>
  <trkpt lat="33.834034" lon="-4.839484">
   <ele>832.00</ele>
   <time>2014-04-07T15:02:28Z</time>
  </trkpt>
  <trkpt lat="33.833931" lon="-4.839691">
   <ele>833.00</ele>
   <time>2014-04-07T15:02:31Z</time>
  </trkpt>
  <trkpt lat="33.833895" lon="-4.839931">
   <ele>835.00</ele>
   <time>2014-04-07T15:02:35Z</time>
  </trkpt>
  <trkpt lat="33.834018" lon="-4.840103">
   <ele>835.00</ele>
   <time>2014-04-07T15:02:38Z</time>
  </trkpt>
  <trkpt lat="33.834216" lon="-4.840274">
   <ele>835.00</ele>
   <time>2014-04-07T15:02:41Z</time>
  </trkpt>
  <trkpt lat="33.834435" lon="-4.840447">
   <ele>834.00</ele>
   <time>2014-04-07T15:02:44Z</time>
  </trkpt>
  <trkpt lat="33.834840" lon="-4.840764">
   <ele>832.00</ele>
   <time>2014-04-07T15:02:49Z</time>
  </trkpt>
  <trkpt lat="33.836212" lon="-4.841899">
   <ele>824.00</ele>
   <time>2014-04-07T15:03:04Z</time>
  </trkpt>
  <trkpt lat="33.837634" lon="-4.843052">
   <ele>816.00</ele>
   <time>2014-04-07T15:03:19Z</time>
  </trkpt>
  <trkpt lat="33.838785" lon="-4.843890">
   <ele>813.00</ele>
   <time>2014-04-07T15:03:30Z</time>
  </trkpt>
  <trkpt lat="33.839009" lon="-4.844030">
   <ele>811.00</ele>
   <time>2014-04-07T15:03:32Z</time>
  </trkpt>
  <trkpt lat="33.839239" lon="-4.844160">
   <ele>811.00</ele>
   <time>2014-04-07T15:03:34Z</time>
  </trkpt>
  <trkpt lat="33.839478" lon="-4.844276">
   <ele>810.00</ele>
   <time>2014-04-07T15:03:36Z</time>
  </trkpt>
  <trkpt lat="33.839726" lon="-4.844378">
   <ele>808.00</ele>
   <time>2014-04-07T15:03:38Z</time>
  </trkpt>
  <trkpt lat="33.839983" lon="-4.844457">
   <ele>807.00</ele>
   <time>2014-04-07T15:03:40Z</time>
  </trkpt>
  <trkpt lat="33.841969" lon="-4.844987">
   <ele>797.00</ele>
   <time>2014-04-07T15:03:55Z</time>
  </trkpt>
  <trkpt lat="33.844041" lon="-4.845551">
   <ele>789.00</ele>
   <time>2014-04-07T15:04:11Z</time>
  </trkpt>
  <trkpt lat="33.845620" lon="-4.845984">
   <ele>790.00</ele>
   <time>2014-04-07T15:04:26Z</time>
  </trkpt>
  <trkpt lat="33.846023" lon="-4.846093">
   <ele>792.00</ele>
   <time>2014-04-07T15:04:40Z</time>
  </trkpt>
  <trkpt lat="33.846213" lon="-4.846165">
   <ele>792.00</ele>
   <time>2014-04-07T15:04:46Z</time>
  </trkpt>
  <trkpt lat="33.846576" lon="-4.846236">
   <ele>792.00</ele>
   <time>2014-04-07T15:04:51Z</time>
  </trkpt>
  <trkpt lat="33.846816" lon="-4.846216">
   <ele>792.00</ele>
   <time>2014-04-07T15:04:54Z</time>
  </trkpt>
  <trkpt lat="33.847048" lon="-4.846252">
   <ele>792.00</ele>
   <time>2014-04-07T15:04:57Z</time>
  </trkpt>
  <trkpt lat="33.847297" lon="-4.846406">
   <ele>792.00</ele>
   <time>2014-04-07T15:05:00Z</time>
  </trkpt>
  <trkpt lat="33.847512" lon="-4.846484">
   <ele>793.00</ele>
   <time>2014-04-07T15:05:02Z</time>
  </trkpt>
  <trkpt lat="33.849607" lon="-4.847059">
   <ele>801.00</ele>
   <time>2014-04-07T15:05:17Z</time>
  </trkpt>
  <trkpt lat="33.850117" lon="-4.847216">
   <ele>803.00</ele>
   <time>2014-04-07T15:05:20Z</time>
  </trkpt>
  <trkpt lat="33.850460" lon="-4.847346">
   <ele>804.00</ele>
   <time>2014-04-07T15:05:22Z</time>
  </trkpt>
  <trkpt lat="33.850801" lon="-4.847506">
   <ele>806.00</ele>
   <time>2014-04-07T15:05:24Z</time>
  </trkpt>
  <trkpt lat="33.851140" lon="-4.847694">
   <ele>807.00</ele>
   <time>2014-04-07T15:05:26Z</time>
  </trkpt>
  <trkpt lat="33.851475" lon="-4.847908">
   <ele>808.00</ele>
   <time>2014-04-07T15:05:28Z</time>
  </trkpt>
  <trkpt lat="33.851797" lon="-4.848141">
   <ele>809.00</ele>
   <time>2014-04-07T15:05:30Z</time>
  </trkpt>
  <trkpt lat="33.852098" lon="-4.848381">
   <ele>810.00</ele>
   <time>2014-04-07T15:05:32Z</time>
  </trkpt>
  <trkpt lat="33.853911" lon="-4.849932">
   <ele>816.00</ele>
   <time>2014-04-07T15:05:44Z</time>
  </trkpt>
  <trkpt lat="33.854074" lon="-4.850042">
   <ele>816.00</ele>
   <time>2014-04-07T15:05:45Z</time>
  </trkpt>
  <trkpt lat="33.854408" lon="-4.850245">
   <ele>816.00</ele>
   <time>2014-04-07T15:05:47Z</time>
  </trkpt>
  <trkpt lat="33.854749" lon="-4.850428">
   <ele>817.00</ele>
   <time>2014-04-07T15:05:49Z</time>
  </trkpt>
  <trkpt lat="33.854924" lon="-4.850511">
   <ele>817.00</ele>
   <time>2014-04-07T15:05:50Z</time>
  </trkpt>
  <trkpt lat="33.855102" lon="-4.850586">
   <ele>817.00</ele>
   <time>2014-04-07T15:05:51Z</time>
  </trkpt>
  <trkpt lat="33.855284" lon="-4.850655">
   <ele>817.00</ele>
   <time>2014-04-07T15:05:52Z</time>
  </trkpt>
  <trkpt lat="33.855469" lon="-4.850715">
   <ele>817.00</ele>
   <time>2014-04-07T15:05:53Z</time>
  </trkpt>
  <trkpt lat="33.855847" lon="-4.850813">
   <ele>817.00</ele>
   <time>2014-04-07T15:05:55Z</time>
  </trkpt>
  <trkpt lat="33.856231" lon="-4.850889">
   <ele>816.00</ele>
   <time>2014-04-07T15:05:57Z</time>
  </trkpt>
  <trkpt lat="33.859188" lon="-4.851411">
   <ele>814.00</ele>
   <time>2014-04-07T15:06:12Z</time>
  </trkpt>
  <trkpt lat="33.859588" lon="-4.851506">
   <ele>814.00</ele>
   <time>2014-04-07T15:06:14Z</time>
  </trkpt>
  <trkpt lat="33.859985" lon="-4.851624">
   <ele>812.00</ele>
   <time>2014-04-07T15:06:16Z</time>
  </trkpt>
  <trkpt lat="33.860377" lon="-4.851762">
   <ele>811.00</ele>
   <time>2014-04-07T15:06:18Z</time>
  </trkpt>
  <trkpt lat="33.863229" lon="-4.852873">
   <ele>803.00</ele>
   <time>2014-04-07T15:06:33Z</time>
  </trkpt>
  <trkpt lat="33.864567" lon="-4.853392">
   <ele>807.00</ele>
   <time>2014-04-07T15:06:41Z</time>
  </trkpt>
  <trkpt lat="33.864836" lon="-4.853515">
   <ele>807.00</ele>
   <time>2014-04-07T15:06:43Z</time>
  </trkpt>
  <trkpt lat="33.865175" lon="-4.853670">
   <ele>807.00</ele>
   <time>2014-04-07T15:06:46Z</time>
  </trkpt>
  <trkpt lat="33.865371" lon="-4.853716">
   <ele>807.00</ele>
   <time>2014-04-07T15:06:48Z</time>
  </trkpt>
  <trkpt lat="33.865608" lon="-4.853837">
   <ele>807.00</ele>
   <time>2014-04-07T15:06:51Z</time>
  </trkpt>
  <trkpt lat="33.865747" lon="-4.854009">
   <ele>806.00</ele>
   <time>2014-04-07T15:06:53Z</time>
  </trkpt>
  <trkpt lat="33.865922" lon="-4.854188">
   <ele>806.00</ele>
   <time>2014-04-07T15:06:55Z</time>
  </trkpt>
  <trkpt lat="33.866146" lon="-4.854363">
   <ele>805.00</ele>
   <time>2014-04-07T15:06:57Z</time>
  </trkpt>
  <trkpt lat="33.867203" lon="-4.855134">
   <ele>800.00</ele>
   <time>2014-04-07T15:07:04Z</time>
  </trkpt>
  <trkpt lat="33.867737" lon="-4.855476">
   <ele>798.00</ele>
   <time>2014-04-07T15:07:07Z</time>
  </trkpt>
  <trkpt lat="33.870574" lon="-4.857196">
   <ele>805.00</ele>
   <time>2014-04-07T15:07:23Z</time>
  </trkpt>
  <trkpt lat="33.870918" lon="-4.857431">
   <ele>806.00</ele>
   <time>2014-04-07T15:07:25Z</time>
  </trkpt>
  <trkpt lat="33.871252" lon="-4.857687">
   <ele>806.00</ele>
   <time>2014-04-07T15:07:27Z</time>
  </trkpt>
  <trkpt lat="33.873792" lon="-4.859661">
   <ele>799.00</ele>
   <time>2014-04-07T15:07:42Z</time>
  </trkpt>
  <trkpt lat="33.874460" lon="-4.860154">
   <ele>795.00</ele>
   <time>2014-04-07T15:07:46Z</time>
  </trkpt>
  <trkpt lat="33.874969" lon="-4.860496">
   <ele>791.00</ele>
   <time>2014-04-07T15:07:49Z</time>
  </trkpt>
  <trkpt lat="33.875144" lon="-4.860598">
   <ele>790.00</ele>
   <time>2014-04-07T15:07:50Z</time>
  </trkpt>
  <trkpt lat="33.875321" lon="-4.860684">
   <ele>790.00</ele>
   <time>2014-04-07T15:07:51Z</time>
  </trkpt>
  <trkpt lat="33.875501" lon="-4.860753">
   <ele>789.00</ele>
   <time>2014-04-07T15:07:52Z</time>
  </trkpt>
  <trkpt lat="33.875683" lon="-4.860805">
   <ele>789.00</ele>
   <time>2014-04-07T15:07:53Z</time>
  </trkpt>
  <trkpt lat="33.875866" lon="-4.860842">
   <ele>788.00</ele>
   <time>2014-04-07T15:07:54Z</time>
  </trkpt>
  <trkpt lat="33.876049" lon="-4.860866">
   <ele>788.00</ele>
   <time>2014-04-07T15:07:55Z</time>
  </trkpt>
  <trkpt lat="33.876415" lon="-4.860891">
   <ele>787.00</ele>
   <time>2014-04-07T15:07:57Z</time>
  </trkpt>
  <trkpt lat="33.878345" lon="-4.860977">
   <ele>779.00</ele>
   <time>2014-04-07T15:08:08Z</time>
  </trkpt>
  <trkpt lat="33.878684" lon="-4.861043">
   <ele>776.00</ele>
   <time>2014-04-07T15:08:10Z</time>
  </trkpt>
  <trkpt lat="33.879017" lon="-4.861159">
   <ele>774.00</ele>
   <time>2014-04-07T15:08:12Z</time>
  </trkpt>
  <trkpt lat="33.879340" lon="-4.861330">
   <ele>772.00</ele>
   <time>2014-04-07T15:08:14Z</time>
  </trkpt>
  <trkpt lat="33.879499" lon="-4.861435">
   <ele>771.00</ele>
   <time>2014-04-07T15:08:15Z</time>
  </trkpt>
  <trkpt lat="33.879654" lon="-4.861552">
   <ele>770.00</ele>
   <time>2014-04-07T15:08:16Z</time>
  </trkpt>
  <trkpt lat="33.879805" lon="-4.861679">
   <ele>769.00</ele>
   <time>2014-04-07T15:08:17Z</time>
  </trkpt>
  <trkpt lat="33.879951" lon="-4.861817">
   <ele>768.00</ele>
   <time>2014-04-07T15:08:18Z</time>
  </trkpt>
  <trkpt lat="33.880231" lon="-4.862111">
   <ele>767.00</ele>
   <time>2014-04-07T15:08:20Z</time>
  </trkpt>
  <trkpt lat="33.880510" lon="-4.862395">
   <ele>766.00</ele>
   <time>2014-04-07T15:08:22Z</time>
  </trkpt>
  <trkpt lat="33.880655" lon="-4.862526">
   <ele>766.00</ele>
   <time>2014-04-07T15:08:23Z</time>
  </trkpt>
  <trkpt lat="33.880806" lon="-4.862649">
   <ele>765.00</ele>
   <time>2014-04-07T15:08:24Z</time>
  </trkpt>
  <trkpt lat="33.880962" lon="-4.862760">
   <ele>765.00</ele>
   <time>2014-04-07T15:08:25Z</time>
  </trkpt>
  <trkpt lat="33.881126" lon="-4.862858">
   <ele>764.00</ele>
   <time>2014-04-07T15:08:26Z</time>
  </trkpt>
  <trkpt lat="33.881295" lon="-4.862942">
   <ele>763.00</ele>
   <time>2014-04-07T15:08:27Z</time>
  </trkpt>
  <trkpt lat="33.881470" lon="-4.863013">
   <ele>763.00</ele>
   <time>2014-04-07T15:08:28Z</time>
  </trkpt>
  <trkpt lat="33.881648" lon="-4.863072">
   <ele>762.00</ele>
   <time>2014-04-07T15:08:29Z</time>
  </trkpt>
  <trkpt lat="33.881829" lon="-4.863121">
   <ele>761.00</ele>
   <time>2014-04-07T15:08:30Z</time>
  </trkpt>
  <trkpt lat="33.882560" lon="-4.863308">
   <ele>758.00</ele>
   <time>2014-04-07T15:08:34Z</time>
  </trkpt>
  <trkpt lat="33.882920" lon="-4.863438">
   <ele>757.00</ele>
   <time>2014-04-07T15:08:36Z</time>
  </trkpt>
  <trkpt lat="33.883274" lon="-4.863593">
   <ele>756.00</ele>
   <time>2014-04-07T15:08:38Z</time>
  </trkpt>
  <trkpt lat="33.884866" lon="-4.864383">
   <ele>751.00</ele>
   <time>2014-04-07T15:08:47Z</time>
  </trkpt>
  <trkpt lat="33.885048" lon="-4.864453">
   <ele>751.00</ele>
   <time>2014-04-07T15:08:48Z</time>
  </trkpt>
  <trkpt lat="33.885415" lon="-4.864576">
   <ele>749.00</ele>
   <time>2014-04-07T15:08:50Z</time>
  </trkpt>
  <trkpt lat="33.886324" lon="-4.864879">
   <ele>744.00</ele>
   <time>2014-04-07T15:08:55Z</time>
  </trkpt>
  <trkpt lat="33.886683" lon="-4.865039">
   <ele>741.00</ele>
   <time>2014-04-07T15:08:57Z</time>
  </trkpt>
  <trkpt lat="33.887036" lon="-4.865228">
   <ele>738.00</ele>
   <time>2014-04-07T15:08:59Z</time>
  </trkpt>
  <trkpt lat="33.887386" lon="-4.865440">
   <ele>735.00</ele>
   <time>2014-04-07T15:09:01Z</time>
  </trkpt>
  <trkpt lat="33.889334" lon="-4.866718">
   <ele>727.00</ele>
   <time>2014-04-07T15:09:13Z</time>
  </trkpt>
  <trkpt lat="33.889650" lon="-4.866878">
   <ele>726.00</ele>
   <time>2014-04-07T15:09:15Z</time>
  </trkpt>
  <trkpt lat="33.889943" lon="-4.866998">
   <ele>724.00</ele>
   <time>2014-04-07T15:09:17Z</time>
  </trkpt>
  <trkpt lat="33.890228" lon="-4.867085">
   <ele>723.00</ele>
   <time>2014-04-07T15:09:19Z</time>
  </trkpt>
  <trkpt lat="33.890513" lon="-4.867149">
   <ele>723.00</ele>
   <time>2014-04-07T15:09:21Z</time>
  </trkpt>
  <trkpt lat="33.890933" lon="-4.867213">
   <ele>722.00</ele>
   <time>2014-04-07T15:09:24Z</time>
  </trkpt>
  <trkpt lat="33.891199" lon="-4.867240">
   <ele>721.00</ele>
   <time>2014-04-07T15:09:26Z</time>
  </trkpt>
  <trkpt lat="33.891540" lon="-4.867259">
   <ele>721.00</ele>
   <time>2014-04-07T15:09:29Z</time>
  </trkpt>
  <trkpt lat="33.891734" lon="-4.867234">
   <ele>721.00</ele>
   <time>2014-04-07T15:09:31Z</time>
  </trkpt>
  <trkpt lat="33.891991" lon="-4.867173">
   <ele>721.00</ele>
   <time>2014-04-07T15:09:34Z</time>
  </trkpt>
  <trkpt lat="33.892236" lon="-4.867268">
   <ele>722.00</ele>
   <time>2014-04-07T15:09:37Z</time>
  </trkpt>
  <trkpt lat="33.892425" lon="-4.867356">
   <ele>722.00</ele>
   <time>2014-04-07T15:09:39Z</time>
  </trkpt>
  <trkpt lat="33.892649" lon="-4.867424">
   <ele>722.00</ele>
   <time>2014-04-07T15:09:41Z</time>
  </trkpt>
  <trkpt lat="33.892895" lon="-4.867508">
   <ele>721.00</ele>
   <time>2014-04-07T15:09:43Z</time>
  </trkpt>
  <trkpt lat="33.893144" lon="-4.867610">
   <ele>721.00</ele>
   <time>2014-04-07T15:09:45Z</time>
  </trkpt>
  <trkpt lat="33.893399" lon="-4.867733">
   <ele>720.00</ele>
   <time>2014-04-07T15:09:47Z</time>
  </trkpt>
  <trkpt lat="33.893662" lon="-4.867886">
   <ele>719.00</ele>
   <time>2014-04-07T15:09:49Z</time>
  </trkpt>
  <trkpt lat="33.893932" lon="-4.868066">
   <ele>717.00</ele>
   <time>2014-04-07T15:09:51Z</time>
  </trkpt>
  <trkpt lat="33.894347" lon="-4.868369">
   <ele>715.00</ele>
   <time>2014-04-07T15:09:54Z</time>
  </trkpt>
  <trkpt lat="33.895078" lon="-4.868902">
   <ele>710.00</ele>
   <time>2014-04-07T15:09:59Z</time>
  </trkpt>
  <trkpt lat="33.895398" lon="-4.869097">
   <ele>708.00</ele>
   <time>2014-04-07T15:10:01Z</time>
  </trkpt>
  <trkpt lat="33.895749" lon="-4.869275">
   <ele>706.00</ele>
   <time>2014-04-07T15:10:03Z</time>
  </trkpt>
  <trkpt lat="33.895933" lon="-4.869353">
   <ele>705.00</ele>
   <time>2014-04-07T15:10:04Z</time>
  </trkpt>
  <trkpt lat="33.896121" lon="-4.869422">
   <ele>703.00</ele>
   <time>2014-04-07T15:10:05Z</time>
  </trkpt>
  <trkpt lat="33.896314" lon="-4.869483">
   <ele>702.00</ele>
   <time>2014-04-07T15:10:06Z</time>
  </trkpt>
  <trkpt lat="33.896512" lon="-4.869535">
   <ele>701.00</ele>
   <time>2014-04-07T15:10:07Z</time>
  </trkpt>
  <trkpt lat="33.896714" lon="-4.869575">
   <ele>700.00</ele>
   <time>2014-04-07T15:10:08Z</time>
  </trkpt>
  <trkpt lat="33.896920" lon="-4.869603">
   <ele>699.00</ele>
   <time>2014-04-07T15:10:09Z</time>
  </trkpt>
  <trkpt lat="33.897128" lon="-4.869617">
   <ele>699.00</ele>
   <time>2014-04-07T15:10:10Z</time>
  </trkpt>
  <trkpt lat="33.897338" lon="-4.869615">
   <ele>698.00</ele>
   <time>2014-04-07T15:10:11Z</time>
  </trkpt>
  <trkpt lat="33.897547" lon="-4.869602">
   <ele>698.00</ele>
   <time>2014-04-07T15:10:12Z</time>
  </trkpt>
  <trkpt lat="33.899669" lon="-4.869391">
   <ele>696.00</ele>
   <time>2014-04-07T15:10:22Z</time>
  </trkpt>
  <trkpt lat="33.899884" lon="-4.869389">
   <ele>696.00</ele>
   <time>2014-04-07T15:10:23Z</time>
  </trkpt>
  <trkpt lat="33.900098" lon="-4.869398">
   <ele>696.00</ele>
   <time>2014-04-07T15:10:24Z</time>
  </trkpt>
  <trkpt lat="33.900527" lon="-4.869444">
   <ele>696.00</ele>
   <time>2014-04-07T15:10:26Z</time>
  </trkpt>
  <trkpt lat="33.900957" lon="-4.869513">
   <ele>695.00</ele>
   <time>2014-04-07T15:10:28Z</time>
  </trkpt>
  <trkpt lat="33.902429" lon="-4.869808">
   <ele>693.00</ele>
   <time>2014-04-07T15:10:35Z</time>
  </trkpt>
  <trkpt lat="33.902631" lon="-4.869866">
   <ele>692.00</ele>
   <time>2014-04-07T15:10:36Z</time>
  </trkpt>
  <trkpt lat="33.902831" lon="-4.869934">
   <ele>691.00</ele>
   <time>2014-04-07T15:10:37Z</time>
  </trkpt>
  <trkpt lat="33.903029" lon="-4.870013">
   <ele>689.00</ele>
   <time>2014-04-07T15:10:38Z</time>
  </trkpt>
  <trkpt lat="33.903227" lon="-4.870102">
   <ele>688.00</ele>
   <time>2014-04-07T15:10:39Z</time>
  </trkpt>
  <trkpt lat="33.903424" lon="-4.870201">
   <ele>687.00</ele>
   <time>2014-04-07T15:10:40Z</time>
  </trkpt>
  <trkpt lat="33.903817" lon="-4.870419">
   <ele>685.00</ele>
   <time>2014-04-07T15:10:42Z</time>
  </trkpt>
  <trkpt lat="33.905733" lon="-4.871576">
   <ele>682.00</ele>
   <time>2014-04-07T15:10:52Z</time>
  </trkpt>
  <trkpt lat="33.905914" lon="-4.871706">
   <ele>682.00</ele>
   <time>2014-04-07T15:10:53Z</time>
  </trkpt>
  <trkpt lat="33.906090" lon="-4.871847">
   <ele>682.00</ele>
   <time>2014-04-07T15:10:54Z</time>
  </trkpt>
  <trkpt lat="33.906435" lon="-4.872151">
   <ele>681.00</ele>
   <time>2014-04-07T15:10:56Z</time>
  </trkpt>
  <trkpt lat="33.909078" lon="-4.874706">
   <ele>670.00</ele>
   <time>2014-04-07T15:11:11Z</time>
  </trkpt>
  <trkpt lat="33.910469" lon="-4.876067">
   <ele>663.00</ele>
   <time>2014-04-07T15:11:19Z</time>
  </trkpt>
  <trkpt lat="33.910789" lon="-4.876431">
   <ele>661.00</ele>
   <time>2014-04-07T15:11:21Z</time>
  </trkpt>
  <trkpt lat="33.910938" lon="-4.876622">
   <ele>661.00</ele>
   <time>2014-04-07T15:11:22Z</time>
  </trkpt>
  <trkpt lat="33.911080" lon="-4.876819">
   <ele>660.00</ele>
   <time>2014-04-07T15:11:23Z</time>
  </trkpt>
  <trkpt lat="33.911215" lon="-4.877020">
   <ele>660.00</ele>
   <time>2014-04-07T15:11:24Z</time>
  </trkpt>
  <trkpt lat="33.911343" lon="-4.877228">
   <ele>659.00</ele>
   <time>2014-04-07T15:11:25Z</time>
  </trkpt>
  <trkpt lat="33.911464" lon="-4.877443">
   <ele>659.00</ele>
   <time>2014-04-07T15:11:26Z</time>
  </trkpt>
  <trkpt lat="33.911688" lon="-4.877894">
   <ele>658.00</ele>
   <time>2014-04-07T15:11:28Z</time>
  </trkpt>
  <trkpt lat="33.913272" lon="-4.881319">
   <ele>648.00</ele>
   <time>2014-04-07T15:11:43Z</time>
  </trkpt>
  <trkpt lat="33.914759" lon="-4.884534">
   <ele>639.00</ele>
   <time>2014-04-07T15:11:58Z</time>
  </trkpt>
  <trkpt lat="33.915864" lon="-4.886906">
   <ele>639.00</ele>
   <time>2014-04-07T15:12:12Z</time>
  </trkpt>
  <trkpt lat="33.916070" lon="-4.887294">
   <ele>639.00</ele>
   <time>2014-04-07T15:12:15Z</time>
  </trkpt>
  <trkpt lat="33.916759" lon="-4.888483">
   <ele>639.00</ele>
   <time>2014-04-07T15:12:25Z</time>
  </trkpt>
  <trkpt lat="33.916912" lon="-4.888660">
   <ele>639.00</ele>
   <time>2014-04-07T15:12:27Z</time>
  </trkpt>
  <trkpt lat="33.917049" lon="-4.888826">
   <ele>639.00</ele>
   <time>2014-04-07T15:12:29Z</time>
  </trkpt>
  <trkpt lat="33.917132" lon="-4.889045">
   <ele>640.00</ele>
   <time>2014-04-07T15:12:31Z</time>
  </trkpt>
  <trkpt lat="33.917204" lon="-4.889308">
   <ele>641.00</ele>
   <time>2014-04-07T15:12:33Z</time>
  </trkpt>
  <trkpt lat="33.917315" lon="-4.889579">
   <ele>642.00</ele>
   <time>2014-04-07T15:12:35Z</time>
  </trkpt>
  <trkpt lat="33.917466" lon="-4.889854">
   <ele>643.00</ele>
   <time>2014-04-07T15:12:37Z</time>
  </trkpt>
  <trkpt lat="33.917907" lon="-4.890645">
   <ele>646.00</ele>
   <time>2014-04-07T15:12:42Z</time>
  </trkpt>
  <trkpt lat="33.918446" lon="-4.891687">
   <ele>651.00</ele>
   <time>2014-04-07T15:12:48Z</time>
  </trkpt>
  <trkpt lat="33.918814" lon="-4.892415">
   <ele>655.00</ele>
   <time>2014-04-07T15:12:52Z</time>
  </trkpt>
  <trkpt lat="33.919119" lon="-4.892964">
   <ele>657.00</ele>
   <time>2014-04-07T15:12:55Z</time>
  </trkpt>
  <trkpt lat="33.919660" lon="-4.893931">
   <ele>658.00</ele>
   <time>2014-04-07T15:13:00Z</time>
  </trkpt>
  <trkpt lat="33.920591" lon="-4.895648">
   <ele>654.00</ele>
   <time>2014-04-07T15:13:09Z</time>
  </trkpt>
  <trkpt lat="33.920831" lon="-4.896020">
   <ele>651.00</ele>
   <time>2014-04-07T15:13:11Z</time>
  </trkpt>
  <trkpt lat="33.920961" lon="-4.896197">
   <ele>649.00</ele>
   <time>2014-04-07T15:13:12Z</time>
  </trkpt>
  <trkpt lat="33.921099" lon="-4.896369">
   <ele>648.00</ele>
   <time>2014-04-07T15:13:13Z</time>
  </trkpt>
  <trkpt lat="33.921243" lon="-4.896536">
   <ele>647.00</ele>
   <time>2014-04-07T15:13:14Z</time>
  </trkpt>
  <trkpt lat="33.921393" lon="-4.896696">
   <ele>646.00</ele>
   <time>2014-04-07T15:13:15Z</time>
  </trkpt>
  <trkpt lat="33.921550" lon="-4.896847">
   <ele>644.00</ele>
   <time>2014-04-07T15:13:16Z</time>
  </trkpt>
  <trkpt lat="33.921713" lon="-4.896988">
   <ele>643.00</ele>
   <time>2014-04-07T15:13:17Z</time>
  </trkpt>
  <trkpt lat="33.921879" lon="-4.897120">
   <ele>642.00</ele>
   <time>2014-04-07T15:13:18Z</time>
  </trkpt>
  <trkpt lat="33.922050" lon="-4.897243">
   <ele>642.00</ele>
   <time>2014-04-07T15:13:19Z</time>
  </trkpt>
  <trkpt lat="33.922226" lon="-4.897358">
   <ele>641.00</ele>
   <time>2014-04-07T15:13:20Z</time>
  </trkpt>
  <trkpt lat="33.922404" lon="-4.897460">
   <ele>641.00</ele>
   <time>2014-04-07T15:13:21Z</time>
  </trkpt>
  <trkpt lat="33.922587" lon="-4.897552">
   <ele>641.00</ele>
   <time>2014-04-07T15:13:22Z</time>
  </trkpt>
  <trkpt lat="33.922961" lon="-4.897716">
   <ele>641.00</ele>
   <time>2014-04-07T15:13:24Z</time>
  </trkpt>
  <trkpt lat="33.924656" lon="-4.898417">
   <ele>641.00</ele>
   <time>2014-04-07T15:13:33Z</time>
  </trkpt>
  <trkpt lat="33.924836" lon="-4.898509">
   <ele>641.00</ele>
   <time>2014-04-07T15:13:34Z</time>
  </trkpt>
  <trkpt lat="33.925013" lon="-4.898609">
   <ele>642.00</ele>
   <time>2014-04-07T15:13:35Z</time>
  </trkpt>
  <trkpt lat="33.925357" lon="-4.898830">
   <ele>642.00</ele>
   <time>2014-04-07T15:13:37Z</time>
  </trkpt>
  <trkpt lat="33.925688" lon="-4.899075">
   <ele>643.00</ele>
   <time>2014-04-07T15:13:39Z</time>
  </trkpt>
  <trkpt lat="33.925846" lon="-4.899210">
   <ele>643.00</ele>
   <time>2014-04-07T15:13:40Z</time>
  </trkpt>
  <trkpt lat="33.925997" lon="-4.899354">
   <ele>643.00</ele>
   <time>2014-04-07T15:13:41Z</time>
  </trkpt>
  <trkpt lat="33.926142" lon="-4.899508">
   <ele>642.00</ele>
   <time>2014-04-07T15:13:42Z</time>
  </trkpt>
  <trkpt lat="33.926279" lon="-4.899672">
   <ele>642.00</ele>
   <time>2014-04-07T15:13:43Z</time>
  </trkpt>
  <trkpt lat="33.926540" lon="-4.900014">
   <ele>642.00</ele>
   <time>2014-04-07T15:13:45Z</time>
  </trkpt>
  <trkpt lat="33.928567" lon="-4.902752">
   <ele>637.00</ele>
   <time>2014-04-07T15:14:01Z</time>
  </trkpt>
  <trkpt lat="33.930318" lon="-4.905154">
   <ele>630.00</ele>
   <time>2014-04-07T15:14:16Z</time>
  </trkpt>
  <trkpt lat="33.931245" lon="-4.906393">
   <ele>624.00</ele>
   <time>2014-04-07T15:14:24Z</time>
  </trkpt>
  <trkpt lat="33.931811" lon="-4.907183">
   <ele>621.00</ele>
   <time>2014-04-07T15:14:29Z</time>
  </trkpt>
  <trkpt lat="33.933612" lon="-4.909574">
   <ele>620.00</ele>
   <time>2014-04-07T15:14:44Z</time>
  </trkpt>
  <trkpt lat="33.935294" lon="-4.911845">
   <ele>618.00</ele>
   <time>2014-04-07T15:14:59Z</time>
  </trkpt>
  <trkpt lat="33.936076" lon="-4.912903">
   <ele>615.00</ele>
   <time>2014-04-07T15:15:08Z</time>
  </trkpt>
  <trkpt lat="33.936219" lon="-4.913047">
   <ele>614.00</ele>
   <time>2014-04-07T15:15:10Z</time>
  </trkpt>
  <trkpt lat="33.936395" lon="-4.913159">
   <ele>613.00</ele>
   <time>2014-04-07T15:15:16Z</time>
  </trkpt>
  <trkpt lat="33.936563" lon="-4.913291">
   <ele>612.00</ele>
   <time>2014-04-07T15:15:21Z</time>
  </trkpt>
  <trkpt lat="33.936646" lon="-4.913500">
   <ele>612.00</ele>
   <time>2014-04-07T15:15:24Z</time>
  </trkpt>
  <trkpt lat="33.936749" lon="-4.913747">
   <ele>611.00</ele>
   <time>2014-04-07T15:15:27Z</time>
  </trkpt>
  <trkpt lat="33.936922" lon="-4.914016">
   <ele>611.00</ele>
   <time>2014-04-07T15:15:30Z</time>
  </trkpt>
  <trkpt lat="33.938236" lon="-4.915832">
   <ele>605.00</ele>
   <time>2014-04-07T15:15:45Z</time>
  </trkpt>
  <trkpt lat="33.939708" lon="-4.917824">
   <ele>604.00</ele>
   <time>2014-04-07T15:16:00Z</time>
  </trkpt>
  <trkpt lat="33.940561" lon="-4.918946">
   <ele>606.00</ele>
   <time>2014-04-07T15:16:09Z</time>
  </trkpt>
  <trkpt lat="33.940724" lon="-4.919139">
   <ele>606.00</ele>
   <time>2014-04-07T15:16:11Z</time>
  </trkpt>
  <trkpt lat="33.940869" lon="-4.919290">
   <ele>606.00</ele>
   <time>2014-04-07T15:16:13Z</time>
  </trkpt>
  <trkpt lat="33.941072" lon="-4.919427">
   <ele>605.00</ele>
   <time>2014-04-07T15:16:16Z</time>
  </trkpt>
  <trkpt lat="33.941293" lon="-4.919509">
   <ele>605.00</ele>
   <time>2014-04-07T15:16:19Z</time>
  </trkpt>
  <trkpt lat="33.941459" lon="-4.919724">
   <ele>605.00</ele>
   <time>2014-04-07T15:16:22Z</time>
  </trkpt>
  <trkpt lat="33.941551" lon="-4.919917">
   <ele>604.00</ele>
   <time>2014-04-07T15:16:24Z</time>
  </trkpt>
  <trkpt lat="33.941697" lon="-4.920102">
   <ele>603.00</ele>
   <time>2014-04-07T15:16:26Z</time>
  </trkpt>
  <trkpt lat="33.941890" lon="-4.920267">
   <ele>602.00</ele>
   <time>2014-04-07T15:16:28Z</time>
  </trkpt>
  <trkpt lat="33.942211" lon="-4.920521">
   <ele>601.00</ele>
   <time>2014-04-07T15:16:31Z</time>
  </trkpt>
  <trkpt lat="33.944331" lon="-4.922043">
   <ele>591.00</ele>
   <time>2014-04-07T15:16:46Z</time>
  </trkpt>
  <trkpt lat="33.946780" lon="-4.923797">
   <ele>587.00</ele>
   <time>2014-04-07T15:17:02Z</time>
  </trkpt>
  <trkpt lat="33.949144" lon="-4.925484">
   <ele>579.00</ele>
   <time>2014-04-07T15:17:17Z</time>
  </trkpt>
  <trkpt lat="33.950387" lon="-4.926396">
   <ele>579.00</ele>
   <time>2014-04-07T15:17:25Z</time>
  </trkpt>
  <trkpt lat="33.950833" lon="-4.926770">
   <ele>580.00</ele>
   <time>2014-04-07T15:17:28Z</time>
  </trkpt>
  <trkpt lat="33.952419" lon="-4.928233">
   <ele>579.00</ele>
   <time>2014-04-07T15:17:39Z</time>
  </trkpt>
  <trkpt lat="33.954682" lon="-4.930359">
   <ele>573.00</ele>
   <time>2014-04-07T15:17:54Z</time>
  </trkpt>
  <trkpt lat="33.957076" lon="-4.932520">
   <ele>565.00</ele>
   <time>2014-04-07T15:18:10Z</time>
  </trkpt>
  <trkpt lat="33.959097" lon="-4.934389">
   <ele>560.00</ele>
   <time>2014-04-07T15:18:25Z</time>
  </trkpt>
  <trkpt lat="33.959720" lon="-4.934953">
   <ele>559.00</ele>
   <time>2014-04-07T15:18:31Z</time>
  </trkpt>
  <trkpt lat="33.959891" lon="-4.935060">
   <ele>559.00</ele>
   <time>2014-04-07T15:18:33Z</time>
  </trkpt>
  <trkpt lat="33.960060" lon="-4.935140">
   <ele>559.00</ele>
   <time>2014-04-07T15:18:35Z</time>
  </trkpt>
  <trkpt lat="33.960202" lon="-4.935274">
   <ele>559.00</ele>
   <time>2014-04-07T15:18:37Z</time>
  </trkpt>
  <trkpt lat="33.960333" lon="-4.935472">
   <ele>559.00</ele>
   <time>2014-04-07T15:18:39Z</time>
  </trkpt>
  <trkpt lat="33.960495" lon="-4.935681">
   <ele>559.00</ele>
   <time>2014-04-07T15:18:41Z</time>
  </trkpt>
  <trkpt lat="33.960687" lon="-4.935890">
   <ele>559.00</ele>
   <time>2014-04-07T15:18:43Z</time>
  </trkpt>
  <trkpt lat="33.961018" lon="-4.936214">
   <ele>558.00</ele>
   <time>2014-04-07T15:18:46Z</time>
  </trkpt>
  <trkpt lat="33.961364" lon="-4.936522">
   <ele>557.00</ele>
   <time>2014-04-07T15:18:49Z</time>
  </trkpt>
  <trkpt lat="33.962086" lon="-4.937155">
   <ele>556.00</ele>
   <time>2014-04-07T15:18:55Z</time>
  </trkpt>
  <trkpt lat="33.964166" lon="-4.939061">
   <ele>551.00</ele>
   <time>2014-04-07T15:19:11Z</time>
  </trkpt>
  <trkpt lat="33.966307" lon="-4.941030">
   <ele>546.00</ele>
   <time>2014-04-07T15:19:26Z</time>
  </trkpt>
  <trkpt lat="33.968569" lon="-4.943105">
   <ele>541.00</ele>
   <time>2014-04-07T15:19:41Z</time>
  </trkpt>
  <trkpt lat="33.970866" lon="-4.945226">
   <ele>536.00</ele>
   <time>2014-04-07T15:19:56Z</time>
  </trkpt>
  <trkpt lat="33.972896" lon="-4.947096">
   <ele>532.00</ele>
   <time>2014-04-07T15:20:12Z</time>
  </trkpt>
  <trkpt lat="33.973726" lon="-4.947846">
   <ele>530.00</ele>
   <time>2014-04-07T15:20:21Z</time>
  </trkpt>
  <trkpt lat="33.973897" lon="-4.947985">
   <ele>529.00</ele>
   <time>2014-04-07T15:20:23Z</time>
  </trkpt>
  <trkpt lat="33.974073" lon="-4.948112">
   <ele>529.00</ele>
   <time>2014-04-07T15:20:25Z</time>
  </trkpt>
  <trkpt lat="33.974251" lon="-4.948253">
   <ele>528.00</ele>
   <time>2014-04-07T15:20:27Z</time>
  </trkpt>
  <trkpt lat="33.974428" lon="-4.948432">
   <ele>527.00</ele>
   <time>2014-04-07T15:20:29Z</time>
  </trkpt>
  <trkpt lat="33.974709" lon="-4.948738">
   <ele>526.00</ele>
   <time>2014-04-07T15:20:32Z</time>
  </trkpt>
  <trkpt lat="33.975016" lon="-4.949042">
   <ele>525.00</ele>
   <time>2014-04-07T15:20:35Z</time>
  </trkpt>
  <trkpt lat="33.977016" lon="-4.950947">
   <ele>520.00</ele>
   <time>2014-04-07T15:20:50Z</time>
  </trkpt>
  <trkpt lat="33.977456" lon="-4.951341">
   <ele>518.00</ele>
   <time>2014-04-07T15:20:53Z</time>
  </trkpt>
  <trkpt lat="33.978229" lon="-4.952016">
   <ele>515.00</ele>
   <time>2014-04-07T15:20:58Z</time>
  </trkpt>
  <trkpt lat="33.980441" lon="-4.954059">
   <ele>511.00</ele>
   <time>2014-04-07T15:21:13Z</time>
  </trkpt>
  <trkpt lat="33.982694" lon="-4.956152">
   <ele>507.00</ele>
   <time>2014-04-07T15:21:29Z</time>
  </trkpt>
  <trkpt lat="33.983968" lon="-4.957369">
   <ele>504.00</ele>
   <time>2014-04-07T15:21:38Z</time>
  </trkpt>
  <trkpt lat="33.986109" lon="-4.959325">
   <ele>498.00</ele>
   <time>2014-04-07T15:21:53Z</time>
  </trkpt>
  <trkpt lat="33.988208" lon="-4.961284">
   <ele>493.00</ele>
   <time>2014-04-07T15:22:08Z</time>
  </trkpt>
  <trkpt lat="33.990280" lon="-4.963211">
   <ele>489.00</ele>
   <time>2014-04-07T15:22:24Z</time>
  </trkpt>
  <trkpt lat="33.990809" lon="-4.963691">
   <ele>488.00</ele>
   <time>2014-04-07T15:22:29Z</time>
  </trkpt>
  <trkpt lat="33.990992" lon="-4.963799">
   <ele>487.00</ele>
   <time>2014-04-07T15:22:31Z</time>
  </trkpt>
  <trkpt lat="33.991171" lon="-4.963868">
   <ele>486.00</ele>
   <time>2014-04-07T15:22:33Z</time>
  </trkpt>
  <trkpt lat="33.991393" lon="-4.964018">
   <ele>486.00</ele>
   <time>2014-04-07T15:22:36Z</time>
  </trkpt>
  <trkpt lat="33.991528" lon="-4.964290">
   <ele>485.00</ele>
   <time>2014-04-07T15:22:39Z</time>
  </trkpt>
  <trkpt lat="33.991656" lon="-4.964469">
   <ele>485.00</ele>
   <time>2014-04-07T15:22:41Z</time>
  </trkpt>
  <trkpt lat="33.991817" lon="-4.964633">
   <ele>485.00</ele>
   <time>2014-04-07T15:22:43Z</time>
  </trkpt>
  <trkpt lat="33.993134" lon="-4.965824">
   <ele>485.00</ele>
   <time>2014-04-07T15:22:58Z</time>
  </trkpt>
  <trkpt lat="33.994687" lon="-4.967255">
   <ele>486.00</ele>
   <time>2014-04-07T15:23:14Z</time>
  </trkpt>
  <trkpt lat="33.996198" lon="-4.968650">
   <ele>485.00</ele>
   <time>2014-04-07T15:23:29Z</time>
  </trkpt>
  <trkpt lat="33.996936" lon="-4.969325">
   <ele>484.00</ele>
   <time>2014-04-07T15:23:38Z</time>
  </trkpt>
  <trkpt lat="33.997320" lon="-4.969656">
   <ele>482.00</ele>
   <time>2014-04-07T15:23:53Z</time>
  </trkpt>
  <trkpt lat="33.997501" lon="-4.969808">
   <ele>482.00</ele>
   <time>2014-04-07T15:24:06Z</time>
  </trkpt>
  <trkpt lat="33.997689" lon="-4.969945">
   <ele>481.00</ele>
   <time>2014-04-07T15:24:10Z</time>
  </trkpt>
  <trkpt lat="33.998380" lon="-4.970466">
   <ele>479.00</ele>
   <time>2014-04-07T15:24:20Z</time>
  </trkpt>
  <trkpt lat="33.999866" lon="-4.971608">
   <ele>476.00</ele>
   <time>2014-04-07T15:24:35Z</time>
  </trkpt>
  <trkpt lat="34.000757" lon="-4.972300">
   <ele>475.00</ele>
   <time>2014-04-07T15:24:44Z</time>
  </trkpt>
  <trkpt lat="34.001728" lon="-4.973078">
   <ele>473.00</ele>
   <time>2014-04-07T15:24:54Z</time>
  </trkpt>
  <trkpt lat="34.002671" lon="-4.973629">
   <ele>471.00</ele>
   <time>2014-04-07T15:25:08Z</time>
  </trkpt>
  <trkpt lat="34.002877" lon="-4.973649">
   <ele>471.00</ele>
   <time>2014-04-07T15:25:12Z</time>
  </trkpt>
  <trkpt lat="34.003033" lon="-4.973785">
   <ele>471.00</ele>
   <time>2014-04-07T15:25:16Z</time>
  </trkpt>
  <trkpt lat="34.003059" lon="-4.974050">
   <ele>470.00</ele>
   <time>2014-04-07T15:25:20Z</time>
  </trkpt>
  <trkpt lat="34.002900" lon="-4.974247">
   <ele>469.00</ele>
   <time>2014-04-07T15:25:24Z</time>
  </trkpt>
  <trkpt lat="34.002704" lon="-4.974364">
   <ele>469.00</ele>
   <time>2014-04-07T15:25:27Z</time>
  </trkpt>
  <trkpt lat="34.002548" lon="-4.974553">
   <ele>468.00</ele>
   <time>2014-04-07T15:25:30Z</time>
  </trkpt>
  <trkpt lat="34.002423" lon="-4.974766">
   <ele>468.00</ele>
   <time>2014-04-07T15:25:33Z</time>
  </trkpt>
  <trkpt lat="34.002274" lon="-4.975013">
   <ele>467.00</ele>
   <time>2014-04-07T15:25:36Z</time>
  </trkpt>
  <trkpt lat="34.001572" lon="-4.976327">
   <ele>465.00</ele>
   <time>2014-04-07T15:25:49Z</time>
  </trkpt>
  <trkpt lat="34.000096" lon="-4.979035">
   <ele>455.00</ele>
   <time>2014-04-07T15:26:14Z</time>
  </trkpt>
  <trkpt lat="34.000017" lon="-4.979274">
   <ele>454.00</ele>
   <time>2014-04-07T15:26:17Z</time>
  </trkpt>
  <trkpt lat="33.999899" lon="-4.979463">
   <ele>453.00</ele>
   <time>2014-04-07T15:26:20Z</time>
  </trkpt>
  <trkpt lat="33.999730" lon="-4.979650">
   <ele>452.00</ele>
   <time>2014-04-07T15:26:23Z</time>
  </trkpt>
  <trkpt lat="33.999560" lon="-4.979889">
   <ele>451.00</ele>
   <time>2014-04-07T15:26:26Z</time>
  </trkpt>
  <trkpt lat="33.999213" lon="-4.980379">
   <ele>449.00</ele>
   <time>2014-04-07T15:26:31Z</time>
  </trkpt>
  <trkpt lat="33.998633" lon="-4.981155">
   <ele>448.00</ele>
   <time>2014-04-07T15:26:38Z</time>
  </trkpt>
  <trkpt lat="33.997422" lon="-4.982876">
   <ele>452.00</ele>
   <time>2014-04-07T15:26:53Z</time>
  </trkpt>
  <trkpt lat="33.996982" lon="-4.983484">
   <ele>455.00</ele>
   <time>2014-04-07T15:26:59Z</time>
  </trkpt>
  <trkpt lat="33.996573" lon="-4.984004">
   <ele>457.00</ele>
   <time>2014-04-07T15:27:04Z</time>
  </trkpt>
  <trkpt lat="33.995476" lon="-4.985563">
   <ele>460.00</ele>
   <time>2014-04-07T15:27:20Z</time>
  </trkpt>
  <trkpt lat="33.994807" lon="-4.986488">
   <ele>460.00</ele>
   <time>2014-04-07T15:27:29Z</time>
  </trkpt>
  <trkpt lat="33.994510" lon="-4.986868">
   <ele>460.00</ele>
   <time>2014-04-07T15:27:33Z</time>
  </trkpt>
  <trkpt lat="33.993484" lon="-4.988027">
   <ele>460.00</ele>
   <time>2014-04-07T15:27:46Z</time>
  </trkpt>
  <trkpt lat="33.992207" lon="-4.989524">
   <ele>466.00</ele>
   <time>2014-04-07T15:28:02Z</time>
  </trkpt>
  <trkpt lat="33.991371" lon="-4.990470">
   <ele>469.00</ele>
   <time>2014-04-07T15:28:12Z</time>
  </trkpt>
  <trkpt lat="33.990172" lon="-4.991832">
   <ele>471.00</ele>
   <time>2014-04-07T15:28:27Z</time>
  </trkpt>
  <trkpt lat="33.990009" lon="-4.992045">
   <ele>471.00</ele>
   <time>2014-04-07T15:28:29Z</time>
  </trkpt>
  <trkpt lat="33.989077" lon="-4.993872">
   <ele>470.00</ele>
   <time>2014-04-07T15:28:44Z</time>
  </trkpt>
  <trkpt lat="33.989000" lon="-4.994143">
   <ele>471.00</ele>
   <time>2014-04-07T15:28:46Z</time>
  </trkpt>
  <trkpt lat="33.988939" lon="-4.994420">
   <ele>471.00</ele>
   <time>2014-04-07T15:28:48Z</time>
  </trkpt>
  <trkpt lat="33.988738" lon="-4.995486">
   <ele>473.00</ele>
   <time>2014-04-07T15:28:56Z</time>
  </trkpt>
  <trkpt lat="33.988519" lon="-4.996660">
   <ele>474.00</ele>
   <time>2014-04-07T15:29:09Z</time>
  </trkpt>
  <trkpt lat="33.988521" lon="-4.996652">
   <ele>474.00</ele>
   <time>2014-04-07T15:29:24Z</time>
  </trkpt>
  <trkpt lat="33.988518" lon="-4.996696">
   <ele>473.00</ele>
   <time>2014-04-07T15:29:40Z</time>
  </trkpt>
  <trkpt lat="33.988575" lon="-4.996904">
   <ele>473.00</ele>
   <time>2014-04-07T15:29:44Z</time>
  </trkpt>
  <trkpt lat="33.988577" lon="-4.997125">
   <ele>472.00</ele>
   <time>2014-04-07T15:29:47Z</time>
  </trkpt>
  <trkpt lat="33.988481" lon="-4.997363">
   <ele>472.00</ele>
   <time>2014-04-07T15:29:50Z</time>
  </trkpt>
  <trkpt lat="33.988404" lon="-4.997651">
   <ele>472.00</ele>
   <time>2014-04-07T15:29:53Z</time>
  </trkpt>
  <trkpt lat="33.988393" lon="-4.997969">
   <ele>473.00</ele>
   <time>2014-04-07T15:29:56Z</time>
  </trkpt>
  <trkpt lat="33.988462" lon="-4.999996">
   <ele>468.00</ele>
   <time>2014-04-07T15:30:12Z</time>
  </trkpt>
  <trkpt lat="33.988489" lon="-5.000987">
   <ele>466.00</ele>
   <time>2014-04-07T15:30:20Z</time>
  </trkpt>
  <trkpt lat="33.988517" lon="-5.002227">
   <ele>464.00</ele>
   <time>2014-04-07T15:30:33Z</time>
  </trkpt>
  <trkpt lat="33.988519" lon="-5.003024">
   <ele>463.00</ele>
   <time>2014-04-07T15:30:44Z</time>
  </trkpt>
  <trkpt lat="33.988500" lon="-5.003270">
   <ele>463.00</ele>
   <time>2014-04-07T15:30:47Z</time>
  </trkpt>
  <trkpt lat="33.988498" lon="-5.003538">
   <ele>463.00</ele>
   <time>2014-04-07T15:30:50Z</time>
  </trkpt>
  <trkpt lat="33.988519" lon="-5.003871">
   <ele>462.00</ele>
   <time>2014-04-07T15:30:53Z</time>
  </trkpt>
  <trkpt lat="33.988562" lon="-5.004411">
   <ele>462.00</ele>
   <time>2014-04-07T15:30:57Z</time>
  </trkpt>
  <trkpt lat="33.988595" lon="-5.005316">
   <ele>461.00</ele>
   <time>2014-04-07T15:31:03Z</time>
  </trkpt>
  <trkpt lat="33.988654" lon="-5.007606">
   <ele>460.00</ele>
   <time>2014-04-07T15:31:18Z</time>
  </trkpt>
  <trkpt lat="33.988709" lon="-5.010061">
   <ele>466.00</ele>
   <time>2014-04-07T15:31:33Z</time>
  </trkpt>
  <trkpt lat="33.988735" lon="-5.011026">
   <ele>468.00</ele>
   <time>2014-04-07T15:31:39Z</time>
  </trkpt>
  <trkpt lat="33.988760" lon="-5.011331">
   <ele>468.00</ele>
   <time>2014-04-07T15:31:41Z</time>
  </trkpt>
  <trkpt lat="33.988796" lon="-5.011614">
   <ele>469.00</ele>
   <time>2014-04-07T15:31:43Z</time>
  </trkpt>
  <trkpt lat="33.988844" lon="-5.011882">
   <ele>469.00</ele>
   <time>2014-04-07T15:31:45Z</time>
  </trkpt>
  <trkpt lat="33.988911" lon="-5.012140">
   <ele>469.00</ele>
   <time>2014-04-07T15:31:47Z</time>
  </trkpt>
  <trkpt lat="33.988997" lon="-5.012381">
   <ele>469.00</ele>
   <time>2014-04-07T15:31:49Z</time>
  </trkpt>
  <trkpt lat="33.989097" lon="-5.012605">
   <ele>469.00</ele>
   <time>2014-04-07T15:31:51Z</time>
  </trkpt>
  <trkpt lat="33.989207" lon="-5.012809">
   <ele>470.00</ele>
   <time>2014-04-07T15:31:53Z</time>
  </trkpt>
  <trkpt lat="33.989478" lon="-5.013250">
   <ele>470.00</ele>
   <time>2014-04-07T15:31:58Z</time>
  </trkpt>
  <trkpt lat="33.989737" lon="-5.013645">
   <ele>469.00</ele>
   <time>2014-04-07T15:32:03Z</time>
  </trkpt>
  <trkpt lat="33.989902" lon="-5.013873">
   <ele>469.00</ele>
   <time>2014-04-07T15:32:06Z</time>
  </trkpt>
  <trkpt lat="33.990079" lon="-5.014087">
   <ele>469.00</ele>
   <time>2014-04-07T15:32:09Z</time>
  </trkpt>
  <trkpt lat="33.990256" lon="-5.014274">
   <ele>469.00</ele>
   <time>2014-04-07T15:32:12Z</time>
  </trkpt>
  <trkpt lat="33.990468" lon="-5.014495">
   <ele>469.00</ele>
   <time>2014-04-07T15:32:16Z</time>
  </trkpt>
  <trkpt lat="33.990596" lon="-5.014665">
   <ele>468.00</ele>
   <time>2014-04-07T15:32:19Z</time>
  </trkpt>
  <trkpt lat="33.990708" lon="-5.014856">
   <ele>467.00</ele>
   <time>2014-04-07T15:32:22Z</time>
  </trkpt>
  <trkpt lat="33.990867" lon="-5.015161">
   <ele>465.00</ele>
   <time>2014-04-07T15:32:27Z</time>
  </trkpt>
  <trkpt lat="33.991007" lon="-5.015356">
   <ele>465.00</ele>
   <time>2014-04-07T15:32:31Z</time>
  </trkpt>
  <trkpt lat="33.991115" lon="-5.015541">
   <ele>464.00</ele>
   <time>2014-04-07T15:32:34Z</time>
  </trkpt>
  <trkpt lat="33.991406" lon="-5.017309">
   <ele>456.00</ele>
   <time>2014-04-07T15:32:49Z</time>
  </trkpt>
  <trkpt lat="33.991406" lon="-5.017662">
   <ele>455.00</ele>
   <time>2014-04-07T15:32:52Z</time>
  </trkpt>
  <trkpt lat="33.991383" lon="-5.018165">
   <ele>453.00</ele>
   <time>2014-04-07T15:32:57Z</time>
  </trkpt>
  <trkpt lat="33.991323" lon="-5.018919">
   <ele>452.00</ele>
   <time>2014-04-07T15:33:04Z</time>
  </trkpt>
  <trkpt lat="33.991257" lon="-5.019428">
   <ele>451.00</ele>
   <time>2014-04-07T15:33:10Z</time>
  </trkpt>
  <trkpt lat="33.991220" lon="-5.019704">
   <ele>451.00</ele>
   <time>2014-04-07T15:33:13Z</time>
  </trkpt>
  <trkpt lat="33.991058" lon="-5.021236">
   <ele>455.00</ele>
   <time>2014-04-07T15:33:27Z</time>
  </trkpt>
  <trkpt lat="33.990952" lon="-5.021445">
   <ele>455.00</ele>
   <time>2014-04-07T15:33:30Z</time>
  </trkpt>
  <trkpt lat="33.990750" lon="-5.021542">
   <ele>456.00</ele>
   <time>2014-04-07T15:33:33Z</time>
  </trkpt>
  <trkpt lat="33.990572" lon="-5.021418">
   <ele>458.00</ele>
   <time>2014-04-07T15:33:36Z</time>
  </trkpt>
  <trkpt lat="33.990467" lon="-5.021230">
   <ele>460.00</ele>
   <time>2014-04-07T15:33:39Z</time>
  </trkpt>
  <trkpt lat="33.990274" lon="-5.021176">
   <ele>462.00</ele>
   <time>2014-04-07T15:33:42Z</time>
  </trkpt>
  <trkpt lat="33.988777" lon="-5.021147">
   <ele>469.00</ele>
   <time>2014-04-07T15:33:57Z</time>
  </trkpt>
  <trkpt lat="33.988279" lon="-5.021158">
   <ele>470.00</ele>
   <time>2014-04-07T15:34:02Z</time>
  </trkpt>
  <trkpt lat="33.987954" lon="-5.021169">
   <ele>470.00</ele>
   <time>2014-04-07T15:34:10Z</time>
  </trkpt>
  <trkpt lat="33.987603" lon="-5.021166">
   <ele>470.00</ele>
   <time>2014-04-07T15:34:15Z</time>
  </trkpt>
  <trkpt lat="33.987412" lon="-5.021186">
   <ele>470.00</ele>
   <time>2014-04-07T15:34:18Z</time>
  </trkpt>
  <trkpt lat="33.987293" lon="-5.021030">
   <ele>471.00</ele>
   <time>2014-04-07T15:34:23Z</time>
  </trkpt>
  <trkpt lat="33.987299" lon="-5.020794">
   <ele>469.00</ele>
   <time>2014-04-07T15:34:29Z</time>
  </trkpt>
  <trkpt lat="33.987361" lon="-5.020783">
   <ele>470.00</ele>
   <time>2014-04-07T15:34:34Z</time>
  </trkpt>
 </trkseg>
</trk>
<trk>
 <name>GPS_20140408</name>
 <trkseg>
  <trkpt lat="33.986295" lon="-5.018086">
   <ele>451.00</ele>
   <time>2014-04-08T17:01:44Z</time>
  </trkpt>
  <trkpt lat="33.986302" lon="-5.018084">
   <ele>453.00</ele>
   <time>2014-04-08T17:01:47Z</time>
  </trkpt>
 </trkseg>
</trk>
<trk>
 <name>GPS_20140409</name>
 <trkseg>
  <trkpt lat="33.988292" lon="-5.001164">
   <ele>480.00</ele>
   <time>2014-04-09T09:19:34Z</time>
  </trkpt>
  <trkpt lat="33.988245" lon="-5.000935">
   <ele>474.00</ele>
   <time>2014-04-09T09:19:45Z</time>
  </trkpt>
  <trkpt lat="33.988348" lon="-5.000764">
   <ele>472.00</ele>
   <time>2014-04-09T09:19:51Z</time>
  </trkpt>
  <trkpt lat="33.988428" lon="-5.000730">
   <ele>470.00</ele>
   <time>2014-04-09T09:20:07Z</time>
  </trkpt>
  <trkpt lat="33.988414" lon="-5.000736">
   <ele>468.00</ele>
   <time>2014-04-09T09:20:22Z</time>
  </trkpt>
  <trkpt lat="33.988404" lon="-5.000740">
   <ele>467.00</ele>
   <time>2014-04-09T09:20:38Z</time>
  </trkpt>
  <trkpt lat="33.988446" lon="-5.000766">
   <ele>465.00</ele>
   <time>2014-04-09T09:20:53Z</time>
  </trkpt>
  <trkpt lat="33.988479" lon="-5.001022">
   <ele>465.00</ele>
   <time>2014-04-09T09:20:58Z</time>
  </trkpt>
  <trkpt lat="33.988494" lon="-5.001527">
   <ele>464.00</ele>
   <time>2014-04-09T09:21:04Z</time>
  </trkpt>
  <trkpt lat="33.988508" lon="-5.002740">
   <ele>463.00</ele>
   <time>2014-04-09T09:21:17Z</time>
  </trkpt>
  <trkpt lat="33.988500" lon="-5.003114">
   <ele>463.00</ele>
   <time>2014-04-09T09:21:21Z</time>
  </trkpt>
  <trkpt lat="33.988485" lon="-5.003393">
   <ele>463.00</ele>
   <time>2014-04-09T09:21:24Z</time>
  </trkpt>
  <trkpt lat="33.988500" lon="-5.003692">
   <ele>462.00</ele>
   <time>2014-04-09T09:21:27Z</time>
  </trkpt>
  <trkpt lat="33.988519" lon="-5.003919">
   <ele>462.00</ele>
   <time>2014-04-09T09:21:29Z</time>
  </trkpt>
  <trkpt lat="33.988551" lon="-5.004286">
   <ele>462.00</ele>
   <time>2014-04-09T09:21:32Z</time>
  </trkpt>
  <trkpt lat="33.988569" lon="-5.004762">
   <ele>462.00</ele>
   <time>2014-04-09T09:21:36Z</time>
  </trkpt>
  <trkpt lat="33.988608" lon="-5.006490">
   <ele>462.00</ele>
   <time>2014-04-09T09:21:51Z</time>
  </trkpt>
  <trkpt lat="33.988653" lon="-5.008304">
   <ele>463.00</ele>
   <time>2014-04-09T09:22:07Z</time>
  </trkpt>
  <trkpt lat="33.988658" lon="-5.008890">
   <ele>464.00</ele>
   <time>2014-04-09T09:22:12Z</time>
  </trkpt>
  <trkpt lat="33.988655" lon="-5.009172">
   <ele>465.00</ele>
   <time>2014-04-09T09:22:14Z</time>
  </trkpt>
  <trkpt lat="33.988673" lon="-5.009489">
   <ele>466.00</ele>
   <time>2014-04-09T09:22:16Z</time>
  </trkpt>
  <trkpt lat="33.988687" lon="-5.009814">
   <ele>467.00</ele>
   <time>2014-04-09T09:22:18Z</time>
  </trkpt>
  <trkpt lat="33.988739" lon="-5.011201">
   <ele>469.00</ele>
   <time>2014-04-09T09:22:27Z</time>
  </trkpt>
  <trkpt lat="33.988771" lon="-5.011510">
   <ele>469.00</ele>
   <time>2014-04-09T09:22:29Z</time>
  </trkpt>
  <trkpt lat="33.988821" lon="-5.011819">
   <ele>469.00</ele>
   <time>2014-04-09T09:22:31Z</time>
  </trkpt>
  <trkpt lat="33.988897" lon="-5.012125">
   <ele>469.00</ele>
   <time>2014-04-09T09:22:33Z</time>
  </trkpt>
  <trkpt lat="33.989000" lon="-5.012427">
   <ele>468.00</ele>
   <time>2014-04-09T09:22:35Z</time>
  </trkpt>
  <trkpt lat="33.989135" lon="-5.012713">
   <ele>468.00</ele>
   <time>2014-04-09T09:22:37Z</time>
  </trkpt>
  <trkpt lat="33.989366" lon="-5.013114">
   <ele>466.00</ele>
   <time>2014-04-09T09:22:40Z</time>
  </trkpt>
  <trkpt lat="33.989675" lon="-5.013617">
   <ele>465.00</ele>
   <time>2014-04-09T09:22:44Z</time>
  </trkpt>
  <trkpt lat="33.989834" lon="-5.013850">
   <ele>464.00</ele>
   <time>2014-04-09T09:22:46Z</time>
  </trkpt>
  <trkpt lat="33.990007" lon="-5.014061">
   <ele>464.00</ele>
   <time>2014-04-09T09:22:48Z</time>
  </trkpt>
  <trkpt lat="33.990191" lon="-5.014253">
   <ele>463.00</ele>
   <time>2014-04-09T09:22:50Z</time>
  </trkpt>
  <trkpt lat="33.990461" lon="-5.014541">
   <ele>462.00</ele>
   <time>2014-04-09T09:22:53Z</time>
  </trkpt>
  <trkpt lat="33.990606" lon="-5.014754">
   <ele>461.00</ele>
   <time>2014-04-09T09:22:55Z</time>
  </trkpt>
  <trkpt lat="33.990883" lon="-5.015227">
   <ele>459.00</ele>
   <time>2014-04-09T09:23:00Z</time>
  </trkpt>
  <trkpt lat="33.991039" lon="-5.015470">
   <ele>458.00</ele>
   <time>2014-04-09T09:23:03Z</time>
  </trkpt>
  <trkpt lat="33.991121" lon="-5.015671">
   <ele>457.00</ele>
   <time>2014-04-09T09:23:05Z</time>
  </trkpt>
  <trkpt lat="33.991189" lon="-5.015906">
   <ele>456.00</ele>
   <time>2014-04-09T09:23:07Z</time>
  </trkpt>
  <trkpt lat="33.991252" lon="-5.016161">
   <ele>456.00</ele>
   <time>2014-04-09T09:23:09Z</time>
  </trkpt>
  <trkpt lat="33.991307" lon="-5.016426">
   <ele>455.00</ele>
   <time>2014-04-09T09:23:11Z</time>
  </trkpt>
  <trkpt lat="33.991349" lon="-5.016695">
   <ele>454.00</ele>
   <time>2014-04-09T09:23:13Z</time>
  </trkpt>
  <trkpt lat="33.991376" lon="-5.016967">
   <ele>453.00</ele>
   <time>2014-04-09T09:23:15Z</time>
  </trkpt>
  <trkpt lat="33.991390" lon="-5.017238">
   <ele>452.00</ele>
   <time>2014-04-09T09:23:17Z</time>
  </trkpt>
  <trkpt lat="33.991385" lon="-5.017500">
   <ele>451.00</ele>
   <time>2014-04-09T09:23:19Z</time>
  </trkpt>
  <trkpt lat="33.991331" lon="-5.018553">
   <ele>450.00</ele>
   <time>2014-04-09T09:23:28Z</time>
  </trkpt>
  <trkpt lat="33.991299" lon="-5.018923">
   <ele>449.00</ele>
   <time>2014-04-09T09:23:31Z</time>
  </trkpt>
  <trkpt lat="33.991119" lon="-5.020559">
   <ele>449.00</ele>
   <time>2014-04-09T09:23:46Z</time>
  </trkpt>
  <trkpt lat="33.990929" lon="-5.022533">
   <ele>455.00</ele>
   <time>2014-04-09T09:24:02Z</time>
  </trkpt>
  <trkpt lat="33.990851" lon="-5.023586">
   <ele>457.00</ele>
   <time>2014-04-09T09:24:10Z</time>
  </trkpt>
  <trkpt lat="33.990849" lon="-5.023867">
   <ele>457.00</ele>
   <time>2014-04-09T09:24:13Z</time>
  </trkpt>
  <trkpt lat="33.990863" lon="-5.024143">
   <ele>456.00</ele>
   <time>2014-04-09T09:24:18Z</time>
  </trkpt>
  <trkpt lat="33.990887" lon="-5.024373">
   <ele>456.00</ele>
   <time>2014-04-09T09:24:21Z</time>
  </trkpt>
  <trkpt lat="33.990933" lon="-5.024631">
   <ele>455.00</ele>
   <time>2014-04-09T09:24:24Z</time>
  </trkpt>
  <trkpt lat="33.991023" lon="-5.024913">
   <ele>455.00</ele>
   <time>2014-04-09T09:24:27Z</time>
  </trkpt>
  <trkpt lat="33.991192" lon="-5.025151">
   <ele>452.00</ele>
   <time>2014-04-09T09:24:30Z</time>
  </trkpt>
  <trkpt lat="33.991363" lon="-5.025236">
   <ele>450.00</ele>
   <time>2014-04-09T09:24:32Z</time>
  </trkpt>
  <trkpt lat="33.991554" lon="-5.025234">
   <ele>448.00</ele>
   <time>2014-04-09T09:24:34Z</time>
  </trkpt>
  <trkpt lat="33.991733" lon="-5.025140">
   <ele>446.00</ele>
   <time>2014-04-09T09:24:36Z</time>
  </trkpt>
  <trkpt lat="33.991863" lon="-5.024966">
   <ele>445.00</ele>
   <time>2014-04-09T09:24:38Z</time>
  </trkpt>
  <trkpt lat="33.991926" lon="-5.024749">
   <ele>444.00</ele>
   <time>2014-04-09T09:24:40Z</time>
  </trkpt>
  <trkpt lat="33.991915" lon="-5.024528">
   <ele>443.00</ele>
   <time>2014-04-09T09:24:42Z</time>
  </trkpt>
  <trkpt lat="33.991835" lon="-5.024334">
   <ele>443.00</ele>
   <time>2014-04-09T09:24:44Z</time>
  </trkpt>
  <trkpt lat="33.991626" lon="-5.024148">
   <ele>444.00</ele>
   <time>2014-04-09T09:24:47Z</time>
  </trkpt>
  <trkpt lat="33.991361" lon="-5.024110">
   <ele>445.00</ele>
   <time>2014-04-09T09:24:50Z</time>
  </trkpt>
  <trkpt lat="33.991172" lon="-5.024137">
   <ele>445.00</ele>
   <time>2014-04-09T09:24:52Z</time>
  </trkpt>
  <trkpt lat="33.990735" lon="-5.024231">
   <ele>445.00</ele>
   <time>2014-04-09T09:24:56Z</time>
  </trkpt>
  <trkpt lat="33.990479" lon="-5.024308">
   <ele>447.00</ele>
   <time>2014-04-09T09:24:58Z</time>
  </trkpt>
  <trkpt lat="33.989949" lon="-5.024494">
   <ele>449.00</ele>
   <time>2014-04-09T09:25:02Z</time>
  </trkpt>
  <trkpt lat="33.989673" lon="-5.024613">
   <ele>450.00</ele>
   <time>2014-04-09T09:25:04Z</time>
  </trkpt>
  <trkpt lat="33.987160" lon="-5.025841">
   <ele>457.00</ele>
   <time>2014-04-09T09:25:21Z</time>
  </trkpt>
  <trkpt lat="33.984825" lon="-5.026973">
   <ele>464.00</ele>
   <time>2014-04-09T09:25:36Z</time>
  </trkpt>
  <trkpt lat="33.982288" lon="-5.028207">
   <ele>470.00</ele>
   <time>2014-04-09T09:25:52Z</time>
  </trkpt>
  <trkpt lat="33.979849" lon="-5.029394">
   <ele>476.00</ele>
   <time>2014-04-09T09:26:07Z</time>
  </trkpt>
  <trkpt lat="33.979367" lon="-5.029612">
   <ele>477.00</ele>
   <time>2014-04-09T09:26:10Z</time>
  </trkpt>
  <trkpt lat="33.977602" lon="-5.030340">
   <ele>481.00</ele>
   <time>2014-04-09T09:26:21Z</time>
  </trkpt>
  <trkpt lat="33.977121" lon="-5.030502">
   <ele>481.00</ele>
   <time>2014-04-09T09:26:24Z</time>
  </trkpt>
  <trkpt lat="33.976305" lon="-5.030731">
   <ele>482.00</ele>
   <time>2014-04-09T09:26:29Z</time>
  </trkpt>
  <trkpt lat="33.975806" lon="-5.030846">
   <ele>483.00</ele>
   <time>2014-04-09T09:26:32Z</time>
  </trkpt>
  <trkpt lat="33.975308" lon="-5.030940">
   <ele>483.00</ele>
   <time>2014-04-09T09:26:35Z</time>
  </trkpt>
  <trkpt lat="33.974644" lon="-5.031025">
   <ele>484.00</ele>
   <time>2014-04-09T09:26:39Z</time>
  </trkpt>
  <trkpt lat="33.972398" lon="-5.031205">
   <ele>486.00</ele>
   <time>2014-04-09T09:26:53Z</time>
  </trkpt>
  <trkpt lat="33.969940" lon="-5.031345">
   <ele>489.00</ele>
   <time>2014-04-09T09:27:09Z</time>
  </trkpt>
  <trkpt lat="33.967814" lon="-5.031453">
   <ele>490.00</ele>
   <time>2014-04-09T09:27:24Z</time>
  </trkpt>
  <trkpt lat="33.966035" lon="-5.031575">
   <ele>491.00</ele>
   <time>2014-04-09T09:27:38Z</time>
  </trkpt>
  <trkpt lat="33.965544" lon="-5.031635">
   <ele>492.00</ele>
   <time>2014-04-09T09:27:42Z</time>
  </trkpt>
  <trkpt lat="33.963538" lon="-5.031937">
   <ele>494.00</ele>
   <time>2014-04-09T09:27:58Z</time>
  </trkpt>
  <trkpt lat="33.961645" lon="-5.032243">
   <ele>498.00</ele>
   <time>2014-04-09T09:28:13Z</time>
  </trkpt>
  <trkpt lat="33.959671" lon="-5.032579">
   <ele>502.00</ele>
   <time>2014-04-09T09:28:29Z</time>
  </trkpt>
  <trkpt lat="33.959424" lon="-5.032638">
   <ele>503.00</ele>
   <time>2014-04-09T09:28:31Z</time>
  </trkpt>
  <trkpt lat="33.959176" lon="-5.032709">
   <ele>503.00</ele>
   <time>2014-04-09T09:28:33Z</time>
  </trkpt>
  <trkpt lat="33.958929" lon="-5.032793">
   <ele>504.00</ele>
   <time>2014-04-09T09:28:35Z</time>
  </trkpt>
  <trkpt lat="33.958569" lon="-5.032937">
   <ele>505.00</ele>
   <time>2014-04-09T09:28:38Z</time>
  </trkpt>
  <trkpt lat="33.958214" lon="-5.033100">
   <ele>506.00</ele>
   <time>2014-04-09T09:28:41Z</time>
  </trkpt>
  <trkpt lat="33.957987" lon="-5.033222">
   <ele>507.00</ele>
   <time>2014-04-09T09:28:43Z</time>
  </trkpt>
  <trkpt lat="33.957773" lon="-5.033350">
   <ele>508.00</ele>
   <time>2014-04-09T09:28:45Z</time>
  </trkpt>
  <trkpt lat="33.957575" lon="-5.033484">
   <ele>508.00</ele>
   <time>2014-04-09T09:28:47Z</time>
  </trkpt>
  <trkpt lat="33.957386" lon="-5.033607">
   <ele>509.00</ele>
   <time>2014-04-09T09:28:49Z</time>
  </trkpt>
  <trkpt lat="33.957185" lon="-5.033738">
   <ele>510.00</ele>
   <time>2014-04-09T09:28:51Z</time>
  </trkpt>
  <trkpt lat="33.956979" lon="-5.033897">
   <ele>511.00</ele>
   <time>2014-04-09T09:28:53Z</time>
  </trkpt>
  <trkpt lat="33.956654" lon="-5.034176">
   <ele>512.00</ele>
   <time>2014-04-09T09:28:56Z</time>
  </trkpt>
  <trkpt lat="33.956438" lon="-5.034376">
   <ele>513.00</ele>
   <time>2014-04-09T09:28:58Z</time>
  </trkpt>
  <trkpt lat="33.956231" lon="-5.034590">
   <ele>514.00</ele>
   <time>2014-04-09T09:29:00Z</time>
  </trkpt>
  <trkpt lat="33.956027" lon="-5.034821">
   <ele>515.00</ele>
   <time>2014-04-09T09:29:02Z</time>
  </trkpt>
  <trkpt lat="33.955732" lon="-5.035183">
   <ele>516.00</ele>
   <time>2014-04-09T09:29:05Z</time>
  </trkpt>
  <trkpt lat="33.955560" lon="-5.035418">
   <ele>517.00</ele>
   <time>2014-04-09T09:29:07Z</time>
  </trkpt>
  <trkpt lat="33.955425" lon="-5.035630">
   <ele>518.00</ele>
   <time>2014-04-09T09:29:09Z</time>
  </trkpt>
  <trkpt lat="33.955334" lon="-5.035905">
   <ele>519.00</ele>
   <time>2014-04-09T09:29:12Z</time>
  </trkpt>
  <trkpt lat="33.955289" lon="-5.036158">
   <ele>520.00</ele>
   <time>2014-04-09T09:29:15Z</time>
  </trkpt>
  <trkpt lat="33.955106" lon="-5.036294">
   <ele>520.00</ele>
   <time>2014-04-09T09:29:18Z</time>
  </trkpt>
  <trkpt lat="33.954863" lon="-5.036328">
   <ele>521.00</ele>
   <time>2014-04-09T09:29:21Z</time>
  </trkpt>
  <trkpt lat="33.954695" lon="-5.036419">
   <ele>521.00</ele>
   <time>2014-04-09T09:29:23Z</time>
  </trkpt>
  <trkpt lat="33.954519" lon="-5.036546">
   <ele>520.00</ele>
   <time>2014-04-09T09:29:25Z</time>
  </trkpt>
  <trkpt lat="33.953500" lon="-5.037344">
   <ele>520.00</ele>
   <time>2014-04-09T09:29:40Z</time>
  </trkpt>
  <trkpt lat="33.953472" lon="-5.037419">
   <ele>521.00</ele>
   <time>2014-04-09T09:29:56Z</time>
  </trkpt>
  <trkpt lat="33.953299" lon="-5.037592">
   <ele>521.00</ele>
   <time>2014-04-09T09:30:01Z</time>
  </trkpt>
  <trkpt lat="33.953144" lon="-5.037744">
   <ele>520.00</ele>
   <time>2014-04-09T09:30:05Z</time>
  </trkpt>
  <trkpt lat="33.952998" lon="-5.037835">
   <ele>517.00</ele>
   <time>2014-04-09T09:30:21Z</time>
  </trkpt>
  <trkpt lat="33.952995" lon="-5.037832">
   <ele>517.00</ele>
   <time>2014-04-09T09:30:36Z</time>
  </trkpt>
  <trkpt lat="33.952990" lon="-5.037830">
   <ele>516.00</ele>
   <time>2014-04-09T09:30:51Z</time>
  </trkpt>
  <trkpt lat="33.952988" lon="-5.037829">
   <ele>516.00</ele>
   <time>2014-04-09T09:31:07Z</time>
  </trkpt>
  <trkpt lat="33.952987" lon="-5.037831">
   <ele>516.00</ele>
   <time>2014-04-09T09:31:22Z</time>
  </trkpt>
  <trkpt lat="33.952988" lon="-5.037834">
   <ele>517.00</ele>
   <time>2014-04-09T09:31:37Z</time>
  </trkpt>
  <trkpt lat="33.952989" lon="-5.037837">
   <ele>518.00</ele>
   <time>2014-04-09T09:31:53Z</time>
  </trkpt>
  <trkpt lat="33.952988" lon="-5.037838">
   <ele>518.00</ele>
   <time>2014-04-09T09:32:08Z</time>
  </trkpt>
  <trkpt lat="33.952980" lon="-5.037836">
   <ele>520.00</ele>
   <time>2014-04-09T09:32:23Z</time>
  </trkpt>
  <trkpt lat="33.952929" lon="-5.037872">
   <ele>519.00</ele>
   <time>2014-04-09T09:32:39Z</time>
  </trkpt>
  <trkpt lat="33.952768" lon="-5.037970">
   <ele>519.00</ele>
   <time>2014-04-09T09:32:46Z</time>
  </trkpt>
  <trkpt lat="33.952555" lon="-5.038099">
   <ele>519.00</ele>
   <time>2014-04-09T09:32:51Z</time>
  </trkpt>
  <trkpt lat="33.952413" lon="-5.038257">
   <ele>519.00</ele>
   <time>2014-04-09T09:32:54Z</time>
  </trkpt>
  <trkpt lat="33.952266" lon="-5.038474">
   <ele>519.00</ele>
   <time>2014-04-09T09:32:57Z</time>
  </trkpt>
  <trkpt lat="33.952160" lon="-5.038667">
   <ele>519.00</ele>
   <time>2014-04-09T09:32:59Z</time>
  </trkpt>
  <trkpt lat="33.952067" lon="-5.038901">
   <ele>518.00</ele>
   <time>2014-04-09T09:33:01Z</time>
  </trkpt>
  <trkpt lat="33.951994" lon="-5.039157">
   <ele>517.00</ele>
   <time>2014-04-09T09:33:03Z</time>
  </trkpt>
  <trkpt lat="33.951339" lon="-5.041789">
   <ele>515.00</ele>
   <time>2014-04-09T09:33:18Z</time>
  </trkpt>
  <trkpt lat="33.950514" lon="-5.045197">
   <ele>513.00</ele>
   <time>2014-04-09T09:33:34Z</time>
  </trkpt>
  <trkpt lat="33.949772" lon="-5.048286">
   <ele>511.00</ele>
   <time>2014-04-09T09:33:48Z</time>
  </trkpt>
  <trkpt lat="33.949643" lon="-5.048970">
   <ele>510.00</ele>
   <time>2014-04-09T09:33:51Z</time>
  </trkpt>
  <trkpt lat="33.949534" lon="-5.049681">
   <ele>510.00</ele>
   <time>2014-04-09T09:33:54Z</time>
  </trkpt>
  <trkpt lat="33.949450" lon="-5.050412">
   <ele>509.00</ele>
   <time>2014-04-09T09:33:57Z</time>
  </trkpt>
  <trkpt lat="33.949412" lon="-5.050905">
   <ele>509.00</ele>
   <time>2014-04-09T09:33:59Z</time>
  </trkpt>
  <trkpt lat="33.949378" lon="-5.051650">
   <ele>509.00</ele>
   <time>2014-04-09T09:34:02Z</time>
  </trkpt>
  <trkpt lat="33.949370" lon="-5.052400">
   <ele>509.00</ele>
   <time>2014-04-09T09:34:05Z</time>
  </trkpt>
  <trkpt lat="33.949382" lon="-5.052900">
   <ele>509.00</ele>
   <time>2014-04-09T09:34:07Z</time>
  </trkpt>
  <trkpt lat="33.949426" lon="-5.053642">
   <ele>509.00</ele>
   <time>2014-04-09T09:34:10Z</time>
  </trkpt>
  <trkpt lat="33.949519" lon="-5.054611">
   <ele>509.00</ele>
   <time>2014-04-09T09:34:14Z</time>
  </trkpt>
  <trkpt lat="33.949866" lon="-5.057762">
   <ele>509.00</ele>
   <time>2014-04-09T09:34:27Z</time>
  </trkpt>
  <trkpt lat="33.949895" lon="-5.058252">
   <ele>510.00</ele>
   <time>2014-04-09T09:34:29Z</time>
  </trkpt>
  <trkpt lat="33.949917" lon="-5.059240">
   <ele>510.00</ele>
   <time>2014-04-09T09:34:33Z</time>
  </trkpt>
  <trkpt lat="33.949908" lon="-5.060242">
   <ele>510.00</ele>
   <time>2014-04-09T09:34:37Z</time>
  </trkpt>
  <trkpt lat="33.949871" lon="-5.061018">
   <ele>511.00</ele>
   <time>2014-04-09T09:34:40Z</time>
  </trkpt>
  <trkpt lat="33.949801" lon="-5.061816">
   <ele>511.00</ele>
   <time>2014-04-09T09:34:43Z</time>
  </trkpt>
  <trkpt lat="33.949702" lon="-5.062628">
   <ele>512.00</ele>
   <time>2014-04-09T09:34:46Z</time>
  </trkpt>
  <trkpt lat="33.949571" lon="-5.063447">
   <ele>512.00</ele>
   <time>2014-04-09T09:34:49Z</time>
  </trkpt>
  <trkpt lat="33.949413" lon="-5.064261">
   <ele>513.00</ele>
   <time>2014-04-09T09:34:52Z</time>
  </trkpt>
  <trkpt lat="33.949224" lon="-5.065073">
   <ele>513.00</ele>
   <time>2014-04-09T09:34:55Z</time>
  </trkpt>
  <trkpt lat="33.949004" lon="-5.065889">
   <ele>514.00</ele>
   <time>2014-04-09T09:34:58Z</time>
  </trkpt>
  <trkpt lat="33.948749" lon="-5.066703">
   <ele>514.00</ele>
   <time>2014-04-09T09:35:01Z</time>
  </trkpt>
  <trkpt lat="33.948462" lon="-5.067509">
   <ele>513.00</ele>
   <time>2014-04-09T09:35:04Z</time>
  </trkpt>
  <trkpt lat="33.948139" lon="-5.068311">
   <ele>513.00</ele>
   <time>2014-04-09T09:35:07Z</time>
  </trkpt>
  <trkpt lat="33.947905" lon="-5.068841">
   <ele>513.00</ele>
   <time>2014-04-09T09:35:09Z</time>
  </trkpt>
  <trkpt lat="33.947528" lon="-5.069619">
   <ele>512.00</ele>
   <time>2014-04-09T09:35:12Z</time>
  </trkpt>
  <trkpt lat="33.945958" lon="-5.072733">
   <ele>513.00</ele>
   <time>2014-04-09T09:35:24Z</time>
  </trkpt>
  <trkpt lat="33.945505" lon="-5.073823">
   <ele>513.00</ele>
   <time>2014-04-09T09:35:28Z</time>
  </trkpt>
  <trkpt lat="33.945201" lon="-5.074664">
   <ele>514.00</ele>
   <time>2014-04-09T09:35:31Z</time>
  </trkpt>
  <trkpt lat="33.944929" lon="-5.075522">
   <ele>515.00</ele>
   <time>2014-04-09T09:35:34Z</time>
  </trkpt>
  <trkpt lat="33.944695" lon="-5.076396">
   <ele>515.00</ele>
   <time>2014-04-09T09:35:37Z</time>
  </trkpt>
  <trkpt lat="33.944497" lon="-5.077284">
   <ele>516.00</ele>
   <time>2014-04-09T09:35:40Z</time>
  </trkpt>
  <trkpt lat="33.944329" lon="-5.078181">
   <ele>517.00</ele>
   <time>2014-04-09T09:35:43Z</time>
  </trkpt>
  <trkpt lat="33.944240" lon="-5.078780">
   <ele>516.00</ele>
   <time>2014-04-09T09:35:45Z</time>
  </trkpt>
  <trkpt lat="33.944137" lon="-5.079680">
   <ele>517.00</ele>
   <time>2014-04-09T09:35:48Z</time>
  </trkpt>
  <trkpt lat="33.944069" lon="-5.080584">
   <ele>517.00</ele>
   <time>2014-04-09T09:35:51Z</time>
  </trkpt>
  <trkpt lat="33.944037" lon="-5.081492">
   <ele>517.00</ele>
   <time>2014-04-09T09:35:54Z</time>
  </trkpt>
  <trkpt lat="33.944041" lon="-5.082401">
   <ele>517.00</ele>
   <time>2014-04-09T09:35:57Z</time>
  </trkpt>
  <trkpt lat="33.944074" lon="-5.083310">
   <ele>517.00</ele>
   <time>2014-04-09T09:36:00Z</time>
  </trkpt>
  <trkpt lat="33.944209" lon="-5.085118">
   <ele>518.00</ele>
   <time>2014-04-09T09:36:06Z</time>
  </trkpt>
  <trkpt lat="33.944312" lon="-5.086615">
   <ele>518.00</ele>
   <time>2014-04-09T09:36:11Z</time>
  </trkpt>
  <trkpt lat="33.944347" lon="-5.087810">
   <ele>519.00</ele>
   <time>2014-04-09T09:36:15Z</time>
  </trkpt>
  <trkpt lat="33.944331" lon="-5.088710">
   <ele>519.00</ele>
   <time>2014-04-09T09:36:18Z</time>
  </trkpt>
  <trkpt lat="33.944277" lon="-5.089613">
   <ele>519.00</ele>
   <time>2014-04-09T09:36:21Z</time>
  </trkpt>
  <trkpt lat="33.944189" lon="-5.090516">
   <ele>519.00</ele>
   <time>2014-04-09T09:36:24Z</time>
  </trkpt>
  <trkpt lat="33.944067" lon="-5.091410">
   <ele>519.00</ele>
   <time>2014-04-09T09:36:27Z</time>
  </trkpt>
  <trkpt lat="33.943910" lon="-5.092300">
   <ele>520.00</ele>
   <time>2014-04-09T09:36:30Z</time>
  </trkpt>
  <trkpt lat="33.943723" lon="-5.093185">
   <ele>520.00</ele>
   <time>2014-04-09T09:36:33Z</time>
  </trkpt>
  <trkpt lat="33.943574" lon="-5.093771">
   <ele>520.00</ele>
   <time>2014-04-09T09:36:35Z</time>
  </trkpt>
  <trkpt lat="33.943317" lon="-5.094637">
   <ele>519.00</ele>
   <time>2014-04-09T09:36:38Z</time>
  </trkpt>
  <trkpt lat="33.943026" lon="-5.095489">
   <ele>519.00</ele>
   <time>2014-04-09T09:36:41Z</time>
  </trkpt>
  <trkpt lat="33.942704" lon="-5.096324">
   <ele>519.00</ele>
   <time>2014-04-09T09:36:44Z</time>
  </trkpt>
  <trkpt lat="33.942355" lon="-5.097135">
   <ele>520.00</ele>
   <time>2014-04-09T09:36:47Z</time>
  </trkpt>
  <trkpt lat="33.941979" lon="-5.097923">
   <ele>520.00</ele>
   <time>2014-04-09T09:36:50Z</time>
  </trkpt>
  <trkpt lat="33.941569" lon="-5.098685">
   <ele>520.00</ele>
   <time>2014-04-09T09:36:53Z</time>
  </trkpt>
  <trkpt lat="33.941130" lon="-5.099425">
   <ele>519.00</ele>
   <time>2014-04-09T09:36:56Z</time>
  </trkpt>
  <trkpt lat="33.940664" lon="-5.100140">
   <ele>519.00</ele>
   <time>2014-04-09T09:36:59Z</time>
  </trkpt>
  <trkpt lat="33.940336" lon="-5.100602">
   <ele>519.00</ele>
   <time>2014-04-09T09:37:01Z</time>
  </trkpt>
  <trkpt lat="33.937986" lon="-5.103761">
   <ele>513.00</ele>
   <time>2014-04-09T09:37:15Z</time>
  </trkpt>
  <trkpt lat="33.937521" lon="-5.104498">
   <ele>512.00</ele>
   <time>2014-04-09T09:37:18Z</time>
  </trkpt>
  <trkpt lat="33.937230" lon="-5.105005">
   <ele>512.00</ele>
   <time>2014-04-09T09:37:20Z</time>
  </trkpt>
  <trkpt lat="33.936695" lon="-5.106038">
   <ele>512.00</ele>
   <time>2014-04-09T09:37:24Z</time>
  </trkpt>
  <trkpt lat="33.936327" lon="-5.106830">
   <ele>514.00</ele>
   <time>2014-04-09T09:37:27Z</time>
  </trkpt>
  <trkpt lat="33.935987" lon="-5.107651">
   <ele>515.00</ele>
   <time>2014-04-09T09:37:30Z</time>
  </trkpt>
  <trkpt lat="33.935779" lon="-5.108213">
   <ele>515.00</ele>
   <time>2014-04-09T09:37:32Z</time>
  </trkpt>
  <trkpt lat="33.935500" lon="-5.109076">
   <ele>516.00</ele>
   <time>2014-04-09T09:37:35Z</time>
  </trkpt>
  <trkpt lat="33.935250" lon="-5.109955">
   <ele>516.00</ele>
   <time>2014-04-09T09:37:38Z</time>
  </trkpt>
  <trkpt lat="33.935033" lon="-5.110849">
   <ele>516.00</ele>
   <time>2014-04-09T09:37:41Z</time>
  </trkpt>
  <trkpt lat="33.934911" lon="-5.111458">
   <ele>516.00</ele>
   <time>2014-04-09T09:37:43Z</time>
  </trkpt>
  <trkpt lat="33.934759" lon="-5.112381">
   <ele>516.00</ele>
   <time>2014-04-09T09:37:46Z</time>
  </trkpt>
  <trkpt lat="33.934639" lon="-5.113315">
   <ele>515.00</ele>
   <time>2014-04-09T09:37:49Z</time>
  </trkpt>
  <trkpt lat="33.934583" lon="-5.113944">
   <ele>515.00</ele>
   <time>2014-04-09T09:37:51Z</time>
  </trkpt>
  <trkpt lat="33.934531" lon="-5.114893">
   <ele>514.00</ele>
   <time>2014-04-09T09:37:54Z</time>
  </trkpt>
  <trkpt lat="33.934519" lon="-5.115837">
   <ele>512.00</ele>
   <time>2014-04-09T09:37:57Z</time>
  </trkpt>
  <trkpt lat="33.934545" lon="-5.116780">
   <ele>509.00</ele>
   <time>2014-04-09T09:38:00Z</time>
  </trkpt>
  <trkpt lat="33.934606" lon="-5.117722">
   <ele>507.00</ele>
   <time>2014-04-09T09:38:03Z</time>
  </trkpt>
  <trkpt lat="33.934708" lon="-5.118662">
   <ele>504.00</ele>
   <time>2014-04-09T09:38:06Z</time>
  </trkpt>
  <trkpt lat="33.934847" lon="-5.119592">
   <ele>501.00</ele>
   <time>2014-04-09T09:38:09Z</time>
  </trkpt>
  <trkpt lat="33.935023" lon="-5.120517">
   <ele>498.00</ele>
   <time>2014-04-09T09:38:12Z</time>
  </trkpt>
  <trkpt lat="33.935163" lon="-5.121130">
   <ele>496.00</ele>
   <time>2014-04-09T09:38:14Z</time>
  </trkpt>
  <trkpt lat="33.935809" lon="-5.123570">
   <ele>488.00</ele>
   <time>2014-04-09T09:38:22Z</time>
  </trkpt>
  <trkpt lat="33.936469" lon="-5.125978">
   <ele>483.00</ele>
   <time>2014-04-09T09:38:30Z</time>
  </trkpt>
  <trkpt lat="33.936752" lon="-5.127184">
   <ele>482.00</ele>
   <time>2014-04-09T09:38:34Z</time>
  </trkpt>
  <trkpt lat="33.936930" lon="-5.128094">
   <ele>481.00</ele>
   <time>2014-04-09T09:38:37Z</time>
  </trkpt>
  <trkpt lat="33.937029" lon="-5.128706">
   <ele>482.00</ele>
   <time>2014-04-09T09:38:39Z</time>
  </trkpt>
  <trkpt lat="33.937185" lon="-5.129941">
   <ele>482.00</ele>
   <time>2014-04-09T09:38:43Z</time>
  </trkpt>
  <trkpt lat="33.937277" lon="-5.130870">
   <ele>482.00</ele>
   <time>2014-04-09T09:38:46Z</time>
  </trkpt>
  <trkpt lat="33.937355" lon="-5.132110">
   <ele>483.00</ele>
   <time>2014-04-09T09:38:50Z</time>
  </trkpt>
  <trkpt lat="33.937383" lon="-5.133040">
   <ele>483.00</ele>
   <time>2014-04-09T09:38:53Z</time>
  </trkpt>
  <trkpt lat="33.937381" lon="-5.133971">
   <ele>483.00</ele>
   <time>2014-04-09T09:38:56Z</time>
  </trkpt>
  <trkpt lat="33.937338" lon="-5.135214">
   <ele>484.00</ele>
   <time>2014-04-09T09:39:00Z</time>
  </trkpt>
  <trkpt lat="33.937273" lon="-5.136143">
   <ele>485.00</ele>
   <time>2014-04-09T09:39:03Z</time>
  </trkpt>
  <trkpt lat="33.937145" lon="-5.137377">
   <ele>485.00</ele>
   <time>2014-04-09T09:39:07Z</time>
  </trkpt>
  <trkpt lat="33.936975" lon="-5.138603">
   <ele>486.00</ele>
   <time>2014-04-09T09:39:11Z</time>
  </trkpt>
  <trkpt lat="33.936812" lon="-5.139515">
   <ele>486.00</ele>
   <time>2014-04-09T09:39:14Z</time>
  </trkpt>
  <trkpt lat="33.936554" lon="-5.140723">
   <ele>486.00</ele>
   <time>2014-04-09T09:39:18Z</time>
  </trkpt>
  <trkpt lat="33.936331" lon="-5.141620">
   <ele>486.00</ele>
   <time>2014-04-09T09:39:21Z</time>
  </trkpt>
  <trkpt lat="33.936081" lon="-5.142513">
   <ele>486.00</ele>
   <time>2014-04-09T09:39:24Z</time>
  </trkpt>
  <trkpt lat="33.935801" lon="-5.143398">
   <ele>485.00</ele>
   <time>2014-04-09T09:39:27Z</time>
  </trkpt>
  <trkpt lat="33.935392" lon="-5.144559">
   <ele>484.00</ele>
   <time>2014-04-09T09:39:31Z</time>
  </trkpt>
  <trkpt lat="33.934941" lon="-5.145693">
   <ele>482.00</ele>
   <time>2014-04-09T09:39:35Z</time>
  </trkpt>
  <trkpt lat="33.934446" lon="-5.146802">
   <ele>480.00</ele>
   <time>2014-04-09T09:39:39Z</time>
  </trkpt>
  <trkpt lat="33.932501" lon="-5.150920">
   <ele>475.00</ele>
   <time>2014-04-09T09:39:54Z</time>
  </trkpt>
  <trkpt lat="33.931914" lon="-5.152313">
   <ele>475.00</ele>
   <time>2014-04-09T09:39:59Z</time>
  </trkpt>
  <trkpt lat="33.931163" lon="-5.154304">
   <ele>476.00</ele>
   <time>2014-04-09T09:40:06Z</time>
  </trkpt>
  <trkpt lat="33.930682" lon="-5.155757">
   <ele>477.00</ele>
   <time>2014-04-09T09:40:11Z</time>
  </trkpt>
  <trkpt lat="33.930243" lon="-5.157230">
   <ele>479.00</ele>
   <time>2014-04-09T09:40:16Z</time>
  </trkpt>
  <trkpt lat="33.929932" lon="-5.158414">
   <ele>480.00</ele>
   <time>2014-04-09T09:40:20Z</time>
  </trkpt>
  <trkpt lat="33.929449" lon="-5.160491">
   <ele>481.00</ele>
   <time>2014-04-09T09:40:27Z</time>
  </trkpt>
  <trkpt lat="33.929003" lon="-5.162894">
   <ele>483.00</ele>
   <time>2014-04-09T09:40:35Z</time>
  </trkpt>
  <trkpt lat="33.928612" lon="-5.164969">
   <ele>485.00</ele>
   <time>2014-04-09T09:40:42Z</time>
  </trkpt>
  <trkpt lat="33.928341" lon="-5.166143">
   <ele>486.00</ele>
   <time>2014-04-09T09:40:46Z</time>
  </trkpt>
  <trkpt lat="33.928098" lon="-5.167011">
   <ele>487.00</ele>
   <time>2014-04-09T09:40:49Z</time>
  </trkpt>
  <trkpt lat="33.927912" lon="-5.167578">
   <ele>487.00</ele>
   <time>2014-04-09T09:40:51Z</time>
  </trkpt>
  <trkpt lat="33.927386" lon="-5.168970">
   <ele>489.00</ele>
   <time>2014-04-09T09:40:56Z</time>
  </trkpt>
  <trkpt lat="33.927038" lon="-5.169790">
   <ele>490.00</ele>
   <time>2014-04-09T09:40:59Z</time>
  </trkpt>
  <trkpt lat="33.926418" lon="-5.171128">
   <ele>491.00</ele>
   <time>2014-04-09T09:41:04Z</time>
  </trkpt>
  <trkpt lat="33.926150" lon="-5.171649">
   <ele>492.00</ele>
   <time>2014-04-09T09:41:06Z</time>
  </trkpt>
  <trkpt lat="33.925863" lon="-5.172157">
   <ele>492.00</ele>
   <time>2014-04-09T09:41:08Z</time>
  </trkpt>
  <trkpt lat="33.925406" lon="-5.172902">
   <ele>493.00</ele>
   <time>2014-04-09T09:41:11Z</time>
  </trkpt>
  <trkpt lat="33.924920" lon="-5.173625">
   <ele>494.00</ele>
   <time>2014-04-09T09:41:14Z</time>
  </trkpt>
  <trkpt lat="33.924409" lon="-5.174319">
   <ele>495.00</ele>
   <time>2014-04-09T09:41:17Z</time>
  </trkpt>
  <trkpt lat="33.923874" lon="-5.174994">
   <ele>497.00</ele>
   <time>2014-04-09T09:41:20Z</time>
  </trkpt>
  <trkpt lat="33.923317" lon="-5.175640">
   <ele>498.00</ele>
   <time>2014-04-09T09:41:23Z</time>
  </trkpt>
  <trkpt lat="33.922737" lon="-5.176254">
   <ele>500.00</ele>
   <time>2014-04-09T09:41:26Z</time>
  </trkpt>
  <trkpt lat="33.922134" lon="-5.176838">
   <ele>501.00</ele>
   <time>2014-04-09T09:41:29Z</time>
  </trkpt>
  <trkpt lat="33.921512" lon="-5.177387">
   <ele>502.00</ele>
   <time>2014-04-09T09:41:32Z</time>
  </trkpt>
  <trkpt lat="33.920878" lon="-5.177902">
   <ele>502.00</ele>
   <time>2014-04-09T09:41:35Z</time>
  </trkpt>
  <trkpt lat="33.920228" lon="-5.178383">
   <ele>503.00</ele>
   <time>2014-04-09T09:41:38Z</time>
  </trkpt>
  <trkpt lat="33.916902" lon="-5.180669">
   <ele>509.00</ele>
   <time>2014-04-09T09:41:53Z</time>
  </trkpt>
  <trkpt lat="33.913345" lon="-5.183114">
   <ele>518.00</ele>
   <time>2014-04-09T09:42:09Z</time>
  </trkpt>
  <trkpt lat="33.910005" lon="-5.185425">
   <ele>527.00</ele>
   <time>2014-04-09T09:42:24Z</time>
  </trkpt>
  <trkpt lat="33.908465" lon="-5.186576">
   <ele>531.00</ele>
   <time>2014-04-09T09:42:31Z</time>
  </trkpt>
  <trkpt lat="33.907827" lon="-5.187116">
   <ele>533.00</ele>
   <time>2014-04-09T09:42:34Z</time>
  </trkpt>
  <trkpt lat="33.907207" lon="-5.187687">
   <ele>535.00</ele>
   <time>2014-04-09T09:42:37Z</time>
  </trkpt>
  <trkpt lat="33.906609" lon="-5.188294">
   <ele>536.00</ele>
   <time>2014-04-09T09:42:40Z</time>
  </trkpt>
  <trkpt lat="33.906039" lon="-5.188933">
   <ele>538.00</ele>
   <time>2014-04-09T09:42:43Z</time>
  </trkpt>
  <trkpt lat="33.904946" lon="-5.190253">
   <ele>541.00</ele>
   <time>2014-04-09T09:42:49Z</time>
  </trkpt>
  <trkpt lat="33.904239" lon="-5.191173">
   <ele>543.00</ele>
   <time>2014-04-09T09:42:53Z</time>
  </trkpt>
  <trkpt lat="33.903900" lon="-5.191652">
   <ele>545.00</ele>
   <time>2014-04-09T09:42:55Z</time>
  </trkpt>
  <trkpt lat="33.903417" lon="-5.192390">
   <ele>547.00</ele>
   <time>2014-04-09T09:42:58Z</time>
  </trkpt>
  <trkpt lat="33.902808" lon="-5.193397">
   <ele>549.00</ele>
   <time>2014-04-09T09:43:02Z</time>
  </trkpt>
  <trkpt lat="33.902380" lon="-5.194174">
   <ele>551.00</ele>
   <time>2014-04-09T09:43:05Z</time>
  </trkpt>
  <trkpt lat="33.901849" lon="-5.195241">
   <ele>553.00</ele>
   <time>2014-04-09T09:43:09Z</time>
  </trkpt>
  <trkpt lat="33.901605" lon="-5.195791">
   <ele>554.00</ele>
   <time>2014-04-09T09:43:11Z</time>
  </trkpt>
  <trkpt lat="33.901149" lon="-5.196914">
   <ele>555.00</ele>
   <time>2014-04-09T09:43:15Z</time>
  </trkpt>
  <trkpt lat="33.900613" lon="-5.198352">
   <ele>556.00</ele>
   <time>2014-04-09T09:43:20Z</time>
  </trkpt>
  <trkpt lat="33.900233" lon="-5.199528">
   <ele>557.00</ele>
   <time>2014-04-09T09:43:24Z</time>
  </trkpt>
  <trkpt lat="33.898888" lon="-5.204297">
   <ele>559.00</ele>
   <time>2014-04-09T09:43:40Z</time>
  </trkpt>
  <trkpt lat="33.897625" lon="-5.208811">
   <ele>562.00</ele>
   <time>2014-04-09T09:43:55Z</time>
  </trkpt>
  <trkpt lat="33.896384" lon="-5.213218">
   <ele>572.00</ele>
   <time>2014-04-09T09:44:10Z</time>
  </trkpt>
  <trkpt lat="33.895864" lon="-5.214950">
   <ele>579.00</ele>
   <time>2014-04-09T09:44:16Z</time>
  </trkpt>
  <trkpt lat="33.895560" lon="-5.215788">
   <ele>582.00</ele>
   <time>2014-04-09T09:44:19Z</time>
  </trkpt>
  <trkpt lat="33.895228" lon="-5.216612">
   <ele>586.00</ele>
   <time>2014-04-09T09:44:22Z</time>
  </trkpt>
  <trkpt lat="33.894987" lon="-5.217151">
   <ele>589.00</ele>
   <time>2014-04-09T09:44:24Z</time>
  </trkpt>
  <trkpt lat="33.894599" lon="-5.217944">
   <ele>593.00</ele>
   <time>2014-04-09T09:44:27Z</time>
  </trkpt>
  <trkpt lat="33.894181" lon="-5.218717">
   <ele>597.00</ele>
   <time>2014-04-09T09:44:30Z</time>
  </trkpt>
  <trkpt lat="33.893732" lon="-5.219464">
   <ele>602.00</ele>
   <time>2014-04-09T09:44:33Z</time>
  </trkpt>
  <trkpt lat="33.893250" lon="-5.220186">
   <ele>605.00</ele>
   <time>2014-04-09T09:44:36Z</time>
  </trkpt>
  <trkpt lat="33.892743" lon="-5.220879">
   <ele>610.00</ele>
   <time>2014-04-09T09:44:39Z</time>
  </trkpt>
  <trkpt lat="33.892213" lon="-5.221543">
   <ele>614.00</ele>
   <time>2014-04-09T09:44:42Z</time>
  </trkpt>
  <trkpt lat="33.891660" lon="-5.222181">
   <ele>619.00</ele>
   <time>2014-04-09T09:44:45Z</time>
  </trkpt>
  <trkpt lat="33.889599" lon="-5.224490">
   <ele>635.00</ele>
   <time>2014-04-09T09:44:56Z</time>
  </trkpt>
  <trkpt lat="33.889074" lon="-5.225158">
   <ele>639.00</ele>
   <time>2014-04-09T09:44:59Z</time>
  </trkpt>
  <trkpt lat="33.888574" lon="-5.225854">
   <ele>643.00</ele>
   <time>2014-04-09T09:45:02Z</time>
  </trkpt>
  <trkpt lat="33.887937" lon="-5.226812">
   <ele>648.00</ele>
   <time>2014-04-09T09:45:06Z</time>
  </trkpt>
  <trkpt lat="33.887645" lon="-5.227314">
   <ele>651.00</ele>
   <time>2014-04-09T09:45:08Z</time>
  </trkpt>
  <trkpt lat="33.887372" lon="-5.227831">
   <ele>653.00</ele>
   <time>2014-04-09T09:45:10Z</time>
  </trkpt>
  <trkpt lat="33.887114" lon="-5.228361">
   <ele>655.00</ele>
   <time>2014-04-09T09:45:12Z</time>
  </trkpt>
  <trkpt lat="33.886874" lon="-5.228907">
   <ele>657.00</ele>
   <time>2014-04-09T09:45:14Z</time>
  </trkpt>
  <trkpt lat="33.886541" lon="-5.229749">
   <ele>660.00</ele>
   <time>2014-04-09T09:45:17Z</time>
  </trkpt>
  <trkpt lat="33.886131" lon="-5.230898">
   <ele>664.00</ele>
   <time>2014-04-09T09:45:21Z</time>
  </trkpt>
  <trkpt lat="33.885863" lon="-5.231783">
   <ele>666.00</ele>
   <time>2014-04-09T09:45:24Z</time>
  </trkpt>
  <trkpt lat="33.885630" lon="-5.232686">
   <ele>667.00</ele>
   <time>2014-04-09T09:45:27Z</time>
  </trkpt>
  <trkpt lat="33.885495" lon="-5.233298">
   <ele>668.00</ele>
   <time>2014-04-09T09:45:29Z</time>
  </trkpt>
  <trkpt lat="33.885324" lon="-5.234228">
   <ele>670.00</ele>
   <time>2014-04-09T09:45:32Z</time>
  </trkpt>
  <trkpt lat="33.885230" lon="-5.234852">
   <ele>670.00</ele>
   <time>2014-04-09T09:45:34Z</time>
  </trkpt>
  <trkpt lat="33.885126" lon="-5.235798">
   <ele>671.00</ele>
   <time>2014-04-09T09:45:37Z</time>
  </trkpt>
  <trkpt lat="33.885054" lon="-5.236753">
   <ele>671.00</ele>
   <time>2014-04-09T09:45:40Z</time>
  </trkpt>
  <trkpt lat="33.885018" lon="-5.237712">
   <ele>672.00</ele>
   <time>2014-04-09T09:45:43Z</time>
  </trkpt>
  <trkpt lat="33.884929" lon="-5.242815">
   <ele>673.00</ele>
   <time>2014-04-09T09:45:59Z</time>
  </trkpt>
  <trkpt lat="33.884860" lon="-5.244121">
   <ele>673.00</ele>
   <time>2014-04-09T09:46:03Z</time>
  </trkpt>
  <trkpt lat="33.884715" lon="-5.245747">
   <ele>671.00</ele>
   <time>2014-04-09T09:46:08Z</time>
  </trkpt>
  <trkpt lat="33.884546" lon="-5.247049">
   <ele>670.00</ele>
   <time>2014-04-09T09:46:12Z</time>
  </trkpt>
  <trkpt lat="33.884328" lon="-5.248351">
   <ele>668.00</ele>
   <time>2014-04-09T09:46:16Z</time>
  </trkpt>
  <trkpt lat="33.884073" lon="-5.249622">
   <ele>666.00</ele>
   <time>2014-04-09T09:46:20Z</time>
  </trkpt>
  <trkpt lat="33.883774" lon="-5.250882">
   <ele>665.00</ele>
   <time>2014-04-09T09:46:24Z</time>
  </trkpt>
  <trkpt lat="33.883430" lon="-5.252138">
   <ele>664.00</ele>
   <time>2014-04-09T09:46:28Z</time>
  </trkpt>
  <trkpt lat="33.883042" lon="-5.253375">
   <ele>664.00</ele>
   <time>2014-04-09T09:46:32Z</time>
  </trkpt>
  <trkpt lat="33.882618" lon="-5.254588">
   <ele>665.00</ele>
   <time>2014-04-09T09:46:36Z</time>
  </trkpt>
  <trkpt lat="33.882152" lon="-5.255775">
   <ele>665.00</ele>
   <time>2014-04-09T09:46:40Z</time>
  </trkpt>
  <trkpt lat="33.881646" lon="-5.256938">
   <ele>666.00</ele>
   <time>2014-04-09T09:46:44Z</time>
  </trkpt>
  <trkpt lat="33.881099" lon="-5.258079">
   <ele>667.00</ele>
   <time>2014-04-09T09:46:48Z</time>
  </trkpt>
  <trkpt lat="33.880361" lon="-5.259475">
   <ele>668.00</ele>
   <time>2014-04-09T09:46:53Z</time>
  </trkpt>
  <trkpt lat="33.878004" lon="-5.263553">
   <ele>671.00</ele>
   <time>2014-04-09T09:47:08Z</time>
  </trkpt>
  <trkpt lat="33.877241" lon="-5.264948">
   <ele>672.00</ele>
   <time>2014-04-09T09:47:13Z</time>
  </trkpt>
  <trkpt lat="33.876395" lon="-5.266676">
   <ele>673.00</ele>
   <time>2014-04-09T09:47:19Z</time>
  </trkpt>
  <trkpt lat="33.875875" lon="-5.267843">
   <ele>673.00</ele>
   <time>2014-04-09T09:47:23Z</time>
  </trkpt>
  <trkpt lat="33.874800" lon="-5.270519">
   <ele>673.00</ele>
   <time>2014-04-09T09:47:32Z</time>
  </trkpt>
  <trkpt lat="33.874132" lon="-5.272343">
   <ele>671.00</ele>
   <time>2014-04-09T09:47:38Z</time>
  </trkpt>
  <trkpt lat="33.873621" lon="-5.273901">
   <ele>670.00</ele>
   <time>2014-04-09T09:47:43Z</time>
  </trkpt>
  <trkpt lat="33.872891" lon="-5.276389">
   <ele>670.00</ele>
   <time>2014-04-09T09:47:51Z</time>
  </trkpt>
  <trkpt lat="33.872493" lon="-5.277949">
   <ele>670.00</ele>
   <time>2014-04-09T09:47:56Z</time>
  </trkpt>
  <trkpt lat="33.871997" lon="-5.280163">
   <ele>669.00</ele>
   <time>2014-04-09T09:48:03Z</time>
  </trkpt>
  <trkpt lat="33.871688" lon="-5.281770">
   <ele>669.00</ele>
   <time>2014-04-09T09:48:08Z</time>
  </trkpt>
  <trkpt lat="33.871328" lon="-5.284047">
   <ele>668.00</ele>
   <time>2014-04-09T09:48:15Z</time>
  </trkpt>
  <trkpt lat="33.871123" lon="-5.285687">
   <ele>666.00</ele>
   <time>2014-04-09T09:48:20Z</time>
  </trkpt>
  <trkpt lat="33.870878" lon="-5.288331">
   <ele>664.00</ele>
   <time>2014-04-09T09:48:28Z</time>
  </trkpt>
  <trkpt lat="33.870803" lon="-5.289646">
   <ele>663.00</ele>
   <time>2014-04-09T09:48:32Z</time>
  </trkpt>
  <trkpt lat="33.870727" lon="-5.292248">
   <ele>660.00</ele>
   <time>2014-04-09T09:48:40Z</time>
  </trkpt>
  <trkpt lat="33.870736" lon="-5.294204">
   <ele>658.00</ele>
   <time>2014-04-09T09:48:46Z</time>
  </trkpt>
  <trkpt lat="33.870788" lon="-5.295840">
   <ele>657.00</ele>
   <time>2014-04-09T09:48:51Z</time>
  </trkpt>
  <trkpt lat="33.870957" lon="-5.298784">
   <ele>654.00</ele>
   <time>2014-04-09T09:49:00Z</time>
  </trkpt>
  <trkpt lat="33.871124" lon="-5.300399">
   <ele>653.00</ele>
   <time>2014-04-09T09:49:05Z</time>
  </trkpt>
  <trkpt lat="33.871294" lon="-5.301685">
   <ele>652.00</ele>
   <time>2014-04-09T09:49:09Z</time>
  </trkpt>
  <trkpt lat="33.872005" lon="-5.305816">
   <ele>650.00</ele>
   <time>2014-04-09T09:49:22Z</time>
  </trkpt>
  <trkpt lat="33.872380" lon="-5.308025">
   <ele>648.00</ele>
   <time>2014-04-09T09:49:29Z</time>
  </trkpt>
  <trkpt lat="33.872496" lon="-5.308984">
   <ele>647.00</ele>
   <time>2014-04-09T09:49:32Z</time>
  </trkpt>
  <trkpt lat="33.872576" lon="-5.309954">
   <ele>646.00</ele>
   <time>2014-04-09T09:49:35Z</time>
  </trkpt>
  <trkpt lat="33.872620" lon="-5.310931">
   <ele>645.00</ele>
   <time>2014-04-09T09:49:38Z</time>
  </trkpt>
  <trkpt lat="33.872629" lon="-5.311907">
   <ele>644.00</ele>
   <time>2014-04-09T09:49:41Z</time>
  </trkpt>
  <trkpt lat="33.872597" lon="-5.312886">
   <ele>643.00</ele>
   <time>2014-04-09T09:49:44Z</time>
  </trkpt>
  <trkpt lat="33.872528" lon="-5.313861">
   <ele>642.00</ele>
   <time>2014-04-09T09:49:47Z</time>
  </trkpt>
  <trkpt lat="33.872427" lon="-5.314832">
   <ele>641.00</ele>
   <time>2014-04-09T09:49:50Z</time>
  </trkpt>
  <trkpt lat="33.872337" lon="-5.315476">
   <ele>641.00</ele>
   <time>2014-04-09T09:49:52Z</time>
  </trkpt>
  <trkpt lat="33.872170" lon="-5.316443">
   <ele>641.00</ele>
   <time>2014-04-09T09:49:55Z</time>
  </trkpt>
  <trkpt lat="33.871962" lon="-5.317401">
   <ele>640.00</ele>
   <time>2014-04-09T09:49:58Z</time>
  </trkpt>
  <trkpt lat="33.871720" lon="-5.318344">
   <ele>640.00</ele>
   <time>2014-04-09T09:50:01Z</time>
  </trkpt>
  <trkpt lat="33.871444" lon="-5.319277">
   <ele>639.00</ele>
   <time>2014-04-09T09:50:04Z</time>
  </trkpt>
  <trkpt lat="33.871131" lon="-5.320194">
   <ele>639.00</ele>
   <time>2014-04-09T09:50:07Z</time>
  </trkpt>
  <trkpt lat="33.870787" lon="-5.321092">
   <ele>638.00</ele>
   <time>2014-04-09T09:50:10Z</time>
  </trkpt>
  <trkpt lat="33.870409" lon="-5.321969">
   <ele>638.00</ele>
   <time>2014-04-09T09:50:13Z</time>
  </trkpt>
  <trkpt lat="33.869999" lon="-5.322825">
   <ele>638.00</ele>
   <time>2014-04-09T09:50:16Z</time>
  </trkpt>
  <trkpt lat="33.869557" lon="-5.323661">
   <ele>639.00</ele>
   <time>2014-04-09T09:50:19Z</time>
  </trkpt>
  <trkpt lat="33.867217" lon="-5.327683">
   <ele>642.00</ele>
   <time>2014-04-09T09:50:34Z</time>
  </trkpt>
  <trkpt lat="33.864715" lon="-5.331942">
   <ele>651.00</ele>
   <time>2014-04-09T09:50:50Z</time>
  </trkpt>
  <trkpt lat="33.862364" lon="-5.335985">
   <ele>655.00</ele>
   <time>2014-04-09T09:51:05Z</time>
  </trkpt>
  <trkpt lat="33.859980" lon="-5.340058">
   <ele>654.00</ele>
   <time>2014-04-09T09:51:20Z</time>
  </trkpt>
  <trkpt lat="33.857450" lon="-5.344410">
   <ele>651.00</ele>
   <time>2014-04-09T09:51:36Z</time>
  </trkpt>
  <trkpt lat="33.855078" lon="-5.348471">
   <ele>648.00</ele>
   <time>2014-04-09T09:51:51Z</time>
  </trkpt>
  <trkpt lat="33.854180" lon="-5.350124">
   <ele>649.00</ele>
   <time>2014-04-09T09:51:57Z</time>
  </trkpt>
  <trkpt lat="33.853766" lon="-5.350969">
   <ele>649.00</ele>
   <time>2014-04-09T09:52:00Z</time>
  </trkpt>
  <trkpt lat="33.853377" lon="-5.351828">
   <ele>649.00</ele>
   <time>2014-04-09T09:52:03Z</time>
  </trkpt>
  <trkpt lat="33.853023" lon="-5.352707">
   <ele>649.00</ele>
   <time>2014-04-09T09:52:06Z</time>
  </trkpt>
  <trkpt lat="33.852591" lon="-5.353908">
   <ele>651.00</ele>
   <time>2014-04-09T09:52:10Z</time>
  </trkpt>
  <trkpt lat="33.852198" lon="-5.355133">
   <ele>652.00</ele>
   <time>2014-04-09T09:52:14Z</time>
  </trkpt>
  <trkpt lat="33.851939" lon="-5.356069">
   <ele>653.00</ele>
   <time>2014-04-09T09:52:17Z</time>
  </trkpt>
  <trkpt lat="33.851711" lon="-5.357015">
   <ele>654.00</ele>
   <time>2014-04-09T09:52:20Z</time>
  </trkpt>
  <trkpt lat="33.851448" lon="-5.358286">
   <ele>656.00</ele>
   <time>2014-04-09T09:52:24Z</time>
  </trkpt>
  <trkpt lat="33.851287" lon="-5.359247">
   <ele>657.00</ele>
   <time>2014-04-09T09:52:27Z</time>
  </trkpt>
  <trkpt lat="33.851160" lon="-5.360216">
   <ele>658.00</ele>
   <time>2014-04-09T09:52:30Z</time>
  </trkpt>
  <trkpt lat="33.850913" lon="-5.362796">
   <ele>661.00</ele>
   <time>2014-04-09T09:52:38Z</time>
  </trkpt>
  <trkpt lat="33.850589" lon="-5.366032">
   <ele>662.00</ele>
   <time>2014-04-09T09:52:48Z</time>
  </trkpt>
  <trkpt lat="33.850266" lon="-5.368314">
   <ele>661.00</ele>
   <time>2014-04-09T09:52:55Z</time>
  </trkpt>
  <trkpt lat="33.849926" lon="-5.370251">
   <ele>661.00</ele>
   <time>2014-04-09T09:53:01Z</time>
  </trkpt>
  <trkpt lat="33.848909" lon="-5.375039">
   <ele>659.00</ele>
   <time>2014-04-09T09:53:16Z</time>
  </trkpt>
  <trkpt lat="33.848669" lon="-5.376329">
   <ele>659.00</ele>
   <time>2014-04-09T09:53:20Z</time>
  </trkpt>
  <trkpt lat="33.848525" lon="-5.377302">
   <ele>659.00</ele>
   <time>2014-04-09T09:53:23Z</time>
  </trkpt>
  <trkpt lat="33.848411" lon="-5.378279">
   <ele>659.00</ele>
   <time>2014-04-09T09:53:26Z</time>
  </trkpt>
  <trkpt lat="33.848305" lon="-5.379584">
   <ele>659.00</ele>
   <time>2014-04-09T09:53:30Z</time>
  </trkpt>
  <trkpt lat="33.848262" lon="-5.380568">
   <ele>659.00</ele>
   <time>2014-04-09T09:53:33Z</time>
  </trkpt>
  <trkpt lat="33.848252" lon="-5.381553">
   <ele>659.00</ele>
   <time>2014-04-09T09:53:36Z</time>
  </trkpt>
  <trkpt lat="33.848281" lon="-5.382865">
   <ele>658.00</ele>
   <time>2014-04-09T09:53:40Z</time>
  </trkpt>
  <trkpt lat="33.848339" lon="-5.383846">
   <ele>658.00</ele>
   <time>2014-04-09T09:53:43Z</time>
  </trkpt>
  <trkpt lat="33.848425" lon="-5.384820">
   <ele>658.00</ele>
   <time>2014-04-09T09:53:46Z</time>
  </trkpt>
  <trkpt lat="33.848584" lon="-5.386107">
   <ele>658.00</ele>
   <time>2014-04-09T09:53:50Z</time>
  </trkpt>
  <trkpt lat="33.848742" lon="-5.387066">
   <ele>657.00</ele>
   <time>2014-04-09T09:53:53Z</time>
  </trkpt>
  <trkpt lat="33.848999" lon="-5.388339">
   <ele>656.00</ele>
   <time>2014-04-09T09:53:57Z</time>
  </trkpt>
  <trkpt lat="33.849306" lon="-5.389609">
   <ele>655.00</ele>
   <time>2014-04-09T09:54:01Z</time>
  </trkpt>
  <trkpt lat="33.849573" lon="-5.390557">
   <ele>654.00</ele>
   <time>2014-04-09T09:54:04Z</time>
  </trkpt>
  <trkpt lat="33.849971" lon="-5.391794">
   <ele>652.00</ele>
   <time>2014-04-09T09:54:08Z</time>
  </trkpt>
  <trkpt lat="33.851103" lon="-5.395152">
   <ele>647.00</ele>
   <time>2014-04-09T09:54:19Z</time>
  </trkpt>
  <trkpt lat="33.851278" lon="-5.395779">
   <ele>646.00</ele>
   <time>2014-04-09T09:54:21Z</time>
  </trkpt>
  <trkpt lat="33.851506" lon="-5.396731">
   <ele>644.00</ele>
   <time>2014-04-09T09:54:24Z</time>
  </trkpt>
  <trkpt lat="33.851699" lon="-5.397697">
   <ele>642.00</ele>
   <time>2014-04-09T09:54:27Z</time>
  </trkpt>
  <trkpt lat="33.851802" lon="-5.398346">
   <ele>641.00</ele>
   <time>2014-04-09T09:54:29Z</time>
  </trkpt>
  <trkpt lat="33.851921" lon="-5.399325">
   <ele>639.00</ele>
   <time>2014-04-09T09:54:32Z</time>
  </trkpt>
  <trkpt lat="33.852000" lon="-5.400303">
   <ele>638.00</ele>
   <time>2014-04-09T09:54:35Z</time>
  </trkpt>
  <trkpt lat="33.852026" lon="-5.400954">
   <ele>638.00</ele>
   <time>2014-04-09T09:54:37Z</time>
  </trkpt>
  <trkpt lat="33.852031" lon="-5.401925">
   <ele>638.00</ele>
   <time>2014-04-09T09:54:40Z</time>
  </trkpt>
  <trkpt lat="33.852003" lon="-5.402895">
   <ele>638.00</ele>
   <time>2014-04-09T09:54:43Z</time>
  </trkpt>
  <trkpt lat="33.851959" lon="-5.403538">
   <ele>638.00</ele>
   <time>2014-04-09T09:54:45Z</time>
  </trkpt>
  <trkpt lat="33.851854" lon="-5.404499">
   <ele>638.00</ele>
   <time>2014-04-09T09:54:48Z</time>
  </trkpt>
  <trkpt lat="33.851711" lon="-5.405454">
   <ele>638.00</ele>
   <time>2014-04-09T09:54:51Z</time>
  </trkpt>
  <trkpt lat="33.851537" lon="-5.406406">
   <ele>638.00</ele>
   <time>2014-04-09T09:54:54Z</time>
  </trkpt>
  <trkpt lat="33.850652" lon="-5.410882">
   <ele>633.00</ele>
   <time>2014-04-09T09:55:08Z</time>
  </trkpt>
  <trkpt lat="33.850373" lon="-5.412826">
   <ele>629.00</ele>
   <time>2014-04-09T09:55:14Z</time>
  </trkpt>
  <trkpt lat="33.850197" lon="-5.414451">
   <ele>627.00</ele>
   <time>2014-04-09T09:55:19Z</time>
  </trkpt>
  <trkpt lat="33.850074" lon="-5.416078">
   <ele>624.00</ele>
   <time>2014-04-09T09:55:24Z</time>
  </trkpt>
  <trkpt lat="33.849996" lon="-5.418044">
   <ele>621.00</ele>
   <time>2014-04-09T09:55:30Z</time>
  </trkpt>
  <trkpt lat="33.849986" lon="-5.419361">
   <ele>620.00</ele>
   <time>2014-04-09T09:55:34Z</time>
  </trkpt>
  <trkpt lat="33.850024" lon="-5.421004">
   <ele>619.00</ele>
   <time>2014-04-09T09:55:39Z</time>
  </trkpt>
  <trkpt lat="33.850139" lon="-5.422959">
   <ele>618.00</ele>
   <time>2014-04-09T09:55:45Z</time>
  </trkpt>
  <trkpt lat="33.850282" lon="-5.424570">
   <ele>618.00</ele>
   <time>2014-04-09T09:55:50Z</time>
  </trkpt>
  <trkpt lat="33.850838" lon="-5.429385">
   <ele>618.00</ele>
   <time>2014-04-09T09:56:05Z</time>
  </trkpt>
  <trkpt lat="33.850919" lon="-5.430682">
   <ele>619.00</ele>
   <time>2014-04-09T09:56:09Z</time>
  </trkpt>
  <trkpt lat="33.850963" lon="-5.431983">
   <ele>619.00</ele>
   <time>2014-04-09T09:56:13Z</time>
  </trkpt>
  <trkpt lat="33.850958" lon="-5.433291">
   <ele>619.00</ele>
   <time>2014-04-09T09:56:17Z</time>
  </trkpt>
  <trkpt lat="33.850909" lon="-5.434601">
   <ele>619.00</ele>
   <time>2014-04-09T09:56:21Z</time>
  </trkpt>
  <trkpt lat="33.850815" lon="-5.435909">
   <ele>619.00</ele>
   <time>2014-04-09T09:56:25Z</time>
  </trkpt>
  <trkpt lat="33.850636" lon="-5.437530">
   <ele>619.00</ele>
   <time>2014-04-09T09:56:30Z</time>
  </trkpt>
  <trkpt lat="33.850439" lon="-5.438825">
   <ele>619.00</ele>
   <time>2014-04-09T09:56:34Z</time>
  </trkpt>
  <trkpt lat="33.850135" lon="-5.440431">
   <ele>618.00</ele>
   <time>2014-04-09T09:56:39Z</time>
  </trkpt>
  <trkpt lat="33.849920" lon="-5.441386">
   <ele>617.00</ele>
   <time>2014-04-09T09:56:42Z</time>
  </trkpt>
  <trkpt lat="33.849596" lon="-5.442647">
   <ele>616.00</ele>
   <time>2014-04-09T09:56:46Z</time>
  </trkpt>
  <trkpt lat="33.849227" lon="-5.443897">
   <ele>615.00</ele>
   <time>2014-04-09T09:56:50Z</time>
  </trkpt>
  <trkpt lat="33.848815" lon="-5.445129">
   <ele>614.00</ele>
   <time>2014-04-09T09:56:54Z</time>
  </trkpt>
  <trkpt lat="33.848362" lon="-5.446342">
   <ele>614.00</ele>
   <time>2014-04-09T09:56:58Z</time>
  </trkpt>
  <trkpt lat="33.847869" lon="-5.447529">
   <ele>613.00</ele>
   <time>2014-04-09T09:57:02Z</time>
  </trkpt>
  <trkpt lat="33.847337" lon="-5.448676">
   <ele>613.00</ele>
   <time>2014-04-09T09:57:06Z</time>
  </trkpt>
  <trkpt lat="33.846636" lon="-5.450070">
   <ele>615.00</ele>
   <time>2014-04-09T09:57:11Z</time>
  </trkpt>
  <trkpt lat="33.846033" lon="-5.451148">
   <ele>618.00</ele>
   <time>2014-04-09T09:57:15Z</time>
  </trkpt>
  <trkpt lat="33.845389" lon="-5.452184">
   <ele>621.00</ele>
   <time>2014-04-09T09:57:19Z</time>
  </trkpt>
  <trkpt lat="33.844553" lon="-5.453440">
   <ele>624.00</ele>
   <time>2014-04-09T09:57:24Z</time>
  </trkpt>
  <trkpt lat="33.843847" lon="-5.454407">
   <ele>626.00</ele>
   <time>2014-04-09T09:57:28Z</time>
  </trkpt>
  <trkpt lat="33.843111" lon="-5.455337">
   <ele>629.00</ele>
   <time>2014-04-09T09:57:32Z</time>
  </trkpt>
  <trkpt lat="33.842345" lon="-5.456231">
   <ele>631.00</ele>
   <time>2014-04-09T09:57:36Z</time>
  </trkpt>
  <trkpt lat="33.841549" lon="-5.457087">
   <ele>634.00</ele>
   <time>2014-04-09T09:57:40Z</time>
  </trkpt>
  <trkpt lat="33.838679" lon="-5.460034">
   <ele>637.00</ele>
   <time>2014-04-09T09:57:54Z</time>
  </trkpt>
  <trkpt lat="33.838106" lon="-5.460728">
   <ele>637.00</ele>
   <time>2014-04-09T09:57:57Z</time>
  </trkpt>
  <trkpt lat="33.837565" lon="-5.461452">
   <ele>636.00</ele>
   <time>2014-04-09T09:58:00Z</time>
  </trkpt>
  <trkpt lat="33.837048" lon="-5.462205">
   <ele>635.00</ele>
   <time>2014-04-09T09:58:03Z</time>
  </trkpt>
  <trkpt lat="33.836561" lon="-5.462990">
   <ele>634.00</ele>
   <time>2014-04-09T09:58:06Z</time>
  </trkpt>
  <trkpt lat="33.836098" lon="-5.463807">
   <ele>632.00</ele>
   <time>2014-04-09T09:58:09Z</time>
  </trkpt>
  <trkpt lat="33.835523" lon="-5.464936">
   <ele>631.00</ele>
   <time>2014-04-09T09:58:13Z</time>
  </trkpt>
  <trkpt lat="33.835261" lon="-5.465518">
   <ele>630.00</ele>
   <time>2014-04-09T09:58:15Z</time>
  </trkpt>
  <trkpt lat="33.834898" lon="-5.466410">
   <ele>630.00</ele>
   <time>2014-04-09T09:58:18Z</time>
  </trkpt>
  <trkpt lat="33.834565" lon="-5.467312">
   <ele>629.00</ele>
   <time>2014-04-09T09:58:21Z</time>
  </trkpt>
  <trkpt lat="33.834366" lon="-5.467917">
   <ele>628.00</ele>
   <time>2014-04-09T09:58:23Z</time>
  </trkpt>
  <trkpt lat="33.834098" lon="-5.468837">
   <ele>627.00</ele>
   <time>2014-04-09T09:58:26Z</time>
  </trkpt>
  <trkpt lat="33.833863" lon="-5.469775">
   <ele>628.00</ele>
   <time>2014-04-09T09:58:29Z</time>
  </trkpt>
  <trkpt lat="33.833665" lon="-5.470727">
   <ele>629.00</ele>
   <time>2014-04-09T09:58:32Z</time>
  </trkpt>
  <trkpt lat="33.833558" lon="-5.471360">
   <ele>628.00</ele>
   <time>2014-04-09T09:58:34Z</time>
  </trkpt>
  <trkpt lat="33.833425" lon="-5.472333">
   <ele>630.00</ele>
   <time>2014-04-09T09:58:37Z</time>
  </trkpt>
  <trkpt lat="33.833328" lon="-5.473308">
   <ele>631.00</ele>
   <time>2014-04-09T09:58:40Z</time>
  </trkpt>
  <trkpt lat="33.833284" lon="-5.473952">
   <ele>631.00</ele>
   <time>2014-04-09T09:58:42Z</time>
  </trkpt>
  <trkpt lat="33.833066" lon="-5.479068">
   <ele>634.00</ele>
   <time>2014-04-09T09:58:58Z</time>
  </trkpt>
  <trkpt lat="33.832934" lon="-5.480344">
   <ele>635.00</ele>
   <time>2014-04-09T09:59:02Z</time>
  </trkpt>
  <trkpt lat="33.832752" lon="-5.481615">
   <ele>635.00</ele>
   <time>2014-04-09T09:59:06Z</time>
  </trkpt>
  <trkpt lat="33.832578" lon="-5.482562">
   <ele>636.00</ele>
   <time>2014-04-09T09:59:09Z</time>
  </trkpt>
  <trkpt lat="33.832307" lon="-5.483813">
   <ele>637.00</ele>
   <time>2014-04-09T09:59:13Z</time>
  </trkpt>
  <trkpt lat="33.831984" lon="-5.485051">
   <ele>638.00</ele>
   <time>2014-04-09T09:59:17Z</time>
  </trkpt>
  <trkpt lat="33.831703" lon="-5.485964">
   <ele>639.00</ele>
   <time>2014-04-09T09:59:20Z</time>
  </trkpt>
  <trkpt lat="33.831493" lon="-5.486564">
   <ele>639.00</ele>
   <time>2014-04-09T09:59:22Z</time>
  </trkpt>
  <trkpt lat="33.829574" lon="-5.491585">
   <ele>643.00</ele>
   <time>2014-04-09T09:59:39Z</time>
  </trkpt>
  <trkpt lat="33.829277" lon="-5.492487">
   <ele>644.00</ele>
   <time>2014-04-09T09:59:42Z</time>
  </trkpt>
  <trkpt lat="33.829017" lon="-5.493407">
   <ele>644.00</ele>
   <time>2014-04-09T09:59:45Z</time>
  </trkpt>
  <trkpt lat="33.828786" lon="-5.494342">
   <ele>645.00</ele>
   <time>2014-04-09T09:59:48Z</time>
  </trkpt>
  <trkpt lat="33.828588" lon="-5.495287">
   <ele>645.00</ele>
   <time>2014-04-09T09:59:51Z</time>
  </trkpt>
  <trkpt lat="33.828477" lon="-5.495923">
   <ele>646.00</ele>
   <time>2014-04-09T09:59:53Z</time>
  </trkpt>
  <trkpt lat="33.828386" lon="-5.496561">
   <ele>646.00</ele>
   <time>2014-04-09T09:59:55Z</time>
  </trkpt>
  <trkpt lat="33.828283" lon="-5.497513">
   <ele>646.00</ele>
   <time>2014-04-09T09:59:58Z</time>
  </trkpt>
  <trkpt lat="33.828194" lon="-5.498780">
   <ele>645.00</ele>
   <time>2014-04-09T10:00:02Z</time>
  </trkpt>
  <trkpt lat="33.828173" lon="-5.499419">
   <ele>644.00</ele>
   <time>2014-04-09T10:00:04Z</time>
  </trkpt>
  <trkpt lat="33.828177" lon="-5.500392">
   <ele>643.00</ele>
   <time>2014-04-09T10:00:07Z</time>
  </trkpt>
  <trkpt lat="33.828216" lon="-5.501374">
   <ele>641.00</ele>
   <time>2014-04-09T10:00:10Z</time>
  </trkpt>
  <trkpt lat="33.828264" lon="-5.502025">
   <ele>641.00</ele>
   <time>2014-04-09T10:00:12Z</time>
  </trkpt>
  <trkpt lat="33.828365" lon="-5.502985">
   <ele>639.00</ele>
   <time>2014-04-09T10:00:15Z</time>
  </trkpt>
  <trkpt lat="33.828451" lon="-5.503619">
   <ele>638.00</ele>
   <time>2014-04-09T10:00:17Z</time>
  </trkpt>
  <trkpt lat="33.828610" lon="-5.504556">
   <ele>637.00</ele>
   <time>2014-04-09T10:00:20Z</time>
  </trkpt>
  <trkpt lat="33.828799" lon="-5.505469">
   <ele>636.00</ele>
   <time>2014-04-09T10:00:23Z</time>
  </trkpt>
  <trkpt lat="33.829023" lon="-5.506372">
   <ele>636.00</ele>
   <time>2014-04-09T10:00:26Z</time>
  </trkpt>
  <trkpt lat="33.830159" lon="-5.510700">
   <ele>638.00</ele>
   <time>2014-04-09T10:00:41Z</time>
  </trkpt>
  <trkpt lat="33.830289" lon="-5.511282">
   <ele>638.00</ele>
   <time>2014-04-09T10:00:43Z</time>
  </trkpt>
  <trkpt lat="33.830394" lon="-5.511879">
   <ele>639.00</ele>
   <time>2014-04-09T10:00:45Z</time>
  </trkpt>
  <trkpt lat="33.830564" lon="-5.513098">
   <ele>639.00</ele>
   <time>2014-04-09T10:00:49Z</time>
  </trkpt>
  <trkpt lat="33.830720" lon="-5.514651">
   <ele>640.00</ele>
   <time>2014-04-09T10:00:54Z</time>
  </trkpt>
  <trkpt lat="33.830758" lon="-5.515276">
   <ele>640.00</ele>
   <time>2014-04-09T10:00:56Z</time>
  </trkpt>
  <trkpt lat="33.830783" lon="-5.516222">
   <ele>642.00</ele>
   <time>2014-04-09T10:00:59Z</time>
  </trkpt>
  <trkpt lat="33.830767" lon="-5.517181">
   <ele>642.00</ele>
   <time>2014-04-09T10:01:02Z</time>
  </trkpt>
  <trkpt lat="33.830735" lon="-5.517823">
   <ele>642.00</ele>
   <time>2014-04-09T10:01:04Z</time>
  </trkpt>
  <trkpt lat="33.830646" lon="-5.518788">
   <ele>642.00</ele>
   <time>2014-04-09T10:01:07Z</time>
  </trkpt>
  <trkpt lat="33.830528" lon="-5.519755">
   <ele>642.00</ele>
   <time>2014-04-09T10:01:10Z</time>
  </trkpt>
  <trkpt lat="33.830374" lon="-5.520717">
   <ele>642.00</ele>
   <time>2014-04-09T10:01:13Z</time>
  </trkpt>
  <trkpt lat="33.830183" lon="-5.521680">
   <ele>642.00</ele>
   <time>2014-04-09T10:01:16Z</time>
  </trkpt>
  <trkpt lat="33.829724" lon="-5.523567">
   <ele>643.00</ele>
   <time>2014-04-09T10:01:22Z</time>
  </trkpt>
  <trkpt lat="33.829270" lon="-5.525390">
   <ele>644.00</ele>
   <time>2014-04-09T10:01:28Z</time>
  </trkpt>
  <trkpt lat="33.829098" lon="-5.526260">
   <ele>645.00</ele>
   <time>2014-04-09T10:01:31Z</time>
  </trkpt>
  <trkpt lat="33.828965" lon="-5.527090">
   <ele>645.00</ele>
   <time>2014-04-09T10:01:34Z</time>
  </trkpt>
  <trkpt lat="33.828858" lon="-5.527942">
   <ele>646.00</ele>
   <time>2014-04-09T10:01:37Z</time>
  </trkpt>
  <trkpt lat="33.828806" lon="-5.528539">
   <ele>646.00</ele>
   <time>2014-04-09T10:01:39Z</time>
  </trkpt>
  <trkpt lat="33.828764" lon="-5.529471">
   <ele>645.00</ele>
   <time>2014-04-09T10:01:42Z</time>
  </trkpt>
  <trkpt lat="33.828751" lon="-5.531064">
   <ele>644.00</ele>
   <time>2014-04-09T10:01:47Z</time>
  </trkpt>
  <trkpt lat="33.828785" lon="-5.532031">
   <ele>642.00</ele>
   <time>2014-04-09T10:01:50Z</time>
  </trkpt>
  <trkpt lat="33.828858" lon="-5.533007">
   <ele>640.00</ele>
   <time>2014-04-09T10:01:53Z</time>
  </trkpt>
  <trkpt lat="33.828972" lon="-5.533991">
   <ele>639.00</ele>
   <time>2014-04-09T10:01:56Z</time>
  </trkpt>
  <trkpt lat="33.829169" lon="-5.535285">
   <ele>637.00</ele>
   <time>2014-04-09T10:02:00Z</time>
  </trkpt>
  <trkpt lat="33.830062" lon="-5.540125">
   <ele>628.00</ele>
   <time>2014-04-09T10:02:15Z</time>
  </trkpt>
  <trkpt lat="33.830450" lon="-5.542368">
   <ele>622.00</ele>
   <time>2014-04-09T10:02:22Z</time>
  </trkpt>
  <trkpt lat="33.830616" lon="-5.543666">
   <ele>619.00</ele>
   <time>2014-04-09T10:02:26Z</time>
  </trkpt>
  <trkpt lat="33.830734" lon="-5.544973">
   <ele>616.00</ele>
   <time>2014-04-09T10:02:30Z</time>
  </trkpt>
  <trkpt lat="33.830809" lon="-5.546287">
   <ele>614.00</ele>
   <time>2014-04-09T10:02:34Z</time>
  </trkpt>
  <trkpt lat="33.830843" lon="-5.547598">
   <ele>613.00</ele>
   <time>2014-04-09T10:02:38Z</time>
  </trkpt>
  <trkpt lat="33.830824" lon="-5.552679">
   <ele>610.00</ele>
   <time>2014-04-09T10:02:54Z</time>
  </trkpt>
  <trkpt lat="33.830851" lon="-5.554944">
   <ele>609.00</ele>
   <time>2014-04-09T10:03:01Z</time>
  </trkpt>
  <trkpt lat="33.830996" lon="-5.557569">
   <ele>607.00</ele>
   <time>2014-04-09T10:03:09Z</time>
  </trkpt>
  <trkpt lat="33.831154" lon="-5.559473">
   <ele>607.00</ele>
   <time>2014-04-09T10:03:15Z</time>
  </trkpt>
  <trkpt lat="33.831539" lon="-5.562508">
   <ele>605.00</ele>
   <time>2014-04-09T10:03:27Z</time>
  </trkpt>
  <trkpt lat="33.831885" lon="-5.564767">
   <ele>604.00</ele>
   <time>2014-04-09T10:03:37Z</time>
  </trkpt>
  <trkpt lat="33.832018" lon="-5.565388">
   <ele>604.00</ele>
   <time>2014-04-09T10:03:40Z</time>
  </trkpt>
  <trkpt lat="33.832122" lon="-5.565770">
   <ele>604.00</ele>
   <time>2014-04-09T10:03:42Z</time>
  </trkpt>
  <trkpt lat="33.832237" lon="-5.566118">
   <ele>605.00</ele>
   <time>2014-04-09T10:03:44Z</time>
  </trkpt>
  <trkpt lat="33.832642" lon="-5.567242">
   <ele>609.00</ele>
   <time>2014-04-09T10:03:54Z</time>
  </trkpt>
  <trkpt lat="33.832767" lon="-5.567445">
   <ele>609.00</ele>
   <time>2014-04-09T10:03:58Z</time>
  </trkpt>
  <trkpt lat="33.832933" lon="-5.567613">
   <ele>610.00</ele>
   <time>2014-04-09T10:04:02Z</time>
  </trkpt>
  <trkpt lat="33.833066" lon="-5.567809">
   <ele>610.00</ele>
   <time>2014-04-09T10:04:06Z</time>
  </trkpt>
  <trkpt lat="33.833171" lon="-5.568024">
   <ele>609.00</ele>
   <time>2014-04-09T10:04:10Z</time>
  </trkpt>
  <trkpt lat="33.833215" lon="-5.568291">
   <ele>608.00</ele>
   <time>2014-04-09T10:04:15Z</time>
  </trkpt>
  <trkpt lat="33.833243" lon="-5.568521">
   <ele>606.00</ele>
   <time>2014-04-09T10:04:19Z</time>
  </trkpt>
  <trkpt lat="33.833229" lon="-5.568738">
   <ele>605.00</ele>
   <time>2014-04-09T10:04:23Z</time>
  </trkpt>
  <trkpt lat="33.833120" lon="-5.569062">
   <ele>605.00</ele>
   <time>2014-04-09T10:04:31Z</time>
  </trkpt>
  <trkpt lat="33.833116" lon="-5.569057">
   <ele>607.00</ele>
   <time>2014-04-09T10:04:47Z</time>
  </trkpt>
  <trkpt lat="33.833114" lon="-5.569054">
   <ele>608.00</ele>
   <time>2014-04-09T10:05:02Z</time>
  </trkpt>
  <trkpt lat="33.833107" lon="-5.569283">
   <ele>608.00</ele>
   <time>2014-04-09T10:05:17Z</time>
  </trkpt>
  <trkpt lat="33.833146" lon="-5.569581">
   <ele>608.00</ele>
   <time>2014-04-09T10:05:24Z</time>
  </trkpt>
  <trkpt lat="33.833126" lon="-5.569832">
   <ele>607.00</ele>
   <time>2014-04-09T10:05:30Z</time>
  </trkpt>
  <trkpt lat="33.833007" lon="-5.570048">
   <ele>607.00</ele>
   <time>2014-04-09T10:05:34Z</time>
  </trkpt>
  <trkpt lat="33.832881" lon="-5.570284">
   <ele>608.00</ele>
   <time>2014-04-09T10:05:38Z</time>
  </trkpt>
  <trkpt lat="33.832883" lon="-5.570558">
   <ele>607.00</ele>
   <time>2014-04-09T10:05:41Z</time>
  </trkpt>
  <trkpt lat="33.832992" lon="-5.571458">
   <ele>606.00</ele>
   <time>2014-04-09T10:05:48Z</time>
  </trkpt>
  <trkpt lat="33.833010" lon="-5.571802">
   <ele>605.00</ele>
   <time>2014-04-09T10:05:50Z</time>
  </trkpt>
  <trkpt lat="33.833010" lon="-5.572165">
   <ele>603.00</ele>
   <time>2014-04-09T10:05:52Z</time>
  </trkpt>
  <trkpt lat="33.832989" lon="-5.573191">
   <ele>600.00</ele>
   <time>2014-04-09T10:05:57Z</time>
  </trkpt>
  <trkpt lat="33.832998" lon="-5.573414">
   <ele>600.00</ele>
   <time>2014-04-09T10:05:58Z</time>
  </trkpt>
  <trkpt lat="33.833014" lon="-5.573640">
   <ele>599.00</ele>
   <time>2014-04-09T10:05:59Z</time>
  </trkpt>
  <trkpt lat="33.833091" lon="-5.574377">
   <ele>598.00</ele>
   <time>2014-04-09T10:06:02Z</time>
  </trkpt>
 </trkseg>
 <trkseg>
  <trkpt lat="33.833514" lon="-5.577823">
   <ele>595.00</ele>
   <time>2014-04-09T10:06:14Z</time>
  </trkpt>
  <trkpt lat="33.833778" lon="-5.579736">
   <ele>592.00</ele>
   <time>2014-04-09T10:06:20Z</time>
  </trkpt>
  <trkpt lat="33.834006" lon="-5.581052">
   <ele>590.00</ele>
   <time>2014-04-09T10:06:24Z</time>
  </trkpt>
  <trkpt lat="33.834351" lon="-5.582704">
   <ele>587.00</ele>
   <time>2014-04-09T10:06:29Z</time>
  </trkpt>
  <trkpt lat="33.834754" lon="-5.584338">
   <ele>584.00</ele>
   <time>2014-04-09T10:06:34Z</time>
  </trkpt>
  <trkpt lat="33.835195" lon="-5.585934">
   <ele>581.00</ele>
   <time>2014-04-09T10:06:39Z</time>
  </trkpt>
  <trkpt lat="33.835604" lon="-5.587194">
   <ele>579.00</ele>
   <time>2014-04-09T10:06:43Z</time>
  </trkpt>
  <trkpt lat="33.835955" lon="-5.588125">
   <ele>579.00</ele>
   <time>2014-04-09T10:06:46Z</time>
  </trkpt>
  <trkpt lat="33.836723" lon="-5.589966">
   <ele>577.00</ele>
   <time>2014-04-09T10:06:52Z</time>
  </trkpt>
  <trkpt lat="33.837413" lon="-5.591467">
   <ele>575.00</ele>
   <time>2014-04-09T10:06:57Z</time>
  </trkpt>
  <trkpt lat="33.838004" lon="-5.592638">
   <ele>573.00</ele>
   <time>2014-04-09T10:07:01Z</time>
  </trkpt>
  <trkpt lat="33.838783" lon="-5.594056">
   <ele>571.00</ele>
   <time>2014-04-09T10:07:06Z</time>
  </trkpt>
  <trkpt lat="33.840761" lon="-5.597315">
   <ele>568.00</ele>
   <time>2014-04-09T10:07:18Z</time>
  </trkpt>
  <trkpt lat="33.842570" lon="-5.600220">
   <ele>566.00</ele>
   <time>2014-04-09T10:07:29Z</time>
  </trkpt>
  <trkpt lat="33.843017" lon="-5.601027">
   <ele>565.00</ele>
   <time>2014-04-09T10:07:32Z</time>
  </trkpt>
  <trkpt lat="33.843436" lon="-5.601854">
   <ele>565.00</ele>
   <time>2014-04-09T10:07:35Z</time>
  </trkpt>
  <trkpt lat="33.843696" lon="-5.602425">
   <ele>565.00</ele>
   <time>2014-04-09T10:07:37Z</time>
  </trkpt>
  <trkpt lat="33.844061" lon="-5.603312">
   <ele>564.00</ele>
   <time>2014-04-09T10:07:40Z</time>
  </trkpt>
  <trkpt lat="33.844288" lon="-5.603919">
   <ele>563.00</ele>
   <time>2014-04-09T10:07:42Z</time>
  </trkpt>
  <trkpt lat="33.844601" lon="-5.604846">
   <ele>562.00</ele>
   <time>2014-04-09T10:07:45Z</time>
  </trkpt>
  <trkpt lat="33.844874" lon="-5.605787">
   <ele>560.00</ele>
   <time>2014-04-09T10:07:48Z</time>
  </trkpt>
  <trkpt lat="33.845110" lon="-5.606730">
   <ele>558.00</ele>
   <time>2014-04-09T10:07:51Z</time>
  </trkpt>
  <trkpt lat="33.845315" lon="-5.607683">
   <ele>556.00</ele>
   <time>2014-04-09T10:07:54Z</time>
  </trkpt>
  <trkpt lat="33.846262" lon="-5.612512">
   <ele>549.00</ele>
   <time>2014-04-09T10:08:09Z</time>
  </trkpt>
  <trkpt lat="33.846599" lon="-5.614099">
   <ele>546.00</ele>
   <time>2014-04-09T10:08:14Z</time>
  </trkpt>
  <trkpt lat="33.846846" lon="-5.615035">
   <ele>545.00</ele>
   <time>2014-04-09T10:08:17Z</time>
  </trkpt>
  <trkpt lat="33.847127" lon="-5.615960">
   <ele>544.00</ele>
   <time>2014-04-09T10:08:20Z</time>
  </trkpt>
  <trkpt lat="33.847439" lon="-5.616866">
   <ele>543.00</ele>
   <time>2014-04-09T10:08:23Z</time>
  </trkpt>
  <trkpt lat="33.847782" lon="-5.617747">
   <ele>543.00</ele>
   <time>2014-04-09T10:08:26Z</time>
  </trkpt>
  <trkpt lat="33.848157" lon="-5.618601">
   <ele>544.00</ele>
   <time>2014-04-09T10:08:29Z</time>
  </trkpt>
  <trkpt lat="33.848562" lon="-5.619426">
   <ele>545.00</ele>
   <time>2014-04-09T10:08:32Z</time>
  </trkpt>
  <trkpt lat="33.849127" lon="-5.620501">
   <ele>546.00</ele>
   <time>2014-04-09T10:08:36Z</time>
  </trkpt>
  <trkpt lat="33.849436" lon="-5.621018">
   <ele>547.00</ele>
   <time>2014-04-09T10:08:38Z</time>
  </trkpt>
  <trkpt lat="33.849923" lon="-5.621775">
   <ele>549.00</ele>
   <time>2014-04-09T10:08:41Z</time>
  </trkpt>
  <trkpt lat="33.850269" lon="-5.622260">
   <ele>549.00</ele>
   <time>2014-04-09T10:08:43Z</time>
  </trkpt>
  <trkpt lat="33.850634" lon="-5.622729">
   <ele>550.00</ele>
   <time>2014-04-09T10:08:45Z</time>
  </trkpt>
  <trkpt lat="33.851397" lon="-5.623632">
   <ele>550.00</ele>
   <time>2014-04-09T10:08:49Z</time>
  </trkpt>
  <trkpt lat="33.851999" lon="-5.624279">
   <ele>550.00</ele>
   <time>2014-04-09T10:08:52Z</time>
  </trkpt>
  <trkpt lat="33.852622" lon="-5.624907">
   <ele>550.00</ele>
   <time>2014-04-09T10:08:55Z</time>
  </trkpt>
  <trkpt lat="33.853274" lon="-5.625505">
   <ele>548.00</ele>
   <time>2014-04-09T10:08:58Z</time>
  </trkpt>
  <trkpt lat="33.853952" lon="-5.626067">
   <ele>547.00</ele>
   <time>2014-04-09T10:09:01Z</time>
  </trkpt>
  <trkpt lat="33.856067" lon="-5.627656">
   <ele>541.00</ele>
   <time>2014-04-09T10:09:10Z</time>
  </trkpt>
  <trkpt lat="33.859640" lon="-5.630358">
   <ele>533.00</ele>
   <time>2014-04-09T10:09:25Z</time>
  </trkpt>
  <trkpt lat="33.860579" lon="-5.631114">
   <ele>530.00</ele>
   <time>2014-04-09T10:09:29Z</time>
  </trkpt>
  <trkpt lat="33.861486" lon="-5.631923">
   <ele>528.00</ele>
   <time>2014-04-09T10:09:33Z</time>
  </trkpt>
  <trkpt lat="33.861920" lon="-5.632353">
   <ele>527.00</ele>
   <time>2014-04-09T10:09:35Z</time>
  </trkpt>
  <trkpt lat="33.862545" lon="-5.633026">
   <ele>526.00</ele>
   <time>2014-04-09T10:09:38Z</time>
  </trkpt>
  <trkpt lat="33.863334" lon="-5.633967">
   <ele>524.00</ele>
   <time>2014-04-09T10:09:42Z</time>
  </trkpt>
  <trkpt lat="33.863890" lon="-5.634707">
   <ele>523.00</ele>
   <time>2014-04-09T10:09:45Z</time>
  </trkpt>
  <trkpt lat="33.864240" lon="-5.635224">
   <ele>522.00</ele>
   <time>2014-04-09T10:09:47Z</time>
  </trkpt>
  <trkpt lat="33.864743" lon="-5.636022">
   <ele>522.00</ele>
   <time>2014-04-09T10:09:50Z</time>
  </trkpt>
  <trkpt lat="33.865062" lon="-5.636569">
   <ele>521.00</ele>
   <time>2014-04-09T10:09:52Z</time>
  </trkpt>
  <trkpt lat="33.865661" lon="-5.637692">
   <ele>520.00</ele>
   <time>2014-04-09T10:09:56Z</time>
  </trkpt>
  <trkpt lat="33.867273" lon="-5.640797">
   <ele>518.00</ele>
   <time>2014-04-09T10:10:07Z</time>
  </trkpt>
  <trkpt lat="33.867925" lon="-5.641876">
   <ele>517.00</ele>
   <time>2014-04-09T10:10:11Z</time>
  </trkpt>
  <trkpt lat="33.868615" lon="-5.642921">
   <ele>516.00</ele>
   <time>2014-04-09T10:10:15Z</time>
  </trkpt>
  <trkpt lat="33.869154" lon="-5.643678">
   <ele>515.00</ele>
   <time>2014-04-09T10:10:18Z</time>
  </trkpt>
  <trkpt lat="33.869714" lon="-5.644407">
   <ele>515.00</ele>
   <time>2014-04-09T10:10:21Z</time>
  </trkpt>
  <trkpt lat="33.870496" lon="-5.645343">
   <ele>514.00</ele>
   <time>2014-04-09T10:10:25Z</time>
  </trkpt>
  <trkpt lat="33.871310" lon="-5.646243">
   <ele>513.00</ele>
   <time>2014-04-09T10:10:29Z</time>
  </trkpt>
  <trkpt lat="33.871944" lon="-5.646883">
   <ele>513.00</ele>
   <time>2014-04-09T10:10:32Z</time>
  </trkpt>
  <trkpt lat="33.872592" lon="-5.647495">
   <ele>513.00</ele>
   <time>2014-04-09T10:10:35Z</time>
  </trkpt>
  <trkpt lat="33.873475" lon="-5.648278">
   <ele>512.00</ele>
   <time>2014-04-09T10:10:39Z</time>
  </trkpt>
  <trkpt lat="33.874388" lon="-5.649002">
   <ele>511.00</ele>
   <time>2014-04-09T10:10:43Z</time>
  </trkpt>
  <trkpt lat="33.875091" lon="-5.649508">
   <ele>511.00</ele>
   <time>2014-04-09T10:10:46Z</time>
  </trkpt>
  <trkpt lat="33.878696" lon="-5.651878">
   <ele>511.00</ele>
   <time>2014-04-09T10:11:01Z</time>
  </trkpt>
  <trkpt lat="33.879873" lon="-5.652695">
   <ele>510.00</ele>
   <time>2014-04-09T10:11:06Z</time>
  </trkpt>
  <trkpt lat="33.881023" lon="-5.653575">
   <ele>508.00</ele>
   <time>2014-04-09T10:11:11Z</time>
  </trkpt>
  <trkpt lat="33.881933" lon="-5.654332">
   <ele>507.00</ele>
   <time>2014-04-09T10:11:15Z</time>
  </trkpt>
  <trkpt lat="33.882831" lon="-5.655138">
   <ele>505.00</ele>
   <time>2014-04-09T10:11:19Z</time>
  </trkpt>
  <trkpt lat="33.883711" lon="-5.655988">
   <ele>502.00</ele>
   <time>2014-04-09T10:11:23Z</time>
  </trkpt>
  <trkpt lat="33.884563" lon="-5.656883">
   <ele>500.00</ele>
   <time>2014-04-09T10:11:27Z</time>
  </trkpt>
  <trkpt lat="33.885594" lon="-5.658050">
   <ele>497.00</ele>
   <time>2014-04-09T10:11:32Z</time>
  </trkpt>
  <trkpt lat="33.886579" lon="-5.659270">
   <ele>493.00</ele>
   <time>2014-04-09T10:11:37Z</time>
  </trkpt>
  <trkpt lat="33.887330" lon="-5.660286">
   <ele>493.00</ele>
   <time>2014-04-09T10:11:41Z</time>
  </trkpt>
  <trkpt lat="33.887862" lon="-5.661073">
   <ele>493.00</ele>
   <time>2014-04-09T10:11:44Z</time>
  </trkpt>
  <trkpt lat="33.888878" lon="-5.662684">
   <ele>495.00</ele>
   <time>2014-04-09T10:11:50Z</time>
  </trkpt>
  <trkpt lat="33.889846" lon="-5.664328">
   <ele>497.00</ele>
   <time>2014-04-09T10:11:56Z</time>
  </trkpt>
  <trkpt lat="33.890298" lon="-5.665169">
   <ele>498.00</ele>
   <time>2014-04-09T10:11:59Z</time>
  </trkpt>
  <trkpt lat="33.890994" lon="-5.666600">
   <ele>499.00</ele>
   <time>2014-04-09T10:12:04Z</time>
  </trkpt>
  <trkpt lat="33.891509" lon="-5.667770">
   <ele>501.00</ele>
   <time>2014-04-09T10:12:08Z</time>
  </trkpt>
  <trkpt lat="33.892108" lon="-5.669255">
   <ele>502.00</ele>
   <time>2014-04-09T10:12:13Z</time>
  </trkpt>
  <trkpt lat="33.892547" lon="-5.670468">
   <ele>503.00</ele>
   <time>2014-04-09T10:12:17Z</time>
  </trkpt>
  <trkpt lat="33.893048" lon="-5.672009">
   <ele>505.00</ele>
   <time>2014-04-09T10:12:22Z</time>
  </trkpt>
  <trkpt lat="33.893405" lon="-5.673273">
   <ele>506.00</ele>
   <time>2014-04-09T10:12:26Z</time>
  </trkpt>
  <trkpt lat="33.894147" lon="-5.676466">
   <ele>510.00</ele>
   <time>2014-04-09T10:12:36Z</time>
  </trkpt>
  <trkpt lat="33.894326" lon="-5.677434">
   <ele>510.00</ele>
   <time>2014-04-09T10:12:39Z</time>
  </trkpt>
  <trkpt lat="33.894573" lon="-5.679058">
   <ele>511.00</ele>
   <time>2014-04-09T10:12:44Z</time>
  </trkpt>
  <trkpt lat="33.894757" lon="-5.680693">
   <ele>511.00</ele>
   <time>2014-04-09T10:12:49Z</time>
  </trkpt>
  <trkpt lat="33.894863" lon="-5.682015">
   <ele>510.00</ele>
   <time>2014-04-09T10:12:53Z</time>
  </trkpt>
  <trkpt lat="33.894940" lon="-5.683682">
   <ele>509.00</ele>
   <time>2014-04-09T10:12:58Z</time>
  </trkpt>
  <trkpt lat="33.894963" lon="-5.685008">
   <ele>508.00</ele>
   <time>2014-04-09T10:13:02Z</time>
  </trkpt>
  <trkpt lat="33.894943" lon="-5.686326">
   <ele>508.00</ele>
   <time>2014-04-09T10:13:06Z</time>
  </trkpt>
  <trkpt lat="33.894848" lon="-5.688290">
   <ele>508.00</ele>
   <time>2014-04-09T10:13:12Z</time>
  </trkpt>
  <trkpt lat="33.894732" lon="-5.689600">
   <ele>507.00</ele>
   <time>2014-04-09T10:13:16Z</time>
  </trkpt>
  <trkpt lat="33.894533" lon="-5.691239">
   <ele>507.00</ele>
   <time>2014-04-09T10:13:21Z</time>
  </trkpt>
  <trkpt lat="33.894333" lon="-5.692542">
   <ele>506.00</ele>
   <time>2014-04-09T10:13:25Z</time>
  </trkpt>
  <trkpt lat="33.894029" lon="-5.694153">
   <ele>506.00</ele>
   <time>2014-04-09T10:13:30Z</time>
  </trkpt>
  <trkpt lat="33.892951" lon="-5.698907">
   <ele>509.00</ele>
   <time>2014-04-09T10:13:45Z</time>
  </trkpt>
  <trkpt lat="33.891864" lon="-5.703676">
   <ele>512.00</ele>
   <time>2014-04-09T10:14:00Z</time>
  </trkpt>
  <trkpt lat="33.890711" lon="-5.708781">
   <ele>512.00</ele>
   <time>2014-04-09T10:14:16Z</time>
  </trkpt>
  <trkpt lat="33.890366" lon="-5.710381">
   <ele>511.00</ele>
   <time>2014-04-09T10:14:21Z</time>
  </trkpt>
  <trkpt lat="33.890148" lon="-5.711686">
   <ele>511.00</ele>
   <time>2014-04-09T10:14:25Z</time>
  </trkpt>
  <trkpt lat="33.889974" lon="-5.712995">
   <ele>510.00</ele>
   <time>2014-04-09T10:14:29Z</time>
  </trkpt>
  <trkpt lat="33.889849" lon="-5.714312">
   <ele>510.00</ele>
   <time>2014-04-09T10:14:33Z</time>
  </trkpt>
  <trkpt lat="33.889762" lon="-5.715633">
   <ele>509.00</ele>
   <time>2014-04-09T10:14:37Z</time>
  </trkpt>
  <trkpt lat="33.889615" lon="-5.720602">
   <ele>508.00</ele>
   <time>2014-04-09T10:14:52Z</time>
  </trkpt>
  <trkpt lat="33.889463" lon="-5.725550">
   <ele>506.00</ele>
   <time>2014-04-09T10:15:07Z</time>
  </trkpt>
  <trkpt lat="33.889360" lon="-5.726872">
   <ele>505.00</ele>
   <time>2014-04-09T10:15:11Z</time>
  </trkpt>
  <trkpt lat="33.889217" lon="-5.728189">
   <ele>504.00</ele>
   <time>2014-04-09T10:15:15Z</time>
  </trkpt>
  <trkpt lat="33.889077" lon="-5.729170">
   <ele>503.00</ele>
   <time>2014-04-09T10:15:18Z</time>
  </trkpt>
  <trkpt lat="33.888851" lon="-5.730474">
   <ele>502.00</ele>
   <time>2014-04-09T10:15:22Z</time>
  </trkpt>
  <trkpt lat="33.888648" lon="-5.731451">
   <ele>500.00</ele>
   <time>2014-04-09T10:15:25Z</time>
  </trkpt>
  <trkpt lat="33.888417" lon="-5.732423">
   <ele>499.00</ele>
   <time>2014-04-09T10:15:28Z</time>
  </trkpt>
  <trkpt lat="33.888152" lon="-5.733390">
   <ele>497.00</ele>
   <time>2014-04-09T10:15:31Z</time>
  </trkpt>
  <trkpt lat="33.887757" lon="-5.734667">
   <ele>495.00</ele>
   <time>2014-04-09T10:15:35Z</time>
  </trkpt>
  <trkpt lat="33.886090" lon="-5.739709">
   <ele>490.00</ele>
   <time>2014-04-09T10:15:51Z</time>
  </trkpt>
  <trkpt lat="33.885590" lon="-5.741247">
   <ele>490.00</ele>
   <time>2014-04-09T10:15:56Z</time>
  </trkpt>
  <trkpt lat="33.885332" lon="-5.742191">
   <ele>490.00</ele>
   <time>2014-04-09T10:15:59Z</time>
  </trkpt>
  <trkpt lat="33.885116" lon="-5.743159">
   <ele>490.00</ele>
   <time>2014-04-09T10:16:02Z</time>
  </trkpt>
  <trkpt lat="33.884088" lon="-5.748085">
   <ele>482.00</ele>
   <time>2014-04-09T10:16:17Z</time>
  </trkpt>
  <trkpt lat="33.883114" lon="-5.752709">
   <ele>466.00</ele>
   <time>2014-04-09T10:16:33Z</time>
  </trkpt>
  <trkpt lat="33.882382" lon="-5.756182">
   <ele>452.00</ele>
   <time>2014-04-09T10:16:48Z</time>
  </trkpt>
  <trkpt lat="33.881792" lon="-5.759010">
   <ele>440.00</ele>
   <time>2014-04-09T10:17:03Z</time>
  </trkpt>
  <trkpt lat="33.881383" lon="-5.760831">
   <ele>433.00</ele>
   <time>2014-04-09T10:17:13Z</time>
  </trkpt>
  <trkpt lat="33.881082" lon="-5.761969">
   <ele>429.00</ele>
   <time>2014-04-09T10:17:19Z</time>
  </trkpt>
  <trkpt lat="33.880729" lon="-5.763134">
   <ele>425.00</ele>
   <time>2014-04-09T10:17:25Z</time>
  </trkpt>
  <trkpt lat="33.880408" lon="-5.764090">
   <ele>421.00</ele>
   <time>2014-04-09T10:17:30Z</time>
  </trkpt>
  <trkpt lat="33.880193" lon="-5.764649">
   <ele>419.00</ele>
   <time>2014-04-09T10:17:33Z</time>
  </trkpt>
  <trkpt lat="33.879060" lon="-5.767550">
   <ele>407.00</ele>
   <time>2014-04-09T10:17:48Z</time>
  </trkpt>
  <trkpt lat="33.877764" lon="-5.770881">
   <ele>393.00</ele>
   <time>2014-04-09T10:18:04Z</time>
  </trkpt>
  <trkpt lat="33.876410" lon="-5.774332">
   <ele>380.00</ele>
   <time>2014-04-09T10:18:19Z</time>
  </trkpt>
  <trkpt lat="33.874711" lon="-5.778583">
   <ele>362.00</ele>
   <time>2014-04-09T10:18:34Z</time>
  </trkpt>
  <trkpt lat="33.874447" lon="-5.779165">
   <ele>359.00</ele>
   <time>2014-04-09T10:18:36Z</time>
  </trkpt>
  <trkpt lat="33.874160" lon="-5.779737">
   <ele>356.00</ele>
   <time>2014-04-09T10:18:38Z</time>
  </trkpt>
  <trkpt lat="33.873851" lon="-5.780298">
   <ele>353.00</ele>
   <time>2014-04-09T10:18:40Z</time>
  </trkpt>
  <trkpt lat="33.873519" lon="-5.780843">
   <ele>350.00</ele>
   <time>2014-04-09T10:18:42Z</time>
  </trkpt>
  <trkpt lat="33.873342" lon="-5.781107">
   <ele>349.00</ele>
   <time>2014-04-09T10:18:43Z</time>
  </trkpt>
  <trkpt lat="33.872969" lon="-5.781612">
   <ele>346.00</ele>
   <time>2014-04-09T10:18:45Z</time>
  </trkpt>
  <trkpt lat="33.872575" lon="-5.782086">
   <ele>343.00</ele>
   <time>2014-04-09T10:18:47Z</time>
  </trkpt>
  <trkpt lat="33.872163" lon="-5.782534">
   <ele>340.00</ele>
   <time>2014-04-09T10:18:49Z</time>
  </trkpt>
  <trkpt lat="33.871734" lon="-5.782956">
   <ele>336.00</ele>
   <time>2014-04-09T10:18:51Z</time>
  </trkpt>
  <trkpt lat="33.871290" lon="-5.783354">
   <ele>333.00</ele>
   <time>2014-04-09T10:18:53Z</time>
  </trkpt>
  <trkpt lat="33.870827" lon="-5.783724">
   <ele>330.00</ele>
   <time>2014-04-09T10:18:55Z</time>
  </trkpt>
  <trkpt lat="33.870348" lon="-5.784061">
   <ele>327.00</ele>
   <time>2014-04-09T10:18:57Z</time>
  </trkpt>
  <trkpt lat="33.869855" lon="-5.784366">
   <ele>324.00</ele>
   <time>2014-04-09T10:18:59Z</time>
  </trkpt>
  <trkpt lat="33.869354" lon="-5.784642">
   <ele>322.00</ele>
   <time>2014-04-09T10:19:01Z</time>
  </trkpt>
  <trkpt lat="33.868847" lon="-5.784883">
   <ele>319.00</ele>
   <time>2014-04-09T10:19:03Z</time>
  </trkpt>
  <trkpt lat="33.868334" lon="-5.785092">
   <ele>318.00</ele>
   <time>2014-04-09T10:19:05Z</time>
  </trkpt>
  <trkpt lat="33.867817" lon="-5.785271">
   <ele>316.00</ele>
   <time>2014-04-09T10:19:07Z</time>
  </trkpt>
  <trkpt lat="33.867295" lon="-5.785423">
   <ele>315.00</ele>
   <time>2014-04-09T10:19:09Z</time>
  </trkpt>
  <trkpt lat="33.866768" lon="-5.785545">
   <ele>314.00</ele>
   <time>2014-04-09T10:19:11Z</time>
  </trkpt>
  <trkpt lat="33.864909" lon="-5.785918">
   <ele>310.00</ele>
   <time>2014-04-09T10:19:18Z</time>
  </trkpt>
  <trkpt lat="33.863878" lon="-5.786209">
   <ele>308.00</ele>
   <time>2014-04-09T10:19:22Z</time>
  </trkpt>
  <trkpt lat="33.863625" lon="-5.786300">
   <ele>308.00</ele>
   <time>2014-04-09T10:19:23Z</time>
  </trkpt>
  <trkpt lat="33.863374" lon="-5.786403">
   <ele>307.00</ele>
   <time>2014-04-09T10:19:24Z</time>
  </trkpt>
  <trkpt lat="33.863126" lon="-5.786518">
   <ele>307.00</ele>
   <time>2014-04-09T10:19:25Z</time>
  </trkpt>
  <trkpt lat="33.862881" lon="-5.786644">
   <ele>307.00</ele>
   <time>2014-04-09T10:19:26Z</time>
  </trkpt>
  <trkpt lat="33.862397" lon="-5.786927">
   <ele>306.00</ele>
   <time>2014-04-09T10:19:28Z</time>
  </trkpt>
  <trkpt lat="33.861921" lon="-5.787243">
   <ele>305.00</ele>
   <time>2014-04-09T10:19:30Z</time>
  </trkpt>
  <trkpt lat="33.861456" lon="-5.787587">
   <ele>305.00</ele>
   <time>2014-04-09T10:19:32Z</time>
  </trkpt>
  <trkpt lat="33.860780" lon="-5.788143">
   <ele>304.00</ele>
   <time>2014-04-09T10:19:35Z</time>
  </trkpt>
  <trkpt lat="33.860345" lon="-5.788541">
   <ele>304.00</ele>
   <time>2014-04-09T10:19:37Z</time>
  </trkpt>
  <trkpt lat="33.859931" lon="-5.788967">
   <ele>304.00</ele>
   <time>2014-04-09T10:19:39Z</time>
  </trkpt>
  <trkpt lat="33.859733" lon="-5.789193">
   <ele>303.00</ele>
   <time>2014-04-09T10:19:40Z</time>
  </trkpt>
  <trkpt lat="33.858976" lon="-5.790130">
   <ele>302.00</ele>
   <time>2014-04-09T10:19:44Z</time>
  </trkpt>
  <trkpt lat="33.856565" lon="-5.793205">
   <ele>300.00</ele>
   <time>2014-04-09T10:19:57Z</time>
  </trkpt>
  <trkpt lat="33.856220" lon="-5.793708">
   <ele>299.00</ele>
   <time>2014-04-09T10:19:59Z</time>
  </trkpt>
  <trkpt lat="33.855897" lon="-5.794234">
   <ele>299.00</ele>
   <time>2014-04-09T10:20:01Z</time>
  </trkpt>
  <trkpt lat="33.855593" lon="-5.794777">
   <ele>298.00</ele>
   <time>2014-04-09T10:20:03Z</time>
  </trkpt>
  <trkpt lat="33.855310" lon="-5.795340">
   <ele>298.00</ele>
   <time>2014-04-09T10:20:05Z</time>
  </trkpt>
  <trkpt lat="33.855051" lon="-5.795923">
   <ele>297.00</ele>
   <time>2014-04-09T10:20:07Z</time>
  </trkpt>
  <trkpt lat="33.854817" lon="-5.796523">
   <ele>297.00</ele>
   <time>2014-04-09T10:20:09Z</time>
  </trkpt>
  <trkpt lat="33.853823" lon="-5.799239">
   <ele>294.00</ele>
   <time>2014-04-09T10:20:18Z</time>
  </trkpt>
  <trkpt lat="33.853566" lon="-5.799817">
   <ele>293.00</ele>
   <time>2014-04-09T10:20:20Z</time>
  </trkpt>
  <trkpt lat="33.853146" lon="-5.800661">
   <ele>291.00</ele>
   <time>2014-04-09T10:20:23Z</time>
  </trkpt>
  <trkpt lat="33.852843" lon="-5.801206">
   <ele>290.00</ele>
   <time>2014-04-09T10:20:25Z</time>
  </trkpt>
  <trkpt lat="33.852525" lon="-5.801738">
   <ele>289.00</ele>
   <time>2014-04-09T10:20:27Z</time>
  </trkpt>
  <trkpt lat="33.852188" lon="-5.802253">
   <ele>288.00</ele>
   <time>2014-04-09T10:20:29Z</time>
  </trkpt>
  <trkpt lat="33.851658" lon="-5.802996">
   <ele>287.00</ele>
   <time>2014-04-09T10:20:32Z</time>
  </trkpt>
  <trkpt lat="33.848894" lon="-5.806569">
   <ele>287.00</ele>
   <time>2014-04-09T10:20:47Z</time>
  </trkpt>
  <trkpt lat="33.847608" lon="-5.808257">
   <ele>288.00</ele>
   <time>2014-04-09T10:20:54Z</time>
  </trkpt>
  <trkpt lat="33.847266" lon="-5.808762">
   <ele>289.00</ele>
   <time>2014-04-09T10:20:56Z</time>
  </trkpt>
  <trkpt lat="33.846941" lon="-5.809287">
   <ele>290.00</ele>
   <time>2014-04-09T10:20:58Z</time>
  </trkpt>
  <trkpt lat="33.846634" lon="-5.809832">
   <ele>290.00</ele>
   <time>2014-04-09T10:21:00Z</time>
  </trkpt>
  <trkpt lat="33.846342" lon="-5.810395">
   <ele>291.00</ele>
   <time>2014-04-09T10:21:02Z</time>
  </trkpt>
  <trkpt lat="33.846069" lon="-5.810973">
   <ele>291.00</ele>
   <time>2014-04-09T10:21:04Z</time>
  </trkpt>
  <trkpt lat="33.845814" lon="-5.811563">
   <ele>292.00</ele>
   <time>2014-04-09T10:21:06Z</time>
  </trkpt>
  <trkpt lat="33.845583" lon="-5.812166">
   <ele>292.00</ele>
   <time>2014-04-09T10:21:08Z</time>
  </trkpt>
  <trkpt lat="33.845378" lon="-5.812783">
   <ele>292.00</ele>
   <time>2014-04-09T10:21:10Z</time>
  </trkpt>
  <trkpt lat="33.845105" lon="-5.813718">
   <ele>291.00</ele>
   <time>2014-04-09T10:21:13Z</time>
  </trkpt>
  <trkpt lat="33.843861" lon="-5.818472">
   <ele>286.00</ele>
   <time>2014-04-09T10:21:28Z</time>
  </trkpt>
  <trkpt lat="33.842844" lon="-5.822313">
   <ele>280.00</ele>
   <time>2014-04-09T10:21:40Z</time>
  </trkpt>
  <trkpt lat="33.842539" lon="-5.823237">
   <ele>279.00</ele>
   <time>2014-04-09T10:21:43Z</time>
  </trkpt>
  <trkpt lat="33.842312" lon="-5.823838">
   <ele>278.00</ele>
   <time>2014-04-09T10:21:45Z</time>
  </trkpt>
  <trkpt lat="33.842066" lon="-5.824425">
   <ele>278.00</ele>
   <time>2014-04-09T10:21:47Z</time>
  </trkpt>
  <trkpt lat="33.841803" lon="-5.824996">
   <ele>278.00</ele>
   <time>2014-04-09T10:21:49Z</time>
  </trkpt>
  <trkpt lat="33.841523" lon="-5.825551">
   <ele>278.00</ele>
   <time>2014-04-09T10:21:51Z</time>
  </trkpt>
  <trkpt lat="33.841079" lon="-5.826362">
   <ele>278.00</ele>
   <time>2014-04-09T10:21:54Z</time>
  </trkpt>
  <trkpt lat="33.839858" lon="-5.828496">
   <ele>277.00</ele>
   <time>2014-04-09T10:22:02Z</time>
  </trkpt>
  <trkpt lat="33.839582" lon="-5.829051">
   <ele>277.00</ele>
   <time>2014-04-09T10:22:04Z</time>
  </trkpt>
  <trkpt lat="33.839329" lon="-5.829618">
   <ele>276.00</ele>
   <time>2014-04-09T10:22:06Z</time>
  </trkpt>
  <trkpt lat="33.838986" lon="-5.830488">
   <ele>275.00</ele>
   <time>2014-04-09T10:22:09Z</time>
  </trkpt>
  <trkpt lat="33.838687" lon="-5.831378">
   <ele>274.00</ele>
   <time>2014-04-09T10:22:12Z</time>
  </trkpt>
  <trkpt lat="33.837711" lon="-5.834645">
   <ele>270.00</ele>
   <time>2014-04-09T10:22:23Z</time>
  </trkpt>
  <trkpt lat="33.837492" lon="-5.835214">
   <ele>269.00</ele>
   <time>2014-04-09T10:22:25Z</time>
  </trkpt>
  <trkpt lat="33.837247" lon="-5.835767">
   <ele>269.00</ele>
   <time>2014-04-09T10:22:27Z</time>
  </trkpt>
  <trkpt lat="33.836981" lon="-5.836305">
   <ele>269.00</ele>
   <time>2014-04-09T10:22:29Z</time>
  </trkpt>
  <trkpt lat="33.836693" lon="-5.836831">
   <ele>269.00</ele>
   <time>2014-04-09T10:22:31Z</time>
  </trkpt>
  <trkpt lat="33.836383" lon="-5.837340">
   <ele>269.00</ele>
   <time>2014-04-09T10:22:33Z</time>
  </trkpt>
  <trkpt lat="33.836051" lon="-5.837831">
   <ele>270.00</ele>
   <time>2014-04-09T10:22:35Z</time>
  </trkpt>
  <trkpt lat="33.835700" lon="-5.838303">
   <ele>271.00</ele>
   <time>2014-04-09T10:22:37Z</time>
  </trkpt>
  <trkpt lat="33.834240" lon="-5.840130">
   <ele>272.00</ele>
   <time>2014-04-09T10:22:45Z</time>
  </trkpt>
  <trkpt lat="33.833912" lon="-5.840625">
   <ele>272.00</ele>
   <time>2014-04-09T10:22:47Z</time>
  </trkpt>
  <trkpt lat="33.833612" lon="-5.841145">
   <ele>271.00</ele>
   <time>2014-04-09T10:22:49Z</time>
  </trkpt>
  <trkpt lat="33.833342" lon="-5.841686">
   <ele>271.00</ele>
   <time>2014-04-09T10:22:51Z</time>
  </trkpt>
  <trkpt lat="33.833102" lon="-5.842245">
   <ele>271.00</ele>
   <time>2014-04-09T10:22:53Z</time>
  </trkpt>
  <trkpt lat="33.832994" lon="-5.842531">
   <ele>270.00</ele>
   <time>2014-04-09T10:22:54Z</time>
  </trkpt>
  <trkpt lat="33.832803" lon="-5.843115">
   <ele>270.00</ele>
   <time>2014-04-09T10:22:56Z</time>
  </trkpt>
  <trkpt lat="33.832720" lon="-5.843412">
   <ele>269.00</ele>
   <time>2014-04-09T10:22:57Z</time>
  </trkpt>
  <trkpt lat="33.832580" lon="-5.844019">
   <ele>267.00</ele>
   <time>2014-04-09T10:22:59Z</time>
  </trkpt>
  <trkpt lat="33.832474" lon="-5.844638">
   <ele>265.00</ele>
   <time>2014-04-09T10:23:01Z</time>
  </trkpt>
  <trkpt lat="33.832401" lon="-5.845263">
   <ele>263.00</ele>
   <time>2014-04-09T10:23:03Z</time>
  </trkpt>
  <trkpt lat="33.832336" lon="-5.846216">
   <ele>259.00</ele>
   <time>2014-04-09T10:23:06Z</time>
  </trkpt>
  <trkpt lat="33.832266" lon="-5.847176">
   <ele>255.00</ele>
   <time>2014-04-09T10:23:09Z</time>
  </trkpt>
  <trkpt lat="33.832194" lon="-5.847816">
   <ele>253.00</ele>
   <time>2014-04-09T10:23:11Z</time>
  </trkpt>
  <trkpt lat="33.832087" lon="-5.848454">
   <ele>250.00</ele>
   <time>2014-04-09T10:23:13Z</time>
  </trkpt>
  <trkpt lat="33.831946" lon="-5.849087">
   <ele>248.00</ele>
   <time>2014-04-09T10:23:15Z</time>
  </trkpt>
  <trkpt lat="33.831773" lon="-5.849710">
   <ele>247.00</ele>
   <time>2014-04-09T10:23:17Z</time>
  </trkpt>
  <trkpt lat="33.831567" lon="-5.850315">
   <ele>246.00</ele>
   <time>2014-04-09T10:23:19Z</time>
  </trkpt>
  <trkpt lat="33.831330" lon="-5.850899">
   <ele>246.00</ele>
   <time>2014-04-09T10:23:21Z</time>
  </trkpt>
  <trkpt lat="33.831065" lon="-5.851459">
   <ele>247.00</ele>
   <time>2014-04-09T10:23:23Z</time>
  </trkpt>
  <trkpt lat="33.830923" lon="-5.851730">
   <ele>247.00</ele>
   <time>2014-04-09T10:23:24Z</time>
  </trkpt>
  <trkpt lat="33.830616" lon="-5.852253">
   <ele>248.00</ele>
   <time>2014-04-09T10:23:26Z</time>
  </trkpt>
  <trkpt lat="33.830286" lon="-5.852755">
   <ele>249.00</ele>
   <time>2014-04-09T10:23:28Z</time>
  </trkpt>
  <trkpt lat="33.829933" lon="-5.853233">
   <ele>249.00</ele>
   <time>2014-04-09T10:23:30Z</time>
  </trkpt>
  <trkpt lat="33.829550" lon="-5.853683">
   <ele>249.00</ele>
   <time>2014-04-09T10:23:32Z</time>
  </trkpt>
  <trkpt lat="33.829143" lon="-5.854104">
   <ele>249.00</ele>
   <time>2014-04-09T10:23:34Z</time>
  </trkpt>
  <trkpt lat="33.828713" lon="-5.854495">
   <ele>248.00</ele>
   <time>2014-04-09T10:23:36Z</time>
  </trkpt>
  <trkpt lat="33.828263" lon="-5.854858">
   <ele>248.00</ele>
   <time>2014-04-09T10:23:38Z</time>
  </trkpt>
  <trkpt lat="33.827795" lon="-5.855189">
   <ele>247.00</ele>
   <time>2014-04-09T10:23:40Z</time>
  </trkpt>
  <trkpt lat="33.827309" lon="-5.855482">
   <ele>246.00</ele>
   <time>2014-04-09T10:23:42Z</time>
  </trkpt>
  <trkpt lat="33.826807" lon="-5.855734">
   <ele>245.00</ele>
   <time>2014-04-09T10:23:44Z</time>
  </trkpt>
  <trkpt lat="33.826292" lon="-5.855949">
   <ele>244.00</ele>
   <time>2014-04-09T10:23:46Z</time>
  </trkpt>
  <trkpt lat="33.825769" lon="-5.856125">
   <ele>243.00</ele>
   <time>2014-04-09T10:23:48Z</time>
  </trkpt>
  <trkpt lat="33.825240" lon="-5.856264">
   <ele>242.00</ele>
   <time>2014-04-09T10:23:50Z</time>
  </trkpt>
  <trkpt lat="33.824705" lon="-5.856366">
   <ele>241.00</ele>
   <time>2014-04-09T10:23:52Z</time>
  </trkpt>
  <trkpt lat="33.820375" lon="-5.857030">
   <ele>248.00</ele>
   <time>2014-04-09T10:24:08Z</time>
  </trkpt>
  <trkpt lat="33.818235" lon="-5.857365">
   <ele>258.00</ele>
   <time>2014-04-09T10:24:16Z</time>
  </trkpt>
  <trkpt lat="33.817974" lon="-5.857428">
   <ele>259.00</ele>
   <time>2014-04-09T10:24:17Z</time>
  </trkpt>
  <trkpt lat="33.817461" lon="-5.857585">
   <ele>262.00</ele>
   <time>2014-04-09T10:24:19Z</time>
  </trkpt>
  <trkpt lat="33.816961" lon="-5.857778">
   <ele>264.00</ele>
   <time>2014-04-09T10:24:21Z</time>
  </trkpt>
  <trkpt lat="33.816471" lon="-5.858006">
   <ele>267.00</ele>
   <time>2014-04-09T10:24:23Z</time>
  </trkpt>
  <trkpt lat="33.815994" lon="-5.858264">
   <ele>269.00</ele>
   <time>2014-04-09T10:24:25Z</time>
  </trkpt>
  <trkpt lat="33.815529" lon="-5.858558">
   <ele>271.00</ele>
   <time>2014-04-09T10:24:27Z</time>
  </trkpt>
  <trkpt lat="33.815076" lon="-5.858891">
   <ele>273.00</ele>
   <time>2014-04-09T10:24:29Z</time>
  </trkpt>
  <trkpt lat="33.814635" lon="-5.859259">
   <ele>274.00</ele>
   <time>2014-04-09T10:24:31Z</time>
  </trkpt>
  <trkpt lat="33.811199" lon="-5.862196">
   <ele>278.00</ele>
   <time>2014-04-09T10:24:47Z</time>
  </trkpt>
  <trkpt lat="33.809484" lon="-5.863669">
   <ele>275.00</ele>
   <time>2014-04-09T10:24:55Z</time>
  </trkpt>
  <trkpt lat="33.808858" lon="-5.864273">
   <ele>273.00</ele>
   <time>2014-04-09T10:24:58Z</time>
  </trkpt>
  <trkpt lat="33.808257" lon="-5.864903">
   <ele>271.00</ele>
   <time>2014-04-09T10:25:01Z</time>
  </trkpt>
  <trkpt lat="33.807683" lon="-5.865563">
   <ele>268.00</ele>
   <time>2014-04-09T10:25:04Z</time>
  </trkpt>
  <trkpt lat="33.806935" lon="-5.866500">
   <ele>265.00</ele>
   <time>2014-04-09T10:25:08Z</time>
  </trkpt>
  <trkpt lat="33.806390" lon="-5.867248">
   <ele>262.00</ele>
   <time>2014-04-09T10:25:11Z</time>
  </trkpt>
  <trkpt lat="33.806041" lon="-5.867768">
   <ele>260.00</ele>
   <time>2014-04-09T10:25:13Z</time>
  </trkpt>
  <trkpt lat="33.805550" lon="-5.868579">
   <ele>257.00</ele>
   <time>2014-04-09T10:25:16Z</time>
  </trkpt>
  <trkpt lat="33.805092" lon="-5.869423">
   <ele>255.00</ele>
   <time>2014-04-09T10:25:19Z</time>
  </trkpt>
  <trkpt lat="33.804805" lon="-5.870002">
   <ele>253.00</ele>
   <time>2014-04-09T10:25:21Z</time>
  </trkpt>
  <trkpt lat="33.804403" lon="-5.870892">
   <ele>250.00</ele>
   <time>2014-04-09T10:25:24Z</time>
  </trkpt>
  <trkpt lat="33.804160" lon="-5.871502">
   <ele>248.00</ele>
   <time>2014-04-09T10:25:26Z</time>
  </trkpt>
  <trkpt lat="33.802667" lon="-5.875473">
   <ele>235.00</ele>
   <time>2014-04-09T10:25:39Z</time>
  </trkpt>
  <trkpt lat="33.802409" lon="-5.876056">
   <ele>234.00</ele>
   <time>2014-04-09T10:25:41Z</time>
  </trkpt>
  <trkpt lat="33.801993" lon="-5.876905">
   <ele>232.00</ele>
   <time>2014-04-09T10:25:44Z</time>
  </trkpt>
  <trkpt lat="33.801547" lon="-5.877737">
   <ele>230.00</ele>
   <time>2014-04-09T10:25:47Z</time>
  </trkpt>
  <trkpt lat="33.801232" lon="-5.878276">
   <ele>229.00</ele>
   <time>2014-04-09T10:25:49Z</time>
  </trkpt>
  <trkpt lat="33.800733" lon="-5.879056">
   <ele>227.00</ele>
   <time>2014-04-09T10:25:52Z</time>
  </trkpt>
  <trkpt lat="33.800206" lon="-5.879809">
   <ele>226.00</ele>
   <time>2014-04-09T10:25:55Z</time>
  </trkpt>
  <trkpt lat="33.799649" lon="-5.880535">
   <ele>224.00</ele>
   <time>2014-04-09T10:25:58Z</time>
  </trkpt>
  <trkpt lat="33.799059" lon="-5.881228">
   <ele>222.00</ele>
   <time>2014-04-09T10:26:01Z</time>
  </trkpt>
  <trkpt lat="33.798445" lon="-5.881893">
   <ele>220.00</ele>
   <time>2014-04-09T10:26:04Z</time>
  </trkpt>
  <trkpt lat="33.797584" lon="-5.882742">
   <ele>217.00</ele>
   <time>2014-04-09T10:26:08Z</time>
  </trkpt>
  <trkpt lat="33.795635" lon="-5.884654">
   <ele>211.00</ele>
   <time>2014-04-09T10:26:17Z</time>
  </trkpt>
  <trkpt lat="33.795225" lon="-5.885105">
   <ele>210.00</ele>
   <time>2014-04-09T10:26:19Z</time>
  </trkpt>
  <trkpt lat="33.794635" lon="-5.885807">
   <ele>208.00</ele>
   <time>2014-04-09T10:26:22Z</time>
  </trkpt>
  <trkpt lat="33.793877" lon="-5.886774">
   <ele>205.00</ele>
   <time>2014-04-09T10:26:26Z</time>
  </trkpt>
  <trkpt lat="33.793515" lon="-5.887280">
   <ele>204.00</ele>
   <time>2014-04-09T10:26:28Z</time>
  </trkpt>
  <trkpt lat="33.793171" lon="-5.887805">
   <ele>202.00</ele>
   <time>2014-04-09T10:26:30Z</time>
  </trkpt>
  <trkpt lat="33.792199" lon="-5.889420">
   <ele>198.00</ele>
   <time>2014-04-09T10:26:36Z</time>
  </trkpt>
  <trkpt lat="33.789834" lon="-5.893492">
   <ele>192.00</ele>
   <time>2014-04-09T10:26:51Z</time>
  </trkpt>
  <trkpt lat="33.787838" lon="-5.896918">
   <ele>193.00</ele>
   <time>2014-04-09T10:27:04Z</time>
  </trkpt>
  <trkpt lat="33.787274" lon="-5.898019">
   <ele>192.00</ele>
   <time>2014-04-09T10:27:08Z</time>
  </trkpt>
  <trkpt lat="33.786470" lon="-5.899731">
   <ele>191.00</ele>
   <time>2014-04-09T10:27:14Z</time>
  </trkpt>
  <trkpt lat="33.786096" lon="-5.900618">
   <ele>190.00</ele>
   <time>2014-04-09T10:27:17Z</time>
  </trkpt>
  <trkpt lat="33.785758" lon="-5.901527">
   <ele>189.00</ele>
   <time>2014-04-09T10:27:20Z</time>
  </trkpt>
  <trkpt lat="33.785347" lon="-5.902758">
   <ele>188.00</ele>
   <time>2014-04-09T10:27:24Z</time>
  </trkpt>
  <trkpt lat="33.785083" lon="-5.903697">
   <ele>187.00</ele>
   <time>2014-04-09T10:27:27Z</time>
  </trkpt>
  <trkpt lat="33.784774" lon="-5.904964">
   <ele>186.00</ele>
   <time>2014-04-09T10:27:31Z</time>
  </trkpt>
  <trkpt lat="33.784497" lon="-5.906241">
   <ele>186.00</ele>
   <time>2014-04-09T10:27:35Z</time>
  </trkpt>
  <trkpt lat="33.784264" lon="-5.907534">
   <ele>186.00</ele>
   <time>2014-04-09T10:27:39Z</time>
  </trkpt>
  <trkpt lat="33.784078" lon="-5.908844">
   <ele>186.00</ele>
   <time>2014-04-09T10:27:43Z</time>
  </trkpt>
  <trkpt lat="33.783972" lon="-5.909836">
   <ele>185.00</ele>
   <time>2014-04-09T10:27:46Z</time>
  </trkpt>
  <trkpt lat="33.783845" lon="-5.911497">
   <ele>184.00</ele>
   <time>2014-04-09T10:27:51Z</time>
  </trkpt>
  <trkpt lat="33.783818" lon="-5.912161">
   <ele>184.00</ele>
   <time>2014-04-09T10:27:53Z</time>
  </trkpt>
  <trkpt lat="33.783753" lon="-5.917444">
   <ele>181.00</ele>
   <time>2014-04-09T10:28:09Z</time>
  </trkpt>
  <trkpt lat="33.783701" lon="-5.918763">
   <ele>181.00</ele>
   <time>2014-04-09T10:28:13Z</time>
  </trkpt>
  <trkpt lat="33.783603" lon="-5.920082">
   <ele>180.00</ele>
   <time>2014-04-09T10:28:17Z</time>
  </trkpt>
  <trkpt lat="33.783495" lon="-5.921069">
   <ele>180.00</ele>
   <time>2014-04-09T10:28:20Z</time>
  </trkpt>
  <trkpt lat="33.783306" lon="-5.922383">
   <ele>180.00</ele>
   <time>2014-04-09T10:28:24Z</time>
  </trkpt>
  <trkpt lat="33.783072" lon="-5.923688">
   <ele>179.00</ele>
   <time>2014-04-09T10:28:28Z</time>
  </trkpt>
  <trkpt lat="33.782788" lon="-5.924977">
   <ele>179.00</ele>
   <time>2014-04-09T10:28:32Z</time>
  </trkpt>
  <trkpt lat="33.782453" lon="-5.926249">
   <ele>179.00</ele>
   <time>2014-04-09T10:28:36Z</time>
  </trkpt>
  <trkpt lat="33.780939" lon="-5.931206">
   <ele>178.00</ele>
   <time>2014-04-09T10:28:52Z</time>
  </trkpt>
  <trkpt lat="33.780692" lon="-5.932139">
   <ele>178.00</ele>
   <time>2014-04-09T10:28:55Z</time>
  </trkpt>
  <trkpt lat="33.780403" lon="-5.933396">
   <ele>177.00</ele>
   <time>2014-04-09T10:28:59Z</time>
  </trkpt>
  <trkpt lat="33.780229" lon="-5.934351">
   <ele>177.00</ele>
   <time>2014-04-09T10:29:02Z</time>
  </trkpt>
  <trkpt lat="33.780032" lon="-5.935641">
   <ele>177.00</ele>
   <time>2014-04-09T10:29:06Z</time>
  </trkpt>
  <trkpt lat="33.779918" lon="-5.936621">
   <ele>176.00</ele>
   <time>2014-04-09T10:29:09Z</time>
  </trkpt>
  <trkpt lat="33.779808" lon="-5.937931">
   <ele>176.00</ele>
   <time>2014-04-09T10:29:13Z</time>
  </trkpt>
  <trkpt lat="33.779747" lon="-5.939239">
   <ele>175.00</ele>
   <time>2014-04-09T10:29:17Z</time>
  </trkpt>
  <trkpt lat="33.779655" lon="-5.944117">
   <ele>173.00</ele>
   <time>2014-04-09T10:29:32Z</time>
  </trkpt>
  <trkpt lat="33.779563" lon="-5.948967">
   <ele>173.00</ele>
   <time>2014-04-09T10:29:47Z</time>
  </trkpt>
  <trkpt lat="33.779469" lon="-5.954068">
   <ele>184.00</ele>
   <time>2014-04-09T10:30:03Z</time>
  </trkpt>
  <trkpt lat="33.779399" lon="-5.956877">
   <ele>194.00</ele>
   <time>2014-04-09T10:30:13Z</time>
  </trkpt>
  <trkpt lat="33.779403" lon="-5.957449">
   <ele>196.00</ele>
   <time>2014-04-09T10:30:15Z</time>
  </trkpt>
  <trkpt lat="33.779428" lon="-5.958030">
   <ele>198.00</ele>
   <time>2014-04-09T10:30:17Z</time>
  </trkpt>
  <trkpt lat="33.779478" lon="-5.958621">
   <ele>200.00</ele>
   <time>2014-04-09T10:30:19Z</time>
  </trkpt>
  <trkpt lat="33.779550" lon="-5.959220">
   <ele>202.00</ele>
   <time>2014-04-09T10:30:21Z</time>
  </trkpt>
  <trkpt lat="33.779644" lon="-5.959825">
   <ele>204.00</ele>
   <time>2014-04-09T10:30:23Z</time>
  </trkpt>
  <trkpt lat="33.779769" lon="-5.960431">
   <ele>206.00</ele>
   <time>2014-04-09T10:30:25Z</time>
  </trkpt>
  <trkpt lat="33.779922" lon="-5.961034">
   <ele>208.00</ele>
   <time>2014-04-09T10:30:27Z</time>
  </trkpt>
  <trkpt lat="33.780097" lon="-5.961635">
   <ele>210.00</ele>
   <time>2014-04-09T10:30:29Z</time>
  </trkpt>
  <trkpt lat="33.780293" lon="-5.962232">
   <ele>212.00</ele>
   <time>2014-04-09T10:30:31Z</time>
  </trkpt>
  <trkpt lat="33.780510" lon="-5.962823">
   <ele>215.00</ele>
   <time>2014-04-09T10:30:33Z</time>
  </trkpt>
  <trkpt lat="33.780745" lon="-5.963408">
   <ele>217.00</ele>
   <time>2014-04-09T10:30:35Z</time>
  </trkpt>
  <trkpt lat="33.782781" lon="-5.968094">
   <ele>234.00</ele>
   <time>2014-04-09T10:30:51Z</time>
  </trkpt>
  <trkpt lat="33.784580" lon="-5.972201">
   <ele>251.00</ele>
   <time>2014-04-09T10:31:06Z</time>
  </trkpt>
  <trkpt lat="33.784963" lon="-5.972966">
   <ele>254.00</ele>
   <time>2014-04-09T10:31:09Z</time>
  </trkpt>
  <trkpt lat="33.785369" lon="-5.973708">
   <ele>258.00</ele>
   <time>2014-04-09T10:31:12Z</time>
  </trkpt>
  <trkpt lat="33.785656" lon="-5.974184">
   <ele>261.00</ele>
   <time>2014-04-09T10:31:14Z</time>
  </trkpt>
  <trkpt lat="33.786254" lon="-5.975102">
   <ele>267.00</ele>
   <time>2014-04-09T10:31:18Z</time>
  </trkpt>
  <trkpt lat="33.786571" lon="-5.975539">
   <ele>270.00</ele>
   <time>2014-04-09T10:31:20Z</time>
  </trkpt>
  <trkpt lat="33.787230" lon="-5.976372">
   <ele>277.00</ele>
   <time>2014-04-09T10:31:24Z</time>
  </trkpt>
  <trkpt lat="33.787744" lon="-5.976964">
   <ele>282.00</ele>
   <time>2014-04-09T10:31:27Z</time>
  </trkpt>
  <trkpt lat="33.788459" lon="-5.977710">
   <ele>288.00</ele>
   <time>2014-04-09T10:31:31Z</time>
  </trkpt>
  <trkpt lat="33.789728" lon="-5.978991">
   <ele>299.00</ele>
   <time>2014-04-09T10:31:38Z</time>
  </trkpt>
  <trkpt lat="33.790061" lon="-5.979388">
   <ele>303.00</ele>
   <time>2014-04-09T10:31:40Z</time>
  </trkpt>
  <trkpt lat="33.790218" lon="-5.979598">
   <ele>304.00</ele>
   <time>2014-04-09T10:31:41Z</time>
  </trkpt>
  <trkpt lat="33.790368" lon="-5.979816">
   <ele>306.00</ele>
   <time>2014-04-09T10:31:42Z</time>
  </trkpt>
  <trkpt lat="33.790647" lon="-5.980272">
   <ele>309.00</ele>
   <time>2014-04-09T10:31:44Z</time>
  </trkpt>
  <trkpt lat="33.790776" lon="-5.980509">
   <ele>310.00</ele>
   <time>2014-04-09T10:31:45Z</time>
  </trkpt>
  <trkpt lat="33.790897" lon="-5.980753">
   <ele>311.00</ele>
   <time>2014-04-09T10:31:46Z</time>
  </trkpt>
  <trkpt lat="33.791008" lon="-5.981004">
   <ele>313.00</ele>
   <time>2014-04-09T10:31:47Z</time>
  </trkpt>
  <trkpt lat="33.791109" lon="-5.981262">
   <ele>314.00</ele>
   <time>2014-04-09T10:31:48Z</time>
  </trkpt>
  <trkpt lat="33.791293" lon="-5.981789">
   <ele>317.00</ele>
   <time>2014-04-09T10:31:50Z</time>
  </trkpt>
  <trkpt lat="33.791454" lon="-5.982328">
   <ele>320.00</ele>
   <time>2014-04-09T10:31:52Z</time>
  </trkpt>
  <trkpt lat="33.791522" lon="-5.982604">
   <ele>321.00</ele>
   <time>2014-04-09T10:31:53Z</time>
  </trkpt>
  <trkpt lat="33.791581" lon="-5.982883">
   <ele>323.00</ele>
   <time>2014-04-09T10:31:54Z</time>
  </trkpt>
  <trkpt lat="33.791631" lon="-5.983164">
   <ele>324.00</ele>
   <time>2014-04-09T10:31:55Z</time>
  </trkpt>
  <trkpt lat="33.791671" lon="-5.983449">
   <ele>325.00</ele>
   <time>2014-04-09T10:31:56Z</time>
  </trkpt>
  <trkpt lat="33.791701" lon="-5.983735">
   <ele>327.00</ele>
   <time>2014-04-09T10:31:57Z</time>
  </trkpt>
  <trkpt lat="33.791722" lon="-5.984023">
   <ele>328.00</ele>
   <time>2014-04-09T10:31:58Z</time>
  </trkpt>
  <trkpt lat="33.791733" lon="-5.984313">
   <ele>329.00</ele>
   <time>2014-04-09T10:31:59Z</time>
  </trkpt>
  <trkpt lat="33.791734" lon="-5.984603">
   <ele>331.00</ele>
   <time>2014-04-09T10:32:00Z</time>
  </trkpt>
  <trkpt lat="33.791709" lon="-5.985184">
   <ele>334.00</ele>
   <time>2014-04-09T10:32:02Z</time>
  </trkpt>
  <trkpt lat="33.791682" lon="-5.985475">
   <ele>336.00</ele>
   <time>2014-04-09T10:32:03Z</time>
  </trkpt>
  <trkpt lat="33.791646" lon="-5.985765">
   <ele>337.00</ele>
   <time>2014-04-09T10:32:04Z</time>
  </trkpt>
  <trkpt lat="33.791597" lon="-5.986056">
   <ele>339.00</ele>
   <time>2014-04-09T10:32:05Z</time>
  </trkpt>
  <trkpt lat="33.791537" lon="-5.986344">
   <ele>341.00</ele>
   <time>2014-04-09T10:32:06Z</time>
  </trkpt>
  <trkpt lat="33.790656" lon="-5.990369">
   <ele>359.00</ele>
   <time>2014-04-09T10:32:20Z</time>
  </trkpt>
  <trkpt lat="33.790574" lon="-5.990961">
   <ele>362.00</ele>
   <time>2014-04-09T10:32:22Z</time>
  </trkpt>
  <trkpt lat="33.790549" lon="-5.991261">
   <ele>363.00</ele>
   <time>2014-04-09T10:32:23Z</time>
  </trkpt>
  <trkpt lat="33.790536" lon="-5.991562">
   <ele>364.00</ele>
   <time>2014-04-09T10:32:24Z</time>
  </trkpt>
  <trkpt lat="33.790534" lon="-5.991864">
   <ele>365.00</ele>
   <time>2014-04-09T10:32:25Z</time>
  </trkpt>
  <trkpt lat="33.790543" lon="-5.992167">
   <ele>366.00</ele>
   <time>2014-04-09T10:32:26Z</time>
  </trkpt>
  <trkpt lat="33.790564" lon="-5.992469">
   <ele>368.00</ele>
   <time>2014-04-09T10:32:27Z</time>
  </trkpt>
  <trkpt lat="33.790597" lon="-5.992770">
   <ele>369.00</ele>
   <time>2014-04-09T10:32:28Z</time>
  </trkpt>
  <trkpt lat="33.790643" lon="-5.993068">
   <ele>369.00</ele>
   <time>2014-04-09T10:32:29Z</time>
  </trkpt>
  <trkpt lat="33.790700" lon="-5.993364">
   <ele>371.00</ele>
   <time>2014-04-09T10:32:30Z</time>
  </trkpt>
  <trkpt lat="33.790769" lon="-5.993654">
   <ele>372.00</ele>
   <time>2014-04-09T10:32:31Z</time>
  </trkpt>
  <trkpt lat="33.790850" lon="-5.993937">
   <ele>373.00</ele>
   <time>2014-04-09T10:32:32Z</time>
  </trkpt>
  <trkpt lat="33.790942" lon="-5.994215">
   <ele>374.00</ele>
   <time>2014-04-09T10:32:33Z</time>
  </trkpt>
  <trkpt lat="33.791045" lon="-5.994487">
   <ele>374.00</ele>
   <time>2014-04-09T10:32:34Z</time>
  </trkpt>
  <trkpt lat="33.791157" lon="-5.994754">
   <ele>375.00</ele>
   <time>2014-04-09T10:32:35Z</time>
  </trkpt>
  <trkpt lat="33.791279" lon="-5.995015">
   <ele>376.00</ele>
   <time>2014-04-09T10:32:36Z</time>
  </trkpt>
  <trkpt lat="33.791412" lon="-5.995270">
   <ele>377.00</ele>
   <time>2014-04-09T10:32:37Z</time>
  </trkpt>
  <trkpt lat="33.791555" lon="-5.995516">
   <ele>378.00</ele>
   <time>2014-04-09T10:32:38Z</time>
  </trkpt>
  <trkpt lat="33.791709" lon="-5.995754">
   <ele>379.00</ele>
   <time>2014-04-09T10:32:39Z</time>
  </trkpt>
  <trkpt lat="33.791872" lon="-5.995983">
   <ele>380.00</ele>
   <time>2014-04-09T10:32:40Z</time>
  </trkpt>
  <trkpt lat="33.792045" lon="-5.996202">
   <ele>380.00</ele>
   <time>2014-04-09T10:32:41Z</time>
  </trkpt>
  <trkpt lat="33.792228" lon="-5.996411">
   <ele>381.00</ele>
   <time>2014-04-09T10:32:42Z</time>
  </trkpt>
  <trkpt lat="33.792418" lon="-5.996609">
   <ele>382.00</ele>
   <time>2014-04-09T10:32:43Z</time>
  </trkpt>
  <trkpt lat="33.792614" lon="-5.996799">
   <ele>383.00</ele>
   <time>2014-04-09T10:32:44Z</time>
  </trkpt>
  <trkpt lat="33.792818" lon="-5.996978">
   <ele>384.00</ele>
   <time>2014-04-09T10:32:45Z</time>
  </trkpt>
  <trkpt lat="33.793029" lon="-5.997144">
   <ele>385.00</ele>
   <time>2014-04-09T10:32:46Z</time>
  </trkpt>
  <trkpt lat="33.793246" lon="-5.997299">
   <ele>386.00</ele>
   <time>2014-04-09T10:32:47Z</time>
  </trkpt>
  <trkpt lat="33.793471" lon="-5.997442">
   <ele>387.00</ele>
   <time>2014-04-09T10:32:48Z</time>
  </trkpt>
  <trkpt lat="33.793934" lon="-5.997699">
   <ele>390.00</ele>
   <time>2014-04-09T10:32:50Z</time>
  </trkpt>
  <trkpt lat="33.794868" lon="-5.998190">
   <ele>395.00</ele>
   <time>2014-04-09T10:32:54Z</time>
  </trkpt>
  <trkpt lat="33.795313" lon="-5.998473">
   <ele>397.00</ele>
   <time>2014-04-09T10:32:56Z</time>
  </trkpt>
  <trkpt lat="33.795526" lon="-5.998630">
   <ele>398.00</ele>
   <time>2014-04-09T10:32:57Z</time>
  </trkpt>
  <trkpt lat="33.795732" lon="-5.998800">
   <ele>399.00</ele>
   <time>2014-04-09T10:32:58Z</time>
  </trkpt>
  <trkpt lat="33.795930" lon="-5.998983">
   <ele>400.00</ele>
   <time>2014-04-09T10:32:59Z</time>
  </trkpt>
  <trkpt lat="33.796120" lon="-5.999177">
   <ele>401.00</ele>
   <time>2014-04-09T10:33:00Z</time>
  </trkpt>
  <trkpt lat="33.796304" lon="-5.999380">
   <ele>402.00</ele>
   <time>2014-04-09T10:33:01Z</time>
  </trkpt>
  <trkpt lat="33.796480" lon="-5.999592">
   <ele>403.00</ele>
   <time>2014-04-09T10:33:02Z</time>
  </trkpt>
  <trkpt lat="33.796648" lon="-5.999814">
   <ele>404.00</ele>
   <time>2014-04-09T10:33:03Z</time>
  </trkpt>
  <trkpt lat="33.796808" lon="-6.000046">
   <ele>405.00</ele>
   <time>2014-04-09T10:33:04Z</time>
  </trkpt>
  <trkpt lat="33.796959" lon="-6.000285">
   <ele>406.00</ele>
   <time>2014-04-09T10:33:05Z</time>
  </trkpt>
  <trkpt lat="33.797100" lon="-6.000533">
   <ele>407.00</ele>
   <time>2014-04-09T10:33:06Z</time>
  </trkpt>
  <trkpt lat="33.797231" lon="-6.000790">
   <ele>408.00</ele>
   <time>2014-04-09T10:33:07Z</time>
  </trkpt>
  <trkpt lat="33.797350" lon="-6.001056">
   <ele>409.00</ele>
   <time>2014-04-09T10:33:08Z</time>
  </trkpt>
  <trkpt lat="33.797457" lon="-6.001331">
   <ele>410.00</ele>
   <time>2014-04-09T10:33:09Z</time>
  </trkpt>
  <trkpt lat="33.797553" lon="-6.001612">
   <ele>411.00</ele>
   <time>2014-04-09T10:33:10Z</time>
  </trkpt>
  <trkpt lat="33.797636" lon="-6.001899">
   <ele>412.00</ele>
   <time>2014-04-09T10:33:11Z</time>
  </trkpt>
  <trkpt lat="33.797709" lon="-6.002192">
   <ele>413.00</ele>
   <time>2014-04-09T10:33:12Z</time>
  </trkpt>
  <trkpt lat="33.797773" lon="-6.002488">
   <ele>414.00</ele>
   <time>2014-04-09T10:33:13Z</time>
  </trkpt>
  <trkpt lat="33.797875" lon="-6.003088">
   <ele>416.00</ele>
   <time>2014-04-09T10:33:15Z</time>
  </trkpt>
  <trkpt lat="33.797913" lon="-6.003391">
   <ele>418.00</ele>
   <time>2014-04-09T10:33:16Z</time>
  </trkpt>
  <trkpt lat="33.797940" lon="-6.003696">
   <ele>419.00</ele>
   <time>2014-04-09T10:33:17Z</time>
  </trkpt>
  <trkpt lat="33.797954" lon="-6.004002">
   <ele>420.00</ele>
   <time>2014-04-09T10:33:18Z</time>
  </trkpt>
  <trkpt lat="33.797954" lon="-6.004308">
   <ele>421.00</ele>
   <time>2014-04-09T10:33:19Z</time>
  </trkpt>
  <trkpt lat="33.797943" lon="-6.004614">
   <ele>422.00</ele>
   <time>2014-04-09T10:33:20Z</time>
  </trkpt>
  <trkpt lat="33.797918" lon="-6.004919">
   <ele>424.00</ele>
   <time>2014-04-09T10:33:21Z</time>
  </trkpt>
  <trkpt lat="33.797882" lon="-6.005223">
   <ele>425.00</ele>
   <time>2014-04-09T10:33:22Z</time>
  </trkpt>
  <trkpt lat="33.797787" lon="-6.005827">
   <ele>427.00</ele>
   <time>2014-04-09T10:33:24Z</time>
  </trkpt>
  <trkpt lat="33.797602" lon="-6.007028">
   <ele>433.00</ele>
   <time>2014-04-09T10:33:28Z</time>
  </trkpt>
  <trkpt lat="33.797545" lon="-6.007631">
   <ele>435.00</ele>
   <time>2014-04-09T10:33:30Z</time>
  </trkpt>
  <trkpt lat="33.797519" lon="-6.008233">
   <ele>437.00</ele>
   <time>2014-04-09T10:33:32Z</time>
  </trkpt>
  <trkpt lat="33.797521" lon="-6.008533">
   <ele>439.00</ele>
   <time>2014-04-09T10:33:33Z</time>
  </trkpt>
  <trkpt lat="33.797552" lon="-6.009132">
   <ele>441.00</ele>
   <time>2014-04-09T10:33:35Z</time>
  </trkpt>
  <trkpt lat="33.797615" lon="-6.009728">
   <ele>443.00</ele>
   <time>2014-04-09T10:33:37Z</time>
  </trkpt>
  <trkpt lat="33.797709" lon="-6.010319">
   <ele>445.00</ele>
   <time>2014-04-09T10:33:39Z</time>
  </trkpt>
  <trkpt lat="33.797836" lon="-6.010897">
   <ele>447.00</ele>
   <time>2014-04-09T10:33:41Z</time>
  </trkpt>
  <trkpt lat="33.797994" lon="-6.011459">
   <ele>449.00</ele>
   <time>2014-04-09T10:33:43Z</time>
  </trkpt>
  <trkpt lat="33.798731" lon="-6.013649">
   <ele>457.00</ele>
   <time>2014-04-09T10:33:51Z</time>
  </trkpt>
  <trkpt lat="33.800198" lon="-6.017988">
   <ele>471.00</ele>
   <time>2014-04-09T10:34:07Z</time>
  </trkpt>
  <trkpt lat="33.801659" lon="-6.022334">
   <ele>480.00</ele>
   <time>2014-04-09T10:34:23Z</time>
  </trkpt>
  <trkpt lat="33.802184" lon="-6.023988">
   <ele>482.00</ele>
   <time>2014-04-09T10:34:29Z</time>
  </trkpt>
  <trkpt lat="33.802585" lon="-6.025408">
   <ele>483.00</ele>
   <time>2014-04-09T10:34:34Z</time>
  </trkpt>
  <trkpt lat="33.802730" lon="-6.025994">
   <ele>483.00</ele>
   <time>2014-04-09T10:34:36Z</time>
  </trkpt>
  <trkpt lat="33.802854" lon="-6.026583">
   <ele>483.00</ele>
   <time>2014-04-09T10:34:38Z</time>
  </trkpt>
  <trkpt lat="33.803116" lon="-6.028066">
   <ele>484.00</ele>
   <time>2014-04-09T10:34:43Z</time>
  </trkpt>
  <trkpt lat="33.803245" lon="-6.028980">
   <ele>483.00</ele>
   <time>2014-04-09T10:34:46Z</time>
  </trkpt>
  <trkpt lat="33.803412" lon="-6.030512">
   <ele>482.00</ele>
   <time>2014-04-09T10:34:51Z</time>
  </trkpt>
  <trkpt lat="33.803477" lon="-6.031446">
   <ele>482.00</ele>
   <time>2014-04-09T10:34:54Z</time>
  </trkpt>
  <trkpt lat="33.803520" lon="-6.032707">
   <ele>481.00</ele>
   <time>2014-04-09T10:34:58Z</time>
  </trkpt>
  <trkpt lat="33.803522" lon="-6.033661">
   <ele>481.00</ele>
   <time>2014-04-09T10:35:01Z</time>
  </trkpt>
  <trkpt lat="33.803491" lon="-6.034618">
   <ele>480.00</ele>
   <time>2014-04-09T10:35:04Z</time>
  </trkpt>
  <trkpt lat="33.803429" lon="-6.035575">
   <ele>480.00</ele>
   <time>2014-04-09T10:35:07Z</time>
  </trkpt>
  <trkpt lat="33.803308" lon="-6.036843">
   <ele>478.00</ele>
   <time>2014-04-09T10:35:11Z</time>
  </trkpt>
  <trkpt lat="33.803183" lon="-6.037787">
   <ele>478.00</ele>
   <time>2014-04-09T10:35:14Z</time>
  </trkpt>
  <trkpt lat="33.802915" lon="-6.039354">
   <ele>476.00</ele>
   <time>2014-04-09T10:35:19Z</time>
  </trkpt>
  <trkpt lat="33.802715" lon="-6.040294">
   <ele>476.00</ele>
   <time>2014-04-09T10:35:22Z</time>
  </trkpt>
  <trkpt lat="33.802391" lon="-6.041541">
   <ele>474.00</ele>
   <time>2014-04-09T10:35:26Z</time>
  </trkpt>
  <trkpt lat="33.801194" lon="-6.045890">
   <ele>470.00</ele>
   <time>2014-04-09T10:35:40Z</time>
  </trkpt>
  <trkpt lat="33.800916" lon="-6.047163">
   <ele>469.00</ele>
   <time>2014-04-09T10:35:44Z</time>
  </trkpt>
  <trkpt lat="33.800741" lon="-6.048120">
   <ele>468.00</ele>
   <time>2014-04-09T10:35:47Z</time>
  </trkpt>
  <trkpt lat="33.800551" lon="-6.049418">
   <ele>467.00</ele>
   <time>2014-04-09T10:35:51Z</time>
  </trkpt>
  <trkpt lat="33.800446" lon="-6.050398">
   <ele>466.00</ele>
   <time>2014-04-09T10:35:54Z</time>
  </trkpt>
  <trkpt lat="33.800372" lon="-6.051383">
   <ele>466.00</ele>
   <time>2014-04-09T10:35:57Z</time>
  </trkpt>
  <trkpt lat="33.800320" lon="-6.052705">
   <ele>464.00</ele>
   <time>2014-04-09T10:36:01Z</time>
  </trkpt>
  <trkpt lat="33.800314" lon="-6.054038">
   <ele>463.00</ele>
   <time>2014-04-09T10:36:05Z</time>
  </trkpt>
  <trkpt lat="33.800335" lon="-6.057731">
   <ele>460.00</ele>
   <time>2014-04-09T10:36:16Z</time>
  </trkpt>
  <trkpt lat="33.800288" lon="-6.059075">
   <ele>459.00</ele>
   <time>2014-04-09T10:36:20Z</time>
  </trkpt>
  <trkpt lat="33.800186" lon="-6.060410">
   <ele>458.00</ele>
   <time>2014-04-09T10:36:24Z</time>
  </trkpt>
  <trkpt lat="33.800075" lon="-6.061400">
   <ele>458.00</ele>
   <time>2014-04-09T10:36:27Z</time>
  </trkpt>
  <trkpt lat="33.799887" lon="-6.062700">
   <ele>458.00</ele>
   <time>2014-04-09T10:36:31Z</time>
  </trkpt>
  <trkpt lat="33.799527" lon="-6.064622">
   <ele>459.00</ele>
   <time>2014-04-09T10:36:37Z</time>
  </trkpt>
  <trkpt lat="33.798567" lon="-6.069423">
   <ele>462.00</ele>
   <time>2014-04-09T10:36:52Z</time>
  </trkpt>
  <trkpt lat="33.798129" lon="-6.071708">
   <ele>463.00</ele>
   <time>2014-04-09T10:36:59Z</time>
  </trkpt>
  <trkpt lat="33.798041" lon="-6.072368">
   <ele>464.00</ele>
   <time>2014-04-09T10:37:01Z</time>
  </trkpt>
  <trkpt lat="33.797983" lon="-6.073029">
   <ele>464.00</ele>
   <time>2014-04-09T10:37:03Z</time>
  </trkpt>
  <trkpt lat="33.797953" lon="-6.073690">
   <ele>465.00</ele>
   <time>2014-04-09T10:37:05Z</time>
  </trkpt>
  <trkpt lat="33.797950" lon="-6.074353">
   <ele>465.00</ele>
   <time>2014-04-09T10:37:07Z</time>
  </trkpt>
  <trkpt lat="33.797973" lon="-6.075015">
   <ele>465.00</ele>
   <time>2014-04-09T10:37:09Z</time>
  </trkpt>
  <trkpt lat="33.798029" lon="-6.075677">
   <ele>465.00</ele>
   <time>2014-04-09T10:37:11Z</time>
  </trkpt>
  <trkpt lat="33.798114" lon="-6.076335">
   <ele>466.00</ele>
   <time>2014-04-09T10:37:13Z</time>
  </trkpt>
  <trkpt lat="33.798227" lon="-6.076987">
   <ele>466.00</ele>
   <time>2014-04-09T10:37:15Z</time>
  </trkpt>
  <trkpt lat="33.798363" lon="-6.077629">
   <ele>466.00</ele>
   <time>2014-04-09T10:37:17Z</time>
  </trkpt>
  <trkpt lat="33.798600" lon="-6.078559">
   <ele>466.00</ele>
   <time>2014-04-09T10:37:20Z</time>
  </trkpt>
  <trkpt lat="33.799770" lon="-6.083098">
   <ele>467.00</ele>
   <time>2014-04-09T10:37:35Z</time>
  </trkpt>
  <trkpt lat="33.800263" lon="-6.084955">
   <ele>466.00</ele>
   <time>2014-04-09T10:37:41Z</time>
  </trkpt>
  <trkpt lat="33.800457" lon="-6.085568">
   <ele>466.00</ele>
   <time>2014-04-09T10:37:43Z</time>
  </trkpt>
  <trkpt lat="33.800795" lon="-6.086466">
   <ele>465.00</ele>
   <time>2014-04-09T10:37:46Z</time>
  </trkpt>
  <trkpt lat="33.801049" lon="-6.087050">
   <ele>465.00</ele>
   <time>2014-04-09T10:37:48Z</time>
  </trkpt>
  <trkpt lat="33.801331" lon="-6.087613">
   <ele>465.00</ele>
   <time>2014-04-09T10:37:50Z</time>
  </trkpt>
  <trkpt lat="33.801635" lon="-6.088157">
   <ele>464.00</ele>
   <time>2014-04-09T10:37:52Z</time>
  </trkpt>
  <trkpt lat="33.801959" lon="-6.088682">
   <ele>464.00</ele>
   <time>2014-04-09T10:37:54Z</time>
  </trkpt>
  <trkpt lat="33.802304" lon="-6.089185">
   <ele>464.00</ele>
   <time>2014-04-09T10:37:56Z</time>
  </trkpt>
  <trkpt lat="33.802673" lon="-6.089666">
   <ele>463.00</ele>
   <time>2014-04-09T10:37:58Z</time>
  </trkpt>
  <trkpt lat="33.803062" lon="-6.090124">
   <ele>463.00</ele>
   <time>2014-04-09T10:38:00Z</time>
  </trkpt>
  <trkpt lat="33.803471" lon="-6.090557">
   <ele>462.00</ele>
   <time>2014-04-09T10:38:02Z</time>
  </trkpt>
  <trkpt lat="33.803900" lon="-6.090963">
   <ele>462.00</ele>
   <time>2014-04-09T10:38:04Z</time>
  </trkpt>
  <trkpt lat="33.804342" lon="-6.091349">
   <ele>462.00</ele>
   <time>2014-04-09T10:38:06Z</time>
  </trkpt>
  <trkpt lat="33.804799" lon="-6.091708">
   <ele>461.00</ele>
   <time>2014-04-09T10:38:08Z</time>
  </trkpt>
  <trkpt lat="33.805276" lon="-6.092034">
   <ele>461.00</ele>
   <time>2014-04-09T10:38:10Z</time>
  </trkpt>
  <trkpt lat="33.805765" lon="-6.092334">
   <ele>460.00</ele>
   <time>2014-04-09T10:38:12Z</time>
  </trkpt>
  <trkpt lat="33.806264" lon="-6.092611">
   <ele>460.00</ele>
   <time>2014-04-09T10:38:14Z</time>
  </trkpt>
  <trkpt lat="33.809510" lon="-6.094370">
   <ele>458.00</ele>
   <time>2014-04-09T10:38:27Z</time>
  </trkpt>
  <trkpt lat="33.810241" lon="-6.094829">
   <ele>458.00</ele>
   <time>2014-04-09T10:38:30Z</time>
  </trkpt>
  <trkpt lat="33.810717" lon="-6.095157">
   <ele>458.00</ele>
   <time>2014-04-09T10:38:32Z</time>
  </trkpt>
  <trkpt lat="33.811409" lon="-6.095682">
   <ele>458.00</ele>
   <time>2014-04-09T10:38:35Z</time>
  </trkpt>
  <trkpt lat="33.811857" lon="-6.096054">
   <ele>457.00</ele>
   <time>2014-04-09T10:38:37Z</time>
  </trkpt>
  <trkpt lat="33.812725" lon="-6.096848">
   <ele>457.00</ele>
   <time>2014-04-09T10:38:41Z</time>
  </trkpt>
  <trkpt lat="33.813356" lon="-6.097484">
   <ele>456.00</ele>
   <time>2014-04-09T10:38:44Z</time>
  </trkpt>
  <trkpt lat="33.813761" lon="-6.097934">
   <ele>455.00</ele>
   <time>2014-04-09T10:38:46Z</time>
  </trkpt>
  <trkpt lat="33.814153" lon="-6.098404">
   <ele>455.00</ele>
   <time>2014-04-09T10:38:48Z</time>
  </trkpt>
  <trkpt lat="33.814719" lon="-6.099140">
   <ele>453.00</ele>
   <time>2014-04-09T10:38:51Z</time>
  </trkpt>
  <trkpt lat="33.815262" lon="-6.099898">
   <ele>452.00</ele>
   <time>2014-04-09T10:38:54Z</time>
  </trkpt>
  <trkpt lat="33.815776" lon="-6.100680">
   <ele>451.00</ele>
   <time>2014-04-09T10:38:57Z</time>
  </trkpt>
  <trkpt lat="33.816258" lon="-6.101485">
   <ele>450.00</ele>
   <time>2014-04-09T10:39:00Z</time>
  </trkpt>
  <trkpt lat="33.816858" lon="-6.102590">
   <ele>449.00</ele>
   <time>2014-04-09T10:39:04Z</time>
  </trkpt>
  <trkpt lat="33.817273" lon="-6.103446">
   <ele>448.00</ele>
   <time>2014-04-09T10:39:07Z</time>
  </trkpt>
  <trkpt lat="33.817530" lon="-6.104030">
   <ele>447.00</ele>
   <time>2014-04-09T10:39:09Z</time>
  </trkpt>
  <trkpt lat="33.817767" lon="-6.104625">
   <ele>447.00</ele>
   <time>2014-04-09T10:39:11Z</time>
  </trkpt>
  <trkpt lat="33.818096" lon="-6.105533">
   <ele>446.00</ele>
   <time>2014-04-09T10:39:14Z</time>
  </trkpt>
  <trkpt lat="33.818371" lon="-6.106488">
   <ele>445.00</ele>
   <time>2014-04-09T10:39:17Z</time>
  </trkpt>
  <trkpt lat="33.818630" lon="-6.107438">
   <ele>444.00</ele>
   <time>2014-04-09T10:39:20Z</time>
  </trkpt>
  <trkpt lat="33.818783" lon="-6.108081">
   <ele>443.00</ele>
   <time>2014-04-09T10:39:22Z</time>
  </trkpt>
  <trkpt lat="33.818978" lon="-6.109060">
   <ele>442.00</ele>
   <time>2014-04-09T10:39:25Z</time>
  </trkpt>
  <trkpt lat="33.819085" lon="-6.109722">
   <ele>441.00</ele>
   <time>2014-04-09T10:39:27Z</time>
  </trkpt>
  <trkpt lat="33.819170" lon="-6.110388">
   <ele>440.00</ele>
   <time>2014-04-09T10:39:29Z</time>
  </trkpt>
  <trkpt lat="33.819269" lon="-6.111390">
   <ele>439.00</ele>
   <time>2014-04-09T10:39:32Z</time>
  </trkpt>
  <trkpt lat="33.819354" lon="-6.112727">
   <ele>438.00</ele>
   <time>2014-04-09T10:39:36Z</time>
  </trkpt>
  <trkpt lat="33.819392" lon="-6.114058">
   <ele>437.00</ele>
   <time>2014-04-09T10:39:40Z</time>
  </trkpt>
  <trkpt lat="33.819385" lon="-6.114721">
   <ele>436.00</ele>
   <time>2014-04-09T10:39:42Z</time>
  </trkpt>
  <trkpt lat="33.819355" lon="-6.115381">
   <ele>435.00</ele>
   <time>2014-04-09T10:39:44Z</time>
  </trkpt>
  <trkpt lat="33.819275" lon="-6.116369">
   <ele>434.00</ele>
   <time>2014-04-09T10:39:47Z</time>
  </trkpt>
  <trkpt lat="33.818746" lon="-6.121308">
   <ele>429.00</ele>
   <time>2014-04-09T10:40:02Z</time>
  </trkpt>
  <trkpt lat="33.818203" lon="-6.126297">
   <ele>424.00</ele>
   <time>2014-04-09T10:40:17Z</time>
  </trkpt>
  <trkpt lat="33.818109" lon="-6.127281">
   <ele>424.00</ele>
   <time>2014-04-09T10:40:20Z</time>
  </trkpt>
  <trkpt lat="33.818031" lon="-6.128600">
   <ele>424.00</ele>
   <time>2014-04-09T10:40:24Z</time>
  </trkpt>
  <trkpt lat="33.817983" lon="-6.130265">
   <ele>424.00</ele>
   <time>2014-04-09T10:40:29Z</time>
  </trkpt>
  <trkpt lat="33.817993" lon="-6.131599">
   <ele>424.00</ele>
   <time>2014-04-09T10:40:33Z</time>
  </trkpt>
  <trkpt lat="33.818052" lon="-6.133245">
   <ele>425.00</ele>
   <time>2014-04-09T10:40:38Z</time>
  </trkpt>
  <trkpt lat="33.818143" lon="-6.134555">
   <ele>425.00</ele>
   <time>2014-04-09T10:40:42Z</time>
  </trkpt>
  <trkpt lat="33.818354" lon="-6.136521">
   <ele>426.00</ele>
   <time>2014-04-09T10:40:48Z</time>
  </trkpt>
  <trkpt lat="33.818850" lon="-6.141178">
   <ele>423.00</ele>
   <time>2014-04-09T10:41:02Z</time>
  </trkpt>
  <trkpt lat="33.818967" lon="-6.143153">
   <ele>421.00</ele>
   <time>2014-04-09T10:41:08Z</time>
  </trkpt>
  <trkpt lat="33.819026" lon="-6.145114">
   <ele>419.00</ele>
   <time>2014-04-09T10:41:14Z</time>
  </trkpt>
  <trkpt lat="33.819002" lon="-6.148048">
   <ele>416.00</ele>
   <time>2014-04-09T10:41:23Z</time>
  </trkpt>
  <trkpt lat="33.818933" lon="-6.151961">
   <ele>415.00</ele>
   <time>2014-04-09T10:41:35Z</time>
  </trkpt>
  <trkpt lat="33.818965" lon="-6.153271">
   <ele>416.00</ele>
   <time>2014-04-09T10:41:39Z</time>
  </trkpt>
  <trkpt lat="33.819056" lon="-6.154890">
   <ele>418.00</ele>
   <time>2014-04-09T10:41:44Z</time>
  </trkpt>
  <trkpt lat="33.819171" lon="-6.156163">
   <ele>420.00</ele>
   <time>2014-04-09T10:41:48Z</time>
  </trkpt>
  <trkpt lat="33.819364" lon="-6.157724">
   <ele>422.00</ele>
   <time>2014-04-09T10:41:53Z</time>
  </trkpt>
  <trkpt lat="33.819607" lon="-6.159257">
   <ele>425.00</ele>
   <time>2014-04-09T10:41:58Z</time>
  </trkpt>
  <trkpt lat="33.820419" lon="-6.163842">
   <ele>433.00</ele>
   <time>2014-04-09T10:42:13Z</time>
  </trkpt>
  <trkpt lat="33.820571" lon="-6.165082">
   <ele>435.00</ele>
   <time>2014-04-09T10:42:17Z</time>
  </trkpt>
  <trkpt lat="33.820678" lon="-6.166334">
   <ele>437.00</ele>
   <time>2014-04-09T10:42:21Z</time>
  </trkpt>
  <trkpt lat="33.820745" lon="-6.167592">
   <ele>439.00</ele>
   <time>2014-04-09T10:42:25Z</time>
  </trkpt>
  <trkpt lat="33.820777" lon="-6.169173">
   <ele>442.00</ele>
   <time>2014-04-09T10:42:30Z</time>
  </trkpt>
  <trkpt lat="33.820752" lon="-6.170444">
   <ele>444.00</ele>
   <time>2014-04-09T10:42:34Z</time>
  </trkpt>
  <trkpt lat="33.820701" lon="-6.171400">
   <ele>446.00</ele>
   <time>2014-04-09T10:42:37Z</time>
  </trkpt>
  <trkpt lat="33.820356" lon="-6.175909">
   <ele>448.00</ele>
   <time>2014-04-09T10:42:51Z</time>
  </trkpt>
  <trkpt lat="33.820345" lon="-6.177553">
   <ele>447.00</ele>
   <time>2014-04-09T10:42:56Z</time>
  </trkpt>
  <trkpt lat="33.820373" lon="-6.178879">
   <ele>446.00</ele>
   <time>2014-04-09T10:43:00Z</time>
  </trkpt>
  <trkpt lat="33.820426" lon="-6.179871">
   <ele>445.00</ele>
   <time>2014-04-09T10:43:03Z</time>
  </trkpt>
  <trkpt lat="33.820715" lon="-6.183152">
   <ele>443.00</ele>
   <time>2014-04-09T10:43:13Z</time>
  </trkpt>
  <trkpt lat="33.821164" lon="-6.188043">
   <ele>440.00</ele>
   <time>2014-04-09T10:43:28Z</time>
  </trkpt>
  <trkpt lat="33.821619" lon="-6.192984">
   <ele>437.00</ele>
   <time>2014-04-09T10:43:43Z</time>
  </trkpt>
  <trkpt lat="33.822098" lon="-6.198247">
   <ele>434.00</ele>
   <time>2014-04-09T10:43:59Z</time>
  </trkpt>
  <trkpt lat="33.822538" lon="-6.203150">
   <ele>432.00</ele>
   <time>2014-04-09T10:44:14Z</time>
  </trkpt>
  <trkpt lat="33.822979" lon="-6.208133">
   <ele>429.00</ele>
   <time>2014-04-09T10:44:29Z</time>
  </trkpt>
  <trkpt lat="33.823480" lon="-6.213423">
   <ele>427.00</ele>
   <time>2014-04-09T10:44:45Z</time>
  </trkpt>
  <trkpt lat="33.823790" lon="-6.216038">
   <ele>426.00</ele>
   <time>2014-04-09T10:44:53Z</time>
  </trkpt>
  <trkpt lat="33.823893" lon="-6.216690">
   <ele>425.00</ele>
   <time>2014-04-09T10:44:55Z</time>
  </trkpt>
  <trkpt lat="33.824016" lon="-6.217341">
   <ele>425.00</ele>
   <time>2014-04-09T10:44:57Z</time>
  </trkpt>
  <trkpt lat="33.824240" lon="-6.218312">
   <ele>425.00</ele>
   <time>2014-04-09T10:45:00Z</time>
  </trkpt>
  <trkpt lat="33.824407" lon="-6.218958">
   <ele>424.00</ele>
   <time>2014-04-09T10:45:02Z</time>
  </trkpt>
  <trkpt lat="33.824692" lon="-6.219914">
   <ele>423.00</ele>
   <time>2014-04-09T10:45:05Z</time>
  </trkpt>
  <trkpt lat="33.825221" lon="-6.221475">
   <ele>422.00</ele>
   <time>2014-04-09T10:45:10Z</time>
  </trkpt>
  <trkpt lat="33.825570" lon="-6.222390">
   <ele>422.00</ele>
   <time>2014-04-09T10:45:13Z</time>
  </trkpt>
  <trkpt lat="33.825949" lon="-6.223286">
   <ele>421.00</ele>
   <time>2014-04-09T10:45:16Z</time>
  </trkpt>
  <trkpt lat="33.826351" lon="-6.224165">
   <ele>421.00</ele>
   <time>2014-04-09T10:45:19Z</time>
  </trkpt>
  <trkpt lat="33.826779" lon="-6.225019">
   <ele>420.00</ele>
   <time>2014-04-09T10:45:22Z</time>
  </trkpt>
  <trkpt lat="33.827232" lon="-6.225850">
   <ele>420.00</ele>
   <time>2014-04-09T10:45:25Z</time>
  </trkpt>
  <trkpt lat="33.827876" lon="-6.226927">
   <ele>420.00</ele>
   <time>2014-04-09T10:45:29Z</time>
  </trkpt>
  <trkpt lat="33.828386" lon="-6.227709">
   <ele>420.00</ele>
   <time>2014-04-09T10:45:32Z</time>
  </trkpt>
  <trkpt lat="33.829105" lon="-6.228720">
   <ele>420.00</ele>
   <time>2014-04-09T10:45:36Z</time>
  </trkpt>
  <trkpt lat="33.829670" lon="-6.229451">
   <ele>419.00</ele>
   <time>2014-04-09T10:45:39Z</time>
  </trkpt>
  <trkpt lat="33.830258" lon="-6.230157">
   <ele>419.00</ele>
   <time>2014-04-09T10:45:42Z</time>
  </trkpt>
  <trkpt lat="33.831078" lon="-6.231058">
   <ele>419.00</ele>
   <time>2014-04-09T10:45:46Z</time>
  </trkpt>
  <trkpt lat="33.834217" lon="-6.234319">
   <ele>417.00</ele>
   <time>2014-04-09T10:46:01Z</time>
  </trkpt>
  <trkpt lat="33.837347" lon="-6.237569">
   <ele>413.00</ele>
   <time>2014-04-09T10:46:16Z</time>
  </trkpt>
  <trkpt lat="33.840681" lon="-6.241029">
   <ele>409.00</ele>
   <time>2014-04-09T10:46:32Z</time>
  </trkpt>
  <trkpt lat="33.841710" lon="-6.242136">
   <ele>407.00</ele>
   <time>2014-04-09T10:46:37Z</time>
  </trkpt>
  <trkpt lat="33.842302" lon="-6.242834">
   <ele>406.00</ele>
   <time>2014-04-09T10:46:40Z</time>
  </trkpt>
  <trkpt lat="33.842679" lon="-6.243321">
   <ele>406.00</ele>
   <time>2014-04-09T10:46:42Z</time>
  </trkpt>
  <trkpt lat="33.843042" lon="-6.243826">
   <ele>405.00</ele>
   <time>2014-04-09T10:46:44Z</time>
  </trkpt>
  <trkpt lat="33.843558" lon="-6.244600">
   <ele>405.00</ele>
   <time>2014-04-09T10:46:47Z</time>
  </trkpt>
  <trkpt lat="33.844039" lon="-6.245400">
   <ele>404.00</ele>
   <time>2014-04-09T10:46:50Z</time>
  </trkpt>
  <trkpt lat="33.844339" lon="-6.245950">
   <ele>403.00</ele>
   <time>2014-04-09T10:46:52Z</time>
  </trkpt>
  <trkpt lat="33.844758" lon="-6.246798">
   <ele>403.00</ele>
   <time>2014-04-09T10:46:55Z</time>
  </trkpt>
  <trkpt lat="33.845139" lon="-6.247668">
   <ele>402.00</ele>
   <time>2014-04-09T10:46:58Z</time>
  </trkpt>
  <trkpt lat="33.845483" lon="-6.248559">
   <ele>401.00</ele>
   <time>2014-04-09T10:47:01Z</time>
  </trkpt>
  <trkpt lat="33.845691" lon="-6.249164">
   <ele>401.00</ele>
   <time>2014-04-09T10:47:03Z</time>
  </trkpt>
  <trkpt lat="33.845976" lon="-6.250089">
   <ele>400.00</ele>
   <time>2014-04-09T10:47:06Z</time>
  </trkpt>
  <trkpt lat="33.846145" lon="-6.250716">
   <ele>400.00</ele>
   <time>2014-04-09T10:47:08Z</time>
  </trkpt>
  <trkpt lat="33.846363" lon="-6.251669">
   <ele>399.00</ele>
   <time>2014-04-09T10:47:11Z</time>
  </trkpt>
  <trkpt lat="33.846486" lon="-6.252310">
   <ele>399.00</ele>
   <time>2014-04-09T10:47:13Z</time>
  </trkpt>
  <trkpt lat="33.846636" lon="-6.253277">
   <ele>399.00</ele>
   <time>2014-04-09T10:47:16Z</time>
  </trkpt>
  <trkpt lat="33.846710" lon="-6.253924">
   <ele>399.00</ele>
   <time>2014-04-09T10:47:18Z</time>
  </trkpt>
  <trkpt lat="33.846764" lon="-6.254570">
   <ele>399.00</ele>
   <time>2014-04-09T10:47:20Z</time>
  </trkpt>
  <trkpt lat="33.846798" lon="-6.255213">
   <ele>400.00</ele>
   <time>2014-04-09T10:47:22Z</time>
  </trkpt>
  <trkpt lat="33.846823" lon="-6.256166">
   <ele>400.00</ele>
   <time>2014-04-09T10:47:25Z</time>
  </trkpt>
  <trkpt lat="33.846813" lon="-6.256797">
   <ele>400.00</ele>
   <time>2014-04-09T10:47:27Z</time>
  </trkpt>
  <trkpt lat="33.846676" lon="-6.260561">
   <ele>401.00</ele>
   <time>2014-04-09T10:47:39Z</time>
  </trkpt>
  <trkpt lat="33.846698" lon="-6.261829">
   <ele>402.00</ele>
   <time>2014-04-09T10:47:43Z</time>
  </trkpt>
  <trkpt lat="33.846731" lon="-6.262466">
   <ele>402.00</ele>
   <time>2014-04-09T10:47:45Z</time>
  </trkpt>
  <trkpt lat="33.846837" lon="-6.263737">
   <ele>402.00</ele>
   <time>2014-04-09T10:47:49Z</time>
  </trkpt>
  <trkpt lat="33.846912" lon="-6.264370">
   <ele>402.00</ele>
   <time>2014-04-09T10:47:51Z</time>
  </trkpt>
  <trkpt lat="33.847057" lon="-6.265313">
   <ele>402.00</ele>
   <time>2014-04-09T10:47:54Z</time>
  </trkpt>
  <trkpt lat="33.847239" lon="-6.266249">
   <ele>402.00</ele>
   <time>2014-04-09T10:47:57Z</time>
  </trkpt>
  <trkpt lat="33.847458" lon="-6.267176">
   <ele>402.00</ele>
   <time>2014-04-09T10:48:00Z</time>
  </trkpt>
  <trkpt lat="33.847710" lon="-6.268096">
   <ele>401.00</ele>
   <time>2014-04-09T10:48:03Z</time>
  </trkpt>
  <trkpt lat="33.848001" lon="-6.269006">
   <ele>400.00</ele>
   <time>2014-04-09T10:48:06Z</time>
  </trkpt>
  <trkpt lat="33.849612" lon="-6.273495">
   <ele>397.00</ele>
   <time>2014-04-09T10:48:21Z</time>
  </trkpt>
  <trkpt lat="33.850192" lon="-6.275323">
   <ele>396.00</ele>
   <time>2014-04-09T10:48:27Z</time>
  </trkpt>
  <trkpt lat="33.850883" lon="-6.277794">
   <ele>395.00</ele>
   <time>2014-04-09T10:48:35Z</time>
  </trkpt>
  <trkpt lat="33.851408" lon="-6.280000">
   <ele>394.00</ele>
   <time>2014-04-09T10:48:42Z</time>
  </trkpt>
  <trkpt lat="33.851839" lon="-6.282235">
   <ele>393.00</ele>
   <time>2014-04-09T10:48:49Z</time>
  </trkpt>
  <trkpt lat="33.851990" lon="-6.283190">
   <ele>393.00</ele>
   <time>2014-04-09T10:48:52Z</time>
  </trkpt>
  <trkpt lat="33.852537" lon="-6.287319">
   <ele>392.00</ele>
   <time>2014-04-09T10:49:05Z</time>
  </trkpt>
  <trkpt lat="33.852655" lon="-6.288602">
   <ele>392.00</ele>
   <time>2014-04-09T10:49:09Z</time>
  </trkpt>
  <trkpt lat="33.852778" lon="-6.290542">
   <ele>390.00</ele>
   <time>2014-04-09T10:49:15Z</time>
  </trkpt>
  <trkpt lat="33.852998" lon="-6.295459">
   <ele>386.00</ele>
   <time>2014-04-09T10:49:30Z</time>
  </trkpt>
  <trkpt lat="33.853108" lon="-6.296441">
   <ele>385.00</ele>
   <time>2014-04-09T10:49:33Z</time>
  </trkpt>
  <trkpt lat="33.853259" lon="-6.297414">
   <ele>383.00</ele>
   <time>2014-04-09T10:49:36Z</time>
  </trkpt>
  <trkpt lat="33.853441" lon="-6.298383">
   <ele>381.00</ele>
   <time>2014-04-09T10:49:39Z</time>
  </trkpt>
  <trkpt lat="33.853584" lon="-6.299026">
   <ele>379.00</ele>
   <time>2014-04-09T10:49:41Z</time>
  </trkpt>
  <trkpt lat="33.853836" lon="-6.299982">
   <ele>376.00</ele>
   <time>2014-04-09T10:49:44Z</time>
  </trkpt>
  <trkpt lat="33.854125" lon="-6.300922">
   <ele>373.00</ele>
   <time>2014-04-09T10:49:47Z</time>
  </trkpt>
  <trkpt lat="33.854447" lon="-6.301836">
   <ele>370.00</ele>
   <time>2014-04-09T10:49:50Z</time>
  </trkpt>
  <trkpt lat="33.854801" lon="-6.302722">
   <ele>368.00</ele>
   <time>2014-04-09T10:49:53Z</time>
  </trkpt>
  <trkpt lat="33.855185" lon="-6.303585">
   <ele>368.00</ele>
   <time>2014-04-09T10:49:56Z</time>
  </trkpt>
  <trkpt lat="33.855456" lon="-6.304144">
   <ele>368.00</ele>
   <time>2014-04-09T10:49:58Z</time>
  </trkpt>
  <trkpt lat="33.855889" lon="-6.304954">
   <ele>369.00</ele>
   <time>2014-04-09T10:50:01Z</time>
  </trkpt>
  <trkpt lat="33.856349" lon="-6.305739">
   <ele>370.00</ele>
   <time>2014-04-09T10:50:04Z</time>
  </trkpt>
  <trkpt lat="33.856839" lon="-6.306497">
   <ele>371.00</ele>
   <time>2014-04-09T10:50:07Z</time>
  </trkpt>
  <trkpt lat="33.857357" lon="-6.307233">
   <ele>373.00</ele>
   <time>2014-04-09T10:50:10Z</time>
  </trkpt>
  <trkpt lat="33.857904" lon="-6.307947">
   <ele>374.00</ele>
   <time>2014-04-09T10:50:13Z</time>
  </trkpt>
  <trkpt lat="33.858477" lon="-6.308634">
   <ele>375.00</ele>
   <time>2014-04-09T10:50:16Z</time>
  </trkpt>
  <trkpt lat="33.859077" lon="-6.309287">
   <ele>377.00</ele>
   <time>2014-04-09T10:50:19Z</time>
  </trkpt>
  <trkpt lat="33.859701" lon="-6.309904">
   <ele>378.00</ele>
   <time>2014-04-09T10:50:22Z</time>
  </trkpt>
  <trkpt lat="33.860345" lon="-6.310488">
   <ele>380.00</ele>
   <time>2014-04-09T10:50:25Z</time>
  </trkpt>
  <trkpt lat="33.861010" lon="-6.311039">
   <ele>381.00</ele>
   <time>2014-04-09T10:50:28Z</time>
  </trkpt>
  <trkpt lat="33.861924" lon="-6.311735">
   <ele>383.00</ele>
   <time>2014-04-09T10:50:32Z</time>
  </trkpt>
  <trkpt lat="33.862629" lon="-6.312221">
   <ele>385.00</ele>
   <time>2014-04-09T10:50:35Z</time>
  </trkpt>
  <trkpt lat="33.865492" lon="-6.314160">
   <ele>387.00</ele>
   <time>2014-04-09T10:50:47Z</time>
  </trkpt>
  <trkpt lat="33.866893" lon="-6.315218">
   <ele>386.00</ele>
   <time>2014-04-09T10:50:53Z</time>
  </trkpt>
  <trkpt lat="33.867817" lon="-6.315974">
   <ele>384.00</ele>
   <time>2014-04-09T10:50:57Z</time>
  </trkpt>
  <trkpt lat="33.868716" lon="-6.316777">
   <ele>382.00</ele>
   <time>2014-04-09T10:51:01Z</time>
  </trkpt>
  <trkpt lat="33.870008" lon="-6.318022">
   <ele>378.00</ele>
   <time>2014-04-09T10:51:07Z</time>
  </trkpt>
  <trkpt lat="33.873144" lon="-6.321269">
   <ele>368.00</ele>
   <time>2014-04-09T10:51:22Z</time>
  </trkpt>
  <trkpt lat="33.876448" lon="-6.324692">
   <ele>358.00</ele>
   <time>2014-04-09T10:51:38Z</time>
  </trkpt>
  <trkpt lat="33.879581" lon="-6.327944">
   <ele>348.00</ele>
   <time>2014-04-09T10:51:53Z</time>
  </trkpt>
  <trkpt lat="33.880406" lon="-6.328843">
   <ele>345.00</ele>
   <time>2014-04-09T10:51:57Z</time>
  </trkpt>
  <trkpt lat="33.881198" lon="-6.329790">
   <ele>344.00</ele>
   <time>2014-04-09T10:52:01Z</time>
  </trkpt>
  <trkpt lat="33.881958" lon="-6.330767">
   <ele>343.00</ele>
   <time>2014-04-09T10:52:05Z</time>
  </trkpt>
  <trkpt lat="33.882500" lon="-6.331524">
   <ele>342.00</ele>
   <time>2014-04-09T10:52:08Z</time>
  </trkpt>
  <trkpt lat="33.883355" lon="-6.332825">
   <ele>342.00</ele>
   <time>2014-04-09T10:52:13Z</time>
  </trkpt>
  <trkpt lat="33.884000" lon="-6.333891">
   <ele>343.00</ele>
   <time>2014-04-09T10:52:17Z</time>
  </trkpt>
  <trkpt lat="33.884457" lon="-6.334710">
   <ele>343.00</ele>
   <time>2014-04-09T10:52:20Z</time>
  </trkpt>
  <trkpt lat="33.886644" lon="-6.338877">
   <ele>345.00</ele>
   <time>2014-04-09T10:52:35Z</time>
  </trkpt>
  <trkpt lat="33.888828" lon="-6.343110">
   <ele>341.00</ele>
   <time>2014-04-09T10:52:50Z</time>
  </trkpt>
  <trkpt lat="33.889245" lon="-6.343971">
   <ele>340.00</ele>
   <time>2014-04-09T10:52:53Z</time>
  </trkpt>
  <trkpt lat="33.889629" lon="-6.344850">
   <ele>339.00</ele>
   <time>2014-04-09T10:52:56Z</time>
  </trkpt>
  <trkpt lat="33.890099" lon="-6.346035">
   <ele>337.00</ele>
   <time>2014-04-09T10:53:00Z</time>
  </trkpt>
  <trkpt lat="33.890628" lon="-6.347542">
   <ele>335.00</ele>
   <time>2014-04-09T10:53:05Z</time>
  </trkpt>
  <trkpt lat="33.891005" lon="-6.348775">
   <ele>335.00</ele>
   <time>2014-04-09T10:53:09Z</time>
  </trkpt>
  <trkpt lat="33.891336" lon="-6.350032">
   <ele>336.00</ele>
   <time>2014-04-09T10:53:13Z</time>
  </trkpt>
  <trkpt lat="33.891550" lon="-6.350999">
   <ele>337.00</ele>
   <time>2014-04-09T10:53:16Z</time>
  </trkpt>
  <trkpt lat="33.891864" lon="-6.352647">
   <ele>340.00</ele>
   <time>2014-04-09T10:53:21Z</time>
  </trkpt>
  <trkpt lat="33.892177" lon="-6.354678">
   <ele>341.00</ele>
   <time>2014-04-09T10:53:27Z</time>
  </trkpt>
  <trkpt lat="33.892301" lon="-6.355713">
   <ele>342.00</ele>
   <time>2014-04-09T10:53:30Z</time>
  </trkpt>
  <trkpt lat="33.892388" lon="-6.356757">
   <ele>342.00</ele>
   <time>2014-04-09T10:53:33Z</time>
  </trkpt>
  <trkpt lat="33.892456" lon="-6.358144">
   <ele>341.00</ele>
   <time>2014-04-09T10:53:37Z</time>
  </trkpt>
  <trkpt lat="33.892478" lon="-6.359168">
   <ele>340.00</ele>
   <time>2014-04-09T10:53:40Z</time>
  </trkpt>
  <trkpt lat="33.892462" lon="-6.360525">
   <ele>339.00</ele>
   <time>2014-04-09T10:53:44Z</time>
  </trkpt>
  <trkpt lat="33.892326" lon="-6.364538">
   <ele>337.00</ele>
   <time>2014-04-09T10:53:56Z</time>
  </trkpt>
  <trkpt lat="33.892339" lon="-6.365522">
   <ele>337.00</ele>
   <time>2014-04-09T10:53:59Z</time>
  </trkpt>
  <trkpt lat="33.892387" lon="-6.366499">
   <ele>337.00</ele>
   <time>2014-04-09T10:54:02Z</time>
  </trkpt>
  <trkpt lat="33.892478" lon="-6.367467">
   <ele>337.00</ele>
   <time>2014-04-09T10:54:05Z</time>
  </trkpt>
  <trkpt lat="33.892606" lon="-6.368428">
   <ele>337.00</ele>
   <time>2014-04-09T10:54:08Z</time>
  </trkpt>
  <trkpt lat="33.892771" lon="-6.369384">
   <ele>337.00</ele>
   <time>2014-04-09T10:54:11Z</time>
  </trkpt>
  <trkpt lat="33.892970" lon="-6.370335">
   <ele>337.00</ele>
   <time>2014-04-09T10:54:14Z</time>
  </trkpt>
  <trkpt lat="33.893122" lon="-6.370963">
   <ele>336.00</ele>
   <time>2014-04-09T10:54:16Z</time>
  </trkpt>
  <trkpt lat="33.893294" lon="-6.371585">
   <ele>335.00</ele>
   <time>2014-04-09T10:54:18Z</time>
  </trkpt>
  <trkpt lat="33.893586" lon="-6.372511">
   <ele>333.00</ele>
   <time>2014-04-09T10:54:21Z</time>
  </trkpt>
  <trkpt lat="33.893914" lon="-6.373426">
   <ele>331.00</ele>
   <time>2014-04-09T10:54:24Z</time>
  </trkpt>
  <trkpt lat="33.894281" lon="-6.374326">
   <ele>329.00</ele>
   <time>2014-04-09T10:54:27Z</time>
  </trkpt>
  <trkpt lat="33.894680" lon="-6.375212">
   <ele>326.00</ele>
   <time>2014-04-09T10:54:30Z</time>
  </trkpt>
  <trkpt lat="33.895111" lon="-6.376079">
   <ele>324.00</ele>
   <time>2014-04-09T10:54:33Z</time>
  </trkpt>
  <trkpt lat="33.897025" lon="-6.379803">
   <ele>319.00</ele>
   <time>2014-04-09T10:54:46Z</time>
  </trkpt>
  <trkpt lat="33.897550" lon="-6.380967">
   <ele>320.00</ele>
   <time>2014-04-09T10:54:50Z</time>
  </trkpt>
  <trkpt lat="33.898037" lon="-6.382150">
   <ele>320.00</ele>
   <time>2014-04-09T10:54:54Z</time>
  </trkpt>
  <trkpt lat="33.898599" lon="-6.383663">
   <ele>320.00</ele>
   <time>2014-04-09T10:54:59Z</time>
  </trkpt>
  <trkpt lat="33.899013" lon="-6.384907">
   <ele>319.00</ele>
   <time>2014-04-09T10:55:03Z</time>
  </trkpt>
  <trkpt lat="33.899387" lon="-6.386180">
   <ele>318.00</ele>
   <time>2014-04-09T10:55:07Z</time>
  </trkpt>
  <trkpt lat="33.899805" lon="-6.387797">
   <ele>315.00</ele>
   <time>2014-04-09T10:55:12Z</time>
  </trkpt>
  <trkpt lat="33.900103" lon="-6.389118">
   <ele>312.00</ele>
   <time>2014-04-09T10:55:16Z</time>
  </trkpt>
  <trkpt lat="33.900420" lon="-6.390803">
   <ele>308.00</ele>
   <time>2014-04-09T10:55:21Z</time>
  </trkpt>
  <trkpt lat="33.900670" lon="-6.392486">
   <ele>306.00</ele>
   <time>2014-04-09T10:55:26Z</time>
  </trkpt>
  <trkpt lat="33.901130" lon="-6.395778">
   <ele>308.00</ele>
   <time>2014-04-09T10:55:36Z</time>
  </trkpt>
  <trkpt lat="33.901326" lon="-6.396748">
   <ele>309.00</ele>
   <time>2014-04-09T10:55:39Z</time>
  </trkpt>
  <trkpt lat="33.901482" lon="-6.397386">
   <ele>309.00</ele>
   <time>2014-04-09T10:55:41Z</time>
  </trkpt>
  <trkpt lat="33.901751" lon="-6.398331">
   <ele>309.00</ele>
   <time>2014-04-09T10:55:44Z</time>
  </trkpt>
  <trkpt lat="33.902057" lon="-6.399259">
   <ele>309.00</ele>
   <time>2014-04-09T10:55:47Z</time>
  </trkpt>
  <trkpt lat="33.902286" lon="-6.399866">
   <ele>309.00</ele>
   <time>2014-04-09T10:55:49Z</time>
  </trkpt>
  <trkpt lat="33.902663" lon="-6.400756">
   <ele>308.00</ele>
   <time>2014-04-09T10:55:52Z</time>
  </trkpt>
  <trkpt lat="33.902936" lon="-6.401335">
   <ele>307.00</ele>
   <time>2014-04-09T10:55:54Z</time>
  </trkpt>
  <trkpt lat="33.903375" lon="-6.402178">
   <ele>306.00</ele>
   <time>2014-04-09T10:55:57Z</time>
  </trkpt>
  <trkpt lat="33.903842" lon="-6.402998">
   <ele>305.00</ele>
   <time>2014-04-09T10:56:00Z</time>
  </trkpt>
  <trkpt lat="33.904173" lon="-6.403525">
   <ele>304.00</ele>
   <time>2014-04-09T10:56:02Z</time>
  </trkpt>
  <trkpt lat="33.904697" lon="-6.404290">
   <ele>302.00</ele>
   <time>2014-04-09T10:56:05Z</time>
  </trkpt>
  <trkpt lat="33.906633" lon="-6.407064">
   <ele>297.00</ele>
   <time>2014-04-09T10:56:16Z</time>
  </trkpt>
  <trkpt lat="33.907290" lon="-6.408125">
   <ele>295.00</ele>
   <time>2014-04-09T10:56:20Z</time>
  </trkpt>
  <trkpt lat="33.907753" lon="-6.408945">
   <ele>294.00</ele>
   <time>2014-04-09T10:56:23Z</time>
  </trkpt>
  <trkpt lat="33.908329" lon="-6.410068">
   <ele>292.00</ele>
   <time>2014-04-09T10:56:27Z</time>
  </trkpt>
  <trkpt lat="33.908732" lon="-6.410926">
   <ele>291.00</ele>
   <time>2014-04-09T10:56:30Z</time>
  </trkpt>
  <trkpt lat="33.909103" lon="-6.411802">
   <ele>290.00</ele>
   <time>2014-04-09T10:56:33Z</time>
  </trkpt>
  <trkpt lat="33.909555" lon="-6.412994">
   <ele>288.00</ele>
   <time>2014-04-09T10:56:37Z</time>
  </trkpt>
  <trkpt lat="33.909865" lon="-6.413907">
   <ele>287.00</ele>
   <time>2014-04-09T10:56:40Z</time>
  </trkpt>
  <trkpt lat="33.910148" lon="-6.414837">
   <ele>286.00</ele>
   <time>2014-04-09T10:56:43Z</time>
  </trkpt>
  <trkpt lat="33.910482" lon="-6.416091">
   <ele>284.00</ele>
   <time>2014-04-09T10:56:47Z</time>
  </trkpt>
  <trkpt lat="33.910701" lon="-6.417039">
   <ele>283.00</ele>
   <time>2014-04-09T10:56:50Z</time>
  </trkpt>
  <trkpt lat="33.911679" lon="-6.421781">
   <ele>284.00</ele>
   <time>2014-04-09T10:57:05Z</time>
  </trkpt>
  <trkpt lat="33.912719" lon="-6.426795">
   <ele>290.00</ele>
   <time>2014-04-09T10:57:21Z</time>
  </trkpt>
  <trkpt lat="33.913702" lon="-6.431532">
   <ele>293.00</ele>
   <time>2014-04-09T10:57:36Z</time>
  </trkpt>
  <trkpt lat="33.914706" lon="-6.436393">
   <ele>287.00</ele>
   <time>2014-04-09T10:57:51Z</time>
  </trkpt>
  <trkpt lat="33.915543" lon="-6.440280">
   <ele>280.00</ele>
   <time>2014-04-09T10:58:03Z</time>
  </trkpt>
  <trkpt lat="33.915799" lon="-6.441244">
   <ele>279.00</ele>
   <time>2014-04-09T10:58:06Z</time>
  </trkpt>
  <trkpt lat="33.916100" lon="-6.442192">
   <ele>277.00</ele>
   <time>2014-04-09T10:58:09Z</time>
  </trkpt>
  <trkpt lat="33.916435" lon="-6.443123">
   <ele>275.00</ele>
   <time>2014-04-09T10:58:12Z</time>
  </trkpt>
  <trkpt lat="33.916803" lon="-6.444030">
   <ele>274.00</ele>
   <time>2014-04-09T10:58:15Z</time>
  </trkpt>
  <trkpt lat="33.917207" lon="-6.444910">
   <ele>272.00</ele>
   <time>2014-04-09T10:58:18Z</time>
  </trkpt>
  <trkpt lat="33.917649" lon="-6.445763">
   <ele>270.00</ele>
   <time>2014-04-09T10:58:21Z</time>
  </trkpt>
  <trkpt lat="33.918118" lon="-6.446593">
   <ele>269.00</ele>
   <time>2014-04-09T10:58:24Z</time>
  </trkpt>
  <trkpt lat="33.918615" lon="-6.447393">
   <ele>268.00</ele>
   <time>2014-04-09T10:58:27Z</time>
  </trkpt>
  <trkpt lat="33.919143" lon="-6.448158">
   <ele>267.00</ele>
   <time>2014-04-09T10:58:30Z</time>
  </trkpt>
  <trkpt lat="33.919699" lon="-6.448890">
   <ele>267.00</ele>
   <time>2014-04-09T10:58:33Z</time>
  </trkpt>
  <trkpt lat="33.920281" lon="-6.449592">
   <ele>266.00</ele>
   <time>2014-04-09T10:58:36Z</time>
  </trkpt>
  <trkpt lat="33.920889" lon="-6.450257">
   <ele>265.00</ele>
   <time>2014-04-09T10:58:39Z</time>
  </trkpt>
  <trkpt lat="33.921517" lon="-6.450891">
   <ele>265.00</ele>
   <time>2014-04-09T10:58:42Z</time>
  </trkpt>
  <trkpt lat="33.924719" lon="-6.453935">
   <ele>265.00</ele>
   <time>2014-04-09T10:58:57Z</time>
  </trkpt>
  <trkpt lat="33.925515" lon="-6.454818">
   <ele>265.00</ele>
   <time>2014-04-09T10:59:01Z</time>
  </trkpt>
  <trkpt lat="33.926277" lon="-6.455742">
   <ele>264.00</ele>
   <time>2014-04-09T10:59:05Z</time>
  </trkpt>
  <trkpt lat="33.927002" lon="-6.456713">
   <ele>263.00</ele>
   <time>2014-04-09T10:59:09Z</time>
  </trkpt>
  <trkpt lat="33.927522" lon="-6.457469">
   <ele>262.00</ele>
   <time>2014-04-09T10:59:12Z</time>
  </trkpt>
  <trkpt lat="33.928017" lon="-6.458252">
   <ele>260.00</ele>
   <time>2014-04-09T10:59:15Z</time>
  </trkpt>
  <trkpt lat="33.928951" lon="-6.459870">
   <ele>257.00</ele>
   <time>2014-04-09T10:59:21Z</time>
  </trkpt>
  <trkpt lat="33.930496" lon="-6.462579">
   <ele>252.00</ele>
   <time>2014-04-09T10:59:31Z</time>
  </trkpt>
  <trkpt lat="33.931004" lon="-6.463349">
   <ele>251.00</ele>
   <time>2014-04-09T10:59:34Z</time>
  </trkpt>
  <trkpt lat="33.931540" lon="-6.464086">
   <ele>249.00</ele>
   <time>2014-04-09T10:59:37Z</time>
  </trkpt>
  <trkpt lat="33.932100" lon="-6.464789">
   <ele>248.00</ele>
   <time>2014-04-09T10:59:40Z</time>
  </trkpt>
  <trkpt lat="33.932681" lon="-6.465460">
   <ele>247.00</ele>
   <time>2014-04-09T10:59:43Z</time>
  </trkpt>
  <trkpt lat="33.933286" lon="-6.466095">
   <ele>247.00</ele>
   <time>2014-04-09T10:59:46Z</time>
  </trkpt>
  <trkpt lat="33.933913" lon="-6.466695">
   <ele>246.00</ele>
   <time>2014-04-09T10:59:49Z</time>
  </trkpt>
  <trkpt lat="33.934562" lon="-6.467262">
   <ele>245.00</ele>
   <time>2014-04-09T10:59:52Z</time>
  </trkpt>
  <trkpt lat="33.935453" lon="-6.467971">
   <ele>244.00</ele>
   <time>2014-04-09T10:59:56Z</time>
  </trkpt>
  <trkpt lat="33.938290" lon="-6.470129">
   <ele>241.00</ele>
   <time>2014-04-09T11:00:09Z</time>
  </trkpt>
  <trkpt lat="33.939161" lon="-6.470881">
   <ele>240.00</ele>
   <time>2014-04-09T11:00:14Z</time>
  </trkpt>
  <trkpt lat="33.939971" lon="-6.471652">
   <ele>239.00</ele>
   <time>2014-04-09T11:00:19Z</time>
  </trkpt>
  <trkpt lat="33.940721" lon="-6.472422">
   <ele>238.00</ele>
   <time>2014-04-09T11:00:24Z</time>
  </trkpt>
  <trkpt lat="33.941176" lon="-6.472929">
   <ele>238.00</ele>
   <time>2014-04-09T11:00:27Z</time>
  </trkpt>
  <trkpt lat="33.943114" lon="-6.475286">
   <ele>235.00</ele>
   <time>2014-04-09T11:00:38Z</time>
  </trkpt>
  <trkpt lat="33.944618" lon="-6.477156">
   <ele>232.00</ele>
   <time>2014-04-09T11:00:46Z</time>
  </trkpt>
  <trkpt lat="33.945221" lon="-6.477824">
   <ele>232.00</ele>
   <time>2014-04-09T11:00:49Z</time>
  </trkpt>
  <trkpt lat="33.945849" lon="-6.478462">
   <ele>232.00</ele>
   <time>2014-04-09T11:00:52Z</time>
  </trkpt>
  <trkpt lat="33.946281" lon="-6.478863">
   <ele>232.00</ele>
   <time>2014-04-09T11:00:54Z</time>
  </trkpt>
  <trkpt lat="33.946947" lon="-6.479430">
   <ele>234.00</ele>
   <time>2014-04-09T11:00:57Z</time>
  </trkpt>
  <trkpt lat="33.947850" lon="-6.480136">
   <ele>236.00</ele>
   <time>2014-04-09T11:01:01Z</time>
  </trkpt>
  <trkpt lat="33.948309" lon="-6.480456">
   <ele>237.00</ele>
   <time>2014-04-09T11:01:03Z</time>
  </trkpt>
  <trkpt lat="33.949008" lon="-6.480898">
   <ele>239.00</ele>
   <time>2014-04-09T11:01:06Z</time>
  </trkpt>
  <trkpt lat="33.949723" lon="-6.481304">
   <ele>241.00</ele>
   <time>2014-04-09T11:01:09Z</time>
  </trkpt>
  <trkpt lat="33.950457" lon="-6.481676">
   <ele>242.00</ele>
   <time>2014-04-09T11:01:12Z</time>
  </trkpt>
  <trkpt lat="33.951208" lon="-6.482012">
   <ele>243.00</ele>
   <time>2014-04-09T11:01:15Z</time>
  </trkpt>
  <trkpt lat="33.951973" lon="-6.482311">
   <ele>244.00</ele>
   <time>2014-04-09T11:01:18Z</time>
  </trkpt>
  <trkpt lat="33.954813" lon="-6.483370">
   <ele>244.00</ele>
   <time>2014-04-09T11:01:29Z</time>
  </trkpt>
  <trkpt lat="33.955577" lon="-6.483720">
   <ele>244.00</ele>
   <time>2014-04-09T11:01:32Z</time>
  </trkpt>
  <trkpt lat="33.956327" lon="-6.484112">
   <ele>242.00</ele>
   <time>2014-04-09T11:01:35Z</time>
  </trkpt>
  <trkpt lat="33.957064" lon="-6.484545">
   <ele>241.00</ele>
   <time>2014-04-09T11:01:38Z</time>
  </trkpt>
  <trkpt lat="33.957787" lon="-6.485024">
   <ele>239.00</ele>
   <time>2014-04-09T11:01:41Z</time>
  </trkpt>
  <trkpt lat="33.958496" lon="-6.485545">
   <ele>237.00</ele>
   <time>2014-04-09T11:01:44Z</time>
  </trkpt>
  <trkpt lat="33.959189" lon="-6.486107">
   <ele>235.00</ele>
   <time>2014-04-09T11:01:47Z</time>
  </trkpt>
  <trkpt lat="33.959637" lon="-6.486506">
   <ele>234.00</ele>
   <time>2014-04-09T11:01:49Z</time>
  </trkpt>
  <trkpt lat="33.960287" lon="-6.487132">
   <ele>232.00</ele>
   <time>2014-04-09T11:01:52Z</time>
  </trkpt>
  <trkpt lat="33.960708" lon="-6.487565">
   <ele>231.00</ele>
   <time>2014-04-09T11:01:54Z</time>
  </trkpt>
  <trkpt lat="33.961315" lon="-6.488244">
   <ele>229.00</ele>
   <time>2014-04-09T11:01:57Z</time>
  </trkpt>
  <trkpt lat="33.961899" lon="-6.488952">
   <ele>227.00</ele>
   <time>2014-04-09T11:02:00Z</time>
  </trkpt>
  <trkpt lat="33.964743" lon="-6.492606">
   <ele>219.00</ele>
   <time>2014-04-09T11:02:15Z</time>
  </trkpt>
  <trkpt lat="33.967588" lon="-6.496287">
   <ele>209.00</ele>
   <time>2014-04-09T11:02:30Z</time>
  </trkpt>
  <trkpt lat="33.970567" lon="-6.500132">
   <ele>200.00</ele>
   <time>2014-04-09T11:02:46Z</time>
  </trkpt>
  <trkpt lat="33.971095" lon="-6.500876">
   <ele>199.00</ele>
   <time>2014-04-09T11:02:49Z</time>
  </trkpt>
  <trkpt lat="33.971759" lon="-6.501885">
   <ele>199.00</ele>
   <time>2014-04-09T11:02:53Z</time>
  </trkpt>
  <trkpt lat="33.972535" lon="-6.503156">
   <ele>201.00</ele>
   <time>2014-04-09T11:02:58Z</time>
  </trkpt>
  <trkpt lat="33.973253" lon="-6.504450">
   <ele>203.00</ele>
   <time>2014-04-09T11:03:03Z</time>
  </trkpt>
  <trkpt lat="33.973928" lon="-6.505781">
   <ele>205.00</ele>
   <time>2014-04-09T11:03:08Z</time>
  </trkpt>
  <trkpt lat="33.974566" lon="-6.507166">
   <ele>207.00</ele>
   <time>2014-04-09T11:03:13Z</time>
  </trkpt>
  <trkpt lat="33.975273" lon="-6.508872">
   <ele>210.00</ele>
   <time>2014-04-09T11:03:19Z</time>
  </trkpt>
  <trkpt lat="33.975701" lon="-6.510038">
   <ele>211.00</ele>
   <time>2014-04-09T11:03:23Z</time>
  </trkpt>
  <trkpt lat="33.976675" lon="-6.513003">
   <ele>215.00</ele>
   <time>2014-04-09T11:03:33Z</time>
  </trkpt>
  <trkpt lat="33.978142" lon="-6.517499">
   <ele>214.00</ele>
   <time>2014-04-09T11:03:48Z</time>
  </trkpt>
  <trkpt lat="33.979610" lon="-6.521989">
   <ele>207.00</ele>
   <time>2014-04-09T11:04:03Z</time>
  </trkpt>
  <trkpt lat="33.980414" lon="-6.524391">
   <ele>203.00</ele>
   <time>2014-04-09T11:04:11Z</time>
  </trkpt>
  <trkpt lat="33.980878" lon="-6.525574">
   <ele>201.00</ele>
   <time>2014-04-09T11:04:15Z</time>
  </trkpt>
  <trkpt lat="33.981380" lon="-6.526729">
   <ele>199.00</ele>
   <time>2014-04-09T11:04:19Z</time>
  </trkpt>
  <trkpt lat="33.981927" lon="-6.527855">
   <ele>197.00</ele>
   <time>2014-04-09T11:04:23Z</time>
  </trkpt>
  <trkpt lat="33.982517" lon="-6.528952">
   <ele>195.00</ele>
   <time>2014-04-09T11:04:27Z</time>
  </trkpt>
  <trkpt lat="33.983140" lon="-6.530022">
   <ele>193.00</ele>
   <time>2014-04-09T11:04:31Z</time>
  </trkpt>
  <trkpt lat="33.983635" lon="-6.530803">
   <ele>191.00</ele>
   <time>2014-04-09T11:04:34Z</time>
  </trkpt>
  <trkpt lat="33.984152" lon="-6.531560">
   <ele>189.00</ele>
   <time>2014-04-09T11:04:37Z</time>
  </trkpt>
  <trkpt lat="33.984871" lon="-6.532535">
   <ele>187.00</ele>
   <time>2014-04-09T11:04:41Z</time>
  </trkpt>
  <trkpt lat="33.985620" lon="-6.533471">
   <ele>185.00</ele>
   <time>2014-04-09T11:04:45Z</time>
  </trkpt>
  <trkpt lat="33.986204" lon="-6.534149">
   <ele>183.00</ele>
   <time>2014-04-09T11:04:48Z</time>
  </trkpt>
  <trkpt lat="33.987013" lon="-6.535019">
   <ele>182.00</ele>
   <time>2014-04-09T11:04:52Z</time>
  </trkpt>
  <trkpt lat="33.987856" lon="-6.535848">
   <ele>181.00</ele>
   <time>2014-04-09T11:04:56Z</time>
  </trkpt>
  <trkpt lat="33.988499" lon="-6.536432">
   <ele>182.00</ele>
   <time>2014-04-09T11:04:59Z</time>
  </trkpt>
  <trkpt lat="33.989373" lon="-6.537164">
   <ele>183.00</ele>
   <time>2014-04-09T11:05:03Z</time>
  </trkpt>
  <trkpt lat="33.990275" lon="-6.537857">
   <ele>185.00</ele>
   <time>2014-04-09T11:05:07Z</time>
  </trkpt>
  <trkpt lat="33.991437" lon="-6.538679">
   <ele>186.00</ele>
   <time>2014-04-09T11:05:12Z</time>
  </trkpt>
  <trkpt lat="33.992155" lon="-6.539141">
   <ele>186.00</ele>
   <time>2014-04-09T11:05:15Z</time>
  </trkpt>
  <trkpt lat="33.992877" lon="-6.539558">
   <ele>186.00</ele>
   <time>2014-04-09T11:05:18Z</time>
  </trkpt>
  <trkpt lat="33.993588" lon="-6.539922">
   <ele>186.00</ele>
   <time>2014-04-09T11:05:21Z</time>
  </trkpt>
  <trkpt lat="33.994942" lon="-6.540535">
   <ele>184.00</ele>
   <time>2014-04-09T11:05:27Z</time>
  </trkpt>
  <trkpt lat="33.995936" lon="-6.540928">
   <ele>182.00</ele>
   <time>2014-04-09T11:05:32Z</time>
  </trkpt>
  <trkpt lat="33.997012" lon="-6.541294">
   <ele>180.00</ele>
   <time>2014-04-09T11:05:38Z</time>
  </trkpt>
  <trkpt lat="33.997637" lon="-6.541471">
   <ele>178.00</ele>
   <time>2014-04-09T11:05:42Z</time>
  </trkpt>
  <trkpt lat="33.999427" lon="-6.541905">
   <ele>175.00</ele>
   <time>2014-04-09T11:05:55Z</time>
  </trkpt>
  <trkpt lat="33.999670" lon="-6.541941">
   <ele>174.00</ele>
   <time>2014-04-09T11:05:57Z</time>
  </trkpt>
  <trkpt lat="34.000276" lon="-6.542022">
   <ele>173.00</ele>
   <time>2014-04-09T11:06:04Z</time>
  </trkpt>
  <trkpt lat="34.000355" lon="-6.542024">
   <ele>173.00</ele>
   <time>2014-04-09T11:06:19Z</time>
  </trkpt>
  <trkpt lat="34.000424" lon="-6.542030">
   <ele>173.00</ele>
   <time>2014-04-09T11:06:35Z</time>
  </trkpt>
  <trkpt lat="34.000449" lon="-6.542033">
   <ele>173.00</ele>
   <time>2014-04-09T11:06:50Z</time>
  </trkpt>
  <trkpt lat="34.000497" lon="-6.542040">
   <ele>175.00</ele>
   <time>2014-04-09T11:07:06Z</time>
  </trkpt>
  <trkpt lat="34.000494" lon="-6.542033">
   <ele>175.00</ele>
   <time>2014-04-09T11:07:21Z</time>
  </trkpt>
  <trkpt lat="34.000532" lon="-6.542058">
   <ele>169.00</ele>
   <time>2014-04-09T11:07:36Z</time>
  </trkpt>
  <trkpt lat="34.000531" lon="-6.542025">
   <ele>165.00</ele>
   <time>2014-04-09T11:07:52Z</time>
  </trkpt>
  <trkpt lat="34.000781" lon="-6.542108">
   <ele>165.00</ele>
   <time>2014-04-09T11:07:57Z</time>
  </trkpt>
  <trkpt lat="34.000954" lon="-6.542188">
   <ele>166.00</ele>
   <time>2014-04-09T11:07:59Z</time>
  </trkpt>
  <trkpt lat="34.001135" lon="-6.542271">
   <ele>167.00</ele>
   <time>2014-04-09T11:08:01Z</time>
  </trkpt>
  <trkpt lat="34.001319" lon="-6.542337">
   <ele>167.00</ele>
   <time>2014-04-09T11:08:03Z</time>
  </trkpt>
  <trkpt lat="34.001580" lon="-6.542406">
   <ele>167.00</ele>
   <time>2014-04-09T11:08:06Z</time>
  </trkpt>
  <trkpt lat="34.002903" lon="-6.542712">
   <ele>166.00</ele>
   <time>2014-04-09T11:08:21Z</time>
  </trkpt>
  <trkpt lat="34.005206" lon="-6.543241">
   <ele>166.00</ele>
   <time>2014-04-09T11:08:37Z</time>
  </trkpt>
  <trkpt lat="34.007677" lon="-6.543806">
   <ele>166.00</ele>
   <time>2014-04-09T11:08:51Z</time>
  </trkpt>
  <trkpt lat="34.008217" lon="-6.543970">
   <ele>166.00</ele>
   <time>2014-04-09T11:08:54Z</time>
  </trkpt>
  <trkpt lat="34.008764" lon="-6.544165">
   <ele>166.00</ele>
   <time>2014-04-09T11:08:57Z</time>
  </trkpt>
  <trkpt lat="34.009316" lon="-6.544390">
   <ele>166.00</ele>
   <time>2014-04-09T11:09:00Z</time>
  </trkpt>
  <trkpt lat="34.009872" lon="-6.544651">
   <ele>165.00</ele>
   <time>2014-04-09T11:09:03Z</time>
  </trkpt>
  <trkpt lat="34.010433" lon="-6.544947">
   <ele>165.00</ele>
   <time>2014-04-09T11:09:06Z</time>
  </trkpt>
  <trkpt lat="34.011000" lon="-6.545287">
   <ele>165.00</ele>
   <time>2014-04-09T11:09:09Z</time>
  </trkpt>
  <trkpt lat="34.011567" lon="-6.545666">
   <ele>165.00</ele>
   <time>2014-04-09T11:09:12Z</time>
  </trkpt>
  <trkpt lat="34.011932" lon="-6.545943">
   <ele>165.00</ele>
   <time>2014-04-09T11:09:14Z</time>
  </trkpt>
  <trkpt lat="34.012649" lon="-6.546532">
   <ele>166.00</ele>
   <time>2014-04-09T11:09:18Z</time>
  </trkpt>
  <trkpt lat="34.013178" lon="-6.547010">
   <ele>167.00</ele>
   <time>2014-04-09T11:09:21Z</time>
  </trkpt>
  <trkpt lat="34.013693" lon="-6.547528">
   <ele>168.00</ele>
   <time>2014-04-09T11:09:24Z</time>
  </trkpt>
  <trkpt lat="34.014025" lon="-6.547895">
   <ele>168.00</ele>
   <time>2014-04-09T11:09:26Z</time>
  </trkpt>
  <trkpt lat="34.014501" lon="-6.548465">
   <ele>169.00</ele>
   <time>2014-04-09T11:09:29Z</time>
  </trkpt>
  <trkpt lat="34.014801" lon="-6.548854">
   <ele>169.00</ele>
   <time>2014-04-09T11:09:31Z</time>
  </trkpt>
  <trkpt lat="34.015092" lon="-6.549266">
   <ele>170.00</ele>
   <time>2014-04-09T11:09:33Z</time>
  </trkpt>
  <trkpt lat="34.015522" lon="-6.549920">
   <ele>170.00</ele>
   <time>2014-04-09T11:09:36Z</time>
  </trkpt>
  <trkpt lat="34.015936" lon="-6.550615">
   <ele>170.00</ele>
   <time>2014-04-09T11:09:39Z</time>
  </trkpt>
  <trkpt lat="34.016328" lon="-6.551357">
   <ele>169.00</ele>
   <time>2014-04-09T11:09:42Z</time>
  </trkpt>
  <trkpt lat="34.016571" lon="-6.551875">
   <ele>169.00</ele>
   <time>2014-04-09T11:09:44Z</time>
  </trkpt>
  <trkpt lat="34.016912" lon="-6.552679">
   <ele>168.00</ele>
   <time>2014-04-09T11:09:47Z</time>
  </trkpt>
  <trkpt lat="34.017122" lon="-6.553227">
   <ele>167.00</ele>
   <time>2014-04-09T11:09:49Z</time>
  </trkpt>
  <trkpt lat="34.017316" lon="-6.553790">
   <ele>167.00</ele>
   <time>2014-04-09T11:09:51Z</time>
  </trkpt>
  <trkpt lat="34.017491" lon="-6.554368">
   <ele>166.00</ele>
   <time>2014-04-09T11:09:53Z</time>
  </trkpt>
  <trkpt lat="34.017646" lon="-6.554965">
   <ele>165.00</ele>
   <time>2014-04-09T11:09:55Z</time>
  </trkpt>
  <trkpt lat="34.017851" lon="-6.555881">
   <ele>164.00</ele>
   <time>2014-04-09T11:09:58Z</time>
  </trkpt>
  <trkpt lat="34.017960" lon="-6.556482">
   <ele>163.00</ele>
   <time>2014-04-09T11:10:00Z</time>
  </trkpt>
  <trkpt lat="34.018045" lon="-6.557064">
   <ele>163.00</ele>
   <time>2014-04-09T11:10:02Z</time>
  </trkpt>
  <trkpt lat="34.018285" lon="-6.559288">
   <ele>166.00</ele>
   <time>2014-04-09T11:10:11Z</time>
  </trkpt>
  <trkpt lat="34.018648" lon="-6.562858">
   <ele>172.00</ele>
   <time>2014-04-09T11:10:27Z</time>
  </trkpt>
  <trkpt lat="34.019026" lon="-6.566526">
   <ele>172.00</ele>
   <time>2014-04-09T11:10:42Z</time>
  </trkpt>
  <trkpt lat="34.019430" lon="-6.570378">
   <ele>176.00</ele>
   <time>2014-04-09T11:10:57Z</time>
  </trkpt>
  <trkpt lat="34.019910" lon="-6.574797">
   <ele>180.00</ele>
   <time>2014-04-09T11:11:13Z</time>
  </trkpt>
  <trkpt lat="34.020373" lon="-6.579122">
   <ele>175.00</ele>
   <time>2014-04-09T11:11:28Z</time>
  </trkpt>
  <trkpt lat="34.020828" lon="-6.583552">
   <ele>171.00</ele>
   <time>2014-04-09T11:11:43Z</time>
  </trkpt>
  <trkpt lat="34.021371" lon="-6.588215">
   <ele>174.00</ele>
   <time>2014-04-09T11:11:59Z</time>
  </trkpt>
  <trkpt lat="34.021866" lon="-6.592597">
   <ele>178.00</ele>
   <time>2014-04-09T11:12:14Z</time>
  </trkpt>
  <trkpt lat="34.022366" lon="-6.597172">
   <ele>173.00</ele>
   <time>2014-04-09T11:12:29Z</time>
  </trkpt>
  <trkpt lat="34.022592" lon="-6.599306">
   <ele>171.00</ele>
   <time>2014-04-09T11:12:36Z</time>
  </trkpt>
  <trkpt lat="34.023165" lon="-6.603737">
   <ele>165.00</ele>
   <time>2014-04-09T11:12:51Z</time>
  </trkpt>
  <trkpt lat="34.023763" lon="-6.608487">
   <ele>162.00</ele>
   <time>2014-04-09T11:13:07Z</time>
  </trkpt>
  <trkpt lat="34.024338" lon="-6.613053">
   <ele>158.00</ele>
   <time>2014-04-09T11:13:22Z</time>
  </trkpt>
  <trkpt lat="34.024887" lon="-6.617603">
   <ele>155.00</ele>
   <time>2014-04-09T11:13:37Z</time>
  </trkpt>
  <trkpt lat="34.025493" lon="-6.622436">
   <ele>149.00</ele>
   <time>2014-04-09T11:13:53Z</time>
  </trkpt>
  <trkpt lat="34.025658" lon="-6.623692">
   <ele>148.00</ele>
   <time>2014-04-09T11:13:57Z</time>
  </trkpt>
  <trkpt lat="34.026249" lon="-6.628202">
   <ele>144.00</ele>
   <time>2014-04-09T11:14:12Z</time>
  </trkpt>
  <trkpt lat="34.026814" lon="-6.632668">
   <ele>140.00</ele>
   <time>2014-04-09T11:14:28Z</time>
  </trkpt>
  <trkpt lat="34.027323" lon="-6.636657">
   <ele>140.00</ele>
   <time>2014-04-09T11:14:43Z</time>
  </trkpt>
  <trkpt lat="34.027614" lon="-6.639037">
   <ele>139.00</ele>
   <time>2014-04-09T11:14:52Z</time>
  </trkpt>
  <trkpt lat="34.027726" lon="-6.640046">
   <ele>139.00</ele>
   <time>2014-04-09T11:14:56Z</time>
  </trkpt>
  <trkpt lat="34.028240" lon="-6.643830">
   <ele>135.00</ele>
   <time>2014-04-09T11:15:12Z</time>
  </trkpt>
  <trkpt lat="34.028576" lon="-6.646449">
   <ele>132.00</ele>
   <time>2014-04-09T11:15:27Z</time>
  </trkpt>
  <trkpt lat="34.028750" lon="-6.647793">
   <ele>132.00</ele>
   <time>2014-04-09T11:15:42Z</time>
  </trkpt>
  <trkpt lat="34.028876" lon="-6.648768">
   <ele>132.00</ele>
   <time>2014-04-09T11:15:58Z</time>
  </trkpt>
  <trkpt lat="34.029182" lon="-6.651144">
   <ele>130.00</ele>
   <time>2014-04-09T11:16:13Z</time>
  </trkpt>
  <trkpt lat="34.029656" lon="-6.654862">
   <ele>131.00</ele>
   <time>2014-04-09T11:16:28Z</time>
  </trkpt>
  <trkpt lat="34.030177" lon="-6.658861">
   <ele>140.00</ele>
   <time>2014-04-09T11:16:44Z</time>
  </trkpt>
  <trkpt lat="34.030670" lon="-6.662668">
   <ele>149.00</ele>
   <time>2014-04-09T11:16:59Z</time>
  </trkpt>
  <trkpt lat="34.031251" lon="-6.667163">
   <ele>151.00</ele>
   <time>2014-04-09T11:17:15Z</time>
  </trkpt>
  <trkpt lat="34.031409" lon="-6.668546">
   <ele>150.00</ele>
   <time>2014-04-09T11:17:20Z</time>
  </trkpt>
  <trkpt lat="34.031449" lon="-6.669091">
   <ele>148.00</ele>
   <time>2014-04-09T11:17:22Z</time>
  </trkpt>
  <trkpt lat="34.031604" lon="-6.673240">
   <ele>136.00</ele>
   <time>2014-04-09T11:17:38Z</time>
  </trkpt>
  <trkpt lat="34.031751" lon="-6.677242">
   <ele>126.00</ele>
   <time>2014-04-09T11:17:53Z</time>
  </trkpt>
  <trkpt lat="34.031904" lon="-6.681576">
   <ele>123.00</ele>
   <time>2014-04-09T11:18:09Z</time>
  </trkpt>
  <trkpt lat="34.032040" lon="-6.685447">
   <ele>127.00</ele>
   <time>2014-04-09T11:18:24Z</time>
  </trkpt>
  <trkpt lat="34.032255" lon="-6.689096">
   <ele>129.00</ele>
   <time>2014-04-09T11:18:39Z</time>
  </trkpt>
  <trkpt lat="34.032285" lon="-6.689758">
   <ele>130.00</ele>
   <time>2014-04-09T11:18:42Z</time>
  </trkpt>
  <trkpt lat="34.032284" lon="-6.690191">
   <ele>131.00</ele>
   <time>2014-04-09T11:18:44Z</time>
  </trkpt>
  <trkpt lat="34.032263" lon="-6.690629">
   <ele>132.00</ele>
   <time>2014-04-09T11:18:46Z</time>
  </trkpt>
  <trkpt lat="34.032223" lon="-6.691075">
   <ele>133.00</ele>
   <time>2014-04-09T11:18:48Z</time>
  </trkpt>
  <trkpt lat="34.032194" lon="-6.691300">
   <ele>133.00</ele>
   <time>2014-04-09T11:18:49Z</time>
  </trkpt>
  <trkpt lat="34.032158" lon="-6.691525">
   <ele>134.00</ele>
   <time>2014-04-09T11:18:50Z</time>
  </trkpt>
  <trkpt lat="34.032063" lon="-6.691976">
   <ele>134.00</ele>
   <time>2014-04-09T11:18:52Z</time>
  </trkpt>
  <trkpt lat="34.031950" lon="-6.692431">
   <ele>135.00</ele>
   <time>2014-04-09T11:18:54Z</time>
  </trkpt>
  <trkpt lat="34.030939" lon="-6.696172">
   <ele>135.00</ele>
   <time>2014-04-09T11:19:10Z</time>
  </trkpt>
  <trkpt lat="34.029952" lon="-6.699804">
   <ele>133.00</ele>
   <time>2014-04-09T11:19:25Z</time>
  </trkpt>
  <trkpt lat="34.028887" lon="-6.703505">
   <ele>134.00</ele>
   <time>2014-04-09T11:19:40Z</time>
  </trkpt>
  <trkpt lat="34.028387" lon="-6.705349">
   <ele>132.00</ele>
   <time>2014-04-09T11:19:48Z</time>
  </trkpt>
  <trkpt lat="34.027964" lon="-6.707116">
   <ele>129.00</ele>
   <time>2014-04-09T11:19:57Z</time>
  </trkpt>
  <trkpt lat="34.027914" lon="-6.707450">
   <ele>128.00</ele>
   <time>2014-04-09T11:19:59Z</time>
  </trkpt>
  <trkpt lat="34.027910" lon="-6.707790">
   <ele>128.00</ele>
   <time>2014-04-09T11:20:01Z</time>
  </trkpt>
  <trkpt lat="34.027954" lon="-6.708138">
   <ele>127.00</ele>
   <time>2014-04-09T11:20:03Z</time>
  </trkpt>
  <trkpt lat="34.028048" lon="-6.708480">
   <ele>127.00</ele>
   <time>2014-04-09T11:20:05Z</time>
  </trkpt>
  <trkpt lat="34.028187" lon="-6.708811">
   <ele>127.00</ele>
   <time>2014-04-09T11:20:07Z</time>
  </trkpt>
  <trkpt lat="34.028353" lon="-6.709143">
   <ele>126.00</ele>
   <time>2014-04-09T11:20:09Z</time>
  </trkpt>
  <trkpt lat="34.029152" lon="-6.710670">
   <ele>125.00</ele>
   <time>2014-04-09T11:20:18Z</time>
  </trkpt>
  <trkpt lat="34.029339" lon="-6.710962">
   <ele>124.00</ele>
   <time>2014-04-09T11:20:20Z</time>
  </trkpt>
  <trkpt lat="34.029542" lon="-6.711216">
   <ele>124.00</ele>
   <time>2014-04-09T11:20:22Z</time>
  </trkpt>
  <trkpt lat="34.029769" lon="-6.711430">
   <ele>124.00</ele>
   <time>2014-04-09T11:20:24Z</time>
  </trkpt>
  <trkpt lat="34.030023" lon="-6.711604">
   <ele>124.00</ele>
   <time>2014-04-09T11:20:26Z</time>
  </trkpt>
  <trkpt lat="34.030294" lon="-6.711743">
   <ele>124.00</ele>
   <time>2014-04-09T11:20:28Z</time>
  </trkpt>
  <trkpt lat="34.030586" lon="-6.711849">
   <ele>124.00</ele>
   <time>2014-04-09T11:20:30Z</time>
  </trkpt>
  <trkpt lat="34.030897" lon="-6.711932">
   <ele>124.00</ele>
   <time>2014-04-09T11:20:32Z</time>
  </trkpt>
  <trkpt lat="34.031232" lon="-6.711994">
   <ele>124.00</ele>
   <time>2014-04-09T11:20:34Z</time>
  </trkpt>
  <trkpt lat="34.031776" lon="-6.712068">
   <ele>124.00</ele>
   <time>2014-04-09T11:20:37Z</time>
  </trkpt>
  <trkpt lat="34.032361" lon="-6.712115">
   <ele>125.00</ele>
   <time>2014-04-09T11:20:40Z</time>
  </trkpt>
  <trkpt lat="34.032972" lon="-6.712137">
   <ele>126.00</ele>
   <time>2014-04-09T11:20:43Z</time>
  </trkpt>
  <trkpt lat="34.033179" lon="-6.712135">
   <ele>126.00</ele>
   <time>2014-04-09T11:20:44Z</time>
  </trkpt>
  <trkpt lat="34.033811" lon="-6.712113">
   <ele>127.00</ele>
   <time>2014-04-09T11:20:47Z</time>
  </trkpt>
  <trkpt lat="34.037053" lon="-6.711857">
   <ele>130.00</ele>
   <time>2014-04-09T11:21:02Z</time>
  </trkpt>
  <trkpt lat="34.039667" lon="-6.711706">
   <ele>128.00</ele>
   <time>2014-04-09T11:21:13Z</time>
  </trkpt>
  <trkpt lat="34.041215" lon="-6.711696">
   <ele>125.00</ele>
   <time>2014-04-09T11:21:19Z</time>
  </trkpt>
  <trkpt lat="34.041485" lon="-6.711696">
   <ele>124.00</ele>
   <time>2014-04-09T11:21:20Z</time>
  </trkpt>
  <trkpt lat="34.043700" lon="-6.711688">
   <ele>119.00</ele>
   <time>2014-04-09T11:21:28Z</time>
  </trkpt>
  <trkpt lat="34.044262" lon="-6.711689">
   <ele>118.00</ele>
   <time>2014-04-09T11:21:30Z</time>
  </trkpt>
  <trkpt lat="34.044827" lon="-6.711689">
   <ele>117.00</ele>
   <time>2014-04-09T11:21:32Z</time>
  </trkpt>
  <trkpt lat="34.045110" lon="-6.711688">
   <ele>116.00</ele>
   <time>2014-04-09T11:21:33Z</time>
  </trkpt>
  <trkpt lat="34.046228" lon="-6.711685">
   <ele>114.00</ele>
   <time>2014-04-09T11:21:37Z</time>
  </trkpt>
  <trkpt lat="34.046504" lon="-6.711684">
   <ele>113.00</ele>
   <time>2014-04-09T11:21:38Z</time>
  </trkpt>
  <trkpt lat="34.047328" lon="-6.711678">
   <ele>111.00</ele>
   <time>2014-04-09T11:21:41Z</time>
  </trkpt>
  <trkpt lat="34.047600" lon="-6.711678">
   <ele>111.00</ele>
   <time>2014-04-09T11:21:42Z</time>
  </trkpt>
  <trkpt lat="34.050839" lon="-6.711669">
   <ele>106.00</ele>
   <time>2014-04-09T11:21:54Z</time>
  </trkpt>
  <trkpt lat="34.051377" lon="-6.711672">
   <ele>105.00</ele>
   <time>2014-04-09T11:21:56Z</time>
  </trkpt>
  <trkpt lat="34.052455" lon="-6.711670">
   <ele>104.00</ele>
   <time>2014-04-09T11:22:00Z</time>
  </trkpt>
  <trkpt lat="34.052725" lon="-6.711670">
   <ele>104.00</ele>
   <time>2014-04-09T11:22:01Z</time>
  </trkpt>
  <trkpt lat="34.057014" lon="-6.711660">
   <ele>100.00</ele>
   <time>2014-04-09T11:22:17Z</time>
  </trkpt>
  <trkpt lat="34.058355" lon="-6.711657">
   <ele>99.00</ele>
   <time>2014-04-09T11:22:22Z</time>
  </trkpt>
  <trkpt lat="34.058623" lon="-6.711657">
   <ele>99.00</ele>
   <time>2014-04-09T11:22:23Z</time>
  </trkpt>
  <trkpt lat="34.059697" lon="-6.711636">
   <ele>98.00</ele>
   <time>2014-04-09T11:22:27Z</time>
  </trkpt>
  <trkpt lat="34.060772" lon="-6.711560">
   <ele>97.00</ele>
   <time>2014-04-09T11:22:31Z</time>
  </trkpt>
  <trkpt lat="34.061308" lon="-6.711500">
   <ele>96.00</ele>
   <time>2014-04-09T11:22:33Z</time>
  </trkpt>
  <trkpt lat="34.062111" lon="-6.711366">
   <ele>95.00</ele>
   <time>2014-04-09T11:22:36Z</time>
  </trkpt>
  <trkpt lat="34.062906" lon="-6.711193">
   <ele>94.00</ele>
   <time>2014-04-09T11:22:39Z</time>
  </trkpt>
  <trkpt lat="34.063689" lon="-6.710982">
   <ele>94.00</ele>
   <time>2014-04-09T11:22:42Z</time>
  </trkpt>
  <trkpt lat="34.064454" lon="-6.710725">
   <ele>94.00</ele>
   <time>2014-04-09T11:22:45Z</time>
  </trkpt>
  <trkpt lat="34.065455" lon="-6.710342">
   <ele>94.00</ele>
   <time>2014-04-09T11:22:49Z</time>
  </trkpt>
  <trkpt lat="34.066181" lon="-6.710015">
   <ele>94.00</ele>
   <time>2014-04-09T11:22:52Z</time>
  </trkpt>
  <trkpt lat="34.066653" lon="-6.709770">
   <ele>94.00</ele>
   <time>2014-04-09T11:22:54Z</time>
  </trkpt>
  <trkpt lat="34.067350" lon="-6.709372">
   <ele>93.00</ele>
   <time>2014-04-09T11:22:57Z</time>
  </trkpt>
  <trkpt lat="34.067808" lon="-6.709080">
   <ele>93.00</ele>
   <time>2014-04-09T11:22:59Z</time>
  </trkpt>
  <trkpt lat="34.068484" lon="-6.708597">
   <ele>93.00</ele>
   <time>2014-04-09T11:23:02Z</time>
  </trkpt>
  <trkpt lat="34.069612" lon="-6.707725">
   <ele>93.00</ele>
   <time>2014-04-09T11:23:07Z</time>
  </trkpt>
  <trkpt lat="34.070279" lon="-6.707150">
   <ele>93.00</ele>
   <time>2014-04-09T11:23:10Z</time>
  </trkpt>
  <trkpt lat="34.072234" lon="-6.705338">
   <ele>93.00</ele>
   <time>2014-04-09T11:23:19Z</time>
  </trkpt>
  <trkpt lat="34.075458" lon="-6.702302">
   <ele>93.00</ele>
   <time>2014-04-09T11:23:34Z</time>
  </trkpt>
  <trkpt lat="34.078653" lon="-6.699334">
   <ele>93.00</ele>
   <time>2014-04-09T11:23:49Z</time>
  </trkpt>
  <trkpt lat="34.082076" lon="-6.696167">
   <ele>93.00</ele>
   <time>2014-04-09T11:24:05Z</time>
  </trkpt>
  <trkpt lat="34.085279" lon="-6.693202">
   <ele>92.00</ele>
   <time>2014-04-09T11:24:20Z</time>
  </trkpt>
  <trkpt lat="34.088480" lon="-6.690290">
   <ele>91.00</ele>
   <time>2014-04-09T11:24:35Z</time>
  </trkpt>
  <trkpt lat="34.089737" lon="-6.689094">
   <ele>91.00</ele>
   <time>2014-04-09T11:24:41Z</time>
  </trkpt>
  <trkpt lat="34.090364" lon="-6.688578">
   <ele>91.00</ele>
   <time>2014-04-09T11:24:44Z</time>
  </trkpt>
  <trkpt lat="34.091870" lon="-6.687425">
   <ele>90.00</ele>
   <time>2014-04-09T11:24:52Z</time>
  </trkpt>
  <trkpt lat="34.092406" lon="-6.687057">
   <ele>90.00</ele>
   <time>2014-04-09T11:24:55Z</time>
  </trkpt>
  <trkpt lat="34.093359" lon="-6.686462">
   <ele>90.00</ele>
   <time>2014-04-09T11:25:00Z</time>
  </trkpt>
  <trkpt lat="34.093775" lon="-6.686232">
   <ele>90.00</ele>
   <time>2014-04-09T11:25:02Z</time>
  </trkpt>
  <trkpt lat="34.094434" lon="-6.685917">
   <ele>89.00</ele>
   <time>2014-04-09T11:25:05Z</time>
  </trkpt>
  <trkpt lat="34.095129" lon="-6.685616">
   <ele>89.00</ele>
   <time>2014-04-09T11:25:08Z</time>
  </trkpt>
  <trkpt lat="34.095877" lon="-6.685332">
   <ele>88.00</ele>
   <time>2014-04-09T11:25:11Z</time>
  </trkpt>
  <trkpt lat="34.096944" lon="-6.684981">
   <ele>89.00</ele>
   <time>2014-04-09T11:25:15Z</time>
  </trkpt>
  <trkpt lat="34.097762" lon="-6.684755">
   <ele>89.00</ele>
   <time>2014-04-09T11:25:18Z</time>
  </trkpt>
  <trkpt lat="34.098305" lon="-6.684639">
   <ele>89.00</ele>
   <time>2014-04-09T11:25:20Z</time>
  </trkpt>
  <trkpt lat="34.099111" lon="-6.684513">
   <ele>89.00</ele>
   <time>2014-04-09T11:25:23Z</time>
  </trkpt>
  <trkpt lat="34.099912" lon="-6.684428">
   <ele>88.00</ele>
   <time>2014-04-09T11:25:26Z</time>
  </trkpt>
  <trkpt lat="34.100449" lon="-6.684397">
   <ele>88.00</ele>
   <time>2014-04-09T11:25:28Z</time>
  </trkpt>
  <trkpt lat="34.101257" lon="-6.684388">
   <ele>88.00</ele>
   <time>2014-04-09T11:25:31Z</time>
  </trkpt>
  <trkpt lat="34.102062" lon="-6.684419">
   <ele>87.00</ele>
   <time>2014-04-09T11:25:34Z</time>
  </trkpt>
  <trkpt lat="34.102864" lon="-6.684496">
   <ele>87.00</ele>
   <time>2014-04-09T11:25:37Z</time>
  </trkpt>
  <trkpt lat="34.103668" lon="-6.684615">
   <ele>86.00</ele>
   <time>2014-04-09T11:25:40Z</time>
  </trkpt>
  <trkpt lat="34.104742" lon="-6.684827">
   <ele>86.00</ele>
   <time>2014-04-09T11:25:44Z</time>
  </trkpt>
  <trkpt lat="34.106081" lon="-6.685155">
   <ele>84.00</ele>
   <time>2014-04-09T11:25:49Z</time>
  </trkpt>
  <trkpt lat="34.110054" lon="-6.686300">
   <ele>79.00</ele>
   <time>2014-04-09T11:26:04Z</time>
  </trkpt>
  <trkpt lat="34.114304" lon="-6.687500">
   <ele>73.00</ele>
   <time>2014-04-09T11:26:20Z</time>
  </trkpt>
  <trkpt lat="34.115112" lon="-6.687671">
   <ele>72.00</ele>
   <time>2014-04-09T11:26:23Z</time>
  </trkpt>
  <trkpt lat="34.115926" lon="-6.687795">
   <ele>72.00</ele>
   <time>2014-04-09T11:26:26Z</time>
  </trkpt>
  <trkpt lat="34.116746" lon="-6.687875">
   <ele>71.00</ele>
   <time>2014-04-09T11:26:29Z</time>
  </trkpt>
  <trkpt lat="34.117296" lon="-6.687899">
   <ele>71.00</ele>
   <time>2014-04-09T11:26:31Z</time>
  </trkpt>
  <trkpt lat="34.117848" lon="-6.687901">
   <ele>70.00</ele>
   <time>2014-04-09T11:26:33Z</time>
  </trkpt>
  <trkpt lat="34.118676" lon="-6.687874">
   <ele>70.00</ele>
   <time>2014-04-09T11:26:36Z</time>
  </trkpt>
  <trkpt lat="34.119220" lon="-6.687827">
   <ele>69.00</ele>
   <time>2014-04-09T11:26:38Z</time>
  </trkpt>
  <trkpt lat="34.120023" lon="-6.687719">
   <ele>68.00</ele>
   <time>2014-04-09T11:26:41Z</time>
  </trkpt>
  <trkpt lat="34.120815" lon="-6.687573">
   <ele>67.00</ele>
   <time>2014-04-09T11:26:44Z</time>
  </trkpt>
  <trkpt lat="34.121598" lon="-6.687386">
   <ele>66.00</ele>
   <time>2014-04-09T11:26:47Z</time>
  </trkpt>
  <trkpt lat="34.123656" lon="-6.686791">
   <ele>63.00</ele>
   <time>2014-04-09T11:26:55Z</time>
  </trkpt>
  <trkpt lat="34.127736" lon="-6.685560">
   <ele>57.00</ele>
   <time>2014-04-09T11:27:11Z</time>
  </trkpt>
  <trkpt lat="34.131567" lon="-6.684402">
   <ele>53.00</ele>
   <time>2014-04-09T11:27:26Z</time>
  </trkpt>
  <trkpt lat="34.135481" lon="-6.683221">
   <ele>54.00</ele>
   <time>2014-04-09T11:27:41Z</time>
  </trkpt>
  <trkpt lat="34.139605" lon="-6.681990">
   <ele>58.00</ele>
   <time>2014-04-09T11:27:57Z</time>
  </trkpt>
  <trkpt lat="34.143449" lon="-6.680839">
   <ele>57.00</ele>
   <time>2014-04-09T11:28:12Z</time>
  </trkpt>
  <trkpt lat="34.147585" lon="-6.679597">
   <ele>53.00</ele>
   <time>2014-04-09T11:28:28Z</time>
  </trkpt>
  <trkpt lat="34.151486" lon="-6.678424">
   <ele>50.00</ele>
   <time>2014-04-09T11:28:43Z</time>
  </trkpt>
  <trkpt lat="34.154921" lon="-6.677411">
   <ele>45.00</ele>
   <time>2014-04-09T11:28:56Z</time>
  </trkpt>
  <trkpt lat="34.156222" lon="-6.676923">
   <ele>43.00</ele>
   <time>2014-04-09T11:29:01Z</time>
  </trkpt>
  <trkpt lat="34.157237" lon="-6.676481">
   <ele>42.00</ele>
   <time>2014-04-09T11:29:05Z</time>
  </trkpt>
  <trkpt lat="34.158227" lon="-6.675986">
   <ele>42.00</ele>
   <time>2014-04-09T11:29:09Z</time>
  </trkpt>
  <trkpt lat="34.159441" lon="-6.675322">
   <ele>42.00</ele>
   <time>2014-04-09T11:29:14Z</time>
  </trkpt>
  <trkpt lat="34.160401" lon="-6.674749">
   <ele>42.00</ele>
   <time>2014-04-09T11:29:18Z</time>
  </trkpt>
  <trkpt lat="34.161106" lon="-6.674276">
   <ele>41.00</ele>
   <time>2014-04-09T11:29:21Z</time>
  </trkpt>
  <trkpt lat="34.162021" lon="-6.673600">
   <ele>41.00</ele>
   <time>2014-04-09T11:29:25Z</time>
  </trkpt>
  <trkpt lat="34.162912" lon="-6.672881">
   <ele>40.00</ele>
   <time>2014-04-09T11:29:29Z</time>
  </trkpt>
  <trkpt lat="34.163344" lon="-6.672503">
   <ele>40.00</ele>
   <time>2014-04-09T11:29:31Z</time>
  </trkpt>
  <trkpt lat="34.164177" lon="-6.671698">
   <ele>40.00</ele>
   <time>2014-04-09T11:29:35Z</time>
  </trkpt>
  <trkpt lat="34.165588" lon="-6.670236">
   <ele>40.00</ele>
   <time>2014-04-09T11:29:42Z</time>
  </trkpt>
  <trkpt lat="34.166167" lon="-6.669580">
   <ele>40.00</ele>
   <time>2014-04-09T11:29:45Z</time>
  </trkpt>
  <trkpt lat="34.166917" lon="-6.668668">
   <ele>40.00</ele>
   <time>2014-04-09T11:29:49Z</time>
  </trkpt>
  <trkpt lat="34.167818" lon="-6.667477">
   <ele>41.00</ele>
   <time>2014-04-09T11:29:54Z</time>
  </trkpt>
  <trkpt lat="34.170576" lon="-6.663901">
   <ele>44.00</ele>
   <time>2014-04-09T11:30:09Z</time>
  </trkpt>
  <trkpt lat="34.173544" lon="-6.660103">
   <ele>46.00</ele>
   <time>2014-04-09T11:30:25Z</time>
  </trkpt>
  <trkpt lat="34.176312" lon="-6.656566">
   <ele>46.00</ele>
   <time>2014-04-09T11:30:40Z</time>
  </trkpt>
  <trkpt lat="34.179115" lon="-6.653001">
   <ele>43.00</ele>
   <time>2014-04-09T11:30:55Z</time>
  </trkpt>
  <trkpt lat="34.182142" lon="-6.649196">
   <ele>42.00</ele>
   <time>2014-04-09T11:31:11Z</time>
  </trkpt>
  <trkpt lat="34.184876" lon="-6.645655">
   <ele>40.00</ele>
   <time>2014-04-09T11:31:26Z</time>
  </trkpt>
  <trkpt lat="34.187721" lon="-6.642020">
   <ele>36.00</ele>
   <time>2014-04-09T11:31:42Z</time>
  </trkpt>
  <trkpt lat="34.190397" lon="-6.638606">
   <ele>35.00</ele>
   <time>2014-04-09T11:31:57Z</time>
  </trkpt>
  <trkpt lat="34.192998" lon="-6.635291">
   <ele>34.00</ele>
   <time>2014-04-09T11:32:12Z</time>
  </trkpt>
  <trkpt lat="34.195791" lon="-6.631724">
   <ele>34.00</ele>
   <time>2014-04-09T11:32:28Z</time>
  </trkpt>
  <trkpt lat="34.198490" lon="-6.628286">
   <ele>34.00</ele>
   <time>2014-04-09T11:32:43Z</time>
  </trkpt>
  <trkpt lat="34.201174" lon="-6.624906">
   <ele>35.00</ele>
   <time>2014-04-09T11:32:58Z</time>
  </trkpt>
  <trkpt lat="34.203979" lon="-6.621271">
   <ele>37.00</ele>
   <time>2014-04-09T11:33:14Z</time>
  </trkpt>
  <trkpt lat="34.206678" lon="-6.617835">
   <ele>39.00</ele>
   <time>2014-04-09T11:33:29Z</time>
  </trkpt>
  <trkpt lat="34.208288" lon="-6.615808">
   <ele>39.00</ele>
   <time>2014-04-09T11:33:38Z</time>
  </trkpt>
  <trkpt lat="34.208859" lon="-6.615168">
   <ele>40.00</ele>
   <time>2014-04-09T11:33:41Z</time>
  </trkpt>
  <trkpt lat="34.209865" lon="-6.614140">
   <ele>40.00</ele>
   <time>2014-04-09T11:33:46Z</time>
  </trkpt>
  <trkpt lat="34.210711" lon="-6.613356">
   <ele>40.00</ele>
   <time>2014-04-09T11:33:50Z</time>
  </trkpt>
  <trkpt lat="34.213951" lon="-6.610586">
   <ele>40.00</ele>
   <time>2014-04-09T11:34:05Z</time>
  </trkpt>
  <trkpt lat="34.217499" lon="-6.607622">
   <ele>39.00</ele>
   <time>2014-04-09T11:34:21Z</time>
  </trkpt>
  <trkpt lat="34.220784" lon="-6.604842">
   <ele>38.00</ele>
   <time>2014-04-09T11:34:36Z</time>
  </trkpt>
  <trkpt lat="34.223396" lon="-6.602603">
   <ele>38.00</ele>
   <time>2014-04-09T11:34:48Z</time>
  </trkpt>
  <trkpt lat="34.224017" lon="-6.601997">
   <ele>38.00</ele>
   <time>2014-04-09T11:34:51Z</time>
  </trkpt>
  <trkpt lat="34.224612" lon="-6.601361">
   <ele>38.00</ele>
   <time>2014-04-09T11:34:54Z</time>
  </trkpt>
  <trkpt lat="34.224993" lon="-6.600917">
   <ele>38.00</ele>
   <time>2014-04-09T11:34:56Z</time>
  </trkpt>
  <trkpt lat="34.225538" lon="-6.600222">
   <ele>38.00</ele>
   <time>2014-04-09T11:34:59Z</time>
  </trkpt>
  <trkpt lat="34.226058" lon="-6.599495">
   <ele>37.00</ele>
   <time>2014-04-09T11:35:02Z</time>
  </trkpt>
  <trkpt lat="34.226549" lon="-6.598735">
   <ele>37.00</ele>
   <time>2014-04-09T11:35:05Z</time>
  </trkpt>
  <trkpt lat="34.226859" lon="-6.598208">
   <ele>37.00</ele>
   <time>2014-04-09T11:35:07Z</time>
  </trkpt>
  <trkpt lat="34.227294" lon="-6.597396">
   <ele>37.00</ele>
   <time>2014-04-09T11:35:10Z</time>
  </trkpt>
  <trkpt lat="34.227696" lon="-6.596568">
   <ele>38.00</ele>
   <time>2014-04-09T11:35:13Z</time>
  </trkpt>
  <trkpt lat="34.228061" lon="-6.595714">
   <ele>38.00</ele>
   <time>2014-04-09T11:35:16Z</time>
  </trkpt>
  <trkpt lat="34.228285" lon="-6.595128">
   <ele>39.00</ele>
   <time>2014-04-09T11:35:18Z</time>
  </trkpt>
  <trkpt lat="34.228597" lon="-6.594226">
   <ele>39.00</ele>
   <time>2014-04-09T11:35:21Z</time>
  </trkpt>
  <trkpt lat="34.228876" lon="-6.593317">
   <ele>40.00</ele>
   <time>2014-04-09T11:35:24Z</time>
  </trkpt>
  <trkpt lat="34.229102" lon="-6.592449">
   <ele>40.00</ele>
   <time>2014-04-09T11:35:27Z</time>
  </trkpt>
  <trkpt lat="34.229279" lon="-6.591623">
   <ele>41.00</ele>
   <time>2014-04-09T11:35:30Z</time>
  </trkpt>
  <trkpt lat="34.229470" lon="-6.590502">
   <ele>42.00</ele>
   <time>2014-04-09T11:35:34Z</time>
  </trkpt>
  <trkpt lat="34.229548" lon="-6.589905">
   <ele>42.00</ele>
   <time>2014-04-09T11:35:36Z</time>
  </trkpt>
  <trkpt lat="34.229629" lon="-6.589034">
   <ele>43.00</ele>
   <time>2014-04-09T11:35:39Z</time>
  </trkpt>
  <trkpt lat="34.229679" lon="-6.587906">
   <ele>44.00</ele>
   <time>2014-04-09T11:35:43Z</time>
  </trkpt>
  <trkpt lat="34.229687" lon="-6.587095">
   <ele>44.00</ele>
   <time>2014-04-09T11:35:46Z</time>
  </trkpt>
  <trkpt lat="34.229633" lon="-6.583790">
   <ele>41.00</ele>
   <time>2014-04-09T11:36:02Z</time>
  </trkpt>
  <trkpt lat="34.229629" lon="-6.583269">
   <ele>40.00</ele>
   <time>2014-04-09T11:36:05Z</time>
  </trkpt>
  <trkpt lat="34.229630" lon="-6.582119">
   <ele>38.00</ele>
   <time>2014-04-09T11:36:20Z</time>
  </trkpt>
  <trkpt lat="34.229625" lon="-6.582105">
   <ele>41.00</ele>
   <time>2014-04-09T11:36:36Z</time>
  </trkpt>
  <trkpt lat="34.229620" lon="-6.582047">
   <ele>38.00</ele>
   <time>2014-04-09T11:36:51Z</time>
  </trkpt>
  <trkpt lat="34.229616" lon="-6.582064">
   <ele>39.00</ele>
   <time>2014-04-09T11:37:07Z</time>
  </trkpt>
  <trkpt lat="34.229617" lon="-6.582013">
   <ele>40.00</ele>
   <time>2014-04-09T11:37:22Z</time>
  </trkpt>
  <trkpt lat="34.229628" lon="-6.581773">
   <ele>37.00</ele>
   <time>2014-04-09T11:37:33Z</time>
  </trkpt>
  <trkpt lat="34.229711" lon="-6.579372">
   <ele>33.00</ele>
   <time>2014-04-09T11:37:47Z</time>
  </trkpt>
  <trkpt lat="34.229849" lon="-6.576792">
   <ele>31.00</ele>
   <time>2014-04-09T11:37:57Z</time>
  </trkpt>
  <trkpt lat="34.229934" lon="-6.572336">
   <ele>35.00</ele>
   <time>2014-04-09T11:38:12Z</time>
  </trkpt>
  <trkpt lat="34.230008" lon="-6.567745">
   <ele>36.00</ele>
   <time>2014-04-09T11:38:27Z</time>
  </trkpt>
  <trkpt lat="34.229997" lon="-6.566488">
   <ele>36.00</ele>
   <time>2014-04-09T11:38:31Z</time>
  </trkpt>
  <trkpt lat="34.229926" lon="-6.564905">
   <ele>36.00</ele>
   <time>2014-04-09T11:38:36Z</time>
  </trkpt>
  <trkpt lat="34.229875" lon="-6.564266">
   <ele>36.00</ele>
   <time>2014-04-09T11:38:38Z</time>
  </trkpt>
  <trkpt lat="34.229764" lon="-6.563307">
   <ele>37.00</ele>
   <time>2014-04-09T11:38:41Z</time>
  </trkpt>
  <trkpt lat="34.229614" lon="-6.562348">
   <ele>37.00</ele>
   <time>2014-04-09T11:38:44Z</time>
  </trkpt>
  <trkpt lat="34.229493" lon="-6.561716">
   <ele>38.00</ele>
   <time>2014-04-09T11:38:46Z</time>
  </trkpt>
  <trkpt lat="34.229217" lon="-6.560500">
   <ele>39.00</ele>
   <time>2014-04-09T11:38:50Z</time>
  </trkpt>
  <trkpt lat="34.229064" lon="-6.559908">
   <ele>39.00</ele>
   <time>2014-04-09T11:38:52Z</time>
  </trkpt>
  <trkpt lat="34.228884" lon="-6.559323">
   <ele>40.00</ele>
   <time>2014-04-09T11:38:54Z</time>
  </trkpt>
  <trkpt lat="34.228583" lon="-6.558458">
   <ele>41.00</ele>
   <time>2014-04-09T11:38:57Z</time>
  </trkpt>
  <trkpt lat="34.226924" lon="-6.554222">
   <ele>43.00</ele>
   <time>2014-04-09T11:39:12Z</time>
  </trkpt>
  <trkpt lat="34.225299" lon="-6.549975">
   <ele>46.00</ele>
   <time>2014-04-09T11:39:27Z</time>
  </trkpt>
  <trkpt lat="34.223793" lon="-6.545973">
   <ele>49.00</ele>
   <time>2014-04-09T11:39:41Z</time>
  </trkpt>
  <trkpt lat="34.223427" lon="-6.544806">
   <ele>49.00</ele>
   <time>2014-04-09T11:39:45Z</time>
  </trkpt>
  <trkpt lat="34.223270" lon="-6.544215">
   <ele>50.00</ele>
   <time>2014-04-09T11:39:47Z</time>
  </trkpt>
  <trkpt lat="34.223135" lon="-6.543614">
   <ele>50.00</ele>
   <time>2014-04-09T11:39:49Z</time>
  </trkpt>
  <trkpt lat="34.222969" lon="-6.542697">
   <ele>49.00</ele>
   <time>2014-04-09T11:39:52Z</time>
  </trkpt>
  <trkpt lat="34.222873" lon="-6.542071">
   <ele>49.00</ele>
   <time>2014-04-09T11:39:54Z</time>
  </trkpt>
  <trkpt lat="34.222798" lon="-6.541432">
   <ele>49.00</ele>
   <time>2014-04-09T11:39:56Z</time>
  </trkpt>
  <trkpt lat="34.222750" lon="-6.540782">
   <ele>48.00</ele>
   <time>2014-04-09T11:39:58Z</time>
  </trkpt>
  <trkpt lat="34.222717" lon="-6.539795">
   <ele>47.00</ele>
   <time>2014-04-09T11:40:01Z</time>
  </trkpt>
  <trkpt lat="34.222722" lon="-6.539130">
   <ele>46.00</ele>
   <time>2014-04-09T11:40:03Z</time>
  </trkpt>
  <trkpt lat="34.222773" lon="-6.538129">
   <ele>45.00</ele>
   <time>2014-04-09T11:40:06Z</time>
  </trkpt>
  <trkpt lat="34.222832" lon="-6.537463">
   <ele>44.00</ele>
   <time>2014-04-09T11:40:08Z</time>
  </trkpt>
  <trkpt lat="34.222914" lon="-6.536800">
   <ele>43.00</ele>
   <time>2014-04-09T11:40:10Z</time>
  </trkpt>
  <trkpt lat="34.223018" lon="-6.536144">
   <ele>43.00</ele>
   <time>2014-04-09T11:40:12Z</time>
  </trkpt>
  <trkpt lat="34.223146" lon="-6.535496">
   <ele>42.00</ele>
   <time>2014-04-09T11:40:14Z</time>
  </trkpt>
  <trkpt lat="34.223296" lon="-6.534855">
   <ele>41.00</ele>
   <time>2014-04-09T11:40:16Z</time>
  </trkpt>
  <trkpt lat="34.223465" lon="-6.534222">
   <ele>41.00</ele>
   <time>2014-04-09T11:40:18Z</time>
  </trkpt>
  <trkpt lat="34.223656" lon="-6.533594">
   <ele>40.00</ele>
   <time>2014-04-09T11:40:20Z</time>
  </trkpt>
  <trkpt lat="34.223870" lon="-6.532975">
   <ele>39.00</ele>
   <time>2014-04-09T11:40:22Z</time>
  </trkpt>
  <trkpt lat="34.224103" lon="-6.532369">
   <ele>38.00</ele>
   <time>2014-04-09T11:40:24Z</time>
  </trkpt>
  <trkpt lat="34.224354" lon="-6.531776">
   <ele>36.00</ele>
   <time>2014-04-09T11:40:26Z</time>
  </trkpt>
  <trkpt lat="34.224627" lon="-6.531196">
   <ele>35.00</ele>
   <time>2014-04-09T11:40:28Z</time>
  </trkpt>
  <trkpt lat="34.224920" lon="-6.530629">
   <ele>33.00</ele>
   <time>2014-04-09T11:40:30Z</time>
  </trkpt>
  <trkpt lat="34.225238" lon="-6.530080">
   <ele>31.00</ele>
   <time>2014-04-09T11:40:32Z</time>
  </trkpt>
  <trkpt lat="34.227775" lon="-6.526115">
   <ele>21.00</ele>
   <time>2014-04-09T11:40:47Z</time>
  </trkpt>
  <trkpt lat="34.229107" lon="-6.524068">
   <ele>21.00</ele>
   <time>2014-04-09T11:40:55Z</time>
  </trkpt>
  <trkpt lat="34.229461" lon="-6.523577">
   <ele>21.00</ele>
   <time>2014-04-09T11:40:57Z</time>
  </trkpt>
  <trkpt lat="34.229836" lon="-6.523103">
   <ele>21.00</ele>
   <time>2014-04-09T11:40:59Z</time>
  </trkpt>
  <trkpt lat="34.230233" lon="-6.522652">
   <ele>21.00</ele>
   <time>2014-04-09T11:41:01Z</time>
  </trkpt>
  <trkpt lat="34.230652" lon="-6.522222">
   <ele>21.00</ele>
   <time>2014-04-09T11:41:03Z</time>
  </trkpt>
  <trkpt lat="34.231301" lon="-6.521599">
   <ele>21.00</ele>
   <time>2014-04-09T11:41:06Z</time>
  </trkpt>
  <trkpt lat="34.231976" lon="-6.521010">
   <ele>20.00</ele>
   <time>2014-04-09T11:41:09Z</time>
  </trkpt>
  <trkpt lat="34.232675" lon="-6.520463">
   <ele>19.00</ele>
   <time>2014-04-09T11:41:12Z</time>
  </trkpt>
  <trkpt lat="34.233154" lon="-6.520127">
   <ele>19.00</ele>
   <time>2014-04-09T11:41:14Z</time>
  </trkpt>
  <trkpt lat="34.233643" lon="-6.519818">
   <ele>18.00</ele>
   <time>2014-04-09T11:41:16Z</time>
  </trkpt>
  <trkpt lat="34.234147" lon="-6.519538">
   <ele>17.00</ele>
   <time>2014-04-09T11:41:18Z</time>
  </trkpt>
  <trkpt lat="34.234661" lon="-6.519283">
   <ele>16.00</ele>
   <time>2014-04-09T11:41:20Z</time>
  </trkpt>
  <trkpt lat="34.235449" lon="-6.518944">
   <ele>15.00</ele>
   <time>2014-04-09T11:41:23Z</time>
  </trkpt>
  <trkpt lat="34.235983" lon="-6.518756">
   <ele>14.00</ele>
   <time>2014-04-09T11:41:25Z</time>
  </trkpt>
  <trkpt lat="34.236523" lon="-6.518597">
   <ele>13.00</ele>
   <time>2014-04-09T11:41:27Z</time>
  </trkpt>
  <trkpt lat="34.237068" lon="-6.518460">
   <ele>12.00</ele>
   <time>2014-04-09T11:41:29Z</time>
  </trkpt>
  <trkpt lat="34.237891" lon="-6.518298">
   <ele>10.00</ele>
   <time>2014-04-09T11:41:32Z</time>
  </trkpt>
  <trkpt lat="34.242312" lon="-6.517627">
   <ele>6.00</ele>
   <time>2014-04-09T11:41:48Z</time>
  </trkpt>
  <trkpt lat="34.246421" lon="-6.517043">
   <ele>10.00</ele>
   <time>2014-04-09T11:42:03Z</time>
  </trkpt>
  <trkpt lat="34.248592" lon="-6.516657">
   <ele>13.00</ele>
   <time>2014-04-09T11:42:11Z</time>
  </trkpt>
  <trkpt lat="34.249667" lon="-6.516414">
   <ele>14.00</ele>
   <time>2014-04-09T11:42:15Z</time>
  </trkpt>
  <trkpt lat="34.251778" lon="-6.515808">
   <ele>16.00</ele>
   <time>2014-04-09T11:42:23Z</time>
  </trkpt>
  <trkpt lat="34.253850" lon="-6.515158">
   <ele>17.00</ele>
   <time>2014-04-09T11:42:31Z</time>
  </trkpt>
  <trkpt lat="34.254366" lon="-6.514959">
   <ele>17.00</ele>
   <time>2014-04-09T11:42:33Z</time>
  </trkpt>
  <trkpt lat="34.258273" lon="-6.513300">
   <ele>13.00</ele>
   <time>2014-04-09T11:42:48Z</time>
  </trkpt>
  <trkpt lat="34.262395" lon="-6.511554">
   <ele>15.00</ele>
   <time>2014-04-09T11:43:04Z</time>
  </trkpt>
  <trkpt lat="34.266258" lon="-6.509912">
   <ele>14.00</ele>
   <time>2014-04-09T11:43:19Z</time>
  </trkpt>
  <trkpt lat="34.270415" lon="-6.508186">
   <ele>13.00</ele>
   <time>2014-04-09T11:43:35Z</time>
  </trkpt>
  <trkpt lat="34.274463" lon="-6.506472">
   <ele>15.00</ele>
   <time>2014-04-09T11:43:50Z</time>
  </trkpt>
  <trkpt lat="34.277465" lon="-6.505198">
   <ele>15.00</ele>
   <time>2014-04-09T11:44:01Z</time>
  </trkpt>
  <trkpt lat="34.279118" lon="-6.504619">
   <ele>15.00</ele>
   <time>2014-04-09T11:44:07Z</time>
  </trkpt>
  <trkpt lat="34.280779" lon="-6.504122">
   <ele>14.00</ele>
   <time>2014-04-09T11:44:13Z</time>
  </trkpt>
  <trkpt lat="34.283843" lon="-6.503375">
   <ele>11.00</ele>
   <time>2014-04-09T11:44:24Z</time>
  </trkpt>
  <trkpt lat="34.288356" lon="-6.502390">
   <ele>8.00</ele>
   <time>2014-04-09T11:44:40Z</time>
  </trkpt>
  <trkpt lat="34.290049" lon="-6.502113">
   <ele>8.00</ele>
   <time>2014-04-09T11:44:46Z</time>
  </trkpt>
  <trkpt lat="34.291176" lon="-6.501988">
   <ele>7.00</ele>
   <time>2014-04-09T11:44:50Z</time>
  </trkpt>
  <trkpt lat="34.292023" lon="-6.501952">
   <ele>7.00</ele>
   <time>2014-04-09T11:44:53Z</time>
  </trkpt>
  <trkpt lat="34.292305" lon="-6.501953">
   <ele>7.00</ele>
   <time>2014-04-09T11:44:54Z</time>
  </trkpt>
  <trkpt lat="34.292865" lon="-6.501977">
   <ele>7.00</ele>
   <time>2014-04-09T11:44:56Z</time>
  </trkpt>
  <trkpt lat="34.293695" lon="-6.502062">
   <ele>8.00</ele>
   <time>2014-04-09T11:44:59Z</time>
  </trkpt>
  <trkpt lat="34.294517" lon="-6.502182">
   <ele>9.00</ele>
   <time>2014-04-09T11:45:02Z</time>
  </trkpt>
  <trkpt lat="34.295332" lon="-6.502341">
   <ele>10.00</ele>
   <time>2014-04-09T11:45:05Z</time>
  </trkpt>
  <trkpt lat="34.296138" lon="-6.502545">
   <ele>12.00</ele>
   <time>2014-04-09T11:45:08Z</time>
  </trkpt>
  <trkpt lat="34.296934" lon="-6.502796">
   <ele>13.00</ele>
   <time>2014-04-09T11:45:11Z</time>
  </trkpt>
  <trkpt lat="34.297721" lon="-6.503085">
   <ele>15.00</ele>
   <time>2014-04-09T11:45:14Z</time>
  </trkpt>
  <trkpt lat="34.298493" lon="-6.503419">
   <ele>16.00</ele>
   <time>2014-04-09T11:45:17Z</time>
  </trkpt>
  <trkpt lat="34.299504" lon="-6.503929">
   <ele>16.00</ele>
   <time>2014-04-09T11:45:21Z</time>
  </trkpt>
  <trkpt lat="34.303257" lon="-6.506091">
   <ele>11.00</ele>
   <time>2014-04-09T11:45:37Z</time>
  </trkpt>
  <trkpt lat="34.305128" lon="-6.507151">
   <ele>12.00</ele>
   <time>2014-04-09T11:45:46Z</time>
  </trkpt>
  <trkpt lat="34.307428" lon="-6.508328">
   <ele>14.00</ele>
   <time>2014-04-09T11:46:01Z</time>
  </trkpt>
  <trkpt lat="34.307844" lon="-6.508549">
   <ele>14.00</ele>
   <time>2014-04-09T11:46:06Z</time>
  </trkpt>
  <trkpt lat="34.308028" lon="-6.508666">
   <ele>11.00</ele>
   <time>2014-04-09T11:46:21Z</time>
  </trkpt>
  <trkpt lat="34.308527" lon="-6.508953">
   <ele>10.00</ele>
   <time>2014-04-09T11:46:29Z</time>
  </trkpt>
  <trkpt lat="34.308810" lon="-6.509136">
   <ele>9.00</ele>
   <time>2014-04-09T11:46:32Z</time>
  </trkpt>
  <trkpt lat="34.310436" lon="-6.510234">
   <ele>8.00</ele>
   <time>2014-04-09T11:46:44Z</time>
  </trkpt>
  <trkpt lat="34.310979" lon="-6.510543">
   <ele>7.00</ele>
   <time>2014-04-09T11:46:47Z</time>
  </trkpt>
  <trkpt lat="34.311804" lon="-6.510961">
   <ele>6.00</ele>
   <time>2014-04-09T11:46:51Z</time>
  </trkpt>
  <trkpt lat="34.312251" lon="-6.511157">
   <ele>5.00</ele>
   <time>2014-04-09T11:46:53Z</time>
  </trkpt>
  <trkpt lat="34.312935" lon="-6.511416">
   <ele>5.00</ele>
   <time>2014-04-09T11:46:56Z</time>
  </trkpt>
  <trkpt lat="34.313420" lon="-6.511568">
   <ele>4.00</ele>
   <time>2014-04-09T11:46:58Z</time>
  </trkpt>
  <trkpt lat="34.314189" lon="-6.511768">
   <ele>4.00</ele>
   <time>2014-04-09T11:47:01Z</time>
  </trkpt>
  <trkpt lat="34.314995" lon="-6.511938">
   <ele>3.00</ele>
   <time>2014-04-09T11:47:04Z</time>
  </trkpt>
  <trkpt lat="34.315547" lon="-6.512015">
   <ele>2.00</ele>
   <time>2014-04-09T11:47:06Z</time>
  </trkpt>
  <trkpt lat="34.316103" lon="-6.512057">
   <ele>1.00</ele>
   <time>2014-04-09T11:47:08Z</time>
  </trkpt>
  <trkpt lat="34.316663" lon="-6.512066">
   <ele>1.00</ele>
   <time>2014-04-09T11:47:10Z</time>
  </trkpt>
  <trkpt lat="34.317223" lon="-6.512043">
   <ele>0.00</ele>
   <time>2014-04-09T11:47:12Z</time>
  </trkpt>
  <trkpt lat="34.317779" lon="-6.511989">
   <ele>0.00</ele>
   <time>2014-04-09T11:47:14Z</time>
  </trkpt>
  <trkpt lat="34.319143" lon="-6.511779">
   <ele>0.00</ele>
   <time>2014-04-09T11:47:19Z</time>
  </trkpt>
  <trkpt lat="34.323399" lon="-6.511083">
   <ele>2.00</ele>
   <time>2014-04-09T11:47:35Z</time>
  </trkpt>
  <trkpt lat="34.327433" lon="-6.510433">
   <ele>2.00</ele>
   <time>2014-04-09T11:47:50Z</time>
  </trkpt>
  <trkpt lat="34.331669" lon="-6.509753">
   <ele>2.00</ele>
   <time>2014-04-09T11:48:06Z</time>
  </trkpt>
  <trkpt lat="34.335591" lon="-6.509118">
   <ele>6.00</ele>
   <time>2014-04-09T11:48:21Z</time>
  </trkpt>
  <trkpt lat="34.339522" lon="-6.508504">
   <ele>4.00</ele>
   <time>2014-04-09T11:48:36Z</time>
  </trkpt>
  <trkpt lat="34.340039" lon="-6.508439">
   <ele>4.00</ele>
   <time>2014-04-09T11:48:38Z</time>
  </trkpt>
  <trkpt lat="34.340554" lon="-6.508403">
   <ele>4.00</ele>
   <time>2014-04-09T11:48:40Z</time>
  </trkpt>
  <trkpt lat="34.341844" lon="-6.508370">
   <ele>4.00</ele>
   <time>2014-04-09T11:48:45Z</time>
  </trkpt>
  <trkpt lat="34.342104" lon="-6.508373">
   <ele>4.00</ele>
   <time>2014-04-09T11:48:46Z</time>
  </trkpt>
  <trkpt lat="34.342626" lon="-6.508398">
   <ele>4.00</ele>
   <time>2014-04-09T11:48:48Z</time>
  </trkpt>
  <trkpt lat="34.343149" lon="-6.508456">
   <ele>4.00</ele>
   <time>2014-04-09T11:48:50Z</time>
  </trkpt>
  <trkpt lat="34.343671" lon="-6.508541">
   <ele>4.00</ele>
   <time>2014-04-09T11:48:52Z</time>
  </trkpt>
  <trkpt lat="34.344192" lon="-6.508651">
   <ele>4.00</ele>
   <time>2014-04-09T11:48:54Z</time>
  </trkpt>
  <trkpt lat="34.344713" lon="-6.508788">
   <ele>5.00</ele>
   <time>2014-04-09T11:48:56Z</time>
  </trkpt>
  <trkpt lat="34.345229" lon="-6.508950">
   <ele>5.00</ele>
   <time>2014-04-09T11:48:58Z</time>
  </trkpt>
  <trkpt lat="34.345741" lon="-6.509141">
   <ele>5.00</ele>
   <time>2014-04-09T11:49:00Z</time>
  </trkpt>
  <trkpt lat="34.346500" lon="-6.509465">
   <ele>5.00</ele>
   <time>2014-04-09T11:49:03Z</time>
  </trkpt>
  <trkpt lat="34.347497" lon="-6.509951">
   <ele>4.00</ele>
   <time>2014-04-09T11:49:07Z</time>
  </trkpt>
  <trkpt lat="34.351235" lon="-6.511842">
   <ele>4.00</ele>
   <time>2014-04-09T11:49:22Z</time>
  </trkpt>
  <trkpt lat="34.355206" lon="-6.513856">
   <ele>4.00</ele>
   <time>2014-04-09T11:49:38Z</time>
  </trkpt>
  <trkpt lat="34.358944" lon="-6.515745">
   <ele>4.00</ele>
   <time>2014-04-09T11:49:53Z</time>
  </trkpt>
  <trkpt lat="34.362705" lon="-6.517670">
   <ele>4.00</ele>
   <time>2014-04-09T11:50:08Z</time>
  </trkpt>
  <trkpt lat="34.365248" lon="-6.518880">
   <ele>4.00</ele>
   <time>2014-04-09T11:50:18Z</time>
  </trkpt>
  <trkpt lat="34.366015" lon="-6.519188">
   <ele>4.00</ele>
   <time>2014-04-09T11:50:21Z</time>
  </trkpt>
  <trkpt lat="34.366530" lon="-6.519364">
   <ele>4.00</ele>
   <time>2014-04-09T11:50:23Z</time>
  </trkpt>
  <trkpt lat="34.367307" lon="-6.519580">
   <ele>4.00</ele>
   <time>2014-04-09T11:50:26Z</time>
  </trkpt>
  <trkpt lat="34.367827" lon="-6.519691">
   <ele>4.00</ele>
   <time>2014-04-09T11:50:28Z</time>
  </trkpt>
  <trkpt lat="34.368612" lon="-6.519814">
   <ele>5.00</ele>
   <time>2014-04-09T11:50:31Z</time>
  </trkpt>
  <trkpt lat="34.369139" lon="-6.519867">
   <ele>5.00</ele>
   <time>2014-04-09T11:50:33Z</time>
  </trkpt>
  <trkpt lat="34.369669" lon="-6.519888">
   <ele>5.00</ele>
   <time>2014-04-09T11:50:35Z</time>
  </trkpt>
  <trkpt lat="34.369934" lon="-6.519889">
   <ele>5.00</ele>
   <time>2014-04-09T11:50:36Z</time>
  </trkpt>
  <trkpt lat="34.370464" lon="-6.519874">
   <ele>5.00</ele>
   <time>2014-04-09T11:50:38Z</time>
  </trkpt>
  <trkpt lat="34.371254" lon="-6.519807">
   <ele>5.00</ele>
   <time>2014-04-09T11:50:41Z</time>
  </trkpt>
  <trkpt lat="34.371777" lon="-6.519730">
   <ele>5.00</ele>
   <time>2014-04-09T11:50:43Z</time>
  </trkpt>
  <trkpt lat="34.372557" lon="-6.519567">
   <ele>5.00</ele>
   <time>2014-04-09T11:50:46Z</time>
  </trkpt>
  <trkpt lat="34.373331" lon="-6.519356">
   <ele>5.00</ele>
   <time>2014-04-09T11:50:49Z</time>
  </trkpt>
  <trkpt lat="34.377161" lon="-6.518071">
   <ele>6.00</ele>
   <time>2014-04-09T11:51:04Z</time>
  </trkpt>
  <trkpt lat="34.381241" lon="-6.516699">
   <ele>6.00</ele>
   <time>2014-04-09T11:51:20Z</time>
  </trkpt>
  <trkpt lat="34.385066" lon="-6.515410">
   <ele>6.00</ele>
   <time>2014-04-09T11:51:35Z</time>
  </trkpt>
  <trkpt lat="34.386858" lon="-6.514841">
   <ele>6.00</ele>
   <time>2014-04-09T11:51:42Z</time>
  </trkpt>
  <trkpt lat="34.387637" lon="-6.514644">
   <ele>6.00</ele>
   <time>2014-04-09T11:51:45Z</time>
  </trkpt>
  <trkpt lat="34.388422" lon="-6.514499">
   <ele>6.00</ele>
   <time>2014-04-09T11:51:48Z</time>
  </trkpt>
  <trkpt lat="34.388950" lon="-6.514437">
   <ele>6.00</ele>
   <time>2014-04-09T11:51:50Z</time>
  </trkpt>
  <trkpt lat="34.389481" lon="-6.514400">
   <ele>6.00</ele>
   <time>2014-04-09T11:51:52Z</time>
  </trkpt>
  <trkpt lat="34.390014" lon="-6.514389">
   <ele>6.00</ele>
   <time>2014-04-09T11:51:54Z</time>
  </trkpt>
  <trkpt lat="34.390546" lon="-6.514405">
   <ele>6.00</ele>
   <time>2014-04-09T11:51:56Z</time>
  </trkpt>
  <trkpt lat="34.391076" lon="-6.514442">
   <ele>6.00</ele>
   <time>2014-04-09T11:51:58Z</time>
  </trkpt>
  <trkpt lat="34.391867" lon="-6.514544">
   <ele>6.00</ele>
   <time>2014-04-09T11:52:01Z</time>
  </trkpt>
  <trkpt lat="34.392388" lon="-6.514641">
   <ele>6.00</ele>
   <time>2014-04-09T11:52:03Z</time>
  </trkpt>
  <trkpt lat="34.392904" lon="-6.514768">
   <ele>7.00</ele>
   <time>2014-04-09T11:52:05Z</time>
  </trkpt>
  <trkpt lat="34.393666" lon="-6.514998">
   <ele>8.00</ele>
   <time>2014-04-09T11:52:08Z</time>
  </trkpt>
  <trkpt lat="34.394416" lon="-6.515271">
   <ele>8.00</ele>
   <time>2014-04-09T11:52:11Z</time>
  </trkpt>
  <trkpt lat="34.394906" lon="-6.515485">
   <ele>9.00</ele>
   <time>2014-04-09T11:52:13Z</time>
  </trkpt>
  <trkpt lat="34.395624" lon="-6.515849">
   <ele>9.00</ele>
   <time>2014-04-09T11:52:16Z</time>
  </trkpt>
  <trkpt lat="34.396091" lon="-6.516122">
   <ele>9.00</ele>
   <time>2014-04-09T11:52:18Z</time>
  </trkpt>
  <trkpt lat="34.397008" lon="-6.516717">
   <ele>9.00</ele>
   <time>2014-04-09T11:52:22Z</time>
  </trkpt>
  <trkpt lat="34.400659" lon="-6.519260">
   <ele>8.00</ele>
   <time>2014-04-09T11:52:38Z</time>
  </trkpt>
  <trkpt lat="34.404387" lon="-6.521800">
   <ele>7.00</ele>
   <time>2014-04-09T11:52:54Z</time>
  </trkpt>
  <trkpt lat="34.405096" lon="-6.522264">
   <ele>6.00</ele>
   <time>2014-04-09T11:52:57Z</time>
  </trkpt>
  <trkpt lat="34.405580" lon="-6.522551">
   <ele>6.00</ele>
   <time>2014-04-09T11:52:59Z</time>
  </trkpt>
  <trkpt lat="34.406073" lon="-6.522813">
   <ele>6.00</ele>
   <time>2014-04-09T11:53:01Z</time>
  </trkpt>
  <trkpt lat="34.406578" lon="-6.523045">
   <ele>6.00</ele>
   <time>2014-04-09T11:53:03Z</time>
  </trkpt>
  <trkpt lat="34.407090" lon="-6.523249">
   <ele>6.00</ele>
   <time>2014-04-09T11:53:05Z</time>
  </trkpt>
  <trkpt lat="34.407607" lon="-6.523430">
   <ele>6.00</ele>
   <time>2014-04-09T11:53:07Z</time>
  </trkpt>
  <trkpt lat="34.408387" lon="-6.523661">
   <ele>6.00</ele>
   <time>2014-04-09T11:53:10Z</time>
  </trkpt>
  <trkpt lat="34.408908" lon="-6.523788">
   <ele>5.00</ele>
   <time>2014-04-09T11:53:12Z</time>
  </trkpt>
  <trkpt lat="34.409430" lon="-6.523888">
   <ele>5.00</ele>
   <time>2014-04-09T11:53:14Z</time>
  </trkpt>
  <trkpt lat="34.409953" lon="-6.523961">
   <ele>5.00</ele>
   <time>2014-04-09T11:53:16Z</time>
  </trkpt>
  <trkpt lat="34.410478" lon="-6.524009">
   <ele>5.00</ele>
   <time>2014-04-09T11:53:18Z</time>
  </trkpt>
  <trkpt lat="34.411004" lon="-6.524032">
   <ele>6.00</ele>
   <time>2014-04-09T11:53:20Z</time>
  </trkpt>
  <trkpt lat="34.411530" lon="-6.524032">
   <ele>6.00</ele>
   <time>2014-04-09T11:53:22Z</time>
  </trkpt>
  <trkpt lat="34.412055" lon="-6.524006">
   <ele>6.00</ele>
   <time>2014-04-09T11:53:24Z</time>
  </trkpt>
  <trkpt lat="34.412580" lon="-6.523954">
   <ele>7.00</ele>
   <time>2014-04-09T11:53:26Z</time>
  </trkpt>
  <trkpt lat="34.413365" lon="-6.523830">
   <ele>8.00</ele>
   <time>2014-04-09T11:53:29Z</time>
  </trkpt>
  <trkpt lat="34.413885" lon="-6.523715">
   <ele>9.00</ele>
   <time>2014-04-09T11:53:31Z</time>
  </trkpt>
  <trkpt lat="34.414658" lon="-6.523500">
   <ele>10.00</ele>
   <time>2014-04-09T11:53:34Z</time>
  </trkpt>
  <trkpt lat="34.415432" lon="-6.523254">
   <ele>11.00</ele>
   <time>2014-04-09T11:53:37Z</time>
  </trkpt>
  <trkpt lat="34.415944" lon="-6.523058">
   <ele>12.00</ele>
   <time>2014-04-09T11:53:39Z</time>
  </trkpt>
  <trkpt lat="34.417979" lon="-6.522171">
   <ele>16.00</ele>
   <time>2014-04-09T11:53:47Z</time>
  </trkpt>
  <trkpt lat="34.421750" lon="-6.520497">
   <ele>22.00</ele>
   <time>2014-04-09T11:54:02Z</time>
  </trkpt>
  <trkpt lat="34.425502" lon="-6.518872">
   <ele>23.00</ele>
   <time>2014-04-09T11:54:17Z</time>
  </trkpt>
  <trkpt lat="34.427025" lon="-6.518186">
   <ele>21.00</ele>
   <time>2014-04-09T11:54:23Z</time>
  </trkpt>
  <trkpt lat="34.427526" lon="-6.517914">
   <ele>21.00</ele>
   <time>2014-04-09T11:54:25Z</time>
  </trkpt>
  <trkpt lat="34.428264" lon="-6.517475">
   <ele>20.00</ele>
   <time>2014-04-09T11:54:28Z</time>
  </trkpt>
  <trkpt lat="34.428988" lon="-6.516999">
   <ele>19.00</ele>
   <time>2014-04-09T11:54:31Z</time>
  </trkpt>
  <trkpt lat="34.429695" lon="-6.516489">
   <ele>18.00</ele>
   <time>2014-04-09T11:54:34Z</time>
  </trkpt>
  <trkpt lat="34.430154" lon="-6.516122">
   <ele>18.00</ele>
   <time>2014-04-09T11:54:36Z</time>
  </trkpt>
  <trkpt lat="34.431039" lon="-6.515335">
   <ele>17.00</ele>
   <time>2014-04-09T11:54:40Z</time>
  </trkpt>
  <trkpt lat="34.431675" lon="-6.514714">
   <ele>16.00</ele>
   <time>2014-04-09T11:54:43Z</time>
  </trkpt>
  <trkpt lat="34.434392" lon="-6.511991">
   <ele>19.00</ele>
   <time>2014-04-09T11:54:56Z</time>
  </trkpt>
  <trkpt lat="34.434840" lon="-6.511596">
   <ele>20.00</ele>
   <time>2014-04-09T11:54:58Z</time>
  </trkpt>
  <trkpt lat="34.435535" lon="-6.511040">
   <ele>21.00</ele>
   <time>2014-04-09T11:55:01Z</time>
  </trkpt>
  <trkpt lat="34.436248" lon="-6.510521">
   <ele>22.00</ele>
   <time>2014-04-09T11:55:04Z</time>
  </trkpt>
  <trkpt lat="34.436977" lon="-6.510047">
   <ele>23.00</ele>
   <time>2014-04-09T11:55:07Z</time>
  </trkpt>
  <trkpt lat="34.437729" lon="-6.509617">
   <ele>23.00</ele>
   <time>2014-04-09T11:55:10Z</time>
  </trkpt>
  <trkpt lat="34.438502" lon="-6.509232">
   <ele>22.00</ele>
   <time>2014-04-09T11:55:13Z</time>
  </trkpt>
  <trkpt lat="34.439286" lon="-6.508879">
   <ele>22.00</ele>
   <time>2014-04-09T11:55:16Z</time>
  </trkpt>
  <trkpt lat="34.440081" lon="-6.508565">
   <ele>21.00</ele>
   <time>2014-04-09T11:55:19Z</time>
  </trkpt>
  <trkpt lat="34.443527" lon="-6.507277">
   <ele>18.00</ele>
   <time>2014-04-09T11:55:32Z</time>
  </trkpt>
  <trkpt lat="34.444297" lon="-6.506929">
   <ele>18.00</ele>
   <time>2014-04-09T11:55:35Z</time>
  </trkpt>
  <trkpt lat="34.445051" lon="-6.506545">
   <ele>18.00</ele>
   <time>2014-04-09T11:55:38Z</time>
  </trkpt>
  <trkpt lat="34.445785" lon="-6.506122">
   <ele>18.00</ele>
   <time>2014-04-09T11:55:41Z</time>
  </trkpt>
  <trkpt lat="34.446495" lon="-6.505665">
   <ele>19.00</ele>
   <time>2014-04-09T11:55:44Z</time>
  </trkpt>
  <trkpt lat="34.449233" lon="-6.503713">
   <ele>22.00</ele>
   <time>2014-04-09T11:55:56Z</time>
  </trkpt>
  <trkpt lat="34.450154" lon="-6.503067">
   <ele>23.00</ele>
   <time>2014-04-09T11:56:00Z</time>
  </trkpt>
  <trkpt lat="34.450860" lon="-6.502628">
   <ele>23.00</ele>
   <time>2014-04-09T11:56:03Z</time>
  </trkpt>
  <trkpt lat="34.451577" lon="-6.502232">
   <ele>24.00</ele>
   <time>2014-04-09T11:56:06Z</time>
  </trkpt>
  <trkpt lat="34.452307" lon="-6.501870">
   <ele>24.00</ele>
   <time>2014-04-09T11:56:09Z</time>
  </trkpt>
  <trkpt lat="34.453056" lon="-6.501550">
   <ele>23.00</ele>
   <time>2014-04-09T11:56:12Z</time>
  </trkpt>
  <trkpt lat="34.453820" lon="-6.501272">
   <ele>23.00</ele>
   <time>2014-04-09T11:56:15Z</time>
  </trkpt>
  <trkpt lat="34.454601" lon="-6.501035">
   <ele>22.00</ele>
   <time>2014-04-09T11:56:18Z</time>
  </trkpt>
  <trkpt lat="34.455394" lon="-6.500828">
   <ele>21.00</ele>
   <time>2014-04-09T11:56:21Z</time>
  </trkpt>
  <trkpt lat="34.459577" lon="-6.499942">
   <ele>18.00</ele>
   <time>2014-04-09T11:56:37Z</time>
  </trkpt>
  <trkpt lat="34.463531" lon="-6.499098">
   <ele>20.00</ele>
   <time>2014-04-09T11:56:52Z</time>
  </trkpt>
  <trkpt lat="34.467557" lon="-6.498228">
   <ele>18.00</ele>
   <time>2014-04-09T11:57:07Z</time>
  </trkpt>
  <trkpt lat="34.468354" lon="-6.498041">
   <ele>18.00</ele>
   <time>2014-04-09T11:57:10Z</time>
  </trkpt>
  <trkpt lat="34.468882" lon="-6.497886">
   <ele>18.00</ele>
   <time>2014-04-09T11:57:12Z</time>
  </trkpt>
  <trkpt lat="34.469666" lon="-6.497614">
   <ele>17.00</ele>
   <time>2014-04-09T11:57:15Z</time>
  </trkpt>
  <trkpt lat="34.470435" lon="-6.497305">
   <ele>18.00</ele>
   <time>2014-04-09T11:57:18Z</time>
  </trkpt>
  <trkpt lat="34.471433" lon="-6.496839">
   <ele>18.00</ele>
   <time>2014-04-09T11:57:22Z</time>
  </trkpt>
  <trkpt lat="34.472161" lon="-6.496453">
   <ele>19.00</ele>
   <time>2014-04-09T11:57:25Z</time>
  </trkpt>
  <trkpt lat="34.472871" lon="-6.496025">
   <ele>19.00</ele>
   <time>2014-04-09T11:57:28Z</time>
  </trkpt>
  <trkpt lat="34.473569" lon="-6.495552">
   <ele>20.00</ele>
   <time>2014-04-09T11:57:31Z</time>
  </trkpt>
  <trkpt lat="34.474250" lon="-6.495034">
   <ele>20.00</ele>
   <time>2014-04-09T11:57:34Z</time>
  </trkpt>
  <trkpt lat="34.474912" lon="-6.494476">
   <ele>21.00</ele>
   <time>2014-04-09T11:57:37Z</time>
  </trkpt>
  <trkpt lat="34.475337" lon="-6.494079">
   <ele>21.00</ele>
   <time>2014-04-09T11:57:39Z</time>
  </trkpt>
  <trkpt lat="34.475951" lon="-6.493458">
   <ele>22.00</ele>
   <time>2014-04-09T11:57:42Z</time>
  </trkpt>
  <trkpt lat="34.478839" lon="-6.490326">
   <ele>24.00</ele>
   <time>2014-04-09T11:57:57Z</time>
  </trkpt>
  <trkpt lat="34.479235" lon="-6.489925">
   <ele>24.00</ele>
   <time>2014-04-09T11:57:59Z</time>
  </trkpt>
  <trkpt lat="34.479842" lon="-6.489364">
   <ele>24.00</ele>
   <time>2014-04-09T11:58:02Z</time>
  </trkpt>
  <trkpt lat="34.480461" lon="-6.488835">
   <ele>24.00</ele>
   <time>2014-04-09T11:58:05Z</time>
  </trkpt>
  <trkpt lat="34.481097" lon="-6.488338">
   <ele>23.00</ele>
   <time>2014-04-09T11:58:08Z</time>
  </trkpt>
  <trkpt lat="34.481759" lon="-6.487868">
   <ele>23.00</ele>
   <time>2014-04-09T11:58:11Z</time>
  </trkpt>
  <trkpt lat="34.482442" lon="-6.487427">
   <ele>22.00</ele>
   <time>2014-04-09T11:58:14Z</time>
  </trkpt>
  <trkpt lat="34.482909" lon="-6.487155">
   <ele>22.00</ele>
   <time>2014-04-09T11:58:16Z</time>
  </trkpt>
  <trkpt lat="34.483618" lon="-6.486777">
   <ele>21.00</ele>
   <time>2014-04-09T11:58:19Z</time>
  </trkpt>
  <trkpt lat="34.484340" lon="-6.486434">
   <ele>21.00</ele>
   <time>2014-04-09T11:58:22Z</time>
  </trkpt>
  <trkpt lat="34.485072" lon="-6.486130">
   <ele>20.00</ele>
   <time>2014-04-09T11:58:25Z</time>
  </trkpt>
  <trkpt lat="34.485804" lon="-6.485870">
   <ele>20.00</ele>
   <time>2014-04-09T11:58:28Z</time>
  </trkpt>
  <trkpt lat="34.486795" lon="-6.485580">
   <ele>19.00</ele>
   <time>2014-04-09T11:58:32Z</time>
  </trkpt>
  <trkpt lat="34.490838" lon="-6.484472">
   <ele>17.00</ele>
   <time>2014-04-09T11:58:48Z</time>
  </trkpt>
  <trkpt lat="34.494615" lon="-6.483436">
   <ele>20.00</ele>
   <time>2014-04-09T11:59:03Z</time>
  </trkpt>
  <trkpt lat="34.498327" lon="-6.482439">
   <ele>21.00</ele>
   <time>2014-04-09T11:59:18Z</time>
  </trkpt>
  <trkpt lat="34.500309" lon="-6.481867">
   <ele>20.00</ele>
   <time>2014-04-09T11:59:26Z</time>
  </trkpt>
  <trkpt lat="34.501318" lon="-6.481498">
   <ele>19.00</ele>
   <time>2014-04-09T11:59:30Z</time>
  </trkpt>
  <trkpt lat="34.502333" lon="-6.481069">
   <ele>19.00</ele>
   <time>2014-04-09T11:59:34Z</time>
  </trkpt>
  <trkpt lat="34.503089" lon="-6.480708">
   <ele>19.00</ele>
   <time>2014-04-09T11:59:37Z</time>
  </trkpt>
  <trkpt lat="34.503830" lon="-6.480313">
   <ele>19.00</ele>
   <time>2014-04-09T11:59:40Z</time>
  </trkpt>
  <trkpt lat="34.504791" lon="-6.479735">
   <ele>19.00</ele>
   <time>2014-04-09T11:59:44Z</time>
  </trkpt>
  <trkpt lat="34.505258" lon="-6.479421">
   <ele>20.00</ele>
   <time>2014-04-09T11:59:46Z</time>
  </trkpt>
  <trkpt lat="34.509401" lon="-6.476624">
   <ele>22.00</ele>
   <time>2014-04-09T12:00:04Z</time>
  </trkpt>
  <trkpt lat="34.512871" lon="-6.474337">
   <ele>21.00</ele>
   <time>2014-04-09T12:00:19Z</time>
  </trkpt>
  <trkpt lat="34.513591" lon="-6.473921">
   <ele>20.00</ele>
   <time>2014-04-09T12:00:22Z</time>
  </trkpt>
  <trkpt lat="34.514558" lon="-6.473425">
   <ele>19.00</ele>
   <time>2014-04-09T12:00:26Z</time>
  </trkpt>
  <trkpt lat="34.515294" lon="-6.473088">
   <ele>19.00</ele>
   <time>2014-04-09T12:00:29Z</time>
  </trkpt>
  <trkpt lat="34.516542" lon="-6.472584">
   <ele>18.00</ele>
   <time>2014-04-09T12:00:34Z</time>
  </trkpt>
  <trkpt lat="34.520562" lon="-6.471015">
   <ele>16.00</ele>
   <time>2014-04-09T12:00:50Z</time>
  </trkpt>
  <trkpt lat="34.524357" lon="-6.469543">
   <ele>13.00</ele>
   <time>2014-04-09T12:01:05Z</time>
  </trkpt>
  <trkpt lat="34.528448" lon="-6.467935">
   <ele>10.00</ele>
   <time>2014-04-09T12:01:21Z</time>
  </trkpt>
  <trkpt lat="34.530212" lon="-6.467235">
   <ele>10.00</ele>
   <time>2014-04-09T12:01:28Z</time>
  </trkpt>
  <trkpt lat="34.530952" lon="-6.466891">
   <ele>11.00</ele>
   <time>2014-04-09T12:01:31Z</time>
  </trkpt>
  <trkpt lat="34.531925" lon="-6.466384">
   <ele>11.00</ele>
   <time>2014-04-09T12:01:35Z</time>
  </trkpt>
  <trkpt lat="34.532883" lon="-6.465814">
   <ele>12.00</ele>
   <time>2014-04-09T12:01:39Z</time>
  </trkpt>
  <trkpt lat="34.533593" lon="-6.465354">
   <ele>12.00</ele>
   <time>2014-04-09T12:01:42Z</time>
  </trkpt>
  <trkpt lat="34.534289" lon="-6.464856">
   <ele>11.00</ele>
   <time>2014-04-09T12:01:45Z</time>
  </trkpt>
  <trkpt lat="34.536790" lon="-6.462927">
   <ele>12.00</ele>
   <time>2014-04-09T12:01:56Z</time>
  </trkpt>
  <trkpt lat="34.537496" lon="-6.462463">
   <ele>12.00</ele>
   <time>2014-04-09T12:01:59Z</time>
  </trkpt>
  <trkpt lat="34.537975" lon="-6.462173">
   <ele>13.00</ele>
   <time>2014-04-09T12:02:01Z</time>
  </trkpt>
  <trkpt lat="34.538714" lon="-6.461779">
   <ele>14.00</ele>
   <time>2014-04-09T12:02:04Z</time>
  </trkpt>
  <trkpt lat="34.539472" lon="-6.461419">
   <ele>14.00</ele>
   <time>2014-04-09T12:02:07Z</time>
  </trkpt>
  <trkpt lat="34.540239" lon="-6.461101">
   <ele>14.00</ele>
   <time>2014-04-09T12:02:10Z</time>
  </trkpt>
  <trkpt lat="34.541017" lon="-6.460823">
   <ele>15.00</ele>
   <time>2014-04-09T12:02:13Z</time>
  </trkpt>
  <trkpt lat="34.541808" lon="-6.460593">
   <ele>15.00</ele>
   <time>2014-04-09T12:02:16Z</time>
  </trkpt>
  <trkpt lat="34.542608" lon="-6.460400">
   <ele>15.00</ele>
   <time>2014-04-09T12:02:19Z</time>
  </trkpt>
  <trkpt lat="34.543422" lon="-6.460252">
   <ele>14.00</ele>
   <time>2014-04-09T12:02:22Z</time>
  </trkpt>
  <trkpt lat="34.547626" lon="-6.459671">
   <ele>10.00</ele>
   <time>2014-04-09T12:02:37Z</time>
  </trkpt>
  <trkpt lat="34.551889" lon="-6.459059">
   <ele>9.00</ele>
   <time>2014-04-09T12:02:52Z</time>
  </trkpt>
  <trkpt lat="34.553008" lon="-6.458805">
   <ele>9.00</ele>
   <time>2014-04-09T12:02:56Z</time>
  </trkpt>
  <trkpt lat="34.553838" lon="-6.458575">
   <ele>9.00</ele>
   <time>2014-04-09T12:02:59Z</time>
  </trkpt>
  <trkpt lat="34.554658" lon="-6.458302">
   <ele>9.00</ele>
   <time>2014-04-09T12:03:02Z</time>
  </trkpt>
  <trkpt lat="34.555466" lon="-6.457995">
   <ele>10.00</ele>
   <time>2014-04-09T12:03:05Z</time>
  </trkpt>
  <trkpt lat="34.556525" lon="-6.457533">
   <ele>10.00</ele>
   <time>2014-04-09T12:03:09Z</time>
  </trkpt>
  <trkpt lat="34.560411" lon="-6.455615">
   <ele>13.00</ele>
   <time>2014-04-09T12:03:24Z</time>
  </trkpt>
  <trkpt lat="34.561207" lon="-6.455278">
   <ele>14.00</ele>
   <time>2014-04-09T12:03:27Z</time>
  </trkpt>
  <trkpt lat="34.562018" lon="-6.454991">
   <ele>15.00</ele>
   <time>2014-04-09T12:03:30Z</time>
  </trkpt>
  <trkpt lat="34.562567" lon="-6.454831">
   <ele>15.00</ele>
   <time>2014-04-09T12:03:32Z</time>
  </trkpt>
  <trkpt lat="34.563401" lon="-6.454631">
   <ele>16.00</ele>
   <time>2014-04-09T12:03:35Z</time>
  </trkpt>
  <trkpt lat="34.566527" lon="-6.453896">
   <ele>15.00</ele>
   <time>2014-04-09T12:03:46Z</time>
  </trkpt>
  <trkpt lat="34.567675" lon="-6.453550">
   <ele>15.00</ele>
   <time>2014-04-09T12:03:50Z</time>
  </trkpt>
  <trkpt lat="34.568514" lon="-6.453249">
   <ele>14.00</ele>
   <time>2014-04-09T12:03:53Z</time>
  </trkpt>
  <trkpt lat="34.569605" lon="-6.452805">
   <ele>15.00</ele>
   <time>2014-04-09T12:03:57Z</time>
  </trkpt>
  <trkpt lat="34.570400" lon="-6.452432">
   <ele>15.00</ele>
   <time>2014-04-09T12:04:00Z</time>
  </trkpt>
  <trkpt lat="34.571176" lon="-6.452021">
   <ele>16.00</ele>
   <time>2014-04-09T12:04:03Z</time>
  </trkpt>
  <trkpt lat="34.572183" lon="-6.451429">
   <ele>17.00</ele>
   <time>2014-04-09T12:04:07Z</time>
  </trkpt>
  <trkpt lat="34.575917" lon="-6.449031">
   <ele>21.00</ele>
   <time>2014-04-09T12:04:22Z</time>
  </trkpt>
  <trkpt lat="34.577656" lon="-6.447881">
   <ele>22.00</ele>
   <time>2014-04-09T12:04:29Z</time>
  </trkpt>
  <trkpt lat="34.578414" lon="-6.447442">
   <ele>23.00</ele>
   <time>2014-04-09T12:04:32Z</time>
  </trkpt>
  <trkpt lat="34.579442" lon="-6.446913">
   <ele>23.00</ele>
   <time>2014-04-09T12:04:36Z</time>
  </trkpt>
  <trkpt lat="34.580754" lon="-6.446315">
   <ele>23.00</ele>
   <time>2014-04-09T12:04:41Z</time>
  </trkpt>
  <trkpt lat="34.581555" lon="-6.445993">
   <ele>23.00</ele>
   <time>2014-04-09T12:04:44Z</time>
  </trkpt>
  <trkpt lat="34.582642" lon="-6.445613">
   <ele>23.00</ele>
   <time>2014-04-09T12:04:48Z</time>
  </trkpt>
  <trkpt lat="34.587007" lon="-6.444211">
   <ele>21.00</ele>
   <time>2014-04-09T12:05:04Z</time>
  </trkpt>
  <trkpt lat="34.587813" lon="-6.443924">
   <ele>21.00</ele>
   <time>2014-04-09T12:05:07Z</time>
  </trkpt>
  <trkpt lat="34.588612" lon="-6.443592">
   <ele>21.00</ele>
   <time>2014-04-09T12:05:10Z</time>
  </trkpt>
  <trkpt lat="34.589397" lon="-6.443223">
   <ele>21.00</ele>
   <time>2014-04-09T12:05:13Z</time>
  </trkpt>
  <trkpt lat="34.590427" lon="-6.442679">
   <ele>21.00</ele>
   <time>2014-04-09T12:05:17Z</time>
  </trkpt>
  <trkpt lat="34.591182" lon="-6.442233">
   <ele>20.00</ele>
   <time>2014-04-09T12:05:20Z</time>
  </trkpt>
  <trkpt lat="34.594886" lon="-6.439796">
   <ele>20.00</ele>
   <time>2014-04-09T12:05:35Z</time>
  </trkpt>
  <trkpt lat="34.598835" lon="-6.437214">
   <ele>20.00</ele>
   <time>2014-04-09T12:05:51Z</time>
  </trkpt>
  <trkpt lat="34.601763" lon="-6.435265">
   <ele>21.00</ele>
   <time>2014-04-09T12:06:03Z</time>
  </trkpt>
  <trkpt lat="34.603263" lon="-6.434349">
   <ele>21.00</ele>
   <time>2014-04-09T12:06:09Z</time>
  </trkpt>
  <trkpt lat="34.604031" lon="-6.433929">
   <ele>20.00</ele>
   <time>2014-04-09T12:06:12Z</time>
  </trkpt>
  <trkpt lat="34.605333" lon="-6.433287">
   <ele>20.00</ele>
   <time>2014-04-09T12:06:17Z</time>
  </trkpt>
  <trkpt lat="34.605862" lon="-6.433057">
   <ele>20.00</ele>
   <time>2014-04-09T12:06:19Z</time>
  </trkpt>
  <trkpt lat="34.606662" lon="-6.432750">
   <ele>21.00</ele>
   <time>2014-04-09T12:06:22Z</time>
  </trkpt>
  <trkpt lat="34.607735" lon="-6.432391">
   <ele>21.00</ele>
   <time>2014-04-09T12:06:26Z</time>
  </trkpt>
  <trkpt lat="34.610953" lon="-6.431350">
   <ele>21.00</ele>
   <time>2014-04-09T12:06:38Z</time>
  </trkpt>
  <trkpt lat="34.611748" lon="-6.431033">
   <ele>20.00</ele>
   <time>2014-04-09T12:06:41Z</time>
  </trkpt>
  <trkpt lat="34.612533" lon="-6.430670">
   <ele>20.00</ele>
   <time>2014-04-09T12:06:44Z</time>
  </trkpt>
  <trkpt lat="34.613303" lon="-6.430262">
   <ele>19.00</ele>
   <time>2014-04-09T12:06:47Z</time>
  </trkpt>
  <trkpt lat="34.614057" lon="-6.429807">
   <ele>19.00</ele>
   <time>2014-04-09T12:06:50Z</time>
  </trkpt>
  <trkpt lat="34.614547" lon="-6.429482">
   <ele>19.00</ele>
   <time>2014-04-09T12:06:52Z</time>
  </trkpt>
  <trkpt lat="34.615265" lon="-6.428962">
   <ele>19.00</ele>
   <time>2014-04-09T12:06:55Z</time>
  </trkpt>
  <trkpt lat="34.615962" lon="-6.428407">
   <ele>19.00</ele>
   <time>2014-04-09T12:06:58Z</time>
  </trkpt>
  <trkpt lat="34.616631" lon="-6.427812">
   <ele>19.00</ele>
   <time>2014-04-09T12:07:01Z</time>
  </trkpt>
  <trkpt lat="34.619660" lon="-6.424952">
   <ele>20.00</ele>
   <time>2014-04-09T12:07:15Z</time>
  </trkpt>
  <trkpt lat="34.620573" lon="-6.424211">
   <ele>20.00</ele>
   <time>2014-04-09T12:07:19Z</time>
  </trkpt>
  <trkpt lat="34.621281" lon="-6.423688">
   <ele>19.00</ele>
   <time>2014-04-09T12:07:22Z</time>
  </trkpt>
  <trkpt lat="34.622252" lon="-6.423037">
   <ele>19.00</ele>
   <time>2014-04-09T12:07:26Z</time>
  </trkpt>
  <trkpt lat="34.625402" lon="-6.421057">
   <ele>18.00</ele>
   <time>2014-04-09T12:07:39Z</time>
  </trkpt>
  <trkpt lat="34.626091" lon="-6.420553">
   <ele>19.00</ele>
   <time>2014-04-09T12:07:42Z</time>
  </trkpt>
  <trkpt lat="34.626541" lon="-6.420199">
   <ele>19.00</ele>
   <time>2014-04-09T12:07:44Z</time>
  </trkpt>
  <trkpt lat="34.627194" lon="-6.419637">
   <ele>19.00</ele>
   <time>2014-04-09T12:07:47Z</time>
  </trkpt>
  <trkpt lat="34.627823" lon="-6.419043">
   <ele>20.00</ele>
   <time>2014-04-09T12:07:50Z</time>
  </trkpt>
  <trkpt lat="34.628631" lon="-6.418189">
   <ele>20.00</ele>
   <time>2014-04-09T12:07:54Z</time>
  </trkpt>
  <trkpt lat="34.631743" lon="-6.414635">
   <ele>23.00</ele>
   <time>2014-04-09T12:08:10Z</time>
  </trkpt>
  <trkpt lat="34.632148" lon="-6.414208">
   <ele>23.00</ele>
   <time>2014-04-09T12:08:12Z</time>
  </trkpt>
  <trkpt lat="34.632783" lon="-6.413600">
   <ele>23.00</ele>
   <time>2014-04-09T12:08:15Z</time>
  </trkpt>
  <trkpt lat="34.633449" lon="-6.413023">
   <ele>23.00</ele>
   <time>2014-04-09T12:08:18Z</time>
  </trkpt>
  <trkpt lat="34.633908" lon="-6.412662">
   <ele>23.00</ele>
   <time>2014-04-09T12:08:20Z</time>
  </trkpt>
  <trkpt lat="34.634614" lon="-6.412153">
   <ele>23.00</ele>
   <time>2014-04-09T12:08:23Z</time>
  </trkpt>
  <trkpt lat="34.635573" lon="-6.411527">
   <ele>22.00</ele>
   <time>2014-04-09T12:08:27Z</time>
  </trkpt>
  <trkpt lat="34.636313" lon="-6.411101">
   <ele>22.00</ele>
   <time>2014-04-09T12:08:30Z</time>
  </trkpt>
  <trkpt lat="34.637068" lon="-6.410718">
   <ele>21.00</ele>
   <time>2014-04-09T12:08:33Z</time>
  </trkpt>
  <trkpt lat="34.637839" lon="-6.410374">
   <ele>20.00</ele>
   <time>2014-04-09T12:08:36Z</time>
  </trkpt>
  <trkpt lat="34.641169" lon="-6.408933">
   <ele>18.00</ele>
   <time>2014-04-09T12:08:49Z</time>
  </trkpt>
  <trkpt lat="34.641907" lon="-6.408546">
   <ele>19.00</ele>
   <time>2014-04-09T12:08:52Z</time>
  </trkpt>
  <trkpt lat="34.642626" lon="-6.408126">
   <ele>19.00</ele>
   <time>2014-04-09T12:08:55Z</time>
  </trkpt>
  <trkpt lat="34.643328" lon="-6.407671">
   <ele>19.00</ele>
   <time>2014-04-09T12:08:58Z</time>
  </trkpt>
  <trkpt lat="34.644012" lon="-6.407181">
   <ele>19.00</ele>
   <time>2014-04-09T12:09:01Z</time>
  </trkpt>
  <trkpt lat="34.644675" lon="-6.406650">
   <ele>20.00</ele>
   <time>2014-04-09T12:09:04Z</time>
  </trkpt>
  <trkpt lat="34.645967" lon="-6.405511">
   <ele>20.00</ele>
   <time>2014-04-09T12:09:10Z</time>
  </trkpt>
  <trkpt lat="34.648127" lon="-6.403583">
   <ele>21.00</ele>
   <time>2014-04-09T12:09:20Z</time>
  </trkpt>
  <trkpt lat="34.649041" lon="-6.402841">
   <ele>21.00</ele>
   <time>2014-04-09T12:09:24Z</time>
  </trkpt>
  <trkpt lat="34.650457" lon="-6.401763">
   <ele>21.00</ele>
   <time>2014-04-09T12:09:30Z</time>
  </trkpt>
  <trkpt lat="34.651197" lon="-6.401275">
   <ele>21.00</ele>
   <time>2014-04-09T12:09:33Z</time>
  </trkpt>
  <trkpt lat="34.652210" lon="-6.400686">
   <ele>20.00</ele>
   <time>2014-04-09T12:09:37Z</time>
  </trkpt>
  <trkpt lat="34.654988" lon="-6.399117">
   <ele>19.00</ele>
   <time>2014-04-09T12:09:48Z</time>
  </trkpt>
  <trkpt lat="34.655718" lon="-6.398645">
   <ele>19.00</ele>
   <time>2014-04-09T12:09:51Z</time>
  </trkpt>
  <trkpt lat="34.656432" lon="-6.398139">
   <ele>19.00</ele>
   <time>2014-04-09T12:09:54Z</time>
  </trkpt>
  <trkpt lat="34.657128" lon="-6.397599">
   <ele>19.00</ele>
   <time>2014-04-09T12:09:57Z</time>
  </trkpt>
  <trkpt lat="34.658033" lon="-6.396839">
   <ele>19.00</ele>
   <time>2014-04-09T12:10:01Z</time>
  </trkpt>
  <trkpt lat="34.658689" lon="-6.396238">
   <ele>19.00</ele>
   <time>2014-04-09T12:10:04Z</time>
  </trkpt>
  <trkpt lat="34.659319" lon="-6.395605">
   <ele>20.00</ele>
   <time>2014-04-09T12:10:07Z</time>
  </trkpt>
  <trkpt lat="34.662196" lon="-6.392541">
   <ele>23.00</ele>
   <time>2014-04-09T12:10:21Z</time>
  </trkpt>
  <trkpt lat="34.662857" lon="-6.391936">
   <ele>23.00</ele>
   <time>2014-04-09T12:10:24Z</time>
  </trkpt>
  <trkpt lat="34.663541" lon="-6.391369">
   <ele>23.00</ele>
   <time>2014-04-09T12:10:27Z</time>
  </trkpt>
  <trkpt lat="34.664249" lon="-6.390840">
   <ele>23.00</ele>
   <time>2014-04-09T12:10:30Z</time>
  </trkpt>
  <trkpt lat="34.664978" lon="-6.390349">
   <ele>23.00</ele>
   <time>2014-04-09T12:10:33Z</time>
  </trkpt>
  <trkpt lat="34.665722" lon="-6.389902">
   <ele>22.00</ele>
   <time>2014-04-09T12:10:36Z</time>
  </trkpt>
  <trkpt lat="34.666478" lon="-6.389495">
   <ele>22.00</ele>
   <time>2014-04-09T12:10:39Z</time>
  </trkpt>
  <trkpt lat="34.667246" lon="-6.389133">
   <ele>22.00</ele>
   <time>2014-04-09T12:10:42Z</time>
  </trkpt>
  <trkpt lat="34.667763" lon="-6.388917">
   <ele>22.00</ele>
   <time>2014-04-09T12:10:44Z</time>
  </trkpt>
  <trkpt lat="34.668550" lon="-6.388633">
   <ele>22.00</ele>
   <time>2014-04-09T12:10:47Z</time>
  </trkpt>
  <trkpt lat="34.669345" lon="-6.388392">
   <ele>21.00</ele>
   <time>2014-04-09T12:10:50Z</time>
  </trkpt>
  <trkpt lat="34.670146" lon="-6.388192">
   <ele>21.00</ele>
   <time>2014-04-09T12:10:53Z</time>
  </trkpt>
  <trkpt lat="34.670956" lon="-6.388036">
   <ele>20.00</ele>
   <time>2014-04-09T12:10:56Z</time>
  </trkpt>
  <trkpt lat="34.672869" lon="-6.387781">
   <ele>18.00</ele>
   <time>2014-04-09T12:11:03Z</time>
  </trkpt>
  <trkpt lat="34.675897" lon="-6.387409">
   <ele>18.00</ele>
   <time>2014-04-09T12:11:14Z</time>
  </trkpt>
  <trkpt lat="34.676730" lon="-6.387249">
   <ele>17.00</ele>
   <time>2014-04-09T12:11:17Z</time>
  </trkpt>
  <trkpt lat="34.677561" lon="-6.387049">
   <ele>17.00</ele>
   <time>2014-04-09T12:11:20Z</time>
  </trkpt>
  <trkpt lat="34.678392" lon="-6.386810">
   <ele>17.00</ele>
   <time>2014-04-09T12:11:23Z</time>
  </trkpt>
  <trkpt lat="34.679216" lon="-6.386526">
   <ele>18.00</ele>
   <time>2014-04-09T12:11:26Z</time>
  </trkpt>
  <trkpt lat="34.680301" lon="-6.386089">
   <ele>18.00</ele>
   <time>2014-04-09T12:11:30Z</time>
  </trkpt>
  <trkpt lat="34.681100" lon="-6.385723">
   <ele>18.00</ele>
   <time>2014-04-09T12:11:33Z</time>
  </trkpt>
  <trkpt lat="34.682680" lon="-6.384960">
   <ele>19.00</ele>
   <time>2014-04-09T12:11:39Z</time>
  </trkpt>
  <trkpt lat="34.683485" lon="-6.384634">
   <ele>19.00</ele>
   <time>2014-04-09T12:11:42Z</time>
  </trkpt>
  <trkpt lat="34.684565" lon="-6.384260">
   <ele>20.00</ele>
   <time>2014-04-09T12:11:46Z</time>
  </trkpt>
  <trkpt lat="34.685106" lon="-6.384101">
   <ele>20.00</ele>
   <time>2014-04-09T12:11:48Z</time>
  </trkpt>
  <trkpt lat="34.689172" lon="-6.383087">
   <ele>22.00</ele>
   <time>2014-04-09T12:12:03Z</time>
  </trkpt>
  <trkpt lat="34.693250" lon="-6.382068">
   <ele>25.00</ele>
   <time>2014-04-09T12:12:18Z</time>
  </trkpt>
  <trkpt lat="34.693800" lon="-6.381927">
   <ele>25.00</ele>
   <time>2014-04-09T12:12:20Z</time>
  </trkpt>
  <trkpt lat="34.694617" lon="-6.381672">
   <ele>26.00</ele>
   <time>2014-04-09T12:12:23Z</time>
  </trkpt>
  <trkpt lat="34.695418" lon="-6.381374">
   <ele>27.00</ele>
   <time>2014-04-09T12:12:26Z</time>
  </trkpt>
  <trkpt lat="34.696465" lon="-6.380918">
   <ele>28.00</ele>
   <time>2014-04-09T12:12:30Z</time>
  </trkpt>
  <trkpt lat="34.700636" lon="-6.379051">
   <ele>29.00</ele>
   <time>2014-04-09T12:12:46Z</time>
  </trkpt>
  <trkpt lat="34.704538" lon="-6.377317">
   <ele>29.00</ele>
   <time>2014-04-09T12:13:01Z</time>
  </trkpt>
  <trkpt lat="34.708460" lon="-6.375572">
   <ele>28.00</ele>
   <time>2014-04-09T12:13:16Z</time>
  </trkpt>
  <trkpt lat="34.713151" lon="-6.373480">
   <ele>27.00</ele>
   <time>2014-04-09T12:13:34Z</time>
  </trkpt>
  <trkpt lat="34.717050" lon="-6.371717">
   <ele>26.00</ele>
   <time>2014-04-09T12:13:49Z</time>
  </trkpt>
  <trkpt lat="34.719095" lon="-6.370645">
   <ele>25.00</ele>
   <time>2014-04-09T12:13:57Z</time>
  </trkpt>
  <trkpt lat="34.722864" lon="-6.368515">
   <ele>26.00</ele>
   <time>2014-04-09T12:14:12Z</time>
  </trkpt>
  <trkpt lat="34.726584" lon="-6.366359">
   <ele>27.00</ele>
   <time>2014-04-09T12:14:27Z</time>
  </trkpt>
  <trkpt lat="34.730487" lon="-6.364083">
   <ele>28.00</ele>
   <time>2014-04-09T12:14:43Z</time>
  </trkpt>
  <trkpt lat="34.734181" lon="-6.361958">
   <ele>31.00</ele>
   <time>2014-04-09T12:14:58Z</time>
  </trkpt>
  <trkpt lat="34.734674" lon="-6.361658">
   <ele>31.00</ele>
   <time>2014-04-09T12:15:00Z</time>
  </trkpt>
  <trkpt lat="34.735642" lon="-6.361003">
   <ele>31.00</ele>
   <time>2014-04-09T12:15:04Z</time>
  </trkpt>
  <trkpt lat="34.736348" lon="-6.360474">
   <ele>31.00</ele>
   <time>2014-04-09T12:15:07Z</time>
  </trkpt>
  <trkpt lat="34.737264" lon="-6.359725">
   <ele>32.00</ele>
   <time>2014-04-09T12:15:11Z</time>
  </trkpt>
  <trkpt lat="34.738372" lon="-6.358734">
   <ele>32.00</ele>
   <time>2014-04-09T12:15:16Z</time>
  </trkpt>
  <trkpt lat="34.739227" lon="-6.357896">
   <ele>32.00</ele>
   <time>2014-04-09T12:15:20Z</time>
  </trkpt>
  <trkpt lat="34.740264" lon="-6.356790">
   <ele>32.00</ele>
   <time>2014-04-09T12:15:25Z</time>
  </trkpt>
  <trkpt lat="34.743595" lon="-6.353205">
   <ele>29.00</ele>
   <time>2014-04-09T12:15:41Z</time>
  </trkpt>
  <trkpt lat="34.745681" lon="-6.351039">
   <ele>27.00</ele>
   <time>2014-04-09T12:15:51Z</time>
  </trkpt>
  <trkpt lat="34.746532" lon="-6.350256">
   <ele>26.00</ele>
   <time>2014-04-09T12:15:55Z</time>
  </trkpt>
  <trkpt lat="34.747185" lon="-6.349707">
   <ele>26.00</ele>
   <time>2014-04-09T12:15:58Z</time>
  </trkpt>
  <trkpt lat="34.750726" lon="-6.346940">
   <ele>23.00</ele>
   <time>2014-04-09T12:16:14Z</time>
  </trkpt>
  <trkpt lat="34.754130" lon="-6.344344">
   <ele>18.00</ele>
   <time>2014-04-09T12:16:29Z</time>
  </trkpt>
  <trkpt lat="34.755265" lon="-6.343458">
   <ele>17.00</ele>
   <time>2014-04-09T12:16:34Z</time>
  </trkpt>
  <trkpt lat="34.755925" lon="-6.342886">
   <ele>16.00</ele>
   <time>2014-04-09T12:16:37Z</time>
  </trkpt>
  <trkpt lat="34.756571" lon="-6.342280">
   <ele>15.00</ele>
   <time>2014-04-09T12:16:40Z</time>
  </trkpt>
  <trkpt lat="34.757406" lon="-6.341434">
   <ele>15.00</ele>
   <time>2014-04-09T12:16:44Z</time>
  </trkpt>
  <trkpt lat="34.758008" lon="-6.340771">
   <ele>14.00</ele>
   <time>2014-04-09T12:16:47Z</time>
  </trkpt>
  <trkpt lat="34.758775" lon="-6.339846">
   <ele>14.00</ele>
   <time>2014-04-09T12:16:51Z</time>
  </trkpt>
  <trkpt lat="34.759502" lon="-6.338880">
   <ele>15.00</ele>
   <time>2014-04-09T12:16:55Z</time>
  </trkpt>
  <trkpt lat="34.760023" lon="-6.338123">
   <ele>15.00</ele>
   <time>2014-04-09T12:16:58Z</time>
  </trkpt>
  <trkpt lat="34.760523" lon="-6.337337">
   <ele>15.00</ele>
   <time>2014-04-09T12:17:01Z</time>
  </trkpt>
  <trkpt lat="34.761153" lon="-6.336257">
   <ele>15.00</ele>
   <time>2014-04-09T12:17:05Z</time>
  </trkpt>
  <trkpt lat="34.763529" lon="-6.331826">
   <ele>16.00</ele>
   <time>2014-04-09T12:17:21Z</time>
  </trkpt>
  <trkpt lat="34.765722" lon="-6.327726">
   <ele>17.00</ele>
   <time>2014-04-09T12:17:36Z</time>
  </trkpt>
  <trkpt lat="34.767627" lon="-6.324229">
   <ele>17.00</ele>
   <time>2014-04-09T12:17:49Z</time>
  </trkpt>
  <trkpt lat="34.768286" lon="-6.323187">
   <ele>17.00</ele>
   <time>2014-04-09T12:17:53Z</time>
  </trkpt>
  <trkpt lat="34.768810" lon="-6.322422">
   <ele>16.00</ele>
   <time>2014-04-09T12:17:56Z</time>
  </trkpt>
  <trkpt lat="34.769546" lon="-6.321443">
   <ele>14.00</ele>
   <time>2014-04-09T12:18:00Z</time>
  </trkpt>
  <trkpt lat="34.770315" lon="-6.320507">
   <ele>11.00</ele>
   <time>2014-04-09T12:18:04Z</time>
  </trkpt>
  <trkpt lat="34.771125" lon="-6.319611">
   <ele>8.00</ele>
   <time>2014-04-09T12:18:08Z</time>
  </trkpt>
  <trkpt lat="34.771758" lon="-6.318969">
   <ele>6.00</ele>
   <time>2014-04-09T12:18:11Z</time>
  </trkpt>
  <trkpt lat="34.772632" lon="-6.318156">
   <ele>4.00</ele>
   <time>2014-04-09T12:18:15Z</time>
  </trkpt>
  <trkpt lat="34.773308" lon="-6.317589">
   <ele>4.00</ele>
   <time>2014-04-09T12:18:18Z</time>
  </trkpt>
  <trkpt lat="34.774222" lon="-6.316883">
   <ele>4.00</ele>
   <time>2014-04-09T12:18:22Z</time>
  </trkpt>
  <trkpt lat="34.775148" lon="-6.316238">
   <ele>5.00</ele>
   <time>2014-04-09T12:18:26Z</time>
  </trkpt>
  <trkpt lat="34.775858" lon="-6.315793">
   <ele>7.00</ele>
   <time>2014-04-09T12:18:29Z</time>
  </trkpt>
  <trkpt lat="34.776836" lon="-6.315246">
   <ele>9.00</ele>
   <time>2014-04-09T12:18:33Z</time>
  </trkpt>
  <trkpt lat="34.780090" lon="-6.313572">
   <ele>16.00</ele>
   <time>2014-04-09T12:18:46Z</time>
  </trkpt>
  <trkpt lat="34.780815" lon="-6.313110">
   <ele>17.00</ele>
   <time>2014-04-09T12:18:49Z</time>
  </trkpt>
  <trkpt lat="34.781522" lon="-6.312608">
   <ele>18.00</ele>
   <time>2014-04-09T12:18:52Z</time>
  </trkpt>
  <trkpt lat="34.782212" lon="-6.312067">
   <ele>18.00</ele>
   <time>2014-04-09T12:18:55Z</time>
  </trkpt>
  <trkpt lat="34.782884" lon="-6.311485">
   <ele>18.00</ele>
   <time>2014-04-09T12:18:58Z</time>
  </trkpt>
  <trkpt lat="34.783536" lon="-6.310859">
   <ele>18.00</ele>
   <time>2014-04-09T12:19:01Z</time>
  </trkpt>
  <trkpt lat="34.784163" lon="-6.310195">
   <ele>18.00</ele>
   <time>2014-04-09T12:19:04Z</time>
  </trkpt>
  <trkpt lat="34.784766" lon="-6.309500">
   <ele>18.00</ele>
   <time>2014-04-09T12:19:07Z</time>
  </trkpt>
  <trkpt lat="34.785152" lon="-6.309019">
   <ele>17.00</ele>
   <time>2014-04-09T12:19:09Z</time>
  </trkpt>
  <trkpt lat="34.787772" lon="-6.305577">
   <ele>16.00</ele>
   <time>2014-04-09T12:19:23Z</time>
  </trkpt>
  <trkpt lat="34.788377" lon="-6.304904">
   <ele>16.00</ele>
   <time>2014-04-09T12:19:26Z</time>
  </trkpt>
  <trkpt lat="34.790021" lon="-6.303161">
   <ele>20.00</ele>
   <time>2014-04-09T12:19:34Z</time>
  </trkpt>
  <trkpt lat="34.790603" lon="-6.302462">
   <ele>21.00</ele>
   <time>2014-04-09T12:19:37Z</time>
  </trkpt>
  <trkpt lat="34.791162" lon="-6.301731">
   <ele>22.00</ele>
   <time>2014-04-09T12:19:40Z</time>
  </trkpt>
  <trkpt lat="34.791697" lon="-6.300967">
   <ele>23.00</ele>
   <time>2014-04-09T12:19:43Z</time>
  </trkpt>
  <trkpt lat="34.792037" lon="-6.300438">
   <ele>23.00</ele>
   <time>2014-04-09T12:19:45Z</time>
  </trkpt>
  <trkpt lat="34.792519" lon="-6.299619">
   <ele>23.00</ele>
   <time>2014-04-09T12:19:48Z</time>
  </trkpt>
  <trkpt lat="34.792965" lon="-6.298776">
   <ele>23.00</ele>
   <time>2014-04-09T12:19:51Z</time>
  </trkpt>
  <trkpt lat="34.793381" lon="-6.297918">
   <ele>22.00</ele>
   <time>2014-04-09T12:19:54Z</time>
  </trkpt>
  <trkpt lat="34.793639" lon="-6.297336">
   <ele>21.00</ele>
   <time>2014-04-09T12:19:56Z</time>
  </trkpt>
  <trkpt lat="34.793996" lon="-6.296446">
   <ele>21.00</ele>
   <time>2014-04-09T12:19:59Z</time>
  </trkpt>
  <trkpt lat="34.794321" lon="-6.295540">
   <ele>20.00</ele>
   <time>2014-04-09T12:20:02Z</time>
  </trkpt>
  <trkpt lat="34.794610" lon="-6.294618">
   <ele>19.00</ele>
   <time>2014-04-09T12:20:05Z</time>
  </trkpt>
  <trkpt lat="34.794867" lon="-6.293682">
   <ele>19.00</ele>
   <time>2014-04-09T12:20:08Z</time>
  </trkpt>
  <trkpt lat="34.795016" lon="-6.293051">
   <ele>18.00</ele>
   <time>2014-04-09T12:20:10Z</time>
  </trkpt>
  <trkpt lat="34.795206" lon="-6.292094">
   <ele>17.00</ele>
   <time>2014-04-09T12:20:13Z</time>
  </trkpt>
  <trkpt lat="34.796104" lon="-6.286930">
   <ele>15.00</ele>
   <time>2014-04-09T12:20:29Z</time>
  </trkpt>
  <trkpt lat="34.796908" lon="-6.282433">
   <ele>14.00</ele>
   <time>2014-04-09T12:20:43Z</time>
  </trkpt>
  <trkpt lat="34.797128" lon="-6.281496">
   <ele>14.00</ele>
   <time>2014-04-09T12:20:46Z</time>
  </trkpt>
  <trkpt lat="34.797382" lon="-6.280576">
   <ele>13.00</ele>
   <time>2014-04-09T12:20:49Z</time>
  </trkpt>
  <trkpt lat="34.797665" lon="-6.279670">
   <ele>12.00</ele>
   <time>2014-04-09T12:20:52Z</time>
  </trkpt>
  <trkpt lat="34.797986" lon="-6.278783">
   <ele>12.00</ele>
   <time>2014-04-09T12:20:55Z</time>
  </trkpt>
  <trkpt lat="34.798570" lon="-6.277339">
   <ele>11.00</ele>
   <time>2014-04-09T12:21:00Z</time>
  </trkpt>
  <trkpt lat="34.800209" lon="-6.273292">
   <ele>12.00</ele>
   <time>2014-04-09T12:21:14Z</time>
  </trkpt>
  <trkpt lat="34.800416" lon="-6.272700">
   <ele>12.00</ele>
   <time>2014-04-09T12:21:16Z</time>
  </trkpt>
  <trkpt lat="34.800694" lon="-6.271798">
   <ele>13.00</ele>
   <time>2014-04-09T12:21:19Z</time>
  </trkpt>
  <trkpt lat="34.800940" lon="-6.270892">
   <ele>12.00</ele>
   <time>2014-04-09T12:21:22Z</time>
  </trkpt>
  <trkpt lat="34.801151" lon="-6.269976">
   <ele>12.00</ele>
   <time>2014-04-09T12:21:25Z</time>
  </trkpt>
  <trkpt lat="34.802208" lon="-6.265012">
   <ele>7.00</ele>
   <time>2014-04-09T12:21:41Z</time>
  </trkpt>
  <trkpt lat="34.802463" lon="-6.264097">
   <ele>6.00</ele>
   <time>2014-04-09T12:21:44Z</time>
  </trkpt>
  <trkpt lat="34.802752" lon="-6.263201">
   <ele>5.00</ele>
   <time>2014-04-09T12:21:47Z</time>
  </trkpt>
  <trkpt lat="34.803071" lon="-6.262320">
   <ele>5.00</ele>
   <time>2014-04-09T12:21:50Z</time>
  </trkpt>
  <trkpt lat="34.803422" lon="-6.261453">
   <ele>5.00</ele>
   <time>2014-04-09T12:21:53Z</time>
  </trkpt>
  <trkpt lat="34.803806" lon="-6.260604">
   <ele>5.00</ele>
   <time>2014-04-09T12:21:56Z</time>
  </trkpt>
  <trkpt lat="34.804217" lon="-6.259780">
   <ele>5.00</ele>
   <time>2014-04-09T12:21:59Z</time>
  </trkpt>
  <trkpt lat="34.804509" lon="-6.259245">
   <ele>5.00</ele>
   <time>2014-04-09T12:22:01Z</time>
  </trkpt>
  <trkpt lat="34.806839" lon="-6.255359">
   <ele>9.00</ele>
   <time>2014-04-09T12:22:16Z</time>
  </trkpt>
  <trkpt lat="34.809428" lon="-6.251075">
   <ele>12.00</ele>
   <time>2014-04-09T12:22:32Z</time>
  </trkpt>
  <trkpt lat="34.811947" lon="-6.246967">
   <ele>9.00</ele>
   <time>2014-04-09T12:22:47Z</time>
  </trkpt>
  <trkpt lat="34.812463" lon="-6.246162">
   <ele>9.00</ele>
   <time>2014-04-09T12:22:50Z</time>
  </trkpt>
  <trkpt lat="34.813003" lon="-6.245389">
   <ele>8.00</ele>
   <time>2014-04-09T12:22:53Z</time>
  </trkpt>
  <trkpt lat="34.813567" lon="-6.244644">
   <ele>8.00</ele>
   <time>2014-04-09T12:22:56Z</time>
  </trkpt>
  <trkpt lat="34.814157" lon="-6.243940">
   <ele>8.00</ele>
   <time>2014-04-09T12:22:59Z</time>
  </trkpt>
  <trkpt lat="34.814770" lon="-6.243276">
   <ele>8.00</ele>
   <time>2014-04-09T12:23:02Z</time>
  </trkpt>
  <trkpt lat="34.815403" lon="-6.242652">
   <ele>7.00</ele>
   <time>2014-04-09T12:23:05Z</time>
  </trkpt>
  <trkpt lat="34.815837" lon="-6.242261">
   <ele>7.00</ele>
   <time>2014-04-09T12:23:07Z</time>
  </trkpt>
  <trkpt lat="34.816505" lon="-6.241708">
   <ele>7.00</ele>
   <time>2014-04-09T12:23:10Z</time>
  </trkpt>
  <trkpt lat="34.817188" lon="-6.241189">
   <ele>6.00</ele>
   <time>2014-04-09T12:23:13Z</time>
  </trkpt>
  <trkpt lat="34.821100" lon="-6.238371">
   <ele>6.00</ele>
   <time>2014-04-09T12:23:30Z</time>
  </trkpt>
  <trkpt lat="34.822275" lon="-6.237559">
   <ele>6.00</ele>
   <time>2014-04-09T12:23:35Z</time>
  </trkpt>
  <trkpt lat="34.822999" lon="-6.237113">
   <ele>6.00</ele>
   <time>2014-04-09T12:23:38Z</time>
  </trkpt>
  <trkpt lat="34.823986" lon="-6.236574">
   <ele>6.00</ele>
   <time>2014-04-09T12:23:42Z</time>
  </trkpt>
  <trkpt lat="34.824990" lon="-6.236089">
   <ele>7.00</ele>
   <time>2014-04-09T12:23:46Z</time>
  </trkpt>
  <trkpt lat="34.829019" lon="-6.234322">
   <ele>14.00</ele>
   <time>2014-04-09T12:24:02Z</time>
  </trkpt>
  <trkpt lat="34.830254" lon="-6.233750">
   <ele>16.00</ele>
   <time>2014-04-09T12:24:07Z</time>
  </trkpt>
  <trkpt lat="34.831223" lon="-6.233229">
   <ele>18.00</ele>
   <time>2014-04-09T12:24:11Z</time>
  </trkpt>
  <trkpt lat="34.831699" lon="-6.232940">
   <ele>18.00</ele>
   <time>2014-04-09T12:24:13Z</time>
  </trkpt>
  <trkpt lat="34.832401" lon="-6.232467">
   <ele>19.00</ele>
   <time>2014-04-09T12:24:16Z</time>
  </trkpt>
  <trkpt lat="34.833315" lon="-6.231777">
   <ele>20.00</ele>
   <time>2014-04-09T12:24:20Z</time>
  </trkpt>
  <trkpt lat="34.833759" lon="-6.231408">
   <ele>20.00</ele>
   <time>2014-04-09T12:24:22Z</time>
  </trkpt>
  <trkpt lat="34.835719" lon="-6.229676">
   <ele>21.00</ele>
   <time>2014-04-09T12:24:31Z</time>
  </trkpt>
  <trkpt lat="34.836404" lon="-6.229151">
   <ele>20.00</ele>
   <time>2014-04-09T12:24:34Z</time>
  </trkpt>
  <trkpt lat="34.836872" lon="-6.228822">
   <ele>20.00</ele>
   <time>2014-04-09T12:24:36Z</time>
  </trkpt>
  <trkpt lat="34.837592" lon="-6.228363">
   <ele>19.00</ele>
   <time>2014-04-09T12:24:39Z</time>
  </trkpt>
  <trkpt lat="34.838330" lon="-6.227942">
   <ele>18.00</ele>
   <time>2014-04-09T12:24:42Z</time>
  </trkpt>
  <trkpt lat="34.839083" lon="-6.227555">
   <ele>17.00</ele>
   <time>2014-04-09T12:24:45Z</time>
  </trkpt>
  <trkpt lat="34.839853" lon="-6.227213">
   <ele>16.00</ele>
   <time>2014-04-09T12:24:48Z</time>
  </trkpt>
  <trkpt lat="34.840637" lon="-6.226911">
   <ele>15.00</ele>
   <time>2014-04-09T12:24:51Z</time>
  </trkpt>
  <trkpt lat="34.841434" lon="-6.226650">
   <ele>13.00</ele>
   <time>2014-04-09T12:24:54Z</time>
  </trkpt>
  <trkpt lat="34.842244" lon="-6.226438">
   <ele>11.00</ele>
   <time>2014-04-09T12:24:57Z</time>
  </trkpt>
  <trkpt lat="34.846602" lon="-6.225340">
   <ele>4.00</ele>
   <time>2014-04-09T12:25:13Z</time>
  </trkpt>
  <trkpt lat="34.850692" lon="-6.224308">
   <ele>1.00</ele>
   <time>2014-04-09T12:25:28Z</time>
  </trkpt>
  <trkpt lat="34.854678" lon="-6.223321">
   <ele>3.00</ele>
   <time>2014-04-09T12:25:43Z</time>
  </trkpt>
  <trkpt lat="34.858795" lon="-6.222201">
   <ele>1.00</ele>
   <time>2014-04-09T12:25:59Z</time>
  </trkpt>
  <trkpt lat="34.860594" lon="-6.221635">
   <ele>0.00</ele>
   <time>2014-04-09T12:26:06Z</time>
  </trkpt>
  <trkpt lat="34.861857" lon="-6.221166">
   <ele>1.00</ele>
   <time>2014-04-09T12:26:11Z</time>
  </trkpt>
  <trkpt lat="34.864233" lon="-6.220093">
   <ele>4.00</ele>
   <time>2014-04-09T12:26:21Z</time>
  </trkpt>
  <trkpt lat="34.866370" lon="-6.219010">
   <ele>6.00</ele>
   <time>2014-04-09T12:26:30Z</time>
  </trkpt>
  <trkpt lat="34.869955" lon="-6.217148">
   <ele>10.00</ele>
   <time>2014-04-09T12:26:45Z</time>
  </trkpt>
  <trkpt lat="34.873791" lon="-6.215161">
   <ele>15.00</ele>
   <time>2014-04-09T12:27:01Z</time>
  </trkpt>
  <trkpt lat="34.877401" lon="-6.213279">
   <ele>18.00</ele>
   <time>2014-04-09T12:27:16Z</time>
  </trkpt>
  <trkpt lat="34.879367" lon="-6.212319">
   <ele>18.00</ele>
   <time>2014-04-09T12:27:24Z</time>
  </trkpt>
  <trkpt lat="34.880620" lon="-6.211798">
   <ele>18.00</ele>
   <time>2014-04-09T12:27:29Z</time>
  </trkpt>
  <trkpt lat="34.881632" lon="-6.211437">
   <ele>18.00</ele>
   <time>2014-04-09T12:27:33Z</time>
  </trkpt>
  <trkpt lat="34.883175" lon="-6.210968">
   <ele>19.00</ele>
   <time>2014-04-09T12:27:39Z</time>
  </trkpt>
  <trkpt lat="34.884222" lon="-6.210706">
   <ele>20.00</ele>
   <time>2014-04-09T12:27:43Z</time>
  </trkpt>
  <trkpt lat="34.885543" lon="-6.210433">
   <ele>21.00</ele>
   <time>2014-04-09T12:27:48Z</time>
  </trkpt>
  <trkpt lat="34.886603" lon="-6.210266">
   <ele>22.00</ele>
   <time>2014-04-09T12:27:52Z</time>
  </trkpt>
  <trkpt lat="34.890560" lon="-6.209838">
   <ele>27.00</ele>
   <time>2014-04-09T12:28:07Z</time>
  </trkpt>
  <trkpt lat="34.894802" lon="-6.209396">
   <ele>31.00</ele>
   <time>2014-04-09T12:28:23Z</time>
  </trkpt>
  <trkpt lat="34.898795" lon="-6.208980">
   <ele>32.00</ele>
   <time>2014-04-09T12:28:38Z</time>
  </trkpt>
  <trkpt lat="34.901197" lon="-6.208692">
   <ele>33.00</ele>
   <time>2014-04-09T12:28:47Z</time>
  </trkpt>
  <trkpt lat="34.903047" lon="-6.208370">
   <ele>35.00</ele>
   <time>2014-04-09T12:28:54Z</time>
  </trkpt>
  <trkpt lat="34.904882" lon="-6.207960">
   <ele>36.00</ele>
   <time>2014-04-09T12:29:01Z</time>
  </trkpt>
  <trkpt lat="34.905924" lon="-6.207677">
   <ele>38.00</ele>
   <time>2014-04-09T12:29:05Z</time>
  </trkpt>
  <trkpt lat="34.909781" lon="-6.206479">
   <ele>40.00</ele>
   <time>2014-04-09T12:29:20Z</time>
  </trkpt>
  <trkpt lat="34.913888" lon="-6.205212">
   <ele>45.00</ele>
   <time>2014-04-09T12:29:36Z</time>
  </trkpt>
  <trkpt lat="34.917680" lon="-6.204074">
   <ele>50.00</ele>
   <time>2014-04-09T12:29:51Z</time>
  </trkpt>
  <trkpt lat="34.919752" lon="-6.203589">
   <ele>54.00</ele>
   <time>2014-04-09T12:29:59Z</time>
  </trkpt>
  <trkpt lat="34.920809" lon="-6.203399">
   <ele>55.00</ele>
   <time>2014-04-09T12:30:03Z</time>
  </trkpt>
  <trkpt lat="34.925079" lon="-6.202842">
   <ele>61.00</ele>
   <time>2014-04-09T12:30:19Z</time>
  </trkpt>
  <trkpt lat="34.929096" lon="-6.202401">
   <ele>69.00</ele>
   <time>2014-04-09T12:30:34Z</time>
  </trkpt>
  <trkpt lat="34.930180" lon="-6.202273">
   <ele>71.00</ele>
   <time>2014-04-09T12:30:38Z</time>
  </trkpt>
  <trkpt lat="34.931539" lon="-6.202100">
   <ele>74.00</ele>
   <time>2014-04-09T12:30:43Z</time>
  </trkpt>
  <trkpt lat="34.932358" lon="-6.202046">
   <ele>76.00</ele>
   <time>2014-04-09T12:30:46Z</time>
  </trkpt>
  <trkpt lat="34.933455" lon="-6.202027">
   <ele>77.00</ele>
   <time>2014-04-09T12:30:50Z</time>
  </trkpt>
  <trkpt lat="34.934838" lon="-6.202081">
   <ele>78.00</ele>
   <time>2014-04-09T12:30:55Z</time>
  </trkpt>
  <trkpt lat="34.939385" lon="-6.202417">
   <ele>78.00</ele>
   <time>2014-04-09T12:31:11Z</time>
  </trkpt>
  <trkpt lat="34.940839" lon="-6.202469">
   <ele>77.00</ele>
   <time>2014-04-09T12:31:16Z</time>
  </trkpt>
  <trkpt lat="34.941129" lon="-6.202469">
   <ele>77.00</ele>
   <time>2014-04-09T12:31:17Z</time>
  </trkpt>
  <trkpt lat="34.942286" lon="-6.202437">
   <ele>76.00</ele>
   <time>2014-04-09T12:31:21Z</time>
  </trkpt>
  <trkpt lat="34.943438" lon="-6.202350">
   <ele>76.00</ele>
   <time>2014-04-09T12:31:25Z</time>
  </trkpt>
  <trkpt lat="34.947680" lon="-6.201912">
   <ele>75.00</ele>
   <time>2014-04-09T12:31:40Z</time>
  </trkpt>
  <trkpt lat="34.952161" lon="-6.201458">
   <ele>70.00</ele>
   <time>2014-04-09T12:31:56Z</time>
  </trkpt>
  <trkpt lat="34.956381" lon="-6.201028">
   <ele>63.00</ele>
   <time>2014-04-09T12:32:11Z</time>
  </trkpt>
  <trkpt lat="34.960566" lon="-6.200603">
   <ele>59.00</ele>
   <time>2014-04-09T12:32:26Z</time>
  </trkpt>
  <trkpt lat="34.965043" lon="-6.200146">
   <ele>53.00</ele>
   <time>2014-04-09T12:32:42Z</time>
  </trkpt>
  <trkpt lat="34.969276" lon="-6.199752">
   <ele>47.00</ele>
   <time>2014-04-09T12:32:57Z</time>
  </trkpt>
  <trkpt lat="34.973444" lon="-6.199294">
   <ele>41.00</ele>
   <time>2014-04-09T12:33:12Z</time>
  </trkpt>
  <trkpt lat="34.975366" lon="-6.199142">
   <ele>40.00</ele>
   <time>2014-04-09T12:33:19Z</time>
  </trkpt>
  <trkpt lat="34.976471" lon="-6.199121">
   <ele>39.00</ele>
   <time>2014-04-09T12:33:23Z</time>
  </trkpt>
  <trkpt lat="34.978703" lon="-6.199186">
   <ele>36.00</ele>
   <time>2014-04-09T12:33:31Z</time>
  </trkpt>
  <trkpt lat="34.982817" lon="-6.199372">
   <ele>34.00</ele>
   <time>2014-04-09T12:33:46Z</time>
  </trkpt>
  <trkpt lat="34.984973" lon="-6.199438">
   <ele>35.00</ele>
   <time>2014-04-09T12:33:54Z</time>
  </trkpt>
  <trkpt lat="34.985511" lon="-6.199414">
   <ele>35.00</ele>
   <time>2014-04-09T12:33:56Z</time>
  </trkpt>
  <trkpt lat="34.986318" lon="-6.199342">
   <ele>35.00</ele>
   <time>2014-04-09T12:33:59Z</time>
  </trkpt>
  <trkpt lat="34.987121" lon="-6.199226">
   <ele>34.00</ele>
   <time>2014-04-09T12:34:02Z</time>
  </trkpt>
  <trkpt lat="34.988190" lon="-6.199016">
   <ele>34.00</ele>
   <time>2014-04-09T12:34:06Z</time>
  </trkpt>
  <trkpt lat="34.988722" lon="-6.198877">
   <ele>34.00</ele>
   <time>2014-04-09T12:34:08Z</time>
  </trkpt>
  <trkpt lat="34.989514" lon="-6.198627">
   <ele>33.00</ele>
   <time>2014-04-09T12:34:11Z</time>
  </trkpt>
  <trkpt lat="34.990299" lon="-6.198332">
   <ele>33.00</ele>
   <time>2014-04-09T12:34:14Z</time>
  </trkpt>
  <trkpt lat="34.994436" lon="-6.196717">
   <ele>36.00</ele>
   <time>2014-04-09T12:34:30Z</time>
  </trkpt>
  <trkpt lat="34.996960" lon="-6.195708">
   <ele>40.00</ele>
   <time>2014-04-09T12:34:40Z</time>
  </trkpt>
  <trkpt lat="34.999433" lon="-6.194551">
   <ele>45.00</ele>
   <time>2014-04-09T12:34:50Z</time>
  </trkpt>
  <trkpt lat="35.000654" lon="-6.193910">
   <ele>47.00</ele>
   <time>2014-04-09T12:34:55Z</time>
  </trkpt>
  <trkpt lat="35.004315" lon="-6.191925">
   <ele>52.00</ele>
   <time>2014-04-09T12:35:10Z</time>
  </trkpt>
  <trkpt lat="35.006077" lon="-6.191048">
   <ele>53.00</ele>
   <time>2014-04-09T12:35:17Z</time>
  </trkpt>
  <trkpt lat="35.007902" lon="-6.190265">
   <ele>52.00</ele>
   <time>2014-04-09T12:35:24Z</time>
  </trkpt>
  <trkpt lat="35.009239" lon="-6.189765">
   <ele>51.00</ele>
   <time>2014-04-09T12:35:29Z</time>
  </trkpt>
  <trkpt lat="35.010864" lon="-6.189243">
   <ele>49.00</ele>
   <time>2014-04-09T12:35:35Z</time>
  </trkpt>
  <trkpt lat="35.012216" lon="-6.188876">
   <ele>48.00</ele>
   <time>2014-04-09T12:35:40Z</time>
  </trkpt>
  <trkpt lat="35.013841" lon="-6.188509">
   <ele>48.00</ele>
   <time>2014-04-09T12:35:46Z</time>
  </trkpt>
  <trkpt lat="35.017897" lon="-6.187720">
   <ele>48.00</ele>
   <time>2014-04-09T12:36:01Z</time>
  </trkpt>
  <trkpt lat="35.021958" lon="-6.186925">
   <ele>47.00</ele>
   <time>2014-04-09T12:36:16Z</time>
  </trkpt>
  <trkpt lat="35.026187" lon="-6.186123">
   <ele>53.00</ele>
   <time>2014-04-09T12:36:32Z</time>
  </trkpt>
  <trkpt lat="35.030094" lon="-6.185328">
   <ele>61.00</ele>
   <time>2014-04-09T12:36:47Z</time>
  </trkpt>
  <trkpt lat="35.032410" lon="-6.184840">
   <ele>66.00</ele>
   <time>2014-04-09T12:36:56Z</time>
  </trkpt>
  <trkpt lat="35.033420" lon="-6.184563">
   <ele>69.00</ele>
   <time>2014-04-09T12:37:00Z</time>
  </trkpt>
  <trkpt lat="35.034409" lon="-6.184241">
   <ele>71.00</ele>
   <time>2014-04-09T12:37:04Z</time>
  </trkpt>
  <trkpt lat="35.035380" lon="-6.183877">
   <ele>73.00</ele>
   <time>2014-04-09T12:37:08Z</time>
  </trkpt>
  <trkpt lat="35.036330" lon="-6.183467">
   <ele>75.00</ele>
   <time>2014-04-09T12:37:12Z</time>
  </trkpt>
  <trkpt lat="35.037492" lon="-6.182906">
   <ele>77.00</ele>
   <time>2014-04-09T12:37:17Z</time>
  </trkpt>
  <trkpt lat="35.038399" lon="-6.182407">
   <ele>79.00</ele>
   <time>2014-04-09T12:37:21Z</time>
  </trkpt>
  <trkpt lat="35.039992" lon="-6.181432">
   <ele>80.00</ele>
   <time>2014-04-09T12:37:28Z</time>
  </trkpt>
  <trkpt lat="35.043480" lon="-6.179221">
   <ele>79.00</ele>
   <time>2014-04-09T12:37:43Z</time>
  </trkpt>
  <trkpt lat="35.047052" lon="-6.176977">
   <ele>76.00</ele>
   <time>2014-04-09T12:37:58Z</time>
  </trkpt>
  <trkpt lat="35.050772" lon="-6.174640">
   <ele>74.00</ele>
   <time>2014-04-09T12:38:14Z</time>
  </trkpt>
  <trkpt lat="35.052199" lon="-6.173822">
   <ele>72.00</ele>
   <time>2014-04-09T12:38:20Z</time>
  </trkpt>
  <trkpt lat="35.054147" lon="-6.172819">
   <ele>71.00</ele>
   <time>2014-04-09T12:38:28Z</time>
  </trkpt>
  <trkpt lat="35.057852" lon="-6.171014">
   <ele>66.00</ele>
   <time>2014-04-09T12:38:43Z</time>
  </trkpt>
  <trkpt lat="35.061835" lon="-6.169101">
   <ele>61.00</ele>
   <time>2014-04-09T12:38:59Z</time>
  </trkpt>
  <trkpt lat="35.063555" lon="-6.168216">
   <ele>59.00</ele>
   <time>2014-04-09T12:39:06Z</time>
  </trkpt>
  <trkpt lat="35.064508" lon="-6.167655">
   <ele>58.00</ele>
   <time>2014-04-09T12:39:10Z</time>
  </trkpt>
  <trkpt lat="35.066128" lon="-6.166588">
   <ele>57.00</ele>
   <time>2014-04-09T12:39:17Z</time>
  </trkpt>
  <trkpt lat="35.067260" lon="-6.165785">
   <ele>57.00</ele>
   <time>2014-04-09T12:39:22Z</time>
  </trkpt>
  <trkpt lat="35.070572" lon="-6.163203">
   <ele>57.00</ele>
   <time>2014-04-09T12:39:37Z</time>
  </trkpt>
  <trkpt lat="35.073872" lon="-6.160620">
   <ele>54.00</ele>
   <time>2014-04-09T12:39:52Z</time>
  </trkpt>
  <trkpt lat="35.077214" lon="-6.158052">
   <ele>53.00</ele>
   <time>2014-04-09T12:40:07Z</time>
  </trkpt>
  <trkpt lat="35.078386" lon="-6.157263">
   <ele>51.00</ele>
   <time>2014-04-09T12:40:12Z</time>
  </trkpt>
  <trkpt lat="35.081993" lon="-6.154991">
   <ele>46.00</ele>
   <time>2014-04-09T12:40:27Z</time>
  </trkpt>
  <trkpt lat="35.085786" lon="-6.152606">
   <ele>43.00</ele>
   <time>2014-04-09T12:40:43Z</time>
  </trkpt>
  <trkpt lat="35.089347" lon="-6.150366">
   <ele>41.00</ele>
   <time>2014-04-09T12:40:58Z</time>
  </trkpt>
  <trkpt lat="35.092925" lon="-6.148120">
   <ele>40.00</ele>
   <time>2014-04-09T12:41:13Z</time>
  </trkpt>
  <trkpt lat="35.094375" lon="-6.147238">
   <ele>39.00</ele>
   <time>2014-04-09T12:41:19Z</time>
  </trkpt>
  <trkpt lat="35.095614" lon="-6.146563">
   <ele>38.00</ele>
   <time>2014-04-09T12:41:24Z</time>
  </trkpt>
  <trkpt lat="35.096623" lon="-6.146071">
   <ele>37.00</ele>
   <time>2014-04-09T12:41:28Z</time>
  </trkpt>
  <trkpt lat="35.097649" lon="-6.145621">
   <ele>35.00</ele>
   <time>2014-04-09T12:41:32Z</time>
  </trkpt>
  <trkpt lat="35.098949" lon="-6.145123">
   <ele>34.00</ele>
   <time>2014-04-09T12:41:37Z</time>
  </trkpt>
  <trkpt lat="35.100267" lon="-6.144686">
   <ele>32.00</ele>
   <time>2014-04-09T12:41:42Z</time>
  </trkpt>
  <trkpt lat="35.101328" lon="-6.144387">
   <ele>30.00</ele>
   <time>2014-04-09T12:41:46Z</time>
  </trkpt>
  <trkpt lat="35.105271" lon="-6.143483">
   <ele>27.00</ele>
   <time>2014-04-09T12:42:01Z</time>
  </trkpt>
  <trkpt lat="35.109444" lon="-6.142530">
   <ele>25.00</ele>
   <time>2014-04-09T12:42:17Z</time>
  </trkpt>
  <trkpt lat="35.110503" lon="-6.142337">
   <ele>24.00</ele>
   <time>2014-04-09T12:42:21Z</time>
  </trkpt>
  <trkpt lat="35.111841" lon="-6.142170">
   <ele>24.00</ele>
   <time>2014-04-09T12:42:26Z</time>
  </trkpt>
  <trkpt lat="35.112895" lon="-6.142097">
   <ele>24.00</ele>
   <time>2014-04-09T12:42:30Z</time>
  </trkpt>
  <trkpt lat="35.113935" lon="-6.142071">
   <ele>23.00</ele>
   <time>2014-04-09T12:42:34Z</time>
  </trkpt>
  <trkpt lat="35.114194" lon="-6.142072">
   <ele>23.00</ele>
   <time>2014-04-09T12:42:35Z</time>
  </trkpt>
  <trkpt lat="35.115227" lon="-6.142105">
   <ele>23.00</ele>
   <time>2014-04-09T12:42:39Z</time>
  </trkpt>
  <trkpt lat="35.116002" lon="-6.142164">
   <ele>23.00</ele>
   <time>2014-04-09T12:42:42Z</time>
  </trkpt>
  <trkpt lat="35.117032" lon="-6.142294">
   <ele>23.00</ele>
   <time>2014-04-09T12:42:46Z</time>
  </trkpt>
  <trkpt lat="35.118319" lon="-6.142512">
   <ele>22.00</ele>
   <time>2014-04-09T12:42:51Z</time>
  </trkpt>
  <trkpt lat="35.119089" lon="-6.142680">
   <ele>22.00</ele>
   <time>2014-04-09T12:42:54Z</time>
  </trkpt>
  <trkpt lat="35.120115" lon="-6.142951">
   <ele>21.00</ele>
   <time>2014-04-09T12:42:58Z</time>
  </trkpt>
  <trkpt lat="35.121136" lon="-6.143277">
   <ele>20.00</ele>
   <time>2014-04-09T12:43:02Z</time>
  </trkpt>
  <trkpt lat="35.124954" lon="-6.144619">
   <ele>18.00</ele>
   <time>2014-04-09T12:43:17Z</time>
  </trkpt>
  <trkpt lat="35.128750" lon="-6.145944">
   <ele>17.00</ele>
   <time>2014-04-09T12:43:32Z</time>
  </trkpt>
  <trkpt lat="35.130538" lon="-6.146534">
   <ele>16.00</ele>
   <time>2014-04-09T12:43:39Z</time>
  </trkpt>
  <trkpt lat="35.131326" lon="-6.146718">
   <ele>16.00</ele>
   <time>2014-04-09T12:43:42Z</time>
  </trkpt>
  <trkpt lat="35.132133" lon="-6.146870">
   <ele>16.00</ele>
   <time>2014-04-09T12:43:45Z</time>
  </trkpt>
  <trkpt lat="35.132958" lon="-6.146975">
   <ele>16.00</ele>
   <time>2014-04-09T12:43:48Z</time>
  </trkpt>
  <trkpt lat="35.133782" lon="-6.147036">
   <ele>16.00</ele>
   <time>2014-04-09T12:43:51Z</time>
  </trkpt>
  <trkpt lat="35.134593" lon="-6.147052">
   <ele>16.00</ele>
   <time>2014-04-09T12:43:54Z</time>
  </trkpt>
  <trkpt lat="35.135400" lon="-6.147017">
   <ele>16.00</ele>
   <time>2014-04-09T12:43:57Z</time>
  </trkpt>
  <trkpt lat="35.136198" lon="-6.146938">
   <ele>16.00</ele>
   <time>2014-04-09T12:44:00Z</time>
  </trkpt>
  <trkpt lat="35.136980" lon="-6.146820">
   <ele>16.00</ele>
   <time>2014-04-09T12:44:03Z</time>
  </trkpt>
  <trkpt lat="35.137738" lon="-6.146670">
   <ele>15.00</ele>
   <time>2014-04-09T12:44:06Z</time>
  </trkpt>
  <trkpt lat="35.138213" lon="-6.146542">
   <ele>15.00</ele>
   <time>2014-04-09T12:44:08Z</time>
  </trkpt>
  <trkpt lat="35.139267" lon="-6.146193">
   <ele>16.00</ele>
   <time>2014-04-09T12:44:13Z</time>
  </trkpt>
  <trkpt lat="35.139440" lon="-6.146121">
   <ele>16.00</ele>
   <time>2014-04-09T12:44:14Z</time>
  </trkpt>
  <trkpt lat="35.139731" lon="-6.145951">
   <ele>16.00</ele>
   <time>2014-04-09T12:44:16Z</time>
  </trkpt>
  <trkpt lat="35.139962" lon="-6.145731">
   <ele>17.00</ele>
   <time>2014-04-09T12:44:18Z</time>
  </trkpt>
  <trkpt lat="35.140117" lon="-6.145464">
   <ele>18.00</ele>
   <time>2014-04-09T12:44:20Z</time>
  </trkpt>
  <trkpt lat="35.140206" lon="-6.145176">
   <ele>19.00</ele>
   <time>2014-04-09T12:44:22Z</time>
  </trkpt>
  <trkpt lat="35.140243" lon="-6.144882">
   <ele>19.00</ele>
   <time>2014-04-09T12:44:24Z</time>
  </trkpt>
  <trkpt lat="35.140230" lon="-6.144585">
   <ele>19.00</ele>
   <time>2014-04-09T12:44:26Z</time>
  </trkpt>
  <trkpt lat="35.140162" lon="-6.144296">
   <ele>18.00</ele>
   <time>2014-04-09T12:44:28Z</time>
  </trkpt>
  <trkpt lat="35.140065" lon="-6.144023">
   <ele>18.00</ele>
   <time>2014-04-09T12:44:30Z</time>
  </trkpt>
  <trkpt lat="35.139820" lon="-6.143381">
   <ele>17.00</ele>
   <time>2014-04-09T12:44:36Z</time>
  </trkpt>
  <trkpt lat="35.139737" lon="-6.143215">
   <ele>18.00</ele>
   <time>2014-04-09T12:44:45Z</time>
  </trkpt>
  <trkpt lat="35.139728" lon="-6.143288">
   <ele>30.00</ele>
   <time>2014-04-09T12:45:01Z</time>
  </trkpt>
  <trkpt lat="35.139692" lon="-6.143135">
   <ele>30.00</ele>
   <time>2014-04-09T12:45:16Z</time>
  </trkpt>
  <trkpt lat="35.139643" lon="-6.142915">
   <ele>27.00</ele>
   <time>2014-04-09T12:45:19Z</time>
  </trkpt>
  <trkpt lat="35.139554" lon="-6.142508">
   <ele>25.00</ele>
   <time>2014-04-09T12:45:23Z</time>
  </trkpt>
  <trkpt lat="35.139470" lon="-6.142196">
   <ele>23.00</ele>
   <time>2014-04-09T12:45:26Z</time>
  </trkpt>
  <trkpt lat="35.139369" lon="-6.141934">
   <ele>21.00</ele>
   <time>2014-04-09T12:45:29Z</time>
  </trkpt>
  <trkpt lat="35.139215" lon="-6.141744">
   <ele>20.00</ele>
   <time>2014-04-09T12:45:32Z</time>
  </trkpt>
  <trkpt lat="35.139136" lon="-6.141512">
   <ele>19.00</ele>
   <time>2014-04-09T12:45:35Z</time>
  </trkpt>
  <trkpt lat="35.139271" lon="-6.141320">
   <ele>19.00</ele>
   <time>2014-04-09T12:45:38Z</time>
  </trkpt>
  <trkpt lat="35.139456" lon="-6.141337">
   <ele>19.00</ele>
   <time>2014-04-09T12:45:40Z</time>
  </trkpt>
  <trkpt lat="35.139636" lon="-6.141433">
   <ele>19.00</ele>
   <time>2014-04-09T12:45:42Z</time>
  </trkpt>
  <trkpt lat="35.139844" lon="-6.141492">
   <ele>18.00</ele>
   <time>2014-04-09T12:45:44Z</time>
  </trkpt>
  <trkpt lat="35.140067" lon="-6.141501">
   <ele>18.00</ele>
   <time>2014-04-09T12:45:46Z</time>
  </trkpt>
  <trkpt lat="35.140298" lon="-6.141502">
   <ele>18.00</ele>
   <time>2014-04-09T12:45:48Z</time>
  </trkpt>
  <trkpt lat="35.140685" lon="-6.141521">
   <ele>18.00</ele>
   <time>2014-04-09T12:45:51Z</time>
  </trkpt>
  <trkpt lat="35.143069" lon="-6.141746">
   <ele>18.00</ele>
   <time>2014-04-09T12:46:07Z</time>
  </trkpt>
  <trkpt lat="35.145585" lon="-6.141975">
   <ele>24.00</ele>
   <time>2014-04-09T12:46:22Z</time>
  </trkpt>
  <trkpt lat="35.148039" lon="-6.142209">
   <ele>20.00</ele>
   <time>2014-04-09T12:46:37Z</time>
  </trkpt>
  <trkpt lat="35.148404" lon="-6.142234">
   <ele>19.00</ele>
   <time>2014-04-09T12:46:40Z</time>
  </trkpt>
  <trkpt lat="35.148616" lon="-6.142250">
   <ele>18.00</ele>
   <time>2014-04-09T12:46:42Z</time>
  </trkpt>
  <trkpt lat="35.149297" lon="-6.142316">
   <ele>18.00</ele>
   <time>2014-04-09T12:46:50Z</time>
  </trkpt>
  <trkpt lat="35.149550" lon="-6.142298">
   <ele>17.00</ele>
   <time>2014-04-09T12:46:54Z</time>
  </trkpt>
  <trkpt lat="35.149804" lon="-6.142371">
   <ele>17.00</ele>
   <time>2014-04-09T12:46:57Z</time>
  </trkpt>
  <trkpt lat="35.150009" lon="-6.142409">
   <ele>17.00</ele>
   <time>2014-04-09T12:46:59Z</time>
  </trkpt>
  <trkpt lat="35.151838" lon="-6.142594">
   <ele>18.00</ele>
   <time>2014-04-09T12:47:16Z</time>
  </trkpt>
  <trkpt lat="35.153935" lon="-6.142786">
   <ele>18.00</ele>
   <time>2014-04-09T12:47:32Z</time>
  </trkpt>
  <trkpt lat="35.156179" lon="-6.143014">
   <ele>19.00</ele>
   <time>2014-04-09T12:47:47Z</time>
  </trkpt>
  <trkpt lat="35.158273" lon="-6.143212">
   <ele>21.00</ele>
   <time>2014-04-09T12:48:02Z</time>
  </trkpt>
  <trkpt lat="35.160271" lon="-6.143412">
   <ele>25.00</ele>
   <time>2014-04-09T12:48:18Z</time>
  </trkpt>
  <trkpt lat="35.160771" lon="-6.143465">
   <ele>25.00</ele>
   <time>2014-04-09T12:48:22Z</time>
  </trkpt>
  <trkpt lat="35.162713" lon="-6.143643">
   <ele>25.00</ele>
   <time>2014-04-09T12:48:37Z</time>
  </trkpt>
  <trkpt lat="35.163786" lon="-6.143737">
   <ele>25.00</ele>
   <time>2014-04-09T12:48:48Z</time>
  </trkpt>
  <trkpt lat="35.163987" lon="-6.143712">
   <ele>24.00</ele>
   <time>2014-04-09T12:48:56Z</time>
  </trkpt>
  <trkpt lat="35.165380" lon="-6.143900">
   <ele>27.00</ele>
   <time>2014-04-09T12:49:12Z</time>
  </trkpt>
  <trkpt lat="35.166986" lon="-6.144063">
   <ele>31.00</ele>
   <time>2014-04-09T12:49:27Z</time>
  </trkpt>
  <trkpt lat="35.168641" lon="-6.144216">
   <ele>37.00</ele>
   <time>2014-04-09T12:49:42Z</time>
  </trkpt>
  <trkpt lat="35.170268" lon="-6.144382">
   <ele>39.00</ele>
   <time>2014-04-09T12:49:58Z</time>
  </trkpt>
  <trkpt lat="35.171283" lon="-6.144476">
   <ele>39.00</ele>
   <time>2014-04-09T12:50:13Z</time>
  </trkpt>
  <trkpt lat="35.171483" lon="-6.144489">
   <ele>40.00</ele>
   <time>2014-04-09T12:50:20Z</time>
  </trkpt>
  <trkpt lat="35.171582" lon="-6.144496">
   <ele>39.00</ele>
   <time>2014-04-09T12:50:35Z</time>
  </trkpt>
  <trkpt lat="35.171762" lon="-6.144485">
   <ele>40.00</ele>
   <time>2014-04-09T12:50:42Z</time>
  </trkpt>
  <trkpt lat="35.171953" lon="-6.144464">
   <ele>40.00</ele>
   <time>2014-04-09T12:50:46Z</time>
  </trkpt>
  <trkpt lat="35.172126" lon="-6.144551">
   <ele>40.00</ele>
   <time>2014-04-09T12:50:50Z</time>
  </trkpt>
  <trkpt lat="35.172314" lon="-6.144571">
   <ele>41.00</ele>
   <time>2014-04-09T12:50:53Z</time>
  </trkpt>
  <trkpt lat="35.173891" lon="-6.144701">
   <ele>41.00</ele>
   <time>2014-04-09T12:51:09Z</time>
  </trkpt>
  <trkpt lat="35.174202" lon="-6.144733">
   <ele>41.00</ele>
   <time>2014-04-09T12:51:12Z</time>
  </trkpt>
  <trkpt lat="35.174675" lon="-6.144787">
   <ele>41.00</ele>
   <time>2014-04-09T12:51:17Z</time>
  </trkpt>
  <trkpt lat="35.176276" lon="-6.144926">
   <ele>41.00</ele>
   <time>2014-04-09T12:51:33Z</time>
  </trkpt>
  <trkpt lat="35.177629" lon="-6.145060">
   <ele>41.00</ele>
   <time>2014-04-09T12:51:48Z</time>
  </trkpt>
  <trkpt lat="35.178847" lon="-6.145186">
   <ele>43.00</ele>
   <time>2014-04-09T12:52:04Z</time>
  </trkpt>
  <trkpt lat="35.179571" lon="-6.145248">
   <ele>43.00</ele>
   <time>2014-04-09T12:52:12Z</time>
  </trkpt>
  <trkpt lat="35.179772" lon="-6.145293">
   <ele>43.00</ele>
   <time>2014-04-09T12:52:14Z</time>
  </trkpt>
  <trkpt lat="35.179971" lon="-6.145355">
   <ele>43.00</ele>
   <time>2014-04-09T12:52:16Z</time>
  </trkpt>
  <trkpt lat="35.180165" lon="-6.145431">
   <ele>43.00</ele>
   <time>2014-04-09T12:52:18Z</time>
  </trkpt>
  <trkpt lat="35.180983" lon="-6.145780">
   <ele>42.00</ele>
   <time>2014-04-09T12:52:28Z</time>
  </trkpt>
  <trkpt lat="35.181220" lon="-6.145842">
   <ele>43.00</ele>
   <time>2014-04-09T12:52:31Z</time>
  </trkpt>
  <trkpt lat="35.181474" lon="-6.145883">
   <ele>43.00</ele>
   <time>2014-04-09T12:52:34Z</time>
  </trkpt>
  <trkpt lat="35.181783" lon="-6.145918">
   <ele>43.00</ele>
   <time>2014-04-09T12:52:38Z</time>
  </trkpt>
  <trkpt lat="35.182022" lon="-6.145945">
   <ele>43.00</ele>
   <time>2014-04-09T12:52:47Z</time>
  </trkpt>
  <trkpt lat="35.182226" lon="-6.145965">
   <ele>43.00</ele>
   <time>2014-04-09T12:52:53Z</time>
  </trkpt>
  <trkpt lat="35.183471" lon="-6.146089">
   <ele>44.00</ele>
   <time>2014-04-09T12:53:09Z</time>
  </trkpt>
  <trkpt lat="35.184197" lon="-6.146169">
   <ele>46.00</ele>
   <time>2014-04-09T12:53:18Z</time>
  </trkpt>
  <trkpt lat="35.184487" lon="-6.146207">
   <ele>46.00</ele>
   <time>2014-04-09T12:53:22Z</time>
  </trkpt>
  <trkpt lat="35.184726" lon="-6.146223">
   <ele>47.00</ele>
   <time>2014-04-09T12:53:25Z</time>
  </trkpt>
  <trkpt lat="35.184978" lon="-6.146261">
   <ele>48.00</ele>
   <time>2014-04-09T12:53:28Z</time>
  </trkpt>
  <trkpt lat="35.185218" lon="-6.146318">
   <ele>48.00</ele>
   <time>2014-04-09T12:53:31Z</time>
  </trkpt>
  <trkpt lat="35.185535" lon="-6.146420">
   <ele>47.00</ele>
   <time>2014-04-09T12:53:35Z</time>
  </trkpt>
  <trkpt lat="35.185913" lon="-6.146560">
   <ele>46.00</ele>
   <time>2014-04-09T12:53:40Z</time>
  </trkpt>
  <trkpt lat="35.186219" lon="-6.146686">
   <ele>45.00</ele>
   <time>2014-04-09T12:53:48Z</time>
  </trkpt>
  <trkpt lat="35.186420" lon="-6.146745">
   <ele>45.00</ele>
   <time>2014-04-09T12:53:52Z</time>
  </trkpt>
  <trkpt lat="35.186605" lon="-6.146914">
   <ele>44.00</ele>
   <time>2014-04-09T12:53:56Z</time>
  </trkpt>
  <trkpt lat="35.186753" lon="-6.147044">
   <ele>44.00</ele>
   <time>2014-04-09T12:53:59Z</time>
  </trkpt>
  <trkpt lat="35.186928" lon="-6.147177">
   <ele>43.00</ele>
   <time>2014-04-09T12:54:02Z</time>
  </trkpt>
  <trkpt lat="35.187365" lon="-6.147500">
   <ele>42.00</ele>
   <time>2014-04-09T12:54:09Z</time>
  </trkpt>
  <trkpt lat="35.187545" lon="-6.147622">
   <ele>45.00</ele>
   <time>2014-04-09T12:54:12Z</time>
  </trkpt>
  <trkpt lat="35.187744" lon="-6.147723">
   <ele>47.00</ele>
   <time>2014-04-09T12:54:15Z</time>
  </trkpt>
  <trkpt lat="35.188536" lon="-6.148093">
   <ele>49.00</ele>
   <time>2014-04-09T12:54:26Z</time>
  </trkpt>
  <trkpt lat="35.189232" lon="-6.148362">
   <ele>49.00</ele>
   <time>2014-04-09T12:54:39Z</time>
  </trkpt>
  <trkpt lat="35.189414" lon="-6.148408">
   <ele>48.00</ele>
   <time>2014-04-09T12:54:42Z</time>
  </trkpt>
  <trkpt lat="35.189612" lon="-6.148447">
   <ele>48.00</ele>
   <time>2014-04-09T12:54:45Z</time>
  </trkpt>
  <trkpt lat="35.189801" lon="-6.148489">
   <ele>47.00</ele>
   <time>2014-04-09T12:54:48Z</time>
  </trkpt>
  <trkpt lat="35.190014" lon="-6.148622">
   <ele>46.00</ele>
   <time>2014-04-09T12:54:52Z</time>
  </trkpt>
  <trkpt lat="35.190196" lon="-6.148717">
   <ele>46.00</ele>
   <time>2014-04-09T12:54:55Z</time>
  </trkpt>
  <trkpt lat="35.191008" lon="-6.148977">
   <ele>46.00</ele>
   <time>2014-04-09T12:55:12Z</time>
  </trkpt>
  <trkpt lat="35.191961" lon="-6.149308">
   <ele>46.00</ele>
   <time>2014-04-09T12:55:27Z</time>
  </trkpt>
  <trkpt lat="35.193110" lon="-6.149699">
   <ele>42.00</ele>
   <time>2014-04-09T12:55:41Z</time>
  </trkpt>
  <trkpt lat="35.194347" lon="-6.150134">
   <ele>35.00</ele>
   <time>2014-04-09T12:55:56Z</time>
  </trkpt>
  <trkpt lat="35.194689" lon="-6.150278">
   <ele>34.00</ele>
   <time>2014-04-09T12:56:03Z</time>
  </trkpt>
  <trkpt lat="35.194992" lon="-6.150430">
   <ele>34.00</ele>
   <time>2014-04-09T12:56:09Z</time>
  </trkpt>
  <trkpt lat="35.195152" lon="-6.150553">
   <ele>33.00</ele>
   <time>2014-04-09T12:56:13Z</time>
  </trkpt>
  <trkpt lat="35.195326" lon="-6.150713">
   <ele>32.00</ele>
   <time>2014-04-09T12:56:18Z</time>
  </trkpt>
  <trkpt lat="35.195478" lon="-6.150836">
   <ele>31.00</ele>
   <time>2014-04-09T12:56:22Z</time>
  </trkpt>
  <trkpt lat="35.195706" lon="-6.151032">
   <ele>30.00</ele>
   <time>2014-04-09T12:56:28Z</time>
  </trkpt>
  <trkpt lat="35.195871" lon="-6.151165">
   <ele>30.00</ele>
   <time>2014-04-09T12:56:33Z</time>
  </trkpt>
  <trkpt lat="35.196282" lon="-6.151531">
   <ele>28.00</ele>
   <time>2014-04-09T12:56:48Z</time>
  </trkpt>
  <trkpt lat="35.196470" lon="-6.151696">
   <ele>27.00</ele>
   <time>2014-04-09T12:56:52Z</time>
  </trkpt>
  <trkpt lat="35.196648" lon="-6.151851">
   <ele>29.00</ele>
   <time>2014-04-09T12:56:56Z</time>
  </trkpt>
  <trkpt lat="35.196762" lon="-6.152043">
   <ele>29.00</ele>
   <time>2014-04-09T12:57:00Z</time>
  </trkpt>
  <trkpt lat="35.196803" lon="-6.152266">
   <ele>28.00</ele>
   <time>2014-04-09T12:57:04Z</time>
  </trkpt>
  <trkpt lat="35.196917" lon="-6.152471">
   <ele>28.00</ele>
   <time>2014-04-09T12:57:08Z</time>
  </trkpt>
  <trkpt lat="35.197106" lon="-6.152612">
   <ele>28.00</ele>
   <time>2014-04-09T12:57:12Z</time>
  </trkpt>
  <trkpt lat="35.197307" lon="-6.152644">
   <ele>26.00</ele>
   <time>2014-04-09T12:57:16Z</time>
  </trkpt>
  <trkpt lat="35.197488" lon="-6.152640">
   <ele>25.00</ele>
   <time>2014-04-09T12:57:20Z</time>
  </trkpt>
  <trkpt lat="35.197652" lon="-6.152766">
   <ele>27.00</ele>
   <time>2014-04-09T12:57:26Z</time>
  </trkpt>
  <trkpt lat="35.197825" lon="-6.152952">
   <ele>28.00</ele>
   <time>2014-04-09T12:57:34Z</time>
  </trkpt>
  <trkpt lat="35.197957" lon="-6.153104">
   <ele>28.00</ele>
   <time>2014-04-09T12:57:38Z</time>
  </trkpt>
  <trkpt lat="35.198147" lon="-6.153247">
   <ele>29.00</ele>
   <time>2014-04-09T12:57:43Z</time>
  </trkpt>
  <trkpt lat="35.198133" lon="-6.153465">
   <ele>27.00</ele>
   <time>2014-04-09T12:57:48Z</time>
  </trkpt>
  <trkpt lat="35.198020" lon="-6.153590">
   <ele>30.00</ele>
   <time>2014-04-09T12:58:00Z</time>
  </trkpt>
 </trkseg>
 <trkseg>
  <trkpt lat="35.194236" lon="-6.128621">
   <ele>1.00</ele>
   <time>2014-04-09T14:44:26Z</time>
  </trkpt>
  <trkpt lat="35.194339" lon="-6.128214">
   <ele>0.00</ele>
   <time>2014-04-09T14:44:28Z</time>
  </trkpt>
  <trkpt lat="35.195121" lon="-6.125095">
   <ele>-2.00</ele>
   <time>2014-04-09T14:44:43Z</time>
  </trkpt>
  <trkpt lat="35.195884" lon="-6.122113">
   <ele>-2.00</ele>
   <time>2014-04-09T14:44:57Z</time>
  </trkpt>
  <trkpt lat="35.195973" lon="-6.121695">
   <ele>-2.00</ele>
   <time>2014-04-09T14:44:59Z</time>
  </trkpt>
  <trkpt lat="35.196036" lon="-6.121277">
   <ele>-2.00</ele>
   <time>2014-04-09T14:45:01Z</time>
  </trkpt>
  <trkpt lat="35.196075" lon="-6.120859">
   <ele>-2.00</ele>
   <time>2014-04-09T14:45:03Z</time>
  </trkpt>
  <trkpt lat="35.196294" lon="-6.117390">
   <ele>-2.00</ele>
   <time>2014-04-09T14:45:19Z</time>
  </trkpt>
  <trkpt lat="35.196526" lon="-6.113704">
   <ele>-1.00</ele>
   <time>2014-04-09T14:45:35Z</time>
  </trkpt>
  <trkpt lat="35.196723" lon="-6.110677">
   <ele>1.00</ele>
   <time>2014-04-09T14:45:50Z</time>
  </trkpt>
  <trkpt lat="35.196783" lon="-6.110085">
   <ele>2.00</ele>
   <time>2014-04-09T14:45:53Z</time>
  </trkpt>
  <trkpt lat="35.196929" lon="-6.108905">
   <ele>3.00</ele>
   <time>2014-04-09T14:45:59Z</time>
  </trkpt>
  <trkpt lat="35.197036" lon="-6.108535">
   <ele>3.00</ele>
   <time>2014-04-09T14:46:01Z</time>
  </trkpt>
  <trkpt lat="35.197201" lon="-6.108187">
   <ele>3.00</ele>
   <time>2014-04-09T14:46:03Z</time>
  </trkpt>
  <trkpt lat="35.197391" lon="-6.107855">
   <ele>3.00</ele>
   <time>2014-04-09T14:46:05Z</time>
  </trkpt>
  <trkpt lat="35.198077" lon="-6.106738">
   <ele>3.00</ele>
   <time>2014-04-09T14:46:12Z</time>
  </trkpt>
  <trkpt lat="35.198394" lon="-6.106246">
   <ele>3.00</ele>
   <time>2014-04-09T14:46:15Z</time>
  </trkpt>
  <trkpt lat="35.199967" lon="-6.103666">
   <ele>1.00</ele>
   <time>2014-04-09T14:46:31Z</time>
  </trkpt>
  <trkpt lat="35.200245" lon="-6.103189">
   <ele>1.00</ele>
   <time>2014-04-09T14:46:34Z</time>
  </trkpt>
  <trkpt lat="35.200400" lon="-6.102849">
   <ele>1.00</ele>
   <time>2014-04-09T14:46:36Z</time>
  </trkpt>
  <trkpt lat="35.200502" lon="-6.102488">
   <ele>1.00</ele>
   <time>2014-04-09T14:46:38Z</time>
  </trkpt>
  <trkpt lat="35.200564" lon="-6.102110">
   <ele>2.00</ele>
   <time>2014-04-09T14:46:40Z</time>
  </trkpt>
  <trkpt lat="35.200683" lon="-6.101144">
   <ele>2.00</ele>
   <time>2014-04-09T14:46:45Z</time>
  </trkpt>
  <trkpt lat="35.200755" lon="-6.100773">
   <ele>3.00</ele>
   <time>2014-04-09T14:46:47Z</time>
  </trkpt>
  <trkpt lat="35.200843" lon="-6.100425">
   <ele>3.00</ele>
   <time>2014-04-09T14:46:49Z</time>
  </trkpt>
  <trkpt lat="35.201555" lon="-6.097928">
   <ele>4.00</ele>
   <time>2014-04-09T14:47:05Z</time>
  </trkpt>
  <trkpt lat="35.201639" lon="-6.097547">
   <ele>3.00</ele>
   <time>2014-04-09T14:47:09Z</time>
  </trkpt>
  <trkpt lat="35.201665" lon="-6.097310">
   <ele>3.00</ele>
   <time>2014-04-09T14:47:12Z</time>
  </trkpt>
  <trkpt lat="35.201654" lon="-6.097081">
   <ele>3.00</ele>
   <time>2014-04-09T14:47:15Z</time>
  </trkpt>
  <trkpt lat="35.201721" lon="-6.096874">
   <ele>3.00</ele>
   <time>2014-04-09T14:47:18Z</time>
  </trkpt>
  <trkpt lat="35.201883" lon="-6.096645">
   <ele>3.00</ele>
   <time>2014-04-09T14:47:22Z</time>
  </trkpt>
  <trkpt lat="35.201999" lon="-6.096398">
   <ele>3.00</ele>
   <time>2014-04-09T14:47:25Z</time>
  </trkpt>
  <trkpt lat="35.202351" lon="-6.095582">
   <ele>3.00</ele>
   <time>2014-04-09T14:47:33Z</time>
  </trkpt>
  <trkpt lat="35.202473" lon="-6.095355">
   <ele>4.00</ele>
   <time>2014-04-09T14:47:35Z</time>
  </trkpt>
  <trkpt lat="35.202635" lon="-6.095079">
   <ele>4.00</ele>
   <time>2014-04-09T14:47:37Z</time>
  </trkpt>
  <trkpt lat="35.202809" lon="-6.094741">
   <ele>4.00</ele>
   <time>2014-04-09T14:47:39Z</time>
  </trkpt>
  <trkpt lat="35.203171" lon="-6.094003">
   <ele>5.00</ele>
   <time>2014-04-09T14:47:43Z</time>
  </trkpt>
  <trkpt lat="35.204091" lon="-6.092324">
   <ele>10.00</ele>
   <time>2014-04-09T14:47:52Z</time>
  </trkpt>
  <trkpt lat="35.204943" lon="-6.090898">
   <ele>12.00</ele>
   <time>2014-04-09T14:48:00Z</time>
  </trkpt>
  <trkpt lat="35.205170" lon="-6.090575">
   <ele>12.00</ele>
   <time>2014-04-09T14:48:02Z</time>
  </trkpt>
  <trkpt lat="35.205433" lon="-6.090297">
   <ele>12.00</ele>
   <time>2014-04-09T14:48:04Z</time>
  </trkpt>
  <trkpt lat="35.205723" lon="-6.090056">
   <ele>13.00</ele>
   <time>2014-04-09T14:48:06Z</time>
  </trkpt>
  <trkpt lat="35.206030" lon="-6.089841">
   <ele>14.00</ele>
   <time>2014-04-09T14:48:08Z</time>
  </trkpt>
  <trkpt lat="35.206195" lon="-6.089748">
   <ele>14.00</ele>
   <time>2014-04-09T14:48:09Z</time>
  </trkpt>
  <trkpt lat="35.206366" lon="-6.089667">
   <ele>15.00</ele>
   <time>2014-04-09T14:48:10Z</time>
  </trkpt>
  <trkpt lat="35.206543" lon="-6.089595">
   <ele>15.00</ele>
   <time>2014-04-09T14:48:11Z</time>
  </trkpt>
  <trkpt lat="35.206727" lon="-6.089533">
   <ele>15.00</ele>
   <time>2014-04-09T14:48:12Z</time>
  </trkpt>
  <trkpt lat="35.207301" lon="-6.089374">
   <ele>16.00</ele>
   <time>2014-04-09T14:48:15Z</time>
  </trkpt>
  <trkpt lat="35.208705" lon="-6.089023">
   <ele>18.00</ele>
   <time>2014-04-09T14:48:22Z</time>
  </trkpt>
  <trkpt lat="35.208913" lon="-6.088993">
   <ele>18.00</ele>
   <time>2014-04-09T14:48:23Z</time>
  </trkpt>
  <trkpt lat="35.209122" lon="-6.088975">
   <ele>18.00</ele>
   <time>2014-04-09T14:48:24Z</time>
  </trkpt>
  <trkpt lat="35.209740" lon="-6.088950">
   <ele>19.00</ele>
   <time>2014-04-09T14:48:27Z</time>
  </trkpt>
  <trkpt lat="35.213006" lon="-6.088884">
   <ele>24.00</ele>
   <time>2014-04-09T14:48:43Z</time>
  </trkpt>
  <trkpt lat="35.213407" lon="-6.088900">
   <ele>25.00</ele>
   <time>2014-04-09T14:48:45Z</time>
  </trkpt>
  <trkpt lat="35.213607" lon="-6.088933">
   <ele>25.00</ele>
   <time>2014-04-09T14:48:46Z</time>
  </trkpt>
  <trkpt lat="35.213804" lon="-6.088988">
   <ele>26.00</ele>
   <time>2014-04-09T14:48:47Z</time>
  </trkpt>
  <trkpt lat="35.214001" lon="-6.089061">
   <ele>26.00</ele>
   <time>2014-04-09T14:48:48Z</time>
  </trkpt>
  <trkpt lat="35.216601" lon="-6.090170">
   <ele>39.00</ele>
   <time>2014-04-09T14:49:01Z</time>
  </trkpt>
  <trkpt lat="35.216804" lon="-6.090233">
   <ele>40.00</ele>
   <time>2014-04-09T14:49:02Z</time>
  </trkpt>
  <trkpt lat="35.217010" lon="-6.090285">
   <ele>41.00</ele>
   <time>2014-04-09T14:49:03Z</time>
  </trkpt>
  <trkpt lat="35.218042" lon="-6.090519">
   <ele>46.00</ele>
   <time>2014-04-09T14:49:08Z</time>
  </trkpt>
  <trkpt lat="35.218244" lon="-6.090585">
   <ele>47.00</ele>
   <time>2014-04-09T14:49:09Z</time>
  </trkpt>
  <trkpt lat="35.218441" lon="-6.090665">
   <ele>48.00</ele>
   <time>2014-04-09T14:49:10Z</time>
  </trkpt>
  <trkpt lat="35.218631" lon="-6.090761">
   <ele>50.00</ele>
   <time>2014-04-09T14:49:11Z</time>
  </trkpt>
  <trkpt lat="35.218808" lon="-6.090870">
   <ele>51.00</ele>
   <time>2014-04-09T14:49:12Z</time>
  </trkpt>
  <trkpt lat="35.218970" lon="-6.090992">
   <ele>51.00</ele>
   <time>2014-04-09T14:49:13Z</time>
  </trkpt>
  <trkpt lat="35.219118" lon="-6.091125">
   <ele>52.00</ele>
   <time>2014-04-09T14:49:14Z</time>
  </trkpt>
  <trkpt lat="35.219380" lon="-6.091417">
   <ele>54.00</ele>
   <time>2014-04-09T14:49:16Z</time>
  </trkpt>
  <trkpt lat="35.219616" lon="-6.091744">
   <ele>56.00</ele>
   <time>2014-04-09T14:49:18Z</time>
  </trkpt>
  <trkpt lat="35.220621" lon="-6.093267">
   <ele>63.00</ele>
   <time>2014-04-09T14:49:27Z</time>
  </trkpt>
  <trkpt lat="35.221039" lon="-6.093892">
   <ele>68.00</ele>
   <time>2014-04-09T14:49:31Z</time>
  </trkpt>
  <trkpt lat="35.221231" lon="-6.094146">
   <ele>70.00</ele>
   <time>2014-04-09T14:49:33Z</time>
  </trkpt>
  <trkpt lat="35.221430" lon="-6.094380">
   <ele>72.00</ele>
   <time>2014-04-09T14:49:35Z</time>
  </trkpt>
  <trkpt lat="35.221857" lon="-6.094842">
   <ele>75.00</ele>
   <time>2014-04-09T14:49:39Z</time>
  </trkpt>
  <trkpt lat="35.222090" lon="-6.095074">
   <ele>76.00</ele>
   <time>2014-04-09T14:49:41Z</time>
  </trkpt>
  <trkpt lat="35.222345" lon="-6.095309">
   <ele>77.00</ele>
   <time>2014-04-09T14:49:43Z</time>
  </trkpt>
  <trkpt lat="35.222633" lon="-6.095536">
   <ele>77.00</ele>
   <time>2014-04-09T14:49:45Z</time>
  </trkpt>
  <trkpt lat="35.222951" lon="-6.095753">
   <ele>77.00</ele>
   <time>2014-04-09T14:49:47Z</time>
  </trkpt>
  <trkpt lat="35.223122" lon="-6.095844">
   <ele>77.00</ele>
   <time>2014-04-09T14:49:48Z</time>
  </trkpt>
  <trkpt lat="35.223301" lon="-6.095925">
   <ele>78.00</ele>
   <time>2014-04-09T14:49:49Z</time>
  </trkpt>
  <trkpt lat="35.224212" lon="-6.096323">
   <ele>80.00</ele>
   <time>2014-04-09T14:49:54Z</time>
  </trkpt>
  <trkpt lat="35.224384" lon="-6.096422">
   <ele>81.00</ele>
   <time>2014-04-09T14:49:55Z</time>
  </trkpt>
  <trkpt lat="35.224911" lon="-6.096736">
   <ele>83.00</ele>
   <time>2014-04-09T14:49:58Z</time>
  </trkpt>
  <trkpt lat="35.225094" lon="-6.096830">
   <ele>84.00</ele>
   <time>2014-04-09T14:49:59Z</time>
  </trkpt>
  <trkpt lat="35.225281" lon="-6.096914">
   <ele>85.00</ele>
   <time>2014-04-09T14:50:00Z</time>
  </trkpt>
  <trkpt lat="35.225470" lon="-6.096989">
   <ele>86.00</ele>
   <time>2014-04-09T14:50:01Z</time>
  </trkpt>
  <trkpt lat="35.225858" lon="-6.097117">
   <ele>88.00</ele>
   <time>2014-04-09T14:50:03Z</time>
  </trkpt>
  <trkpt lat="35.227046" lon="-6.097488">
   <ele>95.00</ele>
   <time>2014-04-09T14:50:09Z</time>
  </trkpt>
  <trkpt lat="35.227228" lon="-6.097567">
   <ele>96.00</ele>
   <time>2014-04-09T14:50:10Z</time>
  </trkpt>
  <trkpt lat="35.227404" lon="-6.097655">
   <ele>97.00</ele>
   <time>2014-04-09T14:50:11Z</time>
  </trkpt>
  <trkpt lat="35.227573" lon="-6.097753">
   <ele>99.00</ele>
   <time>2014-04-09T14:50:12Z</time>
  </trkpt>
  <trkpt lat="35.227889" lon="-6.097967">
   <ele>101.00</ele>
   <time>2014-04-09T14:50:14Z</time>
  </trkpt>
  <trkpt lat="35.228181" lon="-6.098201">
   <ele>104.00</ele>
   <time>2014-04-09T14:50:16Z</time>
  </trkpt>
  <trkpt lat="35.228608" lon="-6.098578">
   <ele>108.00</ele>
   <time>2014-04-09T14:50:19Z</time>
  </trkpt>
  <trkpt lat="35.229040" lon="-6.098964">
   <ele>111.00</ele>
   <time>2014-04-09T14:50:22Z</time>
  </trkpt>
  <trkpt lat="35.229339" lon="-6.099169">
   <ele>113.00</ele>
   <time>2014-04-09T14:50:24Z</time>
  </trkpt>
  <trkpt lat="35.229654" lon="-6.099325">
   <ele>115.00</ele>
   <time>2014-04-09T14:50:26Z</time>
  </trkpt>
  <trkpt lat="35.229985" lon="-6.099446">
   <ele>117.00</ele>
   <time>2014-04-09T14:50:28Z</time>
  </trkpt>
  <trkpt lat="35.230652" lon="-6.099655">
   <ele>120.00</ele>
   <time>2014-04-09T14:50:32Z</time>
  </trkpt>
  <trkpt lat="35.230982" lon="-6.099732">
   <ele>121.00</ele>
   <time>2014-04-09T14:50:34Z</time>
  </trkpt>
  <trkpt lat="35.231323" lon="-6.099775">
   <ele>122.00</ele>
   <time>2014-04-09T14:50:36Z</time>
  </trkpt>
  <trkpt lat="35.231672" lon="-6.099779">
   <ele>123.00</ele>
   <time>2014-04-09T14:50:38Z</time>
  </trkpt>
  <trkpt lat="35.232029" lon="-6.099743">
   <ele>123.00</ele>
   <time>2014-04-09T14:50:40Z</time>
  </trkpt>
  <trkpt lat="35.232390" lon="-6.099672">
   <ele>124.00</ele>
   <time>2014-04-09T14:50:42Z</time>
  </trkpt>
  <trkpt lat="35.235334" lon="-6.098996">
   <ele>132.00</ele>
   <time>2014-04-09T14:50:58Z</time>
  </trkpt>
  <trkpt lat="35.237336" lon="-6.098528">
   <ele>138.00</ele>
   <time>2014-04-09T14:51:10Z</time>
  </trkpt>
  <trkpt lat="35.237600" lon="-6.098431">
   <ele>138.00</ele>
   <time>2014-04-09T14:51:12Z</time>
  </trkpt>
  <trkpt lat="35.237829" lon="-6.098322">
   <ele>139.00</ele>
   <time>2014-04-09T14:51:14Z</time>
  </trkpt>
  <trkpt lat="35.238262" lon="-6.098078">
   <ele>140.00</ele>
   <time>2014-04-09T14:51:19Z</time>
  </trkpt>
  <trkpt lat="35.238428" lon="-6.097973">
   <ele>141.00</ele>
   <time>2014-04-09T14:51:22Z</time>
  </trkpt>
  <trkpt lat="35.239479" lon="-6.097318">
   <ele>143.00</ele>
   <time>2014-04-09T14:51:38Z</time>
  </trkpt>
  <trkpt lat="35.240785" lon="-6.096527">
   <ele>142.00</ele>
   <time>2014-04-09T14:51:54Z</time>
  </trkpt>
  <trkpt lat="35.242059" lon="-6.095766">
   <ele>141.00</ele>
   <time>2014-04-09T14:52:08Z</time>
  </trkpt>
  <trkpt lat="35.242283" lon="-6.095663">
   <ele>141.00</ele>
   <time>2014-04-09T14:52:10Z</time>
  </trkpt>
  <trkpt lat="35.242542" lon="-6.095575">
   <ele>141.00</ele>
   <time>2014-04-09T14:52:12Z</time>
  </trkpt>
  <trkpt lat="35.242823" lon="-6.095508">
   <ele>140.00</ele>
   <time>2014-04-09T14:52:14Z</time>
  </trkpt>
  <trkpt lat="35.243662" lon="-6.095350">
   <ele>141.00</ele>
   <time>2014-04-09T14:52:20Z</time>
  </trkpt>
  <trkpt lat="35.243937" lon="-6.095300">
   <ele>143.00</ele>
   <time>2014-04-09T14:52:22Z</time>
  </trkpt>
  <trkpt lat="35.244206" lon="-6.095213">
   <ele>144.00</ele>
   <time>2014-04-09T14:52:24Z</time>
  </trkpt>
  <trkpt lat="35.244457" lon="-6.095032">
   <ele>146.00</ele>
   <time>2014-04-09T14:52:26Z</time>
  </trkpt>
  <trkpt lat="35.244652" lon="-6.094731">
   <ele>147.00</ele>
   <time>2014-04-09T14:52:28Z</time>
  </trkpt>
  <trkpt lat="35.244730" lon="-6.094320">
   <ele>148.00</ele>
   <time>2014-04-09T14:52:30Z</time>
  </trkpt>
  <trkpt lat="35.244724" lon="-6.093888">
   <ele>150.00</ele>
   <time>2014-04-09T14:52:32Z</time>
  </trkpt>
  <trkpt lat="35.244701" lon="-6.093255">
   <ele>153.00</ele>
   <time>2014-04-09T14:52:35Z</time>
  </trkpt>
  <trkpt lat="35.244738" lon="-6.092815">
   <ele>156.00</ele>
   <time>2014-04-09T14:52:37Z</time>
  </trkpt>
  <trkpt lat="35.244783" lon="-6.092597">
   <ele>157.00</ele>
   <time>2014-04-09T14:52:38Z</time>
  </trkpt>
  <trkpt lat="35.244849" lon="-6.092385">
   <ele>158.00</ele>
   <time>2014-04-09T14:52:39Z</time>
  </trkpt>
  <trkpt lat="35.244929" lon="-6.092185">
   <ele>159.00</ele>
   <time>2014-04-09T14:52:40Z</time>
  </trkpt>
  <trkpt lat="35.245123" lon="-6.091820">
   <ele>161.00</ele>
   <time>2014-04-09T14:52:42Z</time>
  </trkpt>
  <trkpt lat="35.245636" lon="-6.090928">
   <ele>165.00</ele>
   <time>2014-04-09T14:52:47Z</time>
  </trkpt>
  <trkpt lat="35.246009" lon="-6.090184">
   <ele>170.00</ele>
   <time>2014-04-09T14:52:51Z</time>
  </trkpt>
  <trkpt lat="35.246274" lon="-6.089655">
   <ele>173.00</ele>
   <time>2014-04-09T14:52:54Z</time>
  </trkpt>
  <trkpt lat="35.246492" lon="-6.089364">
   <ele>175.00</ele>
   <time>2014-04-09T14:52:56Z</time>
  </trkpt>
  <trkpt lat="35.246768" lon="-6.089160">
   <ele>176.00</ele>
   <time>2014-04-09T14:52:58Z</time>
  </trkpt>
  <trkpt lat="35.247074" lon="-6.089019">
   <ele>178.00</ele>
   <time>2014-04-09T14:53:00Z</time>
  </trkpt>
  <trkpt lat="35.248456" lon="-6.088477">
   <ele>186.00</ele>
   <time>2014-04-09T14:53:09Z</time>
  </trkpt>
  <trkpt lat="35.250092" lon="-6.087895">
   <ele>187.00</ele>
   <time>2014-04-09T14:53:25Z</time>
  </trkpt>
  <trkpt lat="35.250745" lon="-6.087647">
   <ele>183.00</ele>
   <time>2014-04-09T14:53:31Z</time>
  </trkpt>
  <trkpt lat="35.250957" lon="-6.087495">
   <ele>182.00</ele>
   <time>2014-04-09T14:53:33Z</time>
  </trkpt>
  <trkpt lat="35.251136" lon="-6.087266">
   <ele>180.00</ele>
   <time>2014-04-09T14:53:35Z</time>
  </trkpt>
  <trkpt lat="35.251262" lon="-6.086967">
   <ele>179.00</ele>
   <time>2014-04-09T14:53:37Z</time>
  </trkpt>
  <trkpt lat="35.251332" lon="-6.086633">
   <ele>178.00</ele>
   <time>2014-04-09T14:53:39Z</time>
  </trkpt>
  <trkpt lat="35.251765" lon="-6.084019">
   <ele>175.00</ele>
   <time>2014-04-09T14:53:55Z</time>
  </trkpt>
  <trkpt lat="35.251840" lon="-6.083743">
   <ele>175.00</ele>
   <time>2014-04-09T14:53:57Z</time>
  </trkpt>
  <trkpt lat="35.251944" lon="-6.083475">
   <ele>175.00</ele>
   <time>2014-04-09T14:53:59Z</time>
  </trkpt>
  <trkpt lat="35.252073" lon="-6.083223">
   <ele>176.00</ele>
   <time>2014-04-09T14:54:01Z</time>
  </trkpt>
  <trkpt lat="35.252211" lon="-6.083000">
   <ele>176.00</ele>
   <time>2014-04-09T14:54:03Z</time>
  </trkpt>
  <trkpt lat="35.253230" lon="-6.081461">
   <ele>174.00</ele>
   <time>2014-04-09T14:54:19Z</time>
  </trkpt>
  <trkpt lat="35.253495" lon="-6.081065">
   <ele>173.00</ele>
   <time>2014-04-09T14:54:23Z</time>
  </trkpt>
  <trkpt lat="35.253632" lon="-6.080883">
   <ele>173.00</ele>
   <time>2014-04-09T14:54:25Z</time>
  </trkpt>
  <trkpt lat="35.253847" lon="-6.080620">
   <ele>174.00</ele>
   <time>2014-04-09T14:54:28Z</time>
  </trkpt>
  <trkpt lat="35.253998" lon="-6.080463">
   <ele>174.00</ele>
   <time>2014-04-09T14:54:30Z</time>
  </trkpt>
  <trkpt lat="35.254155" lon="-6.080320">
   <ele>174.00</ele>
   <time>2014-04-09T14:54:32Z</time>
  </trkpt>
  <trkpt lat="35.254318" lon="-6.080191">
   <ele>174.00</ele>
   <time>2014-04-09T14:54:34Z</time>
  </trkpt>
  <trkpt lat="35.254483" lon="-6.080077">
   <ele>174.00</ele>
   <time>2014-04-09T14:54:36Z</time>
  </trkpt>
  <trkpt lat="35.255819" lon="-6.079223">
   <ele>175.00</ele>
   <time>2014-04-09T14:54:52Z</time>
  </trkpt>
  <trkpt lat="35.256666" lon="-6.078666">
   <ele>176.00</ele>
   <time>2014-04-09T14:55:03Z</time>
  </trkpt>
  <trkpt lat="35.256881" lon="-6.078497">
   <ele>176.00</ele>
   <time>2014-04-09T14:55:06Z</time>
  </trkpt>
  <trkpt lat="35.257027" lon="-6.078351">
   <ele>176.00</ele>
   <time>2014-04-09T14:55:08Z</time>
  </trkpt>
  <trkpt lat="35.258441" lon="-6.076772">
   <ele>173.00</ele>
   <time>2014-04-09T14:55:23Z</time>
  </trkpt>
  <trkpt lat="35.260254" lon="-6.074757">
   <ele>176.00</ele>
   <time>2014-04-09T14:55:39Z</time>
  </trkpt>
  <trkpt lat="35.261206" lon="-6.073711">
   <ele>177.00</ele>
   <time>2014-04-09T14:55:47Z</time>
  </trkpt>
  <trkpt lat="35.261483" lon="-6.073459">
   <ele>177.00</ele>
   <time>2014-04-09T14:55:49Z</time>
  </trkpt>
  <trkpt lat="35.261642" lon="-6.073341">
   <ele>177.00</ele>
   <time>2014-04-09T14:55:50Z</time>
  </trkpt>
  <trkpt lat="35.261811" lon="-6.073232">
   <ele>177.00</ele>
   <time>2014-04-09T14:55:51Z</time>
  </trkpt>
  <trkpt lat="35.261991" lon="-6.073132">
   <ele>177.00</ele>
   <time>2014-04-09T14:55:52Z</time>
  </trkpt>
  <trkpt lat="35.262728" lon="-6.072765">
   <ele>178.00</ele>
   <time>2014-04-09T14:55:56Z</time>
  </trkpt>
  <trkpt lat="35.265079" lon="-6.071626">
   <ele>180.00</ele>
   <time>2014-04-09T14:56:11Z</time>
  </trkpt>
  <trkpt lat="35.267524" lon="-6.070437">
   <ele>183.00</ele>
   <time>2014-04-09T14:56:27Z</time>
  </trkpt>
  <trkpt lat="35.270233" lon="-6.069117">
   <ele>186.00</ele>
   <time>2014-04-09T14:56:43Z</time>
  </trkpt>
  <trkpt lat="35.270577" lon="-6.068967">
   <ele>187.00</ele>
   <time>2014-04-09T14:56:45Z</time>
  </trkpt>
  <trkpt lat="35.270751" lon="-6.068910">
   <ele>187.00</ele>
   <time>2014-04-09T14:56:46Z</time>
  </trkpt>
  <trkpt lat="35.270931" lon="-6.068869">
   <ele>187.00</ele>
   <time>2014-04-09T14:56:47Z</time>
  </trkpt>
  <trkpt lat="35.271113" lon="-6.068846">
   <ele>188.00</ele>
   <time>2014-04-09T14:56:48Z</time>
  </trkpt>
  <trkpt lat="35.271298" lon="-6.068843">
   <ele>188.00</ele>
   <time>2014-04-09T14:56:49Z</time>
  </trkpt>
  <trkpt lat="35.271484" lon="-6.068859">
   <ele>188.00</ele>
   <time>2014-04-09T14:56:50Z</time>
  </trkpt>
  <trkpt lat="35.271668" lon="-6.068892">
   <ele>188.00</ele>
   <time>2014-04-09T14:56:51Z</time>
  </trkpt>
  <trkpt lat="35.271850" lon="-6.068939">
   <ele>188.00</ele>
   <time>2014-04-09T14:56:52Z</time>
  </trkpt>
  <trkpt lat="35.274226" lon="-6.069662">
   <ele>184.00</ele>
   <time>2014-04-09T14:57:06Z</time>
  </trkpt>
  <trkpt lat="35.274573" lon="-6.069673">
   <ele>183.00</ele>
   <time>2014-04-09T14:57:08Z</time>
  </trkpt>
  <trkpt lat="35.274922" lon="-6.069615">
   <ele>183.00</ele>
   <time>2014-04-09T14:57:10Z</time>
  </trkpt>
  <trkpt lat="35.277055" lon="-6.069139">
   <ele>181.00</ele>
   <time>2014-04-09T14:57:23Z</time>
  </trkpt>
  <trkpt lat="35.277350" lon="-6.069020">
   <ele>181.00</ele>
   <time>2014-04-09T14:57:25Z</time>
  </trkpt>
  <trkpt lat="35.277623" lon="-6.068834">
   <ele>181.00</ele>
   <time>2014-04-09T14:57:27Z</time>
  </trkpt>
  <trkpt lat="35.277873" lon="-6.068587">
   <ele>181.00</ele>
   <time>2014-04-09T14:57:29Z</time>
  </trkpt>
  <trkpt lat="35.278102" lon="-6.068295">
   <ele>182.00</ele>
   <time>2014-04-09T14:57:31Z</time>
  </trkpt>
  <trkpt lat="35.279766" lon="-6.065964">
   <ele>191.00</ele>
   <time>2014-04-09T14:57:46Z</time>
  </trkpt>
  <trkpt lat="35.280105" lon="-6.065545">
   <ele>192.00</ele>
   <time>2014-04-09T14:57:49Z</time>
  </trkpt>
  <trkpt lat="35.280458" lon="-6.065153">
   <ele>194.00</ele>
   <time>2014-04-09T14:57:52Z</time>
  </trkpt>
  <trkpt lat="35.280699" lon="-6.064911">
   <ele>194.00</ele>
   <time>2014-04-09T14:57:54Z</time>
  </trkpt>
  <trkpt lat="35.281056" lon="-6.064577">
   <ele>194.00</ele>
   <time>2014-04-09T14:57:57Z</time>
  </trkpt>
  <trkpt lat="35.282898" lon="-6.062967">
   <ele>198.00</ele>
   <time>2014-04-09T14:58:11Z</time>
  </trkpt>
  <trkpt lat="35.283119" lon="-6.062704">
   <ele>198.00</ele>
   <time>2014-04-09T14:58:13Z</time>
  </trkpt>
  <trkpt lat="35.283290" lon="-6.062447">
   <ele>199.00</ele>
   <time>2014-04-09T14:58:15Z</time>
  </trkpt>
  <trkpt lat="35.283423" lon="-6.062204">
   <ele>199.00</ele>
   <time>2014-04-09T14:58:17Z</time>
  </trkpt>
  <trkpt lat="35.283554" lon="-6.061967">
   <ele>199.00</ele>
   <time>2014-04-09T14:58:19Z</time>
  </trkpt>
  <trkpt lat="35.283693" lon="-6.061702">
   <ele>199.00</ele>
   <time>2014-04-09T14:58:21Z</time>
  </trkpt>
  <trkpt lat="35.284938" lon="-6.058989">
   <ele>203.00</ele>
   <time>2014-04-09T14:58:36Z</time>
  </trkpt>
  <trkpt lat="35.285550" lon="-6.057552">
   <ele>201.00</ele>
   <time>2014-04-09T14:58:44Z</time>
  </trkpt>
  <trkpt lat="35.286278" lon="-6.055767">
   <ele>200.00</ele>
   <time>2014-04-09T14:58:54Z</time>
  </trkpt>
  <trkpt lat="35.286392" lon="-6.055397">
   <ele>200.00</ele>
   <time>2014-04-09T14:58:56Z</time>
  </trkpt>
  <trkpt lat="35.286461" lon="-6.055004">
   <ele>199.00</ele>
   <time>2014-04-09T14:58:58Z</time>
  </trkpt>
  <trkpt lat="35.286464" lon="-6.054595">
   <ele>199.00</ele>
   <time>2014-04-09T14:59:00Z</time>
  </trkpt>
  <trkpt lat="35.286409" lon="-6.053969">
   <ele>197.00</ele>
   <time>2014-04-09T14:59:03Z</time>
  </trkpt>
  <trkpt lat="35.286096" lon="-6.050581">
   <ele>193.00</ele>
   <time>2014-04-09T14:59:19Z</time>
  </trkpt>
  <trkpt lat="35.285809" lon="-6.047176">
   <ele>190.00</ele>
   <time>2014-04-09T14:59:35Z</time>
  </trkpt>
  <trkpt lat="35.285816" lon="-6.046761">
   <ele>190.00</ele>
   <time>2014-04-09T14:59:37Z</time>
  </trkpt>
  <trkpt lat="35.285875" lon="-6.046347">
   <ele>191.00</ele>
   <time>2014-04-09T14:59:39Z</time>
  </trkpt>
  <trkpt lat="35.285989" lon="-6.045940">
   <ele>191.00</ele>
   <time>2014-04-09T14:59:41Z</time>
  </trkpt>
  <trkpt lat="35.286139" lon="-6.045540">
   <ele>192.00</ele>
   <time>2014-04-09T14:59:43Z</time>
  </trkpt>
  <trkpt lat="35.287323" lon="-6.042623">
   <ele>198.00</ele>
   <time>2014-04-09T14:59:58Z</time>
  </trkpt>
  <trkpt lat="35.287509" lon="-6.042280">
   <ele>198.00</ele>
   <time>2014-04-09T15:00:00Z</time>
  </trkpt>
  <trkpt lat="35.287731" lon="-6.041962">
   <ele>197.00</ele>
   <time>2014-04-09T15:00:02Z</time>
  </trkpt>
  <trkpt lat="35.287987" lon="-6.041669">
   <ele>197.00</ele>
   <time>2014-04-09T15:00:04Z</time>
  </trkpt>
  <trkpt lat="35.290114" lon="-6.039525">
   <ele>196.00</ele>
   <time>2014-04-09T15:00:20Z</time>
  </trkpt>
  <trkpt lat="35.290377" lon="-6.039291">
   <ele>195.00</ele>
   <time>2014-04-09T15:00:22Z</time>
  </trkpt>
  <trkpt lat="35.290650" lon="-6.039091">
   <ele>195.00</ele>
   <time>2014-04-09T15:00:24Z</time>
  </trkpt>
  <trkpt lat="35.291071" lon="-6.038836">
   <ele>195.00</ele>
   <time>2014-04-09T15:00:27Z</time>
  </trkpt>
  <trkpt lat="35.293384" lon="-6.037470">
   <ele>192.00</ele>
   <time>2014-04-09T15:00:43Z</time>
  </trkpt>
  <trkpt lat="35.293638" lon="-6.037249">
   <ele>191.00</ele>
   <time>2014-04-09T15:00:45Z</time>
  </trkpt>
  <trkpt lat="35.293840" lon="-6.036968">
   <ele>191.00</ele>
   <time>2014-04-09T15:00:47Z</time>
  </trkpt>
  <trkpt lat="35.293985" lon="-6.036637">
   <ele>190.00</ele>
   <time>2014-04-09T15:00:49Z</time>
  </trkpt>
  <trkpt lat="35.294073" lon="-6.036263">
   <ele>191.00</ele>
   <time>2014-04-09T15:00:51Z</time>
  </trkpt>
  <trkpt lat="35.294125" lon="-6.035866">
   <ele>191.00</ele>
   <time>2014-04-09T15:00:53Z</time>
  </trkpt>
  <trkpt lat="35.294266" lon="-6.034615">
   <ele>193.00</ele>
   <time>2014-04-09T15:00:59Z</time>
  </trkpt>
  <trkpt lat="35.294336" lon="-6.034208">
   <ele>193.00</ele>
   <time>2014-04-09T15:01:01Z</time>
  </trkpt>
  <trkpt lat="35.294432" lon="-6.033829">
   <ele>194.00</ele>
   <time>2014-04-09T15:01:03Z</time>
  </trkpt>
  <trkpt lat="35.294557" lon="-6.033478">
   <ele>194.00</ele>
   <time>2014-04-09T15:01:05Z</time>
  </trkpt>
  <trkpt lat="35.295252" lon="-6.031816">
   <ele>197.00</ele>
   <time>2014-04-09T15:01:16Z</time>
  </trkpt>
  <trkpt lat="35.295388" lon="-6.031537">
   <ele>197.00</ele>
   <time>2014-04-09T15:01:18Z</time>
  </trkpt>
  <trkpt lat="35.295569" lon="-6.031277">
   <ele>197.00</ele>
   <time>2014-04-09T15:01:20Z</time>
  </trkpt>
  <trkpt lat="35.295799" lon="-6.031055">
   <ele>197.00</ele>
   <time>2014-04-09T15:01:22Z</time>
  </trkpt>
  <trkpt lat="35.296063" lon="-6.030860">
   <ele>196.00</ele>
   <time>2014-04-09T15:01:24Z</time>
  </trkpt>
  <trkpt lat="35.296884" lon="-6.030298">
   <ele>194.00</ele>
   <time>2014-04-09T15:01:30Z</time>
  </trkpt>
  <trkpt lat="35.297189" lon="-6.030143">
   <ele>193.00</ele>
   <time>2014-04-09T15:01:32Z</time>
  </trkpt>
  <trkpt lat="35.297522" lon="-6.030027">
   <ele>191.00</ele>
   <time>2014-04-09T15:01:34Z</time>
  </trkpt>
  <trkpt lat="35.297879" lon="-6.029953">
   <ele>188.00</ele>
   <time>2014-04-09T15:01:36Z</time>
  </trkpt>
  <trkpt lat="35.299235" lon="-6.029778">
   <ele>179.00</ele>
   <time>2014-04-09T15:01:44Z</time>
  </trkpt>
  <trkpt lat="35.299534" lon="-6.029702">
   <ele>177.00</ele>
   <time>2014-04-09T15:01:46Z</time>
  </trkpt>
  <trkpt lat="35.301433" lon="-6.029120">
   <ele>172.00</ele>
   <time>2014-04-09T15:02:02Z</time>
  </trkpt>
  <trkpt lat="35.301897" lon="-6.028983">
   <ele>171.00</ele>
   <time>2014-04-09T15:02:05Z</time>
  </trkpt>
  <trkpt lat="35.304270" lon="-6.028190">
   <ele>159.00</ele>
   <time>2014-04-09T15:02:19Z</time>
  </trkpt>
  <trkpt lat="35.304578" lon="-6.027999">
   <ele>158.00</ele>
   <time>2014-04-09T15:02:21Z</time>
  </trkpt>
  <trkpt lat="35.304831" lon="-6.027718">
   <ele>156.00</ele>
   <time>2014-04-09T15:02:23Z</time>
  </trkpt>
  <trkpt lat="35.305013" lon="-6.027370">
   <ele>154.00</ele>
   <time>2014-04-09T15:02:25Z</time>
  </trkpt>
  <trkpt lat="35.305123" lon="-6.026972">
   <ele>152.00</ele>
   <time>2014-04-09T15:02:27Z</time>
  </trkpt>
  <trkpt lat="35.305449" lon="-6.025249">
   <ele>144.00</ele>
   <time>2014-04-09T15:02:35Z</time>
  </trkpt>
  <trkpt lat="35.305561" lon="-6.024815">
   <ele>143.00</ele>
   <time>2014-04-09T15:02:37Z</time>
  </trkpt>
  <trkpt lat="35.305809" lon="-6.023968">
   <ele>139.00</ele>
   <time>2014-04-09T15:02:41Z</time>
  </trkpt>
  <trkpt lat="35.305881" lon="-6.023764">
   <ele>138.00</ele>
   <time>2014-04-09T15:02:42Z</time>
  </trkpt>
  <trkpt lat="35.305961" lon="-6.023565">
   <ele>137.00</ele>
   <time>2014-04-09T15:02:43Z</time>
  </trkpt>
  <trkpt lat="35.306147" lon="-6.023186">
   <ele>135.00</ele>
   <time>2014-04-09T15:02:45Z</time>
  </trkpt>
  <trkpt lat="35.306350" lon="-6.022828">
   <ele>133.00</ele>
   <time>2014-04-09T15:02:47Z</time>
  </trkpt>
  <trkpt lat="35.306880" lon="-6.021964">
   <ele>129.00</ele>
   <time>2014-04-09T15:02:52Z</time>
  </trkpt>
  <trkpt lat="35.307117" lon="-6.021634">
   <ele>127.00</ele>
   <time>2014-04-09T15:02:54Z</time>
  </trkpt>
  <trkpt lat="35.307250" lon="-6.021475">
   <ele>126.00</ele>
   <time>2014-04-09T15:02:55Z</time>
  </trkpt>
  <trkpt lat="35.307394" lon="-6.021324">
   <ele>125.00</ele>
   <time>2014-04-09T15:02:56Z</time>
  </trkpt>
  <trkpt lat="35.307549" lon="-6.021181">
   <ele>124.00</ele>
   <time>2014-04-09T15:02:57Z</time>
  </trkpt>
  <trkpt lat="35.307714" lon="-6.021047">
   <ele>123.00</ele>
   <time>2014-04-09T15:02:58Z</time>
  </trkpt>
  <trkpt lat="35.307888" lon="-6.020921">
   <ele>121.00</ele>
   <time>2014-04-09T15:02:59Z</time>
  </trkpt>
  <trkpt lat="35.308071" lon="-6.020805">
   <ele>120.00</ele>
   <time>2014-04-09T15:03:00Z</time>
  </trkpt>
  <trkpt lat="35.308263" lon="-6.020698">
   <ele>119.00</ele>
   <time>2014-04-09T15:03:01Z</time>
  </trkpt>
  <trkpt lat="35.308659" lon="-6.020505">
   <ele>117.00</ele>
   <time>2014-04-09T15:03:03Z</time>
  </trkpt>
  <trkpt lat="35.310294" lon="-6.019747">
   <ele>112.00</ele>
   <time>2014-04-09T15:03:11Z</time>
  </trkpt>
  <trkpt lat="35.310506" lon="-6.019682">
   <ele>112.00</ele>
   <time>2014-04-09T15:03:12Z</time>
  </trkpt>
  <trkpt lat="35.310720" lon="-6.019639">
   <ele>112.00</ele>
   <time>2014-04-09T15:03:13Z</time>
  </trkpt>
  <trkpt lat="35.311977" lon="-6.019434">
   <ele>116.00</ele>
   <time>2014-04-09T15:03:19Z</time>
  </trkpt>
  <trkpt lat="35.312811" lon="-6.019233">
   <ele>119.00</ele>
   <time>2014-04-09T15:03:23Z</time>
  </trkpt>
  <trkpt lat="35.313442" lon="-6.019079">
   <ele>120.00</ele>
   <time>2014-04-09T15:03:26Z</time>
  </trkpt>
  <trkpt lat="35.314267" lon="-6.018924">
   <ele>123.00</ele>
   <time>2014-04-09T15:03:30Z</time>
  </trkpt>
  <trkpt lat="35.314846" lon="-6.018826">
   <ele>126.00</ele>
   <time>2014-04-09T15:03:33Z</time>
  </trkpt>
  <trkpt lat="35.315033" lon="-6.018783">
   <ele>126.00</ele>
   <time>2014-04-09T15:03:34Z</time>
  </trkpt>
  <trkpt lat="35.315218" lon="-6.018728">
   <ele>127.00</ele>
   <time>2014-04-09T15:03:35Z</time>
  </trkpt>
  <trkpt lat="35.315400" lon="-6.018658">
   <ele>128.00</ele>
   <time>2014-04-09T15:03:36Z</time>
  </trkpt>
  <trkpt lat="35.316128" lon="-6.018356">
   <ele>130.00</ele>
   <time>2014-04-09T15:03:40Z</time>
  </trkpt>
  <trkpt lat="35.316698" lon="-6.018172">
   <ele>132.00</ele>
   <time>2014-04-09T15:03:43Z</time>
  </trkpt>
  <trkpt lat="35.319458" lon="-6.017398">
   <ele>139.00</ele>
   <time>2014-04-09T15:03:58Z</time>
  </trkpt>
  <trkpt lat="35.319819" lon="-6.017322">
   <ele>139.00</ele>
   <time>2014-04-09T15:04:00Z</time>
  </trkpt>
  <trkpt lat="35.321297" lon="-6.017063">
   <ele>134.00</ele>
   <time>2014-04-09T15:04:08Z</time>
  </trkpt>
  <trkpt lat="35.321484" lon="-6.017001">
   <ele>133.00</ele>
   <time>2014-04-09T15:04:09Z</time>
  </trkpt>
  <trkpt lat="35.321667" lon="-6.016924">
   <ele>133.00</ele>
   <time>2014-04-09T15:04:10Z</time>
  </trkpt>
  <trkpt lat="35.321847" lon="-6.016833">
   <ele>132.00</ele>
   <time>2014-04-09T15:04:11Z</time>
  </trkpt>
  <trkpt lat="35.322026" lon="-6.016733">
   <ele>131.00</ele>
   <time>2014-04-09T15:04:12Z</time>
  </trkpt>
  <trkpt lat="35.322577" lon="-6.016422">
   <ele>128.00</ele>
   <time>2014-04-09T15:04:15Z</time>
  </trkpt>
  <trkpt lat="35.322771" lon="-6.016335">
   <ele>128.00</ele>
   <time>2014-04-09T15:04:16Z</time>
  </trkpt>
  <trkpt lat="35.322970" lon="-6.016259">
   <ele>127.00</ele>
   <time>2014-04-09T15:04:17Z</time>
  </trkpt>
  <trkpt lat="35.324385" lon="-6.015767">
   <ele>122.00</ele>
   <time>2014-04-09T15:04:24Z</time>
  </trkpt>
  <trkpt lat="35.324565" lon="-6.015676">
   <ele>121.00</ele>
   <time>2014-04-09T15:04:25Z</time>
  </trkpt>
  <trkpt lat="35.324732" lon="-6.015576">
   <ele>121.00</ele>
   <time>2014-04-09T15:04:26Z</time>
  </trkpt>
  <trkpt lat="35.325039" lon="-6.015362">
   <ele>120.00</ele>
   <time>2014-04-09T15:04:28Z</time>
  </trkpt>
  <trkpt lat="35.325332" lon="-6.015162">
   <ele>120.00</ele>
   <time>2014-04-09T15:04:30Z</time>
  </trkpt>
  <trkpt lat="35.325617" lon="-6.015003">
   <ele>120.00</ele>
   <time>2014-04-09T15:04:32Z</time>
  </trkpt>
  <trkpt lat="35.325902" lon="-6.014886">
   <ele>119.00</ele>
   <time>2014-04-09T15:04:34Z</time>
  </trkpt>
  <trkpt lat="35.326186" lon="-6.014791">
   <ele>118.00</ele>
   <time>2014-04-09T15:04:36Z</time>
  </trkpt>
  <trkpt lat="35.327899" lon="-6.014288">
   <ele>114.00</ele>
   <time>2014-04-09T15:04:51Z</time>
  </trkpt>
  <trkpt lat="35.329401" lon="-6.013765">
   <ele>107.00</ele>
   <time>2014-04-09T15:05:05Z</time>
  </trkpt>
  <trkpt lat="35.329644" lon="-6.013665">
   <ele>106.00</ele>
   <time>2014-04-09T15:05:07Z</time>
  </trkpt>
  <trkpt lat="35.329883" lon="-6.013550">
   <ele>105.00</ele>
   <time>2014-04-09T15:05:09Z</time>
  </trkpt>
  <trkpt lat="35.330109" lon="-6.013417">
   <ele>104.00</ele>
   <time>2014-04-09T15:05:11Z</time>
  </trkpt>
  <trkpt lat="35.330310" lon="-6.013269">
   <ele>103.00</ele>
   <time>2014-04-09T15:05:13Z</time>
  </trkpt>
  <trkpt lat="35.330488" lon="-6.013113">
   <ele>102.00</ele>
   <time>2014-04-09T15:05:15Z</time>
  </trkpt>
  <trkpt lat="35.330652" lon="-6.012945">
   <ele>101.00</ele>
   <time>2014-04-09T15:05:17Z</time>
  </trkpt>
  <trkpt lat="35.330878" lon="-6.012686">
   <ele>101.00</ele>
   <time>2014-04-09T15:05:20Z</time>
  </trkpt>
  <trkpt lat="35.331010" lon="-6.012516">
   <ele>100.00</ele>
   <time>2014-04-09T15:05:22Z</time>
  </trkpt>
  <trkpt lat="35.331163" lon="-6.012257">
   <ele>100.00</ele>
   <time>2014-04-09T15:05:25Z</time>
  </trkpt>
  <trkpt lat="35.331291" lon="-6.011993">
   <ele>100.00</ele>
   <time>2014-04-09T15:05:28Z</time>
  </trkpt>
  <trkpt lat="35.331393" lon="-6.011745">
   <ele>100.00</ele>
   <time>2014-04-09T15:05:31Z</time>
  </trkpt>
  <trkpt lat="35.331474" lon="-6.011510">
   <ele>100.00</ele>
   <time>2014-04-09T15:05:34Z</time>
  </trkpt>
  <trkpt lat="35.331542" lon="-6.011268">
   <ele>100.00</ele>
   <time>2014-04-09T15:05:37Z</time>
  </trkpt>
  <trkpt lat="35.331587" lon="-6.011009">
   <ele>100.00</ele>
   <time>2014-04-09T15:05:41Z</time>
  </trkpt>
  <trkpt lat="35.331610" lon="-6.010767">
   <ele>101.00</ele>
   <time>2014-04-09T15:05:49Z</time>
  </trkpt>
  <trkpt lat="35.331586" lon="-6.010550">
   <ele>101.00</ele>
   <time>2014-04-09T15:06:04Z</time>
  </trkpt>
  <trkpt lat="35.331483" lon="-6.010302">
   <ele>102.00</ele>
   <time>2014-04-09T15:06:09Z</time>
  </trkpt>
  <trkpt lat="35.331489" lon="-6.010063">
   <ele>102.00</ele>
   <time>2014-04-09T15:06:13Z</time>
  </trkpt>
  <trkpt lat="35.331647" lon="-6.009891">
   <ele>102.00</ele>
   <time>2014-04-09T15:06:17Z</time>
  </trkpt>
  <trkpt lat="35.331844" lon="-6.009867">
   <ele>101.00</ele>
   <time>2014-04-09T15:06:21Z</time>
  </trkpt>
  <trkpt lat="35.332008" lon="-6.010007">
   <ele>101.00</ele>
   <time>2014-04-09T15:06:26Z</time>
  </trkpt>
  <trkpt lat="35.332185" lon="-6.010162">
   <ele>100.00</ele>
   <time>2014-04-09T15:06:30Z</time>
  </trkpt>
  <trkpt lat="35.332422" lon="-6.010233">
   <ele>100.00</ele>
   <time>2014-04-09T15:06:33Z</time>
  </trkpt>
  <trkpt lat="35.332609" lon="-6.010259">
   <ele>100.00</ele>
   <time>2014-04-09T15:06:35Z</time>
  </trkpt>
  <trkpt lat="35.333880" lon="-6.010386">
   <ele>99.00</ele>
   <time>2014-04-09T15:06:45Z</time>
  </trkpt>
  <trkpt lat="35.334173" lon="-6.010450">
   <ele>98.00</ele>
   <time>2014-04-09T15:06:47Z</time>
  </trkpt>
  <trkpt lat="35.334478" lon="-6.010545">
   <ele>98.00</ele>
   <time>2014-04-09T15:06:49Z</time>
  </trkpt>
  <trkpt lat="35.334779" lon="-6.010678">
   <ele>97.00</ele>
   <time>2014-04-09T15:06:51Z</time>
  </trkpt>
  <trkpt lat="35.335067" lon="-6.010839">
   <ele>97.00</ele>
   <time>2014-04-09T15:06:53Z</time>
  </trkpt>
  <trkpt lat="35.335341" lon="-6.011018">
   <ele>97.00</ele>
   <time>2014-04-09T15:06:55Z</time>
  </trkpt>
  <trkpt lat="35.336655" lon="-6.011962">
   <ele>99.00</ele>
   <time>2014-04-09T15:07:05Z</time>
  </trkpt>
  <trkpt lat="35.336924" lon="-6.012120">
   <ele>99.00</ele>
   <time>2014-04-09T15:07:07Z</time>
  </trkpt>
  <trkpt lat="35.337200" lon="-6.012258">
   <ele>100.00</ele>
   <time>2014-04-09T15:07:09Z</time>
  </trkpt>
  <trkpt lat="35.337487" lon="-6.012372">
   <ele>99.00</ele>
   <time>2014-04-09T15:07:11Z</time>
  </trkpt>
  <trkpt lat="35.337778" lon="-6.012465">
   <ele>99.00</ele>
   <time>2014-04-09T15:07:13Z</time>
  </trkpt>
  <trkpt lat="35.338071" lon="-6.012535">
   <ele>99.00</ele>
   <time>2014-04-09T15:07:15Z</time>
  </trkpt>
  <trkpt lat="35.338363" lon="-6.012584">
   <ele>99.00</ele>
   <time>2014-04-09T15:07:17Z</time>
  </trkpt>
  <trkpt lat="35.338661" lon="-6.012617">
   <ele>99.00</ele>
   <time>2014-04-09T15:07:19Z</time>
  </trkpt>
  <trkpt lat="35.338966" lon="-6.012619">
   <ele>98.00</ele>
   <time>2014-04-09T15:07:21Z</time>
  </trkpt>
  <trkpt lat="35.339278" lon="-6.012599">
   <ele>98.00</ele>
   <time>2014-04-09T15:07:23Z</time>
  </trkpt>
  <trkpt lat="35.341667" lon="-6.012328">
   <ele>92.00</ele>
   <time>2014-04-09T15:07:39Z</time>
  </trkpt>
  <trkpt lat="35.344868" lon="-6.012006">
   <ele>84.00</ele>
   <time>2014-04-09T15:07:55Z</time>
  </trkpt>
  <trkpt lat="35.346361" lon="-6.011874">
   <ele>83.00</ele>
   <time>2014-04-09T15:08:01Z</time>
  </trkpt>
  <trkpt lat="35.349738" lon="-6.011473">
   <ele>88.00</ele>
   <time>2014-04-09T15:08:16Z</time>
  </trkpt>
  <trkpt lat="35.353122" lon="-6.011123">
   <ele>94.00</ele>
   <time>2014-04-09T15:08:32Z</time>
  </trkpt>
  <trkpt lat="35.354203" lon="-6.011031">
   <ele>95.00</ele>
   <time>2014-04-09T15:08:37Z</time>
  </trkpt>
  <trkpt lat="35.354420" lon="-6.011030">
   <ele>95.00</ele>
   <time>2014-04-09T15:08:38Z</time>
  </trkpt>
  <trkpt lat="35.354854" lon="-6.011050">
   <ele>95.00</ele>
   <time>2014-04-09T15:08:40Z</time>
  </trkpt>
  <trkpt lat="35.355500" lon="-6.011113">
   <ele>96.00</ele>
   <time>2014-04-09T15:08:43Z</time>
  </trkpt>
  <trkpt lat="35.355921" lon="-6.011185">
   <ele>96.00</ele>
   <time>2014-04-09T15:08:45Z</time>
  </trkpt>
  <trkpt lat="35.356332" lon="-6.011284">
   <ele>96.00</ele>
   <time>2014-04-09T15:08:47Z</time>
  </trkpt>
  <trkpt lat="35.356733" lon="-6.011406">
   <ele>97.00</ele>
   <time>2014-04-09T15:08:49Z</time>
  </trkpt>
  <trkpt lat="35.357333" lon="-6.011627">
   <ele>97.00</ele>
   <time>2014-04-09T15:08:52Z</time>
  </trkpt>
  <trkpt lat="35.357730" lon="-6.011807">
   <ele>97.00</ele>
   <time>2014-04-09T15:08:54Z</time>
  </trkpt>
  <trkpt lat="35.358120" lon="-6.012008">
   <ele>97.00</ele>
   <time>2014-04-09T15:08:56Z</time>
  </trkpt>
  <trkpt lat="35.358500" lon="-6.012235">
   <ele>97.00</ele>
   <time>2014-04-09T15:08:58Z</time>
  </trkpt>
  <trkpt lat="35.359240" lon="-6.012747">
   <ele>98.00</ele>
   <time>2014-04-09T15:09:02Z</time>
  </trkpt>
  <trkpt lat="35.362070" lon="-6.014756">
   <ele>100.00</ele>
   <time>2014-04-09T15:09:17Z</time>
  </trkpt>
  <trkpt lat="35.362847" lon="-6.015293">
   <ele>101.00</ele>
   <time>2014-04-09T15:09:21Z</time>
  </trkpt>
  <trkpt lat="35.363247" lon="-6.015529">
   <ele>101.00</ele>
   <time>2014-04-09T15:09:23Z</time>
  </trkpt>
  <trkpt lat="35.363646" lon="-6.015733">
   <ele>101.00</ele>
   <time>2014-04-09T15:09:25Z</time>
  </trkpt>
  <trkpt lat="35.364045" lon="-6.015905">
   <ele>101.00</ele>
   <time>2014-04-09T15:09:27Z</time>
  </trkpt>
  <trkpt lat="35.364447" lon="-6.016047">
   <ele>101.00</ele>
   <time>2014-04-09T15:09:29Z</time>
  </trkpt>
  <trkpt lat="35.364649" lon="-6.016101">
   <ele>101.00</ele>
   <time>2014-04-09T15:09:30Z</time>
  </trkpt>
  <trkpt lat="35.364850" lon="-6.016144">
   <ele>101.00</ele>
   <time>2014-04-09T15:09:31Z</time>
  </trkpt>
  <trkpt lat="35.365245" lon="-6.016205">
   <ele>101.00</ele>
   <time>2014-04-09T15:09:33Z</time>
  </trkpt>
  <trkpt lat="35.365625" lon="-6.016240">
   <ele>101.00</ele>
   <time>2014-04-09T15:09:35Z</time>
  </trkpt>
  <trkpt lat="35.365989" lon="-6.016252">
   <ele>102.00</ele>
   <time>2014-04-09T15:09:37Z</time>
  </trkpt>
  <trkpt lat="35.366343" lon="-6.016242">
   <ele>102.00</ele>
   <time>2014-04-09T15:09:39Z</time>
  </trkpt>
  <trkpt lat="35.366694" lon="-6.016212">
   <ele>102.00</ele>
   <time>2014-04-09T15:09:41Z</time>
  </trkpt>
  <trkpt lat="35.367045" lon="-6.016161">
   <ele>103.00</ele>
   <time>2014-04-09T15:09:43Z</time>
  </trkpt>
  <trkpt lat="35.367400" lon="-6.016084">
   <ele>103.00</ele>
   <time>2014-04-09T15:09:45Z</time>
  </trkpt>
  <trkpt lat="35.367576" lon="-6.016032">
   <ele>103.00</ele>
   <time>2014-04-09T15:09:46Z</time>
  </trkpt>
  <trkpt lat="35.367927" lon="-6.015904">
   <ele>104.00</ele>
   <time>2014-04-09T15:09:48Z</time>
  </trkpt>
  <trkpt lat="35.368279" lon="-6.015754">
   <ele>104.00</ele>
   <time>2014-04-09T15:09:50Z</time>
  </trkpt>
  <trkpt lat="35.369323" lon="-6.015257">
   <ele>104.00</ele>
   <time>2014-04-09T15:09:56Z</time>
  </trkpt>
  <trkpt lat="35.370028" lon="-6.014920">
   <ele>104.00</ele>
   <time>2014-04-09T15:10:00Z</time>
  </trkpt>
  <trkpt lat="35.370559" lon="-6.014707">
   <ele>104.00</ele>
   <time>2014-04-09T15:10:03Z</time>
  </trkpt>
  <trkpt lat="35.370912" lon="-6.014590">
   <ele>103.00</ele>
   <time>2014-04-09T15:10:05Z</time>
  </trkpt>
  <trkpt lat="35.371267" lon="-6.014500">
   <ele>102.00</ele>
   <time>2014-04-09T15:10:07Z</time>
  </trkpt>
  <trkpt lat="35.371816" lon="-6.014395">
   <ele>101.00</ele>
   <time>2014-04-09T15:10:10Z</time>
  </trkpt>
  <trkpt lat="35.372194" lon="-6.014344">
   <ele>100.00</ele>
   <time>2014-04-09T15:10:12Z</time>
  </trkpt>
  <trkpt lat="35.372582" lon="-6.014311">
   <ele>99.00</ele>
   <time>2014-04-09T15:10:14Z</time>
  </trkpt>
  <trkpt lat="35.372972" lon="-6.014300">
   <ele>97.00</ele>
   <time>2014-04-09T15:10:16Z</time>
  </trkpt>
  <trkpt lat="35.373166" lon="-6.014302">
   <ele>97.00</ele>
   <time>2014-04-09T15:10:17Z</time>
  </trkpt>
  <trkpt lat="35.373551" lon="-6.014321">
   <ele>96.00</ele>
   <time>2014-04-09T15:10:19Z</time>
  </trkpt>
  <trkpt lat="35.373928" lon="-6.014362">
   <ele>96.00</ele>
   <time>2014-04-09T15:10:21Z</time>
  </trkpt>
  <trkpt lat="35.374470" lon="-6.014449">
   <ele>96.00</ele>
   <time>2014-04-09T15:10:24Z</time>
  </trkpt>
  <trkpt lat="35.374810" lon="-6.014530">
   <ele>96.00</ele>
   <time>2014-04-09T15:10:26Z</time>
  </trkpt>
  <trkpt lat="35.375314" lon="-6.014679">
   <ele>97.00</ele>
   <time>2014-04-09T15:10:29Z</time>
  </trkpt>
  <trkpt lat="35.375822" lon="-6.014856">
   <ele>97.00</ele>
   <time>2014-04-09T15:10:32Z</time>
  </trkpt>
  <trkpt lat="35.376159" lon="-6.015001">
   <ele>97.00</ele>
   <time>2014-04-09T15:10:34Z</time>
  </trkpt>
  <trkpt lat="35.376496" lon="-6.015169">
   <ele>96.00</ele>
   <time>2014-04-09T15:10:36Z</time>
  </trkpt>
  <trkpt lat="35.376829" lon="-6.015358">
   <ele>96.00</ele>
   <time>2014-04-09T15:10:38Z</time>
  </trkpt>
  <trkpt lat="35.377153" lon="-6.015565">
   <ele>95.00</ele>
   <time>2014-04-09T15:10:40Z</time>
  </trkpt>
  <trkpt lat="35.377767" lon="-6.015992">
   <ele>93.00</ele>
   <time>2014-04-09T15:10:44Z</time>
  </trkpt>
  <trkpt lat="35.378168" lon="-6.016319">
   <ele>92.00</ele>
   <time>2014-04-09T15:10:47Z</time>
  </trkpt>
  <trkpt lat="35.378415" lon="-6.016548">
   <ele>91.00</ele>
   <time>2014-04-09T15:10:49Z</time>
  </trkpt>
  <trkpt lat="35.378909" lon="-6.017022">
   <ele>88.00</ele>
   <time>2014-04-09T15:10:53Z</time>
  </trkpt>
  <trkpt lat="35.379150" lon="-6.017295">
   <ele>87.00</ele>
   <time>2014-04-09T15:10:55Z</time>
  </trkpt>
  <trkpt lat="35.380513" lon="-6.018866">
   <ele>86.00</ele>
   <time>2014-04-09T15:11:06Z</time>
  </trkpt>
  <trkpt lat="35.381058" lon="-6.019424">
   <ele>84.00</ele>
   <time>2014-04-09T15:11:10Z</time>
  </trkpt>
  <trkpt lat="35.381482" lon="-6.019817">
   <ele>82.00</ele>
   <time>2014-04-09T15:11:13Z</time>
  </trkpt>
  <trkpt lat="35.381771" lon="-6.020056">
   <ele>81.00</ele>
   <time>2014-04-09T15:11:15Z</time>
  </trkpt>
  <trkpt lat="35.382496" lon="-6.020607">
   <ele>77.00</ele>
   <time>2014-04-09T15:11:20Z</time>
  </trkpt>
  <trkpt lat="35.382791" lon="-6.020806">
   <ele>75.00</ele>
   <time>2014-04-09T15:11:22Z</time>
  </trkpt>
  <trkpt lat="35.383245" lon="-6.021082">
   <ele>73.00</ele>
   <time>2014-04-09T15:11:25Z</time>
  </trkpt>
  <trkpt lat="35.383709" lon="-6.021336">
   <ele>70.00</ele>
   <time>2014-04-09T15:11:28Z</time>
  </trkpt>
  <trkpt lat="35.384184" lon="-6.021571">
   <ele>68.00</ele>
   <time>2014-04-09T15:11:31Z</time>
  </trkpt>
  <trkpt lat="35.384663" lon="-6.021774">
   <ele>65.00</ele>
   <time>2014-04-09T15:11:34Z</time>
  </trkpt>
  <trkpt lat="35.385149" lon="-6.021946">
   <ele>62.00</ele>
   <time>2014-04-09T15:11:37Z</time>
  </trkpt>
  <trkpt lat="35.385813" lon="-6.022140">
   <ele>60.00</ele>
   <time>2014-04-09T15:11:41Z</time>
  </trkpt>
  <trkpt lat="35.386482" lon="-6.022288">
   <ele>59.00</ele>
   <time>2014-04-09T15:11:45Z</time>
  </trkpt>
  <trkpt lat="35.386826" lon="-6.022342">
   <ele>59.00</ele>
   <time>2014-04-09T15:11:47Z</time>
  </trkpt>
  <trkpt lat="35.387350" lon="-6.022403">
   <ele>58.00</ele>
   <time>2014-04-09T15:11:50Z</time>
  </trkpt>
  <trkpt lat="35.387876" lon="-6.022432">
   <ele>58.00</ele>
   <time>2014-04-09T15:11:53Z</time>
  </trkpt>
  <trkpt lat="35.388569" lon="-6.022438">
   <ele>58.00</ele>
   <time>2014-04-09T15:11:57Z</time>
  </trkpt>
  <trkpt lat="35.389089" lon="-6.022402">
   <ele>58.00</ele>
   <time>2014-04-09T15:12:00Z</time>
  </trkpt>
  <trkpt lat="35.389595" lon="-6.022346">
   <ele>58.00</ele>
   <time>2014-04-09T15:12:03Z</time>
  </trkpt>
  <trkpt lat="35.390093" lon="-6.022264">
   <ele>57.00</ele>
   <time>2014-04-09T15:12:06Z</time>
  </trkpt>
  <trkpt lat="35.390427" lon="-6.022191">
   <ele>57.00</ele>
   <time>2014-04-09T15:12:08Z</time>
  </trkpt>
  <trkpt lat="35.391083" lon="-6.022016">
   <ele>57.00</ele>
   <time>2014-04-09T15:12:12Z</time>
  </trkpt>
  <trkpt lat="35.391397" lon="-6.021914">
   <ele>56.00</ele>
   <time>2014-04-09T15:12:14Z</time>
  </trkpt>
  <trkpt lat="35.391868" lon="-6.021735">
   <ele>56.00</ele>
   <time>2014-04-09T15:12:17Z</time>
  </trkpt>
  <trkpt lat="35.394526" lon="-6.020585">
   <ele>53.00</ele>
   <time>2014-04-09T15:12:33Z</time>
  </trkpt>
  <trkpt lat="35.397133" lon="-6.019463">
   <ele>53.00</ele>
   <time>2014-04-09T15:12:49Z</time>
  </trkpt>
  <trkpt lat="35.397457" lon="-6.019352">
   <ele>54.00</ele>
   <time>2014-04-09T15:12:51Z</time>
  </trkpt>
  <trkpt lat="35.397769" lon="-6.019258">
   <ele>55.00</ele>
   <time>2014-04-09T15:12:53Z</time>
  </trkpt>
  <trkpt lat="35.398482" lon="-6.019074">
   <ele>56.00</ele>
   <time>2014-04-09T15:12:58Z</time>
  </trkpt>
  <trkpt lat="35.398766" lon="-6.019019">
   <ele>56.00</ele>
   <time>2014-04-09T15:13:00Z</time>
  </trkpt>
  <trkpt lat="35.399533" lon="-6.018891">
   <ele>56.00</ele>
   <time>2014-04-09T15:13:05Z</time>
  </trkpt>
  <trkpt lat="35.400289" lon="-6.018822">
   <ele>57.00</ele>
   <time>2014-04-09T15:13:10Z</time>
  </trkpt>
  <trkpt lat="35.400843" lon="-6.018800">
   <ele>57.00</ele>
   <time>2014-04-09T15:13:17Z</time>
  </trkpt>
  <trkpt lat="35.401108" lon="-6.018803">
   <ele>57.00</ele>
   <time>2014-04-09T15:13:20Z</time>
  </trkpt>
  <trkpt lat="35.401687" lon="-6.018822">
   <ele>56.00</ele>
   <time>2014-04-09T15:13:25Z</time>
  </trkpt>
  <trkpt lat="35.402302" lon="-6.018890">
   <ele>55.00</ele>
   <time>2014-04-09T15:13:30Z</time>
  </trkpt>
  <trkpt lat="35.402989" lon="-6.018999">
   <ele>54.00</ele>
   <time>2014-04-09T15:13:35Z</time>
  </trkpt>
  <trkpt lat="35.403558" lon="-6.019120">
   <ele>53.00</ele>
   <time>2014-04-09T15:13:39Z</time>
  </trkpt>
  <trkpt lat="35.405966" lon="-6.019779">
   <ele>45.00</ele>
   <time>2014-04-09T15:13:54Z</time>
  </trkpt>
  <trkpt lat="35.408548" lon="-6.020468">
   <ele>45.00</ele>
   <time>2014-04-09T15:14:10Z</time>
  </trkpt>
  <trkpt lat="35.411137" lon="-6.021163">
   <ele>46.00</ele>
   <time>2014-04-09T15:14:26Z</time>
  </trkpt>
  <trkpt lat="35.413324" lon="-6.021758">
   <ele>46.00</ele>
   <time>2014-04-09T15:14:41Z</time>
  </trkpt>
  <trkpt lat="35.415572" lon="-6.022351">
   <ele>47.00</ele>
   <time>2014-04-09T15:14:57Z</time>
  </trkpt>
  <trkpt lat="35.417537" lon="-6.022878">
   <ele>43.00</ele>
   <time>2014-04-09T15:15:09Z</time>
  </trkpt>
  <trkpt lat="35.417870" lon="-6.022998">
   <ele>42.00</ele>
   <time>2014-04-09T15:15:11Z</time>
  </trkpt>
  <trkpt lat="35.418198" lon="-6.023148">
   <ele>41.00</ele>
   <time>2014-04-09T15:15:13Z</time>
  </trkpt>
  <trkpt lat="35.418519" lon="-6.023335">
   <ele>40.00</ele>
   <time>2014-04-09T15:15:15Z</time>
  </trkpt>
  <trkpt lat="35.418833" lon="-6.023552">
   <ele>38.00</ele>
   <time>2014-04-09T15:15:17Z</time>
  </trkpt>
  <trkpt lat="35.418986" lon="-6.023672">
   <ele>38.00</ele>
   <time>2014-04-09T15:15:18Z</time>
  </trkpt>
  <trkpt lat="35.419135" lon="-6.023799">
   <ele>37.00</ele>
   <time>2014-04-09T15:15:19Z</time>
  </trkpt>
  <trkpt lat="35.419279" lon="-6.023935">
   <ele>36.00</ele>
   <time>2014-04-09T15:15:20Z</time>
  </trkpt>
  <trkpt lat="35.419417" lon="-6.024078">
   <ele>35.00</ele>
   <time>2014-04-09T15:15:21Z</time>
  </trkpt>
  <trkpt lat="35.419550" lon="-6.024230">
   <ele>35.00</ele>
   <time>2014-04-09T15:15:22Z</time>
  </trkpt>
  <trkpt lat="35.419681" lon="-6.024393">
   <ele>34.00</ele>
   <time>2014-04-09T15:15:23Z</time>
  </trkpt>
  <trkpt lat="35.419806" lon="-6.024564">
   <ele>34.00</ele>
   <time>2014-04-09T15:15:24Z</time>
  </trkpt>
  <trkpt lat="35.420286" lon="-6.025262">
   <ele>32.00</ele>
   <time>2014-04-09T15:15:28Z</time>
  </trkpt>
  <trkpt lat="35.422160" lon="-6.028199">
   <ele>37.00</ele>
   <time>2014-04-09T15:15:44Z</time>
  </trkpt>
  <trkpt lat="35.422511" lon="-6.028775">
   <ele>38.00</ele>
   <time>2014-04-09T15:15:47Z</time>
  </trkpt>
  <trkpt lat="35.422736" lon="-6.029178">
   <ele>38.00</ele>
   <time>2014-04-09T15:15:49Z</time>
  </trkpt>
  <trkpt lat="35.423359" lon="-6.030418">
   <ele>41.00</ele>
   <time>2014-04-09T15:15:55Z</time>
  </trkpt>
  <trkpt lat="35.424677" lon="-6.033063">
   <ele>53.00</ele>
   <time>2014-04-09T15:16:08Z</time>
  </trkpt>
  <trkpt lat="35.424791" lon="-6.033255">
   <ele>54.00</ele>
   <time>2014-04-09T15:16:09Z</time>
  </trkpt>
  <trkpt lat="35.424912" lon="-6.033440">
   <ele>55.00</ele>
   <time>2014-04-09T15:16:10Z</time>
  </trkpt>
  <trkpt lat="35.425041" lon="-6.033618">
   <ele>56.00</ele>
   <time>2014-04-09T15:16:11Z</time>
  </trkpt>
  <trkpt lat="35.425175" lon="-6.033787">
   <ele>57.00</ele>
   <time>2014-04-09T15:16:12Z</time>
  </trkpt>
  <trkpt lat="35.425315" lon="-6.033949">
   <ele>58.00</ele>
   <time>2014-04-09T15:16:13Z</time>
  </trkpt>
  <trkpt lat="35.425606" lon="-6.034250">
   <ele>60.00</ele>
   <time>2014-04-09T15:16:15Z</time>
  </trkpt>
  <trkpt lat="35.425760" lon="-6.034387">
   <ele>61.00</ele>
   <time>2014-04-09T15:16:16Z</time>
  </trkpt>
  <trkpt lat="35.425918" lon="-6.034516">
   <ele>62.00</ele>
   <time>2014-04-09T15:16:17Z</time>
  </trkpt>
  <trkpt lat="35.426082" lon="-6.034636">
   <ele>63.00</ele>
   <time>2014-04-09T15:16:18Z</time>
  </trkpt>
  <trkpt lat="35.426251" lon="-6.034747">
   <ele>64.00</ele>
   <time>2014-04-09T15:16:19Z</time>
  </trkpt>
  <trkpt lat="35.426600" lon="-6.034944">
   <ele>67.00</ele>
   <time>2014-04-09T15:16:21Z</time>
  </trkpt>
  <trkpt lat="35.426780" lon="-6.035031">
   <ele>68.00</ele>
   <time>2014-04-09T15:16:22Z</time>
  </trkpt>
  <trkpt lat="35.426964" lon="-6.035107">
   <ele>69.00</ele>
   <time>2014-04-09T15:16:23Z</time>
  </trkpt>
  <trkpt lat="35.427150" lon="-6.035174">
   <ele>70.00</ele>
   <time>2014-04-09T15:16:24Z</time>
  </trkpt>
  <trkpt lat="35.427528" lon="-6.035287">
   <ele>72.00</ele>
   <time>2014-04-09T15:16:26Z</time>
  </trkpt>
  <trkpt lat="35.429582" lon="-6.035898">
   <ele>81.00</ele>
   <time>2014-04-09T15:16:38Z</time>
  </trkpt>
  <trkpt lat="35.430061" lon="-6.036076">
   <ele>83.00</ele>
   <time>2014-04-09T15:16:41Z</time>
  </trkpt>
  <trkpt lat="35.430997" lon="-6.036474">
   <ele>84.00</ele>
   <time>2014-04-09T15:16:47Z</time>
  </trkpt>
  <trkpt lat="35.433585" lon="-6.037658">
   <ele>84.00</ele>
   <time>2014-04-09T15:17:03Z</time>
  </trkpt>
  <trkpt lat="35.435594" lon="-6.038586">
   <ele>82.00</ele>
   <time>2014-04-09T15:17:19Z</time>
  </trkpt>
  <trkpt lat="35.437312" lon="-6.039389">
   <ele>77.00</ele>
   <time>2014-04-09T15:17:34Z</time>
  </trkpt>
  <trkpt lat="35.437633" lon="-6.039529">
   <ele>76.00</ele>
   <time>2014-04-09T15:17:37Z</time>
  </trkpt>
  <trkpt lat="35.437970" lon="-6.039658">
   <ele>75.00</ele>
   <time>2014-04-09T15:17:40Z</time>
  </trkpt>
  <trkpt lat="35.438319" lon="-6.039776">
   <ele>75.00</ele>
   <time>2014-04-09T15:17:43Z</time>
  </trkpt>
  <trkpt lat="35.438785" lon="-6.039910">
   <ele>74.00</ele>
   <time>2014-04-09T15:17:47Z</time>
  </trkpt>
  <trkpt lat="35.439272" lon="-6.040010">
   <ele>73.00</ele>
   <time>2014-04-09T15:17:51Z</time>
  </trkpt>
  <trkpt lat="35.439536" lon="-6.040044">
   <ele>73.00</ele>
   <time>2014-04-09T15:17:53Z</time>
  </trkpt>
  <trkpt lat="35.439822" lon="-6.040067">
   <ele>73.00</ele>
   <time>2014-04-09T15:17:55Z</time>
  </trkpt>
  <trkpt lat="35.440127" lon="-6.040075">
   <ele>73.00</ele>
   <time>2014-04-09T15:17:57Z</time>
  </trkpt>
  <trkpt lat="35.440447" lon="-6.040062">
   <ele>73.00</ele>
   <time>2014-04-09T15:17:59Z</time>
  </trkpt>
  <trkpt lat="35.440942" lon="-6.040015">
   <ele>73.00</ele>
   <time>2014-04-09T15:18:02Z</time>
  </trkpt>
  <trkpt lat="35.441268" lon="-6.039966">
   <ele>73.00</ele>
   <time>2014-04-09T15:18:04Z</time>
  </trkpt>
  <trkpt lat="35.441580" lon="-6.039891">
   <ele>72.00</ele>
   <time>2014-04-09T15:18:06Z</time>
  </trkpt>
  <trkpt lat="35.441884" lon="-6.039799">
   <ele>72.00</ele>
   <time>2014-04-09T15:18:08Z</time>
  </trkpt>
  <trkpt lat="35.442334" lon="-6.039642">
   <ele>71.00</ele>
   <time>2014-04-09T15:18:11Z</time>
  </trkpt>
  <trkpt lat="35.442639" lon="-6.039514">
   <ele>71.00</ele>
   <time>2014-04-09T15:18:13Z</time>
  </trkpt>
  <trkpt lat="35.442945" lon="-6.039361">
   <ele>70.00</ele>
   <time>2014-04-09T15:18:15Z</time>
  </trkpt>
  <trkpt lat="35.443252" lon="-6.039187">
   <ele>70.00</ele>
   <time>2014-04-09T15:18:17Z</time>
  </trkpt>
  <trkpt lat="35.444346" lon="-6.038498">
   <ele>68.00</ele>
   <time>2014-04-09T15:18:24Z</time>
  </trkpt>
  <trkpt lat="35.446626" lon="-6.037023">
   <ele>62.00</ele>
   <time>2014-04-09T15:18:40Z</time>
  </trkpt>
  <trkpt lat="35.448249" lon="-6.035980">
   <ele>59.00</ele>
   <time>2014-04-09T15:18:55Z</time>
  </trkpt>
  <trkpt lat="35.449439" lon="-6.035213">
   <ele>56.00</ele>
   <time>2014-04-09T15:19:08Z</time>
  </trkpt>
  <trkpt lat="35.449598" lon="-6.035092">
   <ele>56.00</ele>
   <time>2014-04-09T15:19:10Z</time>
  </trkpt>
  <trkpt lat="35.449778" lon="-6.034917">
   <ele>55.00</ele>
   <time>2014-04-09T15:19:13Z</time>
  </trkpt>
  <trkpt lat="35.449910" lon="-6.034705">
   <ele>55.00</ele>
   <time>2014-04-09T15:19:17Z</time>
  </trkpt>
  <trkpt lat="35.450038" lon="-6.034502">
   <ele>55.00</ele>
   <time>2014-04-09T15:19:21Z</time>
  </trkpt>
  <trkpt lat="35.450217" lon="-6.034528">
   <ele>55.00</ele>
   <time>2014-04-09T15:19:24Z</time>
  </trkpt>
  <trkpt lat="35.450439" lon="-6.034603">
   <ele>55.00</ele>
   <time>2014-04-09T15:19:27Z</time>
  </trkpt>
  <trkpt lat="35.450627" lon="-6.034597">
   <ele>54.00</ele>
   <time>2014-04-09T15:19:29Z</time>
  </trkpt>
  <trkpt lat="35.450855" lon="-6.034552">
   <ele>54.00</ele>
   <time>2014-04-09T15:19:31Z</time>
  </trkpt>
  <trkpt lat="35.451091" lon="-6.034486">
   <ele>53.00</ele>
   <time>2014-04-09T15:19:33Z</time>
  </trkpt>
  <trkpt lat="35.452974" lon="-6.033853">
   <ele>50.00</ele>
   <time>2014-04-09T15:19:49Z</time>
  </trkpt>
  <trkpt lat="35.454821" lon="-6.033236">
   <ele>47.00</ele>
   <time>2014-04-09T15:20:05Z</time>
  </trkpt>
  <trkpt lat="35.456531" lon="-6.032673">
   <ele>46.00</ele>
   <time>2014-04-09T15:20:20Z</time>
  </trkpt>
  <trkpt lat="35.457371" lon="-6.032397">
   <ele>46.00</ele>
   <time>2014-04-09T15:20:28Z</time>
  </trkpt>
  <trkpt lat="35.457562" lon="-6.032313">
   <ele>46.00</ele>
   <time>2014-04-09T15:20:32Z</time>
  </trkpt>
  <trkpt lat="35.457664" lon="-6.032262">
   <ele>45.00</ele>
   <time>2014-04-09T15:20:47Z</time>
  </trkpt>
  <trkpt lat="35.457849" lon="-6.032165">
   <ele>44.00</ele>
   <time>2014-04-09T15:20:52Z</time>
  </trkpt>
  <trkpt lat="35.458321" lon="-6.031906">
   <ele>44.00</ele>
   <time>2014-04-09T15:20:58Z</time>
  </trkpt>
  <trkpt lat="35.458757" lon="-6.031652">
   <ele>42.00</ele>
   <time>2014-04-09T15:21:02Z</time>
  </trkpt>
  <trkpt lat="35.459000" lon="-6.031537">
   <ele>41.00</ele>
   <time>2014-04-09T15:21:04Z</time>
  </trkpt>
  <trkpt lat="35.459262" lon="-6.031444">
   <ele>40.00</ele>
   <time>2014-04-09T15:21:06Z</time>
  </trkpt>
  <trkpt lat="35.459535" lon="-6.031374">
   <ele>38.00</ele>
   <time>2014-04-09T15:21:08Z</time>
  </trkpt>
  <trkpt lat="35.459808" lon="-6.031326">
   <ele>37.00</ele>
   <time>2014-04-09T15:21:10Z</time>
  </trkpt>
  <trkpt lat="35.460921" lon="-6.031185">
   <ele>37.00</ele>
   <time>2014-04-09T15:21:19Z</time>
  </trkpt>
  <trkpt lat="35.461161" lon="-6.031123">
   <ele>36.00</ele>
   <time>2014-04-09T15:21:21Z</time>
  </trkpt>
  <trkpt lat="35.462464" lon="-6.030745">
   <ele>31.00</ele>
   <time>2014-04-09T15:21:32Z</time>
  </trkpt>
  <trkpt lat="35.462713" lon="-6.030702">
   <ele>30.00</ele>
   <time>2014-04-09T15:21:34Z</time>
  </trkpt>
  <trkpt lat="35.463074" lon="-6.030660">
   <ele>29.00</ele>
   <time>2014-04-09T15:21:37Z</time>
  </trkpt>
  <trkpt lat="35.463841" lon="-6.030595">
   <ele>23.00</ele>
   <time>2014-04-09T15:21:46Z</time>
  </trkpt>
  <trkpt lat="35.463981" lon="-6.030722">
   <ele>21.00</ele>
   <time>2014-04-09T15:21:52Z</time>
  </trkpt>
  <trkpt lat="35.463881" lon="-6.030852">
   <ele>20.00</ele>
   <time>2014-04-09T15:22:08Z</time>
  </trkpt>
  <trkpt lat="35.463881" lon="-6.030856">
   <ele>19.00</ele>
   <time>2014-04-09T15:22:24Z</time>
  </trkpt>
  <trkpt lat="35.463878" lon="-6.030854">
   <ele>19.00</ele>
   <time>2014-04-09T15:22:39Z</time>
  </trkpt>
  <trkpt lat="35.463874" lon="-6.030853">
   <ele>20.00</ele>
   <time>2014-04-09T15:22:55Z</time>
  </trkpt>
  <trkpt lat="35.463866" lon="-6.030851">
   <ele>20.00</ele>
   <time>2014-04-09T15:23:11Z</time>
  </trkpt>
  <trkpt lat="35.463866" lon="-6.030864">
   <ele>19.00</ele>
   <time>2014-04-09T15:23:26Z</time>
  </trkpt>
  <trkpt lat="35.463863" lon="-6.030863">
   <ele>20.00</ele>
   <time>2014-04-09T15:23:42Z</time>
  </trkpt>
  <trkpt lat="35.463857" lon="-6.030859">
   <ele>20.00</ele>
   <time>2014-04-09T15:23:58Z</time>
  </trkpt>
  <trkpt lat="35.463852" lon="-6.030855">
   <ele>21.00</ele>
   <time>2014-04-09T15:24:13Z</time>
  </trkpt>
  <trkpt lat="35.463853" lon="-6.030854">
   <ele>20.00</ele>
   <time>2014-04-09T15:24:29Z</time>
  </trkpt>
  <trkpt lat="35.463858" lon="-6.030856">
   <ele>20.00</ele>
   <time>2014-04-09T15:24:45Z</time>
  </trkpt>
  <trkpt lat="35.463874" lon="-6.030870">
   <ele>20.00</ele>
   <time>2014-04-09T15:25:00Z</time>
  </trkpt>
  <trkpt lat="35.463823" lon="-6.030886">
   <ele>21.00</ele>
   <time>2014-04-09T15:25:16Z</time>
  </trkpt>
  <trkpt lat="35.463755" lon="-6.030853">
   <ele>23.00</ele>
   <time>2014-04-09T15:25:32Z</time>
  </trkpt>
  <trkpt lat="35.463741" lon="-6.030867">
   <ele>16.00</ele>
   <time>2014-04-09T15:25:48Z</time>
  </trkpt>
  <trkpt lat="35.463762" lon="-6.030830">
   <ele>17.00</ele>
   <time>2014-04-09T15:26:03Z</time>
  </trkpt>
  <trkpt lat="35.463762" lon="-6.030828">
   <ele>19.00</ele>
   <time>2014-04-09T15:26:19Z</time>
  </trkpt>
  <trkpt lat="35.463757" lon="-6.030860">
   <ele>15.00</ele>
   <time>2014-04-09T15:26:35Z</time>
  </trkpt>
  <trkpt lat="35.463777" lon="-6.030862">
   <ele>12.00</ele>
   <time>2014-04-09T15:26:50Z</time>
  </trkpt>
  <trkpt lat="35.463747" lon="-6.030860">
   <ele>13.00</ele>
   <time>2014-04-09T15:27:06Z</time>
  </trkpt>
  <trkpt lat="35.463725" lon="-6.030864">
   <ele>17.00</ele>
   <time>2014-04-09T15:27:21Z</time>
  </trkpt>
  <trkpt lat="35.463717" lon="-6.030860">
   <ele>16.00</ele>
   <time>2014-04-09T15:27:37Z</time>
  </trkpt>
  <trkpt lat="35.463709" lon="-6.030865">
   <ele>17.00</ele>
   <time>2014-04-09T15:27:53Z</time>
  </trkpt>
  <trkpt lat="35.463700" lon="-6.030868">
   <ele>18.00</ele>
   <time>2014-04-09T15:28:08Z</time>
  </trkpt>
  <trkpt lat="35.463710" lon="-6.030862">
   <ele>14.00</ele>
   <time>2014-04-09T15:28:24Z</time>
  </trkpt>
  <trkpt lat="35.463712" lon="-6.030865">
   <ele>13.00</ele>
   <time>2014-04-09T15:28:40Z</time>
  </trkpt>
  <trkpt lat="35.463714" lon="-6.030862">
   <ele>16.00</ele>
   <time>2014-04-09T15:28:55Z</time>
  </trkpt>
  <trkpt lat="35.463712" lon="-6.030863">
   <ele>15.00</ele>
   <time>2014-04-09T15:29:11Z</time>
  </trkpt>
  <trkpt lat="35.463720" lon="-6.030880">
   <ele>17.00</ele>
   <time>2014-04-09T15:29:27Z</time>
  </trkpt>
  <trkpt lat="35.463715" lon="-6.030980">
   <ele>42.00</ele>
   <time>2014-04-09T15:29:42Z</time>
  </trkpt>
  <trkpt lat="35.463652" lon="-6.031104">
   <ele>75.00</ele>
   <time>2014-04-09T15:29:57Z</time>
  </trkpt>
  <trkpt lat="35.463654" lon="-6.031089">
   <ele>72.00</ele>
   <time>2014-04-09T15:30:13Z</time>
  </trkpt>
  <trkpt lat="35.463659" lon="-6.031060">
   <ele>66.00</ele>
   <time>2014-04-09T15:30:29Z</time>
  </trkpt>
  <trkpt lat="35.463657" lon="-6.031039">
   <ele>62.00</ele>
   <time>2014-04-09T15:30:45Z</time>
  </trkpt>
  <trkpt lat="35.463657" lon="-6.031013">
   <ele>56.00</ele>
   <time>2014-04-09T15:31:00Z</time>
  </trkpt>
  <trkpt lat="35.463662" lon="-6.030973">
   <ele>49.00</ele>
   <time>2014-04-09T15:31:16Z</time>
  </trkpt>
  <trkpt lat="35.463651" lon="-6.030952">
   <ele>45.00</ele>
   <time>2014-04-09T15:31:32Z</time>
  </trkpt>
  <trkpt lat="35.463730" lon="-6.030865">
   <ele>36.00</ele>
   <time>2014-04-09T15:31:48Z</time>
  </trkpt>
  <trkpt lat="35.463851" lon="-6.030848">
   <ele>22.00</ele>
   <time>2014-04-09T15:32:03Z</time>
  </trkpt>
  <trkpt lat="35.463884" lon="-6.030901">
   <ele>21.00</ele>
   <time>2014-04-09T15:32:19Z</time>
  </trkpt>
  <trkpt lat="35.463768" lon="-6.030864">
   <ele>13.00</ele>
   <time>2014-04-09T15:32:34Z</time>
  </trkpt>
  <trkpt lat="35.463763" lon="-6.030877">
   <ele>10.00</ele>
   <time>2014-04-09T15:32:50Z</time>
  </trkpt>
  <trkpt lat="35.463701" lon="-6.030697">
   <ele>18.00</ele>
   <time>2014-04-09T15:33:05Z</time>
  </trkpt>
  <trkpt lat="35.463464" lon="-6.030715">
   <ele>19.00</ele>
   <time>2014-04-09T15:33:10Z</time>
  </trkpt>
  <trkpt lat="35.463090" lon="-6.030766">
   <ele>21.00</ele>
   <time>2014-04-09T15:33:15Z</time>
  </trkpt>
  <trkpt lat="35.462832" lon="-6.030808">
   <ele>22.00</ele>
   <time>2014-04-09T15:33:18Z</time>
  </trkpt>
  <trkpt lat="35.462538" lon="-6.030865">
   <ele>24.00</ele>
   <time>2014-04-09T15:33:21Z</time>
  </trkpt>
  <trkpt lat="35.462150" lon="-6.030958">
   <ele>25.00</ele>
   <time>2014-04-09T15:33:25Z</time>
  </trkpt>
  <trkpt lat="35.461818" lon="-6.031040">
   <ele>26.00</ele>
   <time>2014-04-09T15:33:33Z</time>
  </trkpt>
  <trkpt lat="35.461809" lon="-6.031029">
   <ele>27.00</ele>
   <time>2014-04-09T15:33:48Z</time>
  </trkpt>
  <trkpt lat="35.461615" lon="-6.031081">
   <ele>27.00</ele>
   <time>2014-04-09T15:34:03Z</time>
  </trkpt>
  <trkpt lat="35.461608" lon="-6.030980">
   <ele>29.00</ele>
   <time>2014-04-09T15:34:10Z</time>
  </trkpt>
  <trkpt lat="35.461788" lon="-6.030933">
   <ele>29.00</ele>
   <time>2014-04-09T15:34:14Z</time>
  </trkpt>
  <trkpt lat="35.462623" lon="-6.030708">
   <ele>26.00</ele>
   <time>2014-04-09T15:34:23Z</time>
  </trkpt>
  <trkpt lat="35.462877" lon="-6.030665">
   <ele>25.00</ele>
   <time>2014-04-09T15:34:25Z</time>
  </trkpt>
  <trkpt lat="35.463428" lon="-6.030605">
   <ele>22.00</ele>
   <time>2014-04-09T15:34:30Z</time>
  </trkpt>
  <trkpt lat="35.464838" lon="-6.030493">
   <ele>15.00</ele>
   <time>2014-04-09T15:34:44Z</time>
  </trkpt>
  <trkpt lat="35.465049" lon="-6.030494">
   <ele>14.00</ele>
   <time>2014-04-09T15:34:46Z</time>
  </trkpt>
  <trkpt lat="35.465238" lon="-6.030488">
   <ele>13.00</ele>
   <time>2014-04-09T15:34:48Z</time>
  </trkpt>
  <trkpt lat="35.465445" lon="-6.030468">
   <ele>12.00</ele>
   <time>2014-04-09T15:34:52Z</time>
  </trkpt>
  <trkpt lat="35.465449" lon="-6.030461">
   <ele>10.00</ele>
   <time>2014-04-09T15:35:08Z</time>
  </trkpt>
  <trkpt lat="35.465547" lon="-6.030456">
   <ele>11.00</ele>
   <time>2014-04-09T15:35:24Z</time>
  </trkpt>
  <trkpt lat="35.465734" lon="-6.030519">
   <ele>11.00</ele>
   <time>2014-04-09T15:35:32Z</time>
  </trkpt>
  <trkpt lat="35.465853" lon="-6.030719">
   <ele>10.00</ele>
   <time>2014-04-09T15:35:36Z</time>
  </trkpt>
  <trkpt lat="35.466017" lon="-6.030907">
   <ele>10.00</ele>
   <time>2014-04-09T15:35:39Z</time>
  </trkpt>
  <trkpt lat="35.466676" lon="-6.031641">
   <ele>5.00</ele>
   <time>2014-04-09T15:35:50Z</time>
  </trkpt>
  <trkpt lat="35.466815" lon="-6.031808">
   <ele>4.00</ele>
   <time>2014-04-09T15:35:54Z</time>
  </trkpt>
  <trkpt lat="35.466955" lon="-6.031966">
   <ele>4.00</ele>
   <time>2014-04-09T15:36:00Z</time>
  </trkpt>
  <trkpt lat="35.467126" lon="-6.031882">
   <ele>3.00</ele>
   <time>2014-04-09T15:36:06Z</time>
  </trkpt>
  <trkpt lat="35.467354" lon="-6.031662">
   <ele>4.00</ele>
   <time>2014-04-09T15:36:13Z</time>
  </trkpt>
  <trkpt lat="35.467442" lon="-6.031506">
   <ele>10.00</ele>
   <time>2014-04-09T15:36:28Z</time>
  </trkpt>
  <trkpt lat="35.467434" lon="-6.031492">
   <ele>12.00</ele>
   <time>2014-04-09T15:36:33Z</time>
  </trkpt>
 </trkseg>
</trk>
<trk>
 <name>GPS_20140410</name>
 <trkseg>
  <trkpt lat="35.465758" lon="-6.030700">
   <ele>10.00</ele>
   <time>2014-04-10T13:29:19Z</time>
  </trkpt>
  <trkpt lat="35.465770" lon="-6.030708">
   <ele>11.00</ele>
   <time>2014-04-10T13:29:34Z</time>
  </trkpt>
  <trkpt lat="35.465770" lon="-6.030710">
   <ele>11.00</ele>
   <time>2014-04-10T13:29:50Z</time>
  </trkpt>
  <trkpt lat="35.465599" lon="-6.030564">
   <ele>11.00</ele>
   <time>2014-04-10T13:29:58Z</time>
  </trkpt>
  <trkpt lat="35.465416" lon="-6.030573">
   <ele>11.00</ele>
   <time>2014-04-10T13:30:02Z</time>
  </trkpt>
  <trkpt lat="35.464215" lon="-6.030673">
   <ele>17.00</ele>
   <time>2014-04-10T13:30:18Z</time>
  </trkpt>
  <trkpt lat="35.462905" lon="-6.030790">
   <ele>25.00</ele>
   <time>2014-04-10T13:30:32Z</time>
  </trkpt>
  <trkpt lat="35.462709" lon="-6.030823">
   <ele>27.00</ele>
   <time>2014-04-10T13:30:34Z</time>
  </trkpt>
  <trkpt lat="35.462516" lon="-6.030866">
   <ele>28.00</ele>
   <time>2014-04-10T13:30:36Z</time>
  </trkpt>
  <trkpt lat="35.462110" lon="-6.030973">
   <ele>31.00</ele>
   <time>2014-04-10T13:30:41Z</time>
  </trkpt>
  <trkpt lat="35.461602" lon="-6.031133">
   <ele>33.00</ele>
   <time>2014-04-10T13:30:57Z</time>
  </trkpt>
  <trkpt lat="35.461407" lon="-6.031193">
   <ele>34.00</ele>
   <time>2014-04-10T13:31:01Z</time>
  </trkpt>
  <trkpt lat="35.461163" lon="-6.031252">
   <ele>35.00</ele>
   <time>2014-04-10T13:31:05Z</time>
  </trkpt>
  <trkpt lat="35.460928" lon="-6.031292">
   <ele>35.00</ele>
   <time>2014-04-10T13:31:08Z</time>
  </trkpt>
  <trkpt lat="35.460403" lon="-6.031360">
   <ele>36.00</ele>
   <time>2014-04-10T13:31:14Z</time>
  </trkpt>
  <trkpt lat="35.459457" lon="-6.031535">
   <ele>38.00</ele>
   <time>2014-04-10T13:31:23Z</time>
  </trkpt>
  <trkpt lat="35.459243" lon="-6.031596">
   <ele>39.00</ele>
   <time>2014-04-10T13:31:25Z</time>
  </trkpt>
  <trkpt lat="35.459033" lon="-6.031670">
   <ele>40.00</ele>
   <time>2014-04-10T13:31:27Z</time>
  </trkpt>
  <trkpt lat="35.458829" lon="-6.031757">
   <ele>41.00</ele>
   <time>2014-04-10T13:31:29Z</time>
  </trkpt>
  <trkpt lat="35.458631" lon="-6.031859">
   <ele>42.00</ele>
   <time>2014-04-10T13:31:31Z</time>
  </trkpt>
  <trkpt lat="35.458124" lon="-6.032135">
   <ele>46.00</ele>
   <time>2014-04-10T13:31:40Z</time>
  </trkpt>
  <trkpt lat="35.458125" lon="-6.032139">
   <ele>48.00</ele>
   <time>2014-04-10T13:31:56Z</time>
  </trkpt>
  <trkpt lat="35.457960" lon="-6.032230">
   <ele>48.00</ele>
   <time>2014-04-10T13:32:03Z</time>
  </trkpt>
  <trkpt lat="35.457778" lon="-6.032307">
   <ele>47.00</ele>
   <time>2014-04-10T13:32:09Z</time>
  </trkpt>
  <trkpt lat="35.457592" lon="-6.032386">
   <ele>48.00</ele>
   <time>2014-04-10T13:32:13Z</time>
  </trkpt>
  <trkpt lat="35.457195" lon="-6.032561">
   <ele>48.00</ele>
   <time>2014-04-10T13:32:18Z</time>
  </trkpt>
  <trkpt lat="35.456888" lon="-6.032670">
   <ele>48.00</ele>
   <time>2014-04-10T13:32:21Z</time>
  </trkpt>
  <trkpt lat="35.454702" lon="-6.033428">
   <ele>51.00</ele>
   <time>2014-04-10T13:32:37Z</time>
  </trkpt>
  <trkpt lat="35.452485" lon="-6.034168">
   <ele>53.00</ele>
   <time>2014-04-10T13:32:53Z</time>
  </trkpt>
  <trkpt lat="35.450836" lon="-6.034706">
   <ele>56.00</ele>
   <time>2014-04-10T13:33:05Z</time>
  </trkpt>
  <trkpt lat="35.450598" lon="-6.034736">
   <ele>57.00</ele>
   <time>2014-04-10T13:33:07Z</time>
  </trkpt>
  <trkpt lat="35.450318" lon="-6.034761">
   <ele>57.00</ele>
   <time>2014-04-10T13:33:10Z</time>
  </trkpt>
  <trkpt lat="35.450116" lon="-6.034854">
   <ele>58.00</ele>
   <time>2014-04-10T13:33:13Z</time>
  </trkpt>
  <trkpt lat="35.449927" lon="-6.034858">
   <ele>58.00</ele>
   <time>2014-04-10T13:33:16Z</time>
  </trkpt>
  <trkpt lat="35.449877" lon="-6.034601">
   <ele>57.00</ele>
   <time>2014-04-10T13:33:19Z</time>
  </trkpt>
  <trkpt lat="35.449884" lon="-6.034271">
   <ele>56.00</ele>
   <time>2014-04-10T13:33:22Z</time>
  </trkpt>
  <trkpt lat="35.449844" lon="-6.034022">
   <ele>55.00</ele>
   <time>2014-04-10T13:33:24Z</time>
  </trkpt>
  <trkpt lat="35.449775" lon="-6.033766">
   <ele>54.00</ele>
   <time>2014-04-10T13:33:26Z</time>
  </trkpt>
  <trkpt lat="35.449689" lon="-6.033509">
   <ele>53.00</ele>
   <time>2014-04-10T13:33:28Z</time>
  </trkpt>
  <trkpt lat="35.449586" lon="-6.033246">
   <ele>52.00</ele>
   <time>2014-04-10T13:33:30Z</time>
  </trkpt>
  <trkpt lat="35.449455" lon="-6.032970">
   <ele>50.00</ele>
   <time>2014-04-10T13:33:32Z</time>
  </trkpt>
  <trkpt lat="35.449299" lon="-6.032681">
   <ele>49.00</ele>
   <time>2014-04-10T13:33:34Z</time>
  </trkpt>
  <trkpt lat="35.448055" lon="-6.030554">
   <ele>42.00</ele>
   <time>2014-04-10T13:33:48Z</time>
  </trkpt>
  <trkpt lat="35.447916" lon="-6.030238">
   <ele>41.00</ele>
   <time>2014-04-10T13:33:50Z</time>
  </trkpt>
  <trkpt lat="35.447809" lon="-6.029915">
   <ele>41.00</ele>
   <time>2014-04-10T13:33:52Z</time>
  </trkpt>
  <trkpt lat="35.447737" lon="-6.029592">
   <ele>41.00</ele>
   <time>2014-04-10T13:33:54Z</time>
  </trkpt>
  <trkpt lat="35.447700" lon="-6.029277">
   <ele>40.00</ele>
   <time>2014-04-10T13:33:56Z</time>
  </trkpt>
  <trkpt lat="35.447696" lon="-6.028971">
   <ele>41.00</ele>
   <time>2014-04-10T13:33:58Z</time>
  </trkpt>
  <trkpt lat="35.447718" lon="-6.028677">
   <ele>41.00</ele>
   <time>2014-04-10T13:34:00Z</time>
  </trkpt>
  <trkpt lat="35.447783" lon="-6.028133">
   <ele>41.00</ele>
   <time>2014-04-10T13:34:04Z</time>
  </trkpt>
  <trkpt lat="35.447926" lon="-6.027189">
   <ele>42.00</ele>
   <time>2014-04-10T13:34:16Z</time>
  </trkpt>
  <trkpt lat="35.447976" lon="-6.026959">
   <ele>41.00</ele>
   <time>2014-04-10T13:34:30Z</time>
  </trkpt>
  <trkpt lat="35.448153" lon="-6.025596">
   <ele>42.00</ele>
   <time>2014-04-10T13:34:44Z</time>
  </trkpt>
  <trkpt lat="35.448170" lon="-6.025342">
   <ele>43.00</ele>
   <time>2014-04-10T13:34:46Z</time>
  </trkpt>
  <trkpt lat="35.448169" lon="-6.025079">
   <ele>43.00</ele>
   <time>2014-04-10T13:34:48Z</time>
  </trkpt>
  <trkpt lat="35.448143" lon="-6.024808">
   <ele>43.00</ele>
   <time>2014-04-10T13:34:50Z</time>
  </trkpt>
  <trkpt lat="35.448091" lon="-6.024533">
   <ele>44.00</ele>
   <time>2014-04-10T13:34:52Z</time>
  </trkpt>
  <trkpt lat="35.447696" lon="-6.022753">
   <ele>48.00</ele>
   <time>2014-04-10T13:35:04Z</time>
  </trkpt>
  <trkpt lat="35.447620" lon="-6.022450">
   <ele>49.00</ele>
   <time>2014-04-10T13:35:06Z</time>
  </trkpt>
  <trkpt lat="35.447533" lon="-6.022161">
   <ele>49.00</ele>
   <time>2014-04-10T13:35:08Z</time>
  </trkpt>
  <trkpt lat="35.447406" lon="-6.021901">
   <ele>49.00</ele>
   <time>2014-04-10T13:35:10Z</time>
  </trkpt>
  <trkpt lat="35.447217" lon="-6.021724">
   <ele>50.00</ele>
   <time>2014-04-10T13:35:12Z</time>
  </trkpt>
  <trkpt lat="35.446971" lon="-6.021691">
   <ele>51.00</ele>
   <time>2014-04-10T13:35:14Z</time>
  </trkpt>
  <trkpt lat="35.446751" lon="-6.021771">
   <ele>52.00</ele>
   <time>2014-04-10T13:35:16Z</time>
  </trkpt>
  <trkpt lat="35.446577" lon="-6.021961">
   <ele>54.00</ele>
   <time>2014-04-10T13:35:18Z</time>
  </trkpt>
  <trkpt lat="35.446483" lon="-6.022225">
   <ele>54.00</ele>
   <time>2014-04-10T13:35:20Z</time>
  </trkpt>
  <trkpt lat="35.446487" lon="-6.022518">
   <ele>55.00</ele>
   <time>2014-04-10T13:35:22Z</time>
  </trkpt>
  <trkpt lat="35.446598" lon="-6.022782">
   <ele>55.00</ele>
   <time>2014-04-10T13:35:24Z</time>
  </trkpt>
  <trkpt lat="35.446843" lon="-6.022962">
   <ele>56.00</ele>
   <time>2014-04-10T13:35:26Z</time>
  </trkpt>
  <trkpt lat="35.447129" lon="-6.022985">
   <ele>56.00</ele>
   <time>2014-04-10T13:35:28Z</time>
  </trkpt>
  <trkpt lat="35.447410" lon="-6.022920">
   <ele>56.00</ele>
   <time>2014-04-10T13:35:30Z</time>
  </trkpt>
  <trkpt lat="35.447703" lon="-6.022829">
   <ele>55.00</ele>
   <time>2014-04-10T13:35:32Z</time>
  </trkpt>
  <trkpt lat="35.448988" lon="-6.022392">
   <ele>54.00</ele>
   <time>2014-04-10T13:35:40Z</time>
  </trkpt>
  <trkpt lat="35.450081" lon="-6.021986">
   <ele>52.00</ele>
   <time>2014-04-10T13:35:46Z</time>
  </trkpt>
  <trkpt lat="35.451281" lon="-6.021457">
   <ele>49.00</ele>
   <time>2014-04-10T13:35:52Z</time>
  </trkpt>
  <trkpt lat="35.452346" lon="-6.020938">
   <ele>46.00</ele>
   <time>2014-04-10T13:35:57Z</time>
  </trkpt>
  <trkpt lat="35.453432" lon="-6.020349">
   <ele>41.00</ele>
   <time>2014-04-10T13:36:02Z</time>
  </trkpt>
  <trkpt lat="35.454523" lon="-6.019690">
   <ele>36.00</ele>
   <time>2014-04-10T13:36:07Z</time>
  </trkpt>
  <trkpt lat="35.455612" lon="-6.018973">
   <ele>31.00</ele>
   <time>2014-04-10T13:36:12Z</time>
  </trkpt>
  <trkpt lat="35.456677" lon="-6.018208">
   <ele>26.00</ele>
   <time>2014-04-10T13:36:17Z</time>
  </trkpt>
  <trkpt lat="35.458352" lon="-6.016922">
   <ele>18.00</ele>
   <time>2014-04-10T13:36:25Z</time>
  </trkpt>
  <trkpt lat="35.458957" lon="-6.016386">
   <ele>15.00</ele>
   <time>2014-04-10T13:36:28Z</time>
  </trkpt>
  <trkpt lat="35.459928" lon="-6.015446">
   <ele>13.00</ele>
   <time>2014-04-10T13:36:33Z</time>
  </trkpt>
  <trkpt lat="35.461046" lon="-6.014279">
   <ele>12.00</ele>
   <time>2014-04-10T13:36:39Z</time>
  </trkpt>
  <trkpt lat="35.461764" lon="-6.013475">
   <ele>13.00</ele>
   <time>2014-04-10T13:36:43Z</time>
  </trkpt>
  <trkpt lat="35.462803" lon="-6.012229">
   <ele>16.00</ele>
   <time>2014-04-10T13:36:49Z</time>
  </trkpt>
  <trkpt lat="35.464102" lon="-6.010512">
   <ele>22.00</ele>
   <time>2014-04-10T13:36:57Z</time>
  </trkpt>
  <trkpt lat="35.466690" lon="-6.007047">
   <ele>36.00</ele>
   <time>2014-04-10T13:37:13Z</time>
  </trkpt>
  <trkpt lat="35.469331" lon="-6.003531">
   <ele>40.00</ele>
   <time>2014-04-10T13:37:29Z</time>
  </trkpt>
  <trkpt lat="35.471835" lon="-6.000188">
   <ele>34.00</ele>
   <time>2014-04-10T13:37:44Z</time>
  </trkpt>
  <trkpt lat="35.473021" lon="-5.998641">
   <ele>28.00</ele>
   <time>2014-04-10T13:37:51Z</time>
  </trkpt>
  <trkpt lat="35.473563" lon="-5.998003">
   <ele>26.00</ele>
   <time>2014-04-10T13:37:54Z</time>
  </trkpt>
  <trkpt lat="35.474126" lon="-5.997387">
   <ele>24.00</ele>
   <time>2014-04-10T13:37:57Z</time>
  </trkpt>
  <trkpt lat="35.474709" lon="-5.996803">
   <ele>21.00</ele>
   <time>2014-04-10T13:38:00Z</time>
  </trkpt>
  <trkpt lat="35.475310" lon="-5.996260">
   <ele>18.00</ele>
   <time>2014-04-10T13:38:03Z</time>
  </trkpt>
  <trkpt lat="35.475927" lon="-5.995749">
   <ele>16.00</ele>
   <time>2014-04-10T13:38:06Z</time>
  </trkpt>
  <trkpt lat="35.476560" lon="-5.995272">
   <ele>13.00</ele>
   <time>2014-04-10T13:38:09Z</time>
  </trkpt>
  <trkpt lat="35.477211" lon="-5.994832">
   <ele>11.00</ele>
   <time>2014-04-10T13:38:12Z</time>
  </trkpt>
  <trkpt lat="35.477656" lon="-5.994562">
   <ele>9.00</ele>
   <time>2014-04-10T13:38:14Z</time>
  </trkpt>
  <trkpt lat="35.478332" lon="-5.994189">
   <ele>7.00</ele>
   <time>2014-04-10T13:38:17Z</time>
  </trkpt>
  <trkpt lat="35.479020" lon="-5.993850">
   <ele>5.00</ele>
   <time>2014-04-10T13:38:20Z</time>
  </trkpt>
  <trkpt lat="35.479719" lon="-5.993546">
   <ele>4.00</ele>
   <time>2014-04-10T13:38:23Z</time>
  </trkpt>
  <trkpt lat="35.483463" lon="-5.992145">
   <ele>2.00</ele>
   <time>2014-04-10T13:38:39Z</time>
  </trkpt>
  <trkpt lat="35.486879" lon="-5.990878">
   <ele>3.00</ele>
   <time>2014-04-10T13:38:54Z</time>
  </trkpt>
  <trkpt lat="35.490595" lon="-5.989499">
   <ele>3.00</ele>
   <time>2014-04-10T13:39:10Z</time>
  </trkpt>
  <trkpt lat="35.494055" lon="-5.988222">
   <ele>2.00</ele>
   <time>2014-04-10T13:39:25Z</time>
  </trkpt>
  <trkpt lat="35.495647" lon="-5.987677">
   <ele>2.00</ele>
   <time>2014-04-10T13:39:32Z</time>
  </trkpt>
  <trkpt lat="35.496575" lon="-5.987414">
   <ele>2.00</ele>
   <time>2014-04-10T13:39:36Z</time>
  </trkpt>
  <trkpt lat="35.497528" lon="-5.987198">
   <ele>1.00</ele>
   <time>2014-04-10T13:39:40Z</time>
  </trkpt>
  <trkpt lat="35.498495" lon="-5.987034">
   <ele>1.00</ele>
   <time>2014-04-10T13:39:44Z</time>
  </trkpt>
  <trkpt lat="35.499478" lon="-5.986920">
   <ele>1.00</ele>
   <time>2014-04-10T13:39:48Z</time>
  </trkpt>
  <trkpt lat="35.500221" lon="-5.986869">
   <ele>1.00</ele>
   <time>2014-04-10T13:39:51Z</time>
  </trkpt>
  <trkpt lat="35.501214" lon="-5.986852">
   <ele>1.00</ele>
   <time>2014-04-10T13:39:55Z</time>
  </trkpt>
  <trkpt lat="35.501461" lon="-5.986855">
   <ele>1.00</ele>
   <time>2014-04-10T13:39:56Z</time>
  </trkpt>
  <trkpt lat="35.502442" lon="-5.986894">
   <ele>2.00</ele>
   <time>2014-04-10T13:40:00Z</time>
  </trkpt>
  <trkpt lat="35.503406" lon="-5.986987">
   <ele>4.00</ele>
   <time>2014-04-10T13:40:04Z</time>
  </trkpt>
  <trkpt lat="35.504120" lon="-5.987093">
   <ele>5.00</ele>
   <time>2014-04-10T13:40:07Z</time>
  </trkpt>
  <trkpt lat="35.505288" lon="-5.987321">
   <ele>8.00</ele>
   <time>2014-04-10T13:40:12Z</time>
  </trkpt>
  <trkpt lat="35.509039" lon="-5.988214">
   <ele>21.00</ele>
   <time>2014-04-10T13:40:28Z</time>
  </trkpt>
  <trkpt lat="35.512562" lon="-5.989067">
   <ele>32.00</ele>
   <time>2014-04-10T13:40:43Z</time>
  </trkpt>
  <trkpt lat="35.515219" lon="-5.989713">
   <ele>35.00</ele>
   <time>2014-04-10T13:40:54Z</time>
  </trkpt>
  <trkpt lat="35.518915" lon="-5.990560">
   <ele>31.00</ele>
   <time>2014-04-10T13:41:09Z</time>
  </trkpt>
  <trkpt lat="35.521390" lon="-5.991104">
   <ele>26.00</ele>
   <time>2014-04-10T13:41:19Z</time>
  </trkpt>
  <trkpt lat="35.522383" lon="-5.991252">
   <ele>24.00</ele>
   <time>2014-04-10T13:41:23Z</time>
  </trkpt>
  <trkpt lat="35.523378" lon="-5.991350">
   <ele>21.00</ele>
   <time>2014-04-10T13:41:27Z</time>
  </trkpt>
  <trkpt lat="35.524131" lon="-5.991389">
   <ele>20.00</ele>
   <time>2014-04-10T13:41:30Z</time>
  </trkpt>
  <trkpt lat="35.524890" lon="-5.991391">
   <ele>18.00</ele>
   <time>2014-04-10T13:41:33Z</time>
  </trkpt>
  <trkpt lat="35.525653" lon="-5.991360">
   <ele>16.00</ele>
   <time>2014-04-10T13:41:36Z</time>
  </trkpt>
  <trkpt lat="35.526413" lon="-5.991294">
   <ele>15.00</ele>
   <time>2014-04-10T13:41:39Z</time>
  </trkpt>
  <trkpt lat="35.527676" lon="-5.991123">
   <ele>12.00</ele>
   <time>2014-04-10T13:41:44Z</time>
  </trkpt>
  <trkpt lat="35.528679" lon="-5.990924">
   <ele>10.00</ele>
   <time>2014-04-10T13:41:48Z</time>
  </trkpt>
  <trkpt lat="35.529423" lon="-5.990741">
   <ele>8.00</ele>
   <time>2014-04-10T13:41:51Z</time>
  </trkpt>
  <trkpt lat="35.530159" lon="-5.990525">
   <ele>6.00</ele>
   <time>2014-04-10T13:41:54Z</time>
  </trkpt>
  <trkpt lat="35.531127" lon="-5.990191">
   <ele>3.00</ele>
   <time>2014-04-10T13:41:58Z</time>
  </trkpt>
  <trkpt lat="35.532076" lon="-5.989805">
   <ele>1.00</ele>
   <time>2014-04-10T13:42:02Z</time>
  </trkpt>
  <trkpt lat="35.533950" lon="-5.988920">
   <ele>0.00</ele>
   <time>2014-04-10T13:42:10Z</time>
  </trkpt>
  <trkpt lat="35.537438" lon="-5.987238">
   <ele>1.00</ele>
   <time>2014-04-10T13:42:25Z</time>
  </trkpt>
  <trkpt lat="35.541123" lon="-5.985387">
   <ele>1.00</ele>
   <time>2014-04-10T13:42:41Z</time>
  </trkpt>
  <trkpt lat="35.544826" lon="-5.983565">
   <ele>1.00</ele>
   <time>2014-04-10T13:42:57Z</time>
  </trkpt>
  <trkpt lat="35.548384" lon="-5.981852">
   <ele>0.00</ele>
   <time>2014-04-10T13:43:12Z</time>
  </trkpt>
  <trkpt lat="35.552110" lon="-5.979981">
   <ele>1.00</ele>
   <time>2014-04-10T13:43:28Z</time>
  </trkpt>
  <trkpt lat="35.555618" lon="-5.978258">
   <ele>1.00</ele>
   <time>2014-04-10T13:43:43Z</time>
  </trkpt>
  <trkpt lat="35.557478" lon="-5.977317">
   <ele>1.00</ele>
   <time>2014-04-10T13:43:51Z</time>
  </trkpt>
  <trkpt lat="35.558153" lon="-5.976919">
   <ele>1.00</ele>
   <time>2014-04-10T13:43:54Z</time>
  </trkpt>
  <trkpt lat="35.558814" lon="-5.976489">
   <ele>1.00</ele>
   <time>2014-04-10T13:43:57Z</time>
  </trkpt>
  <trkpt lat="35.559458" lon="-5.976020">
   <ele>1.00</ele>
   <time>2014-04-10T13:44:00Z</time>
  </trkpt>
  <trkpt lat="35.560083" lon="-5.975517">
   <ele>2.00</ele>
   <time>2014-04-10T13:44:03Z</time>
  </trkpt>
  <trkpt lat="35.560695" lon="-5.974975">
   <ele>2.00</ele>
   <time>2014-04-10T13:44:06Z</time>
  </trkpt>
  <trkpt lat="35.563944" lon="-5.971980">
   <ele>2.00</ele>
   <time>2014-04-10T13:44:22Z</time>
  </trkpt>
  <trkpt lat="35.566943" lon="-5.969211">
   <ele>6.00</ele>
   <time>2014-04-10T13:44:37Z</time>
  </trkpt>
  <trkpt lat="35.569995" lon="-5.966385">
   <ele>21.00</ele>
   <time>2014-04-10T13:44:53Z</time>
  </trkpt>
  <trkpt lat="35.573023" lon="-5.963590">
   <ele>38.00</ele>
   <time>2014-04-10T13:45:09Z</time>
  </trkpt>
  <trkpt lat="35.575925" lon="-5.960911">
   <ele>48.00</ele>
   <time>2014-04-10T13:45:24Z</time>
  </trkpt>
  <trkpt lat="35.578858" lon="-5.958229">
   <ele>50.00</ele>
   <time>2014-04-10T13:45:39Z</time>
  </trkpt>
  <trkpt lat="35.579272" lon="-5.957899">
   <ele>50.00</ele>
   <time>2014-04-10T13:45:41Z</time>
  </trkpt>
  <trkpt lat="35.579698" lon="-5.957595">
   <ele>50.00</ele>
   <time>2014-04-10T13:45:43Z</time>
  </trkpt>
  <trkpt lat="35.580137" lon="-5.957318">
   <ele>49.00</ele>
   <time>2014-04-10T13:45:45Z</time>
  </trkpt>
  <trkpt lat="35.580592" lon="-5.957073">
   <ele>48.00</ele>
   <time>2014-04-10T13:45:47Z</time>
  </trkpt>
  <trkpt lat="35.581057" lon="-5.956859">
   <ele>47.00</ele>
   <time>2014-04-10T13:45:49Z</time>
  </trkpt>
  <trkpt lat="35.581530" lon="-5.956676">
   <ele>46.00</ele>
   <time>2014-04-10T13:45:51Z</time>
  </trkpt>
  <trkpt lat="35.582008" lon="-5.956525">
   <ele>45.00</ele>
   <time>2014-04-10T13:45:53Z</time>
  </trkpt>
  <trkpt lat="35.582492" lon="-5.956408">
   <ele>43.00</ele>
   <time>2014-04-10T13:45:55Z</time>
  </trkpt>
  <trkpt lat="35.582982" lon="-5.956324">
   <ele>41.00</ele>
   <time>2014-04-10T13:45:57Z</time>
  </trkpt>
  <trkpt lat="35.583480" lon="-5.956271">
   <ele>40.00</ele>
   <time>2014-04-10T13:45:59Z</time>
  </trkpt>
  <trkpt lat="35.583986" lon="-5.956247">
   <ele>38.00</ele>
   <time>2014-04-10T13:46:01Z</time>
  </trkpt>
  <trkpt lat="35.584242" lon="-5.956247">
   <ele>37.00</ele>
   <time>2014-04-10T13:46:02Z</time>
  </trkpt>
  <trkpt lat="35.584754" lon="-5.956280">
   <ele>34.00</ele>
   <time>2014-04-10T13:46:04Z</time>
  </trkpt>
  <trkpt lat="35.585266" lon="-5.956353">
   <ele>32.00</ele>
   <time>2014-04-10T13:46:06Z</time>
  </trkpt>
  <trkpt lat="35.585772" lon="-5.956461">
   <ele>30.00</ele>
   <time>2014-04-10T13:46:08Z</time>
  </trkpt>
  <trkpt lat="35.586274" lon="-5.956604">
   <ele>28.00</ele>
   <time>2014-04-10T13:46:10Z</time>
  </trkpt>
  <trkpt lat="35.586773" lon="-5.956778">
   <ele>26.00</ele>
   <time>2014-04-10T13:46:12Z</time>
  </trkpt>
  <trkpt lat="35.587261" lon="-5.956986">
   <ele>25.00</ele>
   <time>2014-04-10T13:46:14Z</time>
  </trkpt>
  <trkpt lat="35.587736" lon="-5.957227">
   <ele>23.00</ele>
   <time>2014-04-10T13:46:16Z</time>
  </trkpt>
  <trkpt lat="35.588197" lon="-5.957503">
   <ele>20.00</ele>
   <time>2014-04-10T13:46:18Z</time>
  </trkpt>
  <trkpt lat="35.588644" lon="-5.957812">
   <ele>17.00</ele>
   <time>2014-04-10T13:46:20Z</time>
  </trkpt>
  <trkpt lat="35.589075" lon="-5.958150">
   <ele>14.00</ele>
   <time>2014-04-10T13:46:22Z</time>
  </trkpt>
  <trkpt lat="35.589495" lon="-5.958509">
   <ele>12.00</ele>
   <time>2014-04-10T13:46:24Z</time>
  </trkpt>
  <trkpt lat="35.590731" lon="-5.959596">
   <ele>7.00</ele>
   <time>2014-04-10T13:46:30Z</time>
  </trkpt>
  <trkpt lat="35.590943" lon="-5.959760">
   <ele>7.00</ele>
   <time>2014-04-10T13:46:31Z</time>
  </trkpt>
  <trkpt lat="35.591377" lon="-5.960066">
   <ele>7.00</ele>
   <time>2014-04-10T13:46:33Z</time>
  </trkpt>
  <trkpt lat="35.591821" lon="-5.960344">
   <ele>7.00</ele>
   <time>2014-04-10T13:46:35Z</time>
  </trkpt>
  <trkpt lat="35.592277" lon="-5.960586">
   <ele>7.00</ele>
   <time>2014-04-10T13:46:37Z</time>
  </trkpt>
  <trkpt lat="35.592741" lon="-5.960797">
   <ele>8.00</ele>
   <time>2014-04-10T13:46:39Z</time>
  </trkpt>
  <trkpt lat="35.593217" lon="-5.960977">
   <ele>8.00</ele>
   <time>2014-04-10T13:46:41Z</time>
  </trkpt>
  <trkpt lat="35.593703" lon="-5.961123">
   <ele>8.00</ele>
   <time>2014-04-10T13:46:43Z</time>
  </trkpt>
  <trkpt lat="35.594197" lon="-5.961233">
   <ele>9.00</ele>
   <time>2014-04-10T13:46:45Z</time>
  </trkpt>
  <trkpt lat="35.594694" lon="-5.961309">
   <ele>9.00</ele>
   <time>2014-04-10T13:46:47Z</time>
  </trkpt>
  <trkpt lat="35.595194" lon="-5.961353">
   <ele>9.00</ele>
   <time>2014-04-10T13:46:49Z</time>
  </trkpt>
  <trkpt lat="35.596189" lon="-5.961378">
   <ele>10.00</ele>
   <time>2014-04-10T13:46:53Z</time>
  </trkpt>
  <trkpt lat="35.599913" lon="-5.961418">
   <ele>13.00</ele>
   <time>2014-04-10T13:47:08Z</time>
  </trkpt>
  <trkpt lat="35.603676" lon="-5.961497">
   <ele>15.00</ele>
   <time>2014-04-10T13:47:23Z</time>
  </trkpt>
  <trkpt lat="35.604179" lon="-5.961499">
   <ele>15.00</ele>
   <time>2014-04-10T13:47:25Z</time>
  </trkpt>
  <trkpt lat="35.605441" lon="-5.961482">
   <ele>15.00</ele>
   <time>2014-04-10T13:47:30Z</time>
  </trkpt>
  <trkpt lat="35.609216" lon="-5.961520">
   <ele>17.00</ele>
   <time>2014-04-10T13:47:45Z</time>
  </trkpt>
  <trkpt lat="35.610230" lon="-5.961485">
   <ele>18.00</ele>
   <time>2014-04-10T13:47:49Z</time>
  </trkpt>
  <trkpt lat="35.611980" lon="-5.961350">
   <ele>21.00</ele>
   <time>2014-04-10T13:47:56Z</time>
  </trkpt>
  <trkpt lat="35.613206" lon="-5.961195">
   <ele>25.00</ele>
   <time>2014-04-10T13:48:01Z</time>
  </trkpt>
  <trkpt lat="35.614403" lon="-5.960987">
   <ele>29.00</ele>
   <time>2014-04-10T13:48:06Z</time>
  </trkpt>
  <trkpt lat="35.615819" lon="-5.960683">
   <ele>34.00</ele>
   <time>2014-04-10T13:48:12Z</time>
  </trkpt>
  <trkpt lat="35.619615" lon="-5.959643">
   <ele>41.00</ele>
   <time>2014-04-10T13:48:28Z</time>
  </trkpt>
  <trkpt lat="35.620337" lon="-5.959467">
   <ele>41.00</ele>
   <time>2014-04-10T13:48:31Z</time>
  </trkpt>
  <trkpt lat="35.621069" lon="-5.959327">
   <ele>41.00</ele>
   <time>2014-04-10T13:48:34Z</time>
  </trkpt>
  <trkpt lat="35.621802" lon="-5.959228">
   <ele>41.00</ele>
   <time>2014-04-10T13:48:37Z</time>
  </trkpt>
  <trkpt lat="35.622540" lon="-5.959167">
   <ele>40.00</ele>
   <time>2014-04-10T13:48:40Z</time>
  </trkpt>
  <trkpt lat="35.623274" lon="-5.959152">
   <ele>40.00</ele>
   <time>2014-04-10T13:48:43Z</time>
  </trkpt>
  <trkpt lat="35.624012" lon="-5.959175">
   <ele>39.00</ele>
   <time>2014-04-10T13:48:46Z</time>
  </trkpt>
  <trkpt lat="35.624505" lon="-5.959214">
   <ele>38.00</ele>
   <time>2014-04-10T13:48:48Z</time>
  </trkpt>
  <trkpt lat="35.625252" lon="-5.959308">
   <ele>36.00</ele>
   <time>2014-04-10T13:48:51Z</time>
  </trkpt>
  <trkpt lat="35.626245" lon="-5.959479">
   <ele>33.00</ele>
   <time>2014-04-10T13:48:55Z</time>
  </trkpt>
  <trkpt lat="35.630043" lon="-5.960258">
   <ele>18.00</ele>
   <time>2014-04-10T13:49:10Z</time>
  </trkpt>
  <trkpt lat="35.631887" lon="-5.960599">
   <ele>10.00</ele>
   <time>2014-04-10T13:49:17Z</time>
  </trkpt>
  <trkpt lat="35.633233" lon="-5.960752">
   <ele>6.00</ele>
   <time>2014-04-10T13:49:22Z</time>
  </trkpt>
  <trkpt lat="35.634044" lon="-5.960797">
   <ele>4.00</ele>
   <time>2014-04-10T13:49:25Z</time>
  </trkpt>
  <trkpt lat="35.634579" lon="-5.960804">
   <ele>3.00</ele>
   <time>2014-04-10T13:49:27Z</time>
  </trkpt>
  <trkpt lat="35.635377" lon="-5.960777">
   <ele>2.00</ele>
   <time>2014-04-10T13:49:30Z</time>
  </trkpt>
  <trkpt lat="35.636166" lon="-5.960710">
   <ele>1.00</ele>
   <time>2014-04-10T13:49:33Z</time>
  </trkpt>
  <trkpt lat="35.636944" lon="-5.960599">
   <ele>1.00</ele>
   <time>2014-04-10T13:49:36Z</time>
  </trkpt>
  <trkpt lat="35.641274" lon="-5.959797">
   <ele>1.00</ele>
   <time>2014-04-10T13:49:53Z</time>
  </trkpt>
  <trkpt lat="35.645052" lon="-5.959091">
   <ele>1.00</ele>
   <time>2014-04-10T13:50:08Z</time>
  </trkpt>
  <trkpt lat="35.646299" lon="-5.958818">
   <ele>1.00</ele>
   <time>2014-04-10T13:50:13Z</time>
  </trkpt>
  <trkpt lat="35.647043" lon="-5.958610">
   <ele>1.00</ele>
   <time>2014-04-10T13:50:16Z</time>
  </trkpt>
  <trkpt lat="35.647782" lon="-5.958368">
   <ele>1.00</ele>
   <time>2014-04-10T13:50:19Z</time>
  </trkpt>
  <trkpt lat="35.648510" lon="-5.958084">
   <ele>2.00</ele>
   <time>2014-04-10T13:50:22Z</time>
  </trkpt>
  <trkpt lat="35.649224" lon="-5.957762">
   <ele>3.00</ele>
   <time>2014-04-10T13:50:25Z</time>
  </trkpt>
  <trkpt lat="35.649925" lon="-5.957401">
   <ele>4.00</ele>
   <time>2014-04-10T13:50:28Z</time>
  </trkpt>
  <trkpt lat="35.650833" lon="-5.956870">
   <ele>6.00</ele>
   <time>2014-04-10T13:50:32Z</time>
  </trkpt>
  <trkpt lat="35.651497" lon="-5.956438">
   <ele>7.00</ele>
   <time>2014-04-10T13:50:35Z</time>
  </trkpt>
  <trkpt lat="35.651930" lon="-5.956130">
   <ele>8.00</ele>
   <time>2014-04-10T13:50:37Z</time>
  </trkpt>
  <trkpt lat="35.652561" lon="-5.955640">
   <ele>10.00</ele>
   <time>2014-04-10T13:50:40Z</time>
  </trkpt>
  <trkpt lat="35.653381" lon="-5.954933">
   <ele>11.00</ele>
   <time>2014-04-10T13:50:44Z</time>
  </trkpt>
  <trkpt lat="35.654168" lon="-5.954175">
   <ele>14.00</ele>
   <time>2014-04-10T13:50:48Z</time>
  </trkpt>
  <trkpt lat="35.657251" lon="-5.951047">
   <ele>20.00</ele>
   <time>2014-04-10T13:51:04Z</time>
  </trkpt>
  <trkpt lat="35.660344" lon="-5.947913">
   <ele>25.00</ele>
   <time>2014-04-10T13:51:20Z</time>
  </trkpt>
  <trkpt lat="35.663234" lon="-5.944973">
   <ele>25.00</ele>
   <time>2014-04-10T13:51:35Z</time>
  </trkpt>
  <trkpt lat="35.666348" lon="-5.941821">
   <ele>22.00</ele>
   <time>2014-04-10T13:51:51Z</time>
  </trkpt>
  <trkpt lat="35.669258" lon="-5.938872">
   <ele>19.00</ele>
   <time>2014-04-10T13:52:06Z</time>
  </trkpt>
  <trkpt lat="35.671593" lon="-5.936398">
   <ele>17.00</ele>
   <time>2014-04-10T13:52:19Z</time>
  </trkpt>
  <trkpt lat="35.671912" lon="-5.936013">
   <ele>17.00</ele>
   <time>2014-04-10T13:52:21Z</time>
  </trkpt>
  <trkpt lat="35.672208" lon="-5.935609">
   <ele>17.00</ele>
   <time>2014-04-10T13:52:23Z</time>
  </trkpt>
  <trkpt lat="35.672347" lon="-5.935401">
   <ele>17.00</ele>
   <time>2014-04-10T13:52:24Z</time>
  </trkpt>
  <trkpt lat="35.672478" lon="-5.935185">
   <ele>16.00</ele>
   <time>2014-04-10T13:52:25Z</time>
  </trkpt>
  <trkpt lat="35.672600" lon="-5.934965">
   <ele>16.00</ele>
   <time>2014-04-10T13:52:26Z</time>
  </trkpt>
  <trkpt lat="35.672715" lon="-5.934738">
   <ele>16.00</ele>
   <time>2014-04-10T13:52:27Z</time>
  </trkpt>
  <trkpt lat="35.672820" lon="-5.934506">
   <ele>16.00</ele>
   <time>2014-04-10T13:52:28Z</time>
  </trkpt>
  <trkpt lat="35.672917" lon="-5.934269">
   <ele>16.00</ele>
   <time>2014-04-10T13:52:29Z</time>
  </trkpt>
  <trkpt lat="35.673092" lon="-5.933786">
   <ele>16.00</ele>
   <time>2014-04-10T13:52:31Z</time>
  </trkpt>
  <trkpt lat="35.673167" lon="-5.933539">
   <ele>16.00</ele>
   <time>2014-04-10T13:52:32Z</time>
  </trkpt>
  <trkpt lat="35.673234" lon="-5.933289">
   <ele>16.00</ele>
   <time>2014-04-10T13:52:33Z</time>
  </trkpt>
  <trkpt lat="35.673293" lon="-5.933037">
   <ele>16.00</ele>
   <time>2014-04-10T13:52:34Z</time>
  </trkpt>
  <trkpt lat="35.673342" lon="-5.932785">
   <ele>15.00</ele>
   <time>2014-04-10T13:52:35Z</time>
  </trkpt>
  <trkpt lat="35.673383" lon="-5.932532">
   <ele>15.00</ele>
   <time>2014-04-10T13:52:36Z</time>
  </trkpt>
  <trkpt lat="35.673414" lon="-5.932279">
   <ele>15.00</ele>
   <time>2014-04-10T13:52:37Z</time>
  </trkpt>
  <trkpt lat="35.673436" lon="-5.932026">
   <ele>15.00</ele>
   <time>2014-04-10T13:52:38Z</time>
  </trkpt>
  <trkpt lat="35.673450" lon="-5.931774">
   <ele>15.00</ele>
   <time>2014-04-10T13:52:39Z</time>
  </trkpt>
  <trkpt lat="35.673456" lon="-5.931523">
   <ele>15.00</ele>
   <time>2014-04-10T13:52:40Z</time>
  </trkpt>
  <trkpt lat="35.673455" lon="-5.931274">
   <ele>14.00</ele>
   <time>2014-04-10T13:52:41Z</time>
  </trkpt>
  <trkpt lat="35.673431" lon="-5.930780">
   <ele>14.00</ele>
   <time>2014-04-10T13:52:43Z</time>
  </trkpt>
  <trkpt lat="35.673377" lon="-5.930294">
   <ele>14.00</ele>
   <time>2014-04-10T13:52:45Z</time>
  </trkpt>
  <trkpt lat="35.673336" lon="-5.930052">
   <ele>15.00</ele>
   <time>2014-04-10T13:52:46Z</time>
  </trkpt>
  <trkpt lat="35.673235" lon="-5.929573">
   <ele>15.00</ele>
   <time>2014-04-10T13:52:48Z</time>
  </trkpt>
  <trkpt lat="35.672974" lon="-5.928363">
   <ele>16.00</ele>
   <time>2014-04-10T13:52:53Z</time>
  </trkpt>
  <trkpt lat="35.672940" lon="-5.928114">
   <ele>16.00</ele>
   <time>2014-04-10T13:52:54Z</time>
  </trkpt>
  <trkpt lat="35.672916" lon="-5.927861">
   <ele>16.00</ele>
   <time>2014-04-10T13:52:55Z</time>
  </trkpt>
  <trkpt lat="35.672902" lon="-5.927607">
   <ele>15.00</ele>
   <time>2014-04-10T13:52:56Z</time>
  </trkpt>
  <trkpt lat="35.672899" lon="-5.927351">
   <ele>15.00</ele>
   <time>2014-04-10T13:52:57Z</time>
  </trkpt>
  <trkpt lat="35.672908" lon="-5.927094">
   <ele>15.00</ele>
   <time>2014-04-10T13:52:58Z</time>
  </trkpt>
  <trkpt lat="35.672927" lon="-5.926835">
   <ele>15.00</ele>
   <time>2014-04-10T13:52:59Z</time>
  </trkpt>
  <trkpt lat="35.672957" lon="-5.926576">
   <ele>14.00</ele>
   <time>2014-04-10T13:53:00Z</time>
  </trkpt>
  <trkpt lat="35.672999" lon="-5.926318">
   <ele>14.00</ele>
   <time>2014-04-10T13:53:01Z</time>
  </trkpt>
  <trkpt lat="35.673103" lon="-5.925800">
   <ele>13.00</ele>
   <time>2014-04-10T13:53:03Z</time>
  </trkpt>
  <trkpt lat="35.674065" lon="-5.921515">
   <ele>11.00</ele>
   <time>2014-04-10T13:53:19Z</time>
  </trkpt>
  <trkpt lat="35.674997" lon="-5.917293">
   <ele>14.00</ele>
   <time>2014-04-10T13:53:34Z</time>
  </trkpt>
  <trkpt lat="35.675922" lon="-5.912999">
   <ele>20.00</ele>
   <time>2014-04-10T13:53:49Z</time>
  </trkpt>
  <trkpt lat="35.675964" lon="-5.912711">
   <ele>20.00</ele>
   <time>2014-04-10T13:53:50Z</time>
  </trkpt>
  <trkpt lat="35.675996" lon="-5.912420">
   <ele>21.00</ele>
   <time>2014-04-10T13:53:51Z</time>
  </trkpt>
  <trkpt lat="35.676019" lon="-5.912125">
   <ele>21.00</ele>
   <time>2014-04-10T13:53:52Z</time>
  </trkpt>
  <trkpt lat="35.676031" lon="-5.911829">
   <ele>22.00</ele>
   <time>2014-04-10T13:53:53Z</time>
  </trkpt>
  <trkpt lat="35.676034" lon="-5.911532">
   <ele>22.00</ele>
   <time>2014-04-10T13:53:54Z</time>
  </trkpt>
  <trkpt lat="35.676027" lon="-5.911235">
   <ele>22.00</ele>
   <time>2014-04-10T13:53:55Z</time>
  </trkpt>
  <trkpt lat="35.675986" lon="-5.910642">
   <ele>23.00</ele>
   <time>2014-04-10T13:53:57Z</time>
  </trkpt>
  <trkpt lat="35.675951" lon="-5.910347">
   <ele>24.00</ele>
   <time>2014-04-10T13:53:58Z</time>
  </trkpt>
  <trkpt lat="35.675906" lon="-5.910053">
   <ele>24.00</ele>
   <time>2014-04-10T13:53:59Z</time>
  </trkpt>
  <trkpt lat="35.675852" lon="-5.909764">
   <ele>25.00</ele>
   <time>2014-04-10T13:54:00Z</time>
  </trkpt>
  <trkpt lat="35.675788" lon="-5.909481">
   <ele>25.00</ele>
   <time>2014-04-10T13:54:01Z</time>
  </trkpt>
  <trkpt lat="35.675716" lon="-5.909206">
   <ele>26.00</ele>
   <time>2014-04-10T13:54:02Z</time>
  </trkpt>
  <trkpt lat="35.675636" lon="-5.908938">
   <ele>26.00</ele>
   <time>2014-04-10T13:54:03Z</time>
  </trkpt>
  <trkpt lat="35.675457" lon="-5.908418">
   <ele>27.00</ele>
   <time>2014-04-10T13:54:05Z</time>
  </trkpt>
  <trkpt lat="35.675246" lon="-5.907927">
   <ele>27.00</ele>
   <time>2014-04-10T13:54:07Z</time>
  </trkpt>
  <trkpt lat="35.675132" lon="-5.907691">
   <ele>27.00</ele>
   <time>2014-04-10T13:54:08Z</time>
  </trkpt>
  <trkpt lat="35.675011" lon="-5.907461">
   <ele>27.00</ele>
   <time>2014-04-10T13:54:09Z</time>
  </trkpt>
  <trkpt lat="35.674884" lon="-5.907238">
   <ele>27.00</ele>
   <time>2014-04-10T13:54:10Z</time>
  </trkpt>
  <trkpt lat="35.674747" lon="-5.907021">
   <ele>27.00</ele>
   <time>2014-04-10T13:54:11Z</time>
  </trkpt>
  <trkpt lat="35.674459" lon="-5.906606">
   <ele>28.00</ele>
   <time>2014-04-10T13:54:13Z</time>
  </trkpt>
  <trkpt lat="35.674306" lon="-5.906410">
   <ele>28.00</ele>
   <time>2014-04-10T13:54:14Z</time>
  </trkpt>
  <trkpt lat="35.674148" lon="-5.906221">
   <ele>28.00</ele>
   <time>2014-04-10T13:54:15Z</time>
  </trkpt>
  <trkpt lat="35.673984" lon="-5.906040">
   <ele>28.00</ele>
   <time>2014-04-10T13:54:16Z</time>
  </trkpt>
  <trkpt lat="35.673643" lon="-5.905697">
   <ele>28.00</ele>
   <time>2014-04-10T13:54:18Z</time>
  </trkpt>
  <trkpt lat="35.670782" lon="-5.902919">
   <ele>24.00</ele>
   <time>2014-04-10T13:54:34Z</time>
  </trkpt>
  <trkpt lat="35.668602" lon="-5.900766">
   <ele>20.00</ele>
   <time>2014-04-10T13:54:46Z</time>
  </trkpt>
  <trkpt lat="35.668259" lon="-5.900383">
   <ele>19.00</ele>
   <time>2014-04-10T13:54:48Z</time>
  </trkpt>
  <trkpt lat="35.667933" lon="-5.899978">
   <ele>19.00</ele>
   <time>2014-04-10T13:54:50Z</time>
  </trkpt>
  <trkpt lat="35.667622" lon="-5.899554">
   <ele>18.00</ele>
   <time>2014-04-10T13:54:52Z</time>
  </trkpt>
  <trkpt lat="35.667330" lon="-5.899107">
   <ele>17.00</ele>
   <time>2014-04-10T13:54:54Z</time>
  </trkpt>
  <trkpt lat="35.667058" lon="-5.898637">
   <ele>17.00</ele>
   <time>2014-04-10T13:54:56Z</time>
  </trkpt>
  <trkpt lat="35.666804" lon="-5.898152">
   <ele>16.00</ele>
   <time>2014-04-10T13:54:58Z</time>
  </trkpt>
  <trkpt lat="35.666570" lon="-5.897651">
   <ele>16.00</ele>
   <time>2014-04-10T13:55:00Z</time>
  </trkpt>
  <trkpt lat="35.666356" lon="-5.897137">
   <ele>15.00</ele>
   <time>2014-04-10T13:55:02Z</time>
  </trkpt>
  <trkpt lat="35.666165" lon="-5.896610">
   <ele>14.00</ele>
   <time>2014-04-10T13:55:04Z</time>
  </trkpt>
  <trkpt lat="35.665741" lon="-5.895254">
   <ele>13.00</ele>
   <time>2014-04-10T13:55:09Z</time>
  </trkpt>
  <trkpt lat="35.664486" lon="-5.891196">
   <ele>15.00</ele>
   <time>2014-04-10T13:55:24Z</time>
  </trkpt>
  <trkpt lat="35.663131" lon="-5.886834">
   <ele>16.00</ele>
   <time>2014-04-10T13:55:40Z</time>
  </trkpt>
  <trkpt lat="35.662514" lon="-5.884913">
   <ele>15.00</ele>
   <time>2014-04-10T13:55:47Z</time>
  </trkpt>
  <trkpt lat="35.662317" lon="-5.884369">
   <ele>14.00</ele>
   <time>2014-04-10T13:55:49Z</time>
  </trkpt>
  <trkpt lat="35.661993" lon="-5.883567">
   <ele>13.00</ele>
   <time>2014-04-10T13:55:52Z</time>
  </trkpt>
  <trkpt lat="35.661756" lon="-5.883042">
   <ele>12.00</ele>
   <time>2014-04-10T13:55:54Z</time>
  </trkpt>
  <trkpt lat="35.661364" lon="-5.882266">
   <ele>11.00</ele>
   <time>2014-04-10T13:55:57Z</time>
  </trkpt>
  <trkpt lat="35.661078" lon="-5.881759">
   <ele>10.00</ele>
   <time>2014-04-10T13:55:59Z</time>
  </trkpt>
  <trkpt lat="35.660627" lon="-5.881030">
   <ele>9.00</ele>
   <time>2014-04-10T13:56:02Z</time>
  </trkpt>
  <trkpt lat="35.660146" lon="-5.880327">
   <ele>7.00</ele>
   <time>2014-04-10T13:56:05Z</time>
  </trkpt>
  <trkpt lat="35.659809" lon="-5.879874">
   <ele>6.00</ele>
   <time>2014-04-10T13:56:07Z</time>
  </trkpt>
  <trkpt lat="35.656692" lon="-5.875957">
   <ele>3.00</ele>
   <time>2014-04-10T13:56:25Z</time>
  </trkpt>
  <trkpt lat="35.655495" lon="-5.874413">
   <ele>3.00</ele>
   <time>2014-04-10T13:56:32Z</time>
  </trkpt>
  <trkpt lat="35.655030" lon="-5.873712">
   <ele>3.00</ele>
   <time>2014-04-10T13:56:35Z</time>
  </trkpt>
  <trkpt lat="35.654737" lon="-5.873230">
   <ele>4.00</ele>
   <time>2014-04-10T13:56:37Z</time>
  </trkpt>
  <trkpt lat="35.654324" lon="-5.872490">
   <ele>4.00</ele>
   <time>2014-04-10T13:56:40Z</time>
  </trkpt>
  <trkpt lat="35.653943" lon="-5.871730">
   <ele>4.00</ele>
   <time>2014-04-10T13:56:43Z</time>
  </trkpt>
  <trkpt lat="35.653706" lon="-5.871214">
   <ele>4.00</ele>
   <time>2014-04-10T13:56:45Z</time>
  </trkpt>
  <trkpt lat="35.653487" lon="-5.870684">
   <ele>4.00</ele>
   <time>2014-04-10T13:56:47Z</time>
  </trkpt>
  <trkpt lat="35.653185" lon="-5.869873">
   <ele>4.00</ele>
   <time>2014-04-10T13:56:50Z</time>
  </trkpt>
  <trkpt lat="35.653001" lon="-5.869320">
   <ele>4.00</ele>
   <time>2014-04-10T13:56:52Z</time>
  </trkpt>
  <trkpt lat="35.652755" lon="-5.868475">
   <ele>5.00</ele>
   <time>2014-04-10T13:56:55Z</time>
  </trkpt>
  <trkpt lat="35.652543" lon="-5.867621">
   <ele>5.00</ele>
   <time>2014-04-10T13:56:58Z</time>
  </trkpt>
  <trkpt lat="35.652366" lon="-5.866757">
   <ele>5.00</ele>
   <time>2014-04-10T13:57:01Z</time>
  </trkpt>
  <trkpt lat="35.652224" lon="-5.865884">
   <ele>6.00</ele>
   <time>2014-04-10T13:57:04Z</time>
  </trkpt>
  <trkpt lat="35.652118" lon="-5.865002">
   <ele>6.00</ele>
   <time>2014-04-10T13:57:07Z</time>
  </trkpt>
  <trkpt lat="35.652066" lon="-5.864406">
   <ele>7.00</ele>
   <time>2014-04-10T13:57:09Z</time>
  </trkpt>
  <trkpt lat="35.652033" lon="-5.863803">
   <ele>7.00</ele>
   <time>2014-04-10T13:57:11Z</time>
  </trkpt>
  <trkpt lat="35.652015" lon="-5.862895">
   <ele>7.00</ele>
   <time>2014-04-10T13:57:14Z</time>
  </trkpt>
  <trkpt lat="35.652023" lon="-5.862290">
   <ele>7.00</ele>
   <time>2014-04-10T13:57:16Z</time>
  </trkpt>
  <trkpt lat="35.652067" lon="-5.861386">
   <ele>7.00</ele>
   <time>2014-04-10T13:57:19Z</time>
  </trkpt>
  <trkpt lat="35.652382" lon="-5.856881">
   <ele>6.00</ele>
   <time>2014-04-10T13:57:34Z</time>
  </trkpt>
  <trkpt lat="35.652715" lon="-5.852014">
   <ele>6.00</ele>
   <time>2014-04-10T13:57:50Z</time>
  </trkpt>
  <trkpt lat="35.653044" lon="-5.847121">
   <ele>7.00</ele>
   <time>2014-04-10T13:58:06Z</time>
  </trkpt>
  <trkpt lat="35.653153" lon="-5.845610">
   <ele>8.00</ele>
   <time>2014-04-10T13:58:11Z</time>
  </trkpt>
  <trkpt lat="35.653261" lon="-5.844708">
   <ele>8.00</ele>
   <time>2014-04-10T13:58:14Z</time>
  </trkpt>
  <trkpt lat="35.653399" lon="-5.843814">
   <ele>9.00</ele>
   <time>2014-04-10T13:58:17Z</time>
  </trkpt>
  <trkpt lat="35.653626" lon="-5.842635">
   <ele>10.00</ele>
   <time>2014-04-10T13:58:21Z</time>
  </trkpt>
  <trkpt lat="35.653833" lon="-5.841757">
   <ele>10.00</ele>
   <time>2014-04-10T13:58:24Z</time>
  </trkpt>
  <trkpt lat="35.654070" lon="-5.840893">
   <ele>11.00</ele>
   <time>2014-04-10T13:58:27Z</time>
  </trkpt>
  <trkpt lat="35.654335" lon="-5.840039">
   <ele>12.00</ele>
   <time>2014-04-10T13:58:30Z</time>
  </trkpt>
  <trkpt lat="35.654630" lon="-5.839200">
   <ele>12.00</ele>
   <time>2014-04-10T13:58:33Z</time>
  </trkpt>
  <trkpt lat="35.654955" lon="-5.838372">
   <ele>13.00</ele>
   <time>2014-04-10T13:58:36Z</time>
  </trkpt>
  <trkpt lat="35.655307" lon="-5.837561">
   <ele>13.00</ele>
   <time>2014-04-10T13:58:39Z</time>
  </trkpt>
  <trkpt lat="35.655685" lon="-5.836769">
   <ele>14.00</ele>
   <time>2014-04-10T13:58:42Z</time>
  </trkpt>
  <trkpt lat="35.656092" lon="-5.835999">
   <ele>14.00</ele>
   <time>2014-04-10T13:58:45Z</time>
  </trkpt>
  <trkpt lat="35.656525" lon="-5.835250">
   <ele>14.00</ele>
   <time>2014-04-10T13:58:48Z</time>
  </trkpt>
  <trkpt lat="35.656984" lon="-5.834525">
   <ele>14.00</ele>
   <time>2014-04-10T13:58:51Z</time>
  </trkpt>
  <trkpt lat="35.657464" lon="-5.833820">
   <ele>14.00</ele>
   <time>2014-04-10T13:58:54Z</time>
  </trkpt>
  <trkpt lat="35.657969" lon="-5.833136">
   <ele>14.00</ele>
   <time>2014-04-10T13:58:57Z</time>
  </trkpt>
  <trkpt lat="35.658320" lon="-5.832696">
   <ele>13.00</ele>
   <time>2014-04-10T13:58:59Z</time>
  </trkpt>
  <trkpt lat="35.658869" lon="-5.832057">
   <ele>12.00</ele>
   <time>2014-04-10T13:59:02Z</time>
  </trkpt>
  <trkpt lat="35.661890" lon="-5.828731">
   <ele>10.00</ele>
   <time>2014-04-10T13:59:18Z</time>
  </trkpt>
  <trkpt lat="35.662441" lon="-5.828093">
   <ele>9.00</ele>
   <time>2014-04-10T13:59:21Z</time>
  </trkpt>
  <trkpt lat="35.662965" lon="-5.827421">
   <ele>9.00</ele>
   <time>2014-04-10T13:59:24Z</time>
  </trkpt>
  <trkpt lat="35.663468" lon="-5.826720">
   <ele>9.00</ele>
   <time>2014-04-10T13:59:27Z</time>
  </trkpt>
  <trkpt lat="35.663943" lon="-5.825997">
   <ele>10.00</ele>
   <time>2014-04-10T13:59:30Z</time>
  </trkpt>
  <trkpt lat="35.664540" lon="-5.825005">
   <ele>10.00</ele>
   <time>2014-04-10T13:59:34Z</time>
  </trkpt>
  <trkpt lat="35.665838" lon="-5.822738">
   <ele>11.00</ele>
   <time>2014-04-10T13:59:43Z</time>
  </trkpt>
  <trkpt lat="35.666150" lon="-5.822255">
   <ele>12.00</ele>
   <time>2014-04-10T13:59:45Z</time>
  </trkpt>
  <trkpt lat="35.666643" lon="-5.821556">
   <ele>12.00</ele>
   <time>2014-04-10T13:59:48Z</time>
  </trkpt>
  <trkpt lat="35.666989" lon="-5.821107">
   <ele>13.00</ele>
   <time>2014-04-10T13:59:50Z</time>
  </trkpt>
  <trkpt lat="35.667532" lon="-5.820463">
   <ele>13.00</ele>
   <time>2014-04-10T13:59:53Z</time>
  </trkpt>
  <trkpt lat="35.668098" lon="-5.819859">
   <ele>13.00</ele>
   <time>2014-04-10T13:59:56Z</time>
  </trkpt>
  <trkpt lat="35.668686" lon="-5.819293">
   <ele>13.00</ele>
   <time>2014-04-10T13:59:59Z</time>
  </trkpt>
  <trkpt lat="35.672131" lon="-5.816145">
   <ele>12.00</ele>
   <time>2014-04-10T14:00:16Z</time>
  </trkpt>
  <trkpt lat="35.672719" lon="-5.815553">
   <ele>12.00</ele>
   <time>2014-04-10T14:00:19Z</time>
  </trkpt>
  <trkpt lat="35.673285" lon="-5.814933">
   <ele>13.00</ele>
   <time>2014-04-10T14:00:22Z</time>
  </trkpt>
  <trkpt lat="35.673823" lon="-5.814287">
   <ele>14.00</ele>
   <time>2014-04-10T14:00:25Z</time>
  </trkpt>
  <trkpt lat="35.674345" lon="-5.813618">
   <ele>15.00</ele>
   <time>2014-04-10T14:00:28Z</time>
  </trkpt>
  <trkpt lat="35.674675" lon="-5.813155">
   <ele>17.00</ele>
   <time>2014-04-10T14:00:30Z</time>
  </trkpt>
  <trkpt lat="35.675300" lon="-5.812203">
   <ele>20.00</ele>
   <time>2014-04-10T14:00:34Z</time>
  </trkpt>
  <trkpt lat="35.675732" lon="-5.811470">
   <ele>22.00</ele>
   <time>2014-04-10T14:00:37Z</time>
  </trkpt>
  <trkpt lat="35.676140" lon="-5.810716">
   <ele>24.00</ele>
   <time>2014-04-10T14:00:40Z</time>
  </trkpt>
  <trkpt lat="35.676527" lon="-5.809941">
   <ele>26.00</ele>
   <time>2014-04-10T14:00:43Z</time>
  </trkpt>
  <trkpt lat="35.676884" lon="-5.809143">
   <ele>28.00</ele>
   <time>2014-04-10T14:00:46Z</time>
  </trkpt>
  <trkpt lat="35.677217" lon="-5.808327">
   <ele>30.00</ele>
   <time>2014-04-10T14:00:49Z</time>
  </trkpt>
  <trkpt lat="35.677521" lon="-5.807500">
   <ele>32.00</ele>
   <time>2014-04-10T14:00:52Z</time>
  </trkpt>
  <trkpt lat="35.677795" lon="-5.806663">
   <ele>33.00</ele>
   <time>2014-04-10T14:00:55Z</time>
  </trkpt>
  <trkpt lat="35.678039" lon="-5.805812">
   <ele>34.00</ele>
   <time>2014-04-10T14:00:58Z</time>
  </trkpt>
  <trkpt lat="35.678255" lon="-5.804948">
   <ele>34.00</ele>
   <time>2014-04-10T14:01:01Z</time>
  </trkpt>
  <trkpt lat="35.678445" lon="-5.804067">
   <ele>34.00</ele>
   <time>2014-04-10T14:01:04Z</time>
  </trkpt>
  <trkpt lat="35.678606" lon="-5.803166">
   <ele>35.00</ele>
   <time>2014-04-10T14:01:07Z</time>
  </trkpt>
  <trkpt lat="35.678736" lon="-5.802254">
   <ele>34.00</ele>
   <time>2014-04-10T14:01:10Z</time>
  </trkpt>
  <trkpt lat="35.678833" lon="-5.801331">
   <ele>34.00</ele>
   <time>2014-04-10T14:01:13Z</time>
  </trkpt>
  <trkpt lat="35.678897" lon="-5.800392">
   <ele>34.00</ele>
   <time>2014-04-10T14:01:16Z</time>
  </trkpt>
  <trkpt lat="35.678930" lon="-5.799448">
   <ele>33.00</ele>
   <time>2014-04-10T14:01:19Z</time>
  </trkpt>
  <trkpt lat="35.678930" lon="-5.798508">
   <ele>33.00</ele>
   <time>2014-04-10T14:01:22Z</time>
  </trkpt>
  <trkpt lat="35.678880" lon="-5.797257">
   <ele>32.00</ele>
   <time>2014-04-10T14:01:26Z</time>
  </trkpt>
  <trkpt lat="35.678834" lon="-5.796632">
   <ele>31.00</ele>
   <time>2014-04-10T14:01:28Z</time>
  </trkpt>
  <trkpt lat="35.678735" lon="-5.795704">
   <ele>31.00</ele>
   <time>2014-04-10T14:01:31Z</time>
  </trkpt>
  <trkpt lat="35.678606" lon="-5.794789">
   <ele>30.00</ele>
   <time>2014-04-10T14:01:34Z</time>
  </trkpt>
  <trkpt lat="35.678448" lon="-5.793889">
   <ele>29.00</ele>
   <time>2014-04-10T14:01:37Z</time>
  </trkpt>
  <trkpt lat="35.678261" lon="-5.793006">
   <ele>29.00</ele>
   <time>2014-04-10T14:01:40Z</time>
  </trkpt>
  <trkpt lat="35.678050" lon="-5.792137">
   <ele>28.00</ele>
   <time>2014-04-10T14:01:43Z</time>
  </trkpt>
  <trkpt lat="35.677810" lon="-5.791279">
   <ele>28.00</ele>
   <time>2014-04-10T14:01:46Z</time>
  </trkpt>
  <trkpt lat="35.677537" lon="-5.790435">
   <ele>28.00</ele>
   <time>2014-04-10T14:01:49Z</time>
  </trkpt>
  <trkpt lat="35.677237" lon="-5.789602">
   <ele>28.00</ele>
   <time>2014-04-10T14:01:52Z</time>
  </trkpt>
  <trkpt lat="35.676796" lon="-5.788504">
   <ele>29.00</ele>
   <time>2014-04-10T14:01:56Z</time>
  </trkpt>
  <trkpt lat="35.675005" lon="-5.784115">
   <ele>32.00</ele>
   <time>2014-04-10T14:02:12Z</time>
  </trkpt>
  <trkpt lat="35.673332" lon="-5.779997">
   <ele>35.00</ele>
   <time>2014-04-10T14:02:27Z</time>
  </trkpt>
  <trkpt lat="35.671531" lon="-5.775584">
   <ele>33.00</ele>
   <time>2014-04-10T14:02:43Z</time>
  </trkpt>
  <trkpt lat="35.669974" lon="-5.771691">
   <ele>31.00</ele>
   <time>2014-04-10T14:02:57Z</time>
  </trkpt>
  <trkpt lat="35.669778" lon="-5.771123">
   <ele>31.00</ele>
   <time>2014-04-10T14:02:59Z</time>
  </trkpt>
  <trkpt lat="35.669599" lon="-5.770548">
   <ele>32.00</ele>
   <time>2014-04-10T14:03:01Z</time>
  </trkpt>
  <trkpt lat="35.669362" lon="-5.769677">
   <ele>33.00</ele>
   <time>2014-04-10T14:03:04Z</time>
  </trkpt>
  <trkpt lat="35.669161" lon="-5.768798">
   <ele>34.00</ele>
   <time>2014-04-10T14:03:07Z</time>
  </trkpt>
  <trkpt lat="35.669051" lon="-5.768211">
   <ele>36.00</ele>
   <time>2014-04-10T14:03:09Z</time>
  </trkpt>
  <trkpt lat="35.668917" lon="-5.767333">
   <ele>38.00</ele>
   <time>2014-04-10T14:03:12Z</time>
  </trkpt>
  <trkpt lat="35.668850" lon="-5.766746">
   <ele>39.00</ele>
   <time>2014-04-10T14:03:14Z</time>
  </trkpt>
  <trkpt lat="35.668470" lon="-5.762054">
   <ele>48.00</ele>
   <time>2014-04-10T14:03:30Z</time>
  </trkpt>
  <trkpt lat="35.668200" lon="-5.758475">
   <ele>47.00</ele>
   <time>2014-04-10T14:03:42Z</time>
  </trkpt>
  <trkpt lat="35.668188" lon="-5.757875">
   <ele>46.00</ele>
   <time>2014-04-10T14:03:44Z</time>
  </trkpt>
  <trkpt lat="35.668198" lon="-5.757274">
   <ele>45.00</ele>
   <time>2014-04-10T14:03:46Z</time>
  </trkpt>
  <trkpt lat="35.668230" lon="-5.756670">
   <ele>44.00</ele>
   <time>2014-04-10T14:03:48Z</time>
  </trkpt>
  <trkpt lat="35.668290" lon="-5.756065">
   <ele>43.00</ele>
   <time>2014-04-10T14:03:50Z</time>
  </trkpt>
  <trkpt lat="35.668373" lon="-5.755461">
   <ele>41.00</ele>
   <time>2014-04-10T14:03:52Z</time>
  </trkpt>
  <trkpt lat="35.668476" lon="-5.754855">
   <ele>39.00</ele>
   <time>2014-04-10T14:03:54Z</time>
  </trkpt>
  <trkpt lat="35.668605" lon="-5.754249">
   <ele>38.00</ele>
   <time>2014-04-10T14:03:56Z</time>
  </trkpt>
  <trkpt lat="35.668757" lon="-5.753649">
   <ele>36.00</ele>
   <time>2014-04-10T14:03:58Z</time>
  </trkpt>
  <trkpt lat="35.668929" lon="-5.753060">
   <ele>35.00</ele>
   <time>2014-04-10T14:04:00Z</time>
  </trkpt>
  <trkpt lat="35.669125" lon="-5.752483">
   <ele>34.00</ele>
   <time>2014-04-10T14:04:02Z</time>
  </trkpt>
  <trkpt lat="35.669343" lon="-5.751919">
   <ele>33.00</ele>
   <time>2014-04-10T14:04:04Z</time>
  </trkpt>
  <trkpt lat="35.669582" lon="-5.751366">
   <ele>33.00</ele>
   <time>2014-04-10T14:04:06Z</time>
  </trkpt>
  <trkpt lat="35.669841" lon="-5.750830">
   <ele>33.00</ele>
   <time>2014-04-10T14:04:08Z</time>
  </trkpt>
  <trkpt lat="35.670120" lon="-5.750313">
   <ele>32.00</ele>
   <time>2014-04-10T14:04:10Z</time>
  </trkpt>
  <trkpt lat="35.670416" lon="-5.749816">
   <ele>33.00</ele>
   <time>2014-04-10T14:04:12Z</time>
  </trkpt>
  <trkpt lat="35.670729" lon="-5.749338">
   <ele>33.00</ele>
   <time>2014-04-10T14:04:14Z</time>
  </trkpt>
  <trkpt lat="35.671054" lon="-5.748879">
   <ele>34.00</ele>
   <time>2014-04-10T14:04:16Z</time>
  </trkpt>
  <trkpt lat="35.671397" lon="-5.748439">
   <ele>34.00</ele>
   <time>2014-04-10T14:04:18Z</time>
  </trkpt>
  <trkpt lat="35.671757" lon="-5.748020">
   <ele>35.00</ele>
   <time>2014-04-10T14:04:20Z</time>
  </trkpt>
  <trkpt lat="35.672129" lon="-5.747622">
   <ele>36.00</ele>
   <time>2014-04-10T14:04:22Z</time>
  </trkpt>
  <trkpt lat="35.672517" lon="-5.747247">
   <ele>36.00</ele>
   <time>2014-04-10T14:04:24Z</time>
  </trkpt>
  <trkpt lat="35.672919" lon="-5.746894">
   <ele>37.00</ele>
   <time>2014-04-10T14:04:26Z</time>
  </trkpt>
  <trkpt lat="35.673332" lon="-5.746562">
   <ele>37.00</ele>
   <time>2014-04-10T14:04:28Z</time>
  </trkpt>
  <trkpt lat="35.674183" lon="-5.745945">
   <ele>38.00</ele>
   <time>2014-04-10T14:04:32Z</time>
  </trkpt>
  <trkpt lat="35.676737" lon="-5.744113">
   <ele>38.00</ele>
   <time>2014-04-10T14:04:44Z</time>
  </trkpt>
  <trkpt lat="35.677148" lon="-5.743767">
   <ele>37.00</ele>
   <time>2014-04-10T14:04:46Z</time>
  </trkpt>
  <trkpt lat="35.677542" lon="-5.743391">
   <ele>37.00</ele>
   <time>2014-04-10T14:04:48Z</time>
  </trkpt>
  <trkpt lat="35.677921" lon="-5.742990">
   <ele>37.00</ele>
   <time>2014-04-10T14:04:50Z</time>
  </trkpt>
  <trkpt lat="35.678279" lon="-5.742563">
   <ele>37.00</ele>
   <time>2014-04-10T14:04:52Z</time>
  </trkpt>
  <trkpt lat="35.678614" lon="-5.742117">
   <ele>37.00</ele>
   <time>2014-04-10T14:04:54Z</time>
  </trkpt>
  <trkpt lat="35.678927" lon="-5.741652">
   <ele>38.00</ele>
   <time>2014-04-10T14:04:56Z</time>
  </trkpt>
  <trkpt lat="35.679215" lon="-5.741170">
   <ele>39.00</ele>
   <time>2014-04-10T14:04:58Z</time>
  </trkpt>
  <trkpt lat="35.679479" lon="-5.740675">
   <ele>40.00</ele>
   <time>2014-04-10T14:05:00Z</time>
  </trkpt>
  <trkpt lat="35.679718" lon="-5.740167">
   <ele>41.00</ele>
   <time>2014-04-10T14:05:02Z</time>
  </trkpt>
  <trkpt lat="35.679932" lon="-5.739650">
   <ele>43.00</ele>
   <time>2014-04-10T14:05:04Z</time>
  </trkpt>
  <trkpt lat="35.680123" lon="-5.739122">
   <ele>45.00</ele>
   <time>2014-04-10T14:05:06Z</time>
  </trkpt>
  <trkpt lat="35.680290" lon="-5.738588">
   <ele>47.00</ele>
   <time>2014-04-10T14:05:08Z</time>
  </trkpt>
  <trkpt lat="35.680433" lon="-5.738050">
   <ele>49.00</ele>
   <time>2014-04-10T14:05:10Z</time>
  </trkpt>
  <trkpt lat="35.680553" lon="-5.737510">
   <ele>51.00</ele>
   <time>2014-04-10T14:05:12Z</time>
  </trkpt>
  <trkpt lat="35.680649" lon="-5.736966">
   <ele>53.00</ele>
   <time>2014-04-10T14:05:14Z</time>
  </trkpt>
  <trkpt lat="35.680720" lon="-5.736417">
   <ele>56.00</ele>
   <time>2014-04-10T14:05:16Z</time>
  </trkpt>
  <trkpt lat="35.680766" lon="-5.735863">
   <ele>58.00</ele>
   <time>2014-04-10T14:05:18Z</time>
  </trkpt>
  <trkpt lat="35.680788" lon="-5.735303">
   <ele>60.00</ele>
   <time>2014-04-10T14:05:20Z</time>
  </trkpt>
  <trkpt lat="35.680791" lon="-5.734737">
   <ele>61.00</ele>
   <time>2014-04-10T14:05:22Z</time>
  </trkpt>
  <trkpt lat="35.680783" lon="-5.734452">
   <ele>62.00</ele>
   <time>2014-04-10T14:05:23Z</time>
  </trkpt>
  <trkpt lat="35.680746" lon="-5.733878">
   <ele>63.00</ele>
   <time>2014-04-10T14:05:25Z</time>
  </trkpt>
  <trkpt lat="35.680686" lon="-5.733303">
   <ele>65.00</ele>
   <time>2014-04-10T14:05:27Z</time>
  </trkpt>
  <trkpt lat="35.680339" lon="-5.730417">
   <ele>69.00</ele>
   <time>2014-04-10T14:05:37Z</time>
  </trkpt>
  <trkpt lat="35.680317" lon="-5.729838">
   <ele>69.00</ele>
   <time>2014-04-10T14:05:39Z</time>
  </trkpt>
  <trkpt lat="35.680319" lon="-5.729262">
   <ele>69.00</ele>
   <time>2014-04-10T14:05:41Z</time>
  </trkpt>
  <trkpt lat="35.680343" lon="-5.728686">
   <ele>68.00</ele>
   <time>2014-04-10T14:05:43Z</time>
  </trkpt>
  <trkpt lat="35.680394" lon="-5.728109">
   <ele>67.00</ele>
   <time>2014-04-10T14:05:45Z</time>
  </trkpt>
  <trkpt lat="35.680472" lon="-5.727535">
   <ele>66.00</ele>
   <time>2014-04-10T14:05:47Z</time>
  </trkpt>
  <trkpt lat="35.680575" lon="-5.726969">
   <ele>65.00</ele>
   <time>2014-04-10T14:05:49Z</time>
  </trkpt>
  <trkpt lat="35.680700" lon="-5.726410">
   <ele>64.00</ele>
   <time>2014-04-10T14:05:51Z</time>
  </trkpt>
  <trkpt lat="35.680850" lon="-5.725856">
   <ele>62.00</ele>
   <time>2014-04-10T14:05:53Z</time>
  </trkpt>
  <trkpt lat="35.681025" lon="-5.725308">
   <ele>61.00</ele>
   <time>2014-04-10T14:05:55Z</time>
  </trkpt>
  <trkpt lat="35.681225" lon="-5.724766">
   <ele>60.00</ele>
   <time>2014-04-10T14:05:57Z</time>
  </trkpt>
  <trkpt lat="35.681448" lon="-5.724232">
   <ele>59.00</ele>
   <time>2014-04-10T14:05:59Z</time>
  </trkpt>
  <trkpt lat="35.681694" lon="-5.723710">
   <ele>58.00</ele>
   <time>2014-04-10T14:06:01Z</time>
  </trkpt>
  <trkpt lat="35.682961" lon="-5.721127">
   <ele>60.00</ele>
   <time>2014-04-10T14:06:11Z</time>
  </trkpt>
  <trkpt lat="35.683182" lon="-5.720601">
   <ele>61.00</ele>
   <time>2014-04-10T14:06:13Z</time>
  </trkpt>
  <trkpt lat="35.683382" lon="-5.720068">
   <ele>62.00</ele>
   <time>2014-04-10T14:06:15Z</time>
  </trkpt>
  <trkpt lat="35.683559" lon="-5.719528">
   <ele>63.00</ele>
   <time>2014-04-10T14:06:17Z</time>
  </trkpt>
  <trkpt lat="35.683716" lon="-5.718979">
   <ele>64.00</ele>
   <time>2014-04-10T14:06:19Z</time>
  </trkpt>
  <trkpt lat="35.683853" lon="-5.718422">
   <ele>65.00</ele>
   <time>2014-04-10T14:06:21Z</time>
  </trkpt>
  <trkpt lat="35.683969" lon="-5.717860">
   <ele>67.00</ele>
   <time>2014-04-10T14:06:23Z</time>
  </trkpt>
  <trkpt lat="35.684104" lon="-5.717006">
   <ele>68.00</ele>
   <time>2014-04-10T14:06:26Z</time>
  </trkpt>
  <trkpt lat="35.684170" lon="-5.716430">
   <ele>69.00</ele>
   <time>2014-04-10T14:06:28Z</time>
  </trkpt>
  <trkpt lat="35.684214" lon="-5.715849">
   <ele>70.00</ele>
   <time>2014-04-10T14:06:30Z</time>
  </trkpt>
  <trkpt lat="35.684236" lon="-5.715263">
   <ele>71.00</ele>
   <time>2014-04-10T14:06:32Z</time>
  </trkpt>
  <trkpt lat="35.684235" lon="-5.714675">
   <ele>72.00</ele>
   <time>2014-04-10T14:06:34Z</time>
  </trkpt>
  <trkpt lat="35.684215" lon="-5.714088">
   <ele>73.00</ele>
   <time>2014-04-10T14:06:36Z</time>
  </trkpt>
  <trkpt lat="35.684174" lon="-5.713503">
   <ele>73.00</ele>
   <time>2014-04-10T14:06:38Z</time>
  </trkpt>
  <trkpt lat="35.684111" lon="-5.712918">
   <ele>73.00</ele>
   <time>2014-04-10T14:06:40Z</time>
  </trkpt>
  <trkpt lat="35.684023" lon="-5.712338">
   <ele>74.00</ele>
   <time>2014-04-10T14:06:42Z</time>
  </trkpt>
  <trkpt lat="35.683917" lon="-5.711767">
   <ele>74.00</ele>
   <time>2014-04-10T14:06:44Z</time>
  </trkpt>
  <trkpt lat="35.683730" lon="-5.710918">
   <ele>73.00</ele>
   <time>2014-04-10T14:06:47Z</time>
  </trkpt>
  <trkpt lat="35.682713" lon="-5.706679">
   <ele>76.00</ele>
   <time>2014-04-10T14:07:02Z</time>
  </trkpt>
  <trkpt lat="35.682121" lon="-5.704095">
   <ele>78.00</ele>
   <time>2014-04-10T14:07:11Z</time>
  </trkpt>
  <trkpt lat="35.682026" lon="-5.703508">
   <ele>78.00</ele>
   <time>2014-04-10T14:07:13Z</time>
  </trkpt>
  <trkpt lat="35.681958" lon="-5.702915">
   <ele>78.00</ele>
   <time>2014-04-10T14:07:15Z</time>
  </trkpt>
  <trkpt lat="35.681918" lon="-5.702317">
   <ele>79.00</ele>
   <time>2014-04-10T14:07:17Z</time>
  </trkpt>
  <trkpt lat="35.681904" lon="-5.701716">
   <ele>79.00</ele>
   <time>2014-04-10T14:07:19Z</time>
  </trkpt>
  <trkpt lat="35.681916" lon="-5.701114">
   <ele>80.00</ele>
   <time>2014-04-10T14:07:21Z</time>
  </trkpt>
  <trkpt lat="35.681955" lon="-5.700516">
   <ele>82.00</ele>
   <time>2014-04-10T14:07:23Z</time>
  </trkpt>
  <trkpt lat="35.682022" lon="-5.699923">
   <ele>83.00</ele>
   <time>2014-04-10T14:07:25Z</time>
  </trkpt>
  <trkpt lat="35.682114" lon="-5.699336">
   <ele>84.00</ele>
   <time>2014-04-10T14:07:27Z</time>
  </trkpt>
  <trkpt lat="35.682232" lon="-5.698758">
   <ele>85.00</ele>
   <time>2014-04-10T14:07:29Z</time>
  </trkpt>
  <trkpt lat="35.682373" lon="-5.698191">
   <ele>87.00</ele>
   <time>2014-04-10T14:07:31Z</time>
  </trkpt>
  <trkpt lat="35.682537" lon="-5.697635">
   <ele>88.00</ele>
   <time>2014-04-10T14:07:33Z</time>
  </trkpt>
  <trkpt lat="35.682726" lon="-5.697090">
   <ele>89.00</ele>
   <time>2014-04-10T14:07:35Z</time>
  </trkpt>
  <trkpt lat="35.682941" lon="-5.696558">
   <ele>91.00</ele>
   <time>2014-04-10T14:07:37Z</time>
  </trkpt>
  <trkpt lat="35.683177" lon="-5.696038">
   <ele>92.00</ele>
   <time>2014-04-10T14:07:39Z</time>
  </trkpt>
  <trkpt lat="35.683434" lon="-5.695533">
   <ele>93.00</ele>
   <time>2014-04-10T14:07:41Z</time>
  </trkpt>
  <trkpt lat="35.685589" lon="-5.691531">
   <ele>92.00</ele>
   <time>2014-04-10T14:07:57Z</time>
  </trkpt>
  <trkpt lat="35.685826" lon="-5.691004">
   <ele>91.00</ele>
   <time>2014-04-10T14:07:59Z</time>
  </trkpt>
  <trkpt lat="35.686039" lon="-5.690464">
   <ele>90.00</ele>
   <time>2014-04-10T14:08:01Z</time>
  </trkpt>
  <trkpt lat="35.686226" lon="-5.689910">
   <ele>89.00</ele>
   <time>2014-04-10T14:08:03Z</time>
  </trkpt>
  <trkpt lat="35.686391" lon="-5.689342">
   <ele>88.00</ele>
   <time>2014-04-10T14:08:05Z</time>
  </trkpt>
  <trkpt lat="35.686529" lon="-5.688757">
   <ele>87.00</ele>
   <time>2014-04-10T14:08:07Z</time>
  </trkpt>
  <trkpt lat="35.686640" lon="-5.688159">
   <ele>86.00</ele>
   <time>2014-04-10T14:08:09Z</time>
  </trkpt>
  <trkpt lat="35.686728" lon="-5.687555">
   <ele>85.00</ele>
   <time>2014-04-10T14:08:11Z</time>
  </trkpt>
  <trkpt lat="35.687291" lon="-5.683078">
   <ele>84.00</ele>
   <time>2014-04-10T14:08:26Z</time>
  </trkpt>
  <trkpt lat="35.687385" lon="-5.682503">
   <ele>85.00</ele>
   <time>2014-04-10T14:08:28Z</time>
  </trkpt>
  <trkpt lat="35.687496" lon="-5.681937">
   <ele>86.00</ele>
   <time>2014-04-10T14:08:30Z</time>
  </trkpt>
  <trkpt lat="35.687627" lon="-5.681383">
   <ele>87.00</ele>
   <time>2014-04-10T14:08:32Z</time>
  </trkpt>
  <trkpt lat="35.687703" lon="-5.681114">
   <ele>87.00</ele>
   <time>2014-04-10T14:08:33Z</time>
  </trkpt>
  <trkpt lat="35.687875" lon="-5.680593">
   <ele>88.00</ele>
   <time>2014-04-10T14:08:35Z</time>
  </trkpt>
  <trkpt lat="35.688065" lon="-5.680089">
   <ele>90.00</ele>
   <time>2014-04-10T14:08:37Z</time>
  </trkpt>
  <trkpt lat="35.688272" lon="-5.679595">
   <ele>91.00</ele>
   <time>2014-04-10T14:08:39Z</time>
  </trkpt>
  <trkpt lat="35.688502" lon="-5.679110">
   <ele>92.00</ele>
   <time>2014-04-10T14:08:41Z</time>
  </trkpt>
  <trkpt lat="35.688759" lon="-5.678635">
   <ele>93.00</ele>
   <time>2014-04-10T14:08:43Z</time>
  </trkpt>
  <trkpt lat="35.689041" lon="-5.678173">
   <ele>94.00</ele>
   <time>2014-04-10T14:08:45Z</time>
  </trkpt>
  <trkpt lat="35.689344" lon="-5.677726">
   <ele>95.00</ele>
   <time>2014-04-10T14:08:47Z</time>
  </trkpt>
  <trkpt lat="35.689669" lon="-5.677297">
   <ele>96.00</ele>
   <time>2014-04-10T14:08:49Z</time>
  </trkpt>
  <trkpt lat="35.690013" lon="-5.676888">
   <ele>97.00</ele>
   <time>2014-04-10T14:08:51Z</time>
  </trkpt>
  <trkpt lat="35.692723" lon="-5.673952">
   <ele>106.00</ele>
   <time>2014-04-10T14:09:06Z</time>
  </trkpt>
  <trkpt lat="35.695635" lon="-5.670803">
   <ele>116.00</ele>
   <time>2014-04-10T14:09:22Z</time>
  </trkpt>
  <trkpt lat="35.698486" lon="-5.667707">
   <ele>132.00</ele>
   <time>2014-04-10T14:09:38Z</time>
  </trkpt>
  <trkpt lat="35.699541" lon="-5.666534">
   <ele>139.00</ele>
   <time>2014-04-10T14:09:44Z</time>
  </trkpt>
  <trkpt lat="35.699877" lon="-5.666127">
   <ele>142.00</ele>
   <time>2014-04-10T14:09:46Z</time>
  </trkpt>
  <trkpt lat="35.700197" lon="-5.665704">
   <ele>145.00</ele>
   <time>2014-04-10T14:09:48Z</time>
  </trkpt>
  <trkpt lat="35.700502" lon="-5.665268">
   <ele>148.00</ele>
   <time>2014-04-10T14:09:50Z</time>
  </trkpt>
  <trkpt lat="35.700791" lon="-5.664818">
   <ele>150.00</ele>
   <time>2014-04-10T14:09:52Z</time>
  </trkpt>
  <trkpt lat="35.701065" lon="-5.664354">
   <ele>153.00</ele>
   <time>2014-04-10T14:09:54Z</time>
  </trkpt>
  <trkpt lat="35.701321" lon="-5.663877">
   <ele>156.00</ele>
   <time>2014-04-10T14:09:56Z</time>
  </trkpt>
  <trkpt lat="35.701674" lon="-5.663144">
   <ele>160.00</ele>
   <time>2014-04-10T14:09:59Z</time>
  </trkpt>
  <trkpt lat="35.701892" lon="-5.662642">
   <ele>162.00</ele>
   <time>2014-04-10T14:10:01Z</time>
  </trkpt>
  <trkpt lat="35.702195" lon="-5.661872">
   <ele>166.00</ele>
   <time>2014-04-10T14:10:04Z</time>
  </trkpt>
  <trkpt lat="35.702982" lon="-5.659791">
   <ele>176.00</ele>
   <time>2014-04-10T14:10:12Z</time>
  </trkpt>
  <trkpt lat="35.703206" lon="-5.659286">
   <ele>178.00</ele>
   <time>2014-04-10T14:10:14Z</time>
  </trkpt>
  <trkpt lat="35.703572" lon="-5.658543">
   <ele>181.00</ele>
   <time>2014-04-10T14:10:17Z</time>
  </trkpt>
  <trkpt lat="35.703966" lon="-5.657820">
   <ele>184.00</ele>
   <time>2014-04-10T14:10:20Z</time>
  </trkpt>
  <trkpt lat="35.704395" lon="-5.657116">
   <ele>187.00</ele>
   <time>2014-04-10T14:10:23Z</time>
  </trkpt>
  <trkpt lat="35.704696" lon="-5.656661">
   <ele>189.00</ele>
   <time>2014-04-10T14:10:25Z</time>
  </trkpt>
  <trkpt lat="35.705169" lon="-5.656006">
   <ele>191.00</ele>
   <time>2014-04-10T14:10:28Z</time>
  </trkpt>
  <trkpt lat="35.705500" lon="-5.655581">
   <ele>192.00</ele>
   <time>2014-04-10T14:10:30Z</time>
  </trkpt>
  <trkpt lat="35.706021" lon="-5.654970">
   <ele>193.00</ele>
   <time>2014-04-10T14:10:33Z</time>
  </trkpt>
  <trkpt lat="35.706568" lon="-5.654391">
   <ele>194.00</ele>
   <time>2014-04-10T14:10:36Z</time>
  </trkpt>
  <trkpt lat="35.707140" lon="-5.653841">
   <ele>194.00</ele>
   <time>2014-04-10T14:10:39Z</time>
  </trkpt>
  <trkpt lat="35.707738" lon="-5.653329">
   <ele>194.00</ele>
   <time>2014-04-10T14:10:42Z</time>
  </trkpt>
  <trkpt lat="35.708355" lon="-5.652857">
   <ele>194.00</ele>
   <time>2014-04-10T14:10:45Z</time>
  </trkpt>
  <trkpt lat="35.708990" lon="-5.652421">
   <ele>194.00</ele>
   <time>2014-04-10T14:10:48Z</time>
  </trkpt>
  <trkpt lat="35.710917" lon="-5.651154">
   <ele>191.00</ele>
   <time>2014-04-10T14:10:57Z</time>
  </trkpt>
  <trkpt lat="35.711499" lon="-5.650700">
   <ele>189.00</ele>
   <time>2014-04-10T14:11:00Z</time>
  </trkpt>
  <trkpt lat="35.712038" lon="-5.650229">
   <ele>187.00</ele>
   <time>2014-04-10T14:11:03Z</time>
  </trkpt>
  <trkpt lat="35.712375" lon="-5.649913">
   <ele>186.00</ele>
   <time>2014-04-10T14:11:05Z</time>
  </trkpt>
  <trkpt lat="35.713001" lon="-5.649275">
   <ele>183.00</ele>
   <time>2014-04-10T14:11:09Z</time>
  </trkpt>
  <trkpt lat="35.713292" lon="-5.648949">
   <ele>182.00</ele>
   <time>2014-04-10T14:11:11Z</time>
  </trkpt>
  <trkpt lat="35.713710" lon="-5.648444">
   <ele>180.00</ele>
   <time>2014-04-10T14:11:14Z</time>
  </trkpt>
  <trkpt lat="35.714115" lon="-5.647915">
   <ele>177.00</ele>
   <time>2014-04-10T14:11:17Z</time>
  </trkpt>
  <trkpt lat="35.714509" lon="-5.647349">
   <ele>175.00</ele>
   <time>2014-04-10T14:11:20Z</time>
  </trkpt>
  <trkpt lat="35.714899" lon="-5.646737">
   <ele>173.00</ele>
   <time>2014-04-10T14:11:23Z</time>
  </trkpt>
  <trkpt lat="35.715291" lon="-5.646063">
   <ele>170.00</ele>
   <time>2014-04-10T14:11:26Z</time>
  </trkpt>
  <trkpt lat="35.715671" lon="-5.645338">
   <ele>167.00</ele>
   <time>2014-04-10T14:11:29Z</time>
  </trkpt>
  <trkpt lat="35.717649" lon="-5.641193">
   <ele>151.00</ele>
   <time>2014-04-10T14:11:45Z</time>
  </trkpt>
  <trkpt lat="35.719676" lon="-5.636929">
   <ele>135.00</ele>
   <time>2014-04-10T14:12:01Z</time>
  </trkpt>
  <trkpt lat="35.721593" lon="-5.632945">
   <ele>120.00</ele>
   <time>2014-04-10T14:12:16Z</time>
  </trkpt>
  <trkpt lat="35.721866" lon="-5.632451">
   <ele>118.00</ele>
   <time>2014-04-10T14:12:18Z</time>
  </trkpt>
  <trkpt lat="35.722298" lon="-5.631732">
   <ele>116.00</ele>
   <time>2014-04-10T14:12:21Z</time>
  </trkpt>
  <trkpt lat="35.722606" lon="-5.631266">
   <ele>114.00</ele>
   <time>2014-04-10T14:12:23Z</time>
  </trkpt>
  <trkpt lat="35.723261" lon="-5.630359">
   <ele>110.00</ele>
   <time>2014-04-10T14:12:27Z</time>
  </trkpt>
  <trkpt lat="35.723608" lon="-5.629926">
   <ele>108.00</ele>
   <time>2014-04-10T14:12:29Z</time>
  </trkpt>
  <trkpt lat="35.724156" lon="-5.629301">
   <ele>105.00</ele>
   <time>2014-04-10T14:12:32Z</time>
  </trkpt>
  <trkpt lat="35.724539" lon="-5.628903">
   <ele>103.00</ele>
   <time>2014-04-10T14:12:34Z</time>
  </trkpt>
  <trkpt lat="35.724936" lon="-5.628524">
   <ele>101.00</ele>
   <time>2014-04-10T14:12:36Z</time>
  </trkpt>
  <trkpt lat="35.725549" lon="-5.627988">
   <ele>99.00</ele>
   <time>2014-04-10T14:12:39Z</time>
  </trkpt>
  <trkpt lat="35.725966" lon="-5.627661">
   <ele>98.00</ele>
   <time>2014-04-10T14:12:41Z</time>
  </trkpt>
  <trkpt lat="35.726392" lon="-5.627360">
   <ele>97.00</ele>
   <time>2014-04-10T14:12:43Z</time>
  </trkpt>
  <trkpt lat="35.727038" lon="-5.626943">
   <ele>96.00</ele>
   <time>2014-04-10T14:12:46Z</time>
  </trkpt>
  <trkpt lat="35.727687" lon="-5.626560">
   <ele>94.00</ele>
   <time>2014-04-10T14:12:49Z</time>
  </trkpt>
  <trkpt lat="35.728341" lon="-5.626218">
   <ele>94.00</ele>
   <time>2014-04-10T14:12:52Z</time>
  </trkpt>
  <trkpt lat="35.729008" lon="-5.625919">
   <ele>94.00</ele>
   <time>2014-04-10T14:12:55Z</time>
  </trkpt>
  <trkpt lat="35.729678" lon="-5.625665">
   <ele>93.00</ele>
   <time>2014-04-10T14:12:58Z</time>
  </trkpt>
  <trkpt lat="35.730401" lon="-5.625471">
   <ele>93.00</ele>
   <time>2014-04-10T14:13:01Z</time>
  </trkpt>
  <trkpt lat="35.731342" lon="-5.625222">
   <ele>93.00</ele>
   <time>2014-04-10T14:13:05Z</time>
  </trkpt>
  <trkpt lat="35.731820" lon="-5.625127">
   <ele>93.00</ele>
   <time>2014-04-10T14:13:07Z</time>
  </trkpt>
  <trkpt lat="35.732520" lon="-5.625026">
   <ele>93.00</ele>
   <time>2014-04-10T14:13:10Z</time>
  </trkpt>
  <trkpt lat="35.732967" lon="-5.624991">
   <ele>93.00</ele>
   <time>2014-04-10T14:13:12Z</time>
  </trkpt>
  <trkpt lat="35.733966" lon="-5.624963">
   <ele>94.00</ele>
   <time>2014-04-10T14:13:17Z</time>
  </trkpt>
  <trkpt lat="35.734322" lon="-5.624962">
   <ele>94.00</ele>
   <time>2014-04-10T14:13:19Z</time>
  </trkpt>
  <trkpt lat="35.735113" lon="-5.624993">
   <ele>93.00</ele>
   <time>2014-04-10T14:13:24Z</time>
  </trkpt>
  <trkpt lat="35.736177" lon="-5.625078">
   <ele>91.00</ele>
   <time>2014-04-10T14:13:39Z</time>
  </trkpt>
  <trkpt lat="35.736290" lon="-5.625090">
   <ele>92.00</ele>
   <time>2014-04-10T14:13:55Z</time>
  </trkpt>
  <trkpt lat="35.736453" lon="-5.625105">
   <ele>93.00</ele>
   <time>2014-04-10T14:14:11Z</time>
  </trkpt>
  <trkpt lat="35.736431" lon="-5.625070">
   <ele>91.00</ele>
   <time>2014-04-10T14:14:26Z</time>
  </trkpt>
  <trkpt lat="35.736732" lon="-5.625120">
   <ele>88.00</ele>
   <time>2014-04-10T14:14:40Z</time>
  </trkpt>
  <trkpt lat="35.736957" lon="-5.625116">
   <ele>89.00</ele>
   <time>2014-04-10T14:14:43Z</time>
  </trkpt>
  <trkpt lat="35.737394" lon="-5.625090">
   <ele>90.00</ele>
   <time>2014-04-10T14:14:49Z</time>
  </trkpt>
  <trkpt lat="35.737759" lon="-5.625098">
   <ele>92.00</ele>
   <time>2014-04-10T14:14:53Z</time>
  </trkpt>
  <trkpt lat="35.738382" lon="-5.625133">
   <ele>93.00</ele>
   <time>2014-04-10T14:14:58Z</time>
  </trkpt>
  <trkpt lat="35.738674" lon="-5.625127">
   <ele>93.00</ele>
   <time>2014-04-10T14:15:00Z</time>
  </trkpt>
  <trkpt lat="35.739177" lon="-5.625106">
   <ele>94.00</ele>
   <time>2014-04-10T14:15:03Z</time>
  </trkpt>
  <trkpt lat="35.739542" lon="-5.625070">
   <ele>94.00</ele>
   <time>2014-04-10T14:15:05Z</time>
  </trkpt>
  <trkpt lat="35.739922" lon="-5.625010">
   <ele>93.00</ele>
   <time>2014-04-10T14:15:07Z</time>
  </trkpt>
  <trkpt lat="35.740882" lon="-5.624810">
   <ele>93.00</ele>
   <time>2014-04-10T14:15:12Z</time>
  </trkpt>
  <trkpt lat="35.741289" lon="-5.624701">
   <ele>93.00</ele>
   <time>2014-04-10T14:15:14Z</time>
  </trkpt>
  <trkpt lat="35.741704" lon="-5.624566">
   <ele>94.00</ele>
   <time>2014-04-10T14:15:16Z</time>
  </trkpt>
  <trkpt lat="35.742120" lon="-5.624412">
   <ele>94.00</ele>
   <time>2014-04-10T14:15:18Z</time>
  </trkpt>
  <trkpt lat="35.742542" lon="-5.624231">
   <ele>96.00</ele>
   <time>2014-04-10T14:15:20Z</time>
  </trkpt>
  <trkpt lat="35.742958" lon="-5.624029">
   <ele>97.00</ele>
   <time>2014-04-10T14:15:22Z</time>
  </trkpt>
  <trkpt lat="35.743782" lon="-5.623577">
   <ele>99.00</ele>
   <time>2014-04-10T14:15:26Z</time>
  </trkpt>
  <trkpt lat="35.744394" lon="-5.623202">
   <ele>102.00</ele>
   <time>2014-04-10T14:15:29Z</time>
  </trkpt>
  <trkpt lat="35.744987" lon="-5.622795">
   <ele>105.00</ele>
   <time>2014-04-10T14:15:32Z</time>
  </trkpt>
  <trkpt lat="35.745561" lon="-5.622358">
   <ele>107.00</ele>
   <time>2014-04-10T14:15:35Z</time>
  </trkpt>
  <trkpt lat="35.746124" lon="-5.621886">
   <ele>110.00</ele>
   <time>2014-04-10T14:15:38Z</time>
  </trkpt>
  <trkpt lat="35.749059" lon="-5.619271">
   <ele>125.00</ele>
   <time>2014-04-10T14:15:54Z</time>
  </trkpt>
  <trkpt lat="35.749836" lon="-5.618637">
   <ele>128.00</ele>
   <time>2014-04-10T14:15:58Z</time>
  </trkpt>
  <trkpt lat="35.750239" lon="-5.618333">
   <ele>130.00</ele>
   <time>2014-04-10T14:16:00Z</time>
  </trkpt>
  <trkpt lat="35.750654" lon="-5.618051">
   <ele>131.00</ele>
   <time>2014-04-10T14:16:02Z</time>
  </trkpt>
  <trkpt lat="35.751078" lon="-5.617792">
   <ele>132.00</ele>
   <time>2014-04-10T14:16:04Z</time>
  </trkpt>
  <trkpt lat="35.751512" lon="-5.617556">
   <ele>132.00</ele>
   <time>2014-04-10T14:16:06Z</time>
  </trkpt>
  <trkpt lat="35.752177" lon="-5.617241">
   <ele>133.00</ele>
   <time>2014-04-10T14:16:09Z</time>
  </trkpt>
  <trkpt lat="35.752627" lon="-5.617055">
   <ele>134.00</ele>
   <time>2014-04-10T14:16:11Z</time>
  </trkpt>
  <trkpt lat="35.753313" lon="-5.616814">
   <ele>134.00</ele>
   <time>2014-04-10T14:16:14Z</time>
  </trkpt>
  <trkpt lat="35.754007" lon="-5.616614">
   <ele>134.00</ele>
   <time>2014-04-10T14:16:17Z</time>
  </trkpt>
  <trkpt lat="35.754477" lon="-5.616503">
   <ele>134.00</ele>
   <time>2014-04-10T14:16:19Z</time>
  </trkpt>
  <trkpt lat="35.755192" lon="-5.616374">
   <ele>133.00</ele>
   <time>2014-04-10T14:16:22Z</time>
  </trkpt>
  <trkpt lat="35.755677" lon="-5.616313">
   <ele>133.00</ele>
   <time>2014-04-10T14:16:24Z</time>
  </trkpt>
  <trkpt lat="35.756164" lon="-5.616274">
   <ele>133.00</ele>
   <time>2014-04-10T14:16:26Z</time>
  </trkpt>
  <trkpt lat="35.756653" lon="-5.616260">
   <ele>133.00</ele>
   <time>2014-04-10T14:16:28Z</time>
  </trkpt>
  <trkpt lat="35.756899" lon="-5.616262">
   <ele>133.00</ele>
   <time>2014-04-10T14:16:29Z</time>
  </trkpt>
  <trkpt lat="35.757634" lon="-5.616298">
   <ele>133.00</ele>
   <time>2014-04-10T14:16:32Z</time>
  </trkpt>
  <trkpt lat="35.758877" lon="-5.616426">
   <ele>133.00</ele>
   <time>2014-04-10T14:16:37Z</time>
  </trkpt>
  <trkpt lat="35.761386" lon="-5.616680">
   <ele>141.00</ele>
   <time>2014-04-10T14:16:47Z</time>
  </trkpt>
  <trkpt lat="35.762127" lon="-5.616707">
   <ele>144.00</ele>
   <time>2014-04-10T14:16:50Z</time>
  </trkpt>
  <trkpt lat="35.762374" lon="-5.616707">
   <ele>145.00</ele>
   <time>2014-04-10T14:16:51Z</time>
  </trkpt>
  <trkpt lat="35.763118" lon="-5.616684">
   <ele>148.00</ele>
   <time>2014-04-10T14:16:54Z</time>
  </trkpt>
  <trkpt lat="35.763862" lon="-5.616626">
   <ele>150.00</ele>
   <time>2014-04-10T14:16:57Z</time>
  </trkpt>
  <trkpt lat="35.764856" lon="-5.616495">
   <ele>152.00</ele>
   <time>2014-04-10T14:17:01Z</time>
  </trkpt>
  <trkpt lat="35.768867" lon="-5.615870">
   <ele>151.00</ele>
   <time>2014-04-10T14:17:17Z</time>
  </trkpt>
  <trkpt lat="35.772880" lon="-5.615226">
   <ele>142.00</ele>
   <time>2014-04-10T14:17:33Z</time>
  </trkpt>
  <trkpt lat="35.773841" lon="-5.615022">
   <ele>142.00</ele>
   <time>2014-04-10T14:17:37Z</time>
  </trkpt>
  <trkpt lat="35.774310" lon="-5.614887">
   <ele>142.00</ele>
   <time>2014-04-10T14:17:39Z</time>
  </trkpt>
  <trkpt lat="35.774999" lon="-5.614648">
   <ele>142.00</ele>
   <time>2014-04-10T14:17:42Z</time>
  </trkpt>
  <trkpt lat="35.775667" lon="-5.614372">
   <ele>143.00</ele>
   <time>2014-04-10T14:17:45Z</time>
  </trkpt>
  <trkpt lat="35.776103" lon="-5.614168">
   <ele>144.00</ele>
   <time>2014-04-10T14:17:47Z</time>
  </trkpt>
  <trkpt lat="35.776529" lon="-5.613944">
   <ele>144.00</ele>
   <time>2014-04-10T14:17:49Z</time>
  </trkpt>
  <trkpt lat="35.777149" lon="-5.613580">
   <ele>146.00</ele>
   <time>2014-04-10T14:17:52Z</time>
  </trkpt>
  <trkpt lat="35.777746" lon="-5.613182">
   <ele>147.00</ele>
   <time>2014-04-10T14:17:55Z</time>
  </trkpt>
  <trkpt lat="35.778134" lon="-5.612895">
   <ele>148.00</ele>
   <time>2014-04-10T14:17:57Z</time>
  </trkpt>
  <trkpt lat="35.778706" lon="-5.612431">
   <ele>150.00</ele>
   <time>2014-04-10T14:18:00Z</time>
  </trkpt>
  <trkpt lat="35.779085" lon="-5.612097">
   <ele>151.00</ele>
   <time>2014-04-10T14:18:02Z</time>
  </trkpt>
  <trkpt lat="35.779455" lon="-5.611738">
   <ele>152.00</ele>
   <time>2014-04-10T14:18:04Z</time>
  </trkpt>
  <trkpt lat="35.779998" lon="-5.611164">
   <ele>153.00</ele>
   <time>2014-04-10T14:18:07Z</time>
  </trkpt>
  <trkpt lat="35.780526" lon="-5.610556">
   <ele>154.00</ele>
   <time>2014-04-10T14:18:10Z</time>
  </trkpt>
  <trkpt lat="35.783349" lon="-5.607122">
   <ele>164.00</ele>
   <time>2014-04-10T14:18:26Z</time>
  </trkpt>
  <trkpt lat="35.786114" lon="-5.603643">
   <ele>179.00</ele>
   <time>2014-04-10T14:18:42Z</time>
  </trkpt>
  <trkpt lat="35.788672" lon="-5.600471">
   <ele>198.00</ele>
   <time>2014-04-10T14:18:57Z</time>
  </trkpt>
  <trkpt lat="35.791377" lon="-5.597144">
   <ele>213.00</ele>
   <time>2014-04-10T14:19:13Z</time>
  </trkpt>
  <trkpt lat="35.793094" lon="-5.595018">
   <ele>214.00</ele>
   <time>2014-04-10T14:19:23Z</time>
  </trkpt>
  <trkpt lat="35.793754" lon="-5.594107">
   <ele>214.00</ele>
   <time>2014-04-10T14:19:27Z</time>
  </trkpt>
  <trkpt lat="35.794069" lon="-5.593621">
   <ele>213.00</ele>
   <time>2014-04-10T14:19:29Z</time>
  </trkpt>
  <trkpt lat="35.794369" lon="-5.593112">
   <ele>212.00</ele>
   <time>2014-04-10T14:19:31Z</time>
  </trkpt>
  <trkpt lat="35.794649" lon="-5.592588">
   <ele>211.00</ele>
   <time>2014-04-10T14:19:33Z</time>
  </trkpt>
  <trkpt lat="35.794916" lon="-5.592042">
   <ele>209.00</ele>
   <time>2014-04-10T14:19:35Z</time>
  </trkpt>
  <trkpt lat="35.795180" lon="-5.591456">
   <ele>207.00</ele>
   <time>2014-04-10T14:19:37Z</time>
  </trkpt>
  <trkpt lat="35.795426" lon="-5.590844">
   <ele>205.00</ele>
   <time>2014-04-10T14:19:39Z</time>
  </trkpt>
  <trkpt lat="35.795538" lon="-5.590532">
   <ele>203.00</ele>
   <time>2014-04-10T14:19:40Z</time>
  </trkpt>
  <trkpt lat="35.797173" lon="-5.585583">
   <ele>180.00</ele>
   <time>2014-04-10T14:19:56Z</time>
  </trkpt>
  <trkpt lat="35.798763" lon="-5.580972">
   <ele>156.00</ele>
   <time>2014-04-10T14:20:11Z</time>
  </trkpt>
  <trkpt lat="35.800234" lon="-5.576658">
   <ele>134.00</ele>
   <time>2014-04-10T14:20:25Z</time>
  </trkpt>
  <trkpt lat="35.800362" lon="-5.576362">
   <ele>132.00</ele>
   <time>2014-04-10T14:20:26Z</time>
  </trkpt>
  <trkpt lat="35.800497" lon="-5.576073">
   <ele>131.00</ele>
   <time>2014-04-10T14:20:27Z</time>
  </trkpt>
  <trkpt lat="35.800791" lon="-5.575513">
   <ele>128.00</ele>
   <time>2014-04-10T14:20:29Z</time>
  </trkpt>
  <trkpt lat="35.801114" lon="-5.574977">
   <ele>125.00</ele>
   <time>2014-04-10T14:20:31Z</time>
  </trkpt>
  <trkpt lat="35.801460" lon="-5.574463">
   <ele>121.00</ele>
   <time>2014-04-10T14:20:33Z</time>
  </trkpt>
  <trkpt lat="35.801833" lon="-5.573972">
   <ele>118.00</ele>
   <time>2014-04-10T14:20:35Z</time>
  </trkpt>
  <trkpt lat="35.802229" lon="-5.573508">
   <ele>115.00</ele>
   <time>2014-04-10T14:20:37Z</time>
  </trkpt>
  <trkpt lat="35.802648" lon="-5.573078">
   <ele>112.00</ele>
   <time>2014-04-10T14:20:39Z</time>
  </trkpt>
  <trkpt lat="35.803085" lon="-5.572682">
   <ele>109.00</ele>
   <time>2014-04-10T14:20:41Z</time>
  </trkpt>
  <trkpt lat="35.803539" lon="-5.572319">
   <ele>105.00</ele>
   <time>2014-04-10T14:20:43Z</time>
  </trkpt>
  <trkpt lat="35.804010" lon="-5.571992">
   <ele>102.00</ele>
   <time>2014-04-10T14:20:45Z</time>
  </trkpt>
  <trkpt lat="35.806950" lon="-5.570205">
   <ele>84.00</ele>
   <time>2014-04-10T14:20:57Z</time>
  </trkpt>
  <trkpt lat="35.810881" lon="-5.567819">
   <ele>60.00</ele>
   <time>2014-04-10T14:21:13Z</time>
  </trkpt>
  <trkpt lat="35.814528" lon="-5.565598">
   <ele>39.00</ele>
   <time>2014-04-10T14:21:28Z</time>
  </trkpt>
  <trkpt lat="35.816250" lon="-5.564575">
   <ele>28.00</ele>
   <time>2014-04-10T14:21:35Z</time>
  </trkpt>
  <trkpt lat="35.818484" lon="-5.563377">
   <ele>18.00</ele>
   <time>2014-04-10T14:21:44Z</time>
  </trkpt>
  <trkpt lat="35.820240" lon="-5.562539">
   <ele>13.00</ele>
   <time>2014-04-10T14:21:51Z</time>
  </trkpt>
  <trkpt lat="35.821992" lon="-5.561800">
   <ele>9.00</ele>
   <time>2014-04-10T14:21:58Z</time>
  </trkpt>
  <trkpt lat="35.823499" lon="-5.561224">
   <ele>7.00</ele>
   <time>2014-04-10T14:22:04Z</time>
  </trkpt>
  <trkpt lat="35.826310" lon="-5.560282">
   <ele>3.00</ele>
   <time>2014-04-10T14:22:15Z</time>
  </trkpt>
  <trkpt lat="35.828598" lon="-5.559684">
   <ele>1.00</ele>
   <time>2014-04-10T14:22:24Z</time>
  </trkpt>
  <trkpt lat="35.832698" lon="-5.558768">
   <ele>0.00</ele>
   <time>2014-04-10T14:22:40Z</time>
  </trkpt>
  <trkpt lat="35.833973" lon="-5.558451">
   <ele>3.00</ele>
   <time>2014-04-10T14:22:45Z</time>
  </trkpt>
  <trkpt lat="35.834474" lon="-5.558287">
   <ele>4.00</ele>
   <time>2014-04-10T14:22:47Z</time>
  </trkpt>
  <trkpt lat="35.834965" lon="-5.558093">
   <ele>6.00</ele>
   <time>2014-04-10T14:22:49Z</time>
  </trkpt>
  <trkpt lat="35.835446" lon="-5.557870">
   <ele>9.00</ele>
   <time>2014-04-10T14:22:51Z</time>
  </trkpt>
  <trkpt lat="35.835913" lon="-5.557620">
   <ele>11.00</ele>
   <time>2014-04-10T14:22:53Z</time>
  </trkpt>
  <trkpt lat="35.836365" lon="-5.557345">
   <ele>14.00</ele>
   <time>2014-04-10T14:22:55Z</time>
  </trkpt>
  <trkpt lat="35.836801" lon="-5.557048">
   <ele>17.00</ele>
   <time>2014-04-10T14:22:57Z</time>
  </trkpt>
  <trkpt lat="35.837222" lon="-5.556732">
   <ele>20.00</ele>
   <time>2014-04-10T14:22:59Z</time>
  </trkpt>
  <trkpt lat="35.837628" lon="-5.556395">
   <ele>23.00</ele>
   <time>2014-04-10T14:23:01Z</time>
  </trkpt>
  <trkpt lat="35.838018" lon="-5.556031">
   <ele>25.00</ele>
   <time>2014-04-10T14:23:03Z</time>
  </trkpt>
  <trkpt lat="35.838395" lon="-5.555647">
   <ele>28.00</ele>
   <time>2014-04-10T14:23:05Z</time>
  </trkpt>
  <trkpt lat="35.838758" lon="-5.555242">
   <ele>31.00</ele>
   <time>2014-04-10T14:23:07Z</time>
  </trkpt>
  <trkpt lat="35.839276" lon="-5.554605">
   <ele>35.00</ele>
   <time>2014-04-10T14:23:10Z</time>
  </trkpt>
  <trkpt lat="35.839599" lon="-5.554160">
   <ele>37.00</ele>
   <time>2014-04-10T14:23:12Z</time>
  </trkpt>
  <trkpt lat="35.839905" lon="-5.553700">
   <ele>40.00</ele>
   <time>2014-04-10T14:23:14Z</time>
  </trkpt>
  <trkpt lat="35.842255" lon="-5.549884">
   <ele>57.00</ele>
   <time>2014-04-10T14:23:30Z</time>
  </trkpt>
  <trkpt lat="35.844543" lon="-5.546190">
   <ele>61.00</ele>
   <time>2014-04-10T14:23:45Z</time>
  </trkpt>
  <trkpt lat="35.844858" lon="-5.545702">
   <ele>60.00</ele>
   <time>2014-04-10T14:23:47Z</time>
  </trkpt>
  <trkpt lat="35.845187" lon="-5.545237">
   <ele>60.00</ele>
   <time>2014-04-10T14:23:49Z</time>
  </trkpt>
  <trkpt lat="35.845709" lon="-5.544571">
   <ele>58.00</ele>
   <time>2014-04-10T14:23:52Z</time>
  </trkpt>
  <trkpt lat="35.846070" lon="-5.544149">
   <ele>56.00</ele>
   <time>2014-04-10T14:23:54Z</time>
  </trkpt>
  <trkpt lat="35.846635" lon="-5.543544">
   <ele>54.00</ele>
   <time>2014-04-10T14:23:57Z</time>
  </trkpt>
  <trkpt lat="35.847228" lon="-5.542965">
   <ele>51.00</ele>
   <time>2014-04-10T14:24:00Z</time>
  </trkpt>
  <trkpt lat="35.850381" lon="-5.539942">
   <ele>36.00</ele>
   <time>2014-04-10T14:24:16Z</time>
  </trkpt>
  <trkpt lat="35.853156" lon="-5.537273">
   <ele>24.00</ele>
   <time>2014-04-10T14:24:32Z</time>
  </trkpt>
  <trkpt lat="35.854380" lon="-5.536155">
   <ele>22.00</ele>
   <time>2014-04-10T14:24:40Z</time>
  </trkpt>
  <trkpt lat="35.856132" lon="-5.534712">
   <ele>21.00</ele>
   <time>2014-04-10T14:24:54Z</time>
  </trkpt>
  <trkpt lat="35.856283" lon="-5.534478">
   <ele>21.00</ele>
   <time>2014-04-10T14:24:57Z</time>
  </trkpt>
  <trkpt lat="35.856424" lon="-5.534300">
   <ele>21.00</ele>
   <time>2014-04-10T14:25:00Z</time>
  </trkpt>
  <trkpt lat="35.856628" lon="-5.534314">
   <ele>20.00</ele>
   <time>2014-04-10T14:25:03Z</time>
  </trkpt>
  <trkpt lat="35.856894" lon="-5.534353">
   <ele>19.00</ele>
   <time>2014-04-10T14:25:06Z</time>
  </trkpt>
  <trkpt lat="35.857109" lon="-5.534321">
   <ele>20.00</ele>
   <time>2014-04-10T14:25:08Z</time>
  </trkpt>
  <trkpt lat="35.857346" lon="-5.534246">
   <ele>20.00</ele>
   <time>2014-04-10T14:25:10Z</time>
  </trkpt>
  <trkpt lat="35.857577" lon="-5.534138">
   <ele>21.00</ele>
   <time>2014-04-10T14:25:12Z</time>
  </trkpt>
  <trkpt lat="35.857808" lon="-5.533995">
   <ele>21.00</ele>
   <time>2014-04-10T14:25:14Z</time>
  </trkpt>
  <trkpt lat="35.858044" lon="-5.533820">
   <ele>22.00</ele>
   <time>2014-04-10T14:25:16Z</time>
  </trkpt>
  <trkpt lat="35.859422" lon="-5.532718">
   <ele>26.00</ele>
   <time>2014-04-10T14:25:26Z</time>
  </trkpt>
  <trkpt lat="35.861472" lon="-5.530939">
   <ele>27.00</ele>
   <time>2014-04-10T14:25:41Z</time>
  </trkpt>
  <trkpt lat="35.863665" lon="-5.529061">
   <ele>29.00</ele>
   <time>2014-04-10T14:25:57Z</time>
  </trkpt>
  <trkpt lat="35.865915" lon="-5.527212">
   <ele>19.00</ele>
   <time>2014-04-10T14:26:12Z</time>
  </trkpt>
  <trkpt lat="35.866372" lon="-5.526815">
   <ele>17.00</ele>
   <time>2014-04-10T14:26:15Z</time>
  </trkpt>
  <trkpt lat="35.866521" lon="-5.526674">
   <ele>17.00</ele>
   <time>2014-04-10T14:26:16Z</time>
  </trkpt>
  <trkpt lat="35.866806" lon="-5.526378">
   <ele>17.00</ele>
   <time>2014-04-10T14:26:18Z</time>
  </trkpt>
  <trkpt lat="35.867078" lon="-5.526063">
   <ele>18.00</ele>
   <time>2014-04-10T14:26:20Z</time>
  </trkpt>
  <trkpt lat="35.867339" lon="-5.525735">
   <ele>20.00</ele>
   <time>2014-04-10T14:26:22Z</time>
  </trkpt>
  <trkpt lat="35.867582" lon="-5.525397">
   <ele>22.00</ele>
   <time>2014-04-10T14:26:24Z</time>
  </trkpt>
  <trkpt lat="35.867793" lon="-5.525071">
   <ele>24.00</ele>
   <time>2014-04-10T14:26:26Z</time>
  </trkpt>
  <trkpt lat="35.868059" lon="-5.524630">
   <ele>26.00</ele>
   <time>2014-04-10T14:26:29Z</time>
  </trkpt>
  <trkpt lat="35.868202" lon="-5.524371">
   <ele>28.00</ele>
   <time>2014-04-10T14:26:31Z</time>
  </trkpt>
  <trkpt lat="35.868306" lon="-5.524158">
   <ele>29.00</ele>
   <time>2014-04-10T14:26:33Z</time>
  </trkpt>
  <trkpt lat="35.868356" lon="-5.523899">
   <ele>30.00</ele>
   <time>2014-04-10T14:26:36Z</time>
  </trkpt>
  <trkpt lat="35.868439" lon="-5.523685">
   <ele>31.00</ele>
   <time>2014-04-10T14:26:40Z</time>
  </trkpt>
  <trkpt lat="35.868646" lon="-5.523773">
   <ele>30.00</ele>
   <time>2014-04-10T14:26:44Z</time>
  </trkpt>
  <trkpt lat="35.868827" lon="-5.523739">
   <ele>30.00</ele>
   <time>2014-04-10T14:26:47Z</time>
  </trkpt>
  <trkpt lat="35.868947" lon="-5.523532">
   <ele>30.00</ele>
   <time>2014-04-10T14:26:50Z</time>
  </trkpt>
  <trkpt lat="35.869020" lon="-5.523272">
   <ele>30.00</ele>
   <time>2014-04-10T14:26:53Z</time>
  </trkpt>
  <trkpt lat="35.869321" lon="-5.522203">
   <ele>28.00</ele>
   <time>2014-04-10T14:27:04Z</time>
  </trkpt>
  <trkpt lat="35.869452" lon="-5.521804">
   <ele>28.00</ele>
   <time>2014-04-10T14:27:08Z</time>
  </trkpt>
  <trkpt lat="35.869756" lon="-5.520986">
   <ele>28.00</ele>
   <time>2014-04-10T14:27:18Z</time>
  </trkpt>
  <trkpt lat="35.869894" lon="-5.520635">
   <ele>28.00</ele>
   <time>2014-04-10T14:27:34Z</time>
  </trkpt>
  <trkpt lat="35.869928" lon="-5.520560">
   <ele>28.00</ele>
   <time>2014-04-10T14:27:50Z</time>
  </trkpt>
  <trkpt lat="35.870024" lon="-5.520366">
   <ele>28.00</ele>
   <time>2014-04-10T14:28:01Z</time>
  </trkpt>
  <trkpt lat="35.870051" lon="-5.520308">
   <ele>28.00</ele>
   <time>2014-04-10T14:28:17Z</time>
  </trkpt>
  <trkpt lat="35.870052" lon="-5.520310">
   <ele>28.00</ele>
   <time>2014-04-10T14:28:33Z</time>
  </trkpt>
  <trkpt lat="35.870054" lon="-5.520309">
   <ele>28.00</ele>
   <time>2014-04-10T14:28:48Z</time>
  </trkpt>
  <trkpt lat="35.870056" lon="-5.520308">
   <ele>28.00</ele>
   <time>2014-04-10T14:28:57Z</time>
  </trkpt>
 </trkseg>
</trk>
</gpx>